{
  "fields": [{"id":"_id","type":"int"},{"id":"idDevice","type":"text"},{"id":"TimeInstant","type":"timestamp"},{"id":"temperature","type":"float4"},{"id":"soilMoisture","type":"float4"},{"id":"electricalConductivity","type":"float4"}],
  "records": [
    [1,"urn:DeviceMeasurement:MC0203J22010600005","2023-05-02T12:00:00",28.6,28.1,0.17],
    [2,"urn:DeviceMeasurement:MC0203J22010600005","2023-05-02T12:01:00",28.6,28.1,0.17],
    [3,"urn:WaterMeter:MC0203J22010600005","2023-05-05T12:30:29",29.2,29.926226,0.187],
    [4,"urn:WaterMeter:MC0203J22010600005","2023-05-05T13:00:28",29.1,29.808304,0.182],
    [5,"urn:WaterMeter:MC0203J22010600005","2023-05-05T13:30:29",28.7,29.736969,0.185],
    [6,"urn:WaterMeter:MC0203J22010600005","2023-05-05T14:00:30",28.2,29.644222,0.188],
    [7,"urn:WaterMeter:MC0203J22010600005","2023-05-05T14:30:30",27.7,29.606209,0.186],
    [8,"urn:WaterMeter:MC0203J22010600005","2023-05-05T15:00:30",27.299,29.529444,0.185],
    [9,"urn:WaterMeter:MC0203J22010600005","2023-05-05T15:30:31",26.899,29.437899,0.179],
    [10,"urn:WaterMeter:MC0203J22010600005","2023-05-05T16:00:31",26.5,29.403376,0.184],
    [11,"urn:WaterMeter:MC0203J22010600005","2023-05-05T16:30:32",26.1,29.406479,0.185],
    [12,"urn:WaterMeter:MC0203J22010600005","2023-05-05T17:00:33",25.7,29.33627,0.184],
    [13,"urn:WaterMeter:MC0203J22010600005","2023-05-05T17:30:33",25.299,29.330837,0.186],
    [14,"urn:WaterMeter:MC0203J22010600005","2023-05-05T18:00:34",24.799,29.275717,0.18],
    [15,"urn:WaterMeter:MC0203J22010600005","2023-05-05T18:30:34",24.299,29.283514,0.186],
    [16,"urn:WaterMeter:MC0203J22010600005","2023-05-05T19:00:35",23.7,29.273003,0.185],
    [17,"urn:WaterMeter:MC0203J22010600005","2023-05-05T19:30:38",23.2,29.261017,0.186],
    [18,"urn:WaterMeter:MC0203J22010600005","2023-05-05T20:00:36",22.7,29.23076,0.194],
    [19,"urn:WaterMeter:MC0203J22010600005","2023-05-05T20:45:25",22.2,29.25093,0.179],
    [20,"urn:WaterMeter:MC0203J22010600005","2023-05-05T21:00:25",22,29.240458,0.181],
    [21,"urn:WaterMeter:MC0203J22010600005","2023-05-05T21:30:26",21.6,29.255934,0.181],
    [22,"urn:WaterMeter:MC0203J22010600005","2023-05-05T22:00:26",21.299,29.22339,0.183],
    [23,"urn:WaterMeter:MC0203J22010600005","2023-05-05T22:30:27",20.899,29.241621,0.184],
    [24,"urn:WaterMeter:MC0203J22010600005","2023-05-05T23:00:28",20.6,29.228006,0.183],
    [25,"urn:WaterMeter:MC0203J22010600005","2023-05-05T23:30:28",20.299,29.259851,0.185],
    [26,"urn:WaterMeter:MC0203J22010600005","2023-05-06T00:00:28",20,29.229597,0.181],
    [27,"urn:WaterMeter:MC0203J22010600005","2023-05-06T00:30:29",19.7,29.242397,0.182],
    [28,"urn:WaterMeter:MC0203J22010600005","2023-05-06T01:00:30",19.399,29.253258,0.178],
    [29,"urn:WaterMeter:MC0203J22010600005","2023-05-06T01:30:30",19.2,29.253607,0.178],
    [30,"urn:WaterMeter:MC0203J22010600005","2023-05-06T02:00:30",18.899,29.236927,0.18],
    [31,"urn:WaterMeter:MC0203J22010600005","2023-05-06T02:30:31",18.7,29.229597,0.185],
    [32,"urn:WaterMeter:MC0203J22010600005","2023-05-06T03:00:31",18.5,29.29356,0.18],
    [33,"urn:WaterMeter:MC0203J22010600005","2023-05-06T03:30:32",18.2,29.27692,0.189],
    [34,"urn:WaterMeter:MC0203J22010600005","2023-05-06T04:00:32",18,29.280024,0.176],
    [35,"urn:WaterMeter:MC0203J22010600005","2023-05-06T04:30:32",17.799,29.261404,0.178],
    [36,"urn:WaterMeter:MC0203J22010600005","2023-05-06T05:00:32",17.7,29.279634,0.18],
    [37,"urn:WaterMeter:MC0203J22010600005","2023-05-06T05:30:33",17.6,29.231148,0.176],
    [38,"urn:WaterMeter:MC0203J22010600005","2023-05-06T06:00:34",17.6,29.257914,0.186],
    [39,"urn:WaterMeter:MC0203J22010600005","2023-05-06T06:30:34",17.799,29.22882,0.175],
    [40,"urn:WaterMeter:MC0203J22010600005","2023-05-06T07:00:34",18,29.214817,0.185],
    [41,"urn:WaterMeter:MC0203J22010600005","2023-05-06T07:30:34",18.5,29.167145,0.171],
    [42,"urn:WaterMeter:MC0203J22010600005","2023-05-06T08:00:33",19.6,29.083359,0.177],
    [43,"urn:WaterMeter:MC0203J22010600005","2023-05-06T08:30:34",21,29.004187,0.168],
    [44,"urn:WaterMeter:MC0203J22010600005","2023-05-06T09:00:36",22.2,28.894062,0.165],
    [45,"urn:WaterMeter:MC0203J22010600005","2023-05-06T09:30:35",23.5,28.817646,0.167],
    [46,"urn:WaterMeter:MC0203J22010600005","2023-05-06T10:00:35",25,28.667917,0.159],
    [47,"urn:WaterMeter:MC0203J22010600005","2023-05-06T10:30:35",26.299,28.547628,0.163],
    [48,"urn:WaterMeter:MC0203J22010600005","2023-05-06T11:00:35",27.399,28.41772,0.167],
    [49,"urn:WaterMeter:MC0203J22010600005","2023-05-06T11:30:36",27.899,28.287775,0.165],
    [50,"urn:WaterMeter:MC0203J22010600005","2023-05-06T12:00:37",28.2,28.179125,0.164],
    [51,"urn:WaterMeter:MC0203J22010600005","2023-05-06T12:30:38",28.5,28.07986,0.173],
    [52,"urn:WaterMeter:MC0203J22010600005","2023-05-06T13:00:37",28.5,27.971636,0.164],
    [53,"urn:WaterMeter:MC0203J22010600005","2023-05-06T13:30:37",28.2,27.880053,0.165],
    [54,"urn:WaterMeter:MC0203J22010600005","2023-05-06T14:00:39",27.7,27.812597,0.165],
    [55,"urn:WaterMeter:MC0203J22010600005","2023-05-06T14:30:39",27.399,27.770317,0.168],
    [56,"urn:WaterMeter:MC0203J22010600005","2023-05-06T15:00:39",27.2,27.663994,0.167],
    [57,"urn:WaterMeter:MC0203J22010600005","2023-05-06T15:30:39",26.799,27.610502,0.167],
    [58,"urn:WaterMeter:MC0203J22010600005","2023-05-06T16:00:39",26.399,27.578655,0.166],
    [59,"urn:WaterMeter:MC0203J22010600005","2023-05-06T16:30:40",26.1,27.53525,0.166],
    [60,"urn:WaterMeter:MC0203J22010600005","2023-05-06T17:00:41",25.899,27.479004,0.163],
    [61,"urn:WaterMeter:MC0203J22010600005","2023-05-06T17:30:42",25.399,27.437885,0.171],
    [62,"urn:WaterMeter:MC0203J22010600005","2023-05-06T18:00:42",24.799,27.415775,0.159],
    [63,"urn:WaterMeter:MC0203J22010600005","2023-05-06T18:30:42",24.5,27.358366,0.162],
    [64,"urn:WaterMeter:MC0203J22010600005","2023-05-06T19:00:43",24,27.30988,0.163],
    [65,"urn:WaterMeter:MC0203J22010600005","2023-05-06T19:30:43",23.5,27.346691,0.162],
    [66,"urn:WaterMeter:MC0203J22010600005","2023-05-06T20:00:44",23.2,27.378149,0.164],
    [67,"urn:WaterMeter:MC0203J22010600005","2023-05-06T20:30:44",22.799,27.340912,0.172],
    [68,"urn:WaterMeter:MC0203J22010600005","2023-05-06T21:15:25",22.2,27.317211,0.168],
    [69,"urn:WaterMeter:MC0203J22010600005","2023-05-06T21:30:25",22.1,27.340523,0.168],
    [70,"urn:WaterMeter:MC0203J22010600005","2023-05-06T22:00:26",21.899,27.332766,0.165],
    [71,"urn:WaterMeter:MC0203J22010600005","2023-05-06T22:30:26",21.7,27.354448,0.168],
    [72,"urn:WaterMeter:MC0203J22010600005","2023-05-06T23:00:27",21.5,27.335054,0.163],
    [73,"urn:WaterMeter:MC0203J22010600005","2023-05-06T23:30:27",21.399,27.326132,0.165],
    [74,"urn:WaterMeter:MC0203J22010600005","2023-05-07T00:00:28",21.299,27.285053,0.169],
    [75,"urn:WaterMeter:MC0203J22010600005","2023-05-07T00:30:28",21.2,27.2804,0.164],
    [76,"urn:WaterMeter:MC0203J22010600005","2023-05-07T01:00:28",20.899,27.288933,0.162],
    [77,"urn:WaterMeter:MC0203J22010600005","2023-05-07T01:30:29",20.5,27.310656,0.163],
    [78,"urn:WaterMeter:MC0203J22010600005","2023-05-07T02:00:29",20.5,27.298203,0.16],
    [79,"urn:WaterMeter:MC0203J22010600005","2023-05-07T02:30:30",20.399,27.298203,0.161],
    [80,"urn:WaterMeter:MC0203J22010600005","2023-05-07T03:00:30",20.2,27.219847,0.162],
    [81,"urn:WaterMeter:MC0203J22010600005","2023-05-07T03:30:31",20.1,27.325006,0.162],
    [82,"urn:WaterMeter:MC0203J22010600005","2023-05-07T04:00:31",20,27.404877,0.161],
    [83,"urn:WaterMeter:MC0203J22010600005","2023-05-07T04:30:32",19.799,27.48715,0.159],
    [84,"urn:WaterMeter:MC0203J22010600005","2023-05-07T05:00:31",19.7,27.563953,0.161],
    [85,"urn:WaterMeter:MC0203J22010600005","2023-05-07T05:30:32",19.5,27.556196,0.163],
    [86,"urn:WaterMeter:MC0203J22010600005","2023-05-07T06:00:33",19.399,27.600029,0.161],
    [87,"urn:WaterMeter:MC0203J22010600005","2023-05-07T06:30:33",19.299,27.58102,0.167],
    [88,"urn:WaterMeter:MC0203J22010600005","2023-05-07T07:00:34",19.299,27.588352,0.164],
    [89,"urn:WaterMeter:MC0203J22010600005","2023-05-07T07:30:33",20,27.579432,0.159],
    [90,"urn:WaterMeter:MC0203J22010600005","2023-05-07T08:00:33",20.899,27.490602,0.158],
    [91,"urn:WaterMeter:MC0203J22010600005","2023-05-07T08:30:33",22.1,27.412634,0.16],
    [92,"urn:WaterMeter:MC0203J22010600005","2023-05-07T09:00:33",23.1,27.31143,0.159],
    [93,"urn:WaterMeter:MC0203J22010600005","2023-05-07T09:30:36",24.299,27.21523,0.152],
    [94,"urn:WaterMeter:MC0203J22010600005","2023-05-07T10:00:35",24.299,27.187304,0.151],
    [95,"urn:WaterMeter:MC0203J22010600005","2023-05-07T10:30:35",26.299,27.049599,0.151],
    [96,"urn:WaterMeter:MC0203J22010600005","2023-05-07T11:00:35",27.5,26.95534,0.154],
    [97,"urn:WaterMeter:MC0203J22010600005","2023-05-07T11:30:36",28.5,26.895601,0.154],
    [98,"urn:WaterMeter:MC0203J22010600005","2023-05-07T12:00:37",29.2,26.748589,0.151],
    [99,"urn:WaterMeter:MC0203J22010600005","2023-05-07T12:30:37",29.399,26.67062,0.159],
    [100,"urn:WaterMeter:MC0203J22010600005","2023-05-07T13:00:37",29.2,26.603514,0.155],
    [101,"urn:WaterMeter:MC0203J22010600005","2023-05-07T13:30:37",28.799,26.492535,0.15],
    [102,"urn:WaterMeter:MC0203J22010600005","2023-05-07T14:00:37",28.299,26.43788,0.155],
    [103,"urn:WaterMeter:MC0203J22010600005","2023-05-07T14:30:37",28.2,26.389004,0.155],
    [104,"urn:WaterMeter:MC0203J22010600005","2023-05-07T15:00:38",28.1,26.31414,0.157],
    [105,"urn:WaterMeter:MC0203J22010600005","2023-05-07T15:30:39",27.7,26.210144,0.153],
    [106,"urn:WaterMeter:MC0203J22010600005","2023-05-07T16:00:39",27.5,26.156652,0.152],
    [107,"urn:WaterMeter:MC0203J22010600005","2023-05-07T16:30:40",27.2,26.09614,0.149],
    [108,"urn:WaterMeter:MC0203J22010600005","2023-05-07T17:00:39",26.6,26.099243,0.155],
    [109,"urn:WaterMeter:MC0203J22010600005","2023-05-07T17:30:41",26,26.072477,0.149],
    [110,"urn:WaterMeter:MC0203J22010600005","2023-05-07T18:00:41",25.399,26.013905,0.151],
    [111,"urn:WaterMeter:MC0203J22010600005","2023-05-07T18:30:42",24.799,25.992184,0.152],
    [112,"urn:WaterMeter:MC0203J22010600005","2023-05-07T19:00:42",24.2,25.961151,0.157],
    [113,"urn:WaterMeter:MC0203J22010600005","2023-05-07T19:30:43",23.7,25.97818,0.153],
    [114,"urn:WaterMeter:MC0203J22010600005","2023-05-07T20:00:43",23.399,25.952618,0.153],
    [115,"urn:WaterMeter:MC0203J22010600005","2023-05-07T20:30:44",23,25.954945,0.154],
    [116,"urn:WaterMeter:MC0203J22010600005","2023-05-07T21:00:44",22.6,25.977016,0.147],
    [117,"urn:WaterMeter:MC0203J22010600005","2023-05-07T21:30:45",22.2,25.970848,0.154],
    [118,"urn:WaterMeter:MC0203J22010600005","2023-05-07T22:15:26",21.799,25.99451,0.149],
    [119,"urn:WaterMeter:MC0203J22010600005","2023-05-07T22:30:26",21.6,25.949474,0.151],
    [120,"urn:WaterMeter:MC0203J22010600005","2023-05-07T23:00:27",21.299,25.991018,0.146],
    [121,"urn:WaterMeter:MC0203J22010600005","2023-05-07T23:30:28",21,25.967745,0.154],
    [122,"urn:WaterMeter:MC0203J22010600005","2023-05-08T00:00:28",20.7,25.961927,0.148],
    [123,"urn:WaterMeter:MC0203J22010600005","2023-05-08T00:30:28",20.299,25.952618,0.15],
    [124,"urn:WaterMeter:MC0203J22010600005","2023-05-08T01:00:30",20,25.925465,0.155],
    [125,"urn:WaterMeter:MC0203J22010600005","2023-05-08T01:30:30",19.7,25.983261,0.148],
    [126,"urn:WaterMeter:MC0203J22010600005","2023-05-08T02:00:30",19.399,26.000717,0.15],
    [127,"urn:WaterMeter:MC0203J22010600005","2023-05-08T02:30:31",19.1,25.95762,0.152],
    [128,"urn:WaterMeter:MC0203J22010600005","2023-05-08T03:00:30",18.899,26.000328,0.151],
    [129,"urn:WaterMeter:MC0203J22010600005","2023-05-08T03:30:31",18.6,25.963865,0.152],
    [130,"urn:WaterMeter:MC0203J22010600005","2023-05-08T04:00:31",18.299,26.008436,0.152],
    [131,"urn:WaterMeter:MC0203J22010600005","2023-05-08T04:30:33",18.1,25.970848,0.149],
    [132,"urn:WaterMeter:MC0203J22010600005","2023-05-08T05:00:32",17.899,26.001104,0.151],
    [133,"urn:WaterMeter:MC0203J22010600005","2023-05-08T05:30:32",17.7,25.99641,0.149],
    [134,"urn:WaterMeter:MC0203J22010600005","2023-05-08T06:00:33",17.7,25.98904,0.147],
    [135,"urn:WaterMeter:MC0203J22010600005","2023-05-08T06:30:33",17.799,25.963478,0.147],
    [136,"urn:WaterMeter:MC0203J22010600005","2023-05-08T07:00:33",18.1,25.935549,0.142],
    [137,"urn:WaterMeter:MC0203J22010600005","2023-05-08T07:30:33",18.6,25.896372,0.151],
    [138,"urn:WaterMeter:MC0203J22010600005","2023-05-08T08:00:33",19.899,25.821856,0.143],
    [139,"urn:WaterMeter:MC0203J22010600005","2023-05-08T08:30:34",21.299,25.744663,0.137],
    [140,"urn:WaterMeter:MC0203J22010600005","2023-05-08T09:00:34",22.7,25.636866,0.132],
    [141,"urn:WaterMeter:MC0203J22010600005","2023-05-08T09:30:34",24.299,25.498774,0.134],
    [142,"urn:WaterMeter:MC0203J22010600005","2023-05-08T10:00:35",25.799,25.39792,0.14],
    [143,"urn:WaterMeter:MC0203J22010600005","2023-05-08T10:45:24",28,25.244312,0.138],
    [144,"urn:WaterMeter:MC0203J22010600005","2023-05-08T11:00:24",28.6,25.163202,0.13],
    [145,"urn:WaterMeter:MC0203J22010600005","2023-05-08T11:30:25",29.5,25.049974,0.131],
    [146,"urn:WaterMeter:MC0203J22010600005","2023-05-08T12:00:25",30,24.933992,0.133],
    [147,"urn:WaterMeter:MC0203J22010600005","2023-05-08T12:30:25",30.1,24.85327,0.14],
    [148,"urn:WaterMeter:MC0203J22010600005","2023-05-08T13:00:25",30.2,24.712112,0.136],
    [149,"urn:WaterMeter:MC0203J22010600005","2023-05-08T13:30:26",30,24.589924,0.139],
    [150,"urn:WaterMeter:MC0203J22010600005","2023-05-08T14:00:26",29.6,24.547255,0.134],
    [151,"urn:WaterMeter:MC0203J22010600005","2023-05-08T14:30:27",29.2,24.455671,0.135],
    [152,"urn:WaterMeter:MC0203J22010600005","2023-05-08T15:00:27",28.799,24.338177,0.141],
    [153,"urn:WaterMeter:MC0203J22010600005","2023-05-08T15:30:28",28.5,24.26758,0.137],
    [154,"urn:WaterMeter:MC0203J22010600005","2023-05-08T16:00:28",27.899,24.18453,0.139],
    [155,"urn:WaterMeter:MC0203J22010600005","2023-05-08T16:30:29",27.399,24.127121,0.135],
    [156,"urn:WaterMeter:MC0203J22010600005","2023-05-08T17:00:30",27.1,24.034063,0.14],
    [157,"urn:WaterMeter:MC0203J22010600005","2023-05-08T17:30:30",26.7,24.005747,0.133],
    [158,"urn:WaterMeter:MC0203J22010600005","2023-05-08T18:00:30",26.399,23.909935,0.137],
    [159,"urn:WaterMeter:MC0203J22010600005","2023-05-08T18:30:31",25.899,23.910711,0.138],
    [160,"urn:WaterMeter:MC0203J22010600005","2023-05-08T19:00:32",25.299,23.878128,0.133],
    [161,"urn:WaterMeter:MC0203J22010600005","2023-05-08T19:30:32",24.799,23.834295,0.134],
    [162,"urn:WaterMeter:MC0203J22010600005","2023-05-08T20:00:32",24.299,23.837399,0.139],
    [163,"urn:WaterMeter:MC0203J22010600005","2023-05-08T20:30:33",23.799,23.801712,0.139],
    [164,"urn:WaterMeter:MC0203J22010600005","2023-05-08T21:00:33",23.5,23.8149,0.138],
    [165,"urn:WaterMeter:MC0203J22010600005","2023-05-08T21:30:34",23.1,23.847095,0.135],
    [166,"urn:WaterMeter:MC0203J22010600005","2023-05-08T22:00:35",22.799,23.773396,0.13],
    [167,"urn:WaterMeter:MC0203J22010600005","2023-05-08T22:30:35",22.5,23.775723,0.139],
    [168,"urn:WaterMeter:MC0203J22010600005","2023-05-08T23:00:36",22.2,23.836622,0.138],
    [169,"urn:WaterMeter:MC0203J22010600005","2023-05-08T23:30:36",21.899,23.790462,0.134],
    [170,"urn:WaterMeter:MC0203J22010600005","2023-05-09T00:00:36",21.7,23.786158,0.131],
    [171,"urn:WaterMeter:MC0203J22010600005","2023-05-09T00:30:36",21.399,23.831968,0.135],
    [172,"urn:WaterMeter:MC0203J22010600005","2023-05-09T01:00:36",21.1,23.776459,0.137],
    [173,"urn:WaterMeter:MC0203J22010600005","2023-05-09T01:30:37",20.899,23.77999,0.132],
    [174,"urn:WaterMeter:MC0203J22010600005","2023-05-09T02:00:38",20.799,23.774559,0.128],
    [175,"urn:WaterMeter:MC0203J22010600005","2023-05-09T02:30:38",20.799,23.787321,0.135],
    [176,"urn:WaterMeter:MC0203J22010600005","2023-05-09T03:00:39",20.799,23.79085,0.13],
    [177,"urn:WaterMeter:MC0203J22010600005","2023-05-09T03:30:39",20.6,23.721027,0.135],
    [178,"urn:WaterMeter:MC0203J22010600005","2023-05-09T04:00:39",20.2,23.728748,0.14],
    [179,"urn:WaterMeter:MC0203J22010600005","2023-05-09T04:30:40",19.899,23.764086,0.129],
    [180,"urn:WaterMeter:MC0203J22010600005","2023-05-09T05:00:40",19.7,23.783869,0.129],
    [181,"urn:WaterMeter:MC0203J22010600005","2023-05-09T05:30:41",19.5,23.746592,0.129],
    [182,"urn:WaterMeter:MC0203J22010600005","2023-05-09T06:00:41",19.5,23.729523,0.139],
    [183,"urn:WaterMeter:MC0203J22010600005","2023-05-09T06:30:41",19.5,23.68379,0.129],
    [184,"urn:WaterMeter:MC0203J22010600005","2023-05-09T07:00:41",19.7,23.689182,0.132],
    [185,"urn:WaterMeter:MC0203J22010600005","2023-05-09T07:30:42",20.299,23.679483,0.128],
    [186,"urn:WaterMeter:MC0203J22010600005","2023-05-09T08:00:42",21.5,23.591043,0.125],
    [187,"urn:WaterMeter:MC0203J22010600005","2023-05-09T08:30:42",22.799,23.527079,0.13],
    [188,"urn:WaterMeter:MC0203J22010600005","2023-05-09T09:00:42",24.1,23.433594,0.125],
    [189,"urn:WaterMeter:MC0203J22010600005","2023-05-09T09:30:42",25.7,23.31253,0.122],
    [190,"urn:WaterMeter:MC0203J22010600005","2023-05-09T10:00:42",27.2,23.204308,0.125],
    [191,"urn:WaterMeter:MC0203J22010600005","2023-05-09T10:30:44",28.399,23.06509,0.122],
    [192,"urn:WaterMeter:MC0203J22010600005","2023-05-09T11:00:43",30.1,22.996819,0.118],
    [193,"urn:WaterMeter:MC0203J22010600005","2023-05-09T11:45:24",31.6,22.789293,0.118],
    [194,"urn:WaterMeter:MC0203J22010600005","2023-05-09T12:00:23",31.799,22.727228,0.116],
    [195,"urn:WaterMeter:MC0203J22010600005","2023-05-09T12:30:24",32.099,22.624823,0.123],
    [196,"urn:WaterMeter:MC0203J22010600005","2023-05-09T13:00:24",32,22.464231,0.119],
    [197,"urn:WaterMeter:MC0203J22010600005","2023-05-09T13:30:25",31.7,22.345146,0.121],
    [198,"urn:WaterMeter:MC0203J22010600005","2023-05-09T14:00:25",31.2,22.205853,0.118],
    [199,"urn:WaterMeter:MC0203J22010600005","2023-05-09T14:30:25",30.899,22.070475,0.121],
    [200,"urn:WaterMeter:MC0203J22010600005","2023-05-09T15:00:26",30.6,21.9254,0.124],
    [201,"urn:WaterMeter:MC0203J22010600005","2023-05-09T15:30:26",30.1,21.780752,0.117],
    [202,"urn:WaterMeter:MC0203J22010600005","2023-05-09T16:00:28",29.6,21.691885,0.124],
    [203,"urn:WaterMeter:MC0203J22010600005","2023-05-09T16:30:28",29.2,21.58913,0.12],
    [204,"urn:WaterMeter:MC0203J22010600005","2023-05-09T17:00:28",28.799,21.485561,0.123],
    [205,"urn:WaterMeter:MC0203J22010600005","2023-05-09T17:30:28",28.299,21.429665,0.12],
    [206,"urn:WaterMeter:MC0203J22010600005","2023-05-09T18:00:29",27.799,21.373846,0.122],
    [207,"urn:WaterMeter:MC0203J22010600005","2023-05-09T18:30:29",27.399,21.304373,0.122],
    [208,"urn:WaterMeter:MC0203J22010600005","2023-05-09T19:00:30",26.899,21.240408,0.125],
    [209,"urn:WaterMeter:MC0203J22010600005","2023-05-09T19:30:31",26.399,21.29545,0.117],
    [210,"urn:WaterMeter:MC0203J22010600005","2023-05-09T20:00:32",25.899,21.217484,0.118],
    [211,"urn:WaterMeter:MC0203J22010600005","2023-05-09T20:30:31",25.399,21.18839,0.119],
    [212,"urn:WaterMeter:MC0203J22010600005","2023-05-09T21:00:33",24.899,21.200066,0.116],
    [213,"urn:WaterMeter:MC0203J22010600005","2023-05-09T21:30:33",24.6,21.176405,0.121],
    [214,"urn:WaterMeter:MC0203J22010600005","2023-05-09T22:00:33",24.2,21.156233,0.125],
    [215,"urn:WaterMeter:MC0203J22010600005","2023-05-09T22:30:34",23.899,21.128654,0.118],
    [216,"urn:WaterMeter:MC0203J22010600005","2023-05-09T23:00:34",23.6,21.110811,0.115],
    [217,"urn:WaterMeter:MC0203J22010600005","2023-05-09T23:30:35",23.299,21.108482,0.116],
    [218,"urn:WaterMeter:MC0203J22010600005","2023-05-10T00:00:37",23,21.157396,0.119],
    [219,"urn:WaterMeter:MC0203J22010600005","2023-05-10T00:30:35",22.799,21.170198,0.122],
    [220,"urn:WaterMeter:MC0203J22010600005","2023-05-10T01:00:36",22.6,21.0868,0.117],
    [221,"urn:WaterMeter:MC0203J22010600005","2023-05-10T01:30:36",22.299,21.138739,0.121],
    [222,"urn:WaterMeter:MC0203J22010600005","2023-05-10T02:00:37",22.1,21.086023,0.115],
    [223,"urn:WaterMeter:MC0203J22010600005","2023-05-10T02:30:37",21.899,21.158134,0.119],
    [224,"urn:WaterMeter:MC0203J22010600005","2023-05-10T03:00:38",21.6,21.106583,0.113],
    [225,"urn:WaterMeter:MC0203J22010600005","2023-05-10T03:30:35",21.7,21.159298,0.115],
    [226,"urn:WaterMeter:MC0203J22010600005","2023-05-10T04:00:36",21.6,21.068567,0.116],
    [227,"urn:WaterMeter:MC0203J22010600005","2023-05-10T04:30:36",21.5,21.100338,0.109],
    [228,"urn:WaterMeter:MC0203J22010600005","2023-05-10T05:00:37",21.399,23.287355,0.135],
    [229,"urn:WaterMeter:MC0203J22010600005","2023-05-10T05:30:40",21.2,26.510029,0.171],
    [230,"urn:WaterMeter:MC0203J22010600005","2023-05-10T06:00:40",21.2,27.935135,0.171],
    [231,"urn:WaterMeter:MC0203J22010600005","2023-05-10T06:30:41",21.399,28.64538,0.181],
    [232,"urn:WaterMeter:MC0203J22010600005","2023-05-10T07:00:41",21.7,28.962334,0.188],
    [233,"urn:WaterMeter:MC0203J22010600005","2023-05-10T07:30:40",22.2,29.092667,0.177],
    [234,"urn:WaterMeter:MC0203J22010600005","2023-05-10T08:00:41",22.899,29.093056,0.171],
    [235,"urn:WaterMeter:MC0203J22010600005","2023-05-10T08:30:41",23.899,29.132622,0.172],
    [236,"urn:WaterMeter:MC0203J22010600005","2023-05-10T09:00:42",25.1,29.022032,0.175],
    [237,"urn:WaterMeter:MC0203J22010600005","2023-05-10T09:30:42",26.399,28.928198,0.167],
    [238,"urn:WaterMeter:MC0203J22010600005","2023-05-10T10:00:42",27.6,28.852169,0.169],
    [239,"urn:WaterMeter:MC0203J22010600005","2023-05-10T10:15:00",28.299,28.827694,0.169],
    [240,"urn:WaterMeter:MC0203J22010600005","2023-05-10T10:30:00",29,28.750502,0.171],
    [241,"urn:WaterMeter:MC0203J22010600005","2023-05-10T10:45:00",29.6,28.679941,0.168],
    [242,"urn:WaterMeter:MC0203J22010600005","2023-05-10T11:00:00",30.2,28.625984,0.169],
    [243,"urn:WaterMeter:MC0203J22010600005","2023-05-10T11:15:00",30.6,28.609732,0.166],
    [244,"urn:WaterMeter:MC0203J22010600005","2023-05-10T11:30:00",30.899,28.51392,0.171],
    [245,"urn:WaterMeter:MC0203J22010600005","2023-05-10T11:45:00",31.2,28.47513,0.165],
    [246,"urn:WaterMeter:MC0203J22010600005","2023-05-10T12:00:00",31.399,28.41617,0.165],
    [247,"urn:WaterMeter:MC0203J22010600005","2023-05-10T12:15:00",31.5,28.349451,0.175],
    [248,"urn:WaterMeter:MC0203J22010600005","2023-05-10T12:30:00",31.399,28.309109,0.17],
    [249,"urn:WaterMeter:MC0203J22010600005","2023-05-10T12:45:00",31.2,28.261398,0.166],
    [250,"urn:WaterMeter:MC0203J22010600005","2023-05-10T13:00:00",30.7,28.23696,0.167],
    [251,"urn:WaterMeter:MC0203J22010600005","2023-05-10T13:15:00",30.399,28.198908,0.167],
    [252,"urn:WaterMeter:MC0203J22010600005","2023-05-10T13:30:00",30,28.17218,0.181],
    [253,"urn:WaterMeter:MC0203J22010600005","2023-05-10T13:45:00",29.7,28.160505,0.175],
    [254,"urn:WaterMeter:MC0203J22010600005","2023-05-10T14:00:00",29.2,28.148092,0.165],
    [255,"urn:WaterMeter:MC0203J22010600005","2023-05-10T14:15:00",28.899,28.134943,0.172],
    [256,"urn:WaterMeter:MC0203J22010600005","2023-05-10T14:30:00",28.7,28.10042,0.174],
    [257,"urn:WaterMeter:MC0203J22010600005","2023-05-10T14:45:00",28.5,28.0837,0.169],
    [258,"urn:WaterMeter:MC0203J22010600005","2023-05-10T15:00:00",28.2,28.070513,0.167],
    [259,"urn:WaterMeter:MC0203J22010600005","2023-05-10T15:15:00",28.1,28.029821,0.17],
    [260,"urn:WaterMeter:MC0203J22010600005","2023-05-10T15:30:00",27.899,28.007711,0.168],
    [261,"urn:WaterMeter:MC0203J22010600005","2023-05-10T15:45:00",27.7,27.998014,0.164],
    [262,"urn:WaterMeter:MC0203J22010600005","2023-05-10T16:00:00",27.6,27.980558,0.174],
    [263,"urn:WaterMeter:MC0203J22010600005","2023-05-10T16:15:00",27.399,27.972412,0.168],
    [264,"urn:WaterMeter:MC0203J22010600005","2023-05-10T16:30:00",27.299,27.942156,0.174],
    [265,"urn:WaterMeter:MC0203J22010600005","2023-05-10T16:45:00",27.1,27.933235,0.168],
    [266,"urn:WaterMeter:MC0203J22010600005","2023-05-10T17:00:00",27,27.915003,0.167],
    [267,"urn:WaterMeter:MC0203J22010600005","2023-05-10T17:15:00",26.799,27.871946,0.171],
    [268,"urn:WaterMeter:MC0203J22010600005","2023-05-10T17:30:00",26.6,27.87117,0.167],
    [269,"urn:WaterMeter:MC0203J22010600005","2023-05-10T17:45:00",26.399,27.831179,0.165],
    [270,"urn:WaterMeter:MC0203J22010600005","2023-05-10T18:00:00",26.2,27.84906,0.173],
    [271,"urn:WaterMeter:MC0203J22010600005","2023-05-10T18:15:00",26,27.853714,0.175],
    [272,"urn:WaterMeter:MC0203J22010600005","2023-05-10T18:30:00",25.7,27.82695,0.176],
    [273,"urn:WaterMeter:MC0203J22010600005","2023-05-10T18:45:00",25.399,27.81764,0.169],
    [274,"urn:WaterMeter:MC0203J22010600005","2023-05-10T19:00:00",25.2,27.809494,0.172],
    [275,"urn:WaterMeter:MC0203J22010600005","2023-05-10T19:15:00",24.899,27.857943,0.172],
    [276,"urn:WaterMeter:MC0203J22010600005","2023-05-10T19:30:00",24.7,27.846733,0.174],
    [277,"urn:WaterMeter:MC0203J22010600005","2023-05-10T19:45:00",24.399,27.800146,0.174],
    [278,"urn:WaterMeter:MC0203J22010600005","2023-05-10T20:00:00",24.2,27.78428,0.172],
    [279,"urn:WaterMeter:MC0203J22010600005","2023-05-10T20:15:00",24.1,27.809107,0.171],
    [280,"urn:WaterMeter:MC0203J22010600005","2023-05-10T20:30:00",23.899,27.804451,0.17],
    [281,"urn:WaterMeter:MC0203J22010600005","2023-05-10T20:45:00",23.7,27.794754,0.169],
    [282,"urn:WaterMeter:MC0203J22010600005","2023-05-10T21:00:00",23.6,27.79553,0.169],
    [283,"urn:WaterMeter:MC0203J22010600005","2023-05-10T21:15:00",23.5,27.809107,0.171],
    [284,"urn:WaterMeter:MC0203J22010600005","2023-05-10T21:30:00",23.399,27.809107,0.17],
    [285,"urn:WaterMeter:MC0203J22010600005","2023-05-10T21:45:00",23.299,27.77148,0.178],
    [286,"urn:WaterMeter:MC0203J22010600005","2023-05-10T22:00:00",23.1,27.79747,0.174],
    [287,"urn:WaterMeter:MC0203J22010600005","2023-05-10T22:15:00",23,27.798634,0.17],
    [288,"urn:WaterMeter:MC0203J22010600005","2023-05-10T22:30:00",22.899,27.826561,0.169],
    [289,"urn:WaterMeter:MC0203J22010600005","2023-05-10T22:45:00",22.899,27.781527,0.165],
    [290,"urn:WaterMeter:MC0203J22010600005","2023-05-10T23:00:00",22.899,27.78269,0.168],
    [291,"urn:WaterMeter:MC0203J22010600005","2023-05-10T23:15:00",22.799,27.77885,0.164],
    [292,"urn:WaterMeter:MC0203J22010600005","2023-05-10T23:30:00",22.799,27.768764,0.168],
    [293,"urn:WaterMeter:MC0203J22010600005","2023-05-10T23:45:00",22.799,27.74743,0.166],
    [294,"urn:WaterMeter:MC0203J22010600005","2023-05-11T00:00:00",22.7,27.750534,0.161],
    [295,"urn:WaterMeter:MC0203J22010600005","2023-05-11T00:15:00",22.7,27.798634,0.168],
    [296,"urn:WaterMeter:MC0203J22010600005","2023-05-11T00:30:00",22.6,27.757128,0.17],
    [297,"urn:WaterMeter:MC0203J22010600005","2023-05-11T00:45:00",22.6,27.779238,0.167],
    [298,"urn:WaterMeter:MC0203J22010600005","2023-05-11T01:00:00",22.5,27.75321,0.171],
    [299,"urn:WaterMeter:MC0203J22010600005","2023-05-11T01:15:00",22.5,27.751698,0.168],
    [300,"urn:WaterMeter:MC0203J22010600005","2023-05-11T01:30:00",22.399,27.740797,0.169],
    [301,"urn:WaterMeter:MC0203J22010600005","2023-05-11T01:45:00",22.399,27.711355,0.168],
    [302,"urn:WaterMeter:MC0203J22010600005","2023-05-11T02:00:00",22.299,27.721403,0.164],
    [303,"urn:WaterMeter:MC0203J22010600005","2023-05-11T02:15:00",22.2,27.664381,0.166],
    [304,"urn:WaterMeter:MC0203J22010600005","2023-05-11T02:30:00",22.2,27.739672,0.172],
    [305,"urn:WaterMeter:MC0203J22010600005","2023-05-11T02:45:00",22.2,27.715197,0.166],
    [306,"urn:WaterMeter:MC0203J22010600005","2023-05-11T03:00:00",22.1,27.71442,0.164],
    [307,"urn:WaterMeter:MC0203J22010600005","2023-05-11T03:15:00",22.1,27.714808,0.157],
    [308,"urn:WaterMeter:MC0203J22010600005","2023-05-11T03:30:00",22.1,27.666708,0.166],
    [309,"urn:WaterMeter:MC0203J22010600005","2023-05-11T03:45:00",22,27.656235,0.169],
    [310,"urn:WaterMeter:MC0203J22010600005","2023-05-11T04:00:00",22,27.644985,0.161],
    [311,"urn:WaterMeter:MC0203J22010600005","2023-05-11T04:15:00",21.899,27.688469,0.163],
    [312,"urn:WaterMeter:MC0203J22010600005","2023-05-11T04:30:00",21.899,27.629509,0.162],
    [313,"urn:WaterMeter:MC0203J22010600005","2023-05-11T04:45:00",21.799,27.639982,0.171],
    [314,"urn:WaterMeter:MC0203J22010600005","2023-05-11T05:00:00",21.7,27.633776,0.165],
    [315,"urn:WaterMeter:MC0203J22010600005","2023-05-11T05:15:00",21.7,27.64421,0.163],
    [316,"urn:WaterMeter:MC0203J22010600005","2023-05-11T05:30:00",21.7,27.646149,0.164],
    [317,"urn:WaterMeter:MC0203J22010600005","2023-05-11T05:45:00",21.6,27.63684,0.166],
    [318,"urn:WaterMeter:MC0203J22010600005","2023-05-11T06:00:00",21.7,27.576754,0.161],
    [319,"urn:WaterMeter:MC0203J22010600005","2023-05-11T06:15:00",21.799,27.581797,0.164],
    [320,"urn:WaterMeter:MC0203J22010600005","2023-05-11T06:30:00",21.899,27.582186,0.168],
    [321,"urn:WaterMeter:MC0203J22010600005","2023-05-11T06:45:00",21.799,27.602356,0.163],
    [322,"urn:WaterMeter:MC0203J22010600005","2023-05-11T07:00:00",21.799,27.591494,0.171],
    [323,"urn:WaterMeter:MC0203J22010600005","2023-05-11T07:15:00",21.899,27.554256,0.161],
    [324,"urn:WaterMeter:MC0203J22010600005","2023-05-11T07:30:00",22.1,27.53292,0.168],
    [325,"urn:WaterMeter:MC0203J22010600005","2023-05-11T07:45:00",22.2,27.528229,0.167],
    [326,"urn:WaterMeter:MC0203J22010600005","2023-05-11T08:00:00",22.5,27.508446,0.164],
    [327,"urn:WaterMeter:MC0203J22010600005","2023-05-11T08:15:00",22.6,27.492153,0.162],
    [328,"urn:WaterMeter:MC0203J22010600005","2023-05-11T08:30:00",22.799,27.427412,0.161],
    [329,"urn:WaterMeter:MC0203J22010600005","2023-05-11T08:45:00",22.899,27.454954,0.166],
    [330,"urn:WaterMeter:MC0203J22010600005","2023-05-11T09:00:00",22.899,27.418491,0.156],
    [331,"urn:WaterMeter:MC0203J22010600005","2023-05-11T09:15:00",23,27.375784,0.168],
    [332,"urn:WaterMeter:MC0203J22010600005","2023-05-11T09:30:00",23.1,27.355225,0.164],
    [333,"urn:WaterMeter:MC0203J22010600005","2023-05-11T09:45:00",23.299,27.336218,0.163],
    [334,"urn:WaterMeter:MC0203J22010600005","2023-05-11T10:00:00",23.6,27.309492,0.163],
    [335,"urn:WaterMeter:MC0203J22010600005","2023-05-11T10:15:00",24.2,27.28583,0.161],
    [336,"urn:WaterMeter:MC0203J22010600005","2023-05-11T10:30:00",24.6,27.259026,0.161],
    [337,"urn:WaterMeter:MC0203J22010600005","2023-05-11T10:45:00",25.299,27.201654,0.156],
    [338,"urn:WaterMeter:MC0203J22010600005","2023-05-11T11:00:00",25.5,27.145021,0.167],
    [339,"urn:WaterMeter:MC0203J22010600005","2023-05-11T11:15:00",25.7,27.088776,0.158],
    [340,"urn:WaterMeter:MC0203J22010600005","2023-05-11T11:30:00",25.799,27.046495,0.159],
    [341,"urn:WaterMeter:MC0203J22010600005","2023-05-11T11:45:00",26.5,27.020893,0.156],
    [342,"urn:WaterMeter:MC0203J22010600005","2023-05-11T12:00:00",26.7,26.975897,0.158],
    [343,"urn:WaterMeter:MC0203J22010600005","2023-05-11T12:15:00",27.2,26.910303,0.157],
    [344,"urn:WaterMeter:MC0203J22010600005","2023-05-11T12:30:00",27.2,26.893661,0.16],
    [345,"urn:WaterMeter:MC0203J22010600005","2023-05-11T12:45:00",27.2,26.838192,0.156],
    [346,"urn:WaterMeter:MC0203J22010600005","2023-05-11T13:00:00",27.299,26.823452,0.145],
    [347,"urn:WaterMeter:MC0203J22010600005","2023-05-11T13:15:00",27.299,26.745872,0.153],
    [348,"urn:WaterMeter:MC0203J22010600005","2023-05-11T13:30:00",27.299,26.717943,0.154],
    [349,"urn:WaterMeter:MC0203J22010600005","2023-05-11T13:45:00",27.399,26.673723,0.156],
    [350,"urn:WaterMeter:MC0203J22010600005","2023-05-11T14:00:00",27.299,26.627523,0.151],
    [351,"urn:WaterMeter:MC0203J22010600005","2023-05-11T14:15:00",27.1,26.565887,0.153],
    [352,"urn:WaterMeter:MC0203J22010600005","2023-05-11T14:30:00",27,26.569727,0.157],
    [353,"urn:WaterMeter:MC0203J22010600005","2023-05-11T14:45:00",27,26.543001,0.162],
    [354,"urn:WaterMeter:MC0203J22010600005","2023-05-11T15:00:00",26.899,26.526709,0.152],
    [355,"urn:WaterMeter:MC0203J22010600005","2023-05-11T15:15:00",26.899,26.472015,0.157],
    [356,"urn:WaterMeter:MC0203J22010600005","2023-05-11T15:30:00",26.799,26.438656,0.15],
    [357,"urn:WaterMeter:MC0203J22010600005","2023-05-11T15:45:00",26.5,26.4084,0.15],
    [358,"urn:WaterMeter:MC0203J22010600005","2023-05-11T16:00:00",26.299,26.394785,0.153],
    [359,"urn:WaterMeter:MC0203J22010600005","2023-05-11T16:15:00",26.1,26.392883,0.154],
    [360,"urn:WaterMeter:MC0203J22010600005","2023-05-11T16:30:00",26,26.358747,0.153],
    [361,"urn:WaterMeter:MC0203J22010600005","2023-05-11T16:45:00",25.799,26.363403,0.151],
    [362,"urn:WaterMeter:MC0203J22010600005","2023-05-11T17:00:00",25.6,26.32151,0.153],
    [363,"urn:WaterMeter:MC0203J22010600005","2023-05-11T17:15:00",25.5,26.307507,0.154],
    [364,"urn:WaterMeter:MC0203J22010600005","2023-05-11T17:30:00",25.299,26.314528,0.154],
    [365,"urn:WaterMeter:MC0203J22010600005","2023-05-11T17:45:00",25.1,26.259407,0.151],
    [366,"urn:WaterMeter:MC0203J22010600005","2023-05-11T18:00:00",24.799,26.248934,0.15],
    [367,"urn:WaterMeter:MC0203J22010600005","2023-05-11T18:15:00",24.6,26.257895,0.153],
    [368,"urn:WaterMeter:MC0203J22010600005","2023-05-11T18:30:00",24.399,26.269104,0.156],
    [369,"urn:WaterMeter:MC0203J22010600005","2023-05-11T18:45:00",24.1,26.235395,0.161],
    [370,"urn:WaterMeter:MC0203J22010600005","2023-05-11T19:00:00",23.899,26.209757,0.16],
    [371,"urn:WaterMeter:MC0203J22010600005","2023-05-11T19:15:00",23.6,26.215612,0.158],
    [372,"urn:WaterMeter:MC0203J22010600005","2023-05-11T19:30:00",23.399,26.200834,0.156],
    [373,"urn:WaterMeter:MC0203J22010600005","2023-05-11T19:45:00",23.2,26.21988,0.156],
    [374,"urn:WaterMeter:MC0203J22010600005","2023-05-11T20:00:00",23,26.235785,0.153],
    [375,"urn:WaterMeter:MC0203J22010600005","2023-05-11T20:15:00",22.799,26.262548,0.16],
    [376,"urn:WaterMeter:MC0203J22010600005","2023-05-11T20:30:00",22.6,26.253628,0.155],
    [377,"urn:WaterMeter:MC0203J22010600005","2023-05-11T20:45:00",22.399,26.214838,0.152],
    [378,"urn:WaterMeter:MC0203J22010600005","2023-05-11T21:00:00",22.299,26.210531,0.16],
    [379,"urn:WaterMeter:MC0203J22010600005","2023-05-11T21:15:00",22.1,26.261385,0.152],
    [380,"urn:WaterMeter:MC0203J22010600005","2023-05-11T21:30:00",22,26.241602,0.15],
    [381,"urn:WaterMeter:MC0203J22010600005","2023-05-11T21:45:00",21.799,26.262938,0.151],
    [382,"urn:WaterMeter:MC0203J22010600005","2023-05-11T22:00:00",21.7,26.232681,0.147],
    [383,"urn:WaterMeter:MC0203J22010600005","2023-05-11T22:15:00",21.6,26.215612,0.154],
    [384,"urn:WaterMeter:MC0203J22010600005","2023-05-11T22:30:00",21.5,26.255955,0.15],
    [385,"urn:WaterMeter:MC0203J22010600005","2023-05-11T22:45:00",21.299,26.224148,0.153],
    [386,"urn:WaterMeter:MC0203J22010600005","2023-05-11T23:00:00",21.2,26.191137,0.156],
    [387,"urn:WaterMeter:MC0203J22010600005","2023-05-11T23:15:00",21,26.234232,0.155],
    [388,"urn:WaterMeter:MC0203J22010600005","2023-05-11T23:30:00",20.899,26.248158,0.156],
    [389,"urn:WaterMeter:MC0203J22010600005","2023-05-11T23:45:00",20.799,26.261385,0.16],
    [390,"urn:WaterMeter:MC0203J22010600005","2023-05-12T00:00:00",20.7,26.217552,0.152],
    [391,"urn:WaterMeter:MC0203J22010600005","2023-05-12T00:15:00",20.7,26.204752,0.15],
    [392,"urn:WaterMeter:MC0203J22010600005","2023-05-12T00:30:00",20.6,26.222208,0.152],
    [393,"urn:WaterMeter:MC0203J22010600005","2023-05-12T00:45:00",20.5,26.276514,0.149],
    [394,"urn:WaterMeter:MC0203J22010600005","2023-05-12T01:00:00",20.5,26.24971,0.147],
    [395,"urn:WaterMeter:MC0203J22010600005","2023-05-12T01:15:00",20.299,26.214838,0.148],
    [396,"urn:WaterMeter:MC0203J22010600005","2023-05-12T01:30:00",20.299,26.205528,0.152],
    [397,"urn:WaterMeter:MC0203J22010600005","2023-05-12T01:45:00",20.2,26.193115,0.153],
    [398,"urn:WaterMeter:MC0203J22010600005","2023-05-12T02:00:00",20.1,26.235395,0.151],
    [399,"urn:WaterMeter:MC0203J22010600005","2023-05-12T02:15:00",20.1,26.229538,0.153],
    [400,"urn:WaterMeter:MC0203J22010600005","2023-05-12T02:30:00",20.1,26.188848,0.15],
    [401,"urn:WaterMeter:MC0203J22010600005","2023-05-12T02:45:00",20.2,26.183418,0.15],
    [402,"urn:WaterMeter:MC0203J22010600005","2023-05-12T03:00:00",20.2,26.203976,0.157],
    [403,"urn:WaterMeter:MC0203J22010600005","2023-05-12T03:15:00",20.2,26.202385,0.152],
    [404,"urn:WaterMeter:MC0203J22010600005","2023-05-12T03:30:00",20.2,26.235008,0.149],
    [405,"urn:WaterMeter:MC0203J22010600005","2023-05-12T03:45:00",20.2,26.197382,0.147],
    [406,"urn:WaterMeter:MC0203J22010600005","2023-05-12T04:00:00",20.1,26.245869,0.155],
    [407,"urn:WaterMeter:MC0203J22010600005","2023-05-12T04:15:00",20.1,26.636446,0.166],
    [408,"urn:WaterMeter:MC0203J22010600005","2023-05-12T04:30:00",20,27.896732,0.185],
    [409,"urn:WaterMeter:MC0203J22010600005","2023-05-12T04:45:00",20,28.913458,0.192],
    [410,"urn:WaterMeter:MC0203J22010600005","2023-05-12T05:00:00",19.899,29.665596,0.2],
    [411,"urn:WaterMeter:MC0203J22010600005","2023-05-12T05:15:00",19.899,29.992945,0.196],
    [412,"urn:WaterMeter:MC0203J22010600005","2023-05-12T05:30:00",19.799,30.103148,0.198],
    [413,"urn:WaterMeter:MC0203J22010600005","2023-05-12T05:45:00",19.6,30.172194,0.203],
    [414,"urn:WaterMeter:MC0203J22010600005","2023-05-12T06:00:00",19.6,30.177586,0.202],
    [415,"urn:WaterMeter:MC0203J22010600005","2023-05-12T06:15:00",19.6,30.21137,0.198],
    [416,"urn:WaterMeter:MC0203J22010600005","2023-05-12T06:30:00",19.799,30.205513,0.202],
    [417,"urn:WaterMeter:MC0203J22010600005","2023-05-12T06:45:00",20,30.19698,0.197],
    [418,"urn:WaterMeter:MC0203J22010600005","2023-05-12T07:00:00",20.2,30.129486,0.196],
    [419,"urn:WaterMeter:MC0203J22010600005","2023-05-12T07:15:00",20.5,30.129873,0.193],
    [420,"urn:WaterMeter:MC0203J22010600005","2023-05-12T07:30:00",20.7,30.083364,0.196],
    [421,"urn:WaterMeter:MC0203J22010600005","2023-05-12T07:45:00",21,30.097717,0.194],
    [422,"urn:WaterMeter:MC0203J22010600005","2023-05-12T08:00:00",21.299,30.013504,0.201],
    [423,"urn:WaterMeter:MC0203J22010600005","2023-05-12T08:15:00",21.6,30.01234,0.186],
    [424,"urn:WaterMeter:MC0203J22010600005","2023-05-12T08:30:00",21.899,30.003805,0.191],
    [425,"urn:WaterMeter:MC0203J22010600005","2023-05-12T08:45:00",22.299,29.90299,0.192],
    [426,"urn:WaterMeter:MC0203J22010600005","2023-05-12T09:00:00",22.7,29.924675,0.197],
    [427,"urn:WaterMeter:MC0203J22010600005","2023-05-12T09:15:00",23,29.86963,0.184],
    [428,"urn:WaterMeter:MC0203J22010600005","2023-05-12T09:30:00",23,29.84787,0.186],
    [429,"urn:WaterMeter:MC0203J22010600005","2023-05-12T09:45:00",22.799,29.79593,0.191],
    [430,"urn:WaterMeter:MC0203J22010600005","2023-05-12T10:00:00",23.2,29.788172,0.188],
    [431,"urn:WaterMeter:MC0203J22010600005","2023-05-12T10:15:00",24.299,29.738482,0.179],
    [432,"urn:WaterMeter:MC0203J22010600005","2023-05-12T10:30:00",24.5,29.664392,0.182],
    [433,"urn:WaterMeter:MC0203J22010600005","2023-05-12T10:45:00",24.799,29.63883,0.185],
    [434,"urn:WaterMeter:MC0203J22010600005","2023-05-12T11:00:00",25,29.577116,0.182],
    [435,"urn:WaterMeter:MC0203J22010600005","2023-05-12T11:15:00",25.899,29.549614,0.18],
    [436,"urn:WaterMeter:MC0203J22010600005","2023-05-12T11:30:00",26.6,29.483282,0.179],
    [437,"urn:WaterMeter:MC0203J22010600005","2023-05-12T11:45:00",27.1,29.399109,0.181],
    [438,"urn:WaterMeter:MC0203J22010600005","2023-05-12T12:00:00",27.2,29.387083,0.175],
    [439,"urn:WaterMeter:MC0203J22010600005","2023-05-12T12:15:00",27,29.312956,0.181],
    [440,"urn:WaterMeter:MC0203J22010600005","2023-05-12T12:30:00",27.1,29.264507,0.179],
    [441,"urn:WaterMeter:MC0203J22010600005","2023-05-12T12:45:00",26.6,29.253996,0.186],
    [442,"urn:WaterMeter:MC0203J22010600005","2023-05-12T13:00:00",26.5,29.23076,0.176],
    [443,"urn:WaterMeter:MC0203J22010600005","2023-05-12T13:15:00",26.399,29.193134,0.18],
    [444,"urn:WaterMeter:MC0203J22010600005","2023-05-12T13:30:00",26,29.213305,0.186],
    [445,"urn:WaterMeter:MC0203J22010600005","2023-05-12T13:45:00",25.799,29.169434,0.187],
    [446,"urn:WaterMeter:MC0203J22010600005","2023-05-12T14:00:00",25.7,29.17913,0.184],
    [447,"urn:WaterMeter:MC0203J22010600005","2023-05-12T14:15:00",25.6,29.155895,0.188],
    [448,"urn:WaterMeter:MC0203J22010600005","2023-05-12T14:30:00",25.299,29.136889,0.18],
    [449,"urn:WaterMeter:MC0203J22010600005","2023-05-12T14:45:00",25,29.122149,0.189],
    [450,"urn:WaterMeter:MC0203J22010600005","2023-05-12T15:00:00",24.899,29.112839,0.184],
    [451,"urn:WaterMeter:MC0203J22010600005","2023-05-12T15:15:00",24.7,29.093056,0.185],
    [452,"urn:WaterMeter:MC0203J22010600005","2023-05-12T15:30:00",24.299,29.052675,0.184],
    [453,"urn:WaterMeter:MC0203J22010600005","2023-05-12T15:45:00",23.7,29.093056,0.18],
    [454,"urn:WaterMeter:MC0203J22010600005","2023-05-12T16:00:00",23.1,29.110085,0.189],
    [455,"urn:WaterMeter:MC0203J22010600005","2023-05-12T16:15:00",22.5,29.077927,0.179],
    [456,"urn:WaterMeter:MC0203J22010600005","2023-05-12T16:30:00",21.799,29.117105,0.19],
    [457,"urn:WaterMeter:MC0203J22010600005","2023-05-12T16:45:00",21.299,29.089952,0.191],
    [458,"urn:WaterMeter:MC0203J22010600005","2023-05-12T17:00:00",20.799,29.065514,0.192],
    [459,"urn:WaterMeter:MC0203J22010600005","2023-05-12T17:15:00",20.399,29.01858,0.186],
    [460,"urn:WaterMeter:MC0203J22010600005","2023-05-12T17:30:00",20,29.15702,0.188],
    [461,"urn:WaterMeter:MC0203J22010600005","2023-05-12T17:45:00",19.799,29.54686,0.199],
    [462,"urn:WaterMeter:MC0203J22010600005","2023-05-12T18:00:00",19.7,29.986002,0.205],
    [463,"urn:WaterMeter:MC0203J22010600005","2023-05-12T18:15:00",19.5,34.59697,0.261],
    [464,"urn:WaterMeter:MC0203J22010600005","2023-05-12T18:30:00",18.799,42.347946,0.284],
    [465,"urn:WaterMeter:MC0203J22010600005","2023-05-12T18:45:00",18.7,41.805275,0.274],
    [466,"urn:WaterMeter:MC0203J22010600005","2023-05-12T19:00:00",18.7,41.258377,0.262],
    [467,"urn:WaterMeter:MC0203J22010600005","2023-05-12T19:15:00",18.7,40.95814,0.23],
    [468,"urn:WaterMeter:MC0203J22010600005","2023-05-12T19:30:00",18.6,40.534904,0.235],
    [469,"urn:WaterMeter:MC0203J22010600005","2023-05-12T19:45:00",18.6,40.16993,0.248],
    [470,"urn:WaterMeter:MC0203J22010600005","2023-05-12T20:00:00",18.5,39.370426,0.234],
    [471,"urn:WaterMeter:MC0203J22010600005","2023-05-12T20:15:00",18.399,38.533764,0.22],
    [472,"urn:WaterMeter:MC0203J22010600005","2023-05-12T20:30:00",18.399,37.89063,0.217],
    [473,"urn:WaterMeter:MC0203J22010600005","2023-05-12T20:45:00",18.299,37.46316,0.218],
    [474,"urn:WaterMeter:MC0203J22010600005","2023-05-12T21:00:00",18.2,37.593456,0.225],
    [475,"urn:WaterMeter:MC0203J22010600005","2023-05-12T21:15:00",18.1,37.843693,0.227],
    [476,"urn:WaterMeter:MC0203J22010600005","2023-05-12T21:30:00",18.1,37.95269,0.244],
    [477,"urn:WaterMeter:MC0203J22010600005","2023-05-12T21:45:00",18,37.870068,0.243],
    [478,"urn:WaterMeter:MC0203J22010600005","2023-05-12T22:00:00",18,37.730385,0.235],
    [479,"urn:WaterMeter:MC0203J22010600005","2023-05-12T22:15:00",17.899,37.631897,0.244],
    [480,"urn:WaterMeter:MC0203J22010600005","2023-05-12T22:30:00",17.899,37.47441,0.243],
    [481,"urn:WaterMeter:MC0203J22010600005","2023-05-12T22:45:00",17.899,37.16215,0.241],
    [482,"urn:WaterMeter:MC0203J22010600005","2023-05-12T23:00:00",18,35.5609,0.235],
    [483,"urn:WaterMeter:MC0203J22010600005","2023-05-12T23:15:00",18,35.193947,0.232],
    [484,"urn:WaterMeter:MC0203J22010600005","2023-05-12T23:30:00",17.899,34.61132,0.22],
    [485,"urn:WaterMeter:MC0203J22010600005","2023-05-12T23:45:00",17.899,34.409615,0.218],
    [486,"urn:WaterMeter:MC0203J22010600005","2023-05-13T00:00:00",17.899,34.194717,0.215],
    [487,"urn:WaterMeter:MC0203J22010600005","2023-05-13T00:15:00",17.899,34.06706,0.214],
    [488,"urn:WaterMeter:MC0203J22010600005","2023-05-13T00:30:00",17.899,33.97245,0.224],
    [489,"urn:WaterMeter:MC0203J22010600005","2023-05-13T00:45:00",17.899,33.91659,0.22],
    [490,"urn:WaterMeter:MC0203J22010600005","2023-05-13T01:00:00",17.899,33.81143,0.217],
    [491,"urn:WaterMeter:MC0203J22010600005","2023-05-13T01:15:00",17.7,33.71178,0.21],
    [492,"urn:WaterMeter:MC0203J22010600005","2023-05-13T01:30:00",17.6,33.7304,0.219],
    [493,"urn:WaterMeter:MC0203J22010600005","2023-05-13T01:45:00",17.6,33.57718,0.211],
    [494,"urn:WaterMeter:MC0203J22010600005","2023-05-13T02:00:00",17.399,33.570583,0.213],
    [495,"urn:WaterMeter:MC0203J22010600005","2023-05-13T02:15:00",17.299,33.5015,0.211],
    [496,"urn:WaterMeter:MC0203J22010600005","2023-05-13T02:30:00",17.2,33.427837,0.224],
    [497,"urn:WaterMeter:MC0203J22010600005","2023-05-13T02:45:00",17.1,33.396378,0.212],
    [498,"urn:WaterMeter:MC0203J22010600005","2023-05-13T03:00:00",16.899,33.352974,0.22],
    [499,"urn:WaterMeter:MC0203J22010600005","2023-05-13T03:15:00",16.799,33.27268,0.209],
    [500,"urn:WaterMeter:MC0203J22010600005","2023-05-13T03:30:00",16.7,33.31263,0.212],
    [501,"urn:WaterMeter:MC0203J22010600005","2023-05-13T03:45:00",16.6,33.25208,0.218],
    [502,"urn:WaterMeter:MC0203J22010600005","2023-05-13T04:00:00",16.5,33.169884,0.209],
    [503,"urn:WaterMeter:MC0203J22010600005","2023-05-13T04:15:00",16.399,33.099285,0.209],
    [504,"urn:WaterMeter:MC0203J22010600005","2023-05-13T04:30:00",16.299,33.116314,0.213],
    [505,"urn:WaterMeter:MC0203J22010600005","2023-05-13T04:45:00",16.299,33.094982,0.212],
    [506,"urn:WaterMeter:MC0203J22010600005","2023-05-13T05:00:00",16.2,33.028263,0.209],
    [507,"urn:WaterMeter:MC0203J22010600005","2023-05-13T05:15:00",16.2,33.02675,0.209],
    [508,"urn:WaterMeter:MC0203J22010600005","2023-05-13T05:30:00",16.2,33.020542,0.206],
    [509,"urn:WaterMeter:MC0203J22010600005","2023-05-13T05:45:00",16.1,32.93831,0.217],
    [510,"urn:WaterMeter:MC0203J22010600005","2023-05-13T06:00:00",16.1,32.955765,0.206],
    [511,"urn:WaterMeter:MC0203J22010600005","2023-05-13T06:15:00",16.2,32.928223,0.206],
    [512,"urn:WaterMeter:MC0203J22010600005","2023-05-13T06:30:00",16.2,32.883186,0.205],
    [513,"urn:WaterMeter:MC0203J22010600005","2023-05-13T06:45:00",16.299,32.836292,0.205],
    [514,"urn:WaterMeter:MC0203J22010600005","2023-05-13T07:00:00",16.299,32.804832,0.21],
    [515,"urn:WaterMeter:MC0203J22010600005","2023-05-13T07:15:00",16.399,32.759487,0.207],
    [516,"urn:WaterMeter:MC0203J22010600005","2023-05-13T07:30:00",16.6,32.715267,0.205],
    [517,"urn:WaterMeter:MC0203J22010600005","2023-05-13T07:45:00",17.1,32.722637,0.206],
    [518,"urn:WaterMeter:MC0203J22010600005","2023-05-13T08:00:00",17.7,32.636135,0.202],
    [519,"urn:WaterMeter:MC0203J22010600005","2023-05-13T08:15:00",18.1,32.56709,0.206],
    [520,"urn:WaterMeter:MC0203J22010600005","2023-05-13T08:30:00",18.5,32.515884,0.196],
    [521,"urn:WaterMeter:MC0203J22010600005","2023-05-13T08:45:00",19.1,32.50192,0.201],
    [522,"urn:WaterMeter:MC0203J22010600005","2023-05-13T09:00:00",19.6,32.36577,0.195],
    [523,"urn:WaterMeter:MC0203J22010600005","2023-05-13T09:15:00",20.2,32.33396,0.194],
    [524,"urn:WaterMeter:MC0203J22010600005","2023-05-13T09:30:00",21,32.241215,0.196],
    [525,"urn:WaterMeter:MC0203J22010600005","2023-05-13T09:45:00",21.799,32.189663,0.195],
    [526,"urn:WaterMeter:MC0203J22010600005","2023-05-13T10:00:00",22.6,32.125618,0.193],
    [527,"urn:WaterMeter:MC0203J22010600005","2023-05-13T10:15:00",23.2,31.999939,0.189],
    [528,"urn:WaterMeter:MC0203J22010600005","2023-05-13T10:30:00",23.1,31.967394,0.188],
    [529,"urn:WaterMeter:MC0203J22010600005","2023-05-13T10:45:00",23.299,31.901064,0.192],
    [530,"urn:WaterMeter:MC0203J22010600005","2023-05-13T11:00:00",24.1,31.811459,0.197],
    [531,"urn:WaterMeter:MC0203J22010600005","2023-05-13T11:15:00",25,31.729185,0.184],
    [532,"urn:WaterMeter:MC0203J22010600005","2023-05-13T11:30:00",25.899,31.614794,0.184],
    [533,"urn:WaterMeter:MC0203J22010600005","2023-05-13T11:45:00",26.1,31.531008,0.192],
    [534,"urn:WaterMeter:MC0203J22010600005","2023-05-13T12:00:00",26.299,31.465412,0.19],
    [535,"urn:WaterMeter:MC0203J22010600005","2023-05-13T12:15:00",26.299,31.34206,0.187],
    [536,"urn:WaterMeter:MC0203J22010600005","2023-05-13T12:30:00",25.799,31.300207,0.189],
    [537,"urn:WaterMeter:MC0203J22010600005","2023-05-13T12:45:00",26.1,31.27379,0.202],
    [538,"urn:WaterMeter:MC0203J22010600005","2023-05-13T13:00:00",25.399,31.175264,0.197],
    [539,"urn:WaterMeter:MC0203J22010600005","2023-05-13T13:15:00",23.1,31.159786,0.208],
    [540,"urn:WaterMeter:MC0203J22010600005","2023-05-13T13:30:00",21.899,31.48795,0.204],
    [541,"urn:WaterMeter:MC0203J22010600005","2023-05-13T13:45:00",21.299,31.533335,0.204],
    [542,"urn:WaterMeter:MC0203J22010600005","2023-05-13T14:00:00",21.299,31.55463,0.201],
    [543,"urn:WaterMeter:MC0203J22010600005","2023-05-13T14:15:00",21.1,31.643887,0.203],
    [544,"urn:WaterMeter:MC0203J22010600005","2023-05-13T14:30:00",20.899,31.903353,0.207],
    [545,"urn:WaterMeter:MC0203J22010600005","2023-05-13T14:45:00",20.7,32.24354,0.221],
    [546,"urn:WaterMeter:MC0203J22010600005","2023-05-13T15:00:00",20.7,32.52636,0.222],
    [547,"urn:WaterMeter:MC0203J22010600005","2023-05-13T15:15:00",20.7,32.632645,0.217],
    [548,"urn:WaterMeter:MC0203J22010600005","2023-05-13T15:30:00",20.7,32.711773,0.218],
    [549,"urn:WaterMeter:MC0203J22010600005","2023-05-13T15:45:00",20.6,32.66678,0.212],
    [550,"urn:WaterMeter:MC0203J22010600005","2023-05-13T16:00:00",20.5,32.678764,0.23],
    [551,"urn:WaterMeter:MC0203J22010600005","2023-05-13T16:15:00",20.399,32.653202,0.213],
    [552,"urn:WaterMeter:MC0203J22010600005","2023-05-13T16:30:00",20.5,32.639973,0.226],
    [553,"urn:WaterMeter:MC0203J22010600005","2023-05-13T16:45:00",20.5,32.59967,0.208],
    [554,"urn:WaterMeter:MC0203J22010600005","2023-05-13T17:00:00",20.399,32.560104,0.201],
    [555,"urn:WaterMeter:MC0203J22010600005","2023-05-13T17:15:00",20.399,32.471275,0.219],
    [556,"urn:WaterMeter:MC0203J22010600005","2023-05-13T17:30:00",20.2,32.44719,0.216],
    [557,"urn:WaterMeter:MC0203J22010600005","2023-05-13T17:45:00",19.7,32.347923,0.213],
    [558,"urn:WaterMeter:MC0203J22010600005","2023-05-13T18:00:00",19.399,32.51162,0.217],
    [559,"urn:WaterMeter:MC0203J22010600005","2023-05-13T18:15:00",19.399,32.5186,0.222],
    [560,"urn:WaterMeter:MC0203J22010600005","2023-05-13T18:30:00",19.399,32.560104,0.21],
    [561,"urn:WaterMeter:MC0203J22010600005","2023-05-13T18:45:00",19.299,32.615574,0.226],
    [562,"urn:WaterMeter:MC0203J22010600005","2023-05-13T19:00:00",19.2,32.711,0.225],
    [563,"urn:WaterMeter:MC0203J22010600005","2023-05-13T19:15:00",19.1,32.811466,0.217],
    [564,"urn:WaterMeter:MC0203J22010600005","2023-05-13T19:30:00",18.899,32.920425,0.217],
    [565,"urn:WaterMeter:MC0203J22010600005","2023-05-13T19:45:00",18.799,32.94917,0.216],
    [566,"urn:WaterMeter:MC0203J22010600005","2023-05-13T20:00:00",18.7,32.942963,0.219],
    [567,"urn:WaterMeter:MC0203J22010600005","2023-05-13T20:15:00",18.6,32.9546,0.22],
    [568,"urn:WaterMeter:MC0203J22010600005","2023-05-13T20:30:00",18.5,32.946842,0.212],
    [569,"urn:WaterMeter:MC0203J22010600005","2023-05-13T20:45:00",18.399,32.918915,0.215],
    [570,"urn:WaterMeter:MC0203J22010600005","2023-05-13T21:00:00",18.299,32.847538,0.233],
    [571,"urn:WaterMeter:MC0203J22010600005","2023-05-13T21:15:00",18.1,32.87349,0.223],
    [572,"urn:WaterMeter:MC0203J22010600005","2023-05-13T21:30:00",18,32.815693,0.217],
    [573,"urn:WaterMeter:MC0203J22010600005","2023-05-13T21:45:00",17.899,32.823837,0.22],
    [574,"urn:WaterMeter:MC0203J22010600005","2023-05-13T22:00:00",17.7,32.74979,0.216],
    [575,"urn:WaterMeter:MC0203J22010600005","2023-05-13T22:15:00",17.6,32.775738,0.212],
    [576,"urn:WaterMeter:MC0203J22010600005","2023-05-13T22:30:00",17.5,32.689625,0.215],
    [577,"urn:WaterMeter:MC0203J22010600005","2023-05-13T22:45:00",17.299,32.697033,0.214],
    [578,"urn:WaterMeter:MC0203J22010600005","2023-05-13T23:00:00",17.2,32.68691,0.222],
    [579,"urn:WaterMeter:MC0203J22010600005","2023-05-13T23:15:00",17,32.622944,0.213],
    [580,"urn:WaterMeter:MC0203J22010600005","2023-05-13T23:30:04",16.899,32.649673,0.219],
    [581,"urn:WaterMeter:MC0203J22010600005","2023-05-13T23:45:00",16.7,32.615574,0.218],
    [582,"urn:WaterMeter:MC0203J22010600005","2023-05-14T00:00:00",16.6,32.64075,0.215],
    [583,"urn:WaterMeter:MC0203J22010600005","2023-05-14T00:15:00",16.399,32.638462,0.21],
    [584,"urn:WaterMeter:MC0203J22010600005","2023-05-14T00:30:00",16.299,32.57717,0.214],
    [585,"urn:WaterMeter:MC0203J22010600005","2023-05-14T00:45:00",16.1,32.53528,0.218],
    [586,"urn:WaterMeter:MC0203J22010600005","2023-05-14T01:00:00",16,32.573254,0.217],
    [587,"urn:WaterMeter:MC0203J22010600005","2023-05-14T01:15:00",15.8,32.55584,0.217],
    [588,"urn:WaterMeter:MC0203J22010600005","2023-05-14T01:30:00",15.699,32.498817,0.211],
    [589,"urn:WaterMeter:MC0203J22010600005","2023-05-14T01:45:00",15.6,32.53136,0.21],
    [590,"urn:WaterMeter:MC0203J22010600005","2023-05-14T02:00:00",15.5,32.514294,0.215],
    [591,"urn:WaterMeter:MC0203J22010600005","2023-05-14T02:15:00",15.399,32.50576,0.214],
    [592,"urn:WaterMeter:MC0203J22010600005","2023-05-14T02:30:00",15.3,32.500755,0.213],
    [593,"urn:WaterMeter:MC0203J22010600005","2023-05-14T02:45:00",15.1,32.48369,0.222],
    [594,"urn:WaterMeter:MC0203J22010600005","2023-05-14T03:00:00",15,32.449554,0.212],
    [595,"urn:WaterMeter:MC0203J22010600005","2023-05-14T03:15:00",15,32.436714,0.218],
    [596,"urn:WaterMeter:MC0203J22010600005","2023-05-14T03:30:00",14.899,32.46507,0.213],
    [597,"urn:WaterMeter:MC0203J22010600005","2023-05-14T03:45:00",14.8,32.412315,0.212],
    [598,"urn:WaterMeter:MC0203J22010600005","2023-05-14T04:00:00",14.8,32.432873,0.214],
    [599,"urn:WaterMeter:MC0203J22010600005","2023-05-14T04:15:00",14.699,32.41538,0.209],
    [600,"urn:WaterMeter:MC0203J22010600005","2023-05-14T04:30:00",14.6,32.41891,0.215],
    [601,"urn:WaterMeter:MC0203J22010600005","2023-05-14T04:45:00",14.5,32.363052,0.201],
    [602,"urn:WaterMeter:MC0203J22010600005","2023-05-14T05:00:00",14.5,32.350212,0.21],
    [603,"urn:WaterMeter:MC0203J22010600005","2023-05-14T05:15:00",14.399,32.382446,0.205],
    [604,"urn:WaterMeter:MC0203J22010600005","2023-05-14T05:30:00",14.399,32.38012,0.212],
    [605,"urn:WaterMeter:MC0203J22010600005","2023-05-14T05:45:00",14.3,32.356457,0.208],
    [606,"urn:WaterMeter:MC0203J22010600005","2023-05-14T06:00:00",14.3,32.352192,0.21],
    [607,"urn:WaterMeter:MC0203J22010600005","2023-05-14T06:15:00",14.399,32.274223,0.206],
    [608,"urn:WaterMeter:MC0203J22010600005","2023-05-14T06:30:00",14.5,32.278103,0.212],
    [609,"urn:WaterMeter:MC0203J22010600005","2023-05-14T06:45:00",14.6,32.292416,0.201],
    [610,"urn:WaterMeter:MC0203J22010600005","2023-05-14T07:00:00",14.699,32.231167,0.202],
    [611,"urn:WaterMeter:MC0203J22010600005","2023-05-14T07:15:00",15,32.25056,0.207],
    [612,"urn:WaterMeter:MC0203J22010600005","2023-05-14T07:30:00",15.399,32.213673,0.203],
    [613,"urn:WaterMeter:MC0203J22010600005","2023-05-14T07:45:00",16.1,32.174145,0.199],
    [614,"urn:WaterMeter:MC0203J22010600005","2023-05-14T08:00:00",16.7,32.15126,0.193],
    [615,"urn:WaterMeter:MC0203J22010600005","2023-05-14T08:15:00",17.2,32.067047,0.2],
    [616,"urn:WaterMeter:MC0203J22010600005","2023-05-14T08:30:00",17.799,32.030197,0.198],
    [617,"urn:WaterMeter:MC0203J22010600005","2023-05-14T08:45:00",18.6,32.006184,0.198],
    [618,"urn:WaterMeter:MC0203J22010600005","2023-05-14T09:00:00",19.299,31.953817,0.193],
    [619,"urn:WaterMeter:MC0203J22010600005","2023-05-14T09:15:00",20.1,31.832792,0.195],
    [620,"urn:WaterMeter:MC0203J22010600005","2023-05-14T09:30:00",20.899,31.734653,0.192],
    [621,"urn:WaterMeter:MC0203J22010600005","2023-05-14T09:45:00",21.299,31.730776,0.197],
    [622,"urn:WaterMeter:MC0203J22010600005","2023-05-14T10:00:00",21.899,31.622124,0.193],
    [623,"urn:WaterMeter:MC0203J22010600005","2023-05-14T10:15:00",22.5,31.577555,0.189],
    [624,"urn:WaterMeter:MC0203J22010600005","2023-05-14T10:30:00",23.1,31.538765,0.184],
    [625,"urn:WaterMeter:MC0203J22010600005","2023-05-14T10:45:00",23.7,31.48058,0.189],
    [626,"urn:WaterMeter:MC0203J22010600005","2023-05-14T11:00:00",24,31.398695,0.193],
    [627,"urn:WaterMeter:MC0203J22010600005","2023-05-14T11:15:00",24.2,31.306025,0.192],
    [628,"urn:WaterMeter:MC0203J22010600005","2023-05-14T11:30:00",24.7,31.255985,0.189],
    [629,"urn:WaterMeter:MC0203J22010600005","2023-05-14T11:45:00",25.1,31.187716,0.185],
    [630,"urn:WaterMeter:MC0203J22010600005","2023-05-14T12:00:00",25.399,31.140392,0.19],
    [631,"urn:WaterMeter:MC0203J22010600005","2023-05-14T12:15:00",25.5,31.028288,0.194],
    [632,"urn:WaterMeter:MC0203J22010600005","2023-05-14T12:30:00",25.7,30.979763,0.189],
    [633,"urn:WaterMeter:MC0203J22010600005","2023-05-14T12:45:00",25.7,30.925495,0.191],
    [634,"urn:WaterMeter:MC0203J22010600005","2023-05-14T13:00:00",25.6,30.847916,0.192],
    [635,"urn:WaterMeter:MC0203J22010600005","2023-05-14T13:15:00",25.299,30.809126,0.188],
    [636,"urn:WaterMeter:MC0203J22010600005","2023-05-14T13:30:00",25,30.765293,0.194],
    [637,"urn:WaterMeter:MC0203J22010600005","2023-05-14T13:45:00",24.899,30.711336,0.192],
    [638,"urn:WaterMeter:MC0203J22010600005","2023-05-14T14:00:00",24.6,30.679567,0.188],
    [639,"urn:WaterMeter:MC0203J22010600005","2023-05-14T14:15:00",24.399,30.660172,0.194],
    [640,"urn:WaterMeter:MC0203J22010600005","2023-05-14T14:30:00",24.2,30.63104,0.19],
    [641,"urn:WaterMeter:MC0203J22010600005","2023-05-14T14:45:00",24,30.57716,0.19],
    [642,"urn:WaterMeter:MC0203J22010600005","2023-05-14T15:00:00",23.799,30.533329,0.2],
    [643,"urn:WaterMeter:MC0203J22010600005","2023-05-14T15:15:00",23.6,30.500744,0.196],
    [644,"urn:WaterMeter:MC0203J22010600005","2023-05-14T15:30:00",23.399,30.484064,0.189],
    [645,"urn:WaterMeter:MC0203J22010600005","2023-05-14T15:45:00",23.299,30.494537,0.199],
    [646,"urn:WaterMeter:MC0203J22010600005","2023-05-14T16:00:00",23.299,30.433638,0.186],
    [647,"urn:WaterMeter:MC0203J22010600005","2023-05-14T16:15:00",23.1,30.397175,0.189],
    [648,"urn:WaterMeter:MC0203J22010600005","2023-05-14T16:30:00",22.899,30.370022,0.189],
    [649,"urn:WaterMeter:MC0203J22010600005","2023-05-14T16:45:00",22.7,30.357998,0.196],
    [650,"urn:WaterMeter:MC0203J22010600005","2023-05-14T17:00:00",22.5,30.358385,0.189],
    [651,"urn:WaterMeter:MC0203J22010600005","2023-05-14T17:15:00",22.399,30.333948,0.183],
    [652,"urn:WaterMeter:MC0203J22010600005","2023-05-14T17:30:00",22.2,30.28193,0.195],
    [653,"urn:WaterMeter:MC0203J22010600005","2023-05-14T17:45:00",22.1,30.288563,0.185],
    [654,"urn:WaterMeter:MC0203J22010600005","2023-05-14T18:00:00",22,30.246243,0.185],
    [655,"urn:WaterMeter:MC0203J22010600005","2023-05-14T18:15:00",21.899,30.2137,0.193],
    [656,"urn:WaterMeter:MC0203J22010600005","2023-05-14T18:30:00",21.7,30.186895,0.189],
    [657,"urn:WaterMeter:MC0203J22010600005","2023-05-14T18:45:00",21.6,30.175684,0.188],
    [658,"urn:WaterMeter:MC0203J22010600005","2023-05-14T19:00:00",21.399,30.204739,0.189],
    [659,"urn:WaterMeter:MC0203J22010600005","2023-05-14T19:15:00",21.299,30.152798,0.194],
    [660,"urn:WaterMeter:MC0203J22010600005","2023-05-14T19:30:00",21.1,30.140385,0.196],
    [661,"urn:WaterMeter:MC0203J22010600005","2023-05-14T19:45:00",20.899,30.139183,0.184],
    [662,"urn:WaterMeter:MC0203J22010600005","2023-05-14T20:00:00",20.7,30.11009,0.183],
    [663,"urn:WaterMeter:MC0203J22010600005","2023-05-14T20:15:00",20.5,30.13957,0.188],
    [664,"urn:WaterMeter:MC0203J22010600005","2023-05-14T20:30:00",20.299,30.183443,0.187],
    [665,"urn:WaterMeter:MC0203J22010600005","2023-05-14T20:45:00",20.1,30.124094,0.189],
    [666,"urn:WaterMeter:MC0203J22010600005","2023-05-14T21:00:00",19.899,30.142714,0.187],
    [667,"urn:WaterMeter:MC0203J22010600005","2023-05-14T21:15:00",19.7,30.16327,0.188],
    [668,"urn:WaterMeter:MC0203J22010600005","2023-05-14T21:30:00",19.5,30.17646,0.193],
    [669,"urn:WaterMeter:MC0203J22010600005","2023-05-14T21:45:00",19.299,30.17995,0.195],
    [670,"urn:WaterMeter:MC0203J22010600005","2023-05-14T22:00:00",19.1,30.172194,0.2],
    [671,"urn:WaterMeter:MC0203J22010600005","2023-05-14T22:15:00",19,30.15435,0.198],
    [672,"urn:WaterMeter:MC0203J22010600005","2023-05-14T22:30:00",18.799,30.153574,0.193],
    [673,"urn:WaterMeter:MC0203J22010600005","2023-05-14T22:45:00",18.7,30.120602,0.188],
    [674,"urn:WaterMeter:MC0203J22010600005","2023-05-14T23:00:00",18.5,30.157803,0.188],
    [675,"urn:WaterMeter:MC0203J22010600005","2023-05-14T23:15:00",18.399,30.14888,0.195],
    [676,"urn:WaterMeter:MC0203J22010600005","2023-05-14T23:30:00",18.2,30.152798,0.19],
    [677,"urn:WaterMeter:MC0203J22010600005","2023-05-14T23:45:00",18.1,30.155125,0.19],
    [678,"urn:WaterMeter:MC0203J22010600005","2023-05-15T00:00:00",17.899,30.157413,0.193],
    [679,"urn:WaterMeter:MC0203J22010600005","2023-05-15T00:15:00",17.799,30.164047,0.188],
    [680,"urn:WaterMeter:MC0203J22010600005","2023-05-15T00:30:00",17.6,30.167112,0.198],
    [681,"urn:WaterMeter:MC0203J22010600005","2023-05-15T00:45:00",17.5,30.169867,0.19],
    [682,"urn:WaterMeter:MC0203J22010600005","2023-05-15T01:00:00",17.399,30.144264,0.185],
    [683,"urn:WaterMeter:MC0203J22010600005","2023-05-15T01:15:00",17.2,30.175684,0.188],
    [684,"urn:WaterMeter:MC0203J22010600005","2023-05-15T01:30:00",17.1,30.149694,0.187],
    [685,"urn:WaterMeter:MC0203J22010600005","2023-05-15T01:45:00",17,30.178787,0.187],
    [686,"urn:WaterMeter:MC0203J22010600005","2023-05-15T02:00:00",16.799,30.184217,0.186],
    [687,"urn:WaterMeter:MC0203J22010600005","2023-05-15T02:15:00",16.7,30.13802,0.186],
    [688,"urn:WaterMeter:MC0203J22010600005","2023-05-15T02:30:00",16.6,30.181114,0.184],
    [689,"urn:WaterMeter:MC0203J22010600005","2023-05-15T02:45:00",16.5,30.200123,0.193],
    [690,"urn:WaterMeter:MC0203J22010600005","2023-05-15T03:00:00",16.399,30.203962,0.188],
    [691,"urn:WaterMeter:MC0203J22010600005","2023-05-15T03:15:00",16.299,30.16327,0.183],
    [692,"urn:WaterMeter:MC0203J22010600005","2023-05-15T03:30:00",16.2,30.17258,0.182],
    [693,"urn:WaterMeter:MC0203J22010600005","2023-05-15T03:45:00",16,30.203962,0.18],
    [694,"urn:WaterMeter:MC0203J22010600005","2023-05-15T04:00:00",15.899,30.20788,0.185],
    [695,"urn:WaterMeter:MC0203J22010600005","2023-05-15T04:15:00",15.899,30.16327,0.191],
    [696,"urn:WaterMeter:MC0203J22010600005","2023-05-15T04:30:00",15.899,30.18612,0.186],
    [697,"urn:WaterMeter:MC0203J22010600005","2023-05-15T04:45:00",15.8,30.18612,0.183],
    [698,"urn:WaterMeter:MC0203J22010600005","2023-05-15T05:00:00",15.8,30.172194,0.182],
    [699,"urn:WaterMeter:MC0203J22010600005","2023-05-15T05:15:00",15.699,30.152023,0.177],
    [700,"urn:WaterMeter:MC0203J22010600005","2023-05-15T05:30:00",15.699,30.155125,0.197],
    [701,"urn:WaterMeter:MC0203J22010600005","2023-05-15T05:45:00",15.699,30.149694,0.193],
    [702,"urn:WaterMeter:MC0203J22010600005","2023-05-15T06:00:00",15.8,30.156677,0.19],
    [703,"urn:WaterMeter:MC0203J22010600005","2023-05-15T06:15:00",15.899,30.117498,0.182],
    [704,"urn:WaterMeter:MC0203J22010600005","2023-05-15T06:30:00",16,30.093838,0.204],
    [705,"urn:WaterMeter:MC0203J22010600005","2023-05-15T06:45:00",16.1,30.117887,0.183],
    [706,"urn:WaterMeter:MC0203J22010600005","2023-05-15T07:00:00",16.2,30.1303,0.192],
    [707,"urn:WaterMeter:MC0203J22010600005","2023-05-15T07:15:00",16.399,30.058538,0.177],
    [708,"urn:WaterMeter:MC0203J22010600005","2023-05-15T07:30:00",16.799,30.031734,0.185],
    [709,"urn:WaterMeter:MC0203J22010600005","2023-05-15T07:45:00",17.399,30.038368,0.175],
    [710,"urn:WaterMeter:MC0203J22010600005","2023-05-15T08:00:00",18,29.955318,0.189],
    [711,"urn:WaterMeter:MC0203J22010600005","2023-05-15T08:15:00",18.6,29.924326,0.173],
    [712,"urn:WaterMeter:MC0203J22010600005","2023-05-15T08:30:00",19.2,29.814938,0.173],
    [713,"urn:WaterMeter:MC0203J22010600005","2023-05-15T08:45:00",19.799,29.83701,0.175],
    [714,"urn:WaterMeter:MC0203J22010600005","2023-05-15T09:00:00",20.2,29.766449,0.166],
    [715,"urn:WaterMeter:MC0203J22010600005","2023-05-15T09:15:00",21,29.723782,0.167],
    [716,"urn:WaterMeter:MC0203J22010600005","2023-05-15T09:30:00",21.899,29.658613,0.17],
    [717,"urn:WaterMeter:MC0203J22010600005","2023-05-15T09:45:00",22.7,29.571337,0.167],
    [718,"urn:WaterMeter:MC0203J22010600005","2023-05-15T10:00:00",23.5,29.495695,0.173],
    [719,"urn:WaterMeter:MC0203J22010600005","2023-05-15T10:15:00",24.1,29.460745,0.179],
    [720,"urn:WaterMeter:MC0203J22010600005","2023-05-15T10:30:00",24.5,29.375446,0.165],
    [721,"urn:WaterMeter:MC0203J22010600005","2023-05-15T10:45:00",24.899,29.314508,0.173],
    [722,"urn:WaterMeter:MC0203J22010600005","2023-05-15T11:00:00",25.299,29.2583,0.17],
    [723,"urn:WaterMeter:MC0203J22010600005","2023-05-15T11:15:00",25.7,29.171799,0.165],
    [724,"urn:WaterMeter:MC0203J22010600005","2023-05-15T11:30:00",26.2,29.099998,0.168],
    [725,"urn:WaterMeter:MC0203J22010600005","2023-05-15T11:45:00",26.5,29.041813,0.179],
    [726,"urn:WaterMeter:MC0203J22010600005","2023-05-15T12:00:00",26.6,28.949532,0.163],
    [727,"urn:WaterMeter:MC0203J22010600005","2023-05-15T12:15:00",26.899,28.891735,0.172],
    [728,"urn:WaterMeter:MC0203J22010600005","2023-05-15T12:30:00",27,28.8576,0.164],
    [729,"urn:WaterMeter:MC0203J22010600005","2023-05-15T12:45:00",27.1,28.789679,0.165],
    [730,"urn:WaterMeter:MC0203J22010600005","2023-05-15T13:00:00",27,28.741966,0.166],
    [731,"urn:WaterMeter:MC0203J22010600005","2023-05-15T13:15:00",26.7,28.66171,0.171],
    [732,"urn:WaterMeter:MC0203J22010600005","2023-05-15T13:30:00",26.399,28.613224,0.169],
    [733,"urn:WaterMeter:MC0203J22010600005","2023-05-15T13:45:00",25.899,28.620981,0.169],
    [734,"urn:WaterMeter:MC0203J22010600005","2023-05-15T14:00:00",25.6,28.599648,0.17],
    [735,"urn:WaterMeter:MC0203J22010600005","2023-05-15T14:15:00",25.399,28.546892,0.171],
    [736,"urn:WaterMeter:MC0203J22010600005","2023-05-15T14:30:00",25.299,28.532928,0.156],
    [737,"urn:WaterMeter:MC0203J22010600005","2023-05-15T14:45:00",25.1,28.452206,0.165],
    [738,"urn:WaterMeter:MC0203J22010600005","2023-05-15T15:00:00",24.799,28.43479,0.171],
    [739,"urn:WaterMeter:MC0203J22010600005","2023-05-15T15:15:00",24.6,28.420399,0.167],
    [740,"urn:WaterMeter:MC0203J22010600005","2023-05-15T15:30:00",24.399,28.387077,0.164],
    [741,"urn:WaterMeter:MC0203J22010600005","2023-05-15T15:45:00",24.299,28.380095,0.173],
    [742,"urn:WaterMeter:MC0203J22010600005","2023-05-15T16:00:00",24.299,28.352942,0.168],
    [743,"urn:WaterMeter:MC0203J22010600005","2023-05-15T16:15:00",24.299,28.348288,0.169],
    [744,"urn:WaterMeter:MC0203J22010600005","2023-05-15T16:30:00",24.299,28.304804,0.174],
    [745,"urn:WaterMeter:MC0203J22010600005","2023-05-15T16:45:00",24.299,28.242779,0.162],
    [746,"urn:WaterMeter:MC0203J22010600005","2023-05-15T17:00:00",24.2,28.202826,0.172],
    [747,"urn:WaterMeter:MC0203J22010600005","2023-05-15T17:15:00",24,28.204376,0.165],
    [748,"urn:WaterMeter:MC0203J22010600005","2023-05-15T17:30:00",23.899,28.184593,0.164],
    [749,"urn:WaterMeter:MC0203J22010600005","2023-05-15T17:45:00",23.799,28.158604,0.168],
    [750,"urn:WaterMeter:MC0203J22010600005","2023-05-15T18:00:00",23.6,28.164423,0.17],
    [751,"urn:WaterMeter:MC0203J22010600005","2023-05-15T18:15:00",23.399,28.173344,0.166],
    [752,"urn:WaterMeter:MC0203J22010600005","2023-05-15T18:30:00",23.1,28.116323,0.16],
    [753,"urn:WaterMeter:MC0203J22010600005","2023-05-15T18:45:00",22.7,28.11322,0.172],
    [754,"urn:WaterMeter:MC0203J22010600005","2023-05-15T19:00:00",22.399,28.125244,0.167],
    [755,"urn:WaterMeter:MC0203J22010600005","2023-05-15T19:15:00",22.1,28.108177,0.165],
    [756,"urn:WaterMeter:MC0203J22010600005","2023-05-15T19:30:00",21.799,28.135717,0.173],
    [757,"urn:WaterMeter:MC0203J22010600005","2023-05-15T19:45:00",21.5,28.12094,0.171],
    [758,"urn:WaterMeter:MC0203J22010600005","2023-05-15T20:00:00",21.299,28.12796,0.174],
    [759,"urn:WaterMeter:MC0203J22010600005","2023-05-15T20:15:00",21.1,28.140335,0.167],
    [760,"urn:WaterMeter:MC0203J22010600005","2023-05-15T20:30:00",20.899,28.153563,0.161],
    [761,"urn:WaterMeter:MC0203J22010600005","2023-05-15T20:45:00",20.7,28.13882,0.17],
    [762,"urn:WaterMeter:MC0203J22010600005","2023-05-15T21:00:00",20.6,28.112406,0.171],
    [763,"urn:WaterMeter:MC0203J22010600005","2023-05-15T21:15:00",20.5,28.180676,0.162],
    [764,"urn:WaterMeter:MC0203J22010600005","2023-05-15T21:30:00",20.399,28.116323,0.165],
    [765,"urn:WaterMeter:MC0203J22010600005","2023-05-15T21:45:00",20.2,28.177223,0.162],
    [766,"urn:WaterMeter:MC0203J22010600005","2023-05-15T22:00:00",20.1,28.169039,0.174],
    [767,"urn:WaterMeter:MC0203J22010600005","2023-05-15T22:15:00",19.899,28.175673,0.166],
    [768,"urn:WaterMeter:MC0203J22010600005","2023-05-15T22:30:00",19.7,28.17218,0.167],
    [769,"urn:WaterMeter:MC0203J22010600005","2023-05-15T22:45:00",19.5,28.181879,0.163],
    [770,"urn:WaterMeter:MC0203J22010600005","2023-05-15T23:00:00",19.399,28.197393,0.16],
    [771,"urn:WaterMeter:MC0203J22010600005","2023-05-15T23:15:00",19.299,28.156664,0.171],
    [772,"urn:WaterMeter:MC0203J22010600005","2023-05-15T23:30:00",19.2,28.19274,0.164],
    [773,"urn:WaterMeter:MC0203J22010600005","2023-05-15T23:45:00",19.1,28.186882,0.168],
    [774,"urn:WaterMeter:MC0203J22010600005","2023-05-16T00:00:00",19,28.189985,0.166],
    [775,"urn:WaterMeter:MC0203J22010600005","2023-05-16T00:15:00",18.899,28.184593,0.171],
    [776,"urn:WaterMeter:MC0203J22010600005","2023-05-16T00:30:00",18.7,28.195843,0.171],
    [777,"urn:WaterMeter:MC0203J22010600005","2023-05-16T00:45:00",18.6,28.176836,0.161],
    [778,"urn:WaterMeter:MC0203J22010600005","2023-05-16T01:00:00",18.399,28.178776,0.167],
    [779,"urn:WaterMeter:MC0203J22010600005","2023-05-16T01:15:00",18.2,28.169815,0.165],
    [780,"urn:WaterMeter:MC0203J22010600005","2023-05-16T01:30:00",18.1,28.20205,0.166],
    [781,"urn:WaterMeter:MC0203J22010600005","2023-05-16T01:45:00",17.899,28.171406,0.164],
    [782,"urn:WaterMeter:MC0203J22010600005","2023-05-16T02:00:00",17.7,28.220669,0.169],
    [783,"urn:WaterMeter:MC0203J22010600005","2023-05-16T02:15:00",17.6,28.195066,0.169],
    [784,"urn:WaterMeter:MC0203J22010600005","2023-05-16T02:30:00",17.5,28.171406,0.164],
    [785,"urn:WaterMeter:MC0203J22010600005","2023-05-16T02:45:00",17.399,28.171406,0.162],
    [786,"urn:WaterMeter:MC0203J22010600005","2023-05-16T03:00:00",17.299,28.212523,0.153],
    [787,"urn:WaterMeter:MC0203J22010600005","2023-05-16T03:15:00",17.1,28.215239,0.166],
    [788,"urn:WaterMeter:MC0203J22010600005","2023-05-16T03:30:00",17,28.217176,0.166],
    [789,"urn:WaterMeter:MC0203J22010600005","2023-05-16T03:45:00",16.899,28.208992,0.17],
    [790,"urn:WaterMeter:MC0203J22010600005","2023-05-16T04:00:00",16.7,28.251312,0.17],
    [791,"urn:WaterMeter:MC0203J22010600005","2023-05-16T04:15:00",16.6,28.228775,0.164],
    [792,"urn:WaterMeter:MC0203J22010600005","2023-05-16T04:30:00",16.5,28.256355,0.166],
    [793,"urn:WaterMeter:MC0203J22010600005","2023-05-16T04:45:00",16.5,28.222996,0.16],
    [794,"urn:WaterMeter:MC0203J22010600005","2023-05-16T05:00:00",16.399,28.200497,0.163],
    [795,"urn:WaterMeter:MC0203J22010600005","2023-05-16T05:15:00",16.399,28.182266,0.168],
    [796,"urn:WaterMeter:MC0203J22010600005","2023-05-16T05:30:00",16.299,28.191189,0.161],
    [797,"urn:WaterMeter:MC0203J22010600005","2023-05-16T05:45:00",16.299,28.226835,0.167],
    [798,"urn:WaterMeter:MC0203J22010600005","2023-05-16T06:00:00",16.399,28.208605,0.16],
    [799,"urn:WaterMeter:MC0203J22010600005","2023-05-16T06:15:00",16.5,28.188435,0.157],
    [800,"urn:WaterMeter:MC0203J22010600005","2023-05-16T06:30:00",16.6,28.211359,0.157],
    [801,"urn:WaterMeter:MC0203J22010600005","2023-05-16T06:45:00",16.6,28.201273,0.166],
    [802,"urn:WaterMeter:MC0203J22010600005","2023-05-16T07:00:00",16.7,28.159729,0.16],
    [803,"urn:WaterMeter:MC0203J22010600005","2023-05-16T07:15:00",16.799,28.153173,0.16],
    [804,"urn:WaterMeter:MC0203J22010600005","2023-05-16T07:30:00",17.1,28.106627,0.152],
    [805,"urn:WaterMeter:MC0203J22010600005","2023-05-16T07:45:00",17.6,28.079084,0.159],
    [806,"urn:WaterMeter:MC0203J22010600005","2023-05-16T08:00:00",18.1,28.082537,0.155],
    [807,"urn:WaterMeter:MC0203J22010600005","2023-05-16T08:15:00",18.399,28.003445,0.155],
    [808,"urn:WaterMeter:MC0203J22010600005","2023-05-16T08:30:00",18.899,27.96,0.15],
    [809,"urn:WaterMeter:MC0203J22010600005","2023-05-16T08:45:00",19.5,27.966944,0.15],
    [810,"urn:WaterMeter:MC0203J22010600005","2023-05-16T09:00:00",20.2,27.859882,0.148],
    [811,"urn:WaterMeter:MC0203J22010600005","2023-05-16T09:15:00",20.899,27.812984,0.157],
    [812,"urn:WaterMeter:MC0203J22010600005","2023-05-16T09:30:00",21.6,27.756351,0.149],
    [813,"urn:WaterMeter:MC0203J22010600005","2023-05-16T09:45:00",22.399,27.706701,0.151],
    [814,"urn:WaterMeter:MC0203J22010600005","2023-05-16T10:00:00",23.2,27.667912,0.149],
    [815,"urn:WaterMeter:MC0203J22010600005","2023-05-16T10:15:00",23.799,27.55348,0.145],
    [816,"urn:WaterMeter:MC0203J22010600005","2023-05-16T10:30:00",24.399,27.489826,0.147],
    [817,"urn:WaterMeter:MC0203J22010600005","2023-05-16T10:45:00",25.2,27.410732,0.151],
    [818,"urn:WaterMeter:MC0203J22010600005","2023-05-16T11:00:00",25.799,27.331602,0.146],
    [819,"urn:WaterMeter:MC0203J22010600005","2023-05-16T11:15:00",26.2,27.250143,0.156],
    [820,"urn:WaterMeter:MC0203J22010600005","2023-05-16T11:30:00",26.6,27.198513,0.147],
    [821,"urn:WaterMeter:MC0203J22010600005","2023-05-16T11:45:00",27,27.115929,0.147],
    [822,"urn:WaterMeter:MC0203J22010600005","2023-05-16T12:00:00",27.399,27.091103,0.147],
    [823,"urn:WaterMeter:MC0203J22010600005","2023-05-16T12:15:00",27.399,27.009644,0.145],
    [824,"urn:WaterMeter:MC0203J22010600005","2023-05-16T12:30:00",27.399,26.942926,0.144],
    [825,"urn:WaterMeter:MC0203J22010600005","2023-05-16T12:45:00",27.399,26.886292,0.157],
    [826,"urn:WaterMeter:MC0203J22010600005","2023-05-16T13:00:00",27.399,26.780396,0.147],
    [827,"urn:WaterMeter:MC0203J22010600005","2023-05-16T13:15:00",27.2,26.739279,0.146],
    [828,"urn:WaterMeter:MC0203J22010600005","2023-05-16T13:30:00",27,26.709797,0.146],
    [829,"urn:WaterMeter:MC0203J22010600005","2023-05-16T13:45:00",26.799,26.634544,0.148],
    [830,"urn:WaterMeter:MC0203J22010600005","2023-05-16T14:00:00",26.6,26.605453,0.147],
    [831,"urn:WaterMeter:MC0203J22010600005","2023-05-16T14:15:00",26.399,26.577097,0.145],
    [832,"urn:WaterMeter:MC0203J22010600005","2023-05-16T14:30:00",26.1,26.472752,0.157],
    [833,"urn:WaterMeter:MC0203J22010600005","2023-05-16T14:45:00",25.899,26.477446,0.154],
    [834,"urn:WaterMeter:MC0203J22010600005","2023-05-16T15:00:00",25.7,26.420813,0.151],
    [835,"urn:WaterMeter:MC0203J22010600005","2023-05-16T15:15:00",25.5,26.39172,0.149],
    [836,"urn:WaterMeter:MC0203J22010600005","2023-05-16T15:30:00",25.399,26.347073,0.147],
    [837,"urn:WaterMeter:MC0203J22010600005","2023-05-16T15:45:00",25.299,26.35099,0.145],
    [838,"urn:WaterMeter:MC0203J22010600005","2023-05-16T16:00:00",25.2,26.269493,0.151],
    [839,"urn:WaterMeter:MC0203J22010600005","2023-05-16T16:15:00",25,26.267553,0.149],
    [840,"urn:WaterMeter:MC0203J22010600005","2023-05-16T16:30:00",24.799,26.174496,0.144],
    [841,"urn:WaterMeter:MC0203J22010600005","2023-05-16T16:45:00",24.6,26.21988,0.146],
    [842,"urn:WaterMeter:MC0203J22010600005","2023-05-16T17:00:00",24.399,26.178762,0.143],
    [843,"urn:WaterMeter:MC0203J22010600005","2023-05-16T17:15:00",24.299,26.136093,0.149],
    [844,"urn:WaterMeter:MC0203J22010600005","2023-05-16T17:30:00",24.1,26.111269,0.149],
    [845,"urn:WaterMeter:MC0203J22010600005","2023-05-16T17:45:00",24,26.127947,0.15],
    [846,"urn:WaterMeter:MC0203J22010600005","2023-05-16T18:00:00",23.899,26.102346,0.144],
    [847,"urn:WaterMeter:MC0203J22010600005","2023-05-16T18:15:00",23.7,26.106613,0.147],
    [848,"urn:WaterMeter:MC0203J22010600005","2023-05-16T18:30:00",23.5,26.074379,0.146],
    [849,"urn:WaterMeter:MC0203J22010600005","2023-05-16T18:45:00",23.2,26.060453,0.157],
    [850,"urn:WaterMeter:MC0203J22010600005","2023-05-16T19:00:00",22.899,26.042221,0.147],
    [851,"urn:WaterMeter:MC0203J22010600005","2023-05-16T19:15:00",22.6,26.043774,0.149],
    [852,"urn:WaterMeter:MC0203J22010600005","2023-05-16T19:30:00",22.399,26.030584,0.146],
    [853,"urn:WaterMeter:MC0203J22010600005","2023-05-16T19:45:00",22.1,26.02593,0.15],
    [854,"urn:WaterMeter:MC0203J22010600005","2023-05-16T20:00:00",21.899,26.02981,0.135],
    [855,"urn:WaterMeter:MC0203J22010600005","2023-05-16T20:15:00",21.7,26.031748,0.141],
    [856,"urn:WaterMeter:MC0203J22010600005","2023-05-16T20:30:00",21.399,26.072826,0.145],
    [857,"urn:WaterMeter:MC0203J22010600005","2023-05-16T20:45:00",21.2,26.054209,0.144],
    [858,"urn:WaterMeter:MC0203J22010600005","2023-05-16T21:00:00",21,26.010027,0.157],
    [859,"urn:WaterMeter:MC0203J22010600005","2023-05-16T21:15:00",20.899,26.059677,0.15],
    [860,"urn:WaterMeter:MC0203J22010600005","2023-05-16T21:30:00",20.7,26.048428,0.155],
    [861,"urn:WaterMeter:MC0203J22010600005","2023-05-16T21:45:00",20.5,26.03714,0.149],
    [862,"urn:WaterMeter:MC0203J22010600005","2023-05-16T22:00:00",20.299,26.043774,0.142],
    [863,"urn:WaterMeter:MC0203J22010600005","2023-05-16T22:15:00",20.2,26.093773,0.15],
    [864,"urn:WaterMeter:MC0203J22010600005","2023-05-16T22:30:00",20,26.063557,0.15],
    [865,"urn:WaterMeter:MC0203J22010600005","2023-05-16T22:45:00",19.799,26.076744,0.147],
    [866,"urn:WaterMeter:MC0203J22010600005","2023-05-16T23:00:00",19.7,26.067047,0.147],
    [867,"urn:WaterMeter:MC0203J22010600005","2023-05-16T23:15:00",19.5,26.12019,0.152],
    [868,"urn:WaterMeter:MC0203J22010600005","2023-05-16T23:30:00",19.399,26.126009,0.153],
    [869,"urn:WaterMeter:MC0203J22010600005","2023-05-16T23:45:00",19.299,26.09455,0.142],
    [870,"urn:WaterMeter:MC0203J22010600005","2023-05-17T00:00:00",19.299,26.084852,0.143],
    [871,"urn:WaterMeter:MC0203J22010600005","2023-05-17T00:15:00",19.2,26.113945,0.151],
    [872,"urn:WaterMeter:MC0203J22010600005","2023-05-17T00:30:00",19.1,26.083727,0.141],
    [873,"urn:WaterMeter:MC0203J22010600005","2023-05-17T00:45:00",19,26.14036,0.151],
    [874,"urn:WaterMeter:MC0203J22010600005","2023-05-17T01:00:00",18.899,26.089546,0.146],
    [875,"urn:WaterMeter:MC0203J22010600005","2023-05-17T01:15:00",18.799,26.108553,0.148],
    [876,"urn:WaterMeter:MC0203J22010600005","2023-05-17T01:30:00",18.7,26.115923,0.154],
    [877,"urn:WaterMeter:MC0203J22010600005","2023-05-17T01:45:00",18.6,26.10002,0.149],
    [878,"urn:WaterMeter:MC0203J22010600005","2023-05-17T02:00:00",18.5,26.087606,0.143],
    [879,"urn:WaterMeter:MC0203J22010600005","2023-05-17T02:15:00",18.399,26.120577,0.142],
    [880,"urn:WaterMeter:MC0203J22010600005","2023-05-17T02:30:00",18.299,26.104248,0.149],
    [881,"urn:WaterMeter:MC0203J22010600005","2023-05-17T02:45:00",18.1,26.114721,0.146],
    [882,"urn:WaterMeter:MC0203J22010600005","2023-05-17T03:00:00",18,26.118639,0.144],
    [883,"urn:WaterMeter:MC0203J22010600005","2023-05-17T03:15:00",18.1,26.10894,0.147],
    [884,"urn:WaterMeter:MC0203J22010600005","2023-05-17T03:30:00",18.2,26.114721,0.141],
    [885,"urn:WaterMeter:MC0203J22010600005","2023-05-17T03:45:00",18.2,26.129112,0.146],
    [886,"urn:WaterMeter:MC0203J22010600005","2023-05-17T04:00:00",18.2,26.12562,0.147],
    [887,"urn:WaterMeter:MC0203J22010600005","2023-05-17T04:15:00",18.1,26.35448,0.161],
    [888,"urn:WaterMeter:MC0203J22010600005","2023-05-17T04:30:00",18.1,27.712519,0.181],
    [889,"urn:WaterMeter:MC0203J22010600005","2023-05-17T04:45:00",18,29.244724,0.19],
    [890,"urn:WaterMeter:MC0203J22010600005","2023-05-17T05:00:00",18,30.326965,0.193],
    [891,"urn:WaterMeter:MC0203J22010600005","2023-05-17T05:15:00",17.899,30.875029,0.202],
    [892,"urn:WaterMeter:MC0203J22010600005","2023-05-17T05:30:00",17.799,30.96347,0.194],
    [893,"urn:WaterMeter:MC0203J22010600005","2023-05-17T05:45:00",17.7,31.010057,0.199],
    [894,"urn:WaterMeter:MC0203J22010600005","2023-05-17T06:00:00",17.7,31.08915,0.196],
    [895,"urn:WaterMeter:MC0203J22010600005","2023-05-17T06:15:00",17.7,31.082983,0.193],
    [896,"urn:WaterMeter:MC0203J22010600005","2023-05-17T06:30:00",17.799,31.073284,0.199],
    [897,"urn:WaterMeter:MC0203J22010600005","2023-05-17T06:45:00",18,31.052727,0.188],
    [898,"urn:WaterMeter:MC0203J22010600005","2023-05-17T07:00:00",18.2,31.016651,0.2],
    [899,"urn:WaterMeter:MC0203J22010600005","2023-05-17T07:15:00",18.399,31.008505,0.194],
    [900,"urn:WaterMeter:MC0203J22010600005","2023-05-17T07:30:00",18.6,30.971655,0.197],
    [901,"urn:WaterMeter:MC0203J22010600005","2023-05-17T07:45:00",19.1,30.950321,0.188],
    [902,"urn:WaterMeter:MC0203J22010600005","2023-05-17T08:00:00",19.5,30.930925,0.178],
    [903,"urn:WaterMeter:MC0203J22010600005","2023-05-17T08:15:00",19.799,30.884727,0.186],
    [904,"urn:WaterMeter:MC0203J22010600005","2023-05-17T08:30:00",20,30.823866,0.201],
    [905,"urn:WaterMeter:MC0203J22010600005","2023-05-17T08:45:00",20.299,30.83201,0.186],
    [906,"urn:WaterMeter:MC0203J22010600005","2023-05-17T09:00:00",20.7,30.783136,0.185],
    [907,"urn:WaterMeter:MC0203J22010600005","2023-05-17T09:15:00",21.299,30.73232,0.182],
    [908,"urn:WaterMeter:MC0203J22010600005","2023-05-17T09:30:00",22.1,30.652374,0.178],
    [909,"urn:WaterMeter:MC0203J22010600005","2023-05-17T09:45:00",22.799,30.598495,0.184],
    [910,"urn:WaterMeter:MC0203J22010600005","2023-05-17T10:00:00",23.5,30.584492,0.174],
    [911,"urn:WaterMeter:MC0203J22010600005","2023-05-17T10:15:00",24.2,30.481737,0.177],
    [912,"urn:WaterMeter:MC0203J22010600005","2023-05-17T10:30:00",24.7,30.430496,0.178],
    [913,"urn:WaterMeter:MC0203J22010600005","2023-05-17T10:45:00",25.1,30.373901,0.178],
    [914,"urn:WaterMeter:MC0203J22010600005","2023-05-17T11:00:00",25.2,30.326578,0.177],
    [915,"urn:WaterMeter:MC0203J22010600005","2023-05-17T11:15:00",25.6,30.271883,0.173],
    [916,"urn:WaterMeter:MC0203J22010600005","2023-05-17T11:30:00",25.899,30.239687,0.175],
    [917,"urn:WaterMeter:MC0203J22010600005","2023-05-17T11:45:00",26.2,30.172194,0.175],
    [918,"urn:WaterMeter:MC0203J22010600005","2023-05-17T12:00:00",26.5,30.116724,0.175],
    [919,"urn:WaterMeter:MC0203J22010600005","2023-05-17T12:15:00",26.899,30.060827,0.177],
    [920,"urn:WaterMeter:MC0203J22010600005","2023-05-17T12:30:00",27.1,30.002642,0.176],
    [921,"urn:WaterMeter:MC0203J22010600005","2023-05-17T12:45:00",27.299,29.941393,0.172],
    [922,"urn:WaterMeter:MC0203J22010600005","2023-05-17T13:00:00",27.299,29.904543,0.177],
    [923,"urn:WaterMeter:MC0203J22010600005","2023-05-17T13:15:00",27,29.837397,0.18],
    [924,"urn:WaterMeter:MC0203J22010600005","2023-05-17T13:30:00",26.7,29.818777,0.174],
    [925,"urn:WaterMeter:MC0203J22010600005","2023-05-17T13:45:00",26.5,29.766062,0.179],
    [926,"urn:WaterMeter:MC0203J22010600005","2023-05-17T14:00:00",26.299,29.744728,0.185],
    [927,"urn:WaterMeter:MC0203J22010600005","2023-05-17T14:15:00",26.1,29.72766,0.196],
    [928,"urn:WaterMeter:MC0203J22010600005","2023-05-17T14:30:00",25.799,29.691935,0.179],
    [929,"urn:WaterMeter:MC0203J22010600005","2023-05-17T14:45:00",25.5,29.6943,0.182],
    [930,"urn:WaterMeter:MC0203J22010600005","2023-05-17T15:00:00",25.399,29.659002,0.18],
    [931,"urn:WaterMeter:MC0203J22010600005","2023-05-17T15:15:00",25.299,29.64853,0.178],
    [932,"urn:WaterMeter:MC0203J22010600005","2023-05-17T15:30:00",25.1,29.620987,0.179],
    [933,"urn:WaterMeter:MC0203J22010600005","2023-05-17T15:45:00",24.899,29.586426,0.185],
    [934,"urn:WaterMeter:MC0203J22010600005","2023-05-17T16:00:00",24.799,29.600817,0.18],
    [935,"urn:WaterMeter:MC0203J22010600005","2023-05-17T16:15:00",24.6,29.569784,0.184],
    [936,"urn:WaterMeter:MC0203J22010600005","2023-05-17T16:30:00",24.399,29.553493,0.179],
    [937,"urn:WaterMeter:MC0203J22010600005","2023-05-17T16:45:00",24.2,29.527077,0.182],
    [938,"urn:WaterMeter:MC0203J22010600005","2023-05-17T17:00:00",24.1,29.537937,0.182],
    [939,"urn:WaterMeter:MC0203J22010600005","2023-05-17T17:15:00",23.899,29.492592,0.188],
    [940,"urn:WaterMeter:MC0203J22010600005","2023-05-17T17:30:00",23.7,29.489838,0.179],
    [941,"urn:WaterMeter:MC0203J22010600005","2023-05-17T17:45:00",23.399,29.483282,0.182],
    [942,"urn:WaterMeter:MC0203J22010600005","2023-05-17T18:00:00",23.2,29.499147,0.177],
    [943,"urn:WaterMeter:MC0203J22010600005","2023-05-17T18:15:00",22.899,29.453415,0.18],
    [944,"urn:WaterMeter:MC0203J22010600005","2023-05-17T18:30:00",22.7,29.503065,0.182],
    [945,"urn:WaterMeter:MC0203J22010600005","2023-05-17T18:45:00",22.5,29.447557,0.181],
    [946,"urn:WaterMeter:MC0203J22010600005","2023-05-17T19:00:00",22.299,29.500738,0.182],
    [947,"urn:WaterMeter:MC0203J22010600005","2023-05-17T19:15:00",22.1,29.510048,0.184],
    [948,"urn:WaterMeter:MC0203J22010600005","2023-05-17T19:30:00",21.899,29.465439,0.189],
    [949,"urn:WaterMeter:MC0203J22010600005","2023-05-17T19:45:00",21.7,29.486347,0.186],
    [950,"urn:WaterMeter:MC0203J22010600005","2023-05-17T20:00:00",21.6,29.466215,0.188],
    [951,"urn:WaterMeter:MC0203J22010600005","2023-05-17T20:15:00",21.399,29.48945,0.18],
    [952,"urn:WaterMeter:MC0203J22010600005","2023-05-17T20:30:00",21.299,29.483671,0.166],
    [953,"urn:WaterMeter:MC0203J22010600005","2023-05-17T20:45:00",21.1,29.463888,0.184],
    [954,"urn:WaterMeter:MC0203J22010600005","2023-05-17T21:00:00",21,29.49492,0.184],
    [955,"urn:WaterMeter:MC0203J22010600005","2023-05-17T21:15:00",20.899,29.439798,0.185],
    [956,"urn:WaterMeter:MC0203J22010600005","2023-05-17T21:30:00",20.799,29.496084,0.185],
    [957,"urn:WaterMeter:MC0203J22010600005","2023-05-17T21:45:00",20.7,29.488674,0.18],
    [958,"urn:WaterMeter:MC0203J22010600005","2023-05-17T22:00:00",20.6,29.466215,0.175],
    [959,"urn:WaterMeter:MC0203J22010600005","2023-05-17T22:15:00",20.5,29.470444,0.186],
    [960,"urn:WaterMeter:MC0203J22010600005","2023-05-17T22:30:00",20.399,29.43945,0.178],
    [961,"urn:WaterMeter:MC0203J22010600005","2023-05-17T22:45:00",20.299,29.451862,0.178],
    [962,"urn:WaterMeter:MC0203J22010600005","2023-05-17T23:00:00",20.299,29.467728,0.175],
    [963,"urn:WaterMeter:MC0203J22010600005","2023-05-17T23:15:00",20.2,29.443329,0.184],
    [964,"urn:WaterMeter:MC0203J22010600005","2023-05-17T23:30:00",20.1,29.477852,0.179],
    [965,"urn:WaterMeter:MC0203J22010600005","2023-05-17T23:45:00",20.1,29.429714,0.183],
    [966,"urn:WaterMeter:MC0203J22010600005","2023-05-18T00:00:00",20,29.436346,0.178],
    [967,"urn:WaterMeter:MC0203J22010600005","2023-05-18T00:15:00",19.899,29.458069,0.18],
    [968,"urn:WaterMeter:MC0203J22010600005","2023-05-18T00:30:00",19.799,29.464664,0.188],
    [969,"urn:WaterMeter:MC0203J22010600005","2023-05-18T00:45:00",19.7,29.440187,0.177],
    [970,"urn:WaterMeter:MC0203J22010600005","2023-05-18T01:00:00",19.6,29.440964,0.174],
    [971,"urn:WaterMeter:MC0203J22010600005","2023-05-18T01:15:00",19.6,29.447945,0.172],
    [972,"urn:WaterMeter:MC0203J22010600005","2023-05-18T01:30:00",19.5,29.45066,0.18],
    [973,"urn:WaterMeter:MC0203J22010600005","2023-05-18T01:45:00",19.399,29.43208,0.18],
    [974,"urn:WaterMeter:MC0203J22010600005","2023-05-18T02:00:00",19.299,29.42665,0.181],
    [975,"urn:WaterMeter:MC0203J22010600005","2023-05-18T02:15:00",19.2,29.401009,0.186],
    [976,"urn:WaterMeter:MC0203J22010600005","2023-05-18T02:30:00",19.1,29.45997,0.176],
    [977,"urn:WaterMeter:MC0203J22010600005","2023-05-18T02:45:00",19,29.440964,0.177],
    [978,"urn:WaterMeter:MC0203J22010600005","2023-05-18T03:00:00",18.899,29.442553,0.178],
    [979,"urn:WaterMeter:MC0203J22010600005","2023-05-18T03:15:00",18.899,29.39872,0.176],
    [980,"urn:WaterMeter:MC0203J22010600005","2023-05-18T03:30:00",18.899,29.440964,0.187],
    [981,"urn:WaterMeter:MC0203J22010600005","2023-05-18T03:45:00",18.799,29.407642,0.177],
    [982,"urn:WaterMeter:MC0203J22010600005","2023-05-18T04:00:00",18.6,29.421568,0.175],
    [983,"urn:WaterMeter:MC0203J22010600005","2023-05-18T04:15:00",18.5,29.394066,0.187],
    [984,"urn:WaterMeter:MC0203J22010600005","2023-05-18T04:30:00",18.5,29.413462,0.175],
    [985,"urn:WaterMeter:MC0203J22010600005","2023-05-18T04:45:00",18.399,29.380102,0.176],
    [986,"urn:WaterMeter:MC0203J22010600005","2023-05-18T05:00:00",18.399,29.371141,0.18],
    [987,"urn:WaterMeter:MC0203J22010600005","2023-05-18T05:15:00",18.399,29.277697,0.177],
    [988,"urn:WaterMeter:MC0203J22010600005","2023-05-18T05:30:00",18,29.61129,0.183],
    [989,"urn:WaterMeter:MC0203J22010600005","2023-05-18T05:45:00",18,29.776922,0.181],
    [990,"urn:WaterMeter:MC0203J22010600005","2023-05-18T06:00:00",18,29.85334,0.181],
    [991,"urn:WaterMeter:MC0203J22010600005","2023-05-18T06:15:00",17.899,30.243528,0.19],
    [992,"urn:WaterMeter:MC0203J22010600005","2023-05-18T06:30:00",17.899,30.747023,0.198],
    [993,"urn:WaterMeter:MC0203J22010600005","2023-05-18T06:45:00",18,31.08686,0.197],
    [994,"urn:WaterMeter:MC0203J22010600005","2023-05-18T07:00:00",18.2,31.199352,0.198],
    [995,"urn:WaterMeter:MC0203J22010600005","2023-05-18T07:15:00",18.399,31.21289,0.204],
    [996,"urn:WaterMeter:MC0203J22010600005","2023-05-18T07:30:00",18.5,31.231897,0.204],
    [997,"urn:WaterMeter:MC0203J22010600005","2023-05-18T07:45:00",18.799,31.181896,0.196],
    [998,"urn:WaterMeter:MC0203J22010600005","2023-05-18T08:00:00",19.1,31.179958,0.194],
    [999,"urn:WaterMeter:MC0203J22010600005","2023-05-18T08:15:00",19.5,31.138412,0.2],
    [1000,"urn:WaterMeter:MC0203J22010600005","2023-05-18T08:30:00",19.799,31.12216,0.199],
    [1001,"urn:WaterMeter:MC0203J22010600005","2023-05-18T08:45:00",20.299,31.126816,0.194],
    [1002,"urn:WaterMeter:MC0203J22010600005","2023-05-18T09:00:00",21,31.015875,0.188],
    [1003,"urn:WaterMeter:MC0203J22010600005","2023-05-18T09:15:00",21.6,31.004627,0.191],
    [1004,"urn:WaterMeter:MC0203J22010600005","2023-05-18T09:30:00",22,30.949545,0.195],
    [1005,"urn:WaterMeter:MC0203J22010600005","2023-05-18T09:45:00",22,30.901058,0.198],
    [1006,"urn:WaterMeter:MC0203J22010600005","2023-05-18T10:00:00",21.899,30.877396,0.197],
    [1007,"urn:WaterMeter:MC0203J22010600005","2023-05-18T10:15:00",21.799,30.88011,0.197],
    [1008,"urn:WaterMeter:MC0203J22010600005","2023-05-18T10:30:00",21.7,30.85641,0.197],
    [1009,"urn:WaterMeter:MC0203J22010600005","2023-05-18T10:45:00",21.6,30.826542,0.193],
    [1010,"urn:WaterMeter:MC0203J22010600005","2023-05-18T11:00:00",21.899,30.836239,0.188],
    [1011,"urn:WaterMeter:MC0203J22010600005","2023-05-18T11:15:00",22.299,30.750126,0.196],
    [1012,"urn:WaterMeter:MC0203J22010600005","2023-05-18T11:30:00",23.1,30.75866,0.188],
    [1013,"urn:WaterMeter:MC0203J22010600005","2023-05-18T11:45:00",22.899,30.657455,0.186],
    [1014,"urn:WaterMeter:MC0203J22010600005","2023-05-18T12:00:00",22.7,30.615175,0.192],
    [1015,"urn:WaterMeter:MC0203J22010600005","2023-05-18T12:15:00",23,30.632591,0.188],
    [1016,"urn:WaterMeter:MC0203J22010600005","2023-05-18T12:30:00",23.399,30.616339,0.181],
    [1017,"urn:WaterMeter:MC0203J22010600005","2023-05-18T12:45:00",23.899,30.557379,0.189],
    [1018,"urn:WaterMeter:MC0203J22010600005","2023-05-18T13:00:00",24,30.476656,0.194],
    [1019,"urn:WaterMeter:MC0203J22010600005","2023-05-18T13:15:00",24,30.467733,0.184],
    [1020,"urn:WaterMeter:MC0203J22010600005","2023-05-18T13:30:00",23.799,30.397175,0.19],
    [1021,"urn:WaterMeter:MC0203J22010600005","2023-05-18T13:45:00",23.799,30.394072,0.184],
    [1022,"urn:WaterMeter:MC0203J22010600005","2023-05-18T14:00:00",24,30.366142,0.194],
    [1023,"urn:WaterMeter:MC0203J22010600005","2023-05-18T14:15:00",24,30.311062,0.17],
    [1024,"urn:WaterMeter:MC0203J22010600005","2023-05-18T14:30:00",24.2,30.318043,0.186],
    [1025,"urn:WaterMeter:MC0203J22010600005","2023-05-18T14:45:00",24.1,30.247446,0.185],
    [1026,"urn:WaterMeter:MC0203J22010600005","2023-05-18T15:00:00",24,30.208656,0.2],
    [1027,"urn:WaterMeter:MC0203J22010600005","2023-05-18T15:15:00",23.899,30.201286,0.189],
    [1028,"urn:WaterMeter:MC0203J22010600005","2023-05-18T15:30:00",23.7,30.20629,0.187],
    [1029,"urn:WaterMeter:MC0203J22010600005","2023-05-18T15:45:00",23.5,30.184956,0.187],
    [1030,"urn:WaterMeter:MC0203J22010600005","2023-05-18T16:00:00",23.399,30.16366,0.19],
    [1031,"urn:WaterMeter:MC0203J22010600005","2023-05-18T16:15:00",23.299,30.140774,0.186],
    [1032,"urn:WaterMeter:MC0203J22010600005","2023-05-18T16:30:00",23.1,30.13224,0.192],
    [1033,"urn:WaterMeter:MC0203J22010600005","2023-05-18T16:45:00",22.799,30.124481,0.192],
    [1034,"urn:WaterMeter:MC0203J22010600005","2023-05-18T17:00:00",22.6,30.09923,0.198],
    [1035,"urn:WaterMeter:MC0203J22010600005","2023-05-18T17:15:00",22.399,30.084915,0.195],
    [1036,"urn:WaterMeter:MC0203J22010600005","2023-05-18T17:30:00",22.2,30.115948,0.199],
    [1037,"urn:WaterMeter:MC0203J22010600005","2023-05-18T17:45:00",21.799,30.097328,0.191],
    [1038,"urn:WaterMeter:MC0203J22010600005","2023-05-18T18:00:00",21.2,30.067461,0.19],
    [1039,"urn:WaterMeter:MC0203J22010600005","2023-05-18T18:15:00",19.2,42.572193,0.269],
    [1040,"urn:WaterMeter:MC0203J22010600005","2023-05-18T18:30:00",18.899,42.649345,0.265],
    [1041,"urn:WaterMeter:MC0203J22010600005","2023-05-18T18:45:00",18.5,42.77425,0.259],
    [1042,"urn:WaterMeter:MC0203J22010600005","2023-05-18T19:00:00",18.299,41.203255,0.251],
    [1043,"urn:WaterMeter:MC0203J22010600005","2023-05-18T19:15:00",18.2,40.697044,0.227],
    [1044,"urn:WaterMeter:MC0203J22010600005","2023-05-18T19:30:00",18.299,40.68506,0.22],
    [1045,"urn:WaterMeter:MC0203J22010600005","2023-05-18T19:45:00",18.299,40.14394,0.214],
    [1046,"urn:WaterMeter:MC0203J22010600005","2023-05-18T20:00:00",18.2,39.878227,0.205],
    [1047,"urn:WaterMeter:MC0203J22010600005","2023-05-18T20:15:00",18.1,39.601265,0.207],
    [1048,"urn:WaterMeter:MC0203J22010600005","2023-05-18T20:30:00",18,39.081867,0.203],
    [1049,"urn:WaterMeter:MC0203J22010600005","2023-05-18T20:45:00",17.899,38.627636,0.21],
    [1050,"urn:WaterMeter:MC0203J22010600005","2023-05-18T21:00:00",17.799,37.80529,0.209],
    [1051,"urn:WaterMeter:MC0203J22010600005","2023-05-18T21:15:00",17.7,37.475185,0.199],
    [1052,"urn:WaterMeter:MC0203J22010600005","2023-05-18T21:30:00",17.6,37.069794,0.203],
    [1053,"urn:WaterMeter:MC0203J22010600005","2023-05-18T21:45:00",17.5,35.183086,0.188],
    [1054,"urn:WaterMeter:MC0203J22010600005","2023-05-18T22:00:00",17.5,34.96815,0.191],
    [1055,"urn:WaterMeter:MC0203J22010600005","2023-05-18T22:15:00",17.399,34.776566,0.186],
    [1056,"urn:WaterMeter:MC0203J22010600005","2023-05-18T22:30:00",17.399,34.588394,0.181],
    [1057,"urn:WaterMeter:MC0203J22010600005","2023-05-18T22:45:00",17.299,34.492195,0.189],
    [1058,"urn:WaterMeter:MC0203J22010600005","2023-05-18T23:00:00",17.2,34.385525,0.186],
    [1059,"urn:WaterMeter:MC0203J22010600005","2023-05-18T23:15:00",17.1,34.230015,0.178],
    [1060,"urn:WaterMeter:MC0203J22010600005","2023-05-18T23:30:00",17,34.133778,0.18],
    [1061,"urn:WaterMeter:MC0203J22010600005","2023-05-18T23:45:00",16.899,34.065506,0.182],
    [1062,"urn:WaterMeter:MC0203J22010600005","2023-05-19T00:00:00",16.799,34.036064,0.183],
    [1063,"urn:WaterMeter:MC0203J22010600005","2023-05-19T00:15:00",16.7,33.923187,0.185],
    [1064,"urn:WaterMeter:MC0203J22010600005","2023-05-19T00:30:00",16.6,33.89293,0.185],
    [1065,"urn:WaterMeter:MC0203J22010600005","2023-05-19T00:45:00",16.5,33.825825,0.186],
    [1066,"urn:WaterMeter:MC0203J22010600005","2023-05-19T01:00:00",16.5,33.747856,0.187],
    [1067,"urn:WaterMeter:MC0203J22010600005","2023-05-19T01:15:00",16.399,33.724194,0.184],
    [1068,"urn:WaterMeter:MC0203J22010600005","2023-05-19T01:30:00",16.299,33.71446,0.182],
    [1069,"urn:WaterMeter:MC0203J22010600005","2023-05-19T01:45:00",16.2,33.631874,0.179],
    [1070,"urn:WaterMeter:MC0203J22010600005","2023-05-19T02:00:00",16.1,33.61209,0.181],
    [1071,"urn:WaterMeter:MC0203J22010600005","2023-05-19T02:15:00",16.1,33.51822,0.182],
    [1072,"urn:WaterMeter:MC0203J22010600005","2023-05-19T02:30:00",16,33.48288,0.181],
    [1073,"urn:WaterMeter:MC0203J22010600005","2023-05-19T02:45:00",15.8,33.470894,0.185],
    [1074,"urn:WaterMeter:MC0203J22010600005","2023-05-19T03:00:00",15.699,33.454216,0.18],
    [1075,"urn:WaterMeter:MC0203J22010600005","2023-05-19T03:15:00",15.899,33.67644,0.191],
    [1076,"urn:WaterMeter:MC0203J22010600005","2023-05-19T03:30:00",16.1,34.23273,0.187],
    [1077,"urn:WaterMeter:MC0203J22010600005","2023-05-19T03:45:00",16.2,35.08262,0.208],
    [1078,"urn:WaterMeter:MC0203J22010600005","2023-05-19T04:00:00",16.299,35.742435,0.21],
    [1079,"urn:WaterMeter:MC0203J22010600005","2023-05-19T04:15:00",16.399,36.066723,0.212],
    [1080,"urn:WaterMeter:MC0203J22010600005","2023-05-19T04:30:00",16.5,36.34019,0.219],
    [1081,"urn:WaterMeter:MC0203J22010600005","2023-05-19T04:45:00",16.5,36.411915,0.218],
    [1082,"urn:WaterMeter:MC0203J22010600005","2023-05-19T05:00:00",16.6,36.5085,0.22],
    [1083,"urn:WaterMeter:MC0203J22010600005","2023-05-19T05:15:00",16.5,35.916603,0.216],
    [1084,"urn:WaterMeter:MC0203J22010600005","2023-05-19T05:30:00",16.299,35.386345,0.201],
    [1085,"urn:WaterMeter:MC0203J22010600005","2023-05-19T05:45:00",16.299,35.025948,0.196],
    [1086,"urn:WaterMeter:MC0203J22010600005","2023-05-19T06:00:00",16.299,34.594643,0.19],
    [1087,"urn:WaterMeter:MC0203J22010600005","2023-05-19T06:15:00",16.399,34.436768,0.192],
    [1088,"urn:WaterMeter:MC0203J22010600005","2023-05-19T06:30:00",16.6,34.326214,0.196],
    [1089,"urn:WaterMeter:MC0203J22010600005","2023-05-19T06:45:00",16.7,34.215664,0.19],
    [1090,"urn:WaterMeter:MC0203J22010600005","2023-05-19T07:00:00",16.899,34.110153,0.203],
    [1091,"urn:WaterMeter:MC0203J22010600005","2023-05-19T07:15:00",17.1,33.992233,0.196],
    [1092,"urn:WaterMeter:MC0203J22010600005","2023-05-19T07:30:00",17.399,33.932106,0.196],
    [1093,"urn:WaterMeter:MC0203J22010600005","2023-05-19T07:45:00",17.7,33.821167,0.186],
    [1094,"urn:WaterMeter:MC0203J22010600005","2023-05-19T08:00:00",17.899,33.76605,0.187],
    [1095,"urn:WaterMeter:MC0203J22010600005","2023-05-19T08:15:00",18,33.681526,0.189],
    [1096,"urn:WaterMeter:MC0203J22010600005","2023-05-19T08:30:00",18.299,33.595024,0.181],
    [1097,"urn:WaterMeter:MC0203J22010600005","2023-05-19T08:45:00",19,33.533306,0.186],
    [1098,"urn:WaterMeter:MC0203J22010600005","2023-05-19T09:00:00",19.7,33.371204,0.186],
    [1099,"urn:WaterMeter:MC0203J22010600005","2023-05-19T09:15:00",19.7,33.338196,0.18],
    [1100,"urn:WaterMeter:MC0203J22010600005","2023-05-19T09:30:00",19.6,33.243973,0.188],
    [1101,"urn:WaterMeter:MC0203J22010600005","2023-05-19T09:45:00",19.799,33.14661,0.187],
    [1102,"urn:WaterMeter:MC0203J22010600005","2023-05-19T10:00:00",20.299,33.071747,0.181],
    [1103,"urn:WaterMeter:MC0203J22010600005","2023-05-19T10:15:00",20.2,33.0636,0.179],
    [1104,"urn:WaterMeter:MC0203J22010600005","2023-05-19T10:30:00",20.6,32.932877,0.183],
    [1105,"urn:WaterMeter:MC0203J22010600005","2023-05-19T10:45:00",21.399,32.913483,0.177],
    [1106,"urn:WaterMeter:MC0203J22010600005","2023-05-19T11:00:00",22.399,32.820385,0.175],
    [1107,"urn:WaterMeter:MC0203J22010600005","2023-05-19T11:15:00",23.2,32.698547,0.173],
    [1108,"urn:WaterMeter:MC0203J22010600005","2023-05-19T11:30:00",23.799,32.646606,0.183],
    [1109,"urn:WaterMeter:MC0203J22010600005","2023-05-19T11:45:00",24.2,32.558167,0.178],
    [1110,"urn:WaterMeter:MC0203J22010600005","2023-05-19T12:00:00",24.7,32.4577,0.169],
    [1111,"urn:WaterMeter:MC0203J22010600005","2023-05-19T12:15:00",25,32.39292,0.18],
    [1112,"urn:WaterMeter:MC0203J22010600005","2023-05-19T12:30:00",25,32.29517,0.177],
    [1113,"urn:WaterMeter:MC0203J22010600005","2023-05-19T12:45:00",24.7,32.21953,0.174],
    [1114,"urn:WaterMeter:MC0203J22010600005","2023-05-19T13:00:00",24.1,32.207893,0.177],
    [1115,"urn:WaterMeter:MC0203J22010600005","2023-05-19T13:15:00",23.799,32.113243,0.179],
    [1116,"urn:WaterMeter:MC0203J22010600005","2023-05-19T13:30:00",23.399,32.08838,0.179],
    [1117,"urn:WaterMeter:MC0203J22010600005","2023-05-19T13:45:00",23,32.037216,0.178],
    [1118,"urn:WaterMeter:MC0203J22010600005","2023-05-19T14:00:00",22.6,32.03101,0.177],
    [1119,"urn:WaterMeter:MC0203J22010600005","2023-05-19T14:15:00",22.399,32.00463,0.181],
    [1120,"urn:WaterMeter:MC0203J22010600005","2023-05-19T14:30:00",22.2,31.990242,0.182],
    [1121,"urn:WaterMeter:MC0203J22010600005","2023-05-19T14:45:00",21.5,31.926277,0.188],
    [1122,"urn:WaterMeter:MC0203J22010600005","2023-05-19T15:00:00",20.899,31.957697,0.179],
    [1123,"urn:WaterMeter:MC0203J22010600005","2023-05-19T15:15:00",20.299,31.973213,0.19],
    [1124,"urn:WaterMeter:MC0203J22010600005","2023-05-19T15:30:00",20,31.920847,0.182],
    [1125,"urn:WaterMeter:MC0203J22010600005","2023-05-19T15:45:00",19.899,32.00925,0.181],
    [1126,"urn:WaterMeter:MC0203J22010600005","2023-05-19T16:00:00",19.899,31.99063,0.186],
    [1127,"urn:WaterMeter:MC0203J22010600005","2023-05-19T16:15:00",19.899,31.97748,0.188],
    [1128,"urn:WaterMeter:MC0203J22010600005","2023-05-19T16:30:00",19.899,32.03644,0.186],
    [1129,"urn:WaterMeter:MC0203J22010600005","2023-05-19T16:45:00",19.799,32.021313,0.183],
    [1130,"urn:WaterMeter:MC0203J22010600005","2023-05-19T17:00:00",19.6,32.008472,0.185],
    [1131,"urn:WaterMeter:MC0203J22010600005","2023-05-19T17:15:00",19.6,31.973213,0.183],
    [1132,"urn:WaterMeter:MC0203J22010600005","2023-05-19T17:30:00",19.5,32.025967,0.177],
    [1133,"urn:WaterMeter:MC0203J22010600005","2023-05-19T17:45:00",19.399,31.95692,0.179],
    [1134,"urn:WaterMeter:MC0203J22010600005","2023-05-19T18:00:00",19.299,31.962313,0.179],
    [1135,"urn:WaterMeter:MC0203J22010600005","2023-05-19T18:15:00",19.1,31.984463,0.186],
    [1136,"urn:WaterMeter:MC0203J22010600005","2023-05-19T18:30:00",19,31.95731,0.181],
    [1137,"urn:WaterMeter:MC0203J22010600005","2023-05-19T18:45:00",18.799,31.902615,0.186],
    [1138,"urn:WaterMeter:MC0203J22010600005","2023-05-19T19:00:00",18.7,31.962313,0.184],
    [1139,"urn:WaterMeter:MC0203J22010600005","2023-05-19T19:15:00",18.6,31.92938,0.184],
    [1140,"urn:WaterMeter:MC0203J22010600005","2023-05-19T19:30:00",18.399,31.96623,0.184],
    [1141,"urn:WaterMeter:MC0203J22010600005","2023-05-19T19:45:00",18.299,31.89443,0.185],
    [1142,"urn:WaterMeter:MC0203J22010600005","2023-05-19T20:00:00",18.2,31.941017,0.181],
    [1143,"urn:WaterMeter:MC0203J22010600005","2023-05-19T20:15:00",18.2,31.904127,0.187],
    [1144,"urn:WaterMeter:MC0203J22010600005","2023-05-19T20:30:00",18.1,31.901451,0.181],
    [1145,"urn:WaterMeter:MC0203J22010600005","2023-05-19T20:45:00",18.1,31.91813,0.185],
    [1146,"urn:WaterMeter:MC0203J22010600005","2023-05-19T21:00:00",18,31.864563,0.181],
    [1147,"urn:WaterMeter:MC0203J22010600005","2023-05-19T21:15:00",17.899,31.88865,0.183],
    [1148,"urn:WaterMeter:MC0203J22010600005","2023-05-19T21:30:00",17.899,31.875423,0.177],
    [1149,"urn:WaterMeter:MC0203J22010600005","2023-05-19T21:45:00",17.799,31.856455,0.177],
    [1150,"urn:WaterMeter:MC0203J22010600005","2023-05-19T22:00:00",17.799,31.864563,0.186],
    [1151,"urn:WaterMeter:MC0203J22010600005","2023-05-19T22:15:00",17.7,31.849861,0.182],
    [1152,"urn:WaterMeter:MC0203J22010600005","2023-05-19T22:30:00",17.6,31.858395,0.187],
    [1153,"urn:WaterMeter:MC0203J22010600005","2023-05-19T22:45:00",17.5,31.863049,0.182],
    [1154,"urn:WaterMeter:MC0203J22010600005","2023-05-19T23:00:00",17.5,31.824259,0.182],
    [1155,"urn:WaterMeter:MC0203J22010600005","2023-05-19T23:15:00",17.399,31.84633,0.18],
    [1156,"urn:WaterMeter:MC0203J22010600005","2023-05-19T23:30:00",17.299,31.803312,0.181],
    [1157,"urn:WaterMeter:MC0203J22010600005","2023-05-19T23:45:00",17.299,31.781202,0.178],
    [1158,"urn:WaterMeter:MC0203J22010600005","2023-05-20T00:00:00",17.2,31.801762,0.184],
    [1159,"urn:WaterMeter:MC0203J22010600005","2023-05-20T00:15:00",17.1,31.782366,0.184],
    [1160,"urn:WaterMeter:MC0203J22010600005","2023-05-20T00:30:00",17.1,31.744352,0.186],
    [1161,"urn:WaterMeter:MC0203J22010600005","2023-05-20T00:45:00",17,31.79284,0.182],
    [1162,"urn:WaterMeter:MC0203J22010600005","2023-05-20T01:00:00",16.899,31.789736,0.183],
    [1163,"urn:WaterMeter:MC0203J22010600005","2023-05-20T01:15:00",16.799,31.732716,0.181],
    [1164,"urn:WaterMeter:MC0203J22010600005","2023-05-20T01:30:00",16.799,31.763746,0.181],
    [1165,"urn:WaterMeter:MC0203J22010600005","2023-05-20T01:45:00",16.7,31.733103,0.182],
    [1166,"urn:WaterMeter:MC0203J22010600005","2023-05-20T02:00:00",16.6,31.772282,0.18],
    [1167,"urn:WaterMeter:MC0203J22010600005","2023-05-20T02:15:00",16.6,31.730387,0.182],
    [1168,"urn:WaterMeter:MC0203J22010600005","2023-05-20T02:30:00",16.5,31.712156,0.181],
    [1169,"urn:WaterMeter:MC0203J22010600005","2023-05-20T02:45:00",16.399,31.68031,0.185],
    [1170,"urn:WaterMeter:MC0203J22010600005","2023-05-20T03:00:00",16.399,31.698542,0.189],
    [1171,"urn:WaterMeter:MC0203J22010600005","2023-05-20T03:15:00",16.299,31.68384,0.175],
    [1172,"urn:WaterMeter:MC0203J22010600005","2023-05-20T03:30:00",16.299,31.740086,0.181],
    [1173,"urn:WaterMeter:MC0203J22010600005","2023-05-20T03:45:00",16.2,31.682676,0.179],
    [1174,"urn:WaterMeter:MC0203J22010600005","2023-05-20T04:00:00",16.2,31.686943,0.179],
    [1175,"urn:WaterMeter:MC0203J22010600005","2023-05-20T04:15:00",16.1,31.699316,0.184],
    [1176,"urn:WaterMeter:MC0203J22010600005","2023-05-20T04:30:00",16,31.678759,0.181],
    [1177,"urn:WaterMeter:MC0203J22010600005","2023-05-20T04:45:00",15.899,31.66522,0.173],
    [1178,"urn:WaterMeter:MC0203J22010600005","2023-05-20T05:00:00",15.8,31.64854,0.184],
    [1179,"urn:WaterMeter:MC0203J22010600005","2023-05-20T05:15:00",15.699,31.667936,0.185],
    [1180,"urn:WaterMeter:MC0203J22010600005","2023-05-20T05:30:00",15.6,31.697378,0.184],
    [1181,"urn:WaterMeter:MC0203J22010600005","2023-05-20T05:45:00",15.5,31.636904,0.182],
    [1182,"urn:WaterMeter:MC0203J22010600005","2023-05-20T06:00:00",15.6,31.67453,0.18],
    [1183,"urn:WaterMeter:MC0203J22010600005","2023-05-20T06:15:00",15.699,31.634964,0.183],
    [1184,"urn:WaterMeter:MC0203J22010600005","2023-05-20T06:30:00",15.8,31.679922,0.18],
    [1185,"urn:WaterMeter:MC0203J22010600005","2023-05-20T06:45:00",15.899,31.596174,0.179],
    [1186,"urn:WaterMeter:MC0203J22010600005","2023-05-20T07:00:00",16.2,31.600403,0.187],
    [1187,"urn:WaterMeter:MC0203J22010600005","2023-05-20T07:15:00",16.399,31.610527,0.173],
    [1188,"urn:WaterMeter:MC0203J22010600005","2023-05-20T07:30:00",16.7,31.546522,0.179],
    [1189,"urn:WaterMeter:MC0203J22010600005","2023-05-20T07:45:00",17.2,31.58958,0.18],
    [1190,"urn:WaterMeter:MC0203J22010600005","2023-05-20T08:00:00",17.7,31.51937,0.173],
    [1191,"urn:WaterMeter:MC0203J22010600005","2023-05-20T08:15:00",18.1,31.498423,0.174],
    [1192,"urn:WaterMeter:MC0203J22010600005","2023-05-20T08:30:00",18.7,31.448345,0.173],
    [1193,"urn:WaterMeter:MC0203J22010600005","2023-05-20T08:45:00",19.299,31.352184,0.17],
    [1194,"urn:WaterMeter:MC0203J22010600005","2023-05-20T09:00:00",20,31.36805,0.183],
    [1195,"urn:WaterMeter:MC0203J22010600005","2023-05-20T09:15:00",20.6,31.293186,0.169],
    [1196,"urn:WaterMeter:MC0203J22010600005","2023-05-20T09:30:00",21.299,31.215994,0.171],
    [1197,"urn:WaterMeter:MC0203J22010600005","2023-05-20T09:45:00",21.899,31.198576,0.17],
    [1198,"urn:WaterMeter:MC0203J22010600005","2023-05-20T10:00:00",22.5,31.124487,0.172],
    [1199,"urn:WaterMeter:MC0203J22010600005","2023-05-20T10:15:00",23,31.065527,0.165],
    [1200,"urn:WaterMeter:MC0203J22010600005","2023-05-20T10:30:00",23.6,31.013937,0.168],
    [1201,"urn:WaterMeter:MC0203J22010600005","2023-05-20T10:45:00",23.899,30.9817,0.171],
    [1202,"urn:WaterMeter:MC0203J22010600005","2023-05-20T11:00:00",24.2,30.874292,0.174],
    [1203,"urn:WaterMeter:MC0203J22010600005","2023-05-20T11:15:00",24.1,30.830072,0.171],
    [1204,"urn:WaterMeter:MC0203J22010600005","2023-05-20T11:30:00",24.5,30.770723,0.169],
    [1205,"urn:WaterMeter:MC0203J22010600005","2023-05-20T11:45:00",24.899,30.73073,0.169],
    [1206,"urn:WaterMeter:MC0203J22010600005","2023-05-20T12:00:00",25.299,30.673748,0.163],
    [1207,"urn:WaterMeter:MC0203J22010600005","2023-05-20T12:15:00",24.799,30.598883,0.167],
    [1208,"urn:WaterMeter:MC0203J22010600005","2023-05-20T12:30:00",24.1,30.596556,0.167],
    [1209,"urn:WaterMeter:MC0203J22010600005","2023-05-20T12:45:00",23.5,30.567852,0.166],
    [1210,"urn:WaterMeter:MC0203J22010600005","2023-05-20T13:00:00",22.799,30.565098,0.175],
    [1211,"urn:WaterMeter:MC0203J22010600005","2023-05-20T13:15:00",22,30.610132,0.177],
    [1212,"urn:WaterMeter:MC0203J22010600005","2023-05-20T13:30:00",21.2,30.63298,0.174],
    [1213,"urn:WaterMeter:MC0203J22010600005","2023-05-20T13:45:00",20.7,30.631815,0.178],
    [1214,"urn:WaterMeter:MC0203J22010600005","2023-05-20T14:00:00",20.399,30.651987,0.167],
    [1215,"urn:WaterMeter:MC0203J22010600005","2023-05-20T14:15:00",20.399,30.675688,0.17],
    [1216,"urn:WaterMeter:MC0203J22010600005","2023-05-20T14:30:00",20.5,30.656681,0.177],
    [1217,"urn:WaterMeter:MC0203J22010600005","2023-05-20T14:45:00",20.6,30.65315,0.179],
    [1218,"urn:WaterMeter:MC0203J22010600005","2023-05-20T15:00:00",20.899,30.598495,0.176],
    [1219,"urn:WaterMeter:MC0203J22010600005","2023-05-20T15:15:00",20.799,30.596943,0.17],
    [1220,"urn:WaterMeter:MC0203J22010600005","2023-05-20T15:30:00",20.899,30.612421,0.171],
    [1221,"urn:WaterMeter:MC0203J22010600005","2023-05-20T15:45:00",21.1,30.582203,0.177],
    [1222,"urn:WaterMeter:MC0203J22010600005","2023-05-20T16:00:00",21.299,30.56242,0.174],
    [1223,"urn:WaterMeter:MC0203J22010600005","2023-05-20T16:15:00",21.399,30.527472,0.172],
    [1224,"urn:WaterMeter:MC0203J22010600005","2023-05-20T16:30:00",21.299,30.51238,0.172],
    [1225,"urn:WaterMeter:MC0203J22010600005","2023-05-20T16:45:00",21.1,30.49415,0.173],
    [1226,"urn:WaterMeter:MC0203J22010600005","2023-05-20T17:00:00",20.899,30.50152,0.181],
    [1227,"urn:WaterMeter:MC0203J22010600005","2023-05-20T17:15:00",20.7,30.442171,0.172],
    [1228,"urn:WaterMeter:MC0203J22010600005","2023-05-20T17:30:00",20.399,30.47359,0.18],
    [1229,"urn:WaterMeter:MC0203J22010600005","2023-05-20T17:45:00",20.2,30.431698,0.168],
    [1230,"urn:WaterMeter:MC0203J22010600005","2023-05-20T18:00:00",20,30.469713,0.168],
    [1231,"urn:WaterMeter:MC0203J22010600005","2023-05-20T18:15:00",19.799,30.438253,0.173],
    [1232,"urn:WaterMeter:MC0203J22010600005","2023-05-20T18:30:00",19.6,30.443724,0.17],
    [1233,"urn:WaterMeter:MC0203J22010600005","2023-05-20T18:45:00",19.399,30.434025,0.179],
    [1234,"urn:WaterMeter:MC0203J22010600005","2023-05-20T19:00:00",19.299,30.451094,0.169],
    [1235,"urn:WaterMeter:MC0203J22010600005","2023-05-20T19:15:00",19.1,30.44834,0.171],
    [1236,"urn:WaterMeter:MC0203J22010600005","2023-05-20T19:30:00",19,30.470488,0.175],
    [1237,"urn:WaterMeter:MC0203J22010600005","2023-05-20T19:45:00",18.899,30.43131,0.18],
    [1238,"urn:WaterMeter:MC0203J22010600005","2023-05-20T20:00:00",18.799,30.48868,0.183],
    [1239,"urn:WaterMeter:MC0203J22010600005","2023-05-20T20:15:00",18.7,30.458036,0.173],
    [1240,"urn:WaterMeter:MC0203J22010600005","2023-05-20T20:30:00",18.6,30.453808,0.172],
    [1241,"urn:WaterMeter:MC0203J22010600005","2023-05-20T20:45:00",18.399,30.474367,0.172],
    [1242,"urn:WaterMeter:MC0203J22010600005","2023-05-20T21:00:00",18.299,30.449116,0.182],
    [1243,"urn:WaterMeter:MC0203J22010600005","2023-05-20T21:15:00",18.1,30.440193,0.181],
    [1244,"urn:WaterMeter:MC0203J22010600005","2023-05-20T21:30:00",18,30.47204,0.172],
    [1245,"urn:WaterMeter:MC0203J22010600005","2023-05-20T21:45:00",17.799,30.449503,0.173],
    [1246,"urn:WaterMeter:MC0203J22010600005","2023-05-20T22:00:00",17.7,30.485228,0.172],
    [1247,"urn:WaterMeter:MC0203J22010600005","2023-05-20T22:15:00",17.6,30.481737,0.175],
    [1248,"urn:WaterMeter:MC0203J22010600005","2023-05-20T22:30:00",17.5,30.470488,0.176],
    [1249,"urn:WaterMeter:MC0203J22010600005","2023-05-20T22:45:00",17.399,30.452257,0.169],
    [1250,"urn:WaterMeter:MC0203J22010600005","2023-05-20T23:00:00",17.2,30.48096,0.176],
    [1251,"urn:WaterMeter:MC0203J22010600005","2023-05-20T23:15:00",17.2,30.48868,0.169],
    [1252,"urn:WaterMeter:MC0203J22010600005","2023-05-20T23:30:00",17.1,30.463507,0.171],
    [1253,"urn:WaterMeter:MC0203J22010600005","2023-05-20T23:45:00",17,30.500744,0.174],
    [1254,"urn:WaterMeter:MC0203J22010600005","2023-05-21T00:00:00",16.899,30.460014,0.172],
    [1255,"urn:WaterMeter:MC0203J22010600005","2023-05-21T00:15:00",16.799,30.46622,0.178],
    [1256,"urn:WaterMeter:MC0203J22010600005","2023-05-21T00:30:00",16.7,30.469286,0.18],
    [1257,"urn:WaterMeter:MC0203J22010600005","2023-05-21T00:45:00",16.6,30.499193,0.177],
    [1258,"urn:WaterMeter:MC0203J22010600005","2023-05-21T01:00:00",16.5,30.486004,0.175],
    [1259,"urn:WaterMeter:MC0203J22010600005","2023-05-21T01:15:00",16.5,30.500744,0.171],
    [1260,"urn:WaterMeter:MC0203J22010600005","2023-05-21T01:30:00",16.399,30.465834,0.174],
    [1261,"urn:WaterMeter:MC0203J22010600005","2023-05-21T01:45:00",16.299,30.49221,0.176],
    [1262,"urn:WaterMeter:MC0203J22010600005","2023-05-21T02:00:00",16.2,30.503847,0.174],
    [1263,"urn:WaterMeter:MC0203J22010600005","2023-05-21T02:15:00",16.1,30.489107,0.17],
    [1264,"urn:WaterMeter:MC0203J22010600005","2023-05-21T02:30:00",16,30.466997,0.167],
    [1265,"urn:WaterMeter:MC0203J22010600005","2023-05-21T02:45:00",15.899,30.503847,0.168],
    [1266,"urn:WaterMeter:MC0203J22010600005","2023-05-21T03:00:00",15.8,30.506525,0.168],
    [1267,"urn:WaterMeter:MC0203J22010600005","2023-05-21T03:15:00",15.699,30.49799,0.177],
    [1268,"urn:WaterMeter:MC0203J22010600005","2023-05-21T03:30:04",15.6,30.533329,0.177],
    [1269,"urn:WaterMeter:MC0203J22010600005","2023-05-21T03:45:00",15.5,30.511606,0.174],
    [1270,"urn:WaterMeter:MC0203J22010600005","2023-05-21T04:00:00",15.399,30.525183,0.169],
    [1271,"urn:WaterMeter:MC0203J22010600005","2023-05-21T04:15:00",15.3,30.50928,0.17],
    [1272,"urn:WaterMeter:MC0203J22010600005","2023-05-21T04:30:00",15.199,30.50928,0.164],
    [1273,"urn:WaterMeter:MC0203J22010600005","2023-05-21T04:45:00",15.199,30.527897,0.176],
    [1274,"urn:WaterMeter:MC0203J22010600005","2023-05-21T05:00:00",15.3,30.487516,0.171],
    [1275,"urn:WaterMeter:MC0203J22010600005","2023-05-21T05:15:00",15.199,30.508076,0.17],
    [1276,"urn:WaterMeter:MC0203J22010600005","2023-05-21T05:30:04",15.199,30.487516,0.173],
    [1277,"urn:WaterMeter:MC0203J22010600005","2023-05-21T05:45:00",15.199,30.515833,0.167],
    [1278,"urn:WaterMeter:MC0203J22010600005","2023-05-21T06:00:00",15.3,30.541473,0.177],
    [1279,"urn:WaterMeter:MC0203J22010600005","2023-05-21T06:15:00",15.399,30.493374,0.17],
    [1280,"urn:WaterMeter:MC0203J22010600005","2023-05-21T06:30:00",15.6,30.5073,0.171],
    [1281,"urn:WaterMeter:MC0203J22010600005","2023-05-21T06:45:00",15.8,30.510054,0.175],
    [1282,"urn:WaterMeter:MC0203J22010600005","2023-05-21T07:00:00",16.1,30.458813,0.166],
    [1283,"urn:WaterMeter:MC0203J22010600005","2023-05-21T07:15:00",16.399,30.46851,0.173],
    [1284,"urn:WaterMeter:MC0203J22010600005","2023-05-21T07:30:00",16.799,30.416182,0.173],
    [1285,"urn:WaterMeter:MC0203J22010600005","2023-05-21T07:45:00",17.2,30.402994,0.163],
    [1286,"urn:WaterMeter:MC0203J22010600005","2023-05-21T08:00:00",17.7,30.397564,0.166],
    [1287,"urn:WaterMeter:MC0203J22010600005","2023-05-21T08:15:00",18.2,30.345585,0.162],
    [1288,"urn:WaterMeter:MC0203J22010600005","2023-05-21T08:30:00",18.799,30.304855,0.159],
    [1289,"urn:WaterMeter:MC0203J22010600005","2023-05-21T08:45:00",19.399,30.272272,0.166],
    [1290,"urn:WaterMeter:MC0203J22010600005","2023-05-21T09:00:00",19.6,30.22068,0.176],
    [1291,"urn:WaterMeter:MC0203J22010600005","2023-05-21T09:15:00",19.799,30.182278,0.166],
    [1292,"urn:WaterMeter:MC0203J22010600005","2023-05-21T09:30:00",20.399,30.170254,0.15],
    [1293,"urn:WaterMeter:MC0203J22010600005","2023-05-21T09:45:00",21,30.134567,0.164],
    [1294,"urn:WaterMeter:MC0203J22010600005","2023-05-21T10:00:00",21.799,30.058151,0.155],
    [1295,"urn:WaterMeter:MC0203J22010600005","2023-05-21T10:15:00",22.6,30.011175,0.165],
    [1296,"urn:WaterMeter:MC0203J22010600005","2023-05-21T10:30:00",23.299,29.958073,0.156],
    [1297,"urn:WaterMeter:MC0203J22010600005","2023-05-21T10:45:00",23.7,29.917343,0.155],
    [1298,"urn:WaterMeter:MC0203J22010600005","2023-05-21T11:00:00",23.799,29.835108,0.16],
    [1299,"urn:WaterMeter:MC0203J22010600005","2023-05-21T11:15:00",23.6,29.808304,0.153],
    [1300,"urn:WaterMeter:MC0203J22010600005","2023-05-21T11:30:00",23.299,29.800972,0.163],
    [1301,"urn:WaterMeter:MC0203J22010600005","2023-05-21T11:45:00",23.7,29.781578,0.165],
    [1302,"urn:WaterMeter:MC0203J22010600005","2023-05-21T12:00:00",24.1,29.75012,0.155],
    [1303,"urn:WaterMeter:MC0203J22010600005","2023-05-21T12:15:00",24.299,29.664005,0.157],
    [1304,"urn:WaterMeter:MC0203J22010600005","2023-05-21T12:30:00",24.1,29.617884,0.162],
    [1305,"urn:WaterMeter:MC0203J22010600005","2023-05-21T12:45:00",23.899,29.57793,0.163],
    [1306,"urn:WaterMeter:MC0203J22010600005","2023-05-21T13:00:00",24,29.549225,0.159],
    [1307,"urn:WaterMeter:MC0203J22010600005","2023-05-21T13:15:00",24,29.51738,0.157],
    [1308,"urn:WaterMeter:MC0203J22010600005","2023-05-21T13:30:00",24.1,29.483671,0.166],
    [1309,"urn:WaterMeter:MC0203J22010600005","2023-05-21T13:45:00",24.1,29.472809,0.153],
    [1310,"urn:WaterMeter:MC0203J22010600005","2023-05-21T14:00:00",24,29.42118,0.158],
    [1311,"urn:WaterMeter:MC0203J22010600005","2023-05-21T14:15:00",23.799,29.387472,0.156],
    [1312,"urn:WaterMeter:MC0203J22010600005","2023-05-21T14:30:00",23.7,29.40066,0.159],
    [1313,"urn:WaterMeter:MC0203J22010600005","2023-05-21T14:45:00",23.5,29.342476,0.162],
    [1314,"urn:WaterMeter:MC0203J22010600005","2023-05-21T15:00:00",23.399,29.327347,0.162],
    [1315,"urn:WaterMeter:MC0203J22010600005","2023-05-21T15:15:00",23.1,29.30989,0.165],
    [1316,"urn:WaterMeter:MC0203J22010600005","2023-05-21T15:30:00",22.899,29.283127,0.165],
    [1317,"urn:WaterMeter:MC0203J22010600005","2023-05-21T15:45:00",22.7,29.28429,0.167],
    [1318,"urn:WaterMeter:MC0203J22010600005","2023-05-21T16:00:00",22.6,29.287004,0.16],
    [1319,"urn:WaterMeter:MC0203J22010600005","2023-05-21T16:15:00",22.399,29.244724,0.163],
    [1320,"urn:WaterMeter:MC0203J22010600005","2023-05-21T16:30:00",22.299,29.241621,0.146],
    [1321,"urn:WaterMeter:MC0203J22010600005","2023-05-21T16:45:00",22.2,29.212528,0.16],
    [1322,"urn:WaterMeter:MC0203J22010600005","2023-05-21T17:00:00",22.1,29.226843,0.16],
    [1323,"urn:WaterMeter:MC0203J22010600005","2023-05-21T17:15:00",22,29.188828,0.16],
    [1324,"urn:WaterMeter:MC0203J22010600005","2023-05-21T17:30:00",21.799,29.172575,0.154],
    [1325,"urn:WaterMeter:MC0203J22010600005","2023-05-21T17:45:00",21.6,29.142319,0.165],
    [1326,"urn:WaterMeter:MC0203J22010600005","2023-05-21T18:00:00",21.399,29.181885,0.161],
    [1327,"urn:WaterMeter:MC0203J22010600005","2023-05-21T18:15:00",21.1,29.193134,0.155],
    [1328,"urn:WaterMeter:MC0203J22010600005","2023-05-21T18:30:00",20.899,29.190031,0.159],
    [1329,"urn:WaterMeter:MC0203J22010600005","2023-05-21T18:45:00",20.7,29.178354,0.16],
    [1330,"urn:WaterMeter:MC0203J22010600005","2023-05-21T19:00:00",20.5,29.14581,0.16],
    [1331,"urn:WaterMeter:MC0203J22010600005","2023-05-21T19:15:00",20.299,29.184599,0.17],
    [1332,"urn:WaterMeter:MC0203J22010600005","2023-05-21T19:30:00",20.1,29.131458,0.16],
    [1333,"urn:WaterMeter:MC0203J22010600005","2023-05-21T19:45:00",20,29.2327,0.161],
    [1334,"urn:WaterMeter:MC0203J22010600005","2023-05-21T20:00:00",19.799,29.167532,0.156],
    [1335,"urn:WaterMeter:MC0203J22010600005","2023-05-21T20:15:00",19.7,29.174126,0.17],
    [1336,"urn:WaterMeter:MC0203J22010600005","2023-05-21T20:30:00",19.6,29.179518,0.17],
    [1337,"urn:WaterMeter:MC0203J22010600005","2023-05-21T20:45:00",19.5,29.179945,0.161],
    [1338,"urn:WaterMeter:MC0203J22010600005","2023-05-21T21:00:00",19.299,29.192358,0.155],
    [1339,"urn:WaterMeter:MC0203J22010600005","2023-05-21T21:15:00",19.1,29.167145,0.162],
    [1340,"urn:WaterMeter:MC0203J22010600005","2023-05-21T21:30:00",19,29.214468,0.161],
    [1341,"urn:WaterMeter:MC0203J22010600005","2023-05-21T21:45:00",18.899,29.2327,0.161],
    [1342,"urn:WaterMeter:MC0203J22010600005","2023-05-21T22:00:00",18.799,29.198137,0.167],
    [1343,"urn:WaterMeter:MC0203J22010600005","2023-05-21T22:15:00",18.7,29.181496,0.16],
    [1344,"urn:WaterMeter:MC0203J22010600005","2023-05-21T22:30:00",18.6,29.198137,0.161],
    [1345,"urn:WaterMeter:MC0203J22010600005","2023-05-21T22:45:00",18.6,29.173351,0.159],
    [1346,"urn:WaterMeter:MC0203J22010600005","2023-05-21T23:00:00",18.5,29.173738,0.161],
    [1347,"urn:WaterMeter:MC0203J22010600005","2023-05-21T23:15:00",18.399,29.233088,0.158],
    [1348,"urn:WaterMeter:MC0203J22010600005","2023-05-21T23:30:00",18.399,29.176414,0.161],
    [1349,"urn:WaterMeter:MC0203J22010600005","2023-05-21T23:45:00",18.399,29.15896,0.163],
    [1350,"urn:WaterMeter:MC0203J22010600005","2023-05-22T00:00:00",18.299,29.181885,0.162],
    [1351,"urn:WaterMeter:MC0203J22010600005","2023-05-22T00:15:00",18.299,29.162878,0.161],
    [1352,"urn:WaterMeter:MC0203J22010600005","2023-05-22T00:30:00",18.2,29.174515,0.149],
    [1353,"urn:WaterMeter:MC0203J22010600005","2023-05-22T00:45:00",18.2,29.166368,0.164],
    [1354,"urn:WaterMeter:MC0203J22010600005","2023-05-22T01:00:00",18.1,29.134562,0.162],
    [1355,"urn:WaterMeter:MC0203J22010600005","2023-05-22T01:15:00",18.1,29.181885,0.163],
    [1356,"urn:WaterMeter:MC0203J22010600005","2023-05-22T01:30:00",18,29.199728,0.157],
    [1357,"urn:WaterMeter:MC0203J22010600005","2023-05-22T01:45:00",17.899,29.181108,0.16],
    [1358,"urn:WaterMeter:MC0203J22010600005","2023-05-22T02:00:00",17.899,29.141155,0.168],
    [1359,"urn:WaterMeter:MC0203J22010600005","2023-05-22T02:15:00",17.899,29.129868,0.155],
    [1360,"urn:WaterMeter:MC0203J22010600005","2023-05-22T02:30:00",17.799,29.175678,0.159],
    [1361,"urn:WaterMeter:MC0203J22010600005","2023-05-22T02:45:00",17.799,29.156631,0.164],
    [1362,"urn:WaterMeter:MC0203J22010600005","2023-05-22T03:00:00",17.799,29.185375,0.164],
    [1363,"urn:WaterMeter:MC0203J22010600005","2023-05-22T03:15:00",17.799,29.203218,0.155],
    [1364,"urn:WaterMeter:MC0203J22010600005","2023-05-22T03:30:00",17.7,29.192358,0.159],
    [1365,"urn:WaterMeter:MC0203J22010600005","2023-05-22T03:45:00",17.7,29.184212,0.16],
    [1366,"urn:WaterMeter:MC0203J22010600005","2023-05-22T04:00:00",17.7,29.148138,0.16],
    [1367,"urn:WaterMeter:MC0203J22010600005","2023-05-22T04:15:00",17.7,29.101551,0.16],
    [1368,"urn:WaterMeter:MC0203J22010600005","2023-05-22T04:30:00",17.7,29.179518,0.16],
    [1369,"urn:WaterMeter:MC0203J22010600005","2023-05-22T04:45:00",17.6,29.196974,0.157],
    [1370,"urn:WaterMeter:MC0203J22010600005","2023-05-22T05:00:00",17.6,29.197361,0.157],
    [1371,"urn:WaterMeter:MC0203J22010600005","2023-05-22T05:15:00",17.5,29.189217,0.157],
    [1372,"urn:WaterMeter:MC0203J22010600005","2023-05-22T05:30:00",17.399,29.194685,0.167],
    [1373,"urn:WaterMeter:MC0203J22010600005","2023-05-22T05:45:00",17.399,29.366137,0.159],
    [1374,"urn:WaterMeter:MC0203J22010600005","2023-05-22T06:00:00",17.399,29.3673,0.167],
    [1375,"urn:WaterMeter:MC0203J22010600005","2023-05-22T06:15:00",17.399,29.41734,0.159],
    [1376,"urn:WaterMeter:MC0203J22010600005","2023-05-22T06:30:00",17.399,29.462725,0.167],
    [1377,"urn:WaterMeter:MC0203J22010600005","2023-05-22T06:45:00",17.6,29.461172,0.156],
    [1378,"urn:WaterMeter:MC0203J22010600005","2023-05-22T07:00:00",17.6,29.460745,0.161],
    [1379,"urn:WaterMeter:MC0203J22010600005","2023-05-22T07:15:00",17.7,29.49876,0.158],
    [1380,"urn:WaterMeter:MC0203J22010600005","2023-05-22T07:30:00",17.7,29.441778,0.161],
    [1381,"urn:WaterMeter:MC0203J22010600005","2023-05-22T07:45:00",17.799,29.459581,0.155],
    [1382,"urn:WaterMeter:MC0203J22010600005","2023-05-22T08:00:00",17.799,29.461561,0.159],
    [1383,"urn:WaterMeter:MC0203J22010600005","2023-05-22T08:15:00",17.899,29.465052,0.158],
    [1384,"urn:WaterMeter:MC0203J22010600005","2023-05-22T08:30:00",17.899,29.456518,0.165],
    [1385,"urn:WaterMeter:MC0203J22010600005","2023-05-22T08:45:00",18,29.449884,0.16],
    [1386,"urn:WaterMeter:MC0203J22010600005","2023-05-22T09:00:00",18.1,29.429714,0.157],
    [1387,"urn:WaterMeter:MC0203J22010600005","2023-05-22T09:15:00",18.299,29.455355,0.164],
    [1388,"urn:WaterMeter:MC0203J22010600005","2023-05-22T09:30:00",18.399,29.464664,0.163],
    [1389,"urn:WaterMeter:MC0203J22010600005","2023-05-22T09:45:00",18.5,29.475138,0.162],
    [1390,"urn:WaterMeter:MC0203J22010600005","2023-05-22T10:00:00",18.7,29.50229,0.15],
    [1391,"urn:WaterMeter:MC0203J22010600005","2023-05-22T10:15:00",19.2,29.50768,0.165],
    [1392,"urn:WaterMeter:MC0203J22010600005","2023-05-22T10:30:00",19.7,29.473972,0.159],
    [1393,"urn:WaterMeter:MC0203J22010600005","2023-05-22T10:45:00",20.399,29.437122,0.162],
    [1394,"urn:WaterMeter:MC0203J22010600005","2023-05-22T11:00:00",20.6,29.447557,0.163],
    [1395,"urn:WaterMeter:MC0203J22010600005","2023-05-22T11:15:00",20.799,29.414236,0.164],
    [1396,"urn:WaterMeter:MC0203J22010600005","2023-05-22T11:30:00",20.899,29.406479,0.16],
    [1397,"urn:WaterMeter:MC0203J22010600005","2023-05-22T11:45:00",21,29.332352,0.152],
    [1398,"urn:WaterMeter:MC0203J22010600005","2023-05-22T12:00:00",21.1,29.342825,0.158],
    [1399,"urn:WaterMeter:MC0203J22010600005","2023-05-22T12:15:00",21.2,29.292397,0.157],
    [1400,"urn:WaterMeter:MC0203J22010600005","2023-05-22T12:30:00",21.6,29.292397,0.166],
    [1401,"urn:WaterMeter:MC0203J22010600005","2023-05-22T12:45:00",21.6,29.282738,0.155],
    [1402,"urn:WaterMeter:MC0203J22010600005","2023-05-22T13:00:00",21.399,29.268387,0.162],
    [1403,"urn:WaterMeter:MC0203J22010600005","2023-05-22T13:15:00",21,29.250154,0.162],
    [1404,"urn:WaterMeter:MC0203J22010600005","2023-05-22T13:30:00",20.399,29.721027,0.159],
    [1405,"urn:WaterMeter:MC0203J22010600005","2023-05-22T13:45:00",20.6,41.86544,0.231],
    [1406,"urn:WaterMeter:MC0203J22010600005","2023-05-22T14:00:00",21.1,41.884056,0.228],
    [1407,"urn:WaterMeter:MC0203J22010600005","2023-05-22T14:15:00",20.7,41.941856,0.239],
    [1408,"urn:WaterMeter:MC0203J22010600005","2023-05-22T14:30:00",20.399,40.393745,0.234],
    [1409,"urn:WaterMeter:MC0203J22010600005","2023-05-22T14:45:00",20.399,39.794052,0.225],
    [1410,"urn:WaterMeter:MC0203J22010600005","2023-05-22T15:00:00",20.5,39.760693,0.213],
    [1411,"urn:WaterMeter:MC0203J22010600005","2023-05-22T15:15:00",20.5,39.594246,0.207],
    [1412,"urn:WaterMeter:MC0203J22010600005","2023-05-22T15:30:00",20.6,39.039974,0.217],
    [1413,"urn:WaterMeter:MC0203J22010600005","2023-05-22T15:45:00",20.5,38.736248,0.211],
    [1414,"urn:WaterMeter:MC0203J22010600005","2023-05-22T16:00:00",20.5,38.448776,0.224],
    [1415,"urn:WaterMeter:MC0203J22010600005","2023-05-22T16:15:00",20.399,37.992256,0.207],
    [1416,"urn:WaterMeter:MC0203J22010600005","2023-05-22T16:30:00",20.299,37.42123,0.202],
    [1417,"urn:WaterMeter:MC0203J22010600005","2023-05-22T16:45:00",20.1,36.891396,0.196],
    [1418,"urn:WaterMeter:MC0203J22010600005","2023-05-22T17:00:00",20.1,36.628014,0.201],
    [1419,"urn:WaterMeter:MC0203J22010600005","2023-05-22T17:15:00",20,35.883244,0.183],
    [1420,"urn:WaterMeter:MC0203J22010600005","2023-05-22T17:30:00",20,34.53723,0.187],
    [1421,"urn:WaterMeter:MC0203J22010600005","2023-05-22T17:45:00",19.899,34.278465,0.188],
    [1422,"urn:WaterMeter:MC0203J22010600005","2023-05-22T18:00:00",19.799,34.124855,0.19],
    [1423,"urn:WaterMeter:MC0203J22010600005","2023-05-22T18:15:00",19.6,34.000378,0.184],
    [1424,"urn:WaterMeter:MC0203J22010600005","2023-05-22T18:30:00",19.399,33.862637,0.192],
    [1425,"urn:WaterMeter:MC0203J22010600005","2023-05-22T18:45:00",19.299,33.764534,0.188],
    [1426,"urn:WaterMeter:MC0203J22010600005","2023-05-22T19:00:00",19.1,33.725746,0.189],
    [1427,"urn:WaterMeter:MC0203J22010600005","2023-05-22T19:15:00",19,33.666786,0.184],
    [1428,"urn:WaterMeter:MC0203J22010600005","2023-05-22T19:30:00",18.799,33.619034,0.183],
    [1429,"urn:WaterMeter:MC0203J22010600005","2023-05-22T19:45:00",18.799,33.533695,0.191],
    [1430,"urn:WaterMeter:MC0203J22010600005","2023-05-22T20:00:00",18.7,33.50503,0.188],
    [1431,"urn:WaterMeter:MC0203J22010600005","2023-05-22T20:15:00",18.7,33.465424,0.188],
    [1432,"urn:WaterMeter:MC0203J22010600005","2023-05-22T20:30:00",18.7,33.407627,0.18],
    [1433,"urn:WaterMeter:MC0203J22010600005","2023-05-22T20:45:00",18.7,33.34056,0.175],
    [1434,"urn:WaterMeter:MC0203J22010600005","2023-05-22T21:00:00",18.7,33.341724,0.181],
    [1435,"urn:WaterMeter:MC0203J22010600005","2023-05-22T21:15:00",18.6,33.2432,0.184],
    [1436,"urn:WaterMeter:MC0203J22010600005","2023-05-22T21:30:00",18.6,33.167168,0.178],
    [1437,"urn:WaterMeter:MC0203J22010600005","2023-05-22T21:45:00",18.6,33.178032,0.189],
    [1438,"urn:WaterMeter:MC0203J22010600005","2023-05-22T22:00:00",18.5,33.08804,0.179],
    [1439,"urn:WaterMeter:MC0203J22010600005","2023-05-22T22:15:00",18.5,33.074074,0.181],
    [1440,"urn:WaterMeter:MC0203J22010600005","2023-05-22T22:30:00",18.5,33.03412,0.182],
    [1441,"urn:WaterMeter:MC0203J22010600005","2023-05-22T22:45:00",18.5,33.00231,0.18],
    [1442,"urn:WaterMeter:MC0203J22010600005","2023-05-22T23:00:00",18.5,32.966625,0.184],
    [1443,"urn:WaterMeter:MC0203J22010600005","2023-05-22T23:15:00",18.399,32.929386,0.179],
    [1444,"urn:WaterMeter:MC0203J22010600005","2023-05-22T23:30:00",18.399,32.93016,0.177],
    [1445,"urn:WaterMeter:MC0203J22010600005","2023-05-22T23:45:00",18.399,32.88594,0.18],
    [1446,"urn:WaterMeter:MC0203J22010600005","2023-05-23T00:00:00",18.399,32.852196,0.175],
    [1447,"urn:WaterMeter:MC0203J22010600005","2023-05-23T00:15:00",18.299,32.81263,0.176],
    [1448,"urn:WaterMeter:MC0203J22010600005","2023-05-23T00:30:00",18.299,32.7963,0.187],
    [1449,"urn:WaterMeter:MC0203J22010600005","2023-05-23T00:45:00",18.2,32.79401,0.181],
    [1450,"urn:WaterMeter:MC0203J22010600005","2023-05-23T01:00:00",18.2,32.746258,0.176],
    [1451,"urn:WaterMeter:MC0203J22010600005","2023-05-23T01:15:00",18.2,32.724575,0.182],
    [1452,"urn:WaterMeter:MC0203J22010600005","2023-05-23T01:30:00",18.1,32.66639,0.178],
    [1453,"urn:WaterMeter:MC0203J22010600005","2023-05-23T01:45:00",18.1,32.659756,0.18],
    [1454,"urn:WaterMeter:MC0203J22010600005","2023-05-23T02:00:00",18.1,32.639626,0.18],
    [1455,"urn:WaterMeter:MC0203J22010600005","2023-05-23T02:15:00",18.1,32.62213,0.187],
    [1456,"urn:WaterMeter:MC0203J22010600005","2023-05-23T02:30:00",18.1,32.568638,0.183],
    [1457,"urn:WaterMeter:MC0203J22010600005","2023-05-23T02:45:00",18,32.595406,0.178],
    [1458,"urn:WaterMeter:MC0203J22010600005","2023-05-23T03:00:00",18,32.54339,0.18],
    [1459,"urn:WaterMeter:MC0203J22010600005","2023-05-23T03:15:00",18.1,32.680744,0.188],
    [1460,"urn:WaterMeter:MC0203J22010600005","2023-05-23T03:30:00",18.2,33.212513,0.175],
    [1461,"urn:WaterMeter:MC0203J22010600005","2023-05-23T03:45:00",18.2,34.530598,0.193],
    [1462,"urn:WaterMeter:MC0203J22010600005","2023-05-23T04:00:00",17.299,40.33944,0.229],
    [1463,"urn:WaterMeter:MC0203J22010600005","2023-05-23T04:15:00",17,40.50003,0.228],
    [1464,"urn:WaterMeter:MC0203J22010600005","2023-05-23T04:30:00",16.899,40.626488,0.22],
    [1465,"urn:WaterMeter:MC0203J22010600005","2023-05-23T04:45:00",16.799,40.62218,0.221],
    [1466,"urn:WaterMeter:MC0203J22010600005","2023-05-23T05:00:00",16.7,40.550846,0.223],
    [1467,"urn:WaterMeter:MC0203J22010600005","2023-05-23T05:15:00",16.5,40.74014,0.222],
    [1468,"urn:WaterMeter:MC0203J22010600005","2023-05-23T05:30:00",16.399,40.81229,0.215],
    [1469,"urn:WaterMeter:MC0203J22010600005","2023-05-23T05:45:00",16.399,40.840607,0.221],
    [1470,"urn:WaterMeter:MC0203J22010600005","2023-05-23T06:00:00",16.2,40.905388,0.22],
    [1471,"urn:WaterMeter:MC0203J22010600005","2023-05-23T06:15:00",16.1,40.833588,0.216],
    [1472,"urn:WaterMeter:MC0203J22010600005","2023-05-23T06:30:00",16.2,40.72191,0.219],
    [1473,"urn:WaterMeter:MC0203J22010600005","2023-05-23T06:45:00",16.399,40.714928,0.222],
    [1474,"urn:WaterMeter:MC0203J22010600005","2023-05-23T07:00:00",16.6,40.674973,0.22],
    [1475,"urn:WaterMeter:MC0203J22010600005","2023-05-23T07:15:00",16.799,40.664112,0.228],
    [1476,"urn:WaterMeter:MC0203J22010600005","2023-05-23T07:30:00",17.1,39.522137,0.22],
    [1477,"urn:WaterMeter:MC0203J22010600005","2023-05-23T07:45:00",17.299,38.732372,0.227],
    [1478,"urn:WaterMeter:MC0203J22010600005","2023-05-23T08:00:00",17.399,38.293617,0.217],
    [1479,"urn:WaterMeter:MC0203J22010600005","2023-05-23T08:15:00",17.5,38.042645,0.217],
    [1480,"urn:WaterMeter:MC0203J22010600005","2023-05-23T08:30:00",17.7,37.994972,0.212],
    [1481,"urn:WaterMeter:MC0203J22010600005","2023-05-23T08:45:00",17.7,37.981007,0.216],
    [1482,"urn:WaterMeter:MC0203J22010600005","2023-05-23T09:00:00",17.6,38.00114,0.205],
    [1483,"urn:WaterMeter:MC0203J22010600005","2023-05-23T09:15:00",17.7,38.035313,0.201],
    [1484,"urn:WaterMeter:MC0203J22010600005","2023-05-23T09:30:00",17.799,37.981358,0.205],
    [1485,"urn:WaterMeter:MC0203J22010600005","2023-05-23T09:45:00",18,37.894894,0.197],
    [1486,"urn:WaterMeter:MC0203J22010600005","2023-05-23T10:00:00",18.399,37.634575,0.199],
    [1487,"urn:WaterMeter:MC0203J22010600005","2023-05-23T10:15:00",18.799,37.525227,0.195],
    [1488,"urn:WaterMeter:MC0203J22010600005","2023-05-23T10:30:00",19.1,37.301407,0.19],
    [1489,"urn:WaterMeter:MC0203J22010600005","2023-05-23T10:45:00",19.399,37.11289,0.19],
    [1490,"urn:WaterMeter:MC0203J22010600005","2023-05-23T11:00:00",19.6,36.946827,0.192],
    [1491,"urn:WaterMeter:MC0203J22010600005","2023-05-23T11:15:00",19.899,36.82623,0.197],
    [1492,"urn:WaterMeter:MC0203J22010600005","2023-05-23T11:30:00",20.1,36.553535,0.189],
    [1493,"urn:WaterMeter:MC0203J22010600005","2023-05-23T11:45:00",20,36.46781,0.187],
    [1494,"urn:WaterMeter:MC0203J22010600005","2023-05-23T12:00:00",19.7,36.248997,0.189],
    [1495,"urn:WaterMeter:MC0203J22010600005","2023-05-23T12:15:00",19.6,36.10551,0.192],
    [1496,"urn:WaterMeter:MC0203J22010600005","2023-05-23T12:30:00",19.399,39.418526,0.205],
    [1497,"urn:WaterMeter:MC0203J22010600005","2023-05-23T12:45:00",20.1,40.55511,0.201],
    [1498,"urn:WaterMeter:MC0203J22010600005","2023-05-23T13:00:00",20.1,39.694363,0.202],
    [1499,"urn:WaterMeter:MC0203J22010600005","2023-05-23T13:15:00",20.399,39.261814,0.203],
    [1500,"urn:WaterMeter:MC0203J22010600005","2023-05-23T13:30:00",20.5,38.684658,0.21],
    [1501,"urn:WaterMeter:MC0203J22010600005","2023-05-23T13:45:00",20.7,38.528725,0.212],
    [1502,"urn:WaterMeter:MC0203J22010600005","2023-05-23T14:00:00",20.899,38.216812,0.212],
    [1503,"urn:WaterMeter:MC0203J22010600005","2023-05-23T14:15:00",21.1,38.103584,0.197],
    [1504,"urn:WaterMeter:MC0203J22010600005","2023-05-23T14:30:00",21.1,38.045788,0.196],
    [1505,"urn:WaterMeter:MC0203J22010600005","2023-05-23T14:45:00",21,38.01239,0.197],
    [1506,"urn:WaterMeter:MC0203J22010600005","2023-05-23T15:00:00",20.899,37.98252,0.195],
    [1507,"urn:WaterMeter:MC0203J22010600005","2023-05-23T15:15:00",20.7,38.089233,0.199],
    [1508,"urn:WaterMeter:MC0203J22010600005","2023-05-23T15:30:00",20.5,37.85878,0.202],
    [1509,"urn:WaterMeter:MC0203J22010600005","2023-05-23T15:45:00",20.2,37.74086,0.195],
    [1510,"urn:WaterMeter:MC0203J22010600005","2023-05-23T16:00:00",20,37.74788,0.198],
    [1511,"urn:WaterMeter:MC0203J22010600005","2023-05-23T16:15:00",19.899,37.83477,0.201],
    [1512,"urn:WaterMeter:MC0203J22010600005","2023-05-23T16:30:00",19.799,37.95657,0.195],
    [1513,"urn:WaterMeter:MC0203J22010600005","2023-05-23T16:45:00",19.7,37.9973,0.202],
    [1514,"urn:WaterMeter:MC0203J22010600005","2023-05-23T17:00:00",19.6,38.067123,0.195],
    [1515,"urn:WaterMeter:MC0203J22010600005","2023-05-23T17:15:00",19.6,38.064407,0.197],
    [1516,"urn:WaterMeter:MC0203J22010600005","2023-05-23T17:30:00",19.5,38.033337,0.195],
    [1517,"urn:WaterMeter:MC0203J22010600005","2023-05-23T17:45:00",19.5,38.03415,0.196],
    [1518,"urn:WaterMeter:MC0203J22010600005","2023-05-23T18:00:00",19.399,38.026394,0.197],
    [1519,"urn:WaterMeter:MC0203J22010600005","2023-05-23T18:15:00",19.299,37.940277,0.191],
    [1520,"urn:WaterMeter:MC0203J22010600005","2023-05-23T18:30:00",19.2,37.808353,0.193],
    [1521,"urn:WaterMeter:MC0203J22010600005","2023-05-23T18:45:00",19.1,37.693146,0.198],
    [1522,"urn:WaterMeter:MC0203J22010600005","2023-05-23T19:00:00",19,37.569057,0.19],
    [1523,"urn:WaterMeter:MC0203J22010600005","2023-05-23T19:15:00",18.899,37.58496,0.196],
    [1524,"urn:WaterMeter:MC0203J22010600005","2023-05-23T19:30:00",18.799,37.45579,0.199],
    [1525,"urn:WaterMeter:MC0203J22010600005","2023-05-23T19:45:00",18.799,37.25447,0.192],
    [1526,"urn:WaterMeter:MC0203J22010600005","2023-05-23T20:00:00",18.7,37.0419,0.192],
    [1527,"urn:WaterMeter:MC0203J22010600005","2023-05-23T20:15:00",18.6,36.943764,0.195],
    [1528,"urn:WaterMeter:MC0203J22010600005","2023-05-23T20:30:00",18.5,36.77619,0.185],
    [1529,"urn:WaterMeter:MC0203J22010600005","2023-05-23T20:45:00",18.5,36.554314,0.191],
    [1530,"urn:WaterMeter:MC0203J22010600005","2023-05-23T21:00:00",18.5,35.758728,0.179],
    [1531,"urn:WaterMeter:MC0203J22010600005","2023-05-23T21:15:00",18.399,35.307175,0.177],
    [1532,"urn:WaterMeter:MC0203J22010600005","2023-05-23T21:30:00",18.399,35.1621,0.182],
    [1533,"urn:WaterMeter:MC0203J22010600005","2023-05-23T21:45:00",18.399,35.036808,0.176],
    [1534,"urn:WaterMeter:MC0203J22010600005","2023-05-23T22:00:00",18.399,34.967373,0.181],
    [1535,"urn:WaterMeter:MC0203J22010600005","2023-05-23T22:15:00",18.399,34.874706,0.174],
    [1536,"urn:WaterMeter:MC0203J22010600005","2023-05-23T22:30:00",18.299,34.752518,0.175],
    [1537,"urn:WaterMeter:MC0203J22010600005","2023-05-23T22:45:00",18.299,34.631493,0.18],
    [1538,"urn:WaterMeter:MC0203J22010600005","2023-05-23T23:00:00",18.2,34.55236,0.18],
    [1539,"urn:WaterMeter:MC0203J22010600005","2023-05-23T23:15:00",18.2,34.494175,0.172],
    [1540,"urn:WaterMeter:MC0203J22010600005","2023-05-23T23:30:00",18.1,34.431725,0.174],
    [1541,"urn:WaterMeter:MC0203J22010600005","2023-05-23T23:45:00",18,34.342896,0.179],
    [1542,"urn:WaterMeter:MC0203J22010600005","2023-05-24T00:00:00",18,34.276176,0.183],
    [1543,"urn:WaterMeter:MC0203J22010600005","2023-05-24T00:15:00",17.899,34.230015,0.175],
    [1544,"urn:WaterMeter:MC0203J22010600005","2023-05-24T00:30:00",17.799,34.187733,0.176],
    [1545,"urn:WaterMeter:MC0203J22010600005","2023-05-24T00:45:00",17.7,34.17532,0.172],
    [1546,"urn:WaterMeter:MC0203J22010600005","2023-05-24T01:00:00",17.6,34.05352,0.175],
    [1547,"urn:WaterMeter:MC0203J22010600005","2023-05-24T01:15:00",17.5,34.04227,0.172],
    [1548,"urn:WaterMeter:MC0203J22010600005","2023-05-24T01:30:00",17.5,34.01628,0.175],
    [1549,"urn:WaterMeter:MC0203J22010600005","2023-05-24T01:45:00",17.5,33.918144,0.18],
    [1550,"urn:WaterMeter:MC0203J22010600005","2023-05-24T02:00:00",17.399,33.936375,0.176],
    [1551,"urn:WaterMeter:MC0203J22010600005","2023-05-24T02:15:00",17.399,33.801,0.171],
    [1552,"urn:WaterMeter:MC0203J22010600005","2023-05-24T02:30:00",17.399,33.836296,0.164],
    [1553,"urn:WaterMeter:MC0203J22010600005","2023-05-24T02:45:00",17.299,33.764885,0.17],
    [1554,"urn:WaterMeter:MC0203J22010600005","2023-05-24T03:00:00",17.299,33.72264,0.171],
    [1555,"urn:WaterMeter:MC0203J22010600005","2023-05-24T03:15:00",17.299,33.74902,0.175],
    [1556,"urn:WaterMeter:MC0203J22010600005","2023-05-24T03:30:00",17.299,33.69898,0.178],
    [1557,"urn:WaterMeter:MC0203J22010600005","2023-05-24T03:45:00",17.2,33.616356,0.184],
    [1558,"urn:WaterMeter:MC0203J22010600005","2023-05-24T04:00:00",17.2,33.643124,0.175],
    [1559,"urn:WaterMeter:MC0203J22010600005","2023-05-24T04:15:00",17.1,33.600414,0.167],
    [1560,"urn:WaterMeter:MC0203J22010600005","2023-05-24T04:30:00",17.1,33.56046,0.166],
    [1561,"urn:WaterMeter:MC0203J22010600005","2023-05-24T04:45:00",17.1,33.535286,0.177],
    [1562,"urn:WaterMeter:MC0203J22010600005","2023-05-24T05:00:00",17,33.44642,0.178],
    [1563,"urn:WaterMeter:MC0203J22010600005","2023-05-24T05:15:00",17,33.468567,0.17],
    [1564,"urn:WaterMeter:MC0203J22010600005","2023-05-24T05:30:00",17,33.42745,0.167],
    [1565,"urn:WaterMeter:MC0203J22010600005","2023-05-24T05:45:00",17.1,33.39176,0.166],
    [1566,"urn:WaterMeter:MC0203J22010600005","2023-05-24T06:00:00",17.1,33.345215,0.166],
    [1567,"urn:WaterMeter:MC0203J22010600005","2023-05-24T06:15:00",17.1,33.301384,0.17],
    [1568,"urn:WaterMeter:MC0203J22010600005","2023-05-24T06:30:00",17.1,33.276943,0.177],
    [1569,"urn:WaterMeter:MC0203J22010600005","2023-05-24T06:45:00",17.2,33.25755,0.169],
    [1570,"urn:WaterMeter:MC0203J22010600005","2023-05-24T07:00:00",17.399,33.261,0.178],
    [1571,"urn:WaterMeter:MC0203J22010600005","2023-05-24T07:15:00",17.5,33.169884,0.17],
    [1572,"urn:WaterMeter:MC0203J22010600005","2023-05-24T07:30:00",17.6,33.181522,0.171],
    [1573,"urn:WaterMeter:MC0203J22010600005","2023-05-24T07:45:00",17.6,33.14502,0.165],
    [1574,"urn:WaterMeter:MC0203J22010600005","2023-05-24T08:00:00",17.799,33.13571,0.169],
    [1575,"urn:WaterMeter:MC0203J22010600005","2023-05-24T08:15:00",17.899,33.09075,0.172],
    [1576,"urn:WaterMeter:MC0203J22010600005","2023-05-24T08:30:00",18.1,33.081444,0.164],
    [1577,"urn:WaterMeter:MC0203J22010600005","2023-05-24T08:45:00",18.299,33.03063,0.169],
    [1578,"urn:WaterMeter:MC0203J22010600005","2023-05-24T09:00:00",18.399,32.988735,0.165],
    [1579,"urn:WaterMeter:MC0203J22010600005","2023-05-24T09:15:00",18.7,32.988346,0.163],
    [1580,"urn:WaterMeter:MC0203J22010600005","2023-05-24T09:30:00",19,32.94529,0.168],
    [1581,"urn:WaterMeter:MC0203J22010600005","2023-05-24T09:45:00",19.2,32.902195,0.17],
    [1582,"urn:WaterMeter:MC0203J22010600005","2023-05-24T10:00:00",19.399,32.889046,0.166],
    [1583,"urn:WaterMeter:MC0203J22010600005","2023-05-24T10:15:00",19.6,32.823837,0.164],
    [1584,"urn:WaterMeter:MC0203J22010600005","2023-05-24T10:30:00",19.7,32.78505,0.165],
    [1585,"urn:WaterMeter:MC0203J22010600005","2023-05-24T10:45:00",19.799,32.76259,0.161],
    [1586,"urn:WaterMeter:MC0203J22010600005","2023-05-24T11:00:00",19.799,32.737724,0.164],
    [1587,"urn:WaterMeter:MC0203J22010600005","2023-05-24T11:15:00",19.799,32.664837,0.164],
    [1588,"urn:WaterMeter:MC0203J22010600005","2023-05-24T11:30:00",19.7,32.671043,0.17],
    [1589,"urn:WaterMeter:MC0203J22010600005","2023-05-24T11:45:00",19.7,32.63303,0.172],
    [1590,"urn:WaterMeter:MC0203J22010600005","2023-05-24T12:00:00",19.6,32.576786,0.167],
    [1591,"urn:WaterMeter:MC0203J22010600005","2023-05-24T12:15:00",19.399,32.56317,0.173],
    [1592,"urn:WaterMeter:MC0203J22010600005","2023-05-24T12:30:00",19.299,32.563946,0.17],
    [1593,"urn:WaterMeter:MC0203J22010600005","2023-05-24T12:45:00",19.2,32.65937,0.17],
    [1594,"urn:WaterMeter:MC0203J22010600005","2023-05-24T13:00:00",19.299,32.704018,0.165],
    [1595,"urn:WaterMeter:MC0203J22010600005","2023-05-24T13:15:00",19.399,32.7975,0.166],
    [1596,"urn:WaterMeter:MC0203J22010600005","2023-05-24T13:30:00",19.7,33.181133,0.188],
    [1597,"urn:WaterMeter:MC0203J22010600005","2023-05-24T13:45:00",20.1,35.91389,0.203],
    [1598,"urn:WaterMeter:MC0203J22010600005","2023-05-24T14:00:00",20.299,36.651287,0.201],
    [1599,"urn:WaterMeter:MC0203J22010600005","2023-05-24T14:15:00",20.7,36.858387,0.195],
    [1600,"urn:WaterMeter:MC0203J22010600005","2023-05-24T14:30:00",21.1,36.98484,0.198],
    [1601,"urn:WaterMeter:MC0203J22010600005","2023-05-24T14:45:00",21.399,37.057808,0.194],
    [1602,"urn:WaterMeter:MC0203J22010600005","2023-05-24T15:00:00",21.399,37.114826,0.195],
    [1603,"urn:WaterMeter:MC0203J22010600005","2023-05-24T15:15:00",21.399,37.09427,0.198],
    [1604,"urn:WaterMeter:MC0203J22010600005","2023-05-24T15:30:00",21.299,37.069443,0.194],
    [1605,"urn:WaterMeter:MC0203J22010600005","2023-05-24T15:45:00",21.1,37.10936,0.193],
    [1606,"urn:WaterMeter:MC0203J22010600005","2023-05-24T16:00:00",21,37.029877,0.193],
    [1607,"urn:WaterMeter:MC0203J22010600005","2023-05-24T16:15:00",21.1,37.002335,0.2],
    [1608,"urn:WaterMeter:MC0203J22010600005","2023-05-24T16:30:00",21.2,36.98721,0.193],
    [1609,"urn:WaterMeter:MC0203J22010600005","2023-05-24T16:45:00",21,36.90226,0.204],
    [1610,"urn:WaterMeter:MC0203J22010600005","2023-05-24T17:00:00",20.6,36.93911,0.195],
    [1611,"urn:WaterMeter:MC0203J22010600005","2023-05-24T17:15:00",20.399,36.927044,0.192],
    [1612,"urn:WaterMeter:MC0203J22010600005","2023-05-24T17:30:00",20.399,36.790154,0.203],
    [1613,"urn:WaterMeter:MC0203J22010600005","2023-05-24T17:45:00",20.299,36.72964,0.198],
    [1614,"urn:WaterMeter:MC0203J22010600005","2023-05-24T18:00:00",20.2,36.586082,0.192],
    [1615,"urn:WaterMeter:MC0203J22010600005","2023-05-24T18:15:00",20.1,36.323124,0.195],
    [1616,"urn:WaterMeter:MC0203J22010600005","2023-05-24T18:30:00",20,35.53297,0.194],
    [1617,"urn:WaterMeter:MC0203J22010600005","2023-05-24T18:45:00",19.799,35.214893,0.192],
    [1618,"urn:WaterMeter:MC0203J22010600005","2023-05-24T19:00:00",19.7,34.99069,0.184],
    [1619,"urn:WaterMeter:MC0203J22010600005","2023-05-24T19:15:00",19.5,34.825443,0.179],
    [1620,"urn:WaterMeter:MC0203J22010600005","2023-05-24T19:30:00",19.299,34.743557,0.183],
    [1621,"urn:WaterMeter:MC0203J22010600005","2023-05-24T19:45:00",19.2,34.65822,0.186],
    [1622,"urn:WaterMeter:MC0203J22010600005","2023-05-24T20:00:00",19.1,34.571327,0.186],
    [1623,"urn:WaterMeter:MC0203J22010600005","2023-05-24T20:15:00",19,34.470863,0.184],
    [1624,"urn:WaterMeter:MC0203J22010600005","2023-05-24T20:30:00",18.899,34.372375,0.186],
    [1625,"urn:WaterMeter:MC0203J22010600005","2023-05-24T20:45:00",18.799,34.339016,0.185],
    [1626,"urn:WaterMeter:MC0203J22010600005","2023-05-24T21:00:00",18.7,34.262985,0.18],
    [1627,"urn:WaterMeter:MC0203J22010600005","2023-05-24T21:15:00",18.6,34.237774,0.183],
    [1628,"urn:WaterMeter:MC0203J22010600005","2023-05-24T21:30:00",18.5,34.20713,0.181],
    [1629,"urn:WaterMeter:MC0203J22010600005","2023-05-24T21:45:00",18.399,34.095764,0.177],
    [1630,"urn:WaterMeter:MC0203J22010600005","2023-05-24T22:00:00",18.299,34.10123,0.18],
    [1631,"urn:WaterMeter:MC0203J22010600005","2023-05-24T22:15:04",18.2,34.01279,0.181],
    [1632,"urn:WaterMeter:MC0203J22010600005","2023-05-24T22:30:04",18.1,34.01279,0.183],
    [1633,"urn:WaterMeter:MC0203J22010600005","2023-05-24T22:45:04",18.1,33.984085,0.183],
    [1634,"urn:WaterMeter:MC0203J22010600005","2023-05-24T23:00:00",18,33.922024,0.187],
    [1635,"urn:WaterMeter:MC0203J22010600005","2023-05-24T23:15:00",17.899,33.920044,0.184],
    [1636,"urn:WaterMeter:MC0203J22010600005","2023-05-24T23:30:04",17.799,33.89681,0.181],
    [1637,"urn:WaterMeter:MC0203J22010600005","2023-05-24T23:45:00",17.7,33.80798,0.177],
    [1638,"urn:WaterMeter:MC0203J22010600005","2023-05-25T00:00:00",17.6,33.821167,0.178],
    [1639,"urn:WaterMeter:MC0203J22010600005","2023-05-25T00:15:00",17.5,33.774582,0.182],
    [1640,"urn:WaterMeter:MC0203J22010600005","2023-05-25T00:30:04",17.399,33.732338,0.182],
    [1641,"urn:WaterMeter:MC0203J22010600005","2023-05-25T00:45:00",17.299,33.71954,0.172],
    [1642,"urn:WaterMeter:MC0203J22010600005","2023-05-25T01:00:05",17.2,33.69316,0.184],
    [1643,"urn:WaterMeter:MC0203J22010600005","2023-05-25T01:15:00",17.1,33.628384,0.183],
    [1644,"urn:WaterMeter:MC0203J22010600005","2023-05-25T01:30:05",17,33.6086,0.183],
    [1645,"urn:WaterMeter:MC0203J22010600005","2023-05-25T01:45:00",16.899,33.564766,0.187],
    [1646,"urn:WaterMeter:MC0203J22010600005","2023-05-25T02:00:05",16.799,33.53102,0.181],
    [1647,"urn:WaterMeter:MC0203J22010600005","2023-05-25T02:15:00",16.7,33.550415,0.175],
    [1648,"urn:WaterMeter:MC0203J22010600005","2023-05-25T02:30:04",16.7,33.504215,0.18],
    [1649,"urn:WaterMeter:MC0203J22010600005","2023-05-25T02:45:04",16.6,33.4771,0.179],
    [1650,"urn:WaterMeter:MC0203J22010600005","2023-05-25T03:00:04",16.5,33.46663,0.177],
    [1651,"urn:WaterMeter:MC0203J22010600005","2023-05-25T03:15:00",16.399,33.476715,0.177],
    [1652,"urn:WaterMeter:MC0203J22010600005","2023-05-25T03:30:05",16.299,33.452274,0.173],
    [1653,"urn:WaterMeter:MC0203J22010600005","2023-05-25T03:45:00",16.2,33.392925,0.182],
    [1654,"urn:WaterMeter:MC0203J22010600005","2023-05-25T04:00:04",16.2,33.378147,0.177],
    [1655,"urn:WaterMeter:MC0203J22010600005","2023-05-25T04:15:04",16.1,33.320778,0.185],
    [1656,"urn:WaterMeter:MC0203J22010600005","2023-05-25T04:30:04",16.1,33.318798,0.181],
    [1657,"urn:WaterMeter:MC0203J22010600005","2023-05-25T04:45:00",16,33.310654,0.175],
    [1658,"urn:WaterMeter:MC0203J22010600005","2023-05-25T05:00:05",15.899,33.276943,0.173],
    [1659,"urn:WaterMeter:MC0203J22010600005","2023-05-25T05:15:00",15.899,33.241997,0.174],
    [1660,"urn:WaterMeter:MC0203J22010600005","2023-05-25T05:30:05",15.899,33.23505,0.183],
    [1661,"urn:WaterMeter:MC0203J22010600005","2023-05-25T05:45:00",15.899,33.189667,0.176],
    [1662,"urn:WaterMeter:MC0203J22010600005","2023-05-25T06:00:05",16,33.247852,0.18],
    [1663,"urn:WaterMeter:MC0203J22010600005","2023-05-25T06:15:00",16,33.1982,0.177],
    [1664,"urn:WaterMeter:MC0203J22010600005","2023-05-25T06:30:04",16.1,33.14351,0.176],
    [1665,"urn:WaterMeter:MC0203J22010600005","2023-05-25T06:45:00",16.299,33.143894,0.177],
    [1666,"urn:WaterMeter:MC0203J22010600005","2023-05-25T07:00:00",16.5,33.08222,0.176],
    [1667,"urn:WaterMeter:MC0203J22010600005","2023-05-25T07:15:00",16.7,33.078728,0.173],
    [1668,"urn:WaterMeter:MC0203J22010600005","2023-05-25T07:30:00",17.1,33.00425,0.177],
    [1669,"urn:WaterMeter:MC0203J22010600005","2023-05-25T07:45:00",17.5,32.99684,0.175],
    [1670,"urn:WaterMeter:MC0203J22010600005","2023-05-25T08:00:00",17.899,32.972443,0.165],
    [1671,"urn:WaterMeter:MC0203J22010600005","2023-05-25T08:15:00",18.299,32.907665,0.176],
    [1672,"urn:WaterMeter:MC0203J22010600005","2023-05-25T08:30:00",18.899,32.88943,0.165],
    [1673,"urn:WaterMeter:MC0203J22010600005","2023-05-25T08:45:00",19.6,32.791683,0.168],
    [1674,"urn:WaterMeter:MC0203J22010600005","2023-05-25T09:00:00",20.299,32.798664,0.166],
    [1675,"urn:WaterMeter:MC0203J22010600005","2023-05-25T09:15:00",20.899,32.745872,0.17],
    [1676,"urn:WaterMeter:MC0203J22010600005","2023-05-25T09:30:00",21.6,32.610493,0.168],
    [1677,"urn:WaterMeter:MC0203J22010600005","2023-05-25T09:45:00",22.299,32.574844,0.164],
    [1678,"urn:WaterMeter:MC0203J22010600005","2023-05-25T10:00:00",22.799,32.52558,0.165],
    [1679,"urn:WaterMeter:MC0203J22010600005","2023-05-25T10:15:00",23.399,32.431324,0.158],
    [1680,"urn:WaterMeter:MC0203J22010600005","2023-05-25T10:30:00",24,32.411926,0.165],
    [1681,"urn:WaterMeter:MC0203J22010600005","2023-05-25T10:45:00",24.5,32.298275,0.167],
    [1682,"urn:WaterMeter:MC0203J22010600005","2023-05-25T11:00:00",25.1,32.280777,0.165],
    [1683,"urn:WaterMeter:MC0203J22010600005","2023-05-25T11:15:00",25.6,32.179577,0.159],
    [1684,"urn:WaterMeter:MC0203J22010600005","2023-05-25T11:30:00",25.899,32.113243,0.162],
    [1685,"urn:WaterMeter:MC0203J22010600005","2023-05-25T11:45:00",26.2,32.03799,0.16],
    [1686,"urn:WaterMeter:MC0203J22010600005","2023-05-25T12:00:00",26.5,31.96662,0.163],
    [1687,"urn:WaterMeter:MC0203J22010600005","2023-05-25T12:15:00",26.5,31.901064,0.173],
    [1688,"urn:WaterMeter:MC0203J22010600005","2023-05-25T12:30:00",26.6,31.868868,0.162],
    [1689,"urn:WaterMeter:MC0203J22010600005","2023-05-25T12:45:00",26.6,31.799433,0.169],
    [1690,"urn:WaterMeter:MC0203J22010600005","2023-05-25T13:00:00",26.299,31.72418,0.167],
    [1691,"urn:WaterMeter:MC0203J22010600005","2023-05-25T13:15:00",25.799,31.712156,0.168],
    [1692,"urn:WaterMeter:MC0203J22010600005","2023-05-25T13:30:00",25.299,31.667936,0.17],
    [1693,"urn:WaterMeter:MC0203J22010600005","2023-05-25T13:45:00",25,31.679146,0.171],
    [1694,"urn:WaterMeter:MC0203J22010600005","2023-05-25T14:00:00",24.899,31.62449,0.165],
    [1695,"urn:WaterMeter:MC0203J22010600005","2023-05-25T14:15:00",24.799,31.600403,0.166],
    [1696,"urn:WaterMeter:MC0203J22010600005","2023-05-25T14:30:00",24.6,31.583723,0.168],
    [1697,"urn:WaterMeter:MC0203J22010600005","2023-05-25T14:45:00",24.399,31.579882,0.167],
    [1698,"urn:WaterMeter:MC0203J22010600005","2023-05-25T15:00:00",24.399,31.549625,0.17],
    [1699,"urn:WaterMeter:MC0203J22010600005","2023-05-25T15:15:00",24.299,31.52674,0.166],
    [1700,"urn:WaterMeter:MC0203J22010600005","2023-05-25T15:30:00",24,31.500362,0.162],
    [1701,"urn:WaterMeter:MC0203J22010600005","2023-05-25T15:45:00",23.799,31.451876,0.17],
    [1702,"urn:WaterMeter:MC0203J22010600005","2023-05-25T16:00:00",23.6,31.427786,0.162],
    [1703,"urn:WaterMeter:MC0203J22010600005","2023-05-25T16:15:00",23.2,31.425499,0.17],
    [1704,"urn:WaterMeter:MC0203J22010600005","2023-05-25T16:30:00",22.799,31.419641,0.168],
    [1705,"urn:WaterMeter:MC0203J22010600005","2023-05-25T16:45:00",22.6,31.41231,0.161],
    [1706,"urn:WaterMeter:MC0203J22010600005","2023-05-25T17:00:00",22.399,31.432093,0.173],
    [1707,"urn:WaterMeter:MC0203J22010600005","2023-05-25T17:15:00",22.299,31.40494,0.167],
    [1708,"urn:WaterMeter:MC0203J22010600005","2023-05-25T17:30:00",22.299,31.389772,0.168],
    [1709,"urn:WaterMeter:MC0203J22010600005","2023-05-25T17:45:00",22.2,31.371967,0.175],
    [1710,"urn:WaterMeter:MC0203J22010600005","2023-05-25T18:00:00",22.1,31.372356,0.172],
    [1711,"urn:WaterMeter:MC0203J22010600005","2023-05-25T18:15:00",21.7,31.371153,0.173],
    [1712,"urn:WaterMeter:MC0203J22010600005","2023-05-25T18:30:00",21.399,31.38244,0.178],
    [1713,"urn:WaterMeter:MC0203J22010600005","2023-05-25T18:45:00",21,31.34982,0.168],
    [1714,"urn:WaterMeter:MC0203J22010600005","2023-05-25T19:00:00",20.799,31.37507,0.17],
    [1715,"urn:WaterMeter:MC0203J22010600005","2023-05-25T19:15:00",20.6,31.409168,0.169],
    [1716,"urn:WaterMeter:MC0203J22010600005","2023-05-25T19:30:00",20.399,31.361883,0.178],
    [1717,"urn:WaterMeter:MC0203J22010600005","2023-05-25T19:45:00",20.299,31.376234,0.169],
    [1718,"urn:WaterMeter:MC0203J22010600005","2023-05-25T20:00:00",20.299,31.367662,0.177],
    [1719,"urn:WaterMeter:MC0203J22010600005","2023-05-25T20:15:00",20.2,31.39563,0.17],
    [1720,"urn:WaterMeter:MC0203J22010600005","2023-05-25T20:30:00",20.2,31.381277,0.169],
    [1721,"urn:WaterMeter:MC0203J22010600005","2023-05-25T20:45:00",20.1,31.371153,0.17],
    [1722,"urn:WaterMeter:MC0203J22010600005","2023-05-25T21:00:00",20,31.35839,0.166],
    [1723,"urn:WaterMeter:MC0203J22010600005","2023-05-25T21:15:00",20,31.41774,0.174],
    [1724,"urn:WaterMeter:MC0203J22010600005","2023-05-25T21:30:04",19.899,31.3793,0.172],
    [1725,"urn:WaterMeter:MC0203J22010600005","2023-05-25T21:45:00",19.799,31.361883,0.166],
    [1726,"urn:WaterMeter:MC0203J22010600005","2023-05-25T22:00:00",19.7,31.30874,0.169],
    [1727,"urn:WaterMeter:MC0203J22010600005","2023-05-25T22:15:00",19.7,31.36999,0.171],
    [1728,"urn:WaterMeter:MC0203J22010600005","2023-05-25T22:30:00",19.6,31.349043,0.168],
    [1729,"urn:WaterMeter:MC0203J22010600005","2023-05-25T22:45:00",19.6,31.372744,0.175],
    [1730,"urn:WaterMeter:MC0203J22010600005","2023-05-25T23:00:00",19.5,31.320765,0.173],
    [1731,"urn:WaterMeter:MC0203J22010600005","2023-05-25T23:15:00",19.399,31.34943,0.168],
    [1732,"urn:WaterMeter:MC0203J22010600005","2023-05-25T23:30:00",19.399,31.381666,0.166],
    [1733,"urn:WaterMeter:MC0203J22010600005","2023-05-25T23:45:00",19.399,31.35137,0.17],
    [1734,"urn:WaterMeter:MC0203J22010600005","2023-05-26T00:00:00",19.399,31.343264,0.17],
    [1735,"urn:WaterMeter:MC0203J22010600005","2023-05-26T00:15:00",19.399,31.31999,0.168],
    [1736,"urn:WaterMeter:MC0203J22010600005","2023-05-26T00:30:00",19.299,31.333954,0.165],
    [1737,"urn:WaterMeter:MC0203J22010600005","2023-05-26T00:45:00",19.299,31.298655,0.169],
    [1738,"urn:WaterMeter:MC0203J22010600005","2023-05-26T01:00:00",19.299,31.282713,0.165],
    [1739,"urn:WaterMeter:MC0203J22010600005","2023-05-26T01:15:00",19.299,31.337444,0.164],
    [1740,"urn:WaterMeter:MC0203J22010600005","2023-05-26T01:30:00",19.2,31.345203,0.171],
    [1741,"urn:WaterMeter:MC0203J22010600005","2023-05-26T01:45:00",19.2,31.320765,0.169],
    [1742,"urn:WaterMeter:MC0203J22010600005","2023-05-26T02:00:00",19.2,31.346754,0.165],
    [1743,"urn:WaterMeter:MC0203J22010600005","2023-05-26T02:15:00",19.1,31.296328,0.17],
    [1744,"urn:WaterMeter:MC0203J22010600005","2023-05-26T02:30:00",18.899,31.245901,0.173],
    [1745,"urn:WaterMeter:MC0203J22010600005","2023-05-26T02:45:00",18.899,31.31064,0.167],
    [1746,"urn:WaterMeter:MC0203J22010600005","2023-05-26T03:00:00",18.899,31.257925,0.166],
    [1747,"urn:WaterMeter:MC0203J22010600005","2023-05-26T03:15:00",18.899,31.295551,0.17],
    [1748,"urn:WaterMeter:MC0203J22010600005","2023-05-26T03:30:00",19,31.502302,0.177],
    [1749,"urn:WaterMeter:MC0203J22010600005","2023-05-26T03:45:00",19,31.919294,0.177],
    [1750,"urn:WaterMeter:MC0203J22010600005","2023-05-26T04:00:00",18.899,32.724186,0.181],
    [1751,"urn:WaterMeter:MC0203J22010600005","2023-05-26T04:15:00",18.899,33.479427,0.194],
    [1752,"urn:WaterMeter:MC0203J22010600005","2023-05-26T04:30:00",19,34.10705,0.196],
    [1753,"urn:WaterMeter:MC0203J22010600005","2023-05-26T04:45:00",19,34.55077,0.204],
    [1754,"urn:WaterMeter:MC0203J22010600005","2023-05-26T05:00:00",18.899,34.83902,0.201],
    [1755,"urn:WaterMeter:MC0203J22010600005","2023-05-26T05:15:00",18.899,34.237385,0.198],
    [1756,"urn:WaterMeter:MC0203J22010600005","2023-05-26T05:30:00",18.899,33.89293,0.188],
    [1757,"urn:WaterMeter:MC0203J22010600005","2023-05-26T05:45:00",18.799,33.739323,0.189],
    [1758,"urn:WaterMeter:MC0203J22010600005","2023-05-26T06:00:00",18.799,33.681137,0.196],
    [1759,"urn:WaterMeter:MC0203J22010600005","2023-05-26T06:15:00",18.799,33.574852,0.195],
    [1760,"urn:WaterMeter:MC0203J22010600005","2023-05-26T06:30:00",18.799,33.540676,0.184],
    [1761,"urn:WaterMeter:MC0203J22010600005","2023-05-26T06:45:00",18.899,33.517056,0.192],
    [1762,"urn:WaterMeter:MC0203J22010600005","2023-05-26T07:00:00",19.1,33.5143,0.193],
    [1763,"urn:WaterMeter:MC0203J22010600005","2023-05-26T07:15:00",19.2,33.406853,0.178],
    [1764,"urn:WaterMeter:MC0203J22010600005","2023-05-26T07:30:00",19.299,33.401848,0.185],
    [1765,"urn:WaterMeter:MC0203J22010600005","2023-05-26T07:45:00",19.5,33.299404,0.187],
    [1766,"urn:WaterMeter:MC0203J22010600005","2023-05-26T08:00:00",19.799,33.29285,0.191],
    [1767,"urn:WaterMeter:MC0203J22010600005","2023-05-26T08:15:00",19.799,33.245914,0.188],
    [1768,"urn:WaterMeter:MC0203J22010600005","2023-05-26T08:30:00",19.799,33.245525,0.184],
    [1769,"urn:WaterMeter:MC0203J22010600005","2023-05-26T08:45:00",20.299,33.185402,0.18],
    [1770,"urn:WaterMeter:MC0203J22010600005","2023-05-26T09:00:00",20.6,33.141956,0.184],
    [1771,"urn:WaterMeter:MC0203J22010600005","2023-05-26T09:15:00",20.7,33.096146,0.18],
    [1772,"urn:WaterMeter:MC0203J22010600005","2023-05-26T09:30:00",21.1,33.044594,0.19],
    [1773,"urn:WaterMeter:MC0203J22010600005","2023-05-26T09:45:00",21.399,32.98602,0.175],
    [1774,"urn:WaterMeter:MC0203J22010600005","2023-05-26T10:00:00",21.799,32.914646,0.172],
    [1775,"urn:WaterMeter:MC0203J22010600005","2023-05-26T10:15:00",22.399,32.891373,0.177],
    [1776,"urn:WaterMeter:MC0203J22010600005","2023-05-26T10:30:00",22.7,32.78505,0.174],
    [1777,"urn:WaterMeter:MC0203J22010600005","2023-05-26T10:45:00",23.2,32.78315,0.181],
    [1778,"urn:WaterMeter:MC0203J22010600005","2023-05-26T11:00:00",23.2,32.68691,0.177],
    [1779,"urn:WaterMeter:MC0203J22010600005","2023-05-26T11:15:00",23.299,32.64467,0.178],
    [1780,"urn:WaterMeter:MC0203J22010600005","2023-05-26T11:30:00",23.299,32.6295,0.178],
    [1781,"urn:WaterMeter:MC0203J22010600005","2023-05-26T11:45:00",23.399,32.563946,0.178],
    [1782,"urn:WaterMeter:MC0203J22010600005","2023-05-26T12:00:00",23.5,32.545364,0.183],
    [1783,"urn:WaterMeter:MC0203J22010600005","2023-05-26T12:15:00",23.5,32.498043,0.17],
    [1784,"urn:WaterMeter:MC0203J22010600005","2023-05-26T12:30:00",23.799,32.464294,0.176],
    [1785,"urn:WaterMeter:MC0203J22010600005","2023-05-26T12:45:00",24,32.404945,0.18],
    [1786,"urn:WaterMeter:MC0203J22010600005","2023-05-26T13:00:00",24.1,32.369606,0.185],
    [1787,"urn:WaterMeter:MC0203J22010600005","2023-05-26T13:15:00",24.1,32.316505,0.176],
    [1788,"urn:WaterMeter:MC0203J22010600005","2023-05-26T13:30:00",24.1,32.26879,0.177],
    [1789,"urn:WaterMeter:MC0203J22010600005","2023-05-26T13:45:00",24.1,32.20983,0.179],
    [1790,"urn:WaterMeter:MC0203J22010600005","2023-05-26T14:00:00",24.299,32.130314,0.174],
    [1791,"urn:WaterMeter:MC0203J22010600005","2023-05-26T14:15:00",24.299,32.094627,0.177],
    [1792,"urn:WaterMeter:MC0203J22010600005","2023-05-26T14:30:00",24.2,32.08644,0.181],
    [1793,"urn:WaterMeter:MC0203J22010600005","2023-05-26T14:45:00",24.2,32.048428,0.171],
    [1794,"urn:WaterMeter:MC0203J22010600005","2023-05-26T15:00:00",24,31.974764,0.171],
    [1795,"urn:WaterMeter:MC0203J22010600005","2023-05-26T15:15:00",23.899,31.98869,0.182],
    [1796,"urn:WaterMeter:MC0203J22010600005","2023-05-26T15:30:00",23.799,31.949163,0.181],
    [1797,"urn:WaterMeter:MC0203J22010600005","2023-05-26T15:45:00",23.6,31.92589,0.177],
    [1798,"urn:WaterMeter:MC0203J22010600005","2023-05-26T16:00:00",23.5,31.898737,0.167],
    [1799,"urn:WaterMeter:MC0203J22010600005","2023-05-26T16:15:00",23.399,31.868092,0.183],
    [1800,"urn:WaterMeter:MC0203J22010600005","2023-05-26T16:30:00",23.299,31.836634,0.179],
    [1801,"urn:WaterMeter:MC0203J22010600005","2023-05-26T16:45:00",23.2,31.787758,0.181],
    [1802,"urn:WaterMeter:MC0203J22010600005","2023-05-26T17:00:00",23.1,31.810295,0.176],
    [1803,"urn:WaterMeter:MC0203J22010600005","2023-05-26T17:15:00",22.899,31.753662,0.177],
    [1804,"urn:WaterMeter:MC0203J22010600005","2023-05-26T17:30:00",22.799,31.719488,0.178],
    [1805,"urn:WaterMeter:MC0203J22010600005","2023-05-26T17:45:00",22.6,31.77422,0.176],
    [1806,"urn:WaterMeter:MC0203J22010600005","2023-05-26T18:00:00",22.399,31.747066,0.171],
    [1807,"urn:WaterMeter:MC0203J22010600005","2023-05-26T18:15:00",22.299,31.691172,0.177],
    [1808,"urn:WaterMeter:MC0203J22010600005","2023-05-26T18:30:00",22.1,31.681086,0.176],
    [1809,"urn:WaterMeter:MC0203J22010600005","2023-05-26T18:45:00",21.899,31.664057,0.18],
    [1810,"urn:WaterMeter:MC0203J22010600005","2023-05-26T19:00:00",21.7,31.66169,0.179],
    [1811,"urn:WaterMeter:MC0203J22010600005","2023-05-26T19:15:00",21.5,31.664057,0.179],
    [1812,"urn:WaterMeter:MC0203J22010600005","2023-05-26T19:30:00",21.399,31.697765,0.18],
    [1813,"urn:WaterMeter:MC0203J22010600005","2023-05-26T19:45:00",21.2,31.688494,0.176],
    [1814,"urn:WaterMeter:MC0203J22010600005","2023-05-26T20:00:00",21,31.673754,0.172],
    [1815,"urn:WaterMeter:MC0203J22010600005","2023-05-26T20:15:00",20.899,31.67837,0.172],
    [1816,"urn:WaterMeter:MC0203J22010600005","2023-05-26T20:30:00",20.799,31.66169,0.174],
    [1817,"urn:WaterMeter:MC0203J22010600005","2023-05-26T20:45:00",20.7,31.637291,0.183],
    [1818,"urn:WaterMeter:MC0203J22010600005","2023-05-26T21:00:00",20.5,31.669487,0.176],
    [1819,"urn:WaterMeter:MC0203J22010600005","2023-05-26T21:15:00",20.399,31.676857,0.169],
    [1820,"urn:WaterMeter:MC0203J22010600005","2023-05-26T21:30:00",20.299,31.63031,0.188],
    [1821,"urn:WaterMeter:MC0203J22010600005","2023-05-26T21:45:00",20.2,31.614405,0.171],
    [1822,"urn:WaterMeter:MC0203J22010600005","2023-05-26T22:00:00",20.1,31.670612,0.181],
    [1823,"urn:WaterMeter:MC0203J22010600005","2023-05-26T22:15:00",20,31.630697,0.172],
    [1824,"urn:WaterMeter:MC0203J22010600005","2023-05-26T22:30:00",19.799,31.639193,0.175],
    [1825,"urn:WaterMeter:MC0203J22010600005","2023-05-26T22:45:00",19.7,31.658976,0.181],
    [1826,"urn:WaterMeter:MC0203J22010600005","2023-05-26T23:00:00",19.6,31.655523,0.171],
    [1827,"urn:WaterMeter:MC0203J22010600005","2023-05-26T23:15:00",19.5,31.647764,0.175],
    [1828,"urn:WaterMeter:MC0203J22010600005","2023-05-26T23:30:00",19.399,31.667547,0.177],
    [1829,"urn:WaterMeter:MC0203J22010600005","2023-05-26T23:45:00",19.299,31.610138,0.171],
    [1830,"urn:WaterMeter:MC0203J22010600005","2023-05-27T00:00:00",19.2,31.583334,0.173],
    [1831,"urn:WaterMeter:MC0203J22010600005","2023-05-27T00:15:00",19.2,31.629145,0.171],
    [1832,"urn:WaterMeter:MC0203J22010600005","2023-05-27T00:30:00",19.1,31.634964,0.176],
    [1833,"urn:WaterMeter:MC0203J22010600005","2023-05-27T00:45:00",19,31.588028,0.171],
    [1834,"urn:WaterMeter:MC0203J22010600005","2023-05-27T01:00:00",19,31.616734,0.179],
    [1835,"urn:WaterMeter:MC0203J22010600005","2023-05-27T01:15:00",18.899,31.608198,0.178],
    [1836,"urn:WaterMeter:MC0203J22010600005","2023-05-27T01:30:00",18.799,31.59342,0.184],
    [1837,"urn:WaterMeter:MC0203J22010600005","2023-05-27T01:45:00",18.7,31.603117,0.176],
    [1838,"urn:WaterMeter:MC0203J22010600005","2023-05-27T02:00:00",18.7,31.611301,0.168],
    [1839,"urn:WaterMeter:MC0203J22010600005","2023-05-27T02:15:00",18.6,31.58256,0.178],
    [1840,"urn:WaterMeter:MC0203J22010600005","2023-05-27T02:30:00",18.6,31.62643,0.177],
    [1841,"urn:WaterMeter:MC0203J22010600005","2023-05-27T02:45:00",18.5,31.598114,0.18],
    [1842,"urn:WaterMeter:MC0203J22010600005","2023-05-27T03:00:00",18.5,31.556221,0.182],
    [1843,"urn:WaterMeter:MC0203J22010600005","2023-05-27T03:15:00",18.5,31.590355,0.174],
    [1844,"urn:WaterMeter:MC0203J22010600005","2023-05-27T03:30:00",18.399,31.522472,0.172],
    [1845,"urn:WaterMeter:MC0203J22010600005","2023-05-27T03:45:00",18.299,31.541868,0.175],
    [1846,"urn:WaterMeter:MC0203J22010600005","2023-05-27T04:00:00",18.299,31.512388,0.173],
    [1847,"urn:WaterMeter:MC0203J22010600005","2023-05-27T04:15:00",18.299,31.582947,0.174],
    [1848,"urn:WaterMeter:MC0203J22010600005","2023-05-27T04:30:00",18.2,31.556995,0.175],
    [1849,"urn:WaterMeter:MC0203J22010600005","2023-05-27T04:45:00",18.2,31.570185,0.177],
    [1850,"urn:WaterMeter:MC0203J22010600005","2023-05-27T05:00:00",18.1,31.690783,0.178],
    [1851,"urn:WaterMeter:MC0203J22010600005","2023-05-27T05:15:00",18,31.811071,0.175],
    [1852,"urn:WaterMeter:MC0203J22010600005","2023-05-27T05:30:00",18,31.804865,0.175],
    [1853,"urn:WaterMeter:MC0203J22010600005","2023-05-27T05:45:00",18,31.769566,0.176],
    [1854,"urn:WaterMeter:MC0203J22010600005","2023-05-27T06:00:00",18,31.837448,0.172],
    [1855,"urn:WaterMeter:MC0203J22010600005","2023-05-27T06:15:00",18,31.797068,0.176],
    [1856,"urn:WaterMeter:MC0203J22010600005","2023-05-27T06:30:00",17.899,31.837835,0.178],
    [1857,"urn:WaterMeter:MC0203J22010600005","2023-05-27T06:45:00",17.899,31.941017,0.177],
    [1858,"urn:WaterMeter:MC0203J22010600005","2023-05-27T07:00:00",18,32.01588,0.177],
    [1859,"urn:WaterMeter:MC0203J22010600005","2023-05-27T07:15:00",18.1,31.99959,0.171],
    [1860,"urn:WaterMeter:MC0203J22010600005","2023-05-27T07:30:00",18.1,32.11945,0.18],
    [1861,"urn:WaterMeter:MC0203J22010600005","2023-05-27T07:45:00",18.2,32.338963,0.168],
    [1862,"urn:WaterMeter:MC0203J22010600005","2023-05-27T08:00:00",18.6,32.62644,0.179],
    [1863,"urn:WaterMeter:MC0203J22010600005","2023-05-27T08:15:00",19,32.786602,0.177],
    [1864,"urn:WaterMeter:MC0203J22010600005","2023-05-27T08:30:00",19.2,32.925507,0.186],
    [1865,"urn:WaterMeter:MC0203J22010600005","2023-05-27T08:45:00",19.6,32.955765,0.181],
    [1866,"urn:WaterMeter:MC0203J22010600005","2023-05-27T09:00:00",20.1,32.99723,0.178],
    [1867,"urn:WaterMeter:MC0203J22010600005","2023-05-27T09:15:00",20.7,32.96779,0.177],
    [1868,"urn:WaterMeter:MC0203J22010600005","2023-05-27T09:30:00",21.399,32.909214,0.182],
    [1869,"urn:WaterMeter:MC0203J22010600005","2023-05-27T09:45:00",21.899,32.87896,0.178],
    [1870,"urn:WaterMeter:MC0203J22010600005","2023-05-27T10:00:00",22.6,32.74742,0.174],
    [1871,"urn:WaterMeter:MC0203J22010600005","2023-05-27T10:15:00",23.1,32.75134,0.173],
    [1872,"urn:WaterMeter:MC0203J22010600005","2023-05-27T10:30:00",23.5,32.709835,0.174],
    [1873,"urn:WaterMeter:MC0203J22010600005","2023-05-27T10:45:00",23.899,32.617516,0.177],
    [1874,"urn:WaterMeter:MC0203J22010600005","2023-05-27T11:00:00",24.399,32.60782,0.175],
    [1875,"urn:WaterMeter:MC0203J22010600005","2023-05-27T11:15:00",24.899,32.533302,0.177],
    [1876,"urn:WaterMeter:MC0203J22010600005","2023-05-27T11:30:00",25.399,32.48136,0.174],
    [1877,"urn:WaterMeter:MC0203J22010600005","2023-05-27T11:45:00",25.7,32.41732,0.175],
    [1878,"urn:WaterMeter:MC0203J22010600005","2023-05-27T12:00:00",25.899,32.348312,0.175],
    [1879,"urn:WaterMeter:MC0203J22010600005","2023-05-27T12:15:00",25.799,32.311035,0.173],
    [1880,"urn:WaterMeter:MC0203J22010600005","2023-05-27T12:30:00",25.799,32.295944,0.177],
    [1881,"urn:WaterMeter:MC0203J22010600005","2023-05-27T12:45:00",25.799,32.22143,0.176],
    [1882,"urn:WaterMeter:MC0203J22010600005","2023-05-27T13:00:00",25.899,32.19742,0.172],
    [1883,"urn:WaterMeter:MC0203J22010600005","2023-05-27T13:15:00",25.799,32.179962,0.175],
    [1884,"urn:WaterMeter:MC0203J22010600005","2023-05-27T13:30:00",25.7,32.09346,0.173],
    [1885,"urn:WaterMeter:MC0203J22010600005","2023-05-27T13:45:00",25.7,32.0973,0.173],
    [1886,"urn:WaterMeter:MC0203J22010600005","2023-05-27T14:00:00",25.5,32.05312,0.178],
    [1887,"urn:WaterMeter:MC0203J22010600005","2023-05-27T14:15:00",25.299,32.02942,0.173],
    [1888,"urn:WaterMeter:MC0203J22010600005","2023-05-27T14:30:00",25.2,31.996874,0.176],
    [1889,"urn:WaterMeter:MC0203J22010600005","2023-05-27T14:45:00",25,31.991793,0.172],
    [1890,"urn:WaterMeter:MC0203J22010600005","2023-05-27T15:00:00",24.7,31.965067,0.166],
    [1891,"urn:WaterMeter:MC0203J22010600005","2023-05-27T15:15:00",24.5,31.920458,0.175],
    [1892,"urn:WaterMeter:MC0203J22010600005","2023-05-27T15:30:00",24.2,31.888264,0.176],
    [1893,"urn:WaterMeter:MC0203J22010600005","2023-05-27T15:45:00",23.7,31.889038,0.179],
    [1894,"urn:WaterMeter:MC0203J22010600005","2023-05-27T16:00:00",23,31.837835,0.177],
    [1895,"urn:WaterMeter:MC0203J22010600005","2023-05-27T16:15:00",22.7,31.935974,0.181],
    [1896,"urn:WaterMeter:MC0203J22010600005","2023-05-27T16:30:00",22.5,31.902227,0.181],
    [1897,"urn:WaterMeter:MC0203J22010600005","2023-05-27T16:45:00",22.299,31.91464,0.181],
    [1898,"urn:WaterMeter:MC0203J22010600005","2023-05-27T17:00:00",22.1,31.910374,0.177],
    [1899,"urn:WaterMeter:MC0203J22010600005","2023-05-27T17:15:00",22.1,31.924337,0.181],
    [1900,"urn:WaterMeter:MC0203J22010600005","2023-05-27T17:30:00",22.1,31.928604,0.177],
    [1901,"urn:WaterMeter:MC0203J22010600005","2023-05-27T17:45:00",22.1,31.911886,0.176],
    [1902,"urn:WaterMeter:MC0203J22010600005","2023-05-27T18:00:00",22,31.8999,0.177],
    [1903,"urn:WaterMeter:MC0203J22010600005","2023-05-27T18:15:00",21.899,31.89059,0.179],
    [1904,"urn:WaterMeter:MC0203J22010600005","2023-05-27T18:30:00",21.799,31.872707,0.177],
    [1905,"urn:WaterMeter:MC0203J22010600005","2023-05-27T18:45:00",21.7,31.847145,0.181],
    [1906,"urn:WaterMeter:MC0203J22010600005","2023-05-27T19:00:00",21.6,31.883957,0.179],
    [1907,"urn:WaterMeter:MC0203J22010600005","2023-05-27T19:15:00",21.399,31.845554,0.175],
    [1908,"urn:WaterMeter:MC0203J22010600005","2023-05-27T19:30:00",21.299,31.85917,0.176],
    [1909,"urn:WaterMeter:MC0203J22010600005","2023-05-27T19:45:00",21.2,31.850248,0.18],
    [1910,"urn:WaterMeter:MC0203J22010600005","2023-05-27T20:00:00",21.1,31.841715,0.18],
    [1911,"urn:WaterMeter:MC0203J22010600005","2023-05-27T20:15:00",21,31.8537,0.181],
    [1912,"urn:WaterMeter:MC0203J22010600005","2023-05-27T20:30:00",20.899,31.81301,0.182],
    [1913,"urn:WaterMeter:MC0203J22010600005","2023-05-27T20:45:00",20.799,31.867315,0.179],
    [1914,"urn:WaterMeter:MC0203J22010600005","2023-05-27T21:00:00",20.7,31.809132,0.17],
    [1915,"urn:WaterMeter:MC0203J22010600005","2023-05-27T21:15:00",20.5,31.821156,0.179],
    [1916,"urn:WaterMeter:MC0203J22010600005","2023-05-27T21:30:00",20.399,31.977093,0.181],
    [1917,"urn:WaterMeter:MC0203J22010600005","2023-05-27T21:45:00",20.299,31.969296,0.177],
    [1918,"urn:WaterMeter:MC0203J22010600005","2023-05-27T22:00:00",20.2,32.032562,0.184],
    [1919,"urn:WaterMeter:MC0203J22010600005","2023-05-27T22:15:00",20.1,32.04536,0.176],
    [1920,"urn:WaterMeter:MC0203J22010600005","2023-05-27T22:30:00",20,31.99571,0.178],
    [1921,"urn:WaterMeter:MC0203J22010600005","2023-05-27T22:45:00",19.899,32.047264,0.186],
    [1922,"urn:WaterMeter:MC0203J22010600005","2023-05-27T23:00:00",19.799,32.117474,0.178],
    [1923,"urn:WaterMeter:MC0203J22010600005","2023-05-27T23:15:00",19.6,32.19354,0.189],
    [1924,"urn:WaterMeter:MC0203J22010600005","2023-05-27T23:30:00",19.5,32.408398,0.19],
    [1925,"urn:WaterMeter:MC0203J22010600005","2023-05-27T23:45:00",19.399,32.53136,0.187],
    [1926,"urn:WaterMeter:MC0203J22010600005","2023-05-28T00:00:00",19.2,32.678413,0.19],
    [1927,"urn:WaterMeter:MC0203J22010600005","2023-05-28T00:15:00",19.1,32.750565,0.185],
    [1928,"urn:WaterMeter:MC0203J22010600005","2023-05-28T00:30:00",19.1,32.83086,0.195],
    [1929,"urn:WaterMeter:MC0203J22010600005","2023-05-28T00:45:00",19,32.93831,0.187],
    [1930,"urn:WaterMeter:MC0203J22010600005","2023-05-28T01:00:00",19,32.940983,0.184],
    [1931,"urn:WaterMeter:MC0203J22010600005","2023-05-28T01:15:00",18.899,32.992615,0.195],
    [1932,"urn:WaterMeter:MC0203J22010600005","2023-05-28T01:30:00",18.899,32.9674,0.195],
    [1933,"urn:WaterMeter:MC0203J22010600005","2023-05-28T01:45:00",18.799,33.050022,0.189],
    [1934,"urn:WaterMeter:MC0203J22010600005","2023-05-28T02:00:00",18.7,33.018566,0.185],
    [1935,"urn:WaterMeter:MC0203J22010600005","2023-05-28T02:15:00",18.6,33.00848,0.188],
    [1936,"urn:WaterMeter:MC0203J22010600005","2023-05-28T02:30:00",18.5,32.953438,0.192],
    [1937,"urn:WaterMeter:MC0203J22010600005","2023-05-28T02:45:00",18.399,32.948395,0.19],
    [1938,"urn:WaterMeter:MC0203J22010600005","2023-05-28T03:00:00",18.2,32.958054,0.181],
    [1939,"urn:WaterMeter:MC0203J22010600005","2023-05-28T03:15:00",18.1,32.982918,0.187],
    [1940,"urn:WaterMeter:MC0203J22010600005","2023-05-28T03:30:00",18,32.93982,0.192],
    [1941,"urn:WaterMeter:MC0203J22010600005","2023-05-28T03:45:00",17.899,32.944126,0.18],
    [1942,"urn:WaterMeter:MC0203J22010600005","2023-05-28T04:00:00",17.799,32.93598,0.183],
    [1943,"urn:WaterMeter:MC0203J22010600005","2023-05-28T04:15:00",17.7,32.910767,0.182],
    [1944,"urn:WaterMeter:MC0203J22010600005","2023-05-28T04:30:00",17.6,32.90142,0.188],
    [1945,"urn:WaterMeter:MC0203J22010600005","2023-05-28T04:45:00",17.5,32.89021,0.186],
    [1946,"urn:WaterMeter:MC0203J22010600005","2023-05-28T05:00:00",17.5,32.855686,0.186],
    [1947,"urn:WaterMeter:MC0203J22010600005","2023-05-28T05:15:00",17.399,32.865383,0.185],
    [1948,"urn:WaterMeter:MC0203J22010600005","2023-05-28T05:30:00",17.5,32.86034,0.183],
    [1949,"urn:WaterMeter:MC0203J22010600005","2023-05-28T05:45:00",17.5,32.851418,0.188],
    [1950,"urn:WaterMeter:MC0203J22010600005","2023-05-28T06:00:00",17.6,32.822674,0.185],
    [1951,"urn:WaterMeter:MC0203J22010600005","2023-05-28T06:15:00",17.7,32.80289,0.184],
    [1952,"urn:WaterMeter:MC0203J22010600005","2023-05-28T06:30:00",17.799,32.770737,0.186],
    [1953,"urn:WaterMeter:MC0203J22010600005","2023-05-28T06:45:00",18,32.787415,0.179],
    [1954,"urn:WaterMeter:MC0203J22010600005","2023-05-28T07:00:00",18.1,32.726475,0.179],
    [1955,"urn:WaterMeter:MC0203J22010600005","2023-05-28T07:15:00",18.399,32.753666,0.188],
    [1956,"urn:WaterMeter:MC0203J22010600005","2023-05-28T07:30:00",18.6,32.71255,0.182],
    [1957,"urn:WaterMeter:MC0203J22010600005","2023-05-28T07:45:00",19.1,32.71449,0.173],
    [1958,"urn:WaterMeter:MC0203J22010600005","2023-05-28T08:00:00",19.5,32.669067,0.187],
    [1959,"urn:WaterMeter:MC0203J22010600005","2023-05-28T08:15:00",20.1,32.64467,0.174],
    [1960,"urn:WaterMeter:MC0203J22010600005","2023-05-28T08:30:00",20.7,32.568638,0.172],
    [1961,"urn:WaterMeter:MC0203J22010600005","2023-05-28T08:45:00",21.2,32.55076,0.173],
    [1962,"urn:WaterMeter:MC0203J22010600005","2023-05-28T09:00:00",21.7,32.456886,0.171],
    [1963,"urn:WaterMeter:MC0203J22010600005","2023-05-28T09:15:00",22.299,32.45378,0.174],
    [1964,"urn:WaterMeter:MC0203J22010600005","2023-05-28T09:30:00",22.799,32.408787,0.169],
    [1965,"urn:WaterMeter:MC0203J22010600005","2023-05-28T09:45:00",23.2,32.33551,0.174],
    [1966,"urn:WaterMeter:MC0203J22010600005","2023-05-28T10:00:00",23.399,32.290863,0.17],
    [1967,"urn:WaterMeter:MC0203J22010600005","2023-05-28T10:15:00",23.2,32.24238,0.178],
    [1968,"urn:WaterMeter:MC0203J22010600005","2023-05-28T10:30:00",23.1,32.230003,0.178],
    [1969,"urn:WaterMeter:MC0203J22010600005","2023-05-28T10:45:00",23,32.20634,0.181],
    [1970,"urn:WaterMeter:MC0203J22010600005","2023-05-28T11:00:00",23.1,32.179577,0.173],
    [1971,"urn:WaterMeter:MC0203J22010600005","2023-05-28T11:15:00",23.799,32.159405,0.181],
    [1972,"urn:WaterMeter:MC0203J22010600005","2023-05-28T11:30:00",25,32.131477,0.175],
    [1973,"urn:WaterMeter:MC0203J22010600005","2023-05-28T11:45:00",25.5,32.02403,0.172],
    [1974,"urn:WaterMeter:MC0203J22010600005","2023-05-28T12:00:00",25.6,31.943306,0.179],
    [1975,"urn:WaterMeter:MC0203J22010600005","2023-05-28T12:15:00",25.7,31.906107,0.169],
    [1976,"urn:WaterMeter:MC0203J22010600005","2023-05-28T12:30:00",26.2,31.861498,0.174],
    [1977,"urn:WaterMeter:MC0203J22010600005","2023-05-28T12:45:00",26.1,31.81685,0.169],
    [1978,"urn:WaterMeter:MC0203J22010600005","2023-05-28T13:00:00",26.299,31.739658,0.172],
    [1979,"urn:WaterMeter:MC0203J22010600005","2023-05-28T13:15:00",25.899,31.691172,0.178],
    [1980,"urn:WaterMeter:MC0203J22010600005","2023-05-28T13:30:00",25.399,31.670612,0.173],
    [1981,"urn:WaterMeter:MC0203J22010600005","2023-05-28T13:45:00",25.1,31.703234,0.176],
    [1982,"urn:WaterMeter:MC0203J22010600005","2023-05-28T14:00:00",24.799,31.705563,0.172],
    [1983,"urn:WaterMeter:MC0203J22010600005","2023-05-28T14:15:00",24.399,31.665997,0.174],
    [1984,"urn:WaterMeter:MC0203J22010600005","2023-05-28T14:30:00",24.1,31.691986,0.177],
    [1985,"urn:WaterMeter:MC0203J22010600005","2023-05-28T14:45:00",23.899,31.679922,0.172],
    [1986,"urn:WaterMeter:MC0203J22010600005","2023-05-28T15:00:00",23.5,31.66328,0.18],
    [1987,"urn:WaterMeter:MC0203J22010600005","2023-05-28T15:15:00",23,31.614794,0.182],
    [1988,"urn:WaterMeter:MC0203J22010600005","2023-05-28T15:30:00",22.6,31.638067,0.18],
    [1989,"urn:WaterMeter:MC0203J22010600005","2023-05-28T15:45:00",22.299,31.625654,0.176],
    [1990,"urn:WaterMeter:MC0203J22010600005","2023-05-28T16:00:00",22,31.655523,0.177],
    [1991,"urn:WaterMeter:MC0203J22010600005","2023-05-28T16:15:00",21.5,31.662893,0.177],
    [1992,"urn:WaterMeter:MC0203J22010600005","2023-05-28T16:30:00",21.2,31.698542,0.179],
    [1993,"urn:WaterMeter:MC0203J22010600005","2023-05-28T16:45:00",20.899,31.677633,0.179],
    [1994,"urn:WaterMeter:MC0203J22010600005","2023-05-28T17:00:00",20.7,31.722242,0.179],
    [1995,"urn:WaterMeter:MC0203J22010600005","2023-05-28T17:15:00",20.6,31.73349,0.183],
    [1996,"urn:WaterMeter:MC0203J22010600005","2023-05-28T17:30:00",20.6,31.686167,0.175],
    [1997,"urn:WaterMeter:MC0203J22010600005","2023-05-28T17:45:00",20.5,31.68927,0.174],
    [1998,"urn:WaterMeter:MC0203J22010600005","2023-05-28T18:00:00",20.399,31.729572,0.18],
    [1999,"urn:WaterMeter:MC0203J22010600005","2023-05-28T18:15:00",20.399,31.72457,0.173],
    [2000,"urn:WaterMeter:MC0203J22010600005","2023-05-28T18:30:00",20.299,31.68733,0.175],
    [2001,"urn:WaterMeter:MC0203J22010600005","2023-05-28T18:45:00",20.2,31.693537,0.179],
    [2002,"urn:WaterMeter:MC0203J22010600005","2023-05-28T19:00:00",20.1,31.671,0.18],
    [2003,"urn:WaterMeter:MC0203J22010600005","2023-05-28T19:15:00",19.899,31.728798,0.175],
    [2004,"urn:WaterMeter:MC0203J22010600005","2023-05-28T19:30:00",19.799,31.681086,0.18],
    [2005,"urn:WaterMeter:MC0203J22010600005","2023-05-28T19:45:00",19.6,31.686943,0.18],
    [2006,"urn:WaterMeter:MC0203J22010600005","2023-05-28T20:00:00",19.5,31.653584,0.179],
    [2007,"urn:WaterMeter:MC0203J22010600005","2023-05-28T20:15:00",19.399,31.686554,0.183],
    [2008,"urn:WaterMeter:MC0203J22010600005","2023-05-28T20:30:00",19.2,31.716772,0.181],
    [2009,"urn:WaterMeter:MC0203J22010600005","2023-05-28T20:45:00",19.1,31.67608,0.18],
    [2010,"urn:WaterMeter:MC0203J22010600005","2023-05-28T21:00:00",19.1,31.684227,0.18],
    [2011,"urn:WaterMeter:MC0203J22010600005","2023-05-28T21:15:00",19,31.665997,0.179],
    [2012,"urn:WaterMeter:MC0203J22010600005","2023-05-28T21:30:00",19,31.649704,0.18],
    [2013,"urn:WaterMeter:MC0203J22010600005","2023-05-28T21:45:00",19,31.718325,0.177],
    [2014,"urn:WaterMeter:MC0203J22010600005","2023-05-28T22:00:00",19,31.68345,0.183],
    [2015,"urn:WaterMeter:MC0203J22010600005","2023-05-28T22:15:00",18.899,31.649317,0.179],
    [2016,"urn:WaterMeter:MC0203J22010600005","2023-05-28T22:30:00",18.899,31.64854,0.175],
    [2017,"urn:WaterMeter:MC0203J22010600005","2023-05-28T22:45:00",18.799,31.68733,0.174],
    [2018,"urn:WaterMeter:MC0203J22010600005","2023-05-28T23:00:00",18.7,31.675306,0.174],
    [2019,"urn:WaterMeter:MC0203J22010600005","2023-05-28T23:15:00",18.6,31.681473,0.175],
    [2020,"urn:WaterMeter:MC0203J22010600005","2023-05-28T23:30:04",18.6,31.634964,0.177],
    [2021,"urn:WaterMeter:MC0203J22010600005","2023-05-28T23:45:00",18.5,31.64699,0.181],
    [2022,"urn:WaterMeter:MC0203J22010600005","2023-05-29T00:00:00",18.399,31.63958,0.174],
    [2023,"urn:WaterMeter:MC0203J22010600005","2023-05-29T00:15:00",18.299,31.655523,0.165],
    [2024,"urn:WaterMeter:MC0203J22010600005","2023-05-29T00:30:00",18.2,31.690783,0.175],
    [2025,"urn:WaterMeter:MC0203J22010600005","2023-05-29T00:45:00",18.1,31.69276,0.173],
    [2026,"urn:WaterMeter:MC0203J22010600005","2023-05-29T01:00:00",18,31.642296,0.179],
    [2027,"urn:WaterMeter:MC0203J22010600005","2023-05-29T01:15:00",17.899,31.67608,0.181],
    [2028,"urn:WaterMeter:MC0203J22010600005","2023-05-29T01:30:00",17.799,31.664833,0.178],
    [2029,"urn:WaterMeter:MC0203J22010600005","2023-05-29T01:45:00",17.7,31.667936,0.176],
    [2030,"urn:WaterMeter:MC0203J22010600005","2023-05-29T02:00:04",17.7,31.67259,0.179],
    [2031,"urn:WaterMeter:MC0203J22010600005","2023-05-29T02:15:00",17.6,31.643497,0.176],
    [2032,"urn:WaterMeter:MC0203J22010600005","2023-05-29T02:30:00",17.5,31.678759,0.174],
    [2033,"urn:WaterMeter:MC0203J22010600005","2023-05-29T02:45:00",17.5,31.654747,0.172],
    [2034,"urn:WaterMeter:MC0203J22010600005","2023-05-29T03:00:00",17.399,31.690395,0.171],
    [2035,"urn:WaterMeter:MC0203J22010600005","2023-05-29T03:15:00",17.6,31.666384,0.178],
    [2036,"urn:WaterMeter:MC0203J22010600005","2023-05-29T03:30:00",17.7,31.898737,0.177],
    [2037,"urn:WaterMeter:MC0203J22010600005","2023-05-29T03:45:00",17.7,32.39676,0.181],
    [2038,"urn:WaterMeter:MC0203J22010600005","2023-05-29T04:00:00",17.6,32.993004,0.192],
    [2039,"urn:WaterMeter:MC0203J22010600005","2023-05-29T04:15:00",17.6,33.443314,0.195],
    [2040,"urn:WaterMeter:MC0203J22010600005","2023-05-29T04:30:00",17.5,33.865776,0.203],
    [2041,"urn:WaterMeter:MC0203J22010600005","2023-05-29T04:45:00",17.5,34.300224,0.199],
    [2042,"urn:WaterMeter:MC0203J22010600005","2023-05-29T05:00:00",17.5,34.517838,0.208],
    [2043,"urn:WaterMeter:MC0203J22010600005","2023-05-29T05:15:00",17.5,34.070976,0.198],
    [2044,"urn:WaterMeter:MC0203J22010600005","2023-05-29T05:30:00",17.5,33.755573,0.196],
    [2045,"urn:WaterMeter:MC0203J22010600005","2023-05-29T05:45:00",17.5,33.60119,0.196],
    [2046,"urn:WaterMeter:MC0203J22010600005","2023-05-29T06:00:00",17.5,33.559296,0.192],
    [2047,"urn:WaterMeter:MC0203J22010600005","2023-05-29T06:15:00",17.6,33.545372,0.192],
    [2048,"urn:WaterMeter:MC0203J22010600005","2023-05-29T06:30:00",17.6,33.42392,0.194],
    [2049,"urn:WaterMeter:MC0203J22010600005","2023-05-29T06:45:00",17.7,33.393314,0.186],
    [2050,"urn:WaterMeter:MC0203J22010600005","2023-05-29T07:00:00",17.899,33.31996,0.189],
    [2051,"urn:WaterMeter:MC0203J22010600005","2023-05-29T07:15:00",18,33.339745,0.187],
    [2052,"urn:WaterMeter:MC0203J22010600005","2023-05-29T07:30:00",18.1,33.306038,0.183],
    [2053,"urn:WaterMeter:MC0203J22010600005","2023-05-29T07:45:00",18.299,33.226517,0.183],
    [2054,"urn:WaterMeter:MC0203J22010600005","2023-05-29T08:00:00",18.6,33.210575,0.181],
    [2055,"urn:WaterMeter:MC0203J22010600005","2023-05-29T08:15:00",19,33.160576,0.186],
    [2056,"urn:WaterMeter:MC0203J22010600005","2023-05-29T08:30:00",19.399,33.071358,0.182],
    [2057,"urn:WaterMeter:MC0203J22010600005","2023-05-29T08:45:00",19.799,33.035282,0.177],
    [2058,"urn:WaterMeter:MC0203J22010600005","2023-05-29T09:00:00",20.399,32.99684,0.181],
    [2059,"urn:WaterMeter:MC0203J22010600005","2023-05-29T09:15:00",21.2,32.91581,0.175],
    [2060,"urn:WaterMeter:MC0203J22010600005","2023-05-29T09:30:00",22.2,32.861076,0.182],
    [2061,"urn:WaterMeter:MC0203J22010600005","2023-05-29T09:45:00",23,32.816895,0.177],
    [2062,"urn:WaterMeter:MC0203J22010600005","2023-05-29T10:00:00",23.6,32.7482,0.174],
    [2063,"urn:WaterMeter:MC0203J22010600005","2023-05-29T10:15:00",24.1,32.672985,0.174],
    [2064,"urn:WaterMeter:MC0203J22010600005","2023-05-29T10:30:00",24.7,32.567863,0.176],
    [2065,"urn:WaterMeter:MC0203J22010600005","2023-05-29T10:45:00",25.2,32.48214,0.179],
    [2066,"urn:WaterMeter:MC0203J22010600005","2023-05-29T11:00:00",25.799,32.468563,0.172],
    [2067,"urn:WaterMeter:MC0203J22010600005","2023-05-29T11:15:00",26.299,32.412315,0.174],
    [2068,"urn:WaterMeter:MC0203J22010600005","2023-05-29T11:30:00",26.799,32.33551,0.171],
    [2069,"urn:WaterMeter:MC0203J22010600005","2023-05-29T11:45:00",27.2,32.2416,0.181],
    [2070,"urn:WaterMeter:MC0203J22010600005","2023-05-29T12:00:00",27.5,32.16018,0.176],
    [2071,"urn:WaterMeter:MC0203J22010600005","2023-05-29T12:15:00",27.799,32.090748,0.176],
    [2072,"urn:WaterMeter:MC0203J22010600005","2023-05-29T12:30:00",27.7,32.046875,0.171],
    [2073,"urn:WaterMeter:MC0203J22010600005","2023-05-29T12:45:00",27.7,31.984074,0.181],
    [2074,"urn:WaterMeter:MC0203J22010600005","2023-05-29T13:00:00",27.5,31.908434,0.175],
    [2075,"urn:WaterMeter:MC0203J22010600005","2023-05-29T13:15:00",27.1,31.88512,0.178],
    [2076,"urn:WaterMeter:MC0203J22010600005","2023-05-29T13:30:00",26.5,31.865726,0.174],
    [2077,"urn:WaterMeter:MC0203J22010600005","2023-05-29T13:45:00",25.899,31.860722,0.179],
    [2078,"urn:WaterMeter:MC0203J22010600005","2023-05-29T14:00:00",25.399,31.848309,0.18],
    [2079,"urn:WaterMeter:MC0203J22010600005","2023-05-29T14:15:00",25.2,31.824648,0.175],
    [2080,"urn:WaterMeter:MC0203J22010600005","2023-05-29T14:30:00",25.2,31.805988,0.176],
    [2081,"urn:WaterMeter:MC0203J22010600005","2023-05-29T14:45:00",25.2,31.795904,0.174],
    [2082,"urn:WaterMeter:MC0203J22010600005","2023-05-29T15:00:00",25.2,31.736555,0.182],
    [2083,"urn:WaterMeter:MC0203J22010600005","2023-05-29T15:15:00",25,31.738106,0.181],
    [2084,"urn:WaterMeter:MC0203J22010600005","2023-05-29T15:30:00",24.7,31.699316,0.181],
    [2085,"urn:WaterMeter:MC0203J22010600005","2023-05-29T15:45:00",24.5,31.662504,0.176],
    [2086,"urn:WaterMeter:MC0203J22010600005","2023-05-29T16:00:00",24.399,31.638844,0.176],
    [2087,"urn:WaterMeter:MC0203J22010600005","2023-05-29T16:15:00",24.2,31.631823,0.18],
    [2088,"urn:WaterMeter:MC0203J22010600005","2023-05-29T16:30:00",24.1,31.631084,0.173],
    [2089,"urn:WaterMeter:MC0203J22010600005","2023-05-29T16:45:00",24,31.622513,0.178],
    [2090,"urn:WaterMeter:MC0203J22010600005","2023-05-29T17:00:00",24,31.552341,0.178],
    [2091,"urn:WaterMeter:MC0203J22010600005","2023-05-29T17:15:00",23.899,31.587252,0.177],
    [2092,"urn:WaterMeter:MC0203J22010600005","2023-05-29T17:30:00",23.799,31.525537,0.177],
    [2093,"urn:WaterMeter:MC0203J22010600005","2023-05-29T17:45:00",23.6,31.50653,0.182],
    [2094,"urn:WaterMeter:MC0203J22010600005","2023-05-29T18:00:00",23.299,31.492992,0.175],
    [2095,"urn:WaterMeter:MC0203J22010600005","2023-05-29T18:15:00",23.1,31.510448,0.174],
    [2096,"urn:WaterMeter:MC0203J22010600005","2023-05-29T18:30:00",22.799,31.484808,0.179],
    [2097,"urn:WaterMeter:MC0203J22010600005","2023-05-29T18:45:00",22.6,31.48636,0.181],
    [2098,"urn:WaterMeter:MC0203J22010600005","2023-05-29T19:00:00",22.399,31.506918,0.182],
    [2099,"urn:WaterMeter:MC0203J22010600005","2023-05-29T19:15:00",22.2,31.494545,0.183],
    [2100,"urn:WaterMeter:MC0203J22010600005","2023-05-29T19:30:00",22,31.48989,0.177],
    [2101,"urn:WaterMeter:MC0203J22010600005","2023-05-29T19:45:00",21.799,31.456879,0.18],
    [2102,"urn:WaterMeter:MC0203J22010600005","2023-05-29T20:00:00",21.7,31.446018,0.178],
    [2103,"urn:WaterMeter:MC0203J22010600005","2023-05-29T20:15:00",21.5,31.494156,0.178],
    [2104,"urn:WaterMeter:MC0203J22010600005","2023-05-29T20:30:00",21.2,31.519758,0.181],
    [2105,"urn:WaterMeter:MC0203J22010600005","2023-05-29T20:45:00",21,31.629534,0.182],
    [2106,"urn:WaterMeter:MC0203J22010600005","2023-05-29T21:00:00",20.799,31.675306,0.18],
    [2107,"urn:WaterMeter:MC0203J22010600005","2023-05-29T21:15:00",20.7,31.806377,0.184],
    [2108,"urn:WaterMeter:MC0203J22010600005","2023-05-29T21:30:00",20.6,31.862274,0.181],
    [2109,"urn:WaterMeter:MC0203J22010600005","2023-05-29T21:45:00",19.799,42.86269,0.257],
    [2110,"urn:WaterMeter:MC0203J22010600005","2023-05-29T22:00:00",19.7,42.970566,0.246],
    [2111,"urn:WaterMeter:MC0203J22010600005","2023-05-29T22:15:00",19.7,42.951557,0.241],
    [2112,"urn:WaterMeter:MC0203J22010600005","2023-05-29T22:30:00",19.6,42.992676,0.242],
    [2113,"urn:WaterMeter:MC0203J22010600005","2023-05-29T22:45:00",19.5,42.467846,0.242],
    [2114,"urn:WaterMeter:MC0203J22010600005","2023-05-29T23:00:00",19.299,42.326225,0.239],
    [2115,"urn:WaterMeter:MC0203J22010600005","2023-05-29T23:15:00",19.1,42.508575,0.239],
    [2116,"urn:WaterMeter:MC0203J22010600005","2023-05-29T23:30:00",19,42.13305,0.242],
    [2117,"urn:WaterMeter:MC0203J22010600005","2023-05-29T23:45:00",19,41.662567,0.239],
    [2118,"urn:WaterMeter:MC0203J22010600005","2023-05-30T00:00:00",19,41.24984,0.231],
    [2119,"urn:WaterMeter:MC0203J22010600005","2023-05-30T00:15:00",19,41.14468,0.223],
    [2120,"urn:WaterMeter:MC0203J22010600005","2023-05-30T00:30:00",19,40.824314,0.224],
    [2121,"urn:WaterMeter:MC0203J22010600005","2023-05-30T00:45:00",18.899,40.69976,0.224],
    [2122,"urn:WaterMeter:MC0203J22010600005","2023-05-30T01:00:00",18.899,40.34332,0.217],
    [2123,"urn:WaterMeter:MC0203J22010600005","2023-05-30T01:15:00",18.899,40.105923,0.22],
    [2124,"urn:WaterMeter:MC0203J22010600005","2023-05-30T01:30:00",18.799,39.75216,0.213],
    [2125,"urn:WaterMeter:MC0203J22010600005","2023-05-30T01:45:00",18.799,39.40732,0.207],
    [2126,"urn:WaterMeter:MC0203J22010600005","2023-05-30T02:00:00",18.799,39.276592,0.207],
    [2127,"urn:WaterMeter:MC0203J22010600005","2023-05-30T02:15:00",18.7,38.781246,0.204],
    [2128,"urn:WaterMeter:MC0203J22010600005","2023-05-30T02:30:00",18.7,38.66251,0.205],
    [2129,"urn:WaterMeter:MC0203J22010600005","2023-05-30T02:45:00",18.7,38.386364,0.187],
    [2130,"urn:WaterMeter:MC0203J22010600005","2023-05-30T03:00:00",18.6,37.53919,0.202],
    [2131,"urn:WaterMeter:MC0203J22010600005","2023-05-30T03:15:00",18.6,35.65904,0.192],
    [2132,"urn:WaterMeter:MC0203J22010600005","2023-05-30T03:30:00",18.6,35.307564,0.192],
    [2133,"urn:WaterMeter:MC0203J22010600005","2023-05-30T03:45:00",18.6,35.212177,0.183],
    [2134,"urn:WaterMeter:MC0203J22010600005","2023-05-30T04:00:00",18.5,35.107445,0.189],
    [2135,"urn:WaterMeter:MC0203J22010600005","2023-05-30T04:15:00",18.5,34.93867,0.185],
    [2136,"urn:WaterMeter:MC0203J22010600005","2023-05-30T04:30:00",18.5,34.889793,0.189],
    [2137,"urn:WaterMeter:MC0203J22010600005","2023-05-30T04:45:00",18.5,34.77812,0.186],
    [2138,"urn:WaterMeter:MC0203J22010600005","2023-05-30T05:00:00",18.399,34.68192,0.183],
    [2139,"urn:WaterMeter:MC0203J22010600005","2023-05-30T05:15:00",18.399,34.63421,0.176],
    [2140,"urn:WaterMeter:MC0203J22010600005","2023-05-30T05:30:00",18.399,34.582615,0.188],
    [2141,"urn:WaterMeter:MC0203J22010600005","2023-05-30T05:45:00",18.399,34.523266,0.183],
    [2142,"urn:WaterMeter:MC0203J22010600005","2023-05-30T06:00:00",18.399,34.433235,0.18],
    [2143,"urn:WaterMeter:MC0203J22010600005","2023-05-30T06:15:00",18.5,34.399914,0.181],
    [2144,"urn:WaterMeter:MC0203J22010600005","2023-05-30T06:30:00",18.5,34.281605,0.181],
    [2145,"urn:WaterMeter:MC0203J22010600005","2023-05-30T06:45:00",18.6,34.307594,0.185],
    [2146,"urn:WaterMeter:MC0203J22010600005","2023-05-30T07:00:00",18.7,34.262985,0.186],
    [2147,"urn:WaterMeter:MC0203J22010600005","2023-05-30T07:15:00",18.7,34.246307,0.182],
    [2148,"urn:WaterMeter:MC0203J22010600005","2023-05-30T07:30:00",18.799,34.13339,0.181],
    [2149,"urn:WaterMeter:MC0203J22010600005","2023-05-30T07:45:00",19,34.155537,0.178],
    [2150,"urn:WaterMeter:MC0203J22010600005","2023-05-30T08:00:00",19.2,34.06826,0.176],
    [2151,"urn:WaterMeter:MC0203J22010600005","2023-05-30T08:15:00",19.5,34.05313,0.177],
    [2152,"urn:WaterMeter:MC0203J22010600005","2023-05-30T08:30:00",19.799,33.98599,0.175],
    [2153,"urn:WaterMeter:MC0203J22010600005","2023-05-30T08:45:00",20.399,33.910347,0.173],
    [2154,"urn:WaterMeter:MC0203J22010600005","2023-05-30T09:00:00",21,33.851387,0.18],
    [2155,"urn:WaterMeter:MC0203J22010600005","2023-05-30T09:15:00",21.399,33.776134,0.181],
    [2156,"urn:WaterMeter:MC0203J22010600005","2023-05-30T09:30:00",22.1,33.679157,0.173],
    [2157,"urn:WaterMeter:MC0203J22010600005","2023-05-30T09:45:00",22.799,33.673378,0.171],
    [2158,"urn:WaterMeter:MC0203J22010600005","2023-05-30T10:00:00",23.399,33.592308,0.175],
    [2159,"urn:WaterMeter:MC0203J22010600005","2023-05-30T10:15:00",23.7,33.53102,0.173],
    [2160,"urn:WaterMeter:MC0203J22010600005","2023-05-30T10:30:00",23.6,33.449173,0.173],
    [2161,"urn:WaterMeter:MC0203J22010600005","2023-05-30T10:45:00",24.1,33.370815,0.173],
    [2162,"urn:WaterMeter:MC0203J22010600005","2023-05-30T11:00:00",24.7,33.306038,0.169],
    [2163,"urn:WaterMeter:MC0203J22010600005","2023-05-30T11:15:00",25.399,33.17256,0.172],
    [2164,"urn:WaterMeter:MC0203J22010600005","2023-05-30T11:30:00",26,33.09308,0.175],
    [2165,"urn:WaterMeter:MC0203J22010600005","2023-05-30T11:45:00",26.399,33.036407,0.174],
    [2166,"urn:WaterMeter:MC0203J22010600005","2023-05-30T12:00:00",26.799,32.94215,0.169],
    [2167,"urn:WaterMeter:MC0203J22010600005","2023-05-30T12:15:00",27.1,32.870037,0.181],
    [2168,"urn:WaterMeter:MC0203J22010600005","2023-05-30T12:30:00",27.299,32.802544,0.172],
    [2169,"urn:WaterMeter:MC0203J22010600005","2023-05-30T12:45:00",27.299,32.694706,0.171],
    [2170,"urn:WaterMeter:MC0203J22010600005","2023-05-30T13:00:00",27.299,32.60394,0.171],
    [2171,"urn:WaterMeter:MC0203J22010600005","2023-05-30T13:15:00",27.2,32.55076,0.174],
    [2172,"urn:WaterMeter:MC0203J22010600005","2023-05-30T13:30:00",27.1,32.50386,0.182],
    [2173,"urn:WaterMeter:MC0203J22010600005","2023-05-30T13:45:00",27,32.449165,0.178],
    [2174,"urn:WaterMeter:MC0203J22010600005","2023-05-30T14:00:00",27,32.331207,0.175],
    [2175,"urn:WaterMeter:MC0203J22010600005","2023-05-30T14:15:00",26.899,32.310646,0.182],
    [2176,"urn:WaterMeter:MC0203J22010600005","2023-05-30T14:30:00",26.7,32.26375,0.174],
    [2177,"urn:WaterMeter:MC0203J22010600005","2023-05-30T14:45:00",26.299,32.255215,0.179],
    [2178,"urn:WaterMeter:MC0203J22010600005","2023-05-30T15:00:00",25.5,32.340904,0.18],
    [2179,"urn:WaterMeter:MC0203J22010600005","2023-05-30T15:15:00",24.1,40.56985,0.216],
    [2180,"urn:WaterMeter:MC0203J22010600005","2023-05-30T15:30:00",23.2,40.539986,0.225],
    [2181,"urn:WaterMeter:MC0203J22010600005","2023-05-30T15:45:00",22.799,40.45891,0.226],
    [2182,"urn:WaterMeter:MC0203J22010600005","2023-05-30T16:00:00",22.399,40.436028,0.226],
    [2183,"urn:WaterMeter:MC0203J22010600005","2023-05-30T16:15:00",22.2,40.4818,0.221],
    [2184,"urn:WaterMeter:MC0203J22010600005","2023-05-30T16:30:00",22,40.487617,0.235],
    [2185,"urn:WaterMeter:MC0203J22010600005","2023-05-30T16:45:00",21.5,39.28823,0.232],
    [2186,"urn:WaterMeter:MC0203J22010600005","2023-05-30T17:00:00",21.299,39.636177,0.233],
    [2187,"urn:WaterMeter:MC0203J22010600005","2023-05-30T17:15:00",21.2,39.527565,0.226],
    [2188,"urn:WaterMeter:MC0203J22010600005","2023-05-30T17:30:00",21.1,39.451923,0.22],
    [2189,"urn:WaterMeter:MC0203J22010600005","2023-05-30T17:45:00",20.799,39.443005,0.224],
    [2190,"urn:WaterMeter:MC0203J22010600005","2023-05-30T18:00:00",20.7,39.352623,0.224],
    [2191,"urn:WaterMeter:MC0203J22010600005","2023-05-30T18:15:00",20.799,38.853783,0.223],
    [2192,"urn:WaterMeter:MC0203J22010600005","2023-05-30T18:30:00",20.899,38.7634,0.227],
    [2193,"urn:WaterMeter:MC0203J22010600005","2023-05-30T18:45:00",20.899,38.591564,0.215],
    [2194,"urn:WaterMeter:MC0203J22010600005","2023-05-30T19:00:00",20.899,38.538807,0.216],
    [2195,"urn:WaterMeter:MC0203J22010600005","2023-05-30T19:15:00",20.799,38.511654,0.213],
    [2196,"urn:WaterMeter:MC0203J22010600005","2023-05-30T19:30:00",20.7,38.15052,0.216],
    [2197,"urn:WaterMeter:MC0203J22010600005","2023-05-30T19:45:00",20.6,37.91274,0.212],
    [2198,"urn:WaterMeter:MC0203J22010600005","2023-05-30T20:00:00",20.5,37.68504,0.206],
    [2199,"urn:WaterMeter:MC0203J22010600005","2023-05-30T20:15:00",20.399,37.466652,0.205],
    [2200,"urn:WaterMeter:MC0203J22010600005","2023-05-30T20:30:00",20.299,37.355324,0.203],
    [2201,"urn:WaterMeter:MC0203J22010600005","2023-05-30T20:45:00",20.1,37.19745,0.202],
    [2202,"urn:WaterMeter:MC0203J22010600005","2023-05-30T21:00:00",20,36.98682,0.204],
    [2203,"urn:WaterMeter:MC0203J22010600005","2023-05-30T21:15:00",20,36.759125,0.201],
    [2204,"urn:WaterMeter:MC0203J22010600005","2023-05-30T21:30:00",19.899,36.590385,0.203],
    [2205,"urn:WaterMeter:MC0203J22010600005","2023-05-30T21:45:00",19.899,36.416607,0.193],
    [2206,"urn:WaterMeter:MC0203J22010600005","2023-05-30T22:00:00",19.799,36.15439,0.199],
    [2207,"urn:WaterMeter:MC0203J22010600005","2023-05-30T22:15:00",19.799,35.203644,0.189],
    [2208,"urn:WaterMeter:MC0203J22010600005","2023-05-30T22:30:00",19.799,35.02172,0.187],
    [2209,"urn:WaterMeter:MC0203J22010600005","2023-05-30T22:45:00",19.7,34.84794,0.192],
    [2210,"urn:WaterMeter:MC0203J22010600005","2023-05-30T23:00:00",19.7,34.750576,0.19],
    [2211,"urn:WaterMeter:MC0203J22010600005","2023-05-30T23:15:00",19.6,34.717216,0.193],
    [2212,"urn:WaterMeter:MC0203J22010600005","2023-05-30T23:30:00",19.5,34.602787,0.188],
    [2213,"urn:WaterMeter:MC0203J22010600005","2023-05-30T23:45:00",19.5,34.579124,0.187],
    [2214,"urn:WaterMeter:MC0203J22010600005","2023-05-31T00:00:00",19.399,34.501896,0.185],
    [2215,"urn:WaterMeter:MC0203J22010600005","2023-05-31T00:15:00",19.299,34.395996,0.188],
    [2216,"urn:WaterMeter:MC0203J22010600005","2023-05-31T00:30:00",19.1,34.342506,0.191],
    [2217,"urn:WaterMeter:MC0203J22010600005","2023-05-31T00:45:00",19,34.285873,0.185],
    [2218,"urn:WaterMeter:MC0203J22010600005","2023-05-31T01:00:00",19,34.294796,0.187],
    [2219,"urn:WaterMeter:MC0203J22010600005","2023-05-31T01:15:00",18.899,34.23467,0.183],
    [2220,"urn:WaterMeter:MC0203J22010600005","2023-05-31T01:30:00",19,34.14933,0.188],
    [2221,"urn:WaterMeter:MC0203J22010600005","2023-05-31T01:45:00",19,34.157867,0.183],
    [2222,"urn:WaterMeter:MC0203J22010600005","2023-05-31T02:00:00",19,34.13692,0.187],
    [2223,"urn:WaterMeter:MC0203J22010600005","2023-05-31T02:15:00",19,34.039555,0.179],
    [2224,"urn:WaterMeter:MC0203J22010600005","2023-05-31T02:30:00",19,34.046112,0.182],
    [2225,"urn:WaterMeter:MC0203J22010600005","2023-05-31T02:45:00",18.899,33.95732,0.184],
    [2226,"urn:WaterMeter:MC0203J22010600005","2023-05-31T03:00:00",18.899,33.969307,0.186],
    [2227,"urn:WaterMeter:MC0203J22010600005","2023-05-31T03:15:00",19,34.18463,0.187],
    [2228,"urn:WaterMeter:MC0203J22010600005","2023-05-31T03:30:00",19.1,34.894875,0.191],
    [2229,"urn:WaterMeter:MC0203J22010600005","2023-05-31T03:45:00",19.1,35.82273,0.196],
    [2230,"urn:WaterMeter:MC0203J22010600005","2023-05-31T04:00:00",19.1,36.363464,0.206],
    [2231,"urn:WaterMeter:MC0203J22010600005","2023-05-31T04:15:00",19.2,36.709858,0.211],
    [2232,"urn:WaterMeter:MC0203J22010600005","2023-05-31T04:30:00",19.2,36.908424,0.211],
    [2233,"urn:WaterMeter:MC0203J22010600005","2023-05-31T04:45:00",19.1,37.08845,0.215],
    [2234,"urn:WaterMeter:MC0203J22010600005","2023-05-31T05:00:00",19.1,37.337093,0.215],
    [2235,"urn:WaterMeter:MC0203J22010600005","2023-05-31T05:15:00",19.1,36.764942,0.203],
    [2236,"urn:WaterMeter:MC0203J22010600005","2023-05-31T05:30:00",19,36.17103,0.205],
    [2237,"urn:WaterMeter:MC0203J22010600005","2023-05-31T05:45:00",19,35.874325,0.199],
    [2238,"urn:WaterMeter:MC0203J22010600005","2023-05-31T06:00:00",19,35.193947,0.2],
    [2239,"urn:WaterMeter:MC0203J22010600005","2023-05-31T06:15:00",19.1,34.885178,0.194],
    [2240,"urn:WaterMeter:MC0203J22010600005","2023-05-31T06:30:00",19.1,34.756397,0.193],
    [2241,"urn:WaterMeter:MC0203J22010600005","2023-05-31T06:45:00",19.2,34.635757,0.188],
    [2242,"urn:WaterMeter:MC0203J22010600005","2023-05-31T07:00:00",19.299,34.57486,0.194],
    [2243,"urn:WaterMeter:MC0203J22010600005","2023-05-31T07:15:00",19.5,34.472027,0.19],
    [2244,"urn:WaterMeter:MC0203J22010600005","2023-05-31T07:30:00",19.6,34.442585,0.192],
    [2245,"urn:WaterMeter:MC0203J22010600005","2023-05-31T07:45:00",19.7,34.326214,0.186],
    [2246,"urn:WaterMeter:MC0203J22010600005","2023-05-31T08:00:00",19.899,34.25678,0.187],
    [2247,"urn:WaterMeter:MC0203J22010600005","2023-05-31T08:15:00",20.2,34.187733,0.19],
    [2248,"urn:WaterMeter:MC0203J22010600005","2023-05-31T08:30:00",20.5,34.104683,0.188],
    [2249,"urn:WaterMeter:MC0203J22010600005","2023-05-31T08:45:00",20.799,33.98176,0.183],
    [2250,"urn:WaterMeter:MC0203J22010600005","2023-05-31T09:00:00",21,33.943745,0.188],
    [2251,"urn:WaterMeter:MC0203J22010600005","2023-05-31T09:15:00",21.299,33.916203,0.18],
    [2252,"urn:WaterMeter:MC0203J22010600005","2023-05-31T09:30:00",21.7,33.785442,0.177],
    [2253,"urn:WaterMeter:MC0203J22010600005","2023-05-31T09:45:00",22.5,33.70868,0.176],
    [2254,"urn:WaterMeter:MC0203J22010600005","2023-05-31T10:00:00",23,33.651268,0.177],
    [2255,"urn:WaterMeter:MC0203J22010600005","2023-05-31T10:15:00",23.799,33.591106,0.177],
    [2256,"urn:WaterMeter:MC0203J22010600005","2023-05-31T10:30:00",24.6,33.520508,0.176],
    [2257,"urn:WaterMeter:MC0203J22010600005","2023-05-31T10:45:00",25.399,33.419693,0.172],
    [2258,"urn:WaterMeter:MC0203J22010600005","2023-05-31T11:00:00",26.1,33.326206,0.171],
    [2259,"urn:WaterMeter:MC0203J22010600005","2023-05-31T11:15:00",26.6,33.23932,0.171],
    [2260,"urn:WaterMeter:MC0203J22010600005","2023-05-31T11:30:00",26.899,33.105106,0.176],
    [2261,"urn:WaterMeter:MC0203J22010600005","2023-05-31T11:45:00",27.2,33.066315,0.175],
    [2262,"urn:WaterMeter:MC0203J22010600005","2023-05-31T12:00:00",27.5,32.972054,0.175],
    [2263,"urn:WaterMeter:MC0203J22010600005","2023-05-31T12:15:00",27.799,32.90805,0.172],
    [2264,"urn:WaterMeter:MC0203J22010600005","2023-05-31T12:30:00",27.899,32.81185,0.175],
    [2265,"urn:WaterMeter:MC0203J22010600005","2023-05-31T12:45:00",27.899,32.722637,0.174],
    [2266,"urn:WaterMeter:MC0203J22010600005","2023-05-31T13:00:00",27.899,32.636135,0.172],
    [2267,"urn:WaterMeter:MC0203J22010600005","2023-05-31T13:15:00",27.7,32.568253,0.175],
    [2268,"urn:WaterMeter:MC0203J22010600005","2023-05-31T13:30:00",27.399,32.539158,0.176],
    [2269,"urn:WaterMeter:MC0203J22010600005","2023-05-31T13:45:00",26.899,32.483303,0.179],
    [2270,"urn:WaterMeter:MC0203J22010600005","2023-05-31T14:00:00",26.299,32.4449,0.179],
    [2271,"urn:WaterMeter:MC0203J22010600005","2023-05-31T14:15:00",25.5,32.442184,0.179],
    [2272,"urn:WaterMeter:MC0203J22010600005","2023-05-31T14:30:00",24.5,32.486366,0.181],
    [2273,"urn:WaterMeter:MC0203J22010600005","2023-05-31T14:45:00",23.7,32.486366,0.182],
    [2274,"urn:WaterMeter:MC0203J22010600005","2023-05-31T15:00:00",23.299,32.487957,0.187],
    [2275,"urn:WaterMeter:MC0203J22010600005","2023-05-31T15:15:00",23,32.538773,0.184],
    [2276,"urn:WaterMeter:MC0203J22010600005","2023-05-31T15:30:00",22.7,32.569416,0.193],
    [2277,"urn:WaterMeter:MC0203J22010600005","2023-05-31T15:45:00",22.5,32.546528,0.184],
    [2278,"urn:WaterMeter:MC0203J22010600005","2023-05-31T16:00:00",22.2,32.689625,0.179],
    [2279,"urn:WaterMeter:MC0203J22010600005","2023-05-31T16:15:00",22,32.851032,0.188],
    [2280,"urn:WaterMeter:MC0203J22010600005","2023-05-31T16:30:00",21.899,34.88285,0.216],
    [2281,"urn:WaterMeter:MC0203J22010600005","2023-05-31T16:45:00",21.399,39.90887,0.223],
    [2282,"urn:WaterMeter:MC0203J22010600005","2023-05-31T17:00:00",21.5,39.974037,0.228],
    [2283,"urn:WaterMeter:MC0203J22010600005","2023-05-31T17:15:00",21.5,39.70984,0.228],
    [2284,"urn:WaterMeter:MC0203J22010600005","2023-05-31T17:30:00",21.399,39.043854,0.218],
    [2285,"urn:WaterMeter:MC0203J22010600005","2023-05-31T17:45:00",21.5,38.83439,0.219],
    [2286,"urn:WaterMeter:MC0203J22010600005","2023-05-31T18:00:00",21.5,38.82275,0.221],
    [2287,"urn:WaterMeter:MC0203J22010600005","2023-05-31T18:15:00",21.6,38.72694,0.221],
    [2288,"urn:WaterMeter:MC0203J22010600005","2023-05-31T18:30:00",21.6,38.780857,0.218],
    [2289,"urn:WaterMeter:MC0203J22010600005","2023-05-31T18:45:00",21.5,38.733536,0.215],
    [2290,"urn:WaterMeter:MC0203J22010600005","2023-05-31T19:00:00",21.399,38.638885,0.22],
    [2291,"urn:WaterMeter:MC0203J22010600005","2023-05-31T19:15:00",21.299,38.582603,0.218],
    [2292,"urn:WaterMeter:MC0203J22010600005","2023-05-31T19:30:00",21.1,38.338654,0.214],
    [2293,"urn:WaterMeter:MC0203J22010600005","2023-05-31T19:45:00",21,38.210644,0.211],
    [2294,"urn:WaterMeter:MC0203J22010600005","2023-05-31T20:00:00",20.899,38.09699,0.207],
    [2295,"urn:WaterMeter:MC0203J22010600005","2023-05-31T20:15:00",20.7,37.93795,0.212],
    [2296,"urn:WaterMeter:MC0203J22010600005","2023-05-31T20:30:00",20.6,37.747494,0.198],
    [2297,"urn:WaterMeter:MC0203J22010600005","2023-05-31T20:45:00",20.399,37.6478,0.207],
    [2298,"urn:WaterMeter:MC0203J22010600005","2023-05-31T21:00:00",20.299,37.504665,0.206],
    [2299,"urn:WaterMeter:MC0203J22010600005","2023-05-31T21:15:00",20.2,37.340973,0.201],
    [2300,"urn:WaterMeter:MC0203J22010600005","2023-05-31T21:30:00",20,37.26374,0.205],
    [2301,"urn:WaterMeter:MC0203J22010600005","2023-05-31T21:45:00",19.899,37.196285,0.2],
    [2302,"urn:WaterMeter:MC0203J22010600005","2023-05-31T22:00:00",19.799,36.75408,0.199],
    [2303,"urn:WaterMeter:MC0203J22010600005","2023-05-31T22:15:00",19.7,36.596207,0.195],
    [2304,"urn:WaterMeter:MC0203J22010600005","2023-05-31T22:30:00",19.6,36.268818,0.197],
    [2305,"urn:WaterMeter:MC0203J22010600005","2023-05-31T22:45:00",19.5,36.12452,0.193],
    [2306,"urn:WaterMeter:MC0203J22010600005","2023-05-31T23:00:00",19.399,36.020172,0.189],
    [2307,"urn:WaterMeter:MC0203J22010600005","2023-05-31T23:15:00",19.299,35.16602,0.191],
    [2308,"urn:WaterMeter:MC0203J22010600005","2023-05-31T23:30:00",19.2,35.020943,0.19],
    [2309,"urn:WaterMeter:MC0203J22010600005","2023-05-31T23:45:00",19.1,34.95884,0.184],
    [2310,"urn:WaterMeter:MC0203J22010600005","2023-06-01T00:00:00",19,34.92707,0.188],
    [2311,"urn:WaterMeter:MC0203J22010600005","2023-06-01T00:15:00",19,34.84131,0.184],
    [2312,"urn:WaterMeter:MC0203J22010600005","2023-06-01T00:30:00",18.899,34.77928,0.19],
    [2313,"urn:WaterMeter:MC0203J22010600005","2023-06-01T00:45:00",18.799,34.74631,0.183],
    [2314,"urn:WaterMeter:MC0203J22010600005","2023-06-01T01:00:04",18.7,34.65822,0.184],
    [2315,"urn:WaterMeter:MC0203J22010600005","2023-06-01T01:15:00",18.6,34.636147,0.172],
    [2316,"urn:WaterMeter:MC0203J22010600005","2023-06-01T01:30:00",18.5,34.635757,0.183],
    [2317,"urn:WaterMeter:MC0203J22010600005","2023-06-01T01:45:00",18.399,34.558178,0.181],
    [2318,"urn:WaterMeter:MC0203J22010600005","2023-06-01T02:00:00",18.399,34.570164,0.19],
    [2319,"urn:WaterMeter:MC0203J22010600005","2023-06-01T02:15:00",18.299,34.460426,0.19],
    [2320,"urn:WaterMeter:MC0203J22010600005","2023-06-01T02:30:00",18.2,34.479046,0.19],
    [2321,"urn:WaterMeter:MC0203J22010600005","2023-06-01T02:45:00",18.1,34.462753,0.187],
    [2322,"urn:WaterMeter:MC0203J22010600005","2023-06-01T03:00:00",18.1,34.37354,0.194],
    [2323,"urn:WaterMeter:MC0203J22010600005","2023-06-01T03:15:00",18,34.34751,0.186],
    [2324,"urn:WaterMeter:MC0203J22010600005","2023-06-01T03:30:00",17.899,34.322334,0.192],
    [2325,"urn:WaterMeter:MC0203J22010600005","2023-06-01T03:45:00",17.799,34.29518,0.187],
    [2326,"urn:WaterMeter:MC0203J22010600005","2023-06-01T04:00:04",17.7,34.24747,0.188],
    [2327,"urn:WaterMeter:MC0203J22010600005","2023-06-01T04:15:00",17.7,34.226135,0.191],
    [2328,"urn:WaterMeter:MC0203J22010600005","2023-06-01T04:30:00",17.7,34.161705,0.19],
    [2329,"urn:WaterMeter:MC0203J22010600005","2023-06-01T04:45:00",17.6,34.189285,0.191],
    [2330,"urn:WaterMeter:MC0203J22010600005","2023-06-01T05:00:00",17.6,34.178425,0.186],
    [2331,"urn:WaterMeter:MC0203J22010600005","2023-06-01T05:15:00",17.5,34.10938,0.188],
    [2332,"urn:WaterMeter:MC0203J22010600005","2023-06-01T05:30:00",17.5,34.06667,0.188],
    [2333,"urn:WaterMeter:MC0203J22010600005","2023-06-01T05:45:00",17.5,34.054295,0.191],
    [2334,"urn:WaterMeter:MC0203J22010600005","2023-06-01T06:00:00",17.5,33.99495,0.192],
    [2335,"urn:WaterMeter:MC0203J22010600005","2023-06-01T06:15:00",17.6,33.984085,0.191],
    [2336,"urn:WaterMeter:MC0203J22010600005","2023-06-01T06:30:00",17.7,33.929356,0.189],
    [2337,"urn:WaterMeter:MC0203J22010600005","2023-06-01T06:45:00",17.799,33.96081,0.187],
    [2338,"urn:WaterMeter:MC0203J22010600005","2023-06-01T07:00:00",17.899,33.920044,0.182],
    [2339,"urn:WaterMeter:MC0203J22010600005","2023-06-01T07:15:00",18.2,33.88711,0.176],
    [2340,"urn:WaterMeter:MC0203J22010600005","2023-06-01T07:30:00",18.6,33.801773,0.179],
    [2341,"urn:WaterMeter:MC0203J22010600005","2023-06-01T07:45:00",19.2,33.852936,0.178],
    [2342,"urn:WaterMeter:MC0203J22010600005","2023-06-01T08:00:00",19.7,33.78936,0.177],
    [2343,"urn:WaterMeter:MC0203J22010600005","2023-06-01T08:15:00",20.2,33.728848,0.174],
    [2344,"urn:WaterMeter:MC0203J22010600005","2023-06-01T08:30:00",20.7,33.661743,0.179],
    [2345,"urn:WaterMeter:MC0203J22010600005","2023-06-01T08:45:00",20.799,33.611275,0.186],
    [2346,"urn:WaterMeter:MC0203J22010600005","2023-06-01T09:00:00",21.6,33.558174,0.179],
    [2347,"urn:WaterMeter:MC0203J22010600005","2023-06-01T09:15:00",22.299,33.49572,0.178],
    [2348,"urn:WaterMeter:MC0203J22010600005","2023-06-01T09:30:00",22.799,33.393314,0.175],
    [2349,"urn:WaterMeter:MC0203J22010600005","2023-06-01T09:45:00",22.899,33.366898,0.176],
    [2350,"urn:WaterMeter:MC0203J22010600005","2023-06-01T10:00:00",23.399,33.358364,0.175],
    [2351,"urn:WaterMeter:MC0203J22010600005","2023-06-01T10:15:00",23.5,33.288544,0.173],
    [2352,"urn:WaterMeter:MC0203J22010600005","2023-06-01T10:30:00",23.799,33.26298,0.174],
    [2353,"urn:WaterMeter:MC0203J22010600005","2023-06-01T10:45:00",24.299,33.156307,0.175],
    [2354,"urn:WaterMeter:MC0203J22010600005","2023-06-01T11:00:00",24.6,33.10623,0.176],
    [2355,"urn:WaterMeter:MC0203J22010600005","2023-06-01T11:15:00",25.1,33.051575,0.171],
    [2356,"urn:WaterMeter:MC0203J22010600005","2023-06-01T11:30:00",25.5,33.00813,0.179],
    [2357,"urn:WaterMeter:MC0203J22010600005","2023-06-01T11:45:00",26,32.94723,0.178],
    [2358,"urn:WaterMeter:MC0203J22010600005","2023-06-01T12:00:00",26.5,32.833923,0.173],
    [2359,"urn:WaterMeter:MC0203J22010600005","2023-06-01T12:15:00",26.6,32.813015,0.179],
    [2360,"urn:WaterMeter:MC0203J22010600005","2023-06-01T12:30:00",26.5,32.73466,0.175],
    [2361,"urn:WaterMeter:MC0203J22010600005","2023-06-01T12:45:00",26.5,32.65553,0.174],
    [2362,"urn:WaterMeter:MC0203J22010600005","2023-06-01T13:00:00",26.299,32.624886,0.177],
    [2363,"urn:WaterMeter:MC0203J22010600005","2023-06-01T13:15:00",26.2,32.565536,0.181],
    [2364,"urn:WaterMeter:MC0203J22010600005","2023-06-01T13:30:00",26.2,32.52209,0.183],
    [2365,"urn:WaterMeter:MC0203J22010600005","2023-06-01T13:45:00",26,32.462357,0.181],
    [2366,"urn:WaterMeter:MC0203J22010600005","2023-06-01T14:00:00",25.7,32.434387,0.176],
    [2367,"urn:WaterMeter:MC0203J22010600005","2023-06-01T14:15:00",25.2,32.44102,0.174],
    [2368,"urn:WaterMeter:MC0203J22010600005","2023-06-01T14:30:00",25,32.42663,0.179],
    [2369,"urn:WaterMeter:MC0203J22010600005","2023-06-01T14:45:00",25.1,32.371197,0.177],
    [2370,"urn:WaterMeter:MC0203J22010600005","2023-06-01T15:00:00",25.2,32.35836,0.178],
    [2371,"urn:WaterMeter:MC0203J22010600005","2023-06-01T15:15:00",25.1,32.31767,0.174],
    [2372,"urn:WaterMeter:MC0203J22010600005","2023-06-01T15:30:00",24.799,32.316505,0.175],
    [2373,"urn:WaterMeter:MC0203J22010600005","2023-06-01T15:45:00",24.5,32.28039,0.185],
    [2374,"urn:WaterMeter:MC0203J22010600005","2023-06-01T16:00:00",24.1,32.222206,0.178],
    [2375,"urn:WaterMeter:MC0203J22010600005","2023-06-01T16:15:00",23.799,32.268406,0.18],
    [2376,"urn:WaterMeter:MC0203J22010600005","2023-06-01T16:30:00",23.5,32.213673,0.179],
    [2377,"urn:WaterMeter:MC0203J22010600005","2023-06-01T16:45:00",23.2,32.21061,0.175],
    [2378,"urn:WaterMeter:MC0203J22010600005","2023-06-01T17:00:00",23,32.213284,0.183],
    [2379,"urn:WaterMeter:MC0203J22010600005","2023-06-01T17:15:00",22.7,32.21953,0.178],
    [2380,"urn:WaterMeter:MC0203J22010600005","2023-06-01T17:30:00",22.299,32.243153,0.182],
    [2381,"urn:WaterMeter:MC0203J22010600005","2023-06-01T17:45:00",22.1,32.19897,0.176],
    [2382,"urn:WaterMeter:MC0203J22010600005","2023-06-01T18:00:00",21.899,32.212547,0.181],
    [2383,"urn:WaterMeter:MC0203J22010600005","2023-06-01T18:15:00",21.7,32.251724,0.173],
    [2384,"urn:WaterMeter:MC0203J22010600005","2023-06-01T18:30:00",21.5,32.26216,0.184],
    [2385,"urn:WaterMeter:MC0203J22010600005","2023-06-01T18:45:00",21.299,32.251724,0.179],
    [2386,"urn:WaterMeter:MC0203J22010600005","2023-06-01T19:00:00",21.2,32.219143,0.183],
    [2387,"urn:WaterMeter:MC0203J22010600005","2023-06-01T19:15:00",21,32.21565,0.182],
    [2388,"urn:WaterMeter:MC0203J22010600005","2023-06-01T19:30:00",20.899,32.230003,0.179],
    [2389,"urn:WaterMeter:MC0203J22010600005","2023-06-01T19:45:00",20.799,32.20475,0.181],
    [2390,"urn:WaterMeter:MC0203J22010600005","2023-06-01T20:00:00",20.6,32.211773,0.176],
    [2391,"urn:WaterMeter:MC0203J22010600005","2023-06-01T20:15:00",20.399,32.19428,0.178],
    [2392,"urn:WaterMeter:MC0203J22010600005","2023-06-01T20:30:00",20.399,32.288574,0.176],
    [2393,"urn:WaterMeter:MC0203J22010600005","2023-06-01T20:45:00",20.299,32.26061,0.182],
    [2394,"urn:WaterMeter:MC0203J22010600005","2023-06-01T21:00:00",20.2,32.279613,0.179],
    [2395,"urn:WaterMeter:MC0203J22010600005","2023-06-01T21:15:00",20.2,32.33163,0.176],
    [2396,"urn:WaterMeter:MC0203J22010600005","2023-06-01T21:30:00",20.2,32.30056,0.184],
    [2397,"urn:WaterMeter:MC0203J22010600005","2023-06-01T21:45:00",20.1,32.33819,0.178],
    [2398,"urn:WaterMeter:MC0203J22010600005","2023-06-01T22:00:00",20.1,32.26957,0.181],
    [2399,"urn:WaterMeter:MC0203J22010600005","2023-06-01T22:15:00",20,32.329655,0.18],
    [2400,"urn:WaterMeter:MC0203J22010600005","2023-06-01T22:30:00",20,32.27345,0.178],
    [2401,"urn:WaterMeter:MC0203J22010600005","2023-06-01T22:45:00",19.899,32.2878,0.177],
    [2402,"urn:WaterMeter:MC0203J22010600005","2023-06-01T23:00:00",19.899,32.3359,0.185],
    [2403,"urn:WaterMeter:MC0203J22010600005","2023-06-01T23:15:00",19.799,32.289738,0.178],
    [2404,"urn:WaterMeter:MC0203J22010600005","2023-06-01T23:30:00",19.6,32.33043,0.181],
    [2405,"urn:WaterMeter:MC0203J22010600005","2023-06-01T23:45:00",19.6,32.290863,0.181],
    [2406,"urn:WaterMeter:MC0203J22010600005","2023-06-02T00:00:00",19.5,32.304092,0.179],
    [2407,"urn:WaterMeter:MC0203J22010600005","2023-06-02T00:15:00",19.5,32.33241,0.183],
    [2408,"urn:WaterMeter:MC0203J22010600005","2023-06-02T00:30:00",19.5,32.283146,0.167],
    [2409,"urn:WaterMeter:MC0203J22010600005","2023-06-02T00:45:00",19.399,32.34133,0.183],
    [2410,"urn:WaterMeter:MC0203J22010600005","2023-06-02T01:00:00",19.399,32.266853,0.177],
    [2411,"urn:WaterMeter:MC0203J22010600005","2023-06-02T01:15:00",19.299,32.305256,0.175],
    [2412,"urn:WaterMeter:MC0203J22010600005","2023-06-02T01:30:00",19.299,32.274223,0.183],
    [2413,"urn:WaterMeter:MC0203J22010600005","2023-06-02T01:45:00",19.2,32.346375,0.18],
    [2414,"urn:WaterMeter:MC0203J22010600005","2023-06-02T02:00:00",19.1,32.293232,0.177],
    [2415,"urn:WaterMeter:MC0203J22010600005","2023-06-02T02:15:00",19,32.31379,0.178],
    [2416,"urn:WaterMeter:MC0203J22010600005","2023-06-02T02:30:00",18.899,32.297886,0.178],
    [2417,"urn:WaterMeter:MC0203J22010600005","2023-06-02T02:45:00",18.899,32.286636,0.185],
    [2418,"urn:WaterMeter:MC0203J22010600005","2023-06-02T03:00:00",18.799,32.308357,0.178],
    [2419,"urn:WaterMeter:MC0203J22010600005","2023-06-02T03:15:00",18.899,32.33082,0.172],
    [2420,"urn:WaterMeter:MC0203J22010600005","2023-06-02T03:30:00",19,32.573254,0.188],
    [2421,"urn:WaterMeter:MC0203J22010600005","2023-06-02T03:45:00",18.899,33.156696,0.187],
    [2422,"urn:WaterMeter:MC0203J22010600005","2023-06-02T04:00:00",18.899,33.91151,0.19],
    [2423,"urn:WaterMeter:MC0203J22010600005","2023-06-02T04:15:00",18.799,34.698986,0.203],
    [2424,"urn:WaterMeter:MC0203J22010600005","2023-06-02T04:30:00",18.799,35.205585,0.199],
    [2425,"urn:WaterMeter:MC0203J22010600005","2023-06-02T04:45:00",18.799,35.531807,0.206],
    [2426,"urn:WaterMeter:MC0203J22010600005","2023-06-02T05:00:00",18.799,35.92626,0.211],
    [2427,"urn:WaterMeter:MC0203J22010600005","2023-06-02T05:15:00",18.7,35.05081,0.205],
    [2428,"urn:WaterMeter:MC0203J22010600005","2023-06-02T05:30:00",18.7,34.558567,0.204],
    [2429,"urn:WaterMeter:MC0203J22010600005","2023-06-02T05:45:00",18.7,34.429398,0.195],
    [2430,"urn:WaterMeter:MC0203J22010600005","2023-06-02T06:00:00",18.6,34.29596,0.197],
    [2431,"urn:WaterMeter:MC0203J22010600005","2023-06-02T06:15:00",18.6,34.266865,0.195],
    [2432,"urn:WaterMeter:MC0203J22010600005","2023-06-02T06:30:00",18.6,34.174156,0.19],
    [2433,"urn:WaterMeter:MC0203J22010600005","2023-06-02T06:45:00",18.6,34.12063,0.194],
    [2434,"urn:WaterMeter:MC0203J22010600005","2023-06-02T07:00:00",18.799,34.080673,0.191],
    [2435,"urn:WaterMeter:MC0203J22010600005","2023-06-02T07:15:00",19,34.025555,0.189],
    [2436,"urn:WaterMeter:MC0203J22010600005","2023-06-02T07:30:00",19.2,34.003094,0.19],
    [2437,"urn:WaterMeter:MC0203J22010600005","2023-06-02T07:45:00",19.6,33.951504,0.187],
    [2438,"urn:WaterMeter:MC0203J22010600005","2023-06-02T08:00:00",19.799,33.86733,0.19],
    [2439,"urn:WaterMeter:MC0203J22010600005","2023-06-02T08:15:00",20.1,33.824234,0.185],
    [2440,"urn:WaterMeter:MC0203J22010600005","2023-06-02T08:30:00",20.7,33.80445,0.186],
    [2441,"urn:WaterMeter:MC0203J22010600005","2023-06-02T08:45:00",21.5,33.716396,0.181],
    [2442,"urn:WaterMeter:MC0203J22010600005","2023-06-02T09:00:00",22.2,33.644672,0.18],
    [2443,"urn:WaterMeter:MC0203J22010600005","2023-06-02T09:15:00",22.799,33.569035,0.186],
    [2444,"urn:WaterMeter:MC0203J22010600005","2023-06-02T09:30:00",23.5,33.549637,0.181],
    [2445,"urn:WaterMeter:MC0203J22010600005","2023-06-02T09:45:00",23.799,33.42978,0.183],
    [2446,"urn:WaterMeter:MC0203J22010600005","2023-06-02T10:00:00",24.2,33.354137,0.182],
    [2447,"urn:WaterMeter:MC0203J22010600005","2023-06-02T10:15:00",24.7,33.26453,0.178],
    [2448,"urn:WaterMeter:MC0203J22010600005","2023-06-02T10:30:00",24.6,33.243973,0.181],
    [2449,"urn:WaterMeter:MC0203J22010600005","2023-06-02T10:45:00",25.299,33.180744,0.185],
    [2450,"urn:WaterMeter:MC0203J22010600005","2023-06-02T11:00:00",25.5,33.134933,0.18],
    [2451,"urn:WaterMeter:MC0203J22010600005","2023-06-02T11:15:00",25.399,33.06705,0.178],
    [2452,"urn:WaterMeter:MC0203J22010600005","2023-06-02T11:30:00",26,32.976322,0.185],
    [2453,"urn:WaterMeter:MC0203J22010600005","2023-06-02T11:45:00",25.799,32.9065,0.18],
    [2454,"urn:WaterMeter:MC0203J22010600005","2023-06-02T12:00:00",25.799,32.86224,0.181],
    [2455,"urn:WaterMeter:MC0203J22010600005","2023-06-02T12:15:00",25.6,32.82,0.181],
    [2456,"urn:WaterMeter:MC0203J22010600005","2023-06-02T12:30:00",24.899,32.77539,0.179],
    [2457,"urn:WaterMeter:MC0203J22010600005","2023-06-02T12:45:00",24.1,32.798664,0.191],
    [2458,"urn:WaterMeter:MC0203J22010600005","2023-06-02T13:00:00",23.6,32.818836,0.188],
    [2459,"urn:WaterMeter:MC0203J22010600005","2023-06-02T13:15:00",23.2,32.78974,0.187],
    [2460,"urn:WaterMeter:MC0203J22010600005","2023-06-02T13:30:00",22.799,32.745872,0.188],
    [2461,"urn:WaterMeter:MC0203J22010600005","2023-06-02T13:45:00",22.6,32.761425,0.185],
    [2462,"urn:WaterMeter:MC0203J22010600005","2023-06-02T14:00:00",22.5,32.73505,0.18],
    [2463,"urn:WaterMeter:MC0203J22010600005","2023-06-02T14:15:00",22.5,32.706306,0.191],
    [2464,"urn:WaterMeter:MC0203J22010600005","2023-06-02T14:30:00",22.399,32.70902,0.191],
    [2465,"urn:WaterMeter:MC0203J22010600005","2023-06-02T14:45:00",22.399,32.702076,0.19],
    [2466,"urn:WaterMeter:MC0203J22010600005","2023-06-02T15:00:00",22.299,32.68846,0.181],
    [2467,"urn:WaterMeter:MC0203J22010600005","2023-06-02T15:15:00",22.2,32.70518,0.184],
    [2468,"urn:WaterMeter:MC0203J22010600005","2023-06-02T15:30:00",22.1,32.691216,0.179],
    [2469,"urn:WaterMeter:MC0203J22010600005","2023-06-02T15:45:00",22.1,32.674538,0.178],
    [2470,"urn:WaterMeter:MC0203J22010600005","2023-06-02T16:00:00",22.1,32.678764,0.183],
    [2471,"urn:WaterMeter:MC0203J22010600005","2023-06-02T16:15:00",22.2,32.606266,0.179],
    [2472,"urn:WaterMeter:MC0203J22010600005","2023-06-02T16:30:00",22.2,32.621742,0.181],
    [2473,"urn:WaterMeter:MC0203J22010600005","2023-06-02T16:45:00",22.299,32.60704,0.179],
    [2474,"urn:WaterMeter:MC0203J22010600005","2023-06-02T17:00:00",22.399,32.589546,0.185],
    [2475,"urn:WaterMeter:MC0203J22010600005","2023-06-02T17:15:00",22.5,32.55002,0.183],
    [2476,"urn:WaterMeter:MC0203J22010600005","2023-06-02T17:30:00",22.5,32.519764,0.18],
    [2477,"urn:WaterMeter:MC0203J22010600005","2023-06-02T17:45:00",22.5,32.475117,0.175],
    [2478,"urn:WaterMeter:MC0203J22010600005","2023-06-02T18:00:00",22.6,32.423565,0.182],
    [2479,"urn:WaterMeter:MC0203J22010600005","2023-06-02T18:15:00",22.5,32.394085,0.186],
    [2480,"urn:WaterMeter:MC0203J22010600005","2023-06-02T18:30:00",22.399,32.416157,0.181],
    [2481,"urn:WaterMeter:MC0203J22010600005","2023-06-02T18:45:00",22.299,32.41309,0.182],
    [2482,"urn:WaterMeter:MC0203J22010600005","2023-06-02T19:00:00",22.1,32.41732,0.183],
    [2483,"urn:WaterMeter:MC0203J22010600005","2023-06-02T19:15:00",21.899,32.377754,0.182],
    [2484,"urn:WaterMeter:MC0203J22010600005","2023-06-02T19:30:00",21.7,32.419296,0.183],
    [2485,"urn:WaterMeter:MC0203J22010600005","2023-06-02T19:45:00",21.5,32.366154,0.184],
    [2486,"urn:WaterMeter:MC0203J22010600005","2023-06-02T20:00:00",21.299,32.40572,0.179],
    [2487,"urn:WaterMeter:MC0203J22010600005","2023-06-02T20:15:00",21.2,32.390205,0.179],
    [2488,"urn:WaterMeter:MC0203J22010600005","2023-06-02T20:30:00",21.2,32.40611,0.176],
    [2489,"urn:WaterMeter:MC0203J22010600005","2023-06-02T20:45:00",21.1,32.366154,0.185],
    [2490,"urn:WaterMeter:MC0203J22010600005","2023-06-02T21:00:00",21,32.35413,0.177],
    [2491,"urn:WaterMeter:MC0203J22010600005","2023-06-02T21:15:00",20.899,32.34715,0.186],
    [2492,"urn:WaterMeter:MC0203J22010600005","2023-06-02T21:30:00",20.799,32.359524,0.179],
    [2493,"urn:WaterMeter:MC0203J22010600005","2023-06-02T21:45:00",20.7,32.345596,0.186],
    [2494,"urn:WaterMeter:MC0203J22010600005","2023-06-02T22:00:00",20.6,32.321934,0.176],
    [2495,"urn:WaterMeter:MC0203J22010600005","2023-06-02T22:15:00",20.5,32.361115,0.183],
    [2496,"urn:WaterMeter:MC0203J22010600005","2023-06-02T22:30:00",20.399,32.3359,0.18],
    [2497,"urn:WaterMeter:MC0203J22010600005","2023-06-02T22:45:00",20.299,32.355293,0.185],
    [2498,"urn:WaterMeter:MC0203J22010600005","2023-06-02T23:00:00",20.2,32.31689,0.179],
    [2499,"urn:WaterMeter:MC0203J22010600005","2023-06-02T23:15:00",20.1,32.33082,0.177],
    [2500,"urn:WaterMeter:MC0203J22010600005","2023-06-02T23:30:00",20.1,32.355293,0.178],
    [2501,"urn:WaterMeter:MC0203J22010600005","2023-06-02T23:45:00",20.1,32.322323,0.18],
    [2502,"urn:WaterMeter:MC0203J22010600005","2023-06-03T00:00:00",20,32.31767,0.18],
    [2503,"urn:WaterMeter:MC0203J22010600005","2023-06-03T00:15:00",20,32.314953,0.186],
    [2504,"urn:WaterMeter:MC0203J22010600005","2023-06-03T00:30:00",20,32.30642,0.18],
    [2505,"urn:WaterMeter:MC0203J22010600005","2023-06-03T00:45:00",20,32.3378,0.187],
    [2506,"urn:WaterMeter:MC0203J22010600005","2023-06-03T01:00:00",19.899,32.3359,0.182],
    [2507,"urn:WaterMeter:MC0203J22010600005","2023-06-03T01:15:00",19.899,32.329655,0.18],
    [2508,"urn:WaterMeter:MC0203J22010600005","2023-06-03T01:30:00",19.899,32.29901,0.181],
    [2509,"urn:WaterMeter:MC0203J22010600005","2023-06-03T01:45:00",19.799,32.323486,0.184],
    [2510,"urn:WaterMeter:MC0203J22010600005","2023-06-03T02:00:04",19.799,32.26022,0.176],
    [2511,"urn:WaterMeter:MC0203J22010600005","2023-06-03T02:15:00",19.7,32.24668,0.176],
    [2512,"urn:WaterMeter:MC0203J22010600005","2023-06-03T02:30:00",19.6,32.30681,0.181],
    [2513,"urn:WaterMeter:MC0203J22010600005","2023-06-03T02:45:00",19.5,32.23543,0.189],
    [2514,"urn:WaterMeter:MC0203J22010600005","2023-06-03T03:00:00",19.5,32.259094,0.183],
    [2515,"urn:WaterMeter:MC0203J22010600005","2023-06-03T03:15:00",19.399,32.25056,0.179],
    [2516,"urn:WaterMeter:MC0203J22010600005","2023-06-03T03:30:00",19.299,32.247845,0.185],
    [2517,"urn:WaterMeter:MC0203J22010600005","2023-06-03T03:45:00",19.299,32.275776,0.18],
    [2518,"urn:WaterMeter:MC0203J22010600005","2023-06-03T04:00:00",19.2,32.25793,0.177],
    [2519,"urn:WaterMeter:MC0203J22010600005","2023-06-03T04:15:00",19.2,32.21406,0.183],
    [2520,"urn:WaterMeter:MC0203J22010600005","2023-06-03T04:30:00",19.2,32.235046,0.182],
    [2521,"urn:WaterMeter:MC0203J22010600005","2023-06-03T04:45:00",19.2,32.270344,0.181],
    [2522,"urn:WaterMeter:MC0203J22010600005","2023-06-03T05:00:00",19.2,32.238537,0.181],
    [2523,"urn:WaterMeter:MC0203J22010600005","2023-06-03T05:15:00",19.1,32.209057,0.178],
    [2524,"urn:WaterMeter:MC0203J22010600005","2023-06-03T05:30:00",19,32.20983,0.176],
    [2525,"urn:WaterMeter:MC0203J22010600005","2023-06-03T05:45:00",18.899,32.18617,0.173],
    [2526,"urn:WaterMeter:MC0203J22010600005","2023-06-03T06:00:00",18.899,32.212936,0.176],
    [2527,"urn:WaterMeter:MC0203J22010600005","2023-06-03T06:15:00",19,32.186558,0.178],
    [2528,"urn:WaterMeter:MC0203J22010600005","2023-06-03T06:30:00",19.2,32.189663,0.178],
    [2529,"urn:WaterMeter:MC0203J22010600005","2023-06-03T06:45:00",19.299,32.17298,0.185],
    [2530,"urn:WaterMeter:MC0203J22010600005","2023-06-03T07:00:00",19.399,32.20983,0.179],
    [2531,"urn:WaterMeter:MC0203J22010600005","2023-06-03T07:15:00",19.6,32.168327,0.177],
    [2532,"urn:WaterMeter:MC0203J22010600005","2023-06-03T07:30:00",19.899,32.172207,0.176],
    [2533,"urn:WaterMeter:MC0203J22010600005","2023-06-03T07:45:00",20.299,32.100056,0.17],
    [2534,"urn:WaterMeter:MC0203J22010600005","2023-06-03T08:00:00",20.5,32.124454,0.182],
    [2535,"urn:WaterMeter:MC0203J22010600005","2023-06-03T08:15:00",20.6,32.083378,0.175],
    [2536,"urn:WaterMeter:MC0203J22010600005","2023-06-03T08:30:00",20.899,32.022087,0.177],
    [2537,"urn:WaterMeter:MC0203J22010600005","2023-06-03T08:45:00",21.5,31.98132,0.169],
    [2538,"urn:WaterMeter:MC0203J22010600005","2023-06-03T09:00:00",22,31.91111,0.172],
    [2539,"urn:WaterMeter:MC0203J22010600005","2023-06-03T09:15:00",21.7,31.923523,0.168],
    [2540,"urn:WaterMeter:MC0203J22010600005","2023-06-03T09:30:00",21.899,31.897184,0.176],
    [2541,"urn:WaterMeter:MC0203J22010600005","2023-06-03T09:45:00",22.899,31.875036,0.163],
    [2542,"urn:WaterMeter:MC0203J22010600005","2023-06-03T10:00:00",24,31.812622,0.171],
    [2543,"urn:WaterMeter:MC0203J22010600005","2023-06-03T10:15:00",24,31.74125,0.167],
    [2544,"urn:WaterMeter:MC0203J22010600005","2023-06-03T10:30:00",24.1,31.713707,0.169],
    [2545,"urn:WaterMeter:MC0203J22010600005","2023-06-03T10:45:00",24.6,31.665997,0.169],
    [2546,"urn:WaterMeter:MC0203J22010600005","2023-06-03T11:00:00",24.7,31.609364,0.169],
    [2547,"urn:WaterMeter:MC0203J22010600005","2023-06-03T11:15:00",25.6,31.551954,0.166],
    [2548,"urn:WaterMeter:MC0203J22010600005","2023-06-03T11:30:00",25.5,31.471659,0.171],
    [2549,"urn:WaterMeter:MC0203J22010600005","2023-06-03T11:45:00",24.6,35.072884,0.185],
    [2550,"urn:WaterMeter:MC0203J22010600005","2023-06-03T12:00:00",21.899,41.67304,0.228],
    [2551,"urn:WaterMeter:MC0203J22010600005","2023-06-03T12:15:00",22.299,41.67071,0.218],
    [2552,"urn:WaterMeter:MC0203J22010600005","2023-06-03T12:30:00",22.2,41.54193,0.224],
    [2553,"urn:WaterMeter:MC0203J22010600005","2023-06-03T12:45:00",22.1,41.517105,0.23],
    [2554,"urn:WaterMeter:MC0203J22010600005","2023-06-03T13:00:00",22.1,41.55861,0.226],
    [2555,"urn:WaterMeter:MC0203J22010600005","2023-06-03T13:15:00",22.299,41.018616,0.235],
    [2556,"urn:WaterMeter:MC0203J22010600005","2023-06-03T13:30:00",22.5,40.09933,0.223],
    [2557,"urn:WaterMeter:MC0203J22010600005","2023-06-03T13:45:00",23,39.960033,0.22],
    [2558,"urn:WaterMeter:MC0203J22010600005","2023-06-03T14:00:00",23.299,39.783966,0.217],
    [2559,"urn:WaterMeter:MC0203J22010600005","2023-06-03T14:15:00",23.7,39.808407,0.215],
    [2560,"urn:WaterMeter:MC0203J22010600005","2023-06-03T14:30:00",23.899,39.54851,0.215],
    [2561,"urn:WaterMeter:MC0203J22010600005","2023-06-03T14:45:00",23.899,39.224964,0.211],
    [2562,"urn:WaterMeter:MC0203J22010600005","2023-06-03T15:00:00",23.799,38.97128,0.212],
    [2563,"urn:WaterMeter:MC0203J22010600005","2023-06-03T15:15:00",23.799,38.67845,0.21],
    [2564,"urn:WaterMeter:MC0203J22010600005","2023-06-03T15:30:00",23.7,38.457348,0.212],
    [2565,"urn:WaterMeter:MC0203J22010600005","2023-06-03T15:45:00",23.6,38.253277,0.198],
    [2566,"urn:WaterMeter:MC0203J22010600005","2023-06-03T16:00:00",23.5,37.81844,0.206],
    [2567,"urn:WaterMeter:MC0203J22010600005","2023-06-03T16:15:00",23.399,37.660603,0.207],
    [2568,"urn:WaterMeter:MC0203J22010600005","2023-06-03T16:30:00",23.299,37.242836,0.203],
    [2569,"urn:WaterMeter:MC0203J22010600005","2023-06-03T16:45:00",23.2,36.42355,0.203],
    [2570,"urn:WaterMeter:MC0203J22010600005","2023-06-03T17:00:00",23.1,35.079903,0.194],
    [2571,"urn:WaterMeter:MC0203J22010600005","2023-06-03T17:15:00",22.899,34.82738,0.193],
    [2572,"urn:WaterMeter:MC0203J22010600005","2023-06-03T17:30:00",22.7,34.684597,0.195],
    [2573,"urn:WaterMeter:MC0203J22010600005","2023-06-03T17:45:00",22.6,34.52676,0.186],
    [2574,"urn:WaterMeter:MC0203J22010600005","2023-06-03T18:00:00",22.399,34.529823,0.191],
    [2575,"urn:WaterMeter:MC0203J22010600005","2023-06-03T18:15:00",22.299,34.435562,0.19],
    [2576,"urn:WaterMeter:MC0203J22010600005","2023-06-03T18:30:00",22.2,34.347897,0.186],
    [2577,"urn:WaterMeter:MC0203J22010600005","2023-06-03T18:45:00",22,34.30604,0.187],
    [2578,"urn:WaterMeter:MC0203J22010600005","2023-06-03T19:00:00",21.899,34.307594,0.187],
    [2579,"urn:WaterMeter:MC0203J22010600005","2023-06-03T19:15:00",21.799,34.1792,0.187],
    [2580,"urn:WaterMeter:MC0203J22010600005","2023-06-03T19:30:00",21.6,34.165237,0.183],
    [2581,"urn:WaterMeter:MC0203J22010600005","2023-06-03T19:45:00",21.5,34.105846,0.189],
    [2582,"urn:WaterMeter:MC0203J22010600005","2023-06-03T20:00:00",21.399,34.111706,0.181],
    [2583,"urn:WaterMeter:MC0203J22010600005","2023-06-03T20:15:00",21.2,34.059338,0.196],
    [2584,"urn:WaterMeter:MC0203J22010600005","2023-06-03T20:30:00",21.1,34.0349,0.18],
    [2585,"urn:WaterMeter:MC0203J22010600005","2023-06-03T20:45:00",21,33.938313,0.181],
    [2586,"urn:WaterMeter:MC0203J22010600005","2023-06-03T21:00:00",20.899,33.906895,0.192],
    [2587,"urn:WaterMeter:MC0203J22010600005","2023-06-03T21:15:00",20.799,33.910347,0.191],
    [2588,"urn:WaterMeter:MC0203J22010600005","2023-06-03T21:30:00",20.7,33.861122,0.191],
    [2589,"urn:WaterMeter:MC0203J22010600005","2023-06-03T21:45:00",20.6,33.840565,0.186],
    [2590,"urn:WaterMeter:MC0203J22010600005","2023-06-03T22:00:00",20.5,33.781216,0.19],
    [2591,"urn:WaterMeter:MC0203J22010600005","2023-06-03T22:15:00",20.399,33.775745,0.181],
    [2592,"urn:WaterMeter:MC0203J22010600005","2023-06-03T22:30:00",20.299,33.722256,0.184],
    [2593,"urn:WaterMeter:MC0203J22010600005","2023-06-03T22:45:00",20.2,33.770355,0.187],
    [2594,"urn:WaterMeter:MC0203J22010600005","2023-06-03T23:00:00",20.1,33.674156,0.18],
    [2595,"urn:WaterMeter:MC0203J22010600005","2023-06-03T23:15:00",20,33.655537,0.184],
    [2596,"urn:WaterMeter:MC0203J22010600005","2023-06-03T23:30:00",19.899,33.638428,0.186],
    [2597,"urn:WaterMeter:MC0203J22010600005","2023-06-03T23:45:00",19.799,33.600414,0.181],
    [2598,"urn:WaterMeter:MC0203J22010600005","2023-06-04T00:00:00",19.799,33.570198,0.188],
    [2599,"urn:WaterMeter:MC0203J22010600005","2023-06-04T00:15:00",19.7,33.565544,0.178],
    [2600,"urn:WaterMeter:MC0203J22010600005","2023-06-04T00:30:00",19.6,33.552315,0.183],
    [2601,"urn:WaterMeter:MC0203J22010600005","2023-06-04T00:45:00",19.6,33.508522,0.19],
    [2602,"urn:WaterMeter:MC0203J22010600005","2023-06-04T01:00:00",19.5,33.530243,0.182],
    [2603,"urn:WaterMeter:MC0203J22010600005","2023-06-04T01:15:00",19.399,33.47322,0.181],
    [2604,"urn:WaterMeter:MC0203J22010600005","2023-06-04T01:30:00",19.399,33.43556,0.183],
    [2605,"urn:WaterMeter:MC0203J22010600005","2023-06-04T01:45:00",19.299,33.427025,0.182],
    [2606,"urn:WaterMeter:MC0203J22010600005","2023-06-04T02:00:00",19.299,33.44801,0.178],
    [2607,"urn:WaterMeter:MC0203J22010600005","2023-06-04T02:15:00",19.2,33.402237,0.186],
    [2608,"urn:WaterMeter:MC0203J22010600005","2023-06-04T02:30:00",19.2,33.380512,0.187],
    [2609,"urn:WaterMeter:MC0203J22010600005","2023-06-04T02:45:00",19.2,33.359955,0.172],
    [2610,"urn:WaterMeter:MC0203J22010600005","2023-06-04T03:00:00",19.1,33.29789,0.177],
    [2611,"urn:WaterMeter:MC0203J22010600005","2023-06-04T03:15:00",19,33.27384,0.184],
    [2612,"urn:WaterMeter:MC0203J22010600005","2023-06-04T03:30:00",18.899,33.36267,0.183],
    [2613,"urn:WaterMeter:MC0203J22010600005","2023-06-04T03:45:00",18.799,33.294014,0.183],
    [2614,"urn:WaterMeter:MC0203J22010600005","2023-06-04T04:00:00",18.799,33.286255,0.181],
    [2615,"urn:WaterMeter:MC0203J22010600005","2023-06-04T04:15:00",18.7,33.29595,0.184],
    [2616,"urn:WaterMeter:MC0203J22010600005","2023-06-04T04:30:00",18.6,33.259876,0.176],
    [2617,"urn:WaterMeter:MC0203J22010600005","2023-06-04T04:45:00",18.5,33.24277,0.182],
    [2618,"urn:WaterMeter:MC0203J22010600005","2023-06-04T05:00:00",18.399,33.22458,0.177],
    [2619,"urn:WaterMeter:MC0203J22010600005","2023-06-04T05:15:00",18.399,33.208675,0.181],
    [2620,"urn:WaterMeter:MC0203J22010600005","2023-06-04T05:30:00",18.399,33.23152,0.186],
    [2621,"urn:WaterMeter:MC0203J22010600005","2023-06-04T05:45:00",18.399,33.212902,0.188],
    [2622,"urn:WaterMeter:MC0203J22010600005","2023-06-04T06:00:00",18.5,33.177643,0.182],
    [2623,"urn:WaterMeter:MC0203J22010600005","2023-06-04T06:15:00",18.6,33.170662,0.183],
    [2624,"urn:WaterMeter:MC0203J22010600005","2023-06-04T06:30:00",18.7,33.148163,0.177],
    [2625,"urn:WaterMeter:MC0203J22010600005","2023-06-04T06:45:00",18.799,33.175316,0.178],
    [2626,"urn:WaterMeter:MC0203J22010600005","2023-06-04T07:00:00",19.1,33.135323,0.179],
    [2627,"urn:WaterMeter:MC0203J22010600005","2023-06-04T07:15:00",19.299,33.105453,0.178],
    [2628,"urn:WaterMeter:MC0203J22010600005","2023-06-04T07:30:00",19.6,33.091915,0.174],
    [2629,"urn:WaterMeter:MC0203J22010600005","2023-06-04T07:45:00",19.899,33.022484,0.174],
    [2630,"urn:WaterMeter:MC0203J22010600005","2023-06-04T08:00:00",20.2,32.96934,0.179],
    [2631,"urn:WaterMeter:MC0203J22010600005","2023-06-04T08:15:00",20.399,32.95999,0.178],
    [2632,"urn:WaterMeter:MC0203J22010600005","2023-06-04T08:30:00",20.799,32.953438,0.176],
    [2633,"urn:WaterMeter:MC0203J22010600005","2023-06-04T08:45:00",21.5,32.876633,0.167],
    [2634,"urn:WaterMeter:MC0203J22010600005","2023-06-04T09:00:00",22.1,32.89211,0.168],
    [2635,"urn:WaterMeter:MC0203J22010600005","2023-06-04T09:15:00",22.7,32.798664,0.17],
    [2636,"urn:WaterMeter:MC0203J22010600005","2023-06-04T09:30:00",23.299,32.704403,0.172],
    [2637,"urn:WaterMeter:MC0203J22010600005","2023-06-04T09:45:00",23.5,32.691605,0.177],
    [2638,"urn:WaterMeter:MC0203J22010600005","2023-06-04T10:00:00",23.899,32.60933,0.171],
    [2639,"urn:WaterMeter:MC0203J22010600005","2023-06-04T10:15:00",24.399,32.562046,0.174],
    [2640,"urn:WaterMeter:MC0203J22010600005","2023-06-04T10:30:00",25,32.52597,0.176],
    [2641,"urn:WaterMeter:MC0203J22010600005","2023-06-04T10:45:00",25.5,32.4449,0.171],
    [2642,"urn:WaterMeter:MC0203J22010600005","2023-06-04T11:00:00",26,32.38555,0.167],
    [2643,"urn:WaterMeter:MC0203J22010600005","2023-06-04T11:15:00",26.5,32.320343,0.173],
    [2644,"urn:WaterMeter:MC0203J22010600005","2023-06-04T11:30:00",27,32.22884,0.166],
    [2645,"urn:WaterMeter:MC0203J22010600005","2023-06-04T11:45:00",27.299,32.16173,0.173],
    [2646,"urn:WaterMeter:MC0203J22010600005","2023-06-04T12:00:00",27.5,32.0973,0.171],
    [2647,"urn:WaterMeter:MC0203J22010600005","2023-06-04T12:15:00",27.6,32.093075,0.175],
    [2648,"urn:WaterMeter:MC0203J22010600005","2023-06-04T12:30:00",27.6,31.968906,0.171],
    [2649,"urn:WaterMeter:MC0203J22010600005","2023-06-04T12:45:00",27.6,31.89482,0.169],
    [2650,"urn:WaterMeter:MC0203J22010600005","2023-06-04T13:00:00",27.5,31.836245,0.169],
    [2651,"urn:WaterMeter:MC0203J22010600005","2023-06-04T13:15:00",27.299,31.797455,0.17],
    [2652,"urn:WaterMeter:MC0203J22010600005","2023-06-04T13:30:00",27.2,31.768751,0.176],
    [2653,"urn:WaterMeter:MC0203J22010600005","2023-06-04T13:45:00",27.1,31.719875,0.173],
    [2654,"urn:WaterMeter:MC0203J22010600005","2023-06-04T14:00:00",26.799,31.701296,0.172],
    [2655,"urn:WaterMeter:MC0203J22010600005","2023-06-04T14:15:00",26.6,31.66522,0.173],
    [2656,"urn:WaterMeter:MC0203J22010600005","2023-06-04T14:30:00",26.5,31.644274,0.174],
    [2657,"urn:WaterMeter:MC0203J22010600005","2023-06-04T14:45:00",26.5,31.584497,0.17],
    [2658,"urn:WaterMeter:MC0203J22010600005","2023-06-04T15:00:00",26.299,31.555017,0.17],
    [2659,"urn:WaterMeter:MC0203J22010600005","2023-06-04T15:15:00",26.1,31.560099,0.17],
    [2660,"urn:WaterMeter:MC0203J22010600005","2023-06-04T15:30:00",25.799,31.510448,0.179],
    [2661,"urn:WaterMeter:MC0203J22010600005","2023-06-04T15:45:00",25.5,31.508896,0.175],
    [2662,"urn:WaterMeter:MC0203J22010600005","2023-06-04T16:00:00",25.299,31.500362,0.171],
    [2663,"urn:WaterMeter:MC0203J22010600005","2023-06-04T16:15:00",25.2,31.542217,0.171],
    [2664,"urn:WaterMeter:MC0203J22010600005","2023-06-04T16:30:00",25.2,31.498423,0.169],
    [2665,"urn:WaterMeter:MC0203J22010600005","2023-06-04T16:45:00",25,31.479416,0.173],
    [2666,"urn:WaterMeter:MC0203J22010600005","2023-06-04T17:00:00",24.899,31.461185,0.176],
    [2667,"urn:WaterMeter:MC0203J22010600005","2023-06-04T17:15:00",24.7,31.448345,0.179],
    [2668,"urn:WaterMeter:MC0203J22010600005","2023-06-04T17:30:00",24.5,31.437485,0.177],
    [2669,"urn:WaterMeter:MC0203J22010600005","2023-06-04T17:45:00",24.299,31.448345,0.17],
    [2670,"urn:WaterMeter:MC0203J22010600005","2023-06-04T18:00:00",24.2,31.420456,0.178],
    [2671,"urn:WaterMeter:MC0203J22010600005","2023-06-04T18:15:00",24,31.439035,0.176],
    [2672,"urn:WaterMeter:MC0203J22010600005","2023-06-04T18:30:00",23.799,31.410757,0.169],
    [2673,"urn:WaterMeter:MC0203J22010600005","2023-06-04T18:45:00",23.6,31.454979,0.18],
    [2674,"urn:WaterMeter:MC0203J22010600005","2023-06-04T19:00:00",23.399,31.427399,0.179],
    [2675,"urn:WaterMeter:MC0203J22010600005","2023-06-04T19:15:00",23.2,31.42511,0.177],
    [2676,"urn:WaterMeter:MC0203J22010600005","2023-06-04T19:30:00",23.1,31.388222,0.163],
    [2677,"urn:WaterMeter:MC0203J22010600005","2023-06-04T19:45:00",22.899,31.362658,0.175],
    [2678,"urn:WaterMeter:MC0203J22010600005","2023-06-04T20:00:00",22.7,31.387833,0.176],
    [2679,"urn:WaterMeter:MC0203J22010600005","2023-06-04T20:15:00",22.6,31.392914,0.177],
    [2680,"urn:WaterMeter:MC0203J22010600005","2023-06-04T20:30:00",22.399,31.387056,0.172],
    [2681,"urn:WaterMeter:MC0203J22010600005","2023-06-04T20:45:00",22.2,31.389385,0.18],
    [2682,"urn:WaterMeter:MC0203J22010600005","2023-06-04T21:00:00",22.1,31.379686,0.179],
    [2683,"urn:WaterMeter:MC0203J22010600005","2023-06-04T21:15:00",21.899,31.432093,0.178],
    [2684,"urn:WaterMeter:MC0203J22010600005","2023-06-04T21:30:00",21.7,31.38283,0.184],
    [2685,"urn:WaterMeter:MC0203J22010600005","2023-06-04T21:45:00",21.6,31.38283,0.176],
    [2686,"urn:WaterMeter:MC0203J22010600005","2023-06-04T22:00:00",21.5,31.40455,0.179],
    [2687,"urn:WaterMeter:MC0203J22010600005","2023-06-04T22:15:00",21.299,31.431316,0.177],
    [2688,"urn:WaterMeter:MC0203J22010600005","2023-06-04T22:30:00",21.2,31.40878,0.173],
    [2689,"urn:WaterMeter:MC0203J22010600005","2023-06-04T22:45:00",21,31.451487,0.176],
    [2690,"urn:WaterMeter:MC0203J22010600005","2023-06-04T23:00:00",20.899,31.46041,0.176],
    [2691,"urn:WaterMeter:MC0203J22010600005","2023-06-04T23:15:00",20.799,31.453426,0.179],
    [2692,"urn:WaterMeter:MC0203J22010600005","2023-06-04T23:30:00",20.7,31.440239,0.177],
    [2693,"urn:WaterMeter:MC0203J22010600005","2023-06-04T23:45:00",20.6,31.473598,0.175],
    [2694,"urn:WaterMeter:MC0203J22010600005","2023-06-05T00:00:00",20.399,31.407616,0.176],
    [2695,"urn:WaterMeter:MC0203J22010600005","2023-06-05T00:15:00",20.299,31.442179,0.178],
    [2696,"urn:WaterMeter:MC0203J22010600005","2023-06-05T00:30:00",20.2,31.43248,0.173],
    [2697,"urn:WaterMeter:MC0203J22010600005","2023-06-05T00:45:00",20.1,31.477825,0.175],
    [2698,"urn:WaterMeter:MC0203J22010600005","2023-06-05T01:00:00",20,31.463125,0.175],
    [2699,"urn:WaterMeter:MC0203J22010600005","2023-06-05T01:15:00",19.899,31.445242,0.171],
    [2700,"urn:WaterMeter:MC0203J22010600005","2023-06-05T01:30:00",19.799,31.437485,0.177],
    [2701,"urn:WaterMeter:MC0203J22010600005","2023-06-05T01:45:00",19.7,31.4639,0.175],
    [2702,"urn:WaterMeter:MC0203J22010600005","2023-06-05T02:00:00",19.6,31.43054,0.175],
    [2703,"urn:WaterMeter:MC0203J22010600005","2023-06-05T02:15:00",19.5,31.485195,0.177],
    [2704,"urn:WaterMeter:MC0203J22010600005","2023-06-05T02:30:00",19.5,31.464289,0.183],
    [2705,"urn:WaterMeter:MC0203J22010600005","2023-06-05T02:45:00",19.399,31.456879,0.177],
    [2706,"urn:WaterMeter:MC0203J22010600005","2023-06-05T03:00:00",19.299,31.432869,0.179],
    [2707,"urn:WaterMeter:MC0203J22010600005","2023-06-05T03:15:00",19.2,31.448345,0.176],
    [2708,"urn:WaterMeter:MC0203J22010600005","2023-06-05T03:30:00",19.1,31.443342,0.175],
    [2709,"urn:WaterMeter:MC0203J22010600005","2023-06-05T03:45:00",19,31.458042,0.167],
    [2710,"urn:WaterMeter:MC0203J22010600005","2023-06-05T04:00:00",19,31.460022,0.174],
    [2711,"urn:WaterMeter:MC0203J22010600005","2023-06-05T04:15:00",18.899,31.471659,0.174],
    [2712,"urn:WaterMeter:MC0203J22010600005","2023-06-05T04:30:00",18.799,31.455366,0.172],
    [2713,"urn:WaterMeter:MC0203J22010600005","2023-06-05T04:45:00",18.7,31.458857,0.182],
    [2714,"urn:WaterMeter:MC0203J22010600005","2023-06-05T05:00:00",18.6,31.468128,0.175],
    [2715,"urn:WaterMeter:MC0203J22010600005","2023-06-05T05:15:00",18.6,31.463125,0.172],
    [2716,"urn:WaterMeter:MC0203J22010600005","2023-06-05T05:30:00",18.6,31.460022,0.173],
    [2717,"urn:WaterMeter:MC0203J22010600005","2023-06-05T05:45:00",18.6,31.487135,0.172],
    [2718,"urn:WaterMeter:MC0203J22010600005","2023-06-05T06:00:00",18.6,31.466188,0.18],
    [2719,"urn:WaterMeter:MC0203J22010600005","2023-06-05T06:15:00",18.7,31.463125,0.173],
    [2720,"urn:WaterMeter:MC0203J22010600005","2023-06-05T06:30:00",18.799,31.444893,0.171],
    [2721,"urn:WaterMeter:MC0203J22010600005","2023-06-05T06:45:00",18.899,31.401836,0.177],
    [2722,"urn:WaterMeter:MC0203J22010600005","2023-06-05T07:00:00",19,31.422396,0.173],
    [2723,"urn:WaterMeter:MC0203J22010600005","2023-06-05T07:15:00",19.2,31.435972,0.172],
    [2724,"urn:WaterMeter:MC0203J22010600005","2023-06-05T07:30:00",19.5,31.419641,0.176],
    [2725,"urn:WaterMeter:MC0203J22010600005","2023-06-05T07:45:00",19.899,31.401836,0.168],
    [2726,"urn:WaterMeter:MC0203J22010600005","2023-06-05T08:00:00",20.299,31.342875,0.165],
    [2727,"urn:WaterMeter:MC0203J22010600005","2023-06-05T08:15:00",20.6,31.31258,0.17],
    [2728,"urn:WaterMeter:MC0203J22010600005","2023-06-05T08:30:00",21.2,31.263317,0.163],
    [2729,"urn:WaterMeter:MC0203J22010600005","2023-06-05T08:45:00",21.899,31.227282,0.165],
    [2730,"urn:WaterMeter:MC0203J22010600005","2023-06-05T09:00:00",22.5,31.161339,0.17],
    [2731,"urn:WaterMeter:MC0203J22010600005","2023-06-05T09:15:00",23.1,31.185,0.16],
    [2732,"urn:WaterMeter:MC0203J22010600005","2023-06-05T09:30:00",23.6,31.103153,0.161],
    [2733,"urn:WaterMeter:MC0203J22010600005","2023-06-05T09:45:00",24.2,31.036434,0.163],
    [2734,"urn:WaterMeter:MC0203J22010600005","2023-06-05T10:00:00",24.7,30.985231,0.16],
    [2735,"urn:WaterMeter:MC0203J22010600005","2023-06-05T10:15:00",25.299,30.92468,0.171],
    [2736,"urn:WaterMeter:MC0203J22010600005","2023-06-05T10:30:00",25.7,30.863781,0.161],
    [2737,"urn:WaterMeter:MC0203J22010600005","2023-06-05T10:45:00",26.1,30.807922,0.168],
    [2738,"urn:WaterMeter:MC0203J22010600005","2023-06-05T11:00:00",26.6,30.748962,0.162],
    [2739,"urn:WaterMeter:MC0203J22010600005","2023-06-05T11:15:00",27.1,30.673748,0.16],
    [2740,"urn:WaterMeter:MC0203J22010600005","2023-06-05T11:30:00",27.6,30.591513,0.161],
    [2741,"urn:WaterMeter:MC0203J22010600005","2023-06-05T11:45:00",28,30.522467,0.162],
    [2742,"urn:WaterMeter:MC0203J22010600005","2023-06-05T12:00:00",28.2,30.450317,0.161],
    [2743,"urn:WaterMeter:MC0203J22010600005","2023-06-05T12:15:00",28.299,30.409937,0.158],
    [2744,"urn:WaterMeter:MC0203J22010600005","2023-06-05T12:30:00",28.2,30.328129,0.166],
    [2745,"urn:WaterMeter:MC0203J22010600005","2023-06-05T12:45:00",28.2,30.258307,0.166],
    [2746,"urn:WaterMeter:MC0203J22010600005","2023-06-05T13:00:00",28.1,30.231153,0.165],
    [2747,"urn:WaterMeter:MC0203J22010600005","2023-06-05T13:15:00",28.1,30.196205,0.163],
    [2748,"urn:WaterMeter:MC0203J22010600005","2023-06-05T13:30:00",28,30.139183,0.163],
    [2749,"urn:WaterMeter:MC0203J22010600005","2023-06-05T13:45:00",27.799,30.095001,0.162],
    [2750,"urn:WaterMeter:MC0203J22010600005","2023-06-05T14:00:00",27.6,30.049967,0.157],
    [2751,"urn:WaterMeter:MC0203J22010600005","2023-06-05T14:15:00",27.399,30.012728,0.168],
    [2752,"urn:WaterMeter:MC0203J22010600005","2023-06-05T14:30:00",27.299,29.996086,0.162],
    [2753,"urn:WaterMeter:MC0203J22010600005","2023-06-05T14:45:00",27.399,29.936737,0.163],
    [2754,"urn:WaterMeter:MC0203J22010600005","2023-06-05T15:00:00",27.2,29.898336,0.161],
    [2755,"urn:WaterMeter:MC0203J22010600005","2023-06-05T15:15:00",27,29.874636,0.156],
    [2756,"urn:WaterMeter:MC0203J22010600005","2023-06-05T15:30:00",26.799,29.821144,0.16],
    [2757,"urn:WaterMeter:MC0203J22010600005","2023-06-05T15:45:00",26.799,29.780375,0.163],
    [2758,"urn:WaterMeter:MC0203J22010600005","2023-06-05T16:00:00",26.6,29.757528,0.16],
    [2759,"urn:WaterMeter:MC0203J22010600005","2023-06-05T16:15:00",26.399,29.752485,0.161],
    [2760,"urn:WaterMeter:MC0203J22010600005","2023-06-05T16:30:00",26.299,29.689646,0.163],
    [2761,"urn:WaterMeter:MC0203J22010600005","2023-06-05T16:45:00",26.1,29.695852,0.163],
    [2762,"urn:WaterMeter:MC0203J22010600005","2023-06-05T17:00:00",26,29.678396,0.16],
    [2763,"urn:WaterMeter:MC0203J22010600005","2023-06-05T17:15:00",25.899,29.617884,0.17],
    [2764,"urn:WaterMeter:MC0203J22010600005","2023-06-05T17:30:00",25.7,29.638443,0.164],
    [2765,"urn:WaterMeter:MC0203J22010600005","2023-06-05T17:45:00",25.5,29.593834,0.163],
    [2766,"urn:WaterMeter:MC0203J22010600005","2023-06-05T18:00:00",25.299,29.593834,0.166],
    [2767,"urn:WaterMeter:MC0203J22010600005","2023-06-05T18:15:00",25.1,29.575214,0.164],
    [2768,"urn:WaterMeter:MC0203J22010600005","2023-06-05T18:30:00",24.899,29.564703,0.166],
    [2769,"urn:WaterMeter:MC0203J22010600005","2023-06-05T18:45:00",24.7,29.59267,0.166],
    [2770,"urn:WaterMeter:MC0203J22010600005","2023-06-05T19:00:00",24.5,29.579481,0.163],
    [2771,"urn:WaterMeter:MC0203J22010600005","2023-06-05T19:15:00",24.299,29.543795,0.166],
    [2772,"urn:WaterMeter:MC0203J22010600005","2023-06-05T19:30:00",24.1,29.544533,0.163],
    [2773,"urn:WaterMeter:MC0203J22010600005","2023-06-05T19:45:00",23.899,29.511211,0.165],
    [2774,"urn:WaterMeter:MC0203J22010600005","2023-06-05T20:00:00",23.6,29.560863,0.161],
    [2775,"urn:WaterMeter:MC0203J22010600005","2023-06-05T20:15:00",23.5,29.556946,0.161],
    [2776,"urn:WaterMeter:MC0203J22010600005","2023-06-05T20:30:00",23.299,29.548023,0.162],
    [2777,"urn:WaterMeter:MC0203J22010600005","2023-06-05T20:45:00",23.1,29.521685,0.168],
    [2778,"urn:WaterMeter:MC0203J22010600005","2023-06-05T21:00:00",22.899,29.532934,0.177],
    [2779,"urn:WaterMeter:MC0203J22010600005","2023-06-05T21:15:00",22.7,29.545696,0.162],
    [2780,"urn:WaterMeter:MC0203J22010600005","2023-06-05T21:30:00",22.5,29.55039,0.157],
    [2781,"urn:WaterMeter:MC0203J22010600005","2023-06-05T21:45:00",22.399,29.546083,0.168],
    [2782,"urn:WaterMeter:MC0203J22010600005","2023-06-05T22:00:00",22.299,29.548023,0.162],
    [2783,"urn:WaterMeter:MC0203J22010600005","2023-06-05T22:15:00",22.1,29.535261,0.162],
    [2784,"urn:WaterMeter:MC0203J22010600005","2023-06-05T22:30:00",22,29.550777,0.159],
    [2785,"urn:WaterMeter:MC0203J22010600005","2023-06-05T22:45:00",21.899,29.579481,0.167],
    [2786,"urn:WaterMeter:MC0203J22010600005","2023-06-05T23:00:00",21.799,29.56703,0.166],
    [2787,"urn:WaterMeter:MC0203J22010600005","2023-06-05T23:15:00",21.6,29.584099,0.167],
    [2788,"urn:WaterMeter:MC0203J22010600005","2023-06-05T23:30:00",21.5,29.545696,0.173],
    [2789,"urn:WaterMeter:MC0203J22010600005","2023-06-05T23:45:00",21.399,29.588017,0.163],
    [2790,"urn:WaterMeter:MC0203J22010600005","2023-06-06T00:00:00",21.299,29.571724,0.161],
    [2791,"urn:WaterMeter:MC0203J22010600005","2023-06-06T00:15:00",21.2,29.54845,0.161],
    [2792,"urn:WaterMeter:MC0203J22010600005","2023-06-06T00:30:00",21.1,29.55772,0.161],
    [2793,"urn:WaterMeter:MC0203J22010600005","2023-06-06T00:45:00",21,29.56703,0.163],
    [2794,"urn:WaterMeter:MC0203J22010600005","2023-06-06T01:00:00",20.899,29.61129,0.163],
    [2795,"urn:WaterMeter:MC0203J22010600005","2023-06-06T01:15:00",20.799,29.59112,0.166],
    [2796,"urn:WaterMeter:MC0203J22010600005","2023-06-06T01:30:00",20.7,29.563578,0.16],
    [2797,"urn:WaterMeter:MC0203J22010600005","2023-06-06T01:45:00",20.6,29.570948,0.162],
    [2798,"urn:WaterMeter:MC0203J22010600005","2023-06-06T02:00:00",20.5,29.623276,0.163],
    [2799,"urn:WaterMeter:MC0203J22010600005","2023-06-06T02:15:00",20.399,29.562414,0.166],
    [2800,"urn:WaterMeter:MC0203J22010600005","2023-06-06T02:30:00",20.299,29.61513,0.154],
    [2801,"urn:WaterMeter:MC0203J22010600005","2023-06-06T02:45:00",20.2,29.570948,0.162],
    [2802,"urn:WaterMeter:MC0203J22010600005","2023-06-06T03:00:00",20.1,29.59073,0.167],
    [2803,"urn:WaterMeter:MC0203J22010600005","2023-06-06T03:15:00",20,29.641508,0.157],
    [2804,"urn:WaterMeter:MC0203J22010600005","2023-06-06T03:30:00",19.899,29.603493,0.16],
    [2805,"urn:WaterMeter:MC0203J22010600005","2023-06-06T03:45:00",19.799,29.591894,0.164],
    [2806,"urn:WaterMeter:MC0203J22010600005","2023-06-06T04:00:04",19.799,29.6078,0.155],
    [2807,"urn:WaterMeter:MC0203J22010600005","2023-06-06T04:15:00",19.7,29.59849,0.159],
    [2808,"urn:WaterMeter:MC0203J22010600005","2023-06-06T04:30:00",19.7,29.624052,0.157],
    [2809,"urn:WaterMeter:MC0203J22010600005","2023-06-06T04:45:00",19.5,29.628746,0.158],
    [2810,"urn:WaterMeter:MC0203J22010600005","2023-06-06T05:00:00",19.5,29.6462,0.156],
    [2811,"urn:WaterMeter:MC0203J22010600005","2023-06-06T05:15:00",19.5,29.58142,0.158],
    [2812,"urn:WaterMeter:MC0203J22010600005","2023-06-06T05:30:00",19.5,29.623663,0.159],
    [2813,"urn:WaterMeter:MC0203J22010600005","2023-06-06T05:45:00",19.5,29.632236,0.161],
    [2814,"urn:WaterMeter:MC0203J22010600005","2023-06-06T06:00:00",19.5,29.59267,0.16],
    [2815,"urn:WaterMeter:MC0203J22010600005","2023-06-06T06:15:00",19.7,29.587627,0.16],
    [2816,"urn:WaterMeter:MC0203J22010600005","2023-06-06T06:30:00",19.899,29.634136,0.163],
    [2817,"urn:WaterMeter:MC0203J22010600005","2023-06-06T06:45:00",20,29.578707,0.165],
    [2818,"urn:WaterMeter:MC0203J22010600005","2023-06-06T07:00:00",20.2,29.56509,0.158],
    [2819,"urn:WaterMeter:MC0203J22010600005","2023-06-06T07:15:00",20.399,29.567844,0.16],
    [2820,"urn:WaterMeter:MC0203J22010600005","2023-06-06T07:30:00",20.6,29.556557,0.153],
    [2821,"urn:WaterMeter:MC0203J22010600005","2023-06-06T07:45:00",20.899,29.52669,0.158],
    [2822,"urn:WaterMeter:MC0203J22010600005","2023-06-06T08:00:00",21.2,29.528627,0.163],
    [2823,"urn:WaterMeter:MC0203J22010600005","2023-06-06T08:15:00",21.5,29.491817,0.16],
    [2824,"urn:WaterMeter:MC0203J22010600005","2023-06-06T08:30:00",21.899,29.469667,0.155],
    [2825,"urn:WaterMeter:MC0203J22010600005","2023-06-06T08:45:00",22.5,29.379326,0.151],
    [2826,"urn:WaterMeter:MC0203J22010600005","2023-06-06T09:00:00",22.799,29.362995,0.151],
    [2827,"urn:WaterMeter:MC0203J22010600005","2023-06-06T09:15:00",23.5,29.342087,0.157],
    [2828,"urn:WaterMeter:MC0203J22010600005","2023-06-06T09:30:00",24.1,29.270327,0.156],
    [2829,"urn:WaterMeter:MC0203J22010600005","2023-06-06T09:45:00",24.6,29.218307,0.152],
    [2830,"urn:WaterMeter:MC0203J22010600005","2023-06-06T10:00:00",25.1,29.155895,0.148],
    [2831,"urn:WaterMeter:MC0203J22010600005","2023-06-06T10:15:00",25.5,29.161325,0.146],
    [2832,"urn:WaterMeter:MC0203J22010600005","2023-06-06T10:30:00",26.1,29.06823,0.151],
    [2833,"urn:WaterMeter:MC0203J22010600005","2023-06-06T10:45:00",26.6,28.96854,0.146],
    [2834,"urn:WaterMeter:MC0203J22010600005","2023-06-06T11:00:00",27.2,28.904497,0.147],
    [2835,"urn:WaterMeter:MC0203J22010600005","2023-06-06T11:15:00",27.6,28.880875,0.151],
    [2836,"urn:WaterMeter:MC0203J22010600005","2023-06-06T11:30:00",28,28.793596,0.153],
    [2837,"urn:WaterMeter:MC0203J22010600005","2023-06-06T11:45:00",28.299,28.714853,0.149],
    [2838,"urn:WaterMeter:MC0203J22010600005","2023-06-06T12:00:00",28.6,28.64538,0.151],
    [2839,"urn:WaterMeter:MC0203J22010600005","2023-06-06T12:15:00",28.799,28.577497,0.148],
    [2840,"urn:WaterMeter:MC0203J22010600005","2023-06-06T12:30:00",28.799,28.503836,0.154],
    [2841,"urn:WaterMeter:MC0203J22010600005","2023-06-06T12:45:00",28.799,28.459576,0.146],
    [2842,"urn:WaterMeter:MC0203J22010600005","2023-06-06T13:00:00",28.799,28.369621,0.145],
    [2843,"urn:WaterMeter:MC0203J22010600005","2023-06-06T13:15:00",28.6,28.330444,0.145],
    [2844,"urn:WaterMeter:MC0203J22010600005","2023-06-06T13:30:00",28.6,28.271872,0.146],
    [2845,"urn:WaterMeter:MC0203J22010600005","2023-06-06T13:45:00",28.399,28.209381,0.148],
    [2846,"urn:WaterMeter:MC0203J22010600005","2023-06-06T14:00:00",28.299,28.1555,0.148],
    [2847,"urn:WaterMeter:MC0203J22010600005","2023-06-06T14:15:00",28.1,28.072453,0.151],
    [2848,"urn:WaterMeter:MC0203J22010600005","2023-06-06T14:30:00",27.899,28.032887,0.148],
    [2849,"urn:WaterMeter:MC0203J22010600005","2023-06-06T14:45:00",27.7,28.025127,0.153],
    [2850,"urn:WaterMeter:MC0203J22010600005","2023-06-06T15:00:00",27.5,27.963102,0.151],
    [2851,"urn:WaterMeter:MC0203J22010600005","2023-06-06T15:15:00",27.299,27.90065,0.149],
    [2852,"urn:WaterMeter:MC0203J22010600005","2023-06-06T15:30:00",27.1,27.85449,0.146],
    [2853,"urn:WaterMeter:MC0203J22010600005","2023-06-06T15:45:00",26.899,27.838549,0.155],
    [2854,"urn:WaterMeter:MC0203J22010600005","2023-06-06T16:00:00",26.799,27.799759,0.152],
    [2855,"urn:WaterMeter:MC0203J22010600005","2023-06-06T16:15:00",26.6,27.762133,0.147],
    [2856,"urn:WaterMeter:MC0203J22010600005","2023-06-06T16:30:00",26.399,27.721052,0.149],
    [2857,"urn:WaterMeter:MC0203J22010600005","2023-06-06T16:45:00",26.299,27.667522,0.146],
    [2858,"urn:WaterMeter:MC0203J22010600005","2023-06-06T17:00:00",26.1,27.653559,0.151],
    [2859,"urn:WaterMeter:MC0203J22010600005","2023-06-06T17:15:00",25.899,27.639595,0.148],
    [2860,"urn:WaterMeter:MC0203J22010600005","2023-06-06T17:30:00",25.799,27.622915,0.143],
    [2861,"urn:WaterMeter:MC0203J22010600005","2023-06-06T17:45:00",25.6,27.600029,0.143],
    [2862,"urn:WaterMeter:MC0203J22010600005","2023-06-06T18:00:00",25.399,27.557747,0.154],
    [2863,"urn:WaterMeter:MC0203J22010600005","2023-06-06T18:15:00",25.2,27.554644,0.147],
    [2864,"urn:WaterMeter:MC0203J22010600005","2023-06-06T18:30:00",25.1,27.547235,0.148],
    [2865,"urn:WaterMeter:MC0203J22010600005","2023-06-06T18:45:00",24.899,27.494131,0.147],
    [2866,"urn:WaterMeter:MC0203J22010600005","2023-06-06T19:00:00",24.7,27.508833,0.148],
    [2867,"urn:WaterMeter:MC0203J22010600005","2023-06-06T19:15:00",24.5,27.493357,0.151],
    [2868,"urn:WaterMeter:MC0203J22010600005","2023-06-06T19:30:00",24.2,27.490602,0.148],
    [2869,"urn:WaterMeter:MC0203J22010600005","2023-06-06T19:45:00",24,27.53137,0.151],
    [2870,"urn:WaterMeter:MC0203J22010600005","2023-06-06T20:00:00",23.799,27.504993,0.154],
    [2871,"urn:WaterMeter:MC0203J22010600005","2023-06-06T20:15:00",23.7,27.490602,0.144],
    [2872,"urn:WaterMeter:MC0203J22010600005","2023-06-06T20:30:00",23.5,27.488314,0.158],
    [2873,"urn:WaterMeter:MC0203J22010600005","2023-06-06T20:45:00",23.299,27.48715,0.15],
    [2874,"urn:WaterMeter:MC0203J22010600005","2023-06-06T21:00:00",23.2,27.503054,0.149],
    [2875,"urn:WaterMeter:MC0203J22010600005","2023-06-06T21:15:00",23.1,27.48521,0.145],
    [2876,"urn:WaterMeter:MC0203J22010600005","2023-06-06T21:30:00",22.899,27.504217,0.144],
    [2877,"urn:WaterMeter:MC0203J22010600005","2023-06-06T21:45:00",22.799,27.524776,0.146],
    [2878,"urn:WaterMeter:MC0203J22010600005","2023-06-06T22:00:00",22.7,27.48168,0.151],
    [2879,"urn:WaterMeter:MC0203J22010600005","2023-06-06T22:15:00",22.6,27.496458,0.153],
    [2880,"urn:WaterMeter:MC0203J22010600005","2023-06-06T22:30:00",22.6,27.48905,0.143],
    [2881,"urn:WaterMeter:MC0203J22010600005","2023-06-06T22:45:00",22.5,27.486761,0.142],
    [2882,"urn:WaterMeter:MC0203J22010600005","2023-06-06T23:00:00",22.399,27.51857,0.151],
    [2883,"urn:WaterMeter:MC0203J22010600005","2023-06-06T23:15:00",22.299,27.548399,0.151],
    [2884,"urn:WaterMeter:MC0203J22010600005","2023-06-06T23:30:00",22.2,27.5003,0.151],
    [2885,"urn:WaterMeter:MC0203J22010600005","2023-06-06T23:45:00",22.2,27.516241,0.148],
    [2886,"urn:WaterMeter:MC0203J22010600005","2023-06-07T00:00:00",22.1,27.504604,0.141],
    [2887,"urn:WaterMeter:MC0203J22010600005","2023-06-07T00:15:00",22,27.50185,0.148],
    [2888,"urn:WaterMeter:MC0203J22010600005","2023-06-07T00:30:00",22,27.496458,0.153],
    [2889,"urn:WaterMeter:MC0203J22010600005","2023-06-07T00:45:00",21.899,27.52047,0.152],
    [2890,"urn:WaterMeter:MC0203J22010600005","2023-06-07T01:00:00",21.899,27.541067,0.15],
    [2891,"urn:WaterMeter:MC0203J22010600005","2023-06-07T01:15:00",21.799,27.530556,0.143],
    [2892,"urn:WaterMeter:MC0203J22010600005","2023-06-07T01:30:00",21.799,27.500687,0.144],
    [2893,"urn:WaterMeter:MC0203J22010600005","2023-06-07T01:45:00",21.799,27.508446,0.144],
    [2894,"urn:WaterMeter:MC0203J22010600005","2023-06-07T02:00:00",21.7,27.523224,0.15],
    [2895,"urn:WaterMeter:MC0203J22010600005","2023-06-07T02:15:00",21.7,27.543783,0.141],
    [2896,"urn:WaterMeter:MC0203J22010600005","2023-06-07T02:30:00",21.7,27.525164,0.146],
    [2897,"urn:WaterMeter:MC0203J22010600005","2023-06-07T02:45:00",21.7,27.501076,0.143],
    [2898,"urn:WaterMeter:MC0203J22010600005","2023-06-07T03:00:00",21.6,27.477064,0.148],
    [2899,"urn:WaterMeter:MC0203J22010600005","2023-06-07T03:15:00",21.7,27.474737,0.147],
    [2900,"urn:WaterMeter:MC0203J22010600005","2023-06-07T03:30:00",21.7,27.497623,0.145],
    [2901,"urn:WaterMeter:MC0203J22010600005","2023-06-07T03:45:00",21.7,27.486374,0.141],
    [2902,"urn:WaterMeter:MC0203J22010600005","2023-06-07T04:00:00",21.6,27.528229,0.15],
    [2903,"urn:WaterMeter:MC0203J22010600005","2023-06-07T04:15:00",21.6,27.594986,0.132],
    [2904,"urn:WaterMeter:MC0203J22010600005","2023-06-07T04:30:00",21.6,28.402166,0.159],
    [2905,"urn:WaterMeter:MC0203J22010600005","2023-06-07T04:45:00",21.6,29.6687,0.16],
    [2906,"urn:WaterMeter:MC0203J22010600005","2023-06-07T05:00:00",21.6,30.76952,0.179],
    [2907,"urn:WaterMeter:MC0203J22010600005","2023-06-07T05:15:00",21.6,31.407228,0.176],
    [2908,"urn:WaterMeter:MC0203J22010600005","2023-06-07T05:30:00",21.5,31.64466,0.172],
    [2909,"urn:WaterMeter:MC0203J22010600005","2023-06-07T05:45:00",21.5,31.697378,0.177],
    [2910,"urn:WaterMeter:MC0203J22010600005","2023-06-07T06:00:00",21.5,31.72457,0.179],
    [2911,"urn:WaterMeter:MC0203J22010600005","2023-06-07T06:15:00",21.5,31.775345,0.178],
    [2912,"urn:WaterMeter:MC0203J22010600005","2023-06-07T06:30:00",21.6,31.793228,0.171],
    [2913,"urn:WaterMeter:MC0203J22010600005","2023-06-07T06:45:00",21.6,31.780426,0.17],
    [2914,"urn:WaterMeter:MC0203J22010600005","2023-06-07T07:00:00",21.6,31.785856,0.176],
    [2915,"urn:WaterMeter:MC0203J22010600005","2023-06-07T07:15:00",21.5,31.776508,0.18],
    [2916,"urn:WaterMeter:MC0203J22010600005","2023-06-07T07:30:00",21.5,31.801762,0.169],
    [2917,"urn:WaterMeter:MC0203J22010600005","2023-06-07T07:45:00",21.6,31.759054,0.17],
    [2918,"urn:WaterMeter:MC0203J22010600005","2023-06-07T08:00:00",21.7,31.813398,0.173],
    [2919,"urn:WaterMeter:MC0203J22010600005","2023-06-07T08:15:00",22,31.806377,0.172],
    [2920,"urn:WaterMeter:MC0203J22010600005","2023-06-07T08:30:00",22.2,31.740473,0.168],
    [2921,"urn:WaterMeter:MC0203J22010600005","2023-06-07T08:45:00",22.2,31.757889,0.173],
    [2922,"urn:WaterMeter:MC0203J22010600005","2023-06-07T09:00:00",22.2,31.712156,0.174],
    [2923,"urn:WaterMeter:MC0203J22010600005","2023-06-07T09:15:00",22.2,31.743576,0.174],
    [2924,"urn:WaterMeter:MC0203J22010600005","2023-06-07T09:30:00",22.299,31.716772,0.17],
    [2925,"urn:WaterMeter:MC0203J22010600005","2023-06-07T09:45:00",22.399,31.710566,0.165],
    [2926,"urn:WaterMeter:MC0203J22010600005","2023-06-07T10:00:00",22.5,31.686167,0.166],
    [2927,"urn:WaterMeter:MC0203J22010600005","2023-06-07T10:15:00",22.5,31.66716,0.177],
    [2928,"urn:WaterMeter:MC0203J22010600005","2023-06-07T10:30:00",22.5,31.658237,0.175],
    [2929,"urn:WaterMeter:MC0203J22010600005","2023-06-07T10:45:00",22.7,31.660526,0.178],
    [2930,"urn:WaterMeter:MC0203J22010600005","2023-06-07T11:00:00",22.7,31.64699,0.172],
    [2931,"urn:WaterMeter:MC0203J22010600005","2023-06-07T11:15:00",22.7,31.615181,0.174],
    [2932,"urn:WaterMeter:MC0203J22010600005","2023-06-07T11:30:00",22.7,31.627207,0.178],
    [2933,"urn:WaterMeter:MC0203J22010600005","2023-06-07T11:45:00",22.799,31.601177,0.17],
    [2934,"urn:WaterMeter:MC0203J22010600005","2023-06-07T12:00:00",22.7,31.545708,0.175],
    [2935,"urn:WaterMeter:MC0203J22010600005","2023-06-07T12:15:00",22.6,31.693924,0.164],
    [2936,"urn:WaterMeter:MC0203J22010600005","2023-06-07T12:30:00",22.6,31.679146,0.169],
    [2937,"urn:WaterMeter:MC0203J22010600005","2023-06-07T12:45:00",22.6,31.668324,0.174],
    [2938,"urn:WaterMeter:MC0203J22010600005","2023-06-07T13:00:00",22.6,31.697765,0.169],
    [2939,"urn:WaterMeter:MC0203J22010600005","2023-06-07T13:15:00",22.6,31.651217,0.17],
    [2940,"urn:WaterMeter:MC0203J22010600005","2023-06-07T13:30:00",22.5,31.778448,0.166],
    [2941,"urn:WaterMeter:MC0203J22010600005","2023-06-07T13:45:00",22.399,31.797844,0.177],
    [2942,"urn:WaterMeter:MC0203J22010600005","2023-06-07T14:00:00",22.299,31.861885,0.169],
    [2943,"urn:WaterMeter:MC0203J22010600005","2023-06-07T14:15:00",22.299,31.860334,0.18],
    [2944,"urn:WaterMeter:MC0203J22010600005","2023-06-07T14:30:00",22.299,31.860722,0.171],
    [2945,"urn:WaterMeter:MC0203J22010600005","2023-06-07T14:45:00",22.2,31.879728,0.174],
    [2946,"urn:WaterMeter:MC0203J22010600005","2023-06-07T15:00:00",22.299,31.923523,0.176],
    [2947,"urn:WaterMeter:MC0203J22010600005","2023-06-07T15:15:00",22.399,31.99765,0.176],
    [2948,"urn:WaterMeter:MC0203J22010600005","2023-06-07T15:30:00",22.399,32.017822,0.179],
    [2949,"urn:WaterMeter:MC0203J22010600005","2023-06-07T15:45:00",22.299,32.183414,0.171],
    [2950,"urn:WaterMeter:MC0203J22010600005","2023-06-07T16:00:00",22.2,32.53722,0.18],
    [2951,"urn:WaterMeter:MC0203J22010600005","2023-06-07T16:15:00",22,33.565544,0.203],
    [2952,"urn:WaterMeter:MC0203J22010600005","2023-06-07T16:30:00",22,36.36191,0.211],
    [2953,"urn:WaterMeter:MC0203J22010600005","2023-06-07T16:45:00",22,37.736244,0.22],
    [2954,"urn:WaterMeter:MC0203J22010600005","2023-06-07T17:00:00",21.899,38.005447,0.217],
    [2955,"urn:WaterMeter:MC0203J22010600005","2023-06-07T17:15:00",21.799,38.289387,0.219],
    [2956,"urn:WaterMeter:MC0203J22010600005","2023-06-07T17:30:00",21.7,38.635784,0.214],
    [2957,"urn:WaterMeter:MC0203J22010600005","2023-06-07T17:45:00",21.7,38.83784,0.223],
    [2958,"urn:WaterMeter:MC0203J22010600005","2023-06-07T18:00:00",21.7,38.905334,0.226],
    [2959,"urn:WaterMeter:MC0203J22010600005","2023-06-07T18:15:00",21.7,38.835125,0.216],
    [2960,"urn:WaterMeter:MC0203J22010600005","2023-06-07T18:30:00",21.6,38.797886,0.214],
    [2961,"urn:WaterMeter:MC0203J22010600005","2023-06-07T18:45:00",21.6,38.747112,0.216],
    [2962,"urn:WaterMeter:MC0203J22010600005","2023-06-07T19:00:00",21.5,38.685436,0.207],
    [2963,"urn:WaterMeter:MC0203J22010600005","2023-06-07T19:15:00",21.399,38.64897,0.209],
    [2964,"urn:WaterMeter:MC0203J22010600005","2023-06-07T19:30:00",21.399,38.609795,0.211],
    [2965,"urn:WaterMeter:MC0203J22010600005","2023-06-07T19:45:00",21.299,38.362274,0.209],
    [2966,"urn:WaterMeter:MC0203J22010600005","2023-06-07T20:00:00",21.299,38.218403,0.208],
    [2967,"urn:WaterMeter:MC0203J22010600005","2023-06-07T20:15:00",21.2,38.036865,0.197],
    [2968,"urn:WaterMeter:MC0203J22010600005","2023-06-07T20:30:00",21.2,37.952305,0.202],
    [2969,"urn:WaterMeter:MC0203J22010600005","2023-06-07T20:45:00",21.2,37.88326,0.198],
    [2970,"urn:WaterMeter:MC0203J22010600005","2023-06-07T21:00:00",21.1,37.3805,0.199],
    [2971,"urn:WaterMeter:MC0203J22010600005","2023-06-07T21:15:00",21,37.19819,0.192],
    [2972,"urn:WaterMeter:MC0203J22010600005","2023-06-07T21:30:00",21,36.382473,0.191],
    [2973,"urn:WaterMeter:MC0203J22010600005","2023-06-07T21:45:00",21,36.360363,0.185],
    [2974,"urn:WaterMeter:MC0203J22010600005","2023-06-07T22:00:00",20.899,36.187748,0.185],
    [2975,"urn:WaterMeter:MC0203J22010600005","2023-06-07T22:15:00",20.899,36.17611,0.187],
    [2976,"urn:WaterMeter:MC0203J22010600005","2023-06-07T22:30:00",20.899,34.5671,0.186],
    [2977,"urn:WaterMeter:MC0203J22010600005","2023-06-07T22:45:00",20.899,34.41776,0.184],
    [2978,"urn:WaterMeter:MC0203J22010600005","2023-06-07T23:00:00",20.799,34.405697,0.193],
    [2979,"urn:WaterMeter:MC0203J22010600005","2023-06-07T23:15:00",20.799,34.305656,0.19],
    [2980,"urn:WaterMeter:MC0203J22010600005","2023-06-07T23:30:00",20.799,34.2389,0.185],
    [2981,"urn:WaterMeter:MC0203J22010600005","2023-06-07T23:45:00",20.799,34.26648,0.19],
    [2982,"urn:WaterMeter:MC0203J22010600005","2023-06-08T00:00:00",20.799,34.119465,0.186],
    [2983,"urn:WaterMeter:MC0203J22010600005","2023-06-08T00:15:00",20.799,34.132263,0.187],
    [2984,"urn:WaterMeter:MC0203J22010600005","2023-06-08T00:30:00",20.799,34.051582,0.196],
    [2985,"urn:WaterMeter:MC0203J22010600005","2023-06-08T00:45:00",20.799,33.995724,0.191],
    [2986,"urn:WaterMeter:MC0203J22010600005","2023-06-08T01:00:00",20.799,33.95961,0.186],
    [2987,"urn:WaterMeter:MC0203J22010600005","2023-06-08T01:15:00",20.7,33.886723,0.187],
    [2988,"urn:WaterMeter:MC0203J22010600005","2023-06-08T01:30:00",20.7,33.884007,0.184],
    [2989,"urn:WaterMeter:MC0203J22010600005","2023-06-08T01:45:00",20.7,33.83785,0.182],
    [2990,"urn:WaterMeter:MC0203J22010600005","2023-06-08T02:00:00",20.7,33.880516,0.179],
    [2991,"urn:WaterMeter:MC0203J22010600005","2023-06-08T02:15:00",20.7,33.84832,0.184],
    [2992,"urn:WaterMeter:MC0203J22010600005","2023-06-08T02:30:00",20.6,33.78199,0.182],
    [2993,"urn:WaterMeter:MC0203J22010600005","2023-06-08T02:45:00",20.6,33.80837,0.184],
    [2994,"urn:WaterMeter:MC0203J22010600005","2023-06-08T03:00:00",20.6,33.736954,0.181],
    [2995,"urn:WaterMeter:MC0203J22010600005","2023-06-08T03:15:00",20.6,33.74087,0.178],
    [2996,"urn:WaterMeter:MC0203J22010600005","2023-06-08T03:30:00",20.5,33.702473,0.184],
    [2997,"urn:WaterMeter:MC0203J22010600005","2023-06-08T03:45:00",20.5,33.64037,0.18],
    [2998,"urn:WaterMeter:MC0203J22010600005","2023-06-08T04:00:00",20.399,33.611702,0.177],
    [2999,"urn:WaterMeter:MC0203J22010600005","2023-06-08T04:15:00",20.399,33.61787,0.179],
    [3000,"urn:WaterMeter:MC0203J22010600005","2023-06-08T04:30:00",20.299,33.55468,0.183],
    [3001,"urn:WaterMeter:MC0203J22010600005","2023-06-08T04:45:00",20.299,33.530243,0.177],
    [3002,"urn:WaterMeter:MC0203J22010600005","2023-06-08T05:00:00",20.299,33.515892,0.181],
    [3003,"urn:WaterMeter:MC0203J22010600005","2023-06-08T05:15:00",20.299,33.51085,0.183],
    [3004,"urn:WaterMeter:MC0203J22010600005","2023-06-08T05:30:00",20.299,33.430553,0.184],
    [3005,"urn:WaterMeter:MC0203J22010600005","2023-06-08T05:45:00",20.299,33.39754,0.177],
    [3006,"urn:WaterMeter:MC0203J22010600005","2023-06-08T06:00:00",20.299,33.408833,0.18],
    [3007,"urn:WaterMeter:MC0203J22010600005","2023-06-08T06:15:00",20.299,33.354527,0.187],
    [3008,"urn:WaterMeter:MC0203J22010600005","2023-06-08T06:30:00",20.399,33.354527,0.178],
    [3009,"urn:WaterMeter:MC0203J22010600005","2023-06-08T06:45:00",20.6,33.326946,0.18],
    [3010,"urn:WaterMeter:MC0203J22010600005","2023-06-08T07:00:00",20.799,33.278107,0.175],
    [3011,"urn:WaterMeter:MC0203J22010600005","2023-06-08T07:15:00",21,33.27772,0.176],
    [3012,"urn:WaterMeter:MC0203J22010600005","2023-06-08T07:30:00",21.2,33.2207,0.175],
    [3013,"urn:WaterMeter:MC0203J22010600005","2023-06-08T07:45:00",21.399,33.217983,0.182],
    [3014,"urn:WaterMeter:MC0203J22010600005","2023-06-08T08:00:00",21.6,33.13416,0.173],
    [3015,"urn:WaterMeter:MC0203J22010600005","2023-06-08T08:15:00",21.799,33.126015,0.173],
    [3016,"urn:WaterMeter:MC0203J22010600005","2023-06-08T08:30:00",22.2,33.090366,0.168],
    [3017,"urn:WaterMeter:MC0203J22010600005","2023-06-08T08:45:00",22.7,33.03412,0.175],
    [3018,"urn:WaterMeter:MC0203J22010600005","2023-06-08T09:00:00",23.2,32.94956,0.176],
    [3019,"urn:WaterMeter:MC0203J22010600005","2023-06-08T09:15:00",23.299,32.952274,0.175],
    [3020,"urn:WaterMeter:MC0203J22010600005","2023-06-08T09:30:00",23.5,32.902584,0.163],
    [3021,"urn:WaterMeter:MC0203J22010600005","2023-06-08T09:45:00",23.799,32.858013,0.174],
    [3022,"urn:WaterMeter:MC0203J22010600005","2023-06-08T10:00:00",23.799,32.828144,0.181],
    [3023,"urn:WaterMeter:MC0203J22010600005","2023-06-08T10:15:00",24.2,32.757507,0.171],
    [3024,"urn:WaterMeter:MC0203J22010600005","2023-06-08T10:30:00",24.7,32.73272,0.175],
    [3025,"urn:WaterMeter:MC0203J22010600005","2023-06-08T10:45:00",24.7,32.691605,0.178],
    [3026,"urn:WaterMeter:MC0203J22010600005","2023-06-08T11:00:00",24.6,32.595406,0.174],
    [3027,"urn:WaterMeter:MC0203J22010600005","2023-06-08T11:15:00",24.899,32.57834,0.171],
    [3028,"urn:WaterMeter:MC0203J22010600005","2023-06-08T11:30:00",25.799,32.508904,0.17],
    [3029,"urn:WaterMeter:MC0203J22010600005","2023-06-08T11:45:00",26.299,32.45033,0.172],
    [3030,"urn:WaterMeter:MC0203J22010600005","2023-06-08T12:00:00",26.399,32.352577,0.175],
    [3031,"urn:WaterMeter:MC0203J22010600005","2023-06-08T12:15:00",26.1,32.34366,0.171],
    [3032,"urn:WaterMeter:MC0203J22010600005","2023-06-08T12:30:00",25.7,32.274998,0.174],
    [3033,"urn:WaterMeter:MC0203J22010600005","2023-06-08T12:45:00",25.299,32.304092,0.171],
    [3034,"urn:WaterMeter:MC0203J22010600005","2023-06-08T13:00:00",25,32.318016,0.167],
    [3035,"urn:WaterMeter:MC0203J22010600005","2023-06-08T13:15:00",24.899,32.262547,0.172],
    [3036,"urn:WaterMeter:MC0203J22010600005","2023-06-08T13:30:00",25,32.24199,0.17],
    [3037,"urn:WaterMeter:MC0203J22010600005","2023-06-08T13:45:00",25.2,32.229225,0.179],
    [3038,"urn:WaterMeter:MC0203J22010600005","2023-06-08T14:00:00",25.299,32.205566,0.18],
    [3039,"urn:WaterMeter:MC0203J22010600005","2023-06-08T14:15:00",25.2,32.16173,0.177],
    [3040,"urn:WaterMeter:MC0203J22010600005","2023-06-08T14:30:00",25.299,32.08683,0.168],
    [3041,"urn:WaterMeter:MC0203J22010600005","2023-06-08T14:45:00",25.399,32.0698,0.173],
    [3042,"urn:WaterMeter:MC0203J22010600005","2023-06-08T15:00:00",25.399,32.019722,0.17],
    [3043,"urn:WaterMeter:MC0203J22010600005","2023-06-08T15:15:00",25.399,32.007698,0.18],
    [3044,"urn:WaterMeter:MC0203J22010600005","2023-06-08T15:30:00",25.299,31.99416,0.174],
    [3045,"urn:WaterMeter:MC0203J22010600005","2023-06-08T15:45:00",25.299,31.892103,0.176],
    [3046,"urn:WaterMeter:MC0203J22010600005","2023-06-08T16:00:00",25.299,31.901451,0.17],
    [3047,"urn:WaterMeter:MC0203J22010600005","2023-06-08T16:15:00",25,31.877401,0.172],
    [3048,"urn:WaterMeter:MC0203J22010600005","2023-06-08T16:30:00",24.799,31.854477,0.172],
    [3049,"urn:WaterMeter:MC0203J22010600005","2023-06-08T16:45:00",24.6,31.866928,0.183],
    [3050,"urn:WaterMeter:MC0203J22010600005","2023-06-08T17:00:00",24.399,31.856028,0.17],
    [3051,"urn:WaterMeter:MC0203J22010600005","2023-06-08T17:15:00",24.2,31.833141,0.176],
    [3052,"urn:WaterMeter:MC0203J22010600005","2023-06-08T17:30:00",24,31.815687,0.179],
    [3053,"urn:WaterMeter:MC0203J22010600005","2023-06-08T17:45:00",23.899,31.845554,0.175],
    [3054,"urn:WaterMeter:MC0203J22010600005","2023-06-08T18:00:00",23.7,31.79474,0.173],
    [3055,"urn:WaterMeter:MC0203J22010600005","2023-06-08T18:15:00",23.5,32.010025,0.181],
    [3056,"urn:WaterMeter:MC0203J22010600005","2023-06-08T18:30:00",23.399,31.998426,0.178],
    [3057,"urn:WaterMeter:MC0203J22010600005","2023-06-08T18:45:00",23.299,32.281555,0.184],
    [3058,"urn:WaterMeter:MC0203J22010600005","2023-06-08T19:00:00",23.299,32.932064,0.187],
    [3059,"urn:WaterMeter:MC0203J22010600005","2023-06-08T19:15:00",23.2,34.058174,0.203],
    [3060,"urn:WaterMeter:MC0203J22010600005","2023-06-08T19:30:00",23.1,34.93634,0.212],
    [3061,"urn:WaterMeter:MC0203J22010600005","2023-06-08T19:45:00",23.1,35.458496,0.216],
    [3062,"urn:WaterMeter:MC0203J22010600005","2023-06-08T20:00:00",23,35.602016,0.211],
    [3063,"urn:WaterMeter:MC0203J22010600005","2023-06-08T20:15:00",22.799,35.671062,0.214],
    [3064,"urn:WaterMeter:MC0203J22010600005","2023-06-08T20:30:00",22.7,35.683865,0.218],
    [3065,"urn:WaterMeter:MC0203J22010600005","2023-06-08T20:45:00",22.6,35.64236,0.212],
    [3066,"urn:WaterMeter:MC0203J22010600005","2023-06-08T21:00:00",22.5,35.433243,0.209],
    [3067,"urn:WaterMeter:MC0203J22010600005","2023-06-08T21:15:00",22.399,35.257175,0.203],
    [3068,"urn:WaterMeter:MC0203J22010600005","2023-06-08T21:30:00",22.299,35.100075,0.197],
    [3069,"urn:WaterMeter:MC0203J22010600005","2023-06-08T21:45:00",22.2,34.869663,0.198],
    [3070,"urn:WaterMeter:MC0203J22010600005","2023-06-08T22:00:00",22.2,34.686146,0.204],
    [3071,"urn:WaterMeter:MC0203J22010600005","2023-06-08T22:15:00",22.1,34.501156,0.197],
    [3072,"urn:WaterMeter:MC0203J22010600005","2023-06-08T22:30:00",22,34.36768,0.201],
    [3073,"urn:WaterMeter:MC0203J22010600005","2023-06-08T22:45:00",21.899,34.300224,0.196],
    [3074,"urn:WaterMeter:MC0203J22010600005","2023-06-08T23:00:00",21.899,34.157867,0.196],
    [3075,"urn:WaterMeter:MC0203J22010600005","2023-06-08T23:15:00",21.799,34.04227,0.191],
    [3076,"urn:WaterMeter:MC0203J22010600005","2023-06-08T23:30:00",21.799,33.96081,0.2],
    [3077,"urn:WaterMeter:MC0203J22010600005","2023-06-08T23:45:00",21.7,33.938313,0.196],
    [3078,"urn:WaterMeter:MC0203J22010600005","2023-06-09T00:00:00",21.7,33.86694,0.202],
    [3079,"urn:WaterMeter:MC0203J22010600005","2023-06-09T00:15:00",21.7,33.77889,0.191],
    [3080,"urn:WaterMeter:MC0203J22010600005","2023-06-09T00:30:00",21.7,33.801,0.196],
    [3081,"urn:WaterMeter:MC0203J22010600005","2023-06-09T00:45:00",21.7,33.743202,0.196],
    [3082,"urn:WaterMeter:MC0203J22010600005","2023-06-09T01:00:00",21.6,33.69739,0.194],
    [3083,"urn:WaterMeter:MC0203J22010600005","2023-06-09T01:15:00",21.6,33.7048,0.191],
    [3084,"urn:WaterMeter:MC0203J22010600005","2023-06-09T01:30:00",21.6,33.624115,0.189],
    [3085,"urn:WaterMeter:MC0203J22010600005","2023-06-09T01:45:00",21.5,33.613255,0.194],
    [3086,"urn:WaterMeter:MC0203J22010600005","2023-06-09T02:00:00",21.399,33.63265,0.193],
    [3087,"urn:WaterMeter:MC0203J22010600005","2023-06-09T02:15:00",21.299,33.570934,0.192],
    [3088,"urn:WaterMeter:MC0203J22010600005","2023-06-09T02:30:00",21.299,33.564377,0.193],
    [3089,"urn:WaterMeter:MC0203J22010600005","2023-06-09T02:45:00",21.2,33.592697,0.195],
    [3090,"urn:WaterMeter:MC0203J22010600005","2023-06-09T03:00:00",21.1,33.49413,0.188],
    [3091,"urn:WaterMeter:MC0203J22010600005","2023-06-09T03:15:00",21.1,33.716396,0.188],
    [3092,"urn:WaterMeter:MC0203J22010600005","2023-06-09T03:30:00",21.1,34.41384,0.2],
    [3093,"urn:WaterMeter:MC0203J22010600005","2023-06-09T03:45:00",21,34.993015,0.205],
    [3094,"urn:WaterMeter:MC0203J22010600005","2023-06-09T04:00:00",21,35.52599,0.201],
    [3095,"urn:WaterMeter:MC0203J22010600005","2023-06-09T04:15:00",20.899,35.807606,0.206],
    [3096,"urn:WaterMeter:MC0203J22010600005","2023-06-09T04:30:00",20.899,36.032585,0.215],
    [3097,"urn:WaterMeter:MC0203J22010600005","2023-06-09T04:45:00",20.799,36.230026,0.209],
    [3098,"urn:WaterMeter:MC0203J22010600005","2023-06-09T05:00:00",20.7,36.405746,0.22],
    [3099,"urn:WaterMeter:MC0203J22010600005","2023-06-09T05:15:00",20.6,35.282387,0.206],
    [3100,"urn:WaterMeter:MC0203J22010600005","2023-06-09T05:30:00",20.5,34.810314,0.2],
    [3101,"urn:WaterMeter:MC0203J22010600005","2023-06-09T05:45:00",20.5,34.576797,0.207],
    [3102,"urn:WaterMeter:MC0203J22010600005","2023-06-09T06:00:00",20.399,34.371597,0.201],
    [3103,"urn:WaterMeter:MC0203J22010600005","2023-06-09T06:15:00",20.5,34.292854,0.2],
    [3104,"urn:WaterMeter:MC0203J22010600005","2023-06-09T06:30:00",20.6,34.200108,0.201],
    [3105,"urn:WaterMeter:MC0203J22010600005","2023-06-09T06:45:00",20.7,34.059338,0.197],
    [3106,"urn:WaterMeter:MC0203J22010600005","2023-06-09T07:00:00",20.799,34.02633,0.193],
    [3107,"urn:WaterMeter:MC0203J22010600005","2023-06-09T07:15:00",20.799,33.94491,0.197],
    [3108,"urn:WaterMeter:MC0203J22010600005","2023-06-09T07:30:00",20.899,33.902626,0.195],
    [3109,"urn:WaterMeter:MC0203J22010600005","2023-06-09T07:45:00",21.1,33.850998,0.195],
    [3110,"urn:WaterMeter:MC0203J22010600005","2023-06-09T08:00:00",21.399,33.851387,0.191],
    [3111,"urn:WaterMeter:MC0203J22010600005","2023-06-09T08:15:00",21.7,33.7335,0.189],
    [3112,"urn:WaterMeter:MC0203J22010600005","2023-06-09T08:30:00",22.2,33.680748,0.183],
    [3113,"urn:WaterMeter:MC0203J22010600005","2023-06-09T08:45:00",22.799,33.598476,0.191],
    [3114,"urn:WaterMeter:MC0203J22010600005","2023-06-09T09:00:00",23.299,33.52908,0.187],
    [3115,"urn:WaterMeter:MC0203J22010600005","2023-06-09T09:15:00",23.799,33.509296,0.184],
    [3116,"urn:WaterMeter:MC0203J22010600005","2023-06-09T09:30:00",24.2,33.41504,0.19],
    [3117,"urn:WaterMeter:MC0203J22010600005","2023-06-09T09:45:00",24.799,33.38129,0.188],
    [3118,"urn:WaterMeter:MC0203J22010600005","2023-06-09T10:00:00",25.299,33.26453,0.188],
    [3119,"urn:WaterMeter:MC0203J22010600005","2023-06-09T10:15:00",25.899,33.208286,0.189],
    [3120,"urn:WaterMeter:MC0203J22010600005","2023-06-09T10:30:00",26.5,33.122562,0.18],
    [3121,"urn:WaterMeter:MC0203J22010600005","2023-06-09T10:45:00",27,33.05429,0.178],
    [3122,"urn:WaterMeter:MC0203J22010600005","2023-06-09T11:00:00",27.6,32.931286,0.18],
    [3123,"urn:WaterMeter:MC0203J22010600005","2023-06-09T11:15:00",28.1,32.84948,0.175],
    [3124,"urn:WaterMeter:MC0203J22010600005","2023-06-09T11:30:00",28.2,32.81961,0.183],
    [3125,"urn:WaterMeter:MC0203J22010600005","2023-06-09T11:45:00",27.7,32.736214,0.18],
    [3126,"urn:WaterMeter:MC0203J22010600005","2023-06-09T12:00:00",27.7,32.684235,0.184],
    [3127,"urn:WaterMeter:MC0203J22010600005","2023-06-09T12:15:00",28.1,32.680744,0.181],
    [3128,"urn:WaterMeter:MC0203J22010600005","2023-06-09T12:30:00",28.399,32.556225,0.18],
    [3129,"urn:WaterMeter:MC0203J22010600005","2023-06-09T12:45:00",28.5,32.52438,0.182],
    [3130,"urn:WaterMeter:MC0203J22010600005","2023-06-09T13:00:00",28.6,32.452656,0.182],
    [3131,"urn:WaterMeter:MC0203J22010600005","2023-06-09T13:15:00",28.6,32.367706,0.183],
    [3132,"urn:WaterMeter:MC0203J22010600005","2023-06-09T13:30:00",28.5,32.32465,0.182],
    [3133,"urn:WaterMeter:MC0203J22010600005","2023-06-09T13:45:00",28.5,32.295944,0.189],
    [3134,"urn:WaterMeter:MC0203J22010600005","2023-06-09T14:00:00",28.399,32.210995,0.183],
    [3135,"urn:WaterMeter:MC0203J22010600005","2023-06-09T14:15:00",28.299,32.166775,0.188],
    [3136,"urn:WaterMeter:MC0203J22010600005","2023-06-09T14:30:00",28.2,32.14001,0.181],
    [3137,"urn:WaterMeter:MC0203J22010600005","2023-06-09T14:45:00",28.1,32.101997,0.183],
    [3138,"urn:WaterMeter:MC0203J22010600005","2023-06-09T15:00:00",28,32.03101,0.19],
    [3139,"urn:WaterMeter:MC0203J22010600005","2023-06-09T15:15:00",27.799,32.009636,0.182],
    [3140,"urn:WaterMeter:MC0203J22010600005","2023-06-09T15:30:00",27.6,31.9736,0.185],
    [3141,"urn:WaterMeter:MC0203J22010600005","2023-06-09T15:45:00",27.299,31.970846,0.18],
    [3142,"urn:WaterMeter:MC0203J22010600005","2023-06-09T16:00:00",27.2,31.899511,0.179],
    [3143,"urn:WaterMeter:MC0203J22010600005","2023-06-09T16:15:00",26.899,31.882832,0.18],
    [3144,"urn:WaterMeter:MC0203J22010600005","2023-06-09T16:30:00",26.7,31.845943,0.179],
    [3145,"urn:WaterMeter:MC0203J22010600005","2023-06-09T16:45:00",26.5,31.816074,0.184],
    [3146,"urn:WaterMeter:MC0203J22010600005","2023-06-09T17:00:00",26.299,31.771505,0.18],
    [3147,"urn:WaterMeter:MC0203J22010600005","2023-06-09T17:15:00",26.2,31.763746,0.183],
    [3148,"urn:WaterMeter:MC0203J22010600005","2023-06-09T17:30:00",26.1,31.744352,0.182],
    [3149,"urn:WaterMeter:MC0203J22010600005","2023-06-09T17:45:00",26,31.74668,0.182],
    [3150,"urn:WaterMeter:MC0203J22010600005","2023-06-09T18:00:00",25.799,31.703623,0.179],
    [3151,"urn:WaterMeter:MC0203J22010600005","2023-06-09T18:15:00",25.7,31.69509,0.183],
    [3152,"urn:WaterMeter:MC0203J22010600005","2023-06-09T18:30:00",25.5,31.64466,0.187],
    [3153,"urn:WaterMeter:MC0203J22010600005","2023-06-09T18:45:00",25.399,31.657074,0.177],
    [3154,"urn:WaterMeter:MC0203J22010600005","2023-06-09T19:00:00",25.2,31.62837,0.184],
    [3155,"urn:WaterMeter:MC0203J22010600005","2023-06-09T19:15:00",25.1,31.671,0.177],
    [3156,"urn:WaterMeter:MC0203J22010600005","2023-06-09T19:30:00",24.899,31.599665,0.181],
    [3157,"urn:WaterMeter:MC0203J22010600005","2023-06-09T19:45:00",24.799,31.588804,0.168],
    [3158,"urn:WaterMeter:MC0203J22010600005","2023-06-09T20:00:00",24.6,31.61359,0.185],
    [3159,"urn:WaterMeter:MC0203J22010600005","2023-06-09T20:15:00",24.5,31.596561,0.184],
    [3160,"urn:WaterMeter:MC0203J22010600005","2023-06-09T20:30:00",24.399,31.574024,0.181],
    [3161,"urn:WaterMeter:MC0203J22010600005","2023-06-09T20:45:00",24.2,31.558935,0.184],
    [3162,"urn:WaterMeter:MC0203J22010600005","2023-06-09T21:00:00",24.1,31.638844,0.19],
    [3163,"urn:WaterMeter:MC0203J22010600005","2023-06-09T21:15:00",24,31.578331,0.187],
    [3164,"urn:WaterMeter:MC0203J22010600005","2023-06-09T21:30:00",23.799,31.583723,0.176],
    [3165,"urn:WaterMeter:MC0203J22010600005","2023-06-09T21:45:00",23.7,31.58217,0.186],
    [3166,"urn:WaterMeter:MC0203J22010600005","2023-06-09T22:00:00",23.6,31.581394,0.183],
    [3167,"urn:WaterMeter:MC0203J22010600005","2023-06-09T22:15:00",23.399,31.553854,0.181],
    [3168,"urn:WaterMeter:MC0203J22010600005","2023-06-09T22:30:00",23.299,31.580658,0.183],
    [3169,"urn:WaterMeter:MC0203J22010600005","2023-06-09T22:45:00",23.2,31.617508,0.182],
    [3170,"urn:WaterMeter:MC0203J22010600005","2023-06-09T23:00:00",23,31.590355,0.183],
    [3171,"urn:WaterMeter:MC0203J22010600005","2023-06-09T23:15:00",22.899,31.549238,0.188],
    [3172,"urn:WaterMeter:MC0203J22010600005","2023-06-09T23:30:00",22.799,31.565104,0.176],
    [3173,"urn:WaterMeter:MC0203J22010600005","2023-06-09T23:45:00",22.7,31.562,0.182],
    [3174,"urn:WaterMeter:MC0203J22010600005","2023-06-10T00:00:00",22.6,31.569798,0.184],
    [3175,"urn:WaterMeter:MC0203J22010600005","2023-06-10T00:15:00",22.399,31.566694,0.181],
    [3176,"urn:WaterMeter:MC0203J22010600005","2023-06-10T00:30:00",22.299,31.575228,0.182],
    [3177,"urn:WaterMeter:MC0203J22010600005","2023-06-10T00:45:00",22.2,31.559324,0.177],
    [3178,"urn:WaterMeter:MC0203J22010600005","2023-06-10T01:00:00",22.2,31.569408,0.18],
    [3179,"urn:WaterMeter:MC0203J22010600005","2023-06-10T01:15:00",22.1,31.577168,0.179],
    [3180,"urn:WaterMeter:MC0203J22010600005","2023-06-10T01:30:00",22.1,31.562,0.19],
    [3181,"urn:WaterMeter:MC0203J22010600005","2023-06-10T01:45:00",22,31.523598,0.18],
    [3182,"urn:WaterMeter:MC0203J22010600005","2023-06-10T02:00:00",21.899,31.530619,0.18],
    [3183,"urn:WaterMeter:MC0203J22010600005","2023-06-10T02:15:00",21.899,31.534111,0.178],
    [3184,"urn:WaterMeter:MC0203J22010600005","2023-06-10T02:30:00",21.799,31.528292,0.182],
    [3185,"urn:WaterMeter:MC0203J22010600005","2023-06-10T02:45:00",21.799,31.536438,0.179],
    [3186,"urn:WaterMeter:MC0203J22010600005","2023-06-10T03:00:00",21.7,31.579882,0.179],
    [3187,"urn:WaterMeter:MC0203J22010600005","2023-06-10T03:15:00",21.7,31.539541,0.171],
    [3188,"urn:WaterMeter:MC0203J22010600005","2023-06-10T03:30:00",21.7,31.556221,0.183],
    [3189,"urn:WaterMeter:MC0203J22010600005","2023-06-10T03:45:00",21.6,31.548462,0.177],
    [3190,"urn:WaterMeter:MC0203J22010600005","2023-06-10T04:00:00",21.6,31.512775,0.182],
    [3191,"urn:WaterMeter:MC0203J22010600005","2023-06-10T04:15:00",21.5,31.494156,0.175],
    [3192,"urn:WaterMeter:MC0203J22010600005","2023-06-10T04:30:00",21.399,31.541092,0.178],
    [3193,"urn:WaterMeter:MC0203J22010600005","2023-06-10T04:45:00",21.399,31.530231,0.179],
    [3194,"urn:WaterMeter:MC0203J22010600005","2023-06-10T05:00:00",21.299,31.516615,0.184],
    [3195,"urn:WaterMeter:MC0203J22010600005","2023-06-10T05:15:00",21.299,31.530231,0.179],
    [3196,"urn:WaterMeter:MC0203J22010600005","2023-06-10T05:30:00",21.299,31.494545,0.176],
    [3197,"urn:WaterMeter:MC0203J22010600005","2023-06-10T05:45:00",21.299,31.488338,0.179],
    [3198,"urn:WaterMeter:MC0203J22010600005","2023-06-10T06:00:00",21.2,31.453815,0.174],
    [3199,"urn:WaterMeter:MC0203J22010600005","2023-06-10T06:15:00",21.2,31.469719,0.175],
    [3200,"urn:WaterMeter:MC0203J22010600005","2023-06-10T06:30:00",21.1,31.494932,0.184],
    [3201,"urn:WaterMeter:MC0203J22010600005","2023-06-10T06:45:00",21.2,31.462736,0.18],
    [3202,"urn:WaterMeter:MC0203J22010600005","2023-06-10T07:00:00",21.299,31.4639,0.175],
    [3203,"urn:WaterMeter:MC0203J22010600005","2023-06-10T07:15:00",21.399,31.381666,0.185],
    [3204,"urn:WaterMeter:MC0203J22010600005","2023-06-10T07:30:00",21.5,31.398695,0.175],
    [3205,"urn:WaterMeter:MC0203J22010600005","2023-06-10T07:45:00",21.799,31.350595,0.173],
    [3206,"urn:WaterMeter:MC0203J22010600005","2023-06-10T08:00:00",22.1,31.31064,0.179],
    [3207,"urn:WaterMeter:MC0203J22010600005","2023-06-10T08:15:00",22.5,31.280424,0.171],
    [3208,"urn:WaterMeter:MC0203J22010600005","2023-06-10T08:30:00",22.899,31.214054,0.17],
    [3209,"urn:WaterMeter:MC0203J22010600005","2023-06-10T08:45:00",23.5,31.161726,0.174],
    [3210,"urn:WaterMeter:MC0203J22010600005","2023-06-10T09:00:00",24.2,31.12604,0.166],
    [3211,"urn:WaterMeter:MC0203J22010600005","2023-06-10T09:15:00",24.7,31.098848,0.172],
    [3212,"urn:WaterMeter:MC0203J22010600005","2023-06-10T09:30:00",25.399,30.99295,0.172],
    [3213,"urn:WaterMeter:MC0203J22010600005","2023-06-10T09:45:00",26.1,30.948381,0.173],
    [3214,"urn:WaterMeter:MC0203J22010600005","2023-06-10T10:00:00",26.7,30.84908,0.172],
    [3215,"urn:WaterMeter:MC0203J22010600005","2023-06-10T10:15:00",27.2,30.794773,0.169],
    [3216,"urn:WaterMeter:MC0203J22010600005","2023-06-10T10:30:00",27.799,30.712925,0.169],
    [3217,"urn:WaterMeter:MC0203J22010600005","2023-06-10T10:45:00",28.299,30.656292,0.167],
    [3218,"urn:WaterMeter:MC0203J22010600005","2023-06-10T11:00:00",28.799,30.557379,0.167],
    [3219,"urn:WaterMeter:MC0203J22010600005","2023-06-10T11:15:00",29.299,30.506176,0.165],
    [3220,"urn:WaterMeter:MC0203J22010600005","2023-06-10T11:30:00",29.7,30.448727,0.164],
    [3221,"urn:WaterMeter:MC0203J22010600005","2023-06-10T11:45:00",29.899,30.38162,0.164],
    [3222,"urn:WaterMeter:MC0203J22010600005","2023-06-10T12:00:00",30.2,30.290503,0.165],
    [3223,"urn:WaterMeter:MC0203J22010600005","2023-06-10T12:15:00",30.399,30.22646,0.171],
    [3224,"urn:WaterMeter:MC0203J22010600005","2023-06-10T12:30:00",30.399,30.146553,0.16],
    [3225,"urn:WaterMeter:MC0203J22010600005","2023-06-10T12:45:00",30.399,30.10815,0.167],
    [3226,"urn:WaterMeter:MC0203J22010600005","2023-06-10T13:00:00",30.299,29.993332,0.167],
    [3227,"urn:WaterMeter:MC0203J22010600005","2023-06-10T13:15:00",30.299,29.94954,0.168],
    [3228,"urn:WaterMeter:MC0203J22010600005","2023-06-10T13:30:00",30.2,29.913036,0.162],
    [3229,"urn:WaterMeter:MC0203J22010600005","2023-06-10T13:45:00",30,29.835108,0.179],
    [3230,"urn:WaterMeter:MC0203J22010600005","2023-06-10T14:00:00",29.899,29.778437,0.165],
    [3231,"urn:WaterMeter:MC0203J22010600005","2023-06-10T14:15:00",29.799,29.732702,0.174],
    [3232,"urn:WaterMeter:MC0203J22010600005","2023-06-10T14:30:00",29.7,29.67025,0.172],
    [3233,"urn:WaterMeter:MC0203J22010600005","2023-06-10T14:45:00",29.7,29.604269,0.162],
    [3234,"urn:WaterMeter:MC0203J22010600005","2023-06-10T15:00:00",29.6,29.578318,0.163],
    [3235,"urn:WaterMeter:MC0203J22010600005","2023-06-10T15:15:00",29.399,29.512375,0.169],
    [3236,"urn:WaterMeter:MC0203J22010600005","2023-06-10T15:30:00",29.1,29.437122,0.163],
    [3237,"urn:WaterMeter:MC0203J22010600005","2023-06-10T15:45:00",28.799,29.392864,0.16],
    [3238,"urn:WaterMeter:MC0203J22010600005","2023-06-10T16:00:00",28.5,29.37506,0.167],
    [3239,"urn:WaterMeter:MC0203J22010600005","2023-06-10T16:15:00",28.299,29.3192,0.162],
    [3240,"urn:WaterMeter:MC0203J22010600005","2023-06-10T16:30:00",28.1,29.283514,0.166],
    [3241,"urn:WaterMeter:MC0203J22010600005","2023-06-10T16:45:00",28,29.259464,0.163],
    [3242,"urn:WaterMeter:MC0203J22010600005","2023-06-10T17:00:00",27.799,29.191582,0.161],
    [3243,"urn:WaterMeter:MC0203J22010600005","2023-06-10T17:15:00",27.6,29.22339,0.166],
    [3244,"urn:WaterMeter:MC0203J22010600005","2023-06-10T17:30:00",27.399,29.150038,0.164],
    [3245,"urn:WaterMeter:MC0203J22010600005","2023-06-10T17:45:00",27.2,29.130255,0.159],
    [3246,"urn:WaterMeter:MC0203J22010600005","2023-06-10T18:00:00",27.1,29.096159,0.159],
    [3247,"urn:WaterMeter:MC0203J22010600005","2023-06-10T18:15:00",26.899,29.078703,0.163],
    [3248,"urn:WaterMeter:MC0203J22010600005","2023-06-10T18:30:00",26.7,29.060822,0.163],
    [3249,"urn:WaterMeter:MC0203J22010600005","2023-06-10T18:45:00",26.5,29.052675,0.169],
    [3250,"urn:WaterMeter:MC0203J22010600005","2023-06-10T19:00:00",26.299,29.04767,0.16],
    [3251,"urn:WaterMeter:MC0203J22010600005","2023-06-10T19:15:00",26.1,28.976297,0.165],
    [3252,"urn:WaterMeter:MC0203J22010600005","2023-06-10T19:30:00",25.899,28.998407,0.166],
    [3253,"urn:WaterMeter:MC0203J22010600005","2023-06-10T19:45:00",25.7,28.980953,0.158],
    [3254,"urn:WaterMeter:MC0203J22010600005","2023-06-10T20:00:00",25.5,28.976685,0.162],
    [3255,"urn:WaterMeter:MC0203J22010600005","2023-06-10T20:15:00",25.299,28.9538,0.174],
    [3256,"urn:WaterMeter:MC0203J22010600005","2023-06-10T20:30:00",25.1,28.965786,0.167],
    [3257,"urn:WaterMeter:MC0203J22010600005","2023-06-10T20:45:00",24.899,28.965397,0.169],
    [3258,"urn:WaterMeter:MC0203J22010600005","2023-06-10T21:00:00",24.7,28.968151,0.166],
    [3259,"urn:WaterMeter:MC0203J22010600005","2023-06-10T21:15:00",24.5,28.971643,0.172],
    [3260,"urn:WaterMeter:MC0203J22010600005","2023-06-10T21:30:00",24.399,28.928585,0.168],
    [3261,"urn:WaterMeter:MC0203J22010600005","2023-06-10T21:45:00",24.2,28.949532,0.162],
    [3262,"urn:WaterMeter:MC0203J22010600005","2023-06-10T22:00:00",24,28.972418,0.164],
    [3263,"urn:WaterMeter:MC0203J22010600005","2023-06-10T22:15:00",23.899,28.941387,0.16],
    [3264,"urn:WaterMeter:MC0203J22010600005","2023-06-10T22:30:00",23.7,28.963846,0.165],
    [3265,"urn:WaterMeter:MC0203J22010600005","2023-06-10T22:45:00",23.6,28.96854,0.157],
    [3266,"urn:WaterMeter:MC0203J22010600005","2023-06-10T23:00:00",23.5,28.96307,0.164],
    [3267,"urn:WaterMeter:MC0203J22010600005","2023-06-10T23:15:00",23.299,28.92428,0.164],
    [3268,"urn:WaterMeter:MC0203J22010600005","2023-06-10T23:30:00",23.2,28.979788,0.159],
    [3269,"urn:WaterMeter:MC0203J22010600005","2023-06-10T23:45:00",23.1,28.94484,0.156],
    [3270,"urn:WaterMeter:MC0203J22010600005","2023-06-11T00:00:00",22.899,29.008493,0.171],
    [3271,"urn:WaterMeter:MC0203J22010600005","2023-06-11T00:15:00",22.799,28.96307,0.167],
    [3272,"urn:WaterMeter:MC0203J22010600005","2023-06-11T00:30:00",22.7,28.991814,0.17],
    [3273,"urn:WaterMeter:MC0203J22010600005","2023-06-11T00:45:00",22.7,28.966173,0.161],
    [3274,"urn:WaterMeter:MC0203J22010600005","2023-06-11T01:00:00",22.6,29.0038,0.161],
    [3275,"urn:WaterMeter:MC0203J22010600005","2023-06-11T01:15:00",22.5,28.888594,0.164],
    [3276,"urn:WaterMeter:MC0203J22010600005","2023-06-11T01:30:00",22.399,28.894451,0.164],
    [3277,"urn:WaterMeter:MC0203J22010600005","2023-06-11T01:45:00",22.299,28.876219,0.166],
    [3278,"urn:WaterMeter:MC0203J22010600005","2023-06-11T02:00:00",22.2,28.870012,0.162],
    [3279,"urn:WaterMeter:MC0203J22010600005","2023-06-11T02:15:00",22.1,28.862255,0.161],
    [3280,"urn:WaterMeter:MC0203J22010600005","2023-06-11T02:30:00",22,28.885101,0.16],
    [3281,"urn:WaterMeter:MC0203J22010600005","2023-06-11T02:45:00",21.899,28.873116,0.162],
    [3282,"urn:WaterMeter:MC0203J22010600005","2023-06-11T03:00:00",21.799,28.848251,0.149],
    [3283,"urn:WaterMeter:MC0203J22010600005","2023-06-11T03:15:00",21.7,28.88902,0.165],
    [3284,"urn:WaterMeter:MC0203J22010600005","2023-06-11T03:30:00",21.6,28.874279,0.161],
    [3285,"urn:WaterMeter:MC0203J22010600005","2023-06-11T03:45:00",21.5,28.875055,0.159],
    [3286,"urn:WaterMeter:MC0203J22010600005","2023-06-11T04:00:00",21.399,28.857948,0.162],
    [3287,"urn:WaterMeter:MC0203J22010600005","2023-06-11T04:15:00",21.299,28.892899,0.161],
    [3288,"urn:WaterMeter:MC0203J22010600005","2023-06-11T04:30:00",21.299,28.889795,0.159],
    [3289,"urn:WaterMeter:MC0203J22010600005","2023-06-11T04:45:00",21.2,28.895226,0.16],
    [3290,"urn:WaterMeter:MC0203J22010600005","2023-06-11T05:00:00",21.1,28.866095,0.155],
    [3291,"urn:WaterMeter:MC0203J22010600005","2023-06-11T05:15:00",21.1,28.872341,0.159],
    [3292,"urn:WaterMeter:MC0203J22010600005","2023-06-11T05:30:00",21.1,28.884752,0.155],
    [3293,"urn:WaterMeter:MC0203J22010600005","2023-06-11T05:45:00",21.1,28.890572,0.161],
    [3294,"urn:WaterMeter:MC0203J22010600005","2023-06-11T06:00:00",21.1,28.828081,0.156],
    [3295,"urn:WaterMeter:MC0203J22010600005","2023-06-11T06:15:00",21.2,28.841309,0.156],
    [3296,"urn:WaterMeter:MC0203J22010600005","2023-06-11T06:30:00",21.2,28.818422,0.157],
    [3297,"urn:WaterMeter:MC0203J22010600005","2023-06-11T06:45:00",21.299,28.795923,0.151],
    [3298,"urn:WaterMeter:MC0203J22010600005","2023-06-11T07:00:00",21.399,28.81532,0.157],
    [3299,"urn:WaterMeter:MC0203J22010600005","2023-06-11T07:15:00",21.6,28.775753,0.155],
    [3300,"urn:WaterMeter:MC0203J22010600005","2023-06-11T07:30:00",21.7,28.774977,0.154],
    [3301,"urn:WaterMeter:MC0203J22010600005","2023-06-11T07:45:00",21.899,28.710936,0.155],
    [3302,"urn:WaterMeter:MC0203J22010600005","2023-06-11T08:00:00",22,28.764893,0.156],
    [3303,"urn:WaterMeter:MC0203J22010600005","2023-06-11T08:15:00",22.399,28.69507,0.161],
    [3304,"urn:WaterMeter:MC0203J22010600005","2023-06-11T08:30:00",23,28.660547,0.152],
    [3305,"urn:WaterMeter:MC0203J22010600005","2023-06-11T08:45:00",23.799,28.619818,0.147],
    [3306,"urn:WaterMeter:MC0203J22010600005","2023-06-11T09:00:00",24.5,28.51392,0.151],
    [3307,"urn:WaterMeter:MC0203J22010600005","2023-06-11T09:15:00",25.1,28.489832,0.154],
    [3308,"urn:WaterMeter:MC0203J22010600005","2023-06-11T09:30:00",25.799,28.414618,0.149],
    [3309,"urn:WaterMeter:MC0203J22010600005","2023-06-11T09:45:00",26.399,28.326952,0.144],
    [3310,"urn:WaterMeter:MC0203J22010600005","2023-06-11T10:00:00",27,28.25364,0.146],
    [3311,"urn:WaterMeter:MC0203J22010600005","2023-06-11T10:15:00",27.6,28.210583,0.143],
    [3312,"urn:WaterMeter:MC0203J22010600005","2023-06-11T10:30:00",28.1,28.139597,0.145],
    [3313,"urn:WaterMeter:MC0203J22010600005","2023-06-11T10:45:00",28.7,28.058138,0.141],
    [3314,"urn:WaterMeter:MC0203J22010600005","2023-06-11T11:00:00",29.299,27.990644,0.137],
    [3315,"urn:WaterMeter:MC0203J22010600005","2023-06-11T11:15:00",29.7,27.914227,0.148],
    [3316,"urn:WaterMeter:MC0203J22010600005","2023-06-11T11:30:00",30.1,27.809494,0.142],
    [3317,"urn:WaterMeter:MC0203J22010600005","2023-06-11T11:45:00",30.399,27.734203,0.14],
    [3318,"urn:WaterMeter:MC0203J22010600005","2023-06-11T12:00:00",30.6,27.676832,0.147],
    [3319,"urn:WaterMeter:MC0203J22010600005","2023-06-11T12:15:00",30.7,27.603132,0.14],
    [3320,"urn:WaterMeter:MC0203J22010600005","2023-06-11T12:30:00",30.7,27.53486,0.141],
    [3321,"urn:WaterMeter:MC0203J22010600005","2023-06-11T12:45:00",30.6,27.435947,0.14],
    [3322,"urn:WaterMeter:MC0203J22010600005","2023-06-11T13:00:00",30.399,27.379313,0.149],
    [3323,"urn:WaterMeter:MC0203J22010600005","2023-06-11T13:15:00",30.299,27.284277,0.146],
    [3324,"urn:WaterMeter:MC0203J22010600005","2023-06-11T13:30:00",30.1,27.253633,0.144],
    [3325,"urn:WaterMeter:MC0203J22010600005","2023-06-11T13:45:00",30,27.198513,0.149],
    [3326,"urn:WaterMeter:MC0203J22010600005","2023-06-11T14:00:00",29.899,27.121708,0.142],
    [3327,"urn:WaterMeter:MC0203J22010600005","2023-06-11T14:15:00",29.7,27.035982,0.142],
    [3328,"urn:WaterMeter:MC0203J22010600005","2023-06-11T14:30:00",29.6,26.970467,0.151],
    [3329,"urn:WaterMeter:MC0203J22010600005","2023-06-11T14:45:00",29.399,26.891335,0.138],
    [3330,"urn:WaterMeter:MC0203J22010600005","2023-06-11T15:00:00",29.299,26.869186,0.144],
    [3331,"urn:WaterMeter:MC0203J22010600005","2023-06-11T15:15:00",29.1,26.835478,0.143],
    [3332,"urn:WaterMeter:MC0203J22010600005","2023-06-11T15:30:00",29,26.758286,0.142],
    [3333,"urn:WaterMeter:MC0203J22010600005","2023-06-11T15:45:00",28.899,26.707083,0.13],
    [3334,"urn:WaterMeter:MC0203J22010600005","2023-06-11T16:00:00",28.7,26.679153,0.139],
    [3335,"urn:WaterMeter:MC0203J22010600005","2023-06-11T16:15:00",28.6,26.60778,0.138],
    [3336,"urn:WaterMeter:MC0203J22010600005","2023-06-11T16:30:00",28.399,26.55072,0.143],
    [3337,"urn:WaterMeter:MC0203J22010600005","2023-06-11T16:45:00",28.299,26.564724,0.142],
    [3338,"urn:WaterMeter:MC0203J22010600005","2023-06-11T17:00:00",28.1,26.494902,0.14],
    [3339,"urn:WaterMeter:MC0203J22010600005","2023-06-11T17:15:00",27.899,26.462667,0.137],
    [3340,"urn:WaterMeter:MC0203J22010600005","2023-06-11T17:30:00",27.799,26.429346,0.137],
    [3341,"urn:WaterMeter:MC0203J22010600005","2023-06-11T17:45:00",27.6,26.38784,0.14],
    [3342,"urn:WaterMeter:MC0203J22010600005","2023-06-11T18:00:00",27.5,26.375776,0.138],
    [3343,"urn:WaterMeter:MC0203J22010600005","2023-06-11T18:15:00",27.299,26.316854,0.135],
    [3344,"urn:WaterMeter:MC0203J22010600005","2023-06-11T18:30:00",27.1,26.2885,0.147],
    [3345,"urn:WaterMeter:MC0203J22010600005","2023-06-11T18:45:00",26.899,26.29781,0.139],
    [3346,"urn:WaterMeter:MC0203J22010600005","2023-06-11T19:00:00",26.7,26.27535,0.144],
    [3347,"urn:WaterMeter:MC0203J22010600005","2023-06-11T19:15:00",26.5,26.259794,0.14],
    [3348,"urn:WaterMeter:MC0203J22010600005","2023-06-11T19:30:00",26.299,26.26988,0.147],
    [3349,"urn:WaterMeter:MC0203J22010600005","2023-06-11T19:45:00",26.1,26.28272,0.145],
    [3350,"urn:WaterMeter:MC0203J22010600005","2023-06-11T20:00:00",25.899,26.25867,0.143],
    [3351,"urn:WaterMeter:MC0203J22010600005","2023-06-11T20:15:00",25.799,26.277678,0.136],
    [3352,"urn:WaterMeter:MC0203J22010600005","2023-06-11T20:30:00",25.6,26.25902,0.139],
    [3353,"urn:WaterMeter:MC0203J22010600005","2023-06-11T20:45:00",25.5,26.263712,0.146],
    [3354,"urn:WaterMeter:MC0203J22010600005","2023-06-11T21:00:00",25.299,26.296297,0.14],
    [3355,"urn:WaterMeter:MC0203J22010600005","2023-06-11T21:15:00",25.2,26.264101,0.139],
    [3356,"urn:WaterMeter:MC0203J22010600005","2023-06-11T21:30:00",25,26.280392,0.14],
    [3357,"urn:WaterMeter:MC0203J22010600005","2023-06-11T21:45:00",24.899,26.296684,0.137],
    [3358,"urn:WaterMeter:MC0203J22010600005","2023-06-11T22:00:00",24.7,26.241602,0.14],
    [3359,"urn:WaterMeter:MC0203J22010600005","2023-06-11T22:15:00",24.6,26.285824,0.143],
    [3360,"urn:WaterMeter:MC0203J22010600005","2023-06-11T22:30:00",24.399,26.252851,0.136],
    [3361,"urn:WaterMeter:MC0203J22010600005","2023-06-11T22:45:00",24.299,26.272635,0.139],
    [3362,"urn:WaterMeter:MC0203J22010600005","2023-06-11T23:00:00",24.2,26.303667,0.141],
    [3363,"urn:WaterMeter:MC0203J22010600005","2023-06-11T23:15:00",24,26.271858,0.134],
    [3364,"urn:WaterMeter:MC0203J22010600005","2023-06-11T23:30:00",23.899,26.320347,0.136],
    [3365,"urn:WaterMeter:MC0203J22010600005","2023-06-11T23:45:00",23.799,26.313364,0.142],
    [3366,"urn:WaterMeter:MC0203J22010600005","2023-06-12T00:00:00",23.7,26.312588,0.141],
    [3367,"urn:WaterMeter:MC0203J22010600005","2023-06-12T00:15:00",23.5,26.310648,0.138],
    [3368,"urn:WaterMeter:MC0203J22010600005","2023-06-12T00:30:00",23.399,26.304054,0.14],
    [3369,"urn:WaterMeter:MC0203J22010600005","2023-06-12T00:45:00",23.299,26.277678,0.141],
    [3370,"urn:WaterMeter:MC0203J22010600005","2023-06-12T01:00:00",23.2,26.333923,0.133],
    [3371,"urn:WaterMeter:MC0203J22010600005","2023-06-12T01:15:00",23.1,26.33276,0.142],
    [3372,"urn:WaterMeter:MC0203J22010600005","2023-06-12T01:30:00",23,26.32535,0.14],
    [3373,"urn:WaterMeter:MC0203J22010600005","2023-06-12T01:45:00",22.899,26.324614,0.139],
    [3374,"urn:WaterMeter:MC0203J22010600005","2023-06-12T02:00:00",22.899,26.267553,0.133],
    [3375,"urn:WaterMeter:MC0203J22010600005","2023-06-12T02:15:00",22.799,26.33431,0.137],
    [3376,"urn:WaterMeter:MC0203J22010600005","2023-06-12T02:30:00",22.7,26.338577,0.13],
    [3377,"urn:WaterMeter:MC0203J22010600005","2023-06-12T02:45:00",22.7,26.34168,0.141],
    [3378,"urn:WaterMeter:MC0203J22010600005","2023-06-12T03:00:00",22.6,26.294744,0.141],
    [3379,"urn:WaterMeter:MC0203J22010600005","2023-06-12T03:15:00",22.5,26.316854,0.141],
    [3380,"urn:WaterMeter:MC0203J22010600005","2023-06-12T03:30:00",22.5,26.314915,0.144],
    [3381,"urn:WaterMeter:MC0203J22010600005","2023-06-12T03:45:00",22.399,26.30867,0.142],
    [3382,"urn:WaterMeter:MC0203J22010600005","2023-06-12T04:00:04",22.399,26.335863,0.146],
    [3383,"urn:WaterMeter:MC0203J22010600005","2023-06-12T04:15:00",22.299,26.329657,0.137],
    [3384,"urn:WaterMeter:MC0203J22010600005","2023-06-12T04:30:00",22.299,26.365692,0.135],
    [3385,"urn:WaterMeter:MC0203J22010600005","2023-06-12T04:45:00",22.2,26.327677,0.143],
    [3386,"urn:WaterMeter:MC0203J22010600005","2023-06-12T05:00:00",22.2,26.305956,0.141],
    [3387,"urn:WaterMeter:MC0203J22010600005","2023-06-12T05:15:00",22.1,26.280392,0.135],
    [3388,"urn:WaterMeter:MC0203J22010600005","2023-06-12T05:30:00",22.2,26.323837,0.135],
    [3389,"urn:WaterMeter:MC0203J22010600005","2023-06-12T05:45:00",22.2,26.295134,0.137],
    [3390,"urn:WaterMeter:MC0203J22010600005","2023-06-12T06:00:00",22.2,26.2885,0.138],
    [3391,"urn:WaterMeter:MC0203J22010600005","2023-06-12T06:15:00",22.299,26.319183,0.143],
    [3392,"urn:WaterMeter:MC0203J22010600005","2023-06-12T06:30:00",22.399,26.271084,0.134],
    [3393,"urn:WaterMeter:MC0203J22010600005","2023-06-12T06:45:00",22.5,26.2885,0.14],
    [3394,"urn:WaterMeter:MC0203J22010600005","2023-06-12T07:00:00",22.6,26.244705,0.131],
    [3395,"urn:WaterMeter:MC0203J22010600005","2023-06-12T07:15:00",22.799,26.26988,0.133],
    [3396,"urn:WaterMeter:MC0203J22010600005","2023-06-12T07:30:00",23,26.203976,0.141],
    [3397,"urn:WaterMeter:MC0203J22010600005","2023-06-12T07:45:00",23.299,26.221394,0.139],
    [3398,"urn:WaterMeter:MC0203J22010600005","2023-06-12T08:00:00",23.5,26.13493,0.135],
    [3399,"urn:WaterMeter:MC0203J22010600005","2023-06-12T08:15:00",23.7,26.1423,0.137],
    [3400,"urn:WaterMeter:MC0203J22010600005","2023-06-12T08:30:00",24,26.104248,0.131],
    [3401,"urn:WaterMeter:MC0203J22010600005","2023-06-12T08:45:00",24.399,26.097692,0.133],
    [3402,"urn:WaterMeter:MC0203J22010600005","2023-06-12T09:00:00",24.7,26.022827,0.133],
    [3403,"urn:WaterMeter:MC0203J22010600005","2023-06-12T09:15:00",25.2,26.02205,0.133],
    [3404,"urn:WaterMeter:MC0203J22010600005","2023-06-12T09:30:00",25.7,25.932446,0.138],
    [3405,"urn:WaterMeter:MC0203J22010600005","2023-06-12T09:45:00",26.2,25.926628,0.137],
    [3406,"urn:WaterMeter:MC0203J22010600005","2023-06-12T10:00:00",26.799,25.831203,0.13],
    [3407,"urn:WaterMeter:MC0203J22010600005","2023-06-12T10:15:00",27.299,25.753237,0.132],
    [3408,"urn:WaterMeter:MC0203J22010600005","2023-06-12T10:30:00",27.799,25.73229,0.13],
    [3409,"urn:WaterMeter:MC0203J22010600005","2023-06-12T10:45:00",28.299,25.66945,0.132],
    [3410,"urn:WaterMeter:MC0203J22010600005","2023-06-12T11:00:00",28.7,25.594973,0.134],
    [3411,"urn:WaterMeter:MC0203J22010600005","2023-06-12T11:15:00",29.2,25.517393,0.128],
    [3412,"urn:WaterMeter:MC0203J22010600005","2023-06-12T11:30:00",29.6,25.452187,0.131],
    [3413,"urn:WaterMeter:MC0203J22010600005","2023-06-12T11:45:00",29.899,25.363785,0.132],
    [3414,"urn:WaterMeter:MC0203J22010600005","2023-06-12T12:00:00",30.1,25.30366,0.128],
    [3415,"urn:WaterMeter:MC0203J22010600005","2023-06-12T12:15:00",30.2,25.226856,0.13],
    [3416,"urn:WaterMeter:MC0203J22010600005","2023-06-12T12:30:00",30.2,25.16712,0.128],
    [3417,"urn:WaterMeter:MC0203J22010600005","2023-06-12T12:45:00",30,25.102728,0.132],
    [3418,"urn:WaterMeter:MC0203J22010600005","2023-06-12T13:00:00",29.899,25.036785,0.128],
    [3419,"urn:WaterMeter:MC0203J22010600005","2023-06-12T13:15:00",29.7,24.997606,0.135],
    [3420,"urn:WaterMeter:MC0203J22010600005","2023-06-12T13:30:00",29.5,24.947569,0.128],
    [3421,"urn:WaterMeter:MC0203J22010600005","2023-06-12T13:45:00",29.5,24.894426,0.129],
    [3422,"urn:WaterMeter:MC0203J22010600005","2023-06-12T14:00:00",29.399,24.83624,0.144],
    [3423,"urn:WaterMeter:MC0203J22010600005","2023-06-12T14:15:00",29.399,24.75513,0.129],
    [3424,"urn:WaterMeter:MC0203J22010600005","2023-06-12T14:30:00",29.299,24.724913,0.128],
    [3425,"urn:WaterMeter:MC0203J22010600005","2023-06-12T14:45:00",29.2,24.674875,0.132],
    [3426,"urn:WaterMeter:MC0203J22010600005","2023-06-12T15:00:00",29.2,24.60544,0.125],
    [3427,"urn:WaterMeter:MC0203J22010600005","2023-06-12T15:15:00",29.1,24.56312,0.135],
    [3428,"urn:WaterMeter:MC0203J22010600005","2023-06-12T15:30:00",29,24.50416,0.13],
    [3429,"urn:WaterMeter:MC0203J22010600005","2023-06-12T15:45:00",29,24.449116,0.126],
    [3430,"urn:WaterMeter:MC0203J22010600005","2023-06-12T16:00:00",28.899,24.383562,0.125],
    [3431,"urn:WaterMeter:MC0203J22010600005","2023-06-12T16:15:00",28.7,24.329992,0.126],
    [3432,"urn:WaterMeter:MC0203J22010600005","2023-06-12T16:30:00",28.5,24.282707,0.123],
    [3433,"urn:WaterMeter:MC0203J22010600005","2023-06-12T16:45:00",28.399,23.68534,0.112],
    [3434,"urn:WaterMeter:MC0203J22010600005","2023-06-12T17:00:00",28.1,23.33852,0.111],
    [3435,"urn:WaterMeter:MC0203J22010600005","2023-06-12T17:15:00",27.899,23.274555,0.111],
    [3436,"urn:WaterMeter:MC0203J22010600005","2023-06-12T17:30:00",27.7,23.242708,0.11],
    [3437,"urn:WaterMeter:MC0203J22010600005","2023-06-12T17:45:00",27.6,23.24973,0.106],
    [3438,"urn:WaterMeter:MC0203J22010600005","2023-06-12T18:00:00",27.399,23.17758,0.111],
    [3439,"urn:WaterMeter:MC0203J22010600005","2023-06-12T18:15:00",27.2,23.20163,0.112],
    [3440,"urn:WaterMeter:MC0203J22010600005","2023-06-12T18:30:00",27,23.160513,0.114],
    [3441,"urn:WaterMeter:MC0203J22010600005","2023-06-12T18:45:00",26.799,23.115128,0.114],
    [3442,"urn:WaterMeter:MC0203J22010600005","2023-06-12T19:00:00",26.6,23.12017,0.11],
    [3443,"urn:WaterMeter:MC0203J22010600005","2023-06-12T19:15:00",26.5,23.130257,0.111],
    [3444,"urn:WaterMeter:MC0203J22010600005","2023-06-12T19:30:00",26.299,23.12056,0.11],
    [3445,"urn:WaterMeter:MC0203J22010600005","2023-06-12T19:45:00",26.1,23.082544,0.114],
    [3446,"urn:WaterMeter:MC0203J22010600005","2023-06-12T20:00:00",25.899,23.105392,0.115],
    [3447,"urn:WaterMeter:MC0203J22010600005","2023-06-12T20:15:00",25.7,23.101551,0.115],
    [3448,"urn:WaterMeter:MC0203J22010600005","2023-06-12T20:30:00",25.6,23.056555,0.109],
    [3449,"urn:WaterMeter:MC0203J22010600005","2023-06-12T20:45:00",25.399,23.070908,0.111],
    [3450,"urn:WaterMeter:MC0203J22010600005","2023-06-12T21:00:00",25.299,23.071684,0.107],
    [3451,"urn:WaterMeter:MC0203J22010600005","2023-06-12T21:15:00",25.2,23.088326,0.109],
    [3452,"urn:WaterMeter:MC0203J22010600005","2023-06-12T21:30:00",25.1,23.071297,0.112],
    [3453,"urn:WaterMeter:MC0203J22010600005","2023-06-12T21:45:00",25,23.05772,0.106],
    [3454,"urn:WaterMeter:MC0203J22010600005","2023-06-12T22:00:00",24.799,23.052677,0.109],
    [3455,"urn:WaterMeter:MC0203J22010600005","2023-06-12T22:15:00",24.7,23.07595,0.111],
    [3456,"urn:WaterMeter:MC0203J22010600005","2023-06-12T22:30:00",24.6,23.070908,0.111],
    [3457,"urn:WaterMeter:MC0203J22010600005","2023-06-12T22:45:00",24.399,23.062761,0.111],
    [3458,"urn:WaterMeter:MC0203J22010600005","2023-06-12T23:00:00",24.299,23.04837,0.113],
    [3459,"urn:WaterMeter:MC0203J22010600005","2023-06-12T23:15:00",24.2,23.099186,0.111],
    [3460,"urn:WaterMeter:MC0203J22010600005","2023-06-12T23:30:04",24.1,23.059233,0.11],
    [3461,"urn:WaterMeter:MC0203J22010600005","2023-06-12T23:45:00",24,23.05962,0.105],
    [3462,"urn:WaterMeter:MC0203J22010600005","2023-06-13T00:00:00",23.899,23.084873,0.117],
    [3463,"urn:WaterMeter:MC0203J22010600005","2023-06-13T00:15:00",23.799,23.070093,0.108],
    [3464,"urn:WaterMeter:MC0203J22010600005","2023-06-13T00:30:00",23.7,23.008417,0.11],
    [3465,"urn:WaterMeter:MC0203J22010600005","2023-06-13T00:45:00",23.6,23.053064,0.105],
    [3466,"urn:WaterMeter:MC0203J22010600005","2023-06-13T01:00:00",23.5,23.060823,0.116],
    [3467,"urn:WaterMeter:MC0203J22010600005","2023-06-13T01:15:00",23.399,23.025135,0.109],
    [3468,"urn:WaterMeter:MC0203J22010600005","2023-06-13T01:30:04",23.399,23.071684,0.114],
    [3469,"urn:WaterMeter:MC0203J22010600005","2023-06-13T01:45:00",23.299,23.033281,0.11],
    [3470,"urn:WaterMeter:MC0203J22010600005","2023-06-13T02:00:04",23.2,23.058844,0.106],
    [3471,"urn:WaterMeter:MC0203J22010600005","2023-06-13T02:15:00",23.2,23.06315,0.113],
    [3472,"urn:WaterMeter:MC0203J22010600005","2023-06-13T02:30:04",23.2,23.066254,0.111],
    [3473,"urn:WaterMeter:MC0203J22010600005","2023-06-13T02:45:00",23.1,23.030916,0.108],
    [3474,"urn:WaterMeter:MC0203J22010600005","2023-06-13T03:00:00",23.1,23.024748,0.105],
    [3475,"urn:WaterMeter:MC0203J22010600005","2023-06-13T03:15:00",23,23.084873,0.117],
    [3476,"urn:WaterMeter:MC0203J22010600005","2023-06-13T03:30:00",23,23.098022,0.117],
    [3477,"urn:WaterMeter:MC0203J22010600005","2023-06-13T03:45:00",22.899,23.047596,0.118],
    [3478,"urn:WaterMeter:MC0203J22010600005","2023-06-13T04:00:00",22.899,23.10388,0.113],
    [3479,"urn:WaterMeter:MC0203J22010600005","2023-06-13T04:15:00",22.799,23.125563,0.116],
    [3480,"urn:WaterMeter:MC0203J22010600005","2023-06-13T04:30:04",22.7,23.078627,0.118],
    [3481,"urn:WaterMeter:MC0203J22010600005","2023-06-13T04:45:00",22.7,23.102716,0.118],
    [3482,"urn:WaterMeter:MC0203J22010600005","2023-06-13T05:00:00",22.6,23.101551,0.117],
    [3483,"urn:WaterMeter:MC0203J22010600005","2023-06-13T05:15:00",22.5,23.128279,0.119],
    [3484,"urn:WaterMeter:MC0203J22010600005","2023-06-13T05:30:00",22.5,23.095346,0.112],
    [3485,"urn:WaterMeter:MC0203J22010600005","2023-06-13T05:45:00",22.399,23.041,0.116],
    [3486,"urn:WaterMeter:MC0203J22010600005","2023-06-13T06:00:00",22.399,23.065865,0.116],
    [3487,"urn:WaterMeter:MC0203J22010600005","2023-06-13T06:15:00",22.6,23.054228,0.112],
    [3488,"urn:WaterMeter:MC0203J22010600005","2023-06-13T06:30:00",22.7,23.099613,0.11],
    [3489,"urn:WaterMeter:MC0203J22010600005","2023-06-13T06:45:00",22.799,23.03945,0.108],
    [3490,"urn:WaterMeter:MC0203J22010600005","2023-06-13T07:00:00",23,23.014275,0.12],
    [3491,"urn:WaterMeter:MC0203J22010600005","2023-06-13T07:15:00",23.299,23.055391,0.111],
    [3492,"urn:WaterMeter:MC0203J22010600005","2023-06-13T07:30:00",23.5,23.038712,0.107],
    [3493,"urn:WaterMeter:MC0203J22010600005","2023-06-13T07:45:00",23.899,22.988672,0.112],
    [3494,"urn:WaterMeter:MC0203J22010600005","2023-06-13T08:00:00",24.299,22.954538,0.112],
    [3495,"urn:WaterMeter:MC0203J22010600005","2023-06-13T08:15:00",24.6,22.940186,0.115],
    [3496,"urn:WaterMeter:MC0203J22010600005","2023-06-13T08:30:00",25.399,22.903685,0.111],
    [3497,"urn:WaterMeter:MC0203J22010600005","2023-06-13T08:45:00",26.299,22.843987,0.112],
    [3498,"urn:WaterMeter:MC0203J22010600005","2023-06-13T09:00:00",27.1,22.821877,0.111],
    [3499,"urn:WaterMeter:MC0203J22010600005","2023-06-13T09:15:00",27.899,22.760588,0.108],
    [3500,"urn:WaterMeter:MC0203J22010600005","2023-06-13T09:30:00",28.799,22.65857,0.109],
    [3501,"urn:WaterMeter:MC0203J22010600005","2023-06-13T09:45:00",29.5,22.639175,0.109],
    [3502,"urn:WaterMeter:MC0203J22010600005","2023-06-13T10:00:00",30.2,22.53832,0.111],
    [3503,"urn:WaterMeter:MC0203J22010600005","2023-06-13T10:15:00",30.899,22.476994,0.107],
    [3504,"urn:WaterMeter:MC0203J22010600005","2023-06-13T10:30:00",31.6,22.493324,0.108],
    [3505,"urn:WaterMeter:MC0203J22010600005","2023-06-13T10:45:00",32.2,22.462294,0.112],
    [3506,"urn:WaterMeter:MC0203J22010600005","2023-06-13T11:00:00",32.7,22.399801,0.113],
    [3507,"urn:WaterMeter:MC0203J22010600005","2023-06-13T11:15:00",32.9,22.33545,0.107],
    [3508,"urn:WaterMeter:MC0203J22010600005","2023-06-13T11:30:00",32.599,22.235332,0.109],
    [3509,"urn:WaterMeter:MC0203J22010600005","2023-06-13T11:45:00",32,22.16745,0.108],
    [3510,"urn:WaterMeter:MC0203J22010600005","2023-06-13T12:00:00",31.899,22.103098,0.109],
    [3511,"urn:WaterMeter:MC0203J22010600005","2023-06-13T12:15:00",31.899,22.061554,0.102],
    [3512,"urn:WaterMeter:MC0203J22010600005","2023-06-13T12:30:00",31.5,21.98789,0.108],
    [3513,"urn:WaterMeter:MC0203J22010600005","2023-06-13T12:45:00",31.2,21.895144,0.113],
    [3514,"urn:WaterMeter:MC0203J22010600005","2023-06-13T13:00:00",31.399,21.805578,0.105],
    [3515,"urn:WaterMeter:MC0203J22010600005","2023-06-13T13:15:00",31.399,21.747742,0.108],
    [3516,"urn:WaterMeter:MC0203J22010600005","2023-06-13T13:30:00",31.2,21.65003,0.11],
    [3517,"urn:WaterMeter:MC0203J22010600005","2023-06-13T13:45:00",30.7,21.61353,0.104],
    [3518,"urn:WaterMeter:MC0203J22010600005","2023-06-13T14:00:00",28.799,21.630634,0.114],
    [3519,"urn:WaterMeter:MC0203J22010600005","2023-06-13T14:15:00",27.2,22.044912,0.113],
    [3520,"urn:WaterMeter:MC0203J22010600005","2023-06-13T14:30:00",27.1,22.440182,0.118],
    [3521,"urn:WaterMeter:MC0203J22010600005","2023-06-13T14:45:00",26.899,22.664001,0.118],
    [3522,"urn:WaterMeter:MC0203J22010600005","2023-06-13T15:00:00",26.7,22.767181,0.121],
    [3523,"urn:WaterMeter:MC0203J22010600005","2023-06-13T15:15:00",26.5,22.84127,0.113],
    [3524,"urn:WaterMeter:MC0203J22010600005","2023-06-13T15:30:00",26.299,22.888206,0.117],
    [3525,"urn:WaterMeter:MC0203J22010600005","2023-06-13T15:45:00",26.1,22.91183,0.119],
    [3526,"urn:WaterMeter:MC0203J22010600005","2023-06-13T16:00:00",26,22.89674,0.115],
    [3527,"urn:WaterMeter:MC0203J22010600005","2023-06-13T16:15:00",26,22.818384,0.118],
    [3528,"urn:WaterMeter:MC0203J22010600005","2023-06-13T16:30:00",25.899,22.81602,0.114],
    [3529,"urn:WaterMeter:MC0203J22010600005","2023-06-13T16:45:00",25.7,22.804808,0.117],
    [3530,"urn:WaterMeter:MC0203J22010600005","2023-06-13T17:00:00",25.399,22.732658,0.113],
    [3531,"urn:WaterMeter:MC0203J22010600005","2023-06-13T17:15:00",24.799,24.543337,0.134],
    [3532,"urn:WaterMeter:MC0203J22010600005","2023-06-13T17:30:00",25.5,39.87939,0.225],
    [3533,"urn:WaterMeter:MC0203J22010600005","2023-06-13T17:45:00",25.5,39.518257,0.219],
    [3534,"urn:WaterMeter:MC0203J22010600005","2023-06-13T18:00:00",25.399,41.091965,0.229],
    [3535,"urn:WaterMeter:MC0203J22010600005","2023-06-13T18:15:00",22.7,41.141617,0.23],
    [3536,"urn:WaterMeter:MC0203J22010600005","2023-06-13T18:30:00",22.899,41.131145,0.231],
    [3537,"urn:WaterMeter:MC0203J22010600005","2023-06-13T18:45:00",23.399,41.027924,0.232],
    [3538,"urn:WaterMeter:MC0203J22010600005","2023-06-13T19:00:00",23.5,40.883236,0.237],
    [3539,"urn:WaterMeter:MC0203J22010600005","2023-06-13T19:15:00",23.5,40.93409,0.254],
    [3540,"urn:WaterMeter:MC0203J22010600005","2023-06-13T19:30:00",23.399,39.64471,0.226],
    [3541,"urn:WaterMeter:MC0203J22010600005","2023-06-13T19:45:00",23.399,39.45503,0.231],
    [3542,"urn:WaterMeter:MC0203J22010600005","2023-06-13T20:00:00",23.299,38.9899,0.229],
    [3543,"urn:WaterMeter:MC0203J22010600005","2023-06-13T20:15:00",23.2,38.55316,0.224],
    [3544,"urn:WaterMeter:MC0203J22010600005","2023-06-13T20:30:00",23.1,38.14315,0.236],
    [3545,"urn:WaterMeter:MC0203J22010600005","2023-06-13T20:45:00",23,37.58225,0.216],
    [3546,"urn:WaterMeter:MC0203J22010600005","2023-06-13T21:00:00",22.899,37.385193,0.222],
    [3547,"urn:WaterMeter:MC0203J22010600005","2023-06-13T21:15:00",22.7,36.647408,0.223],
    [3548,"urn:WaterMeter:MC0203J22010600005","2023-06-13T21:30:04",22.6,36.304115,0.225],
    [3549,"urn:WaterMeter:MC0203J22010600005","2023-06-13T21:45:00",22.5,36.12254,0.218],
    [3550,"urn:WaterMeter:MC0203J22010600005","2023-06-13T22:00:04",22.399,35.026722,0.212],
    [3551,"urn:WaterMeter:MC0203J22010600005","2023-06-13T22:15:00",22.299,34.89449,0.215],
    [3552,"urn:WaterMeter:MC0203J22010600005","2023-06-13T22:30:00",22.1,34.759888,0.214],
    [3553,"urn:WaterMeter:MC0203J22010600005","2023-06-13T22:45:00",21.899,34.614426,0.217],
    [3554,"urn:WaterMeter:MC0203J22010600005","2023-06-13T23:00:00",21.7,34.5062,0.212],
    [3555,"urn:WaterMeter:MC0203J22010600005","2023-06-13T23:15:00",21.7,34.396774,0.212],
    [3556,"urn:WaterMeter:MC0203J22010600005","2023-06-13T23:30:04",21.6,34.360348,0.212],
    [3557,"urn:WaterMeter:MC0203J22010600005","2023-06-13T23:45:00",21.5,34.259068,0.213],
    [3558,"urn:WaterMeter:MC0203J22010600005","2023-06-14T00:00:00",21.399,34.191574,0.215],
    [3559,"urn:WaterMeter:MC0203J22010600005","2023-06-14T00:15:00",21.1,34.10352,0.208],
    [3560,"urn:WaterMeter:MC0203J22010600005","2023-06-14T00:30:00",20.799,34.095764,0.212],
    [3561,"urn:WaterMeter:MC0203J22010600005","2023-06-14T00:45:00",20.6,34.110542,0.217],
    [3562,"urn:WaterMeter:MC0203J22010600005","2023-06-14T01:00:00",20.6,33.96159,0.204],
    [3563,"urn:WaterMeter:MC0203J22010600005","2023-06-14T01:15:00",20.6,33.877415,0.208],
    [3564,"urn:WaterMeter:MC0203J22010600005","2023-06-14T01:30:00",20.6,33.849483,0.216],
    [3565,"urn:WaterMeter:MC0203J22010600005","2023-06-14T01:45:00",20.6,33.710228,0.202],
    [3566,"urn:WaterMeter:MC0203J22010600005","2023-06-14T02:00:00",20.6,33.64545,0.205],
    [3567,"urn:WaterMeter:MC0203J22010600005","2023-06-14T02:15:00",20.5,33.64545,0.203],
    [3568,"urn:WaterMeter:MC0203J22010600005","2023-06-14T02:30:00",20.399,33.574463,0.214],
    [3569,"urn:WaterMeter:MC0203J22010600005","2023-06-14T02:45:00",20.299,33.555458,0.208],
    [3570,"urn:WaterMeter:MC0203J22010600005","2023-06-14T03:00:00",20.2,33.27268,0.201],
    [3571,"urn:WaterMeter:MC0203J22010600005","2023-06-14T03:15:00",20.2,33.348278,0.208],
    [3572,"urn:WaterMeter:MC0203J22010600005","2023-06-14T03:30:00",20.2,33.872334,0.202],
    [3573,"urn:WaterMeter:MC0203J22010600005","2023-06-14T03:45:00",20.2,34.704376,0.213],
    [3574,"urn:WaterMeter:MC0203J22010600005","2023-06-14T04:00:00",20.299,35.659813,0.211],
    [3575,"urn:WaterMeter:MC0203J22010600005","2023-06-14T04:15:00",20.299,36.169514,0.223],
    [3576,"urn:WaterMeter:MC0203J22010600005","2023-06-14T04:30:00",20.2,36.54539,0.219],
    [3577,"urn:WaterMeter:MC0203J22010600005","2023-06-14T04:45:00",20.2,37.067116,0.231],
    [3578,"urn:WaterMeter:MC0203J22010600005","2023-06-14T05:00:00",20,37.518204,0.237],
    [3579,"urn:WaterMeter:MC0203J22010600005","2023-06-14T05:15:00",19.799,36.49535,0.225],
    [3580,"urn:WaterMeter:MC0203J22010600005","2023-06-14T05:30:00",19.7,35.931732,0.215],
    [3581,"urn:WaterMeter:MC0203J22010600005","2023-06-14T05:45:00",19.6,35.493793,0.215],
    [3582,"urn:WaterMeter:MC0203J22010600005","2023-06-14T06:00:00",19.799,35.215282,0.211],
    [3583,"urn:WaterMeter:MC0203J22010600005","2023-06-14T06:15:00",19.899,35.055817,0.212],
    [3584,"urn:WaterMeter:MC0203J22010600005","2023-06-14T06:30:00",20,34.48564,0.218],
    [3585,"urn:WaterMeter:MC0203J22010600005","2023-06-14T06:45:00",20.1,34.337425,0.21],
    [3586,"urn:WaterMeter:MC0203J22010600005","2023-06-14T07:00:00",20.1,34.287037,0.219],
    [3587,"urn:WaterMeter:MC0203J22010600005","2023-06-14T07:15:00",20.399,34.22342,0.218],
    [3588,"urn:WaterMeter:MC0203J22010600005","2023-06-14T07:30:00",20.6,34.065506,0.211],
    [3589,"urn:WaterMeter:MC0203J22010600005","2023-06-14T07:45:00",21.1,34.032963,0.212],
    [3590,"urn:WaterMeter:MC0203J22010600005","2023-06-14T08:00:00",21.399,33.954605,0.201],
    [3591,"urn:WaterMeter:MC0203J22010600005","2023-06-14T08:15:00",21.899,33.82307,0.208],
    [3592,"urn:WaterMeter:MC0203J22010600005","2023-06-14T08:30:00",22.7,33.729626,0.21],
    [3593,"urn:WaterMeter:MC0203J22010600005","2023-06-14T08:45:00",23.5,33.616356,0.198],
    [3594,"urn:WaterMeter:MC0203J22010600005","2023-06-14T09:00:00",24.299,33.5015,0.2],
    [3595,"urn:WaterMeter:MC0203J22010600005","2023-06-14T09:15:00",24.899,33.36806,0.191],
    [3596,"urn:WaterMeter:MC0203J22010600005","2023-06-14T09:30:00",25.5,33.304485,0.193],
    [3597,"urn:WaterMeter:MC0203J22010600005","2023-06-14T09:45:00",26.1,33.151653,0.198],
    [3598,"urn:WaterMeter:MC0203J22010600005","2023-06-14T10:00:00",26.799,33.09382,0.193],
    [3599,"urn:WaterMeter:MC0203J22010600005","2023-06-14T10:15:00",27.299,32.957314,0.2],
    [3600,"urn:WaterMeter:MC0203J22010600005","2023-06-14T10:30:00",27.899,32.851807,0.19],
    [3601,"urn:WaterMeter:MC0203J22010600005","2023-06-14T10:45:00",28.399,32.754833,0.2],
    [3602,"urn:WaterMeter:MC0203J22010600005","2023-06-14T11:00:00",28.7,32.65514,0.193],
    [3603,"urn:WaterMeter:MC0203J22010600005","2023-06-14T11:15:00",28.899,32.599285,0.19],
    [3604,"urn:WaterMeter:MC0203J22010600005","2023-06-14T11:30:00",29.1,32.51507,0.189],
    [3605,"urn:WaterMeter:MC0203J22010600005","2023-06-14T11:45:00",29.299,32.412704,0.193],
    [3606,"urn:WaterMeter:MC0203J22010600005","2023-06-14T12:00:00",29.5,32.349438,0.203],
    [3607,"urn:WaterMeter:MC0203J22010600005","2023-06-14T12:15:00",29.399,32.251724,0.189],
    [3608,"urn:WaterMeter:MC0203J22010600005","2023-06-14T12:30:00",29.299,32.214447,0.196],
    [3609,"urn:WaterMeter:MC0203J22010600005","2023-06-14T12:45:00",29.299,32.06782,0.18],
    [3610,"urn:WaterMeter:MC0203J22010600005","2023-06-14T13:00:00",29.399,32.01317,0.196],
    [3611,"urn:WaterMeter:MC0203J22010600005","2023-06-14T13:15:00",29.299,31.908821,0.194],
    [3612,"urn:WaterMeter:MC0203J22010600005","2023-06-14T13:30:00",29.1,31.874647,0.197],
    [3613,"urn:WaterMeter:MC0203J22010600005","2023-06-14T13:45:00",29,31.823484,0.202],
    [3614,"urn:WaterMeter:MC0203J22010600005","2023-06-14T14:00:00",28.899,31.71138,0.2],
    [3615,"urn:WaterMeter:MC0203J22010600005","2023-06-14T14:15:00",28.799,31.66871,0.208],
    [3616,"urn:WaterMeter:MC0203J22010600005","2023-06-14T14:30:00",28.799,31.596561,0.199],
    [3617,"urn:WaterMeter:MC0203J22010600005","2023-06-14T14:45:00",28.7,31.554241,0.195],
    [3618,"urn:WaterMeter:MC0203J22010600005","2023-06-14T15:00:00",28.5,31.527515,0.197],
    [3619,"urn:WaterMeter:MC0203J22010600005","2023-06-14T15:15:00",28.399,31.472046,0.195],
    [3620,"urn:WaterMeter:MC0203J22010600005","2023-06-14T15:30:00",28.2,31.419252,0.198],
    [3621,"urn:WaterMeter:MC0203J22010600005","2023-06-14T15:45:00",28,31.383604,0.199],
    [3622,"urn:WaterMeter:MC0203J22010600005","2023-06-14T16:00:00",27.799,31.34559,0.193],
    [3623,"urn:WaterMeter:MC0203J22010600005","2023-06-14T16:15:00",27.6,31.309866,0.195],
    [3624,"urn:WaterMeter:MC0203J22010600005","2023-06-14T16:30:00",27.5,31.283876,0.197],
    [3625,"urn:WaterMeter:MC0203J22010600005","2023-06-14T16:45:00",27.2,31.269175,0.197],
    [3626,"urn:WaterMeter:MC0203J22010600005","2023-06-14T17:00:00",27.1,31.249004,0.196],
    [3627,"urn:WaterMeter:MC0203J22010600005","2023-06-14T17:15:00",26.899,31.215994,0.197],
    [3628,"urn:WaterMeter:MC0203J22010600005","2023-06-14T17:30:00",26.799,31.191982,0.194],
    [3629,"urn:WaterMeter:MC0203J22010600005","2023-06-14T17:45:00",26.7,31.163279,0.191],
    [3630,"urn:WaterMeter:MC0203J22010600005","2023-06-14T18:00:00",26.7,31.148926,0.194],
    [3631,"urn:WaterMeter:MC0203J22010600005","2023-06-14T18:15:00",26.399,31.12992,0.191],
    [3632,"urn:WaterMeter:MC0203J22010600005","2023-06-14T18:30:00",26.2,31.10199,0.191],
    [3633,"urn:WaterMeter:MC0203J22010600005","2023-06-14T18:45:00",25.899,31.085697,0.196],
    [3634,"urn:WaterMeter:MC0203J22010600005","2023-06-14T19:00:00",25.6,31.073673,0.193],
    [3635,"urn:WaterMeter:MC0203J22010600005","2023-06-14T19:15:00",25.399,31.059282,0.209],
    [3636,"urn:WaterMeter:MC0203J22010600005","2023-06-14T19:30:00",25.2,31.089926,0.204],
    [3637,"urn:WaterMeter:MC0203J22010600005","2023-07-17T13:30:00",39.5,11.976968,0.054],
    [3638,"urn:WaterMeter:MC0203J22010600005","2023-07-17T13:45:00",39.299,11.999078,0.055],
    [3639,"urn:WaterMeter:MC0203J22010600005","2023-07-17T14:00:00",39,11.954431,0.056],
    [3640,"urn:WaterMeter:MC0203J22010600005","2023-07-17T14:15:00",38.7,11.936199,0.053],
    [3641,"urn:WaterMeter:MC0203J22010600005","2023-07-17T14:30:00",38.5,11.905982,0.056],
    [3642,"urn:WaterMeter:MC0203J22010600005","2023-07-17T14:45:00",38.299,11.915253,0.053],
    [3643,"urn:WaterMeter:MC0203J22010600005","2023-07-17T15:00:00",38,11.93042,0.052],
    [3644,"urn:WaterMeter:MC0203J22010600005","2023-07-17T15:15:00",37.799,11.904819,0.057],
    [3645,"urn:WaterMeter:MC0203J22010600005","2023-07-17T15:30:00",37.599,11.851288,0.055],
    [3646,"urn:WaterMeter:MC0203J22010600005","2023-07-17T15:45:00",37.4,11.884647,0.053],
    [3647,"urn:WaterMeter:MC0203J22010600005","2023-07-17T16:00:00",37.2,11.857456,0.052],
    [3648,"urn:WaterMeter:MC0203J22010600005","2023-07-17T16:15:00",37,11.826851,0.057],
    [3649,"urn:WaterMeter:MC0203J22010600005","2023-07-17T16:30:00",36.799,11.852839,0.056],
    [3650,"urn:WaterMeter:MC0203J22010600005","2023-07-17T16:45:00",36.599,11.813662,0.054],
    [3651,"urn:WaterMeter:MC0203J22010600005","2023-07-17T17:00:00",36.4,11.816378,0.05],
    [3652,"urn:WaterMeter:MC0203J22010600005","2023-07-17T17:15:00",36.2,11.831893,0.053],
    [3653,"urn:WaterMeter:MC0203J22010600005","2023-07-17T17:30:00",36,11.814826,0.052],
    [3654,"urn:WaterMeter:MC0203J22010600005","2023-07-17T17:45:00",35.7,11.817153,0.052],
    [3655,"urn:WaterMeter:MC0203J22010600005","2023-07-17T18:00:00",35.5,11.796206,0.052],
    [3656,"urn:WaterMeter:MC0203J22010600005","2023-07-17T18:15:00",35.2,11.793103,0.053],
    [3657,"urn:WaterMeter:MC0203J22010600005","2023-07-17T18:30:00",34.9,11.788448,0.051],
    [3658,"urn:WaterMeter:MC0203J22010600005","2023-07-17T18:45:00",34.599,11.777587,0.055],
    [3659,"urn:WaterMeter:MC0203J22010600005","2023-07-17T19:00:00",34.299,11.74927,0.053],
    [3660,"urn:WaterMeter:MC0203J22010600005","2023-07-17T19:15:00",33.9,11.771342,0.053],
    [3661,"urn:WaterMeter:MC0203J22010600005","2023-07-17T19:30:04",33.599,11.750822,0.05],
    [3662,"urn:WaterMeter:MC0203J22010600005","2023-07-17T19:45:00",33.299,11.74384,0.053],
    [3663,"urn:WaterMeter:MC0203J22010600005","2023-07-17T20:00:00",33,11.745392,0.053],
    [3664,"urn:WaterMeter:MC0203J22010600005","2023-07-17T20:15:00",32.799,11.73453,0.053],
    [3665,"urn:WaterMeter:MC0203J22010600005","2023-07-17T20:30:00",32.5,11.749659,0.051],
    [3666,"urn:WaterMeter:MC0203J22010600005","2023-07-17T20:45:00",32.299,11.742638,0.053],
    [3667,"urn:WaterMeter:MC0203J22010600005","2023-07-17T21:00:04",32.099,11.70152,0.055],
    [3668,"urn:WaterMeter:MC0203J22010600005","2023-07-17T21:15:00",31.899,11.725221,0.05],
    [3669,"urn:WaterMeter:MC0203J22010600005","2023-07-17T21:30:04",31.7,11.735306,0.053],
    [3670,"urn:WaterMeter:MC0203J22010600005","2023-07-17T21:45:00",31.5,11.728324,0.055],
    [3671,"urn:WaterMeter:MC0203J22010600005","2023-07-17T22:00:04",31.399,11.708153,0.053],
    [3672,"urn:WaterMeter:MC0203J22010600005","2023-07-17T22:15:00",31.299,11.720178,0.052],
    [3673,"urn:WaterMeter:MC0203J22010600005","2023-07-17T22:30:04",31.1,11.707377,0.053],
    [3674,"urn:WaterMeter:MC0203J22010600005","2023-07-17T22:45:00",31,11.719014,0.053],
    [3675,"urn:WaterMeter:MC0203J22010600005","2023-07-17T23:00:04",30.899,11.7291,0.055],
    [3676,"urn:WaterMeter:MC0203J22010600005","2023-07-17T23:15:00",30.7,11.693762,0.053],
    [3677,"urn:WaterMeter:MC0203J22010600005","2023-07-17T23:30:04",30.6,11.737634,0.053],
    [3678,"urn:WaterMeter:MC0203J22010600005","2023-07-17T23:45:04",30.6,11.721691,0.055],
    [3679,"urn:WaterMeter:MC0203J22010600005","2023-07-18T00:00:04",30.7,11.724833,0.053],
    [3680,"urn:WaterMeter:MC0203J22010600005","2023-07-18T00:15:04",30.6,11.713933,0.053],
    [3681,"urn:WaterMeter:MC0203J22010600005","2023-07-18T00:30:04",30.6,11.754313,0.053],
    [3682,"urn:WaterMeter:MC0203J22010600005","2023-07-18T00:45:00",30.5,11.739923,0.054],
    [3683,"urn:WaterMeter:MC0203J22010600005","2023-07-18T01:00:04",30.399,11.714321,0.054],
    [3684,"urn:WaterMeter:MC0203J22010600005","2023-07-18T01:15:00",30.299,11.702296,0.054],
    [3685,"urn:WaterMeter:MC0203J22010600005","2023-07-18T01:30:04",30.2,11.713157,0.051],
    [3686,"urn:WaterMeter:MC0203J22010600005","2023-07-18T01:45:00",30.1,11.692637,0.052],
    [3687,"urn:WaterMeter:MC0203J22010600005","2023-07-18T02:00:04",30,11.715524,0.052],
    [3688,"urn:WaterMeter:MC0203J22010600005","2023-07-18T02:15:00",29.799,11.705438,0.054],
    [3689,"urn:WaterMeter:MC0203J22010600005","2023-07-18T02:30:04",29.6,11.699231,0.052],
    [3690,"urn:WaterMeter:MC0203J22010600005","2023-07-18T02:45:00",29.399,11.692249,0.053],
    [3691,"urn:WaterMeter:MC0203J22010600005","2023-07-18T03:00:04",29.2,11.706989,0.053],
    [3692,"urn:WaterMeter:MC0203J22010600005","2023-07-18T03:15:04",28.899,11.681,0.051],
    [3693,"urn:WaterMeter:MC0203J22010600005","2023-07-18T03:30:04",28.7,11.692249,0.054],
    [3694,"urn:WaterMeter:MC0203J22010600005","2023-07-18T03:45:00",28.6,11.702296,0.054],
    [3695,"urn:WaterMeter:MC0203J22010600005","2023-07-18T04:00:04",28.399,11.682125,0.055],
    [3696,"urn:WaterMeter:MC0203J22010600005","2023-07-18T04:15:00",28.299,11.715136,0.054],
    [3697,"urn:WaterMeter:MC0203J22010600005","2023-07-18T04:30:04",28.1,11.700007,0.052],
    [3698,"urn:WaterMeter:MC0203J22010600005","2023-07-18T04:45:04",28,11.667811,0.054],
    [3699,"urn:WaterMeter:MC0203J22010600005","2023-07-18T05:00:04",27.899,11.706989,0.054],
    [3700,"urn:WaterMeter:MC0203J22010600005","2023-07-18T05:15:00",27.799,11.673979,0.054],
    [3701,"urn:WaterMeter:MC0203J22010600005","2023-07-18T05:30:00",27.899,11.703848,0.052],
    [3702,"urn:WaterMeter:MC0203J22010600005","2023-07-18T05:45:00",27.899,11.719402,0.054],
    [3703,"urn:WaterMeter:MC0203J22010600005","2023-07-18T06:00:00",28,11.661605,0.052],
    [3704,"urn:WaterMeter:MC0203J22010600005","2023-07-18T06:15:00",28.1,11.680613,0.053],
    [3705,"urn:WaterMeter:MC0203J22010600005","2023-07-18T06:30:00",28.299,11.71242,0.054],
    [3706,"urn:WaterMeter:MC0203J22010600005","2023-07-18T06:45:00",28.399,11.770605,0.052],
    [3707,"urn:WaterMeter:MC0203J22010600005","2023-07-18T07:00:00",28.5,11.757417,0.051],
    [3708,"urn:WaterMeter:MC0203J22010600005","2023-07-18T07:15:00",28.899,11.7915125,0.053],
    [3709,"urn:WaterMeter:MC0203J22010600005","2023-07-18T07:30:00",29.299,11.863701,0.051],
    [3710,"urn:WaterMeter:MC0203J22010600005","2023-07-18T07:45:00",29.7,11.940505,0.055],
    [3711,"urn:WaterMeter:MC0203J22010600005","2023-07-18T08:00:00",30.2,12.1363945,0.066],
    [3712,"urn:WaterMeter:MC0203J22010600005","2023-07-18T08:15:00",30.7,12.46064,0.08],
    [3713,"urn:WaterMeter:MC0203J22010600005","2023-07-18T08:30:00",31.399,14.017322,0.088],
    [3714,"urn:WaterMeter:MC0203J22010600005","2023-07-18T08:45:00",32.4,16.098017,0.107],
    [3715,"urn:WaterMeter:MC0203J22010600005","2023-07-18T09:00:00",33.5,17.42929,0.127],
    [3716,"urn:WaterMeter:MC0203J22010600005","2023-07-18T09:15:00",34.299,18.539808,0.141],
    [3717,"urn:WaterMeter:MC0203J22010600005","2023-07-18T09:30:00",35,19.55188,0.146],
    [3718,"urn:WaterMeter:MC0203J22010600005","2023-07-18T09:45:00",35.5,20.396338,0.148],
    [3719,"urn:WaterMeter:MC0203J22010600005","2023-07-18T10:00:00",35.799,21.073223,0.16],
    [3720,"urn:WaterMeter:MC0203J22010600005","2023-07-18T10:15:00",36.099,21.678347,0.155],
    [3721,"urn:WaterMeter:MC0203J22010600005","2023-07-18T10:30:00",36.2,22.169817,0.169],
    [3722,"urn:WaterMeter:MC0203J22010600005","2023-07-18T10:45:00",36.4,22.611246,0.169],
    [3723,"urn:WaterMeter:MC0203J22010600005","2023-07-18T11:00:00",36.7,23.016214,0.161],
    [3724,"urn:WaterMeter:MC0203J22010600005","2023-07-18T11:15:00",37.099,23.307528,0.167],
    [3725,"urn:WaterMeter:MC0203J22010600005","2023-07-18T11:30:00",37.5,23.578669,0.17],
    [3726,"urn:WaterMeter:MC0203J22010600005","2023-07-18T11:45:00",37.9,23.82611,0.176],
    [3727,"urn:WaterMeter:MC0203J22010600005","2023-07-18T12:00:00",38.2,23.99605,0.166],
    [3728,"urn:WaterMeter:MC0203J22010600005","2023-07-18T12:15:00",38.4,24.16591,0.164],
    [3729,"urn:WaterMeter:MC0203J22010600005","2023-07-18T12:30:00",38.4,24.27495,0.172],
    [3730,"urn:WaterMeter:MC0203J22010600005","2023-07-18T12:45:00",38.299,24.421188,0.18],
    [3731,"urn:WaterMeter:MC0203J22010600005","2023-07-18T13:00:00",38.299,24.505323,0.179],
    [3732,"urn:WaterMeter:MC0203J22010600005","2023-07-18T13:15:00",38.099,24.565874,0.168],
    [3733,"urn:WaterMeter:MC0203J22010600005","2023-07-18T13:30:00",38,24.62755,0.167],
    [3734,"urn:WaterMeter:MC0203J22010600005","2023-07-18T13:45:00",37.9,24.695433,0.17],
    [3735,"urn:WaterMeter:MC0203J22010600005","2023-07-18T14:00:00",37.7,24.70707,0.17],
    [3736,"urn:WaterMeter:MC0203J22010600005","2023-07-18T14:15:00",37.599,24.779608,0.173],
    [3737,"urn:WaterMeter:MC0203J22010600005","2023-07-18T14:30:00",37.5,24.802494,0.168],
    [3738,"urn:WaterMeter:MC0203J22010600005","2023-07-18T14:45:00",37.4,24.840508,0.18],
    [3739,"urn:WaterMeter:MC0203J22010600005","2023-07-18T15:00:00",37.299,24.856411,0.169],
    [3740,"urn:WaterMeter:MC0203J22010600005","2023-07-18T15:15:00",37.2,24.889383,0.18],
    [3741,"urn:WaterMeter:MC0203J22010600005","2023-07-18T15:30:00",37.099,24.90684,0.181],
    [3742,"urn:WaterMeter:MC0203J22010600005","2023-07-18T15:45:00",37,24.920416,0.174],
    [3743,"urn:WaterMeter:MC0203J22010600005","2023-07-18T16:00:00",36.9,24.932827,0.168],
    [3744,"urn:WaterMeter:MC0203J22010600005","2023-07-18T16:15:00",36.799,24.942526,0.183],
    [3745,"urn:WaterMeter:MC0203J22010600005","2023-07-18T16:30:00",36.7,24.975496,0.172],
    [3746,"urn:WaterMeter:MC0203J22010600005","2023-07-18T16:45:00",36.599,24.974333,0.173],
    [3747,"urn:WaterMeter:MC0203J22010600005","2023-07-18T17:00:00",36.5,24.9658,0.171],
    [3748,"urn:WaterMeter:MC0203J22010600005","2023-07-18T17:15:00",36.299,24.975496,0.172],
    [3749,"urn:WaterMeter:MC0203J22010600005","2023-07-18T17:30:00",36.099,24.91964,0.178],
    [3750,"urn:WaterMeter:MC0203J22010600005","2023-07-18T17:45:00",36,24.97511,0.176],
    [3751,"urn:WaterMeter:MC0203J22010600005","2023-07-18T18:00:00",35.7,24.969639,0.173],
    [3752,"urn:WaterMeter:MC0203J22010600005","2023-07-18T18:15:00",35.5,24.980112,0.174],
    [3753,"urn:WaterMeter:MC0203J22010600005","2023-07-18T18:30:00",35.299,24.98597,0.172],
    [3754,"urn:WaterMeter:MC0203J22010600005","2023-07-18T18:45:00",35.099,24.980501,0.174],
    [3755,"urn:WaterMeter:MC0203J22010600005","2023-07-18T19:00:00",34.9,24.987095,0.178],
    [3756,"urn:WaterMeter:MC0203J22010600005","2023-07-18T19:15:00",34.599,24.964249,0.177],
    [3757,"urn:WaterMeter:MC0203J22010600005","2023-07-18T19:30:00",34.299,24.965412,0.178],
    [3758,"urn:WaterMeter:MC0203J22010600005","2023-07-18T19:45:00",34.099,25.01002,0.172],
    [3759,"urn:WaterMeter:MC0203J22010600005","2023-07-18T20:00:00",33.9,24.993729,0.191],
    [3760,"urn:WaterMeter:MC0203J22010600005","2023-07-18T20:15:00",33.7,25.000322,0.185],
    [3761,"urn:WaterMeter:MC0203J22010600005","2023-07-18T20:30:00",33.5,24.98597,0.18],
    [3762,"urn:WaterMeter:MC0203J22010600005","2023-07-18T20:45:00",33.299,24.99722,0.189],
    [3763,"urn:WaterMeter:MC0203J22010600005","2023-07-18T21:00:00",33,24.97511,0.176],
    [3764,"urn:WaterMeter:MC0203J22010600005","2023-07-18T21:15:00",32.9,25.011183,0.184],
    [3765,"urn:WaterMeter:MC0203J22010600005","2023-07-18T21:30:00",32.7,25.004202,0.181],
    [3766,"urn:WaterMeter:MC0203J22010600005","2023-07-18T21:45:00",32.599,24.99722,0.178],
    [3767,"urn:WaterMeter:MC0203J22010600005","2023-07-18T22:00:00",32.4,24.98981,0.178],
    [3768,"urn:WaterMeter:MC0203J22010600005","2023-07-18T22:15:00",32.2,24.992176,0.176],
    [3769,"urn:WaterMeter:MC0203J22010600005","2023-07-18T22:30:04",32,25.002262,0.18],
    [3770,"urn:WaterMeter:MC0203J22010600005","2023-07-18T22:45:00",31.899,25.026274,0.189],
    [3771,"urn:WaterMeter:MC0203J22010600005","2023-07-18T23:00:04",31.7,25.008818,0.179],
    [3772,"urn:WaterMeter:MC0203J22010600005","2023-07-18T23:15:00",31.5,25.001875,0.187],
    [3773,"urn:WaterMeter:MC0203J22010600005","2023-07-18T23:30:04",31.299,25.020493,0.177],
    [3774,"urn:WaterMeter:MC0203J22010600005","2023-07-18T23:45:00",31.2,24.988258,0.183],
    [3775,"urn:WaterMeter:MC0203J22010600005","2023-07-19T00:00:00",31,25.028212,0.184],
    [3776,"urn:WaterMeter:MC0203J22010600005","2023-07-19T00:15:00",30.899,25.018904,0.178],
    [3777,"urn:WaterMeter:MC0203J22010600005","2023-07-19T00:30:04",30.799,24.99528,0.186],
    [3778,"urn:WaterMeter:MC0203J22010600005","2023-07-19T00:45:00",30.6,24.992565,0.186],
    [3779,"urn:WaterMeter:MC0203J22010600005","2023-07-19T01:00:04",30.5,25.020493,0.174],
    [3780,"urn:WaterMeter:MC0203J22010600005","2023-07-19T01:15:00",30.299,25.025885,0.175],
    [3781,"urn:WaterMeter:MC0203J22010600005","2023-07-19T01:30:04",30.1,25.022432,0.179],
    [3782,"urn:WaterMeter:MC0203J22010600005","2023-07-19T01:45:00",30,25.009594,0.183],
    [3783,"urn:WaterMeter:MC0203J22010600005","2023-07-19T02:00:00",29.799,24.999895,0.176],
    [3784,"urn:WaterMeter:MC0203J22010600005","2023-07-19T02:15:00",29.7,25.01002,0.175],
    [3785,"urn:WaterMeter:MC0203J22010600005","2023-07-19T02:30:00",29.6,25.018904,0.177],
    [3786,"urn:WaterMeter:MC0203J22010600005","2023-07-19T02:45:00",29.399,25.016226,0.184],
    [3787,"urn:WaterMeter:MC0203J22010600005","2023-07-19T03:00:00",29.299,25.000322,0.179],
    [3788,"urn:WaterMeter:MC0203J22010600005","2023-07-19T03:15:00",29.1,24.997606,0.186],
    [3789,"urn:WaterMeter:MC0203J22010600005","2023-07-19T03:30:05",28.899,24.989035,0.178],
    [3790,"urn:WaterMeter:MC0203J22010600005","2023-07-19T03:45:00",28.799,25.013899,0.177],
    [3791,"urn:WaterMeter:MC0203J22010600005","2023-07-19T04:00:04",28.6,25.026274,0.182],
    [3792,"urn:WaterMeter:MC0203J22010600005","2023-07-19T04:15:04",28.5,25.011572,0.177],
    [3793,"urn:WaterMeter:MC0203J22010600005","2023-07-19T04:30:04",28.299,25.022045,0.174],
    [3794,"urn:WaterMeter:MC0203J22010600005","2023-07-19T04:45:04",28.2,24.992565,0.18],
    [3795,"urn:WaterMeter:MC0203J22010600005","2023-07-19T05:00:04",28.1,24.994505,0.177],
    [3796,"urn:WaterMeter:MC0203J22010600005","2023-07-19T05:15:00",28,24.987871,0.178],
    [3797,"urn:WaterMeter:MC0203J22010600005","2023-07-19T05:30:00",28,24.984806,0.185],
    [3798,"urn:WaterMeter:MC0203J22010600005","2023-07-19T05:45:00",28.1,25.060835,0.18],
    [3799,"urn:WaterMeter:MC0203J22010600005","2023-07-19T06:00:00",28.1,25.301332,0.187],
    [3800,"urn:WaterMeter:MC0203J22010600005","2023-07-19T06:15:00",28.2,25.872671,0.197],
    [3801,"urn:WaterMeter:MC0203J22010600005","2023-07-19T06:30:00",28.399,26.68148,0.198],
    [3802,"urn:WaterMeter:MC0203J22010600005","2023-07-19T06:45:00",28.6,27.399096,0.199],
    [3803,"urn:WaterMeter:MC0203J22010600005","2023-07-19T07:00:00",28.799,27.935911,0.207],
    [3804,"urn:WaterMeter:MC0203J22010600005","2023-07-19T07:15:00",29.1,28.357208,0.214],
    [3805,"urn:WaterMeter:MC0203J22010600005","2023-07-19T07:30:00",29.299,28.710936,0.232],
    [3806,"urn:WaterMeter:MC0203J22010600005","2023-07-19T07:45:00",29.7,28.939058,0.216],
    [3807,"urn:WaterMeter:MC0203J22010600005","2023-07-19T08:00:00",30.1,29.10702,0.205],
    [3808,"urn:WaterMeter:MC0203J22010600005","2023-07-19T08:15:00",30.399,29.15896,0.215],
    [3809,"urn:WaterMeter:MC0203J22010600005","2023-07-19T08:30:00",30.899,29.101938,0.21],
    [3810,"urn:WaterMeter:MC0203J22010600005","2023-07-19T08:45:00",31.5,29.054266,0.21],
    [3811,"urn:WaterMeter:MC0203J22010600005","2023-07-19T09:00:00",32.2,29.02013,0.205],
    [3812,"urn:WaterMeter:MC0203J22010600005","2023-07-19T09:15:00",32.799,28.95923,0.211],
    [3813,"urn:WaterMeter:MC0203J22010600005","2023-07-19T09:30:00",33.299,28.899494,0.206],
    [3814,"urn:WaterMeter:MC0203J22010600005","2023-07-19T09:45:00",33.7,28.840105,0.206],
    [3815,"urn:WaterMeter:MC0203J22010600005","2023-07-19T10:00:00",34,28.811014,0.216],
    [3816,"urn:WaterMeter:MC0203J22010600005","2023-07-19T10:15:00",34.4,28.766056,0.21],
    [3817,"urn:WaterMeter:MC0203J22010600005","2023-07-19T10:30:00",34.7,28.700888,0.208],
    [3818,"urn:WaterMeter:MC0203J22010600005","2023-07-19T10:45:00",35.2,28.650074,0.202],
    [3819,"urn:WaterMeter:MC0203J22010600005","2023-07-19T11:00:00",35.9,28.584518,0.199],
    [3820,"urn:WaterMeter:MC0203J22010600005","2023-07-19T11:15:00",36.5,28.546892,0.198],
    [3821,"urn:WaterMeter:MC0203J22010600005","2023-07-19T11:30:00",37.099,28.48444,0.206],
    [3822,"urn:WaterMeter:MC0203J22010600005","2023-07-19T11:45:00",37.4,28.42195,0.207],
    [3823,"urn:WaterMeter:MC0203J22010600005","2023-07-19T12:00:00",37.7,28.333935,0.196],
    [3824,"urn:WaterMeter:MC0203J22010600005","2023-07-19T12:15:00",37.799,28.26679,0.203],
    [3825,"urn:WaterMeter:MC0203J22010600005","2023-07-19T12:30:00",37.9,28.21679,0.2],
    [3826,"urn:WaterMeter:MC0203J22010600005","2023-07-19T12:45:00",38.099,28.148869,0.205],
    [3827,"urn:WaterMeter:MC0203J22010600005","2023-07-19T13:00:00",38.099,28.1171,0.208],
    [3828,"urn:WaterMeter:MC0203J22010600005","2023-07-19T13:15:00",38,28.025127,0.202],
    [3829,"urn:WaterMeter:MC0203J22010600005","2023-07-19T13:30:00",37.7,27.992582,0.199],
    [3830,"urn:WaterMeter:MC0203J22010600005","2023-07-19T13:45:00",37.5,27.966944,0.205],
    [3831,"urn:WaterMeter:MC0203J22010600005","2023-07-19T14:00:00",37.2,27.935522,0.2],
    [3832,"urn:WaterMeter:MC0203J22010600005","2023-07-19T14:15:00",37,27.905693,0.214],
    [3833,"urn:WaterMeter:MC0203J22010600005","2023-07-19T14:30:00",36.9,27.870783,0.221],
    [3834,"urn:WaterMeter:MC0203J22010600005","2023-07-19T14:45:00",36.599,27.806004,0.203],
    [3835,"urn:WaterMeter:MC0203J22010600005","2023-07-19T15:00:00",36.099,27.766438,0.195],
    [3836,"urn:WaterMeter:MC0203J22010600005","2023-07-19T15:15:00",35.299,27.761744,0.197],
    [3837,"urn:WaterMeter:MC0203J22010600005","2023-07-19T15:30:00",34.799,27.755964,0.198],
    [3838,"urn:WaterMeter:MC0203J22010600005","2023-07-19T15:45:00",34.9,27.77183,0.199],
    [3839,"urn:WaterMeter:MC0203J22010600005","2023-07-19T16:00:00",34.9,27.73269,0.203],
    [3840,"urn:WaterMeter:MC0203J22010600005","2023-07-19T16:15:00",34.9,27.702784,0.198],
    [3841,"urn:WaterMeter:MC0203J22010600005","2023-07-19T16:30:00",34.799,27.69425,0.197],
    [3842,"urn:WaterMeter:MC0203J22010600005","2023-07-19T16:45:00",34.599,27.68494,0.199],
    [3843,"urn:WaterMeter:MC0203J22010600005","2023-07-19T17:00:00",34.599,27.618221,0.2],
    [3844,"urn:WaterMeter:MC0203J22010600005","2023-07-19T17:15:00",34.5,27.627142,0.201],
    [3845,"urn:WaterMeter:MC0203J22010600005","2023-07-19T17:30:00",34.4,27.601967,0.196],
    [3846,"urn:WaterMeter:MC0203J22010600005","2023-07-19T17:45:00",34.299,27.565893,0.199],
    [3847,"urn:WaterMeter:MC0203J22010600005","2023-07-19T18:00:00",34.099,27.529392,0.194],
    [3848,"urn:WaterMeter:MC0203J22010600005","2023-07-19T18:15:00",33.9,27.526714,0.197],
    [3849,"urn:WaterMeter:MC0203J22010600005","2023-07-19T18:30:00",33.799,27.506933,0.201],
    [3850,"urn:WaterMeter:MC0203J22010600005","2023-07-19T18:45:00",33.599,27.488314,0.195],
    [3851,"urn:WaterMeter:MC0203J22010600005","2023-07-19T19:00:00",33.4,27.468142,0.198],
    [3852,"urn:WaterMeter:MC0203J22010600005","2023-07-19T19:15:00",33.2,27.469267,0.197],
    [3853,"urn:WaterMeter:MC0203J22010600005","2023-07-19T19:30:00",33.099,27.453363,0.204],
    [3854,"urn:WaterMeter:MC0203J22010600005","2023-07-19T19:45:00",32.9,27.405691,0.197],
    [3855,"urn:WaterMeter:MC0203J22010600005","2023-07-19T20:00:00",32.7,27.424698,0.209],
    [3856,"urn:WaterMeter:MC0203J22010600005","2023-07-19T20:15:00",32.599,27.407629,0.194],
    [3857,"urn:WaterMeter:MC0203J22010600005","2023-07-19T20:30:00",32.4,27.388622,0.2],
    [3858,"urn:WaterMeter:MC0203J22010600005","2023-07-19T20:45:00",32.299,27.385094,0.194],
    [3859,"urn:WaterMeter:MC0203J22010600005","2023-07-19T21:00:00",32.099,27.39479,0.208],
    [3860,"urn:WaterMeter:MC0203J22010600005","2023-07-19T21:15:00",32,27.361082,0.19],
    [3861,"urn:WaterMeter:MC0203J22010600005","2023-07-19T21:30:00",31.799,27.349056,0.2],
    [3862,"urn:WaterMeter:MC0203J22010600005","2023-07-19T21:45:00",31.7,27.326908,0.204],
    [3863,"urn:WaterMeter:MC0203J22010600005","2023-07-19T22:00:00",31.5,27.327295,0.216],
    [3864,"urn:WaterMeter:MC0203J22010600005","2023-07-19T22:15:00",31.399,27.341686,0.198],
    [3865,"urn:WaterMeter:MC0203J22010600005","2023-07-19T22:30:00",31.299,27.336218,0.203],
    [3866,"urn:WaterMeter:MC0203J22010600005","2023-07-19T22:45:00",31.2,27.319965,0.198],
    [3867,"urn:WaterMeter:MC0203J22010600005","2023-07-19T23:00:00",31,27.275318,0.196],
    [3868,"urn:WaterMeter:MC0203J22010600005","2023-07-19T23:15:00",30.899,27.290483,0.196],
    [3869,"urn:WaterMeter:MC0203J22010600005","2023-07-19T23:30:00",30.799,27.279236,0.197],
    [3870,"urn:WaterMeter:MC0203J22010600005","2023-07-19T23:45:00",30.7,27.284277,0.193],
    [3871,"urn:WaterMeter:MC0203J22010600005","2023-07-20T00:00:00",30.5,27.244324,0.188],
    [3872,"urn:WaterMeter:MC0203J22010600005","2023-07-20T00:15:00",30.399,27.254797,0.198],
    [3873,"urn:WaterMeter:MC0203J22010600005","2023-07-20T00:30:00",30.2,27.28234,0.198],
    [3874,"urn:WaterMeter:MC0203J22010600005","2023-07-20T00:45:00",30.1,27.26139,0.199],
    [3875,"urn:WaterMeter:MC0203J22010600005","2023-07-20T01:00:00",30,27.213291,0.196],
    [3876,"urn:WaterMeter:MC0203J22010600005","2023-07-20T01:15:00",29.899,27.239243,0.199],
    [3877,"urn:WaterMeter:MC0203J22010600005","2023-07-20T01:30:00",29.799,27.227257,0.19],
    [3878,"urn:WaterMeter:MC0203J22010600005","2023-07-20T01:45:00",29.799,27.206697,0.193],
    [3879,"urn:WaterMeter:MC0203J22010600005","2023-07-20T02:00:00",29.6,27.210537,0.195],
    [3880,"urn:WaterMeter:MC0203J22010600005","2023-07-20T02:15:00",29.5,27.202044,0.198],
    [3881,"urn:WaterMeter:MC0203J22010600005","2023-07-20T02:30:00",29.5,27.20631,0.196],
    [3882,"urn:WaterMeter:MC0203J22010600005","2023-07-20T02:45:00",29.299,27.220623,0.202],
    [3883,"urn:WaterMeter:MC0203J22010600005","2023-07-20T03:00:04",29.2,27.210926,0.191],
    [3884,"urn:WaterMeter:MC0203J22010600005","2023-07-20T03:15:00",29.2,27.17489,0.19],
    [3885,"urn:WaterMeter:MC0203J22010600005","2023-07-20T03:30:00",29.1,27.169458,0.195],
    [3886,"urn:WaterMeter:MC0203J22010600005","2023-07-20T03:45:00",29.1,27.176054,0.193],
    [3887,"urn:WaterMeter:MC0203J22010600005","2023-07-20T04:00:00",28.899,27.153944,0.198],
    [3888,"urn:WaterMeter:MC0203J22010600005","2023-07-20T04:15:00",28.799,27.123648,0.2],
    [3889,"urn:WaterMeter:MC0203J22010600005","2023-07-20T04:30:04",28.799,27.137651,0.2],
    [3890,"urn:WaterMeter:MC0203J22010600005","2023-07-20T04:45:00",28.7,27.092268,0.192],
    [3891,"urn:WaterMeter:MC0203J22010600005","2023-07-20T05:00:00",28.6,27.106232,0.192],
    [3892,"urn:WaterMeter:MC0203J22010600005","2023-07-20T05:15:00",28.6,27.093004,0.19],
    [3893,"urn:WaterMeter:MC0203J22010600005","2023-07-20T05:30:00",28.6,27.153944,0.201],
    [3894,"urn:WaterMeter:MC0203J22010600005","2023-07-20T05:45:00",28.7,27.447971,0.202],
    [3895,"urn:WaterMeter:MC0203J22010600005","2023-07-20T06:00:00",28.799,28.104687,0.206],
    [3896,"urn:WaterMeter:MC0203J22010600005","2023-07-20T06:15:00",28.899,28.79476,0.211],
    [3897,"urn:WaterMeter:MC0203J22010600005","2023-07-20T06:30:00",29,29.158184,0.216],
    [3898,"urn:WaterMeter:MC0203J22010600005","2023-07-20T06:45:00",29.1,29.377386,0.224],
    [3899,"urn:WaterMeter:MC0203J22010600005","2023-07-20T07:00:00",29.2,29.549225,0.222],
    [3900,"urn:WaterMeter:MC0203J22010600005","2023-07-20T07:15:00",29.399,29.683401,0.216],
    [3901,"urn:WaterMeter:MC0203J22010600005","2023-07-20T07:30:00",29.399,29.790888,0.211],
    [3902,"urn:WaterMeter:MC0203J22010600005","2023-07-20T07:45:00",29.6,29.914976,0.225],
    [3903,"urn:WaterMeter:MC0203J22010600005","2023-07-20T08:00:00",29.899,29.925062,0.223],
    [3904,"urn:WaterMeter:MC0203J22010600005","2023-07-20T08:15:00",30.2,29.876186,0.221],
    [3905,"urn:WaterMeter:MC0203J22010600005","2023-07-20T08:30:00",30.299,29.795155,0.213],
    [3906,"urn:WaterMeter:MC0203J22010600005","2023-07-20T08:45:00",30.299,29.721802,0.219],
    [3907,"urn:WaterMeter:MC0203J22010600005","2023-07-20T09:00:00",30.2,29.656673,0.211],
    [3908,"urn:WaterMeter:MC0203J22010600005","2023-07-20T09:15:00",30.299,29.66831,0.213],
    [3909,"urn:WaterMeter:MC0203J22010600005","2023-07-20T09:30:00",30.7,29.59073,0.22],
    [3910,"urn:WaterMeter:MC0203J22010600005","2023-07-20T09:45:00",30.6,29.540304,0.226],
    [3911,"urn:WaterMeter:MC0203J22010600005","2023-07-20T10:00:00",30.899,29.513927,0.216],
    [3912,"urn:WaterMeter:MC0203J22010600005","2023-07-20T10:15:00",31.7,29.454578,0.215],
    [3913,"urn:WaterMeter:MC0203J22010600005","2023-07-20T10:30:00",32.599,29.373081,0.21],
    [3914,"urn:WaterMeter:MC0203J22010600005","2023-07-20T10:45:00",33.2,29.3289,0.21],
    [3915,"urn:WaterMeter:MC0203J22010600005","2023-07-20T11:00:00",33.599,29.240458,0.206],
    [3916,"urn:WaterMeter:MC0203J22010600005","2023-07-20T11:15:00",33.9,29.198137,0.213],
    [3917,"urn:WaterMeter:MC0203J22010600005","2023-07-20T11:30:00",34.4,29.124863,0.214],
    [3918,"urn:WaterMeter:MC0203J22010600005","2023-07-20T11:45:00",34.799,29.076376,0.206],
    [3919,"urn:WaterMeter:MC0203J22010600005","2023-07-20T12:00:00",34.599,28.994879,0.209],
    [3920,"urn:WaterMeter:MC0203J22010600005","2023-07-20T12:15:00",34.5,28.961557,0.202],
    [3921,"urn:WaterMeter:MC0203J22010600005","2023-07-20T12:30:00",34.4,28.926607,0.216],
    [3922,"urn:WaterMeter:MC0203J22010600005","2023-07-20T12:45:00",34.599,28.899105,0.207],
    [3923,"urn:WaterMeter:MC0203J22010600005","2023-07-20T13:00:00",34.799,28.846312,0.209],
    [3924,"urn:WaterMeter:MC0203J22010600005","2023-07-20T13:15:00",34.9,28.827305,0.203],
    [3925,"urn:WaterMeter:MC0203J22010600005","2023-07-20T13:30:00",34.7,28.76334,0.212],
    [3926,"urn:WaterMeter:MC0203J22010600005","2023-07-20T13:45:00",34.5,28.712486,0.207],
    [3927,"urn:WaterMeter:MC0203J22010600005","2023-07-20T14:00:00",34.2,28.666365,0.206],
    [3928,"urn:WaterMeter:MC0203J22010600005","2023-07-20T14:15:00",33.799,28.670244,0.207],
    [3929,"urn:WaterMeter:MC0203J22010600005","2023-07-20T14:30:00",33.299,28.644604,0.209],
    [3930,"urn:WaterMeter:MC0203J22010600005","2023-07-20T14:45:00",32.7,28.668304,0.222],
    [3931,"urn:WaterMeter:MC0203J22010600005","2023-07-20T15:00:00",33.5,40.60709,0.281],
    [3932,"urn:WaterMeter:MC0203J22010600005","2023-07-20T15:15:00",31.6,40.874317,0.279],
    [3933,"urn:WaterMeter:MC0203J22010600005","2023-07-20T15:30:00",31.299,41.114075,0.265],
    [3934,"urn:WaterMeter:MC0203J22010600005","2023-07-20T15:45:00",31.299,41.2929,0.268],
    [3935,"urn:WaterMeter:MC0203J22010600005","2023-07-20T16:00:00",30.5,40.28785,0.258],
    [3936,"urn:WaterMeter:MC0203J22010600005","2023-07-20T16:15:00",30.1,39.668373,0.255],
    [3937,"urn:WaterMeter:MC0203J22010600005","2023-07-20T16:30:00",29.6,38.607468,0.258],
    [3938,"urn:WaterMeter:MC0203J22010600005","2023-07-20T16:45:00",29.6,37.499584,0.239],
    [3939,"urn:WaterMeter:MC0203J22010600005","2023-07-20T17:00:00",29.399,36.300236,0.231],
    [3940,"urn:WaterMeter:MC0203J22010600005","2023-07-20T17:15:00",29.399,34.50965,0.236],
    [3941,"urn:WaterMeter:MC0203J22010600005","2023-07-20T17:30:00",29.399,33.8747,0.223],
    [3942,"urn:WaterMeter:MC0203J22010600005","2023-07-20T17:45:00",29.399,33.51007,0.232],
    [3943,"urn:WaterMeter:MC0203J22010600005","2023-07-20T18:00:00",29.299,32.93598,0.228],
    [3944,"urn:WaterMeter:MC0203J22010600005","2023-07-20T18:15:00",29.1,32.741257,0.225],
    [3945,"urn:WaterMeter:MC0203J22010600005","2023-07-20T18:30:00",29.1,32.619453,0.214],
    [3946,"urn:WaterMeter:MC0203J22010600005","2023-07-20T18:45:00",29.1,32.46158,0.214],
    [3947,"urn:WaterMeter:MC0203J22010600005","2023-07-20T19:00:00",29,32.321934,0.221],
    [3948,"urn:WaterMeter:MC0203J22010600005","2023-07-20T19:15:00",28.899,32.22496,0.223],
    [3949,"urn:WaterMeter:MC0203J22010600005","2023-07-20T19:30:00",28.899,32.142727,0.213],
    [3950,"urn:WaterMeter:MC0203J22010600005","2023-07-20T19:45:00",28.799,32.04998,0.215],
    [3951,"urn:WaterMeter:MC0203J22010600005","2023-07-20T20:00:00",28.799,31.983686,0.213],
    [3952,"urn:WaterMeter:MC0203J22010600005","2023-07-20T20:15:00",28.7,31.891716,0.213],
    [3953,"urn:WaterMeter:MC0203J22010600005","2023-07-20T20:30:00",28.7,31.862661,0.218],
    [3954,"urn:WaterMeter:MC0203J22010600005","2023-07-20T20:45:00",28.5,31.79284,0.226],
    [3955,"urn:WaterMeter:MC0203J22010600005","2023-07-20T21:00:04",28.5,31.726896,0.23],
    [3956,"urn:WaterMeter:MC0203J22010600005","2023-07-20T21:15:00",28.399,31.65785,0.217],
    [3957,"urn:WaterMeter:MC0203J22010600005","2023-07-20T21:30:00",28.299,31.605871,0.212],
    [3958,"urn:WaterMeter:MC0203J22010600005","2023-07-20T21:45:00",28.2,31.576391,0.215],
    [3959,"urn:WaterMeter:MC0203J22010600005","2023-07-20T22:00:04",28.1,31.539541,0.217],
    [3960,"urn:WaterMeter:MC0203J22010600005","2023-07-20T22:15:00",28.1,31.486748,0.218],
    [3961,"urn:WaterMeter:MC0203J22010600005","2023-07-20T22:30:04",28,31.43636,0.223],
    [3962,"urn:WaterMeter:MC0203J22010600005","2023-07-20T22:45:00",27.899,31.420843,0.223],
    [3963,"urn:WaterMeter:MC0203J22010600005","2023-07-20T23:00:00",27.899,31.371153,0.216],
    [3964,"urn:WaterMeter:MC0203J22010600005","2023-07-20T23:15:00",27.799,31.34206,0.215],
    [3965,"urn:WaterMeter:MC0203J22010600005","2023-07-20T23:30:04",27.7,31.320377,0.215],
    [3966,"urn:WaterMeter:MC0203J22010600005","2023-07-20T23:45:00",27.7,31.313395,0.222],
    [3967,"urn:WaterMeter:MC0203J22010600005","2023-07-21T00:00:04",27.7,31.281588,0.22],
    [3968,"urn:WaterMeter:MC0203J22010600005","2023-07-21T00:15:00",27.6,31.249004,0.217],
    [3969,"urn:WaterMeter:MC0203J22010600005","2023-07-21T00:30:00",27.5,31.227669,0.221],
    [3970,"urn:WaterMeter:MC0203J22010600005","2023-07-21T00:45:00",27.399,31.181896,0.224],
    [3971,"urn:WaterMeter:MC0203J22010600005","2023-07-21T01:00:04",27.299,31.14621,0.221],
    [3972,"urn:WaterMeter:MC0203J22010600005","2023-07-21T01:15:04",27.299,31.156258,0.221],
    [3973,"urn:WaterMeter:MC0203J22010600005","2023-07-21T01:30:04",27.2,31.10354,0.213],
    [3974,"urn:WaterMeter:MC0203J22010600005","2023-07-21T01:45:00",27.2,31.125652,0.212],
    [3975,"urn:WaterMeter:MC0203J22010600005","2023-07-21T02:00:04",27.1,31.06669,0.212],
    [3976,"urn:WaterMeter:MC0203J22010600005","2023-07-21T02:15:00",27,31.06281,0.215],
    [3977,"urn:WaterMeter:MC0203J22010600005","2023-07-21T02:30:04",26.799,31.044968,0.22],
    [3978,"urn:WaterMeter:MC0203J22010600005","2023-07-21T02:45:00",26.6,31.045744,0.217],
    [3979,"urn:WaterMeter:MC0203J22010600005","2023-07-21T03:00:04",26.399,30.993765,0.208],
    [3980,"urn:WaterMeter:MC0203J22010600005","2023-07-21T03:15:00",26.299,31.026348,0.208],
    [3981,"urn:WaterMeter:MC0203J22010600005","2023-07-21T03:30:04",26.1,30.990662,0.215],
    [3982,"urn:WaterMeter:MC0203J22010600005","2023-07-21T03:45:00",26,30.964285,0.209],
    [3983,"urn:WaterMeter:MC0203J22010600005","2023-07-21T04:00:04",25.899,30.929375,0.213],
    [3984,"urn:WaterMeter:MC0203J22010600005","2023-07-21T04:15:00",25.799,30.918901,0.213],
    [3985,"urn:WaterMeter:MC0203J22010600005","2023-07-21T04:30:04",25.7,30.885891,0.215],
    [3986,"urn:WaterMeter:MC0203J22010600005","2023-07-21T04:45:00",25.6,30.917736,0.208],
    [3987,"urn:WaterMeter:MC0203J22010600005","2023-07-21T05:00:00",25.5,30.89136,0.212],
    [3988,"urn:WaterMeter:MC0203J22010600005","2023-07-21T05:15:00",25.5,31.060833,0.216],
    [3989,"urn:WaterMeter:MC0203J22010600005","2023-07-21T05:30:00",25.5,31.422396,0.219],
    [3990,"urn:WaterMeter:MC0203J22010600005","2023-07-21T05:45:00",25.5,31.97748,0.221],
    [3991,"urn:WaterMeter:MC0203J22010600005","2023-07-21T06:00:00",25.5,32.643505,0.227],
    [3992,"urn:WaterMeter:MC0203J22010600005","2023-07-21T06:15:00",25.399,33.177643,0.234],
    [3993,"urn:WaterMeter:MC0203J22010600005","2023-07-21T06:30:00",25.299,33.559296,0.239],
    [3994,"urn:WaterMeter:MC0203J22010600005","2023-07-21T06:45:00",25.399,33.83048,0.247],
    [3995,"urn:WaterMeter:MC0203J22010600005","2023-07-21T07:00:00",25.6,34.05003,0.242],
    [3996,"urn:WaterMeter:MC0203J22010600005","2023-07-21T07:15:00",25.899,34.2195,0.237],
    [3997,"urn:WaterMeter:MC0203J22010600005","2023-07-21T07:30:00",26.1,34.35104,0.246],
    [3998,"urn:WaterMeter:MC0203J22010600005","2023-07-21T07:45:00",26.299,34.449177,0.245],
    [3999,"urn:WaterMeter:MC0203J22010600005","2023-07-21T08:00:00",26.2,34.534904,0.24],
    [4000,"urn:WaterMeter:MC0203J22010600005","2023-07-21T08:15:00",26.2,33.820004,0.232],
    [4001,"urn:WaterMeter:MC0203J22010600005","2023-07-21T08:30:00",26.5,33.288155,0.227],
    [4002,"urn:WaterMeter:MC0203J22010600005","2023-07-21T08:45:00",27.399,32.961544,0.225],
    [4003,"urn:WaterMeter:MC0203J22010600005","2023-07-21T09:00:00",28.299,32.751728,0.219],
    [4004,"urn:WaterMeter:MC0203J22010600005","2023-07-21T09:15:00",28.899,32.556614,0.216],
    [4005,"urn:WaterMeter:MC0203J22010600005","2023-07-21T09:30:00",29.399,32.37275,0.218],
    [4006,"urn:WaterMeter:MC0203J22010600005","2023-07-21T09:45:00",29.7,32.257156,0.217],
    [4007,"urn:WaterMeter:MC0203J22010600005","2023-07-21T10:00:00",29.899,32.137257,0.215],
    [4008,"urn:WaterMeter:MC0203J22010600005","2023-07-21T10:15:00",30.2,32.018597,0.217],
    [4009,"urn:WaterMeter:MC0203J22010600005","2023-07-21T10:30:00",30.5,31.942919,0.219],
    [4010,"urn:WaterMeter:MC0203J22010600005","2023-07-21T10:45:00",30.899,31.800598,0.214],
    [4011,"urn:WaterMeter:MC0203J22010600005","2023-07-21T11:00:00",31.299,31.705173,0.231],
    [4012,"urn:WaterMeter:MC0203J22010600005","2023-07-21T11:15:00",31.7,31.612427,0.209],
    [4013,"urn:WaterMeter:MC0203J22010600005","2023-07-21T11:30:00",32.2,31.515451,0.219],
    [4014,"urn:WaterMeter:MC0203J22010600005","2023-07-21T11:45:00",32.5,31.407228,0.216],
    [4015,"urn:WaterMeter:MC0203J22010600005","2023-07-21T12:00:00",32.799,31.325808,0.216],
    [4016,"urn:WaterMeter:MC0203J22010600005","2023-07-21T12:15:00",33.099,31.23306,0.21],
    [4017,"urn:WaterMeter:MC0203J22010600005","2023-07-21T12:30:00",33.4,31.1113,0.214],
    [4018,"urn:WaterMeter:MC0203J22010600005","2023-07-21T12:45:00",33.5,31.034494,0.204],
    [4019,"urn:WaterMeter:MC0203J22010600005","2023-07-21T13:00:00",33.5,30.936356,0.205],
    [4020,"urn:WaterMeter:MC0203J22010600005","2023-07-21T13:15:00",33.099,30.876581,0.217],
    [4021,"urn:WaterMeter:MC0203J22010600005","2023-07-21T13:30:00",32.799,30.799002,0.206],
    [4022,"urn:WaterMeter:MC0203J22010600005","2023-07-21T13:45:00",32.5,30.782747,0.203],
    [4023,"urn:WaterMeter:MC0203J22010600005","2023-07-21T14:00:00",32.299,30.728016,0.219],
    [4024,"urn:WaterMeter:MC0203J22010600005","2023-07-21T14:15:00",32.299,30.698574,0.21],
    [4025,"urn:WaterMeter:MC0203J22010600005","2023-07-21T14:30:00",32.2,30.650434,0.208],
    [4026,"urn:WaterMeter:MC0203J22010600005","2023-07-21T14:45:00",32.099,30.599272,0.21],
    [4027,"urn:WaterMeter:MC0203J22010600005","2023-07-21T15:00:00",31.899,30.54962,0.207],
    [4028,"urn:WaterMeter:MC0203J22010600005","2023-07-21T15:15:00",31.6,30.542637,0.217],
    [4029,"urn:WaterMeter:MC0203J22010600005","2023-07-21T15:30:00",31.399,30.528673,0.21],
    [4030,"urn:WaterMeter:MC0203J22010600005","2023-07-21T15:45:00",31.2,30.48329,0.213],
    [4031,"urn:WaterMeter:MC0203J22010600005","2023-07-21T16:00:00",31,30.452644,0.212],
    [4032,"urn:WaterMeter:MC0203J22010600005","2023-07-21T16:15:00",30.799,30.42588,0.209],
    [4033,"urn:WaterMeter:MC0203J22010600005","2023-07-21T16:30:00",30.7,30.422777,0.21],
    [4034,"urn:WaterMeter:MC0203J22010600005","2023-07-21T16:45:00",30.5,30.406097,0.202],
    [4035,"urn:WaterMeter:MC0203J22010600005","2023-07-21T17:00:00",30.5,30.368082,0.204],
    [4036,"urn:WaterMeter:MC0203J22010600005","2023-07-21T17:15:00",30.5,30.355669,0.204],
    [4037,"urn:WaterMeter:MC0203J22010600005","2023-07-21T17:30:00",30.399,30.316105,0.204],
    [4038,"urn:WaterMeter:MC0203J22010600005","2023-07-21T17:45:00",30.299,30.304855,0.199],
    [4039,"urn:WaterMeter:MC0203J22010600005","2023-07-21T18:00:00",30.1,30.272272,0.203],
    [4040,"urn:WaterMeter:MC0203J22010600005","2023-07-21T18:15:00",29.899,30.258307,0.194],
    [4041,"urn:WaterMeter:MC0203J22010600005","2023-07-21T18:30:00",29.799,30.217577,0.2],
    [4042,"urn:WaterMeter:MC0203J22010600005","2023-07-21T18:45:00",29.7,30.22068,0.204],
    [4043,"urn:WaterMeter:MC0203J22010600005","2023-07-21T19:00:00",29.5,30.21525,0.21],
    [4044,"urn:WaterMeter:MC0203J22010600005","2023-07-21T19:15:00",29.399,30.190813,0.206],
    [4045,"urn:WaterMeter:MC0203J22010600005","2023-07-21T19:30:00",29.299,30.17103,0.211],
    [4046,"urn:WaterMeter:MC0203J22010600005","2023-07-21T19:45:00",29.1,30.198183,0.216],
    [4047,"urn:WaterMeter:MC0203J22010600005","2023-07-21T20:00:04",29,30.151247,0.203],
    [4048,"urn:WaterMeter:MC0203J22010600005","2023-07-21T20:15:00",28.899,30.135344,0.194],
    [4049,"urn:WaterMeter:MC0203J22010600005","2023-07-21T20:30:00",28.7,30.131464,0.206],
    [4050,"urn:WaterMeter:MC0203J22010600005","2023-07-21T20:45:00",28.6,30.11556,0.205],
    [4051,"urn:WaterMeter:MC0203J22010600005","2023-07-21T21:00:00",28.5,30.104311,0.208],
    [4052,"urn:WaterMeter:MC0203J22010600005","2023-07-21T21:15:00",28.399,30.107374,0.214],
    [4053,"urn:WaterMeter:MC0203J22010600005","2023-07-21T21:30:00",28.299,30.081812,0.202],
    [4054,"urn:WaterMeter:MC0203J22010600005","2023-07-21T21:45:00",28.2,30.076382,0.202],
    [4055,"urn:WaterMeter:MC0203J22010600005","2023-07-21T22:00:00",28.1,30.105087,0.21],
    [4056,"urn:WaterMeter:MC0203J22010600005","2023-07-21T22:15:00",28,30.055822,0.204],
    [4057,"urn:WaterMeter:MC0203J22010600005","2023-07-21T22:30:00",28,30.077545,0.197],
    [4058,"urn:WaterMeter:MC0203J22010600005","2023-07-21T22:45:00",27.899,30.031734,0.202],
    [4059,"urn:WaterMeter:MC0203J22010600005","2023-07-21T23:00:00",27.899,30.006948,0.202],
    [4060,"urn:WaterMeter:MC0203J22010600005","2023-07-21T23:15:00",27.799,30.020912,0.211],
    [4061,"urn:WaterMeter:MC0203J22010600005","2023-07-21T23:30:00",27.7,30.001905,0.204],
    [4062,"urn:WaterMeter:MC0203J22010600005","2023-07-21T23:45:00",27.7,30.003418,0.197],
    [4063,"urn:WaterMeter:MC0203J22010600005","2023-07-22T00:00:00",27.6,29.963116,0.208],
    [4064,"urn:WaterMeter:MC0203J22010600005","2023-07-22T00:15:00",27.5,30.017033,0.205],
    [4065,"urn:WaterMeter:MC0203J22010600005","2023-07-22T00:30:00",27.399,29.993721,0.203],
    [4066,"urn:WaterMeter:MC0203J22010600005","2023-07-22T00:45:00",27.299,29.921997,0.206],
    [4067,"urn:WaterMeter:MC0203J22010600005","2023-07-22T01:00:04",27.2,29.954542,0.198],
    [4068,"urn:WaterMeter:MC0203J22010600005","2023-07-22T01:15:00",27.1,29.948763,0.204],
    [4069,"urn:WaterMeter:MC0203J22010600005","2023-07-22T01:30:04",27,29.945232,0.213],
    [4070,"urn:WaterMeter:MC0203J22010600005","2023-07-22T01:45:00",26.899,29.942556,0.195],
    [4071,"urn:WaterMeter:MC0203J22010600005","2023-07-22T02:00:04",26.899,29.94217,0.204],
    [4072,"urn:WaterMeter:MC0203J22010600005","2023-07-22T02:15:00",26.799,29.950314,0.202],
    [4073,"urn:WaterMeter:MC0203J22010600005","2023-07-22T02:30:00",26.7,29.93092,0.202],
    [4074,"urn:WaterMeter:MC0203J22010600005","2023-07-22T02:45:00",26.6,29.914976,0.203],
    [4075,"urn:WaterMeter:MC0203J22010600005","2023-07-22T03:00:04",26.5,29.87541,0.211],
    [4076,"urn:WaterMeter:MC0203J22010600005","2023-07-22T03:15:00",26.5,29.90299,0.205],
    [4077,"urn:WaterMeter:MC0203J22010600005","2023-07-22T03:30:00",26.399,29.904543,0.218],
    [4078,"urn:WaterMeter:MC0203J22010600005","2023-07-22T03:45:00",26.399,29.870407,0.204],
    [4079,"urn:WaterMeter:MC0203J22010600005","2023-07-22T04:00:00",26.299,29.876963,0.203],
    [4080,"urn:WaterMeter:MC0203J22010600005","2023-07-22T04:15:00",26.1,29.895582,0.209],
    [4081,"urn:WaterMeter:MC0203J22010600005","2023-07-22T04:30:04",26,29.86226,0.2],
    [4082,"urn:WaterMeter:MC0203J22010600005","2023-07-22T04:45:04",25.899,29.875023,0.206],
    [4083,"urn:WaterMeter:MC0203J22010600005","2023-07-22T05:00:00",25.7,29.863037,0.21],
    [4084,"urn:WaterMeter:MC0203J22010600005","2023-07-22T05:15:00",25.6,29.864588,0.203],
    [4085,"urn:WaterMeter:MC0203J22010600005","2023-07-22T05:30:04",25.5,29.84597,0.202],
    [4086,"urn:WaterMeter:MC0203J22010600005","2023-07-22T05:45:00",25.399,29.8514,0.2],
    [4087,"urn:WaterMeter:MC0203J22010600005","2023-07-22T06:00:04",25.399,29.842478,0.203],
    [4088,"urn:WaterMeter:MC0203J22010600005","2023-07-22T06:15:00",25.299,29.835846,0.203],
    [4089,"urn:WaterMeter:MC0203J22010600005","2023-07-22T06:30:04",25.399,29.814938,0.197],
    [4090,"urn:WaterMeter:MC0203J22010600005","2023-07-22T06:45:00",25.399,29.812222,0.197],
    [4091,"urn:WaterMeter:MC0203J22010600005","2023-07-22T07:00:00",25.5,29.803688,0.2],
    [4092,"urn:WaterMeter:MC0203J22010600005","2023-07-22T07:15:00",25.799,29.750895,0.199],
    [4093,"urn:WaterMeter:MC0203J22010600005","2023-07-22T07:30:00",25.899,29.742788,0.197],
    [4094,"urn:WaterMeter:MC0203J22010600005","2023-07-22T07:45:00",26.299,29.702019,0.204],
    [4095,"urn:WaterMeter:MC0203J22010600005","2023-07-22T08:00:00",26.7,29.685766,0.194],
    [4096,"urn:WaterMeter:MC0203J22010600005","2023-07-22T08:15:00",26.799,29.670639,0.204],
    [4097,"urn:WaterMeter:MC0203J22010600005","2023-07-22T08:30:00",27,29.650856,0.193],
    [4098,"urn:WaterMeter:MC0203J22010600005","2023-07-22T08:45:00",27.6,29.588017,0.197],
    [4099,"urn:WaterMeter:MC0203J22010600005","2023-07-22T09:00:00",28.1,29.553493,0.199],
    [4100,"urn:WaterMeter:MC0203J22010600005","2023-07-22T09:15:00",28.5,29.50035,0.197],
    [4101,"urn:WaterMeter:MC0203J22010600005","2023-07-22T09:30:00",28.799,29.482895,0.192],
    [4102,"urn:WaterMeter:MC0203J22010600005","2023-07-22T09:45:00",29.1,29.448334,0.18],
    [4103,"urn:WaterMeter:MC0203J22010600005","2023-07-22T10:00:00",29.6,29.388636,0.183],
    [4104,"urn:WaterMeter:MC0203J22010600005","2023-07-22T10:15:00",30,29.379326,0.191],
    [4105,"urn:WaterMeter:MC0203J22010600005","2023-07-22T10:30:00",30.299,29.316486,0.194],
    [4106,"urn:WaterMeter:MC0203J22010600005","2023-07-22T10:45:00",30.7,29.276106,0.201],
    [4107,"urn:WaterMeter:MC0203J22010600005","2023-07-22T11:00:00",31,29.234987,0.203],
    [4108,"urn:WaterMeter:MC0203J22010600005","2023-07-22T11:15:00",31.5,29.192745,0.205],
    [4109,"urn:WaterMeter:MC0203J22010600005","2023-07-22T11:30:00",31.899,29.155119,0.193],
    [4110,"urn:WaterMeter:MC0203J22010600005","2023-07-22T11:45:00",32.2,29.128355,0.188],
    [4111,"urn:WaterMeter:MC0203J22010600005","2023-07-22T12:00:00",32.4,29.034483,0.19],
    [4112,"urn:WaterMeter:MC0203J22010600005","2023-07-22T12:15:00",32.299,28.973194,0.196],
    [4113,"urn:WaterMeter:MC0203J22010600005","2023-07-22T12:30:00",32.099,28.923893,0.194],
    [4114,"urn:WaterMeter:MC0203J22010600005","2023-07-22T12:45:00",32,28.871176,0.191],
    [4115,"urn:WaterMeter:MC0203J22010600005","2023-07-22T13:00:00",31.899,28.869198,0.182],
    [4116,"urn:WaterMeter:MC0203J22010600005","2023-07-22T13:15:00",31.799,28.851006,0.192],
    [4117,"urn:WaterMeter:MC0203J22010600005","2023-07-22T13:30:00",31.899,28.80791,0.187],
    [4118,"urn:WaterMeter:MC0203J22010600005","2023-07-22T13:45:00",32,28.819548,0.185],
    [4119,"urn:WaterMeter:MC0203J22010600005","2023-07-22T14:00:00",32.2,28.75985,0.188],
    [4120,"urn:WaterMeter:MC0203J22010600005","2023-07-22T14:15:00",32.2,28.729593,0.192],
    [4121,"urn:WaterMeter:MC0203J22010600005","2023-07-22T14:30:00",32.099,28.640377,0.186],
    [4122,"urn:WaterMeter:MC0203J22010600005","2023-07-22T14:45:00",32.099,28.63413,0.184],
    [4123,"urn:WaterMeter:MC0203J22010600005","2023-07-22T15:00:00",32.099,28.592276,0.187],
    [4124,"urn:WaterMeter:MC0203J22010600005","2023-07-22T15:15:00",31.799,28.568188,0.184],
    [4125,"urn:WaterMeter:MC0203J22010600005","2023-07-22T15:30:00",31.7,28.518148,0.185],
    [4126,"urn:WaterMeter:MC0203J22010600005","2023-07-22T15:45:00",31.7,28.525946,0.181],
    [4127,"urn:WaterMeter:MC0203J22010600005","2023-07-22T16:00:00",31.799,28.467373,0.183],
    [4128,"urn:WaterMeter:MC0203J22010600005","2023-07-22T16:15:00",31.6,28.445263,0.184],
    [4129,"urn:WaterMeter:MC0203J22010600005","2023-07-22T16:30:00",31.5,28.395224,0.186],
    [4130,"urn:WaterMeter:MC0203J22010600005","2023-07-22T16:45:00",31.399,28.393246,0.184],
    [4131,"urn:WaterMeter:MC0203J22010600005","2023-07-22T17:00:00",31.299,28.357985,0.186],
    [4132,"urn:WaterMeter:MC0203J22010600005","2023-07-22T17:15:00",31.2,28.315277,0.184],
    [4133,"urn:WaterMeter:MC0203J22010600005","2023-07-22T17:30:00",31,28.26485,0.183],
    [4134,"urn:WaterMeter:MC0203J22010600005","2023-07-22T17:45:00",30.799,28.252865,0.185],
    [4135,"urn:WaterMeter:MC0203J22010600005","2023-07-22T18:00:00",30.6,28.278465,0.185],
    [4136,"urn:WaterMeter:MC0203J22010600005","2023-07-22T18:15:00",30.399,28.236572,0.188],
    [4137,"urn:WaterMeter:MC0203J22010600005","2023-07-22T18:30:00",30.2,28.214462,0.185],
    [4138,"urn:WaterMeter:MC0203J22010600005","2023-07-22T18:45:00",30,28.22028,0.176],
    [4139,"urn:WaterMeter:MC0203J22010600005","2023-07-22T19:00:00",29.799,28.1652,0.188],
    [4140,"urn:WaterMeter:MC0203J22010600005","2023-07-22T19:15:00",29.6,28.195456,0.18],
    [4141,"urn:WaterMeter:MC0203J22010600005","2023-07-22T19:30:00",29.399,28.179125,0.185],
    [4142,"urn:WaterMeter:MC0203J22010600005","2023-07-22T19:45:00",29.299,28.213299,0.183],
    [4143,"urn:WaterMeter:MC0203J22010600005","2023-07-22T20:00:00",29.1,28.186146,0.192],
    [4144,"urn:WaterMeter:MC0203J22010600005","2023-07-22T20:15:00",29,28.175283,0.189],
    [4145,"urn:WaterMeter:MC0203J22010600005","2023-07-22T20:30:00",28.899,28.186146,0.182],
    [4146,"urn:WaterMeter:MC0203J22010600005","2023-07-22T20:45:00",28.799,28.173344,0.192],
    [4147,"urn:WaterMeter:MC0203J22010600005","2023-07-22T21:00:00",28.6,28.153173,0.182],
    [4148,"urn:WaterMeter:MC0203J22010600005","2023-07-22T21:15:00",28.5,28.169815,0.186],
    [4149,"urn:WaterMeter:MC0203J22010600005","2023-07-22T21:30:00",28.399,28.14111,0.185],
    [4150,"urn:WaterMeter:MC0203J22010600005","2023-07-22T21:45:00",28.299,28.143087,0.193],
    [4151,"urn:WaterMeter:MC0203J22010600005","2023-07-22T22:00:00",28.2,28.135717,0.182],
    [4152,"urn:WaterMeter:MC0203J22010600005","2023-07-22T22:15:00",28.1,28.116323,0.184],
    [4153,"urn:WaterMeter:MC0203J22010600005","2023-07-22T22:30:00",28,28.131413,0.19],
    [4154,"urn:WaterMeter:MC0203J22010600005","2023-07-22T22:45:00",28,28.137657,0.183],
    [4155,"urn:WaterMeter:MC0203J22010600005","2023-07-22T23:00:00",27.899,28.108564,0.179],
    [4156,"urn:WaterMeter:MC0203J22010600005","2023-07-22T23:15:00",27.799,28.12796,0.181],
    [4157,"urn:WaterMeter:MC0203J22010600005","2023-07-22T23:30:00",27.7,28.088781,0.19],
    [4158,"urn:WaterMeter:MC0203J22010600005","2023-07-22T23:45:00",27.6,28.109303,0.179],
    [4159,"urn:WaterMeter:MC0203J22010600005","2023-07-23T00:00:04",27.5,28.075594,0.19],
    [4160,"urn:WaterMeter:MC0203J22010600005","2023-07-23T00:15:00",27.399,28.086454,0.186],
    [4161,"urn:WaterMeter:MC0203J22010600005","2023-07-23T00:30:00",27.299,28.089558,0.19],
    [4162,"urn:WaterMeter:MC0203J22010600005","2023-07-23T00:45:00",27.299,28.10585,0.184],
    [4163,"urn:WaterMeter:MC0203J22010600005","2023-07-23T01:00:00",27.2,28.071287,0.187],
    [4164,"urn:WaterMeter:MC0203J22010600005","2023-07-23T01:15:00",27.1,28.0837,0.182],
    [4165,"urn:WaterMeter:MC0203J22010600005","2023-07-23T01:30:00",27,28.057362,0.185],
    [4166,"urn:WaterMeter:MC0203J22010600005","2023-07-23T01:45:00",26.899,28.0818,0.18],
    [4167,"urn:WaterMeter:MC0203J22010600005","2023-07-23T02:00:00",26.899,28.053444,0.183],
    [4168,"urn:WaterMeter:MC0203J22010600005","2023-07-23T02:15:00",26.799,28.10003,0.187],
    [4169,"urn:WaterMeter:MC0203J22010600005","2023-07-23T02:30:00",26.7,28.048828,0.188],
    [4170,"urn:WaterMeter:MC0203J22010600005","2023-07-23T02:45:00",26.6,28.021675,0.182],
    [4171,"urn:WaterMeter:MC0203J22010600005","2023-07-23T03:00:00",26.6,28.028658,0.18],
    [4172,"urn:WaterMeter:MC0203J22010600005","2023-07-23T03:15:00",26.5,28.042622,0.189],
    [4173,"urn:WaterMeter:MC0203J22010600005","2023-07-23T03:30:00",26.5,28.060465,0.178],
    [4174,"urn:WaterMeter:MC0203J22010600005","2023-07-23T03:45:00",26.399,28.018185,0.181],
    [4175,"urn:WaterMeter:MC0203J22010600005","2023-07-23T04:00:00",26.299,28.054607,0.188],
    [4176,"urn:WaterMeter:MC0203J22010600005","2023-07-23T04:15:00",26.299,28.049992,0.186],
    [4177,"urn:WaterMeter:MC0203J22010600005","2023-07-23T04:30:00",26.2,28.064732,0.193],
    [4178,"urn:WaterMeter:MC0203J22010600005","2023-07-23T04:45:00",26.1,28.02633,0.188],
    [4179,"urn:WaterMeter:MC0203J22010600005","2023-07-23T05:00:00",26,28.010038,0.185],
    [4180,"urn:WaterMeter:MC0203J22010600005","2023-07-23T05:15:04",25.899,28.017408,0.186],
    [4181,"urn:WaterMeter:MC0203J22010600005","2023-07-23T05:30:00",25.799,28.00612,0.185],
    [4182,"urn:WaterMeter:MC0203J22010600005","2023-07-23T05:45:00",25.7,28.037579,0.181],
    [4183,"urn:WaterMeter:MC0203J22010600005","2023-07-23T06:00:00",25.799,28.027494,0.193],
    [4184,"urn:WaterMeter:MC0203J22010600005","2023-07-23T06:15:00",25.799,28.015818,0.182],
    [4185,"urn:WaterMeter:MC0203J22010600005","2023-07-23T06:30:00",25.899,28.027105,0.178],
    [4186,"urn:WaterMeter:MC0203J22010600005","2023-07-23T06:45:00",26,28.005733,0.181],
    [4187,"urn:WaterMeter:MC0203J22010600005","2023-07-23T07:00:00",26.299,27.9728,0.184],
    [4188,"urn:WaterMeter:MC0203J22010600005","2023-07-23T07:15:00",26.399,27.963491,0.185],
    [4189,"urn:WaterMeter:MC0203J22010600005","2023-07-23T07:30:00",26.7,27.929743,0.172],
    [4190,"urn:WaterMeter:MC0203J22010600005","2023-07-23T07:45:00",27,27.915741,0.181],
    [4191,"urn:WaterMeter:MC0203J22010600005","2023-07-23T08:00:00",27.399,27.911123,0.178],
    [4192,"urn:WaterMeter:MC0203J22010600005","2023-07-23T08:15:00",27.7,27.859495,0.177],
    [4193,"urn:WaterMeter:MC0203J22010600005","2023-07-23T08:30:00",28.2,27.861473,0.183],
    [4194,"urn:WaterMeter:MC0203J22010600005","2023-07-23T08:45:00",28.6,27.805614,0.173],
    [4195,"urn:WaterMeter:MC0203J22010600005","2023-07-23T09:00:00",29.2,27.728035,0.185],
    [4196,"urn:WaterMeter:MC0203J22010600005","2023-07-23T09:15:00",29.6,27.721052,0.176],
    [4197,"urn:WaterMeter:MC0203J22010600005","2023-07-23T09:30:00",29.899,27.690409,0.173],
    [4198,"urn:WaterMeter:MC0203J22010600005","2023-07-23T09:45:00",30.299,27.657011,0.179],
    [4199,"urn:WaterMeter:MC0203J22010600005","2023-07-23T10:00:00",30.5,27.581797,0.176],
    [4200,"urn:WaterMeter:MC0203J22010600005","2023-07-23T10:15:00",30.899,27.574816,0.183],
    [4201,"urn:WaterMeter:MC0203J22010600005","2023-07-23T10:30:00",31.2,27.517794,0.177],
    [4202,"urn:WaterMeter:MC0203J22010600005","2023-07-23T10:45:00",31.5,27.439825,0.174],
    [4203,"urn:WaterMeter:MC0203J22010600005","2023-07-23T11:00:00",31.7,27.411081,0.185],
    [4204,"urn:WaterMeter:MC0203J22010600005","2023-07-23T11:15:00",32.2,27.404877,0.175],
    [4205,"urn:WaterMeter:MC0203J22010600005","2023-07-23T11:30:00",32.599,27.338583,0.171],
    [4206,"urn:WaterMeter:MC0203J22010600005","2023-07-23T11:45:00",33,27.2951,0.176],
    [4207,"urn:WaterMeter:MC0203J22010600005","2023-07-23T12:00:00",33.299,27.21368,0.173],
    [4208,"urn:WaterMeter:MC0203J22010600005","2023-07-23T12:15:00",33.2,27.146961,0.186],
    [4209,"urn:WaterMeter:MC0203J22010600005","2023-07-23T12:30:00",32.9,27.133347,0.172],
    [4210,"urn:WaterMeter:MC0203J22010600005","2023-07-23T12:45:00",32.799,27.117092,0.17],
    [4211,"urn:WaterMeter:MC0203J22010600005","2023-07-23T13:00:00",32.9,27.085285,0.177],
    [4212,"urn:WaterMeter:MC0203J22010600005","2023-07-23T13:15:00",33,27.027489,0.195],
    [4213,"urn:WaterMeter:MC0203J22010600005","2023-07-23T13:30:00",33,26.96969,0.179],
    [4214,"urn:WaterMeter:MC0203J22010600005","2023-07-23T13:45:00",32.9,26.956503,0.18],
    [4215,"urn:WaterMeter:MC0203J22010600005","2023-07-23T14:00:00",32.799,26.92,0.173],
    [4216,"urn:WaterMeter:MC0203J22010600005","2023-07-23T14:15:00",32.599,26.919226,0.172],
    [4217,"urn:WaterMeter:MC0203J22010600005","2023-07-23T14:30:00",32.5,26.876595,0.168],
    [4218,"urn:WaterMeter:MC0203J22010600005","2023-07-23T14:45:00",32.4,26.860264,0.175],
    [4219,"urn:WaterMeter:MC0203J22010600005","2023-07-23T15:00:00",32.299,26.82962,0.176],
    [4220,"urn:WaterMeter:MC0203J22010600005","2023-07-23T15:15:00",32.2,26.81294,0.172],
    [4221,"urn:WaterMeter:MC0203J22010600005","2023-07-23T15:30:00",32,26.802855,0.171],
    [4222,"urn:WaterMeter:MC0203J22010600005","2023-07-23T15:45:00",31.899,26.753204,0.169],
    [4223,"urn:WaterMeter:MC0203J22010600005","2023-07-23T16:00:00",31.899,26.734198,0.18],
    [4224,"urn:WaterMeter:MC0203J22010600005","2023-07-23T16:15:00",31.799,26.736563,0.179],
    [4225,"urn:WaterMeter:MC0203J22010600005","2023-07-23T16:30:00",31.7,26.709023,0.17],
    [4226,"urn:WaterMeter:MC0203J22010600005","2023-07-23T16:45:00",31.7,26.669067,0.171],
    [4227,"urn:WaterMeter:MC0203J22010600005","2023-07-23T17:00:00",31.7,26.645794,0.17],
    [4228,"urn:WaterMeter:MC0203J22010600005","2023-07-23T17:15:00",31.6,26.634157,0.166],
    [4229,"urn:WaterMeter:MC0203J22010600005","2023-07-23T17:30:00",31.6,26.583342,0.168],
    [4230,"urn:WaterMeter:MC0203J22010600005","2023-07-23T17:45:00",31.5,26.54494,0.167],
    [4231,"urn:WaterMeter:MC0203J22010600005","2023-07-23T18:00:00",31.299,26.54688,0.17],
    [4232,"urn:WaterMeter:MC0203J22010600005","2023-07-23T18:15:00",31.1,26.54494,0.171],
    [4233,"urn:WaterMeter:MC0203J22010600005","2023-07-23T18:30:00",30.899,26.489471,0.169],
    [4234,"urn:WaterMeter:MC0203J22010600005","2023-07-23T18:45:00",30.6,26.489859,0.171],
    [4235,"urn:WaterMeter:MC0203J22010600005","2023-07-23T19:00:00",30.399,26.475895,0.175],
    [4236,"urn:WaterMeter:MC0203J22010600005","2023-07-23T19:15:00",30.2,26.47314,0.174],
    [4237,"urn:WaterMeter:MC0203J22010600005","2023-07-23T19:30:00",30,26.439432,0.17],
    [4238,"urn:WaterMeter:MC0203J22010600005","2023-07-23T19:45:00",29.799,26.479385,0.17],
    [4239,"urn:WaterMeter:MC0203J22010600005","2023-07-23T20:00:00",29.6,26.433575,0.171],
    [4240,"urn:WaterMeter:MC0203J22010600005","2023-07-23T20:15:00",29.399,26.451845,0.156],
    [4241,"urn:WaterMeter:MC0203J22010600005","2023-07-23T20:30:00",29.2,26.425041,0.172],
    [4242,"urn:WaterMeter:MC0203J22010600005","2023-07-23T20:45:00",29.1,26.439432,0.185],
    [4243,"urn:WaterMeter:MC0203J22010600005","2023-07-23T21:00:00",28.899,26.420036,0.177],
    [4244,"urn:WaterMeter:MC0203J22010600005","2023-07-23T21:15:00",28.799,26.441332,0.178],
    [4245,"urn:WaterMeter:MC0203J22010600005","2023-07-23T21:30:00",28.6,26.420036,0.176],
    [4246,"urn:WaterMeter:MC0203J22010600005","2023-07-23T21:45:00",28.5,26.438656,0.176],
    [4247,"urn:WaterMeter:MC0203J22010600005","2023-07-23T22:00:00",28.399,26.428959,0.17],
    [4248,"urn:WaterMeter:MC0203J22010600005","2023-07-23T22:15:00",28.299,26.44913,0.167],
    [4249,"urn:WaterMeter:MC0203J22010600005","2023-07-23T22:30:00",28.2,26.454948,0.172],
    [4250,"urn:WaterMeter:MC0203J22010600005","2023-07-23T22:45:00",28.1,26.39366,0.176],
    [4251,"urn:WaterMeter:MC0203J22010600005","2023-07-23T23:00:00",28.1,26.43245,0.171],
    [4252,"urn:WaterMeter:MC0203J22010600005","2023-07-23T23:15:00",28,26.403318,0.166],
    [4253,"urn:WaterMeter:MC0203J22010600005","2023-07-23T23:30:00",27.899,26.41034,0.175],
    [4254,"urn:WaterMeter:MC0203J22010600005","2023-07-23T23:45:00",27.899,26.39715,0.173],
    [4255,"urn:WaterMeter:MC0203J22010600005","2023-07-24T00:00:00",27.899,26.404482,0.171],
    [4256,"urn:WaterMeter:MC0203J22010600005","2023-07-24T00:15:00",27.899,26.381634,0.171],
    [4257,"urn:WaterMeter:MC0203J22010600005","2023-07-24T00:30:00",27.899,26.39327,0.175],
    [4258,"urn:WaterMeter:MC0203J22010600005","2023-07-24T00:45:00",27.799,26.416157,0.171],
    [4259,"urn:WaterMeter:MC0203J22010600005","2023-07-24T01:00:00",27.7,26.353706,0.173],
    [4260,"urn:WaterMeter:MC0203J22010600005","2023-07-24T01:15:00",27.6,26.403706,0.165],
    [4261,"urn:WaterMeter:MC0203J22010600005","2023-07-24T01:30:00",27.6,26.357159,0.164],
    [4262,"urn:WaterMeter:MC0203J22010600005","2023-07-24T01:45:00",27.5,26.38978,0.173],
    [4263,"urn:WaterMeter:MC0203J22010600005","2023-07-24T02:00:00",27.5,26.36224,0.172],
    [4264,"urn:WaterMeter:MC0203J22010600005","2023-07-24T02:15:00",27.5,26.365303,0.172],
    [4265,"urn:WaterMeter:MC0203J22010600005","2023-07-24T02:30:00",27.399,26.368834,0.164],
    [4266,"urn:WaterMeter:MC0203J22010600005","2023-07-24T02:45:00",27.299,26.36608,0.167],
    [4267,"urn:WaterMeter:MC0203J22010600005","2023-07-24T03:00:00",27.299,26.37892,0.177],
    [4268,"urn:WaterMeter:MC0203J22010600005","2023-07-24T03:15:00",27.299,26.340904,0.173],
    [4269,"urn:WaterMeter:MC0203J22010600005","2023-07-24T03:30:00",27.2,26.34746,0.164],
    [4270,"urn:WaterMeter:MC0203J22010600005","2023-07-24T03:45:00",27.2,26.33082,0.167],
    [4271,"urn:WaterMeter:MC0203J22010600005","2023-07-24T04:00:00",27.2,26.353317,0.171],
    [4272,"urn:WaterMeter:MC0203J22010600005","2023-07-24T04:15:00",27.1,26.376165,0.175],
    [4273,"urn:WaterMeter:MC0203J22010600005","2023-07-24T04:30:00",27.1,26.331594,0.166],
    [4274,"urn:WaterMeter:MC0203J22010600005","2023-07-24T04:45:00",27,26.34552,0.173],
    [4275,"urn:WaterMeter:MC0203J22010600005","2023-07-24T05:00:00",27,26.326126,0.172],
    [4276,"urn:WaterMeter:MC0203J22010600005","2023-07-24T05:15:00",26.899,26.334698,0.166],
    [4277,"urn:WaterMeter:MC0203J22010600005","2023-07-24T05:30:00",26.899,26.312588,0.166],
    [4278,"urn:WaterMeter:MC0203J22010600005","2023-07-24T05:45:00",26.899,26.336987,0.17],
    [4279,"urn:WaterMeter:MC0203J22010600005","2023-07-24T06:00:00",27,26.322674,0.174],
    [4280,"urn:WaterMeter:MC0203J22010600005","2023-07-24T06:15:00",27,26.272247,0.166],
    [4281,"urn:WaterMeter:MC0203J22010600005","2023-07-24T06:30:00",27.1,26.297071,0.165],
    [4282,"urn:WaterMeter:MC0203J22010600005","2023-07-24T06:45:00",27.299,26.25867,0.164],
    [4283,"urn:WaterMeter:MC0203J22010600005","2023-07-24T07:00:00",27.5,26.254015,0.172],
    [4284,"urn:WaterMeter:MC0203J22010600005","2023-07-24T07:15:00",27.6,26.277288,0.171],
    [4285,"urn:WaterMeter:MC0203J22010600005","2023-07-24T07:30:00",27.799,26.2404,0.166],
    [4286,"urn:WaterMeter:MC0203J22010600005","2023-07-24T07:45:00",28.2,26.189585,0.165],
    [4287,"urn:WaterMeter:MC0203J22010600005","2023-07-24T08:00:00",28.6,26.16829,0.163],
    [4288,"urn:WaterMeter:MC0203J22010600005","2023-07-24T08:15:00",29,26.139196,0.166],
    [4289,"urn:WaterMeter:MC0203J22010600005","2023-07-24T08:30:00",29.299,26.09614,0.164],
    [4290,"urn:WaterMeter:MC0203J22010600005","2023-07-24T08:45:00",30,26.043386,0.154],
    [4291,"urn:WaterMeter:MC0203J22010600005","2023-07-24T09:00:00",30.2,25.9852,0.162],
    [4292,"urn:WaterMeter:MC0203J22010600005","2023-07-24T09:15:00",30.1,25.96309,0.164],
    [4293,"urn:WaterMeter:MC0203J22010600005","2023-07-24T09:30:00",30.5,25.93745,0.178],
    [4294,"urn:WaterMeter:MC0203J22010600005","2023-07-24T09:45:00",30.5,25.9006,0.16],
    [4295,"urn:WaterMeter:MC0203J22010600005","2023-07-24T10:00:00",30.6,25.85987,0.16],
    [4296,"urn:WaterMeter:MC0203J22010600005","2023-07-24T10:15:00",30.799,25.821468,0.166],
    [4297,"urn:WaterMeter:MC0203J22010600005","2023-07-24T10:30:00",30.799,25.801298,0.171],
    [4298,"urn:WaterMeter:MC0203J22010600005","2023-07-24T10:45:00",30.7,25.76561,0.173],
    [4299,"urn:WaterMeter:MC0203J22010600005","2023-07-24T11:00:00",30.799,25.704323,0.159],
    [4300,"urn:WaterMeter:MC0203J22010600005","2023-07-24T11:15:00",31.1,25.716736,0.166],
    [4301,"urn:WaterMeter:MC0203J22010600005","2023-07-24T11:30:00",31.2,25.629457,0.159],
    [4302,"urn:WaterMeter:MC0203J22010600005","2023-07-24T11:45:00",31.299,25.642685,0.157],
    [4303,"urn:WaterMeter:MC0203J22010600005","2023-07-24T12:00:00",31.799,25.592258,0.167],
    [4304,"urn:WaterMeter:MC0203J22010600005","2023-07-24T12:15:00",32.299,25.532871,0.163],
    [4305,"urn:WaterMeter:MC0203J22010600005","2023-07-24T12:30:00",32.599,25.503002,0.158],
    [4306,"urn:WaterMeter:MC0203J22010600005","2023-07-24T12:45:00",32.9,25.410334,0.157],
    [4307,"urn:WaterMeter:MC0203J22010600005","2023-07-24T13:00:00",33.099,25.382015,0.163],
    [4308,"urn:WaterMeter:MC0203J22010600005","2023-07-24T13:15:00",33.299,25.328835,0.158],
    [4309,"urn:WaterMeter:MC0203J22010600005","2023-07-24T13:30:00",33.4,25.288532,0.156],
    [4310,"urn:WaterMeter:MC0203J22010600005","2023-07-24T13:45:00",33.5,25.235003,0.157],
    [4311,"urn:WaterMeter:MC0203J22010600005","2023-07-24T14:00:00",33.5,25.160137,0.165],
    [4312,"urn:WaterMeter:MC0203J22010600005","2023-07-24T14:15:00",33.5,25.126778,0.157],
    [4313,"urn:WaterMeter:MC0203J22010600005","2023-07-24T14:30:00",33.5,25.069757,0.164],
    [4314,"urn:WaterMeter:MC0203J22010600005","2023-07-24T14:45:00",33.599,25.038298,0.155],
    [4315,"urn:WaterMeter:MC0203J22010600005","2023-07-24T15:00:00",33.7,24.991789,0.159],
    [4316,"urn:WaterMeter:MC0203J22010600005","2023-07-24T15:15:00",33.599,24.953386,0.157],
    [4317,"urn:WaterMeter:MC0203J22010600005","2023-07-24T15:30:00",33.599,24.897917,0.157],
    [4318,"urn:WaterMeter:MC0203J22010600005","2023-07-24T15:45:00",33.599,24.857187,0.152],
    [4319,"urn:WaterMeter:MC0203J22010600005","2023-07-24T16:00:00",33.599,24.811804,0.159],
    [4320,"urn:WaterMeter:MC0203J22010600005","2023-07-24T16:15:00",33.5,24.778444,0.155],
    [4321,"urn:WaterMeter:MC0203J22010600005","2023-07-24T16:30:00",33.4,24.724913,0.153],
    [4322,"urn:WaterMeter:MC0203J22010600005","2023-07-24T16:45:00",33.299,24.66285,0.153],
    [4323,"urn:WaterMeter:MC0203J22010600005","2023-07-24T17:00:00",33.2,24.653152,0.165],
    [4324,"urn:WaterMeter:MC0203J22010600005","2023-07-24T17:15:00",33.099,24.626776,0.155],
    [4325,"urn:WaterMeter:MC0203J22010600005","2023-07-24T17:30:00",33,24.582903,0.163],
    [4326,"urn:WaterMeter:MC0203J22010600005","2023-07-24T17:45:00",32.9,24.55928,0.154],
    [4327,"urn:WaterMeter:MC0203J22010600005","2023-07-24T18:00:00",32.799,24.513857,0.157],
    [4328,"urn:WaterMeter:MC0203J22010600005","2023-07-24T18:15:00",32.599,24.506914,0.158],
    [4329,"urn:WaterMeter:MC0203J22010600005","2023-07-24T18:30:00",32.4,24.475843,0.159],
    [4330,"urn:WaterMeter:MC0203J22010600005","2023-07-24T18:45:00",32.2,24.473942,0.158],
    [4331,"urn:WaterMeter:MC0203J22010600005","2023-07-24T19:00:00",32,24.416882,0.156],
    [4332,"urn:WaterMeter:MC0203J22010600005","2023-07-24T19:15:00",31.6,24.43744,0.155],
    [4333,"urn:WaterMeter:MC0203J22010600005","2023-07-24T19:30:00",31.299,24.43554,0.155],
    [4334,"urn:WaterMeter:MC0203J22010600005","2023-07-24T19:45:00",31,24.431662,0.154],
    [4335,"urn:WaterMeter:MC0203J22010600005","2023-07-24T20:00:00",30.7,24.397099,0.164],
    [4336,"urn:WaterMeter:MC0203J22010600005","2023-07-24T20:15:00",30.299,24.430885,0.159],
    [4337,"urn:WaterMeter:MC0203J22010600005","2023-07-24T20:30:00",30,24.430498,0.171],
    [4338,"urn:WaterMeter:MC0203J22010600005","2023-07-24T20:45:00",29.6,24.395586,0.153],
    [4339,"urn:WaterMeter:MC0203J22010600005","2023-07-24T21:00:00",29.299,24.416494,0.157],
    [4340,"urn:WaterMeter:MC0203J22010600005","2023-07-24T21:15:00",29.1,24.425804,0.158],
    [4341,"urn:WaterMeter:MC0203J22010600005","2023-07-24T21:30:00",28.799,24.421963,0.156],
    [4342,"urn:WaterMeter:MC0203J22010600005","2023-07-24T21:45:00",28.6,24.395199,0.154],
    [4343,"urn:WaterMeter:MC0203J22010600005","2023-07-24T22:00:00",28.299,24.421963,0.155],
    [4344,"urn:WaterMeter:MC0203J22010600005","2023-07-24T22:15:00",28.1,24.420412,0.155],
    [4345,"urn:WaterMeter:MC0203J22010600005","2023-07-24T22:30:00",27.799,24.429722,0.159],
    [4346,"urn:WaterMeter:MC0203J22010600005","2023-07-24T22:45:00",27.6,24.448341,0.158],
    [4347,"urn:WaterMeter:MC0203J22010600005","2023-07-24T23:00:00",27.399,24.420025,0.156],
    [4348,"urn:WaterMeter:MC0203J22010600005","2023-07-24T23:15:00",27.299,24.419636,0.155],
    [4349,"urn:WaterMeter:MC0203J22010600005","2023-07-24T23:30:00",27.2,24.406021,0.154],
    [4350,"urn:WaterMeter:MC0203J22010600005","2023-07-24T23:45:00",27,24.449116,0.158],
    [4351,"urn:WaterMeter:MC0203J22010600005","2023-07-25T00:00:00",27.1,24.41343,0.152],
    [4352,"urn:WaterMeter:MC0203J22010600005","2023-07-25T00:15:00",27.1,24.425804,0.154],
    [4353,"urn:WaterMeter:MC0203J22010600005","2023-07-25T00:30:00",27,24.399078,0.158],
    [4354,"urn:WaterMeter:MC0203J22010600005","2023-07-25T00:45:00",26.899,24.42464,0.156],
    [4355,"urn:WaterMeter:MC0203J22010600005","2023-07-25T01:00:00",26.799,24.401016,0.159],
    [4356,"urn:WaterMeter:MC0203J22010600005","2023-07-25T01:15:00",26.6,24.420025,0.152],
    [4357,"urn:WaterMeter:MC0203J22010600005","2023-07-25T01:30:00",26.399,24.388954,0.155],
    [4358,"urn:WaterMeter:MC0203J22010600005","2023-07-25T01:45:00",26.299,24.390156,0.151],
    [4359,"urn:WaterMeter:MC0203J22010600005","2023-07-25T02:00:00",26.1,24.415369,0.155],
    [4360,"urn:WaterMeter:MC0203J22010600005","2023-07-25T02:15:00",26,24.359472,0.154],
    [4361,"urn:WaterMeter:MC0203J22010600005","2023-07-25T02:30:00",25.799,24.35796,0.152],
    [4362,"urn:WaterMeter:MC0203J22010600005","2023-07-25T02:45:00",25.7,24.364943,0.152],
    [4363,"urn:WaterMeter:MC0203J22010600005","2023-07-25T03:00:00",25.6,24.35408,0.152],
    [4364,"urn:WaterMeter:MC0203J22010600005","2023-07-25T03:15:00",25.5,24.365719,0.153],
    [4365,"urn:WaterMeter:MC0203J22010600005","2023-07-25T03:30:00",25.399,24.384726,0.159],
    [4366,"urn:WaterMeter:MC0203J22010600005","2023-07-25T03:45:00",25.2,24.364166,0.157],
    [4367,"urn:WaterMeter:MC0203J22010600005","2023-07-25T04:00:00",25.1,24.369986,0.155],
    [4368,"urn:WaterMeter:MC0203J22010600005","2023-07-25T04:15:00",24.899,24.364943,0.15],
    [4369,"urn:WaterMeter:MC0203J22010600005","2023-07-25T04:30:00",24.899,24.362616,0.152],
    [4370,"urn:WaterMeter:MC0203J22010600005","2023-07-25T04:45:00",24.799,24.373089,0.148],
    [4371,"urn:WaterMeter:MC0203J22010600005","2023-07-25T05:00:00",24.7,24.359085,0.155],
    [4372,"urn:WaterMeter:MC0203J22010600005","2023-07-25T05:15:00",24.7,24.398651,0.149],
    [4373,"urn:WaterMeter:MC0203J22010600005","2023-07-25T05:30:00",24.7,24.383562,0.153],
    [4374,"urn:WaterMeter:MC0203J22010600005","2023-07-25T05:45:00",24.799,24.351753,0.148],
    [4375,"urn:WaterMeter:MC0203J22010600005","2023-07-25T06:00:00",24.899,24.337013,0.151],
    [4376,"urn:WaterMeter:MC0203J22010600005","2023-07-25T06:15:00",25.1,24.450281,0.155],
    [4377,"urn:WaterMeter:MC0203J22010600005","2023-07-25T06:30:00",25.299,24.676388,0.171],
    [4378,"urn:WaterMeter:MC0203J22010600005","2023-07-25T06:45:00",25.399,25.78423,0.176],
    [4379,"urn:WaterMeter:MC0203J22010600005","2023-07-25T07:00:00",25.5,27.474348,0.191],
    [4380,"urn:WaterMeter:MC0203J22010600005","2023-07-25T07:15:00",25.799,28.726103,0.194],
    [4381,"urn:WaterMeter:MC0203J22010600005","2023-07-25T07:30:00",26,29.55582,0.202],
    [4382,"urn:WaterMeter:MC0203J22010600005","2023-07-25T07:45:00",26.399,30.2393,0.196],
    [4383,"urn:WaterMeter:MC0203J22010600005","2023-07-25T08:00:00",26.799,30.653965,0.204],
    [4384,"urn:WaterMeter:MC0203J22010600005","2023-07-25T08:15:00",27.1,30.718357,0.206],
    [4385,"urn:WaterMeter:MC0203J22010600005","2023-07-25T08:30:00",27.5,30.622894,0.205],
    [4386,"urn:WaterMeter:MC0203J22010600005","2023-07-25T08:45:00",28.2,30.543413,0.198],
    [4387,"urn:WaterMeter:MC0203J22010600005","2023-07-25T09:00:00",28.899,30.452257,0.195],
    [4388,"urn:WaterMeter:MC0203J22010600005","2023-07-25T09:15:00",29.5,30.395624,0.197],
    [4389,"urn:WaterMeter:MC0203J22010600005","2023-07-25T09:30:00",30,30.326578,0.197],
    [4390,"urn:WaterMeter:MC0203J22010600005","2023-07-25T09:45:00",30.299,30.2521,0.194],
    [4391,"urn:WaterMeter:MC0203J22010600005","2023-07-25T10:00:00",30.7,30.191977,0.193],
    [4392,"urn:WaterMeter:MC0203J22010600005","2023-07-25T10:15:00",31.1,30.109703,0.195],
    [4393,"urn:WaterMeter:MC0203J22010600005","2023-07-25T10:30:00",31.399,30.077934,0.193],
    [4394,"urn:WaterMeter:MC0203J22010600005","2023-07-25T10:45:00",31.799,29.982122,0.202],
    [4395,"urn:WaterMeter:MC0203J22010600005","2023-07-25T11:00:00",32.099,29.950703,0.199],
    [4396,"urn:WaterMeter:MC0203J22010600005","2023-07-25T11:15:00",32.599,29.90528,0.193],
    [4397,"urn:WaterMeter:MC0203J22010600005","2023-07-25T11:30:00",33,29.825024,0.195],
    [4398,"urn:WaterMeter:MC0203J22010600005","2023-07-25T11:45:00",33.299,29.765285,0.193],
    [4399,"urn:WaterMeter:MC0203J22010600005","2023-07-25T12:00:00",33.599,29.734255,0.2],
    [4400,"urn:WaterMeter:MC0203J22010600005","2023-07-25T12:15:00",33.799,29.627583,0.199],
    [4401,"urn:WaterMeter:MC0203J22010600005","2023-07-25T12:30:00",34.099,29.561638,0.189],
    [4402,"urn:WaterMeter:MC0203J22010600005","2023-07-25T12:45:00",34.099,29.480568,0.197],
    [4403,"urn:WaterMeter:MC0203J22010600005","2023-07-25T13:00:00",34.099,29.43049,0.191],
    [4404,"urn:WaterMeter:MC0203J22010600005","2023-07-25T13:15:00",34,29.375446,0.187],
    [4405,"urn:WaterMeter:MC0203J22010600005","2023-07-25T13:30:00",33.799,29.355276,0.188],
    [4406,"urn:WaterMeter:MC0203J22010600005","2023-07-25T13:45:00",33.599,29.325407,0.188],
    [4407,"urn:WaterMeter:MC0203J22010600005","2023-07-25T14:00:00",33.4,29.270327,0.194],
    [4408,"urn:WaterMeter:MC0203J22010600005","2023-07-25T14:15:00",33.2,29.236927,0.189],
    [4409,"urn:WaterMeter:MC0203J22010600005","2023-07-25T14:30:00",33.099,29.195423,0.191],
    [4410,"urn:WaterMeter:MC0203J22010600005","2023-07-25T14:45:00",32.9,29.154732,0.193],
    [4411,"urn:WaterMeter:MC0203J22010600005","2023-07-25T15:00:00",32.799,29.121334,0.192],
    [4412,"urn:WaterMeter:MC0203J22010600005","2023-07-25T15:15:00",32.7,29.07017,0.191],
    [4413,"urn:WaterMeter:MC0203J22010600005","2023-07-25T15:30:00",32.5,29.03138,0.201],
    [4414,"urn:WaterMeter:MC0203J22010600005","2023-07-25T15:45:00",32.4,29.00539,0.19],
    [4415,"urn:WaterMeter:MC0203J22010600005","2023-07-25T16:00:00",32.2,28.95186,0.195],
    [4416,"urn:WaterMeter:MC0203J22010600005","2023-07-25T16:15:00",32,28.914234,0.197],
    [4417,"urn:WaterMeter:MC0203J22010600005","2023-07-25T16:30:00",31.799,28.878508,0.192],
    [4418,"urn:WaterMeter:MC0203J22010600005","2023-07-25T16:45:00",31.6,28.835102,0.188],
    [4419,"urn:WaterMeter:MC0203J22010600005","2023-07-25T17:00:00",31.399,28.80791,0.188],
    [4420,"urn:WaterMeter:MC0203J22010600005","2023-07-25T17:15:00",31.2,28.775753,0.194],
    [4421,"urn:WaterMeter:MC0203J22010600005","2023-07-25T17:30:00",31.1,28.726877,0.186],
    [4422,"urn:WaterMeter:MC0203J22010600005","2023-07-25T17:45:00",30.899,28.731493,0.188],
    [4423,"urn:WaterMeter:MC0203J22010600005","2023-07-25T18:00:00",30.7,28.673697,0.202],
    [4424,"urn:WaterMeter:MC0203J22010600005","2023-07-25T18:15:00",30.6,28.666754,0.191],
    [4425,"urn:WaterMeter:MC0203J22010600005","2023-07-25T18:30:00",30.299,28.66365,0.188],
    [4426,"urn:WaterMeter:MC0203J22010600005","2023-07-25T18:45:00",30.1,28.614737,0.189],
    [4427,"urn:WaterMeter:MC0203J22010600005","2023-07-25T19:00:00",29.899,28.607792,0.186],
    [4428,"urn:WaterMeter:MC0203J22010600005","2023-07-25T19:15:00",29.799,28.605465,0.188],
    [4429,"urn:WaterMeter:MC0203J22010600005","2023-07-25T19:30:00",29.6,28.579475,0.191],
    [4430,"urn:WaterMeter:MC0203J22010600005","2023-07-25T19:45:00",29.5,28.564348,0.189],
    [4431,"urn:WaterMeter:MC0203J22010600005","2023-07-25T20:00:00",29.2,28.543402,0.191],
    [4432,"urn:WaterMeter:MC0203J22010600005","2023-07-25T20:15:00",29.1,28.537931,0.188],
    [4433,"urn:WaterMeter:MC0203J22010600005","2023-07-25T20:30:00",28.899,28.532152,0.191],
    [4434,"urn:WaterMeter:MC0203J22010600005","2023-07-25T20:45:00",28.799,28.476683,0.19],
    [4435,"urn:WaterMeter:MC0203J22010600005","2023-07-25T21:00:00",28.6,28.516985,0.193],
    [4436,"urn:WaterMeter:MC0203J22010600005","2023-07-25T21:15:00",28.5,28.507326,0.187],
    [4437,"urn:WaterMeter:MC0203J22010600005","2023-07-25T21:30:00",28.299,28.495302,0.188],
    [4438,"urn:WaterMeter:MC0203J22010600005","2023-07-25T21:45:00",28.2,28.505386,0.187],
    [4439,"urn:WaterMeter:MC0203J22010600005","2023-07-25T22:00:00",28.1,28.48832,0.188],
    [4440,"urn:WaterMeter:MC0203J22010600005","2023-07-25T22:15:00",28.1,28.478195,0.189],
    [4441,"urn:WaterMeter:MC0203J22010600005","2023-07-25T22:30:00",28,28.44914,0.186],
    [4442,"urn:WaterMeter:MC0203J22010600005","2023-07-25T22:45:00",27.799,28.483276,0.185],
    [4443,"urn:WaterMeter:MC0203J22010600005","2023-07-25T23:00:00",27.7,28.434013,0.188],
    [4444,"urn:WaterMeter:MC0203J22010600005","2023-07-25T23:15:00",27.7,28.442509,0.186],
    [4445,"urn:WaterMeter:MC0203J22010600005","2023-07-25T23:30:00",27.6,28.442509,0.185],
    [4446,"urn:WaterMeter:MC0203J22010600005","2023-07-25T23:45:00",27.399,28.468924,0.189],
    [4447,"urn:WaterMeter:MC0203J22010600005","2023-07-26T00:00:00",27.299,28.392857,0.194],
    [4448,"urn:WaterMeter:MC0203J22010600005","2023-07-26T00:15:00",27.2,28.390957,0.187],
    [4449,"urn:WaterMeter:MC0203J22010600005","2023-07-26T00:30:00",27.1,28.365744,0.196],
    [4450,"urn:WaterMeter:MC0203J22010600005","2023-07-26T00:45:00",27,28.39949,0.192],
    [4451,"urn:WaterMeter:MC0203J22010600005","2023-07-26T01:00:00",26.899,28.423113,0.186],
    [4452,"urn:WaterMeter:MC0203J22010600005","2023-07-26T01:15:00",26.799,28.372337,0.193],
    [4453,"urn:WaterMeter:MC0203J22010600005","2023-07-26T01:30:00",26.7,28.38316,0.187],
    [4454,"urn:WaterMeter:MC0203J22010600005","2023-07-26T01:45:00",26.6,28.37932,0.188],
    [4455,"urn:WaterMeter:MC0203J22010600005","2023-07-26T02:00:00",26.5,28.382772,0.194],
    [4456,"urn:WaterMeter:MC0203J22010600005","2023-07-26T02:15:00",26.399,28.352554,0.184],
    [4457,"urn:WaterMeter:MC0203J22010600005","2023-07-26T02:30:00",26.299,28.369234,0.195],
    [4458,"urn:WaterMeter:MC0203J22010600005","2023-07-26T02:45:00",26.1,28.373074,0.186],
    [4459,"urn:WaterMeter:MC0203J22010600005","2023-07-26T03:00:00",26,28.354843,0.187],
    [4460,"urn:WaterMeter:MC0203J22010600005","2023-07-26T03:15:00",25.899,28.362213,0.192],
    [4461,"urn:WaterMeter:MC0203J22010600005","2023-07-26T03:30:00",25.799,28.328505,0.184],
    [4462,"urn:WaterMeter:MC0203J22010600005","2023-07-26T03:45:00",25.7,28.327341,0.186],
    [4463,"urn:WaterMeter:MC0203J22010600005","2023-07-26T04:00:00",25.5,28.344757,0.187],
    [4464,"urn:WaterMeter:MC0203J22010600005","2023-07-26T04:15:00",25.5,28.32381,0.182],
    [4465,"urn:WaterMeter:MC0203J22010600005","2023-07-26T04:30:00",25.399,28.319582,0.18],
    [4466,"urn:WaterMeter:MC0203J22010600005","2023-07-26T04:45:00",25.299,28.30717,0.187],
    [4467,"urn:WaterMeter:MC0203J22010600005","2023-07-26T05:00:00",25.299,28.317644,0.184],
    [4468,"urn:WaterMeter:MC0203J22010600005","2023-07-26T05:15:00",25.399,28.351778,0.183],
    [4469,"urn:WaterMeter:MC0203J22010600005","2023-07-26T05:30:00",25.399,28.371174,0.193],
    [4470,"urn:WaterMeter:MC0203J22010600005","2023-07-26T05:45:00",25.399,28.710546,0.194],
    [4471,"urn:WaterMeter:MC0203J22010600005","2023-07-26T06:00:00",25.399,29.469667,0.199],
    [4472,"urn:WaterMeter:MC0203J22010600005","2023-07-26T06:15:00",25.5,30.354506,0.206],
    [4473,"urn:WaterMeter:MC0203J22010600005","2023-07-26T06:30:00",25.7,30.894812,0.211],
    [4474,"urn:WaterMeter:MC0203J22010600005","2023-07-26T06:45:00",25.899,31.290857,0.223],
    [4475,"urn:WaterMeter:MC0203J22010600005","2023-07-26T07:00:00",26,31.539541,0.223],
    [4476,"urn:WaterMeter:MC0203J22010600005","2023-07-26T07:15:00",26.299,31.726896,0.214],
    [4477,"urn:WaterMeter:MC0203J22010600005","2023-07-26T07:30:00",26.5,31.878954,0.213],
    [4478,"urn:WaterMeter:MC0203J22010600005","2023-07-26T07:45:00",26.7,32.021313,0.218],
    [4479,"urn:WaterMeter:MC0203J22010600005","2023-07-26T08:00:00",27.1,32.068596,0.215],
    [4480,"urn:WaterMeter:MC0203J22010600005","2023-07-26T08:15:00",27.5,31.714872,0.225],
    [4481,"urn:WaterMeter:MC0203J22010600005","2023-07-26T08:30:00",28,31.458431,0.216],
    [4482,"urn:WaterMeter:MC0203J22010600005","2023-07-26T08:45:00",28.299,31.338608,0.221],
    [4483,"urn:WaterMeter:MC0203J22010600005","2023-07-26T09:00:00",28.7,31.266071,0.206],
    [4484,"urn:WaterMeter:MC0203J22010600005","2023-07-26T09:15:00",29.5,31.16289,0.205],
    [4485,"urn:WaterMeter:MC0203J22010600005","2023-07-26T09:30:00",29.799,31.07053,0.2],
    [4486,"urn:WaterMeter:MC0203J22010600005","2023-07-26T09:45:00",29.799,31.00226,0.206],
    [4487,"urn:WaterMeter:MC0203J22010600005","2023-07-26T10:00:00",29.5,30.942911,0.204],
    [4488,"urn:WaterMeter:MC0203J22010600005","2023-07-26T10:15:00",29.799,30.880886,0.202],
    [4489,"urn:WaterMeter:MC0203J22010600005","2023-07-26T10:30:00",30.1,30.808699,0.202],
    [4490,"urn:WaterMeter:MC0203J22010600005","2023-07-26T10:45:00",30.299,30.764904,0.203],
    [4491,"urn:WaterMeter:MC0203J22010600005","2023-07-26T11:00:00",30.5,30.664438,0.203],
    [4492,"urn:WaterMeter:MC0203J22010600005","2023-07-26T11:15:00",31,30.629915,0.2],
    [4493,"urn:WaterMeter:MC0203J22010600005","2023-07-26T11:30:00",31.2,30.522854,0.203],
    [4494,"urn:WaterMeter:MC0203J22010600005","2023-07-26T11:45:00",31.399,30.494886,0.198],
    [4495,"urn:WaterMeter:MC0203J22010600005","2023-07-26T12:00:00",31.799,30.454584,0.197],
    [4496,"urn:WaterMeter:MC0203J22010600005","2023-07-26T12:15:00",32.099,30.376617,0.199],
    [4497,"urn:WaterMeter:MC0203J22010600005","2023-07-26T12:30:00",32.099,30.277313,0.201],
    [4498,"urn:WaterMeter:MC0203J22010600005","2023-07-26T12:45:00",32.2,30.232317,0.199],
    [4499,"urn:WaterMeter:MC0203J22010600005","2023-07-26T13:00:00",32.2,30.177973,0.201],
    [4500,"urn:WaterMeter:MC0203J22010600005","2023-07-26T13:15:00",32.099,30.10625,0.202],
    [4501,"urn:WaterMeter:MC0203J22010600005","2023-07-26T13:30:00",31.899,30.077158,0.199],
    [4502,"urn:WaterMeter:MC0203J22010600005","2023-07-26T13:45:00",31.799,30.04182,0.207],
    [4503,"urn:WaterMeter:MC0203J22010600005","2023-07-26T14:00:00",31.7,30.001516,0.201],
    [4504,"urn:WaterMeter:MC0203J22010600005","2023-07-26T14:15:00",31.6,29.967382,0.202],
    [4505,"urn:WaterMeter:MC0203J22010600005","2023-07-26T14:30:00",31.6,29.93282,0.195],
    [4506,"urn:WaterMeter:MC0203J22010600005","2023-07-26T14:45:00",31.6,29.84787,0.194],
    [4507,"urn:WaterMeter:MC0203J22010600005","2023-07-26T15:00:00",31.5,29.81645,0.199],
    [4508,"urn:WaterMeter:MC0203J22010600005","2023-07-26T15:15:00",31.399,29.783518,0.197],
    [4509,"urn:WaterMeter:MC0203J22010600005","2023-07-26T15:30:00",31.2,29.735806,0.201],
    [4510,"urn:WaterMeter:MC0203J22010600005","2023-07-26T15:45:00",31.1,29.70904,0.202],
    [4511,"urn:WaterMeter:MC0203J22010600005","2023-07-26T16:00:00",31,29.69624,0.202],
    [4512,"urn:WaterMeter:MC0203J22010600005","2023-07-26T16:15:00",30.899,29.630297,0.196],
    [4513,"urn:WaterMeter:MC0203J22010600005","2023-07-26T16:30:00",30.799,29.59849,0.197],
    [4514,"urn:WaterMeter:MC0203J22010600005","2023-07-26T16:45:00",30.7,29.590343,0.192],
    [4515,"urn:WaterMeter:MC0203J22010600005","2023-07-26T17:00:00",30.6,29.543795,0.197],
    [4516,"urn:WaterMeter:MC0203J22010600005","2023-07-26T17:15:00",30.5,29.520521,0.195],
    [4517,"urn:WaterMeter:MC0203J22010600005","2023-07-26T17:30:00",30.399,29.490265,0.196],
    [4518,"urn:WaterMeter:MC0203J22010600005","2023-07-26T17:45:00",30.2,29.461172,0.207],
    [4519,"urn:WaterMeter:MC0203J22010600005","2023-07-26T18:00:00",30.1,29.451048,0.193],
    [4520,"urn:WaterMeter:MC0203J22010600005","2023-07-26T18:15:00",29.899,29.418116,0.2],
    [4521,"urn:WaterMeter:MC0203J22010600005","2023-07-26T18:30:00",29.7,29.444881,0.194],
    [4522,"urn:WaterMeter:MC0203J22010600005","2023-07-26T18:45:00",29.5,29.373468,0.192],
    [4523,"urn:WaterMeter:MC0203J22010600005","2023-07-26T19:00:00",29.299,29.38049,0.193],
    [4524,"urn:WaterMeter:MC0203J22010600005","2023-07-26T19:15:00",29.2,29.375446,0.204],
    [4525,"urn:WaterMeter:MC0203J22010600005","2023-07-26T19:30:00",29,29.340536,0.202],
    [4526,"urn:WaterMeter:MC0203J22010600005","2023-07-26T19:45:00",28.899,29.318426,0.196],
    [4527,"urn:WaterMeter:MC0203J22010600005","2023-07-26T20:00:00",28.7,29.340923,0.196],
    [4528,"urn:WaterMeter:MC0203J22010600005","2023-07-26T20:15:00",28.6,29.293173,0.191],
    [4529,"urn:WaterMeter:MC0203J22010600005","2023-07-26T20:30:00",28.5,29.325796,0.192],
    [4530,"urn:WaterMeter:MC0203J22010600005","2023-07-26T20:45:00",28.399,29.293173,0.198],
    [4531,"urn:WaterMeter:MC0203J22010600005","2023-07-26T21:00:00",28.299,29.281187,0.202],
    [4532,"urn:WaterMeter:MC0203J22010600005","2023-07-26T21:15:00",28.2,29.279634,0.199],
    [4533,"urn:WaterMeter:MC0203J22010600005","2023-07-26T21:30:00",28.1,29.292397,0.198],
    [4534,"urn:WaterMeter:MC0203J22010600005","2023-07-26T21:45:00",28,29.245111,0.199],
    [4535,"urn:WaterMeter:MC0203J22010600005","2023-07-26T22:00:00",27.899,29.263344,0.196],
    [4536,"urn:WaterMeter:MC0203J22010600005","2023-07-26T22:15:00",27.799,29.242008,0.195],
    [4537,"urn:WaterMeter:MC0203J22010600005","2023-07-26T22:30:00",27.7,29.252094,0.193],
    [4538,"urn:WaterMeter:MC0203J22010600005","2023-07-26T22:45:00",27.7,29.238905,0.193],
    [4539,"urn:WaterMeter:MC0203J22010600005","2023-07-26T23:00:00",27.6,29.23654,0.204],
    [4540,"urn:WaterMeter:MC0203J22010600005","2023-07-26T23:15:00",27.5,29.21792,0.207],
    [4541,"urn:WaterMeter:MC0203J22010600005","2023-07-26T23:30:00",27.399,29.202444,0.198],
    [4542,"urn:WaterMeter:MC0203J22010600005","2023-07-26T23:45:00",27.399,29.192358,0.191],
    [4543,"urn:WaterMeter:MC0203J22010600005","2023-07-27T00:00:00",27.299,29.203995,0.189],
    [4544,"urn:WaterMeter:MC0203J22010600005","2023-07-27T00:15:00",27.299,29.200115,0.213],
    [4545,"urn:WaterMeter:MC0203J22010600005","2023-07-27T00:30:00",27.2,29.183435,0.191],
    [4546,"urn:WaterMeter:MC0203J22010600005","2023-07-27T00:45:00",27.2,29.174126,0.194],
    [4547,"urn:WaterMeter:MC0203J22010600005","2023-07-27T01:00:00",27.1,29.169044,0.191],
    [4548,"urn:WaterMeter:MC0203J22010600005","2023-07-27T01:15:00",27,29.150852,0.191],
    [4549,"urn:WaterMeter:MC0203J22010600005","2023-07-27T01:30:00",26.899,29.150038,0.196],
    [4550,"urn:WaterMeter:MC0203J22010600005","2023-07-27T01:45:00",26.799,29.144258,0.189],
    [4551,"urn:WaterMeter:MC0203J22010600005","2023-07-27T02:00:00",26.799,29.130255,0.189],
    [4552,"urn:WaterMeter:MC0203J22010600005","2023-07-27T02:15:00",26.7,29.12913,0.19],
    [4553,"urn:WaterMeter:MC0203J22010600005","2023-07-27T02:30:00",26.7,29.139177,0.193],
    [4554,"urn:WaterMeter:MC0203J22010600005","2023-07-27T02:45:00",26.6,29.138401,0.191],
    [4555,"urn:WaterMeter:MC0203J22010600005","2023-07-27T03:00:00",26.5,29.117493,0.203],
    [4556,"urn:WaterMeter:MC0203J22010600005","2023-07-27T03:15:00",26.399,29.113615,0.191],
    [4557,"urn:WaterMeter:MC0203J22010600005","2023-07-27T03:30:00",26.399,29.084133,0.191],
    [4558,"urn:WaterMeter:MC0203J22010600005","2023-07-27T03:45:00",26.299,29.11633,0.189],
    [4559,"urn:WaterMeter:MC0203J22010600005","2023-07-27T04:00:00",26.2,29.099998,0.191],
    [4560,"urn:WaterMeter:MC0203J22010600005","2023-07-27T04:15:00",26.2,29.07366,0.191],
    [4561,"urn:WaterMeter:MC0203J22010600005","2023-07-27T04:30:00",26.2,29.071682,0.19],
    [4562,"urn:WaterMeter:MC0203J22010600005","2023-07-27T04:45:00",26.2,29.051163,0.189],
    [4563,"urn:WaterMeter:MC0203J22010600005","2023-07-27T05:00:00",26.2,29.069393,0.193],
    [4564,"urn:WaterMeter:MC0203J22010600005","2023-07-27T05:15:00",26.2,29.067842,0.188],
    [4565,"urn:WaterMeter:MC0203J22010600005","2023-07-27T05:30:00",26.2,29.249378,0.197],
    [4566,"urn:WaterMeter:MC0203J22010600005","2023-07-27T05:45:00",26.2,29.726885,0.203],
    [4567,"urn:WaterMeter:MC0203J22010600005","2023-07-27T06:00:00",26.2,30.471264,0.21],
    [4568,"urn:WaterMeter:MC0203J22010600005","2023-07-27T06:15:00",26.1,31.103153,0.214],
    [4569,"urn:WaterMeter:MC0203J22010600005","2023-07-27T06:30:00",26.2,31.501139,0.215],
    [4570,"urn:WaterMeter:MC0203J22010600005","2023-07-27T06:45:00",26.2,31.719875,0.221],
    [4571,"urn:WaterMeter:MC0203J22010600005","2023-07-27T07:00:00",26.399,31.899124,0.224],
    [4572,"urn:WaterMeter:MC0203J22010600005","2023-07-27T07:15:00",26.6,32.04226,0.223],
    [4573,"urn:WaterMeter:MC0203J22010600005","2023-07-27T07:30:00",26.799,32.152424,0.223],
    [4574,"urn:WaterMeter:MC0203J22010600005","2023-07-27T07:45:00",27.2,32.21953,0.225],
    [4575,"urn:WaterMeter:MC0203J22010600005","2023-07-27T08:00:00",27.399,32.30603,0.225],
    [4576,"urn:WaterMeter:MC0203J22010600005","2023-07-27T08:15:00",27.7,31.957697,0.219],
    [4577,"urn:WaterMeter:MC0203J22010600005","2023-07-27T08:30:00",27.899,31.65238,0.221],
    [4578,"urn:WaterMeter:MC0203J22010600005","2023-07-27T08:45:00",28,31.498035,0.213],
    [4579,"urn:WaterMeter:MC0203J22010600005","2023-07-27T09:00:00",28.1,31.386707,0.217],
    [4580,"urn:WaterMeter:MC0203J22010600005","2023-07-27T09:15:00",28.299,31.34943,0.209],
    [4581,"urn:WaterMeter:MC0203J22010600005","2023-07-27T09:30:00",28.399,31.294775,0.22],
    [4582,"urn:WaterMeter:MC0203J22010600005","2023-07-27T09:45:00",28.5,31.202843,0.216],
    [4583,"urn:WaterMeter:MC0203J22010600005","2023-07-27T10:00:00",28.899,31.138412,0.206],
    [4584,"urn:WaterMeter:MC0203J22010600005","2023-07-27T10:15:00",29.1,31.044193,0.207],
    [4585,"urn:WaterMeter:MC0203J22010600005","2023-07-27T10:30:00",29,30.992563,0.21],
    [4586,"urn:WaterMeter:MC0203J22010600005","2023-07-27T10:45:00",29,30.962694,0.208],
    [4587,"urn:WaterMeter:MC0203J22010600005","2023-07-27T11:00:00",29.5,30.952261,0.203],
    [4588,"urn:WaterMeter:MC0203J22010600005","2023-07-27T11:15:00",30.1,30.85451,0.205],
    [4589,"urn:WaterMeter:MC0203J22010600005","2023-07-27T11:30:00",30.799,30.756758,0.202],
    [4590,"urn:WaterMeter:MC0203J22010600005","2023-07-27T11:45:00",31,30.699738,0.209],
    [4591,"urn:WaterMeter:MC0203J22010600005","2023-07-27T12:00:00",31.399,30.646208,0.203],
    [4592,"urn:WaterMeter:MC0203J22010600005","2023-07-27T12:15:00",31.799,30.556175,0.204],
    [4593,"urn:WaterMeter:MC0203J22010600005","2023-07-27T12:30:00",32.099,30.500744,0.203],
    [4594,"urn:WaterMeter:MC0203J22010600005","2023-07-27T12:45:00",32.099,30.45187,0.202],
    [4595,"urn:WaterMeter:MC0203J22010600005","2023-07-27T13:00:00",32.2,30.380844,0.198],
    [4596,"urn:WaterMeter:MC0203J22010600005","2023-07-27T13:15:00",32.2,30.330845,0.207],
    [4597,"urn:WaterMeter:MC0203J22010600005","2023-07-27T13:30:00",32.2,30.257143,0.195],
    [4598,"urn:WaterMeter:MC0203J22010600005","2023-07-27T13:45:00",32.2,30.216375,0.202],
    [4599,"urn:WaterMeter:MC0203J22010600005","2023-07-27T14:00:00",32.099,30.156677,0.201],
    [4600,"urn:WaterMeter:MC0203J22010600005","2023-07-27T14:15:00",32.099,30.124094,0.206],
    [4601,"urn:WaterMeter:MC0203J22010600005","2023-07-27T14:30:00",31.899,30.078321,0.206],
    [4602,"urn:WaterMeter:MC0203J22010600005","2023-07-27T14:45:00",31.7,30.025566,0.198],
    [4603,"urn:WaterMeter:MC0203J22010600005","2023-07-27T15:00:00",31.6,29.97708,0.198],
    [4604,"urn:WaterMeter:MC0203J22010600005","2023-07-27T15:15:00",31.299,29.954931,0.197],
    [4605,"urn:WaterMeter:MC0203J22010600005","2023-07-27T15:30:00",31.299,29.918507,0.198],
    [4606,"urn:WaterMeter:MC0203J22010600005","2023-07-27T15:45:00",31.299,29.867653,0.209],
    [4607,"urn:WaterMeter:MC0203J22010600005","2023-07-27T16:00:00",31.299,29.848646,0.202],
    [4608,"urn:WaterMeter:MC0203J22010600005","2023-07-27T16:15:00",31.2,29.768389,0.205],
    [4609,"urn:WaterMeter:MC0203J22010600005","2023-07-27T16:30:00",31.1,29.786232,0.197],
    [4610,"urn:WaterMeter:MC0203J22010600005","2023-07-27T16:45:00",31,29.723005,0.203],
    [4611,"urn:WaterMeter:MC0203J22010600005","2023-07-27T17:00:00",31,29.705162,0.206],
    [4612,"urn:WaterMeter:MC0203J22010600005","2023-07-27T17:15:00",30.899,29.674906,0.202],
    [4613,"urn:WaterMeter:MC0203J22010600005","2023-07-27T17:30:00",30.7,29.620987,0.193],
    [4614,"urn:WaterMeter:MC0203J22010600005","2023-07-27T17:45:00",30.6,29.606209,0.196],
    [4615,"urn:WaterMeter:MC0203J22010600005","2023-07-27T18:00:00",30.5,29.574827,0.206],
    [4616,"urn:WaterMeter:MC0203J22010600005","2023-07-27T18:15:00",30.299,29.535261,0.202],
    [4617,"urn:WaterMeter:MC0203J22010600005","2023-07-27T18:30:00",30.1,29.538326,0.197],
    [4618,"urn:WaterMeter:MC0203J22010600005","2023-07-27T18:45:00",29.899,29.480568,0.192],
    [4619,"urn:WaterMeter:MC0203J22010600005","2023-07-27T19:00:00",29.7,29.471258,0.199],
    [4620,"urn:WaterMeter:MC0203J22010600005","2023-07-27T19:15:00",29.5,29.458069,0.203],
    [4621,"urn:WaterMeter:MC0203J22010600005","2023-07-27T19:30:00",29.299,29.439062,0.194],
    [4622,"urn:WaterMeter:MC0203J22010600005","2023-07-27T19:45:00",29.1,29.45997,0.199],
    [4623,"urn:WaterMeter:MC0203J22010600005","2023-07-27T20:00:00",28.899,29.411482,0.196],
    [4624,"urn:WaterMeter:MC0203J22010600005","2023-07-27T20:15:00",28.799,29.458845,0.191],
    [4625,"urn:WaterMeter:MC0203J22010600005","2023-07-27T20:30:00",28.7,29.41928,0.199],
    [4626,"urn:WaterMeter:MC0203J22010600005","2023-07-27T20:45:00",28.6,29.412258,0.199],
    [4627,"urn:WaterMeter:MC0203J22010600005","2023-07-27T21:00:00",28.5,29.418116,0.201],
    [4628,"urn:WaterMeter:MC0203J22010600005","2023-07-27T21:15:00",28.399,29.337433,0.197],
    [4629,"urn:WaterMeter:MC0203J22010600005","2023-07-27T21:30:00",28.299,29.374283,0.197],
    [4630,"urn:WaterMeter:MC0203J22010600005","2023-07-27T21:45:00",28.2,29.384369,0.194],
    [4631,"urn:WaterMeter:MC0203J22010600005","2023-07-27T22:00:00",28.1,29.357603,0.213],
    [4632,"urn:WaterMeter:MC0203J22010600005","2023-07-27T22:15:00",28,29.370365,0.203],
    [4633,"urn:WaterMeter:MC0203J22010600005","2023-07-27T22:30:00",28,29.360706,0.201],
    [4634,"urn:WaterMeter:MC0203J22010600005","2023-07-27T22:45:00",27.799,29.314508,0.197],
    [4635,"urn:WaterMeter:MC0203J22010600005","2023-07-27T23:00:00",27.7,29.34713,0.195],
    [4636,"urn:WaterMeter:MC0203J22010600005","2023-07-27T23:15:00",27.6,29.322304,0.198],
    [4637,"urn:WaterMeter:MC0203J22010600005","2023-07-27T23:30:00",27.5,29.346354,0.198],
    [4638,"urn:WaterMeter:MC0203J22010600005","2023-07-27T23:45:00",27.399,29.322693,0.198],
    [4639,"urn:WaterMeter:MC0203J22010600005","2023-07-28T00:00:00",27.299,29.32343,0.193],
    [4640,"urn:WaterMeter:MC0203J22010600005","2023-07-28T00:15:00",27.2,29.314508,0.192],
    [4641,"urn:WaterMeter:MC0203J22010600005","2023-07-28T00:30:00",27.1,29.292786,0.198],
    [4642,"urn:WaterMeter:MC0203J22010600005","2023-07-28T00:45:00",27,29.310667,0.195],
    [4643,"urn:WaterMeter:MC0203J22010600005","2023-07-28T01:00:00",26.899,29.30252,0.203],
    [4644,"urn:WaterMeter:MC0203J22010600005","2023-07-28T01:15:00",26.799,29.285803,0.196],
    [4645,"urn:WaterMeter:MC0203J22010600005","2023-07-28T01:30:00",26.7,29.298643,0.197],
    [4646,"urn:WaterMeter:MC0203J22010600005","2023-07-28T01:45:00",26.6,29.283127,0.194],
    [4647,"urn:WaterMeter:MC0203J22010600005","2023-07-28T02:00:00",26.5,29.26218,0.2],
    [4648,"urn:WaterMeter:MC0203J22010600005","2023-07-28T02:15:00",26.399,29.267223,0.195],
    [4649,"urn:WaterMeter:MC0203J22010600005","2023-07-28T02:30:00",26.299,29.285416,0.204],
    [4650,"urn:WaterMeter:MC0203J22010600005","2023-07-28T02:45:00",26.2,29.249378,0.196],
    [4651,"urn:WaterMeter:MC0203J22010600005","2023-07-28T03:00:00",26.1,29.299417,0.207],
    [4652,"urn:WaterMeter:MC0203J22010600005","2023-07-28T03:15:00",26,29.21408,0.197],
    [4653,"urn:WaterMeter:MC0203J22010600005","2023-07-28T03:30:00",25.899,29.282738,0.199],
    [4654,"urn:WaterMeter:MC0203J22010600005","2023-07-28T03:45:00",25.799,29.233864,0.207],
    [4655,"urn:WaterMeter:MC0203J22010600005","2023-07-28T04:00:00",25.7,29.2455,0.192],
    [4656,"urn:WaterMeter:MC0203J22010600005","2023-07-28T04:15:00",25.7,29.21408,0.202],
    [4657,"urn:WaterMeter:MC0203J22010600005","2023-07-28T04:30:00",25.6,29.228432,0.2],
    [4658,"urn:WaterMeter:MC0203J22010600005","2023-07-28T04:45:00",25.5,29.191195,0.202],
    [4659,"urn:WaterMeter:MC0203J22010600005","2023-07-28T05:00:00",25.399,29.196974,0.195],
    [4660,"urn:WaterMeter:MC0203J22010600005","2023-07-28T05:15:00",25.299,29.223001,0.198],
    [4661,"urn:WaterMeter:MC0203J22010600005","2023-07-28T05:30:00",25.1,29.451475,0.201],
    [4662,"urn:WaterMeter:MC0203J22010600005","2023-07-28T05:45:00",25.1,30.023201,0.22],
    [4663,"urn:WaterMeter:MC0203J22010600005","2023-07-28T06:00:00",25.299,30.753654,0.212],
    [4664,"urn:WaterMeter:MC0203J22010600005","2023-07-28T06:15:00",25.399,31.228058,0.219],
    [4665,"urn:WaterMeter:MC0203J22010600005","2023-07-28T06:30:00",25.399,31.601566,0.222],
    [4666,"urn:WaterMeter:MC0203J22010600005","2023-07-28T06:45:00",25.6,31.84633,0.222],
    [4667,"urn:WaterMeter:MC0203J22010600005","2023-07-28T07:00:00",25.799,31.99571,0.219],
    [4668,"urn:WaterMeter:MC0203J22010600005","2023-07-28T07:15:00",26,32.11247,0.224],
    [4669,"urn:WaterMeter:MC0203J22010600005","2023-07-28T07:30:00",26.2,32.214836,0.223],
    [4670,"urn:WaterMeter:MC0203J22010600005","2023-07-28T07:45:00",26.5,32.24901,0.219],
    [4671,"urn:WaterMeter:MC0203J22010600005","2023-07-28T08:00:00",26.799,32.34905,0.232],
    [4672,"urn:WaterMeter:MC0203J22010600005","2023-07-28T08:15:00",27.1,31.950676,0.221],
    [4673,"urn:WaterMeter:MC0203J22010600005","2023-07-28T08:30:00",27.5,31.708666,0.214],
    [4674,"urn:WaterMeter:MC0203J22010600005","2023-07-28T08:45:00",28.1,31.560488,0.216],
    [4675,"urn:WaterMeter:MC0203J22010600005","2023-07-28T09:00:00",28.799,31.42162,0.21],
    [4676,"urn:WaterMeter:MC0203J22010600005","2023-07-28T09:15:00",29.2,31.372356,0.218],
    [4677,"urn:WaterMeter:MC0203J22010600005","2023-07-28T09:30:00",29.799,31.29943,0.22],
    [4678,"urn:WaterMeter:MC0203J22010600005","2023-07-28T09:45:00",30.1,31.182673,0.214],
    [4679,"urn:WaterMeter:MC0203J22010600005","2023-07-28T10:00:00",30.399,31.119446,0.208],
    [4680,"urn:WaterMeter:MC0203J22010600005","2023-07-28T10:15:00",30.7,31.039886,0.21],
    [4681,"urn:WaterMeter:MC0203J22010600005","2023-07-28T10:30:00",30.799,30.971655,0.206],
    [4682,"urn:WaterMeter:MC0203J22010600005","2023-07-28T10:45:00",31.1,30.941748,0.205],
    [4683,"urn:WaterMeter:MC0203J22010600005","2023-07-28T11:00:00",31.5,30.85257,0.205],
    [4684,"urn:WaterMeter:MC0203J22010600005","2023-07-28T11:15:00",31.899,30.776154,0.216],
    [4685,"urn:WaterMeter:MC0203J22010600005","2023-07-28T11:30:00",32.299,30.735037,0.202],
    [4686,"urn:WaterMeter:MC0203J22010600005","2023-07-28T11:45:00",32.7,30.654741,0.208],
    [4687,"urn:WaterMeter:MC0203J22010600005","2023-07-28T12:00:00",33,30.593025,0.203],
    [4688,"urn:WaterMeter:MC0203J22010600005","2023-07-28T12:15:00",33.2,30.49221,0.201],
    [4689,"urn:WaterMeter:MC0203J22010600005","2023-07-28T12:30:00",33.299,30.42041,0.209],
    [4690,"urn:WaterMeter:MC0203J22010600005","2023-07-28T12:45:00",33.4,30.34283,0.205],
    [4691,"urn:WaterMeter:MC0203J22010600005","2023-07-28T13:00:00",33.4,30.281193,0.207],
    [4692,"urn:WaterMeter:MC0203J22010600005","2023-07-28T13:15:00",33.4,30.235382,0.21],
    [4693,"urn:WaterMeter:MC0203J22010600005","2023-07-28T13:30:00",33.4,30.166723,0.208],
    [4694,"urn:WaterMeter:MC0203J22010600005","2023-07-28T13:45:00",33.299,30.10625,0.21],
    [4695,"urn:WaterMeter:MC0203J22010600005","2023-07-28T14:00:00",33.299,30.063192,0.197],
    [4696,"urn:WaterMeter:MC0203J22010600005","2023-07-28T14:15:00",33.299,30.006948,0.198],
    [4697,"urn:WaterMeter:MC0203J22010600005","2023-07-28T14:30:00",33.099,29.963116,0.21],
    [4698,"urn:WaterMeter:MC0203J22010600005","2023-07-28T14:45:00",32.9,29.909197,0.2],
    [4699,"urn:WaterMeter:MC0203J22010600005","2023-07-28T15:00:00",32.799,29.86649,0.196],
    [4700,"urn:WaterMeter:MC0203J22010600005","2023-07-28T15:15:00",32.7,29.833168,0.197],
    [4701,"urn:WaterMeter:MC0203J22010600005","2023-07-28T15:30:00",32.5,29.78891,0.201],
    [4702,"urn:WaterMeter:MC0203J22010600005","2023-07-28T15:45:00",32.4,29.742788,0.201],
    [4703,"urn:WaterMeter:MC0203J22010600005","2023-07-28T16:00:00",32.299,29.68499,0.197],
    [4704,"urn:WaterMeter:MC0203J22010600005","2023-07-28T16:15:00",32.2,29.681849,0.194],
    [4705,"urn:WaterMeter:MC0203J22010600005","2023-07-28T16:30:00",32.099,29.627193,0.2],
    [4706,"urn:WaterMeter:MC0203J22010600005","2023-07-28T16:45:00",31.899,29.582584,0.197],
    [4707,"urn:WaterMeter:MC0203J22010600005","2023-07-28T17:00:00",31.799,29.534874,0.199],
    [4708,"urn:WaterMeter:MC0203J22010600005","2023-07-28T17:15:00",31.6,29.510048,0.197],
    [4709,"urn:WaterMeter:MC0203J22010600005","2023-07-28T17:30:00",31.5,29.471645,0.195],
    [4710,"urn:WaterMeter:MC0203J22010600005","2023-07-28T17:45:00",31.399,29.449108,0.201],
    [4711,"urn:WaterMeter:MC0203J22010600005","2023-07-28T18:00:00",31.2,29.396782,0.197],
    [4712,"urn:WaterMeter:MC0203J22010600005","2023-07-28T18:15:00",31.1,29.38592,0.199],
    [4713,"urn:WaterMeter:MC0203J22010600005","2023-07-28T18:30:00",30.799,29.37855,0.192],
    [4714,"urn:WaterMeter:MC0203J22010600005","2023-07-28T18:45:00",30.6,29.346354,0.2],
    [4715,"urn:WaterMeter:MC0203J22010600005","2023-07-28T19:00:00",30.399,29.34131,0.214],
    [4716,"urn:WaterMeter:MC0203J22010600005","2023-07-28T19:15:00",30.2,29.324593,0.198],
    [4717,"urn:WaterMeter:MC0203J22010600005","2023-07-28T19:30:00",30,29.331575,0.204],
    [4718,"urn:WaterMeter:MC0203J22010600005","2023-07-28T19:45:00",29.799,29.288557,0.194],
    [4719,"urn:WaterMeter:MC0203J22010600005","2023-07-28T20:00:00",29.7,29.289333,0.194],
    [4720,"urn:WaterMeter:MC0203J22010600005","2023-07-28T20:15:00",29.6,29.298643,0.203],
    [4721,"urn:WaterMeter:MC0203J22010600005","2023-07-28T20:30:00",29.399,29.27533,0.197],
    [4722,"urn:WaterMeter:MC0203J22010600005","2023-07-28T20:45:00",29.2,29.262568,0.2],
    [4723,"urn:WaterMeter:MC0203J22010600005","2023-07-28T21:00:00",29.1,29.261017,0.199],
    [4724,"urn:WaterMeter:MC0203J22010600005","2023-07-28T21:15:00",29,29.263344,0.199],
    [4725,"urn:WaterMeter:MC0203J22010600005","2023-07-28T21:30:00",28.799,29.28235,0.207],
    [4726,"urn:WaterMeter:MC0203J22010600005","2023-07-28T21:45:00",28.6,29.250154,0.195],
    [4727,"urn:WaterMeter:MC0203J22010600005","2023-07-28T22:00:00",28.5,29.250544,0.209],
    [4728,"urn:WaterMeter:MC0203J22010600005","2023-07-28T22:15:00",28.399,29.22723,0.205],
    [4729,"urn:WaterMeter:MC0203J22010600005","2023-07-28T22:30:00",28.299,29.23654,0.192],
    [4730,"urn:WaterMeter:MC0203J22010600005","2023-07-28T22:45:00",28.1,29.229984,0.199],
    [4731,"urn:WaterMeter:MC0203J22010600005","2023-07-28T23:00:00",28,29.223001,0.196],
    [4732,"urn:WaterMeter:MC0203J22010600005","2023-07-28T23:15:00",27.899,29.242785,0.201],
    [4733,"urn:WaterMeter:MC0203J22010600005","2023-07-28T23:30:00",27.799,29.203218,0.199],
    [4734,"urn:WaterMeter:MC0203J22010600005","2023-07-28T23:45:00",27.6,29.231535,0.192],
    [4735,"urn:WaterMeter:MC0203J22010600005","2023-07-29T00:00:00",27.5,29.210588,0.194],
    [4736,"urn:WaterMeter:MC0203J22010600005","2023-07-29T00:15:00",27.299,29.205547,0.2],
    [4737,"urn:WaterMeter:MC0203J22010600005","2023-07-29T00:30:00",27.2,29.21408,0.196],
    [4738,"urn:WaterMeter:MC0203J22010600005","2023-07-29T00:45:00",27.2,29.185764,0.198],
    [4739,"urn:WaterMeter:MC0203J22010600005","2023-07-29T01:00:00",27.1,29.186928,0.197],
    [4740,"urn:WaterMeter:MC0203J22010600005","2023-07-29T01:15:00",26.899,29.19934,0.195],
    [4741,"urn:WaterMeter:MC0203J22010600005","2023-07-29T01:30:00",26.799,29.202831,0.193],
    [4742,"urn:WaterMeter:MC0203J22010600005","2023-07-29T01:45:00",26.7,29.185764,0.204],
    [4743,"urn:WaterMeter:MC0203J22010600005","2023-07-29T02:00:00",26.7,29.157797,0.196],
    [4744,"urn:WaterMeter:MC0203J22010600005","2023-07-29T02:15:00",26.5,29.203995,0.2],
    [4745,"urn:WaterMeter:MC0203J22010600005","2023-07-29T02:30:00",26.399,29.173351,0.192],
    [4746,"urn:WaterMeter:MC0203J22010600005","2023-07-29T02:45:00",26.299,29.181496,0.194],
    [4747,"urn:WaterMeter:MC0203J22010600005","2023-07-29T03:00:00",26.2,29.172962,0.194],
    [4748,"urn:WaterMeter:MC0203J22010600005","2023-07-29T03:15:00",26.1,29.137625,0.194],
    [4749,"urn:WaterMeter:MC0203J22010600005","2023-07-29T03:30:00",26,29.15896,0.206],
    [4750,"urn:WaterMeter:MC0203J22010600005","2023-07-29T03:45:00",25.899,29.135725,0.196],
    [4751,"urn:WaterMeter:MC0203J22010600005","2023-07-29T04:00:00",25.799,29.16827,0.196],
    [4752,"urn:WaterMeter:MC0203J22010600005","2023-07-29T04:15:00",25.7,29.160938,0.195],
    [4753,"urn:WaterMeter:MC0203J22010600005","2023-07-29T04:30:00",25.6,29.146973,0.192],
    [4754,"urn:WaterMeter:MC0203J22010600005","2023-07-29T04:45:00",25.5,29.134562,0.193],
    [4755,"urn:WaterMeter:MC0203J22010600005","2023-07-29T05:00:00",25.399,29.121334,0.197],
    [4756,"urn:WaterMeter:MC0203J22010600005","2023-07-29T05:15:00",25.299,29.146973,0.198],
    [4757,"urn:WaterMeter:MC0203J22010600005","2023-07-29T05:30:00",25.299,29.132233,0.199],
    [4758,"urn:WaterMeter:MC0203J22010600005","2023-07-29T05:45:00",25.2,29.095383,0.19],
    [4759,"urn:WaterMeter:MC0203J22010600005","2023-07-29T06:00:00",25.2,29.128355,0.197],
    [4760,"urn:WaterMeter:MC0203J22010600005","2023-07-29T06:15:00",25.299,29.111635,0.192],
    [4761,"urn:WaterMeter:MC0203J22010600005","2023-07-29T06:30:00",25.399,29.09034,0.193],
    [4762,"urn:WaterMeter:MC0203J22010600005","2023-07-29T06:45:00",25.5,29.09034,0.192],
    [4763,"urn:WaterMeter:MC0203J22010600005","2023-07-29T07:00:00",25.6,29.04065,0.192],
    [4764,"urn:WaterMeter:MC0203J22010600005","2023-07-29T07:15:00",25.899,29.026724,0.188],
    [4765,"urn:WaterMeter:MC0203J22010600005","2023-07-29T07:30:00",26.1,28.993713,0.196],
    [4766,"urn:WaterMeter:MC0203J22010600005","2023-07-29T07:45:00",26.399,28.964233,0.192],
    [4767,"urn:WaterMeter:MC0203J22010600005","2023-07-29T08:00:00",26.6,28.918112,0.189],
    [4768,"urn:WaterMeter:MC0203J22010600005","2023-07-29T08:15:00",27,28.871952,0.187],
    [4769,"urn:WaterMeter:MC0203J22010600005","2023-07-29T08:30:00",27.399,28.852169,0.194],
    [4770,"urn:WaterMeter:MC0203J22010600005","2023-07-29T08:45:00",28.1,28.76912,0.191],
    [4771,"urn:WaterMeter:MC0203J22010600005","2023-07-29T09:00:00",28.899,28.742743,0.184],
    [4772,"urn:WaterMeter:MC0203J22010600005","2023-07-29T09:15:00",29.5,28.691929,0.183],
    [4773,"urn:WaterMeter:MC0203J22010600005","2023-07-29T09:30:00",30.1,28.64891,0.181],
    [4774,"urn:WaterMeter:MC0203J22010600005","2023-07-29T09:45:00",30.5,28.588398,0.185],
    [4775,"urn:WaterMeter:MC0203J22010600005","2023-07-29T10:00:00",30.799,28.549995,0.185],
    [4776,"urn:WaterMeter:MC0203J22010600005","2023-07-29T10:15:00",31.1,28.474356,0.186],
    [4777,"urn:WaterMeter:MC0203J22010600005","2023-07-29T10:30:00",31.399,28.418497,0.19],
    [4778,"urn:WaterMeter:MC0203J22010600005","2023-07-29T10:45:00",31.799,28.359148,0.179],
    [4779,"urn:WaterMeter:MC0203J22010600005","2023-07-29T11:00:00",32.2,28.307558,0.186],
    [4780,"urn:WaterMeter:MC0203J22010600005","2023-07-29T11:15:00",32.599,28.26101,0.186],
    [4781,"urn:WaterMeter:MC0203J22010600005","2023-07-29T11:30:00",33,28.195456,0.186],
    [4782,"urn:WaterMeter:MC0203J22010600005","2023-07-29T11:45:00",33.4,28.114384,0.181],
    [4783,"urn:WaterMeter:MC0203J22010600005","2023-07-29T12:00:00",33.7,28.041458,0.18],
    [4784,"urn:WaterMeter:MC0203J22010600005","2023-07-29T12:15:00",33.9,27.93207,0.178],
    [4785,"urn:WaterMeter:MC0203J22010600005","2023-07-29T12:30:00",34.099,27.846733,0.178],
    [4786,"urn:WaterMeter:MC0203J22010600005","2023-07-29T12:45:00",34.2,27.796307,0.185],
    [4787,"urn:WaterMeter:MC0203J22010600005","2023-07-29T13:00:00",34.2,27.706701,0.183],
    [4788,"urn:WaterMeter:MC0203J22010600005","2023-07-29T13:15:00",34.099,27.655458,0.18],
    [4789,"urn:WaterMeter:MC0203J22010600005","2023-07-29T13:30:00",34.099,27.600416,0.184],
    [4790,"urn:WaterMeter:MC0203J22010600005","2023-07-29T13:45:00",34,27.541843,0.181],
    [4791,"urn:WaterMeter:MC0203J22010600005","2023-07-29T14:00:00",33.9,27.482067,0.178],
    [4792,"urn:WaterMeter:MC0203J22010600005","2023-07-29T14:15:00",33.799,27.426249,0.177],
    [4793,"urn:WaterMeter:MC0203J22010600005","2023-07-29T14:30:00",33.7,27.355612,0.176],
    [4794,"urn:WaterMeter:MC0203J22010600005","2023-07-29T14:45:00",33.599,27.323456,0.178],
    [4795,"urn:WaterMeter:MC0203J22010600005","2023-07-29T15:00:00",33.599,27.26566,0.183],
    [4796,"urn:WaterMeter:MC0203J22010600005","2023-07-29T15:15:00",33.5,27.207474,0.177],
    [4797,"urn:WaterMeter:MC0203J22010600005","2023-07-29T15:30:00",33.4,27.162437,0.177],
    [4798,"urn:WaterMeter:MC0203J22010600005","2023-07-29T15:45:00",33.299,27.1124,0.177],
    [4799,"urn:WaterMeter:MC0203J22010600005","2023-07-29T16:00:00",33.2,27.06783,0.171],
    [4800,"urn:WaterMeter:MC0203J22010600005","2023-07-29T16:15:00",33,27.007706,0.188],
    [4801,"urn:WaterMeter:MC0203J22010600005","2023-07-29T16:30:00",32.9,26.95724,0.175],
    [4802,"urn:WaterMeter:MC0203J22010600005","2023-07-29T16:45:00",32.7,26.906075,0.179],
    [4803,"urn:WaterMeter:MC0203J22010600005","2023-07-29T17:00:00",32.599,26.856035,0.17],
    [4804,"urn:WaterMeter:MC0203J22010600005","2023-07-29T17:15:00",32.4,26.823027,0.175],
    [4805,"urn:WaterMeter:MC0203J22010600005","2023-07-29T17:30:00",32.299,26.792381,0.178],
    [4806,"urn:WaterMeter:MC0203J22010600005","2023-07-29T17:45:00",32.2,26.745445,0.173],
    [4807,"urn:WaterMeter:MC0203J22010600005","2023-07-29T18:00:00",32,26.665966,0.174],
    [4808,"urn:WaterMeter:MC0203J22010600005","2023-07-29T18:15:00",31.799,26.669067,0.176],
    [4809,"urn:WaterMeter:MC0203J22010600005","2023-07-29T18:30:00",31.6,26.658169,0.175],
    [4810,"urn:WaterMeter:MC0203J22010600005","2023-07-29T18:45:00",31.399,26.630278,0.175],
    [4811,"urn:WaterMeter:MC0203J22010600005","2023-07-29T19:00:00",31.2,26.593428,0.179],
    [4812,"urn:WaterMeter:MC0203J22010600005","2023-07-29T19:15:00",31,26.581404,0.178],
    [4813,"urn:WaterMeter:MC0203J22010600005","2023-07-29T19:30:00",30.799,26.565887,0.178],
    [4814,"urn:WaterMeter:MC0203J22010600005","2023-07-29T19:45:00",30.5,26.575584,0.178],
    [4815,"urn:WaterMeter:MC0203J22010600005","2023-07-29T20:00:00",30.299,26.543388,0.171],
    [4816,"urn:WaterMeter:MC0203J22010600005","2023-07-29T20:15:00",30,26.552698,0.192],
    [4817,"urn:WaterMeter:MC0203J22010600005","2023-07-29T20:30:00",29.799,26.515848,0.177],
    [4818,"urn:WaterMeter:MC0203J22010600005","2023-07-29T20:45:00",29.7,26.526321,0.169],
    [4819,"urn:WaterMeter:MC0203J22010600005","2023-07-29T21:00:00",29.6,26.534855,0.18],
    [4820,"urn:WaterMeter:MC0203J22010600005","2023-07-29T21:15:00",29.5,26.526709,0.174],
    [4821,"urn:WaterMeter:MC0203J22010600005","2023-07-29T21:30:00",29.299,26.525545,0.174],
    [4822,"urn:WaterMeter:MC0203J22010600005","2023-07-29T21:45:00",29.2,26.527098,0.174],
    [4823,"urn:WaterMeter:MC0203J22010600005","2023-07-29T22:00:00",29.1,26.514685,0.17],
    [4824,"urn:WaterMeter:MC0203J22010600005","2023-07-29T22:15:00",28.899,26.497229,0.172],
    [4825,"urn:WaterMeter:MC0203J22010600005","2023-07-29T22:30:00",28.799,26.513521,0.177],
    [4826,"urn:WaterMeter:MC0203J22010600005","2023-07-29T22:45:00",28.7,26.504599,0.183],
    [4827,"urn:WaterMeter:MC0203J22010600005","2023-07-29T23:00:00",28.6,26.47861,0.168],
    [4828,"urn:WaterMeter:MC0203J22010600005","2023-07-29T23:15:00",28.399,26.492535,0.174],
    [4829,"urn:WaterMeter:MC0203J22010600005","2023-07-29T23:30:00",28.299,26.45999,0.168],
    [4830,"urn:WaterMeter:MC0203J22010600005","2023-07-29T23:45:00",28.1,26.513908,0.169],
    [4831,"urn:WaterMeter:MC0203J22010600005","2023-07-30T00:00:00",28,26.472364,0.169],
    [4832,"urn:WaterMeter:MC0203J22010600005","2023-07-30T00:15:00",27.899,26.466972,0.171],
    [4833,"urn:WaterMeter:MC0203J22010600005","2023-07-30T00:30:00",27.799,26.470076,0.17],
    [4834,"urn:WaterMeter:MC0203J22010600005","2023-07-30T00:45:00",27.6,26.505375,0.171],
    [4835,"urn:WaterMeter:MC0203J22010600005","2023-07-30T01:00:00",27.5,26.472752,0.17],
    [4836,"urn:WaterMeter:MC0203J22010600005","2023-07-30T01:15:00",27.299,26.505375,0.17],
    [4837,"urn:WaterMeter:MC0203J22010600005","2023-07-30T01:30:00",27.2,26.486368,0.177],
    [4838,"urn:WaterMeter:MC0203J22010600005","2023-07-30T01:45:00",27,26.504599,0.173],
    [4839,"urn:WaterMeter:MC0203J22010600005","2023-07-30T02:00:00",26.899,26.499168,0.172],
    [4840,"urn:WaterMeter:MC0203J22010600005","2023-07-30T02:15:00",26.799,26.48051,0.176],
    [4841,"urn:WaterMeter:MC0203J22010600005","2023-07-30T02:30:00",26.7,26.465422,0.169],
    [4842,"urn:WaterMeter:MC0203J22010600005","2023-07-30T02:45:00",26.5,26.507315,0.172],
    [4843,"urn:WaterMeter:MC0203J22010600005","2023-07-30T03:00:00",26.399,26.458439,0.167],
    [4844,"urn:WaterMeter:MC0203J22010600005","2023-07-30T03:15:00",26.299,26.49878,0.177],
    [4845,"urn:WaterMeter:MC0203J22010600005","2023-07-30T03:30:00",26.2,26.482838,0.17],
    [4846,"urn:WaterMeter:MC0203J22010600005","2023-07-30T03:45:00",26.1,26.466196,0.172],
    [4847,"urn:WaterMeter:MC0203J22010600005","2023-07-30T04:00:00",25.899,26.481674,0.172],
    [4848,"urn:WaterMeter:MC0203J22010600005","2023-07-30T04:15:00",25.799,26.484428,0.173],
    [4849,"urn:WaterMeter:MC0203J22010600005","2023-07-30T04:30:00",25.6,26.518911,0.177],
    [4850,"urn:WaterMeter:MC0203J22010600005","2023-07-30T04:45:00",25.5,26.498392,0.173],
    [4851,"urn:WaterMeter:MC0203J22010600005","2023-07-30T05:00:00",25.399,26.473915,0.173],
    [4852,"urn:WaterMeter:MC0203J22010600005","2023-07-30T05:15:00",25.299,26.467749,0.17],
    [4853,"urn:WaterMeter:MC0203J22010600005","2023-07-30T05:30:00",25.2,26.481285,0.175],
    [4854,"urn:WaterMeter:MC0203J22010600005","2023-07-30T05:45:00",25.1,26.449516,0.181],
    [4855,"urn:WaterMeter:MC0203J22010600005","2023-07-30T06:00:00",25.2,26.4565,0.17],
    [4856,"urn:WaterMeter:MC0203J22010600005","2023-07-30T06:15:00",25.2,26.472015,0.172],
    [4857,"urn:WaterMeter:MC0203J22010600005","2023-07-30T06:30:00",25.399,26.452969,0.179],
    [4858,"urn:WaterMeter:MC0203J22010600005","2023-07-30T06:45:00",25.5,26.402193,0.169],
    [4859,"urn:WaterMeter:MC0203J22010600005","2023-07-30T07:00:00",25.7,26.415342,0.175],
    [4860,"urn:WaterMeter:MC0203J22010600005","2023-07-30T07:15:00",26.1,26.35487,0.172],
    [4861,"urn:WaterMeter:MC0203J22010600005","2023-07-30T07:30:00",26.299,26.328453,0.166],
    [4862,"urn:WaterMeter:MC0203J22010600005","2023-07-30T07:45:00",26.7,26.31798,0.167],
    [4863,"urn:WaterMeter:MC0203J22010600005","2023-07-30T08:00:00",27.1,26.244318,0.163],
    [4864,"urn:WaterMeter:MC0203J22010600005","2023-07-30T08:15:00",27.6,26.242378,0.16],
    [4865,"urn:WaterMeter:MC0203J22010600005","2023-07-30T08:30:00",28.1,26.174496,0.165],
    [4866,"urn:WaterMeter:MC0203J22010600005","2023-07-30T08:45:00",28.799,26.112392,0.158],
    [4867,"urn:WaterMeter:MC0203J22010600005","2023-07-30T09:00:00",29.7,26.03559,0.159],
    [4868,"urn:WaterMeter:MC0203J22010600005","2023-07-30T09:15:00",30.399,25.958784,0.163],
    [4869,"urn:WaterMeter:MC0203J22010600005","2023-07-30T09:30:00",30.899,25.933609,0.159],
    [4870,"urn:WaterMeter:MC0203J22010600005","2023-07-30T09:45:00",31.299,25.854866,0.163],
    [4871,"urn:WaterMeter:MC0203J22010600005","2023-07-30T10:00:00",31.6,25.794703,0.157],
    [4872,"urn:WaterMeter:MC0203J22010600005","2023-07-30T10:15:00",31.899,25.72682,0.167],
    [4873,"urn:WaterMeter:MC0203J22010600005","2023-07-30T10:30:00",32.2,25.642298,0.155],
    [4874,"urn:WaterMeter:MC0203J22010600005","2023-07-30T10:45:00",32.5,25.5845,0.157],
    [4875,"urn:WaterMeter:MC0203J22010600005","2023-07-30T11:00:00",32.9,25.53485,0.156],
    [4876,"urn:WaterMeter:MC0203J22010600005","2023-07-30T11:15:00",33.299,25.479767,0.153],
    [4877,"urn:WaterMeter:MC0203J22010600005","2023-07-30T11:30:00",33.799,25.406027,0.149],
    [4878,"urn:WaterMeter:MC0203J22010600005","2023-07-30T11:45:00",34.2,25.311806,0.154],
    [4879,"urn:WaterMeter:MC0203J22010600005","2023-07-30T12:00:00",34.5,25.21483,0.153],
    [4880,"urn:WaterMeter:MC0203J22010600005","2023-07-30T12:15:00",34.7,25.127167,0.159],
    [4881,"urn:WaterMeter:MC0203J22010600005","2023-07-30T12:30:00",34.9,25.057693,0.152],
    [4882,"urn:WaterMeter:MC0203J22010600005","2023-07-30T12:45:00",34.9,24.957266,0.153],
    [4883,"urn:WaterMeter:MC0203J22010600005","2023-07-30T13:00:00",34.9,24.866884,0.155],
    [4884,"urn:WaterMeter:MC0203J22010600005","2023-07-30T13:15:00",34.799,24.810251,0.153],
    [4885,"urn:WaterMeter:MC0203J22010600005","2023-07-30T13:30:00",34.7,24.733059,0.158],
    [4886,"urn:WaterMeter:MC0203J22010600005","2023-07-30T13:45:00",34.5,24.688025,0.156],
    [4887,"urn:WaterMeter:MC0203J22010600005","2023-07-30T14:00:00",34.4,24.6132,0.156],
    [4888,"urn:WaterMeter:MC0203J22010600005","2023-07-30T14:15:00",34.2,24.517387,0.156],
    [4889,"urn:WaterMeter:MC0203J22010600005","2023-07-30T14:30:00",34.099,24.488295,0.155],
    [4890,"urn:WaterMeter:MC0203J22010600005","2023-07-30T14:45:00",33.9,24.425415,0.15],
    [4891,"urn:WaterMeter:MC0203J22010600005","2023-07-30T15:00:00",33.799,24.345547,0.15],
    [4892,"urn:WaterMeter:MC0203J22010600005","2023-07-30T15:15:00",33.799,24.288137,0.155],
    [4893,"urn:WaterMeter:MC0203J22010600005","2023-07-30T15:30:00",33.599,24.245857,0.152],
    [4894,"urn:WaterMeter:MC0203J22010600005","2023-07-30T15:45:00",33.599,24.186895,0.149],
    [4895,"urn:WaterMeter:MC0203J22010600005","2023-07-30T16:00:00",33.4,24.100395,0.147],
    [4896,"urn:WaterMeter:MC0203J22010600005","2023-07-30T16:15:00",33.4,24.061993,0.148],
    [4897,"urn:WaterMeter:MC0203J22010600005","2023-07-30T16:30:00",33.299,24.039455,0.163],
    [4898,"urn:WaterMeter:MC0203J22010600005","2023-07-30T16:45:00",33.099,23.950665,0.148],
    [4899,"urn:WaterMeter:MC0203J22010600005","2023-07-30T17:00:00",33,23.906445,0.159],
    [4900,"urn:WaterMeter:MC0203J22010600005","2023-07-30T17:15:00",32.9,23.864124,0.146],
    [4901,"urn:WaterMeter:MC0203J22010600005","2023-07-30T17:30:00",32.799,23.819942,0.146],
    [4902,"urn:WaterMeter:MC0203J22010600005","2023-07-30T17:45:00",32.7,23.761757,0.148],
    [4903,"urn:WaterMeter:MC0203J22010600005","2023-07-30T18:00:00",32.5,23.72836,0.145],
    [4904,"urn:WaterMeter:MC0203J22010600005","2023-07-30T18:15:00",32.299,23.688793,0.148],
    [4905,"urn:WaterMeter:MC0203J22010600005","2023-07-30T18:30:00",32.099,23.656637,0.143],
    [4906,"urn:WaterMeter:MC0203J22010600005","2023-07-30T18:45:00",31.899,23.599615,0.141],
    [4907,"urn:WaterMeter:MC0203J22010600005","2023-07-30T19:00:00",31.799,23.56389,0.15],
    [4908,"urn:WaterMeter:MC0203J22010600005","2023-07-30T19:15:00",31.5,23.573587,0.151],
    [4909,"urn:WaterMeter:MC0203J22010600005","2023-07-30T19:30:00",31.299,23.570522,0.143],
    [4910,"urn:WaterMeter:MC0203J22010600005","2023-07-30T19:45:00",31.2,23.550352,0.147],
    [4911,"urn:WaterMeter:MC0203J22010600005","2023-07-30T20:00:00",31,23.518545,0.143],
    [4912,"urn:WaterMeter:MC0203J22010600005","2023-07-30T20:15:00",30.799,23.558111,0.149],
    [4913,"urn:WaterMeter:MC0203J22010600005","2023-07-30T20:30:00",30.6,23.508846,0.15],
    [4914,"urn:WaterMeter:MC0203J22010600005","2023-07-30T20:45:00",30.5,23.524324,0.151],
    [4915,"urn:WaterMeter:MC0203J22010600005","2023-07-30T21:00:00",30.299,23.483246,0.151],
    [4916,"urn:WaterMeter:MC0203J22010600005","2023-07-30T21:15:00",30.1,23.50458,0.148],
    [4917,"urn:WaterMeter:MC0203J22010600005","2023-07-30T21:30:00",29.899,23.468893,0.144],
    [4918,"urn:WaterMeter:MC0203J22010600005","2023-07-30T21:45:00",29.799,23.479755,0.145],
    [4919,"urn:WaterMeter:MC0203J22010600005","2023-07-30T22:00:00",29.7,23.491392,0.141],
    [4920,"urn:WaterMeter:MC0203J22010600005","2023-07-30T22:15:00",29.5,23.502253,0.148],
    [4921,"urn:WaterMeter:MC0203J22010600005","2023-07-30T22:30:00",29.399,23.497986,0.151],
    [4922,"urn:WaterMeter:MC0203J22010600005","2023-07-30T22:45:00",29.299,23.472383,0.142],
    [4923,"urn:WaterMeter:MC0203J22010600005","2023-07-30T23:00:00",29.2,23.499926,0.146],
    [4924,"urn:WaterMeter:MC0203J22010600005","2023-07-30T23:15:00",29,23.500313,0.144],
    [4925,"urn:WaterMeter:MC0203J22010600005","2023-07-30T23:30:00",28.799,23.461136,0.148],
    [4926,"urn:WaterMeter:MC0203J22010600005","2023-07-30T23:45:00",28.7,23.468893,0.142],
    [4927,"urn:WaterMeter:MC0203J22010600005","2023-07-31T00:00:00",28.5,23.48984,0.145],
    [4928,"urn:WaterMeter:MC0203J22010600005","2023-07-31T00:15:00",28.399,23.490229,0.15],
    [4929,"urn:WaterMeter:MC0203J22010600005","2023-07-31T00:30:00",28.2,23.477001,0.149],
    [4930,"urn:WaterMeter:MC0203J22010600005","2023-07-31T00:45:00",28.1,23.478203,0.144],
    [4931,"urn:WaterMeter:MC0203J22010600005","2023-07-31T01:00:00",27.899,23.521648,0.145],
    [4932,"urn:WaterMeter:MC0203J22010600005","2023-07-31T01:15:00",27.799,23.517382,0.142],
    [4933,"urn:WaterMeter:MC0203J22010600005","2023-07-31T01:30:00",27.7,23.486698,0.141],
    [4934,"urn:WaterMeter:MC0203J22010600005","2023-07-31T01:45:00",27.5,23.475836,0.15],
    [4935,"urn:WaterMeter:MC0203J22010600005","2023-07-31T02:00:00",27.399,23.493681,0.14],
    [4936,"urn:WaterMeter:MC0203J22010600005","2023-07-31T02:15:00",27.2,23.50109,0.141],
    [4937,"urn:WaterMeter:MC0203J22010600005","2023-07-31T02:30:00",27.1,23.493292,0.147],
    [4938,"urn:WaterMeter:MC0203J22010600005","2023-07-31T02:45:00",27,23.532858,0.146],
    [4939,"urn:WaterMeter:MC0203J22010600005","2023-07-31T03:00:00",26.899,23.512339,0.14],
    [4940,"urn:WaterMeter:MC0203J22010600005","2023-07-31T03:15:00",26.799,23.50458,0.142],
    [4941,"urn:WaterMeter:MC0203J22010600005","2023-07-31T03:30:00",26.6,23.47859,0.146],
    [4942,"urn:WaterMeter:MC0203J22010600005","2023-07-31T03:45:00",26.5,23.486311,0.15],
    [4943,"urn:WaterMeter:MC0203J22010600005","2023-07-31T04:00:00",26.399,23.51001,0.146],
    [4944,"urn:WaterMeter:MC0203J22010600005","2023-07-31T04:15:00",26.399,23.492556,0.137],
    [4945,"urn:WaterMeter:MC0203J22010600005","2023-07-31T04:30:00",26.399,23.511175,0.14],
    [4946,"urn:WaterMeter:MC0203J22010600005","2023-07-31T04:45:00",26.299,23.520872,0.142],
    [4947,"urn:WaterMeter:MC0203J22010600005","2023-07-31T05:00:00",26.2,23.49178,0.139],
    [4948,"urn:WaterMeter:MC0203J22010600005","2023-07-31T05:15:00",26.2,23.51195,0.142],
    [4949,"urn:WaterMeter:MC0203J22010600005","2023-07-31T05:30:00",26.2,23.481306,0.146],
    [4950,"urn:WaterMeter:MC0203J22010600005","2023-07-31T05:45:00",26.2,23.473549,0.141],
    [4951,"urn:WaterMeter:MC0203J22010600005","2023-07-31T06:00:00",26.2,23.5251,0.145],
    [4952,"urn:WaterMeter:MC0203J22010600005","2023-07-31T06:15:00",26.299,23.472773,0.149],
    [4953,"urn:WaterMeter:MC0203J22010600005","2023-07-31T06:30:00",26.399,23.459583,0.143],
    [4954,"urn:WaterMeter:MC0203J22010600005","2023-07-31T06:45:00",26.6,23.443293,0.139],
    [4955,"urn:WaterMeter:MC0203J22010600005","2023-07-31T07:00:00",26.7,23.435883,0.14],
    [4956,"urn:WaterMeter:MC0203J22010600005","2023-07-31T07:15:00",27,23.430103,0.141],
    [4957,"urn:WaterMeter:MC0203J22010600005","2023-07-31T07:30:00",27.2,23.37731,0.143],
    [4958,"urn:WaterMeter:MC0203J22010600005","2023-07-31T07:45:00",27.5,23.347094,0.138],
    [4959,"urn:WaterMeter:MC0203J22010600005","2023-07-31T08:00:00",27.899,23.333904,0.143],
    [4960,"urn:WaterMeter:MC0203J22010600005","2023-07-31T08:15:00",28.2,23.272964,0.136],
    [4961,"urn:WaterMeter:MC0203J22010600005","2023-07-31T08:30:00",28.7,23.24426,0.138],
    [4962,"urn:WaterMeter:MC0203J22010600005","2023-07-31T08:45:00",29.399,23.164352,0.141],
    [4963,"urn:WaterMeter:MC0203J22010600005","2023-07-31T09:00:00",30.2,23.134523,0.142],
    [4964,"urn:WaterMeter:MC0203J22010600005","2023-07-31T09:15:00",30.799,23.07789,0.145],
    [4965,"urn:WaterMeter:MC0203J22010600005","2023-07-31T09:30:00",31.2,23.030527,0.141],
    [4966,"urn:WaterMeter:MC0203J22010600005","2023-07-31T09:45:00",31.7,22.960745,0.133],
    [4967,"urn:WaterMeter:MC0203J22010600005","2023-07-31T10:00:00",32,22.923468,0.137],
    [4968,"urn:WaterMeter:MC0203J22010600005","2023-07-31T10:15:00",32.2,22.847866,0.135],
    [4969,"urn:WaterMeter:MC0203J22010600005","2023-07-31T10:30:00",32.5,22.772614,0.133],
    [4970,"urn:WaterMeter:MC0203J22010600005","2023-07-31T10:45:00",32.799,22.778393,0.138],
    [4971,"urn:WaterMeter:MC0203J22010600005","2023-07-31T11:00:00",33.2,22.677189,0.139],
    [4972,"urn:WaterMeter:MC0203J22010600005","2023-07-31T11:15:00",33.7,22.633705,0.131],
    [4973,"urn:WaterMeter:MC0203J22010600005","2023-07-31T11:30:00",34.2,22.560043,0.141],
    [4974,"urn:WaterMeter:MC0203J22010600005","2023-07-31T11:45:00",34.7,22.528624,0.131],
    [4975,"urn:WaterMeter:MC0203J22010600005","2023-07-31T12:00:00",35,22.426954,0.131],
    [4976,"urn:WaterMeter:MC0203J22010600005","2023-07-31T12:15:00",35.299,22.367645,0.131],
    [4977,"urn:WaterMeter:MC0203J22010600005","2023-07-31T12:30:00",35.5,22.311361,0.133],
    [4978,"urn:WaterMeter:MC0203J22010600005","2023-07-31T12:45:00",35.5,22.176373,0.136],
    [4979,"urn:WaterMeter:MC0203J22010600005","2023-07-31T13:00:00",35.599,22.130638,0.141],
    [4980,"urn:WaterMeter:MC0203J22010600005","2023-07-31T13:15:00",35.5,22.04177,0.131],
    [4981,"urn:WaterMeter:MC0203J22010600005","2023-07-31T13:30:00",35.4,21.950264,0.128],
    [4982,"urn:WaterMeter:MC0203J22010600005","2023-07-31T13:45:00",35.299,21.850574,0.129],
    [4983,"urn:WaterMeter:MC0203J22010600005","2023-07-31T14:00:00",35.2,21.776485,0.13],
    [4984,"urn:WaterMeter:MC0203J22010600005","2023-07-31T14:15:00",35.099,21.671713,0.129],
    [4985,"urn:WaterMeter:MC0203J22010600005","2023-07-31T14:30:00",35.099,21.59999,0.13],
    [4986,"urn:WaterMeter:MC0203J22010600005","2023-07-31T14:45:00",35,21.54681,0.127],
    [4987,"urn:WaterMeter:MC0203J22010600005","2023-07-31T15:00:00",34.9,21.450611,0.125],
    [4988,"urn:WaterMeter:MC0203J22010600005","2023-07-31T15:15:00",34.7,21.385483,0.125],
    [4989,"urn:WaterMeter:MC0203J22010600005","2023-07-31T15:30:00",34.599,21.340836,0.135],
    [4990,"urn:WaterMeter:MC0203J22010600005","2023-07-31T15:45:00",34.5,21.283426,0.129],
    [4991,"urn:WaterMeter:MC0203J22010600005","2023-07-31T16:00:00",34.4,21.212868,0.128],
    [4992,"urn:WaterMeter:MC0203J22010600005","2023-07-31T16:15:00",34.299,21.137226,0.128],
    [4993,"urn:WaterMeter:MC0203J22010600005","2023-07-31T16:30:00",34.099,21.076326,0.13],
    [4994,"urn:WaterMeter:MC0203J22010600005","2023-07-31T16:45:00",34,21.01465,0.124],
    [4995,"urn:WaterMeter:MC0203J22010600005","2023-07-31T17:00:00",33.799,20.978575,0.127],
    [4996,"urn:WaterMeter:MC0203J22010600005","2023-07-31T17:15:00",33.7,20.912632,0.127],
    [4997,"urn:WaterMeter:MC0203J22010600005","2023-07-31T17:30:00",33.599,20.847815,0.125],
    [4998,"urn:WaterMeter:MC0203J22010600005","2023-07-31T17:45:00",33.5,20.816782,0.125],
    [4999,"urn:WaterMeter:MC0203J22010600005","2023-07-31T18:00:00",33.299,20.77648,0.122],
    [5000,"urn:WaterMeter:MC0203J22010600005","2023-07-31T18:15:00",33.2,20.736914,0.127],
    [5001,"urn:WaterMeter:MC0203J22010600005","2023-07-31T18:30:00",33,20.70433,0.127],
    [5002,"urn:WaterMeter:MC0203J22010600005","2023-07-31T18:45:00",32.799,20.661623,0.128],
    [5003,"urn:WaterMeter:MC0203J22010600005","2023-07-31T19:00:00",32.5,20.669031,0.124],
    [5004,"urn:WaterMeter:MC0203J22010600005","2023-07-31T19:15:00",32.4,20.672134,0.126],
    [5005,"urn:WaterMeter:MC0203J22010600005","2023-07-31T19:30:00",32.099,20.64886,0.124],
    [5006,"urn:WaterMeter:MC0203J22010600005","2023-07-31T19:45:00",31.899,20.618605,0.123],
    [5007,"urn:WaterMeter:MC0203J22010600005","2023-07-31T20:00:00",31.7,20.615074,0.129],
    [5008,"urn:WaterMeter:MC0203J22010600005","2023-07-31T20:15:00",31.5,20.610071,0.128],
    [5009,"urn:WaterMeter:MC0203J22010600005","2023-07-31T20:30:00",31.299,20.584042,0.122],
    [5010,"urn:WaterMeter:MC0203J22010600005","2023-07-31T20:45:00",31.2,20.588736,0.122],
    [5011,"urn:WaterMeter:MC0203J22010600005","2023-07-31T21:00:00",31.1,20.584042,0.128],
    [5012,"urn:WaterMeter:MC0203J22010600005","2023-07-31T21:15:00",30.899,20.55654,0.126],
    [5013,"urn:WaterMeter:MC0203J22010600005","2023-07-31T21:30:00",30.799,20.55654,0.122],
    [5014,"urn:WaterMeter:MC0203J22010600005","2023-07-31T21:45:00",30.7,20.532879,0.12],
    [5015,"urn:WaterMeter:MC0203J22010600005","2023-07-31T22:00:00",30.5,20.548744,0.13],
    [5016,"urn:WaterMeter:MC0203J22010600005","2023-07-31T22:15:00",30.399,20.537146,0.12],
    [5017,"urn:WaterMeter:MC0203J22010600005","2023-07-31T22:30:00",30.2,20.572832,0.125],
    [5018,"urn:WaterMeter:MC0203J22010600005","2023-07-31T22:45:00",30,20.572832,0.122],
    [5019,"urn:WaterMeter:MC0203J22010600005","2023-07-31T23:00:00",29.799,20.556152,0.123],
    [5020,"urn:WaterMeter:MC0203J22010600005","2023-07-31T23:15:00",29.7,20.572832,0.126],
    [5021,"urn:WaterMeter:MC0203J22010600005","2023-07-31T23:30:00",29.6,20.535206,0.129],
    [5022,"urn:WaterMeter:MC0203J22010600005","2023-07-31T23:45:00",29.399,20.540249,0.132],
    [5023,"urn:WaterMeter:MC0203J22010600005","2023-08-01T00:00:00",29.299,20.537146,0.118],
    [5024,"urn:WaterMeter:MC0203J22010600005","2023-08-01T00:15:00",29.1,20.549559,0.125],
    [5025,"urn:WaterMeter:MC0203J22010600005","2023-08-01T00:30:00",29,20.51426,0.131],
    [5026,"urn:WaterMeter:MC0203J22010600005","2023-08-01T00:45:00",28.799,20.537146,0.127],
    [5027,"urn:WaterMeter:MC0203J22010600005","2023-08-01T01:00:00",28.7,20.592226,0.123],
    [5028,"urn:WaterMeter:MC0203J22010600005","2023-08-01T01:15:00",28.5,20.50301,0.125],
    [5029,"urn:WaterMeter:MC0203J22010600005","2023-08-01T01:30:00",28.299,20.53986,0.12],
    [5030,"urn:WaterMeter:MC0203J22010600005","2023-08-01T01:45:00",28.2,20.572056,0.125],
    [5031,"urn:WaterMeter:MC0203J22010600005","2023-08-01T02:00:00",28.1,20.526632,0.121],
    [5032,"urn:WaterMeter:MC0203J22010600005","2023-08-01T02:15:00",27.899,20.56197,0.129],
    [5033,"urn:WaterMeter:MC0203J22010600005","2023-08-01T02:30:00",27.799,20.587534,0.125],
    [5034,"urn:WaterMeter:MC0203J22010600005","2023-08-01T02:45:00",27.7,20.587145,0.124],
    [5035,"urn:WaterMeter:MC0203J22010600005","2023-08-01T03:00:00",27.5,20.585594,0.122],
    [5036,"urn:WaterMeter:MC0203J22010600005","2023-08-01T03:15:00",27.399,20.585205,0.124],
    [5037,"urn:WaterMeter:MC0203J22010600005","2023-08-01T03:30:00",27.299,20.57322,0.118],
    [5038,"urn:WaterMeter:MC0203J22010600005","2023-08-01T03:45:00",27.1,20.574383,0.122],
    [5039,"urn:WaterMeter:MC0203J22010600005","2023-08-01T04:00:00",26.899,20.593779,0.121],
    [5040,"urn:WaterMeter:MC0203J22010600005","2023-08-01T04:15:00",26.799,20.58443,0.122],
    [5041,"urn:WaterMeter:MC0203J22010600005","2023-08-01T04:30:00",26.6,20.597658,0.121],
    [5042,"urn:WaterMeter:MC0203J22010600005","2023-08-01T04:45:00",26.5,20.559256,0.122],
    [5043,"urn:WaterMeter:MC0203J22010600005","2023-08-01T05:00:00",26.299,20.600761,0.126],
    [5044,"urn:WaterMeter:MC0203J22010600005","2023-08-01T05:15:00",26.299,20.554989,0.122],
    [5045,"urn:WaterMeter:MC0203J22010600005","2023-08-01T05:30:00",26.2,20.605764,0.12],
    [5046,"urn:WaterMeter:MC0203J22010600005","2023-08-01T05:45:00",26.1,20.639551,0.125],
    [5047,"urn:WaterMeter:MC0203J22010600005","2023-08-01T06:00:00",26.1,20.6027,0.124],
    [5048,"urn:WaterMeter:MC0203J22010600005","2023-08-01T06:15:00",26.1,20.596067,0.116],
    [5049,"urn:WaterMeter:MC0203J22010600005","2023-08-01T06:30:00",26.2,20.591063,0.115],
    [5050,"urn:WaterMeter:MC0203J22010600005","2023-08-01T06:45:00",26.2,20.798939,0.126],
    [5051,"urn:WaterMeter:MC0203J22010600005","2023-08-01T07:00:00",26.5,21.759768,0.142],
    [5052,"urn:WaterMeter:MC0203J22010600005","2023-08-01T07:15:00",26.799,23.962263,0.164],
    [5053,"urn:WaterMeter:MC0203J22010600005","2023-08-01T07:30:00",27.1,26.004208,0.173],
    [5054,"urn:WaterMeter:MC0203J22010600005","2023-08-01T07:45:00",27.399,27.548786,0.189],
    [5055,"urn:WaterMeter:MC0203J22010600005","2023-08-01T08:00:00",27.7,28.764503,0.193],
    [5056,"urn:WaterMeter:MC0203J22010600005","2023-08-01T08:15:00",28.1,29.409931,0.193],
    [5057,"urn:WaterMeter:MC0203J22010600005","2023-08-01T08:30:00",28.7,29.609737,0.196],
    [5058,"urn:WaterMeter:MC0203J22010600005","2023-08-01T08:45:00",29.5,29.673702,0.195],
    [5059,"urn:WaterMeter:MC0203J22010600005","2023-08-01T09:00:00",30.299,29.656673,0.197],
    [5060,"urn:WaterMeter:MC0203J22010600005","2023-08-01T09:15:00",31,29.644999,0.189],
    [5061,"urn:WaterMeter:MC0203J22010600005","2023-08-01T09:30:00",31.299,29.615519,0.191],
    [5062,"urn:WaterMeter:MC0203J22010600005","2023-08-01T09:45:00",31.7,29.570948,0.192],
    [5063,"urn:WaterMeter:MC0203J22010600005","2023-08-01T10:00:00",32,29.54686,0.188],
    [5064,"urn:WaterMeter:MC0203J22010600005","2023-08-01T10:15:00",32.4,29.456905,0.188],
    [5065,"urn:WaterMeter:MC0203J22010600005","2023-08-01T10:30:00",32.799,29.401785,0.193],
    [5066,"urn:WaterMeter:MC0203J22010600005","2023-08-01T10:45:00",33.099,29.389023,0.193],
    [5067,"urn:WaterMeter:MC0203J22010600005","2023-08-01T11:00:00",33.5,29.281187,0.188],
    [5068,"urn:WaterMeter:MC0203J22010600005","2023-08-01T11:15:00",33.9,29.271877,0.193],
    [5069,"urn:WaterMeter:MC0203J22010600005","2023-08-01T11:30:00",34.4,29.2346,0.197],
    [5070,"urn:WaterMeter:MC0203J22010600005","2023-08-01T11:45:00",34.799,29.149261,0.183],
    [5071,"urn:WaterMeter:MC0203J22010600005","2023-08-01T12:00:00",35,29.074049,0.191],
    [5072,"urn:WaterMeter:MC0203J22010600005","2023-08-01T12:15:00",35.2,28.963846,0.196],
    [5073,"urn:WaterMeter:MC0203J22010600005","2023-08-01T12:30:00",35.4,28.899881,0.185],
    [5074,"urn:WaterMeter:MC0203J22010600005","2023-08-01T12:45:00",35.5,28.825016,0.181],
    [5075,"urn:WaterMeter:MC0203J22010600005","2023-08-01T13:00:00",35.5,28.758686,0.182],
    [5076,"urn:WaterMeter:MC0203J22010600005","2023-08-01T13:15:00",35.4,28.703566,0.195],
    [5077,"urn:WaterMeter:MC0203J22010600005","2023-08-01T13:30:00",35.299,28.618265,0.182],
    [5078,"urn:WaterMeter:MC0203J22010600005","2023-08-01T13:45:00",35.2,28.582191,0.179],
    [5079,"urn:WaterMeter:MC0203J22010600005","2023-08-01T14:00:00",35.099,28.529785,0.182],
    [5080,"urn:WaterMeter:MC0203J22010600005","2023-08-01T14:15:00",35,28.478582,0.186],
    [5081,"urn:WaterMeter:MC0203J22010600005","2023-08-01T14:30:00",34.9,28.42703,0.195],
    [5082,"urn:WaterMeter:MC0203J22010600005","2023-08-01T14:45:00",34.7,28.369621,0.195],
    [5083,"urn:WaterMeter:MC0203J22010600005","2023-08-01T15:00:00",34.7,28.290102,0.179],
    [5084,"urn:WaterMeter:MC0203J22010600005","2023-08-01T15:15:00",34.599,28.238861,0.19],
    [5085,"urn:WaterMeter:MC0203J22010600005","2023-08-01T15:30:00",34.4,28.189209,0.202],
    [5086,"urn:WaterMeter:MC0203J22010600005","2023-08-01T15:45:00",34.299,28.128696,0.182],
    [5087,"urn:WaterMeter:MC0203J22010600005","2023-08-01T16:00:00",34.099,28.08723,0.177],
    [5088,"urn:WaterMeter:MC0203J22010600005","2023-08-01T16:15:00",33.9,28.030209,0.191],
    [5089,"urn:WaterMeter:MC0203J22010600005","2023-08-01T16:30:00",33.7,27.965042,0.184],
    [5090,"urn:WaterMeter:MC0203J22010600005","2023-08-01T16:45:00",33.599,27.907982,0.185],
    [5091,"urn:WaterMeter:MC0203J22010600005","2023-08-01T17:00:00",33.4,27.873886,0.181],
    [5092,"urn:WaterMeter:MC0203J22010600005","2023-08-01T17:15:00",33.2,27.825397,0.184],
    [5093,"urn:WaterMeter:MC0203J22010600005","2023-08-01T17:30:00",33,27.816088,0.177],
    [5094,"urn:WaterMeter:MC0203J22010600005","2023-08-01T17:45:00",32.9,27.750921,0.18],
    [5095,"urn:WaterMeter:MC0203J22010600005","2023-08-01T18:00:00",32.7,27.706312,0.177],
    [5096,"urn:WaterMeter:MC0203J22010600005","2023-08-01T18:15:00",32.5,27.663605,0.195],
    [5097,"urn:WaterMeter:MC0203J22010600005","2023-08-01T18:30:00",32.299,27.645761,0.174],
    [5098,"urn:WaterMeter:MC0203J22010600005","2023-08-01T18:45:00",32.099,27.630672,0.182],
    [5099,"urn:WaterMeter:MC0203J22010600005","2023-08-01T19:00:00",31.899,27.618647,0.178],
    [5100,"urn:WaterMeter:MC0203J22010600005","2023-08-01T19:15:00",31.6,27.600416,0.182],
    [5101,"urn:WaterMeter:MC0203J22010600005","2023-08-01T19:30:00",31.399,27.596537,0.18],
    [5102,"urn:WaterMeter:MC0203J22010600005","2023-08-01T19:45:00",31.1,27.558485,0.19],
    [5103,"urn:WaterMeter:MC0203J22010600005","2023-08-01T20:00:00",30.899,27.591106,0.178],
    [5104,"urn:WaterMeter:MC0203J22010600005","2023-08-01T20:15:00",30.7,27.569733,0.176],
    [5105,"urn:WaterMeter:MC0203J22010600005","2023-08-01T20:30:00",30.6,27.57365,0.174],
    [5106,"urn:WaterMeter:MC0203J22010600005","2023-08-01T20:45:00",30.5,27.549562,0.184],
    [5107,"urn:WaterMeter:MC0203J22010600005","2023-08-01T21:00:00",30.299,27.517017,0.18],
    [5108,"urn:WaterMeter:MC0203J22010600005","2023-08-01T21:15:00",30.2,27.51275,0.189],
    [5109,"urn:WaterMeter:MC0203J22010600005","2023-08-01T21:30:00",30,27.531757,0.173],
    [5110,"urn:WaterMeter:MC0203J22010600005","2023-08-01T21:45:00",29.899,27.535637,0.192],
    [5111,"urn:WaterMeter:MC0203J22010600005","2023-08-01T22:00:00",29.799,27.514303,0.18],
    [5112,"urn:WaterMeter:MC0203J22010600005","2023-08-01T22:15:00",29.6,27.499174,0.186],
    [5113,"urn:WaterMeter:MC0203J22010600005","2023-08-01T22:30:00",29.5,27.484047,0.187],
    [5114,"urn:WaterMeter:MC0203J22010600005","2023-08-01T22:45:00",29.399,27.484434,0.183],
    [5115,"urn:WaterMeter:MC0203J22010600005","2023-08-01T23:00:00",29.2,27.456505,0.182],
    [5116,"urn:WaterMeter:MC0203J22010600005","2023-08-01T23:15:00",29.1,27.494131,0.177],
    [5117,"urn:WaterMeter:MC0203J22010600005","2023-08-01T23:30:00",28.899,27.508833,0.177],
    [5118,"urn:WaterMeter:MC0203J22010600005","2023-08-01T23:45:00",28.799,27.454565,0.177],
    [5119,"urn:WaterMeter:MC0203J22010600005","2023-08-02T00:00:00",28.7,27.455341,0.175],
    [5120,"urn:WaterMeter:MC0203J22010600005","2023-08-02T00:15:00",28.5,27.466204,0.177],
    [5121,"urn:WaterMeter:MC0203J22010600005","2023-08-02T00:30:00",28.299,27.468918,0.176],
    [5122,"urn:WaterMeter:MC0203J22010600005","2023-08-02T00:45:00",28.2,27.475124,0.176],
    [5123,"urn:WaterMeter:MC0203J22010600005","2023-08-02T01:00:00",28.1,27.449135,0.187],
    [5124,"urn:WaterMeter:MC0203J22010600005","2023-08-02T01:15:00",27.899,27.458445,0.176],
    [5125,"urn:WaterMeter:MC0203J22010600005","2023-08-02T01:30:00",27.799,27.47237,0.181],
    [5126,"urn:WaterMeter:MC0203J22010600005","2023-08-02T01:45:00",27.7,27.45922,0.179],
    [5127,"urn:WaterMeter:MC0203J22010600005","2023-08-02T02:00:00",27.5,27.427801,0.177],
    [5128,"urn:WaterMeter:MC0203J22010600005","2023-08-02T02:15:00",27.399,27.460772,0.178],
    [5129,"urn:WaterMeter:MC0203J22010600005","2023-08-02T02:30:00",27.2,27.414185,0.186],
    [5130,"urn:WaterMeter:MC0203J22010600005","2023-08-02T02:45:00",27.1,27.452587,0.182],
    [5131,"urn:WaterMeter:MC0203J22010600005","2023-08-02T03:00:00",27,27.439825,0.174],
    [5132,"urn:WaterMeter:MC0203J22010600005","2023-08-02T03:15:00",26.799,27.424698,0.177],
    [5133,"urn:WaterMeter:MC0203J22010600005","2023-08-02T03:30:00",26.7,27.431253,0.179],
    [5134,"urn:WaterMeter:MC0203J22010600005","2023-08-02T03:45:00",26.6,27.446808,0.176],
    [5135,"urn:WaterMeter:MC0203J22010600005","2023-08-02T04:00:00",26.399,27.442114,0.173],
    [5136,"urn:WaterMeter:MC0203J22010600005","2023-08-02T04:15:00",26.299,27.412634,0.178],
    [5137,"urn:WaterMeter:MC0203J22010600005","2023-08-02T04:30:00",26.2,27.45026,0.179],
    [5138,"urn:WaterMeter:MC0203J22010600005","2023-08-02T04:45:00",26.1,27.42427,0.177],
    [5139,"urn:WaterMeter:MC0203J22010600005","2023-08-02T05:00:00",26,27.430128,0.175],
    [5140,"urn:WaterMeter:MC0203J22010600005","2023-08-02T05:15:00",25.899,27.421595,0.184],
    [5141,"urn:WaterMeter:MC0203J22010600005","2023-08-02T05:30:00",26,27.439438,0.175],
    [5142,"urn:WaterMeter:MC0203J22010600005","2023-08-02T05:45:00",26,27.571712,0.178],
    [5143,"urn:WaterMeter:MC0203J22010600005","2023-08-02T06:00:00",26,28.08568,0.201],
    [5144,"urn:WaterMeter:MC0203J22010600005","2023-08-02T06:15:00",26.1,29.143482,0.21],
    [5145,"urn:WaterMeter:MC0203J22010600005","2023-08-02T06:30:00",26.1,29.986776,0.213],
    [5146,"urn:WaterMeter:MC0203J22010600005","2023-08-02T06:45:00",26.2,30.51083,0.208],
    [5147,"urn:WaterMeter:MC0203J22010600005","2023-08-02T07:00:00",26.299,30.836628,0.215],
    [5148,"urn:WaterMeter:MC0203J22010600005","2023-08-02T07:15:00",26.399,31.038336,0.222],
    [5149,"urn:WaterMeter:MC0203J22010600005","2023-08-02T07:30:00",26.6,31.233837,0.216],
    [5150,"urn:WaterMeter:MC0203J22010600005","2023-08-02T07:45:00",26.899,31.417353,0.22],
    [5151,"urn:WaterMeter:MC0203J22010600005","2023-08-02T08:00:00",27.2,31.447569,0.216],
    [5152,"urn:WaterMeter:MC0203J22010600005","2023-08-02T08:15:00",27.5,31.294775,0.216],
    [5153,"urn:WaterMeter:MC0203J22010600005","2023-08-02T08:30:00",28,31.07251,0.212],
    [5154,"urn:WaterMeter:MC0203J22010600005","2023-08-02T08:45:00",28.7,30.967001,0.213],
    [5155,"urn:WaterMeter:MC0203J22010600005","2023-08-02T09:00:00",29.299,30.84869,0.207],
    [5156,"urn:WaterMeter:MC0203J22010600005","2023-08-02T09:15:00",30,30.751717,0.208],
    [5157,"urn:WaterMeter:MC0203J22010600005","2023-08-02T09:30:00",30.6,30.669443,0.21],
    [5158,"urn:WaterMeter:MC0203J22010600005","2023-08-02T09:45:00",31,30.602375,0.21],
    [5159,"urn:WaterMeter:MC0203J22010600005","2023-08-02T10:00:00",31.299,30.506176,0.21],
    [5160,"urn:WaterMeter:MC0203J22010600005","2023-08-02T10:15:00",31.6,30.45342,0.202],
    [5161,"urn:WaterMeter:MC0203J22010600005","2023-08-02T10:30:00",31.899,30.368471,0.216],
    [5162,"urn:WaterMeter:MC0203J22010600005","2023-08-02T10:45:00",32.299,30.290115,0.209],
    [5163,"urn:WaterMeter:MC0203J22010600005","2023-08-02T11:00:00",32.599,30.18965,0.209],
    [5164,"urn:WaterMeter:MC0203J22010600005","2023-08-02T11:15:00",33,30.159393,0.2],
    [5165,"urn:WaterMeter:MC0203J22010600005","2023-08-02T11:30:00",33.5,30.056211,0.2],
    [5166,"urn:WaterMeter:MC0203J22010600005","2023-08-02T11:45:00",34,29.991781,0.199],
    [5167,"urn:WaterMeter:MC0203J22010600005","2023-08-02T12:00:00",34.2,29.934372,0.195],
    [5168,"urn:WaterMeter:MC0203J22010600005","2023-08-02T12:15:00",34.5,29.817226,0.196],
    [5169,"urn:WaterMeter:MC0203J22010600005","2023-08-02T12:30:00",34.7,29.737745,0.2],
    [5170,"urn:WaterMeter:MC0203J22010600005","2023-08-02T12:45:00",34.799,29.656673,0.194],
    [5171,"urn:WaterMeter:MC0203J22010600005","2023-08-02T13:00:00",34.7,29.572887,0.196],
    [5172,"urn:WaterMeter:MC0203J22010600005","2023-08-02T13:15:00",34.7,29.482119,0.2],
    [5173,"urn:WaterMeter:MC0203J22010600005","2023-08-02T13:30:00",34.599,29.43945,0.204],
    [5174,"urn:WaterMeter:MC0203J22010600005","2023-08-02T13:45:00",34.5,29.373468,0.204],
    [5175,"urn:WaterMeter:MC0203J22010600005","2023-08-02T14:00:00",34.4,29.290884,0.201],
    [5176,"urn:WaterMeter:MC0203J22010600005","2023-08-02T14:15:00",34.299,29.232311,0.204],
    [5177,"urn:WaterMeter:MC0203J22010600005","2023-08-02T14:30:00",34.2,29.173351,0.202],
    [5178,"urn:WaterMeter:MC0203J22010600005","2023-08-02T14:45:00",34.099,29.114002,0.192],
    [5179,"urn:WaterMeter:MC0203J22010600005","2023-08-02T15:00:00",34,29.039526,0.197],
    [5180,"urn:WaterMeter:MC0203J22010600005","2023-08-02T15:15:00",33.799,28.977074,0.188],
    [5181,"urn:WaterMeter:MC0203J22010600005","2023-08-02T15:30:00",33.7,28.909191,0.192],
    [5182,"urn:WaterMeter:MC0203J22010600005","2023-08-02T15:45:00",33.5,28.871565,0.195],
    [5183,"urn:WaterMeter:MC0203J22010600005","2023-08-02T16:00:00",33.299,28.797863,0.194],
    [5184,"urn:WaterMeter:MC0203J22010600005","2023-08-02T16:15:00",33.2,28.773813,0.19],
    [5185,"urn:WaterMeter:MC0203J22010600005","2023-08-02T16:30:00",33,28.70981,0.192],
    [5186,"urn:WaterMeter:MC0203J22010600005","2023-08-02T16:45:00",32.9,28.701277,0.19],
    [5187,"urn:WaterMeter:MC0203J22010600005","2023-08-02T17:00:00",32.7,28.627964,0.191],
    [5188,"urn:WaterMeter:MC0203J22010600005","2023-08-02T17:15:00",32.5,28.575558,0.191],
    [5189,"urn:WaterMeter:MC0203J22010600005","2023-08-02T17:30:00",32.4,28.533316,0.191],
    [5190,"urn:WaterMeter:MC0203J22010600005","2023-08-02T17:45:00",32.2,28.485216,0.201],
    [5191,"urn:WaterMeter:MC0203J22010600005","2023-08-02T18:00:00",32.099,28.445263,0.188],
    [5192,"urn:WaterMeter:MC0203J22010600005","2023-08-02T18:15:00",31.899,28.411863,0.192],
    [5193,"urn:WaterMeter:MC0203J22010600005","2023-08-02T18:30:00",31.7,28.360312,0.19],
    [5194,"urn:WaterMeter:MC0203J22010600005","2023-08-02T18:45:00",31.5,28.331608,0.196],
    [5195,"urn:WaterMeter:MC0203J22010600005","2023-08-02T19:00:00",31.299,28.342043,0.192],
    [5196,"urn:WaterMeter:MC0203J22010600005","2023-08-02T19:15:00",31.1,28.315664,0.203],
    [5197,"urn:WaterMeter:MC0203J22010600005","2023-08-02T19:30:00",30.899,28.323034,0.191],
    [5198,"urn:WaterMeter:MC0203J22010600005","2023-08-02T19:45:00",30.7,28.283857,0.188],
    [5199,"urn:WaterMeter:MC0203J22010600005","2023-08-02T20:00:00",30.5,28.287348,0.189],
    [5200,"urn:WaterMeter:MC0203J22010600005","2023-08-02T20:15:00",30.399,28.269545,0.184],
    [5201,"urn:WaterMeter:MC0203J22010600005","2023-08-02T20:30:00",30.2,28.278852,0.187],
    [5202,"urn:WaterMeter:MC0203J22010600005","2023-08-02T20:45:00",30,28.258255,0.196],
    [5203,"urn:WaterMeter:MC0203J22010600005","2023-08-02T21:00:00",29.799,28.2517,0.184],
    [5204,"urn:WaterMeter:MC0203J22010600005","2023-08-02T21:15:00",29.6,28.243166,0.188],
    [5205,"urn:WaterMeter:MC0203J22010600005","2023-08-02T21:30:00",29.5,28.217176,0.196],
    [5206,"urn:WaterMeter:MC0203J22010600005","2023-08-02T21:45:00",29.299,28.209381,0.191],
    [5207,"urn:WaterMeter:MC0203J22010600005","2023-08-02T22:00:00",29.1,28.219465,0.192],
    [5208,"urn:WaterMeter:MC0203J22010600005","2023-08-02T22:15:00",28.899,28.227612,0.186],
    [5209,"urn:WaterMeter:MC0203J22010600005","2023-08-02T22:30:00",28.799,28.23502,0.199],
    [5210,"urn:WaterMeter:MC0203J22010600005","2023-08-02T22:45:00",28.6,28.207829,0.187],
    [5211,"urn:WaterMeter:MC0203J22010600005","2023-08-02T23:00:00",28.399,28.215626,0.188],
    [5212,"urn:WaterMeter:MC0203J22010600005","2023-08-02T23:15:00",28.299,28.210583,0.187],
    [5213,"urn:WaterMeter:MC0203J22010600005","2023-08-02T23:30:00",28.1,28.191576,0.188],
    [5214,"urn:WaterMeter:MC0203J22010600005","2023-08-02T23:45:00",28,28.19429,0.191],
    [5215,"urn:WaterMeter:MC0203J22010600005","2023-08-03T00:00:00",27.899,28.191189,0.189],
    [5216,"urn:WaterMeter:MC0203J22010600005","2023-08-03T00:15:00",27.799,28.187658,0.19],
    [5217,"urn:WaterMeter:MC0203J22010600005","2023-08-03T00:30:00",27.6,28.1652,0.192],
    [5218,"urn:WaterMeter:MC0203J22010600005","2023-08-03T00:45:00",27.5,28.1908,0.191],
    [5219,"urn:WaterMeter:MC0203J22010600005","2023-08-03T01:00:00",27.299,28.20205,0.186],
    [5220,"urn:WaterMeter:MC0203J22010600005","2023-08-03T01:15:00",27.2,28.190372,0.183],
    [5221,"urn:WaterMeter:MC0203J22010600005","2023-08-03T01:30:00",27.1,28.17412,0.189],
    [5222,"urn:WaterMeter:MC0203J22010600005","2023-08-03T01:45:00",27.1,28.161707,0.192],
    [5223,"urn:WaterMeter:MC0203J22010600005","2023-08-03T02:00:00",27.1,28.148869,0.19],
    [5224,"urn:WaterMeter:MC0203J22010600005","2023-08-03T02:15:00",27.1,28.180676,0.188],
    [5225,"urn:WaterMeter:MC0203J22010600005","2023-08-03T02:30:00",27.1,28.13921,0.183],
    [5226,"urn:WaterMeter:MC0203J22010600005","2023-08-03T02:45:00",27.1,28.146967,0.184],
    [5227,"urn:WaterMeter:MC0203J22010600005","2023-08-03T03:00:00",27,28.120203,0.184],
    [5228,"urn:WaterMeter:MC0203J22010600005","2023-08-03T03:15:00",26.899,28.11163,0.187],
    [5229,"urn:WaterMeter:MC0203J22010600005","2023-08-03T03:30:00",26.799,28.082926,0.182],
    [5230,"urn:WaterMeter:MC0203J22010600005","2023-08-03T03:45:00",26.7,28.082926,0.182],
    [5231,"urn:WaterMeter:MC0203J22010600005","2023-08-03T04:00:00",26.6,28.05581,0.187],
    [5232,"urn:WaterMeter:MC0203J22010600005","2023-08-03T04:15:00",26.5,28.051893,0.19],
    [5233,"urn:WaterMeter:MC0203J22010600005","2023-08-03T04:30:00",26.299,28.075981,0.183],
    [5234,"urn:WaterMeter:MC0203J22010600005","2023-08-03T04:45:00",26.1,28.037191,0.184],
    [5235,"urn:WaterMeter:MC0203J22010600005","2023-08-03T05:00:00",26,28.065897,0.183],
    [5236,"urn:WaterMeter:MC0203J22010600005","2023-08-03T05:15:00",26,28.057362,0.189],
    [5237,"urn:WaterMeter:MC0203J22010600005","2023-08-03T05:30:00",26,28.055424,0.194],
    [5238,"urn:WaterMeter:MC0203J22010600005","2023-08-03T05:45:00",25.899,28.335447,0.189],
    [5239,"urn:WaterMeter:MC0203J22010600005","2023-08-03T06:00:00",26,29.090689,0.202],
    [5240,"urn:WaterMeter:MC0203J22010600005","2023-08-03T06:15:00",26.1,30.065521,0.206],
    [5241,"urn:WaterMeter:MC0203J22010600005","2023-08-03T06:30:00",26.2,30.668318,0.214],
    [5242,"urn:WaterMeter:MC0203J22010600005","2023-08-03T06:45:00",26.299,31.01157,0.214],
    [5243,"urn:WaterMeter:MC0203J22010600005","2023-08-03T07:00:00",26.5,31.249392,0.218],
    [5244,"urn:WaterMeter:MC0203J22010600005","2023-08-03T07:15:00",26.799,31.40878,0.223],
    [5245,"urn:WaterMeter:MC0203J22010600005","2023-08-03T07:30:00",27,31.503428,0.224],
    [5246,"urn:WaterMeter:MC0203J22010600005","2023-08-03T07:45:00",27.2,31.612427,0.22],
    [5247,"urn:WaterMeter:MC0203J22010600005","2023-08-03T08:00:00",27.399,31.728409,0.222],
    [5248,"urn:WaterMeter:MC0203J22010600005","2023-08-03T08:15:00",27.7,31.515064,0.22],
    [5249,"urn:WaterMeter:MC0203J22010600005","2023-08-03T08:30:00",28.1,31.270687,0.229],
    [5250,"urn:WaterMeter:MC0203J22010600005","2023-08-03T08:45:00",28.7,31.13531,0.22],
    [5251,"urn:WaterMeter:MC0203J22010600005","2023-08-03T09:00:00",29.399,31.028677,0.217],
    [5252,"urn:WaterMeter:MC0203J22010600005","2023-08-03T09:15:00",30,30.935192,0.209],
    [5253,"urn:WaterMeter:MC0203J22010600005","2023-08-03T09:30:00",30.299,30.814943,0.217],
    [5254,"urn:WaterMeter:MC0203J22010600005","2023-08-03T09:45:00",30.7,30.76021,0.204],
    [5255,"urn:WaterMeter:MC0203J22010600005","2023-08-03T10:00:00",30.899,30.697798,0.207],
    [5256,"urn:WaterMeter:MC0203J22010600005","2023-08-03T10:15:00",31.2,30.605865,0.208],
    [5257,"urn:WaterMeter:MC0203J22010600005","2023-08-03T10:30:00",31.6,30.52906,0.201],
    [5258,"urn:WaterMeter:MC0203J22010600005","2023-08-03T10:45:00",31.899,30.445663,0.212],
    [5259,"urn:WaterMeter:MC0203J22010600005","2023-08-03T11:00:00",32.2,30.370022,0.208],
    [5260,"urn:WaterMeter:MC0203J22010600005","2023-08-03T11:15:00",32.599,30.293179,0.201],
    [5261,"urn:WaterMeter:MC0203J22010600005","2023-08-03T11:30:00",33.099,30.257532,0.206],
    [5262,"urn:WaterMeter:MC0203J22010600005","2023-08-03T11:45:00",33.5,30.176073,0.205],
    [5263,"urn:WaterMeter:MC0203J22010600005","2023-08-03T12:00:00",33.799,30.079098,0.205],
    [5264,"urn:WaterMeter:MC0203J22010600005","2023-08-03T12:15:00",34,29.980183,0.206],
    [5265,"urn:WaterMeter:MC0203J22010600005","2023-08-03T12:30:00",34.2,29.894419,0.205],
    [5266,"urn:WaterMeter:MC0203J22010600005","2023-08-03T12:45:00",34.299,29.817226,0.203],
    [5267,"urn:WaterMeter:MC0203J22010600005","2023-08-03T13:00:00",34.299,29.751284,0.211],
    [5268,"urn:WaterMeter:MC0203J22010600005","2023-08-03T13:15:00",34.4,29.697403,0.213],
    [5269,"urn:WaterMeter:MC0203J22010600005","2023-08-03T13:30:00",34.299,29.601204,0.2],
    [5270,"urn:WaterMeter:MC0203J22010600005","2023-08-03T13:45:00",34.099,29.528627,0.2],
    [5271,"urn:WaterMeter:MC0203J22010600005","2023-08-03T14:00:00",33.799,29.502678,0.195],
    [5272,"urn:WaterMeter:MC0203J22010600005","2023-08-03T14:15:00",33.7,29.413462,0.2],
    [5273,"urn:WaterMeter:MC0203J22010600005","2023-08-03T14:30:00",33.5,29.38239,0.196],
    [5274,"urn:WaterMeter:MC0203J22010600005","2023-08-03T14:45:00",33.299,29.357603,0.207],
    [5275,"urn:WaterMeter:MC0203J22010600005","2023-08-03T15:00:00",33.099,29.323816,0.197],
    [5276,"urn:WaterMeter:MC0203J22010600005","2023-08-03T15:15:00",32.9,29.289333,0.209],
    [5277,"urn:WaterMeter:MC0203J22010600005","2023-08-03T15:30:00",32.7,29.237703,0.197],
    [5278,"urn:WaterMeter:MC0203J22010600005","2023-08-03T15:45:00",32.599,29.243174,0.199],
    [5279,"urn:WaterMeter:MC0203J22010600005","2023-08-03T16:00:00",32.5,29.181496,0.198],
    [5280,"urn:WaterMeter:MC0203J22010600005","2023-08-03T16:15:00",32.5,29.147749,0.193],
    [5281,"urn:WaterMeter:MC0203J22010600005","2023-08-03T16:30:00",32.4,29.133396,0.197],
    [5282,"urn:WaterMeter:MC0203J22010600005","2023-08-03T16:45:00",32.299,29.090689,0.2],
    [5283,"urn:WaterMeter:MC0203J22010600005","2023-08-03T17:00:00",32.299,29.05,0.196],
    [5284,"urn:WaterMeter:MC0203J22010600005","2023-08-03T17:15:00",32.2,29.0038,0.196],
    [5285,"urn:WaterMeter:MC0203J22010600005","2023-08-03T17:30:00",32.099,28.995266,0.204],
    [5286,"urn:WaterMeter:MC0203J22010600005","2023-08-03T17:45:00",32.099,28.945227,0.201],
    [5287,"urn:WaterMeter:MC0203J22010600005","2023-08-03T18:00:00",32,28.915785,0.191],
    [5288,"urn:WaterMeter:MC0203J22010600005","2023-08-03T18:15:00",31.799,28.883978,0.191],
    [5289,"urn:WaterMeter:MC0203J22010600005","2023-08-03T18:30:00",31.6,28.890184,0.194],
    [5290,"urn:WaterMeter:MC0203J22010600005","2023-08-03T18:45:00",31.299,28.854109,0.192],
    [5291,"urn:WaterMeter:MC0203J22010600005","2023-08-03T19:00:00",31,28.831999,0.207],
    [5292,"urn:WaterMeter:MC0203J22010600005","2023-08-03T19:15:00",30.7,28.851395,0.203],
    [5293,"urn:WaterMeter:MC0203J22010600005","2023-08-03T19:30:00",30.5,28.841309,0.187],
    [5294,"urn:WaterMeter:MC0203J22010600005","2023-08-03T19:45:00",30.299,28.852945,0.192],
    [5295,"urn:WaterMeter:MC0203J22010600005","2023-08-03T20:00:00",30.2,28.843636,0.196],
    [5296,"urn:WaterMeter:MC0203J22010600005","2023-08-03T20:15:00",30,28.826918,0.199],
    [5297,"urn:WaterMeter:MC0203J22010600005","2023-08-03T20:30:00",29.799,28.831612,0.195],
    [5298,"urn:WaterMeter:MC0203J22010600005","2023-08-03T20:45:00",29.7,28.850618,0.194],
    [5299,"urn:WaterMeter:MC0203J22010600005","2023-08-03T21:00:00",29.6,28.84286,0.201],
    [5300,"urn:WaterMeter:MC0203J22010600005","2023-08-03T21:15:00",29.399,28.814932,0.195],
    [5301,"urn:WaterMeter:MC0203J22010600005","2023-08-03T21:30:00",29.299,28.805233,0.193],
    [5302,"urn:WaterMeter:MC0203J22010600005","2023-08-03T21:45:00",29.2,28.826918,0.194],
    [5303,"urn:WaterMeter:MC0203J22010600005","2023-08-03T22:00:00",29.2,28.784286,0.194],
    [5304,"urn:WaterMeter:MC0203J22010600005","2023-08-03T22:15:00",29.1,28.793596,0.197],
    [5305,"urn:WaterMeter:MC0203J22010600005","2023-08-03T22:30:00",29,28.790455,0.197],
    [5306,"urn:WaterMeter:MC0203J22010600005","2023-08-03T22:45:00",28.899,28.781921,0.193],
    [5307,"urn:WaterMeter:MC0203J22010600005","2023-08-03T23:00:00",28.799,28.743557,0.206],
    [5308,"urn:WaterMeter:MC0203J22010600005","2023-08-03T23:15:00",28.799,28.776917,0.193],
    [5309,"urn:WaterMeter:MC0203J22010600005","2023-08-03T23:30:00",28.7,28.748987,0.19],
    [5310,"urn:WaterMeter:MC0203J22010600005","2023-08-03T23:45:00",28.7,28.764893,0.197],
    [5311,"urn:WaterMeter:MC0203J22010600005","2023-08-04T00:00:00",28.6,28.786613,0.189],
    [5312,"urn:WaterMeter:MC0203J22010600005","2023-08-04T00:15:00",28.6,28.764503,0.194],
    [5313,"urn:WaterMeter:MC0203J22010600005","2023-08-04T00:30:00",28.5,28.740454,0.196],
    [5314,"urn:WaterMeter:MC0203J22010600005","2023-08-04T00:45:00",28.5,28.769508,0.187],
    [5315,"urn:WaterMeter:MC0203J22010600005","2023-08-04T01:00:00",28.399,28.734247,0.19],
    [5316,"urn:WaterMeter:MC0203J22010600005","2023-08-04T01:15:00",28.399,28.7005,0.189],
    [5317,"urn:WaterMeter:MC0203J22010600005","2023-08-04T01:30:00",28.399,28.723349,0.193],
    [5318,"urn:WaterMeter:MC0203J22010600005","2023-08-04T01:45:00",28.299,28.710197,0.197],
    [5319,"urn:WaterMeter:MC0203J22010600005","2023-08-04T02:00:00",28.299,28.727266,0.196],
    [5320,"urn:WaterMeter:MC0203J22010600005","2023-08-04T02:15:00",28.299,28.688087,0.209],
    [5321,"urn:WaterMeter:MC0203J22010600005","2023-08-04T02:30:00",28.299,28.68033,0.192],
    [5322,"urn:WaterMeter:MC0203J22010600005","2023-08-04T02:45:00",28.2,28.661324,0.19],
    [5323,"urn:WaterMeter:MC0203J22010600005","2023-08-04T03:00:00",28.1,28.680717,0.189],
    [5324,"urn:WaterMeter:MC0203J22010600005","2023-08-04T03:15:00",27.799,28.666754,0.192],
    [5325,"urn:WaterMeter:MC0203J22010600005","2023-08-04T03:30:00",27.7,28.68925,0.192],
    [5326,"urn:WaterMeter:MC0203J22010600005","2023-08-04T03:45:00",27.6,28.68925,0.19],
    [5327,"urn:WaterMeter:MC0203J22010600005","2023-08-04T04:00:00",27.5,28.635683,0.196],
    [5328,"urn:WaterMeter:MC0203J22010600005","2023-08-04T04:15:00",27.399,28.666754,0.198],
    [5329,"urn:WaterMeter:MC0203J22010600005","2023-08-04T04:30:00",27.399,28.653913,0.195],
    [5330,"urn:WaterMeter:MC0203J22010600005","2023-08-04T04:45:00",27.299,28.623308,0.187],
    [5331,"urn:WaterMeter:MC0203J22010600005","2023-08-04T05:00:00",27.299,28.635683,0.188],
    [5332,"urn:WaterMeter:MC0203J22010600005","2023-08-04T05:15:00",27.299,28.628351,0.188],
    [5333,"urn:WaterMeter:MC0203J22010600005","2023-08-04T05:30:00",27.299,28.769896,0.189],
    [5334,"urn:WaterMeter:MC0203J22010600005","2023-08-04T05:45:00",27.2,29.17719,0.201],
    [5335,"urn:WaterMeter:MC0203J22010600005","2023-08-04T06:00:00",27.2,29.952991,0.209],
    [5336,"urn:WaterMeter:MC0203J22010600005","2023-08-04T06:15:00",27.2,30.638838,0.214],
    [5337,"urn:WaterMeter:MC0203J22010600005","2023-08-04T06:30:00",27.2,31.028677,0.232],
    [5338,"urn:WaterMeter:MC0203J22010600005","2023-08-04T06:45:00",27.2,31.281975,0.215],
    [5339,"urn:WaterMeter:MC0203J22010600005","2023-08-04T07:00:00",27.299,31.404163,0.218],
    [5340,"urn:WaterMeter:MC0203J22010600005","2023-08-04T07:15:00",27.299,31.56553,0.224],
    [5341,"urn:WaterMeter:MC0203J22010600005","2023-08-04T07:30:00",27.5,31.670225,0.223],
    [5342,"urn:WaterMeter:MC0203J22010600005","2023-08-04T07:45:00",27.799,31.738882,0.235],
    [5343,"urn:WaterMeter:MC0203J22010600005","2023-08-04T08:00:00",27.899,31.825771,0.223],
    [5344,"urn:WaterMeter:MC0203J22010600005","2023-08-04T08:15:00",28.2,31.560875,0.224],
    [5345,"urn:WaterMeter:MC0203J22010600005","2023-08-04T08:30:00",28.399,31.35296,0.217],
    [5346,"urn:WaterMeter:MC0203J22010600005","2023-08-04T08:45:00",28.7,31.257149,0.223],
    [5347,"urn:WaterMeter:MC0203J22010600005","2023-08-04T09:00:00",29.1,31.155481,0.212],
    [5348,"urn:WaterMeter:MC0203J22010600005","2023-08-04T09:15:00",29.6,31.028677,0.218],
    [5349,"urn:WaterMeter:MC0203J22010600005","2023-08-04T09:30:00",30,30.98015,0.211],
    [5350,"urn:WaterMeter:MC0203J22010600005","2023-08-04T09:45:00",30.399,30.886278,0.21],
    [5351,"urn:WaterMeter:MC0203J22010600005","2023-08-04T10:00:00",30.299,30.83046,0.209],
    [5352,"urn:WaterMeter:MC0203J22010600005","2023-08-04T10:15:00",30.299,30.748573,0.212],
    [5353,"urn:WaterMeter:MC0203J22010600005","2023-08-04T10:30:00",30.5,30.70672,0.206],
    [5354,"urn:WaterMeter:MC0203J22010600005","2023-08-04T10:45:00",30.5,30.634958,0.216],
    [5355,"urn:WaterMeter:MC0203J22010600005","2023-08-04T11:00:00",30.7,30.596169,0.21],
    [5356,"urn:WaterMeter:MC0203J22010600005","2023-08-04T11:15:00",31,30.513933,0.214],
    [5357,"urn:WaterMeter:MC0203J22010600005","2023-08-04T11:30:00",31.2,30.44799,0.211],
    [5358,"urn:WaterMeter:MC0203J22010600005","2023-08-04T11:45:00",31.5,30.393684,0.209],
    [5359,"urn:WaterMeter:MC0203J22010600005","2023-08-04T12:00:00",31.6,30.33352,0.21],
    [5360,"urn:WaterMeter:MC0203J22010600005","2023-08-04T12:15:00",31.6,30.318819,0.206],
    [5361,"urn:WaterMeter:MC0203J22010600005","2023-08-04T12:30:00",31.6,30.238913,0.207],
    [5362,"urn:WaterMeter:MC0203J22010600005","2023-08-04T12:45:00",31.7,30.15435,0.21],
    [5363,"urn:WaterMeter:MC0203J22010600005","2023-08-04T13:00:00",31.899,30.094225,0.199],
    [5364,"urn:WaterMeter:MC0203J22010600005","2023-08-04T13:15:00",32,30.034489,0.206],
    [5365,"urn:WaterMeter:MC0203J22010600005","2023-08-04T13:30:00",31.899,29.95691,0.209],
    [5366,"urn:WaterMeter:MC0203J22010600005","2023-08-04T13:45:00",31.7,29.907646,0.2],
    [5367,"urn:WaterMeter:MC0203J22010600005","2023-08-04T14:00:00",31.5,29.841314,0.203],
    [5368,"urn:WaterMeter:MC0203J22010600005","2023-08-04T14:15:00",31.399,29.807955,0.205],
    [5369,"urn:WaterMeter:MC0203J22010600005","2023-08-04T14:30:00",31.2,29.743565,0.199],
    [5370,"urn:WaterMeter:MC0203J22010600005","2023-08-04T14:45:00",31.1,29.691196,0.209],
    [5371,"urn:WaterMeter:MC0203J22010600005","2023-08-04T15:00:00",31,29.637667,0.199],
    [5372,"urn:WaterMeter:MC0203J22010600005","2023-08-04T15:15:00",30.899,29.60043,0.201],
    [5373,"urn:WaterMeter:MC0203J22010600005","2023-08-04T15:30:00",30.799,29.558924,0.198],
    [5374,"urn:WaterMeter:MC0203J22010600005","2023-08-04T15:45:00",30.6,29.520134,0.2],
    [5375,"urn:WaterMeter:MC0203J22010600005","2023-08-04T16:00:00",30.5,29.460358,0.195],
    [5376,"urn:WaterMeter:MC0203J22010600005","2023-08-04T16:15:00",30.399,29.459581,0.196],
    [5377,"urn:WaterMeter:MC0203J22010600005","2023-08-04T16:30:00",30.299,29.372305,0.2],
    [5378,"urn:WaterMeter:MC0203J22010600005","2023-08-04T16:45:00",30.1,29.3673,0.196],
    [5379,"urn:WaterMeter:MC0203J22010600005","2023-08-04T17:00:00",30,29.35097,0.203],
    [5380,"urn:WaterMeter:MC0203J22010600005","2023-08-04T17:15:00",29.799,29.307953,0.192],
    [5381,"urn:WaterMeter:MC0203J22010600005","2023-08-04T17:30:00",29.7,29.26761,0.196],
    [5382,"urn:WaterMeter:MC0203J22010600005","2023-08-04T17:45:00",29.5,29.24585,0.194],
    [5383,"urn:WaterMeter:MC0203J22010600005","2023-08-04T18:00:00",29.299,29.212528,0.195],
    [5384,"urn:WaterMeter:MC0203J22010600005","2023-08-04T18:15:00",29.1,29.19775,0.199],
    [5385,"urn:WaterMeter:MC0203J22010600005","2023-08-04T18:30:00",29,29.168657,0.194],
    [5386,"urn:WaterMeter:MC0203J22010600005","2023-08-04T18:45:00",28.799,29.16982,0.183],
    [5387,"urn:WaterMeter:MC0203J22010600005","2023-08-04T19:00:00",28.6,29.158184,0.198],
    [5388,"urn:WaterMeter:MC0203J22010600005","2023-08-04T19:15:00",28.399,29.181885,0.219],
    [5389,"urn:WaterMeter:MC0203J22010600005","2023-08-04T19:30:00",28.2,29.134562,0.204],
    [5390,"urn:WaterMeter:MC0203J22010600005","2023-08-04T19:45:00",28.1,29.145422,0.196],
    [5391,"urn:WaterMeter:MC0203J22010600005","2023-08-04T20:00:00",27.899,29.145035,0.212],
    [5392,"urn:WaterMeter:MC0203J22010600005","2023-08-04T20:15:00",27.799,29.141932,0.195],
    [5393,"urn:WaterMeter:MC0203J22010600005","2023-08-04T20:30:00",27.7,29.107796,0.19],
    [5394,"urn:WaterMeter:MC0203J22010600005","2023-08-04T20:45:00",27.6,29.120169,0.202],
    [5395,"urn:WaterMeter:MC0203J22010600005","2023-08-04T21:00:00",27.5,29.12176,0.196],
    [5396,"urn:WaterMeter:MC0203J22010600005","2023-08-04T21:15:00",27.399,29.082155,0.19],
    [5397,"urn:WaterMeter:MC0203J22010600005","2023-08-04T21:30:00",27.299,29.132622,0.196],
    [5398,"urn:WaterMeter:MC0203J22010600005","2023-08-04T21:45:00",27.2,29.063963,0.2],
    [5399,"urn:WaterMeter:MC0203J22010600005","2023-08-04T22:00:00",27.1,29.063576,0.2],
    [5400,"urn:WaterMeter:MC0203J22010600005","2023-08-04T22:15:00",27,29.07017,0.193],
    [5401,"urn:WaterMeter:MC0203J22010600005","2023-08-04T22:30:00",26.799,29.04767,0.195],
    [5402,"urn:WaterMeter:MC0203J22010600005","2023-08-04T22:45:00",26.7,29.082155,0.194],
    [5403,"urn:WaterMeter:MC0203J22010600005","2023-08-04T23:00:00",26.6,29.05737,0.194],
    [5404,"urn:WaterMeter:MC0203J22010600005","2023-08-04T23:15:00",26.5,29.061209,0.201],
    [5405,"urn:WaterMeter:MC0203J22010600005","2023-08-04T23:30:00",26.399,29.05737,0.196],
    [5406,"urn:WaterMeter:MC0203J22010600005","2023-08-04T23:45:00",26.299,29.04612,0.197],
    [5407,"urn:WaterMeter:MC0203J22010600005","2023-08-05T00:00:00",26.2,29.029053,0.199],
    [5408,"urn:WaterMeter:MC0203J22010600005","2023-08-05T00:15:00",26.1,29.05504,0.203],
    [5409,"urn:WaterMeter:MC0203J22010600005","2023-08-05T00:30:00",25.899,29.074049,0.192],
    [5410,"urn:WaterMeter:MC0203J22010600005","2023-08-05T00:45:00",25.799,29.04065,0.195],
    [5411,"urn:WaterMeter:MC0203J22010600005","2023-08-05T01:00:00",25.7,29.048834,0.197],
    [5412,"urn:WaterMeter:MC0203J22010600005","2023-08-05T01:15:00",25.6,29.01625,0.191],
    [5413,"urn:WaterMeter:MC0203J22010600005","2023-08-05T01:30:00",25.399,29.010044,0.192],
    [5414,"urn:WaterMeter:MC0203J22010600005","2023-08-05T01:45:00",25.299,29.022419,0.196],
    [5415,"urn:WaterMeter:MC0203J22010600005","2023-08-05T02:00:00",25.2,29.008493,0.196],
    [5416,"urn:WaterMeter:MC0203J22010600005","2023-08-05T02:15:00",25.1,29.03836,0.191],
    [5417,"urn:WaterMeter:MC0203J22010600005","2023-08-05T02:30:00",25,29.024359,0.2],
    [5418,"urn:WaterMeter:MC0203J22010600005","2023-08-05T02:45:00",24.799,29.05155,0.193],
    [5419,"urn:WaterMeter:MC0203J22010600005","2023-08-05T03:00:00",24.7,28.991037,0.201],
    [5420,"urn:WaterMeter:MC0203J22010600005","2023-08-05T03:15:00",24.6,28.993364,0.203],
    [5421,"urn:WaterMeter:MC0203J22010600005","2023-08-05T03:30:00",24.5,28.97587,0.202],
    [5422,"urn:WaterMeter:MC0203J22010600005","2023-08-05T03:45:00",24.399,29.013885,0.192],
    [5423,"urn:WaterMeter:MC0203J22010600005","2023-08-05T04:00:00",24.2,29.01664,0.194],
    [5424,"urn:WaterMeter:MC0203J22010600005","2023-08-05T04:15:00",24.1,29.006554,0.195],
    [5425,"urn:WaterMeter:MC0203J22010600005","2023-08-05T04:30:00",24,28.999184,0.191],
    [5426,"urn:WaterMeter:MC0203J22010600005","2023-08-05T04:45:00",23.899,29.011984,0.195],
    [5427,"urn:WaterMeter:MC0203J22010600005","2023-08-05T05:00:00",23.899,28.985569,0.205],
    [5428,"urn:WaterMeter:MC0203J22010600005","2023-08-05T05:15:00",23.799,28.964622,0.192],
    [5429,"urn:WaterMeter:MC0203J22010600005","2023-08-05T05:30:00",23.7,28.982853,0.197],
    [5430,"urn:WaterMeter:MC0203J22010600005","2023-08-05T05:45:00",23.7,28.975483,0.199],
    [5431,"urn:WaterMeter:MC0203J22010600005","2023-08-05T06:00:00",23.7,28.988323,0.193],
    [5432,"urn:WaterMeter:MC0203J22010600005","2023-08-05T06:15:00",23.799,28.95729,0.188],
    [5433,"urn:WaterMeter:MC0203J22010600005","2023-08-05T06:30:00",23.899,28.964622,0.19],
    [5434,"urn:WaterMeter:MC0203J22010600005","2023-08-05T06:45:00",24,28.923155,0.19],
    [5435,"urn:WaterMeter:MC0203J22010600005","2023-08-05T07:00:00",24.2,28.91113,0.19],
    [5436,"urn:WaterMeter:MC0203J22010600005","2023-08-05T07:15:00",24.399,28.841696,0.191],
    [5437,"urn:WaterMeter:MC0203J22010600005","2023-08-05T07:30:00",24.6,28.852169,0.185],
    [5438,"urn:WaterMeter:MC0203J22010600005","2023-08-05T07:45:00",24.899,28.819935,0.186],
    [5439,"urn:WaterMeter:MC0203J22010600005","2023-08-05T08:00:00",25.1,28.75985,0.197],
    [5440,"urn:WaterMeter:MC0203J22010600005","2023-08-05T08:15:00",25.399,28.705156,0.189],
    [5441,"urn:WaterMeter:MC0203J22010600005","2023-08-05T08:30:00",25.899,28.686537,0.186],
    [5442,"urn:WaterMeter:MC0203J22010600005","2023-08-05T08:45:00",26.5,28.591112,0.184],
    [5443,"urn:WaterMeter:MC0203J22010600005","2023-08-05T09:00:00",27.1,28.55465,0.182],
    [5444,"urn:WaterMeter:MC0203J22010600005","2023-08-05T09:15:00",27.6,28.506163,0.181],
    [5445,"urn:WaterMeter:MC0203J22010600005","2023-08-05T09:30:00",28,28.421562,0.179],
    [5446,"urn:WaterMeter:MC0203J22010600005","2023-08-05T09:45:00",28.399,28.366907,0.185],
    [5447,"urn:WaterMeter:MC0203J22010600005","2023-08-05T10:00:00",28.799,28.293982,0.189],
    [5448,"urn:WaterMeter:MC0203J22010600005","2023-08-05T10:15:00",29,28.232306,0.181],
    [5449,"urn:WaterMeter:MC0203J22010600005","2023-08-05T10:30:00",29.299,28.170979,0.184],
    [5450,"urn:WaterMeter:MC0203J22010600005","2023-08-05T10:45:00",29.6,28.111242,0.187],
    [5451,"urn:WaterMeter:MC0203J22010600005","2023-08-05T11:00:00",29.899,28.053057,0.18],
    [5452,"urn:WaterMeter:MC0203J22010600005","2023-08-05T11:15:00",30.299,27.955305,0.177],
    [5453,"urn:WaterMeter:MC0203J22010600005","2023-08-05T11:30:00",30.799,27.888588,0.176],
    [5454,"urn:WaterMeter:MC0203J22010600005","2023-08-05T11:45:00",31.2,27.853327,0.187],
    [5455,"urn:WaterMeter:MC0203J22010600005","2023-08-05T12:00:00",31.5,27.749758,0.176],
    [5456,"urn:WaterMeter:MC0203J22010600005","2023-08-05T12:15:00",31.799,27.674505,0.177],
    [5457,"urn:WaterMeter:MC0203J22010600005","2023-08-05T12:30:00",32.099,27.61089,0.185],
    [5458,"urn:WaterMeter:MC0203J22010600005","2023-08-05T12:45:00",32.2,27.510386,0.177],
    [5459,"urn:WaterMeter:MC0203J22010600005","2023-08-05T13:00:00",32.2,27.434782,0.175],
    [5460,"urn:WaterMeter:MC0203J22010600005","2023-08-05T13:15:00",32.2,27.329662,0.178],
    [5461,"urn:WaterMeter:MC0203J22010600005","2023-08-05T13:30:00",32.099,27.264883,0.179],
    [5462,"urn:WaterMeter:MC0203J22010600005","2023-08-05T13:45:00",32,27.190756,0.181],
    [5463,"urn:WaterMeter:MC0203J22010600005","2023-08-05T14:00:00",31.899,27.141104,0.174],
    [5464,"urn:WaterMeter:MC0203J22010600005","2023-08-05T14:15:00",31.7,27.098475,0.178],
    [5465,"urn:WaterMeter:MC0203J22010600005","2023-08-05T14:30:00",31.6,27.020506,0.178],
    [5466,"urn:WaterMeter:MC0203J22010600005","2023-08-05T14:45:00",31.5,26.94021,0.173],
    [5467,"urn:WaterMeter:MC0203J22010600005","2023-08-05T15:00:00",31.5,26.86996,0.172],
    [5468,"urn:WaterMeter:MC0203J22010600005","2023-08-05T15:15:00",31.5,26.831947,0.172],
    [5469,"urn:WaterMeter:MC0203J22010600005","2023-08-05T15:30:00",31.399,26.753592,0.175],
    [5470,"urn:WaterMeter:MC0203J22010600005","2023-08-05T15:45:00",31.299,26.682257,0.175],
    [5471,"urn:WaterMeter:MC0203J22010600005","2023-08-05T16:00:00",31.2,26.642303,0.176],
    [5472,"urn:WaterMeter:MC0203J22010600005","2023-08-05T16:15:00",31,26.584507,0.17],
    [5473,"urn:WaterMeter:MC0203J22010600005","2023-08-05T16:30:00",30.899,26.492147,0.173],
    [5474,"urn:WaterMeter:MC0203J22010600005","2023-08-05T16:45:00",30.7,26.455336,0.175],
    [5475,"urn:WaterMeter:MC0203J22010600005","2023-08-05T17:00:00",30.6,26.433226,0.169],
    [5476,"urn:WaterMeter:MC0203J22010600005","2023-08-05T17:15:00",30.399,26.35836,0.177],
    [5477,"urn:WaterMeter:MC0203J22010600005","2023-08-05T17:30:00",30.299,26.324224,0.164],
    [5478,"urn:WaterMeter:MC0203J22010600005","2023-08-05T17:45:00",30.1,26.288113,0.166],
    [5479,"urn:WaterMeter:MC0203J22010600005","2023-08-05T18:00:00",30,26.26604,0.165],
    [5480,"urn:WaterMeter:MC0203J22010600005","2023-08-05T18:15:00",29.799,26.200098,0.171],
    [5481,"urn:WaterMeter:MC0203J22010600005","2023-08-05T18:30:00",29.6,26.20514,0.169],
    [5482,"urn:WaterMeter:MC0203J22010600005","2023-08-05T18:45:00",29.399,26.186522,0.167],
    [5483,"urn:WaterMeter:MC0203J22010600005","2023-08-05T19:00:00",29.2,26.161306,0.164],
    [5484,"urn:WaterMeter:MC0203J22010600005","2023-08-05T19:15:00",29,26.139973,0.168],
    [5485,"urn:WaterMeter:MC0203J22010600005","2023-08-05T19:30:00",28.799,26.113556,0.173],
    [5486,"urn:WaterMeter:MC0203J22010600005","2023-08-05T19:45:00",28.7,26.125233,0.169],
    [5487,"urn:WaterMeter:MC0203J22010600005","2023-08-05T20:00:00",28.5,26.130663,0.166],
    [5488,"urn:WaterMeter:MC0203J22010600005","2023-08-05T20:15:00",28.299,26.09614,0.172],
    [5489,"urn:WaterMeter:MC0203J22010600005","2023-08-05T20:30:00",28.2,26.08524,0.168],
    [5490,"urn:WaterMeter:MC0203J22010600005","2023-08-05T20:45:00",28,26.07752,0.168],
    [5491,"urn:WaterMeter:MC0203J22010600005","2023-08-05T21:00:00",27.899,26.10351,0.166],
    [5492,"urn:WaterMeter:MC0203J22010600005","2023-08-05T21:15:00",27.7,26.095713,0.168],
    [5493,"urn:WaterMeter:MC0203J22010600005","2023-08-05T21:30:00",27.5,26.081013,0.167],
    [5494,"urn:WaterMeter:MC0203J22010600005","2023-08-05T21:45:00",27.399,26.10933,0.173],
    [5495,"urn:WaterMeter:MC0203J22010600005","2023-08-05T22:00:00",27.2,26.122517,0.173],
    [5496,"urn:WaterMeter:MC0203J22010600005","2023-08-05T22:15:00",27.1,26.069374,0.165],
    [5497,"urn:WaterMeter:MC0203J22010600005","2023-08-05T22:30:00",26.899,26.107777,0.173],
    [5498,"urn:WaterMeter:MC0203J22010600005","2023-08-05T22:45:00",26.799,26.119026,0.165],
    [5499,"urn:WaterMeter:MC0203J22010600005","2023-08-05T23:00:00",26.6,26.107777,0.165],
    [5500,"urn:WaterMeter:MC0203J22010600005","2023-08-05T23:15:00",26.5,26.065456,0.167],
    [5501,"urn:WaterMeter:MC0203J22010600005","2023-08-05T23:30:00",26.399,26.052307,0.169],
    [5502,"urn:WaterMeter:MC0203J22010600005","2023-08-05T23:45:00",26.2,26.068987,0.165],
    [5503,"urn:WaterMeter:MC0203J22010600005","2023-08-06T00:00:00",26.1,26.083727,0.168],
    [5504,"urn:WaterMeter:MC0203J22010600005","2023-08-06T00:15:00",25.899,26.09032,0.167],
    [5505,"urn:WaterMeter:MC0203J22010600005","2023-08-06T00:30:00",25.799,26.063168,0.171],
    [5506,"urn:WaterMeter:MC0203J22010600005","2023-08-06T00:45:00",25.6,26.079847,0.165],
    [5507,"urn:WaterMeter:MC0203J22010600005","2023-08-06T01:00:00",25.5,26.089157,0.165],
    [5508,"urn:WaterMeter:MC0203J22010600005","2023-08-06T01:15:00",25.399,26.070927,0.166],
    [5509,"urn:WaterMeter:MC0203J22010600005","2023-08-06T01:30:00",25.2,26.081787,0.166],
    [5510,"urn:WaterMeter:MC0203J22010600005","2023-08-06T01:45:00",25.1,26.101183,0.162],
    [5511,"urn:WaterMeter:MC0203J22010600005","2023-08-06T02:00:00",25,26.114332,0.168],
    [5512,"urn:WaterMeter:MC0203J22010600005","2023-08-06T02:15:00",24.799,26.084852,0.166],
    [5513,"urn:WaterMeter:MC0203J22010600005","2023-08-06T02:30:00",24.7,26.06278,0.167],
    [5514,"urn:WaterMeter:MC0203J22010600005","2023-08-06T02:45:00",24.5,26.086016,0.173],
    [5515,"urn:WaterMeter:MC0203J22010600005","2023-08-06T03:00:00",24.399,26.102346,0.176],
    [5516,"urn:WaterMeter:MC0203J22010600005","2023-08-06T03:15:00",24.2,26.110104,0.165],
    [5517,"urn:WaterMeter:MC0203J22010600005","2023-08-06T03:30:00",24.1,26.125233,0.17],
    [5518,"urn:WaterMeter:MC0203J22010600005","2023-08-06T03:45:00",24,26.06278,0.169],
    [5519,"urn:WaterMeter:MC0203J22010600005","2023-08-06T04:00:00",23.899,26.09455,0.163],
    [5520,"urn:WaterMeter:MC0203J22010600005","2023-08-06T04:15:00",23.799,26.063944,0.168],
    [5521,"urn:WaterMeter:MC0203J22010600005","2023-08-06T04:30:00",23.7,26.073215,0.164],
    [5522,"urn:WaterMeter:MC0203J22010600005","2023-08-06T04:45:00",23.6,26.105022,0.166],
    [5523,"urn:WaterMeter:MC0203J22010600005","2023-08-06T05:00:00",23.5,26.071703,0.169],
    [5524,"urn:WaterMeter:MC0203J22010600005","2023-08-06T05:15:00",23.399,26.074766,0.159],
    [5525,"urn:WaterMeter:MC0203J22010600005","2023-08-06T05:30:00",23.299,26.086016,0.166],
    [5526,"urn:WaterMeter:MC0203J22010600005","2023-08-06T05:45:00",23.299,26.05153,0.162],
    [5527,"urn:WaterMeter:MC0203J22010600005","2023-08-06T06:00:00",23.299,26.024378,0.161],
    [5528,"urn:WaterMeter:MC0203J22010600005","2023-08-06T06:15:00",23.399,26.06278,0.164],
    [5529,"urn:WaterMeter:MC0203J22010600005","2023-08-06T06:30:00",23.399,26.06507,0.172],
    [5530,"urn:WaterMeter:MC0203J22010600005","2023-08-06T06:45:00",23.5,26.03873,0.164],
    [5531,"urn:WaterMeter:MC0203J22010600005","2023-08-06T07:00:00",23.7,25.99994,0.155],
    [5532,"urn:WaterMeter:MC0203J22010600005","2023-08-06T07:15:00",23.899,25.941755,0.162],
    [5533,"urn:WaterMeter:MC0203J22010600005","2023-08-06T07:30:00",24.2,25.900988,0.162],
    [5534,"urn:WaterMeter:MC0203J22010600005","2023-08-06T07:45:00",24.5,25.880817,0.16],
    [5535,"urn:WaterMeter:MC0203J22010600005","2023-08-06T08:00:00",24.899,25.847109,0.16],
    [5536,"urn:WaterMeter:MC0203J22010600005","2023-08-06T08:15:00",25.299,25.77302,0.157],
    [5537,"urn:WaterMeter:MC0203J22010600005","2023-08-06T08:30:00",25.899,25.703974,0.154],
    [5538,"urn:WaterMeter:MC0203J22010600005","2023-08-06T08:45:00",26.6,25.638031,0.152],
    [5539,"urn:WaterMeter:MC0203J22010600005","2023-08-06T09:00:00",27.399,25.565105,0.149],
    [5540,"urn:WaterMeter:MC0203J22010600005","2023-08-06T09:15:00",28,25.478603,0.147],
    [5541,"urn:WaterMeter:MC0203J22010600005","2023-08-06T09:30:00",28.5,25.41495,0.151],
    [5542,"urn:WaterMeter:MC0203J22010600005","2023-08-06T09:45:00",29,25.369215,0.154],
    [5543,"urn:WaterMeter:MC0203J22010600005","2023-08-06T10:00:00",29.399,25.255949,0.148],
    [5544,"urn:WaterMeter:MC0203J22010600005","2023-08-06T10:15:00",29.7,25.167507,0.151],
    [5545,"urn:WaterMeter:MC0203J22010600005","2023-08-06T10:30:00",30,25.105793,0.152],
    [5546,"urn:WaterMeter:MC0203J22010600005","2023-08-06T10:45:00",30.299,25.023209,0.151],
    [5547,"urn:WaterMeter:MC0203J22010600005","2023-08-06T11:00:00",30.6,24.939034,0.148],
    [5548,"urn:WaterMeter:MC0203J22010600005","2023-08-06T11:15:00",31.1,24.87503,0.151],
    [5549,"urn:WaterMeter:MC0203J22010600005","2023-08-06T11:30:00",31.6,24.769522,0.153],
    [5550,"urn:WaterMeter:MC0203J22010600005","2023-08-06T11:45:00",32,24.679102,0.145],
    [5551,"urn:WaterMeter:MC0203J22010600005","2023-08-06T12:00:00",32.4,24.576736,0.146],
    [5552,"urn:WaterMeter:MC0203J22010600005","2023-08-06T12:15:00",32.799,24.479372,0.145],
    [5553,"urn:WaterMeter:MC0203J22010600005","2023-08-06T12:30:00",33,24.380846,0.139],
    [5554,"urn:WaterMeter:MC0203J22010600005","2023-08-06T12:45:00",33.2,24.254004,0.142],
    [5555,"urn:WaterMeter:MC0203J22010600005","2023-08-06T13:00:00",33.2,24.135654,0.142],
    [5556,"urn:WaterMeter:MC0203J22010600005","2023-08-06T13:15:00",33.2,24.036003,0.14],
    [5557,"urn:WaterMeter:MC0203J22010600005","2023-08-06T13:30:00",33.099,23.94054,0.14],
    [5558,"urn:WaterMeter:MC0203J22010600005","2023-08-06T13:45:00",33.099,23.85559,0.141],
    [5559,"urn:WaterMeter:MC0203J22010600005","2023-08-06T14:00:00",32.9,23.727972,0.142],
    [5560,"urn:WaterMeter:MC0203J22010600005","2023-08-06T14:15:00",32.799,23.643837,0.141],
    [5561,"urn:WaterMeter:MC0203J22010600005","2023-08-06T14:30:00",32.599,23.585264,0.138],
    [5562,"urn:WaterMeter:MC0203J22010600005","2023-08-06T14:45:00",32.5,23.456055,0.144],
    [5563,"urn:WaterMeter:MC0203J22010600005","2023-08-06T15:00:00",32.4,23.378473,0.144],
    [5564,"urn:WaterMeter:MC0203J22010600005","2023-08-06T15:15:00",32.2,23.297829,0.136],
    [5565,"urn:WaterMeter:MC0203J22010600005","2023-08-06T15:30:00",32.099,23.207449,0.137],
    [5566,"urn:WaterMeter:MC0203J22010600005","2023-08-06T15:45:00",32,23.149263,0.137],
    [5567,"urn:WaterMeter:MC0203J22010600005","2023-08-06T16:00:00",31.899,23.058495,0.135],
    [5568,"urn:WaterMeter:MC0203J22010600005","2023-08-06T16:15:00",31.799,22.968115,0.138],
    [5569,"urn:WaterMeter:MC0203J22010600005","2023-08-06T16:30:00",31.7,22.918852,0.142],
    [5570,"urn:WaterMeter:MC0203J22010600005","2023-08-06T16:45:00",31.6,22.870752,0.136],
    [5571,"urn:WaterMeter:MC0203J22010600005","2023-08-06T17:00:00",31.5,22.785414,0.138],
    [5572,"urn:WaterMeter:MC0203J22010600005","2023-08-06T17:15:00",31.399,22.731108,0.134],
    [5573,"urn:WaterMeter:MC0203J22010600005","2023-08-06T17:30:00",31.299,22.700424,0.134],
    [5574,"urn:WaterMeter:MC0203J22010600005","2023-08-06T17:45:00",31.2,22.643015,0.134],
    [5575,"urn:WaterMeter:MC0203J22010600005","2023-08-06T18:00:00",31,22.581379,0.135],
    [5576,"urn:WaterMeter:MC0203J22010600005","2023-08-06T18:15:00",30.799,22.575521,0.134],
    [5577,"urn:WaterMeter:MC0203J22010600005","2023-08-06T18:30:00",30.6,22.502247,0.136],
    [5578,"urn:WaterMeter:MC0203J22010600005","2023-08-06T18:45:00",30.399,22.520477,0.147],
    [5579,"urn:WaterMeter:MC0203J22010600005","2023-08-06T19:00:00",30.2,22.506086,0.135],
    [5580,"urn:WaterMeter:MC0203J22010600005","2023-08-06T19:15:00",29.899,22.512331,0.133],
    [5581,"urn:WaterMeter:MC0203J22010600005","2023-08-06T19:30:00",29.7,22.51466,0.134],
    [5582,"urn:WaterMeter:MC0203J22010600005","2023-08-06T19:45:00",29.5,22.491385,0.137],
    [5583,"urn:WaterMeter:MC0203J22010600005","2023-08-06T20:00:00",29.399,22.467684,0.133],
    [5584,"urn:WaterMeter:MC0203J22010600005","2023-08-06T20:15:00",29.2,22.482464,0.136],
    [5585,"urn:WaterMeter:MC0203J22010600005","2023-08-06T20:30:00",29.1,22.461517,0.132],
    [5586,"urn:WaterMeter:MC0203J22010600005","2023-08-06T20:45:00",28.899,22.45182,0.137],
    [5587,"urn:WaterMeter:MC0203J22010600005","2023-08-06T21:00:00",28.799,22.468073,0.138],
    [5588,"urn:WaterMeter:MC0203J22010600005","2023-08-06T21:15:00",28.7,22.426218,0.137],
    [5589,"urn:WaterMeter:MC0203J22010600005","2023-08-06T21:30:00",28.5,22.472767,0.133],
    [5590,"urn:WaterMeter:MC0203J22010600005","2023-08-06T21:45:00",28.399,22.432812,0.133],
    [5591,"urn:WaterMeter:MC0203J22010600005","2023-08-06T22:00:00",28.299,22.458763,0.141],
    [5592,"urn:WaterMeter:MC0203J22010600005","2023-08-06T22:15:00",28.2,22.453758,0.139],
    [5593,"urn:WaterMeter:MC0203J22010600005","2023-08-06T22:30:00",28.1,22.443285,0.132],
    [5594,"urn:WaterMeter:MC0203J22010600005","2023-08-06T22:45:00",28,22.4941,0.133],
    [5595,"urn:WaterMeter:MC0203J22010600005","2023-08-06T23:00:00",27.899,22.456861,0.136],
    [5596,"urn:WaterMeter:MC0203J22010600005","2023-08-06T23:15:00",27.799,22.47936,0.138],
    [5597,"urn:WaterMeter:MC0203J22010600005","2023-08-06T23:30:00",27.7,22.46268,0.14],
    [5598,"urn:WaterMeter:MC0203J22010600005","2023-08-06T23:45:00",27.7,22.451431,0.134],
    [5599,"urn:WaterMeter:MC0203J22010600005","2023-08-07T00:00:00",27.6,22.453371,0.137],
    [5600,"urn:WaterMeter:MC0203J22010600005","2023-08-07T00:15:00",27.6,22.486303,0.134],
    [5601,"urn:WaterMeter:MC0203J22010600005","2023-08-07T00:30:00",27.5,22.46691,0.138],
    [5602,"urn:WaterMeter:MC0203J22010600005","2023-08-07T00:45:00",27.5,22.47005,0.134],
    [5603,"urn:WaterMeter:MC0203J22010600005","2023-08-07T01:00:00",27.399,22.461517,0.134],
    [5604,"urn:WaterMeter:MC0203J22010600005","2023-08-07T01:15:00",27.399,22.441347,0.132],
    [5605,"urn:WaterMeter:MC0203J22010600005","2023-08-07T01:30:00",27.299,22.465357,0.134],
    [5606,"urn:WaterMeter:MC0203J22010600005","2023-08-07T01:45:00",27.299,22.447514,0.135],
    [5607,"urn:WaterMeter:MC0203J22010600005","2023-08-07T02:00:00",27.2,22.480137,0.127],
    [5608,"urn:WaterMeter:MC0203J22010600005","2023-08-07T02:15:00",27.1,22.511168,0.134],
    [5609,"urn:WaterMeter:MC0203J22010600005","2023-08-07T02:30:00",27,22.510393,0.134],
    [5610,"urn:WaterMeter:MC0203J22010600005","2023-08-07T02:45:00",27,22.463844,0.131],
    [5611,"urn:WaterMeter:MC0203J22010600005","2023-08-07T03:00:00",27,22.459578,0.133],
    [5612,"urn:WaterMeter:MC0203J22010600005","2023-08-07T03:15:00",26.899,22.485916,0.135],
    [5613,"urn:WaterMeter:MC0203J22010600005","2023-08-07T03:30:00",26.799,22.484404,0.135],
    [5614,"urn:WaterMeter:MC0203J22010600005","2023-08-07T03:45:00",26.7,22.51466,0.136],
    [5615,"urn:WaterMeter:MC0203J22010600005","2023-08-07T04:00:00",26.7,22.506086,0.131],
    [5616,"urn:WaterMeter:MC0203J22010600005","2023-08-07T04:15:00",26.6,22.519703,0.133],
    [5617,"urn:WaterMeter:MC0203J22010600005","2023-08-07T04:30:00",26.5,22.47587,0.134],
    [5618,"urn:WaterMeter:MC0203J22010600005","2023-08-07T04:45:00",26.299,22.486692,0.133],
    [5619,"urn:WaterMeter:MC0203J22010600005","2023-08-07T05:00:00",26.2,22.50341,0.13],
    [5620,"urn:WaterMeter:MC0203J22010600005","2023-08-07T05:15:00",26.1,22.527847,0.141],
    [5621,"urn:WaterMeter:MC0203J22010600005","2023-08-07T05:30:00",26.1,22.482077,0.132],
    [5622,"urn:WaterMeter:MC0203J22010600005","2023-08-07T05:45:00",26,22.487467,0.132],
    [5623,"urn:WaterMeter:MC0203J22010600005","2023-08-07T06:00:00",26,22.508064,0.133],
    [5624,"urn:WaterMeter:MC0203J22010600005","2023-08-07T06:15:00",26,22.522804,0.133],
    [5625,"urn:WaterMeter:MC0203J22010600005","2023-08-07T06:30:00",26.1,22.494488,0.138],
    [5626,"urn:WaterMeter:MC0203J22010600005","2023-08-07T06:45:00",26.1,22.4576,0.13],
    [5627,"urn:WaterMeter:MC0203J22010600005","2023-08-07T07:00:00",26.299,22.472767,0.135],
    [5628,"urn:WaterMeter:MC0203J22010600005","2023-08-07T07:15:00",26.399,22.45725,0.142],
    [5629,"urn:WaterMeter:MC0203J22010600005","2023-08-07T07:30:00",26.6,22.463844,0.129],
    [5630,"urn:WaterMeter:MC0203J22010600005","2023-08-07T07:45:00",26.799,22.404108,0.127],
    [5631,"urn:WaterMeter:MC0203J22010600005","2023-08-07T08:00:00",27.1,22.361012,0.133],
    [5632,"urn:WaterMeter:MC0203J22010600005","2023-08-07T08:15:00",27.299,22.30015,0.13],
    [5633,"urn:WaterMeter:MC0203J22010600005","2023-08-07T08:30:00",27.5,22.30015,0.132],
    [5634,"urn:WaterMeter:MC0203J22010600005","2023-08-07T08:45:00",28,22.210157,0.125],
    [5635,"urn:WaterMeter:MC0203J22010600005","2023-08-07T09:00:00",28.299,22.157753,0.128],
    [5636,"urn:WaterMeter:MC0203J22010600005","2023-08-07T09:15:00",28.6,22.133354,0.132],
    [5637,"urn:WaterMeter:MC0203J22010600005","2023-08-07T09:30:00",29,22.062368,0.129],
    [5638,"urn:WaterMeter:MC0203J22010600005","2023-08-07T09:45:00",29.1,22.01582,0.125],
    [5639,"urn:WaterMeter:MC0203J22010600005","2023-08-07T10:00:00",29.6,21.915703,0.127],
    [5640,"urn:WaterMeter:MC0203J22010600005","2023-08-07T10:15:00",30.2,21.860271,0.127],
    [5641,"urn:WaterMeter:MC0203J22010600005","2023-08-07T10:30:00",30.399,21.783468,0.122],
    [5642,"urn:WaterMeter:MC0203J22010600005","2023-08-07T10:45:00",30.5,21.722956,0.125],
    [5643,"urn:WaterMeter:MC0203J22010600005","2023-08-07T11:00:00",30.899,21.61861,0.128],
    [5644,"urn:WaterMeter:MC0203J22010600005","2023-08-07T11:15:00",31.2,21.55965,0.123],
    [5645,"urn:WaterMeter:MC0203J22010600005","2023-08-07T11:30:00",31.6,21.468842,0.123],
    [5646,"urn:WaterMeter:MC0203J22010600005","2023-08-07T11:45:00",31.799,21.40798,0.12],
    [5647,"urn:WaterMeter:MC0203J22010600005","2023-08-07T12:00:00",32.099,21.31178,0.119],
    [5648,"urn:WaterMeter:MC0203J22010600005","2023-08-07T12:15:00",32.299,21.248554,0.118],
    [5649,"urn:WaterMeter:MC0203J22010600005","2023-08-07T12:30:00",32.599,21.139515,0.125],
    [5650,"urn:WaterMeter:MC0203J22010600005","2023-08-07T12:45:00",32.799,21.070469,0.121],
    [5651,"urn:WaterMeter:MC0203J22010600005","2023-08-07T13:00:00",32.9,20.982454,0.123],
    [5652,"urn:WaterMeter:MC0203J22010600005","2023-08-07T13:15:00",32.9,20.883928,0.129],
    [5653,"urn:WaterMeter:MC0203J22010600005","2023-08-07T13:30:00",32.9,20.776867,0.119],
    [5654,"urn:WaterMeter:MC0203J22010600005","2023-08-07T13:45:00",32.9,20.685324,0.118],
    [5655,"urn:WaterMeter:MC0203J22010600005","2023-08-07T14:00:00",32.799,20.596455,0.118],
    [5656,"urn:WaterMeter:MC0203J22010600005","2023-08-07T14:15:00",32.7,20.49564,0.121],
    [5657,"urn:WaterMeter:MC0203J22010600005","2023-08-07T14:30:00",32.7,20.40875,0.117],
    [5658,"urn:WaterMeter:MC0203J22010600005","2023-08-07T14:45:00",32.599,20.303242,0.119],
    [5659,"urn:WaterMeter:MC0203J22010600005","2023-08-07T15:00:00",32.599,20.250486,0.12],
    [5660,"urn:WaterMeter:MC0203J22010600005","2023-08-07T15:15:00",32.4,20.19114,0.118],
    [5661,"urn:WaterMeter:MC0203J22010600005","2023-08-07T15:30:00",32.4,20.06348,0.122],
    [5662,"urn:WaterMeter:MC0203J22010600005","2023-08-07T15:45:00",32.2,20.040632,0.115],
    [5663,"urn:WaterMeter:MC0203J22010600005","2023-08-07T16:00:00",32.099,19.978182,0.115],
    [5664,"urn:WaterMeter:MC0203J22010600005","2023-08-07T16:15:00",32,19.936249,0.115],
    [5665,"urn:WaterMeter:MC0203J22010600005","2023-08-07T16:30:00",32,19.856768,0.121],
    [5666,"urn:WaterMeter:MC0203J22010600005","2023-08-07T16:45:00",31.799,19.813711,0.113],
    [5667,"urn:WaterMeter:MC0203J22010600005","2023-08-07T17:00:00",31.6,19.727985,0.126],
    [5668,"urn:WaterMeter:MC0203J22010600005","2023-08-07T17:15:00",31.5,19.705061,0.113],
    [5669,"urn:WaterMeter:MC0203J22010600005","2023-08-07T17:30:00",31.299,19.64032,0.116],
    [5670,"urn:WaterMeter:MC0203J22010600005","2023-08-07T17:45:00",31.1,19.673252,0.115],
    [5671,"urn:WaterMeter:MC0203J22010600005","2023-08-07T18:00:00",30.899,19.604633,0.113],
    [5672,"urn:WaterMeter:MC0203J22010600005","2023-08-07T18:15:00",30.7,19.60502,0.115],
    [5673,"urn:WaterMeter:MC0203J22010600005","2023-08-07T18:30:00",30.6,19.560413,0.114],
    [5674,"urn:WaterMeter:MC0203J22010600005","2023-08-07T18:45:00",30.399,19.580196,0.113],
    [5675,"urn:WaterMeter:MC0203J22010600005","2023-08-07T19:00:00",30.2,19.55921,0.118],
    [5676,"urn:WaterMeter:MC0203J22010600005","2023-08-07T19:15:00",30,19.543734,0.115],
    [5677,"urn:WaterMeter:MC0203J22010600005","2023-08-07T19:30:00",29.899,19.521235,0.11],
    [5678,"urn:WaterMeter:MC0203J22010600005","2023-08-07T19:45:00",29.7,19.569723,0.114],
    [5679,"urn:WaterMeter:MC0203J22010600005","2023-08-07T20:00:00",29.6,19.547224,0.113],
    [5680,"urn:WaterMeter:MC0203J22010600005","2023-08-07T20:15:00",29.5,19.559599,0.113],
    [5681,"urn:WaterMeter:MC0203J22010600005","2023-08-07T20:30:00",29.399,19.56468,0.116],
    [5682,"urn:WaterMeter:MC0203J22010600005","2023-08-07T20:45:00",29.2,19.565844,0.116],
    [5683,"urn:WaterMeter:MC0203J22010600005","2023-08-07T21:00:00",29.1,19.558435,0.114],
    [5684,"urn:WaterMeter:MC0203J22010600005","2023-08-07T21:15:00",29,19.521235,0.114],
    [5685,"urn:WaterMeter:MC0203J22010600005","2023-08-07T21:30:00",29,19.547224,0.113],
    [5686,"urn:WaterMeter:MC0203J22010600005","2023-08-07T21:45:00",28.899,19.54412,0.11],
    [5687,"urn:WaterMeter:MC0203J22010600005","2023-08-07T22:00:00",28.799,19.542957,0.115],
    [5688,"urn:WaterMeter:MC0203J22010600005","2023-08-07T22:15:00",28.799,19.519644,0.115],
    [5689,"urn:WaterMeter:MC0203J22010600005","2023-08-07T22:30:00",28.7,19.517706,0.121],
    [5690,"urn:WaterMeter:MC0203J22010600005","2023-08-07T22:45:00",28.5,19.53904,0.113],
    [5691,"urn:WaterMeter:MC0203J22010600005","2023-08-07T23:00:00",28.399,19.530933,0.121],
    [5692,"urn:WaterMeter:MC0203J22010600005","2023-08-07T23:15:00",28.299,19.522787,0.113],
    [5693,"urn:WaterMeter:MC0203J22010600005","2023-08-07T23:30:00",28.2,19.536713,0.112],
    [5694,"urn:WaterMeter:MC0203J22010600005","2023-08-07T23:45:00",28.2,19.55188,0.111],
    [5695,"urn:WaterMeter:MC0203J22010600005","2023-08-08T00:00:00",28,19.51111,0.114],
    [5696,"urn:WaterMeter:MC0203J22010600005","2023-08-08T00:15:00",27.899,19.550327,0.112],
    [5697,"urn:WaterMeter:MC0203J22010600005","2023-08-08T00:30:00",27.799,19.538652,0.116],
    [5698,"urn:WaterMeter:MC0203J22010600005","2023-08-08T00:45:00",27.7,19.509947,0.112],
    [5699,"urn:WaterMeter:MC0203J22010600005","2023-08-08T01:00:00",27.6,19.53132,0.108],
    [5700,"urn:WaterMeter:MC0203J22010600005","2023-08-08T01:15:00",27.5,19.52783,0.115],
    [5701,"urn:WaterMeter:MC0203J22010600005","2023-08-08T01:30:00",27.399,19.558435,0.115],
    [5702,"urn:WaterMeter:MC0203J22010600005","2023-08-08T01:45:00",27.299,19.545284,0.115],
    [5703,"urn:WaterMeter:MC0203J22010600005","2023-08-08T02:00:00",27.2,19.535975,0.113],
    [5704,"urn:WaterMeter:MC0203J22010600005","2023-08-08T02:15:00",27.1,19.58524,0.112],
    [5705,"urn:WaterMeter:MC0203J22010600005","2023-08-08T02:30:00",27,19.545284,0.115],
    [5706,"urn:WaterMeter:MC0203J22010600005","2023-08-08T02:45:00",26.899,19.5736,0.11],
    [5707,"urn:WaterMeter:MC0203J22010600005","2023-08-08T03:00:00",26.799,19.549513,0.11],
    [5708,"urn:WaterMeter:MC0203J22010600005","2023-08-08T03:15:00",26.7,19.556883,0.112],
    [5709,"urn:WaterMeter:MC0203J22010600005","2023-08-08T03:30:00",26.6,19.54412,0.112],
    [5710,"urn:WaterMeter:MC0203J22010600005","2023-08-08T03:45:00",26.5,19.536713,0.109],
    [5711,"urn:WaterMeter:MC0203J22010600005","2023-08-08T04:00:00",26.399,19.558823,0.111],
    [5712,"urn:WaterMeter:MC0203J22010600005","2023-08-08T04:15:00",26.399,19.55727,0.112],
    [5713,"urn:WaterMeter:MC0203J22010600005","2023-08-08T04:30:00",26.299,19.556107,0.11],
    [5714,"urn:WaterMeter:MC0203J22010600005","2023-08-08T04:45:00",26.299,19.58485,0.116],
    [5715,"urn:WaterMeter:MC0203J22010600005","2023-08-08T05:00:00",26.2,19.59261,0.113],
    [5716,"urn:WaterMeter:MC0203J22010600005","2023-08-08T05:15:00",26.2,19.555758,0.113],
    [5717,"urn:WaterMeter:MC0203J22010600005","2023-08-08T05:30:00",26.2,19.636015,0.11],
    [5718,"urn:WaterMeter:MC0203J22010600005","2023-08-08T05:45:00",26.299,19.620537,0.112],
    [5719,"urn:WaterMeter:MC0203J22010600005","2023-08-08T06:00:00",26.299,19.635239,0.113],
    [5720,"urn:WaterMeter:MC0203J22010600005","2023-08-08T06:15:00",26.399,19.58524,0.112],
    [5721,"urn:WaterMeter:MC0203J22010600005","2023-08-08T06:30:00",26.5,19.555758,0.105],
    [5722,"urn:WaterMeter:MC0203J22010600005","2023-08-08T06:45:00",26.7,19.641872,0.111],
    [5723,"urn:WaterMeter:MC0203J22010600005","2023-08-08T07:00:00",26.799,20.055374,0.121],
    [5724,"urn:WaterMeter:MC0203J22010600005","2023-08-08T07:15:00",27,22.247784,0.147],
    [5725,"urn:WaterMeter:MC0203J22010600005","2023-08-08T07:30:00",27.2,24.53364,0.167],
    [5726,"urn:WaterMeter:MC0203J22010600005","2023-08-08T07:45:00",27.399,26.549595,0.175],
    [5727,"urn:WaterMeter:MC0203J22010600005","2023-08-08T08:00:00",27.6,27.95069,0.189],
    [5728,"urn:WaterMeter:MC0203J22010600005","2023-08-08T08:15:00",27.899,28.847475,0.197],
    [5729,"urn:WaterMeter:MC0203J22010600005","2023-08-08T08:30:00",28.2,29.265633,0.197],
    [5730,"urn:WaterMeter:MC0203J22010600005","2023-08-08T08:45:00",28.6,29.402172,0.207],
    [5731,"urn:WaterMeter:MC0203J22010600005","2023-08-08T09:00:00",29,29.437899,0.199],
    [5732,"urn:WaterMeter:MC0203J22010600005","2023-08-08T09:15:00",29.399,29.483671,0.193],
    [5733,"urn:WaterMeter:MC0203J22010600005","2023-08-08T09:30:00",29.799,29.473585,0.203],
    [5734,"urn:WaterMeter:MC0203J22010600005","2023-08-08T09:45:00",30.1,29.453415,0.196],
    [5735,"urn:WaterMeter:MC0203J22010600005","2023-08-08T10:00:00",30.399,29.423546,0.195],
    [5736,"urn:WaterMeter:MC0203J22010600005","2023-08-08T10:15:00",30.6,29.415012,0.197],
    [5737,"urn:WaterMeter:MC0203J22010600005","2023-08-08T10:30:00",30.799,29.38049,0.197],
    [5738,"urn:WaterMeter:MC0203J22010600005","2023-08-08T10:45:00",31,29.318037,0.194],
    [5739,"urn:WaterMeter:MC0203J22010600005","2023-08-08T11:00:00",31.299,29.277308,0.193],
    [5740,"urn:WaterMeter:MC0203J22010600005","2023-08-08T11:15:00",31.5,29.225718,0.193],
    [5741,"urn:WaterMeter:MC0203J22010600005","2023-08-08T11:30:00",31.799,29.164429,0.192],
    [5742,"urn:WaterMeter:MC0203J22010600005","2023-08-08T11:45:00",32.099,29.138014,0.197],
    [5743,"urn:WaterMeter:MC0203J22010600005","2023-08-08T12:00:00",32.4,29.082155,0.208],
    [5744,"urn:WaterMeter:MC0203J22010600005","2023-08-08T12:15:00",32.599,29.011208,0.189],
    [5745,"urn:WaterMeter:MC0203J22010600005","2023-08-08T12:30:00",32.799,28.948757,0.197],
    [5746,"urn:WaterMeter:MC0203J22010600005","2023-08-08T12:45:00",32.9,28.924667,0.191],
    [5747,"urn:WaterMeter:MC0203J22010600005","2023-08-08T13:00:00",33,28.878508,0.196],
    [5748,"urn:WaterMeter:MC0203J22010600005","2023-08-08T13:15:00",33,28.792433,0.189],
    [5749,"urn:WaterMeter:MC0203J22010600005","2023-08-08T13:30:00",32.9,28.718733,0.188],
    [5750,"urn:WaterMeter:MC0203J22010600005","2023-08-08T13:45:00",32.7,28.690804,0.185],
    [5751,"urn:WaterMeter:MC0203J22010600005","2023-08-08T14:00:00",32.7,28.603138,0.188],
    [5752,"urn:WaterMeter:MC0203J22010600005","2023-08-08T14:15:00",32.599,28.582191,0.208],
    [5753,"urn:WaterMeter:MC0203J22010600005","2023-08-08T14:30:00",32.5,28.551935,0.185],
    [5754,"urn:WaterMeter:MC0203J22010600005","2023-08-08T14:45:00",32.4,28.46621,0.194],
    [5755,"urn:WaterMeter:MC0203J22010600005","2023-08-08T15:00:00",32.299,28.425867,0.186],
    [5756,"urn:WaterMeter:MC0203J22010600005","2023-08-08T15:15:00",32.299,28.375053,0.187],
    [5757,"urn:WaterMeter:MC0203J22010600005","2023-08-08T15:30:00",32.2,28.320358,0.185],
    [5758,"urn:WaterMeter:MC0203J22010600005","2023-08-08T15:45:00",32.099,28.275362,0.181],
    [5759,"urn:WaterMeter:MC0203J22010600005","2023-08-08T16:00:00",31.899,28.250149,0.194],
    [5760,"urn:WaterMeter:MC0203J22010600005","2023-08-08T16:15:00",31.799,28.200886,0.183],
    [5761,"urn:WaterMeter:MC0203J22010600005","2023-08-08T16:30:00",31.7,28.146967,0.182],
    [5762,"urn:WaterMeter:MC0203J22010600005","2023-08-08T16:45:00",31.6,28.10779,0.187],
    [5763,"urn:WaterMeter:MC0203J22010600005","2023-08-08T17:00:00",31.5,28.0837,0.186],
    [5764,"urn:WaterMeter:MC0203J22010600005","2023-08-08T17:15:00",31.399,28.05038,0.185],
    [5765,"urn:WaterMeter:MC0203J22010600005","2023-08-08T17:30:00",31.2,28.017408,0.183],
    [5766,"urn:WaterMeter:MC0203J22010600005","2023-08-08T17:45:00",31,27.994097,0.185],
    [5767,"urn:WaterMeter:MC0203J22010600005","2023-08-08T18:00:00",30.799,27.975477,0.189],
    [5768,"urn:WaterMeter:MC0203J22010600005","2023-08-08T18:15:00",30.7,27.94526,0.182],
    [5769,"urn:WaterMeter:MC0203J22010600005","2023-08-08T18:30:00",30.5,27.94138,0.182],
    [5770,"urn:WaterMeter:MC0203J22010600005","2023-08-08T18:45:00",30.2,27.942545,0.181],
    [5771,"urn:WaterMeter:MC0203J22010600005","2023-08-08T19:00:00",30,27.910736,0.182],
    [5772,"urn:WaterMeter:MC0203J22010600005","2023-08-08T19:15:00",29.799,27.890953,0.185],
    [5773,"urn:WaterMeter:MC0203J22010600005","2023-08-08T19:30:00",29.6,27.882032,0.188],
    [5774,"urn:WaterMeter:MC0203J22010600005","2023-08-08T19:45:00",29.399,27.905306,0.18],
    [5775,"urn:WaterMeter:MC0203J22010600005","2023-08-08T20:00:00",29.2,27.889362,0.193],
    [5776,"urn:WaterMeter:MC0203J22010600005","2023-08-08T20:15:00",29.1,27.889751,0.196],
    [5777,"urn:WaterMeter:MC0203J22010600005","2023-08-08T20:30:00",28.899,27.848284,0.186],
    [5778,"urn:WaterMeter:MC0203J22010600005","2023-08-08T20:45:00",28.799,27.84751,0.187],
    [5779,"urn:WaterMeter:MC0203J22010600005","2023-08-08T21:00:00",28.6,27.848673,0.181],
    [5780,"urn:WaterMeter:MC0203J22010600005","2023-08-08T21:15:00",28.5,27.85294,0.182],
    [5781,"urn:WaterMeter:MC0203J22010600005","2023-08-08T21:30:00",28.399,27.859882,0.185],
    [5782,"urn:WaterMeter:MC0203J22010600005","2023-08-08T21:45:00",28.299,27.841263,0.183],
    [5783,"urn:WaterMeter:MC0203J22010600005","2023-08-08T22:00:00",28.299,27.807167,0.183],
    [5784,"urn:WaterMeter:MC0203J22010600005","2023-08-08T22:15:00",28.2,27.806004,0.194],
    [5785,"urn:WaterMeter:MC0203J22010600005","2023-08-08T22:30:00",28.1,27.811007,0.192],
    [5786,"urn:WaterMeter:MC0203J22010600005","2023-08-08T22:45:00",28.1,27.813374,0.181],
    [5787,"urn:WaterMeter:MC0203J22010600005","2023-08-08T23:00:00",28,27.789711,0.185],
    [5788,"urn:WaterMeter:MC0203J22010600005","2023-08-08T23:15:00",27.899,27.791224,0.185],
    [5789,"urn:WaterMeter:MC0203J22010600005","2023-08-08T23:30:00",27.799,27.766825,0.182],
    [5790,"urn:WaterMeter:MC0203J22010600005","2023-08-08T23:45:00",27.7,27.787384,0.185],
    [5791,"urn:WaterMeter:MC0203J22010600005","2023-08-09T00:00:00",27.6,27.769928,0.18],
    [5792,"urn:WaterMeter:MC0203J22010600005","2023-08-09T00:15:00",27.6,27.793978,0.18],
    [5793,"urn:WaterMeter:MC0203J22010600005","2023-08-09T00:30:00",27.5,27.730751,0.181],
    [5794,"urn:WaterMeter:MC0203J22010600005","2023-08-09T00:45:00",27.399,27.726484,0.18],
    [5795,"urn:WaterMeter:MC0203J22010600005","2023-08-09T01:00:00",27.299,27.762133,0.184],
    [5796,"urn:WaterMeter:MC0203J22010600005","2023-08-09T01:15:00",27.2,27.787384,0.18],
    [5797,"urn:WaterMeter:MC0203J22010600005","2023-08-09T01:30:00",27.1,27.744287,0.183],
    [5798,"urn:WaterMeter:MC0203J22010600005","2023-08-09T01:45:00",27,27.738508,0.185],
    [5799,"urn:WaterMeter:MC0203J22010600005","2023-08-09T02:00:00",26.899,27.716785,0.189],
    [5800,"urn:WaterMeter:MC0203J22010600005","2023-08-09T02:15:00",26.799,27.698555,0.169],
    [5801,"urn:WaterMeter:MC0203J22010600005","2023-08-09T02:30:00",26.799,27.738508,0.181],
    [5802,"urn:WaterMeter:MC0203J22010600005","2023-08-09T02:45:00",26.6,27.713644,0.187],
    [5803,"urn:WaterMeter:MC0203J22010600005","2023-08-09T03:00:00",26.6,27.708252,0.196],
    [5804,"urn:WaterMeter:MC0203J22010600005","2023-08-09T03:15:00",26.5,27.726871,0.186],
    [5805,"urn:WaterMeter:MC0203J22010600005","2023-08-09T03:30:00",26.399,27.703947,0.183],
    [5806,"urn:WaterMeter:MC0203J22010600005","2023-08-09T03:45:00",26.299,27.692348,0.18],
    [5807,"urn:WaterMeter:MC0203J22010600005","2023-08-09T04:00:00",26.2,27.684164,0.178],
    [5808,"urn:WaterMeter:MC0203J22010600005","2023-08-09T04:15:00",26.1,27.695024,0.188],
    [5809,"urn:WaterMeter:MC0203J22010600005","2023-08-09T04:30:00",26.1,27.692736,0.178],
    [5810,"urn:WaterMeter:MC0203J22010600005","2023-08-09T04:45:00",26,27.706312,0.181],
    [5811,"urn:WaterMeter:MC0203J22010600005","2023-08-09T05:00:00",25.899,27.644985,0.18],
    [5812,"urn:WaterMeter:MC0203J22010600005","2023-08-09T05:15:00",25.899,27.697779,0.183],
    [5813,"urn:WaterMeter:MC0203J22010600005","2023-08-09T05:30:00",26,27.690409,0.183],
    [5814,"urn:WaterMeter:MC0203J22010600005","2023-08-09T05:45:00",26,27.939442,0.185],
    [5815,"urn:WaterMeter:MC0203J22010600005","2023-08-09T06:00:00",26,28.676064,0.196],
    [5816,"urn:WaterMeter:MC0203J22010600005","2023-08-09T06:15:00",26.1,29.638443,0.205],
    [5817,"urn:WaterMeter:MC0203J22010600005","2023-08-09T06:30:00",26.2,30.19698,0.216],
    [5818,"urn:WaterMeter:MC0203J22010600005","2023-08-09T06:45:00",26.299,30.528286,0.214],
    [5819,"urn:WaterMeter:MC0203J22010600005","2023-08-09T07:00:00",26.299,30.7362,0.221],
    [5820,"urn:WaterMeter:MC0203J22010600005","2023-08-09T07:15:00",26.399,30.875805,0.228],
    [5821,"urn:WaterMeter:MC0203J22010600005","2023-08-09T07:30:00",26.6,31.029064,0.227],
    [5822,"urn:WaterMeter:MC0203J22010600005","2023-08-09T07:45:00",26.799,31.08143,0.222],
    [5823,"urn:WaterMeter:MC0203J22010600005","2023-08-09T08:00:00",27,31.20552,0.235],
    [5824,"urn:WaterMeter:MC0203J22010600005","2023-08-09T08:15:00",27.299,31.03333,0.218],
    [5825,"urn:WaterMeter:MC0203J22010600005","2023-08-09T08:30:00",27.6,30.865719,0.216],
    [5826,"urn:WaterMeter:MC0203J22010600005","2023-08-09T08:45:00",28.1,30.781973,0.219],
    [5827,"urn:WaterMeter:MC0203J22010600005","2023-08-09T09:00:00",28.5,30.698185,0.213],
    [5828,"urn:WaterMeter:MC0203J22010600005","2023-08-09T09:15:00",28.899,30.629139,0.208],
    [5829,"urn:WaterMeter:MC0203J22010600005","2023-08-09T09:30:00",29.299,30.52906,0.207],
    [5830,"urn:WaterMeter:MC0203J22010600005","2023-08-09T09:45:00",29.6,30.494886,0.219],
    [5831,"urn:WaterMeter:MC0203J22010600005","2023-08-09T10:00:00",29.899,30.41657,0.212],
    [5832,"urn:WaterMeter:MC0203J22010600005","2023-08-09T10:15:00",30.1,30.334335,0.223],
    [5833,"urn:WaterMeter:MC0203J22010600005","2023-08-09T10:30:00",30.299,30.262922,0.209],
    [5834,"urn:WaterMeter:MC0203J22010600005","2023-08-09T10:45:00",30.5,30.172194,0.214],
    [5835,"urn:WaterMeter:MC0203J22010600005","2023-08-09T11:00:00",30.799,30.129873,0.209],
    [5836,"urn:WaterMeter:MC0203J22010600005","2023-08-09T11:15:00",31.2,30.053885,0.205],
    [5837,"urn:WaterMeter:MC0203J22010600005","2023-08-09T11:30:00",31.5,30.024792,0.207],
    [5838,"urn:WaterMeter:MC0203J22010600005","2023-08-09T11:45:00",31.799,29.929367,0.214],
    [5839,"urn:WaterMeter:MC0203J22010600005","2023-08-09T12:00:00",32.099,29.88282,0.21],
    [5840,"urn:WaterMeter:MC0203J22010600005","2023-08-09T12:15:00",32.4,29.814548,0.204],
    [5841,"urn:WaterMeter:MC0203J22010600005","2023-08-09T12:30:00",32.599,29.685766,0.202],
    [5842,"urn:WaterMeter:MC0203J22010600005","2023-08-09T12:45:00",32.799,29.6462,0.215],
    [5843,"urn:WaterMeter:MC0203J22010600005","2023-08-09T13:00:00",32.9,29.570948,0.218],
    [5844,"urn:WaterMeter:MC0203J22010600005","2023-08-09T13:15:00",33,29.520521,0.216],
    [5845,"urn:WaterMeter:MC0203J22010600005","2023-08-09T13:30:00",33,29.434408,0.201],
    [5846,"urn:WaterMeter:MC0203J22010600005","2023-08-09T13:45:00",32.9,29.375835,0.202],
    [5847,"urn:WaterMeter:MC0203J22010600005","2023-08-09T14:00:00",32.799,29.326183,0.202],
    [5848,"urn:WaterMeter:MC0203J22010600005","2023-08-09T14:15:00",32.799,29.229984,0.204],
    [5849,"urn:WaterMeter:MC0203J22010600005","2023-08-09T14:30:00",32.799,29.196974,0.2],
    [5850,"urn:WaterMeter:MC0203J22010600005","2023-08-09T14:45:00",32.799,29.143482,0.198],
    [5851,"urn:WaterMeter:MC0203J22010600005","2023-08-09T15:00:00",32.7,29.091852,0.204],
    [5852,"urn:WaterMeter:MC0203J22010600005","2023-08-09T15:15:00",32.7,29.004187,0.2],
    [5853,"urn:WaterMeter:MC0203J22010600005","2023-08-09T15:30:00",32.7,28.98871,0.202],
    [5854,"urn:WaterMeter:MC0203J22010600005","2023-08-09T15:45:00",32.599,28.913458,0.202],
    [5855,"urn:WaterMeter:MC0203J22010600005","2023-08-09T16:00:00",32.599,28.851395,0.2],
    [5856,"urn:WaterMeter:MC0203J22010600005","2023-08-09T16:15:00",32.5,28.813766,0.194],
    [5857,"urn:WaterMeter:MC0203J22010600005","2023-08-09T16:30:00",32.5,28.740454,0.196],
    [5858,"urn:WaterMeter:MC0203J22010600005","2023-08-09T16:45:00",32.4,28.72455,0.2],
    [5859,"urn:WaterMeter:MC0203J22010600005","2023-08-09T17:00:00",32.299,28.666365,0.196],
    [5860,"urn:WaterMeter:MC0203J22010600005","2023-08-09T17:15:00",32.2,28.637274,0.197],
    [5861,"urn:WaterMeter:MC0203J22010600005","2023-08-09T17:30:00",32.2,28.62486,0.199],
    [5862,"urn:WaterMeter:MC0203J22010600005","2023-08-09T17:45:00",32,28.56202,0.202],
    [5863,"urn:WaterMeter:MC0203J22010600005","2023-08-09T18:00:00",31.899,28.53448,0.194],
    [5864,"urn:WaterMeter:MC0203J22010600005","2023-08-09T18:15:00",31.7,28.527496,0.19],
    [5865,"urn:WaterMeter:MC0203J22010600005","2023-08-09T18:30:00",31.5,28.496466,0.197],
    [5866,"urn:WaterMeter:MC0203J22010600005","2023-08-09T18:45:00",31.299,28.46427,0.194],
    [5867,"urn:WaterMeter:MC0203J22010600005","2023-08-09T19:00:00",31.1,28.49375,0.193],
    [5868,"urn:WaterMeter:MC0203J22010600005","2023-08-09T19:15:00",30.799,28.477808,0.203],
    [5869,"urn:WaterMeter:MC0203J22010600005","2023-08-09T19:30:00",30.6,28.468924,0.205],
    [5870,"urn:WaterMeter:MC0203J22010600005","2023-08-09T19:45:00",30.399,28.46776,0.195],
    [5871,"urn:WaterMeter:MC0203J22010600005","2023-08-09T20:00:00",30.2,28.454184,0.197],
    [5872,"urn:WaterMeter:MC0203J22010600005","2023-08-09T20:15:00",30,28.448366,0.195],
    [5873,"urn:WaterMeter:MC0203J22010600005","2023-08-09T20:30:00",29.799,28.469313,0.205],
    [5874,"urn:WaterMeter:MC0203J22010600005","2023-08-09T20:45:00",29.7,28.452206,0.203],
    [5875,"urn:WaterMeter:MC0203J22010600005","2023-08-09T21:00:00",29.5,28.42354,0.192],
    [5876,"urn:WaterMeter:MC0203J22010600005","2023-08-09T21:15:00",29.399,28.43828,0.194],
    [5877,"urn:WaterMeter:MC0203J22010600005","2023-08-09T21:30:00",29.299,28.39247,0.195],
    [5878,"urn:WaterMeter:MC0203J22010600005","2023-08-09T21:45:00",29.2,28.419622,0.196],
    [5879,"urn:WaterMeter:MC0203J22010600005","2023-08-09T22:00:00",29.1,28.40492,0.195],
    [5880,"urn:WaterMeter:MC0203J22010600005","2023-08-09T22:15:00",29,28.399103,0.202],
    [5881,"urn:WaterMeter:MC0203J22010600005","2023-08-09T22:30:00",28.799,28.41617,0.196],
    [5882,"urn:WaterMeter:MC0203J22010600005","2023-08-09T22:45:00",28.7,28.39561,0.194],
    [5883,"urn:WaterMeter:MC0203J22010600005","2023-08-09T23:00:00",28.6,28.389017,0.192],
    [5884,"urn:WaterMeter:MC0203J22010600005","2023-08-09T23:15:00",28.399,28.387854,0.2],
    [5885,"urn:WaterMeter:MC0203J22010600005","2023-08-09T23:30:00",28.299,28.394835,0.192],
    [5886,"urn:WaterMeter:MC0203J22010600005","2023-08-09T23:45:00",28.2,28.41423,0.198],
    [5887,"urn:WaterMeter:MC0203J22010600005","2023-08-10T00:00:00",28,28.391344,0.19],
    [5888,"urn:WaterMeter:MC0203J22010600005","2023-08-10T00:15:00",27.899,28.394447,0.194],
    [5889,"urn:WaterMeter:MC0203J22010600005","2023-08-10T00:30:00",27.799,28.38824,0.194],
    [5890,"urn:WaterMeter:MC0203J22010600005","2023-08-10T00:45:00",27.7,28.411127,0.192],
    [5891,"urn:WaterMeter:MC0203J22010600005","2023-08-10T01:00:00",27.6,28.374626,0.187],
    [5892,"urn:WaterMeter:MC0203J22010600005","2023-08-10T01:15:00",27.5,28.366907,0.19],
    [5893,"urn:WaterMeter:MC0203J22010600005","2023-08-10T01:30:00",27.399,28.371561,0.187],
    [5894,"urn:WaterMeter:MC0203J22010600005","2023-08-10T01:45:00",27.299,28.365355,0.19],
    [5895,"urn:WaterMeter:MC0203J22010600005","2023-08-10T02:00:00",27.2,28.36613,0.199],
    [5896,"urn:WaterMeter:MC0203J22010600005","2023-08-10T02:15:00",27.1,28.376217,0.201],
    [5897,"urn:WaterMeter:MC0203J22010600005","2023-08-10T02:30:00",27,28.345533,0.199],
    [5898,"urn:WaterMeter:MC0203J22010600005","2023-08-10T02:45:00",26.899,28.323034,0.189],
    [5899,"urn:WaterMeter:MC0203J22010600005","2023-08-10T03:00:00",26.799,28.35139,0.199],
    [5900,"urn:WaterMeter:MC0203J22010600005","2023-08-10T03:15:00",26.7,28.36493,0.19],
    [5901,"urn:WaterMeter:MC0203J22010600005","2023-08-10T03:30:00",26.6,28.330055,0.191],
    [5902,"urn:WaterMeter:MC0203J22010600005","2023-08-10T03:45:00",26.5,28.33122,0.194],
    [5903,"urn:WaterMeter:MC0203J22010600005","2023-08-10T04:00:00",26.399,28.365355,0.194],
    [5904,"urn:WaterMeter:MC0203J22010600005","2023-08-10T04:15:00",26.299,28.3626,0.189],
    [5905,"urn:WaterMeter:MC0203J22010600005","2023-08-10T04:30:00",26.299,28.354843,0.201],
    [5906,"urn:WaterMeter:MC0203J22010600005","2023-08-10T04:45:00",26.2,28.329668,0.191],
    [5907,"urn:WaterMeter:MC0203J22010600005","2023-08-10T05:00:00",26.1,28.339365,0.191],
    [5908,"urn:WaterMeter:MC0203J22010600005","2023-08-10T05:15:00",26.1,28.342817,0.192],
    [5909,"urn:WaterMeter:MC0203J22010600005","2023-08-10T05:30:00",26.1,28.382383,0.191],
    [5910,"urn:WaterMeter:MC0203J22010600005","2023-08-10T05:45:00",26.1,28.79282,0.211],
    [5911,"urn:WaterMeter:MC0203J22010600005","2023-08-10T06:00:00",26.1,29.62797,0.216],
    [5912,"urn:WaterMeter:MC0203J22010600005","2023-08-10T06:15:00",26.2,30.331232,0.221],
    [5913,"urn:WaterMeter:MC0203J22010600005","2023-08-10T06:30:00",26.299,30.712538,0.234],
    [5914,"urn:WaterMeter:MC0203J22010600005","2023-08-10T06:45:00",26.399,30.914984,0.225],
    [5915,"urn:WaterMeter:MC0203J22010600005","2023-08-10T07:00:00",26.5,31.134186,0.241],
    [5916,"urn:WaterMeter:MC0203J22010600005","2023-08-10T07:15:00",26.7,31.252457,0.229],
    [5917,"urn:WaterMeter:MC0203J22010600005","2023-08-10T07:30:00",26.899,31.33473,0.238],
    [5918,"urn:WaterMeter:MC0203J22010600005","2023-08-10T07:45:00",27,31.424334,0.231],
    [5919,"urn:WaterMeter:MC0203J22010600005","2023-08-10T08:00:00",27.2,31.531008,0.23],
    [5920,"urn:WaterMeter:MC0203J22010600005","2023-08-10T08:15:00",27.5,31.321503,0.228],
    [5921,"urn:WaterMeter:MC0203J22010600005","2023-08-10T08:30:00",27.799,31.089926,0.226],
    [5922,"urn:WaterMeter:MC0203J22010600005","2023-08-10T08:45:00",28.2,30.948769,0.236],
    [5923,"urn:WaterMeter:MC0203J22010600005","2023-08-10T09:00:00",28.6,30.846325,0.222],
    [5924,"urn:WaterMeter:MC0203J22010600005","2023-08-10T09:15:00",29,30.80059,0.22],
    [5925,"urn:WaterMeter:MC0203J22010600005","2023-08-10T09:30:00",29.399,30.699348,0.229],
    [5926,"urn:WaterMeter:MC0203J22010600005","2023-08-10T09:45:00",29.7,30.632591,0.216],
    [5927,"urn:WaterMeter:MC0203J22010600005","2023-08-10T10:00:00",30.1,30.556562,0.219],
    [5928,"urn:WaterMeter:MC0203J22010600005","2023-08-10T10:15:00",30.399,30.491434,0.222],
    [5929,"urn:WaterMeter:MC0203J22010600005","2023-08-10T10:30:00",30.7,30.44062,0.217],
    [5930,"urn:WaterMeter:MC0203J22010600005","2023-08-10T10:45:00",31,30.351751,0.218],
    [5931,"urn:WaterMeter:MC0203J22010600005","2023-08-10T11:00:00",31.399,30.297485,0.211],
    [5932,"urn:WaterMeter:MC0203J22010600005","2023-08-10T11:15:00",31.7,30.238913,0.208],
    [5933,"urn:WaterMeter:MC0203J22010600005","2023-08-10T11:30:00",32.2,30.17064,0.217],
    [5934,"urn:WaterMeter:MC0203J22010600005","2023-08-10T11:45:00",32.599,30.097717,0.209],
    [5935,"urn:WaterMeter:MC0203J22010600005","2023-08-10T12:00:00",33,29.995699,0.212],
    [5936,"urn:WaterMeter:MC0203J22010600005","2023-08-10T12:15:00",33.299,29.946823,0.208],
    [5937,"urn:WaterMeter:MC0203J22010600005","2023-08-10T12:30:00",33.599,29.86649,0.204],
    [5938,"urn:WaterMeter:MC0203J22010600005","2023-08-10T12:45:00",33.799,29.760593,0.209],
    [5939,"urn:WaterMeter:MC0203J22010600005","2023-08-10T13:00:00",33.9,29.67956,0.211],
    [5940,"urn:WaterMeter:MC0203J22010600005","2023-08-10T13:15:00",34,29.61284,0.203],
    [5941,"urn:WaterMeter:MC0203J22010600005","2023-08-10T13:30:00",34,29.527464,0.209],
    [5942,"urn:WaterMeter:MC0203J22010600005","2023-08-10T13:45:00",34.099,29.460358,0.211],
    [5943,"urn:WaterMeter:MC0203J22010600005","2023-08-10T14:00:00",34.099,29.390535,0.213],
    [5944,"urn:WaterMeter:MC0203J22010600005","2023-08-10T14:15:00",34.099,29.332739,0.213],
    [5945,"urn:WaterMeter:MC0203J22010600005","2023-08-10T14:30:00",34.099,29.241234,0.206],
    [5946,"urn:WaterMeter:MC0203J22010600005","2023-08-10T14:45:00",34.099,29.18844,0.202],
    [5947,"urn:WaterMeter:MC0203J22010600005","2023-08-10T15:00:00",34.099,29.103529,0.204],
    [5948,"urn:WaterMeter:MC0203J22010600005","2023-08-10T15:15:00",34.099,29.067066,0.201],
    [5949,"urn:WaterMeter:MC0203J22010600005","2023-08-10T15:30:00",34.099,28.976685,0.232],
    [5950,"urn:WaterMeter:MC0203J22010600005","2023-08-10T15:45:00",34.099,28.923544,0.2],
    [5951,"urn:WaterMeter:MC0203J22010600005","2023-08-10T16:00:00",34,28.847088,0.212],
    [5952,"urn:WaterMeter:MC0203J22010600005","2023-08-10T16:15:00",33.9,28.832386,0.199],
    [5953,"urn:WaterMeter:MC0203J22010600005","2023-08-10T16:30:00",33.9,28.727266,0.194],
    [5954,"urn:WaterMeter:MC0203J22010600005","2023-08-10T16:45:00",33.799,28.701664,0.21],
    [5955,"urn:WaterMeter:MC0203J22010600005","2023-08-10T17:00:00",33.7,28.654303,0.196],
    [5956,"urn:WaterMeter:MC0203J22010600005","2023-08-10T17:15:00",33.599,28.586071,0.198],
    [5957,"urn:WaterMeter:MC0203J22010600005","2023-08-10T17:30:00",33.5,28.545729,0.212],
    [5958,"urn:WaterMeter:MC0203J22010600005","2023-08-10T17:45:00",33.4,28.50112,0.2],
    [5959,"urn:WaterMeter:MC0203J22010600005","2023-08-10T18:00:00",33.299,28.46621,0.195],
    [5960,"urn:WaterMeter:MC0203J22010600005","2023-08-10T18:15:00",33.099,28.458063,0.199],
    [5961,"urn:WaterMeter:MC0203J22010600005","2023-08-10T18:30:00",32.9,28.423927,0.209],
    [5962,"urn:WaterMeter:MC0203J22010600005","2023-08-10T18:45:00",32.799,28.420399,0.198],
    [5963,"urn:WaterMeter:MC0203J22010600005","2023-08-10T19:00:00",32.599,28.403719,0.203],
    [5964,"urn:WaterMeter:MC0203J22010600005","2023-08-10T19:15:00",32.4,28.382772,0.199],
    [5965,"urn:WaterMeter:MC0203J22010600005","2023-08-10T19:30:00",32.2,28.35523,0.199],
    [5966,"urn:WaterMeter:MC0203J22010600005","2023-08-10T19:45:00",32,28.378544,0.208],
    [5967,"urn:WaterMeter:MC0203J22010600005","2023-08-10T20:00:00",31.7,28.360312,0.197],
    [5968,"urn:WaterMeter:MC0203J22010600005","2023-08-10T20:15:00",31.5,28.337814,0.208],
    [5969,"urn:WaterMeter:MC0203J22010600005","2023-08-10T20:30:00",31.299,28.35139,0.219],
    [5970,"urn:WaterMeter:MC0203J22010600005","2023-08-10T20:45:00",31.2,28.34243,0.202],
    [5971,"urn:WaterMeter:MC0203J22010600005","2023-08-10T21:00:00",31,28.380484,0.214],
    [5972,"urn:WaterMeter:MC0203J22010600005","2023-08-10T21:15:00",30.799,28.326138,0.2],
    [5973,"urn:WaterMeter:MC0203J22010600005","2023-08-10T21:30:00",30.6,28.320358,0.21],
    [5974,"urn:WaterMeter:MC0203J22010600005","2023-08-10T21:45:00",30.399,28.309885,0.204],
    [5975,"urn:WaterMeter:MC0203J22010600005","2023-08-10T22:00:00",30.299,28.326952,0.195],
    [5976,"urn:WaterMeter:MC0203J22010600005","2023-08-10T22:15:00",30.1,28.345146,0.199],
    [5977,"urn:WaterMeter:MC0203J22010600005","2023-08-10T22:30:00",29.899,28.366907,0.195],
    [5978,"urn:WaterMeter:MC0203J22010600005","2023-08-10T22:45:00",29.7,28.370785,0.2],
    [5979,"urn:WaterMeter:MC0203J22010600005","2023-08-10T23:00:00",29.5,28.331995,0.195],
    [5980,"urn:WaterMeter:MC0203J22010600005","2023-08-10T23:15:00",29.299,28.376604,0.199],
    [5981,"urn:WaterMeter:MC0203J22010600005","2023-08-10T23:30:00",29.1,28.34243,0.199],
    [5982,"urn:WaterMeter:MC0203J22010600005","2023-08-10T23:45:00",29,28.378931,0.197],
    [5983,"urn:WaterMeter:MC0203J22010600005","2023-08-11T00:00:00",28.799,28.375053,0.201],
    [5984,"urn:WaterMeter:MC0203J22010600005","2023-08-11T00:15:00",28.7,28.337814,0.199],
    [5985,"urn:WaterMeter:MC0203J22010600005","2023-08-11T00:30:00",28.5,28.331995,0.2],
    [5986,"urn:WaterMeter:MC0203J22010600005","2023-08-11T00:45:00",28.399,28.361437,0.197],
    [5987,"urn:WaterMeter:MC0203J22010600005","2023-08-11T01:00:00",28.2,28.381609,0.198],
    [5988,"urn:WaterMeter:MC0203J22010600005","2023-08-11T01:15:00",28.1,28.381996,0.198],
    [5989,"urn:WaterMeter:MC0203J22010600005","2023-08-11T01:30:00",28,28.33665,0.2],
    [5990,"urn:WaterMeter:MC0203J22010600005","2023-08-11T01:45:00",27.899,28.407637,0.197],
    [5991,"urn:WaterMeter:MC0203J22010600005","2023-08-11T02:00:00",27.799,28.363764,0.194],
    [5992,"urn:WaterMeter:MC0203J22010600005","2023-08-11T02:15:00",27.7,28.378544,0.205],
    [5993,"urn:WaterMeter:MC0203J22010600005","2023-08-11T02:30:00",27.7,28.376991,0.2],
    [5994,"urn:WaterMeter:MC0203J22010600005","2023-08-11T02:45:00",27.799,28.376217,0.194],
    [5995,"urn:WaterMeter:MC0203J22010600005","2023-08-11T03:00:00",27.799,28.372725,0.196],
    [5996,"urn:WaterMeter:MC0203J22010600005","2023-08-11T03:15:00",27.799,28.357597,0.195],
    [5997,"urn:WaterMeter:MC0203J22010600005","2023-08-11T03:30:00",27.799,28.346348,0.201],
    [5998,"urn:WaterMeter:MC0203J22010600005","2023-08-11T03:45:00",27.799,28.340528,0.195],
    [5999,"urn:WaterMeter:MC0203J22010600005","2023-08-11T04:00:00",27.899,28.334673,0.198],
    [6000,"urn:WaterMeter:MC0203J22010600005","2023-08-11T04:15:00",27.899,28.328505,0.198],
    [6001,"urn:WaterMeter:MC0203J22010600005","2023-08-11T04:30:00",27.899,28.314152,0.191],
    [6002,"urn:WaterMeter:MC0203J22010600005","2023-08-11T04:45:00",27.899,28.298248,0.198],
    [6003,"urn:WaterMeter:MC0203J22010600005","2023-08-11T05:00:00",27.899,28.3242,0.195],
    [6004,"urn:WaterMeter:MC0203J22010600005","2023-08-11T05:15:00",28,28.305191,0.191],
    [6005,"urn:WaterMeter:MC0203J22010600005","2023-08-11T05:30:00",28,28.386301,0.196],
    [6006,"urn:WaterMeter:MC0203J22010600005","2023-08-11T05:45:00",28,28.790066,0.215],
    [6007,"urn:WaterMeter:MC0203J22010600005","2023-08-11T06:00:00",28,29.638056,0.217],
    [6008,"urn:WaterMeter:MC0203J22010600005","2023-08-11T06:15:00",28.1,30.350239,0.224],
    [6009,"urn:WaterMeter:MC0203J22010600005","2023-08-11T06:30:00",28.1,30.74551,0.234],
    [6010,"urn:WaterMeter:MC0203J22010600005","2023-08-11T06:45:00",28.2,31.009668,0.231],
    [6011,"urn:WaterMeter:MC0203J22010600005","2023-08-11T07:00:00",28.299,31.167118,0.235],
    [6012,"urn:WaterMeter:MC0203J22010600005","2023-08-11T07:15:00",28.399,31.285467,0.231],
    [6013,"urn:WaterMeter:MC0203J22010600005","2023-08-11T07:30:00",28.399,31.40684,0.236],
    [6014,"urn:WaterMeter:MC0203J22010600005","2023-08-11T07:45:00",28.6,31.548075,0.235],
    [6015,"urn:WaterMeter:MC0203J22010600005","2023-08-11T08:00:00",28.799,31.596561,0.234],
    [6016,"urn:WaterMeter:MC0203J22010600005","2023-08-11T08:15:00",28.899,31.35839,0.231],
    [6017,"urn:WaterMeter:MC0203J22010600005","2023-08-11T08:30:00",29.2,31.115528,0.224],
    [6018,"urn:WaterMeter:MC0203J22010600005","2023-08-11T08:45:00",29.7,31.001097,0.236],
    [6019,"urn:WaterMeter:MC0203J22010600005","2023-08-11T09:00:00",30,30.918125,0.23],
    [6020,"urn:WaterMeter:MC0203J22010600005","2023-08-11T09:15:00",30.399,30.805983,0.222],
    [6021,"urn:WaterMeter:MC0203J22010600005","2023-08-11T09:30:00",30.7,30.742407,0.223],
    [6022,"urn:WaterMeter:MC0203J22010600005","2023-08-11T09:45:00",31,30.687712,0.222],
    [6023,"urn:WaterMeter:MC0203J22010600005","2023-08-11T10:00:00",31.299,30.596169,0.224],
    [6024,"urn:WaterMeter:MC0203J22010600005","2023-08-11T10:15:00",31.5,30.50501,0.229],
    [6025,"urn:WaterMeter:MC0203J22010600005","2023-08-11T10:30:00",31.6,30.461954,0.219],
    [6026,"urn:WaterMeter:MC0203J22010600005","2023-08-11T10:45:00",31.799,30.400627,0.223],
    [6027,"urn:WaterMeter:MC0203J22010600005","2023-08-11T11:00:00",32,30.328516,0.217],
    [6028,"urn:WaterMeter:MC0203J22010600005","2023-08-11T11:15:00",32.299,30.266066,0.211],
    [6029,"urn:WaterMeter:MC0203J22010600005","2023-08-11T11:30:00",32.599,30.224133,0.222],
    [6030,"urn:WaterMeter:MC0203J22010600005","2023-08-11T11:45:00",32.9,30.13224,0.217],
    [6031,"urn:WaterMeter:MC0203J22010600005","2023-08-11T12:00:00",33.099,30.070913,0.209],
    [6032,"urn:WaterMeter:MC0203J22010600005","2023-08-11T12:15:00",33.4,29.98794,0.211],
    [6033,"urn:WaterMeter:MC0203J22010600005","2023-08-11T12:30:00",33.5,29.909584,0.212],
    [6034,"urn:WaterMeter:MC0203J22010600005","2023-08-11T12:45:00",33.599,29.846745,0.212],
    [6035,"urn:WaterMeter:MC0203J22010600005","2023-08-11T13:00:00",33.599,29.798994,0.214],
    [6036,"urn:WaterMeter:MC0203J22010600005","2023-08-11T13:15:00",33.599,29.716022,0.222],
    [6037,"urn:WaterMeter:MC0203J22010600005","2023-08-11T13:30:00",33.599,29.647753,0.215],
    [6038,"urn:WaterMeter:MC0203J22010600005","2023-08-11T13:45:00",33.5,29.605045,0.212],
    [6039,"urn:WaterMeter:MC0203J22010600005","2023-08-11T14:00:00",33.4,29.501514,0.205],
    [6040,"urn:WaterMeter:MC0203J22010600005","2023-08-11T14:15:00",33.299,29.487898,0.211],
    [6041,"urn:WaterMeter:MC0203J22010600005","2023-08-11T14:30:00",33.2,29.399885,0.225],
    [6042,"urn:WaterMeter:MC0203J22010600005","2023-08-11T14:45:00",33.099,29.336657,0.208],
    [6043,"urn:WaterMeter:MC0203J22010600005","2023-08-11T15:00:00",33,29.309504,0.223],
    [6044,"urn:WaterMeter:MC0203J22010600005","2023-08-11T15:15:00",32.9,29.2346,0.209],
    [6045,"urn:WaterMeter:MC0203J22010600005","2023-08-11T15:30:00",32.7,29.21408,0.213],
    [6046,"urn:WaterMeter:MC0203J22010600005","2023-08-11T15:45:00",32.599,29.152792,0.223],
    [6047,"urn:WaterMeter:MC0203J22010600005","2023-08-11T16:00:00",32.4,29.093056,0.215],
    [6048,"urn:WaterMeter:MC0203J22010600005","2023-08-11T16:15:00",32.2,29.037973,0.207],
    [6049,"urn:WaterMeter:MC0203J22010600005","2023-08-11T16:30:00",32.099,29.022419,0.206],
    [6050,"urn:WaterMeter:MC0203J22010600005","2023-08-11T16:45:00",31.899,28.991426,0.211],
    [6051,"urn:WaterMeter:MC0203J22010600005","2023-08-11T17:00:00",31.799,28.924667,0.207],
    [6052,"urn:WaterMeter:MC0203J22010600005","2023-08-11T17:15:00",31.6,28.91307,0.214],
    [6053,"urn:WaterMeter:MC0203J22010600005","2023-08-11T17:30:00",31.5,28.875444,0.203],
    [6054,"urn:WaterMeter:MC0203J22010600005","2023-08-11T17:45:00",31.299,28.866095,0.205],
    [6055,"urn:WaterMeter:MC0203J22010600005","2023-08-11T18:00:00",31.1,28.809849,0.204],
    [6056,"urn:WaterMeter:MC0203J22010600005","2023-08-11T18:15:00",30.899,28.793596,0.206],
    [6057,"urn:WaterMeter:MC0203J22010600005","2023-08-11T18:30:00",30.7,28.793596,0.213],
    [6058,"urn:WaterMeter:MC0203J22010600005","2023-08-11T18:45:00",30.5,28.776917,0.196],
    [6059,"urn:WaterMeter:MC0203J22010600005","2023-08-11T19:00:00",30.299,28.772223,0.203],
    [6060,"urn:WaterMeter:MC0203J22010600005","2023-08-11T19:15:00",30.1,28.782736,0.219],
    [6061,"urn:WaterMeter:MC0203J22010600005","2023-08-11T19:30:00",30,28.770285,0.211],
    [6062,"urn:WaterMeter:MC0203J22010600005","2023-08-11T19:45:00",29.799,28.773813,0.204],
    [6063,"urn:WaterMeter:MC0203J22010600005","2023-08-11T20:00:00",29.7,28.753643,0.21],
    [6064,"urn:WaterMeter:MC0203J22010600005","2023-08-11T20:15:00",29.5,28.788902,0.2],
    [6065,"urn:WaterMeter:MC0203J22010600005","2023-08-11T20:30:00",29.399,28.736576,0.204],
    [6066,"urn:WaterMeter:MC0203J22010600005","2023-08-11T20:45:00",29.299,28.738514,0.217],
    [6067,"urn:WaterMeter:MC0203J22010600005","2023-08-11T21:00:00",29.2,28.73541,0.2],
    [6068,"urn:WaterMeter:MC0203J22010600005","2023-08-11T21:15:00",29.1,28.73735,0.202],
    [6069,"urn:WaterMeter:MC0203J22010600005","2023-08-11T21:30:00",29,28.72843,0.2],
    [6070,"urn:WaterMeter:MC0203J22010600005","2023-08-11T21:45:00",28.899,28.745497,0.201],
    [6071,"urn:WaterMeter:MC0203J22010600005","2023-08-11T22:00:00",28.799,28.740843,0.217],
    [6072,"urn:WaterMeter:MC0203J22010600005","2023-08-11T22:15:00",28.7,28.703566,0.199],
    [6073,"urn:WaterMeter:MC0203J22010600005","2023-08-11T22:30:00",28.6,28.712486,0.203],
    [6074,"urn:WaterMeter:MC0203J22010600005","2023-08-11T22:45:00",28.5,28.701664,0.22],
    [6075,"urn:WaterMeter:MC0203J22010600005","2023-08-11T23:00:00",28.399,28.693867,0.201],
    [6076,"urn:WaterMeter:MC0203J22010600005","2023-08-11T23:15:00",28.299,28.721447,0.197],
    [6077,"urn:WaterMeter:MC0203J22010600005","2023-08-11T23:30:00",28.2,28.666365,0.209],
    [6078,"urn:WaterMeter:MC0203J22010600005","2023-08-11T23:45:00",28,28.683393,0.202],
    [6079,"urn:WaterMeter:MC0203J22010600005","2023-08-12T00:00:00",27.899,28.70244,0.208],
    [6080,"urn:WaterMeter:MC0203J22010600005","2023-08-12T00:15:00",27.799,28.7005,0.209],
    [6081,"urn:WaterMeter:MC0203J22010600005","2023-08-12T00:30:00",27.7,28.69348,0.204],
    [6082,"urn:WaterMeter:MC0203J22010600005","2023-08-12T00:45:00",27.5,28.671757,0.202],
    [6083,"urn:WaterMeter:MC0203J22010600005","2023-08-12T01:00:00",27.399,28.710936,0.204],
    [6084,"urn:WaterMeter:MC0203J22010600005","2023-08-12T01:15:00",27.299,28.686148,0.2],
    [6085,"urn:WaterMeter:MC0203J22010600005","2023-08-12T01:30:00",27.1,28.659771,0.199],
    [6086,"urn:WaterMeter:MC0203J22010600005","2023-08-12T01:45:00",27,28.691929,0.2],
    [6087,"urn:WaterMeter:MC0203J22010600005","2023-08-12T02:00:00",26.899,28.650074,0.199],
    [6088,"urn:WaterMeter:MC0203J22010600005","2023-08-12T02:15:00",26.799,28.690804,0.204],
    [6089,"urn:WaterMeter:MC0203J22010600005","2023-08-12T02:30:00",26.7,28.68417,0.207],
    [6090,"urn:WaterMeter:MC0203J22010600005","2023-08-12T02:45:00",26.6,28.697784,0.202],
    [6091,"urn:WaterMeter:MC0203J22010600005","2023-08-12T03:00:00",26.5,28.676064,0.205],
    [6092,"urn:WaterMeter:MC0203J22010600005","2023-08-12T03:15:00",26.399,28.669857,0.199],
    [6093,"urn:WaterMeter:MC0203J22010600005","2023-08-12T03:30:00",26.299,28.651237,0.199],
    [6094,"urn:WaterMeter:MC0203J22010600005","2023-08-12T03:45:00",26.2,28.670631,0.2],
    [6095,"urn:WaterMeter:MC0203J22010600005","2023-08-12T04:00:00",26,28.634907,0.207],
    [6096,"urn:WaterMeter:MC0203J22010600005","2023-08-12T04:15:00",25.899,28.657831,0.204],
    [6097,"urn:WaterMeter:MC0203J22010600005","2023-08-12T04:30:00",25.899,28.688087,0.199],
    [6098,"urn:WaterMeter:MC0203J22010600005","2023-08-12T04:45:00",25.799,28.645767,0.2],
    [6099,"urn:WaterMeter:MC0203J22010600005","2023-08-12T05:00:00",25.7,28.649298,0.197],
    [6100,"urn:WaterMeter:MC0203J22010600005","2023-08-12T05:15:00",25.6,28.681494,0.201],
    [6101,"urn:WaterMeter:MC0203J22010600005","2023-08-12T05:30:00",25.5,28.643091,0.202],
    [6102,"urn:WaterMeter:MC0203J22010600005","2023-08-12T05:45:00",25.5,28.67486,0.2],
    [6103,"urn:WaterMeter:MC0203J22010600005","2023-08-12T06:00:00",25.5,28.667141,0.206],
    [6104,"urn:WaterMeter:MC0203J22010600005","2023-08-12T06:15:00",25.6,28.630291,0.201],
    [6105,"urn:WaterMeter:MC0203J22010600005","2023-08-12T06:30:00",25.6,28.638048,0.193],
    [6106,"urn:WaterMeter:MC0203J22010600005","2023-08-12T06:45:00",25.7,28.580252,0.197],
    [6107,"urn:WaterMeter:MC0203J22010600005","2023-08-12T07:00:00",25.899,28.570942,0.195],
    [6108,"urn:WaterMeter:MC0203J22010600005","2023-08-12T07:15:00",26,28.543013,0.197],
    [6109,"urn:WaterMeter:MC0203J22010600005","2023-08-12T07:30:00",26.2,28.493362,0.198],
    [6110,"urn:WaterMeter:MC0203J22010600005","2023-08-12T07:45:00",26.5,28.446037,0.205],
    [6111,"urn:WaterMeter:MC0203J22010600005","2023-08-12T08:00:00",26.799,28.445263,0.206],
    [6112,"urn:WaterMeter:MC0203J22010600005","2023-08-12T08:15:00",27.1,28.393633,0.199],
    [6113,"urn:WaterMeter:MC0203J22010600005","2023-08-12T08:30:00",27.399,28.34596,0.192],
    [6114,"urn:WaterMeter:MC0203J22010600005","2023-08-12T08:45:00",27.799,28.286184,0.196],
    [6115,"urn:WaterMeter:MC0203J22010600005","2023-08-12T09:00:00",28.299,28.232306,0.188],
    [6116,"urn:WaterMeter:MC0203J22010600005","2023-08-12T09:15:00",28.799,28.181103,0.2],
    [6117,"urn:WaterMeter:MC0203J22010600005","2023-08-12T09:30:00",29.2,28.102709,0.189],
    [6118,"urn:WaterMeter:MC0203J22010600005","2023-08-12T09:45:00",29.5,28.0818,0.207],
    [6119,"urn:WaterMeter:MC0203J22010600005","2023-08-12T10:00:00",29.899,28.003056,0.185],
    [6120,"urn:WaterMeter:MC0203J22010600005","2023-08-12T10:15:00",30.1,27.94138,0.187],
    [6121,"urn:WaterMeter:MC0203J22010600005","2023-08-12T10:30:00",30.299,27.879665,0.193],
    [6122,"urn:WaterMeter:MC0203J22010600005","2023-08-12T10:45:00",30.6,27.782303,0.187],
    [6123,"urn:WaterMeter:MC0203J22010600005","2023-08-12T11:00:00",30.899,27.69425,0.182],
    [6124,"urn:WaterMeter:MC0203J22010600005","2023-08-12T11:15:00",31.299,27.643473,0.191],
    [6125,"urn:WaterMeter:MC0203J22010600005","2023-08-12T11:30:00",31.7,27.586025,0.183],
    [6126,"urn:WaterMeter:MC0203J22010600005","2023-08-12T11:45:00",32.099,27.524387,0.179],
    [6127,"urn:WaterMeter:MC0203J22010600005","2023-08-12T12:00:00",32.299,27.436335,0.188],
    [6128,"urn:WaterMeter:MC0203J22010600005","2023-08-12T12:15:00",32.5,27.336218,0.191],
    [6129,"urn:WaterMeter:MC0203J22010600005","2023-08-12T12:30:00",32.7,27.257086,0.18],
    [6130,"urn:WaterMeter:MC0203J22010600005","2023-08-12T12:45:00",32.799,27.132181,0.185],
    [6131,"urn:WaterMeter:MC0203J22010600005","2023-08-12T13:00:00",32.9,27.06783,0.182],
    [6132,"urn:WaterMeter:MC0203J22010600005","2023-08-12T13:15:00",33,26.967712,0.186],
    [6133,"urn:WaterMeter:MC0203J22010600005","2023-08-12T13:30:00",33,26.891724,0.178],
    [6134,"urn:WaterMeter:MC0203J22010600005","2023-08-12T13:45:00",33,26.825779,0.175],
    [6135,"urn:WaterMeter:MC0203J22010600005","2023-08-12T14:00:00",32.9,26.72415,0.182],
    [6136,"urn:WaterMeter:MC0203J22010600005","2023-08-12T14:15:00",32.799,26.66709,0.179],
    [6137,"urn:WaterMeter:MC0203J22010600005","2023-08-12T14:30:00",32.799,26.575584,0.175],
    [6138,"urn:WaterMeter:MC0203J22010600005","2023-08-12T14:45:00",32.7,26.518562,0.18],
    [6139,"urn:WaterMeter:MC0203J22010600005","2023-08-12T15:00:00",32.599,26.411116,0.173],
    [6140,"urn:WaterMeter:MC0203J22010600005","2023-08-12T15:15:00",32.599,26.363016,0.18],
    [6141,"urn:WaterMeter:MC0203J22010600005","2023-08-12T15:30:00",32.5,26.269493,0.171],
    [6142,"urn:WaterMeter:MC0203J22010600005","2023-08-12T15:45:00",32.4,26.212084,0.181],
    [6143,"urn:WaterMeter:MC0203J22010600005","2023-08-12T16:00:00",32.299,26.13687,0.167],
    [6144,"urn:WaterMeter:MC0203J22010600005","2023-08-12T16:15:00",32.2,26.086443,0.176],
    [6145,"urn:WaterMeter:MC0203J22010600005","2023-08-12T16:30:00",32.2,26.02942,0.17],
    [6146,"urn:WaterMeter:MC0203J22010600005","2023-08-12T16:45:00",32,25.966969,0.18],
    [6147,"urn:WaterMeter:MC0203J22010600005","2023-08-12T17:00:00",31.899,25.921585,0.168],
    [6148,"urn:WaterMeter:MC0203J22010600005","2023-08-12T17:15:00",31.799,25.85603,0.177],
    [6149,"urn:WaterMeter:MC0203J22010600005","2023-08-12T17:30:00",31.7,25.862974,0.17],
    [6150,"urn:WaterMeter:MC0203J22010600005","2023-08-12T17:45:00",31.6,25.792027,0.169],
    [6151,"urn:WaterMeter:MC0203J22010600005","2023-08-12T18:00:00",31.399,25.777674,0.168],
    [6152,"urn:WaterMeter:MC0203J22010600005","2023-08-12T18:15:00",31.299,25.7563,0.17],
    [6153,"urn:WaterMeter:MC0203J22010600005","2023-08-12T18:30:00",31.1,25.715221,0.169],
    [6154,"urn:WaterMeter:MC0203J22010600005","2023-08-12T18:45:00",30.799,25.712894,0.188],
    [6155,"urn:WaterMeter:MC0203J22010600005","2023-08-12T19:00:00",30.6,25.729963,0.169],
    [6156,"urn:WaterMeter:MC0203J22010600005","2023-08-12T19:15:00",30.299,25.696215,0.171],
    [6157,"urn:WaterMeter:MC0203J22010600005","2023-08-12T19:30:00",30.1,25.735743,0.168],
    [6158,"urn:WaterMeter:MC0203J22010600005","2023-08-12T19:45:00",29.899,25.714447,0.169],
    [6159,"urn:WaterMeter:MC0203J22010600005","2023-08-12T20:00:00",29.7,25.753237,0.167],
    [6160,"urn:WaterMeter:MC0203J22010600005","2023-08-12T20:15:00",29.5,25.727634,0.172],
    [6161,"urn:WaterMeter:MC0203J22010600005","2023-08-12T20:30:00",29.399,25.711731,0.169],
    [6162,"urn:WaterMeter:MC0203J22010600005","2023-08-12T20:45:00",29.2,25.724493,0.17],
    [6163,"urn:WaterMeter:MC0203J22010600005","2023-08-12T21:00:00",29.1,25.693888,0.17],
    [6164,"urn:WaterMeter:MC0203J22010600005","2023-08-12T21:15:00",29,25.707426,0.173],
    [6165,"urn:WaterMeter:MC0203J22010600005","2023-08-12T21:30:00",28.799,25.685703,0.166],
    [6166,"urn:WaterMeter:MC0203J22010600005","2023-08-12T21:45:00",28.7,25.71596,0.176],
    [6167,"urn:WaterMeter:MC0203J22010600005","2023-08-12T22:00:00",28.6,25.707813,0.165],
    [6168,"urn:WaterMeter:MC0203J22010600005","2023-08-12T22:15:00",28.5,25.715221,0.169],
    [6169,"urn:WaterMeter:MC0203J22010600005","2023-08-12T22:30:00",28.399,25.717123,0.169],
    [6170,"urn:WaterMeter:MC0203J22010600005","2023-08-12T22:45:00",28.299,25.703585,0.166],
    [6171,"urn:WaterMeter:MC0203J22010600005","2023-08-12T23:00:00",28.2,25.666307,0.166],
    [6172,"urn:WaterMeter:MC0203J22010600005","2023-08-12T23:15:00",28.1,25.712894,0.167],
    [6173,"urn:WaterMeter:MC0203J22010600005","2023-08-12T23:30:00",28.1,25.705873,0.172],
    [6174,"urn:WaterMeter:MC0203J22010600005","2023-08-12T23:45:00",27.899,25.711344,0.168],
    [6175,"urn:WaterMeter:MC0203J22010600005","2023-08-13T00:00:00",27.799,25.71596,0.166],
    [6176,"urn:WaterMeter:MC0203J22010600005","2023-08-13T00:15:00",27.7,25.692724,0.169],
    [6177,"urn:WaterMeter:MC0203J22010600005","2023-08-13T00:30:00",27.7,25.712118,0.17],
    [6178,"urn:WaterMeter:MC0203J22010600005","2023-08-13T00:45:00",27.6,25.68803,0.168],
    [6179,"urn:WaterMeter:MC0203J22010600005","2023-08-13T01:00:00",27.5,25.68648,0.168],
    [6180,"urn:WaterMeter:MC0203J22010600005","2023-08-13T01:15:00",27.399,25.731514,0.168],
    [6181,"urn:WaterMeter:MC0203J22010600005","2023-08-13T01:30:00",27.299,25.653934,0.164],
    [6182,"urn:WaterMeter:MC0203J22010600005","2023-08-13T01:45:00",27.1,25.69156,0.172],
    [6183,"urn:WaterMeter:MC0203J22010600005","2023-08-13T02:00:00",27,25.686867,0.175],
    [6184,"urn:WaterMeter:MC0203J22010600005","2023-08-13T02:15:00",26.899,25.713284,0.17],
    [6185,"urn:WaterMeter:MC0203J22010600005","2023-08-13T02:30:00",26.899,25.703197,0.175],
    [6186,"urn:WaterMeter:MC0203J22010600005","2023-08-13T02:45:00",26.799,25.677557,0.165],
    [6187,"urn:WaterMeter:MC0203J22010600005","2023-08-13T03:00:00",26.7,25.672165,0.164],
    [6188,"urn:WaterMeter:MC0203J22010600005","2023-08-13T03:15:00",26.7,25.701645,0.162],
    [6189,"urn:WaterMeter:MC0203J22010600005","2023-08-13T03:30:00",26.7,25.692337,0.161],
    [6190,"urn:WaterMeter:MC0203J22010600005","2023-08-13T03:45:00",26.7,25.664019,0.17],
    [6191,"urn:WaterMeter:MC0203J22010600005","2023-08-13T04:00:00",26.7,25.644236,0.17],
    [6192,"urn:WaterMeter:MC0203J22010600005","2023-08-13T04:15:00",26.6,25.653158,0.174],
    [6193,"urn:WaterMeter:MC0203J22010600005","2023-08-13T04:30:00",26.6,25.643848,0.166],
    [6194,"urn:WaterMeter:MC0203J22010600005","2023-08-13T04:45:00",26.6,25.618248,0.155],
    [6195,"urn:WaterMeter:MC0203J22010600005","2023-08-13T05:00:00",26.6,25.62329,0.166],
    [6196,"urn:WaterMeter:MC0203J22010600005","2023-08-13T05:15:00",26.5,25.637255,0.164],
    [6197,"urn:WaterMeter:MC0203J22010600005","2023-08-13T05:30:00",26.399,25.628294,0.17],
    [6198,"urn:WaterMeter:MC0203J22010600005","2023-08-13T05:45:00",26.399,25.667084,0.163],
    [6199,"urn:WaterMeter:MC0203J22010600005","2023-08-13T06:00:00",26.299,25.642298,0.163],
    [6200,"urn:WaterMeter:MC0203J22010600005","2023-08-13T06:15:00",26.399,25.657038,0.173],
    [6201,"urn:WaterMeter:MC0203J22010600005","2023-08-13T06:30:00",26.5,25.606222,0.163],
    [6202,"urn:WaterMeter:MC0203J22010600005","2023-08-13T06:45:00",26.6,25.567432,0.162],
    [6203,"urn:WaterMeter:MC0203J22010600005","2023-08-13T07:00:00",26.7,25.573252,0.17],
    [6204,"urn:WaterMeter:MC0203J22010600005","2023-08-13T07:15:00",26.799,25.537952,0.173],
    [6205,"urn:WaterMeter:MC0203J22010600005","2023-08-13T07:30:00",27,25.5127,0.161],
    [6206,"urn:WaterMeter:MC0203J22010600005","2023-08-13T07:45:00",27.1,25.470457,0.161],
    [6207,"urn:WaterMeter:MC0203J22010600005","2023-08-13T08:00:00",27.1,25.49606,0.162],
    [6208,"urn:WaterMeter:MC0203J22010600005","2023-08-13T08:15:00",27.299,25.41809,0.162],
    [6209,"urn:WaterMeter:MC0203J22010600005","2023-08-13T08:30:00",27.6,25.371155,0.164],
    [6210,"urn:WaterMeter:MC0203J22010600005","2023-08-13T08:45:00",28,25.312582,0.157],
    [6211,"urn:WaterMeter:MC0203J22010600005","2023-08-13T09:00:00",28.5,25.24819,0.16],
    [6212,"urn:WaterMeter:MC0203J22010600005","2023-08-13T09:15:00",28.899,25.177593,0.161],
    [6213,"urn:WaterMeter:MC0203J22010600005","2023-08-13T09:30:00",29.299,25.126778,0.162],
    [6214,"urn:WaterMeter:MC0203J22010600005","2023-08-13T09:45:00",29.7,25.051525,0.151],
    [6215,"urn:WaterMeter:MC0203J22010600005","2023-08-13T10:00:00",29.899,24.959206,0.154],
    [6216,"urn:WaterMeter:MC0203J22010600005","2023-08-13T10:15:00",30.2,24.914984,0.157],
    [6217,"urn:WaterMeter:MC0203J22010600005","2023-08-13T10:30:00",30.399,24.791632,0.172],
    [6218,"urn:WaterMeter:MC0203J22010600005","2023-08-13T10:45:00",30.6,24.710173,0.159],
    [6219,"urn:WaterMeter:MC0203J22010600005","2023-08-13T11:00:00",30.899,24.628326,0.153],
    [6220,"urn:WaterMeter:MC0203J22010600005","2023-08-13T11:15:00",31.299,24.538334,0.166],
    [6221,"urn:WaterMeter:MC0203J22010600005","2023-08-13T11:30:00",31.799,24.454159,0.154],
    [6222,"urn:WaterMeter:MC0203J22010600005","2023-08-13T11:45:00",32.099,24.371536,0.155],
    [6223,"urn:WaterMeter:MC0203J22010600005","2023-08-13T12:00:00",32.299,24.269093,0.15],
    [6224,"urn:WaterMeter:MC0203J22010600005","2023-08-13T12:15:00",32.599,24.14574,0.155],
    [6225,"urn:WaterMeter:MC0203J22010600005","2023-08-13T12:30:00",32.799,24.049152,0.156],
    [6226,"urn:WaterMeter:MC0203J22010600005","2023-08-13T12:45:00",33,23.942093,0.146],
    [6227,"urn:WaterMeter:MC0203J22010600005","2023-08-13T13:00:00",33.099,23.824947,0.148],
    [6228,"urn:WaterMeter:MC0203J22010600005","2023-08-13T13:15:00",33.2,23.72995,0.152],
    [6229,"urn:WaterMeter:MC0203J22010600005","2023-08-13T13:30:00",33.099,23.620562,0.145],
    [6230,"urn:WaterMeter:MC0203J22010600005","2023-08-13T13:45:00",33,23.496784,0.153],
    [6231,"urn:WaterMeter:MC0203J22010600005","2023-08-13T14:00:00",32.9,23.411097,0.154],
    [6232,"urn:WaterMeter:MC0203J22010600005","2023-08-13T14:15:00",32.799,23.280334,0.147],
    [6233,"urn:WaterMeter:MC0203J22010600005","2023-08-13T14:30:00",32.7,23.186462,0.142],
    [6234,"urn:WaterMeter:MC0203J22010600005","2023-08-13T14:45:00",32.599,23.089489,0.149],
    [6235,"urn:WaterMeter:MC0203J22010600005","2023-08-13T15:00:00",32.5,22.996431,0.149],
    [6236,"urn:WaterMeter:MC0203J22010600005","2023-08-13T15:15:00",32.4,22.911442,0.141],
    [6237,"urn:WaterMeter:MC0203J22010600005","2023-08-13T15:30:00",32.299,22.792007,0.142],
    [6238,"urn:WaterMeter:MC0203J22010600005","2023-08-13T15:45:00",32.2,22.72878,0.141],
    [6239,"urn:WaterMeter:MC0203J22010600005","2023-08-13T16:00:00",32.099,22.620169,0.143],
    [6240,"urn:WaterMeter:MC0203J22010600005","2023-08-13T16:15:00",32,22.535955,0.143],
    [6241,"urn:WaterMeter:MC0203J22010600005","2023-08-13T16:30:00",31.899,22.456861,0.142],
    [6242,"urn:WaterMeter:MC0203J22010600005","2023-08-13T16:45:00",31.7,22.414194,0.138],
    [6243,"urn:WaterMeter:MC0203J22010600005","2023-08-13T17:00:00",31.6,22.357172,0.144],
    [6244,"urn:WaterMeter:MC0203J22010600005","2023-08-13T17:15:00",31.399,22.29472,0.141],
    [6245,"urn:WaterMeter:MC0203J22010600005","2023-08-13T17:30:00",31.2,22.247784,0.141],
    [6246,"urn:WaterMeter:MC0203J22010600005","2023-08-13T17:45:00",31.1,22.188824,0.142],
    [6247,"urn:WaterMeter:MC0203J22010600005","2023-08-13T18:00:00",30.899,22.184944,0.134],
    [6248,"urn:WaterMeter:MC0203J22010600005","2023-08-13T18:15:00",30.7,22.138357,0.136],
    [6249,"urn:WaterMeter:MC0203J22010600005","2023-08-13T18:30:00",30.6,22.06198,0.136],
    [6250,"urn:WaterMeter:MC0203J22010600005","2023-08-13T18:45:00",30.399,22.072065,0.137],
    [6251,"urn:WaterMeter:MC0203J22010600005","2023-08-13T19:00:00",30.2,22.086418,0.134],
    [6252,"urn:WaterMeter:MC0203J22010600005","2023-08-13T19:15:00",30,22.075169,0.139],
    [6253,"urn:WaterMeter:MC0203J22010600005","2023-08-13T19:30:00",29.799,22.087582,0.134],
    [6254,"urn:WaterMeter:MC0203J22010600005","2023-08-13T19:45:00",29.7,22.063532,0.139],
    [6255,"urn:WaterMeter:MC0203J22010600005","2023-08-13T20:00:00",29.5,22.057325,0.137],
    [6256,"urn:WaterMeter:MC0203J22010600005","2023-08-13T20:15:00",29.399,22.036766,0.14],
    [6257,"urn:WaterMeter:MC0203J22010600005","2023-08-13T20:30:00",29.299,22.101934,0.138],
    [6258,"urn:WaterMeter:MC0203J22010600005","2023-08-13T20:45:00",29.1,22.052282,0.139],
    [6259,"urn:WaterMeter:MC0203J22010600005","2023-08-13T21:00:00",29,22.112408,0.143],
    [6260,"urn:WaterMeter:MC0203J22010600005","2023-08-13T21:15:00",28.899,22.072065,0.135],
    [6261,"urn:WaterMeter:MC0203J22010600005","2023-08-13T21:30:00",28.799,22.06039,0.137],
    [6262,"urn:WaterMeter:MC0203J22010600005","2023-08-13T21:45:00",28.7,22.091072,0.141],
    [6263,"urn:WaterMeter:MC0203J22010600005","2023-08-13T22:00:00",28.6,22.096115,0.135],
    [6264,"urn:WaterMeter:MC0203J22010600005","2023-08-13T22:15:00",28.6,22.095339,0.135],
    [6265,"urn:WaterMeter:MC0203J22010600005","2023-08-13T22:30:00",28.5,22.106976,0.133],
    [6266,"urn:WaterMeter:MC0203J22010600005","2023-08-13T22:45:00",28.5,22.073229,0.133],
    [6267,"urn:WaterMeter:MC0203J22010600005","2023-08-13T23:00:00",28.5,22.099567,0.132],
    [6268,"urn:WaterMeter:MC0203J22010600005","2023-08-13T23:15:00",28.399,22.088358,0.138],
    [6269,"urn:WaterMeter:MC0203J22010600005","2023-08-13T23:30:00",28.399,22.082151,0.134],
    [6270,"urn:WaterMeter:MC0203J22010600005","2023-08-13T23:45:00",28.399,22.099567,0.137],
    [6271,"urn:WaterMeter:MC0203J22010600005","2023-08-14T00:00:00",28.299,22.12482,0.136],
    [6272,"urn:WaterMeter:MC0203J22010600005","2023-08-14T00:15:00",28.2,22.118963,0.137],
    [6273,"urn:WaterMeter:MC0203J22010600005","2023-08-14T00:30:00",28,22.105038,0.137],
    [6274,"urn:WaterMeter:MC0203J22010600005","2023-08-14T00:45:00",28,22.082926,0.138],
    [6275,"urn:WaterMeter:MC0203J22010600005","2023-08-14T01:00:00",27.899,22.105812,0.138],
    [6276,"urn:WaterMeter:MC0203J22010600005","2023-08-14T01:15:00",27.899,22.111244,0.14],
    [6277,"urn:WaterMeter:MC0203J22010600005","2023-08-14T01:30:00",27.899,22.139948,0.134],
    [6278,"urn:WaterMeter:MC0203J22010600005","2023-08-14T01:45:00",27.799,22.093788,0.138],
    [6279,"urn:WaterMeter:MC0203J22010600005","2023-08-14T02:00:00",27.799,22.09918,0.136],
    [6280,"urn:WaterMeter:MC0203J22010600005","2023-08-14T02:15:00",27.7,22.118963,0.136],
    [6281,"urn:WaterMeter:MC0203J22010600005","2023-08-14T02:30:00",27.7,22.115898,0.136],
    [6282,"urn:WaterMeter:MC0203J22010600005","2023-08-14T02:45:00",27.6,22.091461,0.137],
    [6283,"urn:WaterMeter:MC0203J22010600005","2023-08-14T03:00:00",27.5,22.123655,0.134],
    [6284,"urn:WaterMeter:MC0203J22010600005","2023-08-14T03:15:00",27.399,22.091461,0.136],
    [6285,"urn:WaterMeter:MC0203J22010600005","2023-08-14T03:30:00",27.299,22.103872,0.133],
    [6286,"urn:WaterMeter:MC0203J22010600005","2023-08-14T03:45:00",27.2,22.13025,0.137],
    [6287,"urn:WaterMeter:MC0203J22010600005","2023-08-14T04:00:00",27.1,22.139948,0.139],
    [6288,"urn:WaterMeter:MC0203J22010600005","2023-08-14T04:15:00",27,22.124044,0.135],
    [6289,"urn:WaterMeter:MC0203J22010600005","2023-08-14T04:30:00",26.799,22.121717,0.136],
    [6290,"urn:WaterMeter:MC0203J22010600005","2023-08-14T04:45:00",26.7,22.142275,0.137],
    [6291,"urn:WaterMeter:MC0203J22010600005","2023-08-14T05:00:00",26.6,22.120941,0.136],
    [6292,"urn:WaterMeter:MC0203J22010600005","2023-08-14T05:15:00",26.399,22.146542,0.143],
    [6293,"urn:WaterMeter:MC0203J22010600005","2023-08-14T05:30:00",26.299,22.145767,0.137],
    [6294,"urn:WaterMeter:MC0203J22010600005","2023-08-14T05:45:00",26.2,22.143438,0.136],
    [6295,"urn:WaterMeter:MC0203J22010600005","2023-08-14T06:00:00",26.2,22.12288,0.141],
    [6296,"urn:WaterMeter:MC0203J22010600005","2023-08-14T06:15:00",26.2,22.131025,0.14],
    [6297,"urn:WaterMeter:MC0203J22010600005","2023-08-14T06:30:00",26.2,22.106588,0.136],
    [6298,"urn:WaterMeter:MC0203J22010600005","2023-08-14T06:45:00",26.299,22.119738,0.134],
    [6299,"urn:WaterMeter:MC0203J22010600005","2023-08-14T07:00:00",26.399,22.102709,0.139],
    [6300,"urn:WaterMeter:MC0203J22010600005","2023-08-14T07:15:00",26.6,22.058062,0.131],
    [6301,"urn:WaterMeter:MC0203J22010600005","2023-08-14T07:30:00",26.799,22.02707,0.129],
    [6302,"urn:WaterMeter:MC0203J22010600005","2023-08-14T07:45:00",26.899,21.983585,0.133],
    [6303,"urn:WaterMeter:MC0203J22010600005","2023-08-14T08:00:00",27.1,21.970047,0.134],
    [6304,"urn:WaterMeter:MC0203J22010600005","2023-08-14T08:15:00",27.399,21.923073,0.121],
    [6305,"urn:WaterMeter:MC0203J22010600005","2023-08-14T08:30:00",27.7,21.856743,0.129],
    [6306,"urn:WaterMeter:MC0203J22010600005","2023-08-14T08:45:00",28.2,21.780752,0.133],
    [6307,"urn:WaterMeter:MC0203J22010600005","2023-08-14T09:00:00",28.7,21.703949,0.127],
    [6308,"urn:WaterMeter:MC0203J22010600005","2023-08-14T09:15:00",29.2,21.602318,0.132],
    [6309,"urn:WaterMeter:MC0203J22010600005","2023-08-14T09:30:00",29.6,21.580208,0.126],
    [6310,"urn:WaterMeter:MC0203J22010600005","2023-08-14T09:45:00",30,21.441729,0.125],
    [6311,"urn:WaterMeter:MC0203J22010600005","2023-08-14T10:00:00",30.299,21.399796,0.131],
    [6312,"urn:WaterMeter:MC0203J22010600005","2023-08-14T10:15:00",30.5,21.268337,0.131],
    [6313,"urn:WaterMeter:MC0203J22010600005","2023-08-14T10:30:00",30.799,21.213642,0.125],
    [6314,"urn:WaterMeter:MC0203J22010600005","2023-08-14T10:45:00",31,21.101927,0.124],
    [6315,"urn:WaterMeter:MC0203J22010600005","2023-08-14T11:00:00",31.299,21.012672,0.124],
    [6316,"urn:WaterMeter:MC0203J22010600005","2023-08-14T11:15:00",31.799,20.906775,0.122],
    [6317,"urn:WaterMeter:MC0203J22010600005","2023-08-14T11:30:00",32.2,20.825743,0.121],
    [6318,"urn:WaterMeter:MC0203J22010600005","2023-08-14T11:45:00",32.599,20.766394,0.12],
    [6319,"urn:WaterMeter:MC0203J22010600005","2023-08-14T12:00:00",33,20.64378,0.123],
    [6320,"urn:WaterMeter:MC0203J22010600005","2023-08-14T12:15:00",33.2,20.558052,0.119],
    [6321,"urn:WaterMeter:MC0203J22010600005","2023-08-14T12:30:00",33.5,20.424654,0.119],
    [6322,"urn:WaterMeter:MC0203J22010600005","2023-08-14T12:45:00",33.599,20.31643,0.116],
    [6323,"urn:WaterMeter:MC0203J22010600005","2023-08-14T13:00:00",33.799,20.19847,0.114],
    [6324,"urn:WaterMeter:MC0203J22010600005","2023-08-14T13:15:00",33.9,20.101107,0.122],
    [6325,"urn:WaterMeter:MC0203J22010600005","2023-08-14T13:30:00",33.9,19.966894,0.117],
    [6326,"urn:WaterMeter:MC0203J22010600005","2023-08-14T13:45:00",33.9,19.847033,0.122],
    [6327,"urn:WaterMeter:MC0203J22010600005","2023-08-14T14:00:00",33.799,19.748156,0.116],
    [6328,"urn:WaterMeter:MC0203J22010600005","2023-08-14T14:15:00",33.7,19.659716,0.114],
    [6329,"urn:WaterMeter:MC0203J22010600005","2023-08-14T14:30:00",33.7,19.538263,0.117],
    [6330,"urn:WaterMeter:MC0203J22010600005","2023-08-14T14:45:00",33.599,19.47779,0.121],
    [6331,"urn:WaterMeter:MC0203J22010600005","2023-08-14T15:00:00",33.5,19.349396,0.112],
    [6332,"urn:WaterMeter:MC0203J22010600005","2023-08-14T15:15:00",33.4,19.273754,0.116],
    [6333,"urn:WaterMeter:MC0203J22010600005","2023-08-14T15:30:00",33.299,19.19695,0.117],
    [6334,"urn:WaterMeter:MC0203J22010600005","2023-08-14T15:45:00",33.2,19.093342,0.115],
    [6335,"urn:WaterMeter:MC0203J22010600005","2023-08-14T16:00:00",33.099,19.028603,0.112],
    [6336,"urn:WaterMeter:MC0203J22010600005","2023-08-14T16:15:00",32.9,18.960331,0.11],
    [6337,"urn:WaterMeter:MC0203J22010600005","2023-08-14T16:30:00",32.799,18.91068,0.113],
    [6338,"urn:WaterMeter:MC0203J22010600005","2023-08-14T16:45:00",32.7,18.810602,0.111],
    [6339,"urn:WaterMeter:MC0203J22010600005","2023-08-14T17:00:00",32.5,18.77026,0.112],
    [6340,"urn:WaterMeter:MC0203J22010600005","2023-08-14T17:15:00",32.4,18.695745,0.115],
    [6341,"urn:WaterMeter:MC0203J22010600005","2023-08-14T17:30:00",32.2,18.703115,0.113],
    [6342,"urn:WaterMeter:MC0203J22010600005","2023-08-14T17:45:00",32.099,18.660484,0.115],
    [6343,"urn:WaterMeter:MC0203J22010600005","2023-08-14T18:00:00",31.899,18.625536,0.115],
    [6344,"urn:WaterMeter:MC0203J22010600005","2023-08-14T18:15:00",31.7,18.604239,0.108],
    [6345,"urn:WaterMeter:MC0203J22010600005","2023-08-14T18:30:00",31.5,18.572432,0.115],
    [6346,"urn:WaterMeter:MC0203J22010600005","2023-08-14T18:45:00",31.299,18.557692,0.112],
    [6347,"urn:WaterMeter:MC0203J22010600005","2023-08-14T19:00:00",31.1,18.58946,0.11],
    [6348,"urn:WaterMeter:MC0203J22010600005","2023-08-14T19:15:00",30.899,18.599546,0.113],
    [6349,"urn:WaterMeter:MC0203J22010600005","2023-08-14T19:30:00",30.799,18.574371,0.108],
    [6350,"urn:WaterMeter:MC0203J22010600005","2023-08-14T19:45:00",30.6,18.589073,0.11],
    [6351,"urn:WaterMeter:MC0203J22010600005","2023-08-14T20:00:00",30.399,18.584457,0.112],
    [6352,"urn:WaterMeter:MC0203J22010600005","2023-08-14T20:15:00",30.299,18.55067,0.114],
    [6353,"urn:WaterMeter:MC0203J22010600005","2023-08-14T20:30:00",30.1,18.583292,0.112],
    [6354,"urn:WaterMeter:MC0203J22010600005","2023-08-14T20:45:00",30,18.587133,0.107],
    [6355,"urn:WaterMeter:MC0203J22010600005","2023-08-14T21:00:00",29.899,18.602688,0.111],
    [6356,"urn:WaterMeter:MC0203J22010600005","2023-08-14T21:15:00",29.7,18.604628,0.114],
    [6357,"urn:WaterMeter:MC0203J22010600005","2023-08-14T21:30:00",29.6,18.612774,0.12],
    [6358,"urn:WaterMeter:MC0203J22010600005","2023-08-14T21:45:00",29.5,18.614325,0.11],
    [6359,"urn:WaterMeter:MC0203J22010600005","2023-08-14T22:00:00",29.399,18.627863,0.11],
    [6360,"urn:WaterMeter:MC0203J22010600005","2023-08-14T22:15:00",29.299,18.643805,0.107],
    [6361,"urn:WaterMeter:MC0203J22010600005","2023-08-14T22:30:00",29.299,18.644194,0.109],
    [6362,"urn:WaterMeter:MC0203J22010600005","2023-08-14T22:45:00",29.2,18.630617,0.112],
    [6363,"urn:WaterMeter:MC0203J22010600005","2023-08-14T23:00:00",29.1,18.639927,0.11],
    [6364,"urn:WaterMeter:MC0203J22010600005","2023-08-14T23:15:00",29,18.631392,0.112],
    [6365,"urn:WaterMeter:MC0203J22010600005","2023-08-14T23:30:00",29,18.600748,0.113],
    [6366,"urn:WaterMeter:MC0203J22010600005","2023-08-14T23:45:00",28.799,18.601524,0.109],
    [6367,"urn:WaterMeter:MC0203J22010600005","2023-08-15T00:00:00",28.799,18.613548,0.112],
    [6368,"urn:WaterMeter:MC0203J22010600005","2023-08-15T00:15:00",28.7,18.66704,0.112],
    [6369,"urn:WaterMeter:MC0203J22010600005","2023-08-15T00:30:00",28.6,18.67057,0.111],
    [6370,"urn:WaterMeter:MC0203J22010600005","2023-08-15T00:45:00",28.6,18.644194,0.109],
    [6371,"urn:WaterMeter:MC0203J22010600005","2023-08-15T01:00:00",28.5,18.621307,0.112],
    [6372,"urn:WaterMeter:MC0203J22010600005","2023-08-15T01:15:00",28.399,18.625536,0.112],
    [6373,"urn:WaterMeter:MC0203J22010600005","2023-08-15T01:30:00",28.299,18.627474,0.107],
    [6374,"urn:WaterMeter:MC0203J22010600005","2023-08-15T01:45:00",28.2,18.677553,0.111],
    [6375,"urn:WaterMeter:MC0203J22010600005","2023-08-15T02:00:00",28.1,18.69268,0.112],
    [6376,"urn:WaterMeter:MC0203J22010600005","2023-08-15T02:15:00",28,18.6504,0.112],
    [6377,"urn:WaterMeter:MC0203J22010600005","2023-08-15T02:30:00",27.899,18.686047,0.11],
    [6378,"urn:WaterMeter:MC0203J22010600005","2023-08-15T02:45:00",27.7,18.67406,0.114],
    [6379,"urn:WaterMeter:MC0203J22010600005","2023-08-15T03:00:00",27.6,18.715916,0.111],
    [6380,"urn:WaterMeter:MC0203J22010600005","2023-08-15T03:15:00",27.5,18.640314,0.113],
    [6381,"urn:WaterMeter:MC0203J22010600005","2023-08-15T03:30:00",27.399,18.6651,0.111],
    [6382,"urn:WaterMeter:MC0203J22010600005","2023-08-15T03:45:00",27.299,18.675224,0.111],
    [6383,"urn:WaterMeter:MC0203J22010600005","2023-08-15T04:00:00",27.2,18.675573,0.108],
    [6384,"urn:WaterMeter:MC0203J22010600005","2023-08-15T04:15:00",27.1,18.70583,0.108],
    [6385,"urn:WaterMeter:MC0203J22010600005","2023-08-15T04:30:00",27,18.724838,0.109],
    [6386,"urn:WaterMeter:MC0203J22010600005","2023-08-15T04:45:00",27,18.702726,0.108],
    [6387,"urn:WaterMeter:MC0203J22010600005","2023-08-15T05:00:00",26.899,18.636047,0.114],
    [6388,"urn:WaterMeter:MC0203J22010600005","2023-08-15T05:15:00",26.799,18.632168,0.112],
    [6389,"urn:WaterMeter:MC0203J22010600005","2023-08-15T05:30:00",26.799,18.696947,0.109],
    [6390,"urn:WaterMeter:MC0203J22010600005","2023-08-15T05:45:00",26.799,18.693068,0.11],
    [6391,"urn:WaterMeter:MC0203J22010600005","2023-08-15T06:00:00",26.799,18.691517,0.111],
    [6392,"urn:WaterMeter:MC0203J22010600005","2023-08-15T06:15:00",26.899,18.683332,0.107],
    [6393,"urn:WaterMeter:MC0203J22010600005","2023-08-15T06:30:00",26.899,18.757849,0.108],
    [6394,"urn:WaterMeter:MC0203J22010600005","2023-08-15T06:45:00",27,18.787716,0.109],
    [6395,"urn:WaterMeter:MC0203J22010600005","2023-08-15T07:00:00",27.2,19.087563,0.117],
    [6396,"urn:WaterMeter:MC0203J22010600005","2023-08-15T07:15:00",27.299,20.393583,0.143],
    [6397,"urn:WaterMeter:MC0203J22010600005","2023-08-15T07:30:00",27.5,22.854422,0.174],
    [6398,"urn:WaterMeter:MC0203J22010600005","2023-08-15T07:45:00",27.7,25.230347,0.183],
    [6399,"urn:WaterMeter:MC0203J22010600005","2023-08-15T08:00:00",28,26.88858,0.208],
    [6400,"urn:WaterMeter:MC0203J22010600005","2023-08-15T08:15:00",28.299,27.895609,0.205],
    [6401,"urn:WaterMeter:MC0203J22010600005","2023-08-15T08:30:00",28.6,28.453796,0.195],
    [6402,"urn:WaterMeter:MC0203J22010600005","2023-08-15T08:45:00",28.899,28.813766,0.203],
    [6403,"urn:WaterMeter:MC0203J22010600005","2023-08-15T09:00:00",29.299,28.973194,0.212],
    [6404,"urn:WaterMeter:MC0203J22010600005","2023-08-15T09:15:00",29.7,29.033669,0.202],
    [6405,"urn:WaterMeter:MC0203J22010600005","2023-08-15T09:30:00",30.1,29.05892,0.207],
    [6406,"urn:WaterMeter:MC0203J22010600005","2023-08-15T09:45:00",30.399,29.076763,0.209],
    [6407,"urn:WaterMeter:MC0203J22010600005","2023-08-15T10:00:00",30.6,29.067066,0.203],
    [6408,"urn:WaterMeter:MC0203J22010600005","2023-08-15T10:15:00",30.799,29.039913,0.207],
    [6409,"urn:WaterMeter:MC0203J22010600005","2023-08-15T10:30:00",31,29.020866,0.204],
    [6410,"urn:WaterMeter:MC0203J22010600005","2023-08-15T10:45:00",31.2,29.004187,0.202],
    [6411,"urn:WaterMeter:MC0203J22010600005","2023-08-15T11:00:00",31.5,28.958841,0.203],
    [6412,"urn:WaterMeter:MC0203J22010600005","2023-08-15T11:15:00",31.799,28.919664,0.202],
    [6413,"urn:WaterMeter:MC0203J22010600005","2023-08-15T11:30:00",32.099,28.875444,0.2],
    [6414,"urn:WaterMeter:MC0203J22010600005","2023-08-15T11:45:00",32.5,28.828857,0.202],
    [6415,"urn:WaterMeter:MC0203J22010600005","2023-08-15T12:00:00",32.7,28.74666,0.201],
    [6416,"urn:WaterMeter:MC0203J22010600005","2023-08-15T12:15:00",33,28.695457,0.194],
    [6417,"urn:WaterMeter:MC0203J22010600005","2023-08-15T12:30:00",33.2,28.65628,0.199],
    [6418,"urn:WaterMeter:MC0203J22010600005","2023-08-15T12:45:00",33.299,28.549608,0.205],
    [6419,"urn:WaterMeter:MC0203J22010600005","2023-08-15T13:00:00",33.4,28.479746,0.194],
    [6420,"urn:WaterMeter:MC0203J22010600005","2023-08-15T13:15:00",33.5,28.420786,0.198],
    [6421,"urn:WaterMeter:MC0203J22010600005","2023-08-15T13:30:00",33.5,28.374237,0.197],
    [6422,"urn:WaterMeter:MC0203J22010600005","2023-08-15T13:45:00",33.5,28.310274,0.212],
    [6423,"urn:WaterMeter:MC0203J22010600005","2023-08-15T14:00:00",33.4,28.246231,0.196],
    [6424,"urn:WaterMeter:MC0203J22010600005","2023-08-15T14:15:00",33.4,28.198908,0.195],
    [6425,"urn:WaterMeter:MC0203J22010600005","2023-08-15T14:30:00",33.299,28.149643,0.196],
    [6426,"urn:WaterMeter:MC0203J22010600005","2023-08-15T14:45:00",33.2,28.067835,0.195],
    [6427,"urn:WaterMeter:MC0203J22010600005","2023-08-15T15:00:00",33.099,28.021288,0.191],
    [6428,"urn:WaterMeter:MC0203J22010600005","2023-08-15T15:15:00",33,27.936298,0.201],
    [6429,"urn:WaterMeter:MC0203J22010600005","2023-08-15T15:30:00",32.9,27.90647,0.196],
    [6430,"urn:WaterMeter:MC0203J22010600005","2023-08-15T15:45:00",32.799,27.876562,0.199],
    [6431,"urn:WaterMeter:MC0203J22010600005","2023-08-15T16:00:00",32.7,27.814537,0.193],
    [6432,"urn:WaterMeter:MC0203J22010600005","2023-08-15T16:15:00",32.4,27.769154,0.191],
    [6433,"urn:WaterMeter:MC0203J22010600005","2023-08-15T16:30:00",32.2,27.708641,0.192],
    [6434,"urn:WaterMeter:MC0203J22010600005","2023-08-15T16:45:00",32,27.691185,0.198],
    [6435,"urn:WaterMeter:MC0203J22010600005","2023-08-15T17:00:00",31.799,27.680323,0.192],
    [6436,"urn:WaterMeter:MC0203J22010600005","2023-08-15T17:15:00",31.6,27.667522,0.198],
    [6437,"urn:WaterMeter:MC0203J22010600005","2023-08-15T17:30:00",31.399,27.647314,0.199],
    [6438,"urn:WaterMeter:MC0203J22010600005","2023-08-15T17:45:00",31.299,27.604296,0.197],
    [6439,"urn:WaterMeter:MC0203J22010600005","2023-08-15T18:00:00",31.1,27.588741,0.191],
    [6440,"urn:WaterMeter:MC0203J22010600005","2023-08-15T18:15:00",31,27.598825,0.192],
    [6441,"urn:WaterMeter:MC0203J22010600005","2023-08-15T18:30:00",30.899,27.57598,0.193],
    [6442,"urn:WaterMeter:MC0203J22010600005","2023-08-15T18:45:00",30.7,27.56085,0.194],
    [6443,"urn:WaterMeter:MC0203J22010600005","2023-08-15T19:00:00",30.6,27.52594,0.195],
    [6444,"urn:WaterMeter:MC0203J22010600005","2023-08-15T19:15:00",30.399,27.512363,0.189],
    [6445,"urn:WaterMeter:MC0203J22010600005","2023-08-15T19:30:00",30.299,27.515854,0.196],
    [6446,"urn:WaterMeter:MC0203J22010600005","2023-08-15T19:45:00",30.2,27.521246,0.188],
    [6447,"urn:WaterMeter:MC0203J22010600005","2023-08-15T20:00:00",30.1,27.532146,0.19],
    [6448,"urn:WaterMeter:MC0203J22010600005","2023-08-15T20:15:00",29.899,27.477451,0.188],
    [6449,"urn:WaterMeter:MC0203J22010600005","2023-08-15T20:30:00",29.799,27.490213,0.197],
    [6450,"urn:WaterMeter:MC0203J22010600005","2023-08-15T20:45:00",29.7,27.471207,0.19],
    [6451,"urn:WaterMeter:MC0203J22010600005","2023-08-15T21:00:00",29.6,27.478228,0.19],
    [6452,"urn:WaterMeter:MC0203J22010600005","2023-08-15T21:15:00",29.5,27.462673,0.188],
    [6453,"urn:WaterMeter:MC0203J22010600005","2023-08-15T21:30:00",29.399,27.458057,0.197],
    [6454,"urn:WaterMeter:MC0203J22010600005","2023-08-15T21:45:00",29.299,27.437498,0.183],
    [6455,"urn:WaterMeter:MC0203J22010600005","2023-08-15T22:00:00",29.2,27.444092,0.196],
    [6456,"urn:WaterMeter:MC0203J22010600005","2023-08-15T22:15:00",29.1,27.452587,0.194],
    [6457,"urn:WaterMeter:MC0203J22010600005","2023-08-15T22:30:00",29,27.443277,0.2],
    [6458,"urn:WaterMeter:MC0203J22010600005","2023-08-15T22:45:00",28.899,27.455341,0.196],
    [6459,"urn:WaterMeter:MC0203J22010600005","2023-08-15T23:00:00",28.799,27.433968,0.196],
    [6460,"urn:WaterMeter:MC0203J22010600005","2023-08-15T23:15:00",28.6,27.458057,0.191],
    [6461,"urn:WaterMeter:MC0203J22010600005","2023-08-15T23:30:00",28.5,27.430864,0.191],
    [6462,"urn:WaterMeter:MC0203J22010600005","2023-08-15T23:45:00",28.399,27.444092,0.191],
    [6463,"urn:WaterMeter:MC0203J22010600005","2023-08-16T00:00:00",28.299,27.421206,0.188],
    [6464,"urn:WaterMeter:MC0203J22010600005","2023-08-16T00:15:00",28.2,27.427025,0.191],
    [6465,"urn:WaterMeter:MC0203J22010600005","2023-08-16T00:30:00",28.1,27.412247,0.187],
    [6466,"urn:WaterMeter:MC0203J22010600005","2023-08-16T00:45:00",27.899,27.448359,0.192],
    [6467,"urn:WaterMeter:MC0203J22010600005","2023-08-16T01:00:00",27.799,27.425474,0.191],
    [6468,"urn:WaterMeter:MC0203J22010600005","2023-08-16T01:15:00",27.7,27.39095,0.188],
    [6469,"urn:WaterMeter:MC0203J22010600005","2023-08-16T01:30:00",27.6,27.383928,0.185],
    [6470,"urn:WaterMeter:MC0203J22010600005","2023-08-16T01:45:00",27.5,27.396769,0.193],
    [6471,"urn:WaterMeter:MC0203J22010600005","2023-08-16T02:00:00",27.399,27.409958,0.193],
    [6472,"urn:WaterMeter:MC0203J22010600005","2023-08-16T02:15:00",27.299,27.378149,0.193],
    [6473,"urn:WaterMeter:MC0203J22010600005","2023-08-16T02:30:00",27.2,27.39095,0.182],
    [6474,"urn:WaterMeter:MC0203J22010600005","2023-08-16T02:45:00",27.1,27.402588,0.195],
    [6475,"urn:WaterMeter:MC0203J22010600005","2023-08-16T03:00:00",27.1,27.407242,0.188],
    [6476,"urn:WaterMeter:MC0203J22010600005","2023-08-16T03:15:00",27,27.409182,0.189],
    [6477,"urn:WaterMeter:MC0203J22010600005","2023-08-16T03:30:00",26.899,27.389786,0.191],
    [6478,"urn:WaterMeter:MC0203J22010600005","2023-08-16T03:45:00",26.7,27.397932,0.19],
    [6479,"urn:WaterMeter:MC0203J22010600005","2023-08-16T04:00:00",26.6,27.37268,0.188],
    [6480,"urn:WaterMeter:MC0203J22010600005","2023-08-16T04:15:00",26.5,27.370003,0.185],
    [6481,"urn:WaterMeter:MC0203J22010600005","2023-08-16T04:30:00",26.399,27.356815,0.195],
    [6482,"urn:WaterMeter:MC0203J22010600005","2023-08-16T04:45:00",26.299,27.371943,0.187],
    [6483,"urn:WaterMeter:MC0203J22010600005","2023-08-16T05:00:00",26.2,27.349445,0.188],
    [6484,"urn:WaterMeter:MC0203J22010600005","2023-08-16T05:15:00",26.2,27.408018,0.188],
    [6485,"urn:WaterMeter:MC0203J22010600005","2023-08-16T05:30:00",26.2,27.358755,0.19],
    [6486,"urn:WaterMeter:MC0203J22010600005","2023-08-16T05:45:00",26.2,27.592659,0.208],
    [6487,"urn:WaterMeter:MC0203J22010600005","2023-08-16T06:00:00",26.2,28.299799,0.209],
    [6488,"urn:WaterMeter:MC0203J22010600005","2023-08-16T06:15:00",26.2,29.196198,0.215],
    [6489,"urn:WaterMeter:MC0203J22010600005","2023-08-16T06:30:00",26.299,29.793602,0.229],
    [6490,"urn:WaterMeter:MC0203J22010600005","2023-08-16T06:45:00",26.399,30.198957,0.229],
    [6491,"urn:WaterMeter:MC0203J22010600005","2023-08-16T07:00:00",26.5,30.39985,0.231],
    [6492,"urn:WaterMeter:MC0203J22010600005","2023-08-16T07:15:00",26.6,30.625648,0.244],
    [6493,"urn:WaterMeter:MC0203J22010600005","2023-08-16T07:30:00",26.6,30.747023,0.231],
    [6494,"urn:WaterMeter:MC0203J22010600005","2023-08-16T07:45:00",26.799,30.840157,0.231],
    [6495,"urn:WaterMeter:MC0203J22010600005","2023-08-16T08:00:00",27,30.87856,0.234],
    [6496,"urn:WaterMeter:MC0203J22010600005","2023-08-16T08:15:00",27.2,30.74163,0.238],
    [6497,"urn:WaterMeter:MC0203J22010600005","2023-08-16T08:30:00",27.399,30.608582,0.232],
    [6498,"urn:WaterMeter:MC0203J22010600005","2023-08-16T08:45:00",27.799,30.50889,0.229],
    [6499,"urn:WaterMeter:MC0203J22010600005","2023-08-16T09:00:00",28.2,30.44605,0.226],
    [6500,"urn:WaterMeter:MC0203J22010600005","2023-08-16T09:15:00",28.6,30.393295,0.238],
    [6501,"urn:WaterMeter:MC0203J22010600005","2023-08-16T09:30:00",29,30.31494,0.224],
    [6502,"urn:WaterMeter:MC0203J22010600005","2023-08-16T09:45:00",29.299,30.262922,0.23],
    [6503,"urn:WaterMeter:MC0203J22010600005","2023-08-16T10:00:00",29.6,30.210207,0.223],
    [6504,"urn:WaterMeter:MC0203J22010600005","2023-08-16T10:15:00",29.799,30.14927,0.226],
    [6505,"urn:WaterMeter:MC0203J22010600005","2023-08-16T10:30:00",30,30.077158,0.224],
    [6506,"urn:WaterMeter:MC0203J22010600005","2023-08-16T10:45:00",30.2,29.99725,0.221],
    [6507,"urn:WaterMeter:MC0203J22010600005","2023-08-16T11:00:00",30.5,29.94217,0.22],
    [6508,"urn:WaterMeter:MC0203J22010600005","2023-08-16T11:15:00",30.899,29.87351,0.233],
    [6509,"urn:WaterMeter:MC0203J22010600005","2023-08-16T11:30:00",31.2,29.795542,0.222],
    [6510,"urn:WaterMeter:MC0203J22010600005","2023-08-16T11:45:00",31.6,29.736969,0.215],
    [6511,"urn:WaterMeter:MC0203J22010600005","2023-08-16T12:00:00",31.7,29.685379,0.224],
    [6512,"urn:WaterMeter:MC0203J22010600005","2023-08-16T12:15:00",32,29.627193,0.219],
    [6513,"urn:WaterMeter:MC0203J22010600005","2023-08-16T12:30:00",32.2,29.546473,0.225],
    [6514,"urn:WaterMeter:MC0203J22010600005","2023-08-16T12:45:00",32.299,29.45613,0.227],
    [6515,"urn:WaterMeter:MC0203J22010600005","2023-08-16T13:00:00",32.4,29.401009,0.214],
    [6516,"urn:WaterMeter:MC0203J22010600005","2023-08-16T13:15:00",32.4,29.305586,0.212],
    [6517,"urn:WaterMeter:MC0203J22010600005","2023-08-16T13:30:00",32.4,29.277308,0.213],
    [6518,"urn:WaterMeter:MC0203J22010600005","2023-08-16T13:45:00",32.4,29.176414,0.214],
    [6519,"urn:WaterMeter:MC0203J22010600005","2023-08-16T14:00:00",32.4,29.113615,0.224],
    [6520,"urn:WaterMeter:MC0203J22010600005","2023-08-16T14:15:00",32.299,29.052675,0.212],
    [6521,"urn:WaterMeter:MC0203J22010600005","2023-08-16T14:30:00",32.299,28.96501,0.208],
    [6522,"urn:WaterMeter:MC0203J22010600005","2023-08-16T14:45:00",32.299,28.934404,0.229],
    [6523,"urn:WaterMeter:MC0203J22010600005","2023-08-16T15:00:00",32.2,28.84864,0.213],
    [6524,"urn:WaterMeter:MC0203J22010600005","2023-08-16T15:15:00",32.2,28.809462,0.21],
    [6525,"urn:WaterMeter:MC0203J22010600005","2023-08-16T15:30:00",32.099,28.765667,0.208],
    [6526,"urn:WaterMeter:MC0203J22010600005","2023-08-16T15:45:00",32,28.684557,0.217],
    [6527,"urn:WaterMeter:MC0203J22010600005","2023-08-16T16:00:00",31.899,28.632618,0.224],
    [6528,"urn:WaterMeter:MC0203J22010600005","2023-08-16T16:15:00",31.799,28.603138,0.202],
    [6529,"urn:WaterMeter:MC0203J22010600005","2023-08-16T16:30:00",31.7,28.554262,0.206],
    [6530,"urn:WaterMeter:MC0203J22010600005","2023-08-16T16:45:00",31.5,28.484829,0.212],
    [6531,"urn:WaterMeter:MC0203J22010600005","2023-08-16T17:00:00",31.399,28.469313,0.216],
    [6532,"urn:WaterMeter:MC0203J22010600005","2023-08-16T17:15:00",31.2,28.40492,0.205],
    [6533,"urn:WaterMeter:MC0203J22010600005","2023-08-16T17:30:00",31,28.413029,0.206],
    [6534,"urn:WaterMeter:MC0203J22010600005","2023-08-16T17:45:00",30.7,28.36299,0.21],
    [6535,"urn:WaterMeter:MC0203J22010600005","2023-08-16T18:00:00",30.6,28.343206,0.203],
    [6536,"urn:WaterMeter:MC0203J22010600005","2023-08-16T18:15:00",30.5,28.340141,0.205],
    [6537,"urn:WaterMeter:MC0203J22010600005","2023-08-16T18:30:00",30.299,28.313375,0.214],
    [6538,"urn:WaterMeter:MC0203J22010600005","2023-08-16T18:45:00",30.2,28.355658,0.202],
    [6539,"urn:WaterMeter:MC0203J22010600005","2023-08-16T19:00:00",30.1,28.287348,0.214],
    [6540,"urn:WaterMeter:MC0203J22010600005","2023-08-16T19:15:00",29.899,28.314152,0.217],
    [6541,"urn:WaterMeter:MC0203J22010600005","2023-08-16T19:30:00",29.799,28.31644,0.204],
    [6542,"urn:WaterMeter:MC0203J22010600005","2023-08-16T19:45:00",29.7,28.290878,0.213],
    [6543,"urn:WaterMeter:MC0203J22010600005","2023-08-16T20:00:00",29.5,28.309498,0.209],
    [6544,"urn:WaterMeter:MC0203J22010600005","2023-08-16T20:15:00",29.399,28.287775,0.203],
    [6545,"urn:WaterMeter:MC0203J22010600005","2023-08-16T20:30:00",29.299,28.2761,0.203],
    [6546,"urn:WaterMeter:MC0203J22010600005","2023-08-16T20:45:00",29.2,28.254803,0.206],
    [6547,"urn:WaterMeter:MC0203J22010600005","2023-08-16T21:00:00",29.1,28.264462,0.209],
    [6548,"urn:WaterMeter:MC0203J22010600005","2023-08-16T21:15:00",29,28.233469,0.214],
    [6549,"urn:WaterMeter:MC0203J22010600005","2023-08-16T21:30:00",28.899,28.247782,0.201],
    [6550,"urn:WaterMeter:MC0203J22010600005","2023-08-16T21:45:00",28.799,28.239676,0.207],
    [6551,"urn:WaterMeter:MC0203J22010600005","2023-08-16T22:00:00",28.7,28.262173,0.211],
    [6552,"urn:WaterMeter:MC0203J22010600005","2023-08-16T22:15:00",28.7,28.26485,0.205],
    [6553,"urn:WaterMeter:MC0203J22010600005","2023-08-16T22:30:00",28.6,28.234245,0.197],
    [6554,"urn:WaterMeter:MC0203J22010600005","2023-08-16T22:45:00",28.6,28.197393,0.207],
    [6555,"urn:WaterMeter:MC0203J22010600005","2023-08-16T23:00:00",28.6,28.238472,0.208],
    [6556,"urn:WaterMeter:MC0203J22010600005","2023-08-16T23:15:00",28.5,28.22222,0.208],
    [6557,"urn:WaterMeter:MC0203J22010600005","2023-08-16T23:30:00",28.399,28.215239,0.208],
    [6558,"urn:WaterMeter:MC0203J22010600005","2023-08-16T23:45:00",28.399,28.200497,0.206],
    [6559,"urn:WaterMeter:MC0203J22010600005","2023-08-17T00:00:00",28.299,28.193903,0.203],
    [6560,"urn:WaterMeter:MC0203J22010600005","2023-08-17T00:15:00",28.2,28.18149,0.199],
    [6561,"urn:WaterMeter:MC0203J22010600005","2023-08-17T00:30:00",28.1,28.20205,0.205],
    [6562,"urn:WaterMeter:MC0203J22010600005","2023-08-17T00:45:00",28,28.177612,0.206],
    [6563,"urn:WaterMeter:MC0203J22010600005","2023-08-17T01:00:00",28,28.19274,0.203],
    [6564,"urn:WaterMeter:MC0203J22010600005","2023-08-17T01:15:00",27.899,28.186146,0.197],
    [6565,"urn:WaterMeter:MC0203J22010600005","2023-08-17T01:30:00",27.799,28.187658,0.199],
    [6566,"urn:WaterMeter:MC0203J22010600005","2023-08-17T01:45:00",27.7,28.143476,0.205],
    [6567,"urn:WaterMeter:MC0203J22010600005","2023-08-17T02:00:00",27.7,28.167875,0.201],
    [6568,"urn:WaterMeter:MC0203J22010600005","2023-08-17T02:15:00",27.6,28.173344,0.197],
    [6569,"urn:WaterMeter:MC0203J22010600005","2023-08-17T02:30:00",27.5,28.17451,0.198],
    [6570,"urn:WaterMeter:MC0203J22010600005","2023-08-17T02:45:00",27.399,28.162096,0.199],
    [6571,"urn:WaterMeter:MC0203J22010600005","2023-08-17T03:00:00",27.299,28.170979,0.202],
    [6572,"urn:WaterMeter:MC0203J22010600005","2023-08-17T03:15:00",27.2,28.175283,0.202],
    [6573,"urn:WaterMeter:MC0203J22010600005","2023-08-17T03:30:00",27.1,28.17218,0.207],
    [6574,"urn:WaterMeter:MC0203J22010600005","2023-08-17T03:45:00",27,28.17606,0.202],
    [6575,"urn:WaterMeter:MC0203J22010600005","2023-08-17T04:00:00",26.899,28.171793,0.204],
    [6576,"urn:WaterMeter:MC0203J22010600005","2023-08-17T04:15:00",26.799,28.178776,0.199],
    [6577,"urn:WaterMeter:MC0203J22010600005","2023-08-17T04:30:00",26.799,28.14848,0.198],
    [6578,"urn:WaterMeter:MC0203J22010600005","2023-08-17T04:45:00",26.7,28.148092,0.207],
    [6579,"urn:WaterMeter:MC0203J22010600005","2023-08-17T05:00:00",26.6,28.14848,0.2],
    [6580,"urn:WaterMeter:MC0203J22010600005","2023-08-17T05:15:00",26.5,28.14848,0.202],
    [6581,"urn:WaterMeter:MC0203J22010600005","2023-08-17T05:30:00",26.5,28.287348,0.212],
    [6582,"urn:WaterMeter:MC0203J22010600005","2023-08-17T05:45:00",26.5,28.634907,0.214],
    [6583,"urn:WaterMeter:MC0203J22010600005","2023-08-17T06:00:00",26.5,29.382778,0.242],
    [6584,"urn:WaterMeter:MC0203J22010600005","2023-08-17T06:15:00",26.399,30.062418,0.237],
    [6585,"urn:WaterMeter:MC0203J22010600005","2023-08-17T06:30:00",26.5,30.408812,0.237],
    [6586,"urn:WaterMeter:MC0203J22010600005","2023-08-17T06:45:00",26.6,30.679178,0.247],
    [6587,"urn:WaterMeter:MC0203J22010600005","2023-08-17T07:00:00",26.799,30.826155,0.235],
    [6588,"urn:WaterMeter:MC0203J22010600005","2023-08-17T07:15:00",26.899,30.935192,0.238],
    [6589,"urn:WaterMeter:MC0203J22010600005","2023-08-17T07:30:00",27,31.056993,0.234],
    [6590,"urn:WaterMeter:MC0203J22010600005","2023-08-17T07:45:00",27.1,31.136862,0.242],
    [6591,"urn:WaterMeter:MC0203J22010600005","2023-08-17T08:00:00",27.299,31.165606,0.253],
    [6592,"urn:WaterMeter:MC0203J22010600005","2023-08-17T08:15:00",27.5,31.030577,0.239],
    [6593,"urn:WaterMeter:MC0203J22010600005","2023-08-17T08:30:00",27.799,30.844772,0.253],
    [6594,"urn:WaterMeter:MC0203J22010600005","2023-08-17T08:45:00",28.2,30.723398,0.233],
    [6595,"urn:WaterMeter:MC0203J22010600005","2023-08-17T09:00:00",28.6,30.674911,0.232],
    [6596,"urn:WaterMeter:MC0203J22010600005","2023-08-17T09:15:00",28.899,30.574408,0.23],
    [6597,"urn:WaterMeter:MC0203J22010600005","2023-08-17T09:30:00",29.299,30.50501,0.233],
    [6598,"urn:WaterMeter:MC0203J22010600005","2023-08-17T09:45:00",29.7,30.44834,0.23],
    [6599,"urn:WaterMeter:MC0203J22010600005","2023-08-17T10:00:00",29.899,30.348688,0.227],
    [6600,"urn:WaterMeter:MC0203J22010600005","2023-08-17T10:15:00",30.1,30.309122,0.224],
    [6601,"urn:WaterMeter:MC0203J22010600005","2023-08-17T10:30:00",30.299,30.232706,0.233],
    [6602,"urn:WaterMeter:MC0203J22010600005","2023-08-17T10:45:00",30.5,30.194304,0.23],
    [6603,"urn:WaterMeter:MC0203J22010600005","2023-08-17T11:00:00",30.799,30.13573,0.225],
    [6604,"urn:WaterMeter:MC0203J22010600005","2023-08-17T11:15:00",31.1,30.065132,0.226],
    [6605,"urn:WaterMeter:MC0203J22010600005","2023-08-17T11:30:00",31.399,30.023628,0.239],
    [6606,"urn:WaterMeter:MC0203J22010600005","2023-08-17T11:45:00",31.6,29.93635,0.225],
    [6607,"urn:WaterMeter:MC0203J22010600005","2023-08-17T12:00:00",31.899,29.840927,0.221],
    [6608,"urn:WaterMeter:MC0203J22010600005","2023-08-17T12:15:00",32.2,29.780764,0.221],
    [6609,"urn:WaterMeter:MC0203J22010600005","2023-08-17T12:30:00",32.299,29.728436,0.237],
    [6610,"urn:WaterMeter:MC0203J22010600005","2023-08-17T12:45:00",32.5,29.644222,0.219],
    [6611,"urn:WaterMeter:MC0203J22010600005","2023-08-17T13:00:00",32.599,29.56319,0.219],
    [6612,"urn:WaterMeter:MC0203J22010600005","2023-08-17T13:15:00",32.599,29.515478,0.221],
    [6613,"urn:WaterMeter:MC0203J22010600005","2023-08-17T13:30:00",32.7,29.409542,0.22],
    [6614,"urn:WaterMeter:MC0203J22010600005","2023-08-17T13:45:00",32.7,29.35799,0.215],
    [6615,"urn:WaterMeter:MC0203J22010600005","2023-08-17T14:00:00",32.7,29.27533,0.22],
    [6616,"urn:WaterMeter:MC0203J22010600005","2023-08-17T14:15:00",32.7,29.206322,0.218],
    [6617,"urn:WaterMeter:MC0203J22010600005","2023-08-17T14:30:00",32.599,29.14387,0.218],
    [6618,"urn:WaterMeter:MC0203J22010600005","2023-08-17T14:45:00",32.599,29.107409,0.214],
    [6619,"urn:WaterMeter:MC0203J22010600005","2023-08-17T15:00:00",32.599,29.039913,0.218],
    [6620,"urn:WaterMeter:MC0203J22010600005","2023-08-17T15:15:00",32.7,28.976685,0.216],
    [6621,"urn:WaterMeter:MC0203J22010600005","2023-08-17T15:30:00",32.599,28.931688,0.214],
    [6622,"urn:WaterMeter:MC0203J22010600005","2023-08-17T15:45:00",32.5,28.867258,0.216],
    [6623,"urn:WaterMeter:MC0203J22010600005","2023-08-17T16:00:00",32.4,28.789291,0.211],
    [6624,"urn:WaterMeter:MC0203J22010600005","2023-08-17T16:15:00",32.299,28.764116,0.212],
    [6625,"urn:WaterMeter:MC0203J22010600005","2023-08-17T16:30:00",32.2,28.679554,0.222],
    [6626,"urn:WaterMeter:MC0203J22010600005","2023-08-17T16:45:00",32.099,28.651237,0.213],
    [6627,"urn:WaterMeter:MC0203J22010600005","2023-08-17T17:00:00",32,28.611284,0.225],
    [6628,"urn:WaterMeter:MC0203J22010600005","2023-08-17T17:15:00",31.799,28.592665,0.208],
    [6629,"urn:WaterMeter:MC0203J22010600005","2023-08-17T17:30:00",31.7,28.543789,0.21],
    [6630,"urn:WaterMeter:MC0203J22010600005","2023-08-17T17:45:00",31.6,28.494139,0.225],
    [6631,"urn:WaterMeter:MC0203J22010600005","2023-08-17T18:00:00",31.399,28.485603,0.209],
    [6632,"urn:WaterMeter:MC0203J22010600005","2023-08-17T18:15:00",31.299,28.450655,0.211],
    [6633,"urn:WaterMeter:MC0203J22010600005","2023-08-17T18:30:00",31.2,28.43673,0.208],
    [6634,"urn:WaterMeter:MC0203J22010600005","2023-08-17T18:45:00",31,28.400227,0.218],
    [6635,"urn:WaterMeter:MC0203J22010600005","2023-08-17T19:00:00",30.799,28.389017,0.208],
    [6636,"urn:WaterMeter:MC0203J22010600005","2023-08-17T19:15:00",30.7,28.377768,0.211],
    [6637,"urn:WaterMeter:MC0203J22010600005","2023-08-17T19:30:00",30.5,28.38863,0.21],
    [6638,"urn:WaterMeter:MC0203J22010600005","2023-08-17T19:45:00",30.299,28.34596,0.208],
    [6639,"urn:WaterMeter:MC0203J22010600005","2023-08-17T20:00:00",30.1,28.386301,0.21],
    [6640,"urn:WaterMeter:MC0203J22010600005","2023-08-17T20:15:00",30,28.349064,0.208],
    [6641,"urn:WaterMeter:MC0203J22010600005","2023-08-17T20:30:00",29.899,28.35368,0.208],
    [6642,"urn:WaterMeter:MC0203J22010600005","2023-08-17T20:45:00",29.7,28.350227,0.211],
    [6643,"urn:WaterMeter:MC0203J22010600005","2023-08-17T21:00:00",29.6,28.36613,0.213],
    [6644,"urn:WaterMeter:MC0203J22010600005","2023-08-17T21:15:00",29.5,28.370785,0.211],
    [6645,"urn:WaterMeter:MC0203J22010600005","2023-08-17T21:30:00",29.399,28.35139,0.206],
    [6646,"urn:WaterMeter:MC0203J22010600005","2023-08-17T21:45:00",29.299,28.361826,0.21],
    [6647,"urn:WaterMeter:MC0203J22010600005","2023-08-17T22:00:00",29.2,28.346735,0.209],
    [6648,"urn:WaterMeter:MC0203J22010600005","2023-08-17T22:15:00",29.1,28.359924,0.21],
    [6649,"urn:WaterMeter:MC0203J22010600005","2023-08-17T22:30:00",29,28.340141,0.207],
    [6650,"urn:WaterMeter:MC0203J22010600005","2023-08-17T22:45:00",28.899,28.326138,0.205],
    [6651,"urn:WaterMeter:MC0203J22010600005","2023-08-17T23:00:00",28.799,28.35876,0.21],
    [6652,"urn:WaterMeter:MC0203J22010600005","2023-08-17T23:15:00",28.7,28.359924,0.209],
    [6653,"urn:WaterMeter:MC0203J22010600005","2023-08-17T23:30:00",28.6,28.299412,0.213],
    [6654,"urn:WaterMeter:MC0203J22010600005","2023-08-17T23:45:00",28.5,28.333935,0.205],
    [6655,"urn:WaterMeter:MC0203J22010600005","2023-08-18T00:00:00",28.299,28.308722,0.209],
    [6656,"urn:WaterMeter:MC0203J22010600005","2023-08-18T00:15:00",28.2,28.32575,0.208],
    [6657,"urn:WaterMeter:MC0203J22010600005","2023-08-18T00:30:00",28.1,28.3242,0.21],
    [6658,"urn:WaterMeter:MC0203J22010600005","2023-08-18T00:45:00",28,28.340528,0.204],
    [6659,"urn:WaterMeter:MC0203J22010600005","2023-08-18T01:00:00",27.899,28.333548,0.21],
    [6660,"urn:WaterMeter:MC0203J22010600005","2023-08-18T01:15:00",27.7,28.354843,0.208],
    [6661,"urn:WaterMeter:MC0203J22010600005","2023-08-18T01:30:00",27.6,28.34437,0.226],
    [6662,"urn:WaterMeter:MC0203J22010600005","2023-08-18T01:45:00",27.5,28.33665,0.204],
    [6663,"urn:WaterMeter:MC0203J22010600005","2023-08-18T02:00:00",27.299,28.34398,0.21],
    [6664,"urn:WaterMeter:MC0203J22010600005","2023-08-18T02:15:00",27.2,28.348288,0.214],
    [6665,"urn:WaterMeter:MC0203J22010600005","2023-08-18T02:30:00",27.1,28.339754,0.213],
    [6666,"urn:WaterMeter:MC0203J22010600005","2023-08-18T02:45:00",27,28.318808,0.211],
    [6667,"urn:WaterMeter:MC0203J22010600005","2023-08-18T03:00:00",26.899,28.350227,0.202],
    [6668,"urn:WaterMeter:MC0203J22010600005","2023-08-18T03:15:00",26.7,28.32191,0.198],
    [6669,"urn:WaterMeter:MC0203J22010600005","2023-08-18T03:30:00",26.6,28.339365,0.208],
    [6670,"urn:WaterMeter:MC0203J22010600005","2023-08-18T03:45:00",26.5,28.349451,0.209],
    [6671,"urn:WaterMeter:MC0203J22010600005","2023-08-18T04:00:00",26.5,28.344757,0.211],
    [6672,"urn:WaterMeter:MC0203J22010600005","2023-08-18T04:15:00",26.399,28.338202,0.203],
    [6673,"urn:WaterMeter:MC0203J22010600005","2023-08-18T04:30:00",26.299,28.344757,0.203],
    [6674,"urn:WaterMeter:MC0203J22010600005","2023-08-18T04:45:00",26.2,28.36807,0.208],
    [6675,"urn:WaterMeter:MC0203J22010600005","2023-08-18T05:00:00",26.1,28.321135,0.203],
    [6676,"urn:WaterMeter:MC0203J22010600005","2023-08-18T05:15:00",26.1,28.34596,0.213],
    [6677,"urn:WaterMeter:MC0203J22010600005","2023-08-18T05:30:00",26.1,28.45302,0.222],
    [6678,"urn:WaterMeter:MC0203J22010600005","2023-08-18T05:45:00",26.1,28.873116,0.228],
    [6679,"urn:WaterMeter:MC0203J22010600005","2023-08-18T06:00:00",26,29.701244,0.232],
    [6680,"urn:WaterMeter:MC0203J22010600005","2023-08-18T06:15:00",26,30.345972,0.237],
    [6681,"urn:WaterMeter:MC0203J22010600005","2023-08-18T06:30:00",26,30.676464,0.242],
    [6682,"urn:WaterMeter:MC0203J22010600005","2023-08-18T06:45:00",26.1,30.865719,0.24],
    [6683,"urn:WaterMeter:MC0203J22010600005","2023-08-18T07:00:00",26.2,30.988335,0.245],
    [6684,"urn:WaterMeter:MC0203J22010600005","2023-08-18T07:15:00",26.299,31.107033,0.248],
    [6685,"urn:WaterMeter:MC0203J22010600005","2023-08-18T07:30:00",26.5,31.202456,0.241],
    [6686,"urn:WaterMeter:MC0203J22010600005","2023-08-18T07:45:00",26.7,31.247452,0.246],
    [6687,"urn:WaterMeter:MC0203J22010600005","2023-08-18T08:00:00",26.899,31.314558,0.243],
    [6688,"urn:WaterMeter:MC0203J22010600005","2023-08-18T08:15:00",27.2,31.115528,0.243],
    [6689,"urn:WaterMeter:MC0203J22010600005","2023-08-18T08:30:00",27.5,30.933214,0.239],
    [6690,"urn:WaterMeter:MC0203J22010600005","2023-08-18T08:45:00",27.899,30.825766,0.242],
    [6691,"urn:WaterMeter:MC0203J22010600005","2023-08-18T09:00:00",28.399,30.738527,0.235],
    [6692,"urn:WaterMeter:MC0203J22010600005","2023-08-18T09:15:00",28.799,30.656681,0.232],
    [6693,"urn:WaterMeter:MC0203J22010600005","2023-08-18T09:30:00",29.2,30.575182,0.229],
    [6694,"urn:WaterMeter:MC0203J22010600005","2023-08-18T09:45:00",29.6,30.52906,0.25],
    [6695,"urn:WaterMeter:MC0203J22010600005","2023-08-18T10:00:00",29.799,30.445274,0.232],
    [6696,"urn:WaterMeter:MC0203J22010600005","2023-08-18T10:15:00",30.1,30.385538,0.231],
    [6697,"urn:WaterMeter:MC0203J22010600005","2023-08-18T10:30:00",30.299,30.332745,0.243],
    [6698,"urn:WaterMeter:MC0203J22010600005","2023-08-18T10:45:00",30.5,30.21525,0.23],
    [6699,"urn:WaterMeter:MC0203J22010600005","2023-08-18T11:00:00",30.899,30.172194,0.231],
    [6700,"urn:WaterMeter:MC0203J22010600005","2023-08-18T11:15:00",31.299,30.100393,0.233],
    [6701,"urn:WaterMeter:MC0203J22010600005","2023-08-18T11:30:00",31.7,30.03604,0.227],
    [6702,"urn:WaterMeter:MC0203J22010600005","2023-08-18T11:45:00",32,29.973549,0.234],
    [6703,"urn:WaterMeter:MC0203J22010600005","2023-08-18T12:00:00",32.299,29.87157,0.223],
    [6704,"urn:WaterMeter:MC0203J22010600005","2023-08-18T12:15:00",32.5,29.793991,0.231],
    [6705,"urn:WaterMeter:MC0203J22010600005","2023-08-18T12:30:00",32.7,29.714083,0.222],
    [6706,"urn:WaterMeter:MC0203J22010600005","2023-08-18T12:45:00",32.799,29.643059,0.218],
    [6707,"urn:WaterMeter:MC0203J22010600005","2023-08-18T13:00:00",32.799,29.565866,0.215],
    [6708,"urn:WaterMeter:MC0203J22010600005","2023-08-18T13:15:00",32.799,29.497248,0.219],
    [6709,"urn:WaterMeter:MC0203J22010600005","2023-08-18T13:30:00",32.799,29.411482,0.217],
    [6710,"urn:WaterMeter:MC0203J22010600005","2023-08-18T13:45:00",32.799,29.354887,0.219],
    [6711,"urn:WaterMeter:MC0203J22010600005","2023-08-18T14:00:00",32.7,29.3064,0.229],
    [6712,"urn:WaterMeter:MC0203J22010600005","2023-08-18T14:15:00",32.7,29.182661,0.225],
    [6713,"urn:WaterMeter:MC0203J22010600005","2023-08-18T14:30:00",32.799,29.153955,0.229],
    [6714,"urn:WaterMeter:MC0203J22010600005","2023-08-18T14:45:00",32.7,29.088789,0.232],
    [6715,"urn:WaterMeter:MC0203J22010600005","2023-08-18T15:00:00",32.7,29.031767,0.221],
    [6716,"urn:WaterMeter:MC0203J22010600005","2023-08-18T15:15:00",32.7,28.96854,0.238],
    [6717,"urn:WaterMeter:MC0203J22010600005","2023-08-18T15:30:00",32.599,28.86497,0.215],
    [6718,"urn:WaterMeter:MC0203J22010600005","2023-08-18T15:45:00",32.5,28.805622,0.212],
    [6719,"urn:WaterMeter:MC0203J22010600005","2023-08-18T16:00:00",32.4,28.74511,0.211],
    [6720,"urn:WaterMeter:MC0203J22010600005","2023-08-18T16:15:00",32.299,28.67839,0.217],
    [6721,"urn:WaterMeter:MC0203J22010600005","2023-08-18T16:30:00",32.2,28.591501,0.21],
    [6722,"urn:WaterMeter:MC0203J22010600005","2023-08-18T16:45:00",32.099,28.581802,0.217],
    [6723,"urn:WaterMeter:MC0203J22010600005","2023-08-18T17:00:00",32,28.513533,0.209],
    [6724,"urn:WaterMeter:MC0203J22010600005","2023-08-18T17:15:00",31.799,28.45496,0.226],
    [6725,"urn:WaterMeter:MC0203J22010600005","2023-08-18T17:30:00",31.6,28.429747,0.205],
    [6726,"urn:WaterMeter:MC0203J22010600005","2023-08-18T17:45:00",31.399,28.38122,0.218],
    [6727,"urn:WaterMeter:MC0203J22010600005","2023-08-18T18:00:00",31.2,28.38316,0.207],
    [6728,"urn:WaterMeter:MC0203J22010600005","2023-08-18T18:15:00",31.1,28.361826,0.22],
    [6729,"urn:WaterMeter:MC0203J22010600005","2023-08-18T18:30:00",30.899,28.326138,0.207],
    [6730,"urn:WaterMeter:MC0203J22010600005","2023-08-18T18:45:00",30.7,28.297861,0.215],
    [6731,"urn:WaterMeter:MC0203J22010600005","2023-08-18T19:00:00",30.6,28.299025,0.21],
    [6732,"urn:WaterMeter:MC0203J22010600005","2023-08-18T19:15:00",30.5,28.290102,0.207],
    [6733,"urn:WaterMeter:MC0203J22010600005","2023-08-18T19:30:00",30.299,28.263338,0.207],
    [6734,"urn:WaterMeter:MC0203J22010600005","2023-08-18T19:45:00",30.1,28.252865,0.207],
    [6735,"urn:WaterMeter:MC0203J22010600005","2023-08-18T20:00:00",29.899,28.258255,0.209],
    [6736,"urn:WaterMeter:MC0203J22010600005","2023-08-18T20:15:00",29.799,28.238085,0.207],
    [6737,"urn:WaterMeter:MC0203J22010600005","2023-08-18T20:30:00",29.7,28.229979,0.206],
    [6738,"urn:WaterMeter:MC0203J22010600005","2023-08-18T20:45:00",29.5,28.270708,0.207],
    [6739,"urn:WaterMeter:MC0203J22010600005","2023-08-18T21:00:00",29.399,28.266014,0.208],
    [6740,"urn:WaterMeter:MC0203J22010600005","2023-08-18T21:15:00",29.299,28.242002,0.213],
    [6741,"urn:WaterMeter:MC0203J22010600005","2023-08-18T21:30:00",29.1,28.286184,0.207],
    [6742,"urn:WaterMeter:MC0203J22010600005","2023-08-18T21:45:00",29,28.233469,0.213],
    [6743,"urn:WaterMeter:MC0203J22010600005","2023-08-18T22:00:00",28.899,28.225672,0.207],
    [6744,"urn:WaterMeter:MC0203J22010600005","2023-08-18T22:15:00",28.799,28.24433,0.212],
    [6745,"urn:WaterMeter:MC0203J22010600005","2023-08-18T22:30:00",28.7,28.238472,0.212],
    [6746,"urn:WaterMeter:MC0203J22010600005","2023-08-18T22:45:00",28.6,28.241226,0.209],
    [6747,"urn:WaterMeter:MC0203J22010600005","2023-08-18T23:00:00",28.399,28.248985,0.208],
    [6748,"urn:WaterMeter:MC0203J22010600005","2023-08-18T23:15:00",28.299,28.205153,0.209],
    [6749,"urn:WaterMeter:MC0203J22010600005","2023-08-18T23:30:00",28.1,28.224546,0.211],
    [6750,"urn:WaterMeter:MC0203J22010600005","2023-08-18T23:45:00",28,28.236185,0.218],
    [6751,"urn:WaterMeter:MC0203J22010600005","2023-08-19T00:00:00",27.899,28.248985,0.215],
    [6752,"urn:WaterMeter:MC0203J22010600005","2023-08-19T00:15:00",27.799,28.243942,0.201],
    [6753,"urn:WaterMeter:MC0203J22010600005","2023-08-19T00:30:00",27.6,28.241615,0.211],
    [6754,"urn:WaterMeter:MC0203J22010600005","2023-08-19T00:45:00",27.5,28.248558,0.208],
    [6755,"urn:WaterMeter:MC0203J22010600005","2023-08-19T01:00:00",27.299,28.260235,0.213],
    [6756,"urn:WaterMeter:MC0203J22010600005","2023-08-19T01:15:00",27.2,28.266014,0.205],
    [6757,"urn:WaterMeter:MC0203J22010600005","2023-08-19T01:30:00",27,28.233082,0.206],
    [6758,"urn:WaterMeter:MC0203J22010600005","2023-08-19T01:45:00",26.899,28.24433,0.209],
    [6759,"urn:WaterMeter:MC0203J22010600005","2023-08-19T02:00:00",26.7,28.265238,0.209],
    [6760,"urn:WaterMeter:MC0203J22010600005","2023-08-19T02:15:00",26.6,28.233082,0.209],
    [6761,"urn:WaterMeter:MC0203J22010600005","2023-08-19T02:30:00",26.399,28.245844,0.205],
    [6762,"urn:WaterMeter:MC0203J22010600005","2023-08-19T02:45:00",26.299,28.250536,0.203],
    [6763,"urn:WaterMeter:MC0203J22010600005","2023-08-19T03:00:00",26.2,28.254803,0.202],
    [6764,"urn:WaterMeter:MC0203J22010600005","2023-08-19T03:15:00",26,28.261786,0.207],
    [6765,"urn:WaterMeter:MC0203J22010600005","2023-08-19T03:30:00",25.899,28.267565,0.21],
    [6766,"urn:WaterMeter:MC0203J22010600005","2023-08-19T03:45:00",25.7,28.254803,0.208],
    [6767,"urn:WaterMeter:MC0203J22010600005","2023-08-19T04:00:00",25.6,28.245068,0.2],
    [6768,"urn:WaterMeter:MC0203J22010600005","2023-08-19T04:15:00",25.5,28.26838,0.206],
    [6769,"urn:WaterMeter:MC0203J22010600005","2023-08-19T04:30:00",25.399,28.248985,0.208],
    [6770,"urn:WaterMeter:MC0203J22010600005","2023-08-19T04:45:00",25.299,28.287348,0.211],
    [6771,"urn:WaterMeter:MC0203J22010600005","2023-08-19T05:00:00",25.2,28.280018,0.203],
    [6772,"urn:WaterMeter:MC0203J22010600005","2023-08-19T05:15:00",25.1,28.2517,0.215],
    [6773,"urn:WaterMeter:MC0203J22010600005","2023-08-19T05:30:00",25,28.278852,0.211],
    [6774,"urn:WaterMeter:MC0203J22010600005","2023-08-19T05:45:00",24.799,28.271482,0.215],
    [6775,"urn:WaterMeter:MC0203J22010600005","2023-08-19T06:00:00",24.7,28.249372,0.21],
    [6776,"urn:WaterMeter:MC0203J22010600005","2023-08-19T06:15:00",24.7,28.240063,0.21],
    [6777,"urn:WaterMeter:MC0203J22010600005","2023-08-19T06:30:00",24.7,28.225672,0.204],
    [6778,"urn:WaterMeter:MC0203J22010600005","2023-08-19T06:45:00",24.799,28.237698,0.211],
    [6779,"urn:WaterMeter:MC0203J22010600005","2023-08-19T07:00:00",24.899,28.188435,0.209],
    [6780,"urn:WaterMeter:MC0203J22010600005","2023-08-19T07:15:00",25.1,28.159729,0.204],
    [6781,"urn:WaterMeter:MC0203J22010600005","2023-08-19T07:30:00",25.399,28.147743,0.212],
    [6782,"urn:WaterMeter:MC0203J22010600005","2023-08-19T07:45:00",25.6,28.056587,0.191],
    [6783,"urn:WaterMeter:MC0203J22010600005","2023-08-19T08:00:00",25.899,28.014267,0.197],
    [6784,"urn:WaterMeter:MC0203J22010600005","2023-08-19T08:15:00",26.2,27.959612,0.202],
    [6785,"urn:WaterMeter:MC0203J22010600005","2023-08-19T08:30:00",26.6,27.918844,0.198],
    [6786,"urn:WaterMeter:MC0203J22010600005","2023-08-19T08:45:00",27.1,27.783894,0.193],
    [6787,"urn:WaterMeter:MC0203J22010600005","2023-08-19T09:00:00",27.7,27.730362,0.189],
    [6788,"urn:WaterMeter:MC0203J22010600005","2023-08-19T09:15:00",28.2,27.657825,0.191],
    [6789,"urn:WaterMeter:MC0203J22010600005","2023-08-19T09:30:00",28.7,27.58141,0.201],
    [6790,"urn:WaterMeter:MC0203J22010600005","2023-08-19T09:45:00",29.2,27.476677,0.189],
    [6791,"urn:WaterMeter:MC0203J22010600005","2023-08-19T10:00:00",29.5,27.386295,0.19],
    [6792,"urn:WaterMeter:MC0203J22010600005","2023-08-19T10:15:00",29.7,27.283113,0.193],
    [6793,"urn:WaterMeter:MC0203J22010600005","2023-08-19T10:30:00",30.1,27.181833,0.187],
    [6794,"urn:WaterMeter:MC0203J22010600005","2023-08-19T10:45:00",30.399,27.084082,0.184],
    [6795,"urn:WaterMeter:MC0203J22010600005","2023-08-19T11:00:00",30.799,27.021282,0.185],
    [6796,"urn:WaterMeter:MC0203J22010600005","2023-08-19T11:15:00",31.299,26.91616,0.186],
    [6797,"urn:WaterMeter:MC0203J22010600005","2023-08-19T11:30:00",31.799,26.825392,0.184],
    [6798,"urn:WaterMeter:MC0203J22010600005","2023-08-19T11:45:00",32.2,26.717556,0.188],
    [6799,"urn:WaterMeter:MC0203J22010600005","2023-08-19T12:00:00",32.5,26.593815,0.181],
    [6800,"urn:WaterMeter:MC0203J22010600005","2023-08-19T12:15:00",32.799,26.490246,0.18],
    [6801,"urn:WaterMeter:MC0203J22010600005","2023-08-19T12:30:00",32.9,26.372324,0.176],
    [6802,"urn:WaterMeter:MC0203J22010600005","2023-08-19T12:45:00",33.099,26.272635,0.177],
    [6803,"urn:WaterMeter:MC0203J22010600005","2023-08-19T13:00:00",33.099,26.14036,0.18],
    [6804,"urn:WaterMeter:MC0203J22010600005","2023-08-19T13:15:00",33.2,26.004984,0.176],
    [6805,"urn:WaterMeter:MC0203J22010600005","2023-08-19T13:30:00",33.2,25.912275,0.183],
    [6806,"urn:WaterMeter:MC0203J22010600005","2023-08-19T13:45:00",33.2,25.795092,0.175],
    [6807,"urn:WaterMeter:MC0203J22010600005","2023-08-19T14:00:00",33.2,25.677557,0.172],
    [6808,"urn:WaterMeter:MC0203J22010600005","2023-08-19T14:15:00",33.099,25.592646,0.174],
    [6809,"urn:WaterMeter:MC0203J22010600005","2023-08-19T14:30:00",33.099,25.499937,0.18],
    [6810,"urn:WaterMeter:MC0203J22010600005","2023-08-19T14:45:00",33.099,25.399084,0.173],
    [6811,"urn:WaterMeter:MC0203J22010600005","2023-08-19T15:00:00",33.099,25.292023,0.185],
    [6812,"urn:WaterMeter:MC0203J22010600005","2023-08-19T15:15:00",33,25.204746,0.184],
    [6813,"urn:WaterMeter:MC0203J22010600005","2023-08-19T15:30:00",32.9,25.138027,0.17],
    [6814,"urn:WaterMeter:MC0203J22010600005","2023-08-19T15:45:00",32.799,25.027824,0.176],
    [6815,"urn:WaterMeter:MC0203J22010600005","2023-08-19T16:00:00",32.7,24.963083,0.172],
    [6816,"urn:WaterMeter:MC0203J22010600005","2023-08-19T16:15:00",32.599,24.884727,0.177],
    [6817,"urn:WaterMeter:MC0203J22010600005","2023-08-19T16:30:00",32.5,24.841284,0.167],
    [6818,"urn:WaterMeter:MC0203J22010600005","2023-08-19T16:45:00",32.4,24.770298,0.172],
    [6819,"urn:WaterMeter:MC0203J22010600005","2023-08-19T17:00:00",32.2,24.727978,0.166],
    [6820,"urn:WaterMeter:MC0203J22010600005","2023-08-19T17:15:00",32.099,24.679878,0.169],
    [6821,"urn:WaterMeter:MC0203J22010600005","2023-08-19T17:30:00",31.899,24.628714,0.179],
    [6822,"urn:WaterMeter:MC0203J22010600005","2023-08-19T17:45:00",31.7,24.596907,0.172],
    [6823,"urn:WaterMeter:MC0203J22010600005","2023-08-19T18:00:00",31.6,24.574408,0.165],
    [6824,"urn:WaterMeter:MC0203J22010600005","2023-08-19T18:15:00",31.399,24.562733,0.166],
    [6825,"urn:WaterMeter:MC0203J22010600005","2023-08-19T18:30:00",31.1,24.54997,0.163],
    [6826,"urn:WaterMeter:MC0203J22010600005","2023-08-19T18:45:00",30.899,24.551134,0.167],
    [6827,"urn:WaterMeter:MC0203J22010600005","2023-08-19T19:00:00",30.799,24.51312,0.163],
    [6828,"urn:WaterMeter:MC0203J22010600005","2023-08-19T19:15:00",30.6,24.530575,0.174],
    [6829,"urn:WaterMeter:MC0203J22010600005","2023-08-19T19:30:00",30.399,24.529411,0.172],
    [6830,"urn:WaterMeter:MC0203J22010600005","2023-08-19T19:45:00",30.2,24.501095,0.17],
    [6831,"urn:WaterMeter:MC0203J22010600005","2023-08-19T20:00:00",30.1,24.52592,0.162],
    [6832,"urn:WaterMeter:MC0203J22010600005","2023-08-19T20:15:00",29.899,24.510405,0.162],
    [6833,"urn:WaterMeter:MC0203J22010600005","2023-08-19T20:30:00",29.799,24.503384,0.161],
    [6834,"urn:WaterMeter:MC0203J22010600005","2023-08-19T20:45:00",29.7,24.490622,0.164],
    [6835,"urn:WaterMeter:MC0203J22010600005","2023-08-19T21:00:00",29.6,24.48907,0.169],
    [6836,"urn:WaterMeter:MC0203J22010600005","2023-08-19T21:15:00",29.399,24.508465,0.168],
    [6837,"urn:WaterMeter:MC0203J22010600005","2023-08-19T21:30:00",29.299,24.51502,0.176],
    [6838,"urn:WaterMeter:MC0203J22010600005","2023-08-19T21:45:00",29.2,24.501833,0.174],
    [6839,"urn:WaterMeter:MC0203J22010600005","2023-08-19T22:00:00",29.1,24.514244,0.172],
    [6840,"urn:WaterMeter:MC0203J22010600005","2023-08-19T22:15:00",29,24.527472,0.168],
    [6841,"urn:WaterMeter:MC0203J22010600005","2023-08-19T22:30:00",28.799,24.52472,0.163],
    [6842,"urn:WaterMeter:MC0203J22010600005","2023-08-19T22:45:00",28.7,24.516224,0.165],
    [6843,"urn:WaterMeter:MC0203J22010600005","2023-08-19T23:00:00",28.6,24.49644,0.164],
    [6844,"urn:WaterMeter:MC0203J22010600005","2023-08-19T23:15:00",28.399,24.520878,0.164],
    [6845,"urn:WaterMeter:MC0203J22010600005","2023-08-19T23:30:00",28.299,24.52433,0.163],
    [6846,"urn:WaterMeter:MC0203J22010600005","2023-08-19T23:45:00",28.2,24.515835,0.167],
    [6847,"urn:WaterMeter:MC0203J22010600005","2023-08-20T00:00:00",28.1,24.490622,0.162],
    [6848,"urn:WaterMeter:MC0203J22010600005","2023-08-20T00:15:00",27.899,24.51118,0.164],
    [6849,"urn:WaterMeter:MC0203J22010600005","2023-08-20T00:30:00",27.799,24.501095,0.167],
    [6850,"urn:WaterMeter:MC0203J22010600005","2023-08-20T00:45:00",27.7,24.54295,0.163],
    [6851,"urn:WaterMeter:MC0203J22010600005","2023-08-20T01:00:00",27.6,24.510405,0.164],
    [6852,"urn:WaterMeter:MC0203J22010600005","2023-08-20T01:15:00",27.5,24.53911,0.163],
    [6853,"urn:WaterMeter:MC0203J22010600005","2023-08-20T01:30:00",27.299,24.497215,0.166],
    [6854,"urn:WaterMeter:MC0203J22010600005","2023-08-20T01:45:00",27.2,24.516224,0.167],
    [6855,"urn:WaterMeter:MC0203J22010600005","2023-08-20T02:00:00",27.1,24.531351,0.166],
    [6856,"urn:WaterMeter:MC0203J22010600005","2023-08-20T02:15:00",27,24.517387,0.167],
    [6857,"urn:WaterMeter:MC0203J22010600005","2023-08-20T02:30:00",26.899,24.538334,0.154],
    [6858,"urn:WaterMeter:MC0203J22010600005","2023-08-20T02:45:00",26.899,24.515835,0.164],
    [6859,"urn:WaterMeter:MC0203J22010600005","2023-08-20T03:00:00",26.799,24.520878,0.161],
    [6860,"urn:WaterMeter:MC0203J22010600005","2023-08-20T03:15:00",26.7,24.512344,0.164],
    [6861,"urn:WaterMeter:MC0203J22010600005","2023-08-20T03:30:00",26.6,24.522003,0.161],
    [6862,"urn:WaterMeter:MC0203J22010600005","2023-08-20T03:45:00",26.5,24.52278,0.165],
    [6863,"urn:WaterMeter:MC0203J22010600005","2023-08-20T04:00:00",26.5,24.529024,0.162],
    [6864,"urn:WaterMeter:MC0203J22010600005","2023-08-20T04:15:00",26.5,24.50575,0.167],
    [6865,"urn:WaterMeter:MC0203J22010600005","2023-08-20T04:30:00",26.5,24.520102,0.157],
    [6866,"urn:WaterMeter:MC0203J22010600005","2023-08-20T04:45:00",26.5,24.490622,0.166],
    [6867,"urn:WaterMeter:MC0203J22010600005","2023-08-20T05:00:00",26.5,24.49101,0.163],
    [6868,"urn:WaterMeter:MC0203J22010600005","2023-08-20T05:15:00",26.5,24.476658,0.16],
    [6869,"urn:WaterMeter:MC0203J22010600005","2023-08-20T05:30:00",26.399,24.482824,0.164],
    [6870,"urn:WaterMeter:MC0203J22010600005","2023-08-20T05:45:00",26.399,24.464594,0.163],
    [6871,"urn:WaterMeter:MC0203J22010600005","2023-08-20T06:00:00",26.399,24.470839,0.157],
    [6872,"urn:WaterMeter:MC0203J22010600005","2023-08-20T06:15:00",26.399,24.464981,0.159],
    [6873,"urn:WaterMeter:MC0203J22010600005","2023-08-20T06:30:00",26.399,24.459589,0.164],
    [6874,"urn:WaterMeter:MC0203J22010600005","2023-08-20T06:45:00",26.5,24.482824,0.163],
    [6875,"urn:WaterMeter:MC0203J22010600005","2023-08-20T07:00:00",26.5,24.425804,0.159],
    [6876,"urn:WaterMeter:MC0203J22010600005","2023-08-20T07:15:00",26.7,24.368782,0.157],
    [6877,"urn:WaterMeter:MC0203J22010600005","2023-08-20T07:30:00",26.899,24.384726,0.16],
    [6878,"urn:WaterMeter:MC0203J22010600005","2023-08-20T07:45:00",27.1,24.353306,0.161],
    [6879,"urn:WaterMeter:MC0203J22010600005","2023-08-20T08:00:00",27.399,24.32266,0.157],
    [6880,"urn:WaterMeter:MC0203J22010600005","2023-08-20T08:15:00",27.6,24.240814,0.157],
    [6881,"urn:WaterMeter:MC0203J22010600005","2023-08-20T08:30:00",27.899,24.200472,0.155],
    [6882,"urn:WaterMeter:MC0203J22010600005","2023-08-20T08:45:00",28.299,24.163622,0.157],
    [6883,"urn:WaterMeter:MC0203J22010600005","2023-08-20T09:00:00",28.799,24.10311,0.156],
    [6884,"urn:WaterMeter:MC0203J22010600005","2023-08-20T09:15:00",29.2,24.061216,0.151],
    [6885,"urn:WaterMeter:MC0203J22010600005","2023-08-20T09:30:00",29.6,23.962263,0.164],
    [6886,"urn:WaterMeter:MC0203J22010600005","2023-08-20T09:45:00",30,23.869982,0.156],
    [6887,"urn:WaterMeter:MC0203J22010600005","2023-08-20T10:00:00",30.299,23.809082,0.156],
    [6888,"urn:WaterMeter:MC0203J22010600005","2023-08-20T10:15:00",30.5,23.745815,0.152],
    [6889,"urn:WaterMeter:MC0203J22010600005","2023-08-20T10:30:00",30.799,23.664783,0.151],
    [6890,"urn:WaterMeter:MC0203J22010600005","2023-08-20T10:45:00",31,23.615908,0.149],
    [6891,"urn:WaterMeter:MC0203J22010600005","2023-08-20T11:00:00",31.399,23.513075,0.147],
    [6892,"urn:WaterMeter:MC0203J22010600005","2023-08-20T11:15:00",31.7,23.46036,0.148],
    [6893,"urn:WaterMeter:MC0203J22010600005","2023-08-20T11:30:00",32.2,23.365324,0.148],
    [6894,"urn:WaterMeter:MC0203J22010600005","2023-08-20T11:45:00",32.599,23.259039,0.147],
    [6895,"urn:WaterMeter:MC0203J22010600005","2023-08-20T12:00:00",32.9,23.196161,0.143],
    [6896,"urn:WaterMeter:MC0203J22010600005","2023-08-20T12:15:00",33.2,23.07246,0.146],
    [6897,"urn:WaterMeter:MC0203J22010600005","2023-08-20T12:30:00",33.4,23.003025,0.14],
    [6898,"urn:WaterMeter:MC0203J22010600005","2023-08-20T12:45:00",33.599,22.886267,0.142],
    [6899,"urn:WaterMeter:MC0203J22010600005","2023-08-20T13:00:00",33.599,22.751667,0.136],
    [6900,"urn:WaterMeter:MC0203J22010600005","2023-08-20T13:15:00",33.7,22.655079,0.142],
    [6901,"urn:WaterMeter:MC0203J22010600005","2023-08-20T13:30:00",33.799,22.550346,0.139],
    [6902,"urn:WaterMeter:MC0203J22010600005","2023-08-20T13:45:00",33.799,22.433588,0.141],
    [6903,"urn:WaterMeter:MC0203J22010600005","2023-08-20T14:00:00",33.7,22.296272,0.138],
    [6904,"urn:WaterMeter:MC0203J22010600005","2023-08-20T14:15:00",33.7,22.20977,0.143],
    [6905,"urn:WaterMeter:MC0203J22010600005","2023-08-20T14:30:00",33.7,22.083315,0.139],
    [6906,"urn:WaterMeter:MC0203J22010600005","2023-08-20T14:45:00",33.7,22.016596,0.135],
    [6907,"urn:WaterMeter:MC0203J22010600005","2023-08-20T15:00:00",33.599,21.909534,0.145],
    [6908,"urn:WaterMeter:MC0203J22010600005","2023-08-20T15:15:00",33.599,21.791225,0.142],
    [6909,"urn:WaterMeter:MC0203J22010600005","2023-08-20T15:30:00",33.599,21.714033,0.143],
    [6910,"urn:WaterMeter:MC0203J22010600005","2023-08-20T15:45:00",33.5,21.596888,0.136],
    [6911,"urn:WaterMeter:MC0203J22010600005","2023-08-20T16:00:00",33.4,21.509611,0.132],
    [6912,"urn:WaterMeter:MC0203J22010600005","2023-08-20T16:15:00",33.4,21.437073,0.139],
    [6913,"urn:WaterMeter:MC0203J22010600005","2023-08-20T16:30:00",33.299,21.348244,0.132],
    [6914,"urn:WaterMeter:MC0203J22010600005","2023-08-20T16:45:00",33.2,21.298594,0.134],
    [6915,"urn:WaterMeter:MC0203J22010600005","2023-08-20T17:00:00",33,21.228771,0.129],
    [6916,"urn:WaterMeter:MC0203J22010600005","2023-08-20T17:15:00",32.9,21.154293,0.131],
    [6917,"urn:WaterMeter:MC0203J22010600005","2023-08-20T17:30:00",32.7,21.091028,0.138],
    [6918,"urn:WaterMeter:MC0203J22010600005","2023-08-20T17:45:00",32.5,21.054604,0.142],
    [6919,"urn:WaterMeter:MC0203J22010600005","2023-08-20T18:00:00",32.299,21.022757,0.14],
    [6920,"urn:WaterMeter:MC0203J22010600005","2023-08-20T18:15:00",32.099,21.017754,0.131],
    [6921,"urn:WaterMeter:MC0203J22010600005","2023-08-20T18:30:00",31.799,20.984356,0.129],
    [6922,"urn:WaterMeter:MC0203J22010600005","2023-08-20T18:45:00",31.6,20.984743,0.141],
    [6923,"urn:WaterMeter:MC0203J22010600005","2023-08-20T19:00:00",31.399,20.970041,0.131],
    [6924,"urn:WaterMeter:MC0203J22010600005","2023-08-20T19:15:00",31.2,20.982067,0.131],
    [6925,"urn:WaterMeter:MC0203J22010600005","2023-08-20T19:30:00",31.1,20.968878,0.131],
    [6926,"urn:WaterMeter:MC0203J22010600005","2023-08-20T19:45:00",30.899,20.963058,0.13],
    [6927,"urn:WaterMeter:MC0203J22010600005","2023-08-20T20:00:00",30.799,20.986721,0.136],
    [6928,"urn:WaterMeter:MC0203J22010600005","2023-08-20T20:15:00",30.6,20.986721,0.127],
    [6929,"urn:WaterMeter:MC0203J22010600005","2023-08-20T20:30:00",30.5,20.946768,0.129],
    [6930,"urn:WaterMeter:MC0203J22010600005","2023-08-20T20:45:00",30.399,20.994053,0.133],
    [6931,"urn:WaterMeter:MC0203J22010600005","2023-08-20T21:00:00",30.299,20.981678,0.131],
    [6932,"urn:WaterMeter:MC0203J22010600005","2023-08-20T21:15:00",30.2,20.986721,0.128],
    [6933,"urn:WaterMeter:MC0203J22010600005","2023-08-20T21:30:00",30.1,20.9778,0.132],
    [6934,"urn:WaterMeter:MC0203J22010600005","2023-08-20T21:45:00",30,20.98513,0.136],
    [6935,"urn:WaterMeter:MC0203J22010600005","2023-08-20T22:00:00",29.899,20.973494,0.141],
    [6936,"urn:WaterMeter:MC0203J22010600005","2023-08-20T22:15:00",29.799,20.990211,0.129],
    [6937,"urn:WaterMeter:MC0203J22010600005","2023-08-20T22:30:00",29.7,21.012283,0.134],
    [6938,"urn:WaterMeter:MC0203J22010600005","2023-08-20T22:45:00",29.6,20.947155,0.13],
    [6939,"urn:WaterMeter:MC0203J22010600005","2023-08-20T23:00:00",29.5,20.978188,0.135],
    [6940,"urn:WaterMeter:MC0203J22010600005","2023-08-20T23:15:00",29.399,20.96849,0.129],
    [6941,"urn:WaterMeter:MC0203J22010600005","2023-08-20T23:30:00",29.299,20.973106,0.128],
    [6942,"urn:WaterMeter:MC0203J22010600005","2023-08-20T23:45:00",29.2,20.979351,0.132],
    [6943,"urn:WaterMeter:MC0203J22010600005","2023-08-21T00:00:00",29.1,20.99603,0.134],
    [6944,"urn:WaterMeter:MC0203J22010600005","2023-08-21T00:15:00",29.1,20.971943,0.128],
    [6945,"urn:WaterMeter:MC0203J22010600005","2023-08-21T00:30:00",29,20.992113,0.126],
    [6946,"urn:WaterMeter:MC0203J22010600005","2023-08-21T00:45:00",29,20.993664,0.131],
    [6947,"urn:WaterMeter:MC0203J22010600005","2023-08-21T01:00:00",29,20.959955,0.129],
    [6948,"urn:WaterMeter:MC0203J22010600005","2023-08-21T01:15:00",29,20.990211,0.129],
    [6949,"urn:WaterMeter:MC0203J22010600005","2023-08-21T01:30:00",29,21.01112,0.132],
    [6950,"urn:WaterMeter:MC0203J22010600005","2023-08-21T01:45:00",28.899,20.994053,0.133],
    [6951,"urn:WaterMeter:MC0203J22010600005","2023-08-21T02:00:00",28.899,20.960344,0.126],
    [6952,"urn:WaterMeter:MC0203J22010600005","2023-08-21T02:15:00",28.799,21.00922,0.129],
    [6953,"urn:WaterMeter:MC0203J22010600005","2023-08-21T02:30:00",28.7,20.98513,0.132],
    [6954,"urn:WaterMeter:MC0203J22010600005","2023-08-21T02:45:00",28.6,20.999134,0.133],
    [6955,"urn:WaterMeter:MC0203J22010600005","2023-08-21T03:00:00",28.5,20.946768,0.126],
    [6956,"urn:WaterMeter:MC0203J22010600005","2023-08-21T03:15:00",28.399,20.97233,0.138],
    [6957,"urn:WaterMeter:MC0203J22010600005","2023-08-21T03:30:00",28.2,21.030127,0.129],
    [6958,"urn:WaterMeter:MC0203J22010600005","2023-08-21T03:45:00",28.1,21.013836,0.13],
    [6959,"urn:WaterMeter:MC0203J22010600005","2023-08-21T04:00:00",28,20.997194,0.134],
    [6960,"urn:WaterMeter:MC0203J22010600005","2023-08-21T04:15:00",27.899,21.023146,0.131],
    [6961,"urn:WaterMeter:MC0203J22010600005","2023-08-21T04:30:00",27.7,21.009995,0.132],
    [6962,"urn:WaterMeter:MC0203J22010600005","2023-08-21T04:45:00",27.6,20.997581,0.133],
    [6963,"urn:WaterMeter:MC0203J22010600005","2023-08-21T05:00:00",27.5,21.019693,0.132],
    [6964,"urn:WaterMeter:MC0203J22010600005","2023-08-21T05:15:00",27.399,21.028614,0.13],
    [6965,"urn:WaterMeter:MC0203J22010600005","2023-08-21T05:30:00",27.399,21.0259,0.137],
    [6966,"urn:WaterMeter:MC0203J22010600005","2023-08-21T05:45:00",27.299,21.048397,0.128],
    [6967,"urn:WaterMeter:MC0203J22010600005","2023-08-21T06:00:00",27.299,21.063526,0.133],
    [6968,"urn:WaterMeter:MC0203J22010600005","2023-08-21T06:15:00",27.299,21.01853,0.124],
    [6969,"urn:WaterMeter:MC0203J22010600005","2023-08-21T06:30:00",27.299,21.085247,0.138],
    [6970,"urn:WaterMeter:MC0203J22010600005","2023-08-21T06:45:00",27.299,21.341612,0.15],
    [6971,"urn:WaterMeter:MC0203J22010600005","2023-08-21T07:00:00",27.399,23.293137,0.18],
    [6972,"urn:WaterMeter:MC0203J22010600005","2023-08-21T07:15:00",27.6,25.613592,0.196],
    [6973,"urn:WaterMeter:MC0203J22010600005","2023-08-21T07:30:00",27.799,27.403324,0.206],
    [6974,"urn:WaterMeter:MC0203J22010600005","2023-08-21T07:45:00",28.1,28.633743,0.223],
    [6975,"urn:WaterMeter:MC0203J22010600005","2023-08-21T08:00:00",28.2,29.525526,0.225],
    [6976,"urn:WaterMeter:MC0203J22010600005","2023-08-21T08:15:00",28.399,29.712881,0.225],
    [6977,"urn:WaterMeter:MC0203J22010600005","2023-08-21T08:30:00",28.7,29.782742,0.24],
    [6978,"urn:WaterMeter:MC0203J22010600005","2023-08-21T08:45:00",29.1,29.787395,0.223],
    [6979,"urn:WaterMeter:MC0203J22010600005","2023-08-21T09:00:00",29.399,29.729599,0.225],
    [6980,"urn:WaterMeter:MC0203J22010600005","2023-08-21T09:15:00",29.799,29.700855,0.225],
    [6981,"urn:WaterMeter:MC0203J22010600005","2023-08-21T09:30:00",30.1,29.678009,0.221],
    [6982,"urn:WaterMeter:MC0203J22010600005","2023-08-21T09:45:00",30.399,29.614355,0.22],
    [6983,"urn:WaterMeter:MC0203J22010600005","2023-08-21T10:00:00",30.6,29.571337,0.215],
    [6984,"urn:WaterMeter:MC0203J22010600005","2023-08-21T10:15:00",30.799,29.525913,0.227],
    [6985,"urn:WaterMeter:MC0203J22010600005","2023-08-21T10:30:00",31,29.477465,0.217],
    [6986,"urn:WaterMeter:MC0203J22010600005","2023-08-21T10:45:00",31.2,29.399109,0.221],
    [6987,"urn:WaterMeter:MC0203J22010600005","2023-08-21T11:00:00",31.399,29.381266,0.217],
    [6988,"urn:WaterMeter:MC0203J22010600005","2023-08-21T11:15:00",31.799,29.32114,0.212],
    [6989,"urn:WaterMeter:MC0203J22010600005","2023-08-21T11:30:00",32.099,29.26955,0.219],
    [6990,"urn:WaterMeter:MC0203J22010600005","2023-08-21T11:45:00",32.4,29.191582,0.213],
    [6991,"urn:WaterMeter:MC0203J22010600005","2023-08-21T12:00:00",32.7,29.131458,0.213],
    [6992,"urn:WaterMeter:MC0203J22010600005","2023-08-21T12:15:00",32.9,29.07366,0.219],
    [6993,"urn:WaterMeter:MC0203J22010600005","2023-08-21T12:30:00",33,28.972418,0.22],
    [6994,"urn:WaterMeter:MC0203J22010600005","2023-08-21T12:45:00",33.099,28.904884,0.208],
    [6995,"urn:WaterMeter:MC0203J22010600005","2023-08-21T13:00:00",33.099,28.847088,0.209],
    [6996,"urn:WaterMeter:MC0203J22010600005","2023-08-21T13:15:00",33.2,28.766056,0.192],
    [6997,"urn:WaterMeter:MC0203J22010600005","2023-08-21T13:30:00",33.2,28.681105,0.208],
    [6998,"urn:WaterMeter:MC0203J22010600005","2023-08-21T13:45:00",33.099,28.608955,0.207],
    [6999,"urn:WaterMeter:MC0203J22010600005","2023-08-21T14:00:00",33.099,28.548018,0.21],
    [7000,"urn:WaterMeter:MC0203J22010600005","2023-08-21T14:15:00",33,28.501509,0.222],
    [7001,"urn:WaterMeter:MC0203J22010600005","2023-08-21T14:30:00",33,28.408024,0.205],
    [7002,"urn:WaterMeter:MC0203J22010600005","2023-08-21T14:45:00",32.9,28.365744,0.213],
    [7003,"urn:WaterMeter:MC0203J22010600005","2023-08-21T15:00:00",32.9,28.296658,0.208],
    [7004,"urn:WaterMeter:MC0203J22010600005","2023-08-21T15:15:00",32.799,28.213299,0.198],
    [7005,"urn:WaterMeter:MC0203J22010600005","2023-08-21T15:30:00",32.7,28.160116,0.203],
    [7006,"urn:WaterMeter:MC0203J22010600005","2023-08-21T15:45:00",32.7,28.055035,0.209],
    [7007,"urn:WaterMeter:MC0203J22010600005","2023-08-21T16:00:00",32.599,28.027105,0.208],
    [7008,"urn:WaterMeter:MC0203J22010600005","2023-08-21T16:15:00",32.5,27.970472,0.202],
    [7009,"urn:WaterMeter:MC0203J22010600005","2023-08-21T16:30:00",32.4,27.933235,0.204],
    [7010,"urn:WaterMeter:MC0203J22010600005","2023-08-21T16:45:00",32.299,27.85294,0.2],
    [7011,"urn:WaterMeter:MC0203J22010600005","2023-08-21T17:00:00",32.2,27.827337,0.2],
    [7012,"urn:WaterMeter:MC0203J22010600005","2023-08-21T17:15:00",32.099,27.780363,0.21],
    [7013,"urn:WaterMeter:MC0203J22010600005","2023-08-21T17:30:00",32,27.75868,0.198],
    [7014,"urn:WaterMeter:MC0203J22010600005","2023-08-21T17:45:00",31.799,27.683777,0.197],
    [7015,"urn:WaterMeter:MC0203J22010600005","2023-08-21T18:00:00",31.7,27.670238,0.22],
    [7016,"urn:WaterMeter:MC0203J22010600005","2023-08-21T18:15:00",31.5,27.657438,0.202],
    [7017,"urn:WaterMeter:MC0203J22010600005","2023-08-21T18:30:00",31.299,27.652782,0.2],
    [7018,"urn:WaterMeter:MC0203J22010600005","2023-08-21T18:45:00",31.1,27.633389,0.198],
    [7019,"urn:WaterMeter:MC0203J22010600005","2023-08-21T19:00:00",30.899,27.608135,0.195],
    [7020,"urn:WaterMeter:MC0203J22010600005","2023-08-21T19:15:00",30.7,27.61283,0.198],
    [7021,"urn:WaterMeter:MC0203J22010600005","2023-08-21T19:30:00",30.6,27.588352,0.196],
    [7022,"urn:WaterMeter:MC0203J22010600005","2023-08-21T19:45:00",30.399,27.567406,0.204],
    [7023,"urn:WaterMeter:MC0203J22010600005","2023-08-21T20:00:00",30.2,27.602743,0.195],
    [7024,"urn:WaterMeter:MC0203J22010600005","2023-08-21T20:15:00",30,27.579857,0.199],
    [7025,"urn:WaterMeter:MC0203J22010600005","2023-08-21T20:30:00",29.899,27.541067,0.2],
    [7026,"urn:WaterMeter:MC0203J22010600005","2023-08-21T20:45:00",29.7,27.556583,0.199],
    [7027,"urn:WaterMeter:MC0203J22010600005","2023-08-21T21:00:00",29.5,27.562014,0.199],
    [7028,"urn:WaterMeter:MC0203J22010600005","2023-08-21T21:15:00",29.399,27.554644,0.198],
    [7029,"urn:WaterMeter:MC0203J22010600005","2023-08-21T21:30:00",29.2,27.543007,0.198],
    [7030,"urn:WaterMeter:MC0203J22010600005","2023-08-21T21:45:00",29.1,27.529003,0.193],
    [7031,"urn:WaterMeter:MC0203J22010600005","2023-08-21T22:00:00",28.899,27.55154,0.2],
    [7032,"urn:WaterMeter:MC0203J22010600005","2023-08-21T22:15:00",28.799,27.537577,0.202],
    [7033,"urn:WaterMeter:MC0203J22010600005","2023-08-21T22:30:00",28.6,27.506544,0.208],
    [7034,"urn:WaterMeter:MC0203J22010600005","2023-08-21T22:45:00",28.399,27.551153,0.198],
    [7035,"urn:WaterMeter:MC0203J22010600005","2023-08-21T23:00:00",28.299,27.524387,0.195],
    [7036,"urn:WaterMeter:MC0203J22010600005","2023-08-21T23:15:00",28.1,27.547623,0.193],
    [7037,"urn:WaterMeter:MC0203J22010600005","2023-08-21T23:30:00",28,27.52978,0.196],
    [7038,"urn:WaterMeter:MC0203J22010600005","2023-08-21T23:45:00",27.799,27.51663,0.195],
    [7039,"urn:WaterMeter:MC0203J22010600005","2023-08-22T00:00:00",27.6,27.509996,0.195],
    [7040,"urn:WaterMeter:MC0203J22010600005","2023-08-22T00:15:00",27.5,27.497234,0.203],
    [7041,"urn:WaterMeter:MC0203J22010600005","2023-08-22T00:30:00",27.399,27.5003,0.189],
    [7042,"urn:WaterMeter:MC0203J22010600005","2023-08-22T00:45:00",27.2,27.527103,0.204],
    [7043,"urn:WaterMeter:MC0203J22010600005","2023-08-22T01:00:00",27.1,27.50538,0.202],
    [7044,"urn:WaterMeter:MC0203J22010600005","2023-08-22T01:15:00",26.899,27.523224,0.196],
    [7045,"urn:WaterMeter:MC0203J22010600005","2023-08-22T01:30:00",26.799,27.492153,0.193],
    [7046,"urn:WaterMeter:MC0203J22010600005","2023-08-22T01:45:00",26.7,27.508057,0.2],
    [7047,"urn:WaterMeter:MC0203J22010600005","2023-08-22T02:00:00",26.5,27.517794,0.196],
    [7048,"urn:WaterMeter:MC0203J22010600005","2023-08-22T02:15:00",26.399,27.492153,0.183],
    [7049,"urn:WaterMeter:MC0203J22010600005","2023-08-22T02:30:00",26.299,27.465815,0.203],
    [7050,"urn:WaterMeter:MC0203J22010600005","2023-08-22T02:45:00",26.2,27.507708,0.193],
    [7051,"urn:WaterMeter:MC0203J22010600005","2023-08-22T03:00:00",26,27.487925,0.192],
    [7052,"urn:WaterMeter:MC0203J22010600005","2023-08-22T03:15:00",25.899,27.499174,0.194],
    [7053,"urn:WaterMeter:MC0203J22010600005","2023-08-22T03:30:00",25.799,27.50344,0.196],
    [7054,"urn:WaterMeter:MC0203J22010600005","2023-08-22T03:45:00",25.7,27.463488,0.204],
    [7055,"urn:WaterMeter:MC0203J22010600005","2023-08-22T04:00:00",25.5,27.458445,0.193],
    [7056,"urn:WaterMeter:MC0203J22010600005","2023-08-22T04:15:00",25.299,27.487537,0.203],
    [7057,"urn:WaterMeter:MC0203J22010600005","2023-08-22T04:30:00",25.2,27.513527,0.191],
    [7058,"urn:WaterMeter:MC0203J22010600005","2023-08-22T04:45:00",25.1,27.46116,0.196],
    [7059,"urn:WaterMeter:MC0203J22010600005","2023-08-22T05:00:00",25,27.480167,0.195],
    [7060,"urn:WaterMeter:MC0203J22010600005","2023-08-22T05:15:00",25,27.494131,0.192],
    [7061,"urn:WaterMeter:MC0203J22010600005","2023-08-22T05:30:00",25.1,27.476288,0.198],
    [7062,"urn:WaterMeter:MC0203J22010600005","2023-08-22T05:45:00",25.1,27.605032,0.213],
    [7063,"urn:WaterMeter:MC0203J22010600005","2023-08-22T06:00:00",25.1,28.150032,0.216],
    [7064,"urn:WaterMeter:MC0203J22010600005","2023-08-22T06:15:00",25,29.204771,0.222],
    [7065,"urn:WaterMeter:MC0203J22010600005","2023-08-22T06:30:00",25.1,29.926653,0.243],
    [7066,"urn:WaterMeter:MC0203J22010600005","2023-08-22T06:45:00",25.2,30.335112,0.24],
    [7067,"urn:WaterMeter:MC0203J22010600005","2023-08-22T07:00:00",25.399,30.536781,0.252],
    [7068,"urn:WaterMeter:MC0203J22010600005","2023-08-22T07:15:00",25.5,30.69,0.24],
    [7069,"urn:WaterMeter:MC0203J22010600005","2023-08-22T07:30:00",25.799,30.805983,0.234],
    [7070,"urn:WaterMeter:MC0203J22010600005","2023-08-22T07:45:00",26,30.911142,0.246],
    [7071,"urn:WaterMeter:MC0203J22010600005","2023-08-22T08:00:00",26.2,30.941748,0.253],
    [7072,"urn:WaterMeter:MC0203J22010600005","2023-08-22T08:15:00",26.5,30.821926,0.238],
    [7073,"urn:WaterMeter:MC0203J22010600005","2023-08-22T08:30:00",26.799,30.623281,0.235],
    [7074,"urn:WaterMeter:MC0203J22010600005","2023-08-22T08:45:00",27.2,30.581429,0.23],
    [7075,"urn:WaterMeter:MC0203J22010600005","2023-08-22T09:00:00",27.7,30.51277,0.231],
    [7076,"urn:WaterMeter:MC0203J22010600005","2023-08-22T09:15:00",28.1,30.419247,0.248],
    [7077,"urn:WaterMeter:MC0203J22010600005","2023-08-22T09:30:00",28.6,30.343218,0.234],
    [7078,"urn:WaterMeter:MC0203J22010600005","2023-08-22T09:45:00",28.899,30.271883,0.229],
    [7079,"urn:WaterMeter:MC0203J22010600005","2023-08-22T10:00:00",29.1,30.19314,0.231],
    [7080,"urn:WaterMeter:MC0203J22010600005","2023-08-22T10:15:00",29.299,30.144651,0.229],
    [7081,"urn:WaterMeter:MC0203J22010600005","2023-08-22T10:30:00",29.6,30.092285,0.233],
    [7082,"urn:WaterMeter:MC0203J22010600005","2023-08-22T10:45:00",29.799,30.014318,0.236],
    [7083,"urn:WaterMeter:MC0203J22010600005","2023-08-22T11:00:00",30.2,29.957296,0.227],
    [7084,"urn:WaterMeter:MC0203J22010600005","2023-08-22T11:15:00",30.5,29.864977,0.22],
    [7085,"urn:WaterMeter:MC0203J22010600005","2023-08-22T11:30:00",30.899,29.826962,0.227],
    [7086,"urn:WaterMeter:MC0203J22010600005","2023-08-22T11:45:00",31.299,29.748995,0.227],
    [7087,"urn:WaterMeter:MC0203J22010600005","2023-08-22T12:00:00",31.5,29.689259,0.233],
    [7088,"urn:WaterMeter:MC0203J22010600005","2023-08-22T12:15:00",31.7,29.598877,0.223],
    [7089,"urn:WaterMeter:MC0203J22010600005","2023-08-22T12:30:00",31.899,29.534098,0.224],
    [7090,"urn:WaterMeter:MC0203J22010600005","2023-08-22T12:45:00",32.099,29.429325,0.219],
    [7091,"urn:WaterMeter:MC0203J22010600005","2023-08-22T13:00:00",32.2,29.373468,0.215],
    [7092,"urn:WaterMeter:MC0203J22010600005","2023-08-22T13:15:00",32.2,29.294336,0.217],
    [7093,"urn:WaterMeter:MC0203J22010600005","2023-08-22T13:30:00",32.299,29.23813,0.221],
    [7094,"urn:WaterMeter:MC0203J22010600005","2023-08-22T13:45:00",32.299,29.15318,0.215],
    [7095,"urn:WaterMeter:MC0203J22010600005","2023-08-22T14:00:00",32.2,29.081768,0.215],
    [7096,"urn:WaterMeter:MC0203J22010600005","2023-08-22T14:15:00",32.2,29.042202,0.217],
    [7097,"urn:WaterMeter:MC0203J22010600005","2023-08-22T14:30:00",32.2,28.96854,0.221],
    [7098,"urn:WaterMeter:MC0203J22010600005","2023-08-22T14:45:00",32.099,28.900658,0.219],
    [7099,"urn:WaterMeter:MC0203J22010600005","2023-08-22T15:00:00",32.099,28.844412,0.21],
    [7100,"urn:WaterMeter:MC0203J22010600005","2023-08-22T15:15:00",32,28.766443,0.213],
    [7101,"urn:WaterMeter:MC0203J22010600005","2023-08-22T15:30:00",32,28.727266,0.214],
    [7102,"urn:WaterMeter:MC0203J22010600005","2023-08-22T15:45:00",31.899,28.640377,0.22],
    [7103,"urn:WaterMeter:MC0203J22010600005","2023-08-22T16:00:00",31.799,28.584131,0.212],
    [7104,"urn:WaterMeter:MC0203J22010600005","2023-08-22T16:15:00",31.799,28.534868,0.208],
    [7105,"urn:WaterMeter:MC0203J22010600005","2023-08-22T16:30:00",31.7,28.500692,0.219],
    [7106,"urn:WaterMeter:MC0203J22010600005","2023-08-22T16:45:00",31.6,28.41811,0.211],
    [7107,"urn:WaterMeter:MC0203J22010600005","2023-08-22T17:00:00",31.5,28.397938,0.209],
    [7108,"urn:WaterMeter:MC0203J22010600005","2023-08-22T17:15:00",31.399,28.357985,0.216],
    [7109,"urn:WaterMeter:MC0203J22010600005","2023-08-22T17:30:00",31.299,28.315664,0.207],
    [7110,"urn:WaterMeter:MC0203J22010600005","2023-08-22T17:45:00",31.1,28.292429,0.214],
    [7111,"urn:WaterMeter:MC0203J22010600005","2023-08-22T18:00:00",31,28.268768,0.207],
    [7112,"urn:WaterMeter:MC0203J22010600005","2023-08-22T18:15:00",30.799,28.242779,0.215],
    [7113,"urn:WaterMeter:MC0203J22010600005","2023-08-22T18:30:00",30.7,28.243942,0.207],
    [7114,"urn:WaterMeter:MC0203J22010600005","2023-08-22T18:45:00",30.5,28.183817,0.206],
    [7115,"urn:WaterMeter:MC0203J22010600005","2023-08-22T19:00:00",30.299,28.20205,0.204],
    [7116,"urn:WaterMeter:MC0203J22010600005","2023-08-22T19:15:00",30.1,28.197393,0.211],
    [7117,"urn:WaterMeter:MC0203J22010600005","2023-08-22T19:30:00",29.899,28.17218,0.214],
    [7118,"urn:WaterMeter:MC0203J22010600005","2023-08-22T19:45:00",29.799,28.201662,0.208],
    [7119,"urn:WaterMeter:MC0203J22010600005","2023-08-22T20:00:00",29.7,28.195456,0.213],
    [7120,"urn:WaterMeter:MC0203J22010600005","2023-08-22T20:15:00",29.6,28.185757,0.206],
    [7121,"urn:WaterMeter:MC0203J22010600005","2023-08-22T20:30:00",29.399,28.178776,0.214],
    [7122,"urn:WaterMeter:MC0203J22010600005","2023-08-22T20:45:00",29.299,28.18727,0.208],
    [7123,"urn:WaterMeter:MC0203J22010600005","2023-08-22T21:00:00",29.1,28.143864,0.216],
    [7124,"urn:WaterMeter:MC0203J22010600005","2023-08-22T21:15:00",29,28.165974,0.208],
    [7125,"urn:WaterMeter:MC0203J22010600005","2023-08-22T21:30:00",28.899,28.189598,0.21],
    [7126,"urn:WaterMeter:MC0203J22010600005","2023-08-22T21:45:00",28.7,28.16714,0.212],
    [7127,"urn:WaterMeter:MC0203J22010600005","2023-08-22T22:15:00",28.399,28.155113,0.211],
    [7128,"urn:WaterMeter:MC0203J22010600005","2023-08-22T22:30:00",28.299,28.145027,0.208],
    [7129,"urn:WaterMeter:MC0203J22010600005","2023-08-22T22:45:00",28.1,28.14464,0.206],
    [7130,"urn:WaterMeter:MC0203J22010600005","2023-08-22T23:00:00",28,28.129862,0.204],
    [7131,"urn:WaterMeter:MC0203J22010600005","2023-08-22T23:15:00",27.799,28.193127,0.229],
    [7132,"urn:WaterMeter:MC0203J22010600005","2023-08-22T23:30:00",27.7,28.165586,0.207],
    [7133,"urn:WaterMeter:MC0203J22010600005","2023-08-22T23:45:00",27.6,28.129862,0.21],
    [7134,"urn:WaterMeter:MC0203J22010600005","2023-08-23T00:00:00",27.399,28.134943,0.204],
    [7135,"urn:WaterMeter:MC0203J22010600005","2023-08-23T00:15:00",27.2,28.13882,0.213],
    [7136,"urn:WaterMeter:MC0203J22010600005","2023-08-23T00:30:00",27.1,28.16714,0.206],
    [7137,"urn:WaterMeter:MC0203J22010600005","2023-08-23T00:45:00",26.899,28.1652,0.207],
    [7138,"urn:WaterMeter:MC0203J22010600005","2023-08-23T01:00:00",26.799,28.15589,0.21],
    [7139,"urn:WaterMeter:MC0203J22010600005","2023-08-23T01:15:00",26.7,28.173733,0.207],
    [7140,"urn:WaterMeter:MC0203J22010600005","2023-08-23T01:30:00",26.6,28.152786,0.213],
    [7141,"urn:WaterMeter:MC0203J22010600005","2023-08-23T01:45:00",26.399,28.163647,0.211],
    [7142,"urn:WaterMeter:MC0203J22010600005","2023-08-23T02:00:00",26.299,28.17257,0.203],
    [7143,"urn:WaterMeter:MC0203J22010600005","2023-08-23T02:15:00",26.2,28.170202,0.209],
    [7144,"urn:WaterMeter:MC0203J22010600005","2023-08-23T02:30:00",26,28.140722,0.204],
    [7145,"urn:WaterMeter:MC0203J22010600005","2023-08-23T02:45:00",25.799,28.17606,0.208],
    [7146,"urn:WaterMeter:MC0203J22010600005","2023-08-23T03:00:00",25.7,28.161707,0.204],
    [7147,"urn:WaterMeter:MC0203J22010600005","2023-08-23T03:15:00",25.6,28.15744,0.206],
    [7148,"urn:WaterMeter:MC0203J22010600005","2023-08-23T03:30:00",25.5,28.147356,0.204],
    [7149,"urn:WaterMeter:MC0203J22010600005","2023-08-23T03:45:00",25.399,28.14619,0.207],
    [7150,"urn:WaterMeter:MC0203J22010600005","2023-08-23T04:00:00",25.299,28.136883,0.206],
    [7151,"urn:WaterMeter:MC0203J22010600005","2023-08-23T04:15:00",25.1,28.150808,0.206],
    [7152,"urn:WaterMeter:MC0203J22010600005","2023-08-23T04:30:00",24.899,28.119038,0.206],
    [7153,"urn:WaterMeter:MC0203J22010600005","2023-08-23T04:45:00",24.799,28.134943,0.205],
    [7154,"urn:WaterMeter:MC0203J22010600005","2023-08-23T05:00:00",24.6,28.184206,0.209],
    [7155,"urn:WaterMeter:MC0203J22010600005","2023-08-23T05:15:00",24.6,28.17218,0.201],
    [7156,"urn:WaterMeter:MC0203J22010600005","2023-08-23T05:30:00",24.7,28.213686,0.202],
    [7157,"urn:WaterMeter:MC0203J22010600005","2023-08-23T05:45:00",24.6,28.637661,0.227],
    [7158,"urn:WaterMeter:MC0203J22010600005","2023-08-23T06:00:00",24.6,29.36575,0.231],
    [7159,"urn:WaterMeter:MC0203J22010600005","2023-08-23T06:15:00",24.7,30.08798,0.231],
    [7160,"urn:WaterMeter:MC0203J22010600005","2023-08-23T06:30:00",24.799,30.513933,0.254],
    [7161,"urn:WaterMeter:MC0203J22010600005","2023-08-23T06:45:00",24.799,30.705944,0.246],
    [7162,"urn:WaterMeter:MC0203J22010600005","2023-08-23T07:00:00",24.899,30.835503,0.244],
    [7163,"urn:WaterMeter:MC0203J22010600005","2023-08-23T07:15:00",25.1,31.008894,0.258],
    [7164,"urn:WaterMeter:MC0203J22010600005","2023-08-23T07:30:00",25.299,31.079453,0.245],
    [7165,"urn:WaterMeter:MC0203J22010600005","2023-08-23T07:45:00",25.5,31.16095,0.251],
    [7166,"urn:WaterMeter:MC0203J22010600005","2023-08-23T08:00:00",25.799,31.227282,0.248],
    [7167,"urn:WaterMeter:MC0203J22010600005","2023-08-23T08:15:00",26,31.014324,0.252],
    [7168,"urn:WaterMeter:MC0203J22010600005","2023-08-23T08:30:00",26.299,30.907652,0.241],
    [7169,"urn:WaterMeter:MC0203J22010600005","2023-08-23T08:45:00",26.7,30.76952,0.243],
    [7170,"urn:WaterMeter:MC0203J22010600005","2023-08-23T09:00:00",27.1,30.678402,0.246],
    [7171,"urn:WaterMeter:MC0203J22010600005","2023-08-23T09:15:00",27.5,30.60315,0.234],
    [7172,"urn:WaterMeter:MC0203J22010600005","2023-08-23T09:30:00",27.899,30.493374,0.239],
    [7173,"urn:WaterMeter:MC0203J22010600005","2023-08-23T09:45:00",28.299,30.471264,0.23],
    [7174,"urn:WaterMeter:MC0203J22010600005","2023-08-23T10:00:00",28.6,30.37041,0.233],
    [7175,"urn:WaterMeter:MC0203J22010600005","2023-08-23T10:15:00",28.899,30.285849,0.236],
    [7176,"urn:WaterMeter:MC0203J22010600005","2023-08-23T10:30:00",29.1,30.216763,0.233],
    [7177,"urn:WaterMeter:MC0203J22010600005","2023-08-23T10:45:00",29.399,30.18034,0.238],
    [7178,"urn:WaterMeter:MC0203J22010600005","2023-08-23T11:00:00",29.7,30.09151,0.24],
    [7179,"urn:WaterMeter:MC0203J22010600005","2023-08-23T11:15:00",30.1,30.025566,0.232],
    [7180,"urn:WaterMeter:MC0203J22010600005","2023-08-23T11:30:00",30.399,29.982859,0.242],
    [7181,"urn:WaterMeter:MC0203J22010600005","2023-08-23T11:45:00",30.799,29.944458,0.226],
    [7182,"urn:WaterMeter:MC0203J22010600005","2023-08-23T12:00:00",31,29.84946,0.225],
    [7183,"urn:WaterMeter:MC0203J22010600005","2023-08-23T12:15:00",31.299,29.752098,0.223],
    [7184,"urn:WaterMeter:MC0203J22010600005","2023-08-23T12:30:00",31.5,29.669863,0.224],
    [7185,"urn:WaterMeter:MC0203J22010600005","2023-08-23T12:45:00",31.6,29.61284,0.226],
    [7186,"urn:WaterMeter:MC0203J22010600005","2023-08-23T13:00:00",31.6,29.51738,0.236],
    [7187,"urn:WaterMeter:MC0203J22010600005","2023-08-23T13:15:00",31.7,29.456905,0.22],
    [7188,"urn:WaterMeter:MC0203J22010600005","2023-08-23T13:30:00",31.799,29.390924,0.224],
    [7189,"urn:WaterMeter:MC0203J22010600005","2023-08-23T13:45:00",31.799,29.320364,0.24],
    [7190,"urn:WaterMeter:MC0203J22010600005","2023-08-23T14:00:00",31.7,29.237703,0.221],
    [7191,"urn:WaterMeter:MC0203J22010600005","2023-08-23T14:15:00",31.6,29.15896,0.217],
    [7192,"urn:WaterMeter:MC0203J22010600005","2023-08-23T14:30:00",31.6,29.106632,0.223],
    [7193,"urn:WaterMeter:MC0203J22010600005","2023-08-23T14:45:00",31.5,29.03138,0.239],
    [7194,"urn:WaterMeter:MC0203J22010600005","2023-08-23T15:00:00",31.5,28.989487,0.215],
    [7195,"urn:WaterMeter:MC0203J22010600005","2023-08-23T15:15:00",31.399,28.915785,0.22],
    [7196,"urn:WaterMeter:MC0203J22010600005","2023-08-23T15:30:00",31.299,28.853333,0.226],
    [7197,"urn:WaterMeter:MC0203J22010600005","2023-08-23T15:45:00",31.2,28.800928,0.214],
    [7198,"urn:WaterMeter:MC0203J22010600005","2023-08-23T16:00:00",31.2,28.740454,0.214],
    [7199,"urn:WaterMeter:MC0203J22010600005","2023-08-23T16:15:00",31.1,28.68033,0.214],
    [7200,"urn:WaterMeter:MC0203J22010600005","2023-08-23T16:30:00",31,28.633354,0.207],
    [7201,"urn:WaterMeter:MC0203J22010600005","2023-08-23T16:45:00",30.899,28.573658,0.212],
    [7202,"urn:WaterMeter:MC0203J22010600005","2023-08-23T17:00:00",30.799,28.541462,0.212],
    [7203,"urn:WaterMeter:MC0203J22010600005","2023-08-23T17:15:00",30.6,28.487543,0.211],
    [7204,"urn:WaterMeter:MC0203J22010600005","2023-08-23T17:30:00",30.5,28.55849,0.22],
    [7205,"urn:WaterMeter:MC0203J22010600005","2023-08-23T17:45:00",30.399,28.523619,0.215],
    [7206,"urn:WaterMeter:MC0203J22010600005","2023-08-23T18:00:00",30.2,28.52323,0.211],
    [7207,"urn:WaterMeter:MC0203J22010600005","2023-08-23T18:15:00",30.1,28.484053,0.208],
    [7208,"urn:WaterMeter:MC0203J22010600005","2023-08-23T18:30:00",29.899,28.474743,0.21],
    [7209,"urn:WaterMeter:MC0203J22010600005","2023-08-23T18:45:00",29.7,28.478195,0.215],
    [7210,"urn:WaterMeter:MC0203J22010600005","2023-08-23T19:00:00",29.399,28.458063,0.217],
    [7211,"urn:WaterMeter:MC0203J22010600005","2023-08-23T19:15:00",29.2,28.470438,0.22],
    [7212,"urn:WaterMeter:MC0203J22010600005","2023-08-23T19:30:00",29,28.434013,0.216],
    [7213,"urn:WaterMeter:MC0203J22010600005","2023-08-23T19:45:00",28.799,28.440182,0.209],
    [7214,"urn:WaterMeter:MC0203J22010600005","2023-08-23T20:00:00",28.6,28.432812,0.211],
    [7215,"urn:WaterMeter:MC0203J22010600005","2023-08-23T20:15:00",28.399,28.44914,0.208],
    [7216,"urn:WaterMeter:MC0203J22010600005","2023-08-23T20:30:00",28.2,28.472027,0.218],
    [7217,"urn:WaterMeter:MC0203J22010600005","2023-08-23T20:45:00",28,28.439016,0.212],
    [7218,"urn:WaterMeter:MC0203J22010600005","2023-08-23T21:00:00",27.899,28.43091,0.212],
    [7219,"urn:WaterMeter:MC0203J22010600005","2023-08-23T21:15:00",27.7,28.457287,0.221],
    [7220,"urn:WaterMeter:MC0203J22010600005","2023-08-23T21:30:00",27.5,28.428194,0.215],
    [7221,"urn:WaterMeter:MC0203J22010600005","2023-08-23T21:45:00",27.399,28.435564,0.213],
    [7222,"urn:WaterMeter:MC0203J22010600005","2023-08-23T22:00:00",27.2,28.433237,0.209],
    [7223,"urn:WaterMeter:MC0203J22010600005","2023-08-23T22:15:00",27.1,28.423113,0.209],
    [7224,"urn:WaterMeter:MC0203J22010600005","2023-08-23T22:30:00",26.899,28.44371,0.213],
    [7225,"urn:WaterMeter:MC0203J22010600005","2023-08-23T22:45:00",26.799,28.44759,0.219],
    [7226,"urn:WaterMeter:MC0203J22010600005","2023-08-23T23:00:00",26.6,28.45496,0.212],
    [7227,"urn:WaterMeter:MC0203J22010600005","2023-08-23T23:15:00",26.5,28.46621,0.213],
    [7228,"urn:WaterMeter:MC0203J22010600005","2023-08-23T23:30:00",26.299,28.426256,0.209],
    [7229,"urn:WaterMeter:MC0203J22010600005","2023-08-23T23:45:00",26.2,28.459188,0.21],
    [7230,"urn:WaterMeter:MC0203J22010600005","2023-08-24T00:00:00",26,28.455736,0.21],
    [7231,"urn:WaterMeter:MC0203J22010600005","2023-08-24T00:15:00",25.799,28.435564,0.212],
    [7232,"urn:WaterMeter:MC0203J22010600005","2023-08-24T00:30:00",25.7,28.463106,0.219],
    [7233,"urn:WaterMeter:MC0203J22010600005","2023-08-24T00:45:00",25.6,28.452633,0.212],
    [7234,"urn:WaterMeter:MC0203J22010600005","2023-08-24T01:00:00",25.5,28.47358,0.216],
    [7235,"urn:WaterMeter:MC0203J22010600005","2023-08-24T01:15:00",25.2,28.461128,0.208],
    [7236,"urn:WaterMeter:MC0203J22010600005","2023-08-24T01:30:00",25.1,28.43673,0.214],
    [7237,"urn:WaterMeter:MC0203J22010600005","2023-08-24T01:45:00",25,28.463106,0.208],
    [7238,"urn:WaterMeter:MC0203J22010600005","2023-08-24T02:00:00",24.799,28.458063,0.207],
    [7239,"urn:WaterMeter:MC0203J22010600005","2023-08-24T02:15:00",24.7,28.45341,0.206],
    [7240,"urn:WaterMeter:MC0203J22010600005","2023-08-24T02:30:00",24.6,28.43828,0.212],
    [7241,"urn:WaterMeter:MC0203J22010600005","2023-08-24T02:45:00",24.399,28.46582,0.214],
    [7242,"urn:WaterMeter:MC0203J22010600005","2023-08-24T03:00:00",24.299,28.484829,0.207],
    [7243,"urn:WaterMeter:MC0203J22010600005","2023-08-24T03:15:00",24.2,28.485216,0.214],
    [7244,"urn:WaterMeter:MC0203J22010600005","2023-08-24T03:30:00",24.1,28.455347,0.209],
    [7245,"urn:WaterMeter:MC0203J22010600005","2023-08-24T03:45:00",24,28.435953,0.207],
    [7246,"urn:WaterMeter:MC0203J22010600005","2023-08-24T04:00:00",23.899,28.474743,0.212],
    [7247,"urn:WaterMeter:MC0203J22010600005","2023-08-24T04:15:00",23.7,28.428194,0.206],
    [7248,"urn:WaterMeter:MC0203J22010600005","2023-08-24T04:30:00",23.6,28.404144,0.211],
    [7249,"urn:WaterMeter:MC0203J22010600005","2023-08-24T04:45:00",23.6,28.46427,0.208],
    [7250,"urn:WaterMeter:MC0203J22010600005","2023-08-24T05:00:00",23.5,28.44565,0.214],
    [7251,"urn:WaterMeter:MC0203J22010600005","2023-08-24T05:15:00",23.5,28.323423,0.209],
    [7252,"urn:WaterMeter:MC0203J22010600005","2023-08-24T05:30:00",23.6,28.378155,0.203],
    [7253,"urn:WaterMeter:MC0203J22010600005","2023-08-24T05:45:00",23.6,28.721447,0.22],
    [7254,"urn:WaterMeter:MC0203J22010600005","2023-08-24T06:00:00",23.5,29.509233,0.229],
    [7255,"urn:WaterMeter:MC0203J22010600005","2023-08-24T06:15:00",23.399,30.216763,0.242],
    [7256,"urn:WaterMeter:MC0203J22010600005","2023-08-24T06:30:00",23.5,30.659395,0.254],
    [7257,"urn:WaterMeter:MC0203J22010600005","2023-08-24T06:45:00",23.7,30.871576,0.252],
    [7258,"urn:WaterMeter:MC0203J22010600005","2023-08-24T07:00:00",23.799,31.038336,0.248],
    [7259,"urn:WaterMeter:MC0203J22010600005","2023-08-24T07:15:00",23.899,31.157808,0.247],
    [7260,"urn:WaterMeter:MC0203J22010600005","2023-08-24T07:30:00",24.2,31.235815,0.247],
    [7261,"urn:WaterMeter:MC0203J22010600005","2023-08-24T07:45:00",24.5,31.31999,0.249],
    [7262,"urn:WaterMeter:MC0203J22010600005","2023-08-24T08:00:00",24.799,31.386707,0.252],
    [7263,"urn:WaterMeter:MC0203J22010600005","2023-08-24T08:15:00",25.1,31.178019,0.244],
    [7264,"urn:WaterMeter:MC0203J22010600005","2023-08-24T08:30:00",25.399,31.008505,0.237],
    [7265,"urn:WaterMeter:MC0203J22010600005","2023-08-24T08:45:00",25.799,30.895588,0.24],
    [7266,"urn:WaterMeter:MC0203J22010600005","2023-08-24T09:00:00",26.299,30.777317,0.24],
    [7267,"urn:WaterMeter:MC0203J22010600005","2023-08-24T09:15:00",26.7,30.729954,0.237],
    [7268,"urn:WaterMeter:MC0203J22010600005","2023-08-24T09:30:00",27.299,30.645042,0.236],
    [7269,"urn:WaterMeter:MC0203J22010600005","2023-08-24T09:45:00",27.7,30.58647,0.239],
    [7270,"urn:WaterMeter:MC0203J22010600005","2023-08-24T10:00:00",28,30.485228,0.236],
    [7271,"urn:WaterMeter:MC0203J22010600005","2023-08-24T10:15:00",28.2,30.426655,0.231],
    [7272,"urn:WaterMeter:MC0203J22010600005","2023-08-24T10:30:00",28.5,30.366142,0.244],
    [7273,"urn:WaterMeter:MC0203J22010600005","2023-08-24T10:45:00",28.799,30.275335,0.233],
    [7274,"urn:WaterMeter:MC0203J22010600005","2023-08-24T11:00:00",29.2,30.208656,0.237],
    [7275,"urn:WaterMeter:MC0203J22010600005","2023-08-24T11:15:00",29.6,30.15819,0.231],
    [7276,"urn:WaterMeter:MC0203J22010600005","2023-08-24T11:30:00",30,30.082201,0.238],
    [7277,"urn:WaterMeter:MC0203J22010600005","2023-08-24T11:45:00",30.399,29.996475,0.231],
    [7278,"urn:WaterMeter:MC0203J22010600005","2023-08-24T12:00:00",30.7,29.943333,0.227],
    [7279,"urn:WaterMeter:MC0203J22010600005","2023-08-24T12:15:00",31,29.868467,0.227],
    [7280,"urn:WaterMeter:MC0203J22010600005","2023-08-24T12:30:00",31.2,29.779987,0.23],
    [7281,"urn:WaterMeter:MC0203J22010600005","2023-08-24T12:45:00",31.299,29.678785,0.231],
    [7282,"urn:WaterMeter:MC0203J22010600005","2023-08-24T13:00:00",31.399,29.638056,0.232],
    [7283,"urn:WaterMeter:MC0203J22010600005","2023-08-24T13:15:00",31.399,29.530218,0.229],
    [7284,"urn:WaterMeter:MC0203J22010600005","2023-08-24T13:30:00",31.5,29.484446,0.235],
    [7285,"urn:WaterMeter:MC0203J22010600005","2023-08-24T13:45:00",31.5,29.394066,0.213],
    [7286,"urn:WaterMeter:MC0203J22010600005","2023-08-24T14:00:00",31.5,29.320753,0.234],
    [7287,"urn:WaterMeter:MC0203J22010600005","2023-08-24T14:15:00",31.5,29.277697,0.224],
    [7288,"urn:WaterMeter:MC0203J22010600005","2023-08-24T14:30:00",31.5,29.18844,0.221],
    [7289,"urn:WaterMeter:MC0203J22010600005","2023-08-24T14:45:00",31.5,29.121334,0.217],
    [7290,"urn:WaterMeter:MC0203J22010600005","2023-08-24T15:00:00",31.5,29.085686,0.216],
    [7291,"urn:WaterMeter:MC0203J22010600005","2023-08-24T15:15:00",31.5,29.028664,0.224],
    [7292,"urn:WaterMeter:MC0203J22010600005","2023-08-24T15:30:00",31.399,28.943287,0.214],
    [7293,"urn:WaterMeter:MC0203J22010600005","2023-08-24T15:45:00",31.399,28.847475,0.219],
    [7294,"urn:WaterMeter:MC0203J22010600005","2023-08-24T16:00:00",31.299,28.792046,0.229],
    [7295,"urn:WaterMeter:MC0203J22010600005","2023-08-24T16:15:00",31.299,28.740843,0.222],
    [7296,"urn:WaterMeter:MC0203J22010600005","2023-08-24T16:30:00",31.2,28.651237,0.209],
    [7297,"urn:WaterMeter:MC0203J22010600005","2023-08-24T16:45:00",31.1,28.630291,0.216],
    [7298,"urn:WaterMeter:MC0203J22010600005","2023-08-24T17:00:00",31,28.590725,0.224],
    [7299,"urn:WaterMeter:MC0203J22010600005","2023-08-24T17:15:00",30.899,28.553486,0.216],
    [7300,"urn:WaterMeter:MC0203J22010600005","2023-08-24T17:30:00",30.7,28.508839,0.214],
    [7301,"urn:WaterMeter:MC0203J22010600005","2023-08-24T17:45:00",30.6,28.49569,0.231],
    [7302,"urn:WaterMeter:MC0203J22010600005","2023-08-24T18:00:00",30.399,28.470049,0.216],
    [7303,"urn:WaterMeter:MC0203J22010600005","2023-08-24T18:15:00",30.299,28.43634,0.211],
    [7304,"urn:WaterMeter:MC0203J22010600005","2023-08-24T18:30:00",30.1,28.41811,0.212],
    [7305,"urn:WaterMeter:MC0203J22010600005","2023-08-24T18:45:00",29.899,28.405308,0.227],
    [7306,"urn:WaterMeter:MC0203J22010600005","2023-08-24T19:00:00",29.7,28.394447,0.218],
    [7307,"urn:WaterMeter:MC0203J22010600005","2023-08-24T19:15:00",29.399,28.406473,0.217],
    [7308,"urn:WaterMeter:MC0203J22010600005","2023-08-24T19:30:00",29.2,28.38316,0.223],
    [7309,"urn:WaterMeter:MC0203J22010600005","2023-08-24T19:45:00",29.1,28.41772,0.211],
    [7310,"urn:WaterMeter:MC0203J22010600005","2023-08-24T20:00:00",28.899,28.37932,0.213],
    [7311,"urn:WaterMeter:MC0203J22010600005","2023-08-24T20:15:00",28.7,28.36454,0.216],
    [7312,"urn:WaterMeter:MC0203J22010600005","2023-08-24T20:30:00",28.5,28.377768,0.216],
    [7313,"urn:WaterMeter:MC0203J22010600005","2023-08-24T20:45:00",28.299,28.376604,0.216],
    [7314,"urn:WaterMeter:MC0203J22010600005","2023-08-24T21:00:00",28.2,28.397163,0.214],
    [7315,"urn:WaterMeter:MC0203J22010600005","2023-08-24T21:15:00",28,28.405308,0.211],
    [7316,"urn:WaterMeter:MC0203J22010600005","2023-08-24T21:30:00",27.799,28.37544,0.227],
    [7317,"urn:WaterMeter:MC0203J22010600005","2023-08-24T21:45:00",27.7,28.385914,0.215],
    [7318,"urn:WaterMeter:MC0203J22010600005","2023-08-24T22:00:00",27.5,28.38863,0.214],
    [7319,"urn:WaterMeter:MC0203J22010600005","2023-08-24T22:15:00",27.299,28.390957,0.217],
    [7320,"urn:WaterMeter:MC0203J22010600005","2023-08-24T22:30:00",27.2,28.40492,0.212],
    [7321,"urn:WaterMeter:MC0203J22010600005","2023-08-24T22:45:00",27,28.35523,0.215],
    [7322,"urn:WaterMeter:MC0203J22010600005","2023-08-24T23:00:00",26.899,28.350227,0.213],
    [7323,"urn:WaterMeter:MC0203J22010600005","2023-08-24T23:15:00",26.7,28.380833,0.213],
    [7324,"urn:WaterMeter:MC0203J22010600005","2023-08-24T23:30:00",26.6,28.3626,0.209],
    [7325,"urn:WaterMeter:MC0203J22010600005","2023-08-24T23:45:00",26.399,28.357597,0.211],
    [7326,"urn:WaterMeter:MC0203J22010600005","2023-08-25T00:00:00",26.299,28.373074,0.214],
    [7327,"urn:WaterMeter:MC0203J22010600005","2023-08-25T00:15:00",26.1,28.39755,0.215],
    [7328,"urn:WaterMeter:MC0203J22010600005","2023-08-25T00:30:00",26,28.358374,0.21],
    [7329,"urn:WaterMeter:MC0203J22010600005","2023-08-25T00:45:00",25.799,28.389793,0.211],
    [7330,"urn:WaterMeter:MC0203J22010600005","2023-08-25T01:00:00",25.6,28.381996,0.214],
    [7331,"urn:WaterMeter:MC0203J22010600005","2023-08-25T01:15:00",25.5,28.35523,0.22],
    [7332,"urn:WaterMeter:MC0203J22010600005","2023-08-25T01:30:00",25.399,28.374237,0.217],
    [7333,"urn:WaterMeter:MC0203J22010600005","2023-08-25T01:45:00",25.299,28.37385,0.21],
    [7334,"urn:WaterMeter:MC0203J22010600005","2023-08-25T02:00:00",25.1,28.375053,0.207],
    [7335,"urn:WaterMeter:MC0203J22010600005","2023-08-25T02:15:00",25,28.378544,0.212],
    [7336,"urn:WaterMeter:MC0203J22010600005","2023-08-25T02:30:00",24.899,28.413029,0.214],
    [7337,"urn:WaterMeter:MC0203J22010600005","2023-08-25T02:45:00",24.799,28.393246,0.21],
    [7338,"urn:WaterMeter:MC0203J22010600005","2023-08-25T03:00:00",24.6,28.37385,0.21],
    [7339,"urn:WaterMeter:MC0203J22010600005","2023-08-25T03:15:00",24.5,28.393246,0.213],
    [7340,"urn:WaterMeter:MC0203J22010600005","2023-08-25T03:30:00",24.399,28.39402,0.208],
    [7341,"urn:WaterMeter:MC0203J22010600005","2023-08-25T03:45:00",24.299,28.350227,0.205],
    [7342,"urn:WaterMeter:MC0203J22010600005","2023-08-25T04:00:00",24.2,28.37195,0.205],
    [7343,"urn:WaterMeter:MC0203J22010600005","2023-08-25T04:15:00",24.1,28.359924,0.211],
    [7344,"urn:WaterMeter:MC0203J22010600005","2023-08-25T04:30:00",24.1,28.335836,0.212],
    [7345,"urn:WaterMeter:MC0203J22010600005","2023-08-25T04:45:00",24,28.368458,0.211],
    [7346,"urn:WaterMeter:MC0203J22010600005","2023-08-25T05:00:00",23.899,28.358374,0.209],
    [7347,"urn:WaterMeter:MC0203J22010600005","2023-08-25T05:15:00",23.899,28.382772,0.215],
    [7348,"urn:WaterMeter:MC0203J22010600005","2023-08-25T05:30:00",24,28.415007,0.223],
    [7349,"urn:WaterMeter:MC0203J22010600005","2023-08-25T05:45:00",24,28.792433,0.221],
    [7350,"urn:WaterMeter:MC0203J22010600005","2023-08-25T06:00:00",24,29.643835,0.233],
    [7351,"urn:WaterMeter:MC0203J22010600005","2023-08-25T06:15:00",24,30.40726,0.242],
    [7352,"urn:WaterMeter:MC0203J22010600005","2023-08-25T06:30:00",24.1,30.75482,0.245],
    [7353,"urn:WaterMeter:MC0203J22010600005","2023-08-25T06:45:00",24.299,30.962694,0.244],
    [7354,"urn:WaterMeter:MC0203J22010600005","2023-08-25T07:00:00",24.5,31.088762,0.251],
    [7355,"urn:WaterMeter:MC0203J22010600005","2023-08-25T07:15:00",24.7,31.237755,0.273],
    [7356,"urn:WaterMeter:MC0203J22010600005","2023-08-25T07:30:00",24.799,31.288568,0.252],
    [7357,"urn:WaterMeter:MC0203J22010600005","2023-08-25T07:45:00",25,31.418478,0.254],
    [7358,"urn:WaterMeter:MC0203J22010600005","2023-08-25T08:00:00",25.2,31.462349,0.253],
    [7359,"urn:WaterMeter:MC0203J22010600005","2023-08-25T08:15:00",25.5,31.302883,0.254],
    [7360,"urn:WaterMeter:MC0203J22010600005","2023-08-25T08:30:00",25.799,31.068243,0.25],
    [7361,"urn:WaterMeter:MC0203J22010600005","2023-08-25T08:45:00",26.1,30.956139,0.24],
    [7362,"urn:WaterMeter:MC0203J22010600005","2023-08-25T09:00:00",26.5,30.90067,0.242],
    [7363,"urn:WaterMeter:MC0203J22010600005","2023-08-25T09:15:00",26.899,30.7862,0.241],
    [7364,"urn:WaterMeter:MC0203J22010600005","2023-08-25T09:30:00",27.399,30.714478,0.246],
    [7365,"urn:WaterMeter:MC0203J22010600005","2023-08-25T09:45:00",27.7,30.646982,0.24],
    [7366,"urn:WaterMeter:MC0203J22010600005","2023-08-25T10:00:00",28,30.571342,0.235],
    [7367,"urn:WaterMeter:MC0203J22010600005","2023-08-25T10:15:00",28.299,30.502684,0.246],
    [7368,"urn:WaterMeter:MC0203J22010600005","2023-08-25T10:30:00",28.6,30.441397,0.238],
    [7369,"urn:WaterMeter:MC0203J22010600005","2023-08-25T10:45:00",28.899,30.360674,0.237],
    [7370,"urn:WaterMeter:MC0203J22010600005","2023-08-25T11:00:00",29.299,30.305243,0.235],
    [7371,"urn:WaterMeter:MC0203J22010600005","2023-08-25T11:15:00",29.6,30.225685,0.247],
    [7372,"urn:WaterMeter:MC0203J22010600005","2023-08-25T11:30:00",30.1,30.18189,0.229],
    [7373,"urn:WaterMeter:MC0203J22010600005","2023-08-25T11:45:00",30.5,30.079098,0.244],
    [7374,"urn:WaterMeter:MC0203J22010600005","2023-08-25T12:00:00",30.899,30.024403,0.234],
    [7375,"urn:WaterMeter:MC0203J22010600005","2023-08-25T12:15:00",31.2,29.922386,0.229],
    [7376,"urn:WaterMeter:MC0203J22010600005","2023-08-25T12:30:00",31.399,29.895193,0.225],
    [7377,"urn:WaterMeter:MC0203J22010600005","2023-08-25T12:45:00",31.6,29.792439,0.237],
    [7378,"urn:WaterMeter:MC0203J22010600005","2023-08-25T13:00:00",31.799,29.704386,0.226],
    [7379,"urn:WaterMeter:MC0203J22010600005","2023-08-25T13:15:00",31.899,29.62444,0.226],
    [7380,"urn:WaterMeter:MC0203J22010600005","2023-08-25T13:30:00",32,29.557333,0.227],
    [7381,"urn:WaterMeter:MC0203J22010600005","2023-08-25T13:45:00",32,29.484446,0.246],
    [7382,"urn:WaterMeter:MC0203J22010600005","2023-08-25T14:00:00",32.099,29.410318,0.232],
    [7383,"urn:WaterMeter:MC0203J22010600005","2023-08-25T14:15:00",32.099,29.307564,0.239],
    [7384,"urn:WaterMeter:MC0203J22010600005","2023-08-25T14:30:00",32.099,29.226105,0.235],
    [7385,"urn:WaterMeter:MC0203J22010600005","2023-08-25T14:45:00",32.2,29.150852,0.227],
    [7386,"urn:WaterMeter:MC0203J22010600005","2023-08-25T15:00:00",32.2,29.093443,0.227],
    [7387,"urn:WaterMeter:MC0203J22010600005","2023-08-25T15:15:00",32.2,29.006554,0.224],
    [7388,"urn:WaterMeter:MC0203J22010600005","2023-08-25T15:30:00",32.2,28.934792,0.218],
    [7389,"urn:WaterMeter:MC0203J22010600005","2023-08-25T15:45:00",32.2,28.831999,0.219],
    [7390,"urn:WaterMeter:MC0203J22010600005","2023-08-25T16:00:00",32.099,28.77614,0.219],
    [7391,"urn:WaterMeter:MC0203J22010600005","2023-08-25T16:15:00",32.099,28.71912,0.213],
    [7392,"urn:WaterMeter:MC0203J22010600005","2023-08-25T16:30:00",32,28.652363,0.221],
    [7393,"urn:WaterMeter:MC0203J22010600005","2023-08-25T16:45:00",31.799,28.596504,0.214],
    [7394,"urn:WaterMeter:MC0203J22010600005","2023-08-25T17:00:00",31.7,28.514309,0.221],
    [7395,"urn:WaterMeter:MC0203J22010600005","2023-08-25T17:15:00",31.6,28.486767,0.215],
    [7396,"urn:WaterMeter:MC0203J22010600005","2023-08-25T17:30:00",31.399,28.46776,0.218],
    [7397,"urn:WaterMeter:MC0203J22010600005","2023-08-25T17:45:00",31.299,28.42897,0.218],
    [7398,"urn:WaterMeter:MC0203J22010600005","2023-08-25T18:00:00",31.1,28.42354,0.212],
    [7399,"urn:WaterMeter:MC0203J22010600005","2023-08-25T18:15:00",31,28.363377,0.23],
    [7400,"urn:WaterMeter:MC0203J22010600005","2023-08-25T18:30:00",30.799,28.346348,0.214],
    [7401,"urn:WaterMeter:MC0203J22010600005","2023-08-25T18:45:00",30.6,28.351004,0.217],
    [7402,"urn:WaterMeter:MC0203J22010600005","2023-08-25T19:00:00",30.399,28.331608,0.216],
    [7403,"urn:WaterMeter:MC0203J22010600005","2023-08-25T19:15:00",30.299,28.35523,0.23],
    [7404,"urn:WaterMeter:MC0203J22010600005","2023-08-25T19:30:00",30.2,28.306744,0.215],
    [7405,"urn:WaterMeter:MC0203J22010600005","2023-08-25T19:45:00",30.2,28.32928,0.22],
    [7406,"urn:WaterMeter:MC0203J22010600005","2023-08-25T20:00:00",30.1,28.289326,0.214],
    [7407,"urn:WaterMeter:MC0203J22010600005","2023-08-25T20:15:00",30,28.328505,0.218],
    [7408,"urn:WaterMeter:MC0203J22010600005","2023-08-25T20:30:00",29.899,28.299799,0.215],
    [7409,"urn:WaterMeter:MC0203J22010600005","2023-08-25T20:45:00",29.7,28.281956,0.21],
    [7410,"urn:WaterMeter:MC0203J22010600005","2023-08-25T21:00:00",29.6,28.297861,0.211],
    [7411,"urn:WaterMeter:MC0203J22010600005","2023-08-25T21:15:00",29.399,28.288551,0.218],
    [7412,"urn:WaterMeter:MC0203J22010600005","2023-08-25T21:30:00",29.299,28.313375,0.211],
    [7413,"urn:WaterMeter:MC0203J22010600005","2023-08-25T21:45:00",29.1,28.297861,0.213],
    [7414,"urn:WaterMeter:MC0203J22010600005","2023-08-25T22:00:00",29,28.309885,0.211],
    [7415,"urn:WaterMeter:MC0203J22010600005","2023-08-25T22:15:00",28.899,28.298248,0.193],
    [7416,"urn:WaterMeter:MC0203J22010600005","2023-08-25T22:30:00",28.7,28.316053,0.216],
    [7417,"urn:WaterMeter:MC0203J22010600005","2023-08-25T22:45:00",28.6,28.30717,0.209],
    [7418,"urn:WaterMeter:MC0203J22010600005","2023-08-25T23:00:00",28.6,28.278852,0.215],
    [7419,"urn:WaterMeter:MC0203J22010600005","2023-08-25T23:15:00",28.399,28.260235,0.21],
    [7420,"urn:WaterMeter:MC0203J22010600005","2023-08-25T23:30:00",28.299,28.300964,0.212],
    [7421,"urn:WaterMeter:MC0203J22010600005","2023-08-25T23:45:00",28.2,28.311049,0.224],
    [7422,"urn:WaterMeter:MC0203J22010600005","2023-08-26T00:00:00",28.1,28.304804,0.217],
    [7423,"urn:WaterMeter:MC0203J22010600005","2023-08-26T00:15:00",28,28.285797,0.223],
    [7424,"urn:WaterMeter:MC0203J22010600005","2023-08-26T00:30:00",27.799,28.288162,0.214],
    [7425,"urn:WaterMeter:MC0203J22010600005","2023-08-26T00:45:00",27.7,28.266014,0.211],
    [7426,"urn:WaterMeter:MC0203J22010600005","2023-08-26T01:00:00",27.6,28.291265,0.218],
    [7427,"urn:WaterMeter:MC0203J22010600005","2023-08-26T01:15:00",27.399,28.283857,0.211],
    [7428,"urn:WaterMeter:MC0203J22010600005","2023-08-26T01:30:00",27.299,28.280405,0.225],
    [7429,"urn:WaterMeter:MC0203J22010600005","2023-08-26T01:45:00",27.2,28.310274,0.211],
    [7430,"urn:WaterMeter:MC0203J22010600005","2023-08-26T02:00:00",27.1,28.309885,0.214],
    [7431,"urn:WaterMeter:MC0203J22010600005","2023-08-26T02:15:00",26.899,28.261398,0.208],
    [7432,"urn:WaterMeter:MC0203J22010600005","2023-08-26T02:30:00",26.799,28.262949,0.207],
    [7433,"urn:WaterMeter:MC0203J22010600005","2023-08-26T02:45:00",26.7,28.286573,0.218],
    [7434,"urn:WaterMeter:MC0203J22010600005","2023-08-26T03:00:00",26.6,28.283121,0.215],
    [7435,"urn:WaterMeter:MC0203J22010600005","2023-08-26T03:15:00",26.5,28.271482,0.21],
    [7436,"urn:WaterMeter:MC0203J22010600005","2023-08-26T03:30:00",26.399,28.293982,0.21],
    [7437,"urn:WaterMeter:MC0203J22010600005","2023-08-26T03:45:00",26.299,28.263725,0.219],
    [7438,"urn:WaterMeter:MC0203J22010600005","2023-08-26T04:00:00",26.1,28.311438,0.211],
    [7439,"urn:WaterMeter:MC0203J22010600005","2023-08-26T04:15:00",26,28.294758,0.204],
    [7440,"urn:WaterMeter:MC0203J22010600005","2023-08-26T04:30:00",25.899,28.321135,0.206],
    [7441,"urn:WaterMeter:MC0203J22010600005","2023-08-26T04:45:00",25.799,28.277264,0.213],
    [7442,"urn:WaterMeter:MC0203J22010600005","2023-08-26T05:00:00",25.7,28.285408,0.211],
    [7443,"urn:WaterMeter:MC0203J22010600005","2023-08-26T05:15:00",25.6,28.319195,0.213],
    [7444,"urn:WaterMeter:MC0203J22010600005","2023-08-26T05:30:00",25.5,28.285408,0.211],
    [7445,"urn:WaterMeter:MC0203J22010600005","2023-08-26T05:45:00",25.399,28.295145,0.218],
    [7446,"urn:WaterMeter:MC0203J22010600005","2023-08-26T06:00:00",25.399,28.293205,0.213],
    [7447,"urn:WaterMeter:MC0203J22010600005","2023-08-26T06:15:00",25.299,28.289326,0.217],
    [7448,"urn:WaterMeter:MC0203J22010600005","2023-08-26T06:30:00",25.299,28.27575,0.21],
    [7449,"urn:WaterMeter:MC0203J22010600005","2023-08-26T06:45:00",25.399,28.23696,0.21],
    [7450,"urn:WaterMeter:MC0203J22010600005","2023-08-26T07:00:00",25.5,28.237698,0.218],
    [7451,"urn:WaterMeter:MC0203J22010600005","2023-08-26T07:15:00",25.6,28.228388,0.213],
    [7452,"urn:WaterMeter:MC0203J22010600005","2023-08-26T07:30:00",25.799,28.167875,0.203],
    [7453,"urn:WaterMeter:MC0203J22010600005","2023-08-26T07:45:00",26,28.152397,0.206],
    [7454,"urn:WaterMeter:MC0203J22010600005","2023-08-26T08:00:00",26.2,28.08529,0.205],
    [7455,"urn:WaterMeter:MC0203J22010600005","2023-08-26T08:15:00",26.5,28.04301,0.202],
    [7456,"urn:WaterMeter:MC0203J22010600005","2023-08-26T08:30:00",26.799,28.011978,0.2],
    [7457,"urn:WaterMeter:MC0203J22010600005","2023-08-26T08:45:00",27.2,27.968922,0.202],
    [7458,"urn:WaterMeter:MC0203J22010600005","2023-08-26T09:00:00",27.6,27.916128,0.196],
    [7459,"urn:WaterMeter:MC0203J22010600005","2023-08-26T09:15:00",28,27.829664,0.207],
    [7460,"urn:WaterMeter:MC0203J22010600005","2023-08-26T09:30:00",28.5,27.767988,0.198],
    [7461,"urn:WaterMeter:MC0203J22010600005","2023-08-26T09:45:00",28.799,27.698942,0.196],
    [7462,"urn:WaterMeter:MC0203J22010600005","2023-08-26T10:00:00",29.1,27.648129,0.2],
    [7463,"urn:WaterMeter:MC0203J22010600005","2023-08-26T10:15:00",29.299,27.576366,0.202],
    [7464,"urn:WaterMeter:MC0203J22010600005","2023-08-26T10:30:00",29.6,27.489826,0.208],
    [7465,"urn:WaterMeter:MC0203J22010600005","2023-08-26T10:45:00",29.899,27.402975,0.208],
    [7466,"urn:WaterMeter:MC0203J22010600005","2023-08-26T11:00:00",30.2,27.336605,0.195],
    [7467,"urn:WaterMeter:MC0203J22010600005","2023-08-26T11:15:00",30.6,27.236177,0.19],
    [7468,"urn:WaterMeter:MC0203J22010600005","2023-08-26T11:30:00",31,27.159723,0.19],
    [7469,"urn:WaterMeter:MC0203J22010600005","2023-08-26T11:45:00",31.399,27.072485,0.188],
    [7470,"urn:WaterMeter:MC0203J22010600005","2023-08-26T12:00:00",31.7,26.99413,0.191],
    [7471,"urn:WaterMeter:MC0203J22010600005","2023-08-26T12:15:00",32,26.876984,0.193],
    [7472,"urn:WaterMeter:MC0203J22010600005","2023-08-26T12:30:00",32.2,26.749752,0.188],
    [7473,"urn:WaterMeter:MC0203J22010600005","2023-08-26T12:45:00",32.4,26.68187,0.191],
    [7474,"urn:WaterMeter:MC0203J22010600005","2023-08-26T13:00:00",32.599,26.556965,0.197],
    [7475,"urn:WaterMeter:MC0203J22010600005","2023-08-26T13:15:00",32.799,26.43788,0.195],
    [7476,"urn:WaterMeter:MC0203J22010600005","2023-08-26T13:30:00",32.9,26.346296,0.198],
    [7477,"urn:WaterMeter:MC0203J22010600005","2023-08-26T13:45:00",33,26.245481,0.19],
    [7478,"urn:WaterMeter:MC0203J22010600005","2023-08-26T14:00:00",33.099,26.128336,0.183],
    [7479,"urn:WaterMeter:MC0203J22010600005","2023-08-26T14:15:00",32.9,26.03559,0.184],
    [7480,"urn:WaterMeter:MC0203J22010600005","2023-08-26T14:30:00",32.599,25.980934,0.181],
    [7481,"urn:WaterMeter:MC0203J22010600005","2023-08-26T14:45:00",32.299,25.933998,0.184],
    [7482,"urn:WaterMeter:MC0203J22010600005","2023-08-26T15:00:00",31.899,25.894045,0.183],
    [7483,"urn:WaterMeter:MC0203J22010600005","2023-08-26T15:15:00",31.399,25.888613,0.19],
    [7484,"urn:WaterMeter:MC0203J22010600005","2023-08-26T15:30:00",31.1,25.82461,0.189],
    [7485,"urn:WaterMeter:MC0203J22010600005","2023-08-26T15:45:00",30.799,25.80793,0.184],
    [7486,"urn:WaterMeter:MC0203J22010600005","2023-08-26T16:00:00",30.6,25.797457,0.188],
    [7487,"urn:WaterMeter:MC0203J22010600005","2023-08-26T16:15:00",30.299,25.80638,0.184],
    [7488,"urn:WaterMeter:MC0203J22010600005","2023-08-26T16:30:00",29.899,25.76367,0.188],
    [7489,"urn:WaterMeter:MC0203J22010600005","2023-08-26T16:45:00",29.799,25.795092,0.184],
    [7490,"urn:WaterMeter:MC0203J22010600005","2023-08-26T17:00:00",29.799,25.766424,0.183],
    [7491,"urn:WaterMeter:MC0203J22010600005","2023-08-26T17:15:00",29.7,25.749357,0.179],
    [7492,"urn:WaterMeter:MC0203J22010600005","2023-08-26T17:30:00",29.6,25.721817,0.18],
    [7493,"urn:WaterMeter:MC0203J22010600005","2023-08-26T17:45:00",29.5,25.742374,0.193],
    [7494,"urn:WaterMeter:MC0203J22010600005","2023-08-26T18:00:00",29.399,25.706263,0.18],
    [7495,"urn:WaterMeter:MC0203J22010600005","2023-08-26T18:15:00",29.299,25.73423,0.181],
    [7496,"urn:WaterMeter:MC0203J22010600005","2023-08-26T18:30:00",29.2,25.707426,0.196],
    [7497,"urn:WaterMeter:MC0203J22010600005","2023-08-26T18:45:00",29.2,25.707037,0.18],
    [7498,"urn:WaterMeter:MC0203J22010600005","2023-08-26T19:00:00",29.1,25.701645,0.181],
    [7499,"urn:WaterMeter:MC0203J22010600005","2023-08-26T19:15:00",29.1,25.702421,0.176],
    [7500,"urn:WaterMeter:MC0203J22010600005","2023-08-26T19:30:00",29,25.673717,0.178],
    [7501,"urn:WaterMeter:MC0203J22010600005","2023-08-26T19:45:00",29,25.696953,0.183],
    [7502,"urn:WaterMeter:MC0203J22010600005","2023-08-26T20:00:00",28.899,25.675657,0.181],
    [7503,"urn:WaterMeter:MC0203J22010600005","2023-08-26T20:15:00",28.899,25.696215,0.182],
    [7504,"urn:WaterMeter:MC0203J22010600005","2023-08-26T20:30:00",28.799,25.684927,0.184],
    [7505,"urn:WaterMeter:MC0203J22010600005","2023-08-26T20:45:00",28.799,25.61976,0.18],
    [7506,"urn:WaterMeter:MC0203J22010600005","2023-08-26T21:00:00",28.7,25.617859,0.184],
    [7507,"urn:WaterMeter:MC0203J22010600005","2023-08-26T21:15:00",28.6,25.628681,0.173],
    [7508,"urn:WaterMeter:MC0203J22010600005","2023-08-26T21:30:00",28.5,25.635315,0.189],
    [7509,"urn:WaterMeter:MC0203J22010600005","2023-08-26T21:45:00",28.399,25.626005,0.189],
    [7510,"urn:WaterMeter:MC0203J22010600005","2023-08-26T22:00:00",28.299,25.629845,0.173],
    [7511,"urn:WaterMeter:MC0203J22010600005","2023-08-26T22:15:00",28.2,25.630234,0.177],
    [7512,"urn:WaterMeter:MC0203J22010600005","2023-08-26T22:30:00",28,25.633762,0.178],
    [7513,"urn:WaterMeter:MC0203J22010600005","2023-08-26T22:45:00",27.899,25.615532,0.177],
    [7514,"urn:WaterMeter:MC0203J22010600005","2023-08-26T23:00:00",27.799,25.593422,0.177],
    [7515,"urn:WaterMeter:MC0203J22010600005","2023-08-26T23:15:00",27.899,25.590668,0.173],
    [7516,"urn:WaterMeter:MC0203J22010600005","2023-08-26T23:30:00",27.799,25.595749,0.18],
    [7517,"urn:WaterMeter:MC0203J22010600005","2023-08-26T23:45:00",27.799,25.584888,0.185],
    [7518,"urn:WaterMeter:MC0203J22010600005","2023-08-27T00:00:00",27.799,25.582172,0.175],
    [7519,"urn:WaterMeter:MC0203J22010600005","2023-08-27T00:15:00",27.799,25.552652,0.183],
    [7520,"urn:WaterMeter:MC0203J22010600005","2023-08-27T00:30:00",27.799,25.602343,0.176],
    [7521,"urn:WaterMeter:MC0203J22010600005","2023-08-27T00:45:00",27.7,25.562351,0.174],
    [7522,"urn:WaterMeter:MC0203J22010600005","2023-08-27T01:00:00",27.6,25.570885,0.191],
    [7523,"urn:WaterMeter:MC0203J22010600005","2023-08-27T01:15:00",27.6,25.529768,0.172],
    [7524,"urn:WaterMeter:MC0203J22010600005","2023-08-27T01:30:00",27.5,25.51429,0.186],
    [7525,"urn:WaterMeter:MC0203J22010600005","2023-08-27T01:45:00",27.5,25.536789,0.18],
    [7526,"urn:WaterMeter:MC0203J22010600005","2023-08-27T02:00:00",27.5,25.542955,0.182],
    [7527,"urn:WaterMeter:MC0203J22010600005","2023-08-27T02:15:00",27.5,25.518557,0.183],
    [7528,"urn:WaterMeter:MC0203J22010600005","2023-08-27T02:30:00",27.5,25.500326,0.175],
    [7529,"urn:WaterMeter:MC0203J22010600005","2023-08-27T02:45:00",27.5,25.54028,0.178],
    [7530,"urn:WaterMeter:MC0203J22010600005","2023-08-27T03:00:00",27.399,25.502266,0.175],
    [7531,"urn:WaterMeter:MC0203J22010600005","2023-08-27T03:15:00",27.399,25.506144,0.174],
    [7532,"urn:WaterMeter:MC0203J22010600005","2023-08-27T03:30:00",27.399,25.51429,0.179],
    [7533,"urn:WaterMeter:MC0203J22010600005","2023-08-27T03:45:00",27.399,25.52166,0.173],
    [7534,"urn:WaterMeter:MC0203J22010600005","2023-08-27T04:00:00",27.299,25.50886,0.185],
    [7535,"urn:WaterMeter:MC0203J22010600005","2023-08-27T04:15:00",27.299,25.48093,0.175],
    [7536,"urn:WaterMeter:MC0203J22010600005","2023-08-27T04:30:00",27.299,25.493692,0.176],
    [7537,"urn:WaterMeter:MC0203J22010600005","2023-08-27T04:45:00",27.299,25.49408,0.174],
    [7538,"urn:WaterMeter:MC0203J22010600005","2023-08-27T05:00:00",27.299,25.463823,0.174],
    [7539,"urn:WaterMeter:MC0203J22010600005","2023-08-27T05:15:00",27.299,25.446407,0.174],
    [7540,"urn:WaterMeter:MC0203J22010600005","2023-08-27T05:30:00",27.299,25.473133,0.175],
    [7541,"urn:WaterMeter:MC0203J22010600005","2023-08-27T05:45:00",27.299,25.47938,0.173],
    [7542,"urn:WaterMeter:MC0203J22010600005","2023-08-27T06:00:00",27.299,25.471582,0.175],
    [7543,"urn:WaterMeter:MC0203J22010600005","2023-08-27T06:15:00",27.299,25.430117,0.171],
    [7544,"urn:WaterMeter:MC0203J22010600005","2023-08-27T06:30:00",27.1,25.430891,0.173],
    [7545,"urn:WaterMeter:MC0203J22010600005","2023-08-27T06:45:00",27,25.401411,0.17],
    [7546,"urn:WaterMeter:MC0203J22010600005","2023-08-27T07:00:00",26.799,25.372318,0.172],
    [7547,"urn:WaterMeter:MC0203J22010600005","2023-08-27T07:15:00",26.799,25.359518,0.174],
    [7548,"urn:WaterMeter:MC0203J22010600005","2023-08-27T07:30:00",26.7,25.298191,0.171],
    [7549,"urn:WaterMeter:MC0203J22010600005","2023-08-27T07:45:00",26.6,25.25401,0.178],
    [7550,"urn:WaterMeter:MC0203J22010600005","2023-08-27T08:00:00",26.6,25.236942,0.174],
    [7551,"urn:WaterMeter:MC0203J22010600005","2023-08-27T08:15:00",26.6,25.119408,0.181],
    [7552,"urn:WaterMeter:MC0203J22010600005","2023-08-27T08:30:00",26.7,25.125187,0.168],
    [7553,"urn:WaterMeter:MC0203J22010600005","2023-08-27T08:45:00",26.799,25.004202,0.171],
    [7554,"urn:WaterMeter:MC0203J22010600005","2023-08-27T09:00:00",27,24.957653,0.164],
    [7555,"urn:WaterMeter:MC0203J22010600005","2023-08-27T09:15:00",27.2,24.883953,0.173],
    [7556,"urn:WaterMeter:MC0203J22010600005","2023-08-27T09:30:00",27.399,24.778055,0.169],
    [7557,"urn:WaterMeter:MC0203J22010600005","2023-08-27T09:45:00",27.5,24.730345,0.163],
    [7558,"urn:WaterMeter:MC0203J22010600005","2023-08-27T10:00:00",27.7,24.644619,0.161],
    [7559,"urn:WaterMeter:MC0203J22010600005","2023-08-27T10:15:00",27.799,24.526697,0.162],
    [7560,"urn:WaterMeter:MC0203J22010600005","2023-08-27T10:30:00",28,24.464594,0.166],
    [7561,"urn:WaterMeter:MC0203J22010600005","2023-08-27T10:45:00",28.1,24.362226,0.16],
    [7562,"urn:WaterMeter:MC0203J22010600005","2023-08-27T11:00:00",28.299,24.297836,0.161],
    [7563,"urn:WaterMeter:MC0203J22010600005","2023-08-27T11:15:00",28.5,24.195818,0.16],
    [7564,"urn:WaterMeter:MC0203J22010600005","2023-08-27T11:30:00",28.7,24.086042,0.167],
    [7565,"urn:WaterMeter:MC0203J22010600005","2023-08-27T11:45:00",28.899,24.017733,0.168],
    [7566,"urn:WaterMeter:MC0203J22010600005","2023-08-27T12:00:00",29.1,23.918081,0.152],
    [7567,"urn:WaterMeter:MC0203J22010600005","2023-08-27T12:15:00",29.299,23.798996,0.156],
    [7568,"urn:WaterMeter:MC0203J22010600005","2023-08-27T12:30:00",29.399,23.655085,0.159],
    [7569,"urn:WaterMeter:MC0203J22010600005","2023-08-27T12:45:00",29.399,23.614744,0.151],
    [7570,"urn:WaterMeter:MC0203J22010600005","2023-08-27T13:00:00",29.399,23.46579,0.153],
    [7571,"urn:WaterMeter:MC0203J22010600005","2023-08-27T13:15:00",29.399,23.411484,0.154],
    [7572,"urn:WaterMeter:MC0203J22010600005","2023-08-27T13:30:00",29.299,23.276882,0.158],
    [7573,"urn:WaterMeter:MC0203J22010600005","2023-08-27T13:45:00",29.299,23.179909,0.149],
    [7574,"urn:WaterMeter:MC0203J22010600005","2023-08-27T14:00:00",29.299,23.056944,0.155],
    [7575,"urn:WaterMeter:MC0203J22010600005","2023-08-27T14:15:00",29.299,22.974709,0.155],
    [7576,"urn:WaterMeter:MC0203J22010600005","2023-08-27T14:30:00",29.2,22.840496,0.145],
    [7577,"urn:WaterMeter:MC0203J22010600005","2023-08-27T14:45:00",29.1,22.773777,0.153],
    [7578,"urn:WaterMeter:MC0203J22010600005","2023-08-27T15:00:00",29.1,22.665941,0.145],
    [7579,"urn:WaterMeter:MC0203J22010600005","2023-08-27T15:15:00",29.1,22.61784,0.148],
    [7580,"urn:WaterMeter:MC0203J22010600005","2023-08-27T15:30:00",29,22.523542,0.146],
    [7581,"urn:WaterMeter:MC0203J22010600005","2023-08-27T15:45:00",28.899,22.434364,0.14],
    [7582,"urn:WaterMeter:MC0203J22010600005","2023-08-27T16:00:00",28.799,22.32614,0.146],
    [7583,"urn:WaterMeter:MC0203J22010600005","2023-08-27T16:15:00",28.7,22.257483,0.143],
    [7584,"urn:WaterMeter:MC0203J22010600005","2023-08-27T16:30:00",28.7,22.1543,0.145],
    [7585,"urn:WaterMeter:MC0203J22010600005","2023-08-27T16:45:00",28.6,22.141888,0.143],
    [7586,"urn:WaterMeter:MC0203J22010600005","2023-08-27T17:00:00",28.5,22.053059,0.142],
    [7587,"urn:WaterMeter:MC0203J22010600005","2023-08-27T17:15:00",28.399,22.006123,0.138],
    [7588,"urn:WaterMeter:MC0203J22010600005","2023-08-27T17:30:00",28.299,21.970823,0.139],
    [7589,"urn:WaterMeter:MC0203J22010600005","2023-08-27T17:45:00",28.1,21.902554,0.143],
    [7590,"urn:WaterMeter:MC0203J22010600005","2023-08-27T18:00:00",28,21.895144,0.144],
    [7591,"urn:WaterMeter:MC0203J22010600005","2023-08-27T18:15:00",27.899,21.869194,0.142],
    [7592,"urn:WaterMeter:MC0203J22010600005","2023-08-27T18:30:00",27.7,21.863764,0.138],
    [7593,"urn:WaterMeter:MC0203J22010600005","2023-08-27T18:45:00",27.6,21.86803,0.14],
    [7594,"urn:WaterMeter:MC0203J22010600005","2023-08-27T19:00:00",27.399,21.899061,0.142],
    [7595,"urn:WaterMeter:MC0203J22010600005","2023-08-27T19:15:00",27.299,21.8645,0.141],
    [7596,"urn:WaterMeter:MC0203J22010600005","2023-08-27T19:30:00",27.2,21.8754,0.138],
    [7597,"urn:WaterMeter:MC0203J22010600005","2023-08-27T19:45:00",27,21.833118,0.142],
    [7598,"urn:WaterMeter:MC0203J22010600005","2023-08-27T20:00:00",26.899,21.83661,0.143],
    [7599,"urn:WaterMeter:MC0203J22010600005","2023-08-27T20:15:00",26.799,21.849411,0.142],
    [7600,"urn:WaterMeter:MC0203J22010600005","2023-08-27T20:30:00",26.7,21.884283,0.135],
    [7601,"urn:WaterMeter:MC0203J22010600005","2023-08-27T20:45:00",26.6,21.866053,0.138],
    [7602,"urn:WaterMeter:MC0203J22010600005","2023-08-27T21:00:00",26.399,21.840101,0.138],
    [7603,"urn:WaterMeter:MC0203J22010600005","2023-08-27T21:15:00",26.299,21.848207,0.145],
    [7604,"urn:WaterMeter:MC0203J22010600005","2023-08-27T21:30:00",26.2,21.867603,0.14],
    [7605,"urn:WaterMeter:MC0203J22010600005","2023-08-27T21:45:00",26,21.850574,0.138],
    [7606,"urn:WaterMeter:MC0203J22010600005","2023-08-27T22:00:00",25.899,21.811008,0.136],
    [7607,"urn:WaterMeter:MC0203J22010600005","2023-08-27T22:15:00",25.799,21.860271,0.137],
    [7608,"urn:WaterMeter:MC0203J22010600005","2023-08-27T22:30:00",25.7,21.866053,0.144],
    [7609,"urn:WaterMeter:MC0203J22010600005","2023-08-27T22:45:00",25.6,21.800922,0.139],
    [7610,"urn:WaterMeter:MC0203J22010600005","2023-08-27T23:00:00",25.5,21.792778,0.141],
    [7611,"urn:WaterMeter:MC0203J22010600005","2023-08-27T23:15:00",25.399,21.792002,0.135],
    [7612,"urn:WaterMeter:MC0203J22010600005","2023-08-27T23:30:00",25.399,21.819931,0.136],
    [7613,"urn:WaterMeter:MC0203J22010600005","2023-08-27T23:45:00",25.299,21.832731,0.131],
    [7614,"urn:WaterMeter:MC0203J22010600005","2023-08-28T00:00:00",25.2,21.819117,0.14],
    [7615,"urn:WaterMeter:MC0203J22010600005","2023-08-28T00:15:00",25.2,21.823809,0.141],
    [7616,"urn:WaterMeter:MC0203J22010600005","2023-08-28T00:30:00",25.1,21.846657,0.137],
    [7617,"urn:WaterMeter:MC0203J22010600005","2023-08-28T00:45:00",25,21.830015,0.143],
    [7618,"urn:WaterMeter:MC0203J22010600005","2023-08-28T01:00:00",24.899,21.760931,0.137],
    [7619,"urn:WaterMeter:MC0203J22010600005","2023-08-28T01:15:00",24.799,21.794718,0.146],
    [7620,"urn:WaterMeter:MC0203J22010600005","2023-08-28T01:30:00",24.6,21.805927,0.139],
    [7621,"urn:WaterMeter:MC0203J22010600005","2023-08-28T01:45:00",24.5,21.809845,0.135],
    [7622,"urn:WaterMeter:MC0203J22010600005","2023-08-28T02:00:00",24.399,21.782305,0.136],
    [7623,"urn:WaterMeter:MC0203J22010600005","2023-08-28T02:15:00",24.299,21.759378,0.144],
    [7624,"urn:WaterMeter:MC0203J22010600005","2023-08-28T02:30:00",24.1,21.74429,0.142],
    [7625,"urn:WaterMeter:MC0203J22010600005","2023-08-28T02:45:00",24,21.811398,0.139],
    [7626,"urn:WaterMeter:MC0203J22010600005","2023-08-28T03:00:00",23.799,21.747393,0.138],
    [7627,"urn:WaterMeter:MC0203J22010600005","2023-08-28T03:15:00",23.7,21.758255,0.137],
    [7628,"urn:WaterMeter:MC0203J22010600005","2023-08-28T03:30:00",23.6,21.78692,0.135],
    [7629,"urn:WaterMeter:MC0203J22010600005","2023-08-28T03:45:00",23.399,21.763685,0.135],
    [7630,"urn:WaterMeter:MC0203J22010600005","2023-08-28T04:00:00",23.299,21.729511,0.136],
    [7631,"urn:WaterMeter:MC0203J22010600005","2023-08-28T04:15:00",23.1,21.72761,0.139],
    [7632,"urn:WaterMeter:MC0203J22010600005","2023-08-28T04:30:00",22.899,21.797045,0.135],
    [7633,"urn:WaterMeter:MC0203J22010600005","2023-08-28T04:45:00",22.799,21.754763,0.139],
    [7634,"urn:WaterMeter:MC0203J22010600005","2023-08-28T05:00:00",22.799,21.765625,0.141],
    [7635,"urn:WaterMeter:MC0203J22010600005","2023-08-28T05:15:00",22.7,21.776098,0.135],
    [7636,"urn:WaterMeter:MC0203J22010600005","2023-08-28T05:30:00",22.7,21.739985,0.137],
    [7637,"urn:WaterMeter:MC0203J22010600005","2023-08-28T05:45:00",22.7,21.792778,0.139],
    [7638,"urn:WaterMeter:MC0203J22010600005","2023-08-28T06:00:00",22.6,21.754375,0.139],
    [7639,"urn:WaterMeter:MC0203J22010600005","2023-08-28T06:15:00",22.6,21.705889,0.137],
    [7640,"urn:WaterMeter:MC0203J22010600005","2023-08-28T06:30:00",22.7,21.726835,0.135],
    [7641,"urn:WaterMeter:MC0203J22010600005","2023-08-28T06:45:00",22.799,21.698517,0.134],
    [7642,"urn:WaterMeter:MC0203J22010600005","2023-08-28T07:00:00",22.899,21.643785,0.149],
    [7643,"urn:WaterMeter:MC0203J22010600005","2023-08-28T07:15:00",23,21.59107,0.137],
    [7644,"urn:WaterMeter:MC0203J22010600005","2023-08-28T07:30:00",23.2,21.553055,0.129],
    [7645,"urn:WaterMeter:MC0203J22010600005","2023-08-28T07:45:00",23.399,21.478151,0.136],
    [7646,"urn:WaterMeter:MC0203J22010600005","2023-08-28T08:00:00",23.6,21.43044,0.137],
    [7647,"urn:WaterMeter:MC0203J22010600005","2023-08-28T08:15:00",23.799,21.368027,0.136],
    [7648,"urn:WaterMeter:MC0203J22010600005","2023-08-28T08:30:00",24,21.331953,0.129],
    [7649,"urn:WaterMeter:MC0203J22010600005","2023-08-28T08:45:00",24.299,21.195799,0.13],
    [7650,"urn:WaterMeter:MC0203J22010600005","2023-08-28T09:00:00",24.6,21.12365,0.13],
    [7651,"urn:WaterMeter:MC0203J22010600005","2023-08-28T09:15:00",25,21.049173,0.128],
    [7652,"urn:WaterMeter:MC0203J22010600005","2023-08-28T09:30:00",25.5,20.952934,0.124],
    [7653,"urn:WaterMeter:MC0203J22010600005","2023-08-28T09:45:00",25.799,20.913021,0.129],
    [7654,"urn:WaterMeter:MC0203J22010600005","2023-08-28T10:00:00",26.2,20.816433,0.124],
    [7655,"urn:WaterMeter:MC0203J22010600005","2023-08-28T10:15:00",26.399,20.670195,0.126],
    [7656,"urn:WaterMeter:MC0203J22010600005","2023-08-28T10:30:00",26.7,20.613562,0.127],
    [7657,"urn:WaterMeter:MC0203J22010600005","2023-08-28T10:45:00",27,20.527021,0.119],
    [7658,"urn:WaterMeter:MC0203J22010600005","2023-08-28T11:00:00",27.299,20.450216,0.123],
    [7659,"urn:WaterMeter:MC0203J22010600005","2023-08-28T11:15:00",27.6,20.328068,0.123],
    [7660,"urn:WaterMeter:MC0203J22010600005","2023-08-28T11:30:00",28,20.261736,0.135],
    [7661,"urn:WaterMeter:MC0203J22010600005","2023-08-28T11:45:00",28.5,20.158516,0.119],
    [7662,"urn:WaterMeter:MC0203J22010600005","2023-08-28T12:00:00",28.899,20.074768,0.117],
    [7663,"urn:WaterMeter:MC0203J22010600005","2023-08-28T12:15:00",29.2,20.021975,0.119],
    [7664,"urn:WaterMeter:MC0203J22010600005","2023-08-28T12:30:00",29.399,19.857544,0.12],
    [7665,"urn:WaterMeter:MC0203J22010600005","2023-08-28T12:45:00",29.5,19.820267,0.126],
    [7666,"urn:WaterMeter:MC0203J22010600005","2023-08-28T13:00:00",29.6,19.724068,0.119],
    [7667,"urn:WaterMeter:MC0203J22010600005","2023-08-28T13:15:00",29.7,19.597612,0.115],
    [7668,"urn:WaterMeter:MC0203J22010600005","2023-08-28T13:30:00",29.7,19.53326,0.12],
    [7669,"urn:WaterMeter:MC0203J22010600005","2023-08-28T13:45:00",29.799,19.428528,0.116],
    [7670,"urn:WaterMeter:MC0203J22010600005","2023-08-28T14:00:00",29.899,19.301683,0.118],
    [7671,"urn:WaterMeter:MC0203J22010600005","2023-08-28T14:15:00",29.899,19.23574,0.118],
    [7672,"urn:WaterMeter:MC0203J22010600005","2023-08-28T14:30:00",29.899,19.111961,0.112],
    [7673,"urn:WaterMeter:MC0203J22010600005","2023-08-28T14:45:00",29.899,19.033218,0.109],
    [7674,"urn:WaterMeter:MC0203J22010600005","2023-08-28T15:00:00",30,18.971193,0.114],
    [7675,"urn:WaterMeter:MC0203J22010600005","2023-08-28T15:15:00",29.899,18.880774,0.112],
    [7676,"urn:WaterMeter:MC0203J22010600005","2023-08-28T15:30:00",29.899,18.816809,0.116],
    [7677,"urn:WaterMeter:MC0203J22010600005","2023-08-28T15:45:00",29.899,18.732634,0.116],
    [7678,"urn:WaterMeter:MC0203J22010600005","2023-08-28T16:00:00",29.799,18.645317,0.125],
    [7679,"urn:WaterMeter:MC0203J22010600005","2023-08-28T16:15:00",29.7,18.642254,0.113],
    [7680,"urn:WaterMeter:MC0203J22010600005","2023-08-28T16:30:00",29.6,18.571268,0.113],
    [7681,"urn:WaterMeter:MC0203J22010600005","2023-08-28T16:45:00",29.6,18.486319,0.119],
    [7682,"urn:WaterMeter:MC0203J22010600005","2023-08-28T17:00:00",29.5,18.473091,0.114],
    [7683,"urn:WaterMeter:MC0203J22010600005","2023-08-28T17:15:00",29.399,18.420374,0.111],
    [7684,"urn:WaterMeter:MC0203J22010600005","2023-08-28T17:30:00",29.399,18.371887,0.108],
    [7685,"urn:WaterMeter:MC0203J22010600005","2023-08-28T17:45:00",29.299,18.390894,0.108],
    [7686,"urn:WaterMeter:MC0203J22010600005","2023-08-28T18:00:00",29.2,18.351717,0.11],
    [7687,"urn:WaterMeter:MC0203J22010600005","2023-08-28T18:15:00",29,18.326115,0.112],
    [7688,"urn:WaterMeter:MC0203J22010600005","2023-08-28T18:30:00",28.899,18.285385,0.116],
    [7689,"urn:WaterMeter:MC0203J22010600005","2023-08-28T18:45:00",28.7,18.317154,0.113],
    [7690,"urn:WaterMeter:MC0203J22010600005","2023-08-28T19:00:00",28.5,18.319134,0.115],
    [7691,"urn:WaterMeter:MC0203J22010600005","2023-08-28T19:15:00",28.299,18.302841,0.113],
    [7692,"urn:WaterMeter:MC0203J22010600005","2023-08-28T19:30:00",28.1,18.305557,0.11],
    [7693,"urn:WaterMeter:MC0203J22010600005","2023-08-28T19:45:00",27.899,18.278364,0.109],
    [7694,"urn:WaterMeter:MC0203J22010600005","2023-08-28T20:00:00",27.799,18.354006,0.108],
    [7695,"urn:WaterMeter:MC0203J22010600005","2023-08-28T20:15:00",27.6,18.301289,0.117],
    [7696,"urn:WaterMeter:MC0203J22010600005","2023-08-28T20:30:00",27.5,18.313314,0.109],
    [7697,"urn:WaterMeter:MC0203J22010600005","2023-08-28T20:45:00",27.299,18.323011,0.112],
    [7698,"urn:WaterMeter:MC0203J22010600005","2023-08-28T21:00:00",27.2,18.345121,0.118],
    [7699,"urn:WaterMeter:MC0203J22010600005","2023-08-28T21:15:00",27,18.324951,0.108],
    [7700,"urn:WaterMeter:MC0203J22010600005","2023-08-28T21:30:00",26.799,18.31793,0.111],
    [7701,"urn:WaterMeter:MC0203J22010600005","2023-08-28T21:45:00",26.6,18.31638,0.109],
    [7702,"urn:WaterMeter:MC0203J22010600005","2023-08-28T22:00:00",26.399,18.287325,0.108],
    [7703,"urn:WaterMeter:MC0203J22010600005","2023-08-28T22:15:00",26.2,18.324951,0.113],
    [7704,"urn:WaterMeter:MC0203J22010600005","2023-08-28T22:30:00",26,18.335386,0.109],
    [7705,"urn:WaterMeter:MC0203J22010600005","2023-08-28T22:45:00",25.799,18.324951,0.109],
    [7706,"urn:WaterMeter:MC0203J22010600005","2023-08-28T23:00:00",25.6,18.307457,0.107],
    [7707,"urn:WaterMeter:MC0203J22010600005","2023-08-28T23:15:00",25.5,18.342794,0.112],
    [7708,"urn:WaterMeter:MC0203J22010600005","2023-08-28T23:30:00",25.5,18.306332,0.11],
    [7709,"urn:WaterMeter:MC0203J22010600005","2023-08-28T23:45:00",25.5,18.34741,0.111],
    [7710,"urn:WaterMeter:MC0203J22010600005","2023-08-29T00:00:00",25.399,18.344734,0.108],
    [7711,"urn:WaterMeter:MC0203J22010600005","2023-08-29T00:15:00",25.399,18.350554,0.113],
    [7712,"urn:WaterMeter:MC0203J22010600005","2023-08-29T00:30:00",25.299,18.309048,0.108],
    [7713,"urn:WaterMeter:MC0203J22010600005","2023-08-29T00:45:00",25.299,18.29776,0.109],
    [7714,"urn:WaterMeter:MC0203J22010600005","2023-08-29T01:00:00",25.299,18.29737,0.11],
    [7715,"urn:WaterMeter:MC0203J22010600005","2023-08-29T01:15:00",25.2,18.333097,0.11],
    [7716,"urn:WaterMeter:MC0203J22010600005","2023-08-29T01:30:00",25.1,18.299738,0.114],
    [7717,"urn:WaterMeter:MC0203J22010600005","2023-08-29T01:45:00",25,18.35517,0.113],
    [7718,"urn:WaterMeter:MC0203J22010600005","2023-08-29T02:00:00",24.799,18.34586,0.11],
    [7719,"urn:WaterMeter:MC0203J22010600005","2023-08-29T02:15:00",24.7,18.31409,0.111],
    [7720,"urn:WaterMeter:MC0203J22010600005","2023-08-29T02:30:00",24.5,18.292755,0.108],
    [7721,"urn:WaterMeter:MC0203J22010600005","2023-08-29T02:45:00",24.399,18.348225,0.11],
    [7722,"urn:WaterMeter:MC0203J22010600005","2023-08-29T03:00:00",24.299,18.319134,0.11],
    [7723,"urn:WaterMeter:MC0203J22010600005","2023-08-29T03:15:00",24.1,18.334997,0.109],
    [7724,"urn:WaterMeter:MC0203J22010600005","2023-08-29T03:30:00",24,18.309048,0.109],
    [7725,"urn:WaterMeter:MC0203J22010600005","2023-08-29T03:45:00",23.799,18.32724,0.111],
    [7726,"urn:WaterMeter:MC0203J22010600005","2023-08-29T04:00:00",23.799,18.311762,0.109],
    [7727,"urn:WaterMeter:MC0203J22010600005","2023-08-29T04:15:00",23.6,18.287674,0.111],
    [7728,"urn:WaterMeter:MC0203J22010600005","2023-08-29T04:30:00",23.5,18.271034,0.115],
    [7729,"urn:WaterMeter:MC0203J22010600005","2023-08-29T04:45:00",23.399,18.303228,0.115],
    [7730,"urn:WaterMeter:MC0203J22010600005","2023-08-29T05:00:00",23.299,18.304781,0.108],
    [7731,"urn:WaterMeter:MC0203J22010600005","2023-08-29T05:15:00",23.299,18.267155,0.109],
    [7732,"urn:WaterMeter:MC0203J22010600005","2023-08-29T05:30:00",23.399,18.32146,0.108],
    [7733,"urn:WaterMeter:MC0203J22010600005","2023-08-29T05:45:00",23.5,18.323788,0.106],
    [7734,"urn:WaterMeter:MC0203J22010600005","2023-08-29T06:00:00",23.6,18.383524,0.106],
    [7735,"urn:WaterMeter:MC0203J22010600005","2023-08-29T06:15:00",23.6,18.321072,0.107],
    [7736,"urn:WaterMeter:MC0203J22010600005","2023-08-29T06:30:00",23.5,18.325338,0.109],
    [7737,"urn:WaterMeter:MC0203J22010600005","2023-08-29T06:45:00",23.6,18.455286,0.108],
    [7738,"urn:WaterMeter:MC0203J22010600005","2023-08-29T07:00:00",23.7,18.828445,0.119],
    [7739,"urn:WaterMeter:MC0203J22010600005","2023-08-29T07:15:00",24,20.329618,0.144],
    [7740,"urn:WaterMeter:MC0203J22010600005","2023-08-29T07:30:00",24.2,22.741581,0.17],
    [7741,"urn:WaterMeter:MC0203J22010600005","2023-08-29T07:45:00",24.5,25.101564,0.191],
    [7742,"urn:WaterMeter:MC0203J22010600005","2023-08-29T08:00:00",24.7,26.811388,0.203],
    [7743,"urn:WaterMeter:MC0203J22010600005","2023-08-29T08:15:00",25.1,27.8285,0.212],
    [7744,"urn:WaterMeter:MC0203J22010600005","2023-08-29T08:30:00",25.399,28.430134,0.219],
    [7745,"urn:WaterMeter:MC0203J22010600005","2023-08-29T08:45:00",25.7,28.736576,0.217],
    [7746,"urn:WaterMeter:MC0203J22010600005","2023-08-29T09:00:00",26,29.01276,0.213],
    [7747,"urn:WaterMeter:MC0203J22010600005","2023-08-29T09:15:00",26.399,29.097322,0.213],
    [7748,"urn:WaterMeter:MC0203J22010600005","2023-08-29T09:30:00",26.7,29.137625,0.219],
    [7749,"urn:WaterMeter:MC0203J22010600005","2023-08-29T09:45:00",27.1,29.148874,0.211],
    [7750,"urn:WaterMeter:MC0203J22010600005","2023-08-29T10:00:00",27.299,29.150852,0.225],
    [7751,"urn:WaterMeter:MC0203J22010600005","2023-08-29T10:15:00",27.5,29.10702,0.192],
    [7752,"urn:WaterMeter:MC0203J22010600005","2023-08-29T10:30:00",27.799,29.07944,0.22],
    [7753,"urn:WaterMeter:MC0203J22010600005","2023-08-29T10:45:00",28,29.034056,0.22],
    [7754,"urn:WaterMeter:MC0203J22010600005","2023-08-29T11:00:00",28.299,29.041426,0.218],
    [7755,"urn:WaterMeter:MC0203J22010600005","2023-08-29T11:15:00",28.6,28.942938,0.216],
    [7756,"urn:WaterMeter:MC0203J22010600005","2023-08-29T11:30:00",29,28.921991,0.214],
    [7757,"urn:WaterMeter:MC0203J22010600005","2023-08-29T11:45:00",29.399,28.880875,0.211],
    [7758,"urn:WaterMeter:MC0203J22010600005","2023-08-29T12:00:00",29.7,28.825792,0.21],
    [7759,"urn:WaterMeter:MC0203J22010600005","2023-08-29T12:15:00",30,28.764116,0.209],
    [7760,"urn:WaterMeter:MC0203J22010600005","2023-08-29T12:30:00",30.1,28.707483,0.22],
    [7761,"urn:WaterMeter:MC0203J22010600005","2023-08-29T12:45:00",30.1,28.631842,0.212],
    [7762,"urn:WaterMeter:MC0203J22010600005","2023-08-29T13:00:00",30.2,28.546892,0.211],
    [7763,"urn:WaterMeter:MC0203J22010600005","2023-08-29T13:15:00",30.2,28.480522,0.218],
    [7764,"urn:WaterMeter:MC0203J22010600005","2023-08-29T13:30:00",30.299,28.411514,0.215],
    [7765,"urn:WaterMeter:MC0203J22010600005","2023-08-29T13:45:00",30.299,28.324587,0.209],
    [7766,"urn:WaterMeter:MC0203J22010600005","2023-08-29T14:00:00",30.2,28.295881,0.208],
    [7767,"urn:WaterMeter:MC0203J22010600005","2023-08-29T14:15:00",30.2,28.222609,0.207],
    [7768,"urn:WaterMeter:MC0203J22010600005","2023-08-29T14:30:00",30.2,28.1427,0.214],
    [7769,"urn:WaterMeter:MC0203J22010600005","2023-08-29T14:45:00",30.2,28.095377,0.217],
    [7770,"urn:WaterMeter:MC0203J22010600005","2023-08-29T15:00:00",30.1,28.01349,0.205],
    [7771,"urn:WaterMeter:MC0203J22010600005","2023-08-29T15:15:00",30.1,27.922373,0.204],
    [7772,"urn:WaterMeter:MC0203J22010600005","2023-08-29T15:30:00",30.1,27.872334,0.202],
    [7773,"urn:WaterMeter:MC0203J22010600005","2023-08-29T15:45:00",30.1,27.796307,0.183],
    [7774,"urn:WaterMeter:MC0203J22010600005","2023-08-29T16:00:00",30,27.730751,0.204],
    [7775,"urn:WaterMeter:MC0203J22010600005","2023-08-29T16:15:00",30,27.652006,0.217],
    [7776,"urn:WaterMeter:MC0203J22010600005","2023-08-29T16:30:00",29.899,27.600029,0.2],
    [7777,"urn:WaterMeter:MC0203J22010600005","2023-08-29T16:45:00",29.7,27.54995,0.209],
    [7778,"urn:WaterMeter:MC0203J22010600005","2023-08-29T17:00:00",29.6,27.524776,0.201],
    [7779,"urn:WaterMeter:MC0203J22010600005","2023-08-29T17:15:00",29.399,27.49801,0.212],
    [7780,"urn:WaterMeter:MC0203J22010600005","2023-08-29T17:30:00",29.2,27.45922,0.201],
    [7781,"urn:WaterMeter:MC0203J22010600005","2023-08-29T17:45:00",29,27.400259,0.201],
    [7782,"urn:WaterMeter:MC0203J22010600005","2023-08-29T18:00:00",28.799,27.415,0.199],
    [7783,"urn:WaterMeter:MC0203J22010600005","2023-08-29T18:15:00",28.7,27.408405,0.201],
    [7784,"urn:WaterMeter:MC0203J22010600005","2023-08-29T18:30:00",28.6,27.382805,0.211],
    [7785,"urn:WaterMeter:MC0203J22010600005","2023-08-29T18:45:00",28.399,27.387072,0.196],
    [7786,"urn:WaterMeter:MC0203J22010600005","2023-08-29T19:00:00",28.2,27.376598,0.199],
    [7787,"urn:WaterMeter:MC0203J22010600005","2023-08-29T19:15:00",28,27.379702,0.207],
    [7788,"urn:WaterMeter:MC0203J22010600005","2023-08-29T19:30:00",27.799,27.353674,0.204],
    [7789,"urn:WaterMeter:MC0203J22010600005","2023-08-29T19:45:00",27.6,27.33742,0.2],
    [7790,"urn:WaterMeter:MC0203J22010600005","2023-08-29T20:00:00",27.5,27.362633,0.205],
    [7791,"urn:WaterMeter:MC0203J22010600005","2023-08-29T20:15:00",27.299,27.328886,0.21],
    [7792,"urn:WaterMeter:MC0203J22010600005","2023-08-29T20:30:00",27.2,27.338583,0.198],
    [7793,"urn:WaterMeter:MC0203J22010600005","2023-08-29T20:45:00",27.1,27.351385,0.194],
    [7794,"urn:WaterMeter:MC0203J22010600005","2023-08-29T21:00:00",27,27.329273,0.198],
    [7795,"urn:WaterMeter:MC0203J22010600005","2023-08-29T21:15:00",26.899,27.330439,0.199],
    [7796,"urn:WaterMeter:MC0203J22010600005","2023-08-29T21:30:00",26.799,27.332376,0.198],
    [7797,"urn:WaterMeter:MC0203J22010600005","2023-08-29T21:45:00",26.7,27.316435,0.195],
    [7798,"urn:WaterMeter:MC0203J22010600005","2023-08-29T22:00:00",26.6,27.286217,0.19],
    [7799,"urn:WaterMeter:MC0203J22010600005","2023-08-29T22:15:00",26.5,27.297039,0.199],
    [7800,"urn:WaterMeter:MC0203J22010600005","2023-08-29T22:30:00",26.399,27.300182,0.194],
    [7801,"urn:WaterMeter:MC0203J22010600005","2023-08-29T22:45:00",26.299,27.259413,0.194],
    [7802,"urn:WaterMeter:MC0203J22010600005","2023-08-29T23:00:00",26.2,27.26527,0.196],
    [7803,"urn:WaterMeter:MC0203J22010600005","2023-08-29T23:15:00",26.1,27.253246,0.204],
    [7804,"urn:WaterMeter:MC0203J22010600005","2023-08-29T23:30:00",26,27.26721,0.196],
    [7805,"urn:WaterMeter:MC0203J22010600005","2023-08-29T23:45:00",25.799,27.279236,0.195],
    [7806,"urn:WaterMeter:MC0203J22010600005","2023-08-30T00:00:00",25.7,27.247427,0.2],
    [7807,"urn:WaterMeter:MC0203J22010600005","2023-08-30T00:15:00",25.6,27.212128,0.195],
    [7808,"urn:WaterMeter:MC0203J22010600005","2023-08-30T00:30:00",25.5,27.233074,0.202],
    [7809,"urn:WaterMeter:MC0203J22010600005","2023-08-30T00:45:00",25.399,27.260616,0.204],
    [7810,"urn:WaterMeter:MC0203J22010600005","2023-08-30T01:00:00",25.299,27.226093,0.203],
    [7811,"urn:WaterMeter:MC0203J22010600005","2023-08-30T01:15:00",25.2,27.256699,0.198],
    [7812,"urn:WaterMeter:MC0203J22010600005","2023-08-30T01:30:00",25.1,27.23769,0.19],
    [7813,"urn:WaterMeter:MC0203J22010600005","2023-08-30T01:45:00",25,27.22454,0.211],
    [7814,"urn:WaterMeter:MC0203J22010600005","2023-08-30T02:00:00",24.899,27.219072,0.199],
    [7815,"urn:WaterMeter:MC0203J22010600005","2023-08-30T02:15:00",24.799,27.195448,0.192],
    [7816,"urn:WaterMeter:MC0203J22010600005","2023-08-30T02:30:00",24.799,27.23963,0.195],
    [7817,"urn:WaterMeter:MC0203J22010600005","2023-08-30T02:45:00",24.799,27.198513,0.192],
    [7818,"urn:WaterMeter:MC0203J22010600005","2023-08-30T03:00:00",24.799,27.183424,0.197],
    [7819,"urn:WaterMeter:MC0203J22010600005","2023-08-30T03:15:00",24.799,27.185751,0.195],
    [7820,"urn:WaterMeter:MC0203J22010600005","2023-08-30T03:30:00",24.799,27.15821,0.196],
    [7821,"urn:WaterMeter:MC0203J22010600005","2023-08-30T03:45:00",24.7,27.177994,0.196],
    [7822,"urn:WaterMeter:MC0203J22010600005","2023-08-30T04:00:00",24.6,27.131445,0.194],
    [7823,"urn:WaterMeter:MC0203J22010600005","2023-08-30T04:15:00",24.6,27.14188,0.191],
    [7824,"urn:WaterMeter:MC0203J22010600005","2023-08-30T04:30:00",24.6,27.183035,0.192],
    [7825,"urn:WaterMeter:MC0203J22010600005","2023-08-30T04:45:00",24.5,27.149288,0.189],
    [7826,"urn:WaterMeter:MC0203J22010600005","2023-08-30T05:00:00",24.5,27.120934,0.195],
    [7827,"urn:WaterMeter:MC0203J22010600005","2023-08-30T05:15:00",24.5,27.135712,0.194],
    [7828,"urn:WaterMeter:MC0203J22010600005","2023-08-30T05:30:00",24.6,27.108559,0.194],
    [7829,"urn:WaterMeter:MC0203J22010600005","2023-08-30T05:45:00",24.6,27.251694,0.198],
    [7830,"urn:WaterMeter:MC0203J22010600005","2023-08-30T06:00:00",24.6,27.84557,0.21],
    [7831,"urn:WaterMeter:MC0203J22010600005","2023-08-30T06:15:00",24.6,28.959618,0.225],
    [7832,"urn:WaterMeter:MC0203J22010600005","2023-08-30T06:30:00",24.7,29.701244,0.232],
    [7833,"urn:WaterMeter:MC0203J22010600005","2023-08-30T06:45:00",24.799,30.082975,0.24],
    [7834,"urn:WaterMeter:MC0203J22010600005","2023-08-30T07:00:00",25,30.362614,0.239],
    [7835,"urn:WaterMeter:MC0203J22010600005","2023-08-30T07:15:00",25.2,30.504236,0.244],
    [7836,"urn:WaterMeter:MC0203J22010600005","2023-08-30T07:30:00",25.399,30.678791,0.239],
    [7837,"urn:WaterMeter:MC0203J22010600005","2023-08-30T07:45:00",25.5,30.795937,0.241],
    [7838,"urn:WaterMeter:MC0203J22010600005","2023-08-30T08:00:00",25.6,30.866495,0.24],
    [7839,"urn:WaterMeter:MC0203J22010600005","2023-08-30T08:15:00",25.799,30.727627,0.238],
    [7840,"urn:WaterMeter:MC0203J22010600005","2023-08-30T08:30:00",26.1,30.637672,0.251],
    [7841,"urn:WaterMeter:MC0203J22010600005","2023-08-30T08:45:00",26.2,30.526308,0.236],
    [7842,"urn:WaterMeter:MC0203J22010600005","2023-08-30T09:00:00",26.399,30.51277,0.241],
    [7843,"urn:WaterMeter:MC0203J22010600005","2023-08-30T09:15:00",26.6,30.432861,0.235],
    [7844,"urn:WaterMeter:MC0203J22010600005","2023-08-30T09:30:00",26.899,30.334335,0.241],
    [7845,"urn:WaterMeter:MC0203J22010600005","2023-08-30T09:45:00",27.2,30.31335,0.237],
    [7846,"urn:WaterMeter:MC0203J22010600005","2023-08-30T10:00:00",27.399,30.23193,0.239],
    [7847,"urn:WaterMeter:MC0203J22010600005","2023-08-30T10:15:00",27.6,30.17995,0.232],
    [7848,"urn:WaterMeter:MC0203J22010600005","2023-08-30T10:30:00",27.7,30.14694,0.239],
    [7849,"urn:WaterMeter:MC0203J22010600005","2023-08-30T10:45:00",27.899,30.06936,0.233],
    [7850,"urn:WaterMeter:MC0203J22010600005","2023-08-30T11:00:00",28.1,30.041044,0.233],
    [7851,"urn:WaterMeter:MC0203J22010600005","2023-08-30T11:15:00",28.5,29.938677,0.242],
    [7852,"urn:WaterMeter:MC0203J22010600005","2023-08-30T11:30:00",28.799,29.852951,0.228],
    [7853,"urn:WaterMeter:MC0203J22010600005","2023-08-30T11:45:00",29.299,29.851788,0.227],
    [7854,"urn:WaterMeter:MC0203J22010600005","2023-08-30T12:00:00",29.5,29.752098,0.226],
    [7855,"urn:WaterMeter:MC0203J22010600005","2023-08-30T12:15:00",29.799,29.682625,0.228],
    [7856,"urn:WaterMeter:MC0203J22010600005","2023-08-30T12:30:00",29.6,29.62991,0.228],
    [7857,"urn:WaterMeter:MC0203J22010600005","2023-08-30T12:45:00",29.299,29.596123,0.229],
    [7858,"urn:WaterMeter:MC0203J22010600005","2023-08-30T13:00:00",29.1,29.527464,0.238],
    [7859,"urn:WaterMeter:MC0203J22010600005","2023-08-30T13:15:00",29,29.503454,0.237],
    [7860,"urn:WaterMeter:MC0203J22010600005","2023-08-30T13:30:00",28.899,29.482119,0.242],
    [7861,"urn:WaterMeter:MC0203J22010600005","2023-08-30T13:45:00",28.899,29.44872,0.225],
    [7862,"urn:WaterMeter:MC0203J22010600005","2023-08-30T14:00:00",28.799,29.430878,0.225],
    [7863,"urn:WaterMeter:MC0203J22010600005","2023-08-30T14:15:00",28.799,29.371529,0.232],
    [7864,"urn:WaterMeter:MC0203J22010600005","2023-08-30T14:30:00",28.899,29.32153,0.23],
    [7865,"urn:WaterMeter:MC0203J22010600005","2023-08-30T14:45:00",28.899,29.249767,0.224],
    [7866,"urn:WaterMeter:MC0203J22010600005","2023-08-30T15:00:00",28.899,29.195423,0.22],
    [7867,"urn:WaterMeter:MC0203J22010600005","2023-08-30T15:15:00",28.899,29.133009,0.22],
    [7868,"urn:WaterMeter:MC0203J22010600005","2023-08-30T15:30:00",28.7,29.1365,0.22],
    [7869,"urn:WaterMeter:MC0203J22010600005","2023-08-30T15:45:00",28.5,29.10508,0.226],
    [7870,"urn:WaterMeter:MC0203J22010600005","2023-08-30T16:00:00",28.2,29.108572,0.221],
    [7871,"urn:WaterMeter:MC0203J22010600005","2023-08-30T16:15:00",28,29.06823,0.232],
    [7872,"urn:WaterMeter:MC0203J22010600005","2023-08-30T16:30:00",27.899,29.058144,0.22],
    [7873,"urn:WaterMeter:MC0203J22010600005","2023-08-30T16:45:00",27.799,29.054653,0.222],
    [7874,"urn:WaterMeter:MC0203J22010600005","2023-08-30T17:00:00",27.7,29.082542,0.226],
    [7875,"urn:WaterMeter:MC0203J22010600005","2023-08-30T17:15:00",27.7,29.026337,0.225],
    [7876,"urn:WaterMeter:MC0203J22010600005","2023-08-30T17:30:00",27.5,29.01858,0.231],
    [7877,"urn:WaterMeter:MC0203J22010600005","2023-08-30T17:45:00",27.399,29.009657,0.225],
    [7878,"urn:WaterMeter:MC0203J22010600005","2023-08-30T18:00:00",27.299,28.988323,0.224],
    [7879,"urn:WaterMeter:MC0203J22010600005","2023-08-30T18:15:00",27.299,28.963846,0.221],
    [7880,"urn:WaterMeter:MC0203J22010600005","2023-08-30T18:30:00",27.2,28.96117,0.23],
    [7881,"urn:WaterMeter:MC0203J22010600005","2023-08-30T18:45:00",27.1,28.962683,0.223],
    [7882,"urn:WaterMeter:MC0203J22010600005","2023-08-30T19:00:00",27,28.950697,0.245],
    [7883,"urn:WaterMeter:MC0203J22010600005","2023-08-30T19:15:00",27,28.961557,0.221],
    [7884,"urn:WaterMeter:MC0203J22010600005","2023-08-30T19:30:00",26.799,28.969704,0.215],
    [7885,"urn:WaterMeter:MC0203J22010600005","2023-08-30T19:45:00",26.7,28.943676,0.226],
    [7886,"urn:WaterMeter:MC0203J22010600005","2023-08-30T20:00:00",26.5,28.915398,0.214],
    [7887,"urn:WaterMeter:MC0203J22010600005","2023-08-30T20:15:00",26.399,28.922379,0.219],
    [7888,"urn:WaterMeter:MC0203J22010600005","2023-08-30T20:30:00",26.299,28.937895,0.23],
    [7889,"urn:WaterMeter:MC0203J22010600005","2023-08-30T20:45:00",26.2,28.960005,0.227],
    [7890,"urn:WaterMeter:MC0203J22010600005","2023-08-30T21:00:00",26.1,28.908415,0.214],
    [7891,"urn:WaterMeter:MC0203J22010600005","2023-08-30T21:15:00",26,28.874279,0.226],
    [7892,"urn:WaterMeter:MC0203J22010600005","2023-08-30T21:30:00",25.899,28.93708,0.216],
    [7893,"urn:WaterMeter:MC0203J22010600005","2023-08-30T21:45:00",25.799,28.876608,0.222],
    [7894,"urn:WaterMeter:MC0203J22010600005","2023-08-30T22:00:00",25.7,28.928585,0.22],
    [7895,"urn:WaterMeter:MC0203J22010600005","2023-08-30T22:15:00",25.5,28.907988,0.221],
    [7896,"urn:WaterMeter:MC0203J22010600005","2023-08-30T22:30:00",25.399,28.90376,0.218],
    [7897,"urn:WaterMeter:MC0203J22010600005","2023-08-30T22:45:00",25.299,28.888594,0.222],
    [7898,"urn:WaterMeter:MC0203J22010600005","2023-08-30T23:00:00",25.2,28.89674,0.227],
    [7899,"urn:WaterMeter:MC0203J22010600005","2023-08-30T23:15:00",25,28.874668,0.221],
    [7900,"urn:WaterMeter:MC0203J22010600005","2023-08-30T23:30:00",24.899,28.926996,0.229],
    [7901,"urn:WaterMeter:MC0203J22010600005","2023-08-30T23:45:00",24.799,28.901045,0.224],
    [7902,"urn:WaterMeter:MC0203J22010600005","2023-08-31T00:00:00",24.7,28.895226,0.226],
    [7903,"urn:WaterMeter:MC0203J22010600005","2023-08-31T00:15:00",24.5,28.894451,0.231],
    [7904,"urn:WaterMeter:MC0203J22010600005","2023-08-31T00:30:00",24.399,28.91307,0.226],
    [7905,"urn:WaterMeter:MC0203J22010600005","2023-08-31T00:45:00",24.299,28.885101,0.217],
    [7906,"urn:WaterMeter:MC0203J22010600005","2023-08-31T01:00:00",24.2,28.882425,0.222],
    [7907,"urn:WaterMeter:MC0203J22010600005","2023-08-31T01:15:00",24,28.849415,0.217],
    [7908,"urn:WaterMeter:MC0203J22010600005","2023-08-31T01:30:00",23.899,28.880486,0.221],
    [7909,"urn:WaterMeter:MC0203J22010600005","2023-08-31T01:45:00",23.799,28.881649,0.224],
    [7910,"urn:WaterMeter:MC0203J22010600005","2023-08-31T02:00:00",23.799,28.873505,0.222],
    [7911,"urn:WaterMeter:MC0203J22010600005","2023-08-31T02:15:00",23.7,28.88743,0.215],
    [7912,"urn:WaterMeter:MC0203J22010600005","2023-08-31T02:30:00",23.6,28.873505,0.224],
    [7913,"urn:WaterMeter:MC0203J22010600005","2023-08-31T02:45:00",23.6,28.897127,0.223],
    [7914,"urn:WaterMeter:MC0203J22010600005","2023-08-31T03:00:00",23.6,28.844799,0.213],
    [7915,"urn:WaterMeter:MC0203J22010600005","2023-08-31T03:15:00",23.6,28.856436,0.215],
    [7916,"urn:WaterMeter:MC0203J22010600005","2023-08-31T03:30:00",23.6,28.831612,0.217],
    [7917,"urn:WaterMeter:MC0203J22010600005","2023-08-31T03:45:00",23.6,28.863031,0.216],
    [7918,"urn:WaterMeter:MC0203J22010600005","2023-08-31T04:00:00",23.5,28.851395,0.216],
    [7919,"urn:WaterMeter:MC0203J22010600005","2023-08-31T04:15:00",23.399,28.827305,0.213],
    [7920,"urn:WaterMeter:MC0203J22010600005","2023-08-31T04:30:00",23.399,28.81532,0.215],
    [7921,"urn:WaterMeter:MC0203J22010600005","2023-08-31T04:45:00",23.299,28.809074,0.22],
    [7922,"urn:WaterMeter:MC0203J22010600005","2023-08-31T05:00:00",23.299,28.773426,0.212],
    [7923,"urn:WaterMeter:MC0203J22010600005","2023-08-31T05:15:00",23.2,28.808298,0.222],
    [7924,"urn:WaterMeter:MC0203J22010600005","2023-08-31T05:30:00",23.2,28.979013,0.22],
    [7925,"urn:WaterMeter:MC0203J22010600005","2023-08-31T05:45:00",23.299,29.395617,0.238],
    [7926,"urn:WaterMeter:MC0203J22010600005","2023-08-31T06:00:00",23.299,30.105087,0.237],
    [7927,"urn:WaterMeter:MC0203J22010600005","2023-08-31T06:15:00",23.399,30.580263,0.245],
    [7928,"urn:WaterMeter:MC0203J22010600005","2023-08-31T06:30:00",23.399,30.822313,0.26],
    [7929,"urn:WaterMeter:MC0203J22010600005","2023-08-31T06:45:00",23.399,31.06126,0.263],
    [7930,"urn:WaterMeter:MC0203J22010600005","2023-08-31T07:00:00",23.5,31.13341,0.247],
    [7931,"urn:WaterMeter:MC0203J22010600005","2023-08-31T07:15:00",23.6,31.298655,0.254],
    [7932,"urn:WaterMeter:MC0203J22010600005","2023-08-31T07:30:00",23.799,31.359554,0.248],
    [7933,"urn:WaterMeter:MC0203J22010600005","2023-08-31T07:45:00",23.899,31.4511,0.259],
    [7934,"urn:WaterMeter:MC0203J22010600005","2023-08-31T08:00:00",24.2,31.529455,0.255],
    [7935,"urn:WaterMeter:MC0203J22010600005","2023-08-31T08:15:00",24.399,31.313395,0.262],
    [7936,"urn:WaterMeter:MC0203J22010600005","2023-08-31T08:30:00",24.6,31.095007,0.251],
    [7937,"urn:WaterMeter:MC0203J22010600005","2023-08-31T08:45:00",24.799,30.968164,0.246],
    [7938,"urn:WaterMeter:MC0203J22010600005","2023-08-31T09:00:00",25,30.895588,0.251],
    [7939,"urn:WaterMeter:MC0203J22010600005","2023-08-31T09:15:00",25.299,30.79555,0.245],
    [7940,"urn:WaterMeter:MC0203J22010600005","2023-08-31T09:30:00",25.6,30.764128,0.264],
    [7941,"urn:WaterMeter:MC0203J22010600005","2023-08-31T09:45:00",25.899,30.674135,0.238],
    [7942,"urn:WaterMeter:MC0203J22010600005","2023-08-31T10:00:00",26.1,30.643454,0.241],
    [7943,"urn:WaterMeter:MC0203J22010600005","2023-08-31T10:15:00",26.299,30.58104,0.246],
    [7944,"urn:WaterMeter:MC0203J22010600005","2023-08-31T10:30:00",26.6,30.49415,0.248],
    [7945,"urn:WaterMeter:MC0203J22010600005","2023-08-31T10:45:00",26.799,30.434025,0.242],
    [7946,"urn:WaterMeter:MC0203J22010600005","2023-08-31T11:00:00",27,30.346748,0.249],
    [7947,"urn:WaterMeter:MC0203J22010600005","2023-08-31T11:15:00",27.299,30.302877,0.238],
    [7948,"urn:WaterMeter:MC0203J22010600005","2023-08-31T11:30:00",27.6,30.236158,0.238],
    [7949,"urn:WaterMeter:MC0203J22010600005","2023-08-31T11:45:00",27.899,30.18189,0.24],
    [7950,"urn:WaterMeter:MC0203J22010600005","2023-08-31T12:00:00",28.2,30.104698,0.235],
    [7951,"urn:WaterMeter:MC0203J22010600005","2023-08-31T12:15:00",28.399,30.029408,0.235],
    [7952,"urn:WaterMeter:MC0203J22010600005","2023-08-31T12:30:00",28.5,29.960012,0.234],
    [7953,"urn:WaterMeter:MC0203J22010600005","2023-08-31T12:45:00",28.6,29.91967,0.25],
    [7954,"urn:WaterMeter:MC0203J22010600005","2023-08-31T13:00:00",28.7,29.825024,0.223],
    [7955,"urn:WaterMeter:MC0203J22010600005","2023-08-31T13:15:00",28.7,29.753262,0.235],
    [7956,"urn:WaterMeter:MC0203J22010600005","2023-08-31T13:30:00",28.799,29.701244,0.229],
    [7957,"urn:WaterMeter:MC0203J22010600005","2023-08-31T13:45:00",28.899,29.629133,0.23],
    [7958,"urn:WaterMeter:MC0203J22010600005","2023-08-31T14:00:00",28.899,29.560087,0.23],
    [7959,"urn:WaterMeter:MC0203J22010600005","2023-08-31T14:15:00",28.799,29.47087,0.234],
    [7960,"urn:WaterMeter:MC0203J22010600005","2023-08-31T14:30:00",28.899,29.42277,0.242],
    [7961,"urn:WaterMeter:MC0203J22010600005","2023-08-31T14:45:00",28.799,29.36032,0.235],
    [7962,"urn:WaterMeter:MC0203J22010600005","2023-08-31T15:00:00",28.799,29.29166,0.23],
    [7963,"urn:WaterMeter:MC0203J22010600005","2023-08-31T15:15:00",28.799,29.259851,0.229],
    [7964,"urn:WaterMeter:MC0203J22010600005","2023-08-31T15:30:00",28.799,29.208223,0.228],
    [7965,"urn:WaterMeter:MC0203J22010600005","2023-08-31T15:45:00",28.7,29.136112,0.233],
    [7966,"urn:WaterMeter:MC0203J22010600005","2023-08-31T16:00:00",28.7,29.065126,0.225],
    [7967,"urn:WaterMeter:MC0203J22010600005","2023-08-31T16:15:00",28.6,29.029827,0.225],
    [7968,"urn:WaterMeter:MC0203J22010600005","2023-08-31T16:30:00",28.5,28.972418,0.221],
    [7969,"urn:WaterMeter:MC0203J22010600005","2023-08-31T16:45:00",28.399,28.920828,0.22],
    [7970,"urn:WaterMeter:MC0203J22010600005","2023-08-31T17:00:00",28.299,28.877731,0.224],
    [7971,"urn:WaterMeter:MC0203J22010600005","2023-08-31T17:15:00",28.2,28.863419,0.223],
    [7972,"urn:WaterMeter:MC0203J22010600005","2023-08-31T17:30:00",28.1,28.861479,0.217],
    [7973,"urn:WaterMeter:MC0203J22010600005","2023-08-31T17:45:00",27.899,28.79864,0.224],
    [7974,"urn:WaterMeter:MC0203J22010600005","2023-08-31T18:00:00",27.799,28.790842,0.224],
    [7975,"urn:WaterMeter:MC0203J22010600005","2023-08-31T18:15:00",27.6,28.760626,0.223],
    [7976,"urn:WaterMeter:MC0203J22010600005","2023-08-31T18:30:00",27.5,28.789291,0.227],
    [7977,"urn:WaterMeter:MC0203J22010600005","2023-08-31T18:45:00",27.299,28.760975,0.218],
    [7978,"urn:WaterMeter:MC0203J22010600005","2023-08-31T19:00:00",27.1,28.743132,0.22],
    [7979,"urn:WaterMeter:MC0203J22010600005","2023-08-31T19:15:00",27,28.73929,0.224],
    [7980,"urn:WaterMeter:MC0203J22010600005","2023-08-31T19:30:00",26.899,28.760237,0.225],
    [7981,"urn:WaterMeter:MC0203J22010600005","2023-08-31T19:45:00",26.799,28.69856,0.22],
    [7982,"urn:WaterMeter:MC0203J22010600005","2023-08-31T20:00:00",26.7,28.691929,0.218],
    [7983,"urn:WaterMeter:MC0203J22010600005","2023-08-31T20:15:00",26.5,28.727654,0.236],
    [7984,"urn:WaterMeter:MC0203J22010600005","2023-08-31T20:30:00",26.399,28.7121,0.23],
    [7985,"urn:WaterMeter:MC0203J22010600005","2023-08-31T20:45:00",26.299,28.693867,0.231],
    [7986,"urn:WaterMeter:MC0203J22010600005","2023-08-31T21:00:00",26.2,28.717567,0.224],
    [7987,"urn:WaterMeter:MC0203J22010600005","2023-08-31T21:15:00",26.1,28.69895,0.232],
    [7988,"urn:WaterMeter:MC0203J22010600005","2023-08-31T21:30:00",25.899,28.70244,0.223],
    [7989,"urn:WaterMeter:MC0203J22010600005","2023-08-31T21:45:00",25.799,28.667917,0.222],
    [7990,"urn:WaterMeter:MC0203J22010600005","2023-08-31T22:00:00",25.6,28.643478,0.228],
    [7991,"urn:WaterMeter:MC0203J22010600005","2023-08-31T22:15:00",25.5,28.709423,0.228],
    [7992,"urn:WaterMeter:MC0203J22010600005","2023-08-31T22:30:00",25.399,28.692703,0.229],
    [7993,"urn:WaterMeter:MC0203J22010600005","2023-08-31T22:45:00",25.2,28.668694,0.226],
    [7994,"urn:WaterMeter:MC0203J22010600005","2023-08-31T23:00:00",25.1,28.691153,0.219],
    [7995,"urn:WaterMeter:MC0203J22010600005","2023-08-31T23:15:00",25,28.672533,0.217],
    [7996,"urn:WaterMeter:MC0203J22010600005","2023-08-31T23:30:00",24.899,28.70981,0.222],
    [7997,"urn:WaterMeter:MC0203J22010600005","2023-08-31T23:45:00",24.799,28.664776,0.225],
    [7998,"urn:WaterMeter:MC0203J22010600005","2023-09-01T00:00:00",24.7,28.667141,0.22],
    [7999,"urn:WaterMeter:MC0203J22010600005","2023-09-01T00:15:00",24.6,28.688477,0.214],
    [8000,"urn:WaterMeter:MC0203J22010600005","2023-09-01T00:30:00",24.5,28.649685,0.225],
    [8001,"urn:WaterMeter:MC0203J22010600005","2023-09-01T00:45:00",24.399,28.659384,0.219],
    [8002,"urn:WaterMeter:MC0203J22010600005","2023-09-01T01:00:00",24.299,28.683783,0.221],
    [8003,"urn:WaterMeter:MC0203J22010600005","2023-09-01T01:15:00",24.2,28.65628,0.219],
    [8004,"urn:WaterMeter:MC0203J22010600005","2023-09-01T01:30:00",24.1,28.682657,0.232],
    [8005,"urn:WaterMeter:MC0203J22010600005","2023-09-01T01:45:00",24,28.709423,0.218],
    [8006,"urn:WaterMeter:MC0203J22010600005","2023-09-01T02:00:00",23.899,28.655853,0.23],
    [8007,"urn:WaterMeter:MC0203J22010600005","2023-09-01T02:15:00",23.799,28.703176,0.221],
    [8008,"urn:WaterMeter:MC0203J22010600005","2023-09-01T02:30:00",23.7,28.688087,0.217],
    [8009,"urn:WaterMeter:MC0203J22010600005","2023-09-01T02:45:00",23.6,28.643091,0.212],
    [8010,"urn:WaterMeter:MC0203J22010600005","2023-09-01T03:00:00",23.5,28.69662,0.216],
    [8011,"urn:WaterMeter:MC0203J22010600005","2023-09-01T03:15:00",23.399,28.670244,0.216],
    [8012,"urn:WaterMeter:MC0203J22010600005","2023-09-01T03:30:00",23.299,28.672533,0.227],
    [8013,"urn:WaterMeter:MC0203J22010600005","2023-09-01T03:45:00",23.2,28.693867,0.218],
    [8014,"urn:WaterMeter:MC0203J22010600005","2023-09-01T04:00:00",23.2,28.66365,0.216],
    [8015,"urn:WaterMeter:MC0203J22010600005","2023-09-01T04:15:00",23.1,28.686148,0.228],
    [8016,"urn:WaterMeter:MC0203J22010600005","2023-09-01T04:30:00",23,28.686924,0.22],
    [8017,"urn:WaterMeter:MC0203J22010600005","2023-09-01T04:45:00",22.899,28.631842,0.224],
    [8018,"urn:WaterMeter:MC0203J22010600005","2023-09-01T05:00:00",22.799,28.668694,0.216],
    [8019,"urn:WaterMeter:MC0203J22010600005","2023-09-01T05:15:00",22.899,28.679167,0.221],
    [8020,"urn:WaterMeter:MC0203J22010600005","2023-09-01T05:30:00",23,28.77808,0.219],
    [8021,"urn:WaterMeter:MC0203J22010600005","2023-09-01T05:45:00",22.899,29.19775,0.231],
    [8022,"urn:WaterMeter:MC0203J22010600005","2023-09-01T06:00:00",23,29.994923,0.25],
    [8023,"urn:WaterMeter:MC0203J22010600005","2023-09-01T06:15:00",22.899,30.575958,0.257],
    [8024,"urn:WaterMeter:MC0203J22010600005","2023-09-01T06:30:00",23,30.919289,0.265],
    [8025,"urn:WaterMeter:MC0203J22010600005","2023-09-01T06:45:00",23.1,31.10199,0.253],
    [8026,"urn:WaterMeter:MC0203J22010600005","2023-09-01T07:00:00",23.1,31.27224,0.253],
    [8027,"urn:WaterMeter:MC0203J22010600005","2023-09-01T07:15:00",23.1,31.420456,0.264],
    [8028,"urn:WaterMeter:MC0203J22010600005","2023-09-01T07:30:00",23.299,31.497221,0.256],
    [8029,"urn:WaterMeter:MC0203J22010600005","2023-09-01T07:45:00",23.5,31.600403,0.273],
    [8030,"urn:WaterMeter:MC0203J22010600005","2023-09-01T08:00:00",23.799,31.668324,0.268],
    [8031,"urn:WaterMeter:MC0203J22010600005","2023-09-01T08:15:00",24,31.528679,0.253],
    [8032,"urn:WaterMeter:MC0203J22010600005","2023-09-01T08:30:00",24.299,31.247452,0.252],
    [8033,"urn:WaterMeter:MC0203J22010600005","2023-09-01T08:45:00",24.5,31.145433,0.255],
    [8034,"urn:WaterMeter:MC0203J22010600005","2023-09-01T09:00:00",24.7,31.017815,0.251],
    [8035,"urn:WaterMeter:MC0203J22010600005","2023-09-01T09:15:00",25,30.949932,0.254],
    [8036,"urn:WaterMeter:MC0203J22010600005","2023-09-01T09:30:00",25.399,30.893686,0.252],
    [8037,"urn:WaterMeter:MC0203J22010600005","2023-09-01T09:45:00",25.6,30.818396,0.254],
    [8038,"urn:WaterMeter:MC0203J22010600005","2023-09-01T10:00:00",25.899,30.73112,0.244],
    [8039,"urn:WaterMeter:MC0203J22010600005","2023-09-01T10:15:00",26.1,30.684221,0.24],
    [8040,"urn:WaterMeter:MC0203J22010600005","2023-09-01T10:30:00",26.299,30.640388,0.243],
    [8041,"urn:WaterMeter:MC0203J22010600005","2023-09-01T10:45:00",26.5,30.589962,0.244],
    [8042,"urn:WaterMeter:MC0203J22010600005","2023-09-01T11:00:00",26.7,30.497602,0.245],
    [8043,"urn:WaterMeter:MC0203J22010600005","2023-09-01T11:15:00",27,30.433638,0.255],
    [8044,"urn:WaterMeter:MC0203J22010600005","2023-09-01T11:30:00",27.299,30.383598,0.239],
    [8045,"urn:WaterMeter:MC0203J22010600005","2023-09-01T11:45:00",27.7,30.33162,0.235],
    [8046,"urn:WaterMeter:MC0203J22010600005","2023-09-01T12:00:00",27.799,30.227663,0.238],
    [8047,"urn:WaterMeter:MC0203J22010600005","2023-09-01T12:15:00",27.899,30.17995,0.238],
    [8048,"urn:WaterMeter:MC0203J22010600005","2023-09-01T12:30:00",27.899,30.116335,0.236],
    [8049,"urn:WaterMeter:MC0203J22010600005","2023-09-01T12:45:00",28,30.060091,0.236],
    [8050,"urn:WaterMeter:MC0203J22010600005","2023-09-01T13:00:00",28.1,29.999578,0.235],
    [8051,"urn:WaterMeter:MC0203J22010600005","2023-09-01T13:15:00",28.1,29.983248,0.241],
    [8052,"urn:WaterMeter:MC0203J22010600005","2023-09-01T13:30:00",28.2,29.90842,0.24],
    [8053,"urn:WaterMeter:MC0203J22010600005","2023-09-01T13:45:00",28.2,29.84015,0.235],
    [8054,"urn:WaterMeter:MC0203J22010600005","2023-09-01T14:00:00",28.299,29.831617,0.253],
    [8055,"urn:WaterMeter:MC0203J22010600005","2023-09-01T14:15:00",28.5,29.730724,0.235],
    [8056,"urn:WaterMeter:MC0203J22010600005","2023-09-01T14:30:00",28.5,29.698566,0.235],
    [8057,"urn:WaterMeter:MC0203J22010600005","2023-09-01T14:45:00",28.5,29.670639,0.233],
    [8058,"urn:WaterMeter:MC0203J22010600005","2023-09-01T15:00:00",28.5,29.59073,0.232],
    [8059,"urn:WaterMeter:MC0203J22010600005","2023-09-01T15:15:00",28.5,29.572887,0.245],
    [8060,"urn:WaterMeter:MC0203J22010600005","2023-09-01T15:30:00",28.5,29.530218,0.24],
    [8061,"urn:WaterMeter:MC0203J22010600005","2023-09-01T15:45:00",28.399,29.451048,0.232],
    [8062,"urn:WaterMeter:MC0203J22010600005","2023-09-01T16:00:00",28.5,29.413849,0.237],
    [8063,"urn:WaterMeter:MC0203J22010600005","2023-09-01T16:15:00",28.399,29.362219,0.23],
    [8064,"urn:WaterMeter:MC0203J22010600005","2023-09-01T16:30:00",28.299,29.325407,0.241],
    [8065,"urn:WaterMeter:MC0203J22010600005","2023-09-01T16:45:00",28.2,29.259851,0.229],
    [8066,"urn:WaterMeter:MC0203J22010600005","2023-09-01T17:00:00",28,29.27886,0.241],
    [8067,"urn:WaterMeter:MC0203J22010600005","2023-09-01T17:15:00",27.899,29.255547,0.227],
    [8068,"urn:WaterMeter:MC0203J22010600005","2023-09-01T17:30:00",27.799,29.216757,0.24],
    [8069,"urn:WaterMeter:MC0203J22010600005","2023-09-01T17:45:00",27.7,29.16792,0.236],
    [8070,"urn:WaterMeter:MC0203J22010600005","2023-09-01T18:00:00",27.6,29.176027,0.233],
    [8071,"urn:WaterMeter:MC0203J22010600005","2023-09-01T18:15:00",27.399,29.176414,0.233],
    [8072,"urn:WaterMeter:MC0203J22010600005","2023-09-01T18:30:00",27.2,29.159348,0.228],
    [8073,"urn:WaterMeter:MC0203J22010600005","2023-09-01T18:45:00",27,29.157408,0.238],
    [8074,"urn:WaterMeter:MC0203J22010600005","2023-09-01T19:00:00",26.899,29.151628,0.237],
    [8075,"urn:WaterMeter:MC0203J22010600005","2023-09-01T19:15:00",26.7,29.159735,0.227],
    [8076,"urn:WaterMeter:MC0203J22010600005","2023-09-01T19:30:00",26.6,29.145035,0.228],
    [8077,"urn:WaterMeter:MC0203J22010600005","2023-09-01T19:45:00",26.5,29.132622,0.225],
    [8078,"urn:WaterMeter:MC0203J22010600005","2023-09-01T20:00:00",26.299,29.14581,0.226],
    [8079,"urn:WaterMeter:MC0203J22010600005","2023-09-01T20:15:00",26.2,29.141932,0.234],
    [8080,"urn:WaterMeter:MC0203J22010600005","2023-09-01T20:30:00",26.1,29.133009,0.225],
    [8081,"urn:WaterMeter:MC0203J22010600005","2023-09-01T20:45:00",25.899,29.171022,0.228],
    [8082,"urn:WaterMeter:MC0203J22010600005","2023-09-01T21:00:00",25.799,29.148525,0.231],
    [8083,"urn:WaterMeter:MC0203J22010600005","2023-09-01T21:15:00",25.799,29.131458,0.229],
    [8084,"urn:WaterMeter:MC0203J22010600005","2023-09-01T21:30:00",25.7,29.139177,0.228],
    [8085,"urn:WaterMeter:MC0203J22010600005","2023-09-01T21:45:00",25.6,29.109346,0.225],
    [8086,"urn:WaterMeter:MC0203J22010600005","2023-09-01T22:00:00",25.5,29.14034,0.226],
    [8087,"urn:WaterMeter:MC0203J22010600005","2023-09-01T22:15:00",25.399,29.142706,0.226],
    [8088,"urn:WaterMeter:MC0203J22010600005","2023-09-01T22:30:00",25.299,29.111248,0.222],
    [8089,"urn:WaterMeter:MC0203J22010600005","2023-09-01T22:45:00",25.299,29.105856,0.223],
    [8090,"urn:WaterMeter:MC0203J22010600005","2023-09-01T23:00:00",25.2,29.103916,0.227],
    [8091,"urn:WaterMeter:MC0203J22010600005","2023-09-01T23:15:00",25.2,29.118618,0.234],
    [8092,"urn:WaterMeter:MC0203J22010600005","2023-09-01T23:30:00",25.1,29.146585,0.233],
    [8093,"urn:WaterMeter:MC0203J22010600005","2023-09-01T23:45:00",25,29.104305,0.226],
    [8094,"urn:WaterMeter:MC0203J22010600005","2023-09-02T00:00:00",24.899,29.123312,0.236],
    [8095,"urn:WaterMeter:MC0203J22010600005","2023-09-02T00:15:00",24.799,29.131031,0.203],
    [8096,"urn:WaterMeter:MC0203J22010600005","2023-09-02T00:30:00",24.7,29.125252,0.224],
    [8097,"urn:WaterMeter:MC0203J22010600005","2023-09-02T00:45:00",24.6,29.128355,0.223],
    [8098,"urn:WaterMeter:MC0203J22010600005","2023-09-02T01:00:00",24.5,29.145422,0.223],
    [8099,"urn:WaterMeter:MC0203J22010600005","2023-09-02T01:15:00",24.399,29.129478,0.223],
    [8100,"urn:WaterMeter:MC0203J22010600005","2023-09-02T01:30:00",24.399,29.099998,0.222],
    [8101,"urn:WaterMeter:MC0203J22010600005","2023-09-02T01:45:00",24.299,29.082155,0.232],
    [8102,"urn:WaterMeter:MC0203J22010600005","2023-09-02T02:00:00",24.2,29.133009,0.223],
    [8103,"urn:WaterMeter:MC0203J22010600005","2023-09-02T02:15:00",24.2,29.14034,0.22],
    [8104,"urn:WaterMeter:MC0203J22010600005","2023-09-02T02:30:00",24.1,29.133009,0.226],
    [8105,"urn:WaterMeter:MC0203J22010600005","2023-09-02T02:45:00",24,29.09577,0.236],
    [8106,"urn:WaterMeter:MC0203J22010600005","2023-09-02T03:00:00",24,29.1237,0.223],
    [8107,"urn:WaterMeter:MC0203J22010600005","2023-09-02T03:15:00",24,29.127966,0.231],
    [8108,"urn:WaterMeter:MC0203J22010600005","2023-09-02T03:30:00",23.899,29.075212,0.22],
    [8109,"urn:WaterMeter:MC0203J22010600005","2023-09-02T03:45:00",23.899,29.082542,0.235],
    [8110,"urn:WaterMeter:MC0203J22010600005","2023-09-02T04:00:00",23.899,29.101551,0.226],
    [8111,"urn:WaterMeter:MC0203J22010600005","2023-09-02T04:15:00",23.899,29.10702,0.22],
    [8112,"urn:WaterMeter:MC0203J22010600005","2023-09-02T04:30:00",23.799,29.107409,0.219],
    [8113,"urn:WaterMeter:MC0203J22010600005","2023-09-02T04:45:00",23.799,29.0756,0.227],
    [8114,"urn:WaterMeter:MC0203J22010600005","2023-09-02T05:00:00",23.799,29.101551,0.237],
    [8115,"urn:WaterMeter:MC0203J22010600005","2023-09-02T05:15:00",23.7,29.043365,0.222],
    [8116,"urn:WaterMeter:MC0203J22010600005","2023-09-02T05:30:00",23.7,29.05155,0.228],
    [8117,"urn:WaterMeter:MC0203J22010600005","2023-09-02T05:45:00",23.7,29.040262,0.221],
    [8118,"urn:WaterMeter:MC0203J22010600005","2023-09-02T06:00:00",23.799,29.061985,0.218],
    [8119,"urn:WaterMeter:MC0203J22010600005","2023-09-02T06:15:00",23.799,29.044956,0.216],
    [8120,"urn:WaterMeter:MC0203J22010600005","2023-09-02T06:30:00",23.7,29.032505,0.218],
    [8121,"urn:WaterMeter:MC0203J22010600005","2023-09-02T06:45:00",23.7,29.011984,0.223],
    [8122,"urn:WaterMeter:MC0203J22010600005","2023-09-02T07:00:00",23.7,29.0275,0.218],
    [8123,"urn:WaterMeter:MC0203J22010600005","2023-09-02T07:15:00",23.7,29.019743,0.223],
    [8124,"urn:WaterMeter:MC0203J22010600005","2023-09-02T07:30:00",23.7,29.029053,0.228],
    [8125,"urn:WaterMeter:MC0203J22010600005","2023-09-02T07:45:00",23.7,29.045732,0.217],
    [8126,"urn:WaterMeter:MC0203J22010600005","2023-09-02T08:00:00",23.6,29.09034,0.226],
    [8127,"urn:WaterMeter:MC0203J22010600005","2023-09-02T08:15:00",23.6,29.135336,0.229],
    [8128,"urn:WaterMeter:MC0203J22010600005","2023-09-02T08:30:00",23.6,29.204771,0.234],
    [8129,"urn:WaterMeter:MC0203J22010600005","2023-09-02T08:45:00",23.7,29.20861,0.235],
    [8130,"urn:WaterMeter:MC0203J22010600005","2023-09-02T09:00:00",23.899,29.235764,0.237],
    [8131,"urn:WaterMeter:MC0203J22010600005","2023-09-02T09:15:00",24,29.213692,0.227],
    [8132,"urn:WaterMeter:MC0203J22010600005","2023-09-02T09:30:00",24.1,29.215593,0.229],
    [8133,"urn:WaterMeter:MC0203J22010600005","2023-09-02T09:45:00",24.1,29.210978,0.227],
    [8134,"urn:WaterMeter:MC0203J22010600005","2023-09-02T10:00:00",24.1,29.250544,0.228],
    [8135,"urn:WaterMeter:MC0203J22010600005","2023-09-02T10:15:00",24.1,29.220287,0.227],
    [8136,"urn:WaterMeter:MC0203J22010600005","2023-09-02T10:30:00",24,29.208223,0.224],
    [8137,"urn:WaterMeter:MC0203J22010600005","2023-09-02T10:45:00",24.1,29.210588,0.23],
    [8138,"urn:WaterMeter:MC0203J22010600005","2023-09-02T11:00:00",24.1,29.224941,0.223],
    [8139,"urn:WaterMeter:MC0203J22010600005","2023-09-02T11:15:00",24.299,29.227617,0.226],
    [8140,"urn:WaterMeter:MC0203J22010600005","2023-09-02T11:30:00",24.799,29.179518,0.221],
    [8141,"urn:WaterMeter:MC0203J22010600005","2023-09-02T11:45:00",25.1,29.120169,0.23],
    [8142,"urn:WaterMeter:MC0203J22010600005","2023-09-02T12:00:00",25.1,29.097322,0.221],
    [8143,"urn:WaterMeter:MC0203J22010600005","2023-09-02T12:15:00",25.1,29.052288,0.223],
    [8144,"urn:WaterMeter:MC0203J22010600005","2023-09-02T12:30:00",25,29.070557,0.217],
    [8145,"urn:WaterMeter:MC0203J22010600005","2023-09-02T12:45:00",25.2,29.00186,0.22],
    [8146,"urn:WaterMeter:MC0203J22010600005","2023-09-02T13:00:00",25.1,28.951471,0.223],
    [8147,"urn:WaterMeter:MC0203J22010600005","2023-09-02T13:15:00",25.2,28.977074,0.216],
    [8148,"urn:WaterMeter:MC0203J22010600005","2023-09-02T13:30:00",25.1,28.958067,0.222],
    [8149,"urn:WaterMeter:MC0203J22010600005","2023-09-02T13:45:00",25.299,28.923893,0.219],
    [8150,"urn:WaterMeter:MC0203J22010600005","2023-09-02T14:00:00",25.399,28.871176,0.223],
    [8151,"urn:WaterMeter:MC0203J22010600005","2023-09-02T14:15:00",25.6,28.823465,0.224],
    [8152,"urn:WaterMeter:MC0203J22010600005","2023-09-02T14:30:00",25.799,28.780758,0.216],
    [8153,"urn:WaterMeter:MC0203J22010600005","2023-09-02T14:45:00",25.799,28.75597,0.213],
    [8154,"urn:WaterMeter:MC0203J22010600005","2023-09-02T15:00:00",25.799,28.684946,0.219],
    [8155,"urn:WaterMeter:MC0203J22010600005","2023-09-02T15:15:00",25.899,28.66908,0.22],
    [8156,"urn:WaterMeter:MC0203J22010600005","2023-09-02T15:30:00",26,28.604689,0.215],
    [8157,"urn:WaterMeter:MC0203J22010600005","2023-09-02T15:45:00",26.1,28.612835,0.22],
    [8158,"urn:WaterMeter:MC0203J22010600005","2023-09-02T16:00:00",26,28.532928,0.215],
    [8159,"urn:WaterMeter:MC0203J22010600005","2023-09-02T16:15:00",26,28.4697,0.217],
    [8160,"urn:WaterMeter:MC0203J22010600005","2023-09-02T16:30:00",26,28.43673,0.221],
    [8161,"urn:WaterMeter:MC0203J22010600005","2023-09-02T16:45:00",25.899,28.438667,0.218],
    [8162,"urn:WaterMeter:MC0203J22010600005","2023-09-02T17:00:00",25.899,28.391344,0.213],
    [8163,"urn:WaterMeter:MC0203J22010600005","2023-09-02T17:15:00",25.799,28.345146,0.214],
    [8164,"urn:WaterMeter:MC0203J22010600005","2023-09-02T17:30:00",25.799,28.337427,0.219],
    [8165,"urn:WaterMeter:MC0203J22010600005","2023-09-02T17:45:00",25.7,28.308722,0.22],
    [8166,"urn:WaterMeter:MC0203J22010600005","2023-09-02T18:00:00",25.6,28.276487,0.221],
    [8167,"urn:WaterMeter:MC0203J22010600005","2023-09-02T18:15:00",25.399,28.301352,0.206],
    [8168,"urn:WaterMeter:MC0203J22010600005","2023-09-02T18:30:00",25.299,28.288162,0.212],
    [8169,"urn:WaterMeter:MC0203J22010600005","2023-09-02T18:45:00",25.2,28.283857,0.216],
    [8170,"urn:WaterMeter:MC0203J22010600005","2023-09-02T19:00:00",25.1,28.271872,0.217],
    [8171,"urn:WaterMeter:MC0203J22010600005","2023-09-02T19:15:00",25,28.300575,0.229],
    [8172,"urn:WaterMeter:MC0203J22010600005","2023-09-02T19:30:00",24.799,28.21869,0.216],
    [8173,"urn:WaterMeter:MC0203J22010600005","2023-09-02T19:45:00",24.6,28.250925,0.227],
    [8174,"urn:WaterMeter:MC0203J22010600005","2023-09-02T20:00:00",24.399,28.247007,0.214],
    [8175,"urn:WaterMeter:MC0203J22010600005","2023-09-02T20:15:00",24.1,28.290491,0.217],
    [8176,"urn:WaterMeter:MC0203J22010600005","2023-09-02T20:30:00",23.899,28.295881,0.21],
    [8177,"urn:WaterMeter:MC0203J22010600005","2023-09-02T20:45:00",23.799,28.297047,0.22],
    [8178,"urn:WaterMeter:MC0203J22010600005","2023-09-02T21:00:00",23.7,28.341694,0.22],
    [8179,"urn:WaterMeter:MC0203J22010600005","2023-09-02T21:15:00",23.7,28.407248,0.214],
    [8180,"urn:WaterMeter:MC0203J22010600005","2023-09-02T21:30:00",23.6,28.422726,0.214],
    [8181,"urn:WaterMeter:MC0203J22010600005","2023-09-02T21:45:00",23.6,28.48444,0.223],
    [8182,"urn:WaterMeter:MC0203J22010600005","2023-09-02T22:00:00",23.6,28.795923,0.231],
    [8183,"urn:WaterMeter:MC0203J22010600005","2023-09-02T22:15:00",23.399,29.857567,0.251],
    [8184,"urn:WaterMeter:MC0203J22010600005","2023-09-02T22:30:00",23.5,30.887093,0.271],
    [8185,"urn:WaterMeter:MC0203J22010600005","2023-09-02T22:45:00",23.399,35.894108,0.339],
    [8186,"urn:WaterMeter:MC0203J22010600005","2023-09-02T23:00:00",23,41.766098,0.325],
    [8187,"urn:WaterMeter:MC0203J22010600005","2023-09-02T23:15:00",22.7,42.549694,0.336],
    [8188,"urn:WaterMeter:MC0203J22010600005","2023-09-02T23:30:00",22.299,42.51944,0.352],
    [8189,"urn:WaterMeter:MC0203J22010600005","2023-09-02T23:45:00",22.1,42.706757,0.328],
    [8190,"urn:WaterMeter:MC0203J22010600005","2023-09-03T00:00:00",22.2,42.848766,0.303],
    [8191,"urn:WaterMeter:MC0203J22010600005","2023-09-03T00:15:00",22.1,42.93449,0.29],
    [8192,"urn:WaterMeter:MC0203J22010600005","2023-09-03T00:30:00",22.1,43.168007,0.286],
    [8193,"urn:WaterMeter:MC0203J22010600005","2023-09-03T00:45:00",22.1,42.72231,0.269],
    [8194,"urn:WaterMeter:MC0203J22010600005","2023-09-03T01:00:00",22,42.117188,0.261],
    [8195,"urn:WaterMeter:MC0203J22010600005","2023-09-03T01:15:00",21.899,41.726532,0.248],
    [8196,"urn:WaterMeter:MC0203J22010600005","2023-09-03T01:30:00",21.899,41.353798,0.248],
    [8197,"urn:WaterMeter:MC0203J22010600005","2023-09-03T01:45:00",21.899,40.267677,0.263],
    [8198,"urn:WaterMeter:MC0203J22010600005","2023-09-03T02:00:00",21.899,39.159836,0.244],
    [8199,"urn:WaterMeter:MC0203J22010600005","2023-09-03T02:15:00",21.899,38.494976,0.231],
    [8200,"urn:WaterMeter:MC0203J22010600005","2023-09-03T02:30:00",21.899,36.64349,0.234],
    [8201,"urn:WaterMeter:MC0203J22010600005","2023-09-03T02:45:00",21.899,35.5737,0.222],
    [8202,"urn:WaterMeter:MC0203J22010600005","2023-09-03T03:00:00",21.899,35.0512,0.22],
    [8203,"urn:WaterMeter:MC0203J22010600005","2023-09-03T03:15:00",21.799,34.806824,0.217],
    [8204,"urn:WaterMeter:MC0203J22010600005","2023-09-03T03:30:00",21.799,34.662136,0.211],
    [8205,"urn:WaterMeter:MC0203J22010600005","2023-09-03T03:45:00",21.799,34.56322,0.213],
    [8206,"urn:WaterMeter:MC0203J22010600005","2023-09-03T04:00:00",21.799,34.484867,0.213],
    [8207,"urn:WaterMeter:MC0203J22010600005","2023-09-03T04:15:00",20.899,38.87508,0.243],
    [8208,"urn:WaterMeter:MC0203J22010600005","2023-09-03T04:30:00",20.6,38.98253,0.235],
    [8209,"urn:WaterMeter:MC0203J22010600005","2023-09-03T04:45:00",20.5,39.10743,0.252],
    [8210,"urn:WaterMeter:MC0203J22010600005","2023-09-03T05:00:00",20.5,39.14622,0.244],
    [8211,"urn:WaterMeter:MC0203J22010600005","2023-09-03T05:15:00",20.5,39.202118,0.242],
    [8212,"urn:WaterMeter:MC0203J22010600005","2023-09-03T05:30:00",20.5,39.351807,0.241],
    [8213,"urn:WaterMeter:MC0203J22010600005","2023-09-03T05:45:00",20.5,39.09816,0.241],
    [8214,"urn:WaterMeter:MC0203J22010600005","2023-09-03T06:00:00",20.5,39.06864,0.23],
    [8215,"urn:WaterMeter:MC0203J22010600005","2023-09-03T06:15:00",20.6,38.713364,0.229],
    [8216,"urn:WaterMeter:MC0203J22010600005","2023-09-03T06:30:00",20.6,38.574844,0.232],
    [8217,"urn:WaterMeter:MC0203J22010600005","2023-09-03T06:45:00",20.6,38.04695,0.22],
    [8218,"urn:WaterMeter:MC0203J22010600005","2023-09-03T07:00:00",20.5,37.43209,0.218],
    [8219,"urn:WaterMeter:MC0203J22010600005","2023-09-03T07:15:00",20.399,37.17879,0.222],
    [8220,"urn:WaterMeter:MC0203J22010600005","2023-09-03T07:30:00",20.399,36.83399,0.217],
    [8221,"urn:WaterMeter:MC0203J22010600005","2023-09-03T07:45:00",20.299,35.983673,0.217],
    [8222,"urn:WaterMeter:MC0203J22010600005","2023-09-03T08:00:00",20.299,35.486813,0.207],
    [8223,"urn:WaterMeter:MC0203J22010600005","2023-09-03T08:15:00",20.399,35.234676,0.203],
    [8224,"urn:WaterMeter:MC0203J22010600005","2023-09-03T08:30:00",20.399,34.909187,0.201],
    [8225,"urn:WaterMeter:MC0203J22010600005","2023-09-03T08:45:00",20.299,34.745495,0.201],
    [8226,"urn:WaterMeter:MC0203J22010600005","2023-09-03T09:00:00",20.399,34.52905,0.194],
    [8227,"urn:WaterMeter:MC0203J22010600005","2023-09-03T09:15:00",20.5,34.39875,0.203],
    [8228,"urn:WaterMeter:MC0203J22010600005","2023-09-03T09:30:00",20.5,34.23851,0.196],
    [8229,"urn:WaterMeter:MC0203J22010600005","2023-09-03T09:45:00",20.7,34.13886,0.208],
    [8230,"urn:WaterMeter:MC0203J22010600005","2023-09-03T10:00:00",21,34.06283,0.207],
    [8231,"urn:WaterMeter:MC0203J22010600005","2023-09-03T10:15:00",21.1,33.93521,0.204],
    [8232,"urn:WaterMeter:MC0203J22010600005","2023-09-03T10:30:00",21.2,33.835907,0.208],
    [8233,"urn:WaterMeter:MC0203J22010600005","2023-09-03T10:45:00",21.399,33.690445,0.199],
    [8234,"urn:WaterMeter:MC0203J22010600005","2023-09-03T11:00:00",21.7,33.680363,0.198],
    [8235,"urn:WaterMeter:MC0203J22010600005","2023-09-03T11:15:00",22,33.556232,0.214],
    [8236,"urn:WaterMeter:MC0203J22010600005","2023-09-03T11:30:00",22.399,33.467793,0.193],
    [8237,"urn:WaterMeter:MC0203J22010600005","2023-09-03T11:45:00",22.6,33.349056,0.198],
    [8238,"urn:WaterMeter:MC0203J22010600005","2023-09-03T12:00:00",22.799,33.256386,0.196],
    [8239,"urn:WaterMeter:MC0203J22010600005","2023-09-03T12:15:00",23.1,33.14118,0.192],
    [8240,"urn:WaterMeter:MC0203J22010600005","2023-09-03T12:30:00",23.399,33.090366,0.193],
    [8241,"urn:WaterMeter:MC0203J22010600005","2023-09-03T12:45:00",23.799,32.981365,0.195],
    [8242,"urn:WaterMeter:MC0203J22010600005","2023-09-03T13:00:00",23.899,32.858402,0.19],
    [8243,"urn:WaterMeter:MC0203J22010600005","2023-09-03T13:15:00",24.1,32.75712,0.19],
    [8244,"urn:WaterMeter:MC0203J22010600005","2023-09-03T13:30:00",24.299,32.672207,0.192],
    [8245,"urn:WaterMeter:MC0203J22010600005","2023-09-03T13:45:00",24.299,32.62256,0.189],
    [8246,"urn:WaterMeter:MC0203J22010600005","2023-09-03T14:00:00",24.399,32.530624,0.2],
    [8247,"urn:WaterMeter:MC0203J22010600005","2023-09-03T14:15:00",24.399,32.46119,0.199],
    [8248,"urn:WaterMeter:MC0203J22010600005","2023-09-03T14:30:00",24.399,32.38749,0.187],
    [8249,"urn:WaterMeter:MC0203J22010600005","2023-09-03T14:45:00",24.5,32.35797,0.192],
    [8250,"urn:WaterMeter:MC0203J22010600005","2023-09-03T15:00:00",24.5,32.30095,0.19],
    [8251,"urn:WaterMeter:MC0203J22010600005","2023-09-03T15:15:00",24.5,32.203976,0.187],
    [8252,"urn:WaterMeter:MC0203J22010600005","2023-09-03T15:30:00",24.6,32.17337,0.191],
    [8253,"urn:WaterMeter:MC0203J22010600005","2023-09-03T15:45:00",24.6,32.106613,0.192],
    [8254,"urn:WaterMeter:MC0203J22010600005","2023-09-03T16:00:00",24.6,32.000713,0.186],
    [8255,"urn:WaterMeter:MC0203J22010600005","2023-09-03T16:15:00",24.6,32.037216,0.197],
    [8256,"urn:WaterMeter:MC0203J22010600005","2023-09-03T16:30:00",24.5,31.95537,0.19],
    [8257,"urn:WaterMeter:MC0203J22010600005","2023-09-03T16:45:00",24.5,31.950676,0.19],
    [8258,"urn:WaterMeter:MC0203J22010600005","2023-09-03T17:00:00",24.399,31.922747,0.194],
    [8259,"urn:WaterMeter:MC0203J22010600005","2023-09-03T17:15:00",24.399,31.87585,0.185],
    [8260,"urn:WaterMeter:MC0203J22010600005","2023-09-03T17:30:00",24.399,31.83706,0.19],
    [8261,"urn:WaterMeter:MC0203J22010600005","2023-09-03T17:45:00",24.399,31.811846,0.187],
    [8262,"urn:WaterMeter:MC0203J22010600005","2023-09-03T18:00:00",24.399,31.815687,0.191],
    [8263,"urn:WaterMeter:MC0203J22010600005","2023-09-03T18:15:00",24.299,31.757114,0.196],
    [8264,"urn:WaterMeter:MC0203J22010600005","2023-09-03T18:30:00",24.299,31.758278,0.192],
    [8265,"urn:WaterMeter:MC0203J22010600005","2023-09-03T18:45:00",24.299,31.698929,0.188],
    [8266,"urn:WaterMeter:MC0203J22010600005","2023-09-03T19:00:00",24.299,31.693924,0.189],
    [8267,"urn:WaterMeter:MC0203J22010600005","2023-09-03T19:15:00",24.299,31.70207,0.191],
    [8268,"urn:WaterMeter:MC0203J22010600005","2023-09-03T19:30:00",24.299,31.6819,0.197],
    [8269,"urn:WaterMeter:MC0203J22010600005","2023-09-03T19:45:00",24.299,31.598501,0.19],
    [8270,"urn:WaterMeter:MC0203J22010600005","2023-09-03T20:00:00",24.299,31.608198,0.197],
    [8271,"urn:WaterMeter:MC0203J22010600005","2023-09-03T20:15:00",24.299,31.58217,0.19],
    [8272,"urn:WaterMeter:MC0203J22010600005","2023-09-03T20:30:00",24.299,31.586864,0.194],
    [8273,"urn:WaterMeter:MC0203J22010600005","2023-09-03T20:45:00",24.299,31.583334,0.191],
    [8274,"urn:WaterMeter:MC0203J22010600005","2023-09-03T21:00:00",24.399,31.527515,0.188],
    [8275,"urn:WaterMeter:MC0203J22010600005","2023-09-03T21:15:00",24.399,31.48442,0.186],
    [8276,"urn:WaterMeter:MC0203J22010600005","2023-09-03T21:30:00",24.399,31.517818,0.188],
    [8277,"urn:WaterMeter:MC0203J22010600005","2023-09-03T21:45:00",24.399,31.50269,0.191],
    [8278,"urn:WaterMeter:MC0203J22010600005","2023-09-03T22:00:00",24.299,31.474373,0.195],
    [8279,"urn:WaterMeter:MC0203J22010600005","2023-09-03T22:15:00",24.399,31.445242,0.192],
    [8280,"urn:WaterMeter:MC0203J22010600005","2023-09-03T22:30:00",24.399,31.451487,0.194],
    [8281,"urn:WaterMeter:MC0203J22010600005","2023-09-03T22:45:00",24.299,31.396017,0.188],
    [8282,"urn:WaterMeter:MC0203J22010600005","2023-09-03T23:00:00",24.299,31.39016,0.186],
    [8283,"urn:WaterMeter:MC0203J22010600005","2023-09-03T23:15:00",24.299,31.393303,0.197],
    [8284,"urn:WaterMeter:MC0203J22010600005","2023-09-03T23:30:00",24.299,31.405716,0.2],
    [8285,"urn:WaterMeter:MC0203J22010600005","2023-09-03T23:45:00",24.299,31.380075,0.188],
    [8286,"urn:WaterMeter:MC0203J22010600005","2023-09-04T00:00:00",24.299,31.363047,0.189],
    [8287,"urn:WaterMeter:MC0203J22010600005","2023-09-04T00:15:00",24.2,31.333567,0.198],
    [8288,"urn:WaterMeter:MC0203J22010600005","2023-09-04T00:30:00",24.2,31.34365,0.191],
    [8289,"urn:WaterMeter:MC0203J22010600005","2023-09-04T00:45:00",24.2,31.31611,0.197],
    [8290,"urn:WaterMeter:MC0203J22010600005","2023-09-04T01:00:00",24.1,31.311804,0.194],
    [8291,"urn:WaterMeter:MC0203J22010600005","2023-09-04T01:15:00",24.1,31.285078,0.198],
    [8292,"urn:WaterMeter:MC0203J22010600005","2023-09-04T01:30:00",24.1,31.27185,0.19],
    [8293,"urn:WaterMeter:MC0203J22010600005","2023-09-04T01:45:00",24,31.297104,0.191],
    [8294,"urn:WaterMeter:MC0203J22010600005","2023-09-04T02:00:00",24,31.296715,0.187],
    [8295,"urn:WaterMeter:MC0203J22010600005","2023-09-04T02:15:00",24,31.271463,0.197],
    [8296,"urn:WaterMeter:MC0203J22010600005","2023-09-04T02:30:00",23.899,31.277708,0.201],
    [8297,"urn:WaterMeter:MC0203J22010600005","2023-09-04T02:45:00",23.899,31.262192,0.193],
    [8298,"urn:WaterMeter:MC0203J22010600005","2023-09-04T03:00:00",23.899,31.19237,0.2],
    [8299,"urn:WaterMeter:MC0203J22010600005","2023-09-04T03:15:00",24,31.243534,0.194],
    [8300,"urn:WaterMeter:MC0203J22010600005","2023-09-04T03:30:00",23.899,31.200129,0.199],
    [8301,"urn:WaterMeter:MC0203J22010600005","2023-09-04T03:45:00",24,31.229221,0.19],
    [8302,"urn:WaterMeter:MC0203J22010600005","2023-09-04T04:00:00",23.899,31.173712,0.188],
    [8303,"urn:WaterMeter:MC0203J22010600005","2023-09-04T04:15:00",23.899,31.137638,0.192],
    [8304,"urn:WaterMeter:MC0203J22010600005","2023-09-04T04:30:00",24,31.164053,0.204],
    [8305,"urn:WaterMeter:MC0203J22010600005","2023-09-04T04:45:00",23.899,31.145433,0.188],
    [8306,"urn:WaterMeter:MC0203J22010600005","2023-09-04T05:00:00",24,31.156258,0.187],
    [8307,"urn:WaterMeter:MC0203J22010600005","2023-09-04T05:15:00",24,31.190819,0.191],
    [8308,"urn:WaterMeter:MC0203J22010600005","2023-09-04T05:30:00",24.1,31.52321,0.197],
    [8309,"urn:WaterMeter:MC0203J22010600005","2023-09-04T05:45:00",24.1,32.24199,0.205],
    [8310,"urn:WaterMeter:MC0203J22010600005","2023-09-04T06:00:00",24.1,33.358753,0.212],
    [8311,"urn:WaterMeter:MC0203J22010600005","2023-09-04T06:15:00",24.2,34.170277,0.22],
    [8312,"urn:WaterMeter:MC0203J22010600005","2023-09-04T06:30:00",24.2,34.773075,0.22],
    [8313,"urn:WaterMeter:MC0203J22010600005","2023-09-04T06:45:00",24.299,35.150463,0.23],
    [8314,"urn:WaterMeter:MC0203J22010600005","2023-09-04T07:00:00",24.399,35.435608,0.23],
    [8315,"urn:WaterMeter:MC0203J22010600005","2023-09-04T07:15:00",24.5,35.613266,0.231],
    [8316,"urn:WaterMeter:MC0203J22010600005","2023-09-04T07:30:00",24.6,35.7308,0.232],
    [8317,"urn:WaterMeter:MC0203J22010600005","2023-09-04T07:45:00",24.7,35.824673,0.23],
    [8318,"urn:WaterMeter:MC0203J22010600005","2023-09-04T08:00:00",24.799,35.86191,0.233],
    [8319,"urn:WaterMeter:MC0203J22010600005","2023-09-04T08:15:00",24.899,35.268383,0.23],
    [8320,"urn:WaterMeter:MC0203J22010600005","2023-09-04T08:30:00",25.1,34.414616,0.22],
    [8321,"urn:WaterMeter:MC0203J22010600005","2023-09-04T08:45:00",25.2,34.11636,0.223],
    [8322,"urn:WaterMeter:MC0203J22010600005","2023-09-04T09:00:00",25.399,33.795956,0.221],
    [8323,"urn:WaterMeter:MC0203J22010600005","2023-09-04T09:15:00",25.5,33.609375,0.21],
    [8324,"urn:WaterMeter:MC0203J22010600005","2023-09-04T09:30:00",25.6,33.49452,0.212],
    [8325,"urn:WaterMeter:MC0203J22010600005","2023-09-04T09:45:00",25.7,33.271088,0.22],
    [8326,"urn:WaterMeter:MC0203J22010600005","2023-09-04T10:00:00",25.899,33.190056,0.224],
    [8327,"urn:WaterMeter:MC0203J22010600005","2023-09-04T10:15:00",26,33.03835,0.216],
    [8328,"urn:WaterMeter:MC0203J22010600005","2023-09-04T10:30:00",26.1,32.99762,0.211],
    [8329,"urn:WaterMeter:MC0203J22010600005","2023-09-04T10:45:00",26.299,32.84948,0.219],
    [8330,"urn:WaterMeter:MC0203J22010600005","2023-09-04T11:00:00",26.299,32.741257,0.226],
    [8331,"urn:WaterMeter:MC0203J22010600005","2023-09-04T11:15:00",26.6,32.68307,0.206],
    [8332,"urn:WaterMeter:MC0203J22010600005","2023-09-04T11:30:00",26.799,32.532524,0.205],
    [8333,"urn:WaterMeter:MC0203J22010600005","2023-09-04T11:45:00",27,32.45378,0.206],
    [8334,"urn:WaterMeter:MC0203J22010600005","2023-09-04T12:00:00",27,32.366932,0.2],
    [8335,"urn:WaterMeter:MC0203J22010600005","2023-09-04T12:15:00",27.1,32.332798,0.202],
    [8336,"urn:WaterMeter:MC0203J22010600005","2023-09-04T12:30:00",27.299,32.19354,0.206],
    [8337,"urn:WaterMeter:MC0203J22010600005","2023-09-04T12:45:00",27.399,32.100056,0.203],
    [8338,"urn:WaterMeter:MC0203J22010600005","2023-09-04T13:00:00",27.5,31.970072,0.211],
    [8339,"urn:WaterMeter:MC0203J22010600005","2023-09-04T13:15:00",27.5,31.941404,0.204],
    [8340,"urn:WaterMeter:MC0203J22010600005","2023-09-04T13:30:00",27.5,31.850248,0.211],
    [8341,"urn:WaterMeter:MC0203J22010600005","2023-09-04T13:45:00",27.6,31.789349,0.202],
    [8342,"urn:WaterMeter:MC0203J22010600005","2023-09-04T14:00:00",27.6,31.6691,0.197],
    [8343,"urn:WaterMeter:MC0203J22010600005","2023-09-04T14:15:00",27.6,31.63574,0.204],
    [8344,"urn:WaterMeter:MC0203J22010600005","2023-09-04T14:30:00",27.6,31.549238,0.2],
    [8345,"urn:WaterMeter:MC0203J22010600005","2023-09-04T14:45:00",27.7,31.47127,0.2],
    [8346,"urn:WaterMeter:MC0203J22010600005","2023-09-04T15:00:00",27.6,31.386707,0.198],
    [8347,"urn:WaterMeter:MC0203J22010600005","2023-09-04T15:15:00",27.7,31.350983,0.195],
    [8348,"urn:WaterMeter:MC0203J22010600005","2023-09-04T15:30:00",27.7,31.27185,0.2],
    [8349,"urn:WaterMeter:MC0203J22010600005","2023-09-04T15:45:00",27.7,31.230385,0.193],
    [8350,"urn:WaterMeter:MC0203J22010600005","2023-09-04T16:00:00",27.6,31.166342,0.199],
    [8351,"urn:WaterMeter:MC0203J22010600005","2023-09-04T16:15:00",27.6,31.104704,0.191],
    [8352,"urn:WaterMeter:MC0203J22010600005","2023-09-04T16:30:00",27.5,31.086086,0.192],
    [8353,"urn:WaterMeter:MC0203J22010600005","2023-09-04T16:45:00",27.299,31.030966,0.191],
    [8354,"urn:WaterMeter:MC0203J22010600005","2023-09-04T17:00:00",27.2,30.99105,0.203],
    [8355,"urn:WaterMeter:MC0203J22010600005","2023-09-04T17:15:00",27.1,30.970879,0.201],
    [8356,"urn:WaterMeter:MC0203J22010600005","2023-09-04T17:30:00",26.899,30.933601,0.199],
    [8357,"urn:WaterMeter:MC0203J22010600005","2023-09-04T17:45:00",26.799,30.908428,0.198],
    [8358,"urn:WaterMeter:MC0203J22010600005","2023-09-04T18:00:00",26.7,30.915798,0.201],
    [8359,"urn:WaterMeter:MC0203J22010600005","2023-09-04T18:15:00",26.6,30.876192,0.19],
    [8360,"urn:WaterMeter:MC0203J22010600005","2023-09-04T18:30:00",26.5,30.887482,0.197],
    [8361,"urn:WaterMeter:MC0203J22010600005","2023-09-04T18:45:00",26.399,30.85063,0.197],
    [8362,"urn:WaterMeter:MC0203J22010600005","2023-09-04T19:00:00",26.299,30.877396,0.2],
    [8363,"urn:WaterMeter:MC0203J22010600005","2023-09-04T19:15:00",26.1,30.823866,0.196],
    [8364,"urn:WaterMeter:MC0203J22010600005","2023-09-04T19:30:00",26,30.87856,0.19],
    [8365,"urn:WaterMeter:MC0203J22010600005","2023-09-04T19:45:00",26,30.850243,0.194],
    [8366,"urn:WaterMeter:MC0203J22010600005","2023-09-04T20:00:00",25.899,30.85994,0.191],
    [8367,"urn:WaterMeter:MC0203J22010600005","2023-09-04T20:15:00",25.799,30.814167,0.191],
    [8368,"urn:WaterMeter:MC0203J22010600005","2023-09-04T20:30:00",25.799,30.811064,0.193],
    [8369,"urn:WaterMeter:MC0203J22010600005","2023-09-04T20:45:00",25.799,30.816845,0.202],
    [8370,"urn:WaterMeter:MC0203J22010600005","2023-09-04T21:00:00",25.7,30.823866,0.202],
    [8371,"urn:WaterMeter:MC0203J22010600005","2023-09-04T21:15:00",25.7,30.796324,0.19],
    [8372,"urn:WaterMeter:MC0203J22010600005","2023-09-04T21:30:00",25.6,30.766417,0.198],
    [8373,"urn:WaterMeter:MC0203J22010600005","2023-09-04T21:45:00",25.6,30.761414,0.189],
    [8374,"urn:WaterMeter:MC0203J22010600005","2023-09-04T22:00:00",25.6,30.731934,0.195],
    [8375,"urn:WaterMeter:MC0203J22010600005","2023-09-04T22:15:00",25.5,30.777704,0.197],
    [8376,"urn:WaterMeter:MC0203J22010600005","2023-09-04T22:30:00",25.5,30.738527,0.192],
    [8377,"urn:WaterMeter:MC0203J22010600005","2023-09-04T22:45:00",25.5,30.777317,0.194],
    [8378,"urn:WaterMeter:MC0203J22010600005","2023-09-04T23:00:00",25.399,30.733097,0.192],
    [8379,"urn:WaterMeter:MC0203J22010600005","2023-09-04T23:15:00",25.5,30.741243,0.2],
    [8380,"urn:WaterMeter:MC0203J22010600005","2023-09-04T23:30:00",25.5,30.745121,0.192],
    [8381,"urn:WaterMeter:MC0203J22010600005","2023-09-04T23:45:00",25.5,30.76952,0.2],
    [8382,"urn:WaterMeter:MC0203J22010600005","2023-09-05T00:00:00",25.399,30.704391,0.193],
    [8383,"urn:WaterMeter:MC0203J22010600005","2023-09-05T00:15:00",25.399,30.72142,0.193],
    [8384,"urn:WaterMeter:MC0203J22010600005","2023-09-05T00:30:00",25.399,30.69547,0.196],
    [8385,"urn:WaterMeter:MC0203J22010600005","2023-09-05T00:45:00",25.399,30.652374,0.195],
    [8386,"urn:WaterMeter:MC0203J22010600005","2023-09-05T01:00:00",25.299,30.700125,0.187],
    [8387,"urn:WaterMeter:MC0203J22010600005","2023-09-05T01:15:00",25.2,30.683058,0.195],
    [8388,"urn:WaterMeter:MC0203J22010600005","2023-09-05T01:30:00",25.2,30.648922,0.192],
    [8389,"urn:WaterMeter:MC0203J22010600005","2023-09-05T01:45:00",25.1,30.659784,0.193],
    [8390,"urn:WaterMeter:MC0203J22010600005","2023-09-05T02:00:00",25,30.638838,0.191],
    [8391,"urn:WaterMeter:MC0203J22010600005","2023-09-05T02:15:00",24.899,30.620993,0.193],
    [8392,"urn:WaterMeter:MC0203J22010600005","2023-09-05T02:30:00",24.799,30.643064,0.188],
    [8393,"urn:WaterMeter:MC0203J22010600005","2023-09-05T02:45:00",24.799,30.644268,0.19],
    [8394,"urn:WaterMeter:MC0203J22010600005","2023-09-05T03:00:00",24.7,30.660172,0.191],
    [8395,"urn:WaterMeter:MC0203J22010600005","2023-09-05T03:15:00",24.6,30.660172,0.194],
    [8396,"urn:WaterMeter:MC0203J22010600005","2023-09-05T03:30:00",24.6,30.622158,0.186],
    [8397,"urn:WaterMeter:MC0203J22010600005","2023-09-05T03:45:00",24.5,30.681854,0.188],
    [8398,"urn:WaterMeter:MC0203J22010600005","2023-09-05T04:00:00",24.399,30.618279,0.187],
    [8399,"urn:WaterMeter:MC0203J22010600005","2023-09-05T04:15:00",24.399,30.660948,0.193],
    [8400,"urn:WaterMeter:MC0203J22010600005","2023-09-05T04:30:00",24.299,30.578325,0.193],
    [8401,"urn:WaterMeter:MC0203J22010600005","2023-09-05T04:45:00",24.2,30.635345,0.192],
    [8402,"urn:WaterMeter:MC0203J22010600005","2023-09-05T05:00:00",24.2,30.596169,0.191],
    [8403,"urn:WaterMeter:MC0203J22010600005","2023-09-05T05:15:00",24.2,30.631428,0.19],
    [8404,"urn:WaterMeter:MC0203J22010600005","2023-09-05T05:30:00",24.1,30.933601,0.21],
    [8405,"urn:WaterMeter:MC0203J22010600005","2023-09-05T05:45:00",24.1,31.656687,0.21],
    [8406,"urn:WaterMeter:MC0203J22010600005","2023-09-05T06:00:00",24.1,32.627987,0.211],
    [8407,"urn:WaterMeter:MC0203J22010600005","2023-09-05T06:15:00",24.1,33.456932,0.234],
    [8408,"urn:WaterMeter:MC0203J22010600005","2023-09-05T06:30:00",24.1,33.971287,0.226],
    [8409,"urn:WaterMeter:MC0203J22010600005","2023-09-05T06:45:00",24.1,34.34018,0.237],
    [8410,"urn:WaterMeter:MC0203J22010600005","2023-09-05T07:00:00",24.1,34.591537,0.242],
    [8411,"urn:WaterMeter:MC0203J22010600005","2023-09-05T07:15:00",24.2,34.766094,0.228],
    [8412,"urn:WaterMeter:MC0203J22010600005","2023-09-05T07:30:00",24.399,34.92319,0.231],
    [8413,"urn:WaterMeter:MC0203J22010600005","2023-09-05T07:45:00",24.6,35.0415,0.236],
    [8414,"urn:WaterMeter:MC0203J22010600005","2023-09-05T08:00:00",24.799,35.155544,0.237],
    [8415,"urn:WaterMeter:MC0203J22010600005","2023-09-05T08:15:00",25.1,34.361126,0.225],
    [8416,"urn:WaterMeter:MC0203J22010600005","2023-09-05T08:30:00",25.299,33.84324,0.22],
    [8417,"urn:WaterMeter:MC0203J22010600005","2023-09-05T08:45:00",25.5,33.548473,0.218],
    [8418,"urn:WaterMeter:MC0203J22010600005","2023-09-05T09:00:00",25.6,33.358753,0.217],
    [8419,"urn:WaterMeter:MC0203J22010600005","2023-09-05T09:15:00",25.7,33.196262,0.215],
    [8420,"urn:WaterMeter:MC0203J22010600005","2023-09-05T09:30:00",25.899,33.05972,0.228],
    [8421,"urn:WaterMeter:MC0203J22010600005","2023-09-05T09:45:00",26.1,32.938656,0.214],
    [8422,"urn:WaterMeter:MC0203J22010600005","2023-09-05T10:00:00",26.2,32.829697,0.21],
    [8423,"urn:WaterMeter:MC0203J22010600005","2023-09-05T10:15:00",26.299,32.73466,0.227],
    [8424,"urn:WaterMeter:MC0203J22010600005","2023-09-05T10:30:00",26.399,32.653976,0.212],
    [8425,"urn:WaterMeter:MC0203J22010600005","2023-09-05T10:45:00",26.6,32.547306,0.211],
    [8426,"urn:WaterMeter:MC0203J22010600005","2023-09-05T11:00:00",26.799,32.4321,0.21],
    [8427,"urn:WaterMeter:MC0203J22010600005","2023-09-05T11:15:00",27,32.33974,0.208],
    [8428,"urn:WaterMeter:MC0203J22010600005","2023-09-05T11:30:00",27.2,32.28272,0.206],
    [8429,"urn:WaterMeter:MC0203J22010600005","2023-09-05T11:45:00",27.399,32.185356,0.22],
    [8430,"urn:WaterMeter:MC0203J22010600005","2023-09-05T12:00:00",27.6,32.11631,0.214],
    [8431,"urn:WaterMeter:MC0203J22010600005","2023-09-05T12:15:00",27.7,32.008472,0.21],
    [8432,"urn:WaterMeter:MC0203J22010600005","2023-09-05T12:30:00",27.7,31.9627,0.206],
    [8433,"urn:WaterMeter:MC0203J22010600005","2023-09-05T12:45:00",27.7,31.802536,0.212],
    [8434,"urn:WaterMeter:MC0203J22010600005","2023-09-05T13:00:00",27.799,31.729961,0.206],
    [8435,"urn:WaterMeter:MC0203J22010600005","2023-09-05T13:15:00",28,31.653196,0.212],
    [8436,"urn:WaterMeter:MC0203J22010600005","2023-09-05T13:30:00",28,31.584497,0.201],
    [8437,"urn:WaterMeter:MC0203J22010600005","2023-09-05T13:45:00",27.899,31.526314,0.218],
    [8438,"urn:WaterMeter:MC0203J22010600005","2023-09-05T14:00:00",27.899,31.431704,0.204],
    [8439,"urn:WaterMeter:MC0203J22010600005","2023-09-05T14:15:00",27.899,31.338608,0.2],
    [8440,"urn:WaterMeter:MC0203J22010600005","2023-09-05T14:30:00",28,31.278872,0.201],
    [8441,"urn:WaterMeter:MC0203J22010600005","2023-09-05T14:45:00",28,31.202068,0.21],
    [8442,"urn:WaterMeter:MC0203J22010600005","2023-09-05T15:00:00",27.899,31.145046,0.197],
    [8443,"urn:WaterMeter:MC0203J22010600005","2023-09-05T15:15:00",27.899,31.0395,0.201],
    [8444,"urn:WaterMeter:MC0203J22010600005","2023-09-05T15:30:00",27.899,30.996094,0.199],
    [8445,"urn:WaterMeter:MC0203J22010600005","2023-09-05T15:45:00",27.899,30.939459,0.196],
    [8446,"urn:WaterMeter:MC0203J22010600005","2023-09-05T16:00:00",27.899,30.918125,0.205],
    [8447,"urn:WaterMeter:MC0203J22010600005","2023-09-05T16:15:00",28,30.851793,0.194],
    [8448,"urn:WaterMeter:MC0203J22010600005","2023-09-05T16:30:00",27.899,30.80098,0.202],
    [8449,"urn:WaterMeter:MC0203J22010600005","2023-09-05T16:45:00",27.899,30.788528,0.199],
    [8450,"urn:WaterMeter:MC0203J22010600005","2023-09-05T17:00:00",27.799,30.752104,0.199],
    [8451,"urn:WaterMeter:MC0203J22010600005","2023-09-05T17:15:00",27.7,30.693144,0.202],
    [8452,"urn:WaterMeter:MC0203J22010600005","2023-09-05T17:30:00",27.5,30.687325,0.199],
    [8453,"urn:WaterMeter:MC0203J22010600005","2023-09-05T17:45:00",27.399,30.68263,0.194],
    [8454,"urn:WaterMeter:MC0203J22010600005","2023-09-05T18:00:00",27.299,30.661684,0.191],
    [8455,"urn:WaterMeter:MC0203J22010600005","2023-09-05T18:15:00",27.2,30.650047,0.212],
    [8456,"urn:WaterMeter:MC0203J22010600005","2023-09-05T18:30:00",27.1,30.634958,0.196],
    [8457,"urn:WaterMeter:MC0203J22010600005","2023-09-05T18:45:00",27,30.65315,0.193],
    [8458,"urn:WaterMeter:MC0203J22010600005","2023-09-05T19:00:00",26.899,30.6272,0.201],
    [8459,"urn:WaterMeter:MC0203J22010600005","2023-09-05T19:15:00",26.799,30.647758,0.196],
    [8460,"urn:WaterMeter:MC0203J22010600005","2023-09-05T19:30:00",26.7,30.62367,0.194],
    [8461,"urn:WaterMeter:MC0203J22010600005","2023-09-05T19:45:00",26.6,30.602375,0.194],
    [8462,"urn:WaterMeter:MC0203J22010600005","2023-09-05T20:00:00",26.6,30.609745,0.194],
    [8463,"urn:WaterMeter:MC0203J22010600005","2023-09-05T20:15:00",26.5,30.586859,0.194],
    [8464,"urn:WaterMeter:MC0203J22010600005","2023-09-05T20:30:00",26.5,30.576773,0.213],
    [8465,"urn:WaterMeter:MC0203J22010600005","2023-09-05T20:45:00",26.399,30.56242,0.196],
    [8466,"urn:WaterMeter:MC0203J22010600005","2023-09-05T21:00:00",26.399,30.565098,0.203],
    [8467,"urn:WaterMeter:MC0203J22010600005","2023-09-05T21:15:00",26.399,30.516998,0.193],
    [8468,"urn:WaterMeter:MC0203J22010600005","2023-09-05T21:30:00",26.299,30.509666,0.198],
    [8469,"urn:WaterMeter:MC0203J22010600005","2023-09-05T21:45:00",26.299,30.511606,0.194],
    [8470,"urn:WaterMeter:MC0203J22010600005","2023-09-05T22:00:00",26.299,30.506525,0.2],
    [8471,"urn:WaterMeter:MC0203J22010600005","2023-09-05T22:15:00",26.2,30.50346,0.196],
    [8472,"urn:WaterMeter:MC0203J22010600005","2023-09-05T22:30:00",26.2,30.535229,0.202],
    [8473,"urn:WaterMeter:MC0203J22010600005","2023-09-05T22:45:00",26.1,30.502684,0.205],
    [8474,"urn:WaterMeter:MC0203J22010600005","2023-09-05T23:00:00",26.1,30.474754,0.191],
    [8475,"urn:WaterMeter:MC0203J22010600005","2023-09-05T23:15:00",26,30.48678,0.2],
    [8476,"urn:WaterMeter:MC0203J22010600005","2023-09-05T23:30:00",26,30.48678,0.195],
    [8477,"urn:WaterMeter:MC0203J22010600005","2023-09-05T23:45:00",25.899,30.463118,0.195],
    [8478,"urn:WaterMeter:MC0203J22010600005","2023-09-06T00:00:00",25.899,30.458036,0.203],
    [8479,"urn:WaterMeter:MC0203J22010600005","2023-09-06T00:15:00",25.799,30.445274,0.2],
    [8480,"urn:WaterMeter:MC0203J22010600005","2023-09-06T00:30:00",25.799,30.42972,0.194],
    [8481,"urn:WaterMeter:MC0203J22010600005","2023-09-06T00:45:00",25.799,30.397175,0.194],
    [8482,"urn:WaterMeter:MC0203J22010600005","2023-09-06T01:00:00",25.7,30.44411,0.192],
    [8483,"urn:WaterMeter:MC0203J22010600005","2023-09-06T01:15:00",25.7,30.426268,0.197],
    [8484,"urn:WaterMeter:MC0203J22010600005","2023-09-06T01:30:00",25.6,30.407648,0.191],
    [8485,"urn:WaterMeter:MC0203J22010600005","2023-09-06T01:45:00",25.6,30.37778,0.19],
    [8486,"urn:WaterMeter:MC0203J22010600005","2023-09-06T02:00:00",25.6,30.397564,0.195],
    [8487,"urn:WaterMeter:MC0203J22010600005","2023-09-06T02:15:00",25.5,30.38515,0.191],
    [8488,"urn:WaterMeter:MC0203J22010600005","2023-09-06T02:30:00",25.5,30.40024,0.192],
    [8489,"urn:WaterMeter:MC0203J22010600005","2023-09-06T02:45:00",25.5,30.378517,0.193],
    [8490,"urn:WaterMeter:MC0203J22010600005","2023-09-06T03:00:00",25.399,30.347912,0.19],
    [8491,"urn:WaterMeter:MC0203J22010600005","2023-09-06T03:15:00",25.399,30.348299,0.195],
    [8492,"urn:WaterMeter:MC0203J22010600005","2023-09-06T03:30:00",25.299,30.359898,0.197],
    [8493,"urn:WaterMeter:MC0203J22010600005","2023-09-06T03:45:00",25.299,30.345196,0.197],
    [8494,"urn:WaterMeter:MC0203J22010600005","2023-09-06T04:00:00",25.299,30.349852,0.193],
    [8495,"urn:WaterMeter:MC0203J22010600005","2023-09-06T04:15:00",25.299,30.337051,0.194],
    [8496,"urn:WaterMeter:MC0203J22010600005","2023-09-06T04:30:00",25.299,30.353342,0.19],
    [8497,"urn:WaterMeter:MC0203J22010600005","2023-09-06T04:45:00",25.299,30.336275,0.196],
    [8498,"urn:WaterMeter:MC0203J22010600005","2023-09-06T05:00:00",25.2,30.297485,0.187],
    [8499,"urn:WaterMeter:MC0203J22010600005","2023-09-06T05:15:00",25.2,30.330845,0.19],
    [8500,"urn:WaterMeter:MC0203J22010600005","2023-09-06T05:30:00",25.299,30.629915,0.204],
    [8501,"urn:WaterMeter:MC0203J22010600005","2023-09-06T05:45:00",25.299,31.250942,0.202],
    [8502,"urn:WaterMeter:MC0203J22010600005","2023-09-06T06:00:00",25.299,32.308357,0.212],
    [8503,"urn:WaterMeter:MC0203J22010600005","2023-09-06T06:15:00",25.299,33.13455,0.222],
    [8504,"urn:WaterMeter:MC0203J22010600005","2023-09-06T06:30:00",25.299,33.776947,0.228],
    [8505,"urn:WaterMeter:MC0203J22010600005","2023-09-06T06:45:00",25.299,34.14041,0.232],
    [8506,"urn:WaterMeter:MC0203J22010600005","2023-09-06T07:00:00",25.399,34.361126,0.243],
    [8507,"urn:WaterMeter:MC0203J22010600005","2023-09-06T07:15:00",25.5,34.58533,0.229],
    [8508,"urn:WaterMeter:MC0203J22010600005","2023-09-06T07:30:00",25.6,34.76105,0.234],
    [8509,"urn:WaterMeter:MC0203J22010600005","2023-09-06T07:45:00",25.7,34.862255,0.237],
    [8510,"urn:WaterMeter:MC0203J22010600005","2023-09-06T08:00:00",25.799,34.961594,0.237],
    [8511,"urn:WaterMeter:MC0203J22010600005","2023-09-06T08:15:00",25.799,34.24204,0.231],
    [8512,"urn:WaterMeter:MC0203J22010600005","2023-09-06T08:30:00",25.899,33.646614,0.224],
    [8513,"urn:WaterMeter:MC0203J22010600005","2023-09-06T08:45:00",25.899,33.37198,0.222],
    [8514,"urn:WaterMeter:MC0203J22010600005","2023-09-06T09:00:00",26,33.241997,0.224],
    [8515,"urn:WaterMeter:MC0203J22010600005","2023-09-06T09:15:00",26.1,33.04149,0.217],
    [8516,"urn:WaterMeter:MC0203J22010600005","2023-09-06T09:30:00",26.1,32.97671,0.219],
    [8517,"urn:WaterMeter:MC0203J22010600005","2023-09-06T09:45:00",26.2,32.87198,0.218],
    [8518,"urn:WaterMeter:MC0203J22010600005","2023-09-06T10:00:00",26.299,32.771122,0.22],
    [8519,"urn:WaterMeter:MC0203J22010600005","2023-09-06T10:15:00",26.399,32.714104,0.216],
    [8520,"urn:WaterMeter:MC0203J22010600005","2023-09-06T10:30:00",26.6,32.57446,0.212],
    [8521,"urn:WaterMeter:MC0203J22010600005","2023-09-06T10:45:00",26.799,32.49106,0.21],
    [8522,"urn:WaterMeter:MC0203J22010600005","2023-09-06T11:00:00",26.899,32.416542,0.215],
    [8523,"urn:WaterMeter:MC0203J22010600005","2023-09-06T11:15:00",27.1,32.33241,0.219],
    [8524,"urn:WaterMeter:MC0203J22010600005","2023-09-06T11:30:00",27.299,32.233456,0.218],
    [8525,"urn:WaterMeter:MC0203J22010600005","2023-09-06T11:45:00",27.5,32.133026,0.214],
    [8526,"urn:WaterMeter:MC0203J22010600005","2023-09-06T12:00:00",27.6,32.0589,0.212],
    [8527,"urn:WaterMeter:MC0203J22010600005","2023-09-06T12:15:00",27.7,31.924725,0.219],
    [8528,"urn:WaterMeter:MC0203J22010600005","2023-09-06T12:30:00",27.7,31.855253,0.214],
    [8529,"urn:WaterMeter:MC0203J22010600005","2023-09-06T12:45:00",27.7,31.758665,0.216],
    [8530,"urn:WaterMeter:MC0203J22010600005","2023-09-06T13:00:00",27.7,31.68384,0.202],
    [8531,"urn:WaterMeter:MC0203J22010600005","2023-09-06T13:15:00",27.799,31.597725,0.21],
    [8532,"urn:WaterMeter:MC0203J22010600005","2023-09-06T13:30:00",27.799,31.515064,0.204],
    [8533,"urn:WaterMeter:MC0203J22010600005","2023-09-06T13:45:00",27.799,31.458857,0.203],
    [8534,"urn:WaterMeter:MC0203J22010600005","2023-09-06T14:00:00",27.799,31.369213,0.201],
    [8535,"urn:WaterMeter:MC0203J22010600005","2023-09-06T14:15:00",27.799,31.276932,0.201],
    [8536,"urn:WaterMeter:MC0203J22010600005","2023-09-06T14:30:00",27.799,31.217585,0.204],
    [8537,"urn:WaterMeter:MC0203J22010600005","2023-09-06T14:45:00",27.799,31.133022,0.199],
    [8538,"urn:WaterMeter:MC0203J22010600005","2023-09-06T15:00:00",27.799,31.05773,0.2],
    [8539,"urn:WaterMeter:MC0203J22010600005","2023-09-06T15:15:00",27.7,31.00773,0.201],
    [8540,"urn:WaterMeter:MC0203J22010600005","2023-09-06T15:30:00",27.6,30.948769,0.194],
    [8541,"urn:WaterMeter:MC0203J22010600005","2023-09-06T15:45:00",27.6,30.870026,0.193],
    [8542,"urn:WaterMeter:MC0203J22010600005","2023-09-06T16:00:00",27.5,30.810677,0.198],
    [8543,"urn:WaterMeter:MC0203J22010600005","2023-09-06T16:15:00",27.299,30.768356,0.197],
    [8544,"urn:WaterMeter:MC0203J22010600005","2023-09-06T16:30:00",27.2,30.703617,0.2],
    [8545,"urn:WaterMeter:MC0203J22010600005","2023-09-06T16:45:00",27.1,30.677628,0.206],
    [8546,"urn:WaterMeter:MC0203J22010600005","2023-09-06T17:00:00",26.899,30.672157,0.196],
    [8547,"urn:WaterMeter:MC0203J22010600005","2023-09-06T17:15:00",26.799,30.61983,0.207],
    [8548,"urn:WaterMeter:MC0203J22010600005","2023-09-06T17:30:00",26.7,30.587635,0.202],
    [8549,"urn:WaterMeter:MC0203J22010600005","2023-09-06T17:45:00",26.5,30.565098,0.195],
    [8550,"urn:WaterMeter:MC0203J22010600005","2023-09-06T18:00:00",26.399,30.589186,0.193],
    [8551,"urn:WaterMeter:MC0203J22010600005","2023-09-06T18:15:00",26.2,30.583755,0.194],
    [8552,"urn:WaterMeter:MC0203J22010600005","2023-09-06T18:30:00",26.1,30.546865,0.194],
    [8553,"urn:WaterMeter:MC0203J22010600005","2023-09-06T18:45:00",25.899,30.56436,0.195],
    [8554,"urn:WaterMeter:MC0203J22010600005","2023-09-06T19:00:00",25.799,30.540699,0.2],
    [8555,"urn:WaterMeter:MC0203J22010600005","2023-09-06T19:15:00",25.7,30.569403,0.2],
    [8556,"urn:WaterMeter:MC0203J22010600005","2023-09-06T19:30:00",25.6,30.526695,0.194],
    [8557,"urn:WaterMeter:MC0203J22010600005","2023-09-06T19:45:00",25.6,30.511993,0.196],
    [8558,"urn:WaterMeter:MC0203J22010600005","2023-09-06T20:00:00",25.5,30.515446,0.199],
    [8559,"urn:WaterMeter:MC0203J22010600005","2023-09-06T20:15:00",25.399,30.520527,0.201],
    [8560,"urn:WaterMeter:MC0203J22010600005","2023-09-06T20:30:00",25.299,30.52169,0.199],
    [8561,"urn:WaterMeter:MC0203J22010600005","2023-09-06T20:45:00",25.299,30.502684,0.192],
    [8562,"urn:WaterMeter:MC0203J22010600005","2023-09-06T21:00:00",25.2,30.51238,0.208],
    [8563,"urn:WaterMeter:MC0203J22010600005","2023-09-06T21:15:00",25.2,30.530226,0.196],
    [8564,"urn:WaterMeter:MC0203J22010600005","2023-09-06T21:30:00",25.1,30.49027,0.201],
    [8565,"urn:WaterMeter:MC0203J22010600005","2023-09-06T21:45:00",25,30.487516,0.198],
    [8566,"urn:WaterMeter:MC0203J22010600005","2023-09-06T22:00:00",25,30.470488,0.197],
    [8567,"urn:WaterMeter:MC0203J22010600005","2023-09-06T22:15:00",24.899,30.47359,0.202],
    [8568,"urn:WaterMeter:MC0203J22010600005","2023-09-06T22:30:00",24.799,30.505787,0.198],
    [8569,"urn:WaterMeter:MC0203J22010600005","2023-09-06T22:45:00",24.799,30.48678,0.195],
    [8570,"urn:WaterMeter:MC0203J22010600005","2023-09-06T23:00:00",24.7,30.426268,0.198],
    [8571,"urn:WaterMeter:MC0203J22010600005","2023-09-06T23:15:00",24.7,30.44256,0.194],
    [8572,"urn:WaterMeter:MC0203J22010600005","2023-09-06T23:30:00",24.6,30.431698,0.197],
    [8573,"urn:WaterMeter:MC0203J22010600005","2023-09-06T23:45:00",24.6,30.430107,0.197],
    [8574,"urn:WaterMeter:MC0203J22010600005","2023-09-07T00:00:00",24.6,30.446438,0.2],
    [8575,"urn:WaterMeter:MC0203J22010600005","2023-09-07T00:15:00",24.5,30.402994,0.195],
    [8576,"urn:WaterMeter:MC0203J22010600005","2023-09-07T00:30:00",24.5,30.44062,0.197],
    [8577,"urn:WaterMeter:MC0203J22010600005","2023-09-07T00:45:00",24.399,30.44605,0.198],
    [8578,"urn:WaterMeter:MC0203J22010600005","2023-09-07T01:00:00",24.2,30.405708,0.2],
    [8579,"urn:WaterMeter:MC0203J22010600005","2023-09-07T01:15:00",24.2,30.423164,0.201],
    [8580,"urn:WaterMeter:MC0203J22010600005","2023-09-07T01:30:00",24.1,30.416182,0.192],
    [8581,"urn:WaterMeter:MC0203J22010600005","2023-09-07T01:45:00",23.899,30.442947,0.193],
    [8582,"urn:WaterMeter:MC0203J22010600005","2023-09-07T02:00:00",23.899,30.409937,0.194],
    [8583,"urn:WaterMeter:MC0203J22010600005","2023-09-07T02:15:00",23.799,30.419634,0.199],
    [8584,"urn:WaterMeter:MC0203J22010600005","2023-09-07T02:30:00",23.799,30.40183,0.199],
    [8585,"urn:WaterMeter:MC0203J22010600005","2023-09-07T02:45:00",23.799,30.424328,0.194],
    [8586,"urn:WaterMeter:MC0203J22010600005","2023-09-07T03:00:00",23.7,30.389805,0.197],
    [8587,"urn:WaterMeter:MC0203J22010600005","2023-09-07T03:15:00",23.6,30.37076,0.189],
    [8588,"urn:WaterMeter:MC0203J22010600005","2023-09-07T03:30:00",23.5,30.41847,0.206],
    [8589,"urn:WaterMeter:MC0203J22010600005","2023-09-07T03:45:00",23.5,30.406097,0.198],
    [8590,"urn:WaterMeter:MC0203J22010600005","2023-09-07T04:00:00",23.399,30.378168,0.194],
    [8591,"urn:WaterMeter:MC0203J22010600005","2023-09-07T04:15:00",23.299,30.392908,0.193],
    [8592,"urn:WaterMeter:MC0203J22010600005","2023-09-07T04:30:00",23.2,30.371534,0.191],
    [8593,"urn:WaterMeter:MC0203J22010600005","2023-09-07T04:45:00",23.1,30.335112,0.191],
    [8594,"urn:WaterMeter:MC0203J22010600005","2023-09-07T05:00:00",23.1,30.347525,0.194],
    [8595,"urn:WaterMeter:MC0203J22010600005","2023-09-07T05:15:00",23.1,30.425104,0.192],
    [8596,"urn:WaterMeter:MC0203J22010600005","2023-09-07T05:30:00",23.1,30.637672,0.205],
    [8597,"urn:WaterMeter:MC0203J22010600005","2023-09-07T05:45:00",22.899,31.290857,0.205],
    [8598,"urn:WaterMeter:MC0203J22010600005","2023-09-07T06:00:00",23,32.231556,0.216],
    [8599,"urn:WaterMeter:MC0203J22010600005","2023-09-07T06:15:00",23.1,33.06127,0.221],
    [8600,"urn:WaterMeter:MC0203J22010600005","2023-09-07T06:30:00",23.1,33.58843,0.245],
    [8601,"urn:WaterMeter:MC0203J22010600005","2023-09-07T06:45:00",23.1,33.93013,0.232],
    [8602,"urn:WaterMeter:MC0203J22010600005","2023-09-07T07:00:00",23.1,34.209843,0.23],
    [8603,"urn:WaterMeter:MC0203J22010600005","2023-09-07T07:15:00",23.1,34.387077,0.227],
    [8604,"urn:WaterMeter:MC0203J22010600005","2023-09-07T07:30:00",23.299,34.51706,0.231],
    [8605,"urn:WaterMeter:MC0203J22010600005","2023-09-07T07:45:00",23.399,34.67377,0.236],
    [8606,"urn:WaterMeter:MC0203J22010600005","2023-09-07T08:00:00",23.6,34.76295,0.238],
    [8607,"urn:WaterMeter:MC0203J22010600005","2023-09-07T08:15:00",23.899,34.10391,0.237],
    [8608,"urn:WaterMeter:MC0203J22010600005","2023-09-07T08:30:00",24.1,33.571323,0.226],
    [8609,"urn:WaterMeter:MC0203J22010600005","2023-09-07T08:45:00",24.299,33.345215,0.223],
    [8610,"urn:WaterMeter:MC0203J22010600005","2023-09-07T09:00:00",24.5,33.184586,0.218],
    [8611,"urn:WaterMeter:MC0203J22010600005","2023-09-07T09:15:00",24.7,33.053513,0.221],
    [8612,"urn:WaterMeter:MC0203J22010600005","2023-09-07T09:30:00",24.899,32.964684,0.214],
    [8613,"urn:WaterMeter:MC0203J22010600005","2023-09-07T09:45:00",25,32.85607,0.215],
    [8614,"urn:WaterMeter:MC0203J22010600005","2023-09-07T10:00:00",25.2,32.761814,0.217],
    [8615,"urn:WaterMeter:MC0203J22010600005","2023-09-07T10:15:00",25.299,32.64036,0.216],
    [8616,"urn:WaterMeter:MC0203J22010600005","2023-09-07T10:30:00",25.399,32.562782,0.212],
    [8617,"urn:WaterMeter:MC0203J22010600005","2023-09-07T10:45:00",25.5,32.51084,0.21],
    [8618,"urn:WaterMeter:MC0203J22010600005","2023-09-07T11:00:00",25.6,32.386326,0.22],
    [8619,"urn:WaterMeter:MC0203J22010600005","2023-09-07T11:15:00",25.799,32.32853,0.224],
    [8620,"urn:WaterMeter:MC0203J22010600005","2023-09-07T11:30:00",26,32.222206,0.216],
    [8621,"urn:WaterMeter:MC0203J22010600005","2023-09-07T11:45:00",26.1,32.17566,0.219],
    [8622,"urn:WaterMeter:MC0203J22010600005","2023-09-07T12:00:00",26.399,32.087994,0.208],
    [8623,"urn:WaterMeter:MC0203J22010600005","2023-09-07T12:15:00",26.5,32.002304,0.212],
    [8624,"urn:WaterMeter:MC0203J22010600005","2023-09-07T12:30:00",26.799,31.882057,0.211],
    [8625,"urn:WaterMeter:MC0203J22010600005","2023-09-07T12:45:00",26.899,31.776121,0.205],
    [8626,"urn:WaterMeter:MC0203J22010600005","2023-09-07T13:00:00",27,31.719488,0.207],
    [8627,"urn:WaterMeter:MC0203J22010600005","2023-09-07T13:15:00",27,31.625654,0.204],
    [8628,"urn:WaterMeter:MC0203J22010600005","2023-09-07T13:30:00",27,31.592295,0.202],
    [8629,"urn:WaterMeter:MC0203J22010600005","2023-09-07T13:45:00",27.1,31.482132,0.215],
    [8630,"urn:WaterMeter:MC0203J22010600005","2023-09-07T14:00:00",27.2,31.399082,0.202],
    [8631,"urn:WaterMeter:MC0203J22010600005","2023-09-07T14:15:00",27.2,31.346367,0.212],
    [8632,"urn:WaterMeter:MC0203J22010600005","2023-09-07T14:30:00",27.299,31.265295,0.212],
    [8633,"urn:WaterMeter:MC0203J22010600005","2023-09-07T14:45:00",27.2,31.205908,0.215],
    [8634,"urn:WaterMeter:MC0203J22010600005","2023-09-07T15:00:00",27.1,31.122936,0.201],
    [8635,"urn:WaterMeter:MC0203J22010600005","2023-09-07T15:15:00",27.1,31.089539,0.206],
    [8636,"urn:WaterMeter:MC0203J22010600005","2023-09-07T15:30:00",27.2,31.014324,0.2],
    [8637,"urn:WaterMeter:MC0203J22010600005","2023-09-07T15:45:00",27.299,30.93015,0.203],
    [8638,"urn:WaterMeter:MC0203J22010600005","2023-09-07T16:00:00",27.299,30.855286,0.197],
    [8639,"urn:WaterMeter:MC0203J22010600005","2023-09-07T16:15:00",27.2,30.836239,0.213],
    [8640,"urn:WaterMeter:MC0203J22010600005","2023-09-07T16:30:00",27.1,30.777704,0.2],
    [8641,"urn:WaterMeter:MC0203J22010600005","2023-09-07T16:45:00",27.1,30.778442,0.203],
    [8642,"urn:WaterMeter:MC0203J22010600005","2023-09-07T17:00:00",27,30.75094,0.202],
    [8643,"urn:WaterMeter:MC0203J22010600005","2023-09-07T17:15:00",26.899,30.715254,0.201],
    [8644,"urn:WaterMeter:MC0203J22010600005","2023-09-07T17:30:00",26.799,30.677238,0.208],
    [8645,"urn:WaterMeter:MC0203J22010600005","2023-09-07T17:45:00",26.7,30.700125,0.204],
    [8646,"urn:WaterMeter:MC0203J22010600005","2023-09-07T18:00:00",26.6,30.641552,0.199],
    [8647,"urn:WaterMeter:MC0203J22010600005","2023-09-07T18:15:00",26.5,30.663662,0.196],
    [8648,"urn:WaterMeter:MC0203J22010600005","2023-09-07T18:30:00",26.299,30.63104,0.196],
    [8649,"urn:WaterMeter:MC0203J22010600005","2023-09-07T18:45:00",26.2,30.648146,0.206],
    [8650,"urn:WaterMeter:MC0203J22010600005","2023-09-07T19:00:00",26.1,30.594965,0.199],
    [8651,"urn:WaterMeter:MC0203J22010600005","2023-09-07T19:15:00",26,30.617115,0.196],
    [8652,"urn:WaterMeter:MC0203J22010600005","2023-09-07T19:30:00",26,30.558542,0.197],
    [8653,"urn:WaterMeter:MC0203J22010600005","2023-09-07T19:45:00",25.899,30.620993,0.2],
    [8654,"urn:WaterMeter:MC0203J22010600005","2023-09-07T20:00:00",25.7,30.592638,0.196],
    [8655,"urn:WaterMeter:MC0203J22010600005","2023-09-07T20:15:00",25.6,30.57716,0.201],
    [8656,"urn:WaterMeter:MC0203J22010600005","2023-09-07T20:30:00",25.5,30.576385,0.196],
    [8657,"urn:WaterMeter:MC0203J22010600005","2023-09-07T20:45:00",25.399,30.563972,0.196],
    [8658,"urn:WaterMeter:MC0203J22010600005","2023-09-07T21:00:00",25.299,30.578712,0.195],
    [8659,"urn:WaterMeter:MC0203J22010600005","2023-09-07T21:15:00",25.2,30.527897,0.199],
    [8660,"urn:WaterMeter:MC0203J22010600005","2023-09-07T21:30:00",25.1,30.563583,0.2],
    [8661,"urn:WaterMeter:MC0203J22010600005","2023-09-07T21:45:00",25,30.557379,0.195],
    [8662,"urn:WaterMeter:MC0203J22010600005","2023-09-07T22:00:00",24.899,30.549232,0.198],
    [8663,"urn:WaterMeter:MC0203J22010600005","2023-09-07T22:15:00",24.799,30.541086,0.214],
    [8664,"urn:WaterMeter:MC0203J22010600005","2023-09-07T22:30:00",24.7,30.545702,0.195],
    [8665,"urn:WaterMeter:MC0203J22010600005","2023-09-07T22:45:00",24.6,30.527897,0.208],
    [8666,"urn:WaterMeter:MC0203J22010600005","2023-09-07T23:00:00",24.5,30.541086,0.194],
    [8667,"urn:WaterMeter:MC0203J22010600005","2023-09-07T23:15:00",24.399,30.540699,0.194],
    [8668,"urn:WaterMeter:MC0203J22010600005","2023-09-07T23:30:00",24.299,30.517773,0.202],
    [8669,"urn:WaterMeter:MC0203J22010600005","2023-09-07T23:45:00",24.2,30.51083,0.211],
    [8670,"urn:WaterMeter:MC0203J22010600005","2023-09-08T00:00:00",24.2,30.511993,0.199],
    [8671,"urn:WaterMeter:MC0203J22010600005","2023-09-08T00:15:00",24.1,30.527897,0.199],
    [8672,"urn:WaterMeter:MC0203J22010600005","2023-09-08T00:30:00",24.1,30.50889,0.202],
    [8673,"urn:WaterMeter:MC0203J22010600005","2023-09-08T00:45:00",24,30.50889,0.197],
    [8674,"urn:WaterMeter:MC0203J22010600005","2023-09-08T01:00:00",23.899,30.537983,0.202],
    [8675,"urn:WaterMeter:MC0203J22010600005","2023-09-08T01:15:00",23.799,30.46661,0.197],
    [8676,"urn:WaterMeter:MC0203J22010600005","2023-09-08T01:30:00",23.799,30.485228,0.193],
    [8677,"urn:WaterMeter:MC0203J22010600005","2023-09-08T01:45:00",23.7,30.486004,0.195],
    [8678,"urn:WaterMeter:MC0203J22010600005","2023-09-08T02:00:00",23.6,30.480574,0.192],
    [8679,"urn:WaterMeter:MC0203J22010600005","2023-09-08T02:15:00",23.5,30.475492,0.198],
    [8680,"urn:WaterMeter:MC0203J22010600005","2023-09-08T02:30:00",23.399,30.46661,0.199],
    [8681,"urn:WaterMeter:MC0203J22010600005","2023-09-08T02:45:00",23.399,30.453808,0.197],
    [8682,"urn:WaterMeter:MC0203J22010600005","2023-09-08T03:00:00",23.299,30.434801,0.199],
    [8683,"urn:WaterMeter:MC0203J22010600005","2023-09-08T03:15:00",23.2,30.47204,0.195],
    [8684,"urn:WaterMeter:MC0203J22010600005","2023-09-08T03:30:00",23.1,30.442947,0.2],
    [8685,"urn:WaterMeter:MC0203J22010600005","2023-09-08T03:45:00",23,30.481737,0.195],
    [8686,"urn:WaterMeter:MC0203J22010600005","2023-09-08T04:00:00",23,30.481737,0.204],
    [8687,"urn:WaterMeter:MC0203J22010600005","2023-09-08T04:15:00",22.899,30.449116,0.189],
    [8688,"urn:WaterMeter:MC0203J22010600005","2023-09-08T04:30:00",22.799,30.486004,0.198],
    [8689,"urn:WaterMeter:MC0203J22010600005","2023-09-08T04:45:00",22.799,30.465057,0.199],
    [8690,"urn:WaterMeter:MC0203J22010600005","2023-09-08T05:00:00",22.7,30.465446,0.194],
    [8691,"urn:WaterMeter:MC0203J22010600005","2023-09-08T05:15:00",22.799,30.49221,0.207],
    [8692,"urn:WaterMeter:MC0203J22010600005","2023-09-08T05:30:00",22.799,30.73073,0.195],
    [8693,"urn:WaterMeter:MC0203J22010600005","2023-09-08T05:45:00",22.799,31.433643,0.214],
    [8694,"urn:WaterMeter:MC0203J22010600005","2023-09-08T06:00:00",22.799,32.4096,0.213],
    [8695,"urn:WaterMeter:MC0203J22010600005","2023-09-08T06:15:00",22.7,33.18695,0.226],
    [8696,"urn:WaterMeter:MC0203J22010600005","2023-09-08T06:30:00",22.799,33.701694,0.244],
    [8697,"urn:WaterMeter:MC0203J22010600005","2023-09-08T06:45:00",22.899,34.02594,0.229],
    [8698,"urn:WaterMeter:MC0203J22010600005","2023-09-08T07:00:00",23,34.211746,0.233],
    [8699,"urn:WaterMeter:MC0203J22010600005","2023-09-08T07:15:00",23.1,34.431335,0.24],
    [8700,"urn:WaterMeter:MC0203J22010600005","2023-09-08T07:30:00",23.2,34.560078,0.237],
    [8701,"urn:WaterMeter:MC0203J22010600005","2023-09-08T07:45:00",23.399,34.74049,0.265],
    [8702,"urn:WaterMeter:MC0203J22010600005","2023-09-08T08:00:00",23.5,34.84014,0.26],
    [8703,"urn:WaterMeter:MC0203J22010600005","2023-09-08T08:15:00",23.7,34.216827,0.232],
    [8704,"urn:WaterMeter:MC0203J22010600005","2023-09-08T08:30:00",23.899,33.690445,0.225],
    [8705,"urn:WaterMeter:MC0203J22010600005","2023-09-08T08:45:00",23.899,33.407627,0.226],
    [8706,"urn:WaterMeter:MC0203J22010600005","2023-09-08T09:00:00",24.1,33.27268,0.225],
    [8707,"urn:WaterMeter:MC0203J22010600005","2023-09-08T09:15:00",24.299,33.151264,0.217],
    [8708,"urn:WaterMeter:MC0203J22010600005","2023-09-08T09:30:00",24.399,32.95107,0.232],
    [8709,"urn:WaterMeter:MC0203J22010600005","2023-09-08T09:45:00",24.6,32.861465,0.222],
    [8710,"urn:WaterMeter:MC0203J22010600005","2023-09-08T10:00:00",24.799,32.787415,0.233],
    [8711,"urn:WaterMeter:MC0203J22010600005","2023-09-08T10:15:00",25,32.693542,0.227],
    [8712,"urn:WaterMeter:MC0203J22010600005","2023-09-08T10:30:00",25.1,32.6148,0.221],
    [8713,"urn:WaterMeter:MC0203J22010600005","2023-09-08T10:45:00",25.299,32.56631,0.22],
    [8714,"urn:WaterMeter:MC0203J22010600005","2023-09-08T11:00:00",25.399,32.484467,0.211],
    [8715,"urn:WaterMeter:MC0203J22010600005","2023-09-08T11:15:00",25.6,32.378143,0.211],
    [8716,"urn:WaterMeter:MC0203J22010600005","2023-09-08T11:30:00",25.799,32.327366,0.225],
    [8717,"urn:WaterMeter:MC0203J22010600005","2023-09-08T11:45:00",25.899,32.20673,0.214],
    [8718,"urn:WaterMeter:MC0203J22010600005","2023-09-08T12:00:00",26.2,32.142727,0.212],
    [8719,"urn:WaterMeter:MC0203J22010600005","2023-09-08T12:15:00",26.399,32.043423,0.209],
    [8720,"urn:WaterMeter:MC0203J22010600005","2023-09-08T12:30:00",26.6,31.973213,0.212],
    [8721,"urn:WaterMeter:MC0203J22010600005","2023-09-08T12:45:00",26.6,31.88322,0.219],
    [8722,"urn:WaterMeter:MC0203J22010600005","2023-09-08T13:00:00",26.7,31.79668,0.221],
    [8723,"urn:WaterMeter:MC0203J22010600005","2023-09-08T13:15:00",26.799,31.719488,0.205],
    [8724,"urn:WaterMeter:MC0203J22010600005","2023-09-08T13:30:00",26.899,31.578718,0.213],
    [8725,"urn:WaterMeter:MC0203J22010600005","2023-09-08T13:45:00",27,31.520145,0.209],
    [8726,"urn:WaterMeter:MC0203J22010600005","2023-09-08T14:00:00",27,31.468555,0.204],
    [8727,"urn:WaterMeter:MC0203J22010600005","2023-09-08T14:15:00",27.1,31.367662,0.218],
    [8728,"urn:WaterMeter:MC0203J22010600005","2023-09-08T14:30:00",27.1,31.309477,0.203],
    [8729,"urn:WaterMeter:MC0203J22010600005","2023-09-08T14:45:00",27,31.271463,0.2],
    [8730,"urn:WaterMeter:MC0203J22010600005","2023-09-08T15:00:00",27,31.190432,0.21],
    [8731,"urn:WaterMeter:MC0203J22010600005","2023-09-08T15:15:00",26.899,31.104704,0.206],
    [8732,"urn:WaterMeter:MC0203J22010600005","2023-09-08T15:30:00",26.899,31.062037,0.207],
    [8733,"urn:WaterMeter:MC0203J22010600005","2023-09-08T15:45:00",26.799,30.997644,0.204],
    [8734,"urn:WaterMeter:MC0203J22010600005","2023-09-08T16:00:00",26.7,30.969328,0.201],
    [8735,"urn:WaterMeter:MC0203J22010600005","2023-09-08T16:15:00",26.6,30.911919,0.201],
    [8736,"urn:WaterMeter:MC0203J22010600005","2023-09-08T16:30:00",26.5,30.852957,0.206],
    [8737,"urn:WaterMeter:MC0203J22010600005","2023-09-08T16:45:00",26.399,30.802143,0.212],
    [8738,"urn:WaterMeter:MC0203J22010600005","2023-09-08T17:00:00",26.399,30.826155,0.202],
    [8739,"urn:WaterMeter:MC0203J22010600005","2023-09-08T17:15:00",26.299,30.797836,0.198],
    [8740,"urn:WaterMeter:MC0203J22010600005","2023-09-08T17:30:00",26.1,30.761414,0.2],
    [8741,"urn:WaterMeter:MC0203J22010600005","2023-09-08T17:45:00",26,30.751328,0.207],
    [8742,"urn:WaterMeter:MC0203J22010600005","2023-09-08T18:00:00",25.899,30.72689,0.2],
    [8743,"urn:WaterMeter:MC0203J22010600005","2023-09-08T18:15:00",25.7,30.715641,0.205],
    [8744,"urn:WaterMeter:MC0203J22010600005","2023-09-08T18:30:00",25.6,30.696634,0.204],
    [8745,"urn:WaterMeter:MC0203J22010600005","2023-09-08T18:45:00",25.5,30.695858,0.203],
    [8746,"urn:WaterMeter:MC0203J22010600005","2023-09-08T19:00:00",25.299,30.663662,0.206],
    [8747,"urn:WaterMeter:MC0203J22010600005","2023-09-08T19:15:00",25.2,30.720646,0.206],
    [8748,"urn:WaterMeter:MC0203J22010600005","2023-09-08T19:30:00",25.1,30.683445,0.198],
    [8749,"urn:WaterMeter:MC0203J22010600005","2023-09-08T19:45:00",25,30.639612,0.204],
    [8750,"urn:WaterMeter:MC0203J22010600005","2023-09-08T20:00:00",24.899,30.644268,0.207],
    [8751,"urn:WaterMeter:MC0203J22010600005","2023-09-08T20:15:00",24.799,30.647371,0.202],
    [8752,"urn:WaterMeter:MC0203J22010600005","2023-09-08T20:30:00",24.7,30.641165,0.199],
    [8753,"urn:WaterMeter:MC0203J22010600005","2023-09-08T20:45:00",24.7,30.655128,0.203],
    [8754,"urn:WaterMeter:MC0203J22010600005","2023-09-08T21:00:00",24.6,30.654352,0.2],
    [8755,"urn:WaterMeter:MC0203J22010600005","2023-09-08T21:15:00",24.5,30.611645,0.203],
    [8756,"urn:WaterMeter:MC0203J22010600005","2023-09-08T21:30:00",24.399,30.639612,0.199],
    [8757,"urn:WaterMeter:MC0203J22010600005","2023-09-08T21:45:00",24.299,30.619442,0.2],
    [8758,"urn:WaterMeter:MC0203J22010600005","2023-09-08T22:00:00",24.2,30.625261,0.198],
    [8759,"urn:WaterMeter:MC0203J22010600005","2023-09-08T22:15:00",24.1,30.619442,0.202],
    [8760,"urn:WaterMeter:MC0203J22010600005","2023-09-08T22:30:00",24.1,30.563196,0.197],
    [8761,"urn:WaterMeter:MC0203J22010600005","2023-09-08T22:45:00",24,30.602375,0.203],
    [8762,"urn:WaterMeter:MC0203J22010600005","2023-09-08T23:00:00",23.899,30.594578,0.212],
    [8763,"urn:WaterMeter:MC0203J22010600005","2023-09-08T23:15:00",23.799,30.612421,0.204],
    [8764,"urn:WaterMeter:MC0203J22010600005","2023-09-08T23:30:00",23.7,30.613972,0.196],
    [8765,"urn:WaterMeter:MC0203J22010600005","2023-09-08T23:45:00",23.6,30.595354,0.202],
    [8766,"urn:WaterMeter:MC0203J22010600005","2023-09-09T00:00:00",23.5,30.600822,0.206],
    [8767,"urn:WaterMeter:MC0203J22010600005","2023-09-09T00:15:00",23.399,30.603498,0.203],
    [8768,"urn:WaterMeter:MC0203J22010600005","2023-09-09T00:30:00",23.399,30.567076,0.209],
    [8769,"urn:WaterMeter:MC0203J22010600005","2023-09-09T00:45:00",23.399,30.601599,0.196],
    [8770,"urn:WaterMeter:MC0203J22010600005","2023-09-09T01:00:00",23.399,30.563196,0.203],
    [8771,"urn:WaterMeter:MC0203J22010600005","2023-09-09T01:15:00",23.299,30.608192,0.204],
    [8772,"urn:WaterMeter:MC0203J22010600005","2023-09-09T01:30:00",23.299,30.558153,0.193],
    [8773,"urn:WaterMeter:MC0203J22010600005","2023-09-09T01:45:00",23.2,30.565872,0.199],
    [8774,"urn:WaterMeter:MC0203J22010600005","2023-09-09T02:00:00",23.1,30.556175,0.214],
    [8775,"urn:WaterMeter:MC0203J22010600005","2023-09-09T02:15:00",23,30.578712,0.196],
    [8776,"urn:WaterMeter:MC0203J22010600005","2023-09-09T02:30:00",22.899,30.51467,0.198],
    [8777,"urn:WaterMeter:MC0203J22010600005","2023-09-09T02:45:00",22.899,30.601599,0.2],
    [8778,"urn:WaterMeter:MC0203J22010600005","2023-09-09T03:00:00",22.799,30.515446,0.197],
    [8779,"urn:WaterMeter:MC0203J22010600005","2023-09-09T03:15:00",22.7,30.52945,0.206],
    [8780,"urn:WaterMeter:MC0203J22010600005","2023-09-09T03:30:00",22.7,30.537983,0.201],
    [8781,"urn:WaterMeter:MC0203J22010600005","2023-09-09T03:45:00",22.7,30.536392,0.199],
    [8782,"urn:WaterMeter:MC0203J22010600005","2023-09-09T04:00:00",22.6,30.50346,0.202],
    [8783,"urn:WaterMeter:MC0203J22010600005","2023-09-09T04:15:00",22.5,30.52906,0.199],
    [8784,"urn:WaterMeter:MC0203J22010600005","2023-09-09T04:30:00",22.5,30.503073,0.198],
    [8785,"urn:WaterMeter:MC0203J22010600005","2023-09-09T04:45:00",22.399,30.522467,0.207],
    [8786,"urn:WaterMeter:MC0203J22010600005","2023-09-09T05:00:00",22.299,30.52363,0.208],
    [8787,"urn:WaterMeter:MC0203J22010600005","2023-09-09T05:15:00",22.299,30.503847,0.197],
    [8788,"urn:WaterMeter:MC0203J22010600005","2023-09-09T05:30:00",22.2,30.517773,0.197],
    [8789,"urn:WaterMeter:MC0203J22010600005","2023-09-09T05:45:00",22.2,30.517773,0.213],
    [8790,"urn:WaterMeter:MC0203J22010600005","2023-09-09T06:00:00",22.1,30.48678,0.192],
    [8791,"urn:WaterMeter:MC0203J22010600005","2023-09-09T06:15:00",22.1,30.508076,0.203],
    [8792,"urn:WaterMeter:MC0203J22010600005","2023-09-09T06:30:00",22.1,30.494886,0.197],
    [8793,"urn:WaterMeter:MC0203J22010600005","2023-09-09T06:45:00",22.1,30.46661,0.197],
    [8794,"urn:WaterMeter:MC0203J22010600005","2023-09-09T07:00:00",22.1,30.446438,0.202],
    [8795,"urn:WaterMeter:MC0203J22010600005","2023-09-09T07:15:00",22.2,30.472816,0.195],
    [8796,"urn:WaterMeter:MC0203J22010600005","2023-09-09T07:30:00",22.299,30.42782,0.188],
    [8797,"urn:WaterMeter:MC0203J22010600005","2023-09-09T07:45:00",22.5,30.440193,0.19],
    [8798,"urn:WaterMeter:MC0203J22010600005","2023-09-09T08:00:00",22.7,30.368858,0.19],
    [8799,"urn:WaterMeter:MC0203J22010600005","2023-09-09T08:15:00",22.899,30.340115,0.192],
    [8800,"urn:WaterMeter:MC0203J22010600005","2023-09-09T08:30:00",23.1,30.28003,0.196],
    [8801,"urn:WaterMeter:MC0203J22010600005","2023-09-09T08:45:00",23.2,30.265251,0.192],
    [8802,"urn:WaterMeter:MC0203J22010600005","2023-09-09T09:00:00",23.5,30.257532,0.195],
    [8803,"urn:WaterMeter:MC0203J22010600005","2023-09-09T09:15:00",23.7,30.19857,0.19],
    [8804,"urn:WaterMeter:MC0203J22010600005","2023-09-09T09:30:00",24,30.145428,0.193],
    [8805,"urn:WaterMeter:MC0203J22010600005","2023-09-09T09:45:00",24.2,30.08798,0.191],
    [8806,"urn:WaterMeter:MC0203J22010600005","2023-09-09T10:00:00",24.399,30.031347,0.189],
    [8807,"urn:WaterMeter:MC0203J22010600005","2023-09-09T10:15:00",24.5,29.985613,0.189],
    [8808,"urn:WaterMeter:MC0203J22010600005","2023-09-09T10:30:00",24.7,29.894806,0.189],
    [8809,"urn:WaterMeter:MC0203J22010600005","2023-09-09T10:45:00",24.799,29.867266,0.193],
    [8810,"urn:WaterMeter:MC0203J22010600005","2023-09-09T11:00:00",25,29.795155,0.187],
    [8811,"urn:WaterMeter:MC0203J22010600005","2023-09-09T11:15:00",25.299,29.744728,0.192],
    [8812,"urn:WaterMeter:MC0203J22010600005","2023-09-09T11:30:00",25.6,29.682625,0.192],
    [8813,"urn:WaterMeter:MC0203J22010600005","2023-09-09T11:45:00",25.899,29.58181,0.194],
    [8814,"urn:WaterMeter:MC0203J22010600005","2023-09-09T12:00:00",26,29.524788,0.189],
    [8815,"urn:WaterMeter:MC0203J22010600005","2023-09-09T12:15:00",26.2,29.418892,0.184],
    [8816,"urn:WaterMeter:MC0203J22010600005","2023-09-09T12:30:00",26.399,29.3192,0.184],
    [8817,"urn:WaterMeter:MC0203J22010600005","2023-09-09T12:45:00",26.5,29.276493,0.182],
    [8818,"urn:WaterMeter:MC0203J22010600005","2023-09-09T13:00:00",26.6,29.191582,0.194],
    [8819,"urn:WaterMeter:MC0203J22010600005","2023-09-09T13:15:00",26.6,29.117842,0.183],
    [8820,"urn:WaterMeter:MC0203J22010600005","2023-09-09T13:30:00",26.7,29.04767,0.187],
    [8821,"urn:WaterMeter:MC0203J22010600005","2023-09-09T13:45:00",26.7,28.974707,0.181],
    [8822,"urn:WaterMeter:MC0203J22010600005","2023-09-09T14:00:00",26.6,28.906824,0.182],
    [8823,"urn:WaterMeter:MC0203J22010600005","2023-09-09T14:15:00",26.7,28.814543,0.185],
    [8824,"urn:WaterMeter:MC0203J22010600005","2023-09-09T14:30:00",26.799,28.791618,0.179],
    [8825,"urn:WaterMeter:MC0203J22010600005","2023-09-09T14:45:00",26.799,28.655077,0.178],
    [8826,"urn:WaterMeter:MC0203J22010600005","2023-09-09T15:00:00",26.799,28.605465,0.185],
    [8827,"urn:WaterMeter:MC0203J22010600005","2023-09-09T15:15:00",26.799,28.544176,0.18],
    [8828,"urn:WaterMeter:MC0203J22010600005","2023-09-09T15:30:00",26.799,28.481298,0.177],
    [8829,"urn:WaterMeter:MC0203J22010600005","2023-09-09T15:45:00",26.799,28.399103,0.178],
    [8830,"urn:WaterMeter:MC0203J22010600005","2023-09-09T16:00:00",26.7,28.345146,0.183],
    [8831,"urn:WaterMeter:MC0203J22010600005","2023-09-09T16:15:00",26.6,28.306744,0.183],
    [8832,"urn:WaterMeter:MC0203J22010600005","2023-09-09T16:30:00",26.5,28.259459,0.178],
    [8833,"urn:WaterMeter:MC0203J22010600005","2023-09-09T16:45:00",26.399,28.204765,0.171],
    [8834,"urn:WaterMeter:MC0203J22010600005","2023-09-09T17:00:00",26.299,28.191576,0.173],
    [8835,"urn:WaterMeter:MC0203J22010600005","2023-09-09T17:15:00",26.2,28.110853,0.176],
    [8836,"urn:WaterMeter:MC0203J22010600005","2023-09-09T17:30:00",26.1,28.129862,0.183],
    [8837,"urn:WaterMeter:MC0203J22010600005","2023-09-09T17:45:00",25.899,28.09848,0.172],
    [8838,"urn:WaterMeter:MC0203J22010600005","2023-09-09T18:00:00",25.799,28.065508,0.173],
    [8839,"urn:WaterMeter:MC0203J22010600005","2023-09-09T18:15:00",25.6,28.081024,0.175],
    [8840,"urn:WaterMeter:MC0203J22010600005","2023-09-09T18:30:00",25.5,28.04491,0.177],
    [8841,"urn:WaterMeter:MC0203J22010600005","2023-09-09T18:45:04",25.299,28.039131,0.175],
    [8842,"urn:WaterMeter:MC0203J22010600005","2023-09-09T19:00:04",25.2,28.047277,0.175],
    [8843,"urn:WaterMeter:MC0203J22010600005","2023-09-09T19:15:00",25.1,28.004957,0.181],
    [8844,"urn:WaterMeter:MC0203J22010600005","2023-09-09T19:30:04",24.899,28.009651,0.179],
    [8845,"urn:WaterMeter:MC0203J22010600005","2023-09-09T19:45:00",24.799,27.994871,0.196],
    [8846,"urn:WaterMeter:MC0203J22010600005","2023-09-09T20:00:04",24.7,28.029434,0.176],
    [8847,"urn:WaterMeter:MC0203J22010600005","2023-09-09T20:15:00",24.6,28.020512,0.178],
    [8848,"urn:WaterMeter:MC0203J22010600005","2023-09-09T20:30:04",24.5,28.021288,0.174],
    [8849,"urn:WaterMeter:MC0203J22010600005","2023-09-09T20:45:00",24.399,27.991808,0.176],
    [8850,"urn:WaterMeter:MC0203J22010600005","2023-09-09T21:00:04",24.299,28.008099,0.176],
    [8851,"urn:WaterMeter:MC0203J22010600005","2023-09-09T21:15:04",24.2,27.975477,0.185],
    [8852,"urn:WaterMeter:MC0203J22010600005","2023-09-09T21:30:04",24.1,28.008488,0.182],
    [8853,"urn:WaterMeter:MC0203J22010600005","2023-09-09T21:45:00",24,27.995647,0.173],
    [8854,"urn:WaterMeter:MC0203J22010600005","2023-09-09T22:00:04",23.899,27.978231,0.187],
    [8855,"urn:WaterMeter:MC0203J22010600005","2023-09-09T22:15:00",23.799,27.968922,0.184],
    [8856,"urn:WaterMeter:MC0203J22010600005","2023-09-09T22:30:04",23.7,27.956081,0.174],
    [8857,"urn:WaterMeter:MC0203J22010600005","2023-09-09T22:45:04",23.6,27.983662,0.173],
    [8858,"urn:WaterMeter:MC0203J22010600005","2023-09-09T23:00:04",23.6,27.973188,0.177],
    [8859,"urn:WaterMeter:MC0203J22010600005","2023-09-09T23:15:04",23.5,27.96543,0.173],
    [8860,"urn:WaterMeter:MC0203J22010600005","2023-09-09T23:30:00",23.5,27.994871,0.176],
    [8861,"urn:WaterMeter:MC0203J22010600005","2023-09-09T23:45:00",23.399,27.981335,0.175],
    [8862,"urn:WaterMeter:MC0203J22010600005","2023-09-10T00:00:04",23.299,27.963491,0.177],
    [8863,"urn:WaterMeter:MC0203J22010600005","2023-09-10T00:15:04",23.299,27.941769,0.173],
    [8864,"urn:WaterMeter:MC0203J22010600005","2023-09-10T00:30:04",23.2,27.964655,0.177],
    [8865,"urn:WaterMeter:MC0203J22010600005","2023-09-10T00:45:04",23.1,27.947548,0.173],
    [8866,"urn:WaterMeter:MC0203J22010600005","2023-09-10T01:00:04",23,27.942932,0.175],
    [8867,"urn:WaterMeter:MC0203J22010600005","2023-09-10T01:15:04",22.899,27.928152,0.175],
    [8868,"urn:WaterMeter:MC0203J22010600005","2023-09-10T01:30:04",22.799,27.963491,0.174],
    [8869,"urn:WaterMeter:MC0203J22010600005","2023-09-10T01:45:04",22.7,27.922373,0.179],
    [8870,"urn:WaterMeter:MC0203J22010600005","2023-09-10T02:00:00",22.6,27.963102,0.174],
    [8871,"urn:WaterMeter:MC0203J22010600005","2023-09-10T02:15:04",22.5,27.935135,0.182],
    [8872,"urn:WaterMeter:MC0203J22010600005","2023-09-10T02:30:00",22.5,27.943708,0.17],
    [8873,"urn:WaterMeter:MC0203J22010600005","2023-09-10T02:45:04",22.399,27.960775,0.176],
    [8874,"urn:WaterMeter:MC0203J22010600005","2023-09-10T03:00:04",22.399,27.964266,0.17],
    [8875,"urn:WaterMeter:MC0203J22010600005","2023-09-10T03:15:04",22.399,27.953405,0.178],
    [8876,"urn:WaterMeter:MC0203J22010600005","2023-09-10T03:30:04",22.399,27.951853,0.17],
    [8877,"urn:WaterMeter:MC0203J22010600005","2023-09-10T03:45:04",22.299,27.95069,0.173],
    [8878,"urn:WaterMeter:MC0203J22010600005","2023-09-10T04:00:04",22.2,27.931295,0.172],
    [8879,"urn:WaterMeter:MC0203J22010600005","2023-09-10T04:15:04",22.2,27.904142,0.171],
    [8880,"urn:WaterMeter:MC0203J22010600005","2023-09-10T04:30:04",22.1,27.917292,0.175],
    [8881,"urn:WaterMeter:MC0203J22010600005","2023-09-10T04:45:04",22.1,27.894444,0.181],
    [8882,"urn:WaterMeter:MC0203J22010600005","2023-09-10T05:00:00",22,27.941769,0.169],
    [8883,"urn:WaterMeter:MC0203J22010600005","2023-09-10T05:15:04",21.899,27.905306,0.179],
    [8884,"urn:WaterMeter:MC0203J22010600005","2023-09-10T05:30:04",21.899,27.94332,0.168],
    [8885,"urn:WaterMeter:MC0203J22010600005","2023-09-10T05:45:04",21.799,27.932459,0.169],
    [8886,"urn:WaterMeter:MC0203J22010600005","2023-09-10T06:00:04",21.7,27.928152,0.18],
    [8887,"urn:WaterMeter:MC0203J22010600005","2023-09-10T06:15:04",21.7,27.923536,0.165],
    [8888,"urn:WaterMeter:MC0203J22010600005","2023-09-10T06:30:04",21.7,27.898285,0.173],
    [8889,"urn:WaterMeter:MC0203J22010600005","2023-09-10T06:45:04",21.799,27.883196,0.167],
    [8890,"urn:WaterMeter:MC0203J22010600005","2023-09-10T07:00:04",22,27.898285,0.171],
    [8891,"urn:WaterMeter:MC0203J22010600005","2023-09-10T07:15:04",22.1,27.888588,0.164],
    [8892,"urn:WaterMeter:MC0203J22010600005","2023-09-10T07:30:04",22.1,27.860659,0.175],
    [8893,"urn:WaterMeter:MC0203J22010600005","2023-09-10T07:45:00",22.299,27.83238,0.168],
    [8894,"urn:WaterMeter:MC0203J22010600005","2023-09-10T08:00:04",22.5,27.8157,0.163],
    [8895,"urn:WaterMeter:MC0203J22010600005","2023-09-10T08:15:00",22.7,27.753986,0.167],
    [8896,"urn:WaterMeter:MC0203J22010600005","2023-09-10T08:30:00",22.899,27.743513,0.17],
    [8897,"urn:WaterMeter:MC0203J22010600005","2023-09-10T08:45:00",23.2,27.665932,0.167],
    [8898,"urn:WaterMeter:MC0203J22010600005","2023-09-10T09:00:00",23.5,27.60542,0.169],
    [8899,"urn:WaterMeter:MC0203J22010600005","2023-09-10T09:15:00",23.799,27.55193,0.177],
    [8900,"urn:WaterMeter:MC0203J22010600005","2023-09-10T09:30:00",24,27.513914,0.165],
    [8901,"urn:WaterMeter:MC0203J22010600005","2023-09-10T09:45:00",24.1,27.479004,0.169],
    [8902,"urn:WaterMeter:MC0203J22010600005","2023-09-10T10:00:00",24.299,27.464264,0.17],
    [8903,"urn:WaterMeter:MC0203J22010600005","2023-09-10T10:15:00",24.5,27.385908,0.171],
    [8904,"urn:WaterMeter:MC0203J22010600005","2023-09-10T10:30:00",24.6,27.359142,0.167],
    [8905,"urn:WaterMeter:MC0203J22010600005","2023-09-10T10:45:00",24.799,27.264107,0.17],
    [8906,"urn:WaterMeter:MC0203J22010600005","2023-09-10T11:00:00",25,27.247427,0.166],
    [8907,"urn:WaterMeter:MC0203J22010600005","2023-09-10T11:15:00",25.2,27.169847,0.171],
    [8908,"urn:WaterMeter:MC0203J22010600005","2023-09-10T11:30:00",25.6,27.081018,0.16],
    [8909,"urn:WaterMeter:MC0203J22010600005","2023-09-10T11:45:00",25.899,27.0143,0.158],
    [8910,"urn:WaterMeter:MC0203J22010600005","2023-09-10T12:00:00",26.1,26.929699,0.162],
    [8911,"urn:WaterMeter:MC0203J22010600005","2023-09-10T12:15:00",26.2,26.838968,0.157],
    [8912,"urn:WaterMeter:MC0203J22010600005","2023-09-10T12:30:00",26.299,26.761776,0.156],
    [8913,"urn:WaterMeter:MC0203J22010600005","2023-09-10T12:45:00",26.5,26.682257,0.158],
    [8914,"urn:WaterMeter:MC0203J22010600005","2023-09-10T13:00:00",26.5,26.570114,0.163],
    [8915,"urn:WaterMeter:MC0203J22010600005","2023-09-10T13:15:00",26.6,26.523605,0.164],
    [8916,"urn:WaterMeter:MC0203J22010600005","2023-09-10T13:30:00",26.6,26.410727,0.162],
    [8917,"urn:WaterMeter:MC0203J22010600005","2023-09-10T13:45:00",26.7,26.326126,0.161],
    [8918,"urn:WaterMeter:MC0203J22010600005","2023-09-10T14:00:00",26.7,26.256731,0.161],
    [8919,"urn:WaterMeter:MC0203J22010600005","2023-09-10T14:15:00",26.7,26.166739,0.152],
    [8920,"urn:WaterMeter:MC0203J22010600005","2023-09-10T14:30:00",26.7,26.092222,0.158],
    [8921,"urn:WaterMeter:MC0203J22010600005","2023-09-10T14:45:00",26.799,26.046839,0.163],
    [8922,"urn:WaterMeter:MC0203J22010600005","2023-09-10T15:00:00",26.7,25.925852,0.161],
    [8923,"urn:WaterMeter:MC0203J22010600005","2023-09-10T15:15:00",26.7,25.867666,0.154],
    [8924,"urn:WaterMeter:MC0203J22010600005","2023-09-10T15:30:00",26.7,25.792414,0.159],
    [8925,"urn:WaterMeter:MC0203J22010600005","2023-09-10T15:45:00",26.7,25.744663,0.149],
    [8926,"urn:WaterMeter:MC0203J22010600005","2023-09-10T16:00:00",26.7,25.70471,0.152],
    [8927,"urn:WaterMeter:MC0203J22010600005","2023-09-10T16:15:00",26.6,25.632599,0.152],
    [8928,"urn:WaterMeter:MC0203J22010600005","2023-09-10T16:30:00",26.6,25.582949,0.148],
    [8929,"urn:WaterMeter:MC0203J22010600005","2023-09-10T16:45:00",26.5,25.571272,0.15],
    [8930,"urn:WaterMeter:MC0203J22010600005","2023-09-10T17:00:00",26.399,25.505756,0.15],
    [8931,"urn:WaterMeter:MC0203J22010600005","2023-09-10T17:15:00",26.299,25.478216,0.15],
    [8932,"urn:WaterMeter:MC0203J22010600005","2023-09-10T17:30:00",26.2,25.42581,0.15],
    [8933,"urn:WaterMeter:MC0203J22010600005","2023-09-10T17:45:00",26.1,25.45529,0.155],
    [8934,"urn:WaterMeter:MC0203J22010600005","2023-09-10T18:00:00",25.899,25.413786,0.149],
    [8935,"urn:WaterMeter:MC0203J22010600005","2023-09-10T18:15:00",25.799,25.432055,0.161],
    [8936,"urn:WaterMeter:MC0203J22010600005","2023-09-10T18:30:00",25.6,25.393265,0.149],
    [8937,"urn:WaterMeter:MC0203J22010600005","2023-09-10T18:45:00",25.5,25.400248,0.157],
    [8938,"urn:WaterMeter:MC0203J22010600005","2023-09-10T19:00:00",25.399,25.43128,0.151],
    [8939,"urn:WaterMeter:MC0203J22010600005","2023-09-10T19:15:00",25.2,25.394777,0.155],
    [8940,"urn:WaterMeter:MC0203J22010600005","2023-09-10T19:30:00",25.1,25.381628,0.152],
    [8941,"urn:WaterMeter:MC0203J22010600005","2023-09-10T19:45:00",25.1,25.385118,0.151],
    [8942,"urn:WaterMeter:MC0203J22010600005","2023-09-10T20:00:00",25,25.395554,0.158],
    [8943,"urn:WaterMeter:MC0203J22010600005","2023-09-10T20:15:00",24.899,25.391714,0.155],
    [8944,"urn:WaterMeter:MC0203J22010600005","2023-09-10T20:30:00",24.799,25.41072,0.154],
    [8945,"urn:WaterMeter:MC0203J22010600005","2023-09-10T20:45:00",24.7,25.39594,0.162],
    [8946,"urn:WaterMeter:MC0203J22010600005","2023-09-10T21:00:00",24.7,25.379301,0.151],
    [8947,"urn:WaterMeter:MC0203J22010600005","2023-09-10T21:15:00",24.6,25.369991,0.153],
    [8948,"urn:WaterMeter:MC0203J22010600005","2023-09-10T21:30:04",24.6,25.384731,0.15],
    [8949,"urn:WaterMeter:MC0203J22010600005","2023-09-10T21:45:00",24.5,25.380077,0.149],
    [8950,"urn:WaterMeter:MC0203J22010600005","2023-09-10T22:00:04",24.5,25.368828,0.157],
    [8951,"urn:WaterMeter:MC0203J22010600005","2023-09-10T22:15:00",24.399,25.360682,0.148],
    [8952,"urn:WaterMeter:MC0203J22010600005","2023-09-10T22:30:04",24.399,25.399084,0.158],
    [8953,"urn:WaterMeter:MC0203J22010600005","2023-09-10T22:45:00",24.399,25.364172,0.156],
    [8954,"urn:WaterMeter:MC0203J22010600005","2023-09-10T23:00:04",24.299,25.352924,0.15],
    [8955,"urn:WaterMeter:MC0203J22010600005","2023-09-10T23:15:00",24.299,25.356764,0.154],
    [8956,"urn:WaterMeter:MC0203J22010600005","2023-09-10T23:30:04",24.2,25.353312,0.148],
    [8957,"urn:WaterMeter:MC0203J22010600005","2023-09-10T23:45:04",24.2,25.382404,0.154],
    [8958,"urn:WaterMeter:MC0203J22010600005","2023-09-11T00:00:00",24.1,25.389387,0.147],
    [8959,"urn:WaterMeter:MC0203J22010600005","2023-09-11T00:15:00",24.1,25.34823,0.149],
    [8960,"urn:WaterMeter:MC0203J22010600005","2023-09-11T00:30:04",24,25.388222,0.147],
    [8961,"urn:WaterMeter:MC0203J22010600005","2023-09-11T00:45:04",24,25.352535,0.15],
    [8962,"urn:WaterMeter:MC0203J22010600005","2023-09-11T01:00:04",23.899,25.337368,0.15],
    [8963,"urn:WaterMeter:MC0203J22010600005","2023-09-11T01:15:04",23.899,25.319138,0.149],
    [8964,"urn:WaterMeter:MC0203J22010600005","2023-09-11T01:30:04",23.799,25.330812,0.155],
    [8965,"urn:WaterMeter:MC0203J22010600005","2023-09-11T01:45:00",23.7,25.354088,0.15],
    [8966,"urn:WaterMeter:MC0203J22010600005","2023-09-11T02:00:04",23.6,25.374994,0.144],
    [8967,"urn:WaterMeter:MC0203J22010600005","2023-09-11T02:15:04",23.5,25.338144,0.156],
    [8968,"urn:WaterMeter:MC0203J22010600005","2023-09-11T02:30:04",23.399,25.30366,0.153],
    [8969,"urn:WaterMeter:MC0203J22010600005","2023-09-11T02:45:04",23.299,25.321892,0.149],
    [8970,"urn:WaterMeter:MC0203J22010600005","2023-09-11T03:00:04",23.2,25.345942,0.155],
    [8971,"urn:WaterMeter:MC0203J22010600005","2023-09-11T03:15:04",23.1,25.320728,0.152],
    [8972,"urn:WaterMeter:MC0203J22010600005","2023-09-11T03:30:04",23,25.3556,0.149],
    [8973,"urn:WaterMeter:MC0203J22010600005","2023-09-11T03:45:04",22.899,25.303272,0.155],
    [8974,"urn:WaterMeter:MC0203J22010600005","2023-09-11T04:00:04",22.899,25.336594,0.155],
    [8975,"urn:WaterMeter:MC0203J22010600005","2023-09-11T04:15:04",22.799,25.344389,0.157],
    [8976,"urn:WaterMeter:MC0203J22010600005","2023-09-11T04:30:04",22.7,25.364948,0.152],
    [8977,"urn:WaterMeter:MC0203J22010600005","2023-09-11T04:45:04",22.6,25.342062,0.152],
    [8978,"urn:WaterMeter:MC0203J22010600005","2023-09-11T05:00:04",22.6,25.291248,0.156],
    [8979,"urn:WaterMeter:MC0203J22010600005","2023-09-11T05:15:04",22.5,25.307539,0.152],
    [8980,"urn:WaterMeter:MC0203J22010600005","2023-09-11T05:30:04",22.5,25.322668,0.144],
    [8981,"urn:WaterMeter:MC0203J22010600005","2023-09-11T05:45:04",22.399,25.306376,0.149],
    [8982,"urn:WaterMeter:MC0203J22010600005","2023-09-11T06:00:04",22.399,25.260952,0.15],
    [8983,"urn:WaterMeter:MC0203J22010600005","2023-09-11T06:15:04",22.299,25.321892,0.156],
    [8984,"urn:WaterMeter:MC0203J22010600005","2023-09-11T06:30:04",22.399,25.271038,0.147],
    [8985,"urn:WaterMeter:MC0203J22010600005","2023-09-11T06:45:04",22.399,25.298578,0.153],
    [8986,"urn:WaterMeter:MC0203J22010600005","2023-09-11T07:00:04",22.5,25.223753,0.151],
    [8987,"urn:WaterMeter:MC0203J22010600005","2023-09-11T07:15:04",22.6,25.249743,0.15],
    [8988,"urn:WaterMeter:MC0203J22010600005","2023-09-11T07:30:04",22.7,25.219448,0.151],
    [8989,"urn:WaterMeter:MC0203J22010600005","2023-09-11T07:45:00",22.799,25.160137,0.15],
    [8990,"urn:WaterMeter:MC0203J22010600005","2023-09-11T08:00:04",23,25.193459,0.144],
    [8991,"urn:WaterMeter:MC0203J22010600005","2023-09-11T08:15:00",23.299,25.1004,0.15],
    [8992,"urn:WaterMeter:MC0203J22010600005","2023-09-11T08:30:04",23.399,25.056917,0.144],
    [8993,"urn:WaterMeter:MC0203J22010600005","2023-09-11T08:45:00",23.7,25.003813,0.154],
    [8994,"urn:WaterMeter:MC0203J22010600005","2023-09-11T09:00:00",23.899,24.953386,0.146],
    [8995,"urn:WaterMeter:MC0203J22010600005","2023-09-11T09:15:04",24.2,24.904123,0.145],
    [8996,"urn:WaterMeter:MC0203J22010600005","2023-09-11T09:30:00",24.5,24.854046,0.144],
    [8997,"urn:WaterMeter:MC0203J22010600005","2023-09-11T09:45:00",24.7,24.730345,0.15],
    [8998,"urn:WaterMeter:MC0203J22010600005","2023-09-11T10:00:00",24.899,24.691942,0.143],
    [8999,"urn:WaterMeter:MC0203J22010600005","2023-09-11T10:15:00",25.1,24.57402,0.144],
    [9000,"urn:WaterMeter:MC0203J22010600005","2023-09-11T10:30:00",25.2,24.546091,0.146],
    [9001,"urn:WaterMeter:MC0203J22010600005","2023-09-11T10:45:00",25.399,24.4836,0.141],
    [9002,"urn:WaterMeter:MC0203J22010600005","2023-09-11T11:00:00",25.7,24.397875,0.141],
    [9003,"urn:WaterMeter:MC0203J22010600005","2023-09-11T11:15:00",26,24.29318,0.139],
    [9004,"urn:WaterMeter:MC0203J22010600005","2023-09-11T11:30:00",26.399,24.146128,0.144],
    [9005,"urn:WaterMeter:MC0203J22010600005","2023-09-11T11:45:00",26.7,24.081387,0.14],
    [9006,"urn:WaterMeter:MC0203J22010600005","2023-09-11T12:00:00",26.899,23.989454,0.137],
    [9007,"urn:WaterMeter:MC0203J22010600005","2023-09-11T12:15:00",27.1,23.858345,0.136],
    [9008,"urn:WaterMeter:MC0203J22010600005","2023-09-11T12:30:00",27.2,23.726809,0.133],
    [9009,"urn:WaterMeter:MC0203J22010600005","2023-09-11T12:45:00",27.399,23.655474,0.134],
    [9010,"urn:WaterMeter:MC0203J22010600005","2023-09-11T13:00:00",27.6,23.531345,0.137],
    [9011,"urn:WaterMeter:MC0203J22010600005","2023-09-11T13:15:00",27.7,23.409933,0.133],
    [9012,"urn:WaterMeter:MC0203J22010600005","2023-09-11T13:30:00",27.7,23.338907,0.141],
    [9013,"urn:WaterMeter:MC0203J22010600005","2023-09-11T13:45:00",27.799,23.203531,0.132],
    [9014,"urn:WaterMeter:MC0203J22010600005","2023-09-11T14:00:00",27.899,23.10931,0.131],
    [9015,"urn:WaterMeter:MC0203J22010600005","2023-09-11T14:15:00",27.799,23.02975,0.133],
    [9016,"urn:WaterMeter:MC0203J22010600005","2023-09-11T14:30:00",27.7,22.978199,0.129],
    [9017,"urn:WaterMeter:MC0203J22010600005","2023-09-11T14:45:00",27.6,22.929712,0.131],
    [9018,"urn:WaterMeter:MC0203J22010600005","2023-09-11T15:00:00",27.799,22.834639,0.138],
    [9019,"urn:WaterMeter:MC0203J22010600005","2023-09-11T15:15:00",27.799,22.776453,0.127],
    [9020,"urn:WaterMeter:MC0203J22010600005","2023-09-11T15:30:00",27.799,22.674862,0.133],
    [9021,"urn:WaterMeter:MC0203J22010600005","2023-09-11T15:45:00",27.899,22.600386,0.134],
    [9022,"urn:WaterMeter:MC0203J22010600005","2023-09-11T16:00:00",27.899,22.506086,0.128],
    [9023,"urn:WaterMeter:MC0203J22010600005","2023-09-11T16:15:00",27.799,22.4095,0.133],
    [9024,"urn:WaterMeter:MC0203J22010600005","2023-09-11T16:30:00",27.799,22.389328,0.123],
    [9025,"urn:WaterMeter:MC0203J22010600005","2023-09-11T16:45:00",27.7,22.298212,0.127],
    [9026,"urn:WaterMeter:MC0203J22010600005","2023-09-11T17:00:00",27.6,22.30946,0.126],
    [9027,"urn:WaterMeter:MC0203J22010600005","2023-09-11T17:15:00",27.5,22.215162,0.128],
    [9028,"urn:WaterMeter:MC0203J22010600005","2023-09-11T17:30:00",27.399,22.219467,0.132],
    [9029,"urn:WaterMeter:MC0203J22010600005","2023-09-11T17:45:00",27.299,22.13797,0.129],
    [9030,"urn:WaterMeter:MC0203J22010600005","2023-09-11T18:00:00",27.2,22.170591,0.136],
    [9031,"urn:WaterMeter:MC0203J22010600005","2023-09-11T18:15:00",27,22.138746,0.119],
    [9032,"urn:WaterMeter:MC0203J22010600005","2023-09-11T18:30:00",26.899,22.112408,0.135],
    [9033,"urn:WaterMeter:MC0203J22010600005","2023-09-11T18:45:00",26.799,22.141888,0.13],
    [9034,"urn:WaterMeter:MC0203J22010600005","2023-09-11T19:00:00",26.7,22.110855,0.13],
    [9035,"urn:WaterMeter:MC0203J22010600005","2023-09-11T19:15:00",26.5,22.150034,0.122],
    [9036,"urn:WaterMeter:MC0203J22010600005","2023-09-11T19:30:00",26.399,22.123655,0.128],
    [9037,"urn:WaterMeter:MC0203J22010600005","2023-09-11T19:45:00",26.299,22.125595,0.128],
    [9038,"urn:WaterMeter:MC0203J22010600005","2023-09-11T20:00:00",26.2,22.141888,0.13],
    [9039,"urn:WaterMeter:MC0203J22010600005","2023-09-11T20:15:00",26.1,22.101934,0.119],
    [9040,"urn:WaterMeter:MC0203J22010600005","2023-09-11T20:30:00",26,22.096851,0.131],
    [9041,"urn:WaterMeter:MC0203J22010600005","2023-09-11T20:45:00",26,22.106976,0.128],
    [9042,"urn:WaterMeter:MC0203J22010600005","2023-09-11T21:00:00",25.899,22.120165,0.132],
    [9043,"urn:WaterMeter:MC0203J22010600005","2023-09-11T21:15:00",25.799,22.102322,0.124],
    [9044,"urn:WaterMeter:MC0203J22010600005","2023-09-11T21:30:00",25.7,22.12482,0.125],
    [9045,"urn:WaterMeter:MC0203J22010600005","2023-09-11T21:45:00",25.7,22.092236,0.126],
    [9046,"urn:WaterMeter:MC0203J22010600005","2023-09-11T22:00:00",25.6,22.093788,0.131],
    [9047,"urn:WaterMeter:MC0203J22010600005","2023-09-11T22:15:00",25.5,22.123268,0.129],
    [9048,"urn:WaterMeter:MC0203J22010600005","2023-09-11T22:30:04",25.399,22.127535,0.126],
    [9049,"urn:WaterMeter:MC0203J22010600005","2023-09-11T22:45:04",25.299,22.08987,0.129],
    [9050,"urn:WaterMeter:MC0203J22010600005","2023-09-11T23:00:04",25.2,22.113571,0.129],
    [9051,"urn:WaterMeter:MC0203J22010600005","2023-09-11T23:15:00",25.1,22.103872,0.128],
    [9052,"urn:WaterMeter:MC0203J22010600005","2023-09-11T23:30:00",25.1,22.113958,0.13],
    [9053,"urn:WaterMeter:MC0203J22010600005","2023-09-11T23:45:00",25.1,22.080172,0.129],
    [9054,"urn:WaterMeter:MC0203J22010600005","2023-09-12T00:00:04",25.1,22.097628,0.128],
    [9055,"urn:WaterMeter:MC0203J22010600005","2023-09-12T00:15:00",25.1,22.101545,0.127],
    [9056,"urn:WaterMeter:MC0203J22010600005","2023-09-12T00:30:00",25,22.101158,0.128],
    [9057,"urn:WaterMeter:MC0203J22010600005","2023-09-12T00:45:00",24.899,22.094564,0.126],
    [9058,"urn:WaterMeter:MC0203J22010600005","2023-09-12T01:00:04",24.799,22.047628,0.127],
    [9059,"urn:WaterMeter:MC0203J22010600005","2023-09-12T01:15:00",24.7,22.080172,0.127],
    [9060,"urn:WaterMeter:MC0203J22010600005","2023-09-12T01:30:04",24.6,22.105812,0.125],
    [9061,"urn:WaterMeter:MC0203J22010600005","2023-09-12T01:45:00",24.5,22.074392,0.128],
    [9062,"urn:WaterMeter:MC0203J22010600005","2023-09-12T02:00:04",24.399,22.10077,0.132],
    [9063,"urn:WaterMeter:MC0203J22010600005","2023-09-12T02:15:00",24.299,22.096851,0.131],
    [9064,"urn:WaterMeter:MC0203J22010600005","2023-09-12T02:30:04",24.299,22.068962,0.131],
    [9065,"urn:WaterMeter:MC0203J22010600005","2023-09-12T02:45:04",24.299,22.092625,0.126],
    [9066,"urn:WaterMeter:MC0203J22010600005","2023-09-12T03:00:00",24.299,22.038319,0.129],
    [9067,"urn:WaterMeter:MC0203J22010600005","2023-09-12T03:15:00",24.299,22.065859,0.131],
    [9068,"urn:WaterMeter:MC0203J22010600005","2023-09-12T03:30:04",24.2,22.129862,0.128],
    [9069,"urn:WaterMeter:MC0203J22010600005","2023-09-12T03:45:04",24.1,22.083702,0.128],
    [9070,"urn:WaterMeter:MC0203J22010600005","2023-09-12T04:00:00",24.1,22.099567,0.125],
    [9071,"urn:WaterMeter:MC0203J22010600005","2023-09-12T04:15:04",24,22.081375,0.123],
    [9072,"urn:WaterMeter:MC0203J22010600005","2023-09-12T04:30:04",23.899,22.127148,0.127],
    [9073,"urn:WaterMeter:MC0203J22010600005","2023-09-12T04:45:04",23.7,22.080948,0.128],
    [9074,"urn:WaterMeter:MC0203J22010600005","2023-09-12T05:00:04",23.6,22.07125,0.128],
    [9075,"urn:WaterMeter:MC0203J22010600005","2023-09-12T05:15:00",23.6,22.095339,0.133],
    [9076,"urn:WaterMeter:MC0203J22010600005","2023-09-12T05:30:00",23.6,22.060778,0.129],
    [9077,"urn:WaterMeter:MC0203J22010600005","2023-09-12T05:45:00",23.6,22.14693,0.131],
    [9078,"urn:WaterMeter:MC0203J22010600005","2023-09-12T06:00:00",23.6,22.137194,0.122],
    [9079,"urn:WaterMeter:MC0203J22010600005","2023-09-12T06:15:00",23.6,22.139133,0.124],
    [9080,"urn:WaterMeter:MC0203J22010600005","2023-09-12T06:30:00",23.399,22.102709,0.124],
    [9081,"urn:WaterMeter:MC0203J22010600005","2023-09-12T06:45:00",23.399,22.337776,0.138],
    [9082,"urn:WaterMeter:MC0203J22010600005","2023-09-12T07:00:00",23.5,23.814512,0.159],
    [9083,"urn:WaterMeter:MC0203J22010600005","2023-09-12T07:15:00",23.6,26.01503,0.178],
    [9084,"urn:WaterMeter:MC0203J22010600005","2023-09-12T07:30:00",23.799,28.071676,0.187],
    [9085,"urn:WaterMeter:MC0203J22010600005","2023-09-12T07:45:00",23.899,29.656286,0.202],
    [9086,"urn:WaterMeter:MC0203J22010600005","2023-09-12T08:00:00",24.1,30.916185,0.211],
    [9087,"urn:WaterMeter:MC0203J22010600005","2023-09-12T08:15:00",24.299,31.271463,0.208],
    [9088,"urn:WaterMeter:MC0203J22010600005","2023-09-12T08:30:00",24.399,31.242798,0.205],
    [9089,"urn:WaterMeter:MC0203J22010600005","2023-09-12T08:45:00",24.7,31.185,0.207],
    [9090,"urn:WaterMeter:MC0203J22010600005","2023-09-12T09:00:00",24.899,31.11479,0.203],
    [9091,"urn:WaterMeter:MC0203J22010600005","2023-09-12T09:15:00",25.2,31.104317,0.197],
    [9092,"urn:WaterMeter:MC0203J22010600005","2023-09-12T09:30:00",25.399,31.011183,0.199],
    [9093,"urn:WaterMeter:MC0203J22010600005","2023-09-12T09:45:00",25.6,30.987558,0.197],
    [9094,"urn:WaterMeter:MC0203J22010600005","2023-09-12T10:00:00",25.799,30.96153,0.206],
    [9095,"urn:WaterMeter:MC0203J22010600005","2023-09-12T10:15:00",26,30.87468,0.198],
    [9096,"urn:WaterMeter:MC0203J22010600005","2023-09-12T10:30:00",26.2,30.818823,0.198],
    [9097,"urn:WaterMeter:MC0203J22010600005","2023-09-12T10:45:00",26.399,30.700474,0.202],
    [9098,"urn:WaterMeter:MC0203J22010600005","2023-09-12T11:00:00",26.6,30.641552,0.201],
    [9099,"urn:WaterMeter:MC0203J22010600005","2023-09-12T11:15:00",26.799,30.624058,0.195],
    [9100,"urn:WaterMeter:MC0203J22010600005","2023-09-12T11:30:00",27.1,30.5073,0.195],
    [9101,"urn:WaterMeter:MC0203J22010600005","2023-09-12T11:45:00",27.299,30.431698,0.192],
    [9102,"urn:WaterMeter:MC0203J22010600005","2023-09-12T12:00:00",27.5,30.383598,0.194],
    [9103,"urn:WaterMeter:MC0203J22010600005","2023-09-12T12:15:00",27.6,30.295933,0.193],
    [9104,"urn:WaterMeter:MC0203J22010600005","2023-09-12T12:30:00",27.7,30.223745,0.195],
    [9105,"urn:WaterMeter:MC0203J22010600005","2023-09-12T12:45:00",27.7,30.151634,0.193],
    [9106,"urn:WaterMeter:MC0203J22010600005","2023-09-12T13:00:00",27.7,30.109703,0.192],
    [9107,"urn:WaterMeter:MC0203J22010600005","2023-09-12T13:15:00",27.7,30.06044,0.182],
    [9108,"urn:WaterMeter:MC0203J22010600005","2023-09-12T13:30:00",27.799,29.98794,0.195],
    [9109,"urn:WaterMeter:MC0203J22010600005","2023-09-12T13:45:00",27.899,29.903767,0.183],
    [9110,"urn:WaterMeter:MC0203J22010600005","2023-09-12T14:00:00",28,29.842867,0.197],
    [9111,"urn:WaterMeter:MC0203J22010600005","2023-09-12T14:15:00",28.1,29.742788,0.187],
    [9112,"urn:WaterMeter:MC0203J22010600005","2023-09-12T14:30:00",28.2,29.693485,0.188],
    [9113,"urn:WaterMeter:MC0203J22010600005","2023-09-12T14:45:00",28.2,29.634136,0.201],
    [9114,"urn:WaterMeter:MC0203J22010600005","2023-09-12T15:00:00",28.1,29.622112,0.189],
    [9115,"urn:WaterMeter:MC0203J22010600005","2023-09-12T15:15:00",27.899,29.545307,0.19],
    [9116,"urn:WaterMeter:MC0203J22010600005","2023-09-12T15:30:00",27.6,29.544533,0.193],
    [9117,"urn:WaterMeter:MC0203J22010600005","2023-09-12T15:45:00",27.299,29.521685,0.184],
    [9118,"urn:WaterMeter:MC0203J22010600005","2023-09-12T16:00:00",27,29.723782,0.197],
    [9119,"urn:WaterMeter:MC0203J22010600005","2023-09-12T16:15:00",23.7,41.06132,0.263],
    [9120,"urn:WaterMeter:MC0203J22010600005","2023-09-12T16:30:00",22.7,41.214115,0.26],
    [9121,"urn:WaterMeter:MC0203J22010600005","2023-09-12T16:45:00",22.799,40.915085,0.251],
    [9122,"urn:WaterMeter:MC0203J22010600005","2023-09-12T17:00:00",22.799,40.992664,0.253],
    [9123,"urn:WaterMeter:MC0203J22010600005","2023-09-12T17:15:00",23.2,41.099335,0.249],
    [9124,"urn:WaterMeter:MC0203J22010600005","2023-09-12T17:30:00",23.399,41.237427,0.24],
    [9125,"urn:WaterMeter:MC0203J22010600005","2023-09-12T17:45:00",23.299,40.506626,0.249],
    [9126,"urn:WaterMeter:MC0203J22010600005","2023-09-12T18:00:00",23.399,40.26147,0.231],
    [9127,"urn:WaterMeter:MC0203J22010600005","2023-09-12T18:15:00",23.299,39.405376,0.231],
    [9128,"urn:WaterMeter:MC0203J22010600005","2023-09-12T18:30:00",23.2,38.422825,0.22],
    [9129,"urn:WaterMeter:MC0203J22010600005","2023-09-12T18:45:00",23.2,37.67453,0.221],
    [9130,"urn:WaterMeter:MC0203J22010600005","2023-09-12T19:00:04",23.2,37.076813,0.214],
    [9131,"urn:WaterMeter:MC0203J22010600005","2023-09-12T19:15:00",23.2,35.40415,0.211],
    [9132,"urn:WaterMeter:MC0203J22010600005","2023-09-12T19:30:04",23.1,34.645416,0.211],
    [9133,"urn:WaterMeter:MC0203J22010600005","2023-09-12T19:45:00",23.1,34.363842,0.205],
    [9134,"urn:WaterMeter:MC0203J22010600005","2023-09-12T20:00:04",23.1,34.148945,0.211],
    [9135,"urn:WaterMeter:MC0203J22010600005","2023-09-12T20:15:04",23,33.935986,0.21],
    [9136,"urn:WaterMeter:MC0203J22010600005","2023-09-12T20:30:00",23,33.80759,0.203],
    [9137,"urn:WaterMeter:MC0203J22010600005","2023-09-12T20:45:00",22.899,33.716396,0.207],
    [9138,"urn:WaterMeter:MC0203J22010600005","2023-09-12T21:00:04",22.899,33.61403,0.214],
    [9139,"urn:WaterMeter:MC0203J22010600005","2023-09-12T21:15:00",22.899,33.458096,0.207],
    [9140,"urn:WaterMeter:MC0203J22010600005","2023-09-12T21:30:04",22.899,33.42008,0.21],
    [9141,"urn:WaterMeter:MC0203J22010600005","2023-09-12T21:45:00",22.899,33.295177,0.206],
    [9142,"urn:WaterMeter:MC0203J22010600005","2023-09-12T22:00:00",22.899,33.20398,0.199],
    [9143,"urn:WaterMeter:MC0203J22010600005","2023-09-12T22:15:00",22.799,33.212902,0.201],
    [9144,"urn:WaterMeter:MC0203J22010600005","2023-09-12T22:30:00",22.799,33.133385,0.205],
    [9145,"urn:WaterMeter:MC0203J22010600005","2023-09-12T22:45:04",22.799,33.01973,0.207],
    [9146,"urn:WaterMeter:MC0203J22010600005","2023-09-12T23:00:04",22.799,32.95305,0.206],
    [9147,"urn:WaterMeter:MC0203J22010600005","2023-09-12T23:15:00",22.7,32.933655,0.211],
    [9148,"urn:WaterMeter:MC0203J22010600005","2023-09-12T23:30:04",22.7,32.858788,0.206],
    [9149,"urn:WaterMeter:MC0203J22010600005","2023-09-12T23:45:04",22.6,32.807972,0.208],
    [9150,"urn:WaterMeter:MC0203J22010600005","2023-09-13T00:00:00",22.6,32.745872,0.21],
    [9151,"urn:WaterMeter:MC0203J22010600005","2023-09-13T00:15:00",22.6,32.722248,0.204],
    [9152,"urn:WaterMeter:MC0203J22010600005","2023-09-13T00:30:00",22.5,32.68501,0.203],
    [9153,"urn:WaterMeter:MC0203J22010600005","2023-09-13T00:45:00",22.5,32.639626,0.203],
    [9154,"urn:WaterMeter:MC0203J22010600005","2023-09-13T01:00:04",22.5,32.561657,0.203],
    [9155,"urn:WaterMeter:MC0203J22010600005","2023-09-13T01:15:00",22.5,32.541485,0.2],
    [9156,"urn:WaterMeter:MC0203J22010600005","2023-09-13T01:30:04",22.5,32.543774,0.199],
    [9157,"urn:WaterMeter:MC0203J22010600005","2023-09-13T01:45:00",22.399,32.50735,0.2],
    [9158,"urn:WaterMeter:MC0203J22010600005","2023-09-13T02:00:04",22.399,32.434036,0.2],
    [9159,"urn:WaterMeter:MC0203J22010600005","2023-09-13T02:15:00",22.399,32.414993,0.207],
    [9160,"urn:WaterMeter:MC0203J22010600005","2023-09-13T02:30:04",22.299,32.403008,0.2],
    [9161,"urn:WaterMeter:MC0203J22010600005","2023-09-13T02:45:04",22.299,32.37236,0.206],
    [9162,"urn:WaterMeter:MC0203J22010600005","2023-09-13T03:00:04",22.2,32.329655,0.199],
    [9163,"urn:WaterMeter:MC0203J22010600005","2023-09-13T03:15:04",22.2,32.312626,0.207],
    [9164,"urn:WaterMeter:MC0203J22010600005","2023-09-13T03:30:04",22.1,32.267242,0.198],
    [9165,"urn:WaterMeter:MC0203J22010600005","2023-09-13T03:45:04",22,32.235046,0.202],
    [9166,"urn:WaterMeter:MC0203J22010600005","2023-09-13T04:00:04",22,32.20828,0.201],
    [9167,"urn:WaterMeter:MC0203J22010600005","2023-09-13T04:15:04",22,32.183804,0.204],
    [9168,"urn:WaterMeter:MC0203J22010600005","2023-09-13T04:30:04",22,32.188885,0.195],
    [9169,"urn:WaterMeter:MC0203J22010600005","2023-09-13T04:45:04",22,32.1788,0.192],
    [9170,"urn:WaterMeter:MC0203J22010600005","2023-09-13T05:00:04",22,32.137257,0.198],
    [9171,"urn:WaterMeter:MC0203J22010600005","2023-09-13T05:15:00",22.1,32.29517,0.201],
    [9172,"urn:WaterMeter:MC0203J22010600005","2023-09-13T05:30:00",22.2,32.97322,0.2],
    [9173,"urn:WaterMeter:MC0203J22010600005","2023-09-13T05:45:00",22.2,34.14041,0.215],
    [9174,"urn:WaterMeter:MC0203J22010600005","2023-09-13T06:00:00",22.299,34.98254,0.227],
    [9175,"urn:WaterMeter:MC0203J22010600005","2023-09-13T06:15:00",22.399,35.524437,0.216],
    [9176,"urn:WaterMeter:MC0203J22010600005","2023-09-13T06:30:00",22.299,35.814976,0.251],
    [9177,"urn:WaterMeter:MC0203J22010600005","2023-09-13T06:45:00",22.299,36.006172,0.242],
    [9178,"urn:WaterMeter:MC0203J22010600005","2023-09-13T07:00:00",22.299,36.15788,0.236],
    [9179,"urn:WaterMeter:MC0203J22010600005","2023-09-13T07:15:00",22.399,36.37235,0.25],
    [9180,"urn:WaterMeter:MC0203J22010600005","2023-09-13T07:30:00",22.5,36.496902,0.238],
    [9181,"urn:WaterMeter:MC0203J22010600005","2024-01-16T11:45:00",13.6,30.371923,0.175],
    [9182,"urn:WaterMeter:MC0203J22010600005","2024-01-16T12:00:00",13.8,30.358385,0.187],
    [9183,"urn:WaterMeter:MC0203J22010600005","2024-01-16T12:15:00",13.8,30.319983,0.175],
    [9184,"urn:WaterMeter:MC0203J22010600005","2024-01-16T12:30:00",13.899,30.311062,0.168],
    [9185,"urn:WaterMeter:MC0203J22010600005","2024-01-16T12:45:00",14,30.2393,0.173],
    [9186,"urn:WaterMeter:MC0203J22010600005","2024-01-16T13:00:00",14.1,30.251713,0.18],
    [9187,"urn:WaterMeter:MC0203J22010600005","2024-01-16T13:15:00",14.199,30.217577,0.169],
    [9188,"urn:WaterMeter:MC0203J22010600005","2024-01-16T13:30:00",14.199,30.234995,0.17],
    [9189,"urn:WaterMeter:MC0203J22010600005","2024-01-16T13:45:00",14.3,30.21913,0.174],
    [9190,"urn:WaterMeter:MC0203J22010600005","2024-01-16T14:00:00",14.399,30.17297,0.18],
    [9191,"urn:WaterMeter:MC0203J22010600005","2024-01-16T14:15:00",14.399,30.147717,0.175],
    [9192,"urn:WaterMeter:MC0203J22010600005","2024-01-16T14:30:00",14.399,30.160168,0.171],
    [9193,"urn:WaterMeter:MC0203J22010600005","2024-01-16T14:45:00",14.399,30.133015,0.178],
    [9194,"urn:WaterMeter:MC0203J22010600005","2024-01-16T15:00:00",14.399,30.12293,0.175],
    [9195,"urn:WaterMeter:MC0203J22010600005","2024-01-16T15:15:00",14.399,30.133404,0.171],
    [9196,"urn:WaterMeter:MC0203J22010600005","2024-01-16T15:30:00",14.399,30.102371,0.175],
    [9197,"urn:WaterMeter:MC0203J22010600005","2024-01-16T15:45:00",14.399,30.115948,0.171],
    [9198,"urn:WaterMeter:MC0203J22010600005","2024-01-16T16:00:00",14.399,30.099617,0.171],
    [9199,"urn:WaterMeter:MC0203J22010600005","2024-01-16T16:15:00",14.3,30.104311,0.177],
    [9200,"urn:WaterMeter:MC0203J22010600005","2024-01-16T16:30:00",14.1,30.096165,0.178],
    [9201,"urn:WaterMeter:MC0203J22010600005","2024-01-16T16:45:00",14,30.09923,0.182],
    [9202,"urn:WaterMeter:MC0203J22010600005","2024-01-16T17:00:00",13.899,30.03604,0.181],
    [9203,"urn:WaterMeter:MC0203J22010600005","2024-01-16T17:15:00",13.699,30.1194,0.185],
    [9204,"urn:WaterMeter:MC0203J22010600005","2024-01-16T17:30:00",13.6,30.106987,0.184],
    [9205,"urn:WaterMeter:MC0203J22010600005","2024-01-16T17:45:00",13.5,30.086855,0.177],
    [9206,"urn:WaterMeter:MC0203J22010600005","2024-01-16T18:00:00",13.399,30.114397,0.179],
    [9207,"urn:WaterMeter:MC0203J22010600005","2024-01-16T18:15:00",13.399,30.131464,0.177],
    [9208,"urn:WaterMeter:MC0203J22010600005","2024-01-16T18:30:00",13.3,30.086079,0.173],
    [9209,"urn:WaterMeter:MC0203J22010600005","2024-01-16T18:45:00",13.3,30.134178,0.18],
    [9210,"urn:WaterMeter:MC0203J22010600005","2024-01-16T19:00:00",13.199,30.087244,0.175],
    [9211,"urn:WaterMeter:MC0203J22010600005","2024-01-16T19:15:00",13.1,30.116724,0.178],
    [9212,"urn:WaterMeter:MC0203J22010600005","2024-01-16T19:30:00",13,30.154737,0.17],
    [9213,"urn:WaterMeter:MC0203J22010600005","2024-01-16T19:45:00",12.899,30.17836,0.181],
    [9214,"urn:WaterMeter:MC0203J22010600005","2024-01-16T20:00:00",12.8,30.141548,0.18],
    [9215,"urn:WaterMeter:MC0203J22010600005","2024-01-16T20:15:00",12.8,30.162107,0.179],
    [9216,"urn:WaterMeter:MC0203J22010600005","2024-01-16T20:30:00",12.699,30.153961,0.176],
    [9217,"urn:WaterMeter:MC0203J22010600005","2024-01-16T20:45:00",12.699,30.112068,0.176],
    [9218,"urn:WaterMeter:MC0203J22010600005","2024-01-16T21:00:00",12.8,30.11556,0.177],
    [9219,"urn:WaterMeter:MC0203J22010600005","2024-01-16T21:15:00",12.899,30.112457,0.182],
    [9220,"urn:WaterMeter:MC0203J22010600005","2024-01-16T21:30:00",12.899,30.107374,0.176],
    [9221,"urn:WaterMeter:MC0203J22010600005","2024-01-16T21:45:00",12.899,30.129873,0.173],
    [9222,"urn:WaterMeter:MC0203J22010600005","2024-01-16T22:00:00",12.8,30.128323,0.179],
    [9223,"urn:WaterMeter:MC0203J22010600005","2024-01-16T22:15:00",12.8,30.088367,0.171],
    [9224,"urn:WaterMeter:MC0203J22010600005","2024-01-16T22:30:00",12.699,30.122154,0.172],
    [9225,"urn:WaterMeter:MC0203J22010600005","2024-01-16T22:45:00",12.6,30.117887,0.186],
    [9226,"urn:WaterMeter:MC0203J22010600005","2024-01-16T23:00:00",12.6,30.160557,0.174],
    [9227,"urn:WaterMeter:MC0203J22010600005","2024-01-16T23:15:00",12.6,30.150858,0.189],
    [9228,"urn:WaterMeter:MC0203J22010600005","2024-01-16T23:30:00",12.5,30.15241,0.176],
    [9229,"urn:WaterMeter:MC0203J22010600005","2024-01-16T23:45:00",12.399,30.107763,0.176],
    [9230,"urn:WaterMeter:MC0203J22010600005","2024-01-17T00:00:00",12.399,30.16172,0.18],
    [9231,"urn:WaterMeter:MC0203J22010600005","2024-01-17T00:15:00",12.3,30.160944,0.178],
    [9232,"urn:WaterMeter:MC0203J22010600005","2024-01-17T00:30:00",12.3,30.134178,0.172],
    [9233,"urn:WaterMeter:MC0203J22010600005","2024-01-17T00:45:00",12.199,30.180727,0.173],
    [9234,"urn:WaterMeter:MC0203J22010600005","2024-01-17T01:00:00",12.1,30.177973,0.181],
    [9235,"urn:WaterMeter:MC0203J22010600005","2024-01-17T01:15:00",12,30.129486,0.18],
    [9236,"urn:WaterMeter:MC0203J22010600005","2024-01-17T01:30:00",11.8,30.156677,0.183],
    [9237,"urn:WaterMeter:MC0203J22010600005","2024-01-17T01:45:00",11.699,30.170254,0.184],
    [9238,"urn:WaterMeter:MC0203J22010600005","2024-01-17T02:00:00",11.6,30.173357,0.179],
    [9239,"urn:WaterMeter:MC0203J22010600005","2024-01-17T02:15:00",11.5,30.179564,0.174],
    [9240,"urn:WaterMeter:MC0203J22010600005","2024-01-17T02:30:00",11.399,30.22805,0.177],
    [9241,"urn:WaterMeter:MC0203J22010600005","2024-01-17T02:45:00",11.3,30.155901,0.184],
    [9242,"urn:WaterMeter:MC0203J22010600005","2024-01-17T03:00:00",11.3,30.16327,0.178],
    [9243,"urn:WaterMeter:MC0203J22010600005","2024-01-17T03:15:00",11.3,30.197756,0.177],
    [9244,"urn:WaterMeter:MC0203J22010600005","2024-01-17T03:30:00",11.199,30.21913,0.185],
    [9245,"urn:WaterMeter:MC0203J22010600005","2024-01-17T03:45:00",11.199,30.187283,0.182],
    [9246,"urn:WaterMeter:MC0203J22010600005","2024-01-17T04:00:00",11.1,30.203613,0.172],
    [9247,"urn:WaterMeter:MC0203J22010600005","2024-01-17T04:15:00",11,30.17836,0.177],
    [9248,"urn:WaterMeter:MC0203J22010600005","2024-01-17T04:30:00",11,30.193527,0.174],
    [9249,"urn:WaterMeter:MC0203J22010600005","2024-01-17T04:45:00",11,30.205126,0.175],
    [9250,"urn:WaterMeter:MC0203J22010600005","2024-01-17T05:00:00",10.899,30.16327,0.179],
    [9251,"urn:WaterMeter:MC0203J22010600005","2024-01-17T05:15:00",10.899,30.184956,0.175],
    [9252,"urn:WaterMeter:MC0203J22010600005","2024-01-17T05:30:00",10.899,30.202837,0.176],
    [9253,"urn:WaterMeter:MC0203J22010600005","2024-01-17T05:45:00",10.8,30.203613,0.173],
    [9254,"urn:WaterMeter:MC0203J22010600005","2024-01-17T06:00:00",10.8,30.21176,0.169],
    [9255,"urn:WaterMeter:MC0203J22010600005","2024-01-17T06:15:00",10.8,30.182667,0.179],
    [9256,"urn:WaterMeter:MC0203J22010600005","2024-01-17T06:30:00",10.699,30.196592,0.178],
    [9257,"urn:WaterMeter:MC0203J22010600005","2024-01-17T06:45:00",10.699,30.194304,0.173],
    [9258,"urn:WaterMeter:MC0203J22010600005","2024-01-17T07:00:00",10.6,30.170254,0.172],
    [9259,"urn:WaterMeter:MC0203J22010600005","2024-01-17T07:15:00",10.6,30.215986,0.177],
    [9260,"urn:WaterMeter:MC0203J22010600005","2024-01-17T07:30:00",10.6,30.225685,0.175],
    [9261,"urn:WaterMeter:MC0203J22010600005","2024-01-17T07:45:00",10.5,30.21176,0.177],
    [9262,"urn:WaterMeter:MC0203J22010600005","2024-01-17T08:00:00",10.6,30.22844,0.186],
    [9263,"urn:WaterMeter:MC0203J22010600005","2024-01-17T08:15:00",10.6,30.173357,0.179],
    [9264,"urn:WaterMeter:MC0203J22010600005","2024-01-17T08:30:00",10.6,30.188484,0.173],
    [9265,"urn:WaterMeter:MC0203J22010600005","2024-01-17T08:45:00",10.8,30.186895,0.174],
    [9266,"urn:WaterMeter:MC0203J22010600005","2024-01-17T09:00:00",11,30.166336,0.172],
    [9267,"urn:WaterMeter:MC0203J22010600005","2024-01-17T09:15:00",11.3,30.15819,0.174],
    [9268,"urn:WaterMeter:MC0203J22010600005","2024-01-17T09:30:00",11.699,30.129486,0.172],
    [9269,"urn:WaterMeter:MC0203J22010600005","2024-01-17T09:45:00",12,30.146166,0.172],
    [9270,"urn:WaterMeter:MC0203J22010600005","2024-01-17T10:00:00",12.199,30.104311,0.175],
    [9271,"urn:WaterMeter:MC0203J22010600005","2024-01-17T10:15:00",12.399,30.126034,0.171],
    [9272,"urn:WaterMeter:MC0203J22010600005","2024-01-17T10:30:00",12.5,30.100004,0.172],
    [9273,"urn:WaterMeter:MC0203J22010600005","2024-01-17T10:45:00",12.899,30.096941,0.169],
    [9274,"urn:WaterMeter:MC0203J22010600005","2024-01-17T11:00:00",13.5,30.074831,0.169],
    [9275,"urn:WaterMeter:MC0203J22010600005","2024-01-17T11:15:00",14.1,30.015093,0.172],
    [9276,"urn:WaterMeter:MC0203J22010600005","2024-01-17T11:30:00",14.6,29.94721,0.173],
    [9277,"urn:WaterMeter:MC0203J22010600005","2024-01-17T11:45:00",14.899,29.92743,0.175],
    [9278,"urn:WaterMeter:MC0203J22010600005","2024-01-17T12:00:00",15.1,29.925838,0.164],
    [9279,"urn:WaterMeter:MC0203J22010600005","2024-01-17T12:15:00",15.3,29.869244,0.175],
    [9280,"urn:WaterMeter:MC0203J22010600005","2024-01-17T12:30:00",15.399,29.821144,0.161],
    [9281,"urn:WaterMeter:MC0203J22010600005","2024-01-17T12:45:00",15.5,29.852564,0.165],
    [9282,"urn:WaterMeter:MC0203J22010600005","2024-01-17T13:00:00",15.5,29.768002,0.169],
    [9283,"urn:WaterMeter:MC0203J22010600005","2024-01-17T13:15:00",15.5,29.746666,0.161],
    [9284,"urn:WaterMeter:MC0203J22010600005","2024-01-17T13:30:00",15.6,29.741198,0.179],
    [9285,"urn:WaterMeter:MC0203J22010600005","2024-01-17T13:45:00",15.6,29.685379,0.164],
    [9286,"urn:WaterMeter:MC0203J22010600005","2024-01-17T14:00:00",15.6,29.661678,0.172],
    [9287,"urn:WaterMeter:MC0203J22010600005","2024-01-17T14:15:00",15.6,29.650467,0.165],
    [9288,"urn:WaterMeter:MC0203J22010600005","2024-01-17T14:30:00",15.6,29.679949,0.172],
    [9289,"urn:WaterMeter:MC0203J22010600005","2024-01-17T14:45:00",15.6,29.612453,0.169],
    [9290,"urn:WaterMeter:MC0203J22010600005","2024-01-17T15:00:00",15.6,29.6225,0.169],
    [9291,"urn:WaterMeter:MC0203J22010600005","2024-01-17T15:15:00",15.6,29.575563,0.172],
    [9292,"urn:WaterMeter:MC0203J22010600005","2024-01-17T15:30:00",15.5,29.560863,0.171],
    [9293,"urn:WaterMeter:MC0203J22010600005","2024-01-17T15:45:00",15.5,29.57056,0.171],
    [9294,"urn:WaterMeter:MC0203J22010600005","2024-01-17T16:00:00",15.399,29.505005,0.17],
    [9295,"urn:WaterMeter:MC0203J22010600005","2024-01-17T16:15:00",15.3,29.515867,0.169],
    [9296,"urn:WaterMeter:MC0203J22010600005","2024-01-17T16:30:00",15.3,29.513927,0.17],
    [9297,"urn:WaterMeter:MC0203J22010600005","2024-01-17T16:45:00",15.1,29.499537,0.177],
    [9298,"urn:WaterMeter:MC0203J22010600005","2024-01-17T17:00:00",15,29.444105,0.17],
    [9299,"urn:WaterMeter:MC0203J22010600005","2024-01-17T17:15:00",14.899,29.479753,0.17],
    [9300,"urn:WaterMeter:MC0203J22010600005","2024-01-17T17:30:00",14.699,29.483671,0.168],
    [9301,"urn:WaterMeter:MC0203J22010600005","2024-01-17T17:45:00",14.6,29.437511,0.169],
    [9302,"urn:WaterMeter:MC0203J22010600005","2024-01-17T18:00:00",14.5,29.460745,0.166],
    [9303,"urn:WaterMeter:MC0203J22010600005","2024-01-17T18:15:00",14.3,29.439062,0.168],
    [9304,"urn:WaterMeter:MC0203J22010600005","2024-01-17T18:30:00",14.199,29.437899,0.17],
    [9305,"urn:WaterMeter:MC0203J22010600005","2024-01-17T18:45:00",14,29.445269,0.173],
    [9306,"urn:WaterMeter:MC0203J22010600005","2024-01-17T19:00:00",13.899,29.413462,0.18],
    [9307,"urn:WaterMeter:MC0203J22010600005","2024-01-17T19:15:00",13.8,29.429325,0.171],
    [9308,"urn:WaterMeter:MC0203J22010600005","2024-01-17T19:30:00",13.699,29.441778,0.171],
    [9309,"urn:WaterMeter:MC0203J22010600005","2024-01-17T19:45:00",13.5,29.39872,0.175],
    [9310,"urn:WaterMeter:MC0203J22010600005","2024-01-17T20:00:00",13.3,29.431265,0.178],
    [9311,"urn:WaterMeter:MC0203J22010600005","2024-01-17T20:15:00",13.1,29.405703,0.176],
    [9312,"urn:WaterMeter:MC0203J22010600005","2024-01-17T20:30:00",13,29.403763,0.175],
    [9313,"urn:WaterMeter:MC0203J22010600005","2024-01-17T20:45:00",12.8,29.448334,0.169],
    [9314,"urn:WaterMeter:MC0203J22010600005","2024-01-17T21:00:00",12.699,29.449108,0.165],
    [9315,"urn:WaterMeter:MC0203J22010600005","2024-01-17T21:15:00",12.5,29.429325,0.176],
    [9316,"urn:WaterMeter:MC0203J22010600005","2024-01-17T21:30:00",12.399,29.435959,0.171],
    [9317,"urn:WaterMeter:MC0203J22010600005","2024-01-17T21:45:00",12.3,29.440964,0.169],
    [9318,"urn:WaterMeter:MC0203J22010600005","2024-01-17T22:00:00",12.199,29.447557,0.168],
    [9319,"urn:WaterMeter:MC0203J22010600005","2024-01-17T22:15:00",12.1,29.447557,0.172],
    [9320,"urn:WaterMeter:MC0203J22010600005","2024-01-17T22:30:00",12,29.434408,0.168],
    [9321,"urn:WaterMeter:MC0203J22010600005","2024-01-17T22:45:00",12,29.436735,0.172],
    [9322,"urn:WaterMeter:MC0203J22010600005","2024-01-17T23:00:00",12,29.433243,0.175],
    [9323,"urn:WaterMeter:MC0203J22010600005","2024-01-17T23:15:00",12,29.488674,0.169],
    [9324,"urn:WaterMeter:MC0203J22010600005","2024-01-17T23:30:00",12,29.435572,0.176],
    [9325,"urn:WaterMeter:MC0203J22010600005","2024-01-17T23:45:00",12,29.462336,0.166],
    [9326,"urn:WaterMeter:MC0203J22010600005","2024-01-18T00:00:00",12,29.423546,0.17],
    [9327,"urn:WaterMeter:MC0203J22010600005","2024-01-18T00:15:00",12,29.420792,0.166],
    [9328,"urn:WaterMeter:MC0203J22010600005","2024-01-18T00:30:00",12,29.43402,0.164],
    [9329,"urn:WaterMeter:MC0203J22010600005","2024-01-18T00:45:00",12,29.453802,0.167],
    [9330,"urn:WaterMeter:MC0203J22010600005","2024-01-18T01:00:00",12,29.418503,0.172],
    [9331,"urn:WaterMeter:MC0203J22010600005","2024-01-18T01:15:00",11.899,29.402988,0.17],
    [9332,"urn:WaterMeter:MC0203J22010600005","2024-01-18T01:30:00",11.8,29.431654,0.167],
    [9333,"urn:WaterMeter:MC0203J22010600005","2024-01-18T01:45:00",11.699,29.390148,0.167],
    [9334,"urn:WaterMeter:MC0203J22010600005","2024-01-18T02:00:00",11.6,29.418116,0.173],
    [9335,"urn:WaterMeter:MC0203J22010600005","2024-01-18T02:15:00",11.5,29.390924,0.173],
    [9336,"urn:WaterMeter:MC0203J22010600005","2024-01-18T02:30:00",11.399,29.438286,0.165],
    [9337,"urn:WaterMeter:MC0203J22010600005","2024-01-18T02:45:00",11.3,29.409931,0.174],
    [9338,"urn:WaterMeter:MC0203J22010600005","2024-01-18T03:00:00",11.199,29.450272,0.175],
    [9339,"urn:WaterMeter:MC0203J22010600005","2024-01-18T03:15:00",11.1,29.374283,0.17],
    [9340,"urn:WaterMeter:MC0203J22010600005","2024-01-18T03:30:00",11,29.388636,0.164],
    [9341,"urn:WaterMeter:MC0203J22010600005","2024-01-18T03:45:00",10.899,29.447557,0.184],
    [9342,"urn:WaterMeter:MC0203J22010600005","2024-01-18T04:00:00",10.8,29.422382,0.169],
    [9343,"urn:WaterMeter:MC0203J22010600005","2024-01-18T04:15:00",10.699,29.43208,0.165],
    [9344,"urn:WaterMeter:MC0203J22010600005","2024-01-18T04:30:00",10.6,29.41734,0.169],
    [9345,"urn:WaterMeter:MC0203J22010600005","2024-01-18T04:45:00",10.5,29.439062,0.172],
    [9346,"urn:WaterMeter:MC0203J22010600005","2024-01-18T05:00:00",10.399,29.43945,0.175],
    [9347,"urn:WaterMeter:MC0203J22010600005","2024-01-18T05:15:00",10.3,29.47087,0.165],
    [9348,"urn:WaterMeter:MC0203J22010600005","2024-01-18T05:30:00",10.199,29.43945,0.176],
    [9349,"urn:WaterMeter:MC0203J22010600005","2024-01-18T05:45:00",10.1,29.42118,0.17],
    [9350,"urn:WaterMeter:MC0203J22010600005","2024-01-18T06:00:00",10.1,29.420792,0.174],
    [9351,"urn:WaterMeter:MC0203J22010600005","2024-01-18T06:15:00",10,29.46734,0.177],
    [9352,"urn:WaterMeter:MC0203J22010600005","2024-01-18T06:30:00",10,29.432468,0.17],
    [9353,"urn:WaterMeter:MC0203J22010600005","2024-01-18T06:45:00",10,29.459581,0.173],
    [9354,"urn:WaterMeter:MC0203J22010600005","2024-01-18T07:00:00",9.899,29.482508,0.168],
    [9355,"urn:WaterMeter:MC0203J22010600005","2024-01-18T07:15:00",9.899,29.464664,0.175],
    [9356,"urn:WaterMeter:MC0203J22010600005","2024-01-18T07:30:00",9.8,29.455742,0.164],
    [9357,"urn:WaterMeter:MC0203J22010600005","2024-01-18T07:45:00",9.8,29.44682,0.168],
    [9358,"urn:WaterMeter:MC0203J22010600005","2024-01-18T08:00:00",9.8,29.441778,0.162],
    [9359,"urn:WaterMeter:MC0203J22010600005","2024-01-18T08:15:00",9.8,29.452639,0.167],
    [9360,"urn:WaterMeter:MC0203J22010600005","2024-01-18T08:30:00",9.8,29.388247,0.166],
    [9361,"urn:WaterMeter:MC0203J22010600005","2024-01-18T08:45:00",9.899,29.444881,0.164],
    [9362,"urn:WaterMeter:MC0203J22010600005","2024-01-18T09:00:00",10.1,29.402561,0.168],
    [9363,"urn:WaterMeter:MC0203J22010600005","2024-01-18T09:15:00",10.3,29.407642,0.168],
    [9364,"urn:WaterMeter:MC0203J22010600005","2024-01-18T09:30:00",10.5,29.418503,0.153],
    [9365,"urn:WaterMeter:MC0203J22010600005","2024-01-18T09:45:00",10.899,29.37855,0.155],
    [9366,"urn:WaterMeter:MC0203J22010600005","2024-01-18T10:00:00",11.5,29.398333,0.173],
    [9367,"urn:WaterMeter:MC0203J22010600005","2024-01-18T10:15:00",12,29.311443,0.167],
    [9368,"urn:WaterMeter:MC0203J22010600005","2024-01-18T10:30:00",12.5,29.316097,0.161],
    [9369,"urn:WaterMeter:MC0203J22010600005","2024-01-18T10:45:00",13,29.261791,0.161],
    [9370,"urn:WaterMeter:MC0203J22010600005","2024-01-18T11:00:00",13.399,29.237703,0.16],
    [9371,"urn:WaterMeter:MC0203J22010600005","2024-01-18T11:15:00",13.899,29.172188,0.165],
    [9372,"urn:WaterMeter:MC0203J22010600005","2024-01-18T11:30:00",14.399,29.167145,0.159],
    [9373,"urn:WaterMeter:MC0203J22010600005","2024-01-18T11:45:00",14.699,29.099611,0.158],
    [9374,"urn:WaterMeter:MC0203J22010600005","2024-01-18T12:00:00",15,29.098835,0.159],
    [9375,"urn:WaterMeter:MC0203J22010600005","2024-01-18T12:15:00",15.199,29.067066,0.165],
    [9376,"urn:WaterMeter:MC0203J22010600005","2024-01-18T12:30:00",15.399,29.03487,0.16],
    [9377,"urn:WaterMeter:MC0203J22010600005","2024-01-18T12:45:00",15.6,28.984406,0.153],
    [9378,"urn:WaterMeter:MC0203J22010600005","2024-01-18T13:00:00",15.8,28.98871,0.16],
    [9379,"urn:WaterMeter:MC0203J22010600005","2024-01-18T13:15:00",15.899,28.945227,0.16],
    [9380,"urn:WaterMeter:MC0203J22010600005","2024-01-18T13:30:00",15.8,28.89829,0.162],
    [9381,"urn:WaterMeter:MC0203J22010600005","2024-01-18T13:45:00",15.6,28.851006,0.161],
    [9382,"urn:WaterMeter:MC0203J22010600005","2024-01-18T14:00:00",15.399,28.852945,0.162],
    [9383,"urn:WaterMeter:MC0203J22010600005","2024-01-18T14:15:00",15.399,28.870012,0.165],
    [9384,"urn:WaterMeter:MC0203J22010600005","2024-01-18T14:30:00",15.399,28.860703,0.16],
    [9385,"urn:WaterMeter:MC0203J22010600005","2024-01-18T14:45:00",15.3,28.81881,0.164],
    [9386,"urn:WaterMeter:MC0203J22010600005","2024-01-18T15:00:00",15.3,28.773037,0.163],
    [9387,"urn:WaterMeter:MC0203J22010600005","2024-01-18T15:15:00",15.199,28.784676,0.166],
    [9388,"urn:WaterMeter:MC0203J22010600005","2024-01-18T15:30:00",15.199,28.765667,0.166],
    [9389,"urn:WaterMeter:MC0203J22010600005","2024-01-18T15:45:00",15.1,28.78002,0.161],
    [9390,"urn:WaterMeter:MC0203J22010600005","2024-01-18T16:00:00",15.199,28.808685,0.166],
    [9391,"urn:WaterMeter:MC0203J22010600005","2024-01-18T16:15:00",15.199,28.749338,0.158],
    [9392,"urn:WaterMeter:MC0203J22010600005","2024-01-18T16:30:00",15.199,28.760975,0.164],
    [9393,"urn:WaterMeter:MC0203J22010600005","2024-01-18T16:45:00",15.1,28.770672,0.164],
    [9394,"urn:WaterMeter:MC0203J22010600005","2024-01-18T17:00:00",15,28.74511,0.159],
    [9395,"urn:WaterMeter:MC0203J22010600005","2024-01-18T17:15:00",14.899,28.72804,0.169],
    [9396,"urn:WaterMeter:MC0203J22010600005","2024-01-18T17:30:00",14.699,28.714464,0.16],
    [9397,"urn:WaterMeter:MC0203J22010600005","2024-01-18T17:45:00",14.5,28.697784,0.165],
    [9398,"urn:WaterMeter:MC0203J22010600005","2024-01-18T18:00:00",14.3,28.722572,0.169],
    [9399,"urn:WaterMeter:MC0203J22010600005","2024-01-18T18:15:00",14.199,28.700888,0.166],
    [9400,"urn:WaterMeter:MC0203J22010600005","2024-01-18T18:30:00",14,28.686148,0.159],
    [9401,"urn:WaterMeter:MC0203J22010600005","2024-01-18T18:45:00",13.899,28.65275,0.171],
    [9402,"urn:WaterMeter:MC0203J22010600005","2024-01-18T19:00:00",13.699,28.72106,0.165],
    [9403,"urn:WaterMeter:MC0203J22010600005","2024-01-18T19:15:00",13.6,28.677227,0.165],
    [9404,"urn:WaterMeter:MC0203J22010600005","2024-01-18T19:30:00",13.5,28.705544,0.162],
    [9405,"urn:WaterMeter:MC0203J22010600005","2024-01-18T19:45:00",13.399,28.69856,0.166],
    [9406,"urn:WaterMeter:MC0203J22010600005","2024-01-18T20:00:00",13.3,28.666754,0.167],
    [9407,"urn:WaterMeter:MC0203J22010600005","2024-01-18T20:15:00",13.199,28.720284,0.163],
    [9408,"urn:WaterMeter:MC0203J22010600005","2024-01-18T20:30:00",13.1,28.72106,0.165],
    [9409,"urn:WaterMeter:MC0203J22010600005","2024-01-18T20:45:00",13,28.717957,0.167],
    [9410,"urn:WaterMeter:MC0203J22010600005","2024-01-18T21:00:00",13,28.67292,0.16],
    [9411,"urn:WaterMeter:MC0203J22010600005","2024-01-18T21:15:00",12.899,28.69701,0.163],
    [9412,"urn:WaterMeter:MC0203J22010600005","2024-01-18T21:30:00",12.899,28.718344,0.153],
    [9413,"urn:WaterMeter:MC0203J22010600005","2024-01-18T21:45:00",12.8,28.6877,0.168],
    [9414,"urn:WaterMeter:MC0203J22010600005","2024-01-18T22:00:00",12.8,28.70279,0.17],
    [9415,"urn:WaterMeter:MC0203J22010600005","2024-01-18T22:15:00",12.699,28.718733,0.159],
    [9416,"urn:WaterMeter:MC0203J22010600005","2024-01-18T22:30:00",12.6,28.699724,0.159],
    [9417,"urn:WaterMeter:MC0203J22010600005","2024-01-18T22:45:00",12.6,28.687311,0.159],
    [9418,"urn:WaterMeter:MC0203J22010600005","2024-01-18T23:00:00",12.5,28.721447,0.169],
    [9419,"urn:WaterMeter:MC0203J22010600005","2024-01-18T23:15:00",12.5,28.683044,0.165],
    [9420,"urn:WaterMeter:MC0203J22010600005","2024-01-18T23:30:00",12.399,28.742355,0.171],
    [9421,"urn:WaterMeter:MC0203J22010600005","2024-01-18T23:45:00",12.199,28.701664,0.163],
    [9422,"urn:WaterMeter:MC0203J22010600005","2024-01-19T00:00:00",12.1,28.705544,0.167],
    [9423,"urn:WaterMeter:MC0203J22010600005","2024-01-19T00:15:00",12,28.679941,0.165],
    [9424,"urn:WaterMeter:MC0203J22010600005","2024-01-19T00:30:00",11.899,28.714464,0.163],
    [9425,"urn:WaterMeter:MC0203J22010600005","2024-01-19T00:45:00",11.899,28.748213,0.163],
    [9426,"urn:WaterMeter:MC0203J22010600005","2024-01-19T01:00:00",11.8,28.667141,0.164],
    [9427,"urn:WaterMeter:MC0203J22010600005","2024-01-19T01:15:00",11.699,28.662487,0.161],
    [9428,"urn:WaterMeter:MC0203J22010600005","2024-01-19T01:30:00",11.699,28.649685,0.167],
    [9429,"urn:WaterMeter:MC0203J22010600005","2024-01-19T01:45:00",11.6,28.667917,0.164],
    [9430,"urn:WaterMeter:MC0203J22010600005","2024-01-19T02:00:00",11.6,28.662487,0.159],
    [9431,"urn:WaterMeter:MC0203J22010600005","2024-01-19T02:15:00",11.5,28.650074,0.165],
    [9432,"urn:WaterMeter:MC0203J22010600005","2024-01-19T02:30:00",11.5,28.693867,0.157],
    [9433,"urn:WaterMeter:MC0203J22010600005","2024-01-19T02:45:00",11.399,28.653526,0.164],
    [9434,"urn:WaterMeter:MC0203J22010600005","2024-01-19T03:00:00",11.399,28.697397,0.168],
    [9435,"urn:WaterMeter:MC0203J22010600005","2024-01-19T03:15:00",11.3,28.69895,0.172],
    [9436,"urn:WaterMeter:MC0203J22010600005","2024-01-19T03:30:00",11.3,28.67486,0.158],
    [9437,"urn:WaterMeter:MC0203J22010600005","2024-01-19T03:45:00",11.3,28.687311,0.163],
    [9438,"urn:WaterMeter:MC0203J22010600005","2024-01-19T04:00:00",11.3,28.68227,0.165],
    [9439,"urn:WaterMeter:MC0203J22010600005","2024-01-19T04:15:00",11.3,28.667141,0.16],
    [9440,"urn:WaterMeter:MC0203J22010600005","2024-01-19T04:30:00",11.199,28.654303,0.162],
    [9441,"urn:WaterMeter:MC0203J22010600005","2024-01-19T04:45:00",11.199,28.683044,0.169],
    [9442,"urn:WaterMeter:MC0203J22010600005","2024-01-19T05:00:00",11.199,28.681105,0.159],
    [9443,"urn:WaterMeter:MC0203J22010600005","2024-01-19T05:15:00",11.199,28.683044,0.167],
    [9444,"urn:WaterMeter:MC0203J22010600005","2024-01-19T05:30:00",11.199,28.67486,0.163],
    [9445,"urn:WaterMeter:MC0203J22010600005","2024-01-19T05:45:00",11.199,28.65275,0.165],
    [9446,"urn:WaterMeter:MC0203J22010600005","2024-01-19T06:00:00",11.199,28.686148,0.158],
    [9447,"urn:WaterMeter:MC0203J22010600005","2024-01-19T06:15:00",11.199,28.65822,0.165],
    [9448,"urn:WaterMeter:MC0203J22010600005","2024-01-19T06:30:00",11.199,28.675674,0.162],
    [9449,"urn:WaterMeter:MC0203J22010600005","2024-01-19T06:45:00",11.199,28.681105,0.158],
    [9450,"urn:WaterMeter:MC0203J22010600005","2024-01-19T07:00:00",11.199,28.669468,0.159],
    [9451,"urn:WaterMeter:MC0203J22010600005","2024-01-19T07:15:00",11.199,28.676838,0.162],
    [9452,"urn:WaterMeter:MC0203J22010600005","2024-01-19T07:30:00",11.199,28.687311,0.157],
    [9453,"urn:WaterMeter:MC0203J22010600005","2024-01-19T07:45:00",11.199,28.627575,0.158],
    [9454,"urn:WaterMeter:MC0203J22010600005","2024-01-19T08:00:00",11.199,28.653137,0.172],
    [9455,"urn:WaterMeter:MC0203J22010600005","2024-01-19T08:15:00",11.199,28.659384,0.16],
    [9456,"urn:WaterMeter:MC0203J22010600005","2024-01-19T08:30:00",11.3,28.600811,0.161],
    [9457,"urn:WaterMeter:MC0203J22010600005","2024-01-19T08:45:00",11.3,28.607792,0.153],
    [9458,"urn:WaterMeter:MC0203J22010600005","2024-01-19T09:00:00",11.3,28.655077,0.161],
    [9459,"urn:WaterMeter:MC0203J22010600005","2024-01-19T09:15:00",11.399,28.657444,0.166],
    [9460,"urn:WaterMeter:MC0203J22010600005","2024-01-19T09:30:00",11.399,28.675674,0.165],
    [9461,"urn:WaterMeter:MC0203J22010600005","2024-01-19T09:45:00",11.5,28.630678,0.159],
    [9462,"urn:WaterMeter:MC0203J22010600005","2024-01-19T10:00:00",11.699,28.624472,0.157],
    [9463,"urn:WaterMeter:MC0203J22010600005","2024-01-19T10:15:00",11.8,28.594954,0.161],
    [9464,"urn:WaterMeter:MC0203J22010600005","2024-01-19T10:30:00",11.899,28.588785,0.164],
    [9465,"urn:WaterMeter:MC0203J22010600005","2024-01-19T10:45:00",12,28.555775,0.162],
    [9466,"urn:WaterMeter:MC0203J22010600005","2024-01-19T11:00:00",12.199,28.576334,0.156],
    [9467,"urn:WaterMeter:MC0203J22010600005","2024-01-19T11:15:00",12.199,28.561245,0.157],
    [9468,"urn:WaterMeter:MC0203J22010600005","2024-01-19T11:30:00",12.399,28.52711,0.159],
    [9469,"urn:WaterMeter:MC0203J22010600005","2024-01-19T11:45:00",12.6,28.549181,0.153],
    [9470,"urn:WaterMeter:MC0203J22010600005","2024-01-19T12:00:00",12.8,28.55849,0.155],
    [9471,"urn:WaterMeter:MC0203J22010600005","2024-01-19T12:15:00",12.899,28.512756,0.157],
    [9472,"urn:WaterMeter:MC0203J22010600005","2024-01-19T12:30:00",12.899,28.487156,0.153],
    [9473,"urn:WaterMeter:MC0203J22010600005","2024-01-19T12:45:00",13.199,28.469313,0.15],
    [9474,"urn:WaterMeter:MC0203J22010600005","2024-01-19T13:00:00",13.3,28.428194,0.163],
    [9475,"urn:WaterMeter:MC0203J22010600005","2024-01-19T13:15:00",13.3,28.438667,0.155],
    [9476,"urn:WaterMeter:MC0203J22010600005","2024-01-19T13:30:00",13.399,28.46074,0.158],
    [9477,"urn:WaterMeter:MC0203J22010600005","2024-01-19T13:45:00",13.5,28.398714,0.158],
    [9478,"urn:WaterMeter:MC0203J22010600005","2024-01-19T14:00:00",13.6,28.402555,0.153],
    [9479,"urn:WaterMeter:MC0203J22010600005","2024-01-19T14:15:00",13.699,28.409964,0.149],
    [9480,"urn:WaterMeter:MC0203J22010600005","2024-01-19T14:30:00",13.699,28.381996,0.161],
    [9481,"urn:WaterMeter:MC0203J22010600005","2024-01-19T14:45:00",13.6,28.357597,0.164],
    [9482,"urn:WaterMeter:MC0203J22010600005","2024-01-19T15:00:00",13.6,28.375828,0.148],
    [9483,"urn:WaterMeter:MC0203J22010600005","2024-01-19T15:15:00",13.6,28.33859,0.161],
    [9484,"urn:WaterMeter:MC0203J22010600005","2024-01-19T15:30:00",13.6,28.35368,0.164],
    [9485,"urn:WaterMeter:MC0203J22010600005","2024-01-19T15:45:00",13.6,28.311825,0.161],
    [9486,"urn:WaterMeter:MC0203J22010600005","2024-01-19T16:00:00",13.699,28.283121,0.156],
    [9487,"urn:WaterMeter:MC0203J22010600005","2024-01-19T16:15:00",13.699,28.292429,0.153],
    [9488,"urn:WaterMeter:MC0203J22010600005","2024-01-19T16:30:00",13.6,28.322298,0.166],
    [9489,"urn:WaterMeter:MC0203J22010600005","2024-01-19T16:45:00",13.6,28.295494,0.161],
    [9490,"urn:WaterMeter:MC0203J22010600005","2024-01-19T17:00:00",13.5,28.306355,0.159],
    [9491,"urn:WaterMeter:MC0203J22010600005","2024-01-19T17:15:00",13.399,28.303251,0.162],
    [9492,"urn:WaterMeter:MC0203J22010600005","2024-01-19T17:30:00",13.399,28.312601,0.162],
    [9493,"urn:WaterMeter:MC0203J22010600005","2024-01-19T17:45:00",13.199,28.324974,0.163],
    [9494,"urn:WaterMeter:MC0203J22010600005","2024-01-19T18:00:00",13.1,28.33506,0.162],
    [9495,"urn:WaterMeter:MC0203J22010600005","2024-01-19T18:15:00",13,28.361826,0.161],
    [9496,"urn:WaterMeter:MC0203J22010600005","2024-01-19T18:30:00",13,28.281956,0.151],
    [9497,"urn:WaterMeter:MC0203J22010600005","2024-01-19T18:45:00",12.899,28.357208,0.158],
    [9498,"urn:WaterMeter:MC0203J22010600005","2024-01-19T19:00:00",12.8,28.32575,0.158],
    [9499,"urn:WaterMeter:MC0203J22010600005","2024-01-19T19:15:00",12.8,28.306355,0.164],
    [9500,"urn:WaterMeter:MC0203J22010600005","2024-01-19T19:30:00",12.699,28.324974,0.16],
    [9501,"urn:WaterMeter:MC0203J22010600005","2024-01-19T19:45:00",12.6,28.324974,0.163],
    [9502,"urn:WaterMeter:MC0203J22010600005","2024-01-19T20:00:00",12.5,28.325363,0.162],
    [9503,"urn:WaterMeter:MC0203J22010600005","2024-01-19T20:15:00",12.399,28.324587,0.156],
    [9504,"urn:WaterMeter:MC0203J22010600005","2024-01-19T20:30:00",12.3,28.293594,0.166],
    [9505,"urn:WaterMeter:MC0203J22010600005","2024-01-19T20:45:00",12.3,28.304028,0.153],
    [9506,"urn:WaterMeter:MC0203J22010600005","2024-01-19T21:00:00",12.199,28.32575,0.156],
    [9507,"urn:WaterMeter:MC0203J22010600005","2024-01-19T21:15:00",12.1,28.322647,0.16],
    [9508,"urn:WaterMeter:MC0203J22010600005","2024-01-19T21:30:00",12,28.318808,0.158],
    [9509,"urn:WaterMeter:MC0203J22010600005","2024-01-19T21:45:00",11.8,28.354067,0.155],
    [9510,"urn:WaterMeter:MC0203J22010600005","2024-01-19T22:00:00",11.8,28.33665,0.155],
    [9511,"urn:WaterMeter:MC0203J22010600005","2024-01-19T22:15:00",11.699,28.337038,0.158],
    [9512,"urn:WaterMeter:MC0203J22010600005","2024-01-19T22:30:00",11.699,28.331995,0.154],
    [9513,"urn:WaterMeter:MC0203J22010600005","2024-01-19T22:45:00",11.6,28.34243,0.154],
    [9514,"urn:WaterMeter:MC0203J22010600005","2024-01-19T23:00:00",11.5,28.339754,0.156],
    [9515,"urn:WaterMeter:MC0203J22010600005","2024-01-19T23:15:00",11.5,28.358374,0.162],
    [9516,"urn:WaterMeter:MC0203J22010600005","2024-01-19T23:30:00",11.3,28.372337,0.161],
    [9517,"urn:WaterMeter:MC0203J22010600005","2024-01-19T23:45:00",11.199,28.36299,0.157],
    [9518,"urn:WaterMeter:MC0203J22010600005","2024-01-20T00:00:00",11.1,28.332771,0.16],
    [9519,"urn:WaterMeter:MC0203J22010600005","2024-01-20T00:15:00",11,28.293594,0.161],
    [9520,"urn:WaterMeter:MC0203J22010600005","2024-01-20T00:30:00",10.8,28.348675,0.158],
    [9521,"urn:WaterMeter:MC0203J22010600005","2024-01-20T00:45:00",10.8,28.328892,0.158],
    [9522,"urn:WaterMeter:MC0203J22010600005","2024-01-20T01:00:00",10.699,28.333935,0.158],
    [9523,"urn:WaterMeter:MC0203J22010600005","2024-01-20T01:15:00",10.699,28.342817,0.165],
    [9524,"urn:WaterMeter:MC0203J22010600005","2024-01-20T01:30:00",10.699,28.333935,0.159],
    [9525,"urn:WaterMeter:MC0203J22010600005","2024-01-20T01:45:00",10.699,28.339754,0.16],
    [9526,"urn:WaterMeter:MC0203J22010600005","2024-01-20T02:00:00",10.8,28.354067,0.159],
    [9527,"urn:WaterMeter:MC0203J22010600005","2024-01-20T02:15:00",10.8,28.328892,0.159],
    [9528,"urn:WaterMeter:MC0203J22010600005","2024-01-20T02:30:00",10.8,28.426256,0.16],
    [9529,"urn:WaterMeter:MC0203J22010600005","2024-01-20T02:45:00",10.8,28.35523,0.162],
    [9530,"urn:WaterMeter:MC0203J22010600005","2024-01-20T03:00:00",10.8,28.37195,0.152],
    [9531,"urn:WaterMeter:MC0203J22010600005","2024-01-20T03:15:00",10.8,28.3479,0.153],
    [9532,"urn:WaterMeter:MC0203J22010600005","2024-01-20T03:30:00",10.8,28.32191,0.159],
    [9533,"urn:WaterMeter:MC0203J22010600005","2024-01-20T03:45:00",10.8,28.37001,0.16],
    [9534,"urn:WaterMeter:MC0203J22010600005","2024-01-20T04:00:00",10.8,28.339365,0.158],
    [9535,"urn:WaterMeter:MC0203J22010600005","2024-01-20T04:15:00",10.8,28.341305,0.161],
    [9536,"urn:WaterMeter:MC0203J22010600005","2024-01-20T04:30:00",10.8,28.368458,0.155],
    [9537,"urn:WaterMeter:MC0203J22010600005","2024-01-20T04:45:00",10.8,28.331995,0.159],
    [9538,"urn:WaterMeter:MC0203J22010600005","2024-01-20T05:00:00",10.8,28.37195,0.159],
    [9539,"urn:WaterMeter:MC0203J22010600005","2024-01-20T05:15:00",10.8,28.312212,0.157],
    [9540,"urn:WaterMeter:MC0203J22010600005","2024-01-20T05:30:00",10.8,28.316868,0.153],
    [9541,"urn:WaterMeter:MC0203J22010600005","2024-01-20T05:45:00",10.899,28.307945,0.153],
    [9542,"urn:WaterMeter:MC0203J22010600005","2024-01-20T06:00:00",10.899,28.311438,0.159],
    [9543,"urn:WaterMeter:MC0203J22010600005","2024-01-20T06:15:00",10.899,28.305967,0.153],
    [9544,"urn:WaterMeter:MC0203J22010600005","2024-01-20T06:30:00",10.899,28.307945,0.148],
    [9545,"urn:WaterMeter:MC0203J22010600005","2024-01-20T06:45:00",10.899,28.280792,0.159],
    [9546,"urn:WaterMeter:MC0203J22010600005","2024-01-20T07:00:00",10.899,28.325363,0.151],
    [9547,"urn:WaterMeter:MC0203J22010600005","2024-01-20T07:15:00",10.8,28.313765,0.155],
    [9548,"urn:WaterMeter:MC0203J22010600005","2024-01-20T07:30:00",10.8,28.319582,0.157],
    [9549,"urn:WaterMeter:MC0203J22010600005","2024-01-20T07:45:00",10.8,28.318031,0.153],
    [9550,"urn:WaterMeter:MC0203J22010600005","2024-01-20T08:00:00",10.899,28.328117,0.157],
    [9551,"urn:WaterMeter:MC0203J22010600005","2024-01-20T08:15:00",10.899,28.289326,0.153],
    [9552,"urn:WaterMeter:MC0203J22010600005","2024-01-20T08:30:00",10.899,28.245455,0.153],
    [9553,"urn:WaterMeter:MC0203J22010600005","2024-01-20T08:45:00",11,28.320747,0.159],
    [9554,"urn:WaterMeter:MC0203J22010600005","2024-01-20T09:00:00",11,28.322298,0.152],
    [9555,"urn:WaterMeter:MC0203J22010600005","2024-01-20T09:15:00",11,28.267565,0.156],
    [9556,"urn:WaterMeter:MC0203J22010600005","2024-01-20T09:30:00",11.1,28.285797,0.15],
    [9557,"urn:WaterMeter:MC0203J22010600005","2024-01-20T09:45:00",11.1,28.279242,0.158],
    [9558,"urn:WaterMeter:MC0203J22010600005","2024-01-20T10:00:00",11.1,28.26101,0.154],
    [9559,"urn:WaterMeter:MC0203J22010600005","2024-01-20T10:15:00",11.1,28.251312,0.154],
    [9560,"urn:WaterMeter:MC0203J22010600005","2024-01-20T10:30:00",11.199,28.297472,0.157],
    [9561,"urn:WaterMeter:MC0203J22010600005","2024-01-20T10:45:00",11.199,28.255192,0.156],
    [9562,"urn:WaterMeter:MC0203J22010600005","2024-01-20T11:00:00",11.3,28.272259,0.163],
    [9563,"urn:WaterMeter:MC0203J22010600005","2024-01-20T11:15:00",11.399,28.232306,0.15],
    [9564,"urn:WaterMeter:MC0203J22010600005","2024-01-20T11:30:00",11.6,28.255968,0.156],
    [9565,"urn:WaterMeter:MC0203J22010600005","2024-01-20T11:45:00",11.699,28.21869,0.155],
    [9566,"urn:WaterMeter:MC0203J22010600005","2024-01-20T12:00:00",11.8,28.238861,0.152],
    [9567,"urn:WaterMeter:MC0203J22010600005","2024-01-20T12:15:00",11.899,28.216402,0.15],
    [9568,"urn:WaterMeter:MC0203J22010600005","2024-01-20T12:30:00",11.899,28.200497,0.157],
    [9569,"urn:WaterMeter:MC0203J22010600005","2024-01-20T12:45:00",12,28.202826,0.162],
    [9570,"urn:WaterMeter:MC0203J22010600005","2024-01-20T13:00:00",12.1,28.21869,0.151],
    [9571,"urn:WaterMeter:MC0203J22010600005","2024-01-20T13:15:00",12.199,28.15744,0.15],
    [9572,"urn:WaterMeter:MC0203J22010600005","2024-01-20T13:30:00",12.3,28.15042,0.158],
    [9573,"urn:WaterMeter:MC0203J22010600005","2024-01-20T13:45:00",12.399,28.154726,0.161],
    [9574,"urn:WaterMeter:MC0203J22010600005","2024-01-20T14:00:00",12.399,28.12602,0.156],
    [9575,"urn:WaterMeter:MC0203J22010600005","2024-01-20T14:15:00",12.5,28.104298,0.156],
    [9576,"urn:WaterMeter:MC0203J22010600005","2024-01-20T14:30:00",12.5,28.107014,0.159],
    [9577,"urn:WaterMeter:MC0203J22010600005","2024-01-20T14:45:00",12.5,28.103096,0.156],
    [9578,"urn:WaterMeter:MC0203J22010600005","2024-01-20T15:00:00",12.5,28.0934,0.16],
    [9579,"urn:WaterMeter:MC0203J22010600005","2024-01-20T15:15:00",12.399,28.074818,0.155],
    [9580,"urn:WaterMeter:MC0203J22010600005","2024-01-20T15:30:00",12.399,28.09301,0.157],
    [9581,"urn:WaterMeter:MC0203J22010600005","2024-01-20T15:45:00",12.3,28.104687,0.156],
    [9582,"urn:WaterMeter:MC0203J22010600005","2024-01-20T16:00:00",12.199,28.078697,0.159],
    [9583,"urn:WaterMeter:MC0203J22010600005","2024-01-20T16:15:00",12.1,28.089907,0.154],
    [9584,"urn:WaterMeter:MC0203J22010600005","2024-01-20T16:30:00",12,28.074003,0.157],
    [9585,"urn:WaterMeter:MC0203J22010600005","2024-01-20T16:45:00",11.899,28.05581,0.162],
    [9586,"urn:WaterMeter:MC0203J22010600005","2024-01-20T17:00:00",11.8,28.081411,0.16],
    [9587,"urn:WaterMeter:MC0203J22010600005","2024-01-20T17:15:00",11.8,28.051117,0.157],
    [9588,"urn:WaterMeter:MC0203J22010600005","2024-01-20T17:30:00",11.699,28.049217,0.154],
    [9589,"urn:WaterMeter:MC0203J22010600005","2024-01-20T17:45:00",11.6,28.055035,0.161],
    [9590,"urn:WaterMeter:MC0203J22010600005","2024-01-20T18:00:00",11.6,28.071287,0.151],
    [9591,"urn:WaterMeter:MC0203J22010600005","2024-01-20T18:15:00",11.5,28.08215,0.161],
    [9592,"urn:WaterMeter:MC0203J22010600005","2024-01-20T18:30:00",11.5,28.068224,0.157],
    [9593,"urn:WaterMeter:MC0203J22010600005","2024-01-20T18:45:00",11.5,28.051893,0.157],
    [9594,"urn:WaterMeter:MC0203J22010600005","2024-01-20T19:00:00",11.399,28.05969,0.15],
    [9595,"urn:WaterMeter:MC0203J22010600005","2024-01-20T19:15:00",11.399,28.090683,0.154],
    [9596,"urn:WaterMeter:MC0203J22010600005","2024-01-20T19:30:00",11.399,28.045725,0.157],
    [9597,"urn:WaterMeter:MC0203J22010600005","2024-01-20T19:45:00",11.3,28.05038,0.157],
    [9598,"urn:WaterMeter:MC0203J22010600005","2024-01-20T20:00:00",11.3,28.036804,0.154],
    [9599,"urn:WaterMeter:MC0203J22010600005","2024-01-20T20:15:00",11.3,28.07637,0.155],
    [9600,"urn:WaterMeter:MC0203J22010600005","2024-01-20T20:30:00",11.3,28.046501,0.159],
    [9601,"urn:WaterMeter:MC0203J22010600005","2024-01-20T20:45:00",11.199,28.049604,0.162],
    [9602,"urn:WaterMeter:MC0203J22010600005","2024-01-20T21:00:00",11.199,28.025517,0.155],
    [9603,"urn:WaterMeter:MC0203J22010600005","2024-01-20T21:15:00",11.199,28.02827,0.154],
    [9604,"urn:WaterMeter:MC0203J22010600005","2024-01-20T21:30:00",11.199,28.017408,0.151],
    [9605,"urn:WaterMeter:MC0203J22010600005","2024-01-20T21:45:00",11.199,28.019348,0.153],
    [9606,"urn:WaterMeter:MC0203J22010600005","2024-01-20T22:00:00",11.199,28.076757,0.153],
    [9607,"urn:WaterMeter:MC0203J22010600005","2024-01-20T22:15:00",11.199,28.051506,0.156],
    [9608,"urn:WaterMeter:MC0203J22010600005","2024-01-20T22:30:00",11.199,28.044523,0.159],
    [9609,"urn:WaterMeter:MC0203J22010600005","2024-01-20T22:45:00",11.199,28.041847,0.157],
    [9610,"urn:WaterMeter:MC0203J22010600005","2024-01-20T23:00:00",11.199,28.068611,0.156],
    [9611,"urn:WaterMeter:MC0203J22010600005","2024-01-20T23:15:00",11.199,28.046114,0.155],
    [9612,"urn:WaterMeter:MC0203J22010600005","2024-01-20T23:30:00",11.1,28.030985,0.156],
    [9613,"urn:WaterMeter:MC0203J22010600005","2024-01-20T23:45:00",11.1,28.05038,0.155],
    [9614,"urn:WaterMeter:MC0203J22010600005","2024-01-21T00:00:00",11.1,28.008488,0.158],
    [9615,"urn:WaterMeter:MC0203J22010600005","2024-01-21T00:15:00",11.1,28.022839,0.149],
    [9616,"urn:WaterMeter:MC0203J22010600005","2024-01-21T00:30:00",11.1,28.039518,0.157],
    [9617,"urn:WaterMeter:MC0203J22010600005","2024-01-21T00:45:00",11.1,28.018572,0.157],
    [9618,"urn:WaterMeter:MC0203J22010600005","2024-01-21T01:00:00",11,28.037191,0.152],
    [9619,"urn:WaterMeter:MC0203J22010600005","2024-01-21T01:15:00",11,28.008099,0.162],
    [9620,"urn:WaterMeter:MC0203J22010600005","2024-01-21T01:30:00",11,28.024353,0.155],
    [9621,"urn:WaterMeter:MC0203J22010600005","2024-01-21T01:45:00",11,28.022064,0.154],
    [9622,"urn:WaterMeter:MC0203J22010600005","2024-01-21T02:00:00",10.899,28.040295,0.155],
    [9623,"urn:WaterMeter:MC0203J22010600005","2024-01-21T02:15:00",10.899,27.99526,0.157],
    [9624,"urn:WaterMeter:MC0203J22010600005","2024-01-21T02:30:00",10.899,28.02827,0.15],
    [9625,"urn:WaterMeter:MC0203J22010600005","2024-01-21T02:45:00",10.8,28.000729,0.152],
    [9626,"urn:WaterMeter:MC0203J22010600005","2024-01-21T03:00:00",10.8,28.002281,0.157],
    [9627,"urn:WaterMeter:MC0203J22010600005","2024-01-21T03:15:00",10.8,28.023615,0.157],
    [9628,"urn:WaterMeter:MC0203J22010600005","2024-01-21T03:30:00",10.8,27.984049,0.149],
    [9629,"urn:WaterMeter:MC0203J22010600005","2024-01-21T03:45:00",10.8,28.002281,0.159],
    [9630,"urn:WaterMeter:MC0203J22010600005","2024-01-21T04:00:00",10.8,28.040295,0.159],
    [9631,"urn:WaterMeter:MC0203J22010600005","2024-01-21T04:15:00",10.8,28.039518,0.15],
    [9632,"urn:WaterMeter:MC0203J22010600005","2024-01-21T04:30:00",10.8,28.007324,0.159],
    [9633,"urn:WaterMeter:MC0203J22010600005","2024-01-21T04:45:00",10.699,27.978619,0.163],
    [9634,"urn:WaterMeter:MC0203J22010600005","2024-01-21T05:00:00",10.699,27.996424,0.152],
    [9635,"urn:WaterMeter:MC0203J22010600005","2024-01-21T05:15:00",10.699,27.959612,0.156],
    [9636,"urn:WaterMeter:MC0203J22010600005","2024-01-21T05:30:00",10.6,28.017797,0.157],
    [9637,"urn:WaterMeter:MC0203J22010600005","2024-01-21T05:45:00",10.6,28.003056,0.151],
    [9638,"urn:WaterMeter:MC0203J22010600005","2024-01-21T06:00:00",10.5,27.989092,0.158],
    [9639,"urn:WaterMeter:MC0203J22010600005","2024-01-21T06:15:00",10.399,27.997625,0.152],
    [9640,"urn:WaterMeter:MC0203J22010600005","2024-01-21T06:30:00",10.399,28.017021,0.154],
    [9641,"urn:WaterMeter:MC0203J22010600005","2024-01-21T06:45:00",10.199,28.036028,0.154],
    [9642,"urn:WaterMeter:MC0203J22010600005","2024-01-21T07:00:00",10.1,28.023615,0.158],
    [9643,"urn:WaterMeter:MC0203J22010600005","2024-01-21T07:15:00",10,28.040682,0.154],
    [9644,"urn:WaterMeter:MC0203J22010600005","2024-01-21T07:30:00",9.8,28.022839,0.162],
    [9645,"urn:WaterMeter:MC0203J22010600005","2024-01-21T07:45:00",9.699,28.040682,0.159],
    [9646,"urn:WaterMeter:MC0203J22010600005","2024-01-21T08:00:00",9.699,28.034826,0.151],
    [9647,"urn:WaterMeter:MC0203J22010600005","2024-01-21T08:15:00",9.6,28.051893,0.153],
    [9648,"urn:WaterMeter:MC0203J22010600005","2024-01-21T08:30:00",9.699,28.000729,0.151],
    [9649,"urn:WaterMeter:MC0203J22010600005","2024-01-21T08:45:00",9.6,28.027494,0.149],
    [9650,"urn:WaterMeter:MC0203J22010600005","2024-01-21T09:00:00",9.699,28.02827,0.155],
    [9651,"urn:WaterMeter:MC0203J22010600005","2024-01-21T09:15:00",9.8,28.039907,0.15],
    [9652,"urn:WaterMeter:MC0203J22010600005","2024-01-21T09:30:00",10,28.075981,0.159],
    [9653,"urn:WaterMeter:MC0203J22010600005","2024-01-21T09:45:00",10.199,28.002668,0.154],
    [9654,"urn:WaterMeter:MC0203J22010600005","2024-01-21T10:00:00",10.5,28.025127,0.151],
    [9655,"urn:WaterMeter:MC0203J22010600005","2024-01-21T10:15:00",10.699,28.010426,0.154],
    [9656,"urn:WaterMeter:MC0203J22010600005","2024-01-21T10:30:00",10.899,27.973537,0.152],
    [9657,"urn:WaterMeter:MC0203J22010600005","2024-01-21T10:45:00",11.1,27.957245,0.15],
    [9658,"urn:WaterMeter:MC0203J22010600005","2024-01-21T11:00:00",11.399,27.897896,0.151],
    [9659,"urn:WaterMeter:MC0203J22010600005","2024-01-21T11:15:00",11.6,27.892506,0.146],
    [9660,"urn:WaterMeter:MC0203J22010600005","2024-01-21T11:30:00",11.699,27.877338,0.152],
    [9661,"urn:WaterMeter:MC0203J22010600005","2024-01-21T11:45:00",11.899,27.902203,0.147],
    [9662,"urn:WaterMeter:MC0203J22010600005","2024-01-21T12:00:00",12.199,27.887463,0.155],
    [9663,"urn:WaterMeter:MC0203J22010600005","2024-01-21T12:15:00",12.699,27.872334,0.148],
    [9664,"urn:WaterMeter:MC0203J22010600005","2024-01-21T12:30:00",13.199,27.851776,0.145],
    [9665,"urn:WaterMeter:MC0203J22010600005","2024-01-21T12:45:00",13.5,27.840488,0.147],
    [9666,"urn:WaterMeter:MC0203J22010600005","2024-01-21T13:00:00",13.699,27.774971,0.156],
    [9667,"urn:WaterMeter:MC0203J22010600005","2024-01-21T13:15:00",13.699,27.750534,0.144],
    [9668,"urn:WaterMeter:MC0203J22010600005","2024-01-21T13:30:00",13.8,27.757128,0.14],
    [9669,"urn:WaterMeter:MC0203J22010600005","2024-01-21T13:45:00",14,27.681488,0.147],
    [9670,"urn:WaterMeter:MC0203J22010600005","2024-01-21T14:00:00",13.8,27.652006,0.145],
    [9671,"urn:WaterMeter:MC0203J22010600005","2024-01-21T14:15:00",13.5,27.684164,0.153],
    [9672,"urn:WaterMeter:MC0203J22010600005","2024-01-21T14:30:00",13.3,27.64231,0.153],
    [9673,"urn:WaterMeter:MC0203J22010600005","2024-01-21T14:45:00",13.199,27.66985,0.145],
    [9674,"urn:WaterMeter:MC0203J22010600005","2024-01-21T15:00:00",13.1,27.62175,0.148],
    [9675,"urn:WaterMeter:MC0203J22010600005","2024-01-21T15:15:00",13.1,27.641533,0.155],
    [9676,"urn:WaterMeter:MC0203J22010600005","2024-01-21T15:30:00",13,27.648129,0.152],
    [9677,"urn:WaterMeter:MC0203J22010600005","2024-01-21T15:45:00",13,27.645761,0.15],
    [9678,"urn:WaterMeter:MC0203J22010600005","2024-01-21T16:00:00",13,27.637615,0.15],
    [9679,"urn:WaterMeter:MC0203J22010600005","2024-01-21T16:15:00",13,27.596926,0.156],
    [9680,"urn:WaterMeter:MC0203J22010600005","2024-01-21T16:30:00",12.899,27.563953,0.152],
    [9681,"urn:WaterMeter:MC0203J22010600005","2024-01-21T16:45:00",12.699,27.606972,0.148],
    [9682,"urn:WaterMeter:MC0203J22010600005","2024-01-21T17:00:00",12.6,27.609339,0.148],
    [9683,"urn:WaterMeter:MC0203J22010600005","2024-01-21T17:15:00",12.399,27.58296,0.152],
    [9684,"urn:WaterMeter:MC0203J22010600005","2024-01-21T17:30:00",12.199,27.622526,0.15],
    [9685,"urn:WaterMeter:MC0203J22010600005","2024-01-21T17:45:00",12,27.60895,0.148],
    [9686,"urn:WaterMeter:MC0203J22010600005","2024-01-21T18:00:00",11.8,27.634552,0.153],
    [9687,"urn:WaterMeter:MC0203J22010600005","2024-01-21T18:15:00",11.6,27.594986,0.155],
    [9688,"urn:WaterMeter:MC0203J22010600005","2024-01-21T18:30:00",11.399,27.638819,0.15],
    [9689,"urn:WaterMeter:MC0203J22010600005","2024-01-21T18:45:00",11.3,27.63684,0.152],
    [9690,"urn:WaterMeter:MC0203J22010600005","2024-01-21T19:00:00",11.199,27.61089,0.15],
    [9691,"urn:WaterMeter:MC0203J22010600005","2024-01-21T19:15:00",11,27.611277,0.154],
    [9692,"urn:WaterMeter:MC0203J22010600005","2024-01-21T19:30:00",10.899,27.60542,0.15],
    [9693,"urn:WaterMeter:MC0203J22010600005","2024-01-21T19:45:00",10.8,27.6202,0.15],
    [9694,"urn:WaterMeter:MC0203J22010600005","2024-01-21T20:00:00",10.699,27.639982,0.154],
    [9695,"urn:WaterMeter:MC0203J22010600005","2024-01-21T20:15:00",10.5,27.614769,0.152],
    [9696,"urn:WaterMeter:MC0203J22010600005","2024-01-21T20:30:00",10.399,27.650455,0.149],
    [9697,"urn:WaterMeter:MC0203J22010600005","2024-01-21T20:45:00",10.3,27.651232,0.155],
    [9698,"urn:WaterMeter:MC0203J22010600005","2024-01-21T21:00:00",10.1,27.636065,0.152],
    [9699,"urn:WaterMeter:MC0203J22010600005","2024-01-21T21:15:00",10,27.622139,0.154],
    [9700,"urn:WaterMeter:MC0203J22010600005","2024-01-21T21:30:00",9.8,27.651232,0.157],
    [9701,"urn:WaterMeter:MC0203J22010600005","2024-01-21T21:45:00",9.699,27.658989,0.154],
    [9702,"urn:WaterMeter:MC0203J22010600005","2024-01-21T22:00:00",9.6,27.648129,0.154],
    [9703,"urn:WaterMeter:MC0203J22010600005","2024-01-21T22:15:00",9.399,27.685328,0.153],
    [9704,"urn:WaterMeter:MC0203J22010600005","2024-01-21T22:30:00",9.3,27.634163,0.16],
    [9705,"urn:WaterMeter:MC0203J22010600005","2024-01-21T22:45:00",9.199,27.684551,0.148],
    [9706,"urn:WaterMeter:MC0203J22010600005","2024-01-21T23:00:00",9,27.63684,0.145],
    [9707,"urn:WaterMeter:MC0203J22010600005","2024-01-21T23:15:00",8.899,27.695414,0.155],
    [9708,"urn:WaterMeter:MC0203J22010600005","2024-01-21T23:30:00",8.699,27.676832,0.145],
    [9709,"urn:WaterMeter:MC0203J22010600005","2024-01-21T23:45:00",8.6,27.72532,0.155],
    [9710,"urn:WaterMeter:MC0203J22010600005","2024-01-22T00:00:00",8.6,27.679935,0.149],
    [9711,"urn:WaterMeter:MC0203J22010600005","2024-01-22T00:15:00",8.399,27.744715,0.158],
    [9712,"urn:WaterMeter:MC0203J22010600005","2024-01-22T00:30:00",8.199,27.733427,0.154],
    [9713,"urn:WaterMeter:MC0203J22010600005","2024-01-22T00:45:00",8.1,27.73269,0.148],
    [9714,"urn:WaterMeter:MC0203J22010600005","2024-01-22T01:00:00",8,27.733427,0.153],
    [9715,"urn:WaterMeter:MC0203J22010600005","2024-01-22T01:15:00",7.8,27.745491,0.152],
    [9716,"urn:WaterMeter:MC0203J22010600005","2024-01-22T01:30:00",7.699,27.780363,0.155],
    [9717,"urn:WaterMeter:MC0203J22010600005","2024-01-22T01:45:00",7.599,27.767601,0.154],
    [9718,"urn:WaterMeter:MC0203J22010600005","2024-01-22T02:00:00",7.5,27.751698,0.147],
    [9719,"urn:WaterMeter:MC0203J22010600005","2024-01-22T02:15:00",7.4,27.76411,0.154],
    [9720,"urn:WaterMeter:MC0203J22010600005","2024-01-22T02:30:00",7.3,27.777298,0.157],
    [9721,"urn:WaterMeter:MC0203J22010600005","2024-01-22T02:45:00",7.199,27.774195,0.156],
    [9722,"urn:WaterMeter:MC0203J22010600005","2024-01-22T03:00:00",7.099,27.741184,0.144],
    [9723,"urn:WaterMeter:MC0203J22010600005","2024-01-22T03:15:00",7,27.774971,0.151],
    [9724,"urn:WaterMeter:MC0203J22010600005","2024-01-22T03:30:00",7,27.785057,0.159],
    [9725,"urn:WaterMeter:MC0203J22010600005","2024-01-22T03:45:00",6.9,27.78816,0.154],
    [9726,"urn:WaterMeter:MC0203J22010600005","2024-01-22T04:00:00",6.9,27.751698,0.153],
    [9727,"urn:WaterMeter:MC0203J22010600005","2024-01-22T04:15:00",6.8,27.77885,0.146],
    [9728,"urn:WaterMeter:MC0203J22010600005","2024-01-22T04:30:00",6.699,27.78428,0.152],
    [9729,"urn:WaterMeter:MC0203J22010600005","2024-01-22T04:45:00",6.699,27.760193,0.147],
    [9730,"urn:WaterMeter:MC0203J22010600005","2024-01-22T05:00:00",6.599,27.794754,0.152],
    [9731,"urn:WaterMeter:MC0203J22010600005","2024-01-22T05:15:00",6.599,27.770704,0.16],
    [9732,"urn:WaterMeter:MC0203J22010600005","2024-01-22T05:30:00",6.5,27.781527,0.152],
    [9733,"urn:WaterMeter:MC0203J22010600005","2024-01-22T05:45:00",6.5,27.769928,0.146],
    [9734,"urn:WaterMeter:MC0203J22010600005","2024-01-22T06:00:00",6.4,27.800533,0.149],
    [9735,"urn:WaterMeter:MC0203J22010600005","2024-01-22T06:15:00",6.3,27.808718,0.145],
    [9736,"urn:WaterMeter:MC0203J22010600005","2024-01-22T06:30:00",6.3,27.794367,0.16],
    [9737,"urn:WaterMeter:MC0203J22010600005","2024-01-22T06:45:00",6.3,27.79747,0.153],
    [9738,"urn:WaterMeter:MC0203J22010600005","2024-01-22T07:00:00",6.3,27.821093,0.144],
    [9739,"urn:WaterMeter:MC0203J22010600005","2024-01-22T07:15:00",6.4,27.797857,0.149],
    [9740,"urn:WaterMeter:MC0203J22010600005","2024-01-22T07:30:00",6.4,27.79553,0.151],
    [9741,"urn:WaterMeter:MC0203J22010600005","2024-01-22T07:45:00",6.4,27.793978,0.151],
    [9742,"urn:WaterMeter:MC0203J22010600005","2024-01-22T08:00:00",6.4,27.805614,0.156],
    [9743,"urn:WaterMeter:MC0203J22010600005","2024-01-22T08:15:00",6.5,27.790874,0.143],
    [9744,"urn:WaterMeter:MC0203J22010600005","2024-01-22T08:30:00",6.599,27.764498,0.15],
    [9745,"urn:WaterMeter:MC0203J22010600005","2024-01-22T08:45:00",6.699,27.800922,0.147],
    [9746,"urn:WaterMeter:MC0203J22010600005","2024-01-22T09:00:00",6.9,27.782303,0.151],
    [9747,"urn:WaterMeter:MC0203J22010600005","2024-01-22T09:15:00",7.3,27.778461,0.148],
    [9748,"urn:WaterMeter:MC0203J22010600005","2024-01-22T09:30:00",7.599,27.76605,0.145],
    [9749,"urn:WaterMeter:MC0203J22010600005","2024-01-22T09:45:00",7.9,27.74196,0.151],
    [9750,"urn:WaterMeter:MC0203J22010600005","2024-01-22T10:00:00",8.199,27.724117,0.143],
    [9751,"urn:WaterMeter:MC0203J22010600005","2024-01-22T10:15:00",8.6,27.6958,0.148],
    [9752,"urn:WaterMeter:MC0203J22010600005","2024-01-22T10:30:00",9,27.684551,0.146],
    [9753,"urn:WaterMeter:MC0203J22010600005","2024-01-22T10:45:00",9.399,27.682611,0.146],
    [9754,"urn:WaterMeter:MC0203J22010600005","2024-01-22T11:00:00",9.899,27.60542,0.141],
    [9755,"urn:WaterMeter:MC0203J22010600005","2024-01-22T11:15:00",10.399,27.571323,0.138],
    [9756,"urn:WaterMeter:MC0203J22010600005","2024-01-22T11:30:00",11,27.539476,0.147],
    [9757,"urn:WaterMeter:MC0203J22010600005","2024-01-22T11:45:00",11.3,27.5368,0.15],
    [9758,"urn:WaterMeter:MC0203J22010600005","2024-01-22T12:00:00",11.699,27.488663,0.138],
    [9759,"urn:WaterMeter:MC0203J22010600005","2024-01-22T12:15:00",11.899,27.475124,0.15],
    [9760,"urn:WaterMeter:MC0203J22010600005","2024-01-22T12:30:00",12.3,27.420431,0.147],
    [9761,"urn:WaterMeter:MC0203J22010600005","2024-01-22T12:45:00",12.6,27.408405,0.147],
    [9762,"urn:WaterMeter:MC0203J22010600005","2024-01-22T13:00:00",12.8,27.37462,0.141],
    [9763,"urn:WaterMeter:MC0203J22010600005","2024-01-22T13:15:00",12.899,27.345915,0.142],
    [9764,"urn:WaterMeter:MC0203J22010600005","2024-01-22T13:30:00",12.899,27.334278,0.14],
    [9765,"urn:WaterMeter:MC0203J22010600005","2024-01-22T13:45:00",12.8,27.266047,0.138],
    [9766,"urn:WaterMeter:MC0203J22010600005","2024-01-22T14:00:00",12.699,27.26756,0.148],
    [9767,"urn:WaterMeter:MC0203J22010600005","2024-01-22T14:15:00",12.6,27.271866,0.144],
    [9768,"urn:WaterMeter:MC0203J22010600005","2024-01-22T14:30:00",12.6,27.240833,0.146],
    [9769,"urn:WaterMeter:MC0203J22010600005","2024-01-22T14:45:00",12.5,27.194674,0.147],
    [9770,"urn:WaterMeter:MC0203J22010600005","2024-01-22T15:00:00",12.5,27.200453,0.147],
    [9771,"urn:WaterMeter:MC0203J22010600005","2024-01-22T15:15:00",12.5,27.176054,0.142],
    [9772,"urn:WaterMeter:MC0203J22010600005","2024-01-22T15:30:00",12.5,27.142656,0.138],
    [9773,"urn:WaterMeter:MC0203J22010600005","2024-01-22T15:45:00",12.5,27.210537,0.147],
    [9774,"urn:WaterMeter:MC0203J22010600005","2024-01-22T16:00:00",12.699,27.154718,0.147],
    [9775,"urn:WaterMeter:MC0203J22010600005","2024-01-22T16:15:00",12.699,27.122484,0.144],
    [9776,"urn:WaterMeter:MC0203J22010600005","2024-01-22T16:30:00",12.699,27.100761,0.144],
    [9777,"urn:WaterMeter:MC0203J22010600005","2024-01-22T16:45:00",12.6,27.125628,0.148],
    [9778,"urn:WaterMeter:MC0203J22010600005","2024-01-22T17:00:00",12.5,27.128342,0.15],
    [9779,"urn:WaterMeter:MC0203J22010600005","2024-01-22T17:15:00",12.399,27.129505,0.143],
    [9780,"urn:WaterMeter:MC0203J22010600005","2024-01-22T17:30:00",12.199,27.081367,0.147],
    [9781,"urn:WaterMeter:MC0203J22010600005","2024-01-22T17:45:00",12,27.094168,0.148],
    [9782,"urn:WaterMeter:MC0203J22010600005","2024-01-22T18:00:00",11.8,27.090328,0.15],
    [9783,"urn:WaterMeter:MC0203J22010600005","2024-01-22T18:15:00",11.6,27.098475,0.148],
    [9784,"urn:WaterMeter:MC0203J22010600005","2024-01-22T18:30:00",11.5,27.093391,0.148],
    [9785,"urn:WaterMeter:MC0203J22010600005","2024-01-22T18:45:00",11.3,27.057356,0.148],
    [9786,"urn:WaterMeter:MC0203J22010600005","2024-01-22T19:00:00",11.1,27.107782,0.144],
    [9787,"urn:WaterMeter:MC0203J22010600005","2024-01-22T19:15:00",11,27.087225,0.149],
    [9788,"urn:WaterMeter:MC0203J22010600005","2024-01-22T19:30:00",10.8,27.110111,0.146],
    [9789,"urn:WaterMeter:MC0203J22010600005","2024-01-22T19:45:00",10.699,27.081755,0.147],
    [9790,"urn:WaterMeter:MC0203J22010600005","2024-01-22T20:00:00",10.5,27.15274,0.149],
    [9791,"urn:WaterMeter:MC0203J22010600005","2024-01-22T20:15:00",10.399,27.115541,0.153],
    [9792,"urn:WaterMeter:MC0203J22010600005","2024-01-22T20:30:00",10.199,27.145409,0.146],
    [9793,"urn:WaterMeter:MC0203J22010600005","2024-01-22T20:45:00",10.199,27.138039,0.146],
    [9794,"urn:WaterMeter:MC0203J22010600005","2024-01-22T21:00:00",10.199,27.161274,0.151],
    [9795,"urn:WaterMeter:MC0203J22010600005","2024-01-22T21:15:00",10.199,27.15119,0.147],
    [9796,"urn:WaterMeter:MC0203J22010600005","2024-01-22T21:30:00",10.3,27.132957,0.141],
    [9797,"urn:WaterMeter:MC0203J22010600005","2024-01-22T21:45:00",10.3,27.150064,0.144],
    [9798,"urn:WaterMeter:MC0203J22010600005","2024-01-22T22:00:00",10.399,27.17295,0.146],
    [9799,"urn:WaterMeter:MC0203J22010600005","2024-01-22T22:15:00",10.5,27.098085,0.145],
    [9800,"urn:WaterMeter:MC0203J22010600005","2024-01-22T22:30:00",10.5,27.117868,0.147],
    [9801,"urn:WaterMeter:MC0203J22010600005","2024-01-22T22:45:00",10.5,27.138428,0.142],
    [9802,"urn:WaterMeter:MC0203J22010600005","2024-01-22T23:00:00",10.5,27.149288,0.149],
    [9803,"urn:WaterMeter:MC0203J22010600005","2024-01-22T23:15:00",10.5,27.117868,0.149],
    [9804,"urn:WaterMeter:MC0203J22010600005","2024-01-22T23:30:00",10.5,27.075975,0.142],
    [9805,"urn:WaterMeter:MC0203J22010600005","2024-01-22T23:45:00",10.5,27.109335,0.143],
    [9806,"urn:WaterMeter:MC0203J22010600005","2024-01-23T00:00:00",10.399,27.119032,0.145],
    [9807,"urn:WaterMeter:MC0203J22010600005","2024-01-23T00:15:00",10.399,27.077139,0.143],
    [9808,"urn:WaterMeter:MC0203J22010600005","2024-01-23T00:30:00",10.399,27.081755,0.15],
    [9809,"urn:WaterMeter:MC0203J22010600005","2024-01-23T00:45:00",10.399,27.066278,0.146],
    [9810,"urn:WaterMeter:MC0203J22010600005","2024-01-23T01:00:00",10.399,27.103865,0.145],
    [9811,"urn:WaterMeter:MC0203J22010600005","2024-01-23T01:15:00",10.399,27.070156,0.147],
    [9812,"urn:WaterMeter:MC0203J22010600005","2024-01-23T01:30:00",10.399,27.078302,0.149],
    [9813,"urn:WaterMeter:MC0203J22010600005","2024-01-23T01:45:00",10.399,27.11395,0.141],
    [9814,"urn:WaterMeter:MC0203J22010600005","2024-01-23T02:00:00",10.399,27.025122,0.144],
    [9815,"urn:WaterMeter:MC0203J22010600005","2024-01-23T02:15:00",10.399,27.091103,0.144],
    [9816,"urn:WaterMeter:MC0203J22010600005","2024-01-23T02:30:00",10.3,27.061972,0.143],
    [9817,"urn:WaterMeter:MC0203J22010600005","2024-01-23T02:45:00",10.199,27.06589,0.146],
    [9818,"urn:WaterMeter:MC0203J22010600005","2024-01-23T03:00:00",10.1,27.01973,0.144],
    [9819,"urn:WaterMeter:MC0203J22010600005","2024-01-23T03:15:00",10,27.022833,0.148],
    [9820,"urn:WaterMeter:MC0203J22010600005","2024-01-23T03:30:00",9.899,27.052702,0.145],
    [9821,"urn:WaterMeter:MC0203J22010600005","2024-01-23T03:45:00",9.8,27.081018,0.147],
    [9822,"urn:WaterMeter:MC0203J22010600005","2024-01-23T04:00:00",9.699,27.049599,0.144],
    [9823,"urn:WaterMeter:MC0203J22010600005","2024-01-23T04:15:00",9.699,27.050762,0.149],
    [9824,"urn:WaterMeter:MC0203J22010600005","2024-01-23T04:30:00",9.6,27.05852,0.141],
    [9825,"urn:WaterMeter:MC0203J22010600005","2024-01-23T04:45:00",9.5,27.022833,0.148],
    [9826,"urn:WaterMeter:MC0203J22010600005","2024-01-23T05:00:00",9.5,27.040676,0.143],
    [9827,"urn:WaterMeter:MC0203J22010600005","2024-01-23T05:15:00",9.5,27.089552,0.148],
    [9828,"urn:WaterMeter:MC0203J22010600005","2024-01-23T05:30:00",9.5,27.071321,0.149],
    [9829,"urn:WaterMeter:MC0203J22010600005","2024-01-23T05:45:00",9.5,27.050762,0.142],
    [9830,"urn:WaterMeter:MC0203J22010600005","2024-01-23T06:00:00",9.6,27.026285,0.145],
    [9831,"urn:WaterMeter:MC0203J22010600005","2024-01-23T06:15:00",9.6,27.0399,0.148],
    [9832,"urn:WaterMeter:MC0203J22010600005","2024-01-23T06:30:00",9.5,27.029816,0.149],
    [9833,"urn:WaterMeter:MC0203J22010600005","2024-01-23T06:45:00",9.5,27.013136,0.141],
    [9834,"urn:WaterMeter:MC0203J22010600005","2024-01-23T07:00:00",9.6,27.050762,0.144],
    [9835,"urn:WaterMeter:MC0203J22010600005","2024-01-23T07:15:00",9.6,26.997581,0.141],
    [9836,"urn:WaterMeter:MC0203J22010600005","2024-01-23T07:30:00",9.6,27.020893,0.142],
    [9837,"urn:WaterMeter:MC0203J22010600005","2024-01-23T07:45:00",9.6,27.04184,0.145],
    [9838,"urn:WaterMeter:MC0203J22010600005","2024-01-23T08:00:00",9.6,27.005726,0.142],
    [9839,"urn:WaterMeter:MC0203J22010600005","2024-01-23T08:15:00",9.6,27.036371,0.147],
    [9840,"urn:WaterMeter:MC0203J22010600005","2024-01-23T08:30:00",9.699,27.009644,0.144],
    [9841,"urn:WaterMeter:MC0203J22010600005","2024-01-23T08:45:00",10,26.95724,0.149],
    [9842,"urn:WaterMeter:MC0203J22010600005","2024-01-23T09:00:00",10.199,27.018179,0.143],
    [9843,"urn:WaterMeter:MC0203J22010600005","2024-01-23T09:15:00",10.5,26.933228,0.144],
    [9844,"urn:WaterMeter:MC0203J22010600005","2024-01-23T09:30:00",10.8,26.957626,0.139],
    [9845,"urn:WaterMeter:MC0203J22010600005","2024-01-23T09:45:00",11,26.952236,0.137],
    [9846,"urn:WaterMeter:MC0203J22010600005","2024-01-23T10:00:00",11.3,26.909527,0.144],
    [9847,"urn:WaterMeter:MC0203J22010600005","2024-01-23T10:15:00",11.6,26.896765,0.138],
    [9848,"urn:WaterMeter:MC0203J22010600005","2024-01-23T10:30:00",12,26.850567,0.138],
    [9849,"urn:WaterMeter:MC0203J22010600005","2024-01-23T10:45:00",12.399,26.843624,0.139],
    [9850,"urn:WaterMeter:MC0203J22010600005","2024-01-23T11:00:00",12.8,26.827332,0.139],
    [9851,"urn:WaterMeter:MC0203J22010600005","2024-01-23T11:15:00",13.199,26.73152,0.133],
    [9852,"urn:WaterMeter:MC0203J22010600005","2024-01-23T11:30:00",13.5,26.768759,0.139],
    [9853,"urn:WaterMeter:MC0203J22010600005","2024-01-23T11:45:00",13.899,26.739666,0.136],
    [9854,"urn:WaterMeter:MC0203J22010600005","2024-01-23T12:00:00",14.3,26.682257,0.138],
    [9855,"urn:WaterMeter:MC0203J22010600005","2024-01-23T12:15:00",14.5,26.687687,0.133],
    [9856,"urn:WaterMeter:MC0203J22010600005","2024-01-23T12:30:00",14.8,26.650837,0.133],
    [9857,"urn:WaterMeter:MC0203J22010600005","2024-01-23T12:45:00",15.199,26.612823,0.136],
    [9858,"urn:WaterMeter:MC0203J22010600005","2024-01-23T13:00:00",15.3,26.55425,0.133],
    [9859,"urn:WaterMeter:MC0203J22010600005","2024-01-23T13:15:00",15.399,26.558477,0.138],
    [9860,"urn:WaterMeter:MC0203J22010600005","2024-01-23T13:30:00",15.5,26.552698,0.142],
    [9861,"urn:WaterMeter:MC0203J22010600005","2024-01-23T13:45:00",15.5,26.498005,0.143],
    [9862,"urn:WaterMeter:MC0203J22010600005","2024-01-23T14:00:00",15.5,26.466972,0.128],
    [9863,"urn:WaterMeter:MC0203J22010600005","2024-01-23T14:15:00",15.399,26.461502,0.14],
    [9864,"urn:WaterMeter:MC0203J22010600005","2024-01-23T14:30:00",15.3,26.446026,0.141],
    [9865,"urn:WaterMeter:MC0203J22010600005","2024-01-23T14:45:00",15.199,26.397926,0.139],
    [9866,"urn:WaterMeter:MC0203J22010600005","2024-01-23T15:00:00",15.1,26.368834,0.139],
    [9867,"urn:WaterMeter:MC0203J22010600005","2024-01-23T15:15:00",15.1,26.395172,0.147],
    [9868,"urn:WaterMeter:MC0203J22010600005","2024-01-23T15:30:00",15,26.34362,0.136],
    [9869,"urn:WaterMeter:MC0203J22010600005","2024-01-23T15:45:00",15,26.363016,0.141],
    [9870,"urn:WaterMeter:MC0203J22010600005","2024-01-23T16:00:00",14.899,26.318367,0.135],
    [9871,"urn:WaterMeter:MC0203J22010600005","2024-01-23T16:15:00",14.8,26.302504,0.145],
    [9872,"urn:WaterMeter:MC0203J22010600005","2024-01-23T16:30:00",14.699,26.317204,0.143],
    [9873,"urn:WaterMeter:MC0203J22010600005","2024-01-23T16:45:00",14.6,26.326126,0.144],
    [9874,"urn:WaterMeter:MC0203J22010600005","2024-01-23T17:00:00",14.5,26.324224,0.141],
    [9875,"urn:WaterMeter:MC0203J22010600005","2024-01-23T17:15:00",14.199,26.346685,0.134],
    [9876,"urn:WaterMeter:MC0203J22010600005","2024-01-23T17:30:00",14,26.272635,0.145],
    [9877,"urn:WaterMeter:MC0203J22010600005","2024-01-23T17:45:00",13.8,26.331594,0.144],
    [9878,"urn:WaterMeter:MC0203J22010600005","2024-01-23T18:00:00",13.5,26.317204,0.138],
    [9879,"urn:WaterMeter:MC0203J22010600005","2024-01-23T18:15:00",13.3,26.321121,0.145],
    [9880,"urn:WaterMeter:MC0203J22010600005","2024-01-23T18:30:00",13.1,26.331594,0.143],
    [9881,"urn:WaterMeter:MC0203J22010600005","2024-01-23T18:45:00",12.899,26.331207,0.138],
    [9882,"urn:WaterMeter:MC0203J22010600005","2024-01-23T19:00:00",12.699,26.322287,0.137],
    [9883,"urn:WaterMeter:MC0203J22010600005","2024-01-23T19:15:00",12.5,26.30673,0.14],
    [9884,"urn:WaterMeter:MC0203J22010600005","2024-01-23T19:30:00",12.399,26.359137,0.151],
    [9885,"urn:WaterMeter:MC0203J22010600005","2024-01-23T19:45:00",12.199,26.330431,0.146],
    [9886,"urn:WaterMeter:MC0203J22010600005","2024-01-23T20:00:00",12.1,26.364529,0.145],
    [9887,"urn:WaterMeter:MC0203J22010600005","2024-01-23T20:15:00",11.899,26.353317,0.142],
    [9888,"urn:WaterMeter:MC0203J22010600005","2024-01-23T20:30:00",11.699,26.350603,0.143],
    [9889,"urn:WaterMeter:MC0203J22010600005","2024-01-23T20:45:00",11.6,26.395948,0.143],
    [9890,"urn:WaterMeter:MC0203J22010600005","2024-01-23T21:00:00",11.399,26.353706,0.14],
    [9891,"urn:WaterMeter:MC0203J22010600005","2024-01-23T21:15:00",11.3,26.394785,0.148],
    [9892,"urn:WaterMeter:MC0203J22010600005","2024-01-23T21:30:00",11.199,26.353706,0.142],
    [9893,"urn:WaterMeter:MC0203J22010600005","2024-01-23T21:45:00",11,26.392107,0.139],
    [9894,"urn:WaterMeter:MC0203J22010600005","2024-01-23T22:00:00",10.899,26.425041,0.145],
    [9895,"urn:WaterMeter:MC0203J22010600005","2024-01-23T22:15:00",10.8,26.368057,0.144],
    [9896,"urn:WaterMeter:MC0203J22010600005","2024-01-23T22:30:00",10.699,26.352154,0.145],
    [9897,"urn:WaterMeter:MC0203J22010600005","2024-01-23T22:45:00",10.6,26.41189,0.144],
    [9898,"urn:WaterMeter:MC0203J22010600005","2024-01-23T23:00:00",10.5,26.384699,0.144],
    [9899,"urn:WaterMeter:MC0203J22010600005","2024-01-23T23:15:00",10.3,26.440207,0.142],
    [9900,"urn:WaterMeter:MC0203J22010600005","2024-01-23T23:30:00",10.199,26.414179,0.147],
    [9901,"urn:WaterMeter:MC0203J22010600005","2024-01-23T23:45:00",10.1,26.41926,0.144],
    [9902,"urn:WaterMeter:MC0203J22010600005","2024-01-24T00:00:00",10,26.394047,0.146],
    [9903,"urn:WaterMeter:MC0203J22010600005","2024-01-24T00:15:00",9.899,26.436716,0.142],
    [9904,"urn:WaterMeter:MC0203J22010600005","2024-01-24T00:30:00",9.899,26.414179,0.152],
    [9905,"urn:WaterMeter:MC0203J22010600005","2024-01-24T00:45:00",9.8,26.39172,0.136],
    [9906,"urn:WaterMeter:MC0203J22010600005","2024-01-24T01:00:00",9.8,26.446026,0.141],
    [9907,"urn:WaterMeter:MC0203J22010600005","2024-01-24T01:15:00",9.699,26.391333,0.148],
    [9908,"urn:WaterMeter:MC0203J22010600005","2024-01-24T01:30:00",9.6,26.381247,0.142],
    [9909,"urn:WaterMeter:MC0203J22010600005","2024-01-24T01:45:00",9.5,26.42663,0.15],
    [9910,"urn:WaterMeter:MC0203J22010600005","2024-01-24T02:00:00",9.399,26.382797,0.144],
    [9911,"urn:WaterMeter:MC0203J22010600005","2024-01-24T02:15:00",9.399,26.405645,0.142],
    [9912,"urn:WaterMeter:MC0203J22010600005","2024-01-24T02:30:00",9.199,26.42702,0.144],
    [9913,"urn:WaterMeter:MC0203J22010600005","2024-01-24T02:45:00",9.199,26.431673,0.141],
    [9914,"urn:WaterMeter:MC0203J22010600005","2024-01-24T03:00:00",9.1,26.448353,0.143],
    [9915,"urn:WaterMeter:MC0203J22010600005","2024-01-24T03:15:00",9.1,26.418486,0.142],
    [9916,"urn:WaterMeter:MC0203J22010600005","2024-01-24T03:30:00",9,26.412666,0.143],
    [9917,"urn:WaterMeter:MC0203J22010600005","2024-01-24T03:45:00",8.899,26.453745,0.14],
    [9918,"urn:WaterMeter:MC0203J22010600005","2024-01-24T04:00:00",8.8,26.453358,0.148],
    [9919,"urn:WaterMeter:MC0203J22010600005","2024-01-24T04:15:00",8.699,26.466972,0.145],
    [9920,"urn:WaterMeter:MC0203J22010600005","2024-01-24T04:30:00",8.699,26.479773,0.147],
    [9921,"urn:WaterMeter:MC0203J22010600005","2024-01-24T04:45:00",8.6,26.459215,0.142],
    [9922,"urn:WaterMeter:MC0203J22010600005","2024-01-24T05:00:00",8.5,26.442108,0.143],
    [9923,"urn:WaterMeter:MC0203J22010600005","2024-01-24T05:15:00",8.5,26.47124,0.145],
    [9924,"urn:WaterMeter:MC0203J22010600005","2024-01-24T05:30:00",8.399,26.466972,0.139],
    [9925,"urn:WaterMeter:MC0203J22010600005","2024-01-24T05:45:00",8.3,26.466196,0.143],
    [9926,"urn:WaterMeter:MC0203J22010600005","2024-01-24T06:00:00",8.199,26.454521,0.145],
    [9927,"urn:WaterMeter:MC0203J22010600005","2024-01-24T06:15:00",8.199,26.475506,0.144],
    [9928,"urn:WaterMeter:MC0203J22010600005","2024-01-24T06:30:00",8.1,26.455336,0.143],
    [9929,"urn:WaterMeter:MC0203J22010600005","2024-01-24T06:45:00",8.1,26.485592,0.142],
    [9930,"urn:WaterMeter:MC0203J22010600005","2024-01-24T07:00:00",8,26.499905,0.137],
    [9931,"urn:WaterMeter:MC0203J22010600005","2024-01-24T07:15:00",8,26.486368,0.144],
    [9932,"urn:WaterMeter:MC0203J22010600005","2024-01-24T07:30:00",8,26.461502,0.135],
    [9933,"urn:WaterMeter:MC0203J22010600005","2024-01-24T07:45:00",8,26.482061,0.145],
    [9934,"urn:WaterMeter:MC0203J22010600005","2024-01-24T08:00:00",8,26.483614,0.143],
    [9935,"urn:WaterMeter:MC0203J22010600005","2024-01-24T08:15:00",8,26.44913,0.143],
    [9936,"urn:WaterMeter:MC0203J22010600005","2024-01-24T08:30:00",8.1,26.484816,0.141],
    [9937,"urn:WaterMeter:MC0203J22010600005","2024-01-24T08:45:00",8.3,26.464218,0.135],
    [9938,"urn:WaterMeter:MC0203J22010600005","2024-01-24T09:00:00",8.5,26.47124,0.142],
    [9939,"urn:WaterMeter:MC0203J22010600005","2024-01-24T09:15:00",8.899,26.458826,0.147],
    [9940,"urn:WaterMeter:MC0203J22010600005","2024-01-24T09:30:00",9.3,26.414955,0.142],
    [9941,"urn:WaterMeter:MC0203J22010600005","2024-01-24T09:45:00",9.699,26.405258,0.137],
    [9942,"urn:WaterMeter:MC0203J22010600005","2024-01-24T10:00:00",10,26.408012,0.137],
    [9943,"urn:WaterMeter:MC0203J22010600005","2024-01-24T10:15:00",10.399,26.377756,0.141],
    [9944,"urn:WaterMeter:MC0203J22010600005","2024-01-24T10:30:00",10.8,26.344746,0.137],
    [9945,"urn:WaterMeter:MC0203J22010600005","2024-01-24T10:45:00",11.199,26.340517,0.136],
    [9946,"urn:WaterMeter:MC0203J22010600005","2024-01-24T11:00:00",11.6,26.29203,0.13],
    [9947,"urn:WaterMeter:MC0203J22010600005","2024-01-24T11:15:00",12,26.256731,0.135],
    [9948,"urn:WaterMeter:MC0203J22010600005","2024-01-24T11:30:00",12.5,26.249321,0.132],
    [9949,"urn:WaterMeter:MC0203J22010600005","2024-01-24T11:45:00",13,26.190361,0.134],
    [9950,"urn:WaterMeter:MC0203J22010600005","2024-01-24T12:00:00",13.399,26.202812,0.135],
    [9951,"urn:WaterMeter:MC0203J22010600005","2024-01-24T12:15:00",13.8,26.154713,0.134],
    [9952,"urn:WaterMeter:MC0203J22010600005","2024-01-24T12:30:00",14.1,26.127947,0.13],
    [9953,"urn:WaterMeter:MC0203J22010600005","2024-01-24T12:45:00",14.399,26.10739,0.132],
    [9954,"urn:WaterMeter:MC0203J22010600005","2024-01-24T13:00:00",14.6,26.102346,0.126],
    [9955,"urn:WaterMeter:MC0203J22010600005","2024-01-24T13:15:00",14.6,26.013517,0.131],
    [9956,"urn:WaterMeter:MC0203J22010600005","2024-01-24T13:30:00",14.699,26.034426,0.138],
    [9957,"urn:WaterMeter:MC0203J22010600005","2024-01-24T13:45:00",14.8,26.010414,0.13],
    [9958,"urn:WaterMeter:MC0203J22010600005","2024-01-24T14:00:00",14.8,25.989468,0.133],
    [9959,"urn:WaterMeter:MC0203J22010600005","2024-01-24T14:15:00",14.899,25.954168,0.132],
    [9960,"urn:WaterMeter:MC0203J22010600005","2024-01-24T14:30:00",14.899,25.952229,0.134],
    [9961,"urn:WaterMeter:MC0203J22010600005","2024-01-24T14:45:00",14.899,25.892492,0.131],
    [9962,"urn:WaterMeter:MC0203J22010600005","2024-01-24T15:00:00",14.899,25.8634,0.136],
    [9963,"urn:WaterMeter:MC0203J22010600005","2024-01-24T15:15:00",14.899,25.88551,0.133],
    [9964,"urn:WaterMeter:MC0203J22010600005","2024-01-24T15:30:00",14.899,25.882795,0.131],
    [9965,"urn:WaterMeter:MC0203J22010600005","2024-01-24T15:45:00",14.899,25.838573,0.136],
    [9966,"urn:WaterMeter:MC0203J22010600005","2024-01-24T16:00:00",14.899,25.804012,0.134],
    [9967,"urn:WaterMeter:MC0203J22010600005","2024-01-24T16:15:00",14.899,25.81918,0.131],
    [9968,"urn:WaterMeter:MC0203J22010600005","2024-01-24T16:30:00",14.899,25.811033,0.132],
    [9969,"urn:WaterMeter:MC0203J22010600005","2024-01-24T16:45:00",14.8,25.759443,0.135],
    [9970,"urn:WaterMeter:MC0203J22010600005","2024-01-24T17:00:00",14.699,25.763283,0.136],
    [9971,"urn:WaterMeter:MC0203J22010600005","2024-01-24T17:15:00",14.5,25.774532,0.134],
    [9972,"urn:WaterMeter:MC0203J22010600005","2024-01-24T17:30:00",14.3,25.766813,0.139],
    [9973,"urn:WaterMeter:MC0203J22010600005","2024-01-24T17:45:00",14.1,25.756727,0.135],
    [9974,"urn:WaterMeter:MC0203J22010600005","2024-01-24T18:00:00",13.899,25.779226,0.13],
    [9975,"urn:WaterMeter:MC0203J22010600005","2024-01-24T18:15:00",13.6,25.766813,0.132],
    [9976,"urn:WaterMeter:MC0203J22010600005","2024-01-24T18:30:00",13.399,25.790474,0.135],
    [9977,"urn:WaterMeter:MC0203J22010600005","2024-01-24T18:45:00",13.199,25.762506,0.138],
    [9978,"urn:WaterMeter:MC0203J22010600005","2024-01-24T19:00:00",13,25.747807,0.136],
    [9979,"urn:WaterMeter:MC0203J22010600005","2024-01-24T19:15:00",12.8,25.764446,0.135],
    [9980,"urn:WaterMeter:MC0203J22010600005","2024-01-24T19:30:00",12.6,25.798233,0.134],
    [9981,"urn:WaterMeter:MC0203J22010600005","2024-01-24T19:45:00",12.399,25.78423,0.137],
    [9982,"urn:WaterMeter:MC0203J22010600005","2024-01-24T20:00:00",12.199,25.78737,0.137],
    [9983,"urn:WaterMeter:MC0203J22010600005","2024-01-24T20:15:00",12.1,25.814913,0.138],
    [9984,"urn:WaterMeter:MC0203J22010600005","2024-01-24T20:30:00",11.899,25.74703,0.137],
    [9985,"urn:WaterMeter:MC0203J22010600005","2024-01-24T20:45:00",11.8,25.768364,0.139],
    [9986,"urn:WaterMeter:MC0203J22010600005","2024-01-24T21:00:00",11.699,25.76177,0.136],
    [9987,"urn:WaterMeter:MC0203J22010600005","2024-01-24T21:15:00",11.5,25.801685,0.139],
    [9988,"urn:WaterMeter:MC0203J22010600005","2024-01-24T21:30:00",11.399,25.786596,0.142],
    [9989,"urn:WaterMeter:MC0203J22010600005","2024-01-24T21:45:00",11.3,25.778837,0.137],
    [9990,"urn:WaterMeter:MC0203J22010600005","2024-01-24T22:00:00",11.199,25.820692,0.134],
    [9991,"urn:WaterMeter:MC0203J22010600005","2024-01-24T22:15:00",11.1,25.77302,0.139],
    [9992,"urn:WaterMeter:MC0203J22010600005","2024-01-24T22:30:00",11,25.776897,0.139],
    [9993,"urn:WaterMeter:MC0203J22010600005","2024-01-24T22:45:00",10.899,25.79668,0.134],
    [9994,"urn:WaterMeter:MC0203J22010600005","2024-01-24T23:00:00",10.8,25.790863,0.135],
    [9995,"urn:WaterMeter:MC0203J22010600005","2024-01-24T23:15:00",10.699,25.833881,0.139],
    [9996,"urn:WaterMeter:MC0203J22010600005","2024-01-24T23:30:00",10.6,25.790474,0.14],
    [9997,"urn:WaterMeter:MC0203J22010600005","2024-01-24T23:45:00",10.5,25.848272,0.134],
    [9998,"urn:WaterMeter:MC0203J22010600005","2024-01-25T00:00:00",10.399,25.823795,0.144],
    [9999,"urn:WaterMeter:MC0203J22010600005","2024-01-25T00:15:00",10.199,25.785393,0.136],
    [10000,"urn:WaterMeter:MC0203J22010600005","2024-01-25T00:30:00",10.1,25.880041,0.139],
    [10001,"urn:WaterMeter:MC0203J22010600005","2024-01-25T00:45:00",10,25.805603,0.143],
    [10002,"urn:WaterMeter:MC0203J22010600005","2024-01-25T01:00:00",9.899,25.801685,0.138],
    [10003,"urn:WaterMeter:MC0203J22010600005","2024-01-25T01:15:00",9.8,25.850212,0.138],
    [10004,"urn:WaterMeter:MC0203J22010600005","2024-01-25T01:30:00",9.8,25.861809,0.14],
    [10005,"urn:WaterMeter:MC0203J22010600005","2024-01-25T01:45:00",9.699,25.820343,0.141],
    [10006,"urn:WaterMeter:MC0203J22010600005","2024-01-25T02:00:00",9.699,25.82655,0.139],
    [10007,"urn:WaterMeter:MC0203J22010600005","2024-01-25T02:15:00",9.6,25.8378,0.14],
    [10008,"urn:WaterMeter:MC0203J22010600005","2024-01-25T02:30:00",9.5,25.871119,0.139],
    [10009,"urn:WaterMeter:MC0203J22010600005","2024-01-25T02:45:00",9.3,25.819956,0.138],
    [10010,"urn:WaterMeter:MC0203J22010600005","2024-01-25T03:00:00",9.199,25.8634,0.135],
    [10011,"urn:WaterMeter:MC0203J22010600005","2024-01-25T03:15:00",9.1,25.783842,0.136],
    [10012,"urn:WaterMeter:MC0203J22010600005","2024-01-25T03:30:00",9,25.842026,0.136],
    [10013,"urn:WaterMeter:MC0203J22010600005","2024-01-25T03:45:00",8.899,25.887838,0.139],
    [10014,"urn:WaterMeter:MC0203J22010600005","2024-01-25T04:00:00",8.8,25.8506,0.14],
    [10015,"urn:WaterMeter:MC0203J22010600005","2024-01-25T04:15:00",8.8,25.875036,0.142],
    [10016,"urn:WaterMeter:MC0203J22010600005","2024-01-25T04:30:00",8.699,25.866892,0.139],
    [10017,"urn:WaterMeter:MC0203J22010600005","2024-01-25T04:45:00",8.6,25.83198,0.141],
    [10018,"urn:WaterMeter:MC0203J22010600005","2024-01-25T05:00:00",8.5,25.861809,0.134],
    [10019,"urn:WaterMeter:MC0203J22010600005","2024-01-25T05:15:00",8.5,25.879265,0.139],
    [10020,"urn:WaterMeter:MC0203J22010600005","2024-01-25T05:30:00",8.399,25.862974,0.132],
    [10021,"urn:WaterMeter:MC0203J22010600005","2024-01-25T05:45:00",8.399,25.868055,0.138],
    [10022,"urn:WaterMeter:MC0203J22010600005","2024-01-25T06:00:00",8.3,25.872671,0.14],
    [10023,"urn:WaterMeter:MC0203J22010600005","2024-01-25T06:15:00",8.199,25.851376,0.147],
    [10024,"urn:WaterMeter:MC0203J22010600005","2024-01-25T06:30:00",8.199,25.878878,0.139],
    [10025,"urn:WaterMeter:MC0203J22010600005","2024-01-25T06:45:00",8.199,25.864176,0.133],
    [10026,"urn:WaterMeter:MC0203J22010600005","2024-01-25T07:00:00",8.1,25.881205,0.138],
    [10027,"urn:WaterMeter:MC0203J22010600005","2024-01-25T07:15:00",8.1,25.84866,0.142],
    [10028,"urn:WaterMeter:MC0203J22010600005","2024-01-25T07:30:00",8,25.8506,0.141],
    [10029,"urn:WaterMeter:MC0203J22010600005","2024-01-25T07:45:00",8,25.856419,0.137],
    [10030,"urn:WaterMeter:MC0203J22010600005","2024-01-25T08:00:00",7.9,25.88745,0.137],
    [10031,"urn:WaterMeter:MC0203J22010600005","2024-01-25T08:15:00",7.9,25.87465,0.14],
    [10032,"urn:WaterMeter:MC0203J22010600005","2024-01-25T08:30:00",7.9,25.861034,0.141],
    [10033,"urn:WaterMeter:MC0203J22010600005","2024-01-25T08:45:00",8.1,25.89288,0.135],
    [10034,"urn:WaterMeter:MC0203J22010600005","2024-01-25T09:00:00",8.399,25.860645,0.136],
    [10035,"urn:WaterMeter:MC0203J22010600005","2024-01-25T09:15:00",8.699,25.851376,0.134],
    [10036,"urn:WaterMeter:MC0203J22010600005","2024-01-25T09:30:00",9.1,25.812935,0.136],
    [10037,"urn:WaterMeter:MC0203J22010600005","2024-01-25T09:45:00",9.5,25.798233,0.135],
    [10038,"urn:WaterMeter:MC0203J22010600005","2024-01-25T10:00:00",10,25.807154,0.133],
    [10039,"urn:WaterMeter:MC0203J22010600005","2024-01-25T10:15:00",10.3,25.735004,0.135],
    [10040,"urn:WaterMeter:MC0203J22010600005","2024-01-25T10:30:00",10.699,25.74121,0.133],
    [10041,"urn:WaterMeter:MC0203J22010600005","2024-01-25T10:45:00",11.199,25.72488,0.131],
    [10042,"urn:WaterMeter:MC0203J22010600005","2024-01-25T11:00:00",11.699,25.657425,0.132],
    [10043,"urn:WaterMeter:MC0203J22010600005","2024-01-25T11:15:00",12.199,25.634928,0.13],
    [10044,"urn:WaterMeter:MC0203J22010600005","2024-01-25T11:30:00",12.699,25.614756,0.127],
    [10045,"urn:WaterMeter:MC0203J22010600005","2024-01-25T11:45:00",13.3,25.551489,0.132],
    [10046,"urn:WaterMeter:MC0203J22010600005","2024-01-25T12:00:00",13.8,25.580582,0.128],
    [10047,"urn:WaterMeter:MC0203J22010600005","2024-01-25T12:15:00",14.199,25.561575,0.129],
    [10048,"urn:WaterMeter:MC0203J22010600005","2024-01-25T12:30:00",14.5,25.49761,0.13],
    [10049,"urn:WaterMeter:MC0203J22010600005","2024-01-25T12:45:00",14.8,25.430504,0.128],
    [10050,"urn:WaterMeter:MC0203J22010600005","2024-01-25T13:00:00",15.1,25.427788,0.127],
    [10051,"urn:WaterMeter:MC0203J22010600005","2024-01-25T13:15:00",15.199,25.424297,0.129],
    [10052,"urn:WaterMeter:MC0203J22010600005","2024-01-25T13:30:00",15.3,25.362234,0.13],
    [10053,"urn:WaterMeter:MC0203J22010600005","2024-01-25T13:45:00",15.5,25.349821,0.129],
    [10054,"urn:WaterMeter:MC0203J22010600005","2024-01-25T14:00:00",15.5,25.314133,0.133],
    [10055,"urn:WaterMeter:MC0203J22010600005","2024-01-25T14:15:00",15.6,25.294352,0.125],
    [10056,"urn:WaterMeter:MC0203J22010600005","2024-01-25T14:30:00",15.6,25.248966,0.132],
    [10057,"urn:WaterMeter:MC0203J22010600005","2024-01-25T14:45:00",15.699,25.228407,0.141],
    [10058,"urn:WaterMeter:MC0203J22010600005","2024-01-25T15:00:00",15.699,25.19854,0.129],
    [10059,"urn:WaterMeter:MC0203J22010600005","2024-01-25T15:15:00",15.699,25.16867,0.136],
    [10060,"urn:WaterMeter:MC0203J22010600005","2024-01-25T15:30:00",15.699,25.156647,0.128],
    [10061,"urn:WaterMeter:MC0203J22010600005","2024-01-25T15:45:00",15.699,25.182209,0.132],
    [10062,"urn:WaterMeter:MC0203J22010600005","2024-01-25T16:00:00",15.699,25.13566,0.133],
    [10063,"urn:WaterMeter:MC0203J22010600005","2024-01-25T16:15:00",15.6,25.15428,0.13],
    [10064,"urn:WaterMeter:MC0203J22010600005","2024-01-25T16:30:00",15.5,25.108934,0.125],
    [10065,"urn:WaterMeter:MC0203J22010600005","2024-01-25T16:45:00",15.399,25.101952,0.132],
    [10066,"urn:WaterMeter:MC0203J22010600005","2024-01-25T17:00:00",15.199,25.105404,0.136],
    [10067,"urn:WaterMeter:MC0203J22010600005","2024-01-25T17:15:00",15,25.101952,0.128],
    [10068,"urn:WaterMeter:MC0203J22010600005","2024-01-25T17:30:00",14.699,25.083334,0.129],
    [10069,"urn:WaterMeter:MC0203J22010600005","2024-01-25T17:45:00",14.5,25.03791,0.143],
    [10070,"urn:WaterMeter:MC0203J22010600005","2024-01-25T18:00:00",14.199,25.091867,0.133],
    [10071,"urn:WaterMeter:MC0203J22010600005","2024-01-25T18:15:00",13.899,25.066614,0.131],
    [10072,"urn:WaterMeter:MC0203J22010600005","2024-01-25T18:30:00",13.699,25.090315,0.135],
    [10073,"urn:WaterMeter:MC0203J22010600005","2024-01-25T18:45:00",13.5,25.050362,0.13],
    [10074,"urn:WaterMeter:MC0203J22010600005","2024-01-25T19:00:00",13.3,25.057304,0.136],
    [10075,"urn:WaterMeter:MC0203J22010600005","2024-01-25T19:15:00",13.1,25.079842,0.133],
    [10076,"urn:WaterMeter:MC0203J22010600005","2024-01-25T19:30:00",13,25.088764,0.141],
    [10077,"urn:WaterMeter:MC0203J22010600005","2024-01-25T19:45:00",12.8,25.051525,0.135],
    [10078,"urn:WaterMeter:MC0203J22010600005","2024-01-25T20:00:00",12.6,25.101177,0.133],
    [10079,"urn:WaterMeter:MC0203J22010600005","2024-01-25T20:15:00",12.5,25.092642,0.131],
    [10080,"urn:WaterMeter:MC0203J22010600005","2024-01-25T20:30:00",12.399,25.11359,0.13],
    [10081,"urn:WaterMeter:MC0203J22010600005","2024-01-25T20:45:00",12.199,25.059671,0.13],
    [10082,"urn:WaterMeter:MC0203J22010600005","2024-01-25T21:00:00",12.1,25.053078,0.134],
    [10083,"urn:WaterMeter:MC0203J22010600005","2024-01-25T21:15:00",12,25.086397,0.136],
    [10084,"urn:WaterMeter:MC0203J22010600005","2024-01-25T21:30:00",11.899,25.116266,0.134],
    [10085,"urn:WaterMeter:MC0203J22010600005","2024-01-25T21:45:00",11.8,25.142256,0.134],
    [10086,"urn:WaterMeter:MC0203J22010600005","2024-01-25T22:00:00",11.699,25.09497,0.134],
    [10087,"urn:WaterMeter:MC0203J22010600005","2024-01-25T22:15:00",11.6,25.072472,0.134],
    [10088,"urn:WaterMeter:MC0203J22010600005","2024-01-25T22:30:00",11.5,25.119795,0.125],
    [10089,"urn:WaterMeter:MC0203J22010600005","2024-01-25T22:45:00",11.399,25.097685,0.13],
    [10090,"urn:WaterMeter:MC0203J22010600005","2024-01-25T23:00:00",11.3,25.079065,0.133],
    [10091,"urn:WaterMeter:MC0203J22010600005","2024-01-25T23:15:00",11.199,25.136087,0.134],
    [10092,"urn:WaterMeter:MC0203J22010600005","2024-01-25T23:30:00",11.1,25.110487,0.133],
    [10093,"urn:WaterMeter:MC0203J22010600005","2024-01-25T23:45:00",11,25.085234,0.131],
    [10094,"urn:WaterMeter:MC0203J22010600005","2024-01-26T00:00:00",10.899,25.088375,0.136],
    [10095,"urn:WaterMeter:MC0203J22010600005","2024-01-26T00:15:00",10.8,25.13182,0.134],
    [10096,"urn:WaterMeter:MC0203J22010600005","2024-01-26T00:30:00",10.699,25.128717,0.135],
    [10097,"urn:WaterMeter:MC0203J22010600005","2024-01-26T00:45:00",10.6,25.092642,0.137],
    [10098,"urn:WaterMeter:MC0203J22010600005","2024-01-26T01:00:00",10.6,25.100788,0.133],
    [10099,"urn:WaterMeter:MC0203J22010600005","2024-01-26T01:15:00",10.5,25.083683,0.13],
    [10100,"urn:WaterMeter:MC0203J22010600005","2024-01-26T01:30:00",10.5,25.12286,0.132],
    [10101,"urn:WaterMeter:MC0203J22010600005","2024-01-26T01:45:00",10.399,25.106567,0.134],
    [10102,"urn:WaterMeter:MC0203J22010600005","2024-01-26T02:00:00",10.399,25.120571,0.134],
    [10103,"urn:WaterMeter:MC0203J22010600005","2024-01-26T02:15:00",10.3,25.066614,0.13],
    [10104,"urn:WaterMeter:MC0203J22010600005","2024-01-26T02:30:00",10.199,25.100788,0.132],
    [10105,"urn:WaterMeter:MC0203J22010600005","2024-01-26T02:45:00",10.1,25.07829,0.132],
    [10106,"urn:WaterMeter:MC0203J22010600005","2024-01-26T03:00:00",10,25.117468,0.138],
    [10107,"urn:WaterMeter:MC0203J22010600005","2024-01-26T03:15:00",9.899,25.069757,0.131],
    [10108,"urn:WaterMeter:MC0203J22010600005","2024-01-26T03:30:00",9.8,25.12286,0.133],
    [10109,"urn:WaterMeter:MC0203J22010600005","2024-01-26T03:45:00",9.699,25.114365,0.133],
    [10110,"urn:WaterMeter:MC0203J22010600005","2024-01-26T04:00:00",9.699,25.09497,0.139],
    [10111,"urn:WaterMeter:MC0203J22010600005","2024-01-26T04:15:00",9.6,25.054628,0.131],
    [10112,"urn:WaterMeter:MC0203J22010600005","2024-01-26T04:30:00",9.5,25.101177,0.132],
    [10113,"urn:WaterMeter:MC0203J22010600005","2024-01-26T04:45:00",9.399,25.107384,0.133],
    [10114,"urn:WaterMeter:MC0203J22010600005","2024-01-26T05:00:00",9.3,25.11359,0.134],
    [10115,"urn:WaterMeter:MC0203J22010600005","2024-01-26T05:15:00",9.199,25.140354,0.134],
    [10116,"urn:WaterMeter:MC0203J22010600005","2024-01-26T05:30:00",9.199,25.115103,0.133],
    [10117,"urn:WaterMeter:MC0203J22010600005","2024-01-26T05:45:00",9.1,25.103466,0.137],
    [10118,"urn:WaterMeter:MC0203J22010600005","2024-01-26T06:00:00",9,25.09532,0.135],
    [10119,"urn:WaterMeter:MC0203J22010600005","2024-01-26T06:15:00",8.899,25.12286,0.132],
    [10120,"urn:WaterMeter:MC0203J22010600005","2024-01-26T06:30:00",8.899,25.123636,0.135],
    [10121,"urn:WaterMeter:MC0203J22010600005","2024-01-26T06:45:00",8.8,25.108158,0.136],
    [10122,"urn:WaterMeter:MC0203J22010600005","2024-01-26T07:00:00",8.699,25.102728,0.131],
    [10123,"urn:WaterMeter:MC0203J22010600005","2024-01-26T07:15:00",8.6,25.126778,0.125],
    [10124,"urn:WaterMeter:MC0203J22010600005","2024-01-26T07:30:00",8.6,25.141518,0.134],
    [10125,"urn:WaterMeter:MC0203J22010600005","2024-01-26T07:45:00",8.6,25.131044,0.13],
    [10126,"urn:WaterMeter:MC0203J22010600005","2024-01-26T08:00:00",8.5,25.117857,0.128],
    [10127,"urn:WaterMeter:MC0203J22010600005","2024-01-26T08:15:00",8.6,25.129494,0.135],
    [10128,"urn:WaterMeter:MC0203J22010600005","2024-01-26T08:30:00",8.6,25.128717,0.132],
    [10129,"urn:WaterMeter:MC0203J22010600005","2024-01-26T08:45:00",8.8,25.133371,0.13],
    [10130,"urn:WaterMeter:MC0203J22010600005","2024-01-26T09:00:00",9.1,25.112814,0.135],
    [10131,"urn:WaterMeter:MC0203J22010600005","2024-01-26T09:15:00",9.5,25.070532,0.133],
    [10132,"urn:WaterMeter:MC0203J22010600005","2024-01-26T09:30:00",9.899,25.108547,0.134],
    [10133,"urn:WaterMeter:MC0203J22010600005","2024-01-26T09:45:00",10.399,25.023985,0.128],
    [10134,"urn:WaterMeter:MC0203J22010600005","2024-01-26T10:00:00",10.699,25.036785,0.133],
    [10135,"urn:WaterMeter:MC0203J22010600005","2024-01-26T10:15:00",10.899,25.005753,0.126],
    [10136,"urn:WaterMeter:MC0203J22010600005","2024-01-26T10:30:00",11.199,24.95455,0.126],
    [10137,"urn:WaterMeter:MC0203J22010600005","2024-01-26T10:45:00",11.5,24.892836,0.131],
    [10138,"urn:WaterMeter:MC0203J22010600005","2024-01-26T11:00:00",12,24.983255,0.132],
    [10139,"urn:WaterMeter:MC0203J22010600005","2024-01-26T11:15:00",12.399,24.91576,0.126],
    [10140,"urn:WaterMeter:MC0203J22010600005","2024-01-26T11:30:00",13,24.903736,0.122],
    [10141,"urn:WaterMeter:MC0203J22010600005","2024-01-26T11:45:00",13.6,24.844736,0.125],
    [10142,"urn:WaterMeter:MC0203J22010600005","2024-01-26T12:00:00",14,24.795473,0.126],
    [10143,"urn:WaterMeter:MC0203J22010600005","2024-01-26T12:15:00",14.399,24.826931,0.127],
    [10144,"urn:WaterMeter:MC0203J22010600005","2024-01-26T12:30:00",14.8,24.722586,0.129],
    [10145,"urn:WaterMeter:MC0203J22010600005","2024-01-26T12:45:00",15.1,24.719095,0.112],
    [10146,"urn:WaterMeter:MC0203J22010600005","2024-01-26T13:00:00",15.399,24.730732,0.134],
    [10147,"urn:WaterMeter:MC0203J22010600005","2024-01-26T13:15:00",15.5,24.605053,0.126],
    [10148,"urn:WaterMeter:MC0203J22010600005","2024-01-26T13:30:00",15.6,24.670607,0.125],
    [10149,"urn:WaterMeter:MC0203J22010600005","2024-01-26T13:45:00",15.699,24.569366,0.138],
    [10150,"urn:WaterMeter:MC0203J22010600005","2024-01-26T14:00:00",15.699,24.553423,0.127],
    [10151,"urn:WaterMeter:MC0203J22010600005","2024-01-26T14:15:00",15.699,24.567814,0.125],
    [10152,"urn:WaterMeter:MC0203J22010600005","2024-01-26T14:30:00",15.8,24.562733,0.128],
    [10153,"urn:WaterMeter:MC0203J22010600005","2024-01-26T14:45:00",15.8,24.51855,0.126],
    [10154,"urn:WaterMeter:MC0203J22010600005","2024-01-26T15:00:00",15.8,24.440582,0.122],
    [10155,"urn:WaterMeter:MC0203J22010600005","2024-01-26T15:15:00",15.899,24.439419,0.129],
    [10156,"urn:WaterMeter:MC0203J22010600005","2024-01-26T15:30:00",15.899,24.442135,0.128],
    [10157,"urn:WaterMeter:MC0203J22010600005","2024-01-26T15:45:00",15.899,24.381622,0.124],
    [10158,"urn:WaterMeter:MC0203J22010600005","2024-01-26T16:00:00",15.899,24.363003,0.126],
    [10159,"urn:WaterMeter:MC0203J22010600005","2024-01-26T16:15:00",15.8,24.373863,0.121],
    [10160,"urn:WaterMeter:MC0203J22010600005","2024-01-26T16:30:00",15.699,24.350163,0.123],
    [10161,"urn:WaterMeter:MC0203J22010600005","2024-01-26T16:45:00",15.6,24.329992,0.128],
    [10162,"urn:WaterMeter:MC0203J22010600005","2024-01-26T17:00:00",15.399,24.326927,0.129],
    [10163,"urn:WaterMeter:MC0203J22010600005","2024-01-26T17:15:00",15.199,24.295897,0.13],
    [10164,"urn:WaterMeter:MC0203J22010600005","2024-01-26T17:30:00",15,24.301676,0.136],
    [10165,"urn:WaterMeter:MC0203J22010600005","2024-01-26T17:45:00",14.699,24.31335,0.126],
    [10166,"urn:WaterMeter:MC0203J22010600005","2024-01-26T18:00:00",14.399,24.32654,0.132],
    [10167,"urn:WaterMeter:MC0203J22010600005","2024-01-26T18:15:00",14.199,24.3118,0.135],
    [10168,"urn:WaterMeter:MC0203J22010600005","2024-01-26T18:30:00",14,24.3118,0.132],
    [10169,"urn:WaterMeter:MC0203J22010600005","2024-01-26T18:45:00",13.699,24.322273,0.127],
    [10170,"urn:WaterMeter:MC0203J22010600005","2024-01-26T19:00:00",13.5,24.322273,0.132],
    [10171,"urn:WaterMeter:MC0203J22010600005","2024-01-26T19:15:00",13.3,24.3246,0.126],
    [10172,"urn:WaterMeter:MC0203J22010600005","2024-01-26T19:30:00",13.1,24.286587,0.131],
    [10173,"urn:WaterMeter:MC0203J22010600005","2024-01-26T19:45:00",12.899,24.345936,0.138],
    [10174,"urn:WaterMeter:MC0203J22010600005","2024-01-26T20:00:00",12.699,24.283096,0.13],
    [10175,"urn:WaterMeter:MC0203J22010600005","2024-01-26T20:15:00",12.5,24.320295,0.129],
    [10176,"urn:WaterMeter:MC0203J22010600005","2024-01-26T20:30:00",12.399,24.283484,0.124],
    [10177,"urn:WaterMeter:MC0203J22010600005","2024-01-26T20:45:00",12.199,24.296284,0.128],
    [10178,"urn:WaterMeter:MC0203J22010600005","2024-01-26T21:00:00",12.1,24.310598,0.127],
    [10179,"urn:WaterMeter:MC0203J22010600005","2024-01-26T21:15:00",11.899,24.303267,0.129],
    [10180,"urn:WaterMeter:MC0203J22010600005","2024-01-26T21:30:00",11.8,24.300512,0.126],
    [10181,"urn:WaterMeter:MC0203J22010600005","2024-01-26T21:45:00",11.6,24.359861,0.129],
    [10182,"urn:WaterMeter:MC0203J22010600005","2024-01-26T22:00:00",11.5,24.30443,0.13],
    [10183,"urn:WaterMeter:MC0203J22010600005","2024-01-26T22:15:00",11.399,24.30827,0.129],
    [10184,"urn:WaterMeter:MC0203J22010600005","2024-01-26T22:30:00",11.3,24.300125,0.129],
    [10185,"urn:WaterMeter:MC0203J22010600005","2024-01-26T22:45:00",11.1,24.333523,0.135],
    [10186,"urn:WaterMeter:MC0203J22010600005","2024-01-26T23:00:00",11,24.321072,0.138],
    [10187,"urn:WaterMeter:MC0203J22010600005","2024-01-26T23:15:00",10.899,24.35796,0.129],
    [10188,"urn:WaterMeter:MC0203J22010600005","2024-01-26T23:30:00",10.8,24.309046,0.126],
    [10189,"urn:WaterMeter:MC0203J22010600005","2024-01-26T23:45:00",10.699,24.38007,0.127],
    [10190,"urn:WaterMeter:MC0203J22010600005","2024-01-27T00:00:00",10.6,24.368782,0.129],
    [10191,"urn:WaterMeter:MC0203J22010600005","2024-01-27T00:15:00",10.5,24.316843,0.129],
    [10192,"urn:WaterMeter:MC0203J22010600005","2024-01-27T00:30:00",10.399,24.385462,0.129],
    [10193,"urn:WaterMeter:MC0203J22010600005","2024-01-27T00:45:00",10.199,24.386238,0.129],
    [10194,"urn:WaterMeter:MC0203J22010600005","2024-01-27T01:00:00",10.1,24.306757,0.124],
    [10195,"urn:WaterMeter:MC0203J22010600005","2024-01-27T01:15:00",10,24.37076,0.124],
    [10196,"urn:WaterMeter:MC0203J22010600005","2024-01-27T01:30:00",9.899,24.37658,0.128],
    [10197,"urn:WaterMeter:MC0203J22010600005","2024-01-27T01:45:00",9.8,24.373089,0.127],
    [10198,"urn:WaterMeter:MC0203J22010600005","2024-01-27T02:00:00",9.8,24.360676,0.125],
    [10199,"urn:WaterMeter:MC0203J22010600005","2024-01-27T02:15:00",9.699,24.370373,0.127],
    [10200,"urn:WaterMeter:MC0203J22010600005","2024-01-27T02:30:00",9.6,24.35796,0.13],
    [10201,"urn:WaterMeter:MC0203J22010600005","2024-01-27T02:45:00",9.6,24.357183,0.128],
    [10202,"urn:WaterMeter:MC0203J22010600005","2024-01-27T03:00:00",9.5,24.39132,0.137],
    [10203,"urn:WaterMeter:MC0203J22010600005","2024-01-27T03:15:00",9.399,24.335073,0.128],
    [10204,"urn:WaterMeter:MC0203J22010600005","2024-01-27T03:30:00",9.399,24.328053,0.119],
    [10205,"urn:WaterMeter:MC0203J22010600005","2024-01-27T03:45:00",9.3,24.390156,0.13],
    [10206,"urn:WaterMeter:MC0203J22010600005","2024-01-27T04:00:00",9.3,24.35796,0.127],
    [10207,"urn:WaterMeter:MC0203J22010600005","2024-01-27T04:15:00",9.199,24.321886,0.129],
    [10208,"urn:WaterMeter:MC0203J22010600005","2024-01-27T04:30:00",9.199,24.333523,0.124],
    [10209,"urn:WaterMeter:MC0203J22010600005","2024-01-27T04:45:00",9.1,24.33236,0.127],
    [10210,"urn:WaterMeter:MC0203J22010600005","2024-01-27T05:00:00",9,24.368008,0.131],
    [10211,"urn:WaterMeter:MC0203J22010600005","2024-01-27T05:15:00",8.899,24.398262,0.129],
    [10212,"urn:WaterMeter:MC0203J22010600005","2024-01-27T05:30:00",8.8,24.3727,0.128],
    [10213,"urn:WaterMeter:MC0203J22010600005","2024-01-27T05:45:00",8.8,24.368008,0.133],
    [10214,"urn:WaterMeter:MC0203J22010600005","2024-01-27T06:00:00",8.699,24.35796,0.123],
    [10215,"urn:WaterMeter:MC0203J22010600005","2024-01-27T06:15:00",8.6,24.374252,0.125],
    [10216,"urn:WaterMeter:MC0203J22010600005","2024-01-27T06:30:00",8.5,24.375803,0.127],
    [10217,"urn:WaterMeter:MC0203J22010600005","2024-01-27T06:45:00",8.5,24.390156,0.124],
    [10218,"urn:WaterMeter:MC0203J22010600005","2024-01-27T07:00:00",8.399,24.375029,0.13],
    [10219,"urn:WaterMeter:MC0203J22010600005","2024-01-27T07:15:00",8.3,24.339302,0.127],
    [10220,"urn:WaterMeter:MC0203J22010600005","2024-01-27T07:30:00",8.199,24.369171,0.127],
    [10221,"urn:WaterMeter:MC0203J22010600005","2024-01-27T07:45:00",8.199,24.359085,0.123],
    [10222,"urn:WaterMeter:MC0203J22010600005","2024-01-27T08:00:00",8.199,24.357183,0.128],
    [10223,"urn:WaterMeter:MC0203J22010600005","2024-01-27T08:15:00",8.199,24.34706,0.126],
    [10224,"urn:WaterMeter:MC0203J22010600005","2024-01-27T08:30:00",8.3,24.33585,0.132],
    [10225,"urn:WaterMeter:MC0203J22010600005","2024-01-27T08:45:00",8.5,24.380846,0.127],
    [10226,"urn:WaterMeter:MC0203J22010600005","2024-01-27T09:00:00",8.8,24.373863,0.123],
    [10227,"urn:WaterMeter:MC0203J22010600005","2024-01-27T09:15:00",9,24.314127,0.126],
    [10228,"urn:WaterMeter:MC0203J22010600005","2024-01-27T09:30:00",9.399,24.28775,0.125],
    [10229,"urn:WaterMeter:MC0203J22010600005","2024-01-27T09:45:00",9.699,24.277277,0.126],
    [10230,"urn:WaterMeter:MC0203J22010600005","2024-01-27T10:00:00",10.199,24.279604,0.122],
    [10231,"urn:WaterMeter:MC0203J22010600005","2024-01-27T10:15:00",10.6,24.30637,0.122],
    [10232,"urn:WaterMeter:MC0203J22010600005","2024-01-27T10:30:00",11,24.279604,0.122],
    [10233,"urn:WaterMeter:MC0203J22010600005","2024-01-27T10:45:00",11.399,24.231466,0.122],
    [10234,"urn:WaterMeter:MC0203J22010600005","2024-01-27T11:00:00",11.8,24.209394,0.123],
    [10235,"urn:WaterMeter:MC0203J22010600005","2024-01-27T11:15:00",12.3,24.154274,0.12],
    [10236,"urn:WaterMeter:MC0203J22010600005","2024-01-27T11:30:00",12.8,24.200472,0.117],
    [10237,"urn:WaterMeter:MC0203J22010600005","2024-01-27T11:45:00",13.399,24.125957,0.118],
    [10238,"urn:WaterMeter:MC0203J22010600005","2024-01-27T12:00:00",13.899,24.133327,0.115],
    [10239,"urn:WaterMeter:MC0203J22010600005","2024-01-27T12:15:00",14.3,24.101946,0.116],
    [10240,"urn:WaterMeter:MC0203J22010600005","2024-01-27T12:30:00",14.5,24.089533,0.112],
    [10241,"urn:WaterMeter:MC0203J22010600005","2024-01-27T12:45:00",14.8,24.065483,0.12],
    [10242,"urn:WaterMeter:MC0203J22010600005","2024-01-27T13:00:00",14.899,24.000277,0.12],
    [10243,"urn:WaterMeter:MC0203J22010600005","2024-01-27T13:15:00",15,23.941704,0.124],
    [10244,"urn:WaterMeter:MC0203J22010600005","2024-01-27T13:30:00",15,23.970797,0.12],
    [10245,"urn:WaterMeter:MC0203J22010600005","2024-01-27T13:45:00",15.1,23.92933,0.121],
    [10246,"urn:WaterMeter:MC0203J22010600005","2024-01-27T14:00:00",15.1,23.94287,0.122],
    [10247,"urn:WaterMeter:MC0203J22010600005","2024-01-27T14:15:00",15.1,23.864124,0.124],
    [10248,"urn:WaterMeter:MC0203J22010600005","2024-01-27T14:30:00",15.199,23.866879,0.123],
    [10249,"urn:WaterMeter:MC0203J22010600005","2024-01-27T14:45:00",15.199,23.888214,0.125],
    [10250,"urn:WaterMeter:MC0203J22010600005","2024-01-27T15:00:00",15.199,23.821495,0.122],
    [10251,"urn:WaterMeter:MC0203J22010600005","2024-01-27T15:15:00",15.199,23.764086,0.124],
    [10252,"urn:WaterMeter:MC0203J22010600005","2024-01-27T15:30:00",15.199,23.821882,0.117],
    [10253,"urn:WaterMeter:MC0203J22010600005","2024-01-27T15:45:00",15.1,23.74314,0.121],
    [10254,"urn:WaterMeter:MC0203J22010600005","2024-01-27T16:00:00",15.1,23.77999,0.122],
    [10255,"urn:WaterMeter:MC0203J22010600005","2024-01-27T16:15:00",15,23.75784,0.123],
    [10256,"urn:WaterMeter:MC0203J22010600005","2024-01-27T16:30:00",14.8,23.759819,0.121],
    [10257,"urn:WaterMeter:MC0203J22010600005","2024-01-27T16:45:00",14.6,23.761757,0.121],
    [10258,"urn:WaterMeter:MC0203J22010600005","2024-01-27T17:00:00",14.399,23.73538,0.123],
    [10259,"urn:WaterMeter:MC0203J22010600005","2024-01-27T17:15:00",14.199,23.710554,0.122],
    [10260,"urn:WaterMeter:MC0203J22010600005","2024-01-27T17:30:00",14,23.667498,0.12],
    [10261,"urn:WaterMeter:MC0203J22010600005","2024-01-27T17:45:00",13.699,23.729136,0.12],
    [10262,"urn:WaterMeter:MC0203J22010600005","2024-01-27T18:00:00",13.5,23.72064,0.12],
    [10263,"urn:WaterMeter:MC0203J22010600005","2024-01-27T18:15:00",13.3,23.675257,0.12],
    [10264,"urn:WaterMeter:MC0203J22010600005","2024-01-27T18:30:00",13,23.666334,0.124],
    [10265,"urn:WaterMeter:MC0203J22010600005","2024-01-27T18:45:00",12.8,23.746979,0.124],
    [10266,"urn:WaterMeter:MC0203J22010600005","2024-01-27T19:00:00",12.6,23.699656,0.118],
    [10267,"urn:WaterMeter:MC0203J22010600005","2024-01-27T19:15:00",12.5,23.704737,0.125],
    [10268,"urn:WaterMeter:MC0203J22010600005","2024-01-27T19:30:00",12.3,23.67836,0.126],
    [10269,"urn:WaterMeter:MC0203J22010600005","2024-01-27T19:45:00",12.199,23.719826,0.125],
    [10270,"urn:WaterMeter:MC0203J22010600005","2024-01-27T20:00:00",12,23.693874,0.117],
    [10271,"urn:WaterMeter:MC0203J22010600005","2024-01-27T20:15:00",11.899,23.729523,0.13],
    [10272,"urn:WaterMeter:MC0203J22010600005","2024-01-27T20:30:00",11.699,23.70974,0.126],
    [10273,"urn:WaterMeter:MC0203J22010600005","2024-01-27T20:45:00",11.6,23.748531,0.121],
    [10274,"urn:WaterMeter:MC0203J22010600005","2024-01-27T21:00:00",11.399,23.72064,0.123],
    [10275,"urn:WaterMeter:MC0203J22010600005","2024-01-27T21:15:00",11.3,23.722967,0.128],
    [10276,"urn:WaterMeter:MC0203J22010600005","2024-01-27T21:30:00",11.199,23.71133,0.125],
    [10277,"urn:WaterMeter:MC0203J22010600005","2024-01-27T21:45:00",11,23.76521,0.125],
    [10278,"urn:WaterMeter:MC0203J22010600005","2024-01-27T22:00:00",10.899,23.765598,0.127],
    [10279,"urn:WaterMeter:MC0203J22010600005","2024-01-27T22:15:00",10.8,23.706636,0.124],
    [10280,"urn:WaterMeter:MC0203J22010600005","2024-01-27T22:30:00",10.699,23.725296,0.123],
    [10281,"urn:WaterMeter:MC0203J22010600005","2024-01-27T22:45:00",10.5,23.747366,0.125],
    [10282,"urn:WaterMeter:MC0203J22010600005","2024-01-27T23:00:00",10.5,23.716373,0.125],
    [10283,"urn:WaterMeter:MC0203J22010600005","2024-01-27T23:15:00",10.399,23.68185,0.127],
    [10284,"urn:WaterMeter:MC0203J22010600005","2024-01-27T23:30:00",10.3,23.745428,0.125],
    [10285,"urn:WaterMeter:MC0203J22010600005","2024-01-27T23:45:00",10.199,23.71905,0.128],
    [10286,"urn:WaterMeter:MC0203J22010600005","2024-01-28T00:00:00",10.1,23.741976,0.129],
    [10287,"urn:WaterMeter:MC0203J22010600005","2024-01-28T00:15:00",10,23.751284,0.12],
    [10288,"urn:WaterMeter:MC0203J22010600005","2024-01-28T00:30:00",10,23.74275,0.125],
    [10289,"urn:WaterMeter:MC0203J22010600005","2024-01-28T00:45:00",9.899,23.774946,0.125],
    [10290,"urn:WaterMeter:MC0203J22010600005","2024-01-28T01:00:00",9.8,23.754,0.126],
    [10291,"urn:WaterMeter:MC0203J22010600005","2024-01-28T01:15:00",9.699,23.725296,0.123],
    [10292,"urn:WaterMeter:MC0203J22010600005","2024-01-28T01:30:00",9.6,23.747755,0.121],
    [10293,"urn:WaterMeter:MC0203J22010600005","2024-01-28T01:45:00",9.399,23.718275,0.126],
    [10294,"urn:WaterMeter:MC0203J22010600005","2024-01-28T02:00:00",9.3,23.719439,0.126],
    [10295,"urn:WaterMeter:MC0203J22010600005","2024-01-28T02:15:00",9.199,23.764822,0.131],
    [10296,"urn:WaterMeter:MC0203J22010600005","2024-01-28T02:30:00",9.1,23.732666,0.129],
    [10297,"urn:WaterMeter:MC0203J22010600005","2024-01-28T02:45:00",9,23.70396,0.121],
    [10298,"urn:WaterMeter:MC0203J22010600005","2024-01-28T03:00:00",8.899,23.725683,0.129],
    [10299,"urn:WaterMeter:MC0203J22010600005","2024-01-28T03:15:00",8.8,23.739647,0.126],
    [10300,"urn:WaterMeter:MC0203J22010600005","2024-01-28T03:30:00",8.699,23.758615,0.127],
    [10301,"urn:WaterMeter:MC0203J22010600005","2024-01-28T03:45:00",8.6,23.760206,0.123],
    [10302,"urn:WaterMeter:MC0203J22010600005","2024-01-28T04:00:00",8.5,23.762533,0.117],
    [10303,"urn:WaterMeter:MC0203J22010600005","2024-01-28T04:15:00",8.399,23.752449,0.125],
    [10304,"urn:WaterMeter:MC0203J22010600005","2024-01-28T04:30:00",8.399,23.771067,0.125],
    [10305,"urn:WaterMeter:MC0203J22010600005","2024-01-28T04:45:00",8.3,23.756327,0.118],
    [10306,"urn:WaterMeter:MC0203J22010600005","2024-01-28T05:00:00",8.3,23.779213,0.12],
    [10307,"urn:WaterMeter:MC0203J22010600005","2024-01-28T05:15:00",8.199,23.72064,0.124],
    [10308,"urn:WaterMeter:MC0203J22010600005","2024-01-28T05:30:00",8.1,23.756327,0.125],
    [10309,"urn:WaterMeter:MC0203J22010600005","2024-01-28T05:45:00",8,23.792013,0.12],
    [10310,"urn:WaterMeter:MC0203J22010600005","2024-01-28T06:00:00",7.9,23.766375,0.126],
    [10311,"urn:WaterMeter:MC0203J22010600005","2024-01-28T06:15:00",7.8,23.717926,0.127],
    [10312,"urn:WaterMeter:MC0203J22010600005","2024-01-28T06:30:00",7.699,23.77611,0.128],
    [10313,"urn:WaterMeter:MC0203J22010600005","2024-01-28T06:45:00",7.699,23.738056,0.116],
    [10314,"urn:WaterMeter:MC0203J22010600005","2024-01-28T07:00:00",7.599,23.756716,0.13],
    [10315,"urn:WaterMeter:MC0203J22010600005","2024-01-28T07:15:00",7.599,23.79085,0.119],
    [10316,"urn:WaterMeter:MC0203J22010600005","2024-01-28T07:30:00",7.5,23.762533,0.13],
    [10317,"urn:WaterMeter:MC0203J22010600005","2024-01-28T07:45:00",7.5,23.74275,0.122],
    [10318,"urn:WaterMeter:MC0203J22010600005","2024-01-28T08:00:00",7.4,23.73344,0.123],
    [10319,"urn:WaterMeter:MC0203J22010600005","2024-01-28T08:15:00",7.4,23.749733,0.126],
    [10320,"urn:WaterMeter:MC0203J22010600005","2024-01-28T08:30:00",7.5,23.777622,0.128],
    [10321,"urn:WaterMeter:MC0203J22010600005","2024-01-28T08:45:00",7.8,23.782705,0.119],
    [10322,"urn:WaterMeter:MC0203J22010600005","2024-01-28T09:00:00",8.1,23.76521,0.125],
    [10323,"urn:WaterMeter:MC0203J22010600005","2024-01-28T09:15:00",8.399,23.769516,0.12],
    [10324,"urn:WaterMeter:MC0203J22010600005","2024-01-28T09:30:00",8.8,23.789299,0.12],
    [10325,"urn:WaterMeter:MC0203J22010600005","2024-01-28T09:45:00",9.199,23.756327,0.12],
    [10326,"urn:WaterMeter:MC0203J22010600005","2024-01-28T10:00:00",9.6,23.668236,0.116],
    [10327,"urn:WaterMeter:MC0203J22010600005","2024-01-28T10:15:00",9.8,23.676031,0.123],
    [10328,"urn:WaterMeter:MC0203J22010600005","2024-01-28T10:30:00",10.1,23.659351,0.121],
    [10329,"urn:WaterMeter:MC0203J22010600005","2024-01-28T10:45:00",10.399,23.687243,0.119],
    [10330,"urn:WaterMeter:MC0203J22010600005","2024-01-28T11:00:00",10.8,23.616295,0.122],
    [10331,"urn:WaterMeter:MC0203J22010600005","2024-01-28T11:15:00",11.3,23.650393,0.119],
    [10332,"urn:WaterMeter:MC0203J22010600005","2024-01-28T11:30:00",11.899,23.613153,0.118],
    [10333,"urn:WaterMeter:MC0203J22010600005","2024-01-28T11:45:00",12.6,23.596512,0.12],
    [10334,"urn:WaterMeter:MC0203J22010600005","2024-01-28T12:00:00",13.1,23.560825,0.118],
    [10335,"urn:WaterMeter:MC0203J22010600005","2024-01-28T12:15:00",13.3,23.493292,0.117],
    [10336,"urn:WaterMeter:MC0203J22010600005","2024-01-28T12:30:00",13.6,23.549189,0.118],
    [10337,"urn:WaterMeter:MC0203J22010600005","2024-01-28T12:45:00",13.8,23.454502,0.115],
    [10338,"urn:WaterMeter:MC0203J22010600005","2024-01-28T13:00:00",13.899,23.531733,0.119],
    [10339,"urn:WaterMeter:MC0203J22010600005","2024-01-28T13:15:00",14,23.450274,0.119],
    [10340,"urn:WaterMeter:MC0203J22010600005","2024-01-28T13:30:00",14.1,23.413036,0.114],
    [10341,"urn:WaterMeter:MC0203J22010600005","2024-01-28T13:45:00",14.199,23.375797,0.116],
    [10342,"urn:WaterMeter:MC0203J22010600005","2024-01-28T14:00:00",14.1,23.420794,0.123],
    [10343,"urn:WaterMeter:MC0203J22010600005","2024-01-28T14:15:00",14,23.415363,0.119],
    [10344,"urn:WaterMeter:MC0203J22010600005","2024-01-28T14:30:00",14,23.33662,0.119],
    [10345,"urn:WaterMeter:MC0203J22010600005","2024-01-28T14:45:00",14,23.332352,0.116],
    [10346,"urn:WaterMeter:MC0203J22010600005","2024-01-28T15:00:00",14.1,23.361834,0.116],
    [10347,"urn:WaterMeter:MC0203J22010600005","2024-01-28T15:15:00",14.199,23.298218,0.113],
    [10348,"urn:WaterMeter:MC0203J22010600005","2024-01-28T15:30:00",14.1,23.262491,0.12],
    [10349,"urn:WaterMeter:MC0203J22010600005","2024-01-28T15:45:00",14.199,23.28305,0.113],
    [10350,"urn:WaterMeter:MC0203J22010600005","2024-01-28T16:00:00",14.199,23.288908,0.118],
    [10351,"urn:WaterMeter:MC0203J22010600005","2024-01-28T16:15:00",14.1,23.252794,0.119],
    [10352,"urn:WaterMeter:MC0203J22010600005","2024-01-28T16:30:00",14.1,23.254772,0.115],
    [10353,"urn:WaterMeter:MC0203J22010600005","2024-01-28T16:45:00",14,23.190382,0.121],
    [10354,"urn:WaterMeter:MC0203J22010600005","2024-01-28T17:00:00",13.899,23.216759,0.114],
    [10355,"urn:WaterMeter:MC0203J22010600005","2024-01-28T17:15:00",13.699,23.21478,0.118],
    [10356,"urn:WaterMeter:MC0203J22010600005","2024-01-28T17:30:00",13.5,23.186462,0.113],
    [10357,"urn:WaterMeter:MC0203J22010600005","2024-01-28T17:45:00",13.3,23.163229,0.115],
    [10358,"urn:WaterMeter:MC0203J22010600005","2024-01-28T18:00:00",13.1,23.223701,0.121],
    [10359,"urn:WaterMeter:MC0203J22010600005","2024-01-28T18:15:00",12.899,23.192709,0.122],
    [10360,"urn:WaterMeter:MC0203J22010600005","2024-01-28T18:30:00",12.699,23.220636,0.122],
    [10361,"urn:WaterMeter:MC0203J22010600005","2024-01-28T18:45:00",12.5,23.226068,0.123],
    [10362,"urn:WaterMeter:MC0203J22010600005","2024-01-28T19:00:00",12.3,23.203918,0.12],
    [10363,"urn:WaterMeter:MC0203J22010600005","2024-01-28T19:15:00",12.199,23.245462,0.121],
    [10364,"urn:WaterMeter:MC0203J22010600005","2024-01-28T19:30:00",12,23.183361,0.12],
    [10365,"urn:WaterMeter:MC0203J22010600005","2024-01-28T19:45:00",11.8,23.237316,0.122],
    [10366,"urn:WaterMeter:MC0203J22010600005","2024-01-28T20:00:00",11.699,23.179909,0.12],
    [10367,"urn:WaterMeter:MC0203J22010600005","2024-01-28T20:15:00",11.5,23.186462,0.119],
    [10368,"urn:WaterMeter:MC0203J22010600005","2024-01-28T20:30:00",11.399,23.226068,0.118],
    [10369,"urn:WaterMeter:MC0203J22010600005","2024-01-28T20:45:00",11.199,23.248955,0.121],
    [10370,"urn:WaterMeter:MC0203J22010600005","2024-01-28T21:00:00",11.1,23.174866,0.12],
    [10371,"urn:WaterMeter:MC0203J22010600005","2024-01-28T21:15:00",11,23.24779,0.122],
    [10372,"urn:WaterMeter:MC0203J22010600005","2024-01-28T21:30:00",10.899,23.182623,0.118],
    [10373,"urn:WaterMeter:MC0203J22010600005","2024-01-28T21:45:00",10.8,23.237705,0.119],
    [10374,"urn:WaterMeter:MC0203J22010600005","2024-01-28T22:00:00",10.699,23.250505,0.124],
    [10375,"urn:WaterMeter:MC0203J22010600005","2024-01-28T22:15:00",10.6,23.235378,0.123],
    [10376,"urn:WaterMeter:MC0203J22010600005","2024-01-28T22:30:00",10.5,23.189217,0.126],
    [10377,"urn:WaterMeter:MC0203J22010600005","2024-01-28T22:45:00",10.399,23.222925,0.12],
    [10378,"urn:WaterMeter:MC0203J22010600005","2024-01-28T23:00:00",10.399,23.196587,0.123],
    [10379,"urn:WaterMeter:MC0203J22010600005","2024-01-28T23:15:00",10.399,23.242708,0.118],
    [10380,"urn:WaterMeter:MC0203J22010600005","2024-01-28T23:30:00",10.399,23.214005,0.124],
    [10381,"urn:WaterMeter:MC0203J22010600005","2024-01-28T23:45:00",10.5,23.259815,0.123],
    [10382,"urn:WaterMeter:MC0203J22010600005","2024-01-29T00:00:00",10.5,23.24973,0.12],
    [10383,"urn:WaterMeter:MC0203J22010600005","2024-01-29T00:15:00",10.5,23.21288,0.116],
    [10384,"urn:WaterMeter:MC0203J22010600005","2024-01-29T00:30:00",10.5,23.216759,0.118],
    [10385,"urn:WaterMeter:MC0203J22010600005","2024-01-29T00:45:00",10.6,23.242708,0.122],
    [10386,"urn:WaterMeter:MC0203J22010600005","2024-01-29T01:00:00",10.6,23.221762,0.118],
    [10387,"urn:WaterMeter:MC0203J22010600005","2024-01-29T01:15:00",10.6,23.215982,0.119],
    [10388,"urn:WaterMeter:MC0203J22010600005","2024-01-29T01:30:00",10.6,23.243872,0.117],
    [10389,"urn:WaterMeter:MC0203J22010600005","2024-01-29T01:45:00",10.6,23.17021,0.12],
    [10390,"urn:WaterMeter:MC0203J22010600005","2024-01-29T02:00:00",10.699,23.193096,0.121],
    [10391,"urn:WaterMeter:MC0203J22010600005","2024-01-29T02:15:00",10.699,23.228783,0.122],
    [10392,"urn:WaterMeter:MC0203J22010600005","2024-01-29T02:30:00",10.699,23.179132,0.123],
    [10393,"urn:WaterMeter:MC0203J22010600005","2024-01-29T02:45:00",10.699,23.177969,0.122],
    [10394,"urn:WaterMeter:MC0203J22010600005","2024-01-29T03:00:00",10.699,23.16866,0.116],
    [10395,"urn:WaterMeter:MC0203J22010600005","2024-01-29T03:15:00",10.699,23.209,0.113],
    [10396,"urn:WaterMeter:MC0203J22010600005","2024-01-29T03:30:00",10.8,23.163229,0.121],
    [10397,"urn:WaterMeter:MC0203J22010600005","2024-01-29T03:45:00",10.8,23.21831,0.119],
    [10398,"urn:WaterMeter:MC0203J22010600005","2024-01-29T04:00:00",10.8,23.17215,0.113],
    [10399,"urn:WaterMeter:MC0203J22010600005","2024-01-29T04:15:00",10.8,23.156595,0.123],
    [10400,"urn:WaterMeter:MC0203J22010600005","2024-01-29T04:30:00",10.899,23.191545,0.118],
    [10401,"urn:WaterMeter:MC0203J22010600005","2024-01-29T04:45:00",10.899,23.180296,0.124],
    [10402,"urn:WaterMeter:MC0203J22010600005","2024-01-29T05:00:00",10.899,23.150427,0.122],
    [10403,"urn:WaterMeter:MC0203J22010600005","2024-01-29T05:15:00",10.899,23.143446,0.119],
    [10404,"urn:WaterMeter:MC0203J22010600005","2024-01-29T05:30:00",10.899,23.12987,0.118],
    [10405,"urn:WaterMeter:MC0203J22010600005","2024-01-29T05:45:00",11,23.155819,0.118],
    [10406,"urn:WaterMeter:MC0203J22010600005","2024-01-29T06:00:00",11,23.128704,0.118],
    [10407,"urn:WaterMeter:MC0203J22010600005","2024-01-29T06:15:00",11,23.195772,0.117],
    [10408,"urn:WaterMeter:MC0203J22010600005","2024-01-29T06:30:00",11,23.17952,0.114],
    [10409,"urn:WaterMeter:MC0203J22010600005","2024-01-29T06:45:00",11,23.172537,0.125],
    [10410,"urn:WaterMeter:MC0203J22010600005","2024-01-29T07:00:00",11.1,23.17215,0.125],
    [10411,"urn:WaterMeter:MC0203J22010600005","2024-01-29T07:15:00",11.1,23.175215,0.118],
    [10412,"urn:WaterMeter:MC0203J22010600005","2024-01-29T07:30:00",11.1,23.119396,0.115],
    [10413,"urn:WaterMeter:MC0203J22010600005","2024-01-29T07:45:00",11.1,23.170986,0.114],
    [10414,"urn:WaterMeter:MC0203J22010600005","2024-01-29T08:00:00",11.1,23.173702,0.122],
    [10415,"urn:WaterMeter:MC0203J22010600005","2024-01-29T08:15:00",11.199,23.130257,0.114],
    [10416,"urn:WaterMeter:MC0203J22010600005","2024-01-29T08:30:00",11.199,23.154694,0.114],
    [10417,"urn:WaterMeter:MC0203J22010600005","2024-01-29T08:45:00",11.3,23.163965,0.119],
    [10418,"urn:WaterMeter:MC0203J22010600005","2024-01-29T09:00:00",11.3,23.124786,0.119],
    [10419,"urn:WaterMeter:MC0203J22010600005","2024-01-29T09:15:00",11.399,23.134523,0.122],
    [10420,"urn:WaterMeter:MC0203J22010600005","2024-01-29T09:30:00",11.5,23.179132,0.118],
    [10421,"urn:WaterMeter:MC0203J22010600005","2024-01-29T09:45:00",11.6,23.1353,0.119],
    [10422,"urn:WaterMeter:MC0203J22010600005","2024-01-29T10:00:00",11.699,23.083708,0.119],
    [10423,"urn:WaterMeter:MC0203J22010600005","2024-01-29T10:15:00",11.8,23.119783,0.115],
    [10424,"urn:WaterMeter:MC0203J22010600005","2024-01-29T10:30:00",11.899,23.102327,0.114],
    [10425,"urn:WaterMeter:MC0203J22010600005","2024-01-29T10:45:00",12,23.108496,0.118],
    [10426,"urn:WaterMeter:MC0203J22010600005","2024-01-29T11:00:00",12.199,23.099186,0.121],
    [10427,"urn:WaterMeter:MC0203J22010600005","2024-01-29T11:15:00",12.3,23.137589,0.119],
    [10428,"urn:WaterMeter:MC0203J22010600005","2024-01-29T11:30:00",12.399,23.157372,0.118],
    [10429,"urn:WaterMeter:MC0203J22010600005","2024-01-29T11:45:00",12.5,23.080605,0.117],
    [10430,"urn:WaterMeter:MC0203J22010600005","2024-01-29T12:00:00",12.6,23.080605,0.119],
    [10431,"urn:WaterMeter:MC0203J22010600005","2024-01-29T12:15:00",12.699,23.047596,0.116],
    [10432,"urn:WaterMeter:MC0203J22010600005","2024-01-29T12:30:00",12.899,23.029364,0.118],
    [10433,"urn:WaterMeter:MC0203J22010600005","2024-01-29T12:45:00",13,23.045307,0.119],
    [10434,"urn:WaterMeter:MC0203J22010600005","2024-01-29T13:00:00",13.1,23.09263,0.115],
    [10435,"urn:WaterMeter:MC0203J22010600005","2024-01-29T13:15:00",13.199,23.052288,0.116],
    [10436,"urn:WaterMeter:MC0203J22010600005","2024-01-29T13:30:00",13.3,23.010744,0.117],
    [10437,"urn:WaterMeter:MC0203J22010600005","2024-01-29T13:45:00",13.399,23.00221,0.119],
    [10438,"urn:WaterMeter:MC0203J22010600005","2024-01-29T14:00:00",13.5,23.042978,0.12],
    [10439,"urn:WaterMeter:MC0203J22010600005","2024-01-29T14:15:00",13.5,23.030916,0.12],
    [10440,"urn:WaterMeter:MC0203J22010600005","2024-01-29T14:30:00",13.6,22.973932,0.114],
    [10441,"urn:WaterMeter:MC0203J22010600005","2024-01-29T14:45:00",13.5,22.993715,0.117],
    [10442,"urn:WaterMeter:MC0203J22010600005","2024-01-29T15:00:00",13.5,22.957642,0.114],
    [10443,"urn:WaterMeter:MC0203J22010600005","2024-01-29T15:15:00",13.5,22.962645,0.118],
    [10444,"urn:WaterMeter:MC0203J22010600005","2024-01-29T15:30:00",13.5,22.929325,0.117],
    [10445,"urn:WaterMeter:MC0203J22010600005","2024-01-29T15:45:00",13.5,22.940573,0.118],
    [10446,"urn:WaterMeter:MC0203J22010600005","2024-01-29T16:00:00",13.5,22.946392,0.117],
    [10447,"urn:WaterMeter:MC0203J22010600005","2024-01-29T16:15:00",13.5,22.91536,0.118],
    [10448,"urn:WaterMeter:MC0203J22010600005","2024-01-29T16:30:00",13.399,22.978588,0.115],
    [10449,"urn:WaterMeter:MC0203J22010600005","2024-01-29T16:45:00",13.399,22.938246,0.119],
    [10450,"urn:WaterMeter:MC0203J22010600005","2024-01-29T17:00:00",13.3,22.955315,0.12],
    [10451,"urn:WaterMeter:MC0203J22010600005","2024-01-29T17:15:00",13.199,22.955315,0.122],
    [10452,"urn:WaterMeter:MC0203J22010600005","2024-01-29T17:30:00",13.199,22.94325,0.126],
    [10453,"urn:WaterMeter:MC0203J22010600005","2024-01-29T17:45:00",13.1,22.910706,0.118],
    [10454,"urn:WaterMeter:MC0203J22010600005","2024-01-29T18:00:00",13.1,22.952171,0.117],
    [10455,"urn:WaterMeter:MC0203J22010600005","2024-01-29T18:15:00",13,22.918076,0.121],
    [10456,"urn:WaterMeter:MC0203J22010600005","2024-01-29T18:30:00",13,22.912605,0.118],
    [10457,"urn:WaterMeter:MC0203J22010600005","2024-01-29T18:45:00",12.899,22.932777,0.119],
    [10458,"urn:WaterMeter:MC0203J22010600005","2024-01-29T19:00:00",12.899,22.890533,0.121],
    [10459,"urn:WaterMeter:MC0203J22010600005","2024-01-29T19:15:00",12.899,22.881226,0.114],
    [10460,"urn:WaterMeter:MC0203J22010600005","2024-01-29T19:30:00",12.8,22.896353,0.12],
    [10461,"urn:WaterMeter:MC0203J22010600005","2024-01-29T19:45:00",12.8,22.879286,0.116],
    [10462,"urn:WaterMeter:MC0203J22010600005","2024-01-29T20:00:00",12.8,22.913382,0.121],
    [10463,"urn:WaterMeter:MC0203J22010600005","2024-01-29T20:15:00",12.8,22.894762,0.118],
    [10464,"urn:WaterMeter:MC0203J22010600005","2024-01-29T20:30:00",12.699,22.894762,0.118],
    [10465,"urn:WaterMeter:MC0203J22010600005","2024-01-29T20:45:00",12.699,22.912605,0.116],
    [10466,"urn:WaterMeter:MC0203J22010600005","2024-01-29T21:00:00",12.699,22.935532,0.121],
    [10467,"urn:WaterMeter:MC0203J22010600005","2024-01-29T21:15:00",12.699,22.888596,0.119],
    [10468,"urn:WaterMeter:MC0203J22010600005","2024-01-29T21:30:00",12.6,22.93941,0.118],
    [10469,"urn:WaterMeter:MC0203J22010600005","2024-01-29T21:45:00",12.6,22.879673,0.121],
    [10470,"urn:WaterMeter:MC0203J22010600005","2024-01-29T22:00:00",12.6,22.855585,0.118],
    [10471,"urn:WaterMeter:MC0203J22010600005","2024-01-29T22:15:00",12.6,22.890146,0.118],
    [10472,"urn:WaterMeter:MC0203J22010600005","2024-01-29T22:30:00",12.5,22.952171,0.118],
    [10473,"urn:WaterMeter:MC0203J22010600005","2024-01-29T22:45:00",12.5,22.925833,0.13],
    [10474,"urn:WaterMeter:MC0203J22010600005","2024-01-29T23:00:00",12.5,22.933165,0.121],
    [10475,"urn:WaterMeter:MC0203J22010600005","2024-01-29T23:15:00",12.5,22.885841,0.119],
    [10476,"urn:WaterMeter:MC0203J22010600005","2024-01-29T23:30:00",12.399,22.923855,0.119],
    [10477,"urn:WaterMeter:MC0203J22010600005","2024-01-29T23:45:00",12.399,22.879286,0.121],
    [10478,"urn:WaterMeter:MC0203J22010600005","2024-01-30T00:00:00",12.399,22.934328,0.119],
    [10479,"urn:WaterMeter:MC0203J22010600005","2024-01-30T00:15:00",12.399,22.927773,0.107],
    [10480,"urn:WaterMeter:MC0203J22010600005","2024-01-30T00:30:00",12.399,22.88976,0.116],
    [10481,"urn:WaterMeter:MC0203J22010600005","2024-01-30T00:45:00",12.3,22.9173,0.12],
    [10482,"urn:WaterMeter:MC0203J22010600005","2024-01-30T01:00:00",12.3,22.902946,0.117],
    [10483,"urn:WaterMeter:MC0203J22010600005","2024-01-30T01:15:00",12.3,22.899456,0.119],
    [10484,"urn:WaterMeter:MC0203J22010600005","2024-01-30T01:30:00",12.3,22.88006,0.121],
    [10485,"urn:WaterMeter:MC0203J22010600005","2024-01-30T01:45:00",12.199,22.869976,0.118],
    [10486,"urn:WaterMeter:MC0203J22010600005","2024-01-30T02:00:00",12.199,22.877346,0.119],
    [10487,"urn:WaterMeter:MC0203J22010600005","2024-01-30T02:15:00",12.199,22.86028,0.114],
    [10488,"urn:WaterMeter:MC0203J22010600005","2024-01-30T02:30:00",12.199,22.85058,0.118],
    [10489,"urn:WaterMeter:MC0203J22010600005","2024-01-30T02:45:00",12.199,22.847477,0.117],
    [10490,"urn:WaterMeter:MC0203J22010600005","2024-01-30T03:00:00",12.1,22.842434,0.116],
    [10491,"urn:WaterMeter:MC0203J22010600005","2024-01-30T03:15:00",12.1,22.901009,0.122],
    [10492,"urn:WaterMeter:MC0203J22010600005","2024-01-30T03:30:00",12.1,22.881613,0.114],
    [10493,"urn:WaterMeter:MC0203J22010600005","2024-01-30T03:45:00",12.1,22.83619,0.116],
    [10494,"urn:WaterMeter:MC0203J22010600005","2024-01-30T04:00:00",12.1,22.868036,0.119],
    [10495,"urn:WaterMeter:MC0203J22010600005","2024-01-30T04:15:00",12,22.91183,0.114],
    [10496,"urn:WaterMeter:MC0203J22010600005","2024-01-30T04:30:00",12,22.87657,0.113],
    [10497,"urn:WaterMeter:MC0203J22010600005","2024-01-30T04:45:00",12,22.831573,0.122],
    [10498,"urn:WaterMeter:MC0203J22010600005","2024-01-30T05:00:00",12,22.822264,0.119],
    [10499,"urn:WaterMeter:MC0203J22010600005","2024-01-30T05:15:00",12,22.902946,0.117],
    [10500,"urn:WaterMeter:MC0203J22010600005","2024-01-30T05:30:00",11.899,22.898293,0.118],
    [10501,"urn:WaterMeter:MC0203J22010600005","2024-01-30T05:45:00",11.899,22.81373,0.125],
    [10502,"urn:WaterMeter:MC0203J22010600005","2024-01-30T06:00:00",11.899,22.849806,0.132],
    [10503,"urn:WaterMeter:MC0203J22010600005","2024-01-30T06:15:00",11.899,22.870752,0.123],
    [10504,"urn:WaterMeter:MC0203J22010600005","2024-01-30T06:30:00",11.899,22.8436,0.116],
    [10505,"urn:WaterMeter:MC0203J22010600005","2024-01-30T06:45:00",11.899,22.83778,0.12],
    [10506,"urn:WaterMeter:MC0203J22010600005","2024-01-30T07:00:00",11.899,22.894762,0.121],
    [10507,"urn:WaterMeter:MC0203J22010600005","2024-01-30T07:15:00",11.899,22.877346,0.118],
    [10508,"urn:WaterMeter:MC0203J22010600005","2024-01-30T07:30:00",11.899,22.893211,0.12],
    [10509,"urn:WaterMeter:MC0203J22010600005","2024-01-30T07:45:00",11.899,22.885065,0.123],
    [10510,"urn:WaterMeter:MC0203J22010600005","2024-01-30T08:00:00",11.899,22.816406,0.118],
    [10511,"urn:WaterMeter:MC0203J22010600005","2024-01-30T08:15:00",11.899,22.825367,0.115],
    [10512,"urn:WaterMeter:MC0203J22010600005","2024-01-30T08:30:00",12,22.808687,0.121],
    [10513,"urn:WaterMeter:MC0203J22010600005","2024-01-30T08:45:00",12,22.873428,0.119],
    [10514,"urn:WaterMeter:MC0203J22010600005","2024-01-30T09:00:00",12.1,22.847866,0.115],
    [10515,"urn:WaterMeter:MC0203J22010600005","2024-01-30T09:15:00",12.1,22.836578,0.12],
    [10516,"urn:WaterMeter:MC0203J22010600005","2024-01-30T09:30:00",12.199,22.810627,0.115],
    [10517,"urn:WaterMeter:MC0203J22010600005","2024-01-30T09:45:00",12.3,22.851357,0.117],
    [10518,"urn:WaterMeter:MC0203J22010600005","2024-01-30T10:00:00",12.399,22.882,0.117],
    [10519,"urn:WaterMeter:MC0203J22010600005","2024-01-30T10:15:00",12.5,22.866446,0.114],
    [10520,"urn:WaterMeter:MC0203J22010600005","2024-01-30T10:30:00",12.5,22.820324,0.118],
    [10521,"urn:WaterMeter:MC0203J22010600005","2024-01-30T10:45:00",12.6,22.778004,0.116],
    [10522,"urn:WaterMeter:MC0203J22010600005","2024-01-30T11:00:00",12.699,22.793947,0.121],
    [10523,"urn:WaterMeter:MC0203J22010600005","2024-01-30T11:15:00",12.899,22.751667,0.111],
    [10524,"urn:WaterMeter:MC0203J22010600005","2024-01-30T11:30:00",13,22.776453,0.116],
    [10525,"urn:WaterMeter:MC0203J22010600005","2024-01-30T11:45:00",13.1,22.741581,0.118],
    [10526,"urn:WaterMeter:MC0203J22010600005","2024-01-30T12:00:00",13.199,22.77494,0.117],
    [10527,"urn:WaterMeter:MC0203J22010600005","2024-01-30T12:15:00",13.3,22.7974,0.118],
    [10528,"urn:WaterMeter:MC0203J22010600005","2024-01-30T12:30:00",13.399,22.737274,0.116],
    [10529,"urn:WaterMeter:MC0203J22010600005","2024-01-30T12:45:00",13.5,22.723738,0.115],
    [10530,"urn:WaterMeter:MC0203J22010600005","2024-01-30T13:00:00",13.6,22.77145,0.117],
    [10531,"urn:WaterMeter:MC0203J22010600005","2024-01-30T13:15:00",13.6,22.720596,0.118],
    [10532,"urn:WaterMeter:MC0203J22010600005","2024-01-30T13:30:00",13.699,22.700813,0.116],
    [10533,"urn:WaterMeter:MC0203J22010600005","2024-01-30T13:45:00",13.8,22.705505,0.115],
    [10534,"urn:WaterMeter:MC0203J22010600005","2024-01-30T14:00:00",13.8,22.673311,0.118],
    [10535,"urn:WaterMeter:MC0203J22010600005","2024-01-30T14:15:00",13.899,22.679867,0.117],
    [10536,"urn:WaterMeter:MC0203J22010600005","2024-01-30T14:30:00",13.899,22.7012,0.116],
    [10537,"urn:WaterMeter:MC0203J22010600005","2024-01-30T14:45:00",13.899,22.707445,0.112],
    [10538,"urn:WaterMeter:MC0203J22010600005","2024-01-30T15:00:00",13.899,22.651548,0.121],
    [10539,"urn:WaterMeter:MC0203J22010600005","2024-01-30T15:15:00",13.899,22.705505,0.117],
    [10540,"urn:WaterMeter:MC0203J22010600005","2024-01-30T15:30:00",14,22.645382,0.115],
    [10541,"urn:WaterMeter:MC0203J22010600005","2024-01-30T15:45:00",14,22.696196,0.122],
    [10542,"urn:WaterMeter:MC0203J22010600005","2024-01-30T16:00:00",13.899,22.65857,0.114],
    [10543,"urn:WaterMeter:MC0203J22010600005","2024-01-30T16:15:00",13.899,22.680641,0.116],
    [10544,"urn:WaterMeter:MC0203J22010600005","2024-01-30T16:30:00",13.8,22.57362,0.114],
    [10545,"urn:WaterMeter:MC0203J22010600005","2024-01-30T16:45:00",13.699,22.613922,0.121],
    [10546,"urn:WaterMeter:MC0203J22010600005","2024-01-30T17:00:00",13.5,22.587585,0.118],
    [10547,"urn:WaterMeter:MC0203J22010600005","2024-01-30T17:15:00",13.399,22.613535,0.118],
    [10548,"urn:WaterMeter:MC0203J22010600005","2024-01-30T17:30:00",13.199,22.605816,0.118],
    [10549,"urn:WaterMeter:MC0203J22010600005","2024-01-30T17:45:00",13.1,22.627539,0.106],
    [10550,"urn:WaterMeter:MC0203J22010600005","2024-01-30T18:00:00",13,22.591076,0.112],
    [10551,"urn:WaterMeter:MC0203J22010600005","2024-01-30T18:15:00",12.899,22.648485,0.116],
    [10552,"urn:WaterMeter:MC0203J22010600005","2024-01-30T18:30:00",12.8,22.652325,0.118],
    [10553,"urn:WaterMeter:MC0203J22010600005","2024-01-30T18:45:00",12.6,22.634132,0.113],
    [10554,"urn:WaterMeter:MC0203J22010600005","2024-01-30T19:00:00",12.6,22.635685,0.113],
    [10555,"urn:WaterMeter:MC0203J22010600005","2024-01-30T19:15:00",12.5,22.648872,0.121],
    [10556,"urn:WaterMeter:MC0203J22010600005","2024-01-30T19:30:00",12.5,22.58642,0.122],
    [10557,"urn:WaterMeter:MC0203J22010600005","2024-01-30T19:45:00",12.399,22.576723,0.118],
    [10558,"urn:WaterMeter:MC0203J22010600005","2024-01-30T20:00:00",12.399,22.591076,0.114],
    [10559,"urn:WaterMeter:MC0203J22010600005","2024-01-30T20:15:00",12.399,22.599222,0.119],
    [10560,"urn:WaterMeter:MC0203J22010600005","2024-01-30T20:30:00",12.399,22.643404,0.118],
    [10561,"urn:WaterMeter:MC0203J22010600005","2024-01-30T20:45:00",12.399,22.625599,0.116],
    [10562,"urn:WaterMeter:MC0203J22010600005","2024-01-30T21:00:00",12.399,22.653101,0.12],
    [10563,"urn:WaterMeter:MC0203J22010600005","2024-01-30T21:15:00",12.399,22.61629,0.117],
    [10564,"urn:WaterMeter:MC0203J22010600005","2024-01-30T21:30:00",12.399,22.639912,0.112],
    [10565,"urn:WaterMeter:MC0203J22010600005","2024-01-30T21:45:00",12.399,22.611246,0.116],
    [10566,"urn:WaterMeter:MC0203J22010600005","2024-01-30T22:00:00",12.399,22.63293,0.113],
    [10567,"urn:WaterMeter:MC0203J22010600005","2024-01-30T22:15:00",12.399,22.626762,0.118],
    [10568,"urn:WaterMeter:MC0203J22010600005","2024-01-30T22:30:00",12.399,22.637236,0.114],
    [10569,"urn:WaterMeter:MC0203J22010600005","2024-01-30T22:45:00",12.5,22.625986,0.121],
    [10570,"urn:WaterMeter:MC0203J22010600005","2024-01-30T23:00:00",12.5,22.626762,0.113],
    [10571,"urn:WaterMeter:MC0203J22010600005","2024-01-30T23:15:00",12.5,22.559267,0.118],
    [10572,"urn:WaterMeter:MC0203J22010600005","2024-01-30T23:30:00",12.399,22.566637,0.121],
    [10573,"urn:WaterMeter:MC0203J22010600005","2024-01-30T23:45:00",12.399,22.604614,0.119],
    [10574,"urn:WaterMeter:MC0203J22010600005","2024-01-31T00:00:00",12.399,22.590687,0.115],
    [10575,"urn:WaterMeter:MC0203J22010600005","2024-01-31T00:15:00",12.399,22.551123,0.116],
    [10576,"urn:WaterMeter:MC0203J22010600005","2024-01-31T00:30:00",12.399,22.633318,0.115],
    [10577,"urn:WaterMeter:MC0203J22010600005","2024-01-31T00:45:00",12.399,22.527033,0.118],
    [10578,"urn:WaterMeter:MC0203J22010600005","2024-01-31T01:00:00",12.399,22.612022,0.123],
    [10579,"urn:WaterMeter:MC0203J22010600005","2024-01-31T01:15:00",12.399,22.551123,0.118],
    [10580,"urn:WaterMeter:MC0203J22010600005","2024-01-31T01:30:00",12.3,22.58836,0.114],
    [10581,"urn:WaterMeter:MC0203J22010600005","2024-01-31T01:45:00",12.3,22.572844,0.12],
    [10582,"urn:WaterMeter:MC0203J22010600005","2024-01-31T02:00:00",12.3,22.610859,0.114],
    [10583,"urn:WaterMeter:MC0203J22010600005","2024-01-31T02:15:00",12.3,22.587973,0.122],
    [10584,"urn:WaterMeter:MC0203J22010600005","2024-01-31T02:30:00",12.3,22.54026,0.12],
    [10585,"urn:WaterMeter:MC0203J22010600005","2024-01-31T02:45:00",12.199,22.509617,0.114],
    [10586,"urn:WaterMeter:MC0203J22010600005","2024-01-31T03:00:00",12.199,22.565435,0.116],
    [10587,"urn:WaterMeter:MC0203J22010600005","2024-01-31T03:15:00",12.199,22.587973,0.122],
    [10588,"urn:WaterMeter:MC0203J22010600005","2024-01-31T03:30:00",12.199,22.532114,0.12],
    [10589,"urn:WaterMeter:MC0203J22010600005","2024-01-31T03:45:00",12.1,22.53289,0.122],
    [10590,"urn:WaterMeter:MC0203J22010600005","2024-01-31T04:00:00",12.1,22.5294,0.118],
    [10591,"urn:WaterMeter:MC0203J22010600005","2024-01-31T04:15:00",12.1,22.575521,0.117],
    [10592,"urn:WaterMeter:MC0203J22010600005","2024-01-31T04:30:00",12.1,22.59961,0.119],
    [10593,"urn:WaterMeter:MC0203J22010600005","2024-01-31T04:45:00",12,22.518927,0.12],
    [10594,"urn:WaterMeter:MC0203J22010600005","2024-01-31T05:00:00",12,22.5294,0.113],
    [10595,"urn:WaterMeter:MC0203J22010600005","2024-01-31T05:15:00",12,22.541037,0.122],
    [10596,"urn:WaterMeter:MC0203J22010600005","2024-01-31T05:30:00",12,22.53483,0.116],
    [10597,"urn:WaterMeter:MC0203J22010600005","2024-01-31T05:45:00",11.899,22.509617,0.115],
    [10598,"urn:WaterMeter:MC0203J22010600005","2024-01-31T06:00:00",11.899,22.599997,0.114],
    [10599,"urn:WaterMeter:MC0203J22010600005","2024-01-31T06:15:00",11.899,22.52203,0.117],
    [10600,"urn:WaterMeter:MC0203J22010600005","2024-01-31T06:30:00",11.899,22.547243,0.116],
    [10601,"urn:WaterMeter:MC0203J22010600005","2024-01-31T06:45:00",11.8,22.517336,0.119],
    [10602,"urn:WaterMeter:MC0203J22010600005","2024-01-31T07:00:00",11.8,22.585646,0.123],
    [10603,"urn:WaterMeter:MC0203J22010600005","2024-01-31T07:15:00",11.8,22.510004,0.113],
    [10604,"urn:WaterMeter:MC0203J22010600005","2024-01-31T07:30:00",11.8,22.582502,0.112],
    [10605,"urn:WaterMeter:MC0203J22010600005","2024-01-31T07:45:00",11.8,22.53134,0.117],
    [10606,"urn:WaterMeter:MC0203J22010600005","2024-01-31T08:00:00",11.8,22.54604,0.111],
    [10607,"urn:WaterMeter:MC0203J22010600005","2024-01-31T08:15:00",11.8,22.568966,0.116],
    [10608,"urn:WaterMeter:MC0203J22010600005","2024-01-31T08:30:00",11.8,22.527033,0.117],
    [10609,"urn:WaterMeter:MC0203J22010600005","2024-01-31T08:45:00",11.899,22.568577,0.116],
    [10610,"urn:WaterMeter:MC0203J22010600005","2024-01-31T09:00:00",12,22.559656,0.115],
    [10611,"urn:WaterMeter:MC0203J22010600005","2024-01-31T09:15:00",12.1,22.50884,0.12],
    [10612,"urn:WaterMeter:MC0203J22010600005","2024-01-31T09:30:00",12.199,22.539097,0.11],
    [10613,"urn:WaterMeter:MC0203J22010600005","2024-01-31T09:45:00",12.3,22.54026,0.119],
    [10614,"urn:WaterMeter:MC0203J22010600005","2024-01-31T10:00:00",12.399,22.516172,0.117],
    [10615,"urn:WaterMeter:MC0203J22010600005","2024-01-31T10:15:00",12.5,22.524319,0.116],
    [10616,"urn:WaterMeter:MC0203J22010600005","2024-01-31T10:30:00",12.6,22.548794,0.112],
    [10617,"urn:WaterMeter:MC0203J22010600005","2024-01-31T10:45:00",12.8,22.491774,0.114],
    [10618,"urn:WaterMeter:MC0203J22010600005","2024-01-31T11:00:00",12.899,22.504147,0.118],
    [10619,"urn:WaterMeter:MC0203J22010600005","2024-01-31T11:15:00",13,22.511168,0.111],
    [10620,"urn:WaterMeter:MC0203J22010600005","2024-01-31T11:30:00",13.1,22.48514,0.11],
    [10621,"urn:WaterMeter:MC0203J22010600005","2024-01-31T11:45:00",13.199,22.492937,0.114],
    [10622,"urn:WaterMeter:MC0203J22010600005","2024-01-31T12:00:00",13.3,22.507639,0.116],
    [10623,"urn:WaterMeter:MC0203J22010600005","2024-01-31T12:15:00",13.399,22.406048,0.112],
    [10624,"urn:WaterMeter:MC0203J22010600005","2024-01-31T12:30:00",13.5,22.409887,0.111],
    [10625,"urn:WaterMeter:MC0203J22010600005","2024-01-31T12:45:00",13.6,22.389717,0.115],
    [10626,"urn:WaterMeter:MC0203J22010600005","2024-01-31T13:00:00",13.6,22.45182,0.113],
    [10627,"urn:WaterMeter:MC0203J22010600005","2024-01-31T13:15:00",13.699,22.395575,0.111],
    [10628,"urn:WaterMeter:MC0203J22010600005","2024-01-31T13:30:00",13.8,22.428507,0.117],
    [10629,"urn:WaterMeter:MC0203J22010600005","2024-01-31T13:45:00",13.899,22.407173,0.114],
    [10630,"urn:WaterMeter:MC0203J22010600005","2024-01-31T14:00:00",14,22.361012,0.111],
    [10631,"urn:WaterMeter:MC0203J22010600005","2024-01-31T14:15:00",14,22.401392,0.115],
    [10632,"urn:WaterMeter:MC0203J22010600005","2024-01-31T14:30:00",14.1,22.391268,0.115],
    [10633,"urn:WaterMeter:MC0203J22010600005","2024-01-31T14:45:00",14.1,22.415358,0.116],
    [10634,"urn:WaterMeter:MC0203J22010600005","2024-01-31T15:00:00",14.1,22.36877,0.108],
    [10635,"urn:WaterMeter:MC0203J22010600005","2024-01-31T15:15:00",14.1,22.342005,0.115],
    [10636,"urn:WaterMeter:MC0203J22010600005","2024-01-31T15:30:00",14.1,22.304806,0.114],
    [10637,"urn:WaterMeter:MC0203J22010600005","2024-01-31T15:45:00",14,22.362175,0.116],
    [10638,"urn:WaterMeter:MC0203J22010600005","2024-01-31T16:00:00",14,22.33894,0.116],
    [10639,"urn:WaterMeter:MC0203J22010600005","2024-01-31T16:15:00",13.899,22.288513,0.117],
    [10640,"urn:WaterMeter:MC0203J22010600005","2024-01-31T16:30:00",13.899,22.288902,0.109],
    [10641,"urn:WaterMeter:MC0203J22010600005","2024-01-31T16:45:00",13.8,22.322222,0.119],
    [10642,"urn:WaterMeter:MC0203J22010600005","2024-01-31T17:00:00",13.699,22.305582,0.116],
    [10643,"urn:WaterMeter:MC0203J22010600005","2024-01-31T17:15:00",13.5,22.292355,0.116],
    [10644,"urn:WaterMeter:MC0203J22010600005","2024-01-31T17:30:00",13.399,22.284595,0.121],
    [10645,"urn:WaterMeter:MC0203J22010600005","2024-01-31T17:45:00",13.199,22.30946,0.117],
    [10646,"urn:WaterMeter:MC0203J22010600005","2024-01-31T18:00:00",13.1,22.305193,0.116],
    [10647,"urn:WaterMeter:MC0203J22010600005","2024-01-31T18:15:00",12.899,22.331919,0.113],
    [10648,"urn:WaterMeter:MC0203J22010600005","2024-01-31T18:30:00",12.699,22.24856,0.113],
    [10649,"urn:WaterMeter:MC0203J22010600005","2024-01-31T18:45:00",12.6,22.337389,0.117],
    [10650,"urn:WaterMeter:MC0203J22010600005","2024-01-31T19:00:00",12.3,22.360624,0.111],
    [10651,"urn:WaterMeter:MC0203J22010600005","2024-01-31T19:15:00",12.199,22.34088,0.117],
    [10652,"urn:WaterMeter:MC0203J22010600005","2024-01-31T19:30:00",11.899,22.32998,0.118],
    [10653,"urn:WaterMeter:MC0203J22010600005","2024-01-31T19:45:00",11.8,22.300926,0.116],
    [10654,"urn:WaterMeter:MC0203J22010600005","2024-01-31T20:00:00",11.6,22.337002,0.113],
    [10655,"urn:WaterMeter:MC0203J22010600005","2024-01-31T20:15:00",11.5,22.279203,0.12],
    [10656,"urn:WaterMeter:MC0203J22010600005","2024-01-31T20:30:00",11.399,22.28382,0.116],
    [10657,"urn:WaterMeter:MC0203J22010600005","2024-01-31T20:45:00",11.3,22.259033,0.116],
    [10658,"urn:WaterMeter:MC0203J22010600005","2024-01-31T21:00:00",11.1,22.286963,0.116],
    [10659,"urn:WaterMeter:MC0203J22010600005","2024-01-31T21:15:00",11,22.315279,0.112],
    [10660,"urn:WaterMeter:MC0203J22010600005","2024-01-31T21:30:00",10.8,22.326529,0.114],
    [10661,"urn:WaterMeter:MC0203J22010600005","2024-01-31T21:45:00",10.699,22.341618,0.114],
    [10662,"urn:WaterMeter:MC0203J22010600005","2024-01-31T22:00:00",10.5,22.349375,0.122],
    [10663,"urn:WaterMeter:MC0203J22010600005","2024-01-31T22:15:00",10.399,22.29119,0.112],
    [10664,"urn:WaterMeter:MC0203J22010600005","2024-01-31T22:30:00",10.3,22.283045,0.114],
    [10665,"urn:WaterMeter:MC0203J22010600005","2024-01-31T22:45:00",10.1,22.339329,0.113],
    [10666,"urn:WaterMeter:MC0203J22010600005","2024-01-31T23:00:00",10,22.29666,0.117],
    [10667,"urn:WaterMeter:MC0203J22010600005","2024-01-31T23:15:00",9.899,22.305582,0.116],
    [10668,"urn:WaterMeter:MC0203J22010600005","2024-01-31T23:30:00",9.8,22.336226,0.118],
    [10669,"urn:WaterMeter:MC0203J22010600005","2024-01-31T23:45:00",9.699,22.32614,0.114],
    [10670,"urn:WaterMeter:MC0203J22010600005","2024-02-01T00:00:00",9.6,22.276876,0.12],
    [10671,"urn:WaterMeter:MC0203J22010600005","2024-02-01T00:15:00",9.5,22.29119,0.116],
    [10672,"urn:WaterMeter:MC0203J22010600005","2024-02-01T00:30:00",9.3,22.293518,0.117],
    [10673,"urn:WaterMeter:MC0203J22010600005","2024-02-01T00:45:00",9.199,22.276876,0.118],
    [10674,"urn:WaterMeter:MC0203J22010600005","2024-02-01T01:00:00",9.1,22.28735,0.113],
    [10675,"urn:WaterMeter:MC0203J22010600005","2024-02-01T01:15:00",9,22.282307,0.117],
    [10676,"urn:WaterMeter:MC0203J22010600005","2024-02-01T01:30:00",8.899,22.38002,0.119],
    [10677,"urn:WaterMeter:MC0203J22010600005","2024-02-01T01:45:00",8.8,22.359888,0.119],
    [10678,"urn:WaterMeter:MC0203J22010600005","2024-02-01T02:00:00",8.699,22.335838,0.117],
    [10679,"urn:WaterMeter:MC0203J22010600005","2024-02-01T02:15:00",8.6,22.346312,0.116],
    [10680,"urn:WaterMeter:MC0203J22010600005","2024-02-01T02:30:00",8.6,22.28929,0.119],
    [10681,"urn:WaterMeter:MC0203J22010600005","2024-02-01T02:45:00",8.5,22.353292,0.112],
    [10682,"urn:WaterMeter:MC0203J22010600005","2024-02-01T03:00:00",8.5,22.345535,0.118],
    [10683,"urn:WaterMeter:MC0203J22010600005","2024-02-01T03:15:00",8.399,22.354069,0.119],
    [10684,"urn:WaterMeter:MC0203J22010600005","2024-02-01T03:30:00",8.399,22.334286,0.113],
    [10685,"urn:WaterMeter:MC0203J22010600005","2024-02-01T03:45:00",8.399,22.35209,0.115],
    [10686,"urn:WaterMeter:MC0203J22010600005","2024-02-01T04:00:00",8.399,22.352478,0.116],
    [10687,"urn:WaterMeter:MC0203J22010600005","2024-02-01T04:15:00",8.5,22.337002,0.114],
    [10688,"urn:WaterMeter:MC0203J22010600005","2024-02-01T04:30:00",8.5,22.340105,0.111],
    [10689,"urn:WaterMeter:MC0203J22010600005","2024-02-01T04:45:00",8.5,22.319546,0.11],
    [10690,"urn:WaterMeter:MC0203J22010600005","2024-02-01T05:00:00",8.5,22.371874,0.116],
    [10691,"urn:WaterMeter:MC0203J22010600005","2024-02-01T05:15:00",8.5,22.362991,0.115],
    [10692,"urn:WaterMeter:MC0203J22010600005","2024-02-01T05:30:00",8.6,22.321835,0.113],
    [10693,"urn:WaterMeter:MC0203J22010600005","2024-02-01T05:45:00",8.6,22.334286,0.116],
    [10694,"urn:WaterMeter:MC0203J22010600005","2024-02-01T06:00:00",8.6,22.31489,0.111],
    [10695,"urn:WaterMeter:MC0203J22010600005","2024-02-01T06:15:00",8.699,22.338165,0.11],
    [10696,"urn:WaterMeter:MC0203J22010600005","2024-02-01T06:30:00",8.699,22.351702,0.114],
    [10697,"urn:WaterMeter:MC0203J22010600005","2024-02-01T06:45:00",8.8,22.33545,0.107],
    [10698,"urn:WaterMeter:MC0203J22010600005","2024-02-01T07:00:00",8.8,22.310585,0.116],
    [10699,"urn:WaterMeter:MC0203J22010600005","2024-02-01T07:15:00",8.8,22.2633,0.113],
    [10700,"urn:WaterMeter:MC0203J22010600005","2024-02-01T07:30:00",8.8,22.310585,0.11],
    [10701,"urn:WaterMeter:MC0203J22010600005","2024-02-01T07:45:00",8.699,22.265202,0.109],
    [10702,"urn:WaterMeter:MC0203J22010600005","2024-02-01T08:00:00",8.699,22.28929,0.116],
    [10703,"urn:WaterMeter:MC0203J22010600005","2024-02-01T08:15:00",8.6,22.310198,0.119],
    [10704,"urn:WaterMeter:MC0203J22010600005","2024-02-01T08:30:00",8.6,22.30597,0.117],
    [10705,"urn:WaterMeter:MC0203J22010600005","2024-02-01T08:45:00",8.699,22.326529,0.112],
    [10706,"urn:WaterMeter:MC0203J22010600005","2024-02-01T09:00:00",8.899,22.288513,0.118],
    [10707,"urn:WaterMeter:MC0203J22010600005","2024-02-01T09:15:00",9.199,22.310198,0.109],
    [10708,"urn:WaterMeter:MC0203J22010600005","2024-02-01T09:30:00",9.5,22.26873,0.115],
    [10709,"urn:WaterMeter:MC0203J22010600005","2024-02-01T09:45:00",9.8,22.305582,0.11],
    [10710,"urn:WaterMeter:MC0203J22010600005","2024-02-01T10:00:00",10.1,22.258646,0.114],
    [10711,"urn:WaterMeter:MC0203J22010600005","2024-02-01T10:15:00",10.399,22.297047,0.109],
    [10712,"urn:WaterMeter:MC0203J22010600005","2024-02-01T10:30:00",10.699,22.224123,0.115],
    [10713,"urn:WaterMeter:MC0203J22010600005","2024-02-01T10:45:00",11,22.192703,0.107],
    [10714,"urn:WaterMeter:MC0203J22010600005","2024-02-01T11:00:00",11.3,22.223734,0.112],
    [10715,"urn:WaterMeter:MC0203J22010600005","2024-02-01T11:15:00",11.6,22.203176,0.111],
    [10716,"urn:WaterMeter:MC0203J22010600005","2024-02-01T11:30:00",12,22.178738,0.107],
    [10717,"urn:WaterMeter:MC0203J22010600005","2024-02-01T11:45:00",12.5,22.172144,0.107],
    [10718,"urn:WaterMeter:MC0203J22010600005","2024-02-01T12:00:00",12.899,22.189987,0.109],
    [10719,"urn:WaterMeter:MC0203J22010600005","2024-02-01T12:15:00",13.399,22.079397,0.105],
    [10720,"urn:WaterMeter:MC0203J22010600005","2024-02-01T12:30:00",13.899,22.157753,0.117],
    [10721,"urn:WaterMeter:MC0203J22010600005","2024-02-01T12:45:00",14,22.112019,0.108],
    [10722,"urn:WaterMeter:MC0203J22010600005","2024-02-01T13:00:00",14,22.056938,0.107],
    [10723,"urn:WaterMeter:MC0203J22010600005","2024-02-01T13:15:00",14.1,22.084866,0.107],
    [10724,"urn:WaterMeter:MC0203J22010600005","2024-02-01T13:30:00",14.1,22.029009,0.111],
    [10725,"urn:WaterMeter:MC0203J22010600005","2024-02-01T13:45:00",14.1,22.024742,0.11],
    [10726,"urn:WaterMeter:MC0203J22010600005","2024-02-01T14:00:00",14.199,21.986727,0.111],
    [10727,"urn:WaterMeter:MC0203J22010600005","2024-02-01T14:15:00",14.199,22.035215,0.105],
    [10728,"urn:WaterMeter:MC0203J22010600005","2024-02-01T14:30:00",14.199,21.991383,0.109],
    [10729,"urn:WaterMeter:MC0203J22010600005","2024-02-01T14:45:00",14.1,21.98983,0.108],
    [10730,"urn:WaterMeter:MC0203J22010600005","2024-02-01T15:00:00",14,21.959187,0.11],
    [10731,"urn:WaterMeter:MC0203J22010600005","2024-02-01T15:15:00",13.899,21.969273,0.113],
    [10732,"urn:WaterMeter:MC0203J22010600005","2024-02-01T15:30:00",13.8,21.912638,0.108],
    [10733,"urn:WaterMeter:MC0203J22010600005","2024-02-01T15:45:00",13.699,21.953716,0.11],
    [10734,"urn:WaterMeter:MC0203J22010600005","2024-02-01T16:00:00",13.6,21.86803,0.114],
    [10735,"urn:WaterMeter:MC0203J22010600005","2024-02-01T16:15:00",13.5,21.892467,0.116],
    [10736,"urn:WaterMeter:MC0203J22010600005","2024-02-01T16:30:00",13.399,21.933584,0.111],
    [10737,"urn:WaterMeter:MC0203J22010600005","2024-02-01T16:45:00",13.399,21.859884,0.111],
    [10738,"urn:WaterMeter:MC0203J22010600005","2024-02-01T17:00:00",13.3,21.915316,0.108],
    [10739,"urn:WaterMeter:MC0203J22010600005","2024-02-01T17:15:00",13.1,21.897123,0.112],
    [10740,"urn:WaterMeter:MC0203J22010600005","2024-02-01T17:30:00",12.8,21.8882,0.115],
    [10741,"urn:WaterMeter:MC0203J22010600005","2024-02-01T17:45:00",12.6,21.93979,0.11],
    [10742,"urn:WaterMeter:MC0203J22010600005","2024-02-01T18:00:00",12.399,21.9254,0.108],
    [10743,"urn:WaterMeter:MC0203J22010600005","2024-02-01T18:15:00",12.3,21.916517,0.113],
    [10744,"urn:WaterMeter:MC0203J22010600005","2024-02-01T18:30:00",12.1,21.857906,0.115],
    [10745,"urn:WaterMeter:MC0203J22010600005","2024-02-01T18:45:00",12,21.921173,0.117],
    [10746,"urn:WaterMeter:MC0203J22010600005","2024-02-01T19:00:00",11.8,21.91225,0.113],
    [10747,"urn:WaterMeter:MC0203J22010600005","2024-02-01T19:15:00",11.699,21.866827,0.115],
    [10748,"urn:WaterMeter:MC0203J22010600005","2024-02-01T19:30:00",11.5,21.874237,0.114],
    [10749,"urn:WaterMeter:MC0203J22010600005","2024-02-01T19:45:00",11.3,21.860271,0.113],
    [10750,"urn:WaterMeter:MC0203J22010600005","2024-02-01T20:00:00",11.199,21.864113,0.115],
    [10751,"urn:WaterMeter:MC0203J22010600005","2024-02-01T20:15:00",11,21.8754,0.11],
    [10752,"urn:WaterMeter:MC0203J22010600005","2024-02-01T20:30:00",10.899,21.862211,0.113],
    [10753,"urn:WaterMeter:MC0203J22010600005","2024-02-01T20:45:00",10.699,21.902554,0.114],
    [10754,"urn:WaterMeter:MC0203J22010600005","2024-02-01T21:00:00",10.5,21.849024,0.115],
    [10755,"urn:WaterMeter:MC0203J22010600005","2024-02-01T21:15:00",10.3,21.93471,0.114],
    [10756,"urn:WaterMeter:MC0203J22010600005","2024-02-01T21:30:00",10.199,21.906393,0.112],
    [10757,"urn:WaterMeter:MC0203J22010600005","2024-02-01T21:45:00",10,21.848207,0.114],
    [10758,"urn:WaterMeter:MC0203J22010600005","2024-02-01T22:00:00",9.8,21.90523,0.115],
    [10759,"urn:WaterMeter:MC0203J22010600005","2024-02-01T22:15:00",9.6,21.844368,0.114],
    [10760,"urn:WaterMeter:MC0203J22010600005","2024-02-01T22:30:00",9.399,21.89208,0.115],
    [10761,"urn:WaterMeter:MC0203J22010600005","2024-02-01T22:45:00",9.3,21.839714,0.112],
    [10762,"urn:WaterMeter:MC0203J22010600005","2024-02-01T23:00:00",9.199,21.909147,0.115],
    [10763,"urn:WaterMeter:MC0203J22010600005","2024-02-01T23:15:00",9,21.891304,0.115],
    [10764,"urn:WaterMeter:MC0203J22010600005","2024-02-01T23:30:00",8.899,21.884283,0.113],
    [10765,"urn:WaterMeter:MC0203J22010600005","2024-02-01T23:45:00",8.8,21.894407,0.115],
    [10766,"urn:WaterMeter:MC0203J22010600005","2024-02-02T00:00:00",8.699,21.876913,0.112],
    [10767,"urn:WaterMeter:MC0203J22010600005","2024-02-02T00:15:00",8.6,21.922686,0.108],
    [10768,"urn:WaterMeter:MC0203J22010600005","2024-02-02T00:30:00",8.5,21.901777,0.113],
    [10769,"urn:WaterMeter:MC0203J22010600005","2024-02-02T00:45:00",8.3,21.913414,0.12],
    [10770,"urn:WaterMeter:MC0203J22010600005","2024-02-02T01:00:00",8.199,21.91454,0.113],
    [10771,"urn:WaterMeter:MC0203J22010600005","2024-02-02T01:15:00",8.1,21.89945,0.114],
    [10772,"urn:WaterMeter:MC0203J22010600005","2024-02-02T01:30:00",8.1,21.899837,0.117],
    [10773,"urn:WaterMeter:MC0203J22010600005","2024-02-02T01:45:00",8,21.906006,0.114],
    [10774,"urn:WaterMeter:MC0203J22010600005","2024-02-02T02:00:00",7.9,21.90682,0.116],
    [10775,"urn:WaterMeter:MC0203J22010600005","2024-02-02T02:15:00",7.9,21.915316,0.118],
    [10776,"urn:WaterMeter:MC0203J22010600005","2024-02-02T02:30:00",7.8,21.931257,0.115],
    [10777,"urn:WaterMeter:MC0203J22010600005","2024-02-02T02:45:00",7.699,21.91454,0.117],
    [10778,"urn:WaterMeter:MC0203J22010600005","2024-02-02T03:00:00",7.699,21.909924,0.108],
    [10779,"urn:WaterMeter:MC0203J22010600005","2024-02-02T03:15:00",7.599,21.917294,0.114],
    [10780,"urn:WaterMeter:MC0203J22010600005","2024-02-02T03:30:00",7.5,21.9107,0.111],
    [10781,"urn:WaterMeter:MC0203J22010600005","2024-02-02T03:45:00",7.4,21.90682,0.119],
    [10782,"urn:WaterMeter:MC0203J22010600005","2024-02-02T04:00:00",7.3,21.925013,0.114],
    [10783,"urn:WaterMeter:MC0203J22010600005","2024-02-02T04:15:00",7.199,21.92893,0.118],
    [10784,"urn:WaterMeter:MC0203J22010600005","2024-02-02T04:30:00",7.199,21.887424,0.116],
    [10785,"urn:WaterMeter:MC0203J22010600005","2024-02-02T04:45:00",7.099,21.92156,0.11],
    [10786,"urn:WaterMeter:MC0203J22010600005","2024-02-02T05:00:00",7.099,21.925789,0.116],
    [10787,"urn:WaterMeter:MC0203J22010600005","2024-02-02T05:15:00",7,21.93979,0.109],
    [10788,"urn:WaterMeter:MC0203J22010600005","2024-02-02T05:30:00",7,21.902554,0.111],
    [10789,"urn:WaterMeter:MC0203J22010600005","2024-02-02T05:45:00",6.9,21.918844,0.114],
    [10790,"urn:WaterMeter:MC0203J22010600005","2024-02-02T06:00:00",6.9,21.916904,0.116],
    [10791,"urn:WaterMeter:MC0203J22010600005","2024-02-02T06:15:00",6.8,21.9107,0.108],
    [10792,"urn:WaterMeter:MC0203J22010600005","2024-02-02T06:30:00",6.8,21.9107,0.109],
    [10793,"urn:WaterMeter:MC0203J22010600005","2024-02-02T06:45:00",6.699,21.904066,0.115],
    [10794,"urn:WaterMeter:MC0203J22010600005","2024-02-02T07:00:00",6.599,21.885447,0.106],
    [10795,"urn:WaterMeter:MC0203J22010600005","2024-02-02T07:15:00",6.599,21.928154,0.108],
    [10796,"urn:WaterMeter:MC0203J22010600005","2024-02-02T07:30:00",6.5,21.906006,0.116],
    [10797,"urn:WaterMeter:MC0203J22010600005","2024-02-02T07:45:00",6.5,21.92385,0.117],
    [10798,"urn:WaterMeter:MC0203J22010600005","2024-02-02T08:00:00",6.5,21.916517,0.112],
    [10799,"urn:WaterMeter:MC0203J22010600005","2024-02-02T08:15:00",6.5,21.920784,0.113],
    [10800,"urn:WaterMeter:MC0203J22010600005","2024-02-02T08:30:00",6.5,21.92346,0.112],
    [10801,"urn:WaterMeter:MC0203J22010600005","2024-02-02T08:45:00",6.699,21.9254,0.109],
    [10802,"urn:WaterMeter:MC0203J22010600005","2024-02-02T09:00:00",6.8,21.901001,0.107],
    [10803,"urn:WaterMeter:MC0203J22010600005","2024-02-02T09:15:00",7.099,21.907207,0.114],
    [10804,"urn:WaterMeter:MC0203J22010600005","2024-02-02T09:30:00",7.3,21.890917,0.113],
    [10805,"urn:WaterMeter:MC0203J22010600005","2024-02-02T09:45:00",7.599,21.87575,0.108],
    [10806,"urn:WaterMeter:MC0203J22010600005","2024-02-02T10:00:00",7.9,21.913803,0.111],
    [10807,"urn:WaterMeter:MC0203J22010600005","2024-02-02T10:15:00",8.199,21.896307,0.107],
    [10808,"urn:WaterMeter:MC0203J22010600005","2024-02-02T10:30:00",8.6,21.843204,0.109],
    [10809,"urn:WaterMeter:MC0203J22010600005","2024-02-02T10:45:00",9,21.844368,0.111],
    [10810,"urn:WaterMeter:MC0203J22010600005","2024-02-02T11:00:00",9.5,21.840101,0.107],
    [10811,"urn:WaterMeter:MC0203J22010600005","2024-02-02T11:15:00",10.1,21.851738,0.111],
    [10812,"urn:WaterMeter:MC0203J22010600005","2024-02-02T11:30:00",10.699,21.803251,0.104],
    [10813,"urn:WaterMeter:MC0203J22010600005","2024-02-02T11:45:00",11.3,21.757479,0.105],
    [10814,"urn:WaterMeter:MC0203J22010600005","2024-02-02T12:00:00",11.699,21.755926,0.103],
    [10815,"urn:WaterMeter:MC0203J22010600005","2024-02-02T12:15:00",12.199,21.787697,0.104],
    [10816,"urn:WaterMeter:MC0203J22010600005","2024-02-02T12:30:00",12.6,21.753212,0.112],
    [10817,"urn:WaterMeter:MC0203J22010600005","2024-02-02T12:45:00",12.8,21.745842,0.104],
    [10818,"urn:WaterMeter:MC0203J22010600005","2024-02-02T13:00:00",12.899,21.72412,0.104],
    [10819,"urn:WaterMeter:MC0203J22010600005","2024-02-02T13:15:00",12.899,21.693863,0.112],
    [10820,"urn:WaterMeter:MC0203J22010600005","2024-02-02T13:30:00",12.899,21.628696,0.107],
    [10821,"urn:WaterMeter:MC0203J22010600005","2024-02-02T13:45:00",13,21.652706,0.104],
    [10822,"urn:WaterMeter:MC0203J22010600005","2024-02-02T14:00:00",13.1,21.60775,0.111],
    [10823,"urn:WaterMeter:MC0203J22010600005","2024-02-02T14:15:00",13.1,21.563528,0.112],
    [10824,"urn:WaterMeter:MC0203J22010600005","2024-02-02T14:30:00",13.199,21.634476,0.107],
    [10825,"urn:WaterMeter:MC0203J22010600005","2024-02-02T14:45:00",13.199,21.597277,0.104],
    [10826,"urn:WaterMeter:MC0203J22010600005","2024-02-02T15:00:00",13.199,21.59297,0.106],
    [10827,"urn:WaterMeter:MC0203J22010600005","2024-02-02T15:15:00",13.199,21.553793,0.108],
    [10828,"urn:WaterMeter:MC0203J22010600005","2024-02-02T15:30:00",13.1,21.568184,0.108],
    [10829,"urn:WaterMeter:MC0203J22010600005","2024-02-02T15:45:00",13.1,21.549564,0.108],
    [10830,"urn:WaterMeter:MC0203J22010600005","2024-02-02T16:00:00",13,21.500689,0.105],
    [10831,"urn:WaterMeter:MC0203J22010600005","2024-02-02T16:15:00",12.899,21.485561,0.111],
    [10832,"urn:WaterMeter:MC0203J22010600005","2024-02-02T16:30:00",12.8,21.513878,0.106],
    [10833,"urn:WaterMeter:MC0203J22010600005","2024-02-02T16:45:00",12.699,21.4766,0.104],
    [10834,"urn:WaterMeter:MC0203J22010600005","2024-02-02T17:00:00",12.6,21.460308,0.109],
    [10835,"urn:WaterMeter:MC0203J22010600005","2024-02-02T17:15:00",12.5,21.502628,0.107],
    [10836,"urn:WaterMeter:MC0203J22010600005","2024-02-02T17:30:00",12.3,21.475863,0.108],
    [10837,"urn:WaterMeter:MC0203J22010600005","2024-02-02T17:45:00",12.199,21.482069,0.109],
    [10838,"urn:WaterMeter:MC0203J22010600005","2024-02-02T18:00:00",12,21.460735,0.111],
    [10839,"urn:WaterMeter:MC0203J22010600005","2024-02-02T18:15:00",11.8,21.460308,0.114],
    [10840,"urn:WaterMeter:MC0203J22010600005","2024-02-02T18:30:00",11.699,21.519695,0.104],
    [10841,"urn:WaterMeter:MC0203J22010600005","2024-02-02T18:45:00",11.5,21.484785,0.108],
    [10842,"urn:WaterMeter:MC0203J22010600005","2024-02-02T19:00:00",11.3,21.507631,0.108],
    [10843,"urn:WaterMeter:MC0203J22010600005","2024-02-02T19:15:00",11.199,21.419968,0.116],
    [10844,"urn:WaterMeter:MC0203J22010600005","2024-02-02T19:30:00",11,21.470005,0.109],
    [10845,"urn:WaterMeter:MC0203J22010600005","2024-02-02T19:45:00",10.899,21.444056,0.113],
    [10846,"urn:WaterMeter:MC0203J22010600005","2024-02-02T20:00:00",10.699,21.518494,0.109],
    [10847,"urn:WaterMeter:MC0203J22010600005","2024-02-02T20:15:00",10.6,21.457205,0.112],
    [10848,"urn:WaterMeter:MC0203J22010600005","2024-02-02T20:30:00",10.5,21.438585,0.111],
    [10849,"urn:WaterMeter:MC0203J22010600005","2024-02-02T20:45:00",10.399,21.503792,0.11],
    [10850,"urn:WaterMeter:MC0203J22010600005","2024-02-02T21:00:00",10.3,21.4875,0.11],
    [10851,"urn:WaterMeter:MC0203J22010600005","2024-02-02T21:15:00",10.199,21.4894,0.11],
    [10852,"urn:WaterMeter:MC0203J22010600005","2024-02-02T21:30:00",10.199,21.429665,0.111],
    [10853,"urn:WaterMeter:MC0203J22010600005","2024-02-02T21:45:00",10.1,21.512714,0.109],
    [10854,"urn:WaterMeter:MC0203J22010600005","2024-02-02T22:00:00",10.1,21.430052,0.107],
    [10855,"urn:WaterMeter:MC0203J22010600005","2024-02-02T22:15:00",10.1,21.468105,0.106],
    [10856,"urn:WaterMeter:MC0203J22010600005","2024-02-02T22:30:00",10,21.492931,0.108],
    [10857,"urn:WaterMeter:MC0203J22010600005","2024-02-02T22:45:00",10,21.460308,0.107],
    [10858,"urn:WaterMeter:MC0203J22010600005","2024-02-02T23:00:00",9.899,21.457981,0.11],
    [10859,"urn:WaterMeter:MC0203J22010600005","2024-02-02T23:15:00",9.8,21.505344,0.109],
    [10860,"urn:WaterMeter:MC0203J22010600005","2024-02-02T23:30:00",9.8,21.495258,0.11],
    [10861,"urn:WaterMeter:MC0203J22010600005","2024-02-02T23:45:00",9.699,21.465778,0.111],
    [10862,"urn:WaterMeter:MC0203J22010600005","2024-02-03T00:00:00",9.6,21.486725,0.113],
    [10863,"urn:WaterMeter:MC0203J22010600005","2024-02-03T00:15:00",9.5,21.41574,0.11],
    [10864,"urn:WaterMeter:MC0203J22010600005","2024-02-03T00:30:00",9.399,21.435522,0.111],
    [10865,"urn:WaterMeter:MC0203J22010600005","2024-02-03T00:45:00",9.3,21.460735,0.111],
    [10866,"urn:WaterMeter:MC0203J22010600005","2024-02-03T01:00:00",9.1,21.432419,0.105],
    [10867,"urn:WaterMeter:MC0203J22010600005","2024-02-03T01:15:00",9,21.458368,0.112],
    [10868,"urn:WaterMeter:MC0203J22010600005","2024-02-03T01:30:00",8.899,21.43781,0.108],
    [10869,"urn:WaterMeter:MC0203J22010600005","2024-02-03T01:45:00",8.8,21.457981,0.106],
    [10870,"urn:WaterMeter:MC0203J22010600005","2024-02-03T02:00:00",8.6,21.447935,0.109],
    [10871,"urn:WaterMeter:MC0203J22010600005","2024-02-03T02:15:00",8.5,21.464615,0.111],
    [10872,"urn:WaterMeter:MC0203J22010600005","2024-02-03T02:30:00",8.399,21.471209,0.113],
    [10873,"urn:WaterMeter:MC0203J22010600005","2024-02-03T02:45:00",8.3,21.43044,0.11],
    [10874,"urn:WaterMeter:MC0203J22010600005","2024-02-03T03:00:00",8.199,21.470432,0.116],
    [10875,"urn:WaterMeter:MC0203J22010600005","2024-02-03T03:15:00",8.199,21.440525,0.112],
    [10876,"urn:WaterMeter:MC0203J22010600005","2024-02-03T03:30:00",8.1,21.470432,0.111],
    [10877,"urn:WaterMeter:MC0203J22010600005","2024-02-03T03:45:00",8,21.509611,0.111],
    [10878,"urn:WaterMeter:MC0203J22010600005","2024-02-03T04:00:00",7.9,21.489828,0.118],
    [10879,"urn:WaterMeter:MC0203J22010600005","2024-02-03T04:15:00",7.8,21.501465,0.114],
    [10880,"urn:WaterMeter:MC0203J22010600005","2024-02-03T04:30:00",7.699,21.513102,0.104],
    [10881,"urn:WaterMeter:MC0203J22010600005","2024-02-03T04:45:00",7.699,21.515778,0.112],
    [10882,"urn:WaterMeter:MC0203J22010600005","2024-02-03T05:00:00",7.599,21.520472,0.114],
    [10883,"urn:WaterMeter:MC0203J22010600005","2024-02-03T05:15:00",7.5,21.531721,0.113],
    [10884,"urn:WaterMeter:MC0203J22010600005","2024-02-03T05:30:00",7.4,21.508797,0.11],
    [10885,"urn:WaterMeter:MC0203J22010600005","2024-02-03T05:45:00",7.4,21.486336,0.111],
    [10886,"urn:WaterMeter:MC0203J22010600005","2024-02-03T06:00:00",7.3,21.515778,0.114],
    [10887,"urn:WaterMeter:MC0203J22010600005","2024-02-03T06:15:00",7.199,21.520084,0.116],
    [10888,"urn:WaterMeter:MC0203J22010600005","2024-02-03T06:30:00",7.199,21.525126,0.11],
    [10889,"urn:WaterMeter:MC0203J22010600005","2024-02-03T06:45:00",7.099,21.501076,0.114],
    [10890,"urn:WaterMeter:MC0203J22010600005","2024-02-03T07:00:00",7,21.488237,0.106],
    [10891,"urn:WaterMeter:MC0203J22010600005","2024-02-03T07:15:00",7,21.504568,0.115],
    [10892,"urn:WaterMeter:MC0203J22010600005","2024-02-03T07:30:00",6.9,21.497547,0.111],
    [10893,"urn:WaterMeter:MC0203J22010600005","2024-02-03T07:45:00",6.9,21.506119,0.108],
    [10894,"urn:WaterMeter:MC0203J22010600005","2024-02-03T08:00:00",6.9,21.477764,0.113],
    [10895,"urn:WaterMeter:MC0203J22010600005","2024-02-03T08:15:00",6.9,21.517717,0.109],
    [10896,"urn:WaterMeter:MC0203J22010600005","2024-02-03T08:30:00",7.099,21.491768,0.111],
    [10897,"urn:WaterMeter:MC0203J22010600005","2024-02-03T08:45:00",7.3,21.51892,0.107],
    [10898,"urn:WaterMeter:MC0203J22010600005","2024-02-03T09:00:00",7.5,21.478151,0.112],
    [10899,"urn:WaterMeter:MC0203J22010600005","2024-02-03T09:15:00",7.8,21.501465,0.106],
    [10900,"urn:WaterMeter:MC0203J22010600005","2024-02-03T09:30:00",8.1,21.502241,0.106],
    [10901,"urn:WaterMeter:MC0203J22010600005","2024-02-03T09:45:00",8.5,21.501076,0.106],
    [10902,"urn:WaterMeter:MC0203J22010600005","2024-02-03T10:00:00",8.899,21.461512,0.108],
    [10903,"urn:WaterMeter:MC0203J22010600005","2024-02-03T10:15:00",9.3,21.431643,0.107],
    [10904,"urn:WaterMeter:MC0203J22010600005","2024-02-03T10:30:00",9.6,21.457594,0.106],
    [10905,"urn:WaterMeter:MC0203J22010600005","2024-02-03T10:45:00",9.899,21.438198,0.109],
    [10906,"urn:WaterMeter:MC0203J22010600005","2024-02-03T11:00:00",10.199,21.461123,0.104],
    [10907,"urn:WaterMeter:MC0203J22010600005","2024-02-03T11:15:00",10.6,21.37462,0.107],
    [10908,"urn:WaterMeter:MC0203J22010600005","2024-02-03T11:30:00",11.1,21.397896,0.107],
    [10909,"urn:WaterMeter:MC0203J22010600005","2024-02-03T11:45:00",11.6,21.412247,0.104],
    [10910,"urn:WaterMeter:MC0203J22010600005","2024-02-03T12:00:00",12.1,21.351347,0.107],
    [10911,"urn:WaterMeter:MC0203J22010600005","2024-02-03T12:15:00",12.5,21.348244,0.103],
    [10912,"urn:WaterMeter:MC0203J22010600005","2024-02-03T12:30:00",12.899,21.340446,0.104],
    [10913,"urn:WaterMeter:MC0203J22010600005","2024-02-03T12:45:00",13.199,21.358717,0.102],
    [10914,"urn:WaterMeter:MC0203J22010600005","2024-02-03T13:00:00",13.5,21.329624,0.1],
    [10915,"urn:WaterMeter:MC0203J22010600005","2024-02-03T13:15:00",13.6,21.289284,0.105],
    [10916,"urn:WaterMeter:MC0203J22010600005","2024-02-03T13:30:00",13.5,21.274504,0.106],
    [10917,"urn:WaterMeter:MC0203J22010600005","2024-02-03T13:45:00",13.6,21.291224,0.105],
    [10918,"urn:WaterMeter:MC0203J22010600005","2024-02-03T14:00:00",13.6,21.213255,0.107],
    [10919,"urn:WaterMeter:MC0203J22010600005","2024-02-03T14:15:00",13.5,21.219074,0.107],
    [10920,"urn:WaterMeter:MC0203J22010600005","2024-02-03T14:30:00",13.6,21.230711,0.1],
    [10921,"urn:WaterMeter:MC0203J22010600005","2024-02-03T14:45:00",13.6,21.179081,0.106],
    [10922,"urn:WaterMeter:MC0203J22010600005","2024-02-03T15:00:00",13.6,21.165543,0.102],
    [10923,"urn:WaterMeter:MC0203J22010600005","2024-02-03T15:15:00",13.5,21.202782,0.106],
    [10924,"urn:WaterMeter:MC0203J22010600005","2024-02-03T15:30:00",13.5,21.119345,0.107],
    [10925,"urn:WaterMeter:MC0203J22010600005","2024-02-03T15:45:00",13.399,21.124813,0.106],
    [10926,"urn:WaterMeter:MC0203J22010600005","2024-02-03T16:00:00",13.399,21.08331,0.1],
    [10927,"urn:WaterMeter:MC0203J22010600005","2024-02-03T16:15:00",13.3,21.091028,0.104],
    [10928,"urn:WaterMeter:MC0203J22010600005","2024-02-03T16:30:00",13.199,21.131796,0.107],
    [10929,"urn:WaterMeter:MC0203J22010600005","2024-02-03T16:45:00",13.1,21.13645,0.106],
    [10930,"urn:WaterMeter:MC0203J22010600005","2024-02-03T17:00:00",13,21.127102,0.105],
    [10931,"urn:WaterMeter:MC0203J22010600005","2024-02-03T17:15:00",12.8,21.137615,0.107],
    [10932,"urn:WaterMeter:MC0203J22010600005","2024-02-03T17:30:00",12.6,21.13645,0.099],
    [10933,"urn:WaterMeter:MC0203J22010600005","2024-02-03T17:45:00",12.399,21.0887,0.106],
    [10934,"urn:WaterMeter:MC0203J22010600005","2024-02-03T18:00:00",12.199,21.117056,0.11],
    [10935,"urn:WaterMeter:MC0203J22010600005","2024-02-03T18:15:00",11.899,21.091415,0.106],
    [10936,"urn:WaterMeter:MC0203J22010600005","2024-02-03T18:30:00",11.699,21.095333,0.107],
    [10937,"urn:WaterMeter:MC0203J22010600005","2024-02-03T18:45:00",11.5,21.087187,0.109],
    [10938,"urn:WaterMeter:MC0203J22010600005","2024-02-03T19:00:00",11.399,21.158134,0.107],
    [10939,"urn:WaterMeter:MC0203J22010600005","2024-02-03T19:15:00",11.199,21.068567,0.108],
    [10940,"urn:WaterMeter:MC0203J22010600005","2024-02-03T19:30:00",11,21.125977,0.109],
    [10941,"urn:WaterMeter:MC0203J22010600005","2024-02-03T19:45:00",10.899,21.0868,0.108],
    [10942,"urn:WaterMeter:MC0203J22010600005","2024-02-03T20:00:00",10.699,21.15507,0.111],
    [10943,"urn:WaterMeter:MC0203J22010600005","2024-02-03T20:15:00",10.5,21.094557,0.109],
    [10944,"urn:WaterMeter:MC0203J22010600005","2024-02-03T20:30:00",10.3,21.109259,0.107],
    [10945,"urn:WaterMeter:MC0203J22010600005","2024-02-03T20:45:00",10.199,21.126366,0.1],
    [10946,"urn:WaterMeter:MC0203J22010600005","2024-02-03T21:00:00",10,21.129429,0.11],
    [10947,"urn:WaterMeter:MC0203J22010600005","2024-02-03T21:15:00",9.899,21.134512,0.11],
    [10948,"urn:WaterMeter:MC0203J22010600005","2024-02-03T21:30:00",9.8,21.087576,0.107],
    [10949,"urn:WaterMeter:MC0203J22010600005","2024-02-03T21:45:00",9.6,21.073223,0.11],
    [10950,"urn:WaterMeter:MC0203J22010600005","2024-02-03T22:00:00",9.5,21.101501,0.107],
    [10951,"urn:WaterMeter:MC0203J22010600005","2024-02-03T22:15:00",9.399,21.173302,0.108],
    [10952,"urn:WaterMeter:MC0203J22010600005","2024-02-03T22:30:00",9.199,21.091415,0.107],
    [10953,"urn:WaterMeter:MC0203J22010600005","2024-02-03T22:45:00",9.1,21.07943,0.109],
    [10954,"urn:WaterMeter:MC0203J22010600005","2024-02-03T23:00:00",9,21.182222,0.11],
    [10955,"urn:WaterMeter:MC0203J22010600005","2024-02-03T23:15:00",8.8,21.140291,0.106],
    [10956,"urn:WaterMeter:MC0203J22010600005","2024-02-03T23:30:00",8.699,21.132183,0.11],
    [10957,"urn:WaterMeter:MC0203J22010600005","2024-02-03T23:45:00",8.6,21.131409,0.112],
    [10958,"urn:WaterMeter:MC0203J22010600005","2024-02-04T00:00:00",8.5,21.124426,0.106],
    [10959,"urn:WaterMeter:MC0203J22010600005","2024-02-04T00:15:00",8.399,21.152742,0.108],
    [10960,"urn:WaterMeter:MC0203J22010600005","2024-02-04T00:30:00",8.199,21.143045,0.11],
    [10961,"urn:WaterMeter:MC0203J22010600005","2024-02-04T00:45:00",8.199,21.144596,0.109],
    [10962,"urn:WaterMeter:MC0203J22010600005","2024-02-04T01:00:00",8.1,21.141882,0.114],
    [10963,"urn:WaterMeter:MC0203J22010600005","2024-02-04T01:15:00",8,21.147272,0.117],
    [10964,"urn:WaterMeter:MC0203J22010600005","2024-02-04T01:30:00",7.9,21.149601,0.109],
    [10965,"urn:WaterMeter:MC0203J22010600005","2024-02-04T01:45:00",7.8,21.119732,0.109],
    [10966,"urn:WaterMeter:MC0203J22010600005","2024-02-04T02:00:00",7.699,21.132183,0.102],
    [10967,"urn:WaterMeter:MC0203J22010600005","2024-02-04T02:15:00",7.599,21.131796,0.112],
    [10968,"urn:WaterMeter:MC0203J22010600005","2024-02-04T02:30:00",7.5,21.116667,0.111],
    [10969,"urn:WaterMeter:MC0203J22010600005","2024-02-04T02:45:00",7.5,21.139128,0.104],
    [10970,"urn:WaterMeter:MC0203J22010600005","2024-02-04T03:00:00",7.4,21.138739,0.112],
    [10971,"urn:WaterMeter:MC0203J22010600005","2024-02-04T03:15:00",7.3,21.155846,0.11],
    [10972,"urn:WaterMeter:MC0203J22010600005","2024-02-04T03:30:00",7.199,21.151192,0.11],
    [10973,"urn:WaterMeter:MC0203J22010600005","2024-02-04T03:45:00",7.099,21.16244,0.111],
    [10974,"urn:WaterMeter:MC0203J22010600005","2024-02-04T04:00:00",7,21.184938,0.118],
    [10975,"urn:WaterMeter:MC0203J22010600005","2024-02-04T04:15:00",6.9,21.174465,0.111],
    [10976,"urn:WaterMeter:MC0203J22010600005","2024-02-04T04:30:00",6.8,21.1605,0.111],
    [10977,"urn:WaterMeter:MC0203J22010600005","2024-02-04T04:45:00",6.699,21.165155,0.111],
    [10978,"urn:WaterMeter:MC0203J22010600005","2024-02-04T05:00:00",6.699,21.156622,0.11],
    [10979,"urn:WaterMeter:MC0203J22010600005","2024-02-04T05:15:00",6.599,21.1349,0.111],
    [10980,"urn:WaterMeter:MC0203J22010600005","2024-02-04T05:30:00",6.5,21.12365,0.106],
    [10981,"urn:WaterMeter:MC0203J22010600005","2024-02-04T05:45:00",6.4,21.116667,0.108],
    [10982,"urn:WaterMeter:MC0203J22010600005","2024-02-04T06:00:00",6.3,21.17175,0.111],
    [10983,"urn:WaterMeter:MC0203J22010600005","2024-02-04T06:15:00",6.3,21.150415,0.113],
    [10984,"urn:WaterMeter:MC0203J22010600005","2024-02-04T06:30:00",6.199,21.129818,0.106],
    [10985,"urn:WaterMeter:MC0203J22010600005","2024-02-04T06:45:00",6.099,21.14576,0.114],
    [10986,"urn:WaterMeter:MC0203J22010600005","2024-02-04T07:00:00",6.099,21.140291,0.108],
    [10987,"urn:WaterMeter:MC0203J22010600005","2024-02-04T07:15:00",6,21.128265,0.104],
    [10988,"urn:WaterMeter:MC0203J22010600005","2024-02-04T07:30:00",5.9,21.141493,0.111],
    [10989,"urn:WaterMeter:MC0203J22010600005","2024-02-04T07:45:00",5.9,21.128654,0.097],
    [10990,"urn:WaterMeter:MC0203J22010600005","2024-02-04T08:00:00",5.9,21.112013,0.107],
    [10991,"urn:WaterMeter:MC0203J22010600005","2024-02-04T08:15:00",6,21.151192,0.113],
    [10992,"urn:WaterMeter:MC0203J22010600005","2024-02-04T08:30:00",6.099,21.159685,0.108],
    [10993,"urn:WaterMeter:MC0203J22010600005","2024-02-04T08:45:00",6.3,21.150415,0.109],
    [10994,"urn:WaterMeter:MC0203J22010600005","2024-02-04T09:00:00",6.599,21.147661,0.101],
    [10995,"urn:WaterMeter:MC0203J22010600005","2024-02-04T09:15:00",7,21.156233,0.101],
    [10996,"urn:WaterMeter:MC0203J22010600005","2024-02-04T09:30:00",7.4,21.189205,0.1],
    [10997,"urn:WaterMeter:MC0203J22010600005","2024-02-04T09:45:00",7.8,21.151192,0.109],
    [10998,"urn:WaterMeter:MC0203J22010600005","2024-02-04T10:00:00",8,21.126366,0.104],
    [10999,"urn:WaterMeter:MC0203J22010600005","2024-02-04T10:15:00",8.3,21.14227,0.103],
    [11000,"urn:WaterMeter:MC0203J22010600005","2024-02-04T10:30:00",8.6,21.10309,0.107],
    [11001,"urn:WaterMeter:MC0203J22010600005","2024-02-04T10:45:00",9,21.080206,0.107],
    [11002,"urn:WaterMeter:MC0203J22010600005","2024-02-04T11:00:00",9.399,21.104256,0.106],
    [11003,"urn:WaterMeter:MC0203J22010600005","2024-02-04T11:15:00",9.899,21.052237,0.105],
    [11004,"urn:WaterMeter:MC0203J22010600005","2024-02-04T11:30:00",10.5,21.041763,0.098],
    [11005,"urn:WaterMeter:MC0203J22010600005","2024-02-04T11:45:00",11.1,21.050686,0.102],
    [11006,"urn:WaterMeter:MC0203J22010600005","2024-02-04T12:00:00",11.6,21.016201,0.098],
    [11007,"urn:WaterMeter:MC0203J22010600005","2024-02-04T12:15:00",12.1,21.039087,0.103],
    [11008,"urn:WaterMeter:MC0203J22010600005","2024-02-04T12:30:00",12.6,20.939009,0.099],
    [11009,"urn:WaterMeter:MC0203J22010600005","2024-02-04T12:45:00",12.8,20.987497,0.103],
    [11010,"urn:WaterMeter:MC0203J22010600005","2024-02-04T13:00:00",13,20.97388,0.099],
    [11011,"urn:WaterMeter:MC0203J22010600005","2024-02-04T13:15:00",13.199,20.960732,0.097],
    [11012,"urn:WaterMeter:MC0203J22010600005","2024-02-04T13:30:00",13.3,20.921165,0.102],
    [11013,"urn:WaterMeter:MC0203J22010600005","2024-02-04T13:45:00",13.3,20.893238,0.102],
    [11014,"urn:WaterMeter:MC0203J22010600005","2024-02-04T14:00:00",13.399,20.829195,0.1],
    [11015,"urn:WaterMeter:MC0203J22010600005","2024-02-04T14:15:00",13.399,20.8816,0.104],
    [11016,"urn:WaterMeter:MC0203J22010600005","2024-02-04T14:30:00",13.399,20.803633,0.102],
    [11017,"urn:WaterMeter:MC0203J22010600005","2024-02-04T14:45:00",13.5,20.823416,0.104],
    [11018,"urn:WaterMeter:MC0203J22010600005","2024-02-04T15:00:00",13.5,20.782686,0.102],
    [11019,"urn:WaterMeter:MC0203J22010600005","2024-02-04T15:15:00",13.5,20.813717,0.104],
    [11020,"urn:WaterMeter:MC0203J22010600005","2024-02-04T15:30:00",13.399,20.832726,0.105],
    [11021,"urn:WaterMeter:MC0203J22010600005","2024-02-04T15:45:00",13.399,20.793936,0.104],
    [11022,"urn:WaterMeter:MC0203J22010600005","2024-02-04T16:00:00",13.399,20.779543,0.098],
    [11023,"urn:WaterMeter:MC0203J22010600005","2024-02-04T16:15:00",13.3,20.725277,0.103],
    [11024,"urn:WaterMeter:MC0203J22010600005","2024-02-04T16:30:00",13.3,20.74506,0.107],
    [11025,"urn:WaterMeter:MC0203J22010600005","2024-02-04T16:45:00",13.199,20.717907,0.102],
    [11026,"urn:WaterMeter:MC0203J22010600005","2024-02-04T17:00:00",13.1,20.723724,0.101],
    [11027,"urn:WaterMeter:MC0203J22010600005","2024-02-04T17:15:00",13,20.758247,0.105],
    [11028,"urn:WaterMeter:MC0203J22010600005","2024-02-04T17:30:00",12.699,20.731443,0.104],
    [11029,"urn:WaterMeter:MC0203J22010600005","2024-02-04T17:45:00",12.5,20.7245,0.104],
    [11030,"urn:WaterMeter:MC0203J22010600005","2024-02-04T18:00:00",12.199,20.7617,0.105],
    [11031,"urn:WaterMeter:MC0203J22010600005","2024-02-04T18:15:00",12,20.758986,0.106],
    [11032,"urn:WaterMeter:MC0203J22010600005","2024-02-04T18:30:00",11.699,20.7245,0.108],
    [11033,"urn:WaterMeter:MC0203J22010600005","2024-02-04T18:45:00",11.5,20.798939,0.103],
    [11034,"urn:WaterMeter:MC0203J22010600005","2024-02-04T19:00:00",11.3,20.722136,0.106],
    [11035,"urn:WaterMeter:MC0203J22010600005","2024-02-04T19:15:00",11.1,20.779932,0.108],
    [11036,"urn:WaterMeter:MC0203J22010600005","2024-02-04T19:30:00",10.899,20.784237,0.107],
    [11037,"urn:WaterMeter:MC0203J22010600005","2024-02-04T19:45:00",10.699,20.710148,0.107],
    [11038,"urn:WaterMeter:MC0203J22010600005","2024-02-04T20:00:00",10.5,20.736914,0.1],
    [11039,"urn:WaterMeter:MC0203J22010600005","2024-02-04T20:15:00",10.399,20.71907,0.108],
    [11040,"urn:WaterMeter:MC0203J22010600005","2024-02-04T20:30:00",10.199,20.738853,0.107],
    [11041,"urn:WaterMeter:MC0203J22010600005","2024-02-04T20:45:00",10,20.762903,0.11],
    [11042,"urn:WaterMeter:MC0203J22010600005","2024-02-04T21:00:00",9.899,20.711311,0.106],
    [11043,"urn:WaterMeter:MC0203J22010600005","2024-02-04T21:15:00",9.699,20.729544,0.106],
    [11044,"urn:WaterMeter:MC0203J22010600005","2024-02-04T21:30:00",9.6,20.725277,0.109],
    [11045,"urn:WaterMeter:MC0203J22010600005","2024-02-04T21:45:00",9.399,20.771786,0.107],
    [11046,"urn:WaterMeter:MC0203J22010600005","2024-02-04T22:00:00",9.3,20.731833,0.105],
    [11047,"urn:WaterMeter:MC0203J22010600005","2024-02-04T22:15:00",9.1,20.784626,0.107],
    [11048,"urn:WaterMeter:MC0203J22010600005","2024-02-04T22:30:00",9,20.798162,0.107],
    [11049,"urn:WaterMeter:MC0203J22010600005","2024-02-04T22:45:00",8.899,20.786177,0.109],
    [11050,"urn:WaterMeter:MC0203J22010600005","2024-02-04T23:00:00",8.699,20.800879,0.111],
    [11051,"urn:WaterMeter:MC0203J22010600005","2024-02-04T23:15:00",8.6,20.783073,0.103],
    [11052,"urn:WaterMeter:MC0203J22010600005","2024-02-04T23:30:00",8.5,20.798552,0.112],
    [11053,"urn:WaterMeter:MC0203J22010600005","2024-02-04T23:45:00",8.399,20.790016,0.111],
    [11054,"urn:WaterMeter:MC0203J22010600005","2024-02-05T00:00:00",8.3,20.783073,0.104],
    [11055,"urn:WaterMeter:MC0203J22010600005","2024-02-05T00:15:00",8.1,20.76329,0.104],
    [11056,"urn:WaterMeter:MC0203J22010600005","2024-02-05T00:30:00",8,20.768333,0.108],
    [11057,"urn:WaterMeter:MC0203J22010600005","2024-02-05T00:45:00",7.9,20.777643,0.111],
    [11058,"urn:WaterMeter:MC0203J22010600005","2024-02-05T01:00:00",7.8,20.793547,0.101],
    [11059,"urn:WaterMeter:MC0203J22010600005","2024-02-05T01:15:00",7.599,20.777643,0.107],
    [11060,"urn:WaterMeter:MC0203J22010600005","2024-02-05T01:30:00",7.5,20.809025,0.104],
    [11061,"urn:WaterMeter:MC0203J22010600005","2024-02-05T01:45:00",7.4,20.779156,0.107],
    [11062,"urn:WaterMeter:MC0203J22010600005","2024-02-05T02:00:00",7.3,20.801306,0.11],
    [11063,"urn:WaterMeter:MC0203J22010600005","2024-02-05T02:15:00",7.199,20.83195,0.107],
    [11064,"urn:WaterMeter:MC0203J22010600005","2024-02-05T02:30:00",7.099,20.781483,0.108],
    [11065,"urn:WaterMeter:MC0203J22010600005","2024-02-05T02:45:00",7,20.798162,0.105],
    [11066,"urn:WaterMeter:MC0203J22010600005","2024-02-05T03:00:00",6.9,20.78928,0.115],
    [11067,"urn:WaterMeter:MC0203J22010600005","2024-02-05T03:15:00",6.8,20.790792,0.105],
    [11068,"urn:WaterMeter:MC0203J22010600005","2024-02-05T03:30:00",6.699,20.78734,0.105],
    [11069,"urn:WaterMeter:MC0203J22010600005","2024-02-05T03:45:00",6.599,20.814493,0.106],
    [11070,"urn:WaterMeter:MC0203J22010600005","2024-02-05T04:00:00",6.5,20.80402,0.108],
    [11071,"urn:WaterMeter:MC0203J22010600005","2024-02-05T04:15:00",6.5,20.802856,0.111],
    [11072,"urn:WaterMeter:MC0203J22010600005","2024-02-05T04:30:00",6.4,20.796263,0.107],
    [11073,"urn:WaterMeter:MC0203J22010600005","2024-02-05T04:45:00",6.3,20.756697,0.108],
    [11074,"urn:WaterMeter:MC0203J22010600005","2024-02-05T05:00:00",6.199,20.80208,0.113],
    [11075,"urn:WaterMeter:MC0203J22010600005","2024-02-05T05:15:00",6.199,20.8207,0.109],
    [11076,"urn:WaterMeter:MC0203J22010600005","2024-02-05T05:30:00",6.099,20.76911,0.107],
    [11077,"urn:WaterMeter:MC0203J22010600005","2024-02-05T05:45:00",6,20.818722,0.104],
    [11078,"urn:WaterMeter:MC0203J22010600005","2024-02-05T06:00:00",5.9,20.788116,0.101],
    [11079,"urn:WaterMeter:MC0203J22010600005","2024-02-05T06:15:00",5.9,20.790016,0.109],
    [11080,"urn:WaterMeter:MC0203J22010600005","2024-02-05T06:30:00",5.8,20.778769,0.106],
    [11081,"urn:WaterMeter:MC0203J22010600005","2024-02-05T06:45:00",5.699,20.781096,0.11],
    [11082,"urn:WaterMeter:MC0203J22010600005","2024-02-05T07:00:00",5.699,20.833113,0.107],
    [11083,"urn:WaterMeter:MC0203J22010600005","2024-02-05T07:15:00",5.599,20.803244,0.106],
    [11084,"urn:WaterMeter:MC0203J22010600005","2024-02-05T07:30:00",5.599,20.816433,0.107],
    [11085,"urn:WaterMeter:MC0203J22010600005","2024-02-05T07:45:00",5.5,20.838118,0.107],
    [11086,"urn:WaterMeter:MC0203J22010600005","2024-02-05T08:00:00",5.5,20.823416,0.107],
    [11087,"urn:WaterMeter:MC0203J22010600005","2024-02-05T08:15:00",5.5,20.84087,0.107],
    [11088,"urn:WaterMeter:MC0203J22010600005","2024-02-05T08:30:00",5.599,20.80208,0.109],
    [11089,"urn:WaterMeter:MC0203J22010600005","2024-02-05T08:45:00",5.8,20.829582,0.107],
    [11090,"urn:WaterMeter:MC0203J22010600005","2024-02-05T09:00:00",6.099,20.836952,0.106],
    [11091,"urn:WaterMeter:MC0203J22010600005","2024-02-05T09:15:00",6.5,20.829582,0.101],
    [11092,"urn:WaterMeter:MC0203J22010600005","2024-02-05T09:30:00",6.8,20.80596,0.107],
    [11093,"urn:WaterMeter:MC0203J22010600005","2024-02-05T09:45:00",7.099,20.75049,0.106],
    [11094,"urn:WaterMeter:MC0203J22010600005","2024-02-05T10:00:00",7.5,20.767557,0.11],
    [11095,"urn:WaterMeter:MC0203J22010600005","2024-02-05T10:15:00",7.9,20.734587,0.101],
    [11096,"urn:WaterMeter:MC0203J22010600005","2024-02-05T10:30:00",8.199,20.783073,0.1],
    [11097,"urn:WaterMeter:MC0203J22010600005","2024-02-05T10:45:00",8.6,20.731443,0.104],
    [11098,"urn:WaterMeter:MC0203J22010600005","2024-02-05T11:00:00",9,20.718294,0.101],
    [11099,"urn:WaterMeter:MC0203J22010600005","2024-02-05T11:15:00",9.6,20.684935,0.096],
    [11100,"urn:WaterMeter:MC0203J22010600005","2024-02-05T11:30:00",10.1,20.722523,0.106],
    [11101,"urn:WaterMeter:MC0203J22010600005","2024-02-05T11:45:00",10.6,20.644554,0.097],
    [11102,"urn:WaterMeter:MC0203J22010600005","2024-02-05T12:00:00",11.1,20.71558,0.101],
    [11103,"urn:WaterMeter:MC0203J22010600005","2024-02-05T12:15:00",11.6,20.627914,0.101],
    [11104,"urn:WaterMeter:MC0203J22010600005","2024-02-05T12:30:00",12.1,20.623608,0.098],
    [11105,"urn:WaterMeter:MC0203J22010600005","2024-02-05T12:45:00",12.5,20.669807,0.1],
    [11106,"urn:WaterMeter:MC0203J22010600005","2024-02-05T13:00:00",12.699,20.631018,0.098],
    [11107,"urn:WaterMeter:MC0203J22010600005","2024-02-05T13:15:00",13,20.56391,0.096],
    [11108,"urn:WaterMeter:MC0203J22010600005","2024-02-05T13:30:00",13.199,20.567362,0.1],
    [11109,"urn:WaterMeter:MC0203J22010600005","2024-02-05T13:45:00",13.399,20.516586,0.098],
    [11110,"urn:WaterMeter:MC0203J22010600005","2024-02-05T14:00:00",13.5,20.497967,0.097],
    [11111,"urn:WaterMeter:MC0203J22010600005","2024-02-05T14:15:00",13.6,20.480862,0.098],
    [11112,"urn:WaterMeter:MC0203J22010600005","2024-02-05T14:30:00",13.6,20.499092,0.097],
    [11113,"urn:WaterMeter:MC0203J22010600005","2024-02-05T14:45:00",13.699,20.45646,0.101],
    [11114,"urn:WaterMeter:MC0203J22010600005","2024-02-05T15:00:00",13.699,20.481287,0.098],
    [11115,"urn:WaterMeter:MC0203J22010600005","2024-02-05T15:15:00",13.699,20.444437,0.105],
    [11116,"urn:WaterMeter:MC0203J22010600005","2024-02-05T15:30:00",13.699,20.465384,0.094],
    [11117,"urn:WaterMeter:MC0203J22010600005","2024-02-05T15:45:00",13.699,20.466547,0.101],
    [11118,"urn:WaterMeter:MC0203J22010600005","2024-02-05T16:00:00",13.6,20.396725,0.104],
    [11119,"urn:WaterMeter:MC0203J22010600005","2024-02-05T16:15:00",13.6,20.391256,0.101],
    [11120,"urn:WaterMeter:MC0203J22010600005","2024-02-05T16:30:00",13.6,20.405258,0.103],
    [11121,"urn:WaterMeter:MC0203J22010600005","2024-02-05T16:45:00",13.5,20.40328,0.099],
    [11122,"urn:WaterMeter:MC0203J22010600005","2024-02-05T17:00:00",13.3,20.359098,0.101],
    [11123,"urn:WaterMeter:MC0203J22010600005","2024-02-05T17:15:00",13,20.369572,0.1],
    [11124,"urn:WaterMeter:MC0203J22010600005","2024-02-05T17:30:00",12.8,20.339315,0.102],
    [11125,"urn:WaterMeter:MC0203J22010600005","2024-02-05T17:45:00",12.6,20.388191,0.102],
    [11126,"urn:WaterMeter:MC0203J22010600005","2024-02-05T18:00:00",12.3,20.40138,0.104],
    [11127,"urn:WaterMeter:MC0203J22010600005","2024-02-05T18:15:00",12.1,20.339315,0.103],
    [11128,"urn:WaterMeter:MC0203J22010600005","2024-02-05T18:30:00",11.899,20.340868,0.105],
    [11129,"urn:WaterMeter:MC0203J22010600005","2024-02-05T18:45:00",11.8,20.35522,0.1],
    [11130,"urn:WaterMeter:MC0203J22010600005","2024-02-05T19:00:00",11.6,20.347075,0.108],
    [11131,"urn:WaterMeter:MC0203J22010600005","2024-02-05T19:15:00",11.5,20.422676,0.106],
    [11132,"urn:WaterMeter:MC0203J22010600005","2024-02-05T19:30:00",11.3,20.38664,0.102],
    [11133,"urn:WaterMeter:MC0203J22010600005","2024-02-05T19:45:00",11.199,20.368408,0.102],
    [11134,"urn:WaterMeter:MC0203J22010600005","2024-02-05T20:00:00",11.1,20.357935,0.104],
    [11135,"urn:WaterMeter:MC0203J22010600005","2024-02-05T20:15:00",10.899,20.38858,0.105],
    [11136,"urn:WaterMeter:MC0203J22010600005","2024-02-05T20:30:00",10.8,20.333847,0.104],
    [11137,"urn:WaterMeter:MC0203J22010600005","2024-02-05T20:45:00",10.699,20.342031,0.11],
    [11138,"urn:WaterMeter:MC0203J22010600005","2024-02-05T21:00:00",10.6,20.39944,0.103],
    [11139,"urn:WaterMeter:MC0203J22010600005","2024-02-05T21:15:00",10.5,20.382723,0.106],
    [11140,"urn:WaterMeter:MC0203J22010600005","2024-02-05T21:30:00",10.399,20.349401,0.105],
    [11141,"urn:WaterMeter:MC0203J22010600005","2024-02-05T21:45:00",10.399,20.352077,0.105],
    [11142,"urn:WaterMeter:MC0203J22010600005","2024-02-05T22:00:00",10.3,20.389744,0.105],
    [11143,"urn:WaterMeter:MC0203J22010600005","2024-02-05T22:15:00",10.199,20.352077,0.106],
    [11144,"urn:WaterMeter:MC0203J22010600005","2024-02-05T22:30:00",10.1,20.39242,0.107],
    [11145,"urn:WaterMeter:MC0203J22010600005","2024-02-05T22:45:00",10,20.345911,0.105],
    [11146,"urn:WaterMeter:MC0203J22010600005","2024-02-05T23:00:00",9.899,20.340868,0.105],
    [11147,"urn:WaterMeter:MC0203J22010600005","2024-02-05T23:15:00",9.899,20.329618,0.105],
    [11148,"urn:WaterMeter:MC0203J22010600005","2024-02-05T23:30:00",9.8,20.332294,0.108],
    [11149,"urn:WaterMeter:MC0203J22010600005","2024-02-05T23:45:00",9.699,20.354794,0.109],
    [11150,"urn:WaterMeter:MC0203J22010600005","2024-02-06T00:00:00",9.6,20.343931,0.102],
    [11151,"urn:WaterMeter:MC0203J22010600005","2024-02-06T00:15:00",9.6,20.334623,0.105],
    [11152,"urn:WaterMeter:MC0203J22010600005","2024-02-06T00:30:00",9.5,20.351303,0.1],
    [11153,"urn:WaterMeter:MC0203J22010600005","2024-02-06T00:45:00",9.5,20.41298,0.106],
    [11154,"urn:WaterMeter:MC0203J22010600005","2024-02-06T01:00:00",9.399,20.330395,0.103],
    [11155,"urn:WaterMeter:MC0203J22010600005","2024-02-06T01:15:00",9.399,20.339315,0.105],
    [11156,"urn:WaterMeter:MC0203J22010600005","2024-02-06T01:30:00",9.3,20.397114,0.104],
    [11157,"urn:WaterMeter:MC0203J22010600005","2024-02-06T01:45:00",9.3,20.409138,0.101],
    [11158,"urn:WaterMeter:MC0203J22010600005","2024-02-06T02:00:00",9.199,20.381208,0.103],
    [11159,"urn:WaterMeter:MC0203J22010600005","2024-02-06T02:15:00",9.199,20.381208,0.103],
    [11160,"urn:WaterMeter:MC0203J22010600005","2024-02-06T02:30:00",9.199,20.330782,0.104],
    [11161,"urn:WaterMeter:MC0203J22010600005","2024-02-06T02:45:00",9.1,20.391644,0.1],
    [11162,"urn:WaterMeter:MC0203J22010600005","2024-02-06T03:00:00",9.1,20.411427,0.106],
    [11163,"urn:WaterMeter:MC0203J22010600005","2024-02-06T03:15:00",9,20.317205,0.104],
    [11164,"urn:WaterMeter:MC0203J22010600005","2024-02-06T03:30:00",8.899,20.310999,0.101],
    [11165,"urn:WaterMeter:MC0203J22010600005","2024-02-06T03:45:00",8.8,20.366468,0.104],
    [11166,"urn:WaterMeter:MC0203J22010600005","2024-02-06T04:00:00",8.8,20.336601,0.108],
    [11167,"urn:WaterMeter:MC0203J22010600005","2024-02-06T04:15:00",8.8,20.400217,0.102],
    [11168,"urn:WaterMeter:MC0203J22010600005","2024-02-06T04:30:00",8.699,20.35363,0.104],
    [11169,"urn:WaterMeter:MC0203J22010600005","2024-02-06T04:45:00",8.699,20.358324,0.106],
    [11170,"urn:WaterMeter:MC0203J22010600005","2024-02-06T05:00:00",8.699,20.354406,0.1],
    [11171,"urn:WaterMeter:MC0203J22010600005","2024-02-06T05:15:00",8.699,20.370348,0.103],
    [11172,"urn:WaterMeter:MC0203J22010600005","2024-02-06T05:30:00",8.6,20.358711,0.104],
    [11173,"urn:WaterMeter:MC0203J22010600005","2024-02-06T05:45:00",8.6,20.337765,0.104],
    [11174,"urn:WaterMeter:MC0203J22010600005","2024-02-06T06:00:00",8.5,20.375778,0.103],
    [11175,"urn:WaterMeter:MC0203J22010600005","2024-02-06T06:15:00",8.399,20.360651,0.103],
    [11176,"urn:WaterMeter:MC0203J22010600005","2024-02-06T06:30:00",8.399,20.387415,0.091],
    [11177,"urn:WaterMeter:MC0203J22010600005","2024-02-06T06:45:00",8.399,20.388968,0.106],
    [11178,"urn:WaterMeter:MC0203J22010600005","2024-02-06T07:00:00",8.399,20.37927,0.101],
    [11179,"urn:WaterMeter:MC0203J22010600005","2024-02-06T07:15:00",8.5,20.400991,0.102],
    [11180,"urn:WaterMeter:MC0203J22010600005","2024-02-06T07:30:00",8.6,20.3738,0.102],
    [11181,"urn:WaterMeter:MC0203J22010600005","2024-02-06T07:45:00",8.6,20.359098,0.099],
    [11182,"urn:WaterMeter:MC0203J22010600005","2024-02-06T08:00:00",8.6,20.392807,0.105],
    [11183,"urn:WaterMeter:MC0203J22010600005","2024-02-06T08:15:00",8.699,20.374187,0.103],
    [11184,"urn:WaterMeter:MC0203J22010600005","2024-02-06T08:30:00",8.899,20.369572,0.101],
    [11185,"urn:WaterMeter:MC0203J22010600005","2024-02-06T08:45:00",9.1,20.317982,0.101],
    [11186,"urn:WaterMeter:MC0203J22010600005","2024-02-06T09:00:00",9.3,20.315228,0.1],
    [11187,"urn:WaterMeter:MC0203J22010600005","2024-02-06T09:15:00",9.6,20.366081,0.099],
    [11188,"urn:WaterMeter:MC0203J22010600005","2024-02-06T09:30:00",10,20.300915,0.099],
    [11189,"urn:WaterMeter:MC0203J22010600005","2024-02-06T09:45:00",10.399,20.279192,0.099],
    [11190,"urn:WaterMeter:MC0203J22010600005","2024-02-06T10:00:00",10.899,20.302465,0.099],
    [11191,"urn:WaterMeter:MC0203J22010600005","2024-02-06T10:15:00",11.3,20.298586,0.101],
    [11192,"urn:WaterMeter:MC0203J22010600005","2024-02-06T10:30:00",11.5,20.317205,0.101],
    [11193,"urn:WaterMeter:MC0203J22010600005","2024-02-06T10:45:00",11.899,20.256655,0.096],
    [11194,"urn:WaterMeter:MC0203J22010600005","2024-02-06T11:00:00",12.399,20.236095,0.099],
    [11195,"urn:WaterMeter:MC0203J22010600005","2024-02-06T11:15:00",12.699,20.281906,0.098],
    [11196,"urn:WaterMeter:MC0203J22010600005","2024-02-06T11:30:00",13.1,20.241953,0.1],
    [11197,"urn:WaterMeter:MC0203J22010600005","2024-02-06T11:45:00",13.899,20.185707,0.099],
    [11198,"urn:WaterMeter:MC0203J22010600005","2024-02-06T12:00:00",14.5,20.19847,0.094],
    [11199,"urn:WaterMeter:MC0203J22010600005","2024-02-06T12:15:00",15,20.178686,0.097],
    [11200,"urn:WaterMeter:MC0203J22010600005","2024-02-06T12:30:00",14.899,20.129074,0.09],
    [11201,"urn:WaterMeter:MC0203J22010600005","2024-02-06T12:45:00",14.8,20.101107,0.096],
    [11202,"urn:WaterMeter:MC0203J22010600005","2024-02-06T13:00:00",14.8,20.161657,0.102],
    [11203,"urn:WaterMeter:MC0203J22010600005","2024-02-06T13:15:00",14.8,20.083263,0.099],
    [11204,"urn:WaterMeter:MC0203J22010600005","2024-02-06T13:30:00",14.899,20.070501,0.095],
    [11205,"urn:WaterMeter:MC0203J22010600005","2024-02-06T13:45:00",15.199,20.077095,0.095],
    [11206,"urn:WaterMeter:MC0203J22010600005","2024-02-06T14:00:00",15.399,20.07438,0.097],
    [11207,"urn:WaterMeter:MC0203J22010600005","2024-02-06T14:15:00",15.5,20.040245,0.097],
    [11208,"urn:WaterMeter:MC0203J22010600005","2024-02-06T14:30:00",15.6,20.063093,0.1],
    [11209,"urn:WaterMeter:MC0203J22010600005","2024-02-06T14:45:00",15.6,20.014217,0.106],
    [11210,"urn:WaterMeter:MC0203J22010600005","2024-02-06T15:00:00",15.6,20.031712,0.102],
    [11211,"urn:WaterMeter:MC0203J22010600005","2024-02-06T15:15:00",15.6,20.017359,0.104],
    [11212,"urn:WaterMeter:MC0203J22010600005","2024-02-06T15:30:00",15.6,19.997576,0.099],
    [11213,"urn:WaterMeter:MC0203J22010600005","2024-02-06T15:45:00",15.699,19.965729,0.1],
    [11214,"urn:WaterMeter:MC0203J22010600005","2024-02-06T16:00:00",15.699,19.945171,0.101],
    [11215,"urn:WaterMeter:MC0203J22010600005","2024-02-06T16:15:00",15.6,19.903704,0.1],
    [11216,"urn:WaterMeter:MC0203J22010600005","2024-02-06T16:30:00",15.5,19.880817,0.095],
    [11217,"urn:WaterMeter:MC0203J22010600005","2024-02-06T16:45:00",15.5,19.92853,0.099],
    [11218,"urn:WaterMeter:MC0203J22010600005","2024-02-06T17:00:00",15.399,19.88974,0.099],
    [11219,"urn:WaterMeter:MC0203J22010600005","2024-02-06T17:15:00",15.3,19.86798,0.101],
    [11220,"urn:WaterMeter:MC0203J22010600005","2024-02-06T17:30:00",15.199,19.87306,0.101],
    [11221,"urn:WaterMeter:MC0203J22010600005","2024-02-06T17:45:00",15.1,19.85483,0.099],
    [11222,"urn:WaterMeter:MC0203J22010600005","2024-02-06T18:00:00",15,19.884697,0.104],
    [11223,"urn:WaterMeter:MC0203J22010600005","2024-02-06T18:15:00",14.899,19.892843,0.103],
    [11224,"urn:WaterMeter:MC0203J22010600005","2024-02-06T18:30:00",14.699,19.841253,0.102],
    [11225,"urn:WaterMeter:MC0203J22010600005","2024-02-06T18:45:00",14.6,19.883533,0.102],
    [11226,"urn:WaterMeter:MC0203J22010600005","2024-02-06T19:00:00",14.399,19.872284,0.112],
    [11227,"urn:WaterMeter:MC0203J22010600005","2024-02-06T19:15:00",14.199,19.807117,0.101],
    [11228,"urn:WaterMeter:MC0203J22010600005","2024-02-06T19:30:00",13.899,19.886599,0.101],
    [11229,"urn:WaterMeter:MC0203J22010600005","2024-02-06T19:45:00",13.6,19.809406,0.103],
    [11230,"urn:WaterMeter:MC0203J22010600005","2024-02-06T20:00:00",13.5,19.856768,0.101],
    [11231,"urn:WaterMeter:MC0203J22010600005","2024-02-06T20:15:00",13.3,19.829964,0.098],
    [11232,"urn:WaterMeter:MC0203J22010600005","2024-02-06T20:30:00",13.1,19.827637,0.102],
    [11233,"urn:WaterMeter:MC0203J22010600005","2024-02-06T20:45:00",12.8,19.867592,0.103],
    [11234,"urn:WaterMeter:MC0203J22010600005","2024-02-06T21:00:00",12.6,19.8288,0.095],
    [11235,"urn:WaterMeter:MC0203J22010600005","2024-02-06T21:15:00",12.399,19.870344,0.101],
    [11236,"urn:WaterMeter:MC0203J22010600005","2024-02-06T21:30:00",12.199,19.892067,0.1],
    [11237,"urn:WaterMeter:MC0203J22010600005","2024-02-06T21:45:00",12,19.874613,0.104],
    [11238,"urn:WaterMeter:MC0203J22010600005","2024-02-06T22:00:00",11.899,19.83427,0.1],
    [11239,"urn:WaterMeter:MC0203J22010600005","2024-02-06T22:15:00",11.8,19.880043,0.103],
    [11240,"urn:WaterMeter:MC0203J22010600005","2024-02-06T22:30:00",11.699,19.88621,0.097],
    [11241,"urn:WaterMeter:MC0203J22010600005","2024-02-06T22:45:00",11.699,19.855993,0.098],
    [11242,"urn:WaterMeter:MC0203J22010600005","2024-02-06T23:00:00",11.6,19.814875,0.105],
    [11243,"urn:WaterMeter:MC0203J22010600005","2024-02-06T23:15:00",11.6,19.796257,0.103],
    [11244,"urn:WaterMeter:MC0203J22010600005","2024-02-06T23:30:00",11.5,19.84164,0.102],
    [11245,"urn:WaterMeter:MC0203J22010600005","2024-02-06T23:45:00",11.399,19.859056,0.103],
    [11246,"urn:WaterMeter:MC0203J22010600005","2024-02-07T00:00:00",11.399,19.878065,0.103],
    [11247,"urn:WaterMeter:MC0203J22010600005","2024-02-07T00:15:00",11.3,19.82496,0.104],
    [11248,"urn:WaterMeter:MC0203J22010600005","2024-02-07T00:30:00",11.199,19.809793,0.1],
    [11249,"urn:WaterMeter:MC0203J22010600005","2024-02-07T00:45:00",11.199,19.816427,0.101],
    [11250,"urn:WaterMeter:MC0203J22010600005","2024-02-07T01:00:00",11.1,19.860647,0.1],
    [11251,"urn:WaterMeter:MC0203J22010600005","2024-02-07T01:15:00",11,19.842028,0.103],
    [11252,"urn:WaterMeter:MC0203J22010600005","2024-02-07T01:30:00",10.8,19.810183,0.104],
    [11253,"urn:WaterMeter:MC0203J22010600005","2024-02-07T01:45:00",10.699,19.867592,0.1],
    [11254,"urn:WaterMeter:MC0203J22010600005","2024-02-07T02:00:00",10.6,19.81057,0.106],
    [11255,"urn:WaterMeter:MC0203J22010600005","2024-02-07T02:15:00",10.5,19.83233,0.102],
    [11256,"urn:WaterMeter:MC0203J22010600005","2024-02-07T02:30:00",10.6,19.851727,0.1],
    [11257,"urn:WaterMeter:MC0203J22010600005","2024-02-07T02:45:00",10.6,19.85444,0.098],
    [11258,"urn:WaterMeter:MC0203J22010600005","2024-02-07T03:00:00",10.6,19.793541,0.102],
    [11259,"urn:WaterMeter:MC0203J22010600005","2024-02-07T03:15:00",10.6,19.840826,0.1],
    [11260,"urn:WaterMeter:MC0203J22010600005","2024-02-07T03:30:00",10.5,19.865303,0.099],
    [11261,"urn:WaterMeter:MC0203J22010600005","2024-02-07T03:45:00",10.399,19.863363,0.101],
    [11262,"urn:WaterMeter:MC0203J22010600005","2024-02-07T04:00:00",10.3,19.849747,0.098],
    [11263,"urn:WaterMeter:MC0203J22010600005","2024-02-07T04:15:00",10.199,19.867203,0.106],
    [11264,"urn:WaterMeter:MC0203J22010600005","2024-02-07T04:30:00",10.1,19.812548,0.105],
    [11265,"urn:WaterMeter:MC0203J22010600005","2024-02-07T04:45:00",10,19.8622,0.103],
    [11266,"urn:WaterMeter:MC0203J22010600005","2024-02-07T05:00:00",9.8,19.850136,0.103],
    [11267,"urn:WaterMeter:MC0203J22010600005","2024-02-07T05:15:00",9.699,19.850136,0.103],
    [11268,"urn:WaterMeter:MC0203J22010600005","2024-02-07T05:30:00",9.6,19.873837,0.102],
    [11269,"urn:WaterMeter:MC0203J22010600005","2024-02-07T05:45:00",9.699,19.81057,0.096],
    [11270,"urn:WaterMeter:MC0203J22010600005","2024-02-07T06:00:00",9.8,19.795868,0.102],
    [11271,"urn:WaterMeter:MC0203J22010600005","2024-02-07T06:15:00",9.899,19.831554,0.104],
    [11272,"urn:WaterMeter:MC0203J22010600005","2024-02-07T06:30:00",9.899,19.84742,0.104],
    [11273,"urn:WaterMeter:MC0203J22010600005","2024-02-07T06:45:00",9.8,19.844744,0.098],
    [11274,"urn:WaterMeter:MC0203J22010600005","2024-02-07T07:00:00",9.699,19.8525,0.099],
    [11275,"urn:WaterMeter:MC0203J22010600005","2024-02-07T07:15:00",9.5,19.864527,0.103],
    [11276,"urn:WaterMeter:MC0203J22010600005","2024-02-07T07:30:00",9.399,19.86375,0.103],
    [11277,"urn:WaterMeter:MC0203J22010600005","2024-02-07T07:45:00",9.3,19.809017,0.102],
    [11278,"urn:WaterMeter:MC0203J22010600005","2024-02-07T08:00:00",9.3,19.857157,0.105],
    [11279,"urn:WaterMeter:MC0203J22010600005","2024-02-07T08:15:00",9.3,19.866077,0.102],
    [11280,"urn:WaterMeter:MC0203J22010600005","2024-02-07T08:30:00",9.5,19.843967,0.108],
    [11281,"urn:WaterMeter:MC0203J22010600005","2024-02-07T08:45:00",9.8,19.820267,0.1],
    [11282,"urn:WaterMeter:MC0203J22010600005","2024-02-07T09:00:00",10,19.855993,0.095],
    [11283,"urn:WaterMeter:MC0203J22010600005","2024-02-07T09:15:00",10.399,19.832718,0.098],
    [11284,"urn:WaterMeter:MC0203J22010600005","2024-02-07T09:30:00",10.699,19.833107,0.1],
    [11285,"urn:WaterMeter:MC0203J22010600005","2024-02-07T09:45:00",11.1,19.842804,0.101],
    [11286,"urn:WaterMeter:MC0203J22010600005","2024-02-07T10:00:00",11.5,19.793541,0.099],
    [11287,"urn:WaterMeter:MC0203J22010600005","2024-02-07T10:15:00",11.8,19.804401,0.099],
    [11288,"urn:WaterMeter:MC0203J22010600005","2024-02-07T10:30:00",12.1,19.748932,0.098],
    [11289,"urn:WaterMeter:MC0203J22010600005","2024-02-07T10:45:00",12.6,19.794704,0.097],
    [11290,"urn:WaterMeter:MC0203J22010600005","2024-02-07T11:00:00",13.1,19.760181,0.096],
    [11291,"urn:WaterMeter:MC0203J22010600005","2024-02-07T11:15:00",13.6,19.704674,0.098],
    [11292,"urn:WaterMeter:MC0203J22010600005","2024-02-07T11:30:00",14.3,19.750057,0.097],
    [11293,"urn:WaterMeter:MC0203J22010600005","2024-02-07T11:45:00",14.899,19.727985,0.093],
    [11294,"urn:WaterMeter:MC0203J22010600005","2024-02-07T12:00:00",15.5,19.692648,0.095],
    [11295,"urn:WaterMeter:MC0203J22010600005","2024-02-07T12:15:00",15.899,19.734968,0.091],
    [11296,"urn:WaterMeter:MC0203J22010600005","2024-02-07T12:30:00",16.299,19.678335,0.095],
    [11297,"urn:WaterMeter:MC0203J22010600005","2024-02-07T12:45:00",16.399,19.63295,0.099],
    [11298,"urn:WaterMeter:MC0203J22010600005","2024-02-07T13:00:00",16.6,19.677946,0.095],
    [11299,"urn:WaterMeter:MC0203J22010600005","2024-02-07T13:15:00",16.5,19.604633,0.096],
    [11300,"urn:WaterMeter:MC0203J22010600005","2024-02-07T13:30:00",16.6,19.605797,0.095],
    [11301,"urn:WaterMeter:MC0203J22010600005","2024-02-07T13:45:00",16.6,19.563128,0.093],
    [11302,"urn:WaterMeter:MC0203J22010600005","2024-02-07T14:00:00",16.5,19.522787,0.096],
    [11303,"urn:WaterMeter:MC0203J22010600005","2024-02-07T14:15:00",16.5,19.56119,0.092],
    [11304,"urn:WaterMeter:MC0203J22010600005","2024-02-07T14:30:00",16.399,19.512701,0.1],
    [11305,"urn:WaterMeter:MC0203J22010600005","2024-02-07T14:45:00",16.299,19.488264,0.099],
    [11306,"urn:WaterMeter:MC0203J22010600005","2024-02-07T15:00:00",16.299,19.48516,0.095],
    [11307,"urn:WaterMeter:MC0203J22010600005","2024-02-07T15:15:00",16.299,19.51887,0.098],
    [11308,"urn:WaterMeter:MC0203J22010600005","2024-02-07T15:30:00",16.2,19.437061,0.102],
    [11309,"urn:WaterMeter:MC0203J22010600005","2024-02-07T15:45:00",16.2,19.482832,0.098],
    [11310,"urn:WaterMeter:MC0203J22010600005","2024-02-07T16:00:00",16.2,19.448698,0.098],
    [11311,"urn:WaterMeter:MC0203J22010600005","2024-02-07T16:15:00",16.1,19.402887,0.099],
    [11312,"urn:WaterMeter:MC0203J22010600005","2024-02-07T16:30:00",16,19.416115,0.101],
    [11313,"urn:WaterMeter:MC0203J22010600005","2024-02-07T16:45:00",16,19.421894,0.099],
    [11314,"urn:WaterMeter:MC0203J22010600005","2024-02-07T17:00:00",15.899,19.438225,0.097],
    [11315,"urn:WaterMeter:MC0203J22010600005","2024-02-07T17:15:00",15.8,19.419992,0.096],
    [11316,"urn:WaterMeter:MC0203J22010600005","2024-02-07T17:30:00",15.6,19.360645,0.1],
    [11317,"urn:WaterMeter:MC0203J22010600005","2024-02-07T17:45:00",15.399,19.419218,0.099],
    [11318,"urn:WaterMeter:MC0203J22010600005","2024-02-07T18:00:00",15.3,19.423445,0.102],
    [11319,"urn:WaterMeter:MC0203J22010600005","2024-02-07T18:15:00",15.1,19.436672,0.098],
    [11320,"urn:WaterMeter:MC0203J22010600005","2024-02-07T18:30:00",15,19.367239,0.094],
    [11321,"urn:WaterMeter:MC0203J22010600005","2024-02-07T18:45:00",14.899,19.415339,0.104],
    [11322,"urn:WaterMeter:MC0203J22010600005","2024-02-07T19:00:00",14.8,19.418829,0.099],
    [11323,"urn:WaterMeter:MC0203J22010600005","2024-02-07T19:15:00",14.699,19.378876,0.102],
    [11324,"urn:WaterMeter:MC0203J22010600005","2024-02-07T19:30:00",14.6,19.364872,0.102],
    [11325,"urn:WaterMeter:MC0203J22010600005","2024-02-07T19:45:00",14.399,19.386246,0.103],
    [11326,"urn:WaterMeter:MC0203J22010600005","2024-02-07T20:00:00",14.3,19.388573,0.098],
    [11327,"urn:WaterMeter:MC0203J22010600005","2024-02-07T20:15:00",14.199,19.38004,0.096],
    [11328,"urn:WaterMeter:MC0203J22010600005","2024-02-07T20:30:00",14,19.345089,0.099],
    [11329,"urn:WaterMeter:MC0203J22010600005","2024-02-07T20:45:00",13.899,19.388962,0.099],
    [11330,"urn:WaterMeter:MC0203J22010600005","2024-02-07T21:00:00",13.8,19.401335,0.1],
    [11331,"urn:WaterMeter:MC0203J22010600005","2024-02-07T21:15:00",13.6,19.36685,0.095],
    [11332,"urn:WaterMeter:MC0203J22010600005","2024-02-07T21:30:00",13.6,19.38547,0.101],
    [11333,"urn:WaterMeter:MC0203J22010600005","2024-02-07T21:45:00",13.399,19.32806,0.098],
    [11334,"urn:WaterMeter:MC0203J22010600005","2024-02-07T22:00:00",13.3,19.373446,0.101],
    [11335,"urn:WaterMeter:MC0203J22010600005","2024-02-07T22:15:00",13.1,19.330776,0.098],
    [11336,"urn:WaterMeter:MC0203J22010600005","2024-02-07T22:30:00",13,19.350946,0.101],
    [11337,"urn:WaterMeter:MC0203J22010600005","2024-02-07T22:45:00",12.899,19.339697,0.099],
    [11338,"urn:WaterMeter:MC0203J22010600005","2024-02-07T23:00:00",12.8,19.31526,0.095],
    [11339,"urn:WaterMeter:MC0203J22010600005","2024-02-07T23:15:00",12.6,19.373446,0.104],
    [11340,"urn:WaterMeter:MC0203J22010600005","2024-02-07T23:30:00",12.5,19.300907,0.105],
    [11341,"urn:WaterMeter:MC0203J22010600005","2024-02-07T23:45:00",12.3,19.386246,0.101],
    [11342,"urn:WaterMeter:MC0203J22010600005","2024-02-08T00:00:00",12.1,19.388573,0.104],
    [11343,"urn:WaterMeter:MC0203J22010600005","2024-02-08T00:15:00",12,19.310606,0.101],
    [11344,"urn:WaterMeter:MC0203J22010600005","2024-02-08T00:30:00",11.8,19.374182,0.101],
    [11345,"urn:WaterMeter:MC0203J22010600005","2024-02-08T00:45:00",11.699,19.364098,0.099],
    [11346,"urn:WaterMeter:MC0203J22010600005","2024-02-08T01:00:00",11.5,19.33388,0.098],
    [11347,"urn:WaterMeter:MC0203J22010600005","2024-02-08T01:15:00",11.399,19.356377,0.101],
    [11348,"urn:WaterMeter:MC0203J22010600005","2024-02-08T01:30:00",11.199,19.37457,0.1],
    [11349,"urn:WaterMeter:MC0203J22010600005","2024-02-08T01:45:00",11.1,19.381552,0.101],
    [11350,"urn:WaterMeter:MC0203J22010600005","2024-02-08T02:00:00",11.1,19.394741,0.098],
    [11351,"urn:WaterMeter:MC0203J22010600005","2024-02-08T02:15:00",11.1,19.328836,0.102],
    [11352,"urn:WaterMeter:MC0203J22010600005","2024-02-08T02:30:00",11,19.383104,0.1],
    [11353,"urn:WaterMeter:MC0203J22010600005","2024-02-08T02:45:00",10.899,19.367626,0.1],
    [11354,"urn:WaterMeter:MC0203J22010600005","2024-02-08T03:00:00",10.8,19.38004,0.101],
    [11355,"urn:WaterMeter:MC0203J22010600005","2024-02-08T03:15:00",10.699,19.3909,0.099],
    [11356,"urn:WaterMeter:MC0203J22010600005","2024-02-08T03:30:00",10.6,19.342762,0.097],
    [11357,"urn:WaterMeter:MC0203J22010600005","2024-02-08T03:45:00",10.6,19.371893,0.102],
    [11358,"urn:WaterMeter:MC0203J22010600005","2024-02-08T04:00:00",10.6,19.314096,0.1],
    [11359,"urn:WaterMeter:MC0203J22010600005","2024-02-08T04:15:00",10.6,19.36685,0.098],
    [11360,"urn:WaterMeter:MC0203J22010600005","2024-02-08T04:30:00",10.5,19.365261,0.101],
    [11361,"urn:WaterMeter:MC0203J22010600005","2024-02-08T04:45:00",10.399,19.381552,0.097],
    [11362,"urn:WaterMeter:MC0203J22010600005","2024-02-08T05:00:00",10.3,19.34668,0.101],
    [11363,"urn:WaterMeter:MC0203J22010600005","2024-02-08T05:15:00",10.3,19.349007,0.101],
    [11364,"urn:WaterMeter:MC0203J22010600005","2024-02-08T05:30:00",10.199,19.342026,0.098],
    [11365,"urn:WaterMeter:MC0203J22010600005","2024-02-08T05:45:00",10.1,19.35211,0.101],
    [11366,"urn:WaterMeter:MC0203J22010600005","2024-02-08T06:00:00",10,19.366463,0.101],
    [11367,"urn:WaterMeter:MC0203J22010600005","2024-02-08T06:15:00",9.899,19.345865,0.101],
    [11368,"urn:WaterMeter:MC0203J22010600005","2024-02-08T06:30:00",9.899,19.359869,0.095],
    [11369,"urn:WaterMeter:MC0203J22010600005","2024-02-08T06:45:00",9.8,19.359869,0.094],
    [11370,"urn:WaterMeter:MC0203J22010600005","2024-02-08T07:00:00",9.699,19.403662,0.102],
    [11371,"urn:WaterMeter:MC0203J22010600005","2024-02-08T07:15:00",9.6,19.341637,0.104],
    [11372,"urn:WaterMeter:MC0203J22010600005","2024-02-08T07:30:00",9.6,19.368015,0.1],
    [11373,"urn:WaterMeter:MC0203J22010600005","2024-02-08T07:45:00",9.6,19.383879,0.101],
    [11374,"urn:WaterMeter:MC0203J22010600005","2024-02-08T08:00:00",9.6,19.413748,0.099],
    [11375,"urn:WaterMeter:MC0203J22010600005","2024-02-08T08:15:00",9.5,19.38194,0.099],
    [11376,"urn:WaterMeter:MC0203J22010600005","2024-02-08T08:30:00",9.6,19.394352,0.096],
    [11377,"urn:WaterMeter:MC0203J22010600005","2024-02-08T08:45:00",9.899,19.388962,0.102],
    [11378,"urn:WaterMeter:MC0203J22010600005","2024-02-08T09:00:00",10.1,19.349783,0.099],
    [11379,"urn:WaterMeter:MC0203J22010600005","2024-02-08T09:15:00",10.399,19.380426,0.098],
    [11380,"urn:WaterMeter:MC0203J22010600005","2024-02-08T09:30:00",10.8,19.411848,0.095],
    [11381,"urn:WaterMeter:MC0203J22010600005","2024-02-08T09:45:00",11.199,19.339697,0.095],
    [11382,"urn:WaterMeter:MC0203J22010600005","2024-02-08T10:00:00",11.5,19.387022,0.094],
    [11383,"urn:WaterMeter:MC0203J22010600005","2024-02-08T10:15:00",11.8,19.310993,0.097],
    [11384,"urn:WaterMeter:MC0203J22010600005","2024-02-08T10:30:00",12.1,19.312933,0.095],
    [11385,"urn:WaterMeter:MC0203J22010600005","2024-02-08T10:45:00",12.399,19.309443,0.099],
    [11386,"urn:WaterMeter:MC0203J22010600005","2024-02-08T11:00:00",12.699,19.29509,0.097],
    [11387,"urn:WaterMeter:MC0203J22010600005","2024-02-08T11:15:00",13.1,19.325695,0.096],
    [11388,"urn:WaterMeter:MC0203J22010600005","2024-02-08T11:30:00",13.6,19.266346,0.093],
    [11389,"urn:WaterMeter:MC0203J22010600005","2024-02-08T11:45:00",14.199,19.31914,0.094],
    [11390,"urn:WaterMeter:MC0203J22010600005","2024-02-08T12:00:00",14.5,19.322243,0.098],
    [11391,"urn:WaterMeter:MC0203J22010600005","2024-02-08T12:15:00",14.8,19.264057,0.1],
    [11392,"urn:WaterMeter:MC0203J22010600005","2024-02-08T12:30:00",15.1,19.23958,0.101],
    [11393,"urn:WaterMeter:MC0203J22010600005","2024-02-08T12:45:00",15.3,19.235353,0.093],
    [11394,"urn:WaterMeter:MC0203J22010600005","2024-02-08T13:00:00",15.3,19.189154,0.096],
    [11395,"urn:WaterMeter:MC0203J22010600005","2024-02-08T13:15:00",15.5,19.18954,0.096],
    [11396,"urn:WaterMeter:MC0203J22010600005","2024-02-08T13:30:00",15.699,19.207773,0.095],
    [11397,"urn:WaterMeter:MC0203J22010600005","2024-02-08T13:45:00",15.899,19.138765,0.1],
    [11398,"urn:WaterMeter:MC0203J22010600005","2024-02-08T14:00:00",16,19.188766,0.094],
    [11399,"urn:WaterMeter:MC0203J22010600005","2024-02-08T14:15:00",16.1,19.133335,0.089],
    [11400,"urn:WaterMeter:MC0203J22010600005","2024-02-08T14:30:00",16.2,19.110798,0.093],
    [11401,"urn:WaterMeter:MC0203J22010600005","2024-02-08T14:45:00",16.2,19.077477,0.097],
    [11402,"urn:WaterMeter:MC0203J22010600005","2024-02-08T15:00:00",16.2,19.095709,0.098],
    [11403,"urn:WaterMeter:MC0203J22010600005","2024-02-08T15:15:00",16.1,19.092955,0.098],
    [11404,"urn:WaterMeter:MC0203J22010600005","2024-02-08T15:30:00",16,19.132908,0.096],
    [11405,"urn:WaterMeter:MC0203J22010600005","2024-02-08T15:45:00",16,19.05692,0.099],
    [11406,"urn:WaterMeter:MC0203J22010600005","2024-02-08T16:00:00",15.899,19.11235,0.09],
    [11407,"urn:WaterMeter:MC0203J22010600005","2024-02-08T16:15:00",15.8,19.098812,0.094],
    [11408,"urn:WaterMeter:MC0203J22010600005","2024-02-08T16:30:00",15.699,19.093342,0.097],
    [11409,"urn:WaterMeter:MC0203J22010600005","2024-02-08T16:45:00",15.5,19.030153,0.097],
    [11410,"urn:WaterMeter:MC0203J22010600005","2024-02-08T17:00:00",15.399,19.062737,0.1],
    [11411,"urn:WaterMeter:MC0203J22010600005","2024-02-08T17:15:00",15.3,19.039076,0.094],
    [11412,"urn:WaterMeter:MC0203J22010600005","2024-02-08T17:30:00",15.1,19.058859,0.098],
    [11413,"urn:WaterMeter:MC0203J22010600005","2024-02-08T17:45:00",15,19.093342,0.104],
    [11414,"urn:WaterMeter:MC0203J22010600005","2024-02-08T18:00:00",14.899,19.06235,0.092],
    [11415,"urn:WaterMeter:MC0203J22010600005","2024-02-08T18:15:00",14.8,19.078642,0.099],
    [11416,"urn:WaterMeter:MC0203J22010600005","2024-02-08T18:30:00",14.699,19.084032,0.095],
    [11417,"urn:WaterMeter:MC0203J22010600005","2024-02-08T18:45:00",14.6,19.011147,0.101],
    [11418,"urn:WaterMeter:MC0203J22010600005","2024-02-08T19:00:00",14.5,19.01774,0.098],
    [11419,"urn:WaterMeter:MC0203J22010600005","2024-02-08T19:15:00",14.5,18.99951,0.1],
    [11420,"urn:WaterMeter:MC0203J22010600005","2024-02-08T19:30:00",14.399,19.011534,0.095],
    [11421,"urn:WaterMeter:MC0203J22010600005","2024-02-08T19:45:00",14.3,19.021233,0.098],
    [11422,"urn:WaterMeter:MC0203J22010600005","2024-02-08T20:00:00",14.199,19.085236,0.099],
    [11423,"urn:WaterMeter:MC0203J22010600005","2024-02-08T20:15:00",14.3,19.072784,0.099],
    [11424,"urn:WaterMeter:MC0203J22010600005","2024-02-08T20:30:00",14.5,19.020844,0.099],
    [11425,"urn:WaterMeter:MC0203J22010600005","2024-02-08T20:45:00",14.699,19.056143,0.1],
    [11426,"urn:WaterMeter:MC0203J22010600005","2024-02-08T21:00:00",14.8,19.042566,0.097],
    [11427,"urn:WaterMeter:MC0203J22010600005","2024-02-08T21:15:00",14.899,19.062737,0.1],
    [11428,"urn:WaterMeter:MC0203J22010600005","2024-02-08T21:30:00",15,19.01231,0.096],
    [11429,"urn:WaterMeter:MC0203J22010600005","2024-02-08T21:45:00",15,18.998734,0.097],
    [11430,"urn:WaterMeter:MC0203J22010600005","2024-02-08T22:00:00",15,19.053776,0.093],
    [11431,"urn:WaterMeter:MC0203J22010600005","2024-02-08T22:15:00",15,19.046446,0.093],
    [11432,"urn:WaterMeter:MC0203J22010600005","2024-02-08T22:30:00",15,19.032093,0.096],
    [11433,"urn:WaterMeter:MC0203J22010600005","2024-02-08T22:45:00",14.899,18.961494,0.098],
    [11434,"urn:WaterMeter:MC0203J22010600005","2024-02-08T23:00:00",14.899,19.02899,0.098],
    [11435,"urn:WaterMeter:MC0203J22010600005","2024-02-08T23:15:00",14.8,18.975033,0.098],
    [11436,"urn:WaterMeter:MC0203J22010600005","2024-02-08T23:30:00",14.699,19.022396,0.092],
    [11437,"urn:WaterMeter:MC0203J22010600005","2024-02-08T23:45:00",14.699,19.014212,0.096],
    [11438,"urn:WaterMeter:MC0203J22010600005","2024-02-09T00:00:00",14.6,18.985895,0.097],
    [11439,"urn:WaterMeter:MC0203J22010600005","2024-02-09T00:15:00",14.5,18.972744,0.098],
    [11440,"urn:WaterMeter:MC0203J22010600005","2024-02-09T00:30:00",14.399,18.928097,0.099],
    [11441,"urn:WaterMeter:MC0203J22010600005","2024-02-09T00:45:00",14.199,18.937407,0.098],
    [11442,"urn:WaterMeter:MC0203J22010600005","2024-02-09T01:00:00",14.1,18.961107,0.102],
    [11443,"urn:WaterMeter:MC0203J22010600005","2024-02-09T01:15:00",14,18.987446,0.097],
    [11444,"urn:WaterMeter:MC0203J22010600005","2024-02-09T01:30:00",13.899,18.950634,0.098],
    [11445,"urn:WaterMeter:MC0203J22010600005","2024-02-09T01:45:00",13.8,18.917236,0.095],
    [11446,"urn:WaterMeter:MC0203J22010600005","2024-02-09T02:00:00",13.699,19.003777,0.098],
    [11447,"urn:WaterMeter:MC0203J22010600005","2024-02-09T02:15:00",13.6,18.968866,0.095],
    [11448,"urn:WaterMeter:MC0203J22010600005","2024-02-09T02:30:00",13.6,19.011534,0.095],
    [11449,"urn:WaterMeter:MC0203J22010600005","2024-02-09T02:45:00",13.5,18.933178,0.098],
    [11450,"urn:WaterMeter:MC0203J22010600005","2024-02-09T03:00:00",13.399,18.951021,0.102],
    [11451,"urn:WaterMeter:MC0203J22010600005","2024-02-09T03:15:00",13.199,18.939774,0.098],
    [11452,"urn:WaterMeter:MC0203J22010600005","2024-02-09T03:30:00",13.1,18.920765,0.093],
    [11453,"urn:WaterMeter:MC0203J22010600005","2024-02-09T03:45:00",13,18.944815,0.099],
    [11454,"urn:WaterMeter:MC0203J22010600005","2024-02-09T04:00:00",13,18.975033,0.099],
    [11455,"urn:WaterMeter:MC0203J22010600005","2024-02-09T04:15:00",12.899,18.976196,0.1],
    [11456,"urn:WaterMeter:MC0203J22010600005","2024-02-09T04:30:00",12.8,18.944427,0.094],
    [11457,"urn:WaterMeter:MC0203J22010600005","2024-02-09T04:45:00",12.8,18.990976,0.1],
    [11458,"urn:WaterMeter:MC0203J22010600005","2024-02-09T05:00:00",12.699,18.998346,0.095],
    [11459,"urn:WaterMeter:MC0203J22010600005","2024-02-09T05:15:00",12.699,18.992527,0.1],
    [11460,"urn:WaterMeter:MC0203J22010600005","2024-02-09T05:30:00",12.6,18.99214,0.098],
    [11461,"urn:WaterMeter:MC0203J22010600005","2024-02-09T05:45:00",12.6,18.958353,0.097],
    [11462,"urn:WaterMeter:MC0203J22010600005","2024-02-09T06:00:00",12.5,19.009983,0.097],
    [11463,"urn:WaterMeter:MC0203J22010600005","2024-02-09T06:15:00",12.5,18.98667,0.1],
    [11464,"urn:WaterMeter:MC0203J22010600005","2024-02-09T06:30:00",12.399,18.957577,0.1],
    [11465,"urn:WaterMeter:MC0203J22010600005","2024-02-09T06:45:00",12.399,18.968866,0.098],
    [11466,"urn:WaterMeter:MC0203J22010600005","2024-02-09T07:00:00",12.3,18.93896,0.098],
    [11467,"urn:WaterMeter:MC0203J22010600005","2024-02-09T07:15:00",12.3,19.000286,0.1],
    [11468,"urn:WaterMeter:MC0203J22010600005","2024-02-09T07:30:00",12.3,18.944815,0.098],
    [11469,"urn:WaterMeter:MC0203J22010600005","2024-02-09T07:45:00",12.3,18.945591,0.097],
    [11470,"urn:WaterMeter:MC0203J22010600005","2024-02-09T08:00:00",12.199,18.948656,0.097],
    [11471,"urn:WaterMeter:MC0203J22010600005","2024-02-09T08:15:00",12.3,18.904861,0.101],
    [11472,"urn:WaterMeter:MC0203J22010600005","2024-02-09T08:30:00",12.3,19.000673,0.097],
    [11473,"urn:WaterMeter:MC0203J22010600005","2024-02-09T08:45:00",12.3,18.99175,0.097],
    [11474,"urn:WaterMeter:MC0203J22010600005","2024-02-09T09:00:00",12.3,18.956802,0.098],
    [11475,"urn:WaterMeter:MC0203J22010600005","2024-02-09T09:15:00",12.3,18.99951,0.099],
    [11476,"urn:WaterMeter:MC0203J22010600005","2024-02-09T09:30:00",12.399,18.96964,0.097],
    [11477,"urn:WaterMeter:MC0203J22010600005","2024-02-09T09:45:00",12.5,18.956026,0.098],
    [11478,"urn:WaterMeter:MC0203J22010600005","2024-02-09T10:00:00",12.6,18.95141,0.098],
    [11479,"urn:WaterMeter:MC0203J22010600005","2024-02-09T10:15:00",12.699,19.007267,0.103],
    [11480,"urn:WaterMeter:MC0203J22010600005","2024-02-09T10:30:00",12.8,18.990587,0.093],
    [11481,"urn:WaterMeter:MC0203J22010600005","2024-02-09T10:45:00",12.899,18.987059,0.097],
    [11482,"urn:WaterMeter:MC0203J22010600005","2024-02-09T11:00:00",13,18.968477,0.096],
    [11483,"urn:WaterMeter:MC0203J22010600005","2024-02-09T11:15:00",13.1,18.96266,0.094],
    [11484,"urn:WaterMeter:MC0203J22010600005","2024-02-09T11:30:00",13.199,18.979727,0.097],
    [11485,"urn:WaterMeter:MC0203J22010600005","2024-02-09T11:45:00",13.3,18.970804,0.096],
    [11486,"urn:WaterMeter:MC0203J22010600005","2024-02-09T12:00:00",13.399,18.973907,0.096],
    [11487,"urn:WaterMeter:MC0203J22010600005","2024-02-09T12:15:00",13.5,18.928097,0.095],
    [11488,"urn:WaterMeter:MC0203J22010600005","2024-02-09T12:30:00",13.6,18.967276,0.1],
    [11489,"urn:WaterMeter:MC0203J22010600005","2024-02-09T12:45:00",13.8,18.939384,0.097],
    [11490,"urn:WaterMeter:MC0203J22010600005","2024-02-09T13:00:00",14.1,18.950247,0.096],
    [11491,"urn:WaterMeter:MC0203J22010600005","2024-02-09T13:15:00",14.199,18.940937,0.096],
    [11492,"urn:WaterMeter:MC0203J22010600005","2024-02-09T13:30:00",14.199,18.901371,0.094],
    [11493,"urn:WaterMeter:MC0203J22010600005","2024-02-09T13:45:00",14.199,18.987059,0.096],
    [11494,"urn:WaterMeter:MC0203J22010600005","2024-02-09T14:00:00",14.199,18.915335,0.091],
    [11495,"urn:WaterMeter:MC0203J22010600005","2024-02-09T14:15:00",14.1,18.955639,0.095],
    [11496,"urn:WaterMeter:MC0203J22010600005","2024-02-09T14:30:00",14,18.918787,0.087],
    [11497,"urn:WaterMeter:MC0203J22010600005","2024-02-09T14:45:00",14,18.973907,0.098],
    [11498,"urn:WaterMeter:MC0203J22010600005","2024-02-09T15:00:00",13.899,18.909477,0.1],
    [11499,"urn:WaterMeter:MC0203J22010600005","2024-02-09T15:15:00",13.899,18.93279,0.096],
    [11500,"urn:WaterMeter:MC0203J22010600005","2024-02-09T15:30:00",13.8,18.904861,0.097],
    [11501,"urn:WaterMeter:MC0203J22010600005","2024-02-09T15:45:00",13.699,18.904085,0.096],
    [11502,"urn:WaterMeter:MC0203J22010600005","2024-02-09T16:00:00",13.6,18.95878,0.099],
    [11503,"urn:WaterMeter:MC0203J22010600005","2024-02-09T16:15:00",13.5,18.954124,0.098],
    [11504,"urn:WaterMeter:MC0203J22010600005","2024-02-09T16:30:00",13.399,18.95878,0.101],
    [11505,"urn:WaterMeter:MC0203J22010600005","2024-02-09T16:45:00",13.399,18.924257,0.098],
    [11506,"urn:WaterMeter:MC0203J22010600005","2024-02-09T17:00:00",13.3,18.950634,0.094],
    [11507,"urn:WaterMeter:MC0203J22010600005","2024-02-09T17:15:00",13.3,18.980114,0.098],
    [11508,"urn:WaterMeter:MC0203J22010600005","2024-02-09T17:30:00",13.199,18.961884,0.098],
    [11509,"urn:WaterMeter:MC0203J22010600005","2024-02-09T17:45:00",13.199,18.933178,0.097],
    [11510,"urn:WaterMeter:MC0203J22010600005","2024-02-09T18:00:00",13.1,18.932404,0.1],
    [11511,"urn:WaterMeter:MC0203J22010600005","2024-02-09T18:15:00",13,18.954124,0.099],
    [11512,"urn:WaterMeter:MC0203J22010600005","2024-02-09T18:30:00",12.899,18.937407,0.098],
    [11513,"urn:WaterMeter:MC0203J22010600005","2024-02-09T18:45:00",12.899,18.980114,0.094],
    [11514,"urn:WaterMeter:MC0203J22010600005","2024-02-09T19:00:00",12.8,18.928873,0.095],
    [11515,"urn:WaterMeter:MC0203J22010600005","2024-02-09T19:15:00",12.699,18.949858,0.099],
    [11516,"urn:WaterMeter:MC0203J22010600005","2024-02-09T19:30:00",12.6,18.998734,0.098],
    [11517,"urn:WaterMeter:MC0203J22010600005","2024-02-09T19:45:00",12.5,18.961884,0.097],
    [11518,"urn:WaterMeter:MC0203J22010600005","2024-02-09T20:00:00",12.399,18.989424,0.097],
    [11519,"urn:WaterMeter:MC0203J22010600005","2024-02-09T20:15:00",12.399,18.972744,0.103],
    [11520,"urn:WaterMeter:MC0203J22010600005","2024-02-09T20:30:00",12.399,18.980503,0.098],
    [11521,"urn:WaterMeter:MC0203J22010600005","2024-02-09T20:45:00",12.3,18.945204,0.1],
    [11522,"urn:WaterMeter:MC0203J22010600005","2024-02-09T21:00:00",12.3,19.000286,0.102],
    [11523,"urn:WaterMeter:MC0203J22010600005","2024-02-09T21:15:00",12.199,18.949858,0.102],
    [11524,"urn:WaterMeter:MC0203J22010600005","2024-02-09T21:30:00",12.199,19.013823,0.095],
    [11525,"urn:WaterMeter:MC0203J22010600005","2024-02-09T21:45:00",12.199,18.967663,0.095],
    [11526,"urn:WaterMeter:MC0203J22010600005","2024-02-09T22:00:00",12.1,18.956413,0.096],
    [11527,"urn:WaterMeter:MC0203J22010600005","2024-02-09T22:15:00",12,19.018904,0.093],
    [11528,"urn:WaterMeter:MC0203J22010600005","2024-02-09T22:30:00",11.899,19.025072,0.097],
    [11529,"urn:WaterMeter:MC0203J22010600005","2024-02-09T22:45:00",11.8,18.973133,0.096],
    [11530,"urn:WaterMeter:MC0203J22010600005","2024-02-09T23:00:00",11.6,18.99598,0.096],
    [11531,"urn:WaterMeter:MC0203J22010600005","2024-02-09T23:15:00",11.5,18.996368,0.099],
    [11532,"urn:WaterMeter:MC0203J22010600005","2024-02-09T23:30:00",11.399,18.972744,0.094],
    [11533,"urn:WaterMeter:MC0203J22010600005","2024-02-09T23:45:00",11.399,18.9902,0.099],
    [11534,"urn:WaterMeter:MC0203J22010600005","2024-02-10T00:00:00",11.3,19.073948,0.101],
    [11535,"urn:WaterMeter:MC0203J22010600005","2024-02-10T00:15:00",11.199,19.058083,0.097],
    [11536,"urn:WaterMeter:MC0203J22010600005","2024-02-10T00:30:00",11,19.070883,0.102],
    [11537,"urn:WaterMeter:MC0203J22010600005","2024-02-10T00:45:00",10.899,19.07515,0.099],
    [11538,"urn:WaterMeter:MC0203J22010600005","2024-02-10T01:00:00",10.8,19.019293,0.096],
    [11539,"urn:WaterMeter:MC0203J22010600005","2024-02-10T01:15:00",10.699,19.04218,0.098],
    [11540,"urn:WaterMeter:MC0203J22010600005","2024-02-10T01:30:00",10.6,19.091015,0.102],
    [11541,"urn:WaterMeter:MC0203J22010600005","2024-02-10T01:45:00",10.5,19.077477,0.099],
    [11542,"urn:WaterMeter:MC0203J22010600005","2024-02-10T02:00:00",10.399,19.09726,0.098],
    [11543,"urn:WaterMeter:MC0203J22010600005","2024-02-10T02:15:00",10.3,19.103815,0.099],
    [11544,"urn:WaterMeter:MC0203J22010600005","2024-02-10T02:30:00",10.199,19.094118,0.099],
    [11545,"urn:WaterMeter:MC0203J22010600005","2024-02-10T02:45:00",10.1,19.081745,0.099],
    [11546,"urn:WaterMeter:MC0203J22010600005","2024-02-10T03:00:00",10,19.122047,0.095],
    [11547,"urn:WaterMeter:MC0203J22010600005","2024-02-10T03:15:00",9.899,19.11235,0.1],
    [11548,"urn:WaterMeter:MC0203J22010600005","2024-02-10T03:30:00",9.899,19.108122,0.101],
    [11549,"urn:WaterMeter:MC0203J22010600005","2024-02-10T03:45:00",9.8,19.170923,0.099],
    [11550,"urn:WaterMeter:MC0203J22010600005","2024-02-10T04:00:00",9.699,19.071232,0.1],
    [11551,"urn:WaterMeter:MC0203J22010600005","2024-02-10T04:15:00",9.6,19.138765,0.098],
    [11552,"urn:WaterMeter:MC0203J22010600005","2024-02-10T04:30:00",9.5,19.132132,0.1],
    [11553,"urn:WaterMeter:MC0203J22010600005","2024-02-10T04:45:00",9.399,19.162428,0.099],
    [11554,"urn:WaterMeter:MC0203J22010600005","2024-02-10T05:00:00",9.3,19.129805,0.095],
    [11555,"urn:WaterMeter:MC0203J22010600005","2024-02-10T05:15:00",9.199,19.158936,0.099],
    [11556,"urn:WaterMeter:MC0203J22010600005","2024-02-10T05:30:00",9.199,19.108122,0.099],
    [11557,"urn:WaterMeter:MC0203J22010600005","2024-02-10T05:45:00",9.1,19.188377,0.094],
    [11558,"urn:WaterMeter:MC0203J22010600005","2024-02-10T06:00:00",9,19.148075,0.1],
    [11559,"urn:WaterMeter:MC0203J22010600005","2024-02-10T06:15:00",9,19.158936,0.098],
    [11560,"urn:WaterMeter:MC0203J22010600005","2024-02-10T06:30:00",8.899,19.157385,0.1],
    [11561,"urn:WaterMeter:MC0203J22010600005","2024-02-10T06:45:00",8.899,19.163979,0.099],
    [11562,"urn:WaterMeter:MC0203J22010600005","2024-02-10T07:00:00",8.8,19.212078,0.1],
    [11563,"urn:WaterMeter:MC0203J22010600005","2024-02-10T07:15:00",8.899,19.205484,0.096],
    [11564,"urn:WaterMeter:MC0203J22010600005","2024-02-10T07:30:00",9,19.209324,0.101],
    [11565,"urn:WaterMeter:MC0203J22010600005","2024-02-10T07:45:00",9.1,19.139929,0.099],
    [11566,"urn:WaterMeter:MC0203J22010600005","2024-02-10T08:00:00",9.1,19.16747,0.097],
    [11567,"urn:WaterMeter:MC0203J22010600005","2024-02-10T08:15:00",9.199,19.202381,0.099],
    [11568,"urn:WaterMeter:MC0203J22010600005","2024-02-10T08:30:00",9.3,19.133335,0.098],
    [11569,"urn:WaterMeter:MC0203J22010600005","2024-02-10T08:45:00",9.5,19.174452,0.097],
    [11570,"urn:WaterMeter:MC0203J22010600005","2024-02-10T09:00:00",9.8,19.205872,0.097],
    [11571,"urn:WaterMeter:MC0203J22010600005","2024-02-10T09:15:00",10,19.184925,0.097],
    [11572,"urn:WaterMeter:MC0203J22010600005","2024-02-10T09:30:00",10.3,19.148462,0.097],
    [11573,"urn:WaterMeter:MC0203J22010600005","2024-02-10T09:45:00",10.6,19.165142,0.096],
    [11574,"urn:WaterMeter:MC0203J22010600005","2024-02-10T10:00:00",10.899,19.191093,0.093],
    [11575,"urn:WaterMeter:MC0203J22010600005","2024-02-10T10:15:00",11.199,19.190317,0.093],
    [11576,"urn:WaterMeter:MC0203J22010600005","2024-02-10T10:30:00",11.5,19.202768,0.095],
    [11577,"urn:WaterMeter:MC0203J22010600005","2024-02-10T10:45:00",11.8,19.149977,0.092],
    [11578,"urn:WaterMeter:MC0203J22010600005","2024-02-10T11:00:00",12.1,19.142218,0.094],
    [11579,"urn:WaterMeter:MC0203J22010600005","2024-02-10T11:15:00",12.399,19.148811,0.095],
    [11580,"urn:WaterMeter:MC0203J22010600005","2024-02-10T11:30:00",12.8,19.112738,0.095],
    [11581,"urn:WaterMeter:MC0203J22010600005","2024-02-10T11:45:00",13.3,19.125578,0.097],
    [11582,"urn:WaterMeter:MC0203J22010600005","2024-02-10T12:00:00",13.699,19.155058,0.093],
    [11583,"urn:WaterMeter:MC0203J22010600005","2024-02-10T12:15:00",14,19.15114,0.094],
    [11584,"urn:WaterMeter:MC0203J22010600005","2024-02-10T12:30:00",14.3,19.17484,0.098],
    [11585,"urn:WaterMeter:MC0203J22010600005","2024-02-10T12:45:00",14.5,19.112738,0.093],
    [11586,"urn:WaterMeter:MC0203J22010600005","2024-02-10T13:00:00",14.6,19.073559,0.091],
    [11587,"urn:WaterMeter:MC0203J22010600005","2024-02-10T13:15:00",14.699,19.133335,0.093],
    [11588,"urn:WaterMeter:MC0203J22010600005","2024-02-10T13:30:00",14.699,19.050713,0.098],
    [11589,"urn:WaterMeter:MC0203J22010600005","2024-02-10T13:45:00",14.8,19.059246,0.092],
    [11590,"urn:WaterMeter:MC0203J22010600005","2024-02-10T14:00:00",14.8,19.053001,0.094],
    [11591,"urn:WaterMeter:MC0203J22010600005","2024-02-10T14:15:00",14.8,19.09726,0.094],
    [11592,"urn:WaterMeter:MC0203J22010600005","2024-02-10T14:30:00",14.699,19.044855,0.097],
    [11593,"urn:WaterMeter:MC0203J22010600005","2024-02-10T14:45:00",14.6,19.017353,0.093],
    [11594,"urn:WaterMeter:MC0203J22010600005","2024-02-10T15:00:00",14.5,18.969254,0.092],
    [11595,"urn:WaterMeter:MC0203J22010600005","2024-02-10T15:15:00",14.399,19.060799,0.096],
    [11596,"urn:WaterMeter:MC0203J22010600005","2024-02-10T15:30:00",14.399,18.978563,0.092],
    [11597,"urn:WaterMeter:MC0203J22010600005","2024-02-10T15:45:00",14.3,19.022396,0.093],
    [11598,"urn:WaterMeter:MC0203J22010600005","2024-02-10T16:00:00",14.199,19.052225,0.096],
    [11599,"urn:WaterMeter:MC0203J22010600005","2024-02-10T16:15:00",14,18.951021,0.095],
    [11600,"urn:WaterMeter:MC0203J22010600005","2024-02-10T16:30:00",13.8,18.957577,0.096],
    [11601,"urn:WaterMeter:MC0203J22010600005","2024-02-10T16:45:00",13.6,19.014212,0.098],
    [11602,"urn:WaterMeter:MC0203J22010600005","2024-02-10T17:00:00",13.5,18.989037,0.095],
    [11603,"urn:WaterMeter:MC0203J22010600005","2024-02-10T17:15:00",13.399,19.00494,0.093],
    [11604,"urn:WaterMeter:MC0203J22010600005","2024-02-10T17:30:00",13.199,18.96072,0.093],
    [11605,"urn:WaterMeter:MC0203J22010600005","2024-02-10T17:45:00",13,18.988647,0.097],
    [11606,"urn:WaterMeter:MC0203J22010600005","2024-02-10T18:00:00",12.899,18.979727,0.096],
    [11607,"urn:WaterMeter:MC0203J22010600005","2024-02-10T18:15:00",12.699,19.004553,0.101],
    [11608,"urn:WaterMeter:MC0203J22010600005","2024-02-10T18:30:00",12.6,18.972744,0.098],
    [11609,"urn:WaterMeter:MC0203J22010600005","2024-02-10T18:45:00",12.399,18.99757,0.098],
    [11610,"urn:WaterMeter:MC0203J22010600005","2024-02-10T19:00:00",12.3,19.004164,0.098],
    [11611,"urn:WaterMeter:MC0203J22010600005","2024-02-10T19:15:00",12.3,19.00843,0.096],
    [11612,"urn:WaterMeter:MC0203J22010600005","2024-02-10T19:30:00",12.199,18.971968,0.097],
    [11613,"urn:WaterMeter:MC0203J22010600005","2024-02-10T19:45:00",12.199,19.000286,0.098],
    [11614,"urn:WaterMeter:MC0203J22010600005","2024-02-10T20:00:00",12.1,19.00106,0.096],
    [11615,"urn:WaterMeter:MC0203J22010600005","2024-02-10T20:15:00",12,19.022783,0.098],
    [11616,"urn:WaterMeter:MC0203J22010600005","2024-02-10T20:30:00",11.899,18.987446,0.097],
    [11617,"urn:WaterMeter:MC0203J22010600005","2024-02-10T20:45:00",11.899,19.006453,0.1],
    [11618,"urn:WaterMeter:MC0203J22010600005","2024-02-10T21:00:00",11.8,18.963434,0.095],
    [11619,"urn:WaterMeter:MC0203J22010600005","2024-02-10T21:15:00",11.699,18.92771,0.095],
    [11620,"urn:WaterMeter:MC0203J22010600005","2024-02-10T21:30:00",11.5,18.972357,0.1],
    [11621,"urn:WaterMeter:MC0203J22010600005","2024-02-10T21:45:00",11.399,18.947104,0.098],
    [11622,"urn:WaterMeter:MC0203J22010600005","2024-02-10T22:00:00",11.3,18.985895,0.1],
    [11623,"urn:WaterMeter:MC0203J22010600005","2024-02-10T22:15:00",11.199,18.980503,0.098],
    [11624,"urn:WaterMeter:MC0203J22010600005","2024-02-10T22:30:00",11.199,18.97736,0.097],
    [11625,"urn:WaterMeter:MC0203J22010600005","2024-02-10T22:45:00",11.1,18.96227,0.098],
    [11626,"urn:WaterMeter:MC0203J22010600005","2024-02-10T23:00:00",11,18.954514,0.093],
    [11627,"urn:WaterMeter:MC0203J22010600005","2024-02-10T23:15:00",11,18.970417,0.094],
    [11628,"urn:WaterMeter:MC0203J22010600005","2024-02-10T23:30:00",10.899,19.00339,0.096],
    [11629,"urn:WaterMeter:MC0203J22010600005","2024-02-10T23:45:00",10.8,18.993303,0.097],
    [11630,"urn:WaterMeter:MC0203J22010600005","2024-02-11T00:00:00",10.8,18.983606,0.096],
    [11631,"urn:WaterMeter:MC0203J22010600005","2024-02-11T00:15:00",10.699,18.959944,0.096],
    [11632,"urn:WaterMeter:MC0203J22010600005","2024-02-11T00:30:00",10.5,19.018904,0.095],
    [11633,"urn:WaterMeter:MC0203J22010600005","2024-02-11T00:45:00",10.399,18.9421,0.099],
    [11634,"urn:WaterMeter:MC0203J22010600005","2024-02-11T01:00:00",10.3,19.024685,0.099],
    [11635,"urn:WaterMeter:MC0203J22010600005","2024-02-11T01:15:00",10.3,19.00882,0.097],
    [11636,"urn:WaterMeter:MC0203J22010600005","2024-02-11T01:30:00",10.199,19.023947,0.094],
    [11637,"urn:WaterMeter:MC0203J22010600005","2024-02-11T01:45:00",10.199,18.99175,0.093],
    [11638,"urn:WaterMeter:MC0203J22010600005","2024-02-11T02:00:00",10.199,19.000673,0.096],
    [11639,"urn:WaterMeter:MC0203J22010600005","2024-02-11T02:15:00",10.199,18.935856,0.1],
    [11640,"urn:WaterMeter:MC0203J22010600005","2024-02-11T02:30:00",10.199,19.014212,0.1],
    [11641,"urn:WaterMeter:MC0203J22010600005","2024-02-11T02:45:00",10.1,19.03636,0.094],
    [11642,"urn:WaterMeter:MC0203J22010600005","2024-02-11T03:00:00",10.1,18.949858,0.094],
    [11643,"urn:WaterMeter:MC0203J22010600005","2024-02-11T03:15:00",10.1,18.96072,0.096],
    [11644,"urn:WaterMeter:MC0203J22010600005","2024-02-11T03:30:00",10,19.026236,0.091],
    [11645,"urn:WaterMeter:MC0203J22010600005","2024-02-11T03:45:00",10,19.006842,0.098],
    [11646,"urn:WaterMeter:MC0203J22010600005","2024-02-11T04:00:00",9.899,19.000673,0.097],
    [11647,"urn:WaterMeter:MC0203J22010600005","2024-02-11T04:15:00",9.8,18.983994,0.096],
    [11648,"urn:WaterMeter:MC0203J22010600005","2024-02-11T04:30:00",9.6,18.974646,0.093],
    [11649,"urn:WaterMeter:MC0203J22010600005","2024-02-11T04:45:00",9.5,18.951021,0.093],
    [11650,"urn:WaterMeter:MC0203J22010600005","2024-02-11T05:00:00",9.3,19.009594,0.1],
    [11651,"urn:WaterMeter:MC0203J22010600005","2024-02-11T05:15:00",9.1,19.009594,0.096],
    [11652,"urn:WaterMeter:MC0203J22010600005","2024-02-11T05:30:00",8.899,18.98667,0.1],
    [11653,"urn:WaterMeter:MC0203J22010600005","2024-02-11T05:45:00",8.699,18.987446,0.097],
    [11654,"urn:WaterMeter:MC0203J22010600005","2024-02-11T06:00:00",8.5,18.998346,0.099],
    [11655,"urn:WaterMeter:MC0203J22010600005","2024-02-11T06:15:00",8.399,19.022783,0.094],
    [11656,"urn:WaterMeter:MC0203J22010600005","2024-02-11T06:30:00",8.199,18.986282,0.099],
    [11657,"urn:WaterMeter:MC0203J22010600005","2024-02-11T06:45:00",8.1,19.00339,0.099],
    [11658,"urn:WaterMeter:MC0203J22010600005","2024-02-11T07:00:00",8,19.027826,0.098],
    [11659,"urn:WaterMeter:MC0203J22010600005","2024-02-11T07:15:00",7.9,19.02317,0.096],
    [11660,"urn:WaterMeter:MC0203J22010600005","2024-02-11T07:30:00",7.8,19.031706,0.101],
    [11661,"urn:WaterMeter:MC0203J22010600005","2024-02-11T07:45:00",7.8,19.068943,0.098],
    [11662,"urn:WaterMeter:MC0203J22010600005","2024-02-11T08:00:00",7.8,19.033218,0.1],
    [11663,"urn:WaterMeter:MC0203J22010600005","2024-02-11T08:15:00",7.9,19.03477,0.098],
    [11664,"urn:WaterMeter:MC0203J22010600005","2024-02-11T08:30:00",8,19.044468,0.1],
    [11665,"urn:WaterMeter:MC0203J22010600005","2024-02-11T08:45:00",8.199,19.05692,0.097],
    [11666,"urn:WaterMeter:MC0203J22010600005","2024-02-11T09:00:00",8.399,19.03985,0.099],
    [11667,"urn:WaterMeter:MC0203J22010600005","2024-02-11T09:15:00",8.699,19.035158,0.097],
    [11668,"urn:WaterMeter:MC0203J22010600005","2024-02-11T09:30:00",9,19.023947,0.096],
    [11669,"urn:WaterMeter:MC0203J22010600005","2024-02-11T09:45:00",9.199,19.005676,0.097],
    [11670,"urn:WaterMeter:MC0203J22010600005","2024-02-11T10:00:00",9.399,19.044468,0.098],
    [11671,"urn:WaterMeter:MC0203J22010600005","2024-02-11T10:15:00",9.699,19.05847,0.096],
    [11672,"urn:WaterMeter:MC0203J22010600005","2024-02-11T10:30:00",9.899,18.993303,0.09],
    [11673,"urn:WaterMeter:MC0203J22010600005","2024-02-11T10:45:00",10.1,19.04955,0.092],
    [11674,"urn:WaterMeter:MC0203J22010600005","2024-02-11T11:00:00",10.3,18.99214,0.091],
    [11675,"urn:WaterMeter:MC0203J22010600005","2024-02-11T11:15:00",10.399,18.985544,0.097],
    [11676,"urn:WaterMeter:MC0203J22010600005","2024-02-11T11:30:00",10.5,19.033995,0.095],
    [11677,"urn:WaterMeter:MC0203J22010600005","2024-02-11T11:45:00",10.6,19.02899,0.095],
    [11678,"urn:WaterMeter:MC0203J22010600005","2024-02-11T12:00:00",10.699,18.97934,0.094],
    [11679,"urn:WaterMeter:MC0203J22010600005","2024-02-11T12:15:00",10.699,18.97003,0.095],
    [11680,"urn:WaterMeter:MC0203J22010600005","2024-02-11T12:30:00",10.8,18.953737,0.096],
    [11681,"urn:WaterMeter:MC0203J22010600005","2024-02-11T12:45:00",10.899,18.99951,0.097],
    [11682,"urn:WaterMeter:MC0203J22010600005","2024-02-11T13:00:00",11,19.029766,0.097],
    [11683,"urn:WaterMeter:MC0203J22010600005","2024-02-11T13:15:00",11.1,18.942488,0.094],
    [11684,"urn:WaterMeter:MC0203J22010600005","2024-02-11T13:30:00",11.199,18.946754,0.095],
    [11685,"urn:WaterMeter:MC0203J22010600005","2024-02-11T13:45:00",11.3,19.005676,0.086],
    [11686,"urn:WaterMeter:MC0203J22010600005","2024-02-11T14:00:00",11.3,18.98477,0.095],
    [11687,"urn:WaterMeter:MC0203J22010600005","2024-02-11T14:15:00",11.5,18.973133,0.095],
    [11688,"urn:WaterMeter:MC0203J22010600005","2024-02-11T14:30:00",11.6,18.905638,0.095],
    [11689,"urn:WaterMeter:MC0203J22010600005","2024-02-11T14:45:00",11.699,18.950634,0.094],
    [11690,"urn:WaterMeter:MC0203J22010600005","2024-02-11T15:00:00",11.8,18.933954,0.096],
    [11691,"urn:WaterMeter:MC0203J22010600005","2024-02-11T15:15:00",11.899,18.907578,0.094],
    [11692,"urn:WaterMeter:MC0203J22010600005","2024-02-11T15:30:00",12,18.924257,0.094],
    [11693,"urn:WaterMeter:MC0203J22010600005","2024-02-11T15:45:00",12,18.878447,0.095],
    [11694,"urn:WaterMeter:MC0203J22010600005","2024-02-11T16:00:00",12,18.885855,0.094],
    [11695,"urn:WaterMeter:MC0203J22010600005","2024-02-11T16:15:00",11.899,18.912231,0.098],
    [11696,"urn:WaterMeter:MC0203J22010600005","2024-02-11T16:30:00",11.8,18.87767,0.098],
    [11697,"urn:WaterMeter:MC0203J22010600005","2024-02-11T16:45:00",11.699,18.885078,0.094],
    [11698,"urn:WaterMeter:MC0203J22010600005","2024-02-11T17:00:00",11.6,18.918787,0.095],
    [11699,"urn:WaterMeter:MC0203J22010600005","2024-02-11T17:15:00",11.5,18.902147,0.097],
    [11700,"urn:WaterMeter:MC0203J22010600005","2024-02-11T17:30:00",11.5,18.914171,0.094],
    [11701,"urn:WaterMeter:MC0203J22010600005","2024-02-11T17:45:00",11.399,18.904474,0.094],
    [11702,"urn:WaterMeter:MC0203J22010600005","2024-02-11T18:00:00",11.3,18.917236,0.097],
    [11703,"urn:WaterMeter:MC0203J22010600005","2024-02-11T18:15:00",11.199,18.913395,0.097],
    [11704,"urn:WaterMeter:MC0203J22010600005","2024-02-11T18:30:00",11.1,18.903698,0.095],
    [11705,"urn:WaterMeter:MC0203J22010600005","2024-02-11T18:45:00",11.1,18.908703,0.097],
    [11706,"urn:WaterMeter:MC0203J22010600005","2024-02-11T19:00:00",11,18.868788,0.1],
    [11707,"urn:WaterMeter:MC0203J22010600005","2024-02-11T19:15:00",11,18.886631,0.092],
    [11708,"urn:WaterMeter:MC0203J22010600005","2024-02-11T19:30:00",10.899,18.871891,0.099],
    [11709,"urn:WaterMeter:MC0203J22010600005","2024-02-11T19:45:00",10.8,18.919563,0.096],
    [11710,"urn:WaterMeter:MC0203J22010600005","2024-02-11T20:00:00",10.699,18.868788,0.095],
    [11711,"urn:WaterMeter:MC0203J22010600005","2024-02-11T20:15:00",10.5,18.880774,0.099],
    [11712,"urn:WaterMeter:MC0203J22010600005","2024-02-11T20:30:00",10.399,18.900595,0.097],
    [11713,"urn:WaterMeter:MC0203J22010600005","2024-02-11T20:45:00",10.3,18.920378,0.098],
    [11714,"urn:WaterMeter:MC0203J22010600005","2024-02-11T21:00:00",10.199,18.922705,0.093],
    [11715,"urn:WaterMeter:MC0203J22010600005","2024-02-11T21:15:00",10.1,18.921541,0.096],
    [11716,"urn:WaterMeter:MC0203J22010600005","2024-02-11T21:30:00",10,18.880386,0.094],
    [11717,"urn:WaterMeter:MC0203J22010600005","2024-02-11T21:45:00",9.899,18.913784,0.099],
    [11718,"urn:WaterMeter:MC0203J22010600005","2024-02-11T22:00:00",9.8,18.93473,0.092],
    [11719,"urn:WaterMeter:MC0203J22010600005","2024-02-11T22:15:00",9.699,18.930464,0.093],
    [11720,"urn:WaterMeter:MC0203J22010600005","2024-02-11T22:30:00",9.6,18.916073,0.094],
    [11721,"urn:WaterMeter:MC0203J22010600005","2024-02-11T22:45:00",9.399,18.882751,0.092],
    [11722,"urn:WaterMeter:MC0203J22010600005","2024-02-11T23:00:00",9.3,18.8703,0.096],
    [11723,"urn:WaterMeter:MC0203J22010600005","2024-02-11T23:15:00",9.3,18.9184,0.094],
    [11724,"urn:WaterMeter:MC0203J22010600005","2024-02-11T23:30:00",9.199,18.899393,0.098],
    [11725,"urn:WaterMeter:MC0203J22010600005","2024-02-11T23:45:00",9,18.873442,0.098],
    [11726,"urn:WaterMeter:MC0203J22010600005","2024-02-12T00:00:00",8.899,18.96615,0.096],
    [11727,"urn:WaterMeter:MC0203J22010600005","2024-02-12T00:15:00",8.899,18.930464,0.095],
    [11728,"urn:WaterMeter:MC0203J22010600005","2024-02-12T00:30:00",8.8,18.8812,0.098],
    [11729,"urn:WaterMeter:MC0203J22010600005","2024-02-12T00:45:00",8.6,18.952574,0.096],
    [11730,"urn:WaterMeter:MC0203J22010600005","2024-02-12T01:00:00",8.5,18.933954,0.097],
    [11731,"urn:WaterMeter:MC0203J22010600005","2024-02-12T01:15:00",8.5,18.957577,0.098],
    [11732,"urn:WaterMeter:MC0203J22010600005","2024-02-12T01:30:00",8.399,18.941324,0.1],
    [11733,"urn:WaterMeter:MC0203J22010600005","2024-02-12T01:45:00",8.399,18.928873,0.095],
    [11734,"urn:WaterMeter:MC0203J22010600005","2024-02-12T02:00:00",8.399,18.95141,0.098],
    [11735,"urn:WaterMeter:MC0203J22010600005","2024-02-12T02:15:00",8.399,18.943264,0.092],
    [11736,"urn:WaterMeter:MC0203J22010600005","2024-02-12T02:30:00",8.399,18.950247,0.094],
    [11737,"urn:WaterMeter:MC0203J22010600005","2024-02-12T02:45:00",8.3,18.963823,0.093],
    [11738,"urn:WaterMeter:MC0203J22010600005","2024-02-12T03:00:00",8.399,18.953737,0.093],
    [11739,"urn:WaterMeter:MC0203J22010600005","2024-02-12T03:15:00",8.399,18.954514,0.096],
    [11740,"urn:WaterMeter:MC0203J22010600005","2024-02-12T03:30:00",8.5,18.916847,0.092],
    [11741,"urn:WaterMeter:MC0203J22010600005","2024-02-12T03:45:00",8.5,18.98477,0.092],
    [11742,"urn:WaterMeter:MC0203J22010600005","2024-02-12T04:00:00",8.5,18.973133,0.095],
    [11743,"urn:WaterMeter:MC0203J22010600005","2024-02-12T04:15:00",8.6,18.95878,0.093],
    [11744,"urn:WaterMeter:MC0203J22010600005","2024-02-12T04:30:00",8.699,18.985544,0.096],
    [11745,"urn:WaterMeter:MC0203J22010600005","2024-02-12T04:45:00",8.699,18.970417,0.097],
    [11746,"urn:WaterMeter:MC0203J22010600005","2024-02-12T05:00:00",8.699,18.97542,0.089],
    [11747,"urn:WaterMeter:MC0203J22010600005","2024-02-12T05:15:00",8.8,18.959944,0.093],
    [11748,"urn:WaterMeter:MC0203J22010600005","2024-02-12T05:30:00",8.8,18.975033,0.096],
    [11749,"urn:WaterMeter:MC0203J22010600005","2024-02-12T05:45:00",8.8,18.965374,0.098],
    [11750,"urn:WaterMeter:MC0203J22010600005","2024-02-12T06:00:00",8.8,19.00339,0.094],
    [11751,"urn:WaterMeter:MC0203J22010600005","2024-02-12T06:15:00",8.899,19.000286,0.101],
    [11752,"urn:WaterMeter:MC0203J22010600005","2024-02-12T06:30:00",8.899,19.020844,0.101],
    [11753,"urn:WaterMeter:MC0203J22010600005","2024-02-12T06:45:00",9,18.952961,0.092],
    [11754,"urn:WaterMeter:MC0203J22010600005","2024-02-12T07:00:00",9,18.98477,0.098],
    [11755,"urn:WaterMeter:MC0203J22010600005","2024-02-12T07:15:00",8.899,18.973133,0.096],
    [11756,"urn:WaterMeter:MC0203J22010600005","2024-02-12T07:30:00",8.899,18.941713,0.094],
    [11757,"urn:WaterMeter:MC0203J22010600005","2024-02-12T07:45:00",8.899,18.97736,0.097],
    [11758,"urn:WaterMeter:MC0203J22010600005","2024-02-12T08:00:00",8.899,18.952574,0.093],
    [11759,"urn:WaterMeter:MC0203J22010600005","2024-02-12T08:15:00",9,18.940937,0.096],
    [11760,"urn:WaterMeter:MC0203J22010600005","2024-02-12T08:30:00",9.3,19.000286,0.094],
    [11761,"urn:WaterMeter:MC0203J22010600005","2024-02-12T08:45:00",9.899,18.95878,0.095],
    [11762,"urn:WaterMeter:MC0203J22010600005","2024-02-12T09:00:00",10.399,18.938183,0.093],
    [11763,"urn:WaterMeter:MC0203J22010600005","2024-02-12T09:15:00",10.8,18.951797,0.095],
    [11764,"urn:WaterMeter:MC0203J22010600005","2024-02-12T09:30:00",11.199,19.01231,0.092],
    [11765,"urn:WaterMeter:MC0203J22010600005","2024-02-12T09:45:00",11.6,18.99214,0.091],
    [11766,"urn:WaterMeter:MC0203J22010600005","2024-02-12T10:00:00",11.899,18.99175,0.089],
    [11767,"urn:WaterMeter:MC0203J22010600005","2024-02-12T10:15:00",12.3,18.93279,0.094],
    [11768,"urn:WaterMeter:MC0203J22010600005","2024-02-12T10:30:00",12.8,18.963823,0.095],
    [11769,"urn:WaterMeter:MC0203J22010600005","2024-02-12T10:45:00",13.3,18.935856,0.091],
    [11770,"urn:WaterMeter:MC0203J22010600005","2024-02-12T11:00:00",13.899,18.894388,0.092],
    [11771,"urn:WaterMeter:MC0203J22010600005","2024-02-12T11:15:00",14.399,18.925808,0.092],
    [11772,"urn:WaterMeter:MC0203J22010600005","2024-02-12T11:30:00",14.8,18.910292,0.094],
    [11773,"urn:WaterMeter:MC0203J22010600005","2024-02-12T11:45:00",15.199,18.920765,0.096],
    [11774,"urn:WaterMeter:MC0203J22010600005","2024-02-12T12:00:00",15.5,18.907965,0.091],
    [11775,"urn:WaterMeter:MC0203J22010600005","2024-02-12T12:15:00",15.8,18.886242,0.087],
    [11776,"urn:WaterMeter:MC0203J22010600005","2024-02-12T12:30:00",16.1,18.946754,0.094],
    [11777,"urn:WaterMeter:MC0203J22010600005","2024-02-12T12:45:00",16.399,18.906025,0.088],
    [11778,"urn:WaterMeter:MC0203J22010600005","2024-02-12T13:00:00",16.399,18.875769,0.092],
    [11779,"urn:WaterMeter:MC0203J22010600005","2024-02-12T13:15:00",16.5,18.897453,0.09],
    [11780,"urn:WaterMeter:MC0203J22010600005","2024-02-12T13:30:00",16.7,18.860214,0.092],
    [11781,"urn:WaterMeter:MC0203J22010600005","2024-02-12T13:45:00",16.7,18.867235,0.093],
    [11782,"urn:WaterMeter:MC0203J22010600005","2024-02-12T14:00:00",16.799,18.81099,0.092],
    [11783,"urn:WaterMeter:MC0203J22010600005","2024-02-12T14:15:00",16.799,18.790432,0.092],
    [11784,"urn:WaterMeter:MC0203J22010600005","2024-02-12T14:30:00",16.799,18.821812,0.092],
    [11785,"urn:WaterMeter:MC0203J22010600005","2024-02-12T14:45:00",16.799,18.808662,0.09],
    [11786,"urn:WaterMeter:MC0203J22010600005","2024-02-12T15:00:00",16.799,18.757849,0.09],
    [11787,"urn:WaterMeter:MC0203J22010600005","2024-02-12T15:15:00",16.799,18.743069,0.091],
    [11788,"urn:WaterMeter:MC0203J22010600005","2024-02-12T15:30:00",16.799,18.781082,0.101],
    [11789,"urn:WaterMeter:MC0203J22010600005","2024-02-12T15:45:00",16.899,18.766382,0.096],
    [11790,"urn:WaterMeter:MC0203J22010600005","2024-02-12T16:00:00",16.799,18.723286,0.094],
    [11791,"urn:WaterMeter:MC0203J22010600005","2024-02-12T16:15:00",16.799,18.724838,0.092],
    [11792,"urn:WaterMeter:MC0203J22010600005","2024-02-12T16:30:00",16.7,18.730696,0.096],
    [11793,"urn:WaterMeter:MC0203J22010600005","2024-02-12T16:45:00",16.6,18.743069,0.095],
    [11794,"urn:WaterMeter:MC0203J22010600005","2024-02-12T17:00:00",16.399,18.711687,0.092],
    [11795,"urn:WaterMeter:MC0203J22010600005","2024-02-12T17:15:00",16.299,18.698887,0.094],
    [11796,"urn:WaterMeter:MC0203J22010600005","2024-02-12T17:30:00",16.1,18.754705,0.095],
    [11797,"urn:WaterMeter:MC0203J22010600005","2024-02-12T17:45:00",15.899,18.70936,0.096],
    [11798,"urn:WaterMeter:MC0203J22010600005","2024-02-12T18:00:00",15.699,18.695356,0.092],
    [11799,"urn:WaterMeter:MC0203J22010600005","2024-02-12T18:15:00",15.399,18.679493,0.096],
    [11800,"urn:WaterMeter:MC0203J22010600005","2024-02-12T18:30:00",15.199,18.725225,0.095],
    [11801,"urn:WaterMeter:MC0203J22010600005","2024-02-12T18:45:00",15.1,18.755133,0.098],
    [11802,"urn:WaterMeter:MC0203J22010600005","2024-02-12T19:00:00",14.899,18.72022,0.096],
    [11803,"urn:WaterMeter:MC0203J22010600005","2024-02-12T19:15:00",14.8,18.740004,0.095],
    [11804,"urn:WaterMeter:MC0203J22010600005","2024-02-12T19:30:00",14.6,18.669794,0.101],
    [11805,"urn:WaterMeter:MC0203J22010600005","2024-02-12T19:45:00",14.3,18.724062,0.093],
    [11806,"urn:WaterMeter:MC0203J22010600005","2024-02-12T20:00:00",14.1,18.760912,0.096],
    [11807,"urn:WaterMeter:MC0203J22010600005","2024-02-12T20:15:00",13.8,18.666265,0.101],
    [11808,"urn:WaterMeter:MC0203J22010600005","2024-02-12T20:30:00",13.6,18.73186,0.096],
    [11809,"urn:WaterMeter:MC0203J22010600005","2024-02-12T20:45:00",13.5,18.71514,0.098],
    [11810,"urn:WaterMeter:MC0203J22010600005","2024-02-12T21:00:00",13.3,18.747374,0.099],
    [11811,"urn:WaterMeter:MC0203J22010600005","2024-02-12T21:15:00",13.199,18.748926,0.097],
    [11812,"urn:WaterMeter:MC0203J22010600005","2024-02-12T21:30:00",13,18.701603,0.096],
    [11813,"urn:WaterMeter:MC0203J22010600005","2024-02-12T21:45:00",12.8,18.74815,0.095],
    [11814,"urn:WaterMeter:MC0203J22010600005","2024-02-12T22:00:00",12.699,18.728367,0.097],
    [11815,"urn:WaterMeter:MC0203J22010600005","2024-02-12T22:15:00",12.5,18.7466,0.098],
    [11816,"urn:WaterMeter:MC0203J22010600005","2024-02-12T22:30:00",12.399,18.764015,0.101],
    [11817,"urn:WaterMeter:MC0203J22010600005","2024-02-12T22:45:00",12.3,18.775303,0.096],
    [11818,"urn:WaterMeter:MC0203J22010600005","2024-02-12T23:00:00",12.1,18.749313,0.097],
    [11819,"urn:WaterMeter:MC0203J22010600005","2024-02-12T23:15:00",12,18.77957,0.096],
    [11820,"urn:WaterMeter:MC0203J22010600005","2024-02-12T23:30:00",11.899,18.743456,0.098],
    [11821,"urn:WaterMeter:MC0203J22010600005","2024-02-12T23:45:00",11.8,18.717894,0.094],
    [11822,"urn:WaterMeter:MC0203J22010600005","2024-02-13T00:00:00",11.6,18.795862,0.091],
    [11823,"urn:WaterMeter:MC0203J22010600005","2024-02-13T00:15:00",11.5,18.766382,0.099],
    [11824,"urn:WaterMeter:MC0203J22010600005","2024-02-13T00:30:00",11.399,18.780308,0.096],
    [11825,"urn:WaterMeter:MC0203J22010600005","2024-02-13T00:45:00",11.3,18.792332,0.097],
    [11826,"urn:WaterMeter:MC0203J22010600005","2024-02-13T01:00:00",11.199,18.781471,0.098],
    [11827,"urn:WaterMeter:MC0203J22010600005","2024-02-13T01:15:00",11.199,18.785389,0.095],
    [11828,"urn:WaterMeter:MC0203J22010600005","2024-02-13T01:30:00",11,18.782248,0.097],
    [11829,"urn:WaterMeter:MC0203J22010600005","2024-02-13T01:45:00",11,18.786552,0.096],
    [11830,"urn:WaterMeter:MC0203J22010600005","2024-02-13T02:00:00",10.899,18.738453,0.097],
    [11831,"urn:WaterMeter:MC0203J22010600005","2024-02-13T02:15:00",10.8,18.798965,0.098],
    [11832,"urn:WaterMeter:MC0203J22010600005","2024-02-13T02:30:00",10.699,18.740004,0.097],
    [11833,"urn:WaterMeter:MC0203J22010600005","2024-02-13T02:45:00",10.699,18.77957,0.096],
    [11834,"urn:WaterMeter:MC0203J22010600005","2024-02-13T03:00:00",10.6,18.807112,0.097],
    [11835,"urn:WaterMeter:MC0203J22010600005","2024-02-13T03:15:00",10.6,18.798576,0.095],
    [11836,"urn:WaterMeter:MC0203J22010600005","2024-02-13T03:30:00",10.5,18.820261,0.096],
    [11837,"urn:WaterMeter:MC0203J22010600005","2024-02-13T03:45:00",10.5,18.781858,0.095],
    [11838,"urn:WaterMeter:MC0203J22010600005","2024-02-13T04:00:00",10.399,18.783022,0.092],
    [11839,"urn:WaterMeter:MC0203J22010600005","2024-02-13T04:15:00",10.3,18.770649,0.097],
    [11840,"urn:WaterMeter:MC0203J22010600005","2024-02-13T04:30:00",10.3,18.785776,0.096],
    [11841,"urn:WaterMeter:MC0203J22010600005","2024-02-13T04:45:00",10.199,18.775303,0.097],
    [11842,"urn:WaterMeter:MC0203J22010600005","2024-02-13T05:00:00",10.1,18.808662,0.098],
    [11843,"urn:WaterMeter:MC0203J22010600005","2024-02-13T05:15:00",10.1,18.780695,0.092],
    [11844,"urn:WaterMeter:MC0203J22010600005","2024-02-13T05:30:00",10.1,18.800865,0.094],
    [11845,"urn:WaterMeter:MC0203J22010600005","2024-02-13T05:45:00",10,18.823402,0.09],
    [11846,"urn:WaterMeter:MC0203J22010600005","2024-02-13T06:00:00",10,18.855211,0.093],
    [11847,"urn:WaterMeter:MC0203J22010600005","2024-02-13T06:15:00",9.899,18.846678,0.097],
    [11848,"urn:WaterMeter:MC0203J22010600005","2024-02-13T06:30:00",9.899,18.85013,0.093],
    [11849,"urn:WaterMeter:MC0203J22010600005","2024-02-13T06:45:00",9.8,18.859438,0.097],
    [11850,"urn:WaterMeter:MC0203J22010600005","2024-02-13T07:00:00",9.699,18.836592,0.095],
    [11851,"urn:WaterMeter:MC0203J22010600005","2024-02-13T07:15:00",9.6,18.821812,0.096],
    [11852,"urn:WaterMeter:MC0203J22010600005","2024-02-13T07:30:00",9.6,18.856762,0.093],
    [11853,"urn:WaterMeter:MC0203J22010600005","2024-02-13T07:45:00",9.6,18.846289,0.095],
    [11854,"urn:WaterMeter:MC0203J22010600005","2024-02-13T08:00:00",9.6,18.79082,0.098],
    [11855,"urn:WaterMeter:MC0203J22010600005","2024-02-13T08:15:00",9.6,18.812115,0.094],
    [11856,"urn:WaterMeter:MC0203J22010600005","2024-02-13T08:30:00",9.699,18.855986,0.098],
    [11857,"urn:WaterMeter:MC0203J22010600005","2024-02-13T08:45:00",10,18.803194,0.096],
    [11858,"urn:WaterMeter:MC0203J22010600005","2024-02-13T09:00:00",10.399,18.856375,0.097],
    [11859,"urn:WaterMeter:MC0203J22010600005","2024-02-13T09:15:00",10.699,18.817196,0.094],
    [11860,"urn:WaterMeter:MC0203J22010600005","2024-02-13T09:30:00",11.1,18.845125,0.094],
    [11861,"urn:WaterMeter:MC0203J22010600005","2024-02-13T09:45:00",11.399,18.878057,0.095],
    [11862,"urn:WaterMeter:MC0203J22010600005","2024-02-13T10:00:00",11.8,18.79431,0.097],
    [11863,"urn:WaterMeter:MC0203J22010600005","2024-02-13T10:15:00",12.199,18.841595,0.088],
    [11864,"urn:WaterMeter:MC0203J22010600005","2024-02-13T10:30:00",12.5,18.796638,0.091],
    [11865,"urn:WaterMeter:MC0203J22010600005","2024-02-13T10:45:00",12.8,18.761688,0.087],
    [11866,"urn:WaterMeter:MC0203J22010600005","2024-02-13T11:00:00",13.3,18.812504,0.093],
    [11867,"urn:WaterMeter:MC0203J22010600005","2024-02-13T11:15:00",13.699,18.786552,0.088],
    [11868,"urn:WaterMeter:MC0203J22010600005","2024-02-13T11:30:00",14.199,18.771812,0.092],
    [11869,"urn:WaterMeter:MC0203J22010600005","2024-02-13T11:45:00",14.699,18.759012,0.091],
    [11870,"urn:WaterMeter:MC0203J22010600005","2024-02-13T12:00:00",15.1,18.76483,0.091],
    [11871,"urn:WaterMeter:MC0203J22010600005","2024-02-13T12:15:00",15.6,18.820261,0.094],
    [11872,"urn:WaterMeter:MC0203J22010600005","2024-02-13T12:30:00",16.1,18.77763,0.091],
    [11873,"urn:WaterMeter:MC0203J22010600005","2024-02-13T12:45:00",16.399,18.790432,0.088],
    [11874,"urn:WaterMeter:MC0203J22010600005","2024-02-13T13:00:00",16.7,18.739616,0.09],
    [11875,"urn:WaterMeter:MC0203J22010600005","2024-02-13T13:15:00",16.799,18.7466,0.087],
    [11876,"urn:WaterMeter:MC0203J22010600005","2024-02-13T13:30:00",16.799,18.675962,0.09],
    [11877,"urn:WaterMeter:MC0203J22010600005","2024-02-13T13:45:00",16.899,18.69811,0.089],
    [11878,"urn:WaterMeter:MC0203J22010600005","2024-02-13T14:00:00",16.899,18.697336,0.095],
    [11879,"urn:WaterMeter:MC0203J22010600005","2024-02-13T14:15:00",16.899,18.656567,0.092],
    [11880,"urn:WaterMeter:MC0203J22010600005","2024-02-13T14:30:00",17,18.629454,0.091],
    [11881,"urn:WaterMeter:MC0203J22010600005","2024-02-13T14:45:00",17,18.677553,0.091],
    [11882,"urn:WaterMeter:MC0203J22010600005","2024-02-13T15:00:00",17,18.584068,0.092],
    [11883,"urn:WaterMeter:MC0203J22010600005","2024-02-13T15:15:00",17,18.60808,0.093],
    [11884,"urn:WaterMeter:MC0203J22010600005","2024-02-13T15:30:00",17,18.618164,0.094],
    [11885,"urn:WaterMeter:MC0203J22010600005","2024-02-13T15:45:00",17,18.617777,0.091],
    [11886,"urn:WaterMeter:MC0203J22010600005","2024-02-13T16:00:00",17,18.534029,0.09],
    [11887,"urn:WaterMeter:MC0203J22010600005","2024-02-13T16:15:00",17,18.602688,0.094],
    [11888,"urn:WaterMeter:MC0203J22010600005","2024-02-13T16:30:00",16.899,18.6023,0.087],
    [11889,"urn:WaterMeter:MC0203J22010600005","2024-02-13T16:45:00",16.899,18.544891,0.096],
    [11890,"urn:WaterMeter:MC0203J22010600005","2024-02-13T17:00:00",16.799,18.59299,0.096],
    [11891,"urn:WaterMeter:MC0203J22010600005","2024-02-13T17:15:00",16.6,18.564674,0.091],
    [11892,"urn:WaterMeter:MC0203J22010600005","2024-02-13T17:30:00",16.399,18.546055,0.095],
    [11893,"urn:WaterMeter:MC0203J22010600005","2024-02-13T17:45:00",16.1,18.516962,0.093],
    [11894,"urn:WaterMeter:MC0203J22010600005","2024-02-13T18:00:00",15.8,18.550283,0.096],
    [11895,"urn:WaterMeter:MC0203J22010600005","2024-02-13T18:15:00",15.6,18.540197,0.094],
    [11896,"urn:WaterMeter:MC0203J22010600005","2024-02-13T18:30:00",15.3,18.544115,0.093],
    [11897,"urn:WaterMeter:MC0203J22010600005","2024-02-13T18:45:00",15.1,18.503386,0.096],
    [11898,"urn:WaterMeter:MC0203J22010600005","2024-02-13T19:00:00",14.899,18.469639,0.095],
    [11899,"urn:WaterMeter:MC0203J22010600005","2024-02-13T19:15:00",14.699,18.551872,0.096],
    [11900,"urn:WaterMeter:MC0203J22010600005","2024-02-13T19:30:00",14.5,18.553812,0.095],
    [11901,"urn:WaterMeter:MC0203J22010600005","2024-02-13T19:45:00",14.3,18.516962,0.091],
    [11902,"urn:WaterMeter:MC0203J22010600005","2024-02-13T20:00:00",14.1,18.506876,0.098],
    [11903,"urn:WaterMeter:MC0203J22010600005","2024-02-13T20:15:00",14,18.492485,0.095],
    [11904,"urn:WaterMeter:MC0203J22010600005","2024-02-13T20:30:00",13.8,18.50804,0.091],
    [11905,"urn:WaterMeter:MC0203J22010600005","2024-02-13T20:45:00",13.699,18.502998,0.097],
    [11906,"urn:WaterMeter:MC0203J22010600005","2024-02-13T21:00:00",13.6,18.513083,0.096],
    [11907,"urn:WaterMeter:MC0203J22010600005","2024-02-13T21:15:00",13.5,18.537521,0.099],
    [11908,"urn:WaterMeter:MC0203J22010600005","2024-02-13T21:30:00",13.3,18.531275,0.093],
    [11909,"urn:WaterMeter:MC0203J22010600005","2024-02-13T21:45:00",13.199,18.525108,0.096],
    [11910,"urn:WaterMeter:MC0203J22010600005","2024-02-13T22:00:00",13.1,18.52278,0.097],
    [11911,"urn:WaterMeter:MC0203J22010600005","2024-02-13T22:15:00",13,18.492098,0.095],
    [11912,"urn:WaterMeter:MC0203J22010600005","2024-02-13T22:30:00",12.8,18.520065,0.095],
    [11913,"urn:WaterMeter:MC0203J22010600005","2024-02-13T22:45:00",12.699,18.568127,0.098],
    [11914,"urn:WaterMeter:MC0203J22010600005","2024-02-13T23:00:00",12.6,18.553425,0.096],
    [11915,"urn:WaterMeter:MC0203J22010600005","2024-02-13T23:15:00",12.5,18.568127,0.096],
    [11916,"urn:WaterMeter:MC0203J22010600005","2024-02-13T23:30:00",12.399,18.528948,0.093],
    [11917,"urn:WaterMeter:MC0203J22010600005","2024-02-13T23:45:00",12.3,18.487093,0.095],
    [11918,"urn:WaterMeter:MC0203J22010600005","2024-02-14T00:00:00",12.3,18.538296,0.096],
    [11919,"urn:WaterMeter:MC0203J22010600005","2024-02-14T00:15:00",12.199,18.575922,0.097],
    [11920,"urn:WaterMeter:MC0203J22010600005","2024-02-14T00:30:00",12.1,18.582518,0.096],
    [11921,"urn:WaterMeter:MC0203J22010600005","2024-02-14T00:45:00",12,18.574371,0.096],
    [11922,"urn:WaterMeter:MC0203J22010600005","2024-02-14T01:00:00",12,18.538296,0.093],
    [11923,"urn:WaterMeter:MC0203J22010600005","2024-02-14T01:15:00",11.899,18.561958,0.097],
    [11924,"urn:WaterMeter:MC0203J22010600005","2024-02-14T01:30:00",11.8,18.52856,0.094],
    [11925,"urn:WaterMeter:MC0203J22010600005","2024-02-14T01:45:00",11.8,18.580578,0.097],
    [11926,"urn:WaterMeter:MC0203J22010600005","2024-02-14T02:00:00",11.699,18.514246,0.094],
    [11927,"urn:WaterMeter:MC0203J22010600005","2024-02-14T02:15:00",11.6,18.586008,0.095],
    [11928,"urn:WaterMeter:MC0203J22010600005","2024-02-14T02:30:00",11.5,18.579374,0.096],
    [11929,"urn:WaterMeter:MC0203J22010600005","2024-02-14T02:45:00",11.5,18.530888,0.096],
    [11930,"urn:WaterMeter:MC0203J22010600005","2024-02-14T03:00:00",11.399,18.573984,0.097],
    [11931,"urn:WaterMeter:MC0203J22010600005","2024-02-14T03:15:00",11.3,18.516962,0.096],
    [11932,"urn:WaterMeter:MC0203J22010600005","2024-02-14T03:30:00",11.199,18.58791,0.095],
    [11933,"urn:WaterMeter:MC0203J22010600005","2024-02-14T03:45:00",11.199,18.566961,0.095],
    [11934,"urn:WaterMeter:MC0203J22010600005","2024-02-14T04:00:00",11.1,18.556915,0.096],
    [11935,"urn:WaterMeter:MC0203J22010600005","2024-02-14T04:15:00",11.1,18.559591,0.1],
    [11936,"urn:WaterMeter:MC0203J22010600005","2024-02-14T04:30:00",11,18.546831,0.094],
    [11937,"urn:WaterMeter:MC0203J22010600005","2024-02-14T04:45:00",11,18.511105,0.096],
    [11938,"urn:WaterMeter:MC0203J22010600005","2024-02-14T05:00:00",10.899,18.618164,0.094],
    [11939,"urn:WaterMeter:MC0203J22010600005","2024-02-14T05:15:00",10.8,18.608467,0.095],
    [11940,"urn:WaterMeter:MC0203J22010600005","2024-02-14T05:30:00",10.699,18.531275,0.099],
    [11941,"urn:WaterMeter:MC0203J22010600005","2024-02-14T05:45:00",10.6,18.584457,0.099],
    [11942,"urn:WaterMeter:MC0203J22010600005","2024-02-14T06:00:00",10.5,18.563509,0.095],
    [11943,"urn:WaterMeter:MC0203J22010600005","2024-02-14T06:15:00",10.5,18.584845,0.097],
    [11944,"urn:WaterMeter:MC0203J22010600005","2024-02-14T06:30:00",10.5,18.565449,0.094],
    [11945,"urn:WaterMeter:MC0203J22010600005","2024-02-14T06:45:00",10.5,18.55998,0.095],
    [11946,"urn:WaterMeter:MC0203J22010600005","2024-02-14T07:00:00",10.5,18.596094,0.097],
    [11947,"urn:WaterMeter:MC0203J22010600005","2024-02-14T07:15:00",10.5,18.611998,0.098],
    [11948,"urn:WaterMeter:MC0203J22010600005","2024-02-14T07:30:00",10.6,18.586744,0.095],
    [11949,"urn:WaterMeter:MC0203J22010600005","2024-02-14T07:45:00",10.6,18.60967,0.094],
    [11950,"urn:WaterMeter:MC0203J22010600005","2024-02-14T08:00:00",10.8,18.566961,0.094],
    [11951,"urn:WaterMeter:MC0203J22010600005","2024-02-14T08:15:00",10.899,18.58946,0.094],
    [11952,"urn:WaterMeter:MC0203J22010600005","2024-02-14T08:30:00",11.1,18.640701,0.097],
    [11953,"urn:WaterMeter:MC0203J22010600005","2024-02-14T08:45:00",11.3,18.58791,0.098],
    [11954,"urn:WaterMeter:MC0203J22010600005","2024-02-14T09:00:00",11.5,18.601524,0.094],
    [11955,"urn:WaterMeter:MC0203J22010600005","2024-02-14T09:15:00",11.8,18.567738,0.096],
    [11956,"urn:WaterMeter:MC0203J22010600005","2024-02-14T09:30:00",12,18.624022,0.094],
    [11957,"urn:WaterMeter:MC0203J22010600005","2024-02-14T09:45:00",12.199,18.561571,0.093],
    [11958,"urn:WaterMeter:MC0203J22010600005","2024-02-14T10:00:00",12.5,18.6267,0.096],
    [11959,"urn:WaterMeter:MC0203J22010600005","2024-02-14T10:15:00",12.699,18.560368,0.093],
    [11960,"urn:WaterMeter:MC0203J22010600005","2024-02-14T10:30:00",13,18.56929,0.09],
    [11961,"urn:WaterMeter:MC0203J22010600005","2024-02-14T10:45:00",13.3,18.596869,0.095],
    [11962,"urn:WaterMeter:MC0203J22010600005","2024-02-14T11:00:00",13.6,18.543339,0.089],
    [11963,"urn:WaterMeter:MC0203J22010600005","2024-02-14T11:15:00",13.8,18.602688,0.088],
    [11964,"urn:WaterMeter:MC0203J22010600005","2024-02-14T11:30:00",14.1,18.573984,0.091],
    [11965,"urn:WaterMeter:MC0203J22010600005","2024-02-14T11:45:00",14.399,18.583681,0.093],
    [11966,"urn:WaterMeter:MC0203J22010600005","2024-02-14T12:00:00",14.699,18.575535,0.091],
    [11967,"urn:WaterMeter:MC0203J22010600005","2024-02-14T12:15:00",15,18.558079,0.092],
    [11968,"urn:WaterMeter:MC0203J22010600005","2024-02-14T12:30:00",15.3,18.509941,0.093],
    [11969,"urn:WaterMeter:MC0203J22010600005","2024-02-14T12:45:00",15.5,18.489382,0.097],
    [11970,"urn:WaterMeter:MC0203J22010600005","2024-02-14T13:00:00",15.699,18.481276,0.092],
    [11971,"urn:WaterMeter:MC0203J22010600005","2024-02-14T13:15:00",15.899,18.473478,0.088],
    [11972,"urn:WaterMeter:MC0203J22010600005","2024-02-14T13:30:00",16.1,18.469988,0.09],
    [11973,"urn:WaterMeter:MC0203J22010600005","2024-02-14T13:45:00",16.2,18.475069,0.091],
    [11974,"urn:WaterMeter:MC0203J22010600005","2024-02-14T14:00:00",16.399,18.447916,0.09],
    [11975,"urn:WaterMeter:MC0203J22010600005","2024-02-14T14:15:00",16.5,18.473091,0.094],
    [11976,"urn:WaterMeter:MC0203J22010600005","2024-02-14T14:30:00",16.6,18.47662,0.088],
    [11977,"urn:WaterMeter:MC0203J22010600005","2024-02-14T14:45:00",16.7,18.44559,0.091],
    [11978,"urn:WaterMeter:MC0203J22010600005","2024-02-14T15:00:00",16.7,18.464983,0.092],
    [11979,"urn:WaterMeter:MC0203J22010600005","2024-02-14T15:15:00",16.799,18.41727,0.095],
    [11980,"urn:WaterMeter:MC0203J22010600005","2024-02-14T15:30:00",16.899,18.409126,0.09],
    [11981,"urn:WaterMeter:MC0203J22010600005","2024-02-14T15:45:00",16.799,18.36374,0.093],
    [11982,"urn:WaterMeter:MC0203J22010600005","2024-02-14T16:00:00",16.799,18.415293,0.094],
    [11983,"urn:WaterMeter:MC0203J22010600005","2024-02-14T16:15:00",16.7,18.414906,0.091],
    [11984,"urn:WaterMeter:MC0203J22010600005","2024-02-14T16:30:00",16.7,18.346636,0.093],
    [11985,"urn:WaterMeter:MC0203J22010600005","2024-02-14T16:45:00",16.6,18.394735,0.094],
    [11986,"urn:WaterMeter:MC0203J22010600005","2024-02-14T17:00:00",16.5,18.377707,0.091],
    [11987,"urn:WaterMeter:MC0203J22010600005","2024-02-14T17:15:00",16.299,18.397877,0.093],
    [11988,"urn:WaterMeter:MC0203J22010600005","2024-02-14T17:30:00",16.2,18.366806,0.099],
    [11989,"urn:WaterMeter:MC0203J22010600005","2024-02-14T17:45:00",16,18.350554,0.096],
    [11990,"urn:WaterMeter:MC0203J22010600005","2024-02-14T18:00:00",15.8,18.323788,0.091],
    [11991,"urn:WaterMeter:MC0203J22010600005","2024-02-14T18:15:00",15.6,18.374176,0.09],
    [11992,"urn:WaterMeter:MC0203J22010600005","2024-02-14T18:30:00",15.399,18.372663,0.093],
    [11993,"urn:WaterMeter:MC0203J22010600005","2024-02-14T18:45:00",15.199,18.407574,0.104],
    [11994,"urn:WaterMeter:MC0203J22010600005","2024-02-14T19:00:00",15,18.372663,0.095],
    [11995,"urn:WaterMeter:MC0203J22010600005","2024-02-14T19:15:00",14.899,18.329994,0.097],
    [11996,"urn:WaterMeter:MC0203J22010600005","2024-02-14T19:30:00",14.699,18.324564,0.094],
    [11997,"urn:WaterMeter:MC0203J22010600005","2024-02-14T19:45:00",14.5,18.393959,0.093],
    [11998,"urn:WaterMeter:MC0203J22010600005","2024-02-14T20:00:00",14.3,18.342407,0.093],
    [11999,"urn:WaterMeter:MC0203J22010600005","2024-02-14T20:15:00",14.199,18.327627,0.09],
    [12000,"urn:WaterMeter:MC0203J22010600005","2024-02-14T20:30:00",14,18.33461,0.091],
    [12001,"urn:WaterMeter:MC0203J22010600005","2024-02-14T20:45:00",13.8,18.310598,0.09],
    [12002,"urn:WaterMeter:MC0203J22010600005","2024-02-14T21:00:00",13.699,18.34163,0.096],
    [12003,"urn:WaterMeter:MC0203J22010600005","2024-02-14T21:15:00",13.5,18.37111,0.094],
    [12004,"urn:WaterMeter:MC0203J22010600005","2024-02-14T21:30:00",13.399,18.3234,0.094],
    [12005,"urn:WaterMeter:MC0203J22010600005","2024-02-14T21:45:00",13.199,18.344734,0.092],
    [12006,"urn:WaterMeter:MC0203J22010600005","2024-02-14T22:00:00",13,18.37887,0.095],
    [12007,"urn:WaterMeter:MC0203J22010600005","2024-02-14T22:15:00",12.899,18.33814,0.093],
    [12008,"urn:WaterMeter:MC0203J22010600005","2024-02-14T22:30:00",12.699,18.38779,0.095],
    [12009,"urn:WaterMeter:MC0203J22010600005","2024-02-14T22:45:00",12.6,18.387403,0.096],
    [12010,"urn:WaterMeter:MC0203J22010600005","2024-02-14T23:00:00",12.399,18.359474,0.095],
    [12011,"urn:WaterMeter:MC0203J22010600005","2024-02-14T23:15:00",12.3,18.376116,0.094],
    [12012,"urn:WaterMeter:MC0203J22010600005","2024-02-14T23:30:00",12.199,18.396713,0.094],
    [12013,"urn:WaterMeter:MC0203J22010600005","2024-02-14T23:45:00",12.1,18.41029,0.096],
    [12014,"urn:WaterMeter:MC0203J22010600005","2024-02-15T00:00:00",12,18.38042,0.092],
    [12015,"urn:WaterMeter:MC0203J22010600005","2024-02-15T00:15:00",11.899,18.425806,0.094],
    [12016,"urn:WaterMeter:MC0203J22010600005","2024-02-15T00:30:00",11.8,18.360638,0.096],
    [12017,"urn:WaterMeter:MC0203J22010600005","2024-02-15T00:45:00",11.6,18.425806,0.095],
    [12018,"urn:WaterMeter:MC0203J22010600005","2024-02-15T01:00:00",11.5,18.387016,0.097],
    [12019,"urn:WaterMeter:MC0203J22010600005","2024-02-15T01:15:00",11.5,18.379644,0.096],
    [12020,"urn:WaterMeter:MC0203J22010600005","2024-02-15T01:30:00",11.399,18.40292,0.096],
    [12021,"urn:WaterMeter:MC0203J22010600005","2024-02-15T01:45:00",11.3,18.374176,0.092],
    [12022,"urn:WaterMeter:MC0203J22010600005","2024-02-15T02:00:00",11.199,18.40098,0.096],
    [12023,"urn:WaterMeter:MC0203J22010600005","2024-02-15T02:15:00",11.199,18.37534,0.092],
    [12024,"urn:WaterMeter:MC0203J22010600005","2024-02-15T02:30:00",11.1,18.422703,0.096],
    [12025,"urn:WaterMeter:MC0203J22010600005","2024-02-15T02:45:00",11.1,18.404045,0.094],
    [12026,"urn:WaterMeter:MC0203J22010600005","2024-02-15T03:00:00",11,18.411453,0.099],
    [12027,"urn:WaterMeter:MC0203J22010600005","2024-02-15T03:15:00",11,18.414518,0.1],
    [12028,"urn:WaterMeter:MC0203J22010600005","2024-02-15T03:30:00",11,18.4196,0.092],
    [12029,"urn:WaterMeter:MC0203J22010600005","2024-02-15T03:45:00",10.899,18.427746,0.095],
    [12030,"urn:WaterMeter:MC0203J22010600005","2024-02-15T04:00:00",10.899,18.436666,0.097],
    [12031,"urn:WaterMeter:MC0203J22010600005","2024-02-15T04:15:00",10.899,18.418823,0.096],
    [12032,"urn:WaterMeter:MC0203J22010600005","2024-02-15T04:30:00",10.8,18.352104,0.095],
    [12033,"urn:WaterMeter:MC0203J22010600005","2024-02-15T04:45:00",10.699,18.430073,0.091],
    [12034,"urn:WaterMeter:MC0203J22010600005","2024-02-15T05:00:00",10.699,18.411453,0.099],
    [12035,"urn:WaterMeter:MC0203J22010600005","2024-02-15T05:15:00",10.6,18.390507,0.096],
    [12036,"urn:WaterMeter:MC0203J22010600005","2024-02-15T05:30:00",10.5,18.430847,0.093],
    [12037,"urn:WaterMeter:MC0203J22010600005","2024-02-15T05:45:00",10.5,18.329994,0.091],
    [12038,"urn:WaterMeter:MC0203J22010600005","2024-02-15T06:00:00",10.399,18.36762,0.097],
    [12039,"urn:WaterMeter:MC0203J22010600005","2024-02-15T06:15:00",10.399,18.449856,0.094],
    [12040,"urn:WaterMeter:MC0203J22010600005","2024-02-15T06:30:00",10.3,18.43977,0.095],
    [12041,"urn:WaterMeter:MC0203J22010600005","2024-02-15T06:45:00",10.3,18.431585,0.089],
    [12042,"urn:WaterMeter:MC0203J22010600005","2024-02-15T07:00:00",10.3,18.380033,0.096],
    [12043,"urn:WaterMeter:MC0203J22010600005","2024-02-15T07:15:00",10.199,18.407187,0.09],
    [12044,"urn:WaterMeter:MC0203J22010600005","2024-02-15T07:30:00",10.199,18.454899,0.098],
    [12045,"urn:WaterMeter:MC0203J22010600005","2024-02-15T07:45:00",10.199,18.412966,0.095],
    [12046,"urn:WaterMeter:MC0203J22010600005","2024-02-15T08:00:00",10.3,18.422703,0.092],
    [12047,"urn:WaterMeter:MC0203J22010600005","2024-02-15T08:15:00",10.399,18.4343,0.093],
    [12048,"urn:WaterMeter:MC0203J22010600005","2024-02-15T08:30:00",10.6,18.438606,0.087],
    [12049,"urn:WaterMeter:MC0203J22010600005","2024-02-15T08:45:00",10.8,18.435503,0.095],
    [12050,"urn:WaterMeter:MC0203J22010600005","2024-02-15T09:00:00",11,18.440157,0.088],
    [12051,"urn:WaterMeter:MC0203J22010600005","2024-02-15T09:15:00",11.199,18.462229,0.087],
    [12052,"urn:WaterMeter:MC0203J22010600005","2024-02-15T09:30:00",11.6,18.458,0.093],
    [12053,"urn:WaterMeter:MC0203J22010600005","2024-02-15T09:45:00",12,18.442486,0.092],
    [12054,"urn:WaterMeter:MC0203J22010600005","2024-02-15T10:00:00",12.3,18.397877,0.092],
    [12055,"urn:WaterMeter:MC0203J22010600005","2024-02-15T10:15:00",12.6,18.411066,0.094],
    [12056,"urn:WaterMeter:MC0203J22010600005","2024-02-15T10:30:00",12.899,18.42309,0.095],
    [12057,"urn:WaterMeter:MC0203J22010600005","2024-02-15T10:45:00",13.199,18.343958,0.09],
    [12058,"urn:WaterMeter:MC0203J22010600005","2024-02-15T11:00:00",13.5,18.407963,0.089],
    [12059,"urn:WaterMeter:MC0203J22010600005","2024-02-15T11:15:00",13.899,18.369947,0.095],
    [12060,"urn:WaterMeter:MC0203J22010600005","2024-02-15T11:30:00",14.199,18.383137,0.091],
    [12061,"urn:WaterMeter:MC0203J22010600005","2024-02-15T11:45:00",14.6,18.36025,0.09],
    [12062,"urn:WaterMeter:MC0203J22010600005","2024-02-15T12:00:00",14.899,18.3843,0.092],
    [12063,"urn:WaterMeter:MC0203J22010600005","2024-02-15T12:15:00",15.1,18.310987,0.092],
    [12064,"urn:WaterMeter:MC0203J22010600005","2024-02-15T12:30:00",15.199,18.346247,0.093],
    [12065,"urn:WaterMeter:MC0203J22010600005","2024-02-15T12:45:00",15.5,18.311762,0.094],
    [12066,"urn:WaterMeter:MC0203J22010600005","2024-02-15T13:00:00",15.699,18.323788,0.093],
    [12067,"urn:WaterMeter:MC0203J22010600005","2024-02-15T13:15:00",15.8,18.293531,0.091],
    [12068,"urn:WaterMeter:MC0203J22010600005","2024-02-15T13:30:00",15.899,18.325338,0.091],
    [12069,"urn:WaterMeter:MC0203J22010600005","2024-02-15T13:45:00",16,18.337326,0.091],
    [12070,"urn:WaterMeter:MC0203J22010600005","2024-02-15T14:00:00",16,18.310598,0.095],
    [12071,"urn:WaterMeter:MC0203J22010600005","2024-02-15T14:15:00",16,18.262112,0.093],
    [12072,"urn:WaterMeter:MC0203J22010600005","2024-02-15T14:30:00",15.899,18.262112,0.09],
    [12073,"urn:WaterMeter:MC0203J22010600005","2024-02-15T14:45:00",15.8,18.25703,0.091],
    [12074,"urn:WaterMeter:MC0203J22010600005","2024-02-15T15:00:00",15.6,18.227976,0.092],
    [12075,"urn:WaterMeter:MC0203J22010600005","2024-02-15T15:15:00",15.399,18.215563,0.091],
    [12076,"urn:WaterMeter:MC0203J22010600005","2024-02-15T15:30:00",15.3,18.290428,0.089],
    [12077,"urn:WaterMeter:MC0203J22010600005","2024-02-15T15:45:00",15.199,18.224098,0.089],
    [12078,"urn:WaterMeter:MC0203J22010600005","2024-02-15T16:00:00",15.199,18.279955,0.093],
    [12079,"urn:WaterMeter:MC0203J22010600005","2024-02-15T16:15:00",15.3,18.248884,0.095],
    [12080,"urn:WaterMeter:MC0203J22010600005","2024-02-15T16:30:00",15.199,18.254742,0.09],
    [12081,"urn:WaterMeter:MC0203J22010600005","2024-02-15T16:45:00",15.199,18.277977,0.092],
    [12082,"urn:WaterMeter:MC0203J22010600005","2024-02-15T17:00:00",15.199,18.257418,0.092],
    [12083,"urn:WaterMeter:MC0203J22010600005","2024-02-15T17:15:00",15.1,18.242329,0.096],
    [12084,"urn:WaterMeter:MC0203J22010600005","2024-02-15T17:30:00",15,18.221344,0.097],
    [12085,"urn:WaterMeter:MC0203J22010600005","2024-02-15T17:45:00",15,18.198845,0.088],
    [12086,"urn:WaterMeter:MC0203J22010600005","2024-02-15T18:00:00",14.899,18.251251,0.089],
    [12087,"urn:WaterMeter:MC0203J22010600005","2024-02-15T18:15:00",14.8,18.247372,0.092],
    [12088,"urn:WaterMeter:MC0203J22010600005","2024-02-15T18:30:00",14.699,18.247372,0.094],
    [12089,"urn:WaterMeter:MC0203J22010600005","2024-02-15T18:45:00",14.6,18.201172,0.097],
    [12090,"urn:WaterMeter:MC0203J22010600005","2024-02-15T19:00:00",14.6,18.248884,0.094],
    [12091,"urn:WaterMeter:MC0203J22010600005","2024-02-15T19:15:00",14.5,18.176773,0.093],
    [12092,"urn:WaterMeter:MC0203J22010600005","2024-02-15T19:30:00",14.399,18.158543,0.094],
    [12093,"urn:WaterMeter:MC0203J22010600005","2024-02-15T19:45:00",14.399,18.248148,0.09],
    [12094,"urn:WaterMeter:MC0203J22010600005","2024-02-15T20:00:00",14.3,18.204315,0.089],
    [12095,"urn:WaterMeter:MC0203J22010600005","2024-02-15T20:15:00",14.3,18.22371,0.094],
    [12096,"urn:WaterMeter:MC0203J22010600005","2024-02-15T20:30:00",14.199,18.157766,0.089],
    [12097,"urn:WaterMeter:MC0203J22010600005","2024-02-15T20:45:00",14.1,18.222933,0.095],
    [12098,"urn:WaterMeter:MC0203J22010600005","2024-02-15T21:00:00",14.1,18.24582,0.095],
    [12099,"urn:WaterMeter:MC0203J22010600005","2024-02-15T21:15:00",14,18.190699,0.093],
    [12100,"urn:WaterMeter:MC0203J22010600005","2024-02-15T21:30:00",14,18.207418,0.09],
    [12101,"urn:WaterMeter:MC0203J22010600005","2024-02-15T21:45:00",13.899,18.198109,0.095],
    [12102,"urn:WaterMeter:MC0203J22010600005","2024-02-15T22:00:00",13.8,18.213236,0.092],
    [12103,"urn:WaterMeter:MC0203J22010600005","2024-02-15T22:15:00",13.8,18.206253,0.091],
    [12104,"urn:WaterMeter:MC0203J22010600005","2024-02-15T22:30:00",13.699,18.206642,0.092],
    [12105,"urn:WaterMeter:MC0203J22010600005","2024-02-15T22:45:00",13.699,18.193453,0.093],
    [12106,"urn:WaterMeter:MC0203J22010600005","2024-02-15T23:00:00",13.6,18.177937,0.096],
    [12107,"urn:WaterMeter:MC0203J22010600005","2024-02-15T23:15:00",13.5,18.176773,0.093],
    [12108,"urn:WaterMeter:MC0203J22010600005","2024-02-15T23:30:00",13.399,18.185307,0.094],
    [12109,"urn:WaterMeter:MC0203J22010600005","2024-02-15T23:45:00",13.399,18.225649,0.094],
    [12110,"urn:WaterMeter:MC0203J22010600005","2024-02-16T00:00:00",13.3,18.260134,0.094],
    [12111,"urn:WaterMeter:MC0203J22010600005","2024-02-16T00:15:00",13.199,18.236898,0.095],
    [12112,"urn:WaterMeter:MC0203J22010600005","2024-02-16T00:30:00",13,18.22914,0.095],
    [12113,"urn:WaterMeter:MC0203J22010600005","2024-02-16T00:45:00",12.899,18.219404,0.092],
    [12114,"urn:WaterMeter:MC0203J22010600005","2024-02-16T01:00:00",12.8,18.201561,0.096],
    [12115,"urn:WaterMeter:MC0203J22010600005","2024-02-16T01:15:00",12.6,18.200785,0.094],
    [12116,"urn:WaterMeter:MC0203J22010600005","2024-02-16T01:30:00",12.5,18.264828,0.094],
    [12117,"urn:WaterMeter:MC0203J22010600005","2024-02-16T01:45:00",12.399,18.265215,0.093],
    [12118,"urn:WaterMeter:MC0203J22010600005","2024-02-16T02:00:00",12.399,18.2144,0.097],
    [12119,"urn:WaterMeter:MC0203J22010600005","2024-02-16T02:15:00",12.3,18.181002,0.094],
    [12120,"urn:WaterMeter:MC0203J22010600005","2024-02-16T02:30:00",12.3,18.267931,0.094],
    [12121,"urn:WaterMeter:MC0203J22010600005","2024-02-16T02:45:00",12.199,18.218628,0.095],
    [12122,"urn:WaterMeter:MC0203J22010600005","2024-02-16T03:00:00",12.199,18.220568,0.09],
    [12123,"urn:WaterMeter:MC0203J22010600005","2024-02-16T03:15:00",12.1,18.209356,0.096],
    [12124,"urn:WaterMeter:MC0203J22010600005","2024-02-16T03:30:00",12,18.218628,0.096],
    [12125,"urn:WaterMeter:MC0203J22010600005","2024-02-16T03:45:00",12,18.240738,0.093],
    [12126,"urn:WaterMeter:MC0203J22010600005","2024-02-16T04:00:00",11.899,18.260134,0.098],
    [12127,"urn:WaterMeter:MC0203J22010600005","2024-02-16T04:15:00",11.8,18.28461,0.095],
    [12128,"urn:WaterMeter:MC0203J22010600005","2024-02-16T04:30:00",11.699,18.227201,0.091],
    [12129,"urn:WaterMeter:MC0203J22010600005","2024-02-16T04:45:00",11.699,18.282671,0.095],
    [12130,"urn:WaterMeter:MC0203J22010600005","2024-02-16T05:00:00",11.5,18.229488,0.09],
    [12131,"urn:WaterMeter:MC0203J22010600005","2024-02-16T05:15:00",11.399,18.25703,0.094],
    [12132,"urn:WaterMeter:MC0203J22010600005","2024-02-16T05:30:00",11.3,18.239187,0.092],
    [12133,"urn:WaterMeter:MC0203J22010600005","2024-02-16T05:45:00",11.199,18.267155,0.091],
    [12134,"urn:WaterMeter:MC0203J22010600005","2024-02-16T06:00:00",11.199,18.217115,0.094],
    [12135,"urn:WaterMeter:MC0203J22010600005","2024-02-16T06:15:00",11.199,18.234959,0.095],
    [12136,"urn:WaterMeter:MC0203J22010600005","2024-02-16T06:30:00",11.199,18.247372,0.092],
    [12137,"urn:WaterMeter:MC0203J22010600005","2024-02-16T06:45:00",11.3,18.248148,0.093],
    [12138,"urn:WaterMeter:MC0203J22010600005","2024-02-16T07:00:00",11.3,18.275301,0.092],
    [12139,"urn:WaterMeter:MC0203J22010600005","2024-02-16T07:15:00",11.399,18.247372,0.094],
    [12140,"urn:WaterMeter:MC0203J22010600005","2024-02-16T07:30:00",11.5,18.305557,0.093],
    [12141,"urn:WaterMeter:MC0203J22010600005","2024-02-16T07:45:00",11.6,18.259745,0.089],
    [12142,"urn:WaterMeter:MC0203J22010600005","2024-02-16T08:00:00",11.699,18.234959,0.095],
    [12143,"urn:WaterMeter:MC0203J22010600005","2024-02-16T08:15:00",11.8,18.236898,0.091],
    [12144,"urn:WaterMeter:MC0203J22010600005","2024-02-16T08:30:00",12,18.260948,0.094],
    [12145,"urn:WaterMeter:MC0203J22010600005","2024-02-16T08:45:00",12.199,18.265215,0.092],
    [12146,"urn:WaterMeter:MC0203J22010600005","2024-02-16T09:00:00",12.5,18.270258,0.093],
    [12147,"urn:WaterMeter:MC0203J22010600005","2024-02-16T09:15:00",12.6,18.288837,0.091],
    [12148,"urn:WaterMeter:MC0203J22010600005","2024-02-16T09:30:00",12.699,18.311375,0.091],
    [12149,"urn:WaterMeter:MC0203J22010600005","2024-02-16T09:45:00",12.8,18.269054,0.093],
    [12150,"urn:WaterMeter:MC0203J22010600005","2024-02-16T10:00:00",12.899,18.312538,0.092],
    [12151,"urn:WaterMeter:MC0203J22010600005","2024-02-16T10:15:00",13.1,18.235346,0.091],
    [12152,"urn:WaterMeter:MC0203J22010600005","2024-02-16T10:30:00",13.399,18.263275,0.091],
    [12153,"urn:WaterMeter:MC0203J22010600005","2024-02-16T10:45:00",13.699,18.263275,0.086],
    [12154,"urn:WaterMeter:MC0203J22010600005","2024-02-16T11:00:00",14.1,18.265215,0.09],
    [12155,"urn:WaterMeter:MC0203J22010600005","2024-02-16T11:15:00",14.5,18.272972,0.091],
    [12156,"urn:WaterMeter:MC0203J22010600005","2024-02-16T11:30:00",14.899,18.268667,0.087],
    [12157,"urn:WaterMeter:MC0203J22010600005","2024-02-16T11:45:00",15.1,18.224098,0.093],
    [12158,"urn:WaterMeter:MC0203J22010600005","2024-02-16T12:00:00",15.5,18.255129,0.089],
    [12159,"urn:WaterMeter:MC0203J22010600005","2024-02-16T12:15:00",15.8,18.21246,0.092],
    [12160,"urn:WaterMeter:MC0203J22010600005","2024-02-16T12:30:00",15.899,18.15893,0.088],
    [12161,"urn:WaterMeter:MC0203J22010600005","2024-02-16T12:45:00",16.2,18.217115,0.09],
    [12162,"urn:WaterMeter:MC0203J22010600005","2024-02-16T13:00:00",16.5,18.212849,0.089],
    [12163,"urn:WaterMeter:MC0203J22010600005","2024-02-16T13:15:00",16.799,18.192251,0.096],
    [12164,"urn:WaterMeter:MC0203J22010600005","2024-02-16T13:30:00",17.1,18.136044,0.094],
    [12165,"urn:WaterMeter:MC0203J22010600005","2024-02-16T13:45:00",17.2,18.179451,0.088],
    [12166,"urn:WaterMeter:MC0203J22010600005","2024-02-16T14:00:00",17.2,18.153461,0.087],
    [12167,"urn:WaterMeter:MC0203J22010600005","2024-02-16T14:15:00",17.1,18.08325,0.09],
    [12168,"urn:WaterMeter:MC0203J22010600005","2024-02-16T14:30:00",17,18.100744,0.092],
    [12169,"urn:WaterMeter:MC0203J22010600005","2024-02-16T14:45:00",16.899,18.140272,0.091],
    [12170,"urn:WaterMeter:MC0203J22010600005","2024-02-16T15:00:00",16.899,18.020838,0.093],
    [12171,"urn:WaterMeter:MC0203J22010600005","2024-02-16T15:15:00",16.899,18.091436,0.09],
    [12172,"urn:WaterMeter:MC0203J22010600005","2024-02-16T15:30:00",16.899,18.07747,0.091],
    [12173,"urn:WaterMeter:MC0203J22010600005","2024-02-16T15:45:00",16.899,18.034027,0.092],
    [12174,"urn:WaterMeter:MC0203J22010600005","2024-02-16T16:00:00",16.899,18.03554,0.095],
    [12175,"urn:WaterMeter:MC0203J22010600005","2024-02-16T16:15:00",16.899,18.07433,0.09],
    [12176,"urn:WaterMeter:MC0203J22010600005","2024-02-16T16:30:00",16.799,18.09066,0.092],
    [12177,"urn:WaterMeter:MC0203J22010600005","2024-02-16T16:45:00",16.6,17.992521,0.09],
    [12178,"urn:WaterMeter:MC0203J22010600005","2024-02-16T17:00:00",16.5,17.988214,0.094],
    [12179,"urn:WaterMeter:MC0203J22010600005","2024-02-16T17:15:00",16.399,18.043297,0.09],
    [12180,"urn:WaterMeter:MC0203J22010600005","2024-02-16T17:30:00",16.2,18.039457,0.092],
    [12181,"urn:WaterMeter:MC0203J22010600005","2024-02-16T17:45:00",16.1,17.993685,0.095],
    [12182,"urn:WaterMeter:MC0203J22010600005","2024-02-16T18:00:00",16,18.028595,0.091],
    [12183,"urn:WaterMeter:MC0203J22010600005","2024-02-16T18:15:00",15.899,18.033638,0.092],
    [12184,"urn:WaterMeter:MC0203J22010600005","2024-02-16T18:30:00",15.8,18.001055,0.092],
    [12185,"urn:WaterMeter:MC0203J22010600005","2024-02-16T18:45:00",15.699,18.041397,0.093],
    [12186,"urn:WaterMeter:MC0203J22010600005","2024-02-16T19:00:00",15.6,18.04446,0.092],
    [12187,"urn:WaterMeter:MC0203J22010600005","2024-02-16T19:15:00",15.5,17.974289,0.096],
    [12188,"urn:WaterMeter:MC0203J22010600005","2024-02-16T19:30:00",15.399,18.056486,0.094],
    [12189,"urn:WaterMeter:MC0203J22010600005","2024-02-16T19:45:00",15.199,18.041784,0.089],
    [12190,"urn:WaterMeter:MC0203J22010600005","2024-02-16T20:00:00",15.1,18.023554,0.092],
    [12191,"urn:WaterMeter:MC0203J22010600005","2024-02-16T20:15:00",15,18.030535,0.089],
    [12192,"urn:WaterMeter:MC0203J22010600005","2024-02-16T20:30:00",14.899,18.071264,0.09],
    [12193,"urn:WaterMeter:MC0203J22010600005","2024-02-16T20:45:00",14.8,18.04446,0.095],
    [12194,"urn:WaterMeter:MC0203J22010600005","2024-02-16T21:00:00",14.699,17.986277,0.091],
    [12195,"urn:WaterMeter:MC0203J22010600005","2024-02-16T21:15:00",14.6,17.968044,0.095],
    [12196,"urn:WaterMeter:MC0203J22010600005","2024-02-16T21:30:00",14.6,18.015795,0.09],
    [12197,"urn:WaterMeter:MC0203J22010600005","2024-02-16T21:45:00",14.5,17.969635,0.089],
    [12198,"urn:WaterMeter:MC0203J22010600005","2024-02-16T22:00:00",14.399,18.034027,0.093],
    [12199,"urn:WaterMeter:MC0203J22010600005","2024-02-16T22:15:00",14.3,17.967268,0.088],
    [12200,"urn:WaterMeter:MC0203J22010600005","2024-02-16T22:30:00",14.199,18.016533,0.095],
    [12201,"urn:WaterMeter:MC0203J22010600005","2024-02-16T22:45:00",14.1,18.02782,0.094],
    [12202,"urn:WaterMeter:MC0203J22010600005","2024-02-16T23:00:00",14,17.963428,0.094],
    [12203,"urn:WaterMeter:MC0203J22010600005","2024-02-16T23:15:00",13.8,17.985888,0.097],
    [12204,"urn:WaterMeter:MC0203J22010600005","2024-02-16T23:30:00",13.699,17.996012,0.096],
    [12205,"urn:WaterMeter:MC0203J22010600005","2024-02-16T23:45:00",13.5,18.021225,0.095],
    [12206,"urn:WaterMeter:MC0203J22010600005","2024-02-17T00:00:00",13.399,18.009977,0.095],
    [12207,"urn:WaterMeter:MC0203J22010600005","2024-02-17T00:15:00",13.199,17.973125,0.098],
    [12208,"urn:WaterMeter:MC0203J22010600005","2024-02-17T00:30:00",13,17.999115,0.09],
    [12209,"urn:WaterMeter:MC0203J22010600005","2024-02-17T00:45:00",12.899,17.95951,0.094],
    [12210,"urn:WaterMeter:MC0203J22010600005","2024-02-17T01:00:00",12.699,18.001442,0.095],
    [12211,"urn:WaterMeter:MC0203J22010600005","2024-02-17T01:15:00",12.6,17.967268,0.092],
    [12212,"urn:WaterMeter:MC0203J22010600005","2024-02-17T01:30:00",12.399,17.965368,0.095],
    [12213,"urn:WaterMeter:MC0203J22010600005","2024-02-17T01:45:00",12.3,18.06855,0.089],
    [12214,"urn:WaterMeter:MC0203J22010600005","2024-02-17T02:00:00",12.1,18.000668,0.094],
    [12215,"urn:WaterMeter:MC0203J22010600005","2024-02-17T02:15:00",12,17.985888,0.093],
    [12216,"urn:WaterMeter:MC0203J22010600005","2024-02-17T02:30:00",11.899,17.991358,0.093],
    [12217,"urn:WaterMeter:MC0203J22010600005","2024-02-17T02:45:00",11.8,18.020061,0.094],
    [12218,"urn:WaterMeter:MC0203J22010600005","2024-02-17T03:00:00",11.699,18.045237,0.092],
    [12219,"urn:WaterMeter:MC0203J22010600005","2024-02-17T03:15:00",11.6,18.001055,0.097],
    [12220,"urn:WaterMeter:MC0203J22010600005","2024-02-17T03:30:00",11.5,18.04485,0.094],
    [12221,"urn:WaterMeter:MC0203J22010600005","2024-02-17T03:45:00",11.399,18.02429,0.092],
    [12222,"urn:WaterMeter:MC0203J22010600005","2024-02-17T04:00:00",11.3,18.002995,0.09],
    [12223,"urn:WaterMeter:MC0203J22010600005","2024-02-17T04:15:00",11.199,18.014244,0.087],
    [12224,"urn:WaterMeter:MC0203J22010600005","2024-02-17T04:30:00",11.1,17.982048,0.092],
    [12225,"urn:WaterMeter:MC0203J22010600005","2024-02-17T04:45:00",11,17.995625,0.094],
    [12226,"urn:WaterMeter:MC0203J22010600005","2024-02-17T05:00:00",10.899,18.02429,0.096],
    [12227,"urn:WaterMeter:MC0203J22010600005","2024-02-17T05:15:00",10.8,18.001442,0.091],
    [12228,"urn:WaterMeter:MC0203J22010600005","2024-02-17T05:30:00",10.699,18.046013,0.093],
    [12229,"urn:WaterMeter:MC0203J22010600005","2024-02-17T05:45:00",10.6,18.035927,0.086],
    [12230,"urn:WaterMeter:MC0203J22010600005","2024-02-17T06:00:00",10.5,18.012304,0.093],
    [12231,"urn:WaterMeter:MC0203J22010600005","2024-02-17T06:15:00",10.399,18.032087,0.094],
    [12232,"urn:WaterMeter:MC0203J22010600005","2024-02-17T06:30:00",10.399,17.9964,0.088],
    [12233,"urn:WaterMeter:MC0203J22010600005","2024-02-17T06:45:00",10.3,18.023554,0.093],
    [12234,"urn:WaterMeter:MC0203J22010600005","2024-02-17T07:00:00",10.199,18.068937,0.093],
    [12235,"urn:WaterMeter:MC0203J22010600005","2024-02-17T07:15:00",10.199,18.02429,0.091],
    [12236,"urn:WaterMeter:MC0203J22010600005","2024-02-17T07:30:00",10.1,18.012691,0.095],
    [12237,"urn:WaterMeter:MC0203J22010600005","2024-02-17T07:45:00",10.3,18.023165,0.094],
    [12238,"urn:WaterMeter:MC0203J22010600005","2024-02-17T08:00:00",10.5,18.080963,0.095],
    [12239,"urn:WaterMeter:MC0203J22010600005","2024-02-17T08:15:00",10.699,18.030924,0.087],
    [12240,"urn:WaterMeter:MC0203J22010600005","2024-02-17T08:30:00",10.899,18.012691,0.088],
    [12241,"urn:WaterMeter:MC0203J22010600005","2024-02-17T08:45:00",11.1,18.095703,0.094],
    [12242,"urn:WaterMeter:MC0203J22010600005","2024-02-17T09:00:00",11.399,18.068937,0.091],
    [12243,"urn:WaterMeter:MC0203J22010600005","2024-02-17T09:15:00",11.6,18.012304,0.092],
    [12244,"urn:WaterMeter:MC0203J22010600005","2024-02-17T09:30:00",11.8,18.027006,0.09],
    [12245,"urn:WaterMeter:MC0203J22010600005","2024-02-17T09:45:00",12,17.999115,0.091],
    [12246,"urn:WaterMeter:MC0203J22010600005","2024-02-17T10:00:00",12.3,18.015795,0.092],
    [12247,"urn:WaterMeter:MC0203J22010600005","2024-02-17T10:15:00",12.5,18.04993,0.089],
    [12248,"urn:WaterMeter:MC0203J22010600005","2024-02-17T10:30:00",12.699,18.028984,0.089],
    [12249,"urn:WaterMeter:MC0203J22010600005","2024-02-17T10:45:00",12.899,18.051481,0.089],
    [12250,"urn:WaterMeter:MC0203J22010600005","2024-02-17T11:00:00",13.199,18.031698,0.091],
    [12251,"urn:WaterMeter:MC0203J22010600005","2024-02-17T11:15:00",13.5,17.968044,0.089],
    [12252,"urn:WaterMeter:MC0203J22010600005","2024-02-17T11:30:00",13.899,17.999115,0.088],
    [12253,"urn:WaterMeter:MC0203J22010600005","2024-02-17T11:45:00",14.3,17.984762,0.088],
    [12254,"urn:WaterMeter:MC0203J22010600005","2024-02-17T12:00:00",14.699,18.0464,0.093],
    [12255,"urn:WaterMeter:MC0203J22010600005","2024-02-17T12:15:00",15,18.00377,0.089],
    [12256,"urn:WaterMeter:MC0203J22010600005","2024-02-17T12:30:00",15.3,17.992908,0.093],
    [12257,"urn:WaterMeter:MC0203J22010600005","2024-02-17T12:45:00",15.5,17.970411,0.086],
    [12258,"urn:WaterMeter:MC0203J22010600005","2024-02-17T13:00:00",15.699,17.934725,0.091],
    [12259,"urn:WaterMeter:MC0203J22010600005","2024-02-17T13:15:00",15.8,17.96882,0.087],
    [12260,"urn:WaterMeter:MC0203J22010600005","2024-02-17T13:30:00",15.8,17.922699,0.087],
    [12261,"urn:WaterMeter:MC0203J22010600005","2024-02-17T13:45:00",15.8,17.91145,0.091],
    [12262,"urn:WaterMeter:MC0203J22010600005","2024-02-17T14:00:00",15.899,17.895546,0.084],
    [12263,"urn:WaterMeter:MC0203J22010600005","2024-02-17T14:15:00",15.899,17.895546,0.09],
    [12264,"urn:WaterMeter:MC0203J22010600005","2024-02-17T14:30:00",15.899,17.867617,0.089],
    [12265,"urn:WaterMeter:MC0203J22010600005","2024-02-17T14:45:00",16.1,17.892056,0.09],
    [12266,"urn:WaterMeter:MC0203J22010600005","2024-02-17T15:00:00",16.2,17.931232,0.09],
    [12267,"urn:WaterMeter:MC0203J22010600005","2024-02-17T15:15:00",16.2,17.881931,0.091],
    [12268,"urn:WaterMeter:MC0203J22010600005","2024-02-17T15:30:00",16.1,17.841976,0.088],
    [12269,"urn:WaterMeter:MC0203J22010600005","2024-02-17T15:45:00",16.1,17.838137,0.088],
    [12270,"urn:WaterMeter:MC0203J22010600005","2024-02-17T16:00:00",16.1,17.83775,0.089],
    [12271,"urn:WaterMeter:MC0203J22010600005","2024-02-17T16:15:00",15.899,17.875376,0.089],
    [12272,"urn:WaterMeter:MC0203J22010600005","2024-02-17T16:30:00",15.8,17.8265,0.091],
    [12273,"urn:WaterMeter:MC0203J22010600005","2024-02-17T16:45:00",15.699,17.83387,0.091],
    [12274,"urn:WaterMeter:MC0203J22010600005","2024-02-17T17:00:00",15.6,17.831503,0.092],
    [12275,"urn:WaterMeter:MC0203J22010600005","2024-02-17T17:15:00",15.5,17.80594,0.091],
    [12276,"urn:WaterMeter:MC0203J22010600005","2024-02-17T17:30:00",15.399,17.852062,0.09],
    [12277,"urn:WaterMeter:MC0203J22010600005","2024-02-17T17:45:00",15.3,17.805166,0.088],
    [12278,"urn:WaterMeter:MC0203J22010600005","2024-02-17T18:00:00",15.1,17.803576,0.089],
    [12279,"urn:WaterMeter:MC0203J22010600005","2024-02-17T18:15:00",15,17.804777,0.091],
    [12280,"urn:WaterMeter:MC0203J22010600005","2024-02-17T18:30:00",14.8,17.80245,0.093],
    [12281,"urn:WaterMeter:MC0203J22010600005","2024-02-17T18:45:00",14.6,17.811333,0.089],
    [12282,"urn:WaterMeter:MC0203J22010600005","2024-02-17T19:00:00",14.5,17.842752,0.091],
    [12283,"urn:WaterMeter:MC0203J22010600005","2024-02-17T19:15:00",14.3,17.816803,0.092],
    [12284,"urn:WaterMeter:MC0203J22010600005","2024-02-17T19:30:00",14.1,17.812496,0.093],
    [12285,"urn:WaterMeter:MC0203J22010600005","2024-02-17T19:45:00",13.899,17.771767,0.094],
    [12286,"urn:WaterMeter:MC0203J22010600005","2024-02-17T20:00:00",13.699,17.80594,0.092],
    [12287,"urn:WaterMeter:MC0203J22010600005","2024-02-17T20:15:00",13.5,17.764397,0.093],
    [12288,"urn:WaterMeter:MC0203J22010600005","2024-02-17T20:30:00",13.399,17.799734,0.094],
    [12289,"urn:WaterMeter:MC0203J22010600005","2024-02-17T20:45:00",13.199,17.79508,0.092],
    [12290,"urn:WaterMeter:MC0203J22010600005","2024-02-17T21:00:00",13,17.830729,0.092],
    [12291,"urn:WaterMeter:MC0203J22010600005","2024-02-17T21:15:00",12.899,17.831503,0.092],
    [12292,"urn:WaterMeter:MC0203J22010600005","2024-02-17T21:30:00",12.699,17.783403,0.093],
    [12293,"urn:WaterMeter:MC0203J22010600005","2024-02-17T21:45:00",12.6,17.806717,0.092],
    [12294,"urn:WaterMeter:MC0203J22010600005","2024-02-17T22:00:00",12.5,17.784956,0.092],
    [12295,"urn:WaterMeter:MC0203J22010600005","2024-02-17T22:15:00",12.3,17.774483,0.094],
    [12296,"urn:WaterMeter:MC0203J22010600005","2024-02-17T22:30:00",12.199,17.816414,0.092],
    [12297,"urn:WaterMeter:MC0203J22010600005","2024-02-17T22:45:00",12,17.820293,0.092],
    [12298,"urn:WaterMeter:MC0203J22010600005","2024-02-17T23:00:00",11.899,17.853653,0.092],
    [12299,"urn:WaterMeter:MC0203J22010600005","2024-02-17T23:15:00",11.8,17.770254,0.089],
    [12300,"urn:WaterMeter:MC0203J22010600005","2024-02-17T23:30:00",11.699,17.8393,0.094],
    [12301,"urn:WaterMeter:MC0203J22010600005","2024-02-17T23:45:00",11.5,17.835423,0.093],
    [12302,"urn:WaterMeter:MC0203J22010600005","2024-02-18T00:00:00",11.399,17.76715,0.091],
    [12303,"urn:WaterMeter:MC0203J22010600005","2024-02-18T00:15:00",11.399,17.812885,0.094],
    [12304,"urn:WaterMeter:MC0203J22010600005","2024-02-18T00:30:00",11.3,17.831116,0.092],
    [12305,"urn:WaterMeter:MC0203J22010600005","2024-02-18T00:45:00",11.199,17.831503,0.092],
    [12306,"urn:WaterMeter:MC0203J22010600005","2024-02-18T01:00:00",11.199,17.78189,0.09],
    [12307,"urn:WaterMeter:MC0203J22010600005","2024-02-18T01:15:00",11.1,17.851286,0.091],
    [12308,"urn:WaterMeter:MC0203J22010600005","2024-02-18T01:30:00",11,17.793102,0.093],
    [12309,"urn:WaterMeter:MC0203J22010600005","2024-02-18T01:45:00",10.899,17.811722,0.089],
    [12310,"urn:WaterMeter:MC0203J22010600005","2024-02-18T02:00:00",10.8,17.79896,0.091],
    [12311,"urn:WaterMeter:MC0203J22010600005","2024-02-18T02:15:00",10.699,17.829603,0.091],
    [12312,"urn:WaterMeter:MC0203J22010600005","2024-02-18T02:30:00",10.699,17.838524,0.09],
    [12313,"urn:WaterMeter:MC0203J22010600005","2024-02-18T02:45:00",10.6,17.799734,0.09],
    [12314,"urn:WaterMeter:MC0203J22010600005","2024-02-18T03:00:00",10.6,17.81564,0.091],
    [12315,"urn:WaterMeter:MC0203J22010600005","2024-02-18T03:15:00",10.5,17.85443,0.092],
    [12316,"urn:WaterMeter:MC0203J22010600005","2024-02-18T03:30:00",10.399,17.817577,0.095],
    [12317,"urn:WaterMeter:MC0203J22010600005","2024-02-18T03:45:00",10.3,17.8028,0.092],
    [12318,"urn:WaterMeter:MC0203J22010600005","2024-02-18T04:00:00",10.3,17.835423,0.093],
    [12319,"urn:WaterMeter:MC0203J22010600005","2024-02-18T04:15:00",10.199,17.788097,0.094],
    [12320,"urn:WaterMeter:MC0203J22010600005","2024-02-18T04:30:00",10.199,17.76754,0.092],
    [12321,"urn:WaterMeter:MC0203J22010600005","2024-02-18T04:45:00",10.199,17.79702,0.09],
    [12322,"urn:WaterMeter:MC0203J22010600005","2024-02-18T05:00:00",10.1,17.836973,0.092],
    [12323,"urn:WaterMeter:MC0203J22010600005","2024-02-18T05:15:00",10,17.794653,0.093],
    [12324,"urn:WaterMeter:MC0203J22010600005","2024-02-18T05:30:00",9.899,17.770643,0.093],
    [12325,"urn:WaterMeter:MC0203J22010600005","2024-02-18T05:45:00",9.699,17.848223,0.094],
    [12326,"urn:WaterMeter:MC0203J22010600005","2024-02-18T06:00:00",9.6,17.779951,0.093],
    [12327,"urn:WaterMeter:MC0203J22010600005","2024-02-18T06:15:00",9.5,17.788874,0.091],
    [12328,"urn:WaterMeter:MC0203J22010600005","2024-02-18T06:30:00",9.399,17.827663,0.089],
    [12329,"urn:WaterMeter:MC0203J22010600005","2024-02-18T06:45:00",9.3,17.811722,0.093],
    [12330,"urn:WaterMeter:MC0203J22010600005","2024-02-18T07:00:00",9.199,17.788486,0.095],
    [12331,"urn:WaterMeter:MC0203J22010600005","2024-02-18T07:15:00",9.199,17.810946,0.088],
    [12332,"urn:WaterMeter:MC0203J22010600005","2024-02-18T07:30:00",9.1,17.821846,0.09],
    [12333,"urn:WaterMeter:MC0203J22010600005","2024-02-18T07:45:00",9.1,17.851286,0.094],
    [12334,"urn:WaterMeter:MC0203J22010600005","2024-02-18T08:00:00",9.1,17.83228,0.091],
    [12335,"urn:WaterMeter:MC0203J22010600005","2024-02-18T08:15:00",9.199,17.85443,0.093],
    [12336,"urn:WaterMeter:MC0203J22010600005","2024-02-18T08:30:00",9.3,17.87266,0.091],
    [12337,"urn:WaterMeter:MC0203J22010600005","2024-02-18T08:45:00",9.5,17.868006,0.089],
    [12338,"urn:WaterMeter:MC0203J22010600005","2024-02-18T09:00:00",9.899,17.83775,0.091],
    [12339,"urn:WaterMeter:MC0203J22010600005","2024-02-18T09:15:00",10.3,17.856369,0.09],
    [12340,"urn:WaterMeter:MC0203J22010600005","2024-02-18T09:30:00",10.8,17.876152,0.085],
    [12341,"urn:WaterMeter:MC0203J22010600005","2024-02-18T09:45:00",11.199,17.840076,0.087],
    [12342,"urn:WaterMeter:MC0203J22010600005","2024-02-18T10:00:00",11.6,17.881542,0.087],
    [12343,"urn:WaterMeter:MC0203J22010600005","2024-02-18T10:15:00",11.899,17.826113,0.089],
    [12344,"urn:WaterMeter:MC0203J22010600005","2024-02-18T10:30:00",12.199,17.889301,0.084],
    [12345,"urn:WaterMeter:MC0203J22010600005","2024-02-18T10:45:00",12.5,17.831503,0.09],
    [12346,"urn:WaterMeter:MC0203J22010600005","2024-02-18T11:00:00",12.899,17.824947,0.083],
    [12347,"urn:WaterMeter:MC0203J22010600005","2024-02-18T11:15:00",13.3,17.848999,0.085],
    [12348,"urn:WaterMeter:MC0203J22010600005","2024-02-18T11:30:00",13.8,17.780727,0.086],
    [12349,"urn:WaterMeter:MC0203J22010600005","2024-02-18T11:45:00",14.3,17.825336,0.085],
    [12350,"urn:WaterMeter:MC0203J22010600005","2024-02-18T12:00:00",14.6,17.874987,0.087],
    [12351,"urn:WaterMeter:MC0203J22010600005","2024-02-18T12:15:00",15.1,17.81913,0.088],
    [12352,"urn:WaterMeter:MC0203J22010600005","2024-02-18T12:30:00",15.5,17.829216,0.089],
    [12353,"urn:WaterMeter:MC0203J22010600005","2024-02-18T12:45:00",15.899,17.857143,0.087],
    [12354,"urn:WaterMeter:MC0203J22010600005","2024-02-18T13:00:00",16.1,17.769478,0.085],
    [12355,"urn:WaterMeter:MC0203J22010600005","2024-02-18T13:15:00",16.299,17.749308,0.088],
    [12356,"urn:WaterMeter:MC0203J22010600005","2024-02-18T13:30:00",16.5,17.74892,0.091],
    [12357,"urn:WaterMeter:MC0203J22010600005","2024-02-18T13:45:00",16.7,17.738447,0.085],
    [12358,"urn:WaterMeter:MC0203J22010600005","2024-02-18T14:00:00",16.799,17.784569,0.084],
    [12359,"urn:WaterMeter:MC0203J22010600005","2024-02-18T14:15:00",16.899,17.735304,0.086],
    [12360,"urn:WaterMeter:MC0203J22010600005","2024-02-18T14:30:00",17,17.69345,0.085],
    [12361,"urn:WaterMeter:MC0203J22010600005","2024-02-18T14:45:00",17,17.710518,0.088],
    [12362,"urn:WaterMeter:MC0203J22010600005","2024-02-18T15:00:00",16.899,17.69729,0.094],
    [12363,"urn:WaterMeter:MC0203J22010600005","2024-02-18T15:15:00",17,17.700045,0.087],
    [12364,"urn:WaterMeter:MC0203J22010600005","2024-02-18T15:30:00",17.1,17.723707,0.089],
    [12365,"urn:WaterMeter:MC0203J22010600005","2024-02-18T15:45:00",17,17.631775,0.086],
    [12366,"urn:WaterMeter:MC0203J22010600005","2024-02-18T16:00:00",17,17.644186,0.093],
    [12367,"urn:WaterMeter:MC0203J22010600005","2024-02-18T16:15:00",16.799,17.644962,0.087],
    [12368,"urn:WaterMeter:MC0203J22010600005","2024-02-18T16:30:00",16.7,17.653496,0.088],
    [12369,"urn:WaterMeter:MC0203J22010600005","2024-02-18T16:45:00",16.6,17.592983,0.087],
    [12370,"urn:WaterMeter:MC0203J22010600005","2024-02-18T17:00:00",16.6,17.637165,0.088],
    [12371,"urn:WaterMeter:MC0203J22010600005","2024-02-18T17:15:00",16.399,17.630999,0.086],
    [12372,"urn:WaterMeter:MC0203J22010600005","2024-02-18T17:30:00",16.299,17.629408,0.09],
    [12373,"urn:WaterMeter:MC0203J22010600005","2024-02-18T17:45:00",16.1,17.56971,0.089],
    [12374,"urn:WaterMeter:MC0203J22010600005","2024-02-18T18:00:00",15.8,17.625568,0.09],
    [12375,"urn:WaterMeter:MC0203J22010600005","2024-02-18T18:15:00",15.6,17.60307,0.089],
    [12376,"urn:WaterMeter:MC0203J22010600005","2024-02-18T18:30:00",15.399,17.634878,0.093],
    [12377,"urn:WaterMeter:MC0203J22010600005","2024-02-18T18:45:00",15.3,17.640696,0.088],
    [12378,"urn:WaterMeter:MC0203J22010600005","2024-02-18T19:00:00",15.1,17.602293,0.09],
    [12379,"urn:WaterMeter:MC0203J22010600005","2024-02-18T19:15:00",14.899,17.646902,0.091],
    [12380,"urn:WaterMeter:MC0203J22010600005","2024-02-18T19:30:00",14.699,17.615482,0.088],
    [12381,"urn:WaterMeter:MC0203J22010600005","2024-02-18T19:45:00",14.5,17.622852,0.088],
    [12382,"urn:WaterMeter:MC0203J22010600005","2024-02-18T20:00:00",14.399,17.607725,0.093],
    [12383,"urn:WaterMeter:MC0203J22010600005","2024-02-18T20:15:00",14.199,17.613155,0.09],
    [12384,"urn:WaterMeter:MC0203J22010600005","2024-02-18T20:30:00",14.1,17.555746,0.092],
    [12385,"urn:WaterMeter:MC0203J22010600005","2024-02-18T20:45:00",13.899,17.55497,0.091],
    [12386,"urn:WaterMeter:MC0203J22010600005","2024-02-18T21:00:00",13.8,17.598764,0.094],
    [12387,"urn:WaterMeter:MC0203J22010600005","2024-02-18T21:15:00",13.6,17.618935,0.091],
    [12388,"urn:WaterMeter:MC0203J22010600005","2024-02-18T21:30:00",13.5,17.58639,0.09],
    [12389,"urn:WaterMeter:MC0203J22010600005","2024-02-18T21:45:00",13.3,17.624792,0.092],
    [12390,"urn:WaterMeter:MC0203J22010600005","2024-02-18T22:00:00",13.199,17.580145,0.091],
    [12391,"urn:WaterMeter:MC0203J22010600005","2024-02-18T22:15:00",13,17.56428,0.094],
    [12392,"urn:WaterMeter:MC0203J22010600005","2024-02-18T22:30:00",12.899,17.604233,0.091],
    [12393,"urn:WaterMeter:MC0203J22010600005","2024-02-18T22:45:00",12.699,17.613543,0.091],
    [12394,"urn:WaterMeter:MC0203J22010600005","2024-02-18T23:00:00",12.5,17.551052,0.091],
    [12395,"urn:WaterMeter:MC0203J22010600005","2024-02-18T23:15:00",12.399,17.603456,0.093],
    [12396,"urn:WaterMeter:MC0203J22010600005","2024-02-18T23:30:00",12.3,17.631386,0.095],
    [12397,"urn:WaterMeter:MC0203J22010600005","2024-02-18T23:45:00",12.199,17.560362,0.092],
    [12398,"urn:WaterMeter:MC0203J22010600005","2024-02-19T00:00:00",12,17.599152,0.093],
    [12399,"urn:WaterMeter:MC0203J22010600005","2024-02-19T00:15:00",11.899,17.608112,0.09],
    [12400,"urn:WaterMeter:MC0203J22010600005","2024-02-19T00:30:00",11.8,17.597988,0.092],
    [12401,"urn:WaterMeter:MC0203J22010600005","2024-02-19T00:45:00",11.699,17.572426,0.092],
    [12402,"urn:WaterMeter:MC0203J22010600005","2024-02-19T01:00:00",11.6,17.604233,0.089],
    [12403,"urn:WaterMeter:MC0203J22010600005","2024-02-19T01:15:00",11.399,17.54213,0.095],
    [12404,"urn:WaterMeter:MC0203J22010600005","2024-02-19T01:30:00",11.3,17.606949,0.092],
    [12405,"urn:WaterMeter:MC0203J22010600005","2024-02-19T01:45:00",11.199,17.539803,0.092],
    [12406,"urn:WaterMeter:MC0203J22010600005","2024-02-19T02:00:00",11.1,17.610012,0.092],
    [12407,"urn:WaterMeter:MC0203J22010600005","2024-02-19T02:15:00",10.899,17.61587,0.087],
    [12408,"urn:WaterMeter:MC0203J22010600005","2024-02-19T02:30:00",10.8,17.577469,0.092],
    [12409,"urn:WaterMeter:MC0203J22010600005","2024-02-19T02:45:00",10.699,17.551828,0.09],
    [12410,"urn:WaterMeter:MC0203J22010600005","2024-02-19T03:00:00",10.699,17.568546,0.088],
    [12411,"urn:WaterMeter:MC0203J22010600005","2024-02-19T03:15:00",10.6,17.622852,0.091],
    [12412,"urn:WaterMeter:MC0203J22010600005","2024-02-19T03:30:00",10.5,17.555746,0.09],
    [12413,"urn:WaterMeter:MC0203J22010600005","2024-02-19T03:45:00",10.5,17.594923,0.09],
    [12414,"urn:WaterMeter:MC0203J22010600005","2024-02-19T04:00:00",10.5,17.559198,0.091],
    [12415,"urn:WaterMeter:MC0203J22010600005","2024-02-19T04:15:00",10.5,17.525877,0.092],
    [12416,"urn:WaterMeter:MC0203J22010600005","2024-02-19T04:30:00",10.5,17.599928,0.09],
    [12417,"urn:WaterMeter:MC0203J22010600005","2024-02-19T04:45:00",10.5,17.628632,0.091],
    [12418,"urn:WaterMeter:MC0203J22010600005","2024-02-19T05:00:00",10.5,17.617771,0.092],
    [12419,"urn:WaterMeter:MC0203J22010600005","2024-02-19T05:15:00",10.399,17.629408,0.094],
    [12420,"urn:WaterMeter:MC0203J22010600005","2024-02-19T05:30:00",10.3,17.535187,0.093],
    [12421,"urn:WaterMeter:MC0203J22010600005","2024-02-19T05:45:00",10.3,17.612766,0.091],
    [12422,"urn:WaterMeter:MC0203J22010600005","2024-02-19T06:00:00",10.399,17.616995,0.089],
    [12423,"urn:WaterMeter:MC0203J22010600005","2024-02-19T06:15:00",10.5,17.627506,0.091],
    [12424,"urn:WaterMeter:MC0203J22010600005","2024-02-19T06:30:00",10.6,17.596476,0.092],
    [12425,"urn:WaterMeter:MC0203J22010600005","2024-02-19T06:45:00",10.6,17.589455,0.09],
    [12426,"urn:WaterMeter:MC0203J22010600005","2024-02-19T07:00:00",10.6,17.561525,0.091],
    [12427,"urn:WaterMeter:MC0203J22010600005","2024-02-19T07:15:00",10.5,17.574366,0.09],
    [12428,"urn:WaterMeter:MC0203J22010600005","2024-02-19T07:30:00",10.6,17.583675,0.091],
    [12429,"urn:WaterMeter:MC0203J22010600005","2024-02-19T07:45:00",10.6,17.631386,0.094],
    [12430,"urn:WaterMeter:MC0203J22010600005","2024-02-19T08:00:00",10.8,17.601906,0.086],
    [12431,"urn:WaterMeter:MC0203J22010600005","2024-02-19T08:15:00",11,17.623629,0.088],
    [12432,"urn:WaterMeter:MC0203J22010600005","2024-02-19T08:30:00",11.1,17.61393,0.089],
    [12433,"urn:WaterMeter:MC0203J22010600005","2024-02-19T08:45:00",11.399,17.636002,0.09],
    [12434,"urn:WaterMeter:MC0203J22010600005","2024-02-19T09:00:00",11.699,17.642635,0.092],
    [12435,"urn:WaterMeter:MC0203J22010600005","2024-02-19T09:15:00",12.1,17.600704,0.09],
    [12436,"urn:WaterMeter:MC0203J22010600005","2024-02-19T09:30:00",12.5,17.662806,0.088],
    [12437,"urn:WaterMeter:MC0203J22010600005","2024-02-19T09:45:00",12.8,17.653885,0.088],
    [12438,"urn:WaterMeter:MC0203J22010600005","2024-02-19T10:00:00",13.199,17.636002,0.088],
    [12439,"urn:WaterMeter:MC0203J22010600005","2024-02-19T10:15:00",13.6,17.644186,0.085],
    [12440,"urn:WaterMeter:MC0203J22010600005","2024-02-19T10:30:00",14.1,17.63992,0.087],
    [12441,"urn:WaterMeter:MC0203J22010600005","2024-02-19T10:45:00",14.5,17.609625,0.086],
    [12442,"urn:WaterMeter:MC0203J22010600005","2024-02-19T11:00:00",15.1,17.587166,0.09],
    [12443,"urn:WaterMeter:MC0203J22010600005","2024-02-19T11:15:00",15.699,17.643799,0.087],
    [12444,"urn:WaterMeter:MC0203J22010600005","2024-02-19T11:30:00",16,17.566996,0.083],
    [12445,"urn:WaterMeter:MC0203J22010600005","2024-02-19T11:45:00",16.5,17.581308,0.083],
    [12446,"urn:WaterMeter:MC0203J22010600005","2024-02-19T12:00:00",16.7,17.583675,0.083],
    [12447,"urn:WaterMeter:MC0203J22010600005","2024-02-19T12:15:00",16.7,17.56777,0.09],
    [12448,"urn:WaterMeter:MC0203J22010600005","2024-02-19T12:30:00",16.799,17.56622,0.09],
    [12449,"urn:WaterMeter:MC0203J22010600005","2024-02-19T12:45:00",17,17.574366,0.086],
    [12450,"urn:WaterMeter:MC0203J22010600005","2024-02-19T13:00:00",16.899,17.53127,0.087],
    [12451,"urn:WaterMeter:MC0203J22010600005","2024-02-19T13:15:00",16.799,17.5014,0.085],
    [12452,"urn:WaterMeter:MC0203J22010600005","2024-02-19T13:30:00",16.7,17.546824,0.085],
    [12453,"urn:WaterMeter:MC0203J22010600005","2024-02-19T13:45:00",16.6,17.54411,0.087],
    [12454,"urn:WaterMeter:MC0203J22010600005","2024-02-19T14:00:00",16.5,17.487864,0.087],
    [12455,"urn:WaterMeter:MC0203J22010600005","2024-02-19T14:15:00",16.5,17.461098,0.086],
    [12456,"urn:WaterMeter:MC0203J22010600005","2024-02-19T14:30:00",16.5,17.426147,0.087],
    [12457,"urn:WaterMeter:MC0203J22010600005","2024-02-19T14:45:00",16.7,17.459158,0.087],
    [12458,"urn:WaterMeter:MC0203J22010600005","2024-02-19T15:00:00",16.7,17.44791,0.086],
    [12459,"urn:WaterMeter:MC0203J22010600005","2024-02-19T15:15:00",16.7,17.469244,0.087],
    [12460,"urn:WaterMeter:MC0203J22010600005","2024-02-19T15:30:00",16.7,17.487474,0.085],
    [12461,"urn:WaterMeter:MC0203J22010600005","2024-02-19T15:45:00",16.7,17.43666,0.089],
    [12462,"urn:WaterMeter:MC0203J22010600005","2024-02-19T16:00:00",16.7,17.42421,0.086],
    [12463,"urn:WaterMeter:MC0203J22010600005","2024-02-19T16:15:00",16.6,17.375761,0.089],
    [12464,"urn:WaterMeter:MC0203J22010600005","2024-02-19T16:30:00",16.5,17.460321,0.089],
    [12465,"urn:WaterMeter:MC0203J22010600005","2024-02-19T16:45:00",16.399,17.42192,0.088],
    [12466,"urn:WaterMeter:MC0203J22010600005","2024-02-19T17:00:00",16.299,17.40559,0.088],
    [12467,"urn:WaterMeter:MC0203J22010600005","2024-02-19T17:15:00",16.2,17.385418,0.086],
    [12468,"urn:WaterMeter:MC0203J22010600005","2024-02-19T17:30:00",16,17.355202,0.087],
    [12469,"urn:WaterMeter:MC0203J22010600005","2024-02-19T17:45:00",15.899,17.359468,0.084],
    [12470,"urn:WaterMeter:MC0203J22010600005","2024-02-19T18:00:00",15.699,17.350546,0.091],
    [12471,"urn:WaterMeter:MC0203J22010600005","2024-02-19T18:15:00",15.5,17.326458,0.089],
    [12472,"urn:WaterMeter:MC0203J22010600005","2024-02-19T18:30:00",15.3,17.352098,0.088],
    [12473,"urn:WaterMeter:MC0203J22010600005","2024-02-19T18:45:00",15.1,17.384644,0.09],
    [12474,"urn:WaterMeter:MC0203J22010600005","2024-02-19T19:00:00",14.8,17.354425,0.086],
    [12475,"urn:WaterMeter:MC0203J22010600005","2024-02-19T19:15:00",14.6,17.368778,0.092],
    [12476,"urn:WaterMeter:MC0203J22010600005","2024-02-19T19:30:00",14.399,17.364471,0.091],
    [12477,"urn:WaterMeter:MC0203J22010600005","2024-02-19T19:45:00",14.199,17.352486,0.087],
    [12478,"urn:WaterMeter:MC0203J22010600005","2024-02-19T20:00:00",14,17.371881,0.089],
    [12479,"urn:WaterMeter:MC0203J22010600005","2024-02-19T20:15:00",13.8,17.339685,0.095],
    [12480,"urn:WaterMeter:MC0203J22010600005","2024-02-19T20:30:00",13.699,17.345078,0.091],
    [12481,"urn:WaterMeter:MC0203J22010600005","2024-02-19T20:45:00",13.5,17.337318,0.091],
    [12482,"urn:WaterMeter:MC0203J22010600005","2024-02-19T21:00:00",13.3,17.336582,0.089],
    [12483,"urn:WaterMeter:MC0203J22010600005","2024-02-19T21:15:00",13.199,17.360632,0.094],
    [12484,"urn:WaterMeter:MC0203J22010600005","2024-02-19T21:30:00",13,17.335419,0.092],
    [12485,"urn:WaterMeter:MC0203J22010600005","2024-02-19T21:45:00",12.899,17.342789,0.091],
    [12486,"urn:WaterMeter:MC0203J22010600005","2024-02-19T22:00:00",12.699,17.360245,0.09],
    [12487,"urn:WaterMeter:MC0203J22010600005","2024-02-19T22:15:00",12.5,17.29624,0.087],
    [12488,"urn:WaterMeter:MC0203J22010600005","2024-02-19T22:30:00",12.399,17.30361,0.089],
    [12489,"urn:WaterMeter:MC0203J22010600005","2024-02-19T22:45:00",12.199,17.325333,0.089],
    [12490,"urn:WaterMeter:MC0203J22010600005","2024-02-19T23:00:00",12.1,17.374596,0.085],
    [12491,"urn:WaterMeter:MC0203J22010600005","2024-02-19T23:15:00",12,17.380028,0.095],
    [12492,"urn:WaterMeter:MC0203J22010600005","2024-02-19T23:30:00",11.899,17.293137,0.09],
    [12493,"urn:WaterMeter:MC0203J22010600005","2024-02-19T23:45:00",11.8,17.27413,0.09],
    [12494,"urn:WaterMeter:MC0203J22010600005","2024-02-20T00:00:00",11.6,17.35365,0.09],
    [12495,"urn:WaterMeter:MC0203J22010600005","2024-02-20T00:15:00",11.5,17.338095,0.092],
    [12496,"urn:WaterMeter:MC0203J22010600005","2024-02-20T00:30:00",11.399,17.308615,0.091],
    [12497,"urn:WaterMeter:MC0203J22010600005","2024-02-20T00:45:00",11.3,17.346628,0.089],
    [12498,"urn:WaterMeter:MC0203J22010600005","2024-02-20T01:00:00",11.1,17.373821,0.092],
    [12499,"urn:WaterMeter:MC0203J22010600005","2024-02-20T01:15:00",11.1,17.358692,0.091],
    [12500,"urn:WaterMeter:MC0203J22010600005","2024-02-20T01:30:00",11,17.27991,0.09],
    [12501,"urn:WaterMeter:MC0203J22010600005","2024-02-20T01:45:00",10.899,17.321842,0.088],
    [12502,"urn:WaterMeter:MC0203J22010600005","2024-02-20T02:00:00",10.8,17.341236,0.091],
    [12503,"urn:WaterMeter:MC0203J22010600005","2024-02-20T02:15:00",10.699,17.367575,0.089],
    [12504,"urn:WaterMeter:MC0203J22010600005","2024-02-20T02:30:00",10.699,17.376884,0.09],
    [12505,"urn:WaterMeter:MC0203J22010600005","2024-02-20T02:45:00",10.699,17.33697,0.087],
    [12506,"urn:WaterMeter:MC0203J22010600005","2024-02-20T03:00:00",10.6,17.350159,0.091],
    [12507,"urn:WaterMeter:MC0203J22010600005","2024-02-20T03:15:00",10.5,17.378475,0.092],
    [12508,"urn:WaterMeter:MC0203J22010600005","2024-02-20T03:30:00",10.399,17.346241,0.09],
    [12509,"urn:WaterMeter:MC0203J22010600005","2024-02-20T03:45:00",10.399,17.309778,0.086],
    [12510,"urn:WaterMeter:MC0203J22010600005","2024-02-20T04:00:00",10.3,17.333866,0.089],
    [12511,"urn:WaterMeter:MC0203J22010600005","2024-02-20T04:15:00",10.3,17.321066,0.089],
    [12512,"urn:WaterMeter:MC0203J22010600005","2024-02-20T04:30:00",10.199,17.314472,0.091],
    [12513,"urn:WaterMeter:MC0203J22010600005","2024-02-20T04:45:00",10.1,17.345854,0.087],
    [12514,"urn:WaterMeter:MC0203J22010600005","2024-02-20T05:00:00",10,17.360632,0.089],
    [12515,"urn:WaterMeter:MC0203J22010600005","2024-02-20T05:15:00",10,17.367575,0.087],
    [12516,"urn:WaterMeter:MC0203J22010600005","2024-02-20T05:30:00",10,17.395155,0.091],
    [12517,"urn:WaterMeter:MC0203J22010600005","2024-02-20T05:45:00",10,17.32801,0.088],
    [12518,"urn:WaterMeter:MC0203J22010600005","2024-02-20T06:00:00",10,17.356714,0.088],
    [12519,"urn:WaterMeter:MC0203J22010600005","2024-02-20T06:15:00",9.899,17.326458,0.087],
    [12520,"urn:WaterMeter:MC0203J22010600005","2024-02-20T06:30:00",9.899,17.320679,0.089],
    [12521,"urn:WaterMeter:MC0203J22010600005","2024-02-20T06:45:00",9.899,17.376884,0.089],
    [12522,"urn:WaterMeter:MC0203J22010600005","2024-02-20T07:00:00",10,17.302446,0.087],
    [12523,"urn:WaterMeter:MC0203J22010600005","2024-02-20T07:15:00",10,17.326458,0.081],
    [12524,"urn:WaterMeter:MC0203J22010600005","2024-02-20T07:30:00",10,17.314472,0.087],
    [12525,"urn:WaterMeter:MC0203J22010600005","2024-02-20T07:45:00",10.1,17.363348,0.088],
    [12526,"urn:WaterMeter:MC0203J22010600005","2024-02-20T08:00:00",10.199,17.381191,0.087],
    [12527,"urn:WaterMeter:MC0203J22010600005","2024-02-20T08:15:00",10.3,17.364122,0.089],
    [12528,"urn:WaterMeter:MC0203J22010600005","2024-02-20T08:30:00",10.399,17.412611,0.086],
    [12529,"urn:WaterMeter:MC0203J22010600005","2024-02-20T08:45:00",10.5,17.386583,0.089],
    [12530,"urn:WaterMeter:MC0203J22010600005","2024-02-20T09:00:00",10.8,17.400585,0.088],
    [12531,"urn:WaterMeter:MC0203J22010600005","2024-02-20T09:15:00",11.3,17.43507,0.091],
    [12532,"urn:WaterMeter:MC0203J22010600005","2024-02-20T09:30:00",11.699,17.380802,0.082],
    [12533,"urn:WaterMeter:MC0203J22010600005","2024-02-20T09:45:00",12.3,17.38697,0.084],
    [12534,"urn:WaterMeter:MC0203J22010600005","2024-02-20T10:00:00",12.8,17.410671,0.083],
    [12535,"urn:WaterMeter:MC0203J22010600005","2024-02-20T10:15:00",13.3,17.367575,0.088],
    [12536,"urn:WaterMeter:MC0203J22010600005","2024-02-20T10:30:00",13.8,17.38503,0.09],
    [12537,"urn:WaterMeter:MC0203J22010600005","2024-02-20T10:45:00",14.3,17.452177,0.086],
    [12538,"urn:WaterMeter:MC0203J22010600005","2024-02-20T11:00:00",14.8,17.385807,0.085],
    [12539,"urn:WaterMeter:MC0203J22010600005","2024-02-20T11:15:00",15.1,17.352875,0.085],
    [12540,"urn:WaterMeter:MC0203J22010600005","2024-02-20T11:30:00",15.6,17.425373,0.088],
    [12541,"urn:WaterMeter:MC0203J22010600005","2024-02-20T11:45:00",16,17.344728,0.084],
    [12542,"urn:WaterMeter:MC0203J22010600005","2024-02-20T12:00:00",16.299,17.419981,0.086],
    [12543,"urn:WaterMeter:MC0203J22010600005","2024-02-20T12:15:00",16.6,17.415287,0.085],
    [12544,"urn:WaterMeter:MC0203J22010600005","2024-02-20T12:30:00",16.899,17.3668,0.083],
    [12545,"urn:WaterMeter:MC0203J22010600005","2024-02-20T12:45:00",17.1,17.347404,0.086],
    [12546,"urn:WaterMeter:MC0203J22010600005","2024-02-20T13:00:00",17.2,17.382355,0.086],
    [12547,"urn:WaterMeter:MC0203J22010600005","2024-02-20T13:15:00",17.399,17.350935,0.084],
    [12548,"urn:WaterMeter:MC0203J22010600005","2024-02-20T13:30:00",17.6,17.362572,0.089],
    [12549,"urn:WaterMeter:MC0203J22010600005","2024-02-20T13:45:00",17.899,17.324556,0.082],
    [12550,"urn:WaterMeter:MC0203J22010600005","2024-02-20T14:00:00",18,17.290382,0.086],
    [12551,"urn:WaterMeter:MC0203J22010600005","2024-02-20T14:15:00",18,17.274519,0.094],
    [12552,"urn:WaterMeter:MC0203J22010600005","2024-02-20T14:30:00",18.1,17.292362,0.083],
    [12553,"urn:WaterMeter:MC0203J22010600005","2024-02-20T14:45:00",18.2,17.235727,0.085],
    [12554,"urn:WaterMeter:MC0203J22010600005","2024-02-20T15:00:00",18.2,17.20233,0.083],
    [12555,"urn:WaterMeter:MC0203J22010600005","2024-02-20T15:15:00",18.2,17.222502,0.086],
    [12556,"urn:WaterMeter:MC0203J22010600005","2024-02-20T15:30:00",18.2,17.240732,0.087],
    [12557,"urn:WaterMeter:MC0203J22010600005","2024-02-20T15:45:00",18.2,17.222113,0.083],
    [12558,"urn:WaterMeter:MC0203J22010600005","2024-02-20T16:00:00",18.1,17.215557,0.085],
    [12559,"urn:WaterMeter:MC0203J22010600005","2024-02-20T16:15:00",18.1,17.19108,0.084],
    [12560,"urn:WaterMeter:MC0203J22010600005","2024-02-20T16:30:00",18,17.20004,0.082],
    [12561,"urn:WaterMeter:MC0203J22010600005","2024-02-20T16:45:00",17.899,17.155434,0.085],
    [12562,"urn:WaterMeter:MC0203J22010600005","2024-02-20T17:00:00",17.899,17.170523,0.083],
    [12563,"urn:WaterMeter:MC0203J22010600005","2024-02-20T17:15:00",17.799,17.19655,0.085],
    [12564,"urn:WaterMeter:MC0203J22010600005","2024-02-20T17:30:00",17.6,17.15462,0.086],
    [12565,"urn:WaterMeter:MC0203J22010600005","2024-02-20T17:45:00",17.299,17.092205,0.085],
    [12566,"urn:WaterMeter:MC0203J22010600005","2024-02-20T18:00:00",17,17.137201,0.084],
    [12567,"urn:WaterMeter:MC0203J22010600005","2024-02-20T18:15:00",16.7,17.108109,0.089],
    [12568,"urn:WaterMeter:MC0203J22010600005","2024-02-20T18:30:00",16.5,17.063112,0.092],
    [12569,"urn:WaterMeter:MC0203J22010600005","2024-02-20T18:45:00",16.2,17.061562,0.091],
    [12570,"urn:WaterMeter:MC0203J22010600005","2024-02-20T19:00:00",16,17.098799,0.086],
    [12571,"urn:WaterMeter:MC0203J22010600005","2024-02-20T19:15:00",15.699,17.108109,0.087],
    [12572,"urn:WaterMeter:MC0203J22010600005","2024-02-20T19:30:00",15.5,17.129444,0.087],
    [12573,"urn:WaterMeter:MC0203J22010600005","2024-02-20T19:45:00",15.3,17.12634,0.091],
    [12574,"urn:WaterMeter:MC0203J22010600005","2024-02-20T20:00:00",15.1,17.080181,0.09],
    [12575,"urn:WaterMeter:MC0203J22010600005","2024-02-20T20:15:00",14.899,17.138754,0.088],
    [12576,"urn:WaterMeter:MC0203J22010600005","2024-02-20T20:30:00",14.699,17.068155,0.088],
    [12577,"urn:WaterMeter:MC0203J22010600005","2024-02-20T20:45:00",14.5,17.063501,0.09],
    [12578,"urn:WaterMeter:MC0203J22010600005","2024-02-20T21:00:00",14.3,17.026999,0.089],
    [12579,"urn:WaterMeter:MC0203J22010600005","2024-02-20T21:15:00",14.199,17.082508,0.089],
    [12580,"urn:WaterMeter:MC0203J22010600005","2024-02-20T21:30:00",14,17.086737,0.092],
    [12581,"urn:WaterMeter:MC0203J22010600005","2024-02-20T21:45:00",13.8,17.034409,0.092],
    [12582,"urn:WaterMeter:MC0203J22010600005","2024-02-20T22:00:00",13.699,17.027775,0.082],
    [12583,"urn:WaterMeter:MC0203J22010600005","2024-02-20T22:15:00",13.5,17.063501,0.094],
    [12584,"urn:WaterMeter:MC0203J22010600005","2024-02-20T22:30:00",13.399,17.029753,0.086],
    [12585,"urn:WaterMeter:MC0203J22010600005","2024-02-20T22:45:00",13.199,17.075487,0.088],
    [12586,"urn:WaterMeter:MC0203J22010600005","2024-02-20T23:00:00",13.1,17.039839,0.084],
    [12587,"urn:WaterMeter:MC0203J22010600005","2024-02-20T23:15:00",12.899,17.030142,0.089],
    [12588,"urn:WaterMeter:MC0203J22010600005","2024-02-20T23:30:00",12.8,17.046782,0.089],
    [12589,"urn:WaterMeter:MC0203J22010600005","2024-02-20T23:45:00",12.699,17.076263,0.086],
    [12590,"urn:WaterMeter:MC0203J22010600005","2024-02-21T00:00:00",12.5,17.03402,0.086],
    [12591,"urn:WaterMeter:MC0203J22010600005","2024-02-21T00:15:00",12.399,17.054152,0.088],
    [12592,"urn:WaterMeter:MC0203J22010600005","2024-02-21T00:30:00",12.3,17.117418,0.09],
    [12593,"urn:WaterMeter:MC0203J22010600005","2024-02-21T00:45:00",12.1,17.108885,0.09],
    [12594,"urn:WaterMeter:MC0203J22010600005","2024-02-21T01:00:00",12,17.084835,0.085],
    [12595,"urn:WaterMeter:MC0203J22010600005","2024-02-21T01:15:00",11.899,17.083672,0.088],
    [12596,"urn:WaterMeter:MC0203J22010600005","2024-02-21T01:30:00",11.8,17.02471,0.086],
    [12597,"urn:WaterMeter:MC0203J22010600005","2024-02-21T01:45:00",11.6,17.094107,0.087],
    [12598,"urn:WaterMeter:MC0203J22010600005","2024-02-21T02:00:00",11.5,17.016138,0.087],
    [12599,"urn:WaterMeter:MC0203J22010600005","2024-02-21T02:15:00",11.3,17.057644,0.089],
    [12600,"urn:WaterMeter:MC0203J22010600005","2024-02-21T02:30:00",11.199,17.031693,0.092],
    [12601,"urn:WaterMeter:MC0203J22010600005","2024-02-21T02:45:00",11.1,17.099575,0.089],
    [12602,"urn:WaterMeter:MC0203J22010600005","2024-02-21T03:00:00",11,17.031693,0.09],
    [12603,"urn:WaterMeter:MC0203J22010600005","2024-02-21T03:15:00",10.899,17.043718,0.09],
    [12604,"urn:WaterMeter:MC0203J22010600005","2024-02-21T03:30:00",10.699,17.086737,0.088],
    [12605,"urn:WaterMeter:MC0203J22010600005","2024-02-21T03:45:00",10.6,17.108498,0.088],
    [12606,"urn:WaterMeter:MC0203J22010600005","2024-02-21T04:00:00",10.6,17.042942,0.087],
    [12607,"urn:WaterMeter:MC0203J22010600005","2024-02-21T04:15:00",10.5,17.082508,0.092],
    [12608,"urn:WaterMeter:MC0203J22010600005","2024-02-21T04:30:00",10.5,17.092592,0.091],
    [12609,"urn:WaterMeter:MC0203J22010600005","2024-02-21T04:45:00",10.5,17.040226,0.087],
    [12610,"urn:WaterMeter:MC0203J22010600005","2024-02-21T05:00:00",10.5,17.049536,0.092],
    [12611,"urn:WaterMeter:MC0203J22010600005","2024-02-21T05:15:00",10.5,17.068155,0.088],
    [12612,"urn:WaterMeter:MC0203J22010600005","2024-02-21T05:30:00",10.5,17.053802,0.088],
    [12613,"urn:WaterMeter:MC0203J22010600005","2024-02-21T05:45:00",10.5,17.016138,0.086],
    [12614,"urn:WaterMeter:MC0203J22010600005","2024-02-21T06:00:00",10.399,17.094494,0.088],
    [12615,"urn:WaterMeter:MC0203J22010600005","2024-02-21T06:15:00",10.399,17.086737,0.089],
    [12616,"urn:WaterMeter:MC0203J22010600005","2024-02-21T06:30:00",10.399,17.097248,0.088],
    [12617,"urn:WaterMeter:MC0203J22010600005","2024-02-21T06:45:00",10.3,17.108885,0.087],
    [12618,"urn:WaterMeter:MC0203J22010600005","2024-02-21T07:00:00",10.199,17.103065,0.092],
    [12619,"urn:WaterMeter:MC0203J22010600005","2024-02-21T07:15:00",10.199,17.127504,0.085],
    [12620,"urn:WaterMeter:MC0203J22010600005","2024-02-21T07:30:00",10.199,17.097635,0.084],
    [12621,"urn:WaterMeter:MC0203J22010600005","2024-02-21T07:45:00",10.199,17.12091,0.089],
    [12622,"urn:WaterMeter:MC0203J22010600005","2024-02-21T08:00:00",10.199,17.144533,0.086],
    [12623,"urn:WaterMeter:MC0203J22010600005","2024-02-21T08:15:00",10.199,17.098024,0.092],
    [12624,"urn:WaterMeter:MC0203J22010600005","2024-02-21T08:30:00",10.3,17.136814,0.087],
    [12625,"urn:WaterMeter:MC0203J22010600005","2024-02-21T08:45:00",10.5,17.08596,0.089],
    [12626,"urn:WaterMeter:MC0203J22010600005","2024-02-21T09:00:00",10.699,17.100351,0.083],
    [12627,"urn:WaterMeter:MC0203J22010600005","2024-02-21T09:15:00",10.899,17.073198,0.089],
    [12628,"urn:WaterMeter:MC0203J22010600005","2024-02-21T09:30:00",11.1,17.150002,0.088],
    [12629,"urn:WaterMeter:MC0203J22010600005","2024-02-21T09:45:00",11.3,17.100351,0.085],
    [12630,"urn:WaterMeter:MC0203J22010600005","2024-02-21T10:00:00",11.5,17.13565,0.082],
    [12631,"urn:WaterMeter:MC0203J22010600005","2024-02-21T10:15:00",11.8,17.10423,0.083],
    [12632,"urn:WaterMeter:MC0203J22010600005","2024-02-21T10:30:00",12,17.140305,0.087],
    [12633,"urn:WaterMeter:MC0203J22010600005","2024-02-21T10:45:00",12.399,17.132896,0.087],
    [12634,"urn:WaterMeter:MC0203J22010600005","2024-02-21T11:00:00",12.699,17.093718,0.088],
    [12635,"urn:WaterMeter:MC0203J22010600005","2024-02-21T11:15:00",13.199,17.120522,0.084],
    [12636,"urn:WaterMeter:MC0203J22010600005","2024-02-21T11:30:00",13.699,17.12475,0.085],
    [12637,"urn:WaterMeter:MC0203J22010600005","2024-02-21T11:45:00",14.199,17.151127,0.081],
    [12638,"urn:WaterMeter:MC0203J22010600005","2024-02-21T12:00:00",14.6,17.145735,0.081],
    [12639,"urn:WaterMeter:MC0203J22010600005","2024-02-21T12:15:00",15.1,17.14302,0.085],
    [12640,"urn:WaterMeter:MC0203J22010600005","2024-02-21T12:30:00",15.5,17.175217,0.089],
    [12641,"urn:WaterMeter:MC0203J22010600005","2024-02-21T12:45:00",15.8,17.140305,0.083],
    [12642,"urn:WaterMeter:MC0203J22010600005","2024-02-21T13:00:00",16.299,17.16707,0.084],
    [12643,"urn:WaterMeter:MC0203J22010600005","2024-02-21T13:15:00",16.5,17.17444,0.08],
    [12644,"urn:WaterMeter:MC0203J22010600005","2024-02-21T13:30:00",16.799,17.168234,0.08],
    [12645,"urn:WaterMeter:MC0203J22010600005","2024-02-21T13:45:00",17,17.140692,0.082],
    [12646,"urn:WaterMeter:MC0203J22010600005","2024-02-21T14:00:00",17.2,17.085571,0.085],
    [12647,"urn:WaterMeter:MC0203J22010600005","2024-02-21T14:15:00",17.5,17.112337,0.084],
    [12648,"urn:WaterMeter:MC0203J22010600005","2024-02-21T14:30:00",17.5,17.110437,0.082],
    [12649,"urn:WaterMeter:MC0203J22010600005","2024-02-21T14:45:00",17.7,17.101128,0.084],
    [12650,"urn:WaterMeter:MC0203J22010600005","2024-02-21T15:00:00",17.899,17.01928,0.083],
    [12651,"urn:WaterMeter:MC0203J22010600005","2024-02-21T15:15:00",17.899,17.029366,0.082],
    [12652,"urn:WaterMeter:MC0203J22010600005","2024-02-21T15:30:00",18,17.032082,0.083],
    [12653,"urn:WaterMeter:MC0203J22010600005","2024-02-21T15:45:00",18,17.077852,0.082],
    [12654,"urn:WaterMeter:MC0203J22010600005","2024-02-21T16:00:00",18,16.989761,0.085],
    [12655,"urn:WaterMeter:MC0203J22010600005","2024-02-21T16:15:00",17.899,17.016914,0.085],
    [12656,"urn:WaterMeter:MC0203J22010600005","2024-02-21T16:30:00",17.799,17.021996,0.086],
    [12657,"urn:WaterMeter:MC0203J22010600005","2024-02-21T16:45:00",17.7,16.955664,0.087],
    [12658,"urn:WaterMeter:MC0203J22010600005","2024-02-21T17:00:00",17.6,16.958342,0.089],
    [12659,"urn:WaterMeter:MC0203J22010600005","2024-02-21T17:15:00",17.399,17.006092,0.083],
    [12660,"urn:WaterMeter:MC0203J22010600005","2024-02-21T17:30:00",17.2,16.933167,0.087],
    [12661,"urn:WaterMeter:MC0203J22010600005","2024-02-21T17:45:00",17,16.904074,0.085],
    [12662,"urn:WaterMeter:MC0203J22010600005","2024-02-21T18:00:00",16.799,16.959505,0.088],
    [12663,"urn:WaterMeter:MC0203J22010600005","2024-02-21T18:15:00",16.7,16.930412,0.086],
    [12664,"urn:WaterMeter:MC0203J22010600005","2024-02-21T18:30:00",16.5,16.909117,0.086],
    [12665,"urn:WaterMeter:MC0203J22010600005","2024-02-21T18:45:00",16.399,16.966526,0.087],
    [12666,"urn:WaterMeter:MC0203J22010600005","2024-02-21T19:00:00",16.299,16.906013,0.082],
    [12667,"urn:WaterMeter:MC0203J22010600005","2024-02-21T19:15:00",16.2,16.900932,0.084],
    [12668,"urn:WaterMeter:MC0203J22010600005","2024-02-21T19:30:00",16,16.89709,0.082],
    [12669,"urn:WaterMeter:MC0203J22010600005","2024-02-21T19:45:00",15.899,16.921879,0.084],
    [12670,"urn:WaterMeter:MC0203J22010600005","2024-02-21T20:00:00",15.8,16.937046,0.09],
    [12671,"urn:WaterMeter:MC0203J22010600005","2024-02-21T20:15:00",15.699,16.91028,0.085],
    [12672,"urn:WaterMeter:MC0203J22010600005","2024-02-21T20:30:00",15.6,16.88309,0.089],
    [12673,"urn:WaterMeter:MC0203J22010600005","2024-02-21T20:45:00",15.399,16.909893,0.088],
    [12674,"urn:WaterMeter:MC0203J22010600005","2024-02-21T21:00:00",15.3,16.917263,0.086],
    [12675,"urn:WaterMeter:MC0203J22010600005","2024-02-21T21:15:00",15.199,16.918386,0.087],
    [12676,"urn:WaterMeter:MC0203J22010600005","2024-02-21T21:30:00",15,16.932777,0.085],
    [12677,"urn:WaterMeter:MC0203J22010600005","2024-02-21T21:45:00",14.899,16.942087,0.089],
    [12678,"urn:WaterMeter:MC0203J22010600005","2024-02-21T22:00:00",14.8,16.914547,0.084],
    [12679,"urn:WaterMeter:MC0203J22010600005","2024-02-21T22:15:00",14.8,16.900543,0.088],
    [12680,"urn:WaterMeter:MC0203J22010600005","2024-02-21T22:30:00",14.699,16.9308,0.088],
    [12681,"urn:WaterMeter:MC0203J22010600005","2024-02-21T22:45:00",14.6,16.867224,0.087],
    [12682,"urn:WaterMeter:MC0203J22010600005","2024-02-21T23:00:00",14.5,16.853996,0.089],
    [12683,"urn:WaterMeter:MC0203J22010600005","2024-02-21T23:15:00",14.399,16.94752,0.088],
    [12684,"urn:WaterMeter:MC0203J22010600005","2024-02-21T23:30:00",14.3,16.905624,0.09],
    [12685,"urn:WaterMeter:MC0203J22010600005","2024-02-21T23:45:00",14.199,16.843134,0.089],
    [12686,"urn:WaterMeter:MC0203J22010600005","2024-02-22T00:00:00",14.1,16.853607,0.086],
    [12687,"urn:WaterMeter:MC0203J22010600005","2024-02-22T00:15:00",14,16.93627,0.084],
    [12688,"urn:WaterMeter:MC0203J22010600005","2024-02-22T00:30:00",13.899,16.901707,0.085],
    [12689,"urn:WaterMeter:MC0203J22010600005","2024-02-22T00:45:00",13.8,16.90446,0.087],
    [12690,"urn:WaterMeter:MC0203J22010600005","2024-02-22T01:00:00",13.699,16.898254,0.085],
    [12691,"urn:WaterMeter:MC0203J22010600005","2024-02-22T01:15:00",13.699,16.90446,0.088],
    [12692,"urn:WaterMeter:MC0203J22010600005","2024-02-22T01:30:00",13.6,16.903297,0.086],
    [12693,"urn:WaterMeter:MC0203J22010600005","2024-02-22T01:45:00",13.6,16.915323,0.085],
    [12694,"urn:WaterMeter:MC0203J22010600005","2024-02-22T02:00:00",13.5,16.881536,0.086],
    [12695,"urn:WaterMeter:MC0203J22010600005","2024-02-22T02:15:00",13.399,16.893988,0.088],
    [12696,"urn:WaterMeter:MC0203J22010600005","2024-02-22T02:30:00",13.3,16.922304,0.088],
    [12697,"urn:WaterMeter:MC0203J22010600005","2024-02-22T02:45:00",13.199,16.835415,0.087],
    [12698,"urn:WaterMeter:MC0203J22010600005","2024-02-22T03:00:00",13,16.871101,0.088],
    [12699,"urn:WaterMeter:MC0203J22010600005","2024-02-22T03:15:00",12.899,16.867998,0.087],
    [12700,"urn:WaterMeter:MC0203J22010600005","2024-02-22T03:30:00",12.8,16.912996,0.085],
    [12701,"urn:WaterMeter:MC0203J22010600005","2024-02-22T03:45:00",12.699,16.86606,0.091],
    [12702,"urn:WaterMeter:MC0203J22010600005","2024-02-22T04:00:00",12.6,16.922693,0.088],
    [12703,"urn:WaterMeter:MC0203J22010600005","2024-02-22T04:15:00",12.6,16.88972,0.085],
    [12704,"urn:WaterMeter:MC0203J22010600005","2024-02-22T04:30:00",12.5,16.869164,0.089],
    [12705,"urn:WaterMeter:MC0203J22010600005","2024-02-22T04:45:00",12.5,16.93817,0.084],
    [12706,"urn:WaterMeter:MC0203J22010600005","2024-02-22T05:00:00",12.399,16.877308,0.092],
    [12707,"urn:WaterMeter:MC0203J22010600005","2024-02-22T05:15:00",12.399,16.824903,0.084],
    [12708,"urn:WaterMeter:MC0203J22010600005","2024-02-22T05:30:00",12.3,16.9161,0.089],
    [12709,"urn:WaterMeter:MC0203J22010600005","2024-02-22T05:45:00",12.199,16.865671,0.087],
    [12710,"urn:WaterMeter:MC0203J22010600005","2024-02-22T06:00:00",12.1,16.944416,0.09],
    [12711,"urn:WaterMeter:MC0203J22010600005","2024-02-22T06:15:00",12,16.865284,0.084],
    [12712,"urn:WaterMeter:MC0203J22010600005","2024-02-22T06:30:00",11.899,16.87339,0.09],
    [12713,"urn:WaterMeter:MC0203J22010600005","2024-02-22T06:45:00",11.8,16.91416,0.088],
    [12714,"urn:WaterMeter:MC0203J22010600005","2024-02-22T07:00:00",11.8,16.92502,0.087],
    [12715,"urn:WaterMeter:MC0203J22010600005","2024-02-22T07:15:00",11.699,16.87886,0.087],
    [12716,"urn:WaterMeter:MC0203J22010600005","2024-02-22T07:30:00",11.699,16.872616,0.085],
    [12717,"urn:WaterMeter:MC0203J22010600005","2024-02-22T07:45:00",11.699,16.886618,0.089],
    [12718,"urn:WaterMeter:MC0203J22010600005","2024-02-22T08:00:00",11.699,16.88817,0.091],
    [12719,"urn:WaterMeter:MC0203J22010600005","2024-02-22T08:15:00",11.699,16.881536,0.087],
    [12720,"urn:WaterMeter:MC0203J22010600005","2024-02-22T08:30:00",11.8,16.904074,0.086],
    [12721,"urn:WaterMeter:MC0203J22010600005","2024-02-22T08:45:00",12,16.8827,0.086],
    [12722,"urn:WaterMeter:MC0203J22010600005","2024-02-22T09:00:00",12.3,16.981653,0.085],
    [12723,"urn:WaterMeter:MC0203J22010600005","2024-02-22T09:15:00",12.699,16.92308,0.086],
    [12724,"urn:WaterMeter:MC0203J22010600005","2024-02-22T09:30:00",13.199,16.948683,0.084],
    [12725,"urn:WaterMeter:MC0203J22010600005","2024-02-22T09:45:00",13.5,16.893213,0.084],
    [12726,"urn:WaterMeter:MC0203J22010600005","2024-02-22T10:00:00",13.899,16.964586,0.087],
    [12727,"urn:WaterMeter:MC0203J22010600005","2024-02-22T10:15:00",14.199,16.94011,0.083],
    [12728,"urn:WaterMeter:MC0203J22010600005","2024-02-22T10:30:00",14.6,16.95489,0.084],
    [12729,"urn:WaterMeter:MC0203J22010600005","2024-02-22T10:45:00",15,16.94519,0.086],
    [12730,"urn:WaterMeter:MC0203J22010600005","2024-02-22T11:00:00",15.5,16.944027,0.083],
    [12731,"urn:WaterMeter:MC0203J22010600005","2024-02-22T11:15:00",15.899,16.916874,0.082],
    [12732,"urn:WaterMeter:MC0203J22010600005","2024-02-22T11:30:00",16.5,16.956053,0.085],
    [12733,"urn:WaterMeter:MC0203J22010600005","2024-02-22T11:45:00",17.1,16.970793,0.082],
    [12734,"urn:WaterMeter:MC0203J22010600005","2024-02-22T12:00:00",17.7,17.00454,0.082],
    [12735,"urn:WaterMeter:MC0203J22010600005","2024-02-22T12:15:00",18.1,16.94519,0.08],
    [12736,"urn:WaterMeter:MC0203J22010600005","2024-02-22T12:30:00",18.5,16.920326,0.082],
    [12737,"urn:WaterMeter:MC0203J22010600005","2024-02-22T12:45:00",18.7,16.91765,0.079],
    [12738,"urn:WaterMeter:MC0203J22010600005","2024-02-22T13:00:00",18.899,16.936657,0.08],
    [12739,"urn:WaterMeter:MC0203J22010600005","2024-02-22T13:15:00",19.1,16.91218,0.085],
    [12740,"urn:WaterMeter:MC0203J22010600005","2024-02-22T13:30:00",19.2,16.892786,0.083],
    [12741,"urn:WaterMeter:MC0203J22010600005","2024-02-22T13:45:00",19.2,16.837742,0.083],
    [12742,"urn:WaterMeter:MC0203J22010600005","2024-02-22T14:00:00",19.399,16.865671,0.081],
    [12743,"urn:WaterMeter:MC0203J22010600005","2024-02-22T14:15:00",19.5,16.798565,0.081],
    [12744,"urn:WaterMeter:MC0203J22010600005","2024-02-22T14:30:00",19.5,16.87184,0.085],
    [12745,"urn:WaterMeter:MC0203J22010600005","2024-02-22T14:45:00",19.6,16.798565,0.084],
    [12746,"urn:WaterMeter:MC0203J22010600005","2024-02-22T15:00:00",19.5,16.847052,0.084],
    [12747,"urn:WaterMeter:MC0203J22010600005","2024-02-22T15:15:00",19.399,16.789642,0.082],
    [12748,"urn:WaterMeter:MC0203J22010600005","2024-02-22T15:30:00",19.299,16.765942,0.082],
    [12749,"urn:WaterMeter:MC0203J22010600005","2024-02-22T15:45:00",19.299,16.802794,0.082],
    [12750,"urn:WaterMeter:MC0203J22010600005","2024-02-22T16:00:00",19.2,16.779945,0.086],
    [12751,"urn:WaterMeter:MC0203J22010600005","2024-02-22T16:15:00",19.1,16.757448,0.082],
    [12752,"urn:WaterMeter:MC0203J22010600005","2024-02-22T16:30:00",19,16.739605,0.081],
    [12753,"urn:WaterMeter:MC0203J22010600005","2024-02-22T16:45:00",18.899,16.689953,0.086],
    [12754,"urn:WaterMeter:MC0203J22010600005","2024-02-22T17:00:00",18.799,16.762878,0.087],
    [12755,"urn:WaterMeter:MC0203J22010600005","2024-02-22T17:15:00",18.6,16.745771,0.083],
    [12756,"urn:WaterMeter:MC0203J22010600005","2024-02-22T17:30:00",18.399,16.741543,0.082],
    [12757,"urn:WaterMeter:MC0203J22010600005","2024-02-22T17:45:00",18.1,16.726377,0.084],
    [12758,"urn:WaterMeter:MC0203J22010600005","2024-02-22T18:00:00",17.799,16.724825,0.087],
    [12759,"urn:WaterMeter:MC0203J22010600005","2024-02-22T18:15:00",17.6,16.711676,0.088],
    [12760,"urn:WaterMeter:MC0203J22010600005","2024-02-22T18:30:00",17.399,16.67017,0.085],
    [12761,"urn:WaterMeter:MC0203J22010600005","2024-02-22T18:45:00",17.299,16.705431,0.087],
    [12762,"urn:WaterMeter:MC0203J22010600005","2024-02-22T19:00:00",17.2,16.647245,0.086],
    [12763,"urn:WaterMeter:MC0203J22010600005","2024-02-22T19:15:00",17.299,16.680643,0.083],
    [12764,"urn:WaterMeter:MC0203J22010600005","2024-02-22T19:30:00",17.2,16.715942,0.084],
    [12765,"urn:WaterMeter:MC0203J22010600005","2024-02-22T19:45:00",17.2,16.67754,0.084],
    [12766,"urn:WaterMeter:MC0203J22010600005","2024-02-22T20:00:00",17.2,16.651163,0.086],
    [12767,"urn:WaterMeter:MC0203J22010600005","2024-02-22T20:15:00",17.2,16.69422,0.087],
    [12768,"urn:WaterMeter:MC0203J22010600005","2024-02-22T20:30:00",17.2,16.728355,0.083],
    [12769,"urn:WaterMeter:MC0203J22010600005","2024-02-22T20:45:00",17.1,16.64457,0.085],
    [12770,"urn:WaterMeter:MC0203J22010600005","2024-02-22T21:00:00",17.1,16.698448,0.086],
    [12771,"urn:WaterMeter:MC0203J22010600005","2024-02-22T21:15:00",17.1,16.656206,0.086],
    [12772,"urn:WaterMeter:MC0203J22010600005","2024-02-22T21:30:00",17,16.694607,0.085],
    [12773,"urn:WaterMeter:MC0203J22010600005","2024-02-22T21:45:00",17,16.646507,0.085],
    [12774,"urn:WaterMeter:MC0203J22010600005","2024-02-22T22:00:00",16.799,16.617416,0.087],
    [12775,"urn:WaterMeter:MC0203J22010600005","2024-02-22T22:15:00",16.7,16.655817,0.085],
    [12776,"urn:WaterMeter:MC0203J22010600005","2024-02-22T22:30:00",16.6,16.665516,0.084],
    [12777,"urn:WaterMeter:MC0203J22010600005","2024-02-22T22:45:00",16.5,16.627113,0.088],
    [12778,"urn:WaterMeter:MC0203J22010600005","2024-02-22T23:00:00",16.5,16.694996,0.085],
    [12779,"urn:WaterMeter:MC0203J22010600005","2024-02-22T23:15:00",16.399,16.582466,0.085],
    [12780,"urn:WaterMeter:MC0203J22010600005","2024-02-22T23:30:00",16.399,16.634096,0.085],
    [12781,"urn:WaterMeter:MC0203J22010600005","2024-02-22T23:45:00",16.299,16.654654,0.085],
    [12782,"urn:WaterMeter:MC0203J22010600005","2024-02-23T00:00:00",16.2,16.597244,0.082],
    [12783,"urn:WaterMeter:MC0203J22010600005","2024-02-23T00:15:00",16.2,16.615864,0.085],
    [12784,"urn:WaterMeter:MC0203J22010600005","2024-02-23T00:30:00",16.1,16.627462,0.091],
    [12785,"urn:WaterMeter:MC0203J22010600005","2024-02-23T00:45:00",16.1,16.646856,0.086],
    [12786,"urn:WaterMeter:MC0203J22010600005","2024-02-23T01:00:00",16.1,16.653877,0.088],
    [12787,"urn:WaterMeter:MC0203J22010600005","2024-02-23T01:15:00",16.1,16.59996,0.089],
    [12788,"urn:WaterMeter:MC0203J22010600005","2024-02-23T01:30:00",16.1,16.606554,0.085],
    [12789,"urn:WaterMeter:MC0203J22010600005","2024-02-23T01:45:00",16.1,16.64612,0.085],
    [12790,"urn:WaterMeter:MC0203J22010600005","2024-02-23T02:00:00",16.1,16.628239,0.089],
    [12791,"urn:WaterMeter:MC0203J22010600005","2024-02-23T02:15:00",16.1,16.641466,0.086],
    [12792,"urn:WaterMeter:MC0203J22010600005","2024-02-23T02:30:00",16.1,16.554188,0.085],
    [12793,"urn:WaterMeter:MC0203J22010600005","2024-02-23T02:45:00",16.1,16.60031,0.082],
    [12794,"urn:WaterMeter:MC0203J22010600005","2024-02-23T03:00:00",16,16.596857,0.086],
    [12795,"urn:WaterMeter:MC0203J22010600005","2024-02-23T03:15:00",16,16.64996,0.089],
    [12796,"urn:WaterMeter:MC0203J22010600005","2024-02-23T03:30:00",15.899,16.588673,0.088],
    [12797,"urn:WaterMeter:MC0203J22010600005","2024-02-23T03:45:00",15.8,16.59802,0.083],
    [12798,"urn:WaterMeter:MC0203J22010600005","2024-02-23T04:00:00",15.6,16.636034,0.083],
    [12799,"urn:WaterMeter:MC0203J22010600005","2024-02-23T04:15:00",15.399,16.584831,0.089],
    [12800,"urn:WaterMeter:MC0203J22010600005","2024-02-23T04:30:00",15.199,16.564661,0.089],
    [12801,"urn:WaterMeter:MC0203J22010600005","2024-02-23T04:45:00",15,16.611559,0.086],
    [12802,"urn:WaterMeter:MC0203J22010600005","2024-02-23T05:00:00",14.8,16.575134,0.087],
    [12803,"urn:WaterMeter:MC0203J22010600005","2024-02-23T05:15:00",14.6,16.525484,0.085],
    [12804,"urn:WaterMeter:MC0203J22010600005","2024-02-23T05:30:00",14.5,16.588324,0.086],
    [12805,"urn:WaterMeter:MC0203J22010600005","2024-02-23T05:45:00",14.3,16.518888,0.089],
    [12806,"urn:WaterMeter:MC0203J22010600005","2024-02-23T06:00:00",14.199,16.586771,0.083],
    [12807,"urn:WaterMeter:MC0203J22010600005","2024-02-23T06:15:00",14.1,16.535568,0.086],
    [12808,"urn:WaterMeter:MC0203J22010600005","2024-02-23T06:30:00",14,16.586384,0.083],
    [12809,"urn:WaterMeter:MC0203J22010600005","2024-02-23T06:45:00",13.899,16.606943,0.085],
    [12810,"urn:WaterMeter:MC0203J22010600005","2024-02-23T07:00:00",13.8,16.551046,0.086],
    [12811,"urn:WaterMeter:MC0203J22010600005","2024-02-23T07:15:00",13.6,16.542513,0.077],
    [12812,"urn:WaterMeter:MC0203J22010600005","2024-02-23T07:30:00",13.5,16.534405,0.09],
    [12813,"urn:WaterMeter:MC0203J22010600005","2024-02-23T07:45:00",13.399,16.4948,0.088],
    [12814,"urn:WaterMeter:MC0203J22010600005","2024-02-23T08:00:00",13.3,16.569666,0.087],
    [12815,"urn:WaterMeter:MC0203J22010600005","2024-02-23T08:15:00",13.3,16.544102,0.086],
    [12816,"urn:WaterMeter:MC0203J22010600005","2024-02-23T08:30:00",13.3,16.616251,0.086],
    [12817,"urn:WaterMeter:MC0203J22010600005","2024-02-23T08:45:00",13.3,16.59259,0.08],
    [12818,"urn:WaterMeter:MC0203J22010600005","2024-02-23T09:00:00",13.5,16.614313,0.087],
    [12819,"urn:WaterMeter:MC0203J22010600005","2024-02-23T09:15:00",13.699,16.556128,0.087],
    [12820,"urn:WaterMeter:MC0203J22010600005","2024-02-23T09:30:00",13.899,16.528198,0.088],
    [12821,"urn:WaterMeter:MC0203J22010600005","2024-02-23T09:45:00",14.1,16.557291,0.086],
    [12822,"urn:WaterMeter:MC0203J22010600005","2024-02-23T10:00:00",14.3,16.557678,0.08],
    [12823,"urn:WaterMeter:MC0203J22010600005","2024-02-23T10:15:00",14.399,16.607718,0.087],
    [12824,"urn:WaterMeter:MC0203J22010600005","2024-02-23T10:30:00",14.6,16.58169,0.084],
    [12825,"urn:WaterMeter:MC0203J22010600005","2024-02-23T10:45:00",14.8,16.571217,0.082],
    [12826,"urn:WaterMeter:MC0203J22010600005","2024-02-23T11:00:00",15.1,16.604227,0.081],
    [12827,"urn:WaterMeter:MC0203J22010600005","2024-02-23T11:15:00",15.399,16.589449,0.084],
    [12828,"urn:WaterMeter:MC0203J22010600005","2024-02-23T11:30:00",15.8,16.603064,0.081],
    [12829,"urn:WaterMeter:MC0203J22010600005","2024-02-23T11:45:00",16.299,16.62207,0.083],
    [12830,"urn:WaterMeter:MC0203J22010600005","2024-02-23T12:00:00",16.799,16.6147,0.079],
    [12831,"urn:WaterMeter:MC0203J22010600005","2024-02-23T12:15:00",17.2,16.644957,0.081],
    [12832,"urn:WaterMeter:MC0203J22010600005","2024-02-23T12:30:00",17.299,16.566214,0.086],
    [12833,"urn:WaterMeter:MC0203J22010600005","2024-02-23T12:45:00",17.5,16.627462,0.08],
    [12834,"urn:WaterMeter:MC0203J22010600005","2024-02-23T13:00:00",17.6,16.630566,0.081],
    [12835,"urn:WaterMeter:MC0203J22010600005","2024-02-23T13:15:00",17.6,16.610783,0.082],
    [12836,"urn:WaterMeter:MC0203J22010600005","2024-02-23T13:30:00",17.5,16.552986,0.081],
    [12837,"urn:WaterMeter:MC0203J22010600005","2024-02-23T13:45:00",17.6,16.516174,0.081],
    [12838,"urn:WaterMeter:MC0203J22010600005","2024-02-23T14:00:00",17.5,16.51148,0.084],
    [12839,"urn:WaterMeter:MC0203J22010600005","2024-02-23T14:15:00",17.399,16.476995,0.084],
    [12840,"urn:WaterMeter:MC0203J22010600005","2024-02-23T14:30:00",17.399,16.525095,0.084],
    [12841,"urn:WaterMeter:MC0203J22010600005","2024-02-23T14:45:00",17.399,16.495615,0.087],
    [12842,"urn:WaterMeter:MC0203J22010600005","2024-02-23T15:00:00",17.399,16.48549,0.088],
    [12843,"urn:WaterMeter:MC0203J22010600005","2024-02-23T15:15:00",17.399,16.500658,0.086],
    [12844,"urn:WaterMeter:MC0203J22010600005","2024-02-23T15:30:00",17.399,16.469625,0.086],
    [12845,"urn:WaterMeter:MC0203J22010600005","2024-02-23T15:45:00",17.399,16.451006,0.081],
    [12846,"urn:WaterMeter:MC0203J22010600005","2024-02-23T16:00:00",17.299,16.492474,0.085],
    [12847,"urn:WaterMeter:MC0203J22010600005","2024-02-23T16:15:00",17.1,16.443249,0.081],
    [12848,"urn:WaterMeter:MC0203J22010600005","2024-02-23T16:30:00",17,16.390493,0.087],
    [12849,"urn:WaterMeter:MC0203J22010600005","2024-02-23T16:45:00",16.7,16.436228,0.083],
    [12850,"urn:WaterMeter:MC0203J22010600005","2024-02-23T17:00:00",16.6,16.404459,0.084],
    [12851,"urn:WaterMeter:MC0203J22010600005","2024-02-23T17:15:00",16.399,16.447128,0.083],
    [12852,"urn:WaterMeter:MC0203J22010600005","2024-02-23T17:30:00",16.2,16.417608,0.083],
    [12853,"urn:WaterMeter:MC0203J22010600005","2024-02-23T17:45:00",16,16.416445,0.085],
    [12854,"urn:WaterMeter:MC0203J22010600005","2024-02-23T18:00:00",15.899,16.425016,0.081],
    [12855,"urn:WaterMeter:MC0203J22010600005","2024-02-23T18:15:00",15.699,16.40252,0.086],
    [12856,"urn:WaterMeter:MC0203J22010600005","2024-02-23T18:30:00",15.6,16.424242,0.078],
    [12857,"urn:WaterMeter:MC0203J22010600005","2024-02-23T18:45:00",15.5,16.382736,0.087],
    [12858,"urn:WaterMeter:MC0203J22010600005","2024-02-23T19:00:00",15.3,16.37304,0.085],
    [12859,"urn:WaterMeter:MC0203J22010600005","2024-02-23T19:15:00",15.199,16.353256,0.084],
    [12860,"urn:WaterMeter:MC0203J22010600005","2024-02-23T19:30:00",15.1,16.354807,0.089],
    [12861,"urn:WaterMeter:MC0203J22010600005","2024-02-23T19:45:00",14.899,16.34123,0.086],
    [12862,"urn:WaterMeter:MC0203J22010600005","2024-02-23T20:00:00",14.8,16.383512,0.082],
    [12863,"urn:WaterMeter:MC0203J22010600005","2024-02-23T20:15:00",14.699,16.37304,0.088],
    [12864,"urn:WaterMeter:MC0203J22010600005","2024-02-23T20:30:00",14.6,16.367956,0.084],
    [12865,"urn:WaterMeter:MC0203J22010600005","2024-02-23T20:45:00",14.399,16.39511,0.088],
    [12866,"urn:WaterMeter:MC0203J22010600005","2024-02-23T21:00:00",14.199,16.391657,0.083],
    [12867,"urn:WaterMeter:MC0203J22010600005","2024-02-23T21:15:00",14,16.38584,0.085],
    [12868,"urn:WaterMeter:MC0203J22010600005","2024-02-23T21:30:00",13.8,16.403683,0.089],
    [12869,"urn:WaterMeter:MC0203J22010600005","2024-02-23T21:45:00",13.6,16.386965,0.089],
    [12870,"urn:WaterMeter:MC0203J22010600005","2024-02-23T22:00:00",13.5,16.381184,0.086],
    [12871,"urn:WaterMeter:MC0203J22010600005","2024-02-23T22:15:00",13.399,16.342007,0.087],
    [12872,"urn:WaterMeter:MC0203J22010600005","2024-02-23T22:30:00",13.3,16.404846,0.084],
    [12873,"urn:WaterMeter:MC0203J22010600005","2024-02-23T22:45:00",13.3,16.359035,0.085],
    [12874,"urn:WaterMeter:MC0203J22010600005","2024-02-23T23:00:00",13.199,16.383123,0.083],
    [12875,"urn:WaterMeter:MC0203J22010600005","2024-02-23T23:15:00",13.1,16.337702,0.082],
    [12876,"urn:WaterMeter:MC0203J22010600005","2024-02-23T23:30:00",13,16.340029,0.083],
    [12877,"urn:WaterMeter:MC0203J22010600005","2024-02-23T23:45:00",12.8,16.361013,0.087],
    [12878,"urn:WaterMeter:MC0203J22010600005","2024-02-24T00:00:00",12.699,16.398212,0.081],
    [12879,"urn:WaterMeter:MC0203J22010600005","2024-02-24T00:15:00",12.6,16.32649,0.091],
    [12880,"urn:WaterMeter:MC0203J22010600005","2024-02-24T00:30:00",12.6,16.391657,0.086],
    [12881,"urn:WaterMeter:MC0203J22010600005","2024-02-24T00:45:00",12.5,16.386965,0.086],
    [12882,"urn:WaterMeter:MC0203J22010600005","2024-02-24T01:00:00",12.5,16.319857,0.087],
    [12883,"urn:WaterMeter:MC0203J22010600005","2024-02-24T01:15:00",12.5,16.350927,0.087],
    [12884,"urn:WaterMeter:MC0203J22010600005","2024-02-24T01:30:00",12.399,16.314077,0.08],
    [12885,"urn:WaterMeter:MC0203J22010600005","2024-02-24T01:45:00",12.399,16.381184,0.086],
    [12886,"urn:WaterMeter:MC0203J22010600005","2024-02-24T02:00:00",12.199,16.40601,0.086],
    [12887,"urn:WaterMeter:MC0203J22010600005","2024-02-24T02:15:00",12.1,16.313301,0.088],
    [12888,"urn:WaterMeter:MC0203J22010600005","2024-02-24T02:30:00",11.899,16.35826,0.087],
    [12889,"urn:WaterMeter:MC0203J22010600005","2024-02-24T02:45:00",11.8,16.343946,0.087],
    [12890,"urn:WaterMeter:MC0203J22010600005","2024-02-24T03:00:00",11.6,16.316404,0.085],
    [12891,"urn:WaterMeter:MC0203J22010600005","2024-02-24T03:15:00",11.5,16.31947,0.085],
    [12892,"urn:WaterMeter:MC0203J22010600005","2024-02-24T03:30:00",11.3,16.376492,0.084],
    [12893,"urn:WaterMeter:MC0203J22010600005","2024-02-24T03:45:00",11.199,16.314854,0.087],
    [12894,"urn:WaterMeter:MC0203J22010600005","2024-02-24T04:00:00",11,16.385063,0.087],
    [12895,"urn:WaterMeter:MC0203J22010600005","2024-02-24T04:15:00",10.8,16.362953,0.087],
    [12896,"urn:WaterMeter:MC0203J22010600005","2024-02-24T04:30:00",10.699,16.343557,0.087],
    [12897,"urn:WaterMeter:MC0203J22010600005","2024-02-24T04:45:00",10.6,16.326878,0.088],
    [12898,"urn:WaterMeter:MC0203J22010600005","2024-02-24T05:00:00",10.5,16.33033,0.085],
    [12899,"urn:WaterMeter:MC0203J22010600005","2024-02-24T05:15:00",10.3,16.337702,0.086],
    [12900,"urn:WaterMeter:MC0203J22010600005","2024-02-24T05:30:00",10.199,16.385063,0.087],
    [12901,"urn:WaterMeter:MC0203J22010600005","2024-02-24T05:45:00",10.1,16.352867,0.085],
    [12902,"urn:WaterMeter:MC0203J22010600005","2024-02-24T06:00:00",9.899,16.395885,0.088],
    [12903,"urn:WaterMeter:MC0203J22010600005","2024-02-24T06:15:00",9.8,16.383123,0.086],
    [12904,"urn:WaterMeter:MC0203J22010600005","2024-02-24T06:30:00",9.699,16.40058,0.085],
    [12905,"urn:WaterMeter:MC0203J22010600005","2024-02-24T06:45:00",9.6,16.337702,0.087],
    [12906,"urn:WaterMeter:MC0203J22010600005","2024-02-24T07:00:00",9.5,16.323776,0.087],
    [12907,"urn:WaterMeter:MC0203J22010600005","2024-02-24T07:15:00",9.399,16.359035,0.086],
    [12908,"urn:WaterMeter:MC0203J22010600005","2024-02-24T07:30:00",9.399,16.359423,0.086],
    [12909,"urn:WaterMeter:MC0203J22010600005","2024-02-24T07:45:00",9.3,16.3711,0.085],
    [12910,"urn:WaterMeter:MC0203J22010600005","2024-02-24T08:00:00",9.399,16.350153,0.087],
    [12911,"urn:WaterMeter:MC0203J22010600005","2024-02-24T08:15:00",9.5,16.386227,0.086],
    [12912,"urn:WaterMeter:MC0203J22010600005","2024-02-24T08:30:00",9.8,16.400192,0.084],
    [12913,"urn:WaterMeter:MC0203J22010600005","2024-02-24T08:45:00",10.1,16.395885,0.083],
    [12914,"urn:WaterMeter:MC0203J22010600005","2024-02-24T09:00:00",10.5,16.367956,0.083],
    [12915,"urn:WaterMeter:MC0203J22010600005","2024-02-24T09:15:00",10.8,16.436228,0.083],
    [12916,"urn:WaterMeter:MC0203J22010600005","2024-02-24T09:30:00",11.1,16.37304,0.083],
    [12917,"urn:WaterMeter:MC0203J22010600005","2024-02-24T09:45:00",11.5,16.458765,0.077],
    [12918,"urn:WaterMeter:MC0203J22010600005","2024-02-24T10:00:00",11.899,16.423079,0.082],
    [12919,"urn:WaterMeter:MC0203J22010600005","2024-02-24T10:15:00",12.199,16.428896,0.086],
    [12920,"urn:WaterMeter:MC0203J22010600005","2024-02-24T10:30:00",12.6,16.476995,0.083],
    [12921,"urn:WaterMeter:MC0203J22010600005","2024-02-24T10:45:00",12.899,16.448679,0.078],
    [12922,"urn:WaterMeter:MC0203J22010600005","2024-02-24T11:00:00",13.3,16.463808,0.084],
    [12923,"urn:WaterMeter:MC0203J22010600005","2024-02-24T11:15:00",13.699,16.45954,0.083],
    [12924,"urn:WaterMeter:MC0203J22010600005","2024-02-24T11:30:00",14.199,16.470013,0.077],
    [12925,"urn:WaterMeter:MC0203J22010600005","2024-02-24T11:45:00",14.6,16.503334,0.083],
    [12926,"urn:WaterMeter:MC0203J22010600005","2024-02-24T12:00:00",14.6,16.463419,0.077],
    [12927,"urn:WaterMeter:MC0203J22010600005","2024-02-24T12:15:00",14.699,16.474241,0.079],
    [12928,"urn:WaterMeter:MC0203J22010600005","2024-02-24T12:30:00",14.8,16.461868,0.077],
    [12929,"urn:WaterMeter:MC0203J22010600005","2024-02-24T12:45:00",14.899,16.435839,0.079],
    [12930,"urn:WaterMeter:MC0203J22010600005","2024-02-24T13:00:00",14.899,16.418036,0.082],
    [12931,"urn:WaterMeter:MC0203J22010600005","2024-02-24T13:15:00",14.899,16.386616,0.079],
    [12932,"urn:WaterMeter:MC0203J22010600005","2024-02-24T13:30:00",15,16.355932,0.075],
    [12933,"urn:WaterMeter:MC0203J22010600005","2024-02-24T13:45:00",14.899,16.390106,0.081],
    [12934,"urn:WaterMeter:MC0203J22010600005","2024-02-24T14:00:00",15.1,16.412992,0.085],
    [12935,"urn:WaterMeter:MC0203J22010600005","2024-02-24T14:15:00",15.3,16.396275,0.082],
    [12936,"urn:WaterMeter:MC0203J22010600005","2024-02-24T14:30:00",15,16.425406,0.082],
    [12937,"urn:WaterMeter:MC0203J22010600005","2024-02-24T14:45:00",14.5,16.30826,0.08],
    [12938,"urn:WaterMeter:MC0203J22010600005","2024-02-24T15:00:00",14.199,16.349726,0.081],
    [12939,"urn:WaterMeter:MC0203J22010600005","2024-02-24T15:15:00",14.199,16.356709,0.083],
    [12940,"urn:WaterMeter:MC0203J22010600005","2024-02-24T15:30:00",14.199,16.317142,0.083],
    [12941,"urn:WaterMeter:MC0203J22010600005","2024-02-24T15:45:00",14.3,16.31524,0.085],
    [12942,"urn:WaterMeter:MC0203J22010600005","2024-02-24T16:00:00",14.3,16.32649,0.086],
    [12943,"urn:WaterMeter:MC0203J22010600005","2024-02-24T16:15:00",14.3,16.331533,0.076],
    [12944,"urn:WaterMeter:MC0203J22010600005","2024-02-24T16:30:00",14.3,16.256668,0.081],
    [12945,"urn:WaterMeter:MC0203J22010600005","2024-02-24T16:45:00",14.199,16.290766,0.082],
    [12946,"urn:WaterMeter:MC0203J22010600005","2024-02-24T17:00:00",14.199,16.2749,0.078],
    [12947,"urn:WaterMeter:MC0203J22010600005","2024-02-24T17:15:00",14.1,16.275288,0.084],
    [12948,"urn:WaterMeter:MC0203J22010600005","2024-02-24T17:30:00",14,16.33386,0.084],
    [12949,"urn:WaterMeter:MC0203J22010600005","2024-02-24T17:45:00",13.899,16.31753,0.078],
    [12950,"urn:WaterMeter:MC0203J22010600005","2024-02-24T18:00:00",13.699,16.329556,0.089],
    [12951,"urn:WaterMeter:MC0203J22010600005","2024-02-24T18:15:00",13.6,16.281456,0.083],
    [12952,"urn:WaterMeter:MC0203J22010600005","2024-02-24T18:30:00",13.399,16.22133,0.079],
    [12953,"urn:WaterMeter:MC0203J22010600005","2024-02-24T18:45:00",13.3,16.254341,0.08],
    [12954,"urn:WaterMeter:MC0203J22010600005","2024-02-24T19:00:00",13.199,16.272146,0.083],
    [12955,"urn:WaterMeter:MC0203J22010600005","2024-02-24T19:15:00",13.1,16.31563,0.08],
    [12956,"urn:WaterMeter:MC0203J22010600005","2024-02-24T19:30:00",13,16.301239,0.085],
    [12957,"urn:WaterMeter:MC0203J22010600005","2024-02-24T19:45:00",12.899,16.253954,0.086],
    [12958,"urn:WaterMeter:MC0203J22010600005","2024-02-24T20:00:00",12.8,16.238438,0.081],
    [12959,"urn:WaterMeter:MC0203J22010600005","2024-02-24T20:15:00",12.6,16.248522,0.083],
    [12960,"urn:WaterMeter:MC0203J22010600005","2024-02-24T20:30:00",12.5,16.226025,0.083],
    [12961,"urn:WaterMeter:MC0203J22010600005","2024-02-24T20:45:00",12.3,16.273348,0.084],
    [12962,"urn:WaterMeter:MC0203J22010600005","2024-02-24T21:00:00",12.1,16.264038,0.085],
    [12963,"urn:WaterMeter:MC0203J22010600005","2024-02-24T21:15:00",12,16.23258,0.082],
    [12964,"urn:WaterMeter:MC0203J22010600005","2024-02-24T21:30:00",11.699,16.215939,0.083],
    [12965,"urn:WaterMeter:MC0203J22010600005","2024-02-24T21:45:00",11.5,16.24348,0.083],
    [12966,"urn:WaterMeter:MC0203J22010600005","2024-02-24T22:00:00",11.3,16.227575,0.084],
    [12967,"urn:WaterMeter:MC0203J22010600005","2024-02-24T22:15:00",11.199,16.204264,0.091],
    [12968,"urn:WaterMeter:MC0203J22010600005","2024-02-24T22:30:00",11,16.24891,0.086],
    [12969,"urn:WaterMeter:MC0203J22010600005","2024-02-24T22:45:00",10.8,16.227575,0.085],
    [12970,"urn:WaterMeter:MC0203J22010600005","2024-02-24T23:00:00",10.699,16.195381,0.082],
    [12971,"urn:WaterMeter:MC0203J22010600005","2024-02-24T23:15:00",10.6,16.252363,0.086],
    [12972,"urn:WaterMeter:MC0203J22010600005","2024-02-24T23:30:00",10.399,16.248522,0.084],
    [12973,"urn:WaterMeter:MC0203J22010600005","2024-02-24T23:45:00",10.199,16.193014,0.08],
    [12974,"urn:WaterMeter:MC0203J22010600005","2024-02-25T00:00:00",10.1,16.276064,0.086],
    [12975,"urn:WaterMeter:MC0203J22010600005","2024-02-25T00:15:00",10,16.248522,0.082],
    [12976,"urn:WaterMeter:MC0203J22010600005","2024-02-25T00:30:00",9.899,16.237661,0.086],
    [12977,"urn:WaterMeter:MC0203J22010600005","2024-02-25T00:45:00",9.8,16.222883,0.08],
    [12978,"urn:WaterMeter:MC0203J22010600005","2024-02-25T01:00:00",9.6,16.209345,0.084],
    [12979,"urn:WaterMeter:MC0203J22010600005","2024-02-25T01:15:00",9.5,16.21396,0.083],
    [12980,"urn:WaterMeter:MC0203J22010600005","2024-02-25T01:30:00",9.399,16.210896,0.088],
    [12981,"urn:WaterMeter:MC0203J22010600005","2024-02-25T01:45:00",9.399,16.198872,0.082],
    [12982,"urn:WaterMeter:MC0203J22010600005","2024-02-25T02:00:00",9.199,16.273348,0.088],
    [12983,"urn:WaterMeter:MC0203J22010600005","2024-02-25T02:15:00",9.1,16.205465,0.086],
    [12984,"urn:WaterMeter:MC0203J22010600005","2024-02-25T02:30:00",9.1,16.266367,0.085],
    [12985,"urn:WaterMeter:MC0203J22010600005","2024-02-25T02:45:00",9,16.27874,0.086],
    [12986,"urn:WaterMeter:MC0203J22010600005","2024-02-25T03:00:00",8.899,16.238438,0.084],
    [12987,"urn:WaterMeter:MC0203J22010600005","2024-02-25T03:15:00",8.8,16.28964,0.084],
    [12988,"urn:WaterMeter:MC0203J22010600005","2024-02-25T03:30:00",8.699,16.250462,0.085],
    [12989,"urn:WaterMeter:MC0203J22010600005","2024-02-25T03:45:00",8.6,16.248522,0.084],
    [12990,"urn:WaterMeter:MC0203J22010600005","2024-02-25T04:00:00",8.5,16.265202,0.082],
    [12991,"urn:WaterMeter:MC0203J22010600005","2024-02-25T04:15:00",8.5,16.24189,0.084],
    [12992,"urn:WaterMeter:MC0203J22010600005","2024-02-25T04:30:00",8.5,16.259346,0.082],
    [12993,"urn:WaterMeter:MC0203J22010600005","2024-02-25T04:45:00",8.399,16.257444,0.083],
    [12994,"urn:WaterMeter:MC0203J22010600005","2024-02-25T05:00:00",8.399,16.268694,0.083],
    [12995,"urn:WaterMeter:MC0203J22010600005","2024-02-25T05:15:00",8.399,16.252363,0.08],
    [12996,"urn:WaterMeter:MC0203J22010600005","2024-02-25T05:30:00",8.399,16.270245,0.08],
    [12997,"urn:WaterMeter:MC0203J22010600005","2024-02-25T05:45:00",8.6,16.262447,0.085],
    [12998,"urn:WaterMeter:MC0203J22010600005","2024-02-25T06:00:00",9,16.266754,0.084],
    [12999,"urn:WaterMeter:MC0203J22010600005","2024-02-25T06:15:00",9.3,16.301239,0.086],
    [13000,"urn:WaterMeter:MC0203J22010600005","2024-02-25T06:30:00",9.5,16.32106,0.082],
    [13001,"urn:WaterMeter:MC0203J22010600005","2024-02-25T06:45:00",9.699,16.331146,0.079],
    [13002,"urn:WaterMeter:MC0203J22010600005","2024-02-25T07:00:00",9.899,16.304768,0.078],
    [13003,"urn:WaterMeter:MC0203J22010600005","2024-02-25T07:15:00",10.1,16.302053,0.083],
    [13004,"urn:WaterMeter:MC0203J22010600005","2024-02-25T07:30:00",10.199,16.238825,0.078],
    [13005,"urn:WaterMeter:MC0203J22010600005","2024-02-25T07:45:00",10.399,16.327654,0.082],
    [13006,"urn:WaterMeter:MC0203J22010600005","2024-02-25T08:00:00",10.5,16.250462,0.082],
    [13007,"urn:WaterMeter:MC0203J22010600005","2024-02-25T08:15:00",10.699,16.294294,0.084],
    [13008,"urn:WaterMeter:MC0203J22010600005","2024-02-25T08:30:00",10.8,16.342783,0.079],
    [13009,"urn:WaterMeter:MC0203J22010600005","2024-02-25T08:45:00",11,16.331533,0.081],
    [13010,"urn:WaterMeter:MC0203J22010600005","2024-02-25T09:00:00",11.1,16.302053,0.082],
    [13011,"urn:WaterMeter:MC0203J22010600005","2024-02-25T09:15:00",11.3,16.329166,0.082],
    [13012,"urn:WaterMeter:MC0203J22010600005","2024-02-25T09:30:00",11.6,16.310549,0.08],
    [13013,"urn:WaterMeter:MC0203J22010600005","2024-02-25T09:45:00",11.8,16.286924,0.081],
    [13014,"urn:WaterMeter:MC0203J22010600005","2024-02-25T10:00:00",12,16.28964,0.08],
    [13015,"urn:WaterMeter:MC0203J22010600005","2024-02-25T10:15:00",12.199,16.287313,0.08],
    [13016,"urn:WaterMeter:MC0203J22010600005","2024-02-25T10:30:00",12.399,16.267141,0.084],
    [13017,"urn:WaterMeter:MC0203J22010600005","2024-02-25T10:45:00",12.699,16.33386,0.085],
    [13018,"urn:WaterMeter:MC0203J22010600005","2024-02-25T11:00:00",13.199,16.292355,0.08],
    [13019,"urn:WaterMeter:MC0203J22010600005","2024-02-25T11:15:00",13.699,16.344334,0.085],
    [13020,"urn:WaterMeter:MC0203J22010600005","2024-02-25T11:30:00",14.3,16.391657,0.078],
    [13021,"urn:WaterMeter:MC0203J22010600005","2024-02-25T11:45:00",14.8,16.354807,0.072],
    [13022,"urn:WaterMeter:MC0203J22010600005","2024-02-25T12:00:00",15.3,16.380796,0.082],
    [13023,"urn:WaterMeter:MC0203J22010600005","2024-02-25T12:15:00",15.6,16.367956,0.08],
    [13024,"urn:WaterMeter:MC0203J22010600005","2024-02-25T12:30:00",15.699,16.312138,0.079],
    [13025,"urn:WaterMeter:MC0203J22010600005","2024-02-25T12:45:00",15.8,16.325327,0.076],
    [13026,"urn:WaterMeter:MC0203J22010600005","2024-02-25T13:00:00",15.899,16.295847,0.08],
    [13027,"urn:WaterMeter:MC0203J22010600005","2024-02-25T13:15:00",16,16.321836,0.08],
    [13028,"urn:WaterMeter:MC0203J22010600005","2024-02-25T13:30:00",16.1,16.26947,0.079],
    [13029,"urn:WaterMeter:MC0203J22010600005","2024-02-25T13:45:00",16.299,16.29701,0.081],
    [13030,"urn:WaterMeter:MC0203J22010600005","2024-02-25T14:00:00",16.6,16.266367,0.081],
    [13031,"urn:WaterMeter:MC0203J22010600005","2024-02-25T14:15:00",16.899,16.294294,0.078],
    [13032,"urn:WaterMeter:MC0203J22010600005","2024-02-25T14:30:00",17.1,16.282658,0.08],
    [13033,"urn:WaterMeter:MC0203J22010600005","2024-02-25T14:45:00",17.299,16.238825,0.085],
    [13034,"urn:WaterMeter:MC0203J22010600005","2024-02-25T15:00:00",17.399,16.232967,0.087],
    [13035,"urn:WaterMeter:MC0203J22010600005","2024-02-25T15:15:00",17.399,16.200771,0.077],
    [13036,"urn:WaterMeter:MC0203J22010600005","2024-02-25T15:30:00",17.399,16.322224,0.079],
    [13037,"urn:WaterMeter:MC0203J22010600005","2024-02-25T15:45:00",17.399,16.220943,0.079],
    [13038,"urn:WaterMeter:MC0203J22010600005","2024-02-25T16:00:00",17.399,16.226025,0.081],
    [13039,"urn:WaterMeter:MC0203J22010600005","2024-02-25T16:15:00",17.299,16.191502,0.078],
    [13040,"urn:WaterMeter:MC0203J22010600005","2024-02-25T16:30:00",17.2,16.280293,0.079],
    [13041,"urn:WaterMeter:MC0203J22010600005","2024-02-25T16:45:00",17.1,16.189175,0.079],
    [13042,"urn:WaterMeter:MC0203J22010600005","2024-02-25T17:00:00",17,16.192278,0.078],
    [13043,"urn:WaterMeter:MC0203J22010600005","2024-02-25T17:15:00",16.899,16.149609,0.08],
    [13044,"urn:WaterMeter:MC0203J22010600005","2024-02-25T17:30:00",16.799,16.13836,0.082],
    [13045,"urn:WaterMeter:MC0203J22010600005","2024-02-25T17:45:00",16.7,16.194567,0.078],
    [13046,"urn:WaterMeter:MC0203J22010600005","2024-02-25T18:00:00",16.5,16.148056,0.08],
    [13047,"urn:WaterMeter:MC0203J22010600005","2024-02-25T18:15:00",16.399,16.19379,0.085],
    [13048,"urn:WaterMeter:MC0203J22010600005","2024-02-25T18:30:00",16.2,16.161245,0.083],
    [13049,"urn:WaterMeter:MC0203J22010600005","2024-02-25T18:45:00",16.1,16.16431,0.082],
    [13050,"urn:WaterMeter:MC0203J22010600005","2024-02-25T19:00:00",15.899,16.110819,0.083],
    [13051,"urn:WaterMeter:MC0203J22010600005","2024-02-25T19:15:00",15.6,16.157755,0.078],
    [13052,"urn:WaterMeter:MC0203J22010600005","2024-02-25T19:30:00",15.399,16.098793,0.08],
    [13053,"urn:WaterMeter:MC0203J22010600005","2024-02-25T19:45:00",15.3,16.127499,0.086],
    [13054,"urn:WaterMeter:MC0203J22010600005","2024-02-25T20:00:00",15.199,16.15659,0.082],
    [13055,"urn:WaterMeter:MC0203J22010600005","2024-02-25T20:15:00",15.1,16.130213,0.08],
    [13056,"urn:WaterMeter:MC0203J22010600005","2024-02-25T20:30:00",15,16.119352,0.08],
    [13057,"urn:WaterMeter:MC0203J22010600005","2024-02-25T20:45:00",15,16.09569,0.081],
    [13058,"urn:WaterMeter:MC0203J22010600005","2024-02-25T21:00:00",14.899,16.139912,0.08],
    [13059,"urn:WaterMeter:MC0203J22010600005","2024-02-25T21:15:00",14.899,16.141075,0.082],
    [13060,"urn:WaterMeter:MC0203J22010600005","2024-02-25T21:30:00",14.8,16.093363,0.084],
    [13061,"urn:WaterMeter:MC0203J22010600005","2024-02-25T21:45:00",14.699,16.123968,0.084],
    [13062,"urn:WaterMeter:MC0203J22010600005","2024-02-25T22:00:00",14.6,16.080173,0.081],
    [13063,"urn:WaterMeter:MC0203J22010600005","2024-02-25T22:15:00",14.6,16.128662,0.083],
    [13064,"urn:WaterMeter:MC0203J22010600005","2024-02-25T22:30:00",14.6,16.11974,0.083],
    [13065,"urn:WaterMeter:MC0203J22010600005","2024-02-25T22:45:00",14.5,16.060003,0.082],
    [13066,"urn:WaterMeter:MC0203J22010600005","2024-02-25T23:00:00",14.5,16.083277,0.084],
    [13067,"urn:WaterMeter:MC0203J22010600005","2024-02-25T23:15:00",14.5,16.068926,0.081],
    [13068,"urn:WaterMeter:MC0203J22010600005","2024-02-25T23:30:00",14.5,16.109266,0.082],
    [13069,"urn:WaterMeter:MC0203J22010600005","2024-02-25T23:45:00",14.5,16.065395,0.084],
    [13070,"urn:WaterMeter:MC0203J22010600005","2024-02-26T00:00:00",14.5,16.0922,0.079],
    [13071,"urn:WaterMeter:MC0203J22010600005","2024-02-26T00:15:00",14.5,16.07742,0.083],
    [13072,"urn:WaterMeter:MC0203J22010600005","2024-02-26T00:30:00",14.399,16.053797,0.08],
    [13073,"urn:WaterMeter:MC0203J22010600005","2024-02-26T00:45:00",14.3,16.120129,0.084],
    [13074,"urn:WaterMeter:MC0203J22010600005","2024-02-26T01:00:00",14.199,16.091423,0.079],
    [13075,"urn:WaterMeter:MC0203J22010600005","2024-02-26T01:15:00",14.199,16.059616,0.082],
    [13076,"urn:WaterMeter:MC0203J22010600005","2024-02-26T01:30:00",14.199,16.103798,0.078],
    [13077,"urn:WaterMeter:MC0203J22010600005","2024-02-26T01:45:00",14.199,16.0697,0.083],
    [13078,"urn:WaterMeter:MC0203J22010600005","2024-02-26T02:00:00",14.199,16.060003,0.084],
    [13079,"urn:WaterMeter:MC0203J22010600005","2024-02-26T02:15:00",14.199,16.143364,0.079],
    [13080,"urn:WaterMeter:MC0203J22010600005","2024-02-26T02:30:00",14.199,16.10849,0.083],
    [13081,"urn:WaterMeter:MC0203J22010600005","2024-02-26T02:45:00",14.199,16.078623,0.083],
    [13082,"urn:WaterMeter:MC0203J22010600005","2024-02-26T03:00:00",14.1,16.09026,0.082],
    [13083,"urn:WaterMeter:MC0203J22010600005","2024-02-26T03:15:00",14.1,16.028933,0.081],
    [13084,"urn:WaterMeter:MC0203J22010600005","2024-02-26T03:30:00",14.199,16.05302,0.085],
    [13085,"urn:WaterMeter:MC0203J22010600005","2024-02-26T03:45:00",14.199,16.084053,0.085],
    [13086,"urn:WaterMeter:MC0203J22010600005","2024-02-26T04:00:00",14.199,16.064657,0.079],
    [13087,"urn:WaterMeter:MC0203J22010600005","2024-02-26T04:15:00",14.3,16.091036,0.082],
    [13088,"urn:WaterMeter:MC0203J22010600005","2024-02-26T04:30:00",14.3,16.089483,0.082],
    [13089,"urn:WaterMeter:MC0203J22010600005","2024-02-26T04:45:00",14.199,16.056124,0.079],
    [13090,"urn:WaterMeter:MC0203J22010600005","2024-02-26T05:00:00",14.3,16.047552,0.083],
    [13091,"urn:WaterMeter:MC0203J22010600005","2024-02-26T05:15:00",14.3,16.12168,0.075],
    [13092,"urn:WaterMeter:MC0203J22010600005","2024-02-26T05:30:00",14.3,16.104185,0.082],
    [13093,"urn:WaterMeter:MC0203J22010600005","2024-02-26T05:45:00",14.3,16.051857,0.083],
    [13094,"urn:WaterMeter:MC0203J22010600005","2024-02-26T06:00:00",14.199,16.07513,0.086],
    [13095,"urn:WaterMeter:MC0203J22010600005","2024-02-26T06:15:00",14.1,16.087505,0.082],
    [13096,"urn:WaterMeter:MC0203J22010600005","2024-02-26T06:30:00",14.1,16.046,0.08],
    [13097,"urn:WaterMeter:MC0203J22010600005","2024-02-26T06:45:00",14,16.05535,0.08],
    [13098,"urn:WaterMeter:MC0203J22010600005","2024-02-26T07:00:00",14,16.075907,0.085],
    [13099,"urn:WaterMeter:MC0203J22010600005","2024-02-26T07:15:00",14,16.08832,0.082],
    [13100,"urn:WaterMeter:MC0203J22010600005","2024-02-26T07:30:00",14,16.049103,0.083],
    [13101,"urn:WaterMeter:MC0203J22010600005","2024-02-26T07:45:00",13.8,16.04953,0.083],
    [13102,"urn:WaterMeter:MC0203J22010600005","2024-02-26T08:00:00",13.699,16.111593,0.082],
    [13103,"urn:WaterMeter:MC0203J22010600005","2024-02-26T08:15:00",13.6,16.084402,0.079],
    [13104,"urn:WaterMeter:MC0203J22010600005","2024-02-26T08:30:00",13.6,16.049917,0.082],
    [13105,"urn:WaterMeter:MC0203J22010600005","2024-02-26T08:45:00",13.699,16.077032,0.082],
    [13106,"urn:WaterMeter:MC0203J22010600005","2024-02-26T09:00:00",13.699,16.01268,0.079],
    [13107,"urn:WaterMeter:MC0203J22010600005","2024-02-26T09:15:00",13.699,16.046389,0.083],
    [13108,"urn:WaterMeter:MC0203J22010600005","2024-02-26T09:30:00",13.6,16.09181,0.08],
    [13109,"urn:WaterMeter:MC0203J22010600005","2024-02-26T09:45:00",13.6,16.05341,0.082],
    [13110,"urn:WaterMeter:MC0203J22010600005","2024-02-26T10:00:00",13.699,16.0569,0.088],
    [13111,"urn:WaterMeter:MC0203J22010600005","2024-02-26T10:15:00",13.699,16.087893,0.084],
    [13112,"urn:WaterMeter:MC0203J22010600005","2024-02-26T10:30:00",13.8,16.075907,0.082],
    [13113,"urn:WaterMeter:MC0203J22010600005","2024-02-26T10:45:00",13.8,16.053797,0.082],
    [13114,"urn:WaterMeter:MC0203J22010600005","2024-02-26T11:00:00",13.899,16.125519,0.085],
    [13115,"urn:WaterMeter:MC0203J22010600005","2024-02-26T11:15:00",13.8,16.05496,0.081],
    [13116,"urn:WaterMeter:MC0203J22010600005","2024-02-26T11:30:00",13.899,16.09957,0.083],
    [13117,"urn:WaterMeter:MC0203J22010600005","2024-02-26T11:45:00",14,16.124744,0.081],
    [13118,"urn:WaterMeter:MC0203J22010600005","2024-02-26T12:00:00",14.1,16.056124,0.081],
    [13119,"urn:WaterMeter:MC0203J22010600005","2024-02-26T12:15:00",14.199,16.08479,0.076],
    [13120,"urn:WaterMeter:MC0203J22010600005","2024-02-26T12:30:00",14.3,16.05302,0.081],
    [13121,"urn:WaterMeter:MC0203J22010600005","2024-02-26T12:45:00",14.399,16.06078,0.081],
    [13122,"urn:WaterMeter:MC0203J22010600005","2024-02-26T13:00:00",14.6,16.104961,0.081],
    [13123,"urn:WaterMeter:MC0203J22010600005","2024-02-26T13:15:00",14.899,16.09569,0.078],
    [13124,"urn:WaterMeter:MC0203J22010600005","2024-02-26T13:30:00",15.1,16.080563,0.082],
    [13125,"urn:WaterMeter:MC0203J22010600005","2024-02-26T13:45:00",15.3,16.03285,0.078],
    [13126,"urn:WaterMeter:MC0203J22010600005","2024-02-26T14:00:00",15.399,16.051857,0.083],
    [13127,"urn:WaterMeter:MC0203J22010600005","2024-02-26T14:15:00",15.3,16.087505,0.081],
    [13128,"urn:WaterMeter:MC0203J22010600005","2024-02-26T14:30:00",15.3,16.099957,0.08],
    [13129,"urn:WaterMeter:MC0203J22010600005","2024-02-26T14:45:00",15.399,16.046,0.079],
    [13130,"urn:WaterMeter:MC0203J22010600005","2024-02-26T15:00:00",15.6,16.044487,0.08],
    [13131,"urn:WaterMeter:MC0203J22010600005","2024-02-26T15:15:00",15.6,16.040607,0.083],
    [13132,"urn:WaterMeter:MC0203J22010600005","2024-02-26T15:30:00",15.399,16.096039,0.081],
    [13133,"urn:WaterMeter:MC0203J22010600005","2024-02-26T15:45:00",15.399,16.077808,0.084],
    [13134,"urn:WaterMeter:MC0203J22010600005","2024-02-26T16:00:00",15.199,16.04022,0.083],
    [13135,"urn:WaterMeter:MC0203J22010600005","2024-02-26T16:15:00",15,16.033627,0.08],
    [13136,"urn:WaterMeter:MC0203J22010600005","2024-02-26T16:30:00",14.8,16.059227,0.08],
    [13137,"urn:WaterMeter:MC0203J22010600005","2024-02-26T16:45:00",14.6,15.975441,0.082],
    [13138,"urn:WaterMeter:MC0203J22010600005","2024-02-26T17:00:00",14.399,16.009926,0.085],
    [13139,"urn:WaterMeter:MC0203J22010600005","2024-02-26T17:15:00",14.3,16.017334,0.083],
    [13140,"urn:WaterMeter:MC0203J22010600005","2024-02-26T17:30:00",14.1,15.963804,0.087],
    [13141,"urn:WaterMeter:MC0203J22010600005","2024-02-26T17:45:00",14,15.9866905,0.085],
    [13142,"urn:WaterMeter:MC0203J22010600005","2024-02-26T18:00:00",13.8,15.991733,0.084],
    [13143,"urn:WaterMeter:MC0203J22010600005","2024-02-26T18:15:00",13.699,15.999064,0.084],
    [13144,"urn:WaterMeter:MC0203J22010600005","2024-02-26T18:30:00",13.5,15.974666,0.083],
    [13145,"urn:WaterMeter:MC0203J22010600005","2024-02-26T18:45:00",13.399,16.033627,0.081],
    [13146,"urn:WaterMeter:MC0203J22010600005","2024-02-26T19:00:00",13.199,15.992897,0.084],
    [13147,"urn:WaterMeter:MC0203J22010600005","2024-02-26T19:15:00",13.1,16.046,0.084],
    [13148,"urn:WaterMeter:MC0203J22010600005","2024-02-26T19:30:00",12.899,15.950965,0.084],
    [13149,"urn:WaterMeter:MC0203J22010600005","2024-02-26T19:45:00",12.8,16.033627,0.084],
    [13150,"urn:WaterMeter:MC0203J22010600005","2024-02-26T20:00:00",12.699,16.004147,0.084],
    [13151,"urn:WaterMeter:MC0203J22010600005","2024-02-26T20:15:00",12.6,16.030134,0.082],
    [13152,"urn:WaterMeter:MC0203J22010600005","2024-02-26T20:30:00",12.5,15.976217,0.084],
    [13153,"urn:WaterMeter:MC0203J22010600005","2024-02-26T20:45:00",12.399,15.957986,0.082],
    [13154,"urn:WaterMeter:MC0203J22010600005","2024-02-26T21:00:00",12.3,15.9479,0.083],
    [13155,"urn:WaterMeter:MC0203J22010600005","2024-02-26T21:15:00",12.199,16.037855,0.082],
    [13156,"urn:WaterMeter:MC0203J22010600005","2024-02-26T21:30:00",12.1,16.006474,0.083],
    [13157,"urn:WaterMeter:MC0203J22010600005","2024-02-26T21:45:00",12.1,15.993672,0.084],
    [13158,"urn:WaterMeter:MC0203J22010600005","2024-02-26T22:00:00",12,16.011517,0.089],
    [13159,"urn:WaterMeter:MC0203J22010600005","2024-02-26T22:15:00",11.899,15.954883,0.083],
    [13160,"urn:WaterMeter:MC0203J22010600005","2024-02-26T22:30:00",11.899,15.989367,0.082],
    [13161,"urn:WaterMeter:MC0203J22010600005","2024-02-26T22:45:00",11.8,15.99053,0.079],
    [13162,"urn:WaterMeter:MC0203J22010600005","2024-02-26T23:00:00",11.8,16.019236,0.084],
    [13163,"urn:WaterMeter:MC0203J22010600005","2024-02-26T23:15:00",11.8,15.984751,0.082],
    [13164,"urn:WaterMeter:MC0203J22010600005","2024-02-26T23:30:00",11.8,16.004147,0.083],
    [13165,"urn:WaterMeter:MC0203J22010600005","2024-02-26T23:45:00",11.699,15.961825,0.082],
    [13166,"urn:WaterMeter:MC0203J22010600005","2024-02-27T00:00:00",11.699,16.00915,0.082],
    [13167,"urn:WaterMeter:MC0203J22010600005","2024-02-27T00:15:00",11.699,15.988203,0.081],
    [13168,"urn:WaterMeter:MC0203J22010600005","2024-02-27T00:30:00",11.6,15.952555,0.083],
    [13169,"urn:WaterMeter:MC0203J22010600005","2024-02-27T00:45:00",11.6,15.992509,0.081],
    [13170,"urn:WaterMeter:MC0203J22010600005","2024-02-27T01:00:00",11.6,16.032463,0.083],
    [13171,"urn:WaterMeter:MC0203J22010600005","2024-02-27T01:15:00",11.6,16.028545,0.082],
    [13172,"urn:WaterMeter:MC0203J22010600005","2024-02-27T01:30:00",11.6,15.998327,0.083],
    [13173,"urn:WaterMeter:MC0203J22010600005","2024-02-27T01:45:00",11.6,15.975053,0.081],
    [13174,"urn:WaterMeter:MC0203J22010600005","2024-02-27T02:00:00",11.5,16.015783,0.082],
    [13175,"urn:WaterMeter:MC0203J22010600005","2024-02-27T02:15:00",11.5,15.998715,0.085],
    [13176,"urn:WaterMeter:MC0203J22010600005","2024-02-27T02:30:00",11.5,15.972338,0.081],
    [13177,"urn:WaterMeter:MC0203J22010600005","2024-02-27T02:45:00",11.5,16.01074,0.079],
    [13178,"urn:WaterMeter:MC0203J22010600005","2024-02-27T03:00:00",11.399,16.019236,0.078],
    [13179,"urn:WaterMeter:MC0203J22010600005","2024-02-27T03:15:00",11.3,15.938978,0.085],
    [13180,"urn:WaterMeter:MC0203J22010600005","2024-02-27T03:30:00",11.199,15.96842,0.087],
    [13181,"urn:WaterMeter:MC0203J22010600005","2024-02-27T03:45:00",11.1,15.972726,0.083],
    [13182,"urn:WaterMeter:MC0203J22010600005","2024-02-27T04:00:00",11.1,16.002207,0.079],
    [13183,"urn:WaterMeter:MC0203J22010600005","2024-02-27T04:15:00",11,16.015007,0.084],
    [13184,"urn:WaterMeter:MC0203J22010600005","2024-02-27T04:30:00",10.899,16.017334,0.079],
    [13185,"urn:WaterMeter:MC0203J22010600005","2024-02-27T04:45:00",10.899,15.979321,0.086],
    [13186,"urn:WaterMeter:MC0203J22010600005","2024-02-27T05:00:00",10.8,15.980057,0.085],
    [13187,"urn:WaterMeter:MC0203J22010600005","2024-02-27T05:15:00",10.8,15.988978,0.081],
    [13188,"urn:WaterMeter:MC0203J22010600005","2024-02-27T05:30:00",10.699,15.963028,0.081],
    [13189,"urn:WaterMeter:MC0203J22010600005","2024-02-27T05:45:00",10.699,15.939366,0.082],
    [13190,"urn:WaterMeter:MC0203J22010600005","2024-02-27T06:00:00",10.6,16.024704,0.084],
    [13191,"urn:WaterMeter:MC0203J22010600005","2024-02-27T06:15:00",10.6,15.959925,0.082],
    [13192,"urn:WaterMeter:MC0203J22010600005","2024-02-27T06:30:00",10.6,16.01423,0.084],
    [13193,"urn:WaterMeter:MC0203J22010600005","2024-02-27T06:45:00",10.6,16.011517,0.082],
    [13194,"urn:WaterMeter:MC0203J22010600005","2024-02-27T07:00:00",10.6,15.936651,0.085],
    [13195,"urn:WaterMeter:MC0203J22010600005","2024-02-27T07:15:00",10.5,16.00337,0.082],
    [13196,"urn:WaterMeter:MC0203J22010600005","2024-02-27T07:30:00",10.5,15.973114,0.084],
    [13197,"urn:WaterMeter:MC0203J22010600005","2024-02-27T07:45:00",10.5,15.992897,0.082],
    [13198,"urn:WaterMeter:MC0203J22010600005","2024-02-27T08:00:00",10.5,15.962641,0.082],
    [13199,"urn:WaterMeter:MC0203J22010600005","2024-02-27T08:15:00",10.5,16.011904,0.082],
    [13200,"urn:WaterMeter:MC0203J22010600005","2024-02-27T08:30:00",10.6,15.963416,0.081],
    [13201,"urn:WaterMeter:MC0203J22010600005","2024-02-27T08:45:00",10.8,15.997164,0.08],
    [13202,"urn:WaterMeter:MC0203J22010600005","2024-02-27T09:00:00",11,16.055737,0.078],
    [13203,"urn:WaterMeter:MC0203J22010600005","2024-02-27T09:15:00",11.3,16.007986,0.078],
    [13204,"urn:WaterMeter:MC0203J22010600005","2024-02-27T09:30:00",11.6,16.048328,0.081],
    [13205,"urn:WaterMeter:MC0203J22010600005","2024-02-27T09:45:00",11.899,15.97195,0.08],
    [13206,"urn:WaterMeter:MC0203J22010600005","2024-02-27T10:00:00",12.199,16.042547,0.081],
    [13207,"urn:WaterMeter:MC0203J22010600005","2024-02-27T10:15:00",12.5,16.02199,0.081],
    [13208,"urn:WaterMeter:MC0203J22010600005","2024-02-27T10:30:00",12.8,16.00721,0.078],
    [13209,"urn:WaterMeter:MC0203J22010600005","2024-02-27T10:45:00",12.899,16.020437,0.081],
    [13210,"urn:WaterMeter:MC0203J22010600005","2024-02-27T11:00:00",13,16.007986,0.081],
    [13211,"urn:WaterMeter:MC0203J22010600005","2024-02-27T11:15:00",13,15.99053,0.079],
    [13212,"urn:WaterMeter:MC0203J22010600005","2024-02-27T11:30:00",13.1,16.06427,0.079],
    [13213,"urn:WaterMeter:MC0203J22010600005","2024-02-27T11:45:00",13.199,15.999064,0.079],
    [13214,"urn:WaterMeter:MC0203J22010600005","2024-02-27T12:00:00",13.199,16.045612,0.078],
    [13215,"urn:WaterMeter:MC0203J22010600005","2024-02-27T12:15:00",13.3,16.026993,0.083],
    [13216,"urn:WaterMeter:MC0203J22010600005","2024-02-27T12:30:00",13.399,15.985526,0.08],
    [13217,"urn:WaterMeter:MC0203J22010600005","2024-02-27T12:45:00",13.399,16.002594,0.075],
    [13218,"urn:WaterMeter:MC0203J22010600005","2024-02-27T13:00:00",13.5,15.983199,0.08],
    [13219,"urn:WaterMeter:MC0203J22010600005","2024-02-27T13:15:00",13.5,15.983974,0.079],
    [13220,"urn:WaterMeter:MC0203J22010600005","2024-02-27T13:30:00",13.5,15.937039,0.079],
    [13221,"urn:WaterMeter:MC0203J22010600005","2024-02-27T13:45:00",13.699,16.003757,0.081],
    [13222,"urn:WaterMeter:MC0203J22010600005","2024-02-27T14:00:00",13.8,16.017723,0.081],
    [13223,"urn:WaterMeter:MC0203J22010600005","2024-02-27T14:15:00",13.8,15.964192,0.084],
    [13224,"urn:WaterMeter:MC0203J22010600005","2024-02-27T14:30:00",14,15.989367,0.077],
    [13225,"urn:WaterMeter:MC0203J22010600005","2024-02-27T14:45:00",14.199,15.960662,0.079],
    [13226,"urn:WaterMeter:MC0203J22010600005","2024-02-27T15:00:00",14.3,15.998715,0.078],
    [13227,"urn:WaterMeter:MC0203J22010600005","2024-02-27T15:15:00",14.3,15.908722,0.08],
    [13228,"urn:WaterMeter:MC0203J22010600005","2024-02-27T15:30:00",14.199,15.995224,0.083],
    [13229,"urn:WaterMeter:MC0203J22010600005","2024-02-27T15:45:00",14.1,15.982423,0.084],
    [13230,"urn:WaterMeter:MC0203J22010600005","2024-02-27T16:00:00",14,15.962641,0.079],
    [13231,"urn:WaterMeter:MC0203J22010600005","2024-02-27T16:15:00",13.899,15.967296,0.079],
    [13232,"urn:WaterMeter:MC0203J22010600005","2024-02-27T16:30:00",13.8,15.999452,0.078],
    [13233,"urn:WaterMeter:MC0203J22010600005","2024-02-27T16:45:00",13.8,15.937039,0.079],
    [13234,"urn:WaterMeter:MC0203J22010600005","2024-02-27T17:00:00",13.699,15.9742775,0.079],
    [13235,"urn:WaterMeter:MC0203J22010600005","2024-02-27T17:15:00",13.699,15.936651,0.08],
    [13236,"urn:WaterMeter:MC0203J22010600005","2024-02-27T17:30:00",13.6,15.987427,0.083],
    [13237,"urn:WaterMeter:MC0203J22010600005","2024-02-27T17:45:00",13.5,15.975441,0.082],
    [13238,"urn:WaterMeter:MC0203J22010600005","2024-02-27T18:00:00",13.399,15.976993,0.081],
    [13239,"urn:WaterMeter:MC0203J22010600005","2024-02-27T18:15:00",13.3,15.91842,0.082],
    [13240,"urn:WaterMeter:MC0203J22010600005","2024-02-27T18:30:00",13.199,15.960274,0.077],
    [13241,"urn:WaterMeter:MC0203J22010600005","2024-02-27T18:45:00",13.1,15.937815,0.077],
    [13242,"urn:WaterMeter:MC0203J22010600005","2024-02-27T19:00:00",13.1,15.896697,0.079],
    [13243,"urn:WaterMeter:MC0203J22010600005","2024-02-27T19:15:00",13.1,15.923036,0.081],
    [13244,"urn:WaterMeter:MC0203J22010600005","2024-02-27T19:30:00",13,15.898637,0.078],
    [13245,"urn:WaterMeter:MC0203J22010600005","2024-02-27T19:45:00",13,15.925402,0.08],
    [13246,"urn:WaterMeter:MC0203J22010600005","2024-02-27T20:00:00",13,15.956821,0.084],
    [13247,"urn:WaterMeter:MC0203J22010600005","2024-02-27T20:15:00",13,15.92963,0.08],
    [13248,"urn:WaterMeter:MC0203J22010600005","2024-02-27T20:30:00",12.899,15.914541,0.082],
    [13249,"urn:WaterMeter:MC0203J22010600005","2024-02-27T20:45:00",12.8,15.910623,0.081],
    [13250,"urn:WaterMeter:MC0203J22010600005","2024-02-27T21:00:00",12.699,15.958373,0.083],
    [13251,"urn:WaterMeter:MC0203J22010600005","2024-02-27T21:15:00",12.6,15.900188,0.081],
    [13252,"urn:WaterMeter:MC0203J22010600005","2024-02-27T21:30:00",12.5,15.90717,0.085],
    [13253,"urn:WaterMeter:MC0203J22010600005","2024-02-27T21:45:00",12.399,15.942043,0.082],
    [13254,"urn:WaterMeter:MC0203J22010600005","2024-02-27T22:00:00",12.3,15.912562,0.085],
    [13255,"urn:WaterMeter:MC0203J22010600005","2024-02-27T22:15:00",12.199,15.900965,0.082],
    [13256,"urn:WaterMeter:MC0203J22010600005","2024-02-27T22:30:00",12.1,15.918808,0.08],
    [13257,"urn:WaterMeter:MC0203J22010600005","2024-02-27T22:45:00",12,15.871445,0.083],
    [13258,"urn:WaterMeter:MC0203J22010600005","2024-02-27T23:00:00",11.899,15.875363,0.078],
    [13259,"urn:WaterMeter:MC0203J22010600005","2024-02-27T23:15:00",11.8,15.906395,0.082],
    [13260,"urn:WaterMeter:MC0203J22010600005","2024-02-27T23:30:00",11.699,15.923036,0.084],
    [13261,"urn:WaterMeter:MC0203J22010600005","2024-02-27T23:45:00",11.6,15.907947,0.082],
    [13262,"urn:WaterMeter:MC0203J22010600005","2024-02-28T00:00:00",11.6,15.928118,0.082],
    [13263,"urn:WaterMeter:MC0203J22010600005","2024-02-28T00:15:00",11.5,15.857907,0.077],
    [13264,"urn:WaterMeter:MC0203J22010600005","2024-02-28T00:30:00",11.399,15.92385,0.08],
    [13265,"urn:WaterMeter:MC0203J22010600005","2024-02-28T00:45:00",11.3,15.857907,0.081],
    [13266,"urn:WaterMeter:MC0203J22010600005","2024-02-28T01:00:00",11.199,15.876139,0.08],
    [13267,"urn:WaterMeter:MC0203J22010600005","2024-02-28T01:15:00",11.1,15.928118,0.079],
    [13268,"urn:WaterMeter:MC0203J22010600005","2024-02-28T01:30:00",11,15.838512,0.084],
    [13269,"urn:WaterMeter:MC0203J22010600005","2024-02-28T01:45:00",10.899,15.845068,0.081],
    [13270,"urn:WaterMeter:MC0203J22010600005","2024-02-28T02:00:00",10.8,15.887775,0.083],
    [13271,"urn:WaterMeter:MC0203J22010600005","2024-02-28T02:15:00",10.8,15.917644,0.081],
    [13272,"urn:WaterMeter:MC0203J22010600005","2024-02-28T02:30:00",10.6,15.900188,0.081],
    [13273,"urn:WaterMeter:MC0203J22010600005","2024-02-28T02:45:00",10.6,15.907947,0.081],
    [13274,"urn:WaterMeter:MC0203J22010600005","2024-02-28T03:00:00",10.5,15.914153,0.082],
    [13275,"urn:WaterMeter:MC0203J22010600005","2024-02-28T03:15:00",10.399,15.829979,0.08],
    [13276,"urn:WaterMeter:MC0203J22010600005","2024-02-28T03:30:00",10.399,15.856356,0.08],
    [13277,"urn:WaterMeter:MC0203J22010600005","2024-02-28T03:45:00",10.3,15.92226,0.08],
    [13278,"urn:WaterMeter:MC0203J22010600005","2024-02-28T04:00:00",10.199,15.904067,0.079],
    [13279,"urn:WaterMeter:MC0203J22010600005","2024-02-28T04:15:00",10.199,15.893556,0.085],
    [13280,"urn:WaterMeter:MC0203J22010600005","2024-02-28T04:30:00",10.1,15.847434,0.082],
    [13281,"urn:WaterMeter:MC0203J22010600005","2024-02-28T04:45:00",10.1,15.919195,0.081],
    [13282,"urn:WaterMeter:MC0203J22010600005","2024-02-28T05:00:00",10,15.915317,0.082],
    [13283,"urn:WaterMeter:MC0203J22010600005","2024-02-28T05:15:00",10,15.841616,0.08],
    [13284,"urn:WaterMeter:MC0203J22010600005","2024-02-28T05:30:00",9.899,15.887388,0.08],
    [13285,"urn:WaterMeter:MC0203J22010600005","2024-02-28T05:45:00",9.8,15.898637,0.079],
    [13286,"urn:WaterMeter:MC0203J22010600005","2024-02-28T06:00:00",9.8,15.87769,0.082],
    [13287,"urn:WaterMeter:MC0203J22010600005","2024-02-28T06:15:00",9.699,15.902477,0.082],
    [13288,"urn:WaterMeter:MC0203J22010600005","2024-02-28T06:30:00",9.699,15.880405,0.08],
    [13289,"urn:WaterMeter:MC0203J22010600005","2024-02-28T06:45:00",9.6,15.889327,0.082],
    [13290,"urn:WaterMeter:MC0203J22010600005","2024-02-28T07:00:00",9.6,15.825285,0.08],
    [13291,"urn:WaterMeter:MC0203J22010600005","2024-02-28T07:15:00",9.6,15.924238,0.084],
    [13292,"urn:WaterMeter:MC0203J22010600005","2024-02-28T07:30:00",9.5,15.87963,0.082],
    [13293,"urn:WaterMeter:MC0203J22010600005","2024-02-28T07:45:00",9.5,15.887,0.083],
    [13294,"urn:WaterMeter:MC0203J22010600005","2024-02-28T08:00:00",9.5,15.904455,0.081],
    [13295,"urn:WaterMeter:MC0203J22010600005","2024-02-28T08:15:00",9.5,15.864851,0.08],
    [13296,"urn:WaterMeter:MC0203J22010600005","2024-02-28T08:30:00",9.5,15.912174,0.082],
    [13297,"urn:WaterMeter:MC0203J22010600005","2024-02-28T08:45:00",9.6,15.887775,0.079],
    [13298,"urn:WaterMeter:MC0203J22010600005","2024-02-28T09:00:00",9.699,15.928118,0.083],
    [13299,"urn:WaterMeter:MC0203J22010600005","2024-02-28T09:15:00",9.899,15.868769,0.076],
    [13300,"urn:WaterMeter:MC0203J22010600005","2024-02-28T09:30:00",10.1,15.942043,0.079],
    [13301,"urn:WaterMeter:MC0203J22010600005","2024-02-28T09:45:00",10.399,15.933548,0.078],
    [13302,"urn:WaterMeter:MC0203J22010600005","2024-02-28T10:00:00",10.699,15.880405,0.079],
    [13303,"urn:WaterMeter:MC0203J22010600005","2024-02-28T10:15:00",10.899,15.911011,0.07],
    [13304,"urn:WaterMeter:MC0203J22010600005","2024-02-28T10:30:00",11.199,15.851663,0.079],
    [13305,"urn:WaterMeter:MC0203J22010600005","2024-02-28T10:45:00",11.6,15.865277,0.076],
    [13306,"urn:WaterMeter:MC0203J22010600005","2024-02-28T11:00:00",11.899,15.842779,0.078],
    [13307,"urn:WaterMeter:MC0203J22010600005","2024-02-28T11:15:00",12.3,15.9424305,0.078],
    [13308,"urn:WaterMeter:MC0203J22010600005","2024-02-28T11:30:00",12.8,15.930406,0.075],
    [13309,"urn:WaterMeter:MC0203J22010600005","2024-02-28T11:45:00",13.3,15.976993,0.077],
    [13310,"urn:WaterMeter:MC0203J22010600005","2024-02-28T12:00:00",13.699,15.9498005,0.076],
    [13311,"urn:WaterMeter:MC0203J22010600005","2024-02-28T12:15:00",14,16.02001,0.078],
    [13312,"urn:WaterMeter:MC0203J22010600005","2024-02-28T12:30:00",14.199,15.9816475,0.073],
    [13313,"urn:WaterMeter:MC0203J22010600005","2024-02-28T12:45:00",14.3,15.973114,0.076],
    [13314,"urn:WaterMeter:MC0203J22010600005","2024-02-28T13:00:00",14.5,15.940143,0.075],
    [13315,"urn:WaterMeter:MC0203J22010600005","2024-02-28T13:15:00",14.6,15.92385,0.08],
    [13316,"urn:WaterMeter:MC0203J22010600005","2024-02-28T13:30:00",14.699,15.9397545,0.078],
    [13317,"urn:WaterMeter:MC0203J22010600005","2024-02-28T13:45:00",14.699,15.888164,0.085],
    [13318,"urn:WaterMeter:MC0203J22010600005","2024-02-28T14:00:00",14.699,15.910235,0.079],
    [13319,"urn:WaterMeter:MC0203J22010600005","2024-02-28T14:15:00",14.8,15.890841,0.077],
    [13320,"urn:WaterMeter:MC0203J22010600005","2024-02-28T14:30:00",14.8,15.836961,0.078],
    [13321,"urn:WaterMeter:MC0203J22010600005","2024-02-28T14:45:00",14.8,15.90174,0.078],
    [13322,"urn:WaterMeter:MC0203J22010600005","2024-02-28T15:00:00",14.699,15.930794,0.079],
    [13323,"urn:WaterMeter:MC0203J22010600005","2024-02-28T15:15:00",14.699,15.889327,0.075],
    [13324,"urn:WaterMeter:MC0203J22010600005","2024-02-28T15:30:00",14.699,15.897473,0.079],
    [13325,"urn:WaterMeter:MC0203J22010600005","2024-02-28T15:45:00",14.8,15.912562,0.078],
    [13326,"urn:WaterMeter:MC0203J22010600005","2024-02-28T16:00:00",14.8,15.8636875,0.081],
    [13327,"urn:WaterMeter:MC0203J22010600005","2024-02-28T16:15:00",14.8,15.874975,0.077],
    [13328,"urn:WaterMeter:MC0203J22010600005","2024-02-28T16:30:00",14.699,15.856356,0.079],
    [13329,"urn:WaterMeter:MC0203J22010600005","2024-02-28T16:45:00",14.699,15.861787,0.08],
    [13330,"urn:WaterMeter:MC0203J22010600005","2024-02-28T17:00:00",14.699,15.850925,0.078],
    [13331,"urn:WaterMeter:MC0203J22010600005","2024-02-28T17:15:00",14.6,15.845882,0.079],
    [13332,"urn:WaterMeter:MC0203J22010600005","2024-02-28T17:30:00",14.5,15.782267,0.078],
    [13333,"urn:WaterMeter:MC0203J22010600005","2024-02-28T17:45:00",14.399,15.790413,0.074],
    [13334,"urn:WaterMeter:MC0203J22010600005","2024-02-28T18:00:00",14.3,15.814812,0.079],
    [13335,"urn:WaterMeter:MC0203J22010600005","2024-02-28T18:15:00",14.1,15.75395,0.078],
    [13336,"urn:WaterMeter:MC0203J22010600005","2024-02-28T18:30:00",13.8,15.77447,0.077],
    [13337,"urn:WaterMeter:MC0203J22010600005","2024-02-28T18:45:00",13.6,15.769466,0.081],
    [13338,"urn:WaterMeter:MC0203J22010600005","2024-02-28T19:00:00",13.3,15.769855,0.082],
    [13339,"urn:WaterMeter:MC0203J22010600005","2024-02-28T19:15:00",13.1,15.775634,0.082],
    [13340,"urn:WaterMeter:MC0203J22010600005","2024-02-28T19:30:00",12.8,15.711669,0.081],
    [13341,"urn:WaterMeter:MC0203J22010600005","2024-02-28T19:45:00",12.699,15.804378,0.081],
    [13342,"urn:WaterMeter:MC0203J22010600005","2024-02-28T20:00:00",12.6,15.814424,0.079],
    [13343,"urn:WaterMeter:MC0203J22010600005","2024-02-28T20:15:00",12.399,15.772957,0.082],
    [13344,"urn:WaterMeter:MC0203J22010600005","2024-02-28T20:30:00",12.3,15.751235,0.082],
    [13345,"urn:WaterMeter:MC0203J22010600005","2024-02-28T20:45:00",12.1,15.723306,0.082],
    [13346,"urn:WaterMeter:MC0203J22010600005","2024-02-28T21:00:00",12,15.696503,0.081],
    [13347,"urn:WaterMeter:MC0203J22010600005","2024-02-28T21:15:00",11.8,15.776022,0.078],
    [13348,"urn:WaterMeter:MC0203J22010600005","2024-02-28T21:30:00",11.6,15.710117,0.077],
    [13349,"urn:WaterMeter:MC0203J22010600005","2024-02-28T21:45:00",11.399,15.783043,0.082],
    [13350,"urn:WaterMeter:MC0203J22010600005","2024-02-28T22:00:00",11.3,15.722142,0.081],
    [13351,"urn:WaterMeter:MC0203J22010600005","2024-02-28T22:15:00",11.1,15.717836,0.082],
    [13352,"urn:WaterMeter:MC0203J22010600005","2024-02-28T22:30:00",10.899,15.733779,0.082],
    [13353,"urn:WaterMeter:MC0203J22010600005","2024-02-28T22:45:00",10.699,15.78537,0.081],
    [13354,"urn:WaterMeter:MC0203J22010600005","2024-02-28T23:00:00",10.6,15.701972,0.081],
    [13355,"urn:WaterMeter:MC0203J22010600005","2024-02-28T23:15:00",10.5,15.747705,0.081],
    [13356,"urn:WaterMeter:MC0203J22010600005","2024-02-28T23:30:00",10.3,15.728698,0.08],
    [13357,"urn:WaterMeter:MC0203J22010600005","2024-02-28T23:45:00",10.199,15.764035,0.082],
    [13358,"urn:WaterMeter:MC0203J22010600005","2024-02-29T00:00:00",10.1,15.702747,0.081],
    [13359,"urn:WaterMeter:MC0203J22010600005","2024-02-29T00:15:00",10.1,15.723694,0.08],
    [13360,"urn:WaterMeter:MC0203J22010600005","2024-02-29T00:30:00",10,15.776022,0.078],
    [13361,"urn:WaterMeter:MC0203J22010600005","2024-02-29T00:45:00",10,15.769466,0.085],
    [13362,"urn:WaterMeter:MC0203J22010600005","2024-02-29T01:00:00",9.899,15.734943,0.08],
    [13363,"urn:WaterMeter:MC0203J22010600005","2024-02-29T01:15:00",10,15.705075,0.078],
    [13364,"urn:WaterMeter:MC0203J22010600005","2024-02-29T01:30:00",10.1,15.728698,0.079],
    [13365,"urn:WaterMeter:MC0203J22010600005","2024-02-29T01:45:00",10.3,15.799723,0.082],
    [13366,"urn:WaterMeter:MC0203J22010600005","2024-02-29T02:00:00",10.399,15.798171,0.08],
    [13367,"urn:WaterMeter:MC0203J22010600005","2024-02-29T02:15:00",10.5,15.7302885,0.078],
    [13368,"urn:WaterMeter:MC0203J22010600005","2024-02-29T02:30:00",10.5,15.738008,0.079],
    [13369,"urn:WaterMeter:MC0203J22010600005","2024-02-29T02:45:00",10.5,15.757014,0.077],
    [13370,"urn:WaterMeter:MC0203J22010600005","2024-02-29T03:00:00",10.399,15.721367,0.079],
    [13371,"urn:WaterMeter:MC0203J22010600005","2024-02-29T03:15:00",10.5,15.758993,0.083],
    [13372,"urn:WaterMeter:MC0203J22010600005","2024-02-29T03:30:00",10.5,15.769078,0.079],
    [13373,"urn:WaterMeter:MC0203J22010600005","2024-02-29T03:45:00",10.5,15.717449,0.08],
    [13374,"urn:WaterMeter:MC0203J22010600005","2024-02-29T04:00:00",10.5,15.757014,0.077],
    [13375,"urn:WaterMeter:MC0203J22010600005","2024-02-29T04:15:00",10.399,15.782655,0.082],
    [13376,"urn:WaterMeter:MC0203J22010600005","2024-02-29T04:30:00",10.399,15.77447,0.083],
    [13377,"urn:WaterMeter:MC0203J22010600005","2024-02-29T04:45:00",10.399,15.786495,0.081],
    [13378,"urn:WaterMeter:MC0203J22010600005","2024-02-29T05:00:00",10.399,15.756239,0.079],
    [13379,"urn:WaterMeter:MC0203J22010600005","2024-02-29T05:15:00",10.399,15.748093,0.08],
    [13380,"urn:WaterMeter:MC0203J22010600005","2024-02-29T05:30:00",10.3,15.796192,0.081],
    [13381,"urn:WaterMeter:MC0203J22010600005","2024-02-29T05:45:00",10.3,15.811748,0.08],
    [13382,"urn:WaterMeter:MC0203J22010600005","2024-02-29T06:00:00",10.3,15.725634,0.08],
    [13383,"urn:WaterMeter:MC0203J22010600005","2024-02-29T06:15:00",10.3,15.761708,0.078],
    [13384,"urn:WaterMeter:MC0203J22010600005","2024-02-29T06:30:00",10.199,15.798558,0.08],
    [13385,"urn:WaterMeter:MC0203J22010600005","2024-02-29T06:45:00",10.199,15.722142,0.079],
    [13386,"urn:WaterMeter:MC0203J22010600005","2024-02-29T07:00:00",10.199,15.789249,0.079],
    [13387,"urn:WaterMeter:MC0203J22010600005","2024-02-29T07:15:00",10.199,15.7648115,0.08],
    [13388,"urn:WaterMeter:MC0203J22010600005","2024-02-29T07:30:00",10.199,15.81326,0.08],
    [13389,"urn:WaterMeter:MC0203J22010600005","2024-02-29T07:45:00",10.3,15.792353,0.08],
    [13390,"urn:WaterMeter:MC0203J22010600005","2024-02-29T08:00:00",10.3,15.758993,0.078],
    [13391,"urn:WaterMeter:MC0203J22010600005","2024-02-29T08:15:00",10.399,15.745417,0.078],
    [13392,"urn:WaterMeter:MC0203J22010600005","2024-02-29T08:30:00",10.6,15.815975,0.079],
    [13393,"urn:WaterMeter:MC0203J22010600005","2024-02-29T08:45:00",10.8,15.775634,0.078],
    [13394,"urn:WaterMeter:MC0203J22010600005","2024-02-29T09:00:00",11.199,15.789637,0.078],
    [13395,"urn:WaterMeter:MC0203J22010600005","2024-02-29T09:15:00",11.5,15.757402,0.08],
    [13396,"urn:WaterMeter:MC0203J22010600005","2024-02-29T09:30:00",11.899,15.840452,0.084],
    [13397,"urn:WaterMeter:MC0203J22010600005","2024-02-29T09:45:00",12.199,15.783431,0.08],
    [13398,"urn:WaterMeter:MC0203J22010600005","2024-02-29T10:00:00",12.5,15.765975,0.074],
    [13399,"urn:WaterMeter:MC0203J22010600005","2024-02-29T10:15:00",12.8,15.844292,0.077],
    [13400,"urn:WaterMeter:MC0203J22010600005","2024-02-29T10:30:00",13.3,15.836961,0.076],
    [13401,"urn:WaterMeter:MC0203J22010600005","2024-02-29T10:45:00",13.699,15.851663,0.08],
    [13402,"urn:WaterMeter:MC0203J22010600005","2024-02-29T11:00:00",14.1,15.857519,0.077],
    [13403,"urn:WaterMeter:MC0203J22010600005","2024-02-29T11:15:00",14.3,15.880405,0.074],
    [13404,"urn:WaterMeter:MC0203J22010600005","2024-02-29T11:30:00",14.699,15.812135,0.079],
    [13405,"urn:WaterMeter:MC0203J22010600005","2024-02-29T11:45:00",15.199,15.815587,0.076],
    [13406,"urn:WaterMeter:MC0203J22010600005","2024-02-29T12:00:00",15.699,15.856744,0.074],
    [13407,"urn:WaterMeter:MC0203J22010600005","2024-02-29T12:15:00",16.2,15.839676,0.081],
    [13408,"urn:WaterMeter:MC0203J22010600005","2024-02-29T12:30:00",16.5,15.841616,0.074],
    [13409,"urn:WaterMeter:MC0203J22010600005","2024-02-29T12:45:00",16.799,15.82451,0.073],
    [13410,"urn:WaterMeter:MC0203J22010600005","2024-02-29T13:00:00",17,15.819118,0.077],
    [13411,"urn:WaterMeter:MC0203J22010600005","2024-02-29T13:15:00",16.899,15.79658,0.077],
    [13412,"urn:WaterMeter:MC0203J22010600005","2024-02-29T13:30:00",16.899,15.784982,0.075],
    [13413,"urn:WaterMeter:MC0203J22010600005","2024-02-29T13:45:00",16.899,15.783818,0.078],
    [13414,"urn:WaterMeter:MC0203J22010600005","2024-02-29T14:00:00",16.899,15.83537,0.077],
    [13415,"urn:WaterMeter:MC0203J22010600005","2024-02-29T14:15:00",17,15.763648,0.076],
    [13416,"urn:WaterMeter:MC0203J22010600005","2024-02-29T14:30:00",17.1,15.828427,0.078],
    [13417,"urn:WaterMeter:MC0203J22010600005","2024-02-29T14:45:00",17.2,15.782655,0.077],
    [13418,"urn:WaterMeter:MC0203J22010600005","2024-02-29T15:00:00",17.2,15.738783,0.081],
    [13419,"urn:WaterMeter:MC0203J22010600005","2024-02-29T15:15:00",17.2,15.736456,0.078],
    [13420,"urn:WaterMeter:MC0203J22010600005","2024-02-29T15:30:00",17.2,15.76326,0.077],
    [13421,"urn:WaterMeter:MC0203J22010600005","2024-02-29T15:45:00",17.2,15.720979,0.078],
    [13422,"urn:WaterMeter:MC0203J22010600005","2024-02-29T16:00:00",17.1,15.732615,0.078],
    [13423,"urn:WaterMeter:MC0203J22010600005","2024-02-29T16:15:00",17.1,15.772957,0.076],
    [13424,"urn:WaterMeter:MC0203J22010600005","2024-02-29T16:30:00",17,15.707402,0.076],
    [13425,"urn:WaterMeter:MC0203J22010600005","2024-02-29T16:45:00",16.799,15.639481,0.078],
    [13426,"urn:WaterMeter:MC0203J22010600005","2024-02-29T17:00:00",16.7,15.653872,0.079],
    [13427,"urn:WaterMeter:MC0203J22010600005","2024-02-29T17:15:00",16.7,15.669,0.077],
    [13428,"urn:WaterMeter:MC0203J22010600005","2024-02-29T17:30:00",16.5,15.694989,0.079],
    [13429,"urn:WaterMeter:MC0203J22010600005","2024-02-29T17:45:00",16.399,15.680598,0.077],
    [13430,"urn:WaterMeter:MC0203J22010600005","2024-02-29T18:00:00",16.2,15.684516,0.08],
    [13431,"urn:WaterMeter:MC0203J22010600005","2024-02-29T18:15:00",16.1,15.643786,0.081],
    [13432,"urn:WaterMeter:MC0203J22010600005","2024-02-29T18:30:00",16,15.61194,0.077],
    [13433,"urn:WaterMeter:MC0203J22010600005","2024-02-29T18:45:00",15.8,15.632111,0.076],
    [13434,"urn:WaterMeter:MC0203J22010600005","2024-02-29T19:00:00",15.6,15.63758,0.084],
    [13435,"urn:WaterMeter:MC0203J22010600005","2024-02-29T19:15:00",15.5,15.578232,0.079],
    [13436,"urn:WaterMeter:MC0203J22010600005","2024-02-29T19:30:00",15.399,15.600303,0.079],
    [13437,"urn:WaterMeter:MC0203J22010600005","2024-02-29T19:45:00",15.3,15.586377,0.082],
    [13438,"urn:WaterMeter:MC0203J22010600005","2024-02-29T20:00:00",15.1,15.594523,0.08],
    [13439,"urn:WaterMeter:MC0203J22010600005","2024-02-29T20:15:00",15,15.631335,0.08],
    [13440,"urn:WaterMeter:MC0203J22010600005","2024-02-29T20:30:00",14.899,15.626719,0.08],
    [13441,"urn:WaterMeter:MC0203J22010600005","2024-02-29T20:45:00",14.699,15.591769,0.077],
    [13442,"urn:WaterMeter:MC0203J22010600005","2024-02-29T21:00:00",14.5,15.61931,0.082],
    [13443,"urn:WaterMeter:MC0203J22010600005","2024-02-29T21:15:00",14.3,15.595299,0.078],
    [13444,"urn:WaterMeter:MC0203J22010600005","2024-02-29T21:30:00",14.1,15.605385,0.079],
    [13445,"urn:WaterMeter:MC0203J22010600005","2024-02-29T21:45:00",13.899,15.612716,0.082],
    [13446,"urn:WaterMeter:MC0203J22010600005","2024-02-29T22:00:00",13.699,15.544833,0.08],
    [13447,"urn:WaterMeter:MC0203J22010600005","2024-02-29T22:15:00",13.5,15.554957,0.078],
    [13448,"urn:WaterMeter:MC0203J22010600005","2024-02-29T22:30:00",13.3,15.577067,0.079],
    [13449,"urn:WaterMeter:MC0203J22010600005","2024-02-29T22:45:00",13.199,15.524663,0.076],
    [13450,"urn:WaterMeter:MC0203J22010600005","2024-02-29T23:00:00",13.199,15.587929,0.08],
    [13451,"urn:WaterMeter:MC0203J22010600005","2024-02-29T23:15:00",13.3,15.651933,0.081],
    [13452,"urn:WaterMeter:MC0203J22010600005","2024-02-29T23:30:00",13.399,15.629046,0.079],
    [13453,"urn:WaterMeter:MC0203J22010600005","2024-02-29T23:45:00",13.399,15.615858,0.079],
    [13454,"urn:WaterMeter:MC0203J22010600005","2024-03-01T00:00:00",13.399,15.587929,0.079],
    [13455,"urn:WaterMeter:MC0203J22010600005","2024-03-01T00:15:00",13.3,15.596075,0.079],
    [13456,"urn:WaterMeter:MC0203J22010600005","2024-03-01T00:30:00",13.199,15.626331,0.079],
    [13457,"urn:WaterMeter:MC0203J22010600005","2024-03-01T00:45:00",13.1,15.552979,0.082],
    [13458,"urn:WaterMeter:MC0203J22010600005","2024-03-01T01:00:00",13,15.630947,0.082],
    [13459,"urn:WaterMeter:MC0203J22010600005","2024-03-01T01:15:00",12.8,15.542506,0.08],
    [13460,"urn:WaterMeter:MC0203J22010600005","2024-03-01T01:30:00",12.699,15.549139,0.078],
    [13461,"urn:WaterMeter:MC0203J22010600005","2024-03-01T01:45:00",12.6,15.56931,0.081],
    [13462,"urn:WaterMeter:MC0203J22010600005","2024-03-01T02:00:00",12.5,15.570474,0.078],
    [13463,"urn:WaterMeter:MC0203J22010600005","2024-03-01T02:15:00",12.399,15.611164,0.08],
    [13464,"urn:WaterMeter:MC0203J22010600005","2024-03-01T02:30:00",12.3,15.571249,0.076],
    [13465,"urn:WaterMeter:MC0203J22010600005","2024-03-01T02:45:00",12.199,15.596463,0.08],
    [13466,"urn:WaterMeter:MC0203J22010600005","2024-03-01T03:00:00",12.1,15.535951,0.08],
    [13467,"urn:WaterMeter:MC0203J22010600005","2024-03-01T03:15:00",12,15.594912,0.081],
    [13468,"urn:WaterMeter:MC0203J22010600005","2024-03-01T03:30:00",11.899,15.5801325,0.083],
    [13469,"urn:WaterMeter:MC0203J22010600005","2024-03-01T03:45:00",11.899,15.531684,0.081],
    [13470,"urn:WaterMeter:MC0203J22010600005","2024-03-01T04:00:00",11.8,15.545648,0.081],
    [13471,"urn:WaterMeter:MC0203J22010600005","2024-03-01T04:15:00",11.699,15.540217,0.079],
    [13472,"urn:WaterMeter:MC0203J22010600005","2024-03-01T04:30:00",11.699,15.553367,0.081],
    [13473,"urn:WaterMeter:MC0203J22010600005","2024-03-01T04:45:00",11.6,15.513064,0.079],
    [13474,"urn:WaterMeter:MC0203J22010600005","2024-03-01T05:00:00",11.5,15.604609,0.074],
    [13475,"urn:WaterMeter:MC0203J22010600005","2024-03-01T05:15:00",11.399,15.587929,0.076],
    [13476,"urn:WaterMeter:MC0203J22010600005","2024-03-01T05:30:00",11.3,15.525865,0.079],
    [13477,"urn:WaterMeter:MC0203J22010600005","2024-03-01T05:45:00",11.199,15.592545,0.074],
    [13478,"urn:WaterMeter:MC0203J22010600005","2024-03-01T06:00:00",11.1,15.5774555,0.077],
    [13479,"urn:WaterMeter:MC0203J22010600005","2024-03-01T06:15:00",11.1,15.56931,0.081],
    [13480,"urn:WaterMeter:MC0203J22010600005","2024-03-01T06:30:00",11,15.51384,0.081],
    [13481,"urn:WaterMeter:MC0203J22010600005","2024-03-01T06:45:00",11,15.596463,0.079],
    [13482,"urn:WaterMeter:MC0203J22010600005","2024-03-01T07:00:00",10.899,15.505655,0.076],
    [13483,"urn:WaterMeter:MC0203J22010600005","2024-03-01T07:15:00",10.899,15.588705,0.077],
    [13484,"urn:WaterMeter:MC0203J22010600005","2024-03-01T07:30:00",10.899,15.585602,0.079],
    [13485,"urn:WaterMeter:MC0203J22010600005","2024-03-01T07:45:00",10.8,15.59685,0.082],
    [13486,"urn:WaterMeter:MC0203J22010600005","2024-03-01T08:00:00",10.8,15.493281,0.074],
    [13487,"urn:WaterMeter:MC0203J22010600005","2024-03-01T08:15:00",10.899,15.566982,0.08],
    [13488,"urn:WaterMeter:MC0203J22010600005","2024-03-01T08:30:00",10.899,15.589092,0.078],
    [13489,"urn:WaterMeter:MC0203J22010600005","2024-03-01T08:45:00",11.1,15.55263,0.079],
    [13490,"urn:WaterMeter:MC0203J22010600005","2024-03-01T09:00:00",11.3,15.524275,0.08],
    [13491,"urn:WaterMeter:MC0203J22010600005","2024-03-01T09:15:00",11.6,15.586377,0.076],
    [13492,"urn:WaterMeter:MC0203J22010600005","2024-03-01T09:30:00",11.899,15.61194,0.077],
    [13493,"urn:WaterMeter:MC0203J22010600005","2024-03-01T09:45:00",12.199,15.573538,0.08],
    [13494,"urn:WaterMeter:MC0203J22010600005","2024-03-01T10:00:00",12.399,15.607324,0.077],
    [13495,"urn:WaterMeter:MC0203J22010600005","2024-03-01T10:15:00",12.6,15.634477,0.075],
    [13496,"urn:WaterMeter:MC0203J22010600005","2024-03-01T10:30:00",12.899,15.598015,0.077],
    [13497,"urn:WaterMeter:MC0203J22010600005","2024-03-01T10:45:00",13.3,15.634089,0.079],
    [13498,"urn:WaterMeter:MC0203J22010600005","2024-03-01T11:00:00",13.699,15.57474,0.076],
    [13499,"urn:WaterMeter:MC0203J22010600005","2024-03-01T11:15:00",14.1,15.63021,0.075],
    [13500,"urn:WaterMeter:MC0203J22010600005","2024-03-01T11:30:00",14.699,15.671716,0.077],
    [13501,"urn:WaterMeter:MC0203J22010600005","2024-03-01T11:45:00",15.199,15.618922,0.077],
    [13502,"urn:WaterMeter:MC0203J22010600005","2024-03-01T12:00:00",15.6,15.616633,0.074],
    [13503,"urn:WaterMeter:MC0203J22010600005","2024-03-01T12:15:00",15.899,15.656975,0.074],
    [13504,"urn:WaterMeter:MC0203J22010600005","2024-03-01T12:30:00",16.1,15.606936,0.077],
    [13505,"urn:WaterMeter:MC0203J22010600005","2024-03-01T12:45:00",16.299,15.6581,0.077],
    [13506,"urn:WaterMeter:MC0203J22010600005","2024-03-01T13:00:00",16.399,15.583623,0.077],
    [13507,"urn:WaterMeter:MC0203J22010600005","2024-03-01T13:15:00",16.399,15.618185,0.076],
    [13508,"urn:WaterMeter:MC0203J22010600005","2024-03-01T13:30:00",16.5,15.588705,0.076],
    [13509,"urn:WaterMeter:MC0203J22010600005","2024-03-01T13:45:00",16.5,15.573926,0.078],
    [13510,"urn:WaterMeter:MC0203J22010600005","2024-03-01T14:00:00",16.7,15.564228,0.074],
    [13511,"urn:WaterMeter:MC0203J22010600005","2024-03-01T14:15:00",16.899,15.54367,0.075],
    [13512,"urn:WaterMeter:MC0203J22010600005","2024-03-01T14:30:00",16.899,15.5355625,0.075],
    [13513,"urn:WaterMeter:MC0203J22010600005","2024-03-01T14:45:00",16.799,15.536338,0.076],
    [13514,"urn:WaterMeter:MC0203J22010600005","2024-03-01T15:00:00",16.799,15.542506,0.075],
    [13515,"urn:WaterMeter:MC0203J22010600005","2024-03-01T15:15:00",16.7,15.558449,0.077],
    [13516,"urn:WaterMeter:MC0203J22010600005","2024-03-01T15:30:00",16.799,15.554143,0.077],
    [13517,"urn:WaterMeter:MC0203J22010600005","2024-03-01T15:45:00",16.799,15.550691,0.079],
    [13518,"urn:WaterMeter:MC0203J22010600005","2024-03-01T16:00:00",16.7,15.48979,0.078],
    [13519,"urn:WaterMeter:MC0203J22010600005","2024-03-01T16:15:00",16.6,15.46768,0.077],
    [13520,"urn:WaterMeter:MC0203J22010600005","2024-03-01T16:30:00",16.5,15.446694,0.074],
    [13521,"urn:WaterMeter:MC0203J22010600005","2024-03-01T16:45:00",16.299,15.465314,0.077],
    [13522,"urn:WaterMeter:MC0203J22010600005","2024-03-01T17:00:00",16.2,15.452552,0.077],
    [13523,"urn:WaterMeter:MC0203J22010600005","2024-03-01T17:15:00",16.2,15.454492,0.077],
    [13524,"urn:WaterMeter:MC0203J22010600005","2024-03-01T17:30:00",16.1,15.476175,0.078],
    [13525,"urn:WaterMeter:MC0203J22010600005","2024-03-01T17:45:00",15.899,15.476175,0.077],
    [13526,"urn:WaterMeter:MC0203J22010600005","2024-03-01T18:00:00",15.699,15.398595,0.079],
    [13527,"urn:WaterMeter:MC0203J22010600005","2024-03-01T18:15:00",15.399,15.462637,0.077],
    [13528,"urn:WaterMeter:MC0203J22010600005","2024-03-01T18:30:00",15.199,15.46031,0.078],
    [13529,"urn:WaterMeter:MC0203J22010600005","2024-03-01T18:45:00",15,15.470007,0.08],
    [13530,"urn:WaterMeter:MC0203J22010600005","2024-03-01T19:00:00",14.8,15.422296,0.079],
    [13531,"urn:WaterMeter:MC0203J22010600005","2024-03-01T19:15:00",14.699,15.411047,0.076],
    [13532,"urn:WaterMeter:MC0203J22010600005","2024-03-01T19:30:00",14.5,15.4812565,0.075],
    [13533,"urn:WaterMeter:MC0203J22010600005","2024-03-01T19:45:00",14.3,15.384669,0.08],
    [13534,"urn:WaterMeter:MC0203J22010600005","2024-03-01T20:00:00",14.1,15.423072,0.081],
    [13535,"urn:WaterMeter:MC0203J22010600005","2024-03-01T20:15:00",13.899,15.376911,0.08],
    [13536,"urn:WaterMeter:MC0203J22010600005","2024-03-01T20:30:00",13.699,15.423459,0.078],
    [13537,"urn:WaterMeter:MC0203J22010600005","2024-03-01T20:45:00",13.5,15.442079,0.081],
    [13538,"urn:WaterMeter:MC0203J22010600005","2024-03-01T21:00:00",13.3,15.370705,0.078],
    [13539,"urn:WaterMeter:MC0203J22010600005","2024-03-01T21:15:00",13,15.405578,0.077],
    [13540,"urn:WaterMeter:MC0203J22010600005","2024-03-01T21:30:00",12.8,15.348168,0.08],
    [13541,"urn:WaterMeter:MC0203J22010600005","2024-03-01T21:45:00",12.6,15.4246235,0.077],
    [13542,"urn:WaterMeter:MC0203J22010600005","2024-03-01T22:00:00",12.5,15.355965,0.081],
    [13543,"urn:WaterMeter:MC0203J22010600005","2024-03-01T22:15:00",12.199,15.402513,0.079],
    [13544,"urn:WaterMeter:MC0203J22010600005","2024-03-01T22:30:00",12,15.39747,0.079],
    [13545,"urn:WaterMeter:MC0203J22010600005","2024-03-01T22:45:00",11.899,15.369502,0.079],
    [13546,"urn:WaterMeter:MC0203J22010600005","2024-03-01T23:00:00",11.699,15.417214,0.08],
    [13547,"urn:WaterMeter:MC0203J22010600005","2024-03-01T23:15:00",11.5,15.388122,0.08],
    [13548,"urn:WaterMeter:MC0203J22010600005","2024-03-01T23:30:00",11.399,15.348168,0.08],
    [13549,"urn:WaterMeter:MC0203J22010600005","2024-03-01T23:45:00",11.199,15.383894,0.081],
    [13550,"urn:WaterMeter:MC0203J22010600005","2024-03-02T00:00:00",11.1,15.36795,0.082],
    [13551,"urn:WaterMeter:MC0203J22010600005","2024-03-02T00:15:00",10.899,15.35325,0.082],
    [13552,"urn:WaterMeter:MC0203J22010600005","2024-03-02T00:30:00",10.699,15.393979,0.079],
    [13553,"urn:WaterMeter:MC0203J22010600005","2024-03-02T00:45:00",10.6,15.34778,0.077],
    [13554,"urn:WaterMeter:MC0203J22010600005","2024-03-02T01:00:00",10.399,15.410271,0.08],
    [13555,"urn:WaterMeter:MC0203J22010600005","2024-03-02T01:15:00",10.199,15.358293,0.081],
    [13556,"urn:WaterMeter:MC0203J22010600005","2024-03-02T01:30:00",10,15.387733,0.08],
    [13557,"urn:WaterMeter:MC0203J22010600005","2024-03-02T01:45:00",9.899,15.399797,0.081],
    [13558,"urn:WaterMeter:MC0203J22010600005","2024-03-02T02:00:00",9.8,15.354025,0.082],
    [13559,"urn:WaterMeter:MC0203J22010600005","2024-03-02T02:15:00",9.699,15.422684,0.079],
    [13560,"urn:WaterMeter:MC0203J22010600005","2024-03-02T02:30:00",9.6,15.394367,0.081],
    [13561,"urn:WaterMeter:MC0203J22010600005","2024-03-02T02:45:00",9.5,15.40484,0.077],
    [13562,"urn:WaterMeter:MC0203J22010600005","2024-03-02T03:00:00",9.399,15.414926,0.081],
    [13563,"urn:WaterMeter:MC0203J22010600005","2024-03-02T03:15:00",9.3,15.402901,0.081],
    [13564,"urn:WaterMeter:MC0203J22010600005","2024-03-02T03:30:00",9.3,15.434709,0.08],
    [13565,"urn:WaterMeter:MC0203J22010600005","2024-03-02T03:45:00",9.199,15.364886,0.08],
    [13566,"urn:WaterMeter:MC0203J22010600005","2024-03-02T04:00:00",9.1,15.374972,0.081],
    [13567,"urn:WaterMeter:MC0203J22010600005","2024-03-02T04:15:00",9,15.397082,0.082],
    [13568,"urn:WaterMeter:MC0203J22010600005","2024-03-02T04:30:00",8.899,15.419969,0.08],
    [13569,"urn:WaterMeter:MC0203J22010600005","2024-03-02T04:45:00",8.8,15.417603,0.081],
    [13570,"urn:WaterMeter:MC0203J22010600005","2024-03-02T05:00:00",8.699,15.429666,0.079],
    [13571,"urn:WaterMeter:MC0203J22010600005","2024-03-02T05:15:00",8.6,15.391651,0.08],
    [13572,"urn:WaterMeter:MC0203J22010600005","2024-03-02T05:30:00",8.5,15.38273,0.077],
    [13573,"urn:WaterMeter:MC0203J22010600005","2024-03-02T05:45:00",8.5,15.392039,0.078],
    [13574,"urn:WaterMeter:MC0203J22010600005","2024-03-02T06:00:00",8.399,15.398595,0.077],
    [13575,"urn:WaterMeter:MC0203J22010600005","2024-03-02T06:15:00",8.5,15.445531,0.076],
    [13576,"urn:WaterMeter:MC0203J22010600005","2024-03-02T06:30:00",8.6,15.42889,0.08],
    [13577,"urn:WaterMeter:MC0203J22010600005","2024-03-02T06:45:00",8.699,15.428076,0.077],
    [13578,"urn:WaterMeter:MC0203J22010600005","2024-03-02T07:00:00",8.8,15.397082,0.081],
    [13579,"urn:WaterMeter:MC0203J22010600005","2024-03-02T07:15:00",8.8,15.426136,0.079],
    [13580,"urn:WaterMeter:MC0203J22010600005","2024-03-02T07:30:00",8.899,15.433545,0.08],
    [13581,"urn:WaterMeter:MC0203J22010600005","2024-03-02T07:45:00",8.899,15.460698,0.072],
    [13582,"urn:WaterMeter:MC0203J22010600005","2024-03-02T08:00:00",9,15.432381,0.078],
    [13583,"urn:WaterMeter:MC0203J22010600005","2024-03-02T08:15:00",9.1,15.452552,0.079],
    [13584,"urn:WaterMeter:MC0203J22010600005","2024-03-02T08:30:00",9.199,15.46225,0.078],
    [13585,"urn:WaterMeter:MC0203J22010600005","2024-03-02T08:45:00",9.5,15.45678,0.078],
    [13586,"urn:WaterMeter:MC0203J22010600005","2024-03-02T09:00:00",9.8,15.4812565,0.077],
    [13587,"urn:WaterMeter:MC0203J22010600005","2024-03-02T09:15:00",10.199,15.487463,0.079],
    [13588,"urn:WaterMeter:MC0203J22010600005","2024-03-02T09:30:00",10.8,15.511513,0.069],
    [13589,"urn:WaterMeter:MC0203J22010600005","2024-03-02T09:45:00",11.199,15.488238,0.076],
    [13590,"urn:WaterMeter:MC0203J22010600005","2024-03-02T10:00:00",11.699,15.483933,0.076],
    [13591,"urn:WaterMeter:MC0203J22010600005","2024-03-02T10:15:00",12.199,15.447858,0.075],
    [13592,"urn:WaterMeter:MC0203J22010600005","2024-03-02T10:30:00",12.6,15.519271,0.076],
    [13593,"urn:WaterMeter:MC0203J22010600005","2024-03-02T10:45:00",13.1,15.479317,0.071],
    [13594,"urn:WaterMeter:MC0203J22010600005","2024-03-02T11:00:00",13.6,15.533236,0.074],
    [13595,"urn:WaterMeter:MC0203J22010600005","2024-03-02T11:15:00",14.1,15.560738,0.077],
    [13596,"urn:WaterMeter:MC0203J22010600005","2024-03-02T11:30:00",14.8,15.567759,0.075],
    [13597,"urn:WaterMeter:MC0203J22010600005","2024-03-02T11:45:00",15.399,15.514577,0.073],
    [13598,"urn:WaterMeter:MC0203J22010600005","2024-03-02T12:00:00",15.899,15.612716,0.076],
    [13599,"urn:WaterMeter:MC0203J22010600005","2024-03-02T12:15:00",16.399,15.556509,0.073],
    [13600,"urn:WaterMeter:MC0203J22010600005","2024-03-02T12:30:00",16.7,15.562676,0.074],
    [13601,"urn:WaterMeter:MC0203J22010600005","2024-03-02T12:45:00",16.799,15.544445,0.074],
    [13602,"urn:WaterMeter:MC0203J22010600005","2024-03-02T13:00:00",16.899,15.544445,0.076],
    [13603,"urn:WaterMeter:MC0203J22010600005","2024-03-02T13:15:00",17.1,15.502203,0.071],
    [13604,"urn:WaterMeter:MC0203J22010600005","2024-03-02T13:30:00",17.299,15.494445,0.076],
    [13605,"urn:WaterMeter:MC0203J22010600005","2024-03-02T13:45:00",17.399,15.4886265,0.075],
    [13606,"urn:WaterMeter:MC0203J22010600005","2024-03-02T14:00:00",17.399,15.479317,0.074],
    [13607,"urn:WaterMeter:MC0203J22010600005","2024-03-02T14:15:00",17.5,15.490566,0.072],
    [13608,"urn:WaterMeter:MC0203J22010600005","2024-03-02T14:30:00",17.5,15.526253,0.078],
    [13609,"urn:WaterMeter:MC0203J22010600005","2024-03-02T14:45:00",17.6,15.492893,0.079],
    [13610,"urn:WaterMeter:MC0203J22010600005","2024-03-02T15:00:00",17.5,15.41221,0.073],
    [13611,"urn:WaterMeter:MC0203J22010600005","2024-03-02T15:15:00",17.5,15.468843,0.075],
    [13612,"urn:WaterMeter:MC0203J22010600005","2024-03-02T15:30:00",17.399,15.460698,0.075],
    [13613,"urn:WaterMeter:MC0203J22010600005","2024-03-02T15:45:00",17.2,15.410659,0.075],
    [13614,"urn:WaterMeter:MC0203J22010600005","2024-03-02T16:00:00",17,15.42536,0.074],
    [13615,"urn:WaterMeter:MC0203J22010600005","2024-03-02T16:15:00",16.799,15.385057,0.078],
    [13616,"urn:WaterMeter:MC0203J22010600005","2024-03-02T16:30:00",16.6,15.434709,0.077],
    [13617,"urn:WaterMeter:MC0203J22010600005","2024-03-02T16:45:00",16.5,15.353638,0.079],
    [13618,"urn:WaterMeter:MC0203J22010600005","2024-03-02T17:00:00",16.299,15.342776,0.08],
    [13619,"urn:WaterMeter:MC0203J22010600005","2024-03-02T17:15:00",16.1,15.330712,0.079],
    [13620,"urn:WaterMeter:MC0203J22010600005","2024-03-02T17:30:00",16,15.38657,0.078],
    [13621,"urn:WaterMeter:MC0203J22010600005","2024-03-02T17:45:00",15.8,15.36795,0.077],
    [13622,"urn:WaterMeter:MC0203J22010600005","2024-03-02T18:00:00",15.699,15.390876,0.073],
    [13623,"urn:WaterMeter:MC0203J22010600005","2024-03-02T18:15:00",15.6,15.370278,0.077],
    [13624,"urn:WaterMeter:MC0203J22010600005","2024-03-02T18:30:00",15.5,15.32377,0.076],
    [13625,"urn:WaterMeter:MC0203J22010600005","2024-03-02T18:45:00",15.399,15.357516,0.076],
    [13626,"urn:WaterMeter:MC0203J22010600005","2024-03-02T19:00:00",15.3,15.393203,0.08],
    [13627,"urn:WaterMeter:MC0203J22010600005","2024-03-02T19:15:00",15.3,15.352473,0.079],
    [13628,"urn:WaterMeter:MC0203J22010600005","2024-03-02T19:30:00",15.199,15.366438,0.076],
    [13629,"urn:WaterMeter:MC0203J22010600005","2024-03-02T19:45:00",15.1,15.277609,0.078],
    [13630,"urn:WaterMeter:MC0203J22010600005","2024-03-02T20:00:00",15.1,15.3311,0.079],
    [13631,"urn:WaterMeter:MC0203J22010600005","2024-03-02T20:15:00",15,15.296228,0.077],
    [13632,"urn:WaterMeter:MC0203J22010600005","2024-03-02T20:30:00",15,15.304374,0.078],
    [13633,"urn:WaterMeter:MC0203J22010600005","2024-03-02T20:45:00",14.899,15.3136835,0.076],
    [13634,"urn:WaterMeter:MC0203J22010600005","2024-03-02T21:00:00",14.899,15.299332,0.078],
    [13635,"urn:WaterMeter:MC0203J22010600005","2024-03-02T21:15:00",14.8,15.348168,0.077],
    [13636,"urn:WaterMeter:MC0203J22010600005","2024-03-02T21:30:00",14.8,15.367175,0.081],
    [13637,"urn:WaterMeter:MC0203J22010600005","2024-03-02T21:45:00",14.699,15.34394,0.077],
    [13638,"urn:WaterMeter:MC0203J22010600005","2024-03-02T22:00:00",14.6,15.328773,0.079],
    [13639,"urn:WaterMeter:MC0203J22010600005","2024-03-02T22:15:00",14.6,15.279549,0.075],
    [13640,"urn:WaterMeter:MC0203J22010600005","2024-03-02T22:30:00",14.5,15.261317,0.079],
    [13641,"urn:WaterMeter:MC0203J22010600005","2024-03-02T22:45:00",13.6,15.321403,0.08],
    [13642,"urn:WaterMeter:MC0203J22010600005","2024-03-02T23:00:00",12.8,15.235328,0.079],
    [13643,"urn:WaterMeter:MC0203J22010600005","2024-03-02T23:15:00",12.3,15.238819,0.077],
    [13644,"urn:WaterMeter:MC0203J22010600005","2024-03-02T23:30:00",12.1,15.295452,0.08],
    [13645,"urn:WaterMeter:MC0203J22010600005","2024-03-02T23:45:00",11.899,15.253133,0.079],
    [13646,"urn:WaterMeter:MC0203J22010600005","2024-03-03T00:00:00",11.8,15.230673,0.079],
    [13647,"urn:WaterMeter:MC0203J22010600005","2024-03-03T00:15:00",11.699,15.289595,0.077],
    [13648,"urn:WaterMeter:MC0203J22010600005","2024-03-03T00:30:00",11.6,15.217484,0.08],
    [13649,"urn:WaterMeter:MC0203J22010600005","2024-03-03T00:45:00",11.5,15.269075,0.077],
    [13650,"urn:WaterMeter:MC0203J22010600005","2024-03-03T01:00:00",11.399,15.231798,0.079],
    [13651,"urn:WaterMeter:MC0203J22010600005","2024-03-03T01:15:00",11.399,15.226794,0.079],
    [13652,"urn:WaterMeter:MC0203J22010600005","2024-03-03T01:30:00",11.3,15.226406,0.078],
    [13653,"urn:WaterMeter:MC0203J22010600005","2024-03-03T01:45:00",11.3,15.276057,0.076],
    [13654,"urn:WaterMeter:MC0203J22010600005","2024-03-03T02:00:00",11.199,15.3089905,0.079],
    [13655,"urn:WaterMeter:MC0203J22010600005","2024-03-03T02:15:00",11.1,15.267524,0.081],
    [13656,"urn:WaterMeter:MC0203J22010600005","2024-03-03T02:30:00",11,15.274117,0.08],
    [13657,"urn:WaterMeter:MC0203J22010600005","2024-03-03T02:45:00",10.899,15.277609,0.078],
    [13658,"urn:WaterMeter:MC0203J22010600005","2024-03-03T03:00:00",10.8,15.245026,0.079],
    [13659,"urn:WaterMeter:MC0203J22010600005","2024-03-03T03:15:00",10.699,15.294289,0.081],
    [13660,"urn:WaterMeter:MC0203J22010600005","2024-03-03T03:30:00",10.699,15.305925,0.079],
    [13661,"urn:WaterMeter:MC0203J22010600005","2024-03-03T03:45:00",10.6,15.248516,0.078],
    [13662,"urn:WaterMeter:MC0203J22010600005","2024-03-03T04:00:00",10.5,15.331489,0.078],
    [13663,"urn:WaterMeter:MC0203J22010600005","2024-03-03T04:15:00",10.399,15.278385,0.079],
    [13664,"urn:WaterMeter:MC0203J22010600005","2024-03-03T04:30:00",10.399,15.22757,0.078],
    [13665,"urn:WaterMeter:MC0203J22010600005","2024-03-03T04:45:00",10.3,15.281449,0.079],
    [13666,"urn:WaterMeter:MC0203J22010600005","2024-03-03T05:00:00",10.199,15.276057,0.08],
    [13667,"urn:WaterMeter:MC0203J22010600005","2024-03-03T05:15:00",10.1,15.300844,0.083],
    [13668,"urn:WaterMeter:MC0203J22010600005","2024-03-03T05:30:00",10.1,15.326872,0.078],
    [13669,"urn:WaterMeter:MC0203J22010600005","2024-03-03T05:45:00",10,15.278385,0.08],
    [13670,"urn:WaterMeter:MC0203J22010600005","2024-03-03T06:00:00",9.899,15.280712,0.078],
    [13671,"urn:WaterMeter:MC0203J22010600005","2024-03-03T06:15:00",9.899,15.302396,0.081],
    [13672,"urn:WaterMeter:MC0203J22010600005","2024-03-03T06:30:00",9.899,15.315623,0.078],
    [13673,"urn:WaterMeter:MC0203J22010600005","2024-03-03T06:45:00",9.8,15.29584,0.079],
    [13674,"urn:WaterMeter:MC0203J22010600005","2024-03-03T07:00:00",9.699,15.276834,0.079],
    [13675,"urn:WaterMeter:MC0203J22010600005","2024-03-03T07:15:00",9.699,15.3089905,0.079],
    [13676,"urn:WaterMeter:MC0203J22010600005","2024-03-03T07:30:00",9.699,15.317563,0.076],
    [13677,"urn:WaterMeter:MC0203J22010600005","2024-03-03T07:45:00",9.699,15.330324,0.073],
    [13678,"urn:WaterMeter:MC0203J22010600005","2024-03-03T08:00:00",9.8,15.264032,0.078],
    [13679,"urn:WaterMeter:MC0203J22010600005","2024-03-03T08:15:00",9.8,15.279549,0.079],
    [13680,"urn:WaterMeter:MC0203J22010600005","2024-03-03T08:30:00",9.899,15.314072,0.077],
    [13681,"urn:WaterMeter:MC0203J22010600005","2024-03-03T08:45:00",10.1,15.3063135,0.076],
    [13682,"urn:WaterMeter:MC0203J22010600005","2024-03-03T09:00:00",10.399,15.335794,0.079],
    [13683,"urn:WaterMeter:MC0203J22010600005","2024-03-03T09:15:00",10.6,15.336958,0.077],
    [13684,"urn:WaterMeter:MC0203J22010600005","2024-03-03T09:30:00",10.899,15.331489,0.076],
    [13685,"urn:WaterMeter:MC0203J22010600005","2024-03-03T09:45:00",11.199,15.348168,0.077],
    [13686,"urn:WaterMeter:MC0203J22010600005","2024-03-03T10:00:00",11.399,15.363723,0.076],
    [13687,"urn:WaterMeter:MC0203J22010600005","2024-03-03T10:15:00",11.699,15.335018,0.075],
    [13688,"urn:WaterMeter:MC0203J22010600005","2024-03-03T10:30:00",12,15.369502,0.074],
    [13689,"urn:WaterMeter:MC0203J22010600005","2024-03-03T10:45:00",12.3,15.318338,0.076],
    [13690,"urn:WaterMeter:MC0203J22010600005","2024-03-03T11:00:00",12.6,15.340022,0.076],
    [13691,"urn:WaterMeter:MC0203J22010600005","2024-03-03T11:15:00",13,15.348168,0.076],
    [13692,"urn:WaterMeter:MC0203J22010600005","2024-03-03T11:30:00",13.3,15.367175,0.075],
    [13693,"urn:WaterMeter:MC0203J22010600005","2024-03-03T11:45:00",13.6,15.396306,0.074],
    [13694,"urn:WaterMeter:MC0203J22010600005","2024-03-03T12:00:00",13.899,15.372644,0.075],
    [13695,"urn:WaterMeter:MC0203J22010600005","2024-03-03T12:15:00",14,15.376524,0.077],
    [13696,"urn:WaterMeter:MC0203J22010600005","2024-03-03T12:30:00",14.1,15.400186,0.074],
    [13697,"urn:WaterMeter:MC0203J22010600005","2024-03-03T12:45:00",14.399,15.384281,0.075],
    [13698,"urn:WaterMeter:MC0203J22010600005","2024-03-03T13:00:00",14.699,15.354025,0.074],
    [13699,"urn:WaterMeter:MC0203J22010600005","2024-03-03T13:15:00",14.8,15.359417,0.073],
    [13700,"urn:WaterMeter:MC0203J22010600005","2024-03-03T13:30:00",14.899,15.370278,0.077],
    [13701,"urn:WaterMeter:MC0203J22010600005","2024-03-03T13:45:00",15,15.27214,0.075],
    [13702,"urn:WaterMeter:MC0203J22010600005","2024-03-03T14:00:00",15.1,15.333855,0.075],
    [13703,"urn:WaterMeter:MC0203J22010600005","2024-03-03T14:15:00",15.199,15.365663,0.076],
    [13704,"urn:WaterMeter:MC0203J22010600005","2024-03-03T14:30:00",15.3,15.36058,0.077],
    [13705,"urn:WaterMeter:MC0203J22010600005","2024-03-03T14:45:00",15.199,15.349332,0.074],
    [13706,"urn:WaterMeter:MC0203J22010600005","2024-03-03T15:00:00",15.1,15.377299,0.072],
    [13707,"urn:WaterMeter:MC0203J22010600005","2024-03-03T15:15:00",15,15.36058,0.076],
    [13708,"urn:WaterMeter:MC0203J22010600005","2024-03-03T15:30:00",14.8,15.357128,0.073],
    [13709,"urn:WaterMeter:MC0203J22010600005","2024-03-03T15:45:00",14.6,15.275282,0.077],
    [13710,"urn:WaterMeter:MC0203J22010600005","2024-03-03T16:00:00",14.6,15.270588,0.078],
    [13711,"urn:WaterMeter:MC0203J22010600005","2024-03-03T16:15:00",14.5,15.330324,0.076],
    [13712,"urn:WaterMeter:MC0203J22010600005","2024-03-03T16:30:00",14.5,15.260541,0.074],
    [13713,"urn:WaterMeter:MC0203J22010600005","2024-03-03T16:45:00",14.5,15.294289,0.077],
    [13714,"urn:WaterMeter:MC0203J22010600005","2024-03-03T17:00:00",14.399,15.312908,0.075],
    [13715,"urn:WaterMeter:MC0203J22010600005","2024-03-03T17:15:00",14.199,15.221751,0.078],
    [13716,"urn:WaterMeter:MC0203J22010600005","2024-03-03T17:30:00",14.1,15.266747,0.079],
    [13717,"urn:WaterMeter:MC0203J22010600005","2024-03-03T17:45:00",14,15.2570505,0.078],
    [13718,"urn:WaterMeter:MC0203J22010600005","2024-03-03T18:00:00",13.8,15.311317,0.077],
    [13719,"urn:WaterMeter:MC0203J22010600005","2024-03-03T18:15:00",13.699,15.255499,0.083],
    [13720,"urn:WaterMeter:MC0203J22010600005","2024-03-03T18:30:00",13.6,15.2298975,0.078],
    [13721,"urn:WaterMeter:MC0203J22010600005","2024-03-03T18:45:00",13.399,15.262054,0.073],
    [13722,"urn:WaterMeter:MC0203J22010600005","2024-03-03T19:00:00",13.3,15.279549,0.077],
    [13723,"urn:WaterMeter:MC0203J22010600005","2024-03-03T19:15:00",13.199,15.223264,0.079],
    [13724,"urn:WaterMeter:MC0203J22010600005","2024-03-03T19:30:00",13,15.31252,0.079],
    [13725,"urn:WaterMeter:MC0203J22010600005","2024-03-03T19:45:00",13,15.234513,0.075],
    [13726,"urn:WaterMeter:MC0203J22010600005","2024-03-03T20:00:00",12.899,15.289207,0.077],
    [13727,"urn:WaterMeter:MC0203J22010600005","2024-03-03T20:15:00",12.899,15.22757,0.078],
    [13728,"urn:WaterMeter:MC0203J22010600005","2024-03-03T20:30:00",12.8,15.274117,0.077],
    [13729,"urn:WaterMeter:MC0203J22010600005","2024-03-03T20:45:00",12.699,15.289207,0.078],
    [13730,"urn:WaterMeter:MC0203J22010600005","2024-03-03T21:00:00",12.6,15.2446375,0.074],
    [13731,"urn:WaterMeter:MC0203J22010600005","2024-03-03T21:15:00",12.399,15.191108,0.079],
    [13732,"urn:WaterMeter:MC0203J22010600005","2024-03-03T21:30:00",12.199,15.2054205,0.081],
    [13733,"urn:WaterMeter:MC0203J22010600005","2024-03-03T21:45:00",12,15.229509,0.078],
    [13734,"urn:WaterMeter:MC0203J22010600005","2024-03-03T22:00:00",11.8,15.201581,0.077],
    [13735,"urn:WaterMeter:MC0203J22010600005","2024-03-03T22:15:00",11.6,15.215933,0.08],
    [13736,"urn:WaterMeter:MC0203J22010600005","2024-03-03T22:30:00",11.399,15.238043,0.075],
    [13737,"urn:WaterMeter:MC0203J22010600005","2024-03-03T22:45:00",11.199,15.259766,0.08],
    [13738,"urn:WaterMeter:MC0203J22010600005","2024-03-03T23:00:00",11,15.241146,0.08],
    [13739,"urn:WaterMeter:MC0203J22010600005","2024-03-03T23:15:00",10.8,15.201968,0.079],
    [13740,"urn:WaterMeter:MC0203J22010600005","2024-03-03T23:30:00",10.699,15.243823,0.078],
    [13741,"urn:WaterMeter:MC0203J22010600005","2024-03-03T23:45:00",10.5,15.195724,0.077],
    [13742,"urn:WaterMeter:MC0203J22010600005","2024-03-04T00:00:00",10.399,15.22757,0.084],
    [13743,"urn:WaterMeter:MC0203J22010600005","2024-03-04T00:15:00",10.3,15.19456,0.078],
    [13744,"urn:WaterMeter:MC0203J22010600005","2024-03-04T00:30:00",10.1,15.207399,0.079],
    [13745,"urn:WaterMeter:MC0203J22010600005","2024-03-04T00:45:00",10,15.22404,0.077],
    [13746,"urn:WaterMeter:MC0203J22010600005","2024-03-04T01:00:00",9.899,15.175552,0.08],
    [13747,"urn:WaterMeter:MC0203J22010600005","2024-03-04T01:15:00",9.699,15.2225275,0.08],
    [13748,"urn:WaterMeter:MC0203J22010600005","2024-03-04T01:30:00",9.5,15.188392,0.074],
    [13749,"urn:WaterMeter:MC0203J22010600005","2024-03-04T01:45:00",9.399,15.17947,0.077],
    [13750,"urn:WaterMeter:MC0203J22010600005","2024-03-04T02:00:00",9.3,15.205848,0.079],
    [13751,"urn:WaterMeter:MC0203J22010600005","2024-03-04T02:15:00",9.199,15.202356,0.08],
    [13752,"urn:WaterMeter:MC0203J22010600005","2024-03-04T02:30:00",9.1,15.212015,0.079],
    [13753,"urn:WaterMeter:MC0203J22010600005","2024-03-04T02:45:00",9,15.23494,0.08],
    [13754,"urn:WaterMeter:MC0203J22010600005","2024-03-04T03:00:00",8.899,15.260929,0.079],
    [13755,"urn:WaterMeter:MC0203J22010600005","2024-03-04T03:15:00",8.8,15.2027445,0.081],
    [13756,"urn:WaterMeter:MC0203J22010600005","2024-03-04T03:30:00",8.699,15.246577,0.079],
    [13757,"urn:WaterMeter:MC0203J22010600005","2024-03-04T03:45:00",8.6,15.221363,0.081],
    [13758,"urn:WaterMeter:MC0203J22010600005","2024-03-04T04:00:00",8.6,15.274117,0.078],
    [13759,"urn:WaterMeter:MC0203J22010600005","2024-03-04T04:15:00",8.5,15.267524,0.079],
    [13760,"urn:WaterMeter:MC0203J22010600005","2024-03-04T04:30:00",8.399,15.217873,0.079],
    [13761,"urn:WaterMeter:MC0203J22010600005","2024-03-04T04:45:00",8.399,15.238043,0.08],
    [13762,"urn:WaterMeter:MC0203J22010600005","2024-03-04T05:00:00",8.3,15.217096,0.075],
    [13763,"urn:WaterMeter:MC0203J22010600005","2024-03-04T05:15:00",8.199,15.218261,0.078],
    [13764,"urn:WaterMeter:MC0203J22010600005","2024-03-04T05:30:00",8.199,15.22404,0.08],
    [13765,"urn:WaterMeter:MC0203J22010600005","2024-03-04T05:45:00",8.1,15.227182,0.081],
    [13766,"urn:WaterMeter:MC0203J22010600005","2024-03-04T06:00:00",8,15.238819,0.078],
    [13767,"urn:WaterMeter:MC0203J22010600005","2024-03-04T06:15:00",8,15.235328,0.081],
    [13768,"urn:WaterMeter:MC0203J22010600005","2024-03-04T06:30:00",8,15.2127905,0.076],
    [13769,"urn:WaterMeter:MC0203J22010600005","2024-03-04T06:45:00",7.9,15.191495,0.078],
    [13770,"urn:WaterMeter:MC0203J22010600005","2024-03-04T07:00:00",7.9,15.2202,0.075],
    [13771,"urn:WaterMeter:MC0203J22010600005","2024-03-04T07:15:00",7.9,15.25352,0.078],
    [13772,"urn:WaterMeter:MC0203J22010600005","2024-03-04T07:30:00",8,15.305925,0.083],
    [13773,"urn:WaterMeter:MC0203J22010600005","2024-03-04T07:45:00",8.199,15.230673,0.071],
    [13774,"urn:WaterMeter:MC0203J22010600005","2024-03-04T08:00:00",8.399,15.255499,0.078],
    [13775,"urn:WaterMeter:MC0203J22010600005","2024-03-04T08:15:00",8.6,15.283815,0.073],
    [13776,"urn:WaterMeter:MC0203J22010600005","2024-03-04T08:30:00",8.899,15.277221,0.076],
    [13777,"urn:WaterMeter:MC0203J22010600005","2024-03-04T08:45:00",9.199,15.295452,0.078],
    [13778,"urn:WaterMeter:MC0203J22010600005","2024-03-04T09:00:00",9.5,15.299332,0.077],
    [13779,"urn:WaterMeter:MC0203J22010600005","2024-03-04T09:15:00",9.8,15.3136835,0.075],
    [13780,"urn:WaterMeter:MC0203J22010600005","2024-03-04T09:30:00",10.199,15.3063135,0.075],
    [13781,"urn:WaterMeter:MC0203J22010600005","2024-03-04T10:00:00",11,15.322993,0.075],
    [13782,"urn:WaterMeter:MC0203J22010600005","2024-03-04T10:15:00",11.3,15.282225,0.073],
    [13783,"urn:WaterMeter:MC0203J22010600005","2024-03-04T10:30:00",11.699,15.32377,0.071],
    [13784,"urn:WaterMeter:MC0203J22010600005","2024-03-04T10:45:00",12.1,15.306702,0.076],
    [13785,"urn:WaterMeter:MC0203J22010600005","2024-03-04T11:00:00",12.399,15.278772,0.076],
    [13786,"urn:WaterMeter:MC0203J22010600005","2024-03-04T11:15:00",12.699,15.309766,0.074],
    [13787,"urn:WaterMeter:MC0203J22010600005","2024-03-04T11:30:00",13,15.340022,0.074],
    [13788,"urn:WaterMeter:MC0203J22010600005","2024-03-04T11:45:00",13.199,15.283427,0.079],
    [13789,"urn:WaterMeter:MC0203J22010600005","2024-03-04T12:00:00",13.399,15.355189,0.072],
    [13790,"urn:WaterMeter:MC0203J22010600005","2024-03-04T12:15:00",13.6,15.347392,0.071],
    [13791,"urn:WaterMeter:MC0203J22010600005","2024-03-04T12:30:00",14,15.366438,0.074],
    [13792,"urn:WaterMeter:MC0203J22010600005","2024-03-04T12:45:00",14.3,15.393591,0.074],
    [13793,"urn:WaterMeter:MC0203J22010600005","2024-03-04T13:00:00",14.699,15.359029,0.075],
    [13794,"urn:WaterMeter:MC0203J22010600005","2024-03-04T13:15:00",14.899,15.298555,0.073],
    [13795,"urn:WaterMeter:MC0203J22010600005","2024-03-04T13:30:00",15.1,15.285367,0.075],
    [13796,"urn:WaterMeter:MC0203J22010600005","2024-03-04T13:45:00",15.199,15.350495,0.072],
    [13797,"urn:WaterMeter:MC0203J22010600005","2024-03-04T14:00:00",15.3,15.357128,0.077],
    [13798,"urn:WaterMeter:MC0203J22010600005","2024-03-04T14:15:00",15.5,15.361783,0.074],
    [13799,"urn:WaterMeter:MC0203J22010600005","2024-03-04T14:30:00",15.5,15.352473,0.073],
    [13800,"urn:WaterMeter:MC0203J22010600005","2024-03-04T14:45:00",15.6,15.277997,0.075],
    [13801,"urn:WaterMeter:MC0203J22010600005","2024-03-04T15:00:00",15.6,15.331915,0.076],
    [13802,"urn:WaterMeter:MC0203J22010600005","2024-03-04T15:15:00",15.6,15.342,0.075],
    [13803,"urn:WaterMeter:MC0203J22010600005","2024-03-04T15:30:00",15.699,15.318338,0.075],
    [13804,"urn:WaterMeter:MC0203J22010600005","2024-03-04T15:45:00",15.6,15.319115,0.073],
    [13805,"urn:WaterMeter:MC0203J22010600005","2024-03-04T16:00:00",15.6,15.291923,0.076],
    [13806,"urn:WaterMeter:MC0203J22010600005","2024-03-04T16:15:00",15.6,15.283427,0.074],
    [13807,"urn:WaterMeter:MC0203J22010600005","2024-03-04T16:30:00",15.5,15.270976,0.075],
    [13808,"urn:WaterMeter:MC0203J22010600005","2024-03-04T16:45:00",15.5,15.324157,0.078],
    [13809,"urn:WaterMeter:MC0203J22010600005","2024-03-04T17:00:00",15.399,15.267912,0.077],
    [13810,"urn:WaterMeter:MC0203J22010600005","2024-03-04T17:15:00",15.199,15.281837,0.077],
    [13811,"urn:WaterMeter:MC0203J22010600005","2024-03-04T17:30:00",15.1,15.282613,0.076],
    [13812,"urn:WaterMeter:MC0203J22010600005","2024-03-04T17:45:00",14.899,15.250417,0.076],
    [13813,"urn:WaterMeter:MC0203J22010600005","2024-03-04T18:00:00",14.8,15.276445,0.077],
    [13814,"urn:WaterMeter:MC0203J22010600005","2024-03-04T18:15:00",14.6,15.213567,0.077],
    [13815,"urn:WaterMeter:MC0203J22010600005","2024-03-04T18:30:00",14.399,15.2570505,0.075],
    [13816,"urn:WaterMeter:MC0203J22010600005","2024-03-04T18:45:00",14.3,15.262442,0.076],
    [13817,"urn:WaterMeter:MC0203J22010600005","2024-03-04T19:00:00",14.199,15.269464,0.076],
    [13818,"urn:WaterMeter:MC0203J22010600005","2024-03-04T19:15:00",14.1,15.216321,0.076],
    [13819,"urn:WaterMeter:MC0203J22010600005","2024-03-04T19:30:00",14,15.288858,0.077],
    [13820,"urn:WaterMeter:MC0203J22010600005","2024-03-04T19:45:00",13.899,15.204645,0.076],
    [13821,"urn:WaterMeter:MC0203J22010600005","2024-03-04T20:00:00",13.8,15.239594,0.077],
    [13822,"urn:WaterMeter:MC0203J22010600005","2024-03-04T20:15:00",13.6,15.241534,0.078],
    [13823,"urn:WaterMeter:MC0203J22010600005","2024-03-04T20:30:00",13.5,15.18335,0.078],
    [13824,"urn:WaterMeter:MC0203J22010600005","2024-03-04T20:45:00",13.399,15.236491,0.079],
    [13825,"urn:WaterMeter:MC0203J22010600005","2024-03-04T21:00:00",13.199,15.232962,0.076],
    [13826,"urn:WaterMeter:MC0203J22010600005","2024-03-04T21:15:00",13,15.260154,0.078],
    [13827,"urn:WaterMeter:MC0203J22010600005","2024-03-04T21:30:00",12.899,15.204257,0.077],
    [13828,"urn:WaterMeter:MC0203J22010600005","2024-03-04T21:45:00",12.699,15.272916,0.076],
    [13829,"urn:WaterMeter:MC0203J22010600005","2024-03-04T22:00:00",12.6,15.262054,0.078],
    [13830,"urn:WaterMeter:MC0203J22010600005","2024-03-04T22:15:00",12.399,15.235716,0.073],
    [13831,"urn:WaterMeter:MC0203J22010600005","2024-03-04T22:30:00",12.199,15.212015,0.078],
    [13832,"urn:WaterMeter:MC0203J22010600005","2024-03-04T22:45:00",12.1,15.208951,0.073],
    [13833,"urn:WaterMeter:MC0203J22010600005","2024-03-04T23:00:00",11.899,15.155769,0.077],
    [13834,"urn:WaterMeter:MC0203J22010600005","2024-03-04T23:15:00",11.8,15.19809,0.079],
    [13835,"urn:WaterMeter:MC0203J22010600005","2024-03-04T23:30:00",11.6,15.169385,0.079],
    [13836,"urn:WaterMeter:MC0203J22010600005","2024-03-04T23:45:00",11.5,15.16279,0.079],
    [13837,"urn:WaterMeter:MC0203J22010600005","2024-03-05T00:00:00",11.3,15.232186,0.073],
    [13838,"urn:WaterMeter:MC0203J22010600005","2024-03-05T00:15:00",11.199,15.189556,0.075],
    [13839,"urn:WaterMeter:MC0203J22010600005","2024-03-05T00:30:00",11,15.2054205,0.077],
    [13840,"urn:WaterMeter:MC0203J22010600005","2024-03-05T00:45:00",10.899,15.150765,0.077],
    [13841,"urn:WaterMeter:MC0203J22010600005","2024-03-05T01:00:00",10.8,15.219424,0.08],
    [13842,"urn:WaterMeter:MC0203J22010600005","2024-03-05T01:15:00",10.6,15.229121,0.075],
    [13843,"urn:WaterMeter:MC0203J22010600005","2024-03-05T01:30:00",10.5,15.196926,0.08],
    [13844,"urn:WaterMeter:MC0203J22010600005","2024-03-05T01:45:00",10.399,15.195724,0.077],
    [13845,"urn:WaterMeter:MC0203J22010600005","2024-03-05T02:00:00",10.3,15.177918,0.079],
    [13846,"urn:WaterMeter:MC0203J22010600005","2024-03-05T02:15:00",10.199,15.219424,0.081],
    [13847,"urn:WaterMeter:MC0203J22010600005","2024-03-05T02:30:00",10.1,15.201968,0.079],
    [13848,"urn:WaterMeter:MC0203J22010600005","2024-03-05T02:45:00",9.899,15.197701,0.075],
    [13849,"urn:WaterMeter:MC0203J22010600005","2024-03-05T03:00:00",9.899,15.200417,0.078],
    [13850,"urn:WaterMeter:MC0203J22010600005","2024-03-05T03:15:00",9.8,15.15736,0.078],
    [13851,"urn:WaterMeter:MC0203J22010600005","2024-03-05T03:30:00",9.699,15.201968,0.077],
    [13852,"urn:WaterMeter:MC0203J22010600005","2024-03-05T03:45:00",9.6,15.200029,0.074],
    [13853,"urn:WaterMeter:MC0203J22010600005","2024-03-05T04:00:00",9.5,15.219036,0.077],
    [13854,"urn:WaterMeter:MC0203J22010600005","2024-03-05T04:15:00",9.3,15.208563,0.076],
    [13855,"urn:WaterMeter:MC0203J22010600005","2024-03-05T04:30:00",9.199,15.2298975,0.079],
    [13856,"urn:WaterMeter:MC0203J22010600005","2024-03-05T04:45:00",9.1,15.2101145,0.081],
    [13857,"urn:WaterMeter:MC0203J22010600005","2024-03-05T05:00:00",9,15.198865,0.077],
    [13858,"urn:WaterMeter:MC0203J22010600005","2024-03-05T05:15:00",8.899,15.210503,0.075],
    [13859,"urn:WaterMeter:MC0203J22010600005","2024-03-05T05:30:00",8.8,15.236104,0.079],
    [13860,"urn:WaterMeter:MC0203J22010600005","2024-03-05T05:45:00",8.8,15.184474,0.078],
    [13861,"urn:WaterMeter:MC0203J22010600005","2024-03-05T06:00:00",8.699,15.213179,0.077],
    [13862,"urn:WaterMeter:MC0203J22010600005","2024-03-05T06:15:00",8.699,15.2054205,0.072],
    [13863,"urn:WaterMeter:MC0203J22010600005","2024-03-05T06:30:00",8.6,15.216321,0.074],
    [13864,"urn:WaterMeter:MC0203J22010600005","2024-03-05T06:45:00",8.5,15.252745,0.075],
    [13865,"urn:WaterMeter:MC0203J22010600005","2024-03-05T07:00:00",8.5,15.222139,0.081],
    [13866,"urn:WaterMeter:MC0203J22010600005","2024-03-05T07:15:00",8.5,15.193784,0.076],
    [13867,"urn:WaterMeter:MC0203J22010600005","2024-03-05T07:30:00",8.699,15.246964,0.076],
    [13868,"urn:WaterMeter:MC0203J22010600005","2024-03-05T07:45:00",8.899,15.2325735,0.079],
    [13869,"urn:WaterMeter:MC0203J22010600005","2024-03-05T08:00:00",9.1,15.241534,0.073],
    [13870,"urn:WaterMeter:MC0203J22010600005","2024-03-05T08:15:00",9.3,15.224815,0.077],
    [13871,"urn:WaterMeter:MC0203J22010600005","2024-03-05T08:30:00",9.5,15.2496805,0.076],
    [13872,"urn:WaterMeter:MC0203J22010600005","2024-03-05T08:45:00",9.8,15.250805,0.076],
    [13873,"urn:WaterMeter:MC0203J22010600005","2024-03-05T09:00:00",10.3,15.312908,0.071],
    [13874,"urn:WaterMeter:MC0203J22010600005","2024-03-05T09:15:00",10.8,15.32726,0.075],
    [13875,"urn:WaterMeter:MC0203J22010600005","2024-03-05T09:30:00",11.199,15.280712,0.068],
    [13876,"urn:WaterMeter:MC0203J22010600005","2024-03-05T09:45:00",11.6,15.314847,0.076],
    [13877,"urn:WaterMeter:MC0203J22010600005","2024-03-05T10:00:00",11.899,15.2865305,0.075],
    [13878,"urn:WaterMeter:MC0203J22010600005","2024-03-05T10:15:00",12.3,15.320239,0.073],
    [13879,"urn:WaterMeter:MC0203J22010600005","2024-03-05T10:30:00",12.699,15.287307,0.074],
    [13880,"urn:WaterMeter:MC0203J22010600005","2024-03-05T10:45:00",13.199,15.330324,0.073],
    [13881,"urn:WaterMeter:MC0203J22010600005","2024-03-05T11:00:00",13.6,15.286142,0.072],
    [13882,"urn:WaterMeter:MC0203J22010600005","2024-03-05T11:15:00",14,15.373808,0.069],
    [13883,"urn:WaterMeter:MC0203J22010600005","2024-03-05T11:30:00",14.399,15.355189,0.071],
    [13884,"urn:WaterMeter:MC0203J22010600005","2024-03-05T11:45:00",14.899,15.2811,0.073],
    [13885,"urn:WaterMeter:MC0203J22010600005","2024-03-05T12:00:00",15.3,15.398983,0.071],
    [13886,"urn:WaterMeter:MC0203J22010600005","2024-03-05T12:15:00",15.6,15.364886,0.077],
    [13887,"urn:WaterMeter:MC0203J22010600005","2024-03-05T12:30:00",15.6,15.324545,0.074],
    [13888,"urn:WaterMeter:MC0203J22010600005","2024-03-05T12:45:00",15.699,15.373033,0.074],
    [13889,"urn:WaterMeter:MC0203J22010600005","2024-03-05T13:00:00",15.899,15.372644,0.074],
    [13890,"urn:WaterMeter:MC0203J22010600005","2024-03-05T13:15:00",16.1,15.373421,0.074],
    [13891,"urn:WaterMeter:MC0203J22010600005","2024-03-05T13:30:00",16.1,15.3508835,0.075],
    [13892,"urn:WaterMeter:MC0203J22010600005","2024-03-05T13:45:00",16.1,15.258989,0.078],
    [13893,"urn:WaterMeter:MC0203J22010600005","2024-03-05T14:00:00",16.2,15.313295,0.071],
    [13894,"urn:WaterMeter:MC0203J22010600005","2024-03-05T14:15:00",16.2,15.30321,0.073],
    [13895,"urn:WaterMeter:MC0203J22010600005","2024-03-05T14:30:00",16.2,15.315623,0.073],
    [13896,"urn:WaterMeter:MC0203J22010600005","2024-03-05T14:45:00",16.2,15.262054,0.073],
    [13897,"urn:WaterMeter:MC0203J22010600005","2024-03-05T15:00:00",16.2,15.270976,0.074],
    [13898,"urn:WaterMeter:MC0203J22010600005","2024-03-05T15:15:00",16.2,15.290371,0.072],
    [13899,"urn:WaterMeter:MC0203J22010600005","2024-03-05T15:30:00",16.2,15.289207,0.077],
    [13900,"urn:WaterMeter:MC0203J22010600005","2024-03-05T15:45:00",16.2,15.269075,0.075],
    [13901,"urn:WaterMeter:MC0203J22010600005","2024-03-05T16:00:00",16.2,15.23494,0.079],
    [13902,"urn:WaterMeter:MC0203J22010600005","2024-03-05T16:15:00",16.1,15.252745,0.073],
    [13903,"urn:WaterMeter:MC0203J22010600005","2024-03-05T16:30:00",16.1,15.293125,0.075],
    [13904,"urn:WaterMeter:MC0203J22010600005","2024-03-05T16:45:00",16,15.2027445,0.079],
    [13905,"urn:WaterMeter:MC0203J22010600005","2024-03-05T17:00:00",15.899,15.304762,0.076],
    [13906,"urn:WaterMeter:MC0203J22010600005","2024-03-05T17:15:00",15.8,15.222915,0.075],
    [13907,"urn:WaterMeter:MC0203J22010600005","2024-03-05T17:30:00",15.699,15.195724,0.076],
    [13908,"urn:WaterMeter:MC0203J22010600005","2024-03-05T17:45:00",15.6,15.257826,0.07],
    [13909,"urn:WaterMeter:MC0203J22010600005","2024-03-05T18:00:00",15.5,15.214342,0.078],
    [13910,"urn:WaterMeter:MC0203J22010600005","2024-03-05T18:15:00",15.3,15.240371,0.074],
    [13911,"urn:WaterMeter:MC0203J22010600005","2024-03-05T18:30:00",15.1,15.200029,0.075],
    [13912,"urn:WaterMeter:MC0203J22010600005","2024-03-05T18:45:00",14.899,15.2225275,0.078],
    [13913,"urn:WaterMeter:MC0203J22010600005","2024-03-05T19:00:00",14.699,15.191495,0.075],
    [13914,"urn:WaterMeter:MC0203J22010600005","2024-03-05T19:15:00",14.5,15.137965,0.074],
    [13915,"urn:WaterMeter:MC0203J22010600005","2024-03-05T19:30:00",14.3,15.18335,0.077],
    [13916,"urn:WaterMeter:MC0203J22010600005","2024-03-05T19:45:00",14.1,15.217096,0.076],
    [13917,"urn:WaterMeter:MC0203J22010600005","2024-03-05T20:00:00",13.899,15.142232,0.077],
    [13918,"urn:WaterMeter:MC0203J22010600005","2024-03-05T20:15:00",13.699,15.195724,0.073],
    [13919,"urn:WaterMeter:MC0203J22010600005","2024-03-05T20:30:00",13.5,15.148438,0.077],
    [13920,"urn:WaterMeter:MC0203J22010600005","2024-03-05T20:45:00",13.399,15.124001,0.074],
    [13921,"urn:WaterMeter:MC0203J22010600005","2024-03-05T21:00:00",13.199,15.1608515,0.077],
    [13922,"urn:WaterMeter:MC0203J22010600005","2024-03-05T21:15:00",13.1,15.14805,0.079],
    [13923,"urn:WaterMeter:MC0203J22010600005","2024-03-05T21:30:00",12.899,15.1593,0.075],
    [13924,"urn:WaterMeter:MC0203J22010600005","2024-03-05T21:45:00",12.8,15.167445,0.075],
    [13925,"urn:WaterMeter:MC0203J22010600005","2024-03-05T22:00:00",12.6,15.184125,0.077],
    [13926,"urn:WaterMeter:MC0203J22010600005","2024-03-05T22:15:00",12.5,15.137538,0.078],
    [13927,"urn:WaterMeter:MC0203J22010600005","2024-03-05T22:30:00",12.3,15.143784,0.079],
    [13928,"urn:WaterMeter:MC0203J22010600005","2024-03-05T22:45:00",12.199,15.137538,0.074],
    [13929,"urn:WaterMeter:MC0203J22010600005","2024-03-05T23:00:00",12.1,15.1759405,0.079],
    [13930,"urn:WaterMeter:MC0203J22010600005","2024-03-05T23:15:00",11.899,15.1068945,0.079],
    [13931,"urn:WaterMeter:MC0203J22010600005","2024-03-05T23:30:00",11.8,15.191108,0.079],
    [13932,"urn:WaterMeter:MC0203J22010600005","2024-03-05T23:45:00",11.699,15.115816,0.077],
    [13933,"urn:WaterMeter:MC0203J22010600005","2024-03-06T00:00:00",11.6,15.161627,0.078],
    [13934,"urn:WaterMeter:MC0203J22010600005","2024-03-06T00:15:00",11.5,15.172488,0.078],
    [13935,"urn:WaterMeter:MC0203J22010600005","2024-03-06T00:30:00",11.3,15.161627,0.081],
    [13936,"urn:WaterMeter:MC0203J22010600005","2024-03-06T00:45:00",11.199,15.096808,0.078],
    [13937,"urn:WaterMeter:MC0203J22010600005","2024-03-06T01:00:00",11.1,15.122837,0.078],
    [13938,"urn:WaterMeter:MC0203J22010600005","2024-03-06T01:15:00",11,15.145684,0.073],
    [13939,"urn:WaterMeter:MC0203J22010600005","2024-03-06T01:30:00",10.899,15.14068,0.08],
    [13940,"urn:WaterMeter:MC0203J22010600005","2024-03-06T01:45:00",10.699,15.196926,0.083],
    [13941,"urn:WaterMeter:MC0203J22010600005","2024-03-06T02:00:00",10.6,15.153442,0.076],
    [13942,"urn:WaterMeter:MC0203J22010600005","2024-03-06T02:15:00",10.399,15.171325,0.074],
    [13943,"urn:WaterMeter:MC0203J22010600005","2024-03-06T02:30:00",10.3,15.128655,0.079],
    [13944,"urn:WaterMeter:MC0203J22010600005","2024-03-06T02:45:00",10.199,15.134435,0.08],
    [13945,"urn:WaterMeter:MC0203J22010600005","2024-03-06T03:00:00",10.1,15.11857,0.075],
    [13946,"urn:WaterMeter:MC0203J22010600005","2024-03-06T03:15:00",9.899,15.110424,0.079],
    [13947,"urn:WaterMeter:MC0203J22010600005","2024-03-06T03:30:00",9.8,15.129431,0.079],
    [13948,"urn:WaterMeter:MC0203J22010600005","2024-03-06T03:45:00",9.699,15.160463,0.08],
    [13949,"urn:WaterMeter:MC0203J22010600005","2024-03-06T04:00:00",9.6,15.113527,0.078],
    [13950,"urn:WaterMeter:MC0203J22010600005","2024-03-06T04:15:00",9.5,15.120509,0.075],
    [13951,"urn:WaterMeter:MC0203J22010600005","2024-03-06T04:30:00",9.399,15.117755,0.078],
    [13952,"urn:WaterMeter:MC0203J22010600005","2024-03-06T04:45:00",9.399,15.122449,0.076],
    [13953,"urn:WaterMeter:MC0203J22010600005","2024-03-06T05:00:00",9.3,15.147236,0.077],
    [13954,"urn:WaterMeter:MC0203J22010600005","2024-03-06T05:15:00",9.3,15.1593,0.077],
    [13955,"urn:WaterMeter:MC0203J22010600005","2024-03-06T05:30:00",9.3,15.168221,0.078],
    [13956,"urn:WaterMeter:MC0203J22010600005","2024-03-06T05:45:00",9.199,15.206235,0.078],
    [13957,"urn:WaterMeter:MC0203J22010600005","2024-03-06T06:00:00",9.199,15.171712,0.078],
    [13958,"urn:WaterMeter:MC0203J22010600005","2024-03-06T06:15:00",9.1,15.16279,0.078],
    [13959,"urn:WaterMeter:MC0203J22010600005","2024-03-06T06:30:00",9.1,15.171712,0.077],
    [13960,"urn:WaterMeter:MC0203J22010600005","2024-03-06T06:45:00",9,15.146072,0.081],
    [13961,"urn:WaterMeter:MC0203J22010600005","2024-03-06T07:00:00",9,15.1721,0.075],
    [13962,"urn:WaterMeter:MC0203J22010600005","2024-03-06T07:15:00",9,15.160463,0.073],
    [13963,"urn:WaterMeter:MC0203J22010600005","2024-03-06T07:30:00",9,15.186453,0.074],
    [13964,"urn:WaterMeter:MC0203J22010600005","2024-03-06T07:45:00",9.1,15.197701,0.077],
    [13965,"urn:WaterMeter:MC0203J22010600005","2024-03-06T08:00:00",9.199,15.182185,0.077],
    [13966,"urn:WaterMeter:MC0203J22010600005","2024-03-06T08:15:00",9.3,15.161239,0.079],
    [13967,"urn:WaterMeter:MC0203J22010600005","2024-03-06T08:30:00",9.5,15.162015,0.072],
    [13968,"urn:WaterMeter:MC0203J22010600005","2024-03-06T08:45:00",9.699,15.194947,0.077],
    [13969,"urn:WaterMeter:MC0203J22010600005","2024-03-06T09:00:00",10.1,15.239983,0.073],
    [13970,"urn:WaterMeter:MC0203J22010600005","2024-03-06T09:15:00",10.5,15.1721,0.076],
    [13971,"urn:WaterMeter:MC0203J22010600005","2024-03-06T09:30:00",10.899,15.217873,0.074],
    [13972,"urn:WaterMeter:MC0203J22010600005","2024-03-06T09:45:00",11.199,15.204257,0.071],
    [13973,"urn:WaterMeter:MC0203J22010600005","2024-03-06T10:00:00",11.5,15.27373,0.076],
    [13974,"urn:WaterMeter:MC0203J22010600005","2024-03-06T10:15:00",11.899,15.217484,0.074],
    [13975,"urn:WaterMeter:MC0203J22010600005","2024-03-06T10:30:00",12.199,15.213179,0.075],
    [13976,"urn:WaterMeter:MC0203J22010600005","2024-03-06T10:45:00",12.6,15.212015,0.071],
    [13977,"urn:WaterMeter:MC0203J22010600005","2024-03-06T11:00:00",12.899,15.230673,0.073],
    [13978,"urn:WaterMeter:MC0203J22010600005","2024-03-06T11:15:00",13.199,15.201968,0.072],
    [13979,"urn:WaterMeter:MC0203J22010600005","2024-03-06T11:30:00",13.6,15.246964,0.073],
    [13980,"urn:WaterMeter:MC0203J22010600005","2024-03-06T11:45:00",14,15.230673,0.077],
    [13981,"urn:WaterMeter:MC0203J22010600005","2024-03-06T12:00:00",14.399,15.26283,0.068],
    [13982,"urn:WaterMeter:MC0203J22010600005","2024-03-06T12:15:00",14.699,15.262442,0.074],
    [13983,"urn:WaterMeter:MC0203J22010600005","2024-03-06T12:30:00",15.1,15.321791,0.078],
    [13984,"urn:WaterMeter:MC0203J22010600005","2024-03-06T12:45:00",15.399,15.29584,0.071],
    [13985,"urn:WaterMeter:MC0203J22010600005","2024-03-06T13:00:00",15.6,15.245801,0.073],
    [13986,"urn:WaterMeter:MC0203J22010600005","2024-03-06T13:15:00",15.699,15.241146,0.075],
    [13987,"urn:WaterMeter:MC0203J22010600005","2024-03-06T13:30:00",15.899,15.243823,0.075],
    [13988,"urn:WaterMeter:MC0203J22010600005","2024-03-06T13:45:00",16,15.2325735,0.077],
    [13989,"urn:WaterMeter:MC0203J22010600005","2024-03-06T14:00:00",16.1,15.258214,0.074],
    [13990,"urn:WaterMeter:MC0203J22010600005","2024-03-06T14:15:00",16.299,15.22404,0.073],
    [13991,"urn:WaterMeter:MC0203J22010600005","2024-03-06T14:30:00",16.399,15.265196,0.072],
    [13992,"urn:WaterMeter:MC0203J22010600005","2024-03-06T14:45:00",16.5,15.248516,0.074],
    [13993,"urn:WaterMeter:MC0203J22010600005","2024-03-06T15:00:00",16.5,15.228734,0.072],
    [13994,"urn:WaterMeter:MC0203J22010600005","2024-03-06T15:15:00",16.6,15.254723,0.074],
    [13995,"urn:WaterMeter:MC0203J22010600005","2024-03-06T15:30:00",16.7,15.204645,0.074],
    [13996,"urn:WaterMeter:MC0203J22010600005","2024-03-06T15:45:00",16.7,15.171325,0.074],
    [13997,"urn:WaterMeter:MC0203J22010600005","2024-03-06T16:00:00",16.7,15.216321,0.078],
    [13998,"urn:WaterMeter:MC0203J22010600005","2024-03-06T16:15:00",16.6,15.226018,0.074],
    [13999,"urn:WaterMeter:MC0203J22010600005","2024-03-06T16:30:00",16.5,15.194947,0.075],
    [14000,"urn:WaterMeter:MC0203J22010600005","2024-03-06T16:45:00",16.399,15.209338,0.074],
    [14001,"urn:WaterMeter:MC0203J22010600005","2024-03-06T17:00:00",16.299,15.205033,0.075],
    [14002,"urn:WaterMeter:MC0203J22010600005","2024-03-06T17:15:00",16.2,15.147662,0.074],
    [14003,"urn:WaterMeter:MC0203J22010600005","2024-03-06T17:30:00",16,15.193784,0.076],
    [14004,"urn:WaterMeter:MC0203J22010600005","2024-03-06T17:45:00",15.8,15.165079,0.074],
    [14005,"urn:WaterMeter:MC0203J22010600005","2024-03-06T18:00:00",15.6,15.153831,0.077],
    [14006,"urn:WaterMeter:MC0203J22010600005","2024-03-06T18:15:00",15.399,15.189168,0.078],
    [14007,"urn:WaterMeter:MC0203J22010600005","2024-03-06T18:30:00",15.199,15.14262,0.075],
    [14008,"urn:WaterMeter:MC0203J22010600005","2024-03-06T18:45:00",14.899,15.106157,0.076],
    [14009,"urn:WaterMeter:MC0203J22010600005","2024-03-06T19:00:00",14.699,15.165467,0.078],
    [14010,"urn:WaterMeter:MC0203J22010600005","2024-03-06T19:15:00",14.5,15.107282,0.076],
    [14011,"urn:WaterMeter:MC0203J22010600005","2024-03-06T19:30:00",14.3,15.118143,0.075],
    [14012,"urn:WaterMeter:MC0203J22010600005","2024-03-06T19:45:00",14.1,15.114653,0.076],
    [14013,"urn:WaterMeter:MC0203J22010600005","2024-03-06T20:00:00",13.899,15.082883,0.079],
    [14014,"urn:WaterMeter:MC0203J22010600005","2024-03-06T20:15:00",13.699,15.109649,0.077],
    [14015,"urn:WaterMeter:MC0203J22010600005","2024-03-06T20:30:00",13.6,15.120122,0.072],
    [14016,"urn:WaterMeter:MC0203J22010600005","2024-03-06T20:45:00",13.399,15.13331,0.078],
    [14017,"urn:WaterMeter:MC0203J22010600005","2024-03-06T21:00:00",13.3,15.112364,0.073],
    [14018,"urn:WaterMeter:MC0203J22010600005","2024-03-06T21:15:00",13.1,15.099175,0.078],
    [14019,"urn:WaterMeter:MC0203J22010600005","2024-03-06T21:30:00",13,15.077802,0.077],
    [14020,"urn:WaterMeter:MC0203J22010600005","2024-03-06T21:45:00",12.899,15.177531,0.077],
    [14021,"urn:WaterMeter:MC0203J22010600005","2024-03-06T22:00:00",12.8,15.091417,0.074],
    [14022,"urn:WaterMeter:MC0203J22010600005","2024-03-06T22:15:00",12.699,15.080556,0.078],
    [14023,"urn:WaterMeter:MC0203J22010600005","2024-03-06T22:30:00",12.5,15.086374,0.077],
    [14024,"urn:WaterMeter:MC0203J22010600005","2024-03-06T22:45:00",12.399,15.068492,0.078],
    [14025,"urn:WaterMeter:MC0203J22010600005","2024-03-06T23:00:00",12.3,15.077026,0.075],
    [14026,"urn:WaterMeter:MC0203J22010600005","2024-03-06T23:15:00",12.3,15.05573,0.079],
    [14027,"urn:WaterMeter:MC0203J22010600005","2024-03-06T23:30:00",12.3,15.088663,0.078],
    [14028,"urn:WaterMeter:MC0203J22010600005","2024-03-06T23:45:00",12.3,15.115816,0.073],
    [14029,"urn:WaterMeter:MC0203J22010600005","2024-03-07T00:00:00",12.3,15.109649,0.078],
    [14030,"urn:WaterMeter:MC0203J22010600005","2024-03-07T00:15:00",12.3,15.144172,0.077],
    [14031,"urn:WaterMeter:MC0203J22010600005","2024-03-07T00:30:00",12.3,15.149214,0.076],
    [14032,"urn:WaterMeter:MC0203J22010600005","2024-03-07T00:45:00",12.199,15.137538,0.073],
    [14033,"urn:WaterMeter:MC0203J22010600005","2024-03-07T01:00:00",12.199,15.083659,0.077],
    [14034,"urn:WaterMeter:MC0203J22010600005","2024-03-07T01:15:00",12.1,15.075513,0.077],
    [14035,"urn:WaterMeter:MC0203J22010600005","2024-03-07T01:30:00",12.1,15.091029,0.075],
    [14036,"urn:WaterMeter:MC0203J22010600005","2024-03-07T01:45:00",12.1,15.15193,0.077],
    [14037,"urn:WaterMeter:MC0203J22010600005","2024-03-07T02:00:00",12.1,15.124001,0.074],
    [14038,"urn:WaterMeter:MC0203J22010600005","2024-03-07T02:15:00",12.1,15.157748,0.072],
    [14039,"urn:WaterMeter:MC0203J22010600005","2024-03-07T02:30:00",12.199,15.144947,0.075],
    [14040,"urn:WaterMeter:MC0203J22010600005","2024-03-07T02:45:00",12.199,15.0918045,0.079],
    [14041,"urn:WaterMeter:MC0203J22010600005","2024-03-07T03:00:00",12.199,15.144172,0.078],
    [14042,"urn:WaterMeter:MC0203J22010600005","2024-03-07T03:15:00",12.199,15.099563,0.076],
    [14043,"urn:WaterMeter:MC0203J22010600005","2024-03-07T03:30:00",12.3,15.177531,0.075],
    [14044,"urn:WaterMeter:MC0203J22010600005","2024-03-07T03:45:00",12.199,15.076638,0.073],
    [14045,"urn:WaterMeter:MC0203J22010600005","2024-03-07T04:00:00",12.199,15.156546,0.076],
    [14046,"urn:WaterMeter:MC0203J22010600005","2024-03-07T04:15:00",12.1,15.104994,0.078],
    [14047,"urn:WaterMeter:MC0203J22010600005","2024-03-07T04:30:00",12.1,15.096808,0.078],
    [14048,"urn:WaterMeter:MC0203J22010600005","2024-03-07T04:45:00",12,15.100726,0.077],
    [14049,"urn:WaterMeter:MC0203J22010600005","2024-03-07T05:00:00",12,15.15736,0.08],
    [14050,"urn:WaterMeter:MC0203J22010600005","2024-03-07T05:15:00",11.899,15.1340475,0.076],
    [14051,"urn:WaterMeter:MC0203J22010600005","2024-03-07T05:30:00",11.899,15.1593,0.072],
    [14052,"urn:WaterMeter:MC0203J22010600005","2024-03-07T05:45:00",11.899,15.14805,0.076],
    [14053,"urn:WaterMeter:MC0203J22010600005","2024-03-07T06:00:00",11.899,15.119346,0.075],
    [14054,"urn:WaterMeter:MC0203J22010600005","2024-03-07T06:15:00",11.899,15.110812,0.075],
    [14055,"urn:WaterMeter:MC0203J22010600005","2024-03-07T06:30:00",11.899,15.120122,0.074],
    [14056,"urn:WaterMeter:MC0203J22010600005","2024-03-07T06:45:00",11.899,15.098748,0.076],
    [14057,"urn:WaterMeter:MC0203J22010600005","2024-03-07T07:00:00",11.8,15.088663,0.073],
    [14058,"urn:WaterMeter:MC0203J22010600005","2024-03-07T07:15:00",11.8,15.118143,0.075],
    [14059,"urn:WaterMeter:MC0203J22010600005","2024-03-07T07:30:00",11.8,15.165467,0.076],
    [14060,"urn:WaterMeter:MC0203J22010600005","2024-03-07T07:45:00",11.8,15.137538,0.078],
    [14061,"urn:WaterMeter:MC0203J22010600005","2024-03-07T08:00:00",11.899,15.158135,0.074],
    [14062,"urn:WaterMeter:MC0203J22010600005","2024-03-07T08:15:00",12,15.169385,0.075],
    [14063,"urn:WaterMeter:MC0203J22010600005","2024-03-07T08:30:00",12.1,15.141068,0.074],
    [14064,"urn:WaterMeter:MC0203J22010600005","2024-03-07T08:45:00",12.3,15.158135,0.075],
    [14065,"urn:WaterMeter:MC0203J22010600005","2024-03-07T09:00:00",12.5,15.168221,0.075],
    [14066,"urn:WaterMeter:MC0203J22010600005","2024-03-07T09:15:00",12.8,15.213179,0.072],
    [14067,"urn:WaterMeter:MC0203J22010600005","2024-03-07T09:30:00",13,15.121285,0.076],
    [14068,"urn:WaterMeter:MC0203J22010600005","2024-03-07T09:45:00",13.199,15.14262,0.076],
    [14069,"urn:WaterMeter:MC0203J22010600005","2024-03-07T10:00:00",13.3,15.153831,0.073],
    [14070,"urn:WaterMeter:MC0203J22010600005","2024-03-07T10:15:00",13.5,15.19262,0.074],
    [14071,"urn:WaterMeter:MC0203J22010600005","2024-03-07T10:30:00",13.699,15.193008,0.077],
    [14072,"urn:WaterMeter:MC0203J22010600005","2024-03-07T10:45:00",13.899,15.16279,0.075],
    [14073,"urn:WaterMeter:MC0203J22010600005","2024-03-07T11:00:00",14,15.158524,0.077],
    [14074,"urn:WaterMeter:MC0203J22010600005","2024-03-07T11:15:00",14.399,15.198865,0.071],
    [14075,"urn:WaterMeter:MC0203J22010600005","2024-03-07T11:30:00",14.8,15.215545,0.074],
    [14076,"urn:WaterMeter:MC0203J22010600005","2024-03-07T11:45:00",15.1,15.212015,0.074],
    [14077,"urn:WaterMeter:MC0203J22010600005","2024-03-07T12:00:00",15.3,15.223652,0.07],
    [14078,"urn:WaterMeter:MC0203J22010600005","2024-03-07T12:15:00",15.6,15.195335,0.073],
    [14079,"urn:WaterMeter:MC0203J22010600005","2024-03-07T12:30:00",15.899,15.19262,0.073],
    [14080,"urn:WaterMeter:MC0203J22010600005","2024-03-07T12:45:00",16.2,15.183737,0.075],
    [14081,"urn:WaterMeter:MC0203J22010600005","2024-03-07T13:00:00",16.399,15.224815,0.075],
    [14082,"urn:WaterMeter:MC0203J22010600005","2024-03-07T13:15:00",16.6,15.19072,0.075],
    [14083,"urn:WaterMeter:MC0203J22010600005","2024-03-07T13:30:00",16.6,15.1880045,0.074],
    [14084,"urn:WaterMeter:MC0203J22010600005","2024-03-07T13:45:00",16.5,15.191108,0.073],
    [14085,"urn:WaterMeter:MC0203J22010600005","2024-03-07T14:00:00",16.6,15.14999,0.074],
    [14086,"urn:WaterMeter:MC0203J22010600005","2024-03-07T14:15:00",16.6,15.187228,0.073],
    [14087,"urn:WaterMeter:MC0203J22010600005","2024-03-07T14:30:00",16.7,15.223652,0.074],
    [14088,"urn:WaterMeter:MC0203J22010600005","2024-03-07T14:45:00",16.799,15.141456,0.076],
    [14089,"urn:WaterMeter:MC0203J22010600005","2024-03-07T15:00:00",17,15.207787,0.073],
    [14090,"urn:WaterMeter:MC0203J22010600005","2024-03-07T15:15:00",17.1,15.201193,0.07],
    [14091,"urn:WaterMeter:MC0203J22010600005","2024-03-07T15:30:00",17,15.18525,0.077],
    [14092,"urn:WaterMeter:MC0203J22010600005","2024-03-07T15:45:00",16.899,15.164342,0.074],
    [14093,"urn:WaterMeter:MC0203J22010600005","2024-03-07T16:00:00",16.7,15.136763,0.073],
    [14094,"urn:WaterMeter:MC0203J22010600005","2024-03-07T16:15:00",16.6,15.215933,0.072],
    [14095,"urn:WaterMeter:MC0203J22010600005","2024-03-07T16:30:00",16.5,15.18525,0.075],
    [14096,"urn:WaterMeter:MC0203J22010600005","2024-03-07T16:45:00",16.299,15.182185,0.073],
    [14097,"urn:WaterMeter:MC0203J22010600005","2024-03-07T17:00:00",16.2,15.136763,0.076],
    [14098,"urn:WaterMeter:MC0203J22010600005","2024-03-07T17:15:00",16.1,15.129819,0.076],
    [14099,"urn:WaterMeter:MC0203J22010600005","2024-03-07T17:30:00",15.899,15.180246,0.078],
    [14100,"urn:WaterMeter:MC0203J22010600005","2024-03-07T17:45:00",15.8,15.105381,0.077],
    [14101,"urn:WaterMeter:MC0203J22010600005","2024-03-07T18:00:00",15.8,15.103829,0.075],
    [14102,"urn:WaterMeter:MC0203J22010600005","2024-03-07T18:15:00",15.699,15.113139,0.071],
    [14103,"urn:WaterMeter:MC0203J22010600005","2024-03-07T18:30:00",15.6,15.166631,0.078],
    [14104,"urn:WaterMeter:MC0203J22010600005","2024-03-07T18:45:00",15.5,15.111588,0.077],
    [14105,"urn:WaterMeter:MC0203J22010600005","2024-03-07T19:00:00",15.3,15.15736,0.075],
    [14106,"urn:WaterMeter:MC0203J22010600005","2024-03-07T19:15:00",15.199,15.092969,0.08],
    [14107,"urn:WaterMeter:MC0203J22010600005","2024-03-07T19:30:00",15.1,15.17016,0.077],
    [14108,"urn:WaterMeter:MC0203J22010600005","2024-03-07T19:45:00",15,15.130595,0.075],
    [14109,"urn:WaterMeter:MC0203J22010600005","2024-03-07T20:00:00",14.899,15.078965,0.078],
    [14110,"urn:WaterMeter:MC0203J22010600005","2024-03-07T20:15:00",14.8,15.100339,0.074],
    [14111,"urn:WaterMeter:MC0203J22010600005","2024-03-07T20:30:00",14.699,15.115816,0.078],
    [14112,"urn:WaterMeter:MC0203J22010600005","2024-03-07T20:45:00",14.699,15.088663,0.076],
    [14113,"urn:WaterMeter:MC0203J22010600005","2024-03-07T21:00:00",14.6,15.087887,0.076],
    [14114,"urn:WaterMeter:MC0203J22010600005","2024-03-07T21:15:00",14.6,15.070083,0.076],
    [14115,"urn:WaterMeter:MC0203J22010600005","2024-03-07T21:30:00",14.5,15.103829,0.077],
    [14116,"urn:WaterMeter:MC0203J22010600005","2024-03-07T21:45:00",14.399,15.126289,0.078],
    [14117,"urn:WaterMeter:MC0203J22010600005","2024-03-07T22:00:00",14.399,15.1068945,0.078],
    [14118,"urn:WaterMeter:MC0203J22010600005","2024-03-07T22:15:00",14.399,15.128655,0.077],
    [14119,"urn:WaterMeter:MC0203J22010600005","2024-03-07T22:30:00",14.3,15.090253,0.073],
    [14120,"urn:WaterMeter:MC0203J22010600005","2024-03-07T22:45:00",14.3,15.099175,0.076],
    [14121,"urn:WaterMeter:MC0203J22010600005","2024-03-07T23:00:00",14.199,15.120897,0.076],
    [14122,"urn:WaterMeter:MC0203J22010600005","2024-03-07T23:15:00",14.1,15.136763,0.078],
    [14123,"urn:WaterMeter:MC0203J22010600005","2024-03-07T23:30:00",14.1,15.081719,0.077],
    [14124,"urn:WaterMeter:MC0203J22010600005","2024-03-07T23:45:00",14,15.055343,0.073],
    [14125,"urn:WaterMeter:MC0203J22010600005","2024-03-08T00:00:00",14,15.117368,0.074],
    [14126,"urn:WaterMeter:MC0203J22010600005","2024-03-08T00:15:00",13.899,15.085599,0.072],
    [14127,"urn:WaterMeter:MC0203J22010600005","2024-03-08T00:30:00",13.8,15.068492,0.077],
    [14128,"urn:WaterMeter:MC0203J22010600005","2024-03-08T00:45:00",13.5,15.056118,0.077],
    [14129,"urn:WaterMeter:MC0203J22010600005","2024-03-08T01:00:00",13.399,15.070471,0.078],
    [14130,"urn:WaterMeter:MC0203J22010600005","2024-03-08T01:15:00",13.3,15.089478,0.078],
    [14131,"urn:WaterMeter:MC0203J22010600005","2024-03-08T01:30:00",13.199,15.129819,0.077],
    [14132,"urn:WaterMeter:MC0203J22010600005","2024-03-08T01:45:00",13.1,15.0631,0.076],
    [14133,"urn:WaterMeter:MC0203J22010600005","2024-03-08T02:00:00",13,15.110812,0.077],
    [14134,"urn:WaterMeter:MC0203J22010600005","2024-03-08T02:15:00",12.899,15.155382,0.077],
    [14135,"urn:WaterMeter:MC0203J22010600005","2024-03-08T02:30:00",12.8,15.11857,0.077],
    [14136,"urn:WaterMeter:MC0203J22010600005","2024-03-08T02:45:00",12.699,15.084047,0.076],
    [14137,"urn:WaterMeter:MC0203J22010600005","2024-03-08T03:00:00",12.6,15.133698,0.076],
    [14138,"urn:WaterMeter:MC0203J22010600005","2024-03-08T03:15:00",12.5,15.110036,0.076],
    [14139,"urn:WaterMeter:MC0203J22010600005","2024-03-08T03:30:00",12.399,15.093744,0.081],
    [14140,"urn:WaterMeter:MC0203J22010600005","2024-03-08T03:45:00",12.3,15.101891,0.078],
    [14141,"urn:WaterMeter:MC0203J22010600005","2024-03-08T04:00:00",12.199,15.07819,0.078],
    [14142,"urn:WaterMeter:MC0203J22010600005","2024-03-08T04:15:00",12.1,15.092193,0.076],
    [14143,"urn:WaterMeter:MC0203J22010600005","2024-03-08T04:30:00",12,15.125164,0.079],
    [14144,"urn:WaterMeter:MC0203J22010600005","2024-03-08T04:45:00",12,15.07978,0.077],
    [14145,"urn:WaterMeter:MC0203J22010600005","2024-03-08T05:00:00",11.899,15.104994,0.077],
    [14146,"urn:WaterMeter:MC0203J22010600005","2024-03-08T05:15:00",11.899,15.070083,0.077],
    [14147,"urn:WaterMeter:MC0203J22010600005","2024-03-08T05:30:00",11.899,15.121285,0.076],
    [14148,"urn:WaterMeter:MC0203J22010600005","2024-03-08T05:45:00",11.8,15.059958,0.075],
    [14149,"urn:WaterMeter:MC0203J22010600005","2024-03-08T06:00:00",11.699,15.054178,0.078],
    [14150,"urn:WaterMeter:MC0203J22010600005","2024-03-08T06:15:00",11.5,15.132147,0.077],
    [14151,"urn:WaterMeter:MC0203J22010600005","2024-03-08T06:30:00",11.3,15.074349,0.071],
    [14152,"urn:WaterMeter:MC0203J22010600005","2024-03-08T06:45:00",11.199,15.0646515,0.076],
    [14153,"urn:WaterMeter:MC0203J22010600005","2024-03-08T07:00:00",11.1,15.104994,0.083],
    [14154,"urn:WaterMeter:MC0203J22010600005","2024-03-08T07:15:00",11,15.126289,0.075],
    [14155,"urn:WaterMeter:MC0203J22010600005","2024-03-08T07:30:00",10.899,15.056118,0.075],
    [14156,"urn:WaterMeter:MC0203J22010600005","2024-03-08T07:45:00",10.899,15.103442,0.079],
    [14157,"urn:WaterMeter:MC0203J22010600005","2024-03-08T08:00:00",10.899,15.109649,0.08],
    [14158,"urn:WaterMeter:MC0203J22010600005","2024-03-08T08:15:00",11,15.111976,0.08],
    [14159,"urn:WaterMeter:MC0203J22010600005","2024-03-08T08:30:00",11.1,15.154218,0.075],
    [14160,"urn:WaterMeter:MC0203J22010600005","2024-03-08T08:45:00",11.399,15.130982,0.076],
    [14161,"urn:WaterMeter:MC0203J22010600005","2024-03-08T09:00:00",11.8,15.18141,0.073],
    [14162,"urn:WaterMeter:MC0203J22010600005","2024-03-08T09:15:00",12.199,15.176755,0.076],
    [14163,"urn:WaterMeter:MC0203J22010600005","2024-03-08T09:30:00",12.6,15.136374,0.077],
    [14164,"urn:WaterMeter:MC0203J22010600005","2024-03-08T09:45:00",12.899,15.141068,0.073],
    [14165,"urn:WaterMeter:MC0203J22010600005","2024-03-08T10:00:00",13.3,15.120897,0.07],
    [14166,"urn:WaterMeter:MC0203J22010600005","2024-03-08T10:15:00",13.6,15.160075,0.074],
    [14167,"urn:WaterMeter:MC0203J22010600005","2024-03-08T10:30:00",13.899,15.106157,0.072],
    [14168,"urn:WaterMeter:MC0203J22010600005","2024-03-08T10:45:00",14.3,15.153093,0.074],
    [14169,"urn:WaterMeter:MC0203J22010600005","2024-03-08T11:00:00",14.6,15.207787,0.072],
    [14170,"urn:WaterMeter:MC0203J22010600005","2024-03-08T11:15:00",15.1,15.24266,0.073],
    [14171,"urn:WaterMeter:MC0203J22010600005","2024-03-08T11:30:00",15.6,15.243047,0.072],
    [14172,"urn:WaterMeter:MC0203J22010600005","2024-03-08T11:45:00",16.1,15.205033,0.072],
    [14173,"urn:WaterMeter:MC0203J22010600005","2024-03-08T12:00:00",16.399,15.200805,0.07],
    [14174,"urn:WaterMeter:MC0203J22010600005","2024-03-08T12:15:00",16.7,15.232186,0.073],
    [14175,"urn:WaterMeter:MC0203J22010600005","2024-03-08T12:30:00",16.899,15.195724,0.072],
    [14176,"urn:WaterMeter:MC0203J22010600005","2024-03-08T12:45:00",16.799,15.213567,0.073],
    [14177,"urn:WaterMeter:MC0203J22010600005","2024-03-08T13:00:00",16.6,15.2202,0.073],
    [14178,"urn:WaterMeter:MC0203J22010600005","2024-03-08T13:15:00",16.5,15.14999,0.071],
    [14179,"urn:WaterMeter:MC0203J22010600005","2024-03-08T13:30:00",16.6,15.192232,0.073],
    [14180,"urn:WaterMeter:MC0203J22010600005","2024-03-08T13:45:00",16.799,15.143007,0.074],
    [14181,"urn:WaterMeter:MC0203J22010600005","2024-03-08T14:00:00",17,15.225243,0.074],
    [14182,"urn:WaterMeter:MC0203J22010600005","2024-03-08T14:15:00",17.1,15.200805,0.074],
    [14183,"urn:WaterMeter:MC0203J22010600005","2024-03-08T14:30:00",17.299,15.180634,0.074],
    [14184,"urn:WaterMeter:MC0203J22010600005","2024-03-08T14:45:00",17.2,15.151154,0.075],
    [14185,"urn:WaterMeter:MC0203J22010600005","2024-03-08T15:00:00",17.1,15.128655,0.074],
    [14186,"urn:WaterMeter:MC0203J22010600005","2024-03-08T15:15:00",17.299,15.146072,0.072],
    [14187,"urn:WaterMeter:MC0203J22010600005","2024-03-08T15:30:00",17.299,15.14646,0.074],
    [14188,"urn:WaterMeter:MC0203J22010600005","2024-03-08T15:45:00",17.299,15.120122,0.073],
    [14189,"urn:WaterMeter:MC0203J22010600005","2024-03-08T16:00:00",17.2,15.1561575,0.073],
    [14190,"urn:WaterMeter:MC0203J22010600005","2024-03-08T16:15:00",17,15.152317,0.073],
    [14191,"urn:WaterMeter:MC0203J22010600005","2024-03-08T16:30:00",16.799,15.068492,0.075],
    [14192,"urn:WaterMeter:MC0203J22010600005","2024-03-08T16:45:00",16.5,15.125164,0.072],
    [14193,"urn:WaterMeter:MC0203J22010600005","2024-03-08T17:00:00",16.399,15.085986,0.077],
    [14194,"urn:WaterMeter:MC0203J22010600005","2024-03-08T17:15:00",16.2,15.080556,0.074],
    [14195,"urn:WaterMeter:MC0203J22010600005","2024-03-08T17:30:00",16.1,15.043318,0.077],
    [14196,"urn:WaterMeter:MC0203J22010600005","2024-03-08T17:45:00",15.899,15.103442,0.073],
    [14197,"urn:WaterMeter:MC0203J22010600005","2024-03-08T18:00:00",15.699,15.040175,0.075],
    [14198,"urn:WaterMeter:MC0203J22010600005","2024-03-08T18:15:00",15.5,15.095257,0.076],
    [14199,"urn:WaterMeter:MC0203J22010600005","2024-03-08T18:30:00",15.3,15.042153,0.076],
    [14200,"urn:WaterMeter:MC0203J22010600005","2024-03-08T18:45:00",15.1,15.103829,0.076],
    [14201,"urn:WaterMeter:MC0203J22010600005","2024-03-08T19:00:00",14.899,15.086762,0.074],
    [14202,"urn:WaterMeter:MC0203J22010600005","2024-03-08T19:15:00",14.6,15.0153885,0.078],
    [14203,"urn:WaterMeter:MC0203J22010600005","2024-03-08T19:30:00",14.399,15.011083,0.077],
    [14204,"urn:WaterMeter:MC0203J22010600005","2024-03-08T19:45:00",14.199,15.083271,0.077],
    [14205,"urn:WaterMeter:MC0203J22010600005","2024-03-08T20:00:00",14,14.992076,0.072],
    [14206,"urn:WaterMeter:MC0203J22010600005","2024-03-08T20:15:00",13.8,15.000998,0.079],
    [14207,"urn:WaterMeter:MC0203J22010600005","2024-03-08T20:30:00",13.699,15.034783,0.08],
    [14208,"urn:WaterMeter:MC0203J22010600005","2024-03-08T20:45:00",13.6,15.05957,0.076],
    [14209,"urn:WaterMeter:MC0203J22010600005","2024-03-08T21:00:00",13.5,15.057243,0.078],
    [14210,"urn:WaterMeter:MC0203J22010600005","2024-03-08T21:15:00",13.399,15.027025,0.078],
    [14211,"urn:WaterMeter:MC0203J22010600005","2024-03-08T21:30:00",13.3,15.036335,0.078],
    [14212,"urn:WaterMeter:MC0203J22010600005","2024-03-08T21:45:00",13.3,15.017328,0.077],
    [14213,"urn:WaterMeter:MC0203J22010600005","2024-03-08T22:00:00",13.1,14.980051,0.077],
    [14214,"urn:WaterMeter:MC0203J22010600005","2024-03-08T22:15:00",13,15.047196,0.078],
    [14215,"urn:WaterMeter:MC0203J22010600005","2024-03-08T22:30:00",12.899,15.040564,0.075],
    [14216,"urn:WaterMeter:MC0203J22010600005","2024-03-08T22:45:00",12.899,14.99289,0.078],
    [14217,"urn:WaterMeter:MC0203J22010600005","2024-03-08T23:00:00",12.8,15.001773,0.078],
    [14218,"urn:WaterMeter:MC0203J22010600005","2024-03-08T23:15:00",12.699,15.032456,0.077],
    [14219,"urn:WaterMeter:MC0203J22010600005","2024-03-08T23:30:00",12.699,15.012285,0.075],
    [14220,"urn:WaterMeter:MC0203J22010600005","2024-03-08T23:45:00",12.699,15.004527,0.077],
    [14221,"urn:WaterMeter:MC0203J22010600005","2024-03-09T00:00:00",12.6,15.03009,0.075],
    [14222,"urn:WaterMeter:MC0203J22010600005","2024-03-09T00:15:00",12.6,15.038624,0.077],
    [14223,"urn:WaterMeter:MC0203J22010600005","2024-03-09T00:30:00",12.6,15.03746,0.078],
    [14224,"urn:WaterMeter:MC0203J22010600005","2024-03-09T00:45:00",12.6,15.031293,0.073],
    [14225,"urn:WaterMeter:MC0203J22010600005","2024-03-09T01:00:00",12.6,15.048709,0.077],
    [14226,"urn:WaterMeter:MC0203J22010600005","2024-03-09T01:15:00",12.6,15.025862,0.074],
    [14227,"urn:WaterMeter:MC0203J22010600005","2024-03-09T01:30:00",12.6,15.005303,0.077],
    [14228,"urn:WaterMeter:MC0203J22010600005","2024-03-09T01:45:00",12.6,15.052239,0.075],
    [14229,"urn:WaterMeter:MC0203J22010600005","2024-03-09T02:00:00",12.6,15.043705,0.078],
    [14230,"urn:WaterMeter:MC0203J22010600005","2024-03-09T02:15:00",12.6,15.029314,0.076],
    [14231,"urn:WaterMeter:MC0203J22010600005","2024-03-09T02:30:00",12.6,15.004527,0.075],
    [14232,"urn:WaterMeter:MC0203J22010600005","2024-03-09T02:45:00",12.6,15.004527,0.077],
    [14233,"urn:WaterMeter:MC0203J22010600005","2024-03-09T03:00:00",12.5,15.050261,0.073],
    [14234,"urn:WaterMeter:MC0203J22010600005","2024-03-09T03:15:00",12.5,15.034783,0.077],
    [14235,"urn:WaterMeter:MC0203J22010600005","2024-03-09T03:30:00",12.399,14.999058,0.073],
    [14236,"urn:WaterMeter:MC0203J22010600005","2024-03-09T03:45:00",12.3,15.040564,0.075],
    [14237,"urn:WaterMeter:MC0203J22010600005","2024-03-09T04:00:00",12.3,14.990175,0.077],
    [14238,"urn:WaterMeter:MC0203J22010600005","2024-03-09T04:15:00",12.199,14.98746,0.075],
    [14239,"urn:WaterMeter:MC0203J22010600005","2024-03-09T04:30:00",12.199,15.061936,0.075],
    [14240,"urn:WaterMeter:MC0203J22010600005","2024-03-09T04:45:00",12.199,15.020392,0.069],
    [14241,"urn:WaterMeter:MC0203J22010600005","2024-03-09T05:00:00",12.1,14.971129,0.076],
    [14242,"urn:WaterMeter:MC0203J22010600005","2024-03-09T05:15:00",12.1,14.996769,0.075],
    [14243,"urn:WaterMeter:MC0203J22010600005","2024-03-09T05:30:00",12.1,15.048709,0.078],
    [14244,"urn:WaterMeter:MC0203J22010600005","2024-03-09T05:45:00",12.199,14.990912,0.073],
    [14245,"urn:WaterMeter:MC0203J22010600005","2024-03-09T06:00:00",12.3,15.07978,0.077],
    [14246,"urn:WaterMeter:MC0203J22010600005","2024-03-09T06:15:00",12.399,15.0080185,0.077],
    [14247,"urn:WaterMeter:MC0203J22010600005","2024-03-09T06:30:00",12.5,15.038624,0.077],
    [14248,"urn:WaterMeter:MC0203J22010600005","2024-03-09T06:45:00",12.5,15.065428,0.072],
    [14249,"urn:WaterMeter:MC0203J22010600005","2024-03-09T07:00:00",12.6,15.027413,0.075],
    [14250,"urn:WaterMeter:MC0203J22010600005","2024-03-09T07:15:00",12.6,15.085599,0.071],
    [14251,"urn:WaterMeter:MC0203J22010600005","2024-03-09T07:30:00",12.699,15.064264,0.077],
    [14252,"urn:WaterMeter:MC0203J22010600005","2024-03-09T07:45:00",12.8,15.006467,0.074],
    [14253,"urn:WaterMeter:MC0203J22010600005","2024-03-09T08:00:00",12.899,15.058795,0.073],
    [14254,"urn:WaterMeter:MC0203J22010600005","2024-03-09T08:15:00",13.1,15.039012,0.077],
    [14255,"urn:WaterMeter:MC0203J22010600005","2024-03-09T08:30:00",13.199,15.055343,0.074],
    [14256,"urn:WaterMeter:MC0203J22010600005","2024-03-09T08:45:00",13.399,15.078577,0.079],
    [14257,"urn:WaterMeter:MC0203J22010600005","2024-03-09T09:00:00",13.5,15.00957,0.076],
    [14258,"urn:WaterMeter:MC0203J22010600005","2024-03-09T09:15:00",13.6,15.063876,0.074],
    [14259,"urn:WaterMeter:MC0203J22010600005","2024-03-09T09:30:00",13.8,15.025086,0.072],
    [14260,"urn:WaterMeter:MC0203J22010600005","2024-03-09T09:45:00",14,15.015777,0.072],
    [14261,"urn:WaterMeter:MC0203J22010600005","2024-03-09T10:00:00",14.199,15.042153,0.075],
    [14262,"urn:WaterMeter:MC0203J22010600005","2024-03-09T10:15:00",14.3,15.070471,0.073],
    [14263,"urn:WaterMeter:MC0203J22010600005","2024-03-09T10:30:00",14.5,15.020004,0.076],
    [14264,"urn:WaterMeter:MC0203J22010600005","2024-03-09T10:45:00",14.6,15.050261,0.074],
    [14265,"urn:WaterMeter:MC0203J22010600005","2024-03-09T11:00:00",14.5,15.014225,0.076],
    [14266,"urn:WaterMeter:MC0203J22010600005","2024-03-09T11:15:00",14.1,15.003364,0.075],
    [14267,"urn:WaterMeter:MC0203J22010600005","2024-03-09T11:30:00",13.6,15.026638,0.074],
    [14268,"urn:WaterMeter:MC0203J22010600005","2024-03-09T11:45:00",13.399,15.010695,0.077],
    [14269,"urn:WaterMeter:MC0203J22010600005","2024-03-09T12:00:00",13.6,15.009919,0.076],
    [14270,"urn:WaterMeter:MC0203J22010600005","2024-03-09T12:15:00",13.699,15.054178,0.075],
    [14271,"urn:WaterMeter:MC0203J22010600005","2024-03-09T12:30:00",13.6,15.025086,0.073],
    [14272,"urn:WaterMeter:MC0203J22010600005","2024-03-09T12:45:00",13.6,15.016165,0.074],
    [14273,"urn:WaterMeter:MC0203J22010600005","2024-03-09T13:00:00",13.5,15.070471,0.077],
    [14274,"urn:WaterMeter:MC0203J22010600005","2024-03-09T13:15:00",13.5,15.009182,0.076],
    [14275,"urn:WaterMeter:MC0203J22010600005","2024-03-09T13:30:00",13.399,15.013062,0.078],
    [14276,"urn:WaterMeter:MC0203J22010600005","2024-03-09T13:45:00",13.3,15.002588,0.074],
    [14277,"urn:WaterMeter:MC0203J22010600005","2024-03-09T14:00:00",13.199,14.997157,0.074],
    [14278,"urn:WaterMeter:MC0203J22010600005","2024-03-09T14:15:00",13.199,15.05957,0.075],
    [14279,"urn:WaterMeter:MC0203J22010600005","2024-03-09T14:30:00",13.1,14.993667,0.076],
    [14280,"urn:WaterMeter:MC0203J22010600005","2024-03-09T14:45:00",13.1,15.023147,0.074],
    [14281,"urn:WaterMeter:MC0203J22010600005","2024-03-09T15:00:00",13,15.035947,0.076],
    [14282,"urn:WaterMeter:MC0203J22010600005","2024-03-09T15:15:00",13,15.013449,0.073],
    [14283,"urn:WaterMeter:MC0203J22010600005","2024-03-09T15:30:00",13,15.073574,0.076],
    [14284,"urn:WaterMeter:MC0203J22010600005","2024-03-09T15:45:00",13,14.99289,0.075],
    [14285,"urn:WaterMeter:MC0203J22010600005","2024-03-09T16:00:00",13,15.044093,0.076],
    [14286,"urn:WaterMeter:MC0203J22010600005","2024-03-09T16:15:00",13,14.977374,0.078],
    [14287,"urn:WaterMeter:MC0203J22010600005","2024-03-09T16:30:00",13.1,15.067755,0.075],
    [14288,"urn:WaterMeter:MC0203J22010600005","2024-03-09T16:45:00",13.1,15.043318,0.077],
    [14289,"urn:WaterMeter:MC0203J22010600005","2024-03-09T17:00:00",13.1,14.999058,0.076],
    [14290,"urn:WaterMeter:MC0203J22010600005","2024-03-09T17:15:00",13.1,15.03009,0.076],
    [14291,"urn:WaterMeter:MC0203J22010600005","2024-03-09T17:30:00",12.899,15.049873,0.075],
    [14292,"urn:WaterMeter:MC0203J22010600005","2024-03-09T17:45:00",12.8,14.997545,0.077],
    [14293,"urn:WaterMeter:MC0203J22010600005","2024-03-09T18:00:00",12.699,15.041378,0.072],
    [14294,"urn:WaterMeter:MC0203J22010600005","2024-03-09T18:15:00",12.6,15.027025,0.077],
    [14295,"urn:WaterMeter:MC0203J22010600005","2024-03-09T18:30:00",12.5,15.051851,0.075],
    [14296,"urn:WaterMeter:MC0203J22010600005","2024-03-09T18:45:00",12.399,15.041766,0.076],
    [14297,"urn:WaterMeter:MC0203J22010600005","2024-03-09T19:00:00",12.399,15.047585,0.072],
    [14298,"urn:WaterMeter:MC0203J22010600005","2024-03-09T19:15:00",12.3,14.977374,0.075],
    [14299,"urn:WaterMeter:MC0203J22010600005","2024-03-09T19:30:00",12.199,14.989787,0.073],
    [14300,"urn:WaterMeter:MC0203J22010600005","2024-03-09T19:45:00",12.1,14.992076,0.073],
    [14301,"urn:WaterMeter:MC0203J22010600005","2024-03-09T20:00:00",11.899,15.034008,0.078],
    [14302,"urn:WaterMeter:MC0203J22010600005","2024-03-09T20:15:00",11.699,15.0153885,0.075],
    [14303,"urn:WaterMeter:MC0203J22010600005","2024-03-09T20:30:00",11.6,14.995994,0.073],
    [14304,"urn:WaterMeter:MC0203J22010600005","2024-03-09T20:45:00",11.5,15.011083,0.074],
    [14305,"urn:WaterMeter:MC0203J22010600005","2024-03-09T21:00:00",11.3,15.018453,0.074],
    [14306,"urn:WaterMeter:MC0203J22010600005","2024-03-09T21:15:00",11.1,14.99483,0.08],
    [14307,"urn:WaterMeter:MC0203J22010600005","2024-03-09T21:30:00",11,15.019617,0.075],
    [14308,"urn:WaterMeter:MC0203J22010600005","2024-03-09T21:45:00",11,15.035947,0.074],
    [14309,"urn:WaterMeter:MC0203J22010600005","2024-03-09T22:00:00",10.899,15.004527,0.077],
    [14310,"urn:WaterMeter:MC0203J22010600005","2024-03-09T22:15:00",10.899,15.049097,0.075],
    [14311,"urn:WaterMeter:MC0203J22010600005","2024-03-09T22:30:00",10.8,14.97815,0.077],
    [14312,"urn:WaterMeter:MC0203J22010600005","2024-03-09T22:45:00",10.6,14.9859085,0.076],
    [14313,"urn:WaterMeter:MC0203J22010600005","2024-03-09T23:00:00",10.5,14.964574,0.076],
    [14314,"urn:WaterMeter:MC0203J22010600005","2024-03-09T23:15:00",10.3,15.03009,0.077],
    [14315,"urn:WaterMeter:MC0203J22010600005","2024-03-09T23:30:00",10.199,15.027413,0.075],
    [14316,"urn:WaterMeter:MC0203J22010600005","2024-03-09T23:45:00",10.1,14.947894,0.077],
    [14317,"urn:WaterMeter:MC0203J22010600005","2024-03-10T00:00:00",9.899,14.951735,0.078],
    [14318,"urn:WaterMeter:MC0203J22010600005","2024-03-10T00:15:00",9.699,15.01694,0.078],
    [14319,"urn:WaterMeter:MC0203J22010600005","2024-03-10T00:30:00",9.6,15.001386,0.076],
    [14320,"urn:WaterMeter:MC0203J22010600005","2024-03-10T00:45:00",9.399,15.013837,0.079],
    [14321,"urn:WaterMeter:MC0203J22010600005","2024-03-10T01:00:00",9.3,14.973107,0.077],
    [14322,"urn:WaterMeter:MC0203J22010600005","2024-03-10T01:15:00",9.1,14.990912,0.073],
    [14323,"urn:WaterMeter:MC0203J22010600005","2024-03-10T01:30:00",9,15.004915,0.077],
    [14324,"urn:WaterMeter:MC0203J22010600005","2024-03-10T01:45:00",8.899,14.983581,0.075],
    [14325,"urn:WaterMeter:MC0203J22010600005","2024-03-10T02:00:00",8.8,15.00414,0.076],
    [14326,"urn:WaterMeter:MC0203J22010600005","2024-03-10T02:15:00",8.699,15.015777,0.077],
    [14327,"urn:WaterMeter:MC0203J22010600005","2024-03-10T02:30:00",8.6,14.990912,0.077],
    [14328,"urn:WaterMeter:MC0203J22010600005","2024-03-10T02:45:00",8.5,15.00957,0.073],
    [14329,"urn:WaterMeter:MC0203J22010600005","2024-03-10T03:00:00",8.399,14.9913,0.076],
    [14330,"urn:WaterMeter:MC0203J22010600005","2024-03-10T03:15:00",8.3,15.001386,0.075],
    [14331,"urn:WaterMeter:MC0203J22010600005","2024-03-10T03:30:00",8.199,14.989787,0.076],
    [14332,"urn:WaterMeter:MC0203J22010600005","2024-03-10T03:45:00",8.1,14.960656,0.071],
    [14333,"urn:WaterMeter:MC0203J22010600005","2024-03-10T04:00:00",8,14.983581,0.077],
    [14334,"urn:WaterMeter:MC0203J22010600005","2024-03-10T04:15:00",7.9,14.971129,0.073],
    [14335,"urn:WaterMeter:MC0203J22010600005","2024-03-10T04:30:00",7.8,14.990912,0.072],
    [14336,"urn:WaterMeter:MC0203J22010600005","2024-03-10T04:45:00",7.8,14.991688,0.073],
    [14337,"urn:WaterMeter:MC0203J22010600005","2024-03-10T05:00:00",7.699,14.982378,0.078],
    [14338,"urn:WaterMeter:MC0203J22010600005","2024-03-10T05:15:00",7.599,14.998671,0.08],
    [14339,"urn:WaterMeter:MC0203J22010600005","2024-03-10T05:30:00",7.5,14.997933,0.077],
    [14340,"urn:WaterMeter:MC0203J22010600005","2024-03-10T05:45:00",7.5,15.028965,0.077],
    [14341,"urn:WaterMeter:MC0203J22010600005","2024-03-10T06:00:00",7.4,14.976987,0.076],
    [14342,"urn:WaterMeter:MC0203J22010600005","2024-03-10T06:15:00",7.3,14.986296,0.079],
    [14343,"urn:WaterMeter:MC0203J22010600005","2024-03-10T06:30:00",7.199,14.988235,0.074],
    [14344,"urn:WaterMeter:MC0203J22010600005","2024-03-10T06:45:00",7.199,15.020781,0.069],
    [14345,"urn:WaterMeter:MC0203J22010600005","2024-03-10T07:00:00",7.199,14.992076,0.076],
    [14346,"urn:WaterMeter:MC0203J22010600005","2024-03-10T07:15:00",7.3,15.012673,0.076],
    [14347,"urn:WaterMeter:MC0203J22010600005","2024-03-10T07:30:00",7.4,15.025086,0.074],
    [14348,"urn:WaterMeter:MC0203J22010600005","2024-03-10T07:45:00",7.599,15.063488,0.075],
    [14349,"urn:WaterMeter:MC0203J22010600005","2024-03-10T08:00:00",7.8,15.061161,0.071],
    [14350,"urn:WaterMeter:MC0203J22010600005","2024-03-10T08:15:00",8,15.025862,0.073],
    [14351,"urn:WaterMeter:MC0203J22010600005","2024-03-10T08:30:00",8.199,15.03168,0.069],
    [14352,"urn:WaterMeter:MC0203J22010600005","2024-03-10T08:45:00",8.5,15.053403,0.075],
    [14353,"urn:WaterMeter:MC0203J22010600005","2024-03-10T09:00:00",8.899,15.111588,0.072],
    [14354,"urn:WaterMeter:MC0203J22010600005","2024-03-10T09:15:00",9.199,15.082108,0.072],
    [14355,"urn:WaterMeter:MC0203J22010600005","2024-03-10T09:30:00",9.699,15.118143,0.072],
    [14356,"urn:WaterMeter:MC0203J22010600005","2024-03-10T09:45:00",10.3,15.129044,0.07],
    [14357,"urn:WaterMeter:MC0203J22010600005","2024-03-10T10:00:00",11,15.074349,0.071],
    [14358,"urn:WaterMeter:MC0203J22010600005","2024-03-10T10:15:00",11.6,15.105769,0.071],
    [14359,"urn:WaterMeter:MC0203J22010600005","2024-03-10T10:30:00",12.1,15.130207,0.074],
    [14360,"urn:WaterMeter:MC0203J22010600005","2024-03-10T10:45:00",12.6,15.101891,0.071],
    [14361,"urn:WaterMeter:MC0203J22010600005","2024-03-10T11:00:00",13,15.127065,0.07],
    [14362,"urn:WaterMeter:MC0203J22010600005","2024-03-10T11:15:00",13.1,15.139129,0.072],
    [14363,"urn:WaterMeter:MC0203J22010600005","2024-03-10T11:30:00",13.199,15.133698,0.071],
    [14364,"urn:WaterMeter:MC0203J22010600005","2024-03-10T11:45:00",13.399,15.124389,0.069],
    [14365,"urn:WaterMeter:MC0203J22010600005","2024-03-10T12:00:00",13.8,15.077802,0.072],
    [14366,"urn:WaterMeter:MC0203J22010600005","2024-03-10T12:15:00",14,15.101114,0.072],
    [14367,"urn:WaterMeter:MC0203J22010600005","2024-03-10T12:30:00",14.1,15.117755,0.072],
    [14368,"urn:WaterMeter:MC0203J22010600005","2024-03-10T12:45:00",14.199,15.095645,0.071],
    [14369,"urn:WaterMeter:MC0203J22010600005","2024-03-10T13:00:00",14.3,15.112364,0.07],
    [14370,"urn:WaterMeter:MC0203J22010600005","2024-03-10T13:15:00",14.3,15.062713,0.073],
    [14371,"urn:WaterMeter:MC0203J22010600005","2024-03-10T13:30:00",14.3,15.1189575,0.073],
    [14372,"urn:WaterMeter:MC0203J22010600005","2024-03-10T13:45:00",14.399,15.122449,0.081],
    [14373,"urn:WaterMeter:MC0203J22010600005","2024-03-10T14:00:00",14.5,15.136374,0.072],
    [14374,"urn:WaterMeter:MC0203J22010600005","2024-03-10T14:15:00",14.6,15.114303,0.069],
    [14375,"urn:WaterMeter:MC0203J22010600005","2024-03-10T14:30:00",14.8,15.07978,0.069],
    [14376,"urn:WaterMeter:MC0203J22010600005","2024-03-10T14:45:00",15,15.124389,0.071],
    [14377,"urn:WaterMeter:MC0203J22010600005","2024-03-10T15:00:00",15.1,15.087887,0.073],
    [14378,"urn:WaterMeter:MC0203J22010600005","2024-03-10T15:15:00",15.3,15.092581,0.074],
    [14379,"urn:WaterMeter:MC0203J22010600005","2024-03-10T15:30:00",15.3,15.096421,0.074],
    [14380,"urn:WaterMeter:MC0203J22010600005","2024-03-10T15:45:00",15.399,15.067755,0.073],
    [14381,"urn:WaterMeter:MC0203J22010600005","2024-03-10T16:00:00",15.399,15.03556,0.071],
    [14382,"urn:WaterMeter:MC0203J22010600005","2024-03-10T16:15:00",15.199,15.0631,0.075],
    [14383,"urn:WaterMeter:MC0203J22010600005","2024-03-10T16:30:00",15.1,15.108058,0.073],
    [14384,"urn:WaterMeter:MC0203J22010600005","2024-03-10T16:45:00",15,15.05957,0.073],
    [14385,"urn:WaterMeter:MC0203J22010600005","2024-03-10T17:00:00",14.899,15.095645,0.075],
    [14386,"urn:WaterMeter:MC0203J22010600005","2024-03-10T17:15:00",14.8,15.071246,0.075],
    [14387,"urn:WaterMeter:MC0203J22010600005","2024-03-10T17:30:00",14.699,15.093356,0.075],
    [14388,"urn:WaterMeter:MC0203J22010600005","2024-03-10T17:45:00",14.5,15.028965,0.075],
    [14389,"urn:WaterMeter:MC0203J22010600005","2024-03-10T18:00:00",14.399,15.05957,0.078],
    [14390,"urn:WaterMeter:MC0203J22010600005","2024-03-10T18:15:00",14.199,15.073186,0.071],
    [14391,"urn:WaterMeter:MC0203J22010600005","2024-03-10T18:30:00",14.1,15.005303,0.076],
    [14392,"urn:WaterMeter:MC0203J22010600005","2024-03-10T18:45:00",14,14.997545,0.076],
    [14393,"urn:WaterMeter:MC0203J22010600005","2024-03-10T19:00:00",13.8,15.053403,0.076],
    [14394,"urn:WaterMeter:MC0203J22010600005","2024-03-10T19:15:00",13.6,14.982378,0.073],
    [14395,"urn:WaterMeter:MC0203J22010600005","2024-03-10T19:30:00",13.5,15.01694,0.072],
    [14396,"urn:WaterMeter:MC0203J22010600005","2024-03-10T19:45:00",13.399,15.049485,0.078],
    [14397,"urn:WaterMeter:MC0203J22010600005","2024-03-10T20:00:00",13.199,15.023535,0.076],
    [14398,"urn:WaterMeter:MC0203J22010600005","2024-03-10T20:15:00",13.1,15.018065,0.078],
    [14399,"urn:WaterMeter:MC0203J22010600005","2024-03-10T20:30:00",12.899,15.02237,0.075],
    [14400,"urn:WaterMeter:MC0203J22010600005","2024-03-10T20:45:00",12.699,15.03746,0.075],
    [14401,"urn:WaterMeter:MC0203J22010600005","2024-03-10T21:00:00",12.5,14.992076,0.076],
    [14402,"urn:WaterMeter:MC0203J22010600005","2024-03-10T21:15:00",12.3,14.950609,0.075],
    [14403,"urn:WaterMeter:MC0203J22010600005","2024-03-10T21:30:00",12.1,14.928111,0.076],
    [14404,"urn:WaterMeter:MC0203J22010600005","2024-03-10T21:45:00",11.899,15.02431,0.076],
    [14405,"urn:WaterMeter:MC0203J22010600005","2024-03-10T22:00:00",11.699,14.945954,0.07],
    [14406,"urn:WaterMeter:MC0203J22010600005","2024-03-10T22:15:00",11.5,14.993667,0.078],
    [14407,"urn:WaterMeter:MC0203J22010600005","2024-03-10T22:30:00",11.3,14.981215,0.077],
    [14408,"urn:WaterMeter:MC0203J22010600005","2024-03-10T22:45:00",11.199,14.956816,0.073],
    [14409,"urn:WaterMeter:MC0203J22010600005","2024-03-10T23:00:00",11,15.019229,0.072],
    [14410,"urn:WaterMeter:MC0203J22010600005","2024-03-10T23:15:00",10.899,14.987847,0.077],
    [14411,"urn:WaterMeter:MC0203J22010600005","2024-03-10T23:30:00",10.8,14.979275,0.076],
    [14412,"urn:WaterMeter:MC0203J22010600005","2024-03-10T23:45:00",10.699,14.948669,0.076],
    [14413,"urn:WaterMeter:MC0203J22010600005","2024-03-11T00:00:00",10.6,14.908328,0.076],
    [14414,"urn:WaterMeter:MC0203J22010600005","2024-03-11T00:15:00",10.5,14.930438,0.076],
    [14415,"urn:WaterMeter:MC0203J22010600005","2024-03-11T00:30:00",10.399,14.9416485,0.073],
    [14416,"urn:WaterMeter:MC0203J22010600005","2024-03-11T00:45:00",10.199,14.974659,0.075],
    [14417,"urn:WaterMeter:MC0203J22010600005","2024-03-11T01:00:00",10.1,14.957204,0.077],
    [14418,"urn:WaterMeter:MC0203J22010600005","2024-03-11T01:15:00",10,14.969229,0.072],
    [14419,"urn:WaterMeter:MC0203J22010600005","2024-03-11T01:30:00",9.899,14.962983,0.075],
    [14420,"urn:WaterMeter:MC0203J22010600005","2024-03-11T01:45:00",9.899,14.939748,0.076],
    [14421,"urn:WaterMeter:MC0203J22010600005","2024-03-11T02:00:00",9.899,14.983969,0.073],
    [14422,"urn:WaterMeter:MC0203J22010600005","2024-03-11T02:15:00",9.899,14.996382,0.078],
    [14423,"urn:WaterMeter:MC0203J22010600005","2024-03-11T02:30:00",9.899,15.000609,0.076],
    [14424,"urn:WaterMeter:MC0203J22010600005","2024-03-11T02:45:00",9.8,14.965349,0.08],
    [14425,"urn:WaterMeter:MC0203J22010600005","2024-03-11T03:00:00",9.699,14.982378,0.076],
    [14426,"urn:WaterMeter:MC0203J22010600005","2024-03-11T03:15:00",9.6,14.947118,0.075],
    [14427,"urn:WaterMeter:MC0203J22010600005","2024-03-11T03:30:00",9.5,14.972293,0.077],
    [14428,"urn:WaterMeter:MC0203J22010600005","2024-03-11T03:45:00",9.399,14.990524,0.076],
    [14429,"urn:WaterMeter:MC0203J22010600005","2024-03-11T04:00:00",9.3,14.970392,0.077],
    [14430,"urn:WaterMeter:MC0203J22010600005","2024-03-11T04:15:00",9.1,14.994054,0.076],
    [14431,"urn:WaterMeter:MC0203J22010600005","2024-03-11T04:30:00",9,14.948669,0.078],
    [14432,"urn:WaterMeter:MC0203J22010600005","2024-03-11T04:45:00",8.899,14.947894,0.075],
    [14433,"urn:WaterMeter:MC0203J22010600005","2024-03-11T05:00:00",8.8,14.962983,0.071],
    [14434,"urn:WaterMeter:MC0203J22010600005","2024-03-11T05:15:00",8.699,14.985132,0.074],
    [14435,"urn:WaterMeter:MC0203J22010600005","2024-03-11T05:30:00",8.699,15.004915,0.075],
    [14436,"urn:WaterMeter:MC0203J22010600005","2024-03-11T05:45:00",8.6,14.964186,0.077],
    [14437,"urn:WaterMeter:MC0203J22010600005","2024-03-11T06:00:00",8.5,14.996382,0.075],
    [14438,"urn:WaterMeter:MC0203J22010600005","2024-03-11T06:15:00",8.5,14.967677,0.077],
    [14439,"urn:WaterMeter:MC0203J22010600005","2024-03-11T06:30:00",8.399,14.983581,0.075],
    [14440,"urn:WaterMeter:MC0203J22010600005","2024-03-11T06:45:00",8.399,14.976211,0.078],
    [14441,"urn:WaterMeter:MC0203J22010600005","2024-03-11T07:00:00",8.3,14.980051,0.076],
    [14442,"urn:WaterMeter:MC0203J22010600005","2024-03-11T07:15:00",8.3,14.975047,0.075],
    [14443,"urn:WaterMeter:MC0203J22010600005","2024-03-11T07:30:00",8.399,14.966901,0.076],
    [14444,"urn:WaterMeter:MC0203J22010600005","2024-03-11T07:45:00",8.699,15.010695,0.071],
    [14445,"urn:WaterMeter:MC0203J22010600005","2024-03-11T08:00:00",8.899,14.984744,0.072],
    [14446,"urn:WaterMeter:MC0203J22010600005","2024-03-11T08:15:00",9.199,15.032845,0.075],
    [14447,"urn:WaterMeter:MC0203J22010600005","2024-03-11T08:30:00",9.5,15.017328,0.07],
    [14448,"urn:WaterMeter:MC0203J22010600005","2024-03-11T08:45:00",9.899,15.056855,0.074],
    [14449,"urn:WaterMeter:MC0203J22010600005","2024-03-11T09:00:00",10.399,15.020004,0.073],
    [14450,"urn:WaterMeter:MC0203J22010600005","2024-03-11T09:15:00",10.8,15.066591,0.073],
    [14451,"urn:WaterMeter:MC0203J22010600005","2024-03-11T09:30:00",11.3,15.020004,0.073],
    [14452,"urn:WaterMeter:MC0203J22010600005","2024-03-11T09:45:00",11.699,15.103054,0.072],
    [14453,"urn:WaterMeter:MC0203J22010600005","2024-03-11T10:00:00",12,15.021595,0.073],
    [14454,"urn:WaterMeter:MC0203J22010600005","2024-03-11T10:15:00",12.399,15.011083,0.071],
    [14455,"urn:WaterMeter:MC0203J22010600005","2024-03-11T10:30:00",12.699,15.072022,0.071],
    [14456,"urn:WaterMeter:MC0203J22010600005","2024-03-11T10:45:00",13.1,15.033232,0.072],
    [14457,"urn:WaterMeter:MC0203J22010600005","2024-03-11T11:00:00",13.5,15.046421,0.066],
    [14458,"urn:WaterMeter:MC0203J22010600005","2024-03-11T11:15:00",13.8,15.076638,0.069],
    [14459,"urn:WaterMeter:MC0203J22010600005","2024-03-11T11:30:00",14.199,15.07978,0.072],
    [14460,"urn:WaterMeter:MC0203J22010600005","2024-03-11T11:45:00",14.6,15.078965,0.075],
    [14461,"urn:WaterMeter:MC0203J22010600005","2024-03-11T12:00:00",14.899,15.111976,0.071],
    [14462,"urn:WaterMeter:MC0203J22010600005","2024-03-11T12:15:00",15.199,15.076638,0.072],
    [14463,"urn:WaterMeter:MC0203J22010600005","2024-03-11T12:30:00",15.399,15.125552,0.072],
    [14464,"urn:WaterMeter:MC0203J22010600005","2024-03-11T12:45:00",15.5,15.056118,0.072],
    [14465,"urn:WaterMeter:MC0203J22010600005","2024-03-11T13:00:00",15.699,15.04099,0.07],
    [14466,"urn:WaterMeter:MC0203J22010600005","2024-03-11T13:15:00",15.899,15.06888,0.071],
    [14467,"urn:WaterMeter:MC0203J22010600005","2024-03-11T13:30:00",15.899,15.030478,0.069],
    [14468,"urn:WaterMeter:MC0203J22010600005","2024-03-11T13:45:00",16,15.02625,0.072],
    [14469,"urn:WaterMeter:MC0203J22010600005","2024-03-11T14:00:00",16.2,15.077026,0.069],
    [14470,"urn:WaterMeter:MC0203J22010600005","2024-03-11T14:15:00",16.299,15.081719,0.071],
    [14471,"urn:WaterMeter:MC0203J22010600005","2024-03-11T14:30:00",16.299,15.012285,0.072],
    [14472,"urn:WaterMeter:MC0203J22010600005","2024-03-11T14:45:00",16.399,15.063488,0.07],
    [14473,"urn:WaterMeter:MC0203J22010600005","2024-03-11T15:00:00",16.5,15.032456,0.072],
    [14474,"urn:WaterMeter:MC0203J22010600005","2024-03-11T15:15:00",16.5,15.05573,0.072],
    [14475,"urn:WaterMeter:MC0203J22010600005","2024-03-11T15:30:00",16.6,15.034008,0.07],
    [14476,"urn:WaterMeter:MC0203J22010600005","2024-03-11T15:45:00",16.6,15.062713,0.074],
    [14477,"urn:WaterMeter:MC0203J22010600005","2024-03-11T16:00:00",16.6,15.020004,0.074],
    [14478,"urn:WaterMeter:MC0203J22010600005","2024-03-11T16:15:00",16.5,15.055343,0.075],
    [14479,"urn:WaterMeter:MC0203J22010600005","2024-03-11T16:30:00",16.399,15.024698,0.074],
    [14480,"urn:WaterMeter:MC0203J22010600005","2024-03-11T16:45:00",16.299,14.990912,0.074],
    [14481,"urn:WaterMeter:MC0203J22010600005","2024-03-11T17:00:00",16.2,14.957204,0.073],
    [14482,"urn:WaterMeter:MC0203J22010600005","2024-03-11T17:15:00",16.1,14.938972,0.075],
    [14483,"urn:WaterMeter:MC0203J22010600005","2024-03-11T17:30:00",15.899,15.029702,0.075],
    [14484,"urn:WaterMeter:MC0203J22010600005","2024-03-11T17:45:00",15.8,14.962983,0.075],
    [14485,"urn:WaterMeter:MC0203J22010600005","2024-03-11T18:00:00",15.6,14.926559,0.076],
    [14486,"urn:WaterMeter:MC0203J22010600005","2024-03-11T18:15:00",15.5,14.948669,0.074],
    [14487,"urn:WaterMeter:MC0203J22010600005","2024-03-11T18:30:00",15.3,15.000998,0.076],
    [14488,"urn:WaterMeter:MC0203J22010600005","2024-03-11T18:45:00",15.199,14.977374,0.074],
    [14489,"urn:WaterMeter:MC0203J22010600005","2024-03-11T19:00:00",15,14.955264,0.073],
    [14490,"urn:WaterMeter:MC0203J22010600005","2024-03-11T19:15:00",14.899,14.970392,0.074],
    [14491,"urn:WaterMeter:MC0203J22010600005","2024-03-11T19:30:00",14.699,14.889321,0.074],
    [14492,"urn:WaterMeter:MC0203J22010600005","2024-03-11T19:45:00",14.5,14.90988,0.075],
    [14493,"urn:WaterMeter:MC0203J22010600005","2024-03-11T20:00:00",14.3,14.888545,0.075],
    [14494,"urn:WaterMeter:MC0203J22010600005","2024-03-11T20:15:00",14.1,14.919189,0.08],
    [14495,"urn:WaterMeter:MC0203J22010600005","2024-03-11T20:30:00",14,14.933115,0.078],
    [14496,"urn:WaterMeter:MC0203J22010600005","2024-03-11T20:45:00",13.899,14.872253,0.075],
    [14497,"urn:WaterMeter:MC0203J22010600005","2024-03-11T21:00:00",13.8,14.866823,0.077],
    [14498,"urn:WaterMeter:MC0203J22010600005","2024-03-11T21:15:00",13.699,14.890873,0.075],
    [14499,"urn:WaterMeter:MC0203J22010600005","2024-03-11T21:30:00",13.5,14.923805,0.074],
    [14500,"urn:WaterMeter:MC0203J22010600005","2024-03-11T21:45:00",13.399,14.851307,0.072],
    [14501,"urn:WaterMeter:MC0203J22010600005","2024-03-11T22:00:00",13.199,14.897079,0.075],
    [14502,"urn:WaterMeter:MC0203J22010600005","2024-03-11T22:15:00",13,14.854759,0.075],
    [14503,"urn:WaterMeter:MC0203J22010600005","2024-03-11T22:30:00",12.8,14.855535,0.073],
    [14504,"urn:WaterMeter:MC0203J22010600005","2024-03-11T22:45:00",12.699,14.859065,0.077],
    [14505,"urn:WaterMeter:MC0203J22010600005","2024-03-11T23:00:00",12.5,14.881175,0.075],
    [14506,"urn:WaterMeter:MC0203J22010600005","2024-03-11T23:15:00",12.399,14.856311,0.073],
    [14507,"urn:WaterMeter:MC0203J22010600005","2024-03-11T23:30:00",12.3,14.907553,0.076],
    [14508,"urn:WaterMeter:MC0203J22010600005","2024-03-11T23:45:00",12.199,14.914108,0.078],
    [14509,"urn:WaterMeter:MC0203J22010600005","2024-03-12T00:00:00",12.1,14.922254,0.078],
    [14510,"urn:WaterMeter:MC0203J22010600005","2024-03-12T00:15:00",11.899,14.879623,0.075],
    [14511,"urn:WaterMeter:MC0203J22010600005","2024-03-12T00:30:00",11.8,14.893549,0.075],
    [14512,"urn:WaterMeter:MC0203J22010600005","2024-03-12T00:45:00",11.699,14.845061,0.077],
    [14513,"urn:WaterMeter:MC0203J22010600005","2024-03-12T01:00:00",11.699,14.897467,0.077],
    [14514,"urn:WaterMeter:MC0203J22010600005","2024-03-12T01:15:00",11.6,14.857125,0.073],
    [14515,"urn:WaterMeter:MC0203J22010600005","2024-03-12T01:30:00",11.5,14.880012,0.077],
    [14516,"urn:WaterMeter:MC0203J22010600005","2024-03-12T01:45:00",11.399,14.903247,0.072],
    [14517,"urn:WaterMeter:MC0203J22010600005","2024-03-12T02:00:00",11.399,14.912944,0.077],
    [14518,"urn:WaterMeter:MC0203J22010600005","2024-03-12T02:15:00",11.3,14.913332,0.074],
    [14519,"urn:WaterMeter:MC0203J22010600005","2024-03-12T02:30:00",11.3,14.864844,0.071],
    [14520,"urn:WaterMeter:MC0203J22010600005","2024-03-12T02:45:00",11.199,14.876908,0.077],
    [14521,"urn:WaterMeter:MC0203J22010600005","2024-03-12T03:00:00",11.1,14.898631,0.078],
    [14522,"urn:WaterMeter:MC0203J22010600005","2024-03-12T03:15:00",11.1,14.890485,0.075],
    [14523,"urn:WaterMeter:MC0203J22010600005","2024-03-12T03:30:00",11,14.907165,0.076],
    [14524,"urn:WaterMeter:MC0203J22010600005","2024-03-12T03:45:00",11,14.863681,0.076],
    [14525,"urn:WaterMeter:MC0203J22010600005","2024-03-12T04:00:00",10.899,14.915698,0.077],
    [14526,"urn:WaterMeter:MC0203J22010600005","2024-03-12T04:15:00",10.8,14.862517,0.077],
    [14527,"urn:WaterMeter:MC0203J22010600005","2024-03-12T04:30:00",10.699,14.8804,0.079],
    [14528,"urn:WaterMeter:MC0203J22010600005","2024-03-12T04:45:00",10.6,14.897079,0.075],
    [14529,"urn:WaterMeter:MC0203J22010600005","2024-03-12T05:00:00",10.5,14.93234,0.076],
    [14530,"urn:WaterMeter:MC0203J22010600005","2024-03-12T05:15:00",10.5,14.895528,0.076],
    [14531,"urn:WaterMeter:MC0203J22010600005","2024-03-12T05:30:00",10.399,14.918026,0.076],
    [14532,"urn:WaterMeter:MC0203J22010600005","2024-03-12T05:45:00",10.399,14.867987,0.077],
    [14533,"urn:WaterMeter:MC0203J22010600005","2024-03-12T06:00:00",10.3,14.881912,0.075],
    [14534,"urn:WaterMeter:MC0203J22010600005","2024-03-12T06:15:00",10.3,14.880787,0.077],
    [14535,"urn:WaterMeter:MC0203J22010600005","2024-03-12T06:30:00",10.3,14.895528,0.078],
    [14536,"urn:WaterMeter:MC0203J22010600005","2024-03-12T06:45:00",10.3,14.866009,0.073],
    [14537,"urn:WaterMeter:MC0203J22010600005","2024-03-12T07:00:00",10.3,14.881912,0.071],
    [14538,"urn:WaterMeter:MC0203J22010600005","2024-03-12T07:15:00",10.3,14.922642,0.076],
    [14539,"urn:WaterMeter:MC0203J22010600005","2024-03-12T07:30:00",10.399,14.891648,0.074],
    [14540,"urn:WaterMeter:MC0203J22010600005","2024-03-12T07:45:00",10.5,14.909492,0.075],
    [14541,"urn:WaterMeter:MC0203J22010600005","2024-03-12T08:00:00",10.6,14.881912,0.074],
    [14542,"urn:WaterMeter:MC0203J22010600005","2024-03-12T08:15:00",10.8,14.934318,0.076],
    [14543,"urn:WaterMeter:MC0203J22010600005","2024-03-12T08:30:00",11,14.91725,0.074],
    [14544,"urn:WaterMeter:MC0203J22010600005","2024-03-12T08:45:00",11.199,14.956816,0.075],
    [14545,"urn:WaterMeter:MC0203J22010600005","2024-03-12T09:00:00",11.6,14.886606,0.072],
    [14546,"urn:WaterMeter:MC0203J22010600005","2024-03-12T09:15:00",12,14.924193,0.072],
    [14547,"urn:WaterMeter:MC0203J22010600005","2024-03-12T09:30:00",12.5,14.940485,0.074],
    [14548,"urn:WaterMeter:MC0203J22010600005","2024-03-12T09:45:00",12.899,14.926948,0.073],
    [14549,"urn:WaterMeter:MC0203J22010600005","2024-03-12T10:00:00",13.199,14.968452,0.071],
    [14550,"urn:WaterMeter:MC0203J22010600005","2024-03-12T10:15:00",13.5,15.020392,0.071],
    [14551,"urn:WaterMeter:MC0203J22010600005","2024-03-12T10:30:00",13.899,15.00763,0.074],
    [14552,"urn:WaterMeter:MC0203J22010600005","2024-03-12T10:45:00",14.199,14.9587555,0.073],
    [14553,"urn:WaterMeter:MC0203J22010600005","2024-03-12T11:00:00",14.6,14.956428,0.075],
    [14554,"urn:WaterMeter:MC0203J22010600005","2024-03-12T11:15:00",15.1,14.991688,0.069],
    [14555,"urn:WaterMeter:MC0203J22010600005","2024-03-12T11:30:00",15.6,15.003752,0.073],
    [14556,"urn:WaterMeter:MC0203J22010600005","2024-03-12T11:45:00",16,15.025862,0.073],
    [14557,"urn:WaterMeter:MC0203J22010600005","2024-03-12T12:00:00",16.5,15.001773,0.07],
    [14558,"urn:WaterMeter:MC0203J22010600005","2024-03-12T12:15:00",16.7,15.066203,0.07],
    [14559,"urn:WaterMeter:MC0203J22010600005","2024-03-12T12:30:00",17,15.019617,0.069],
    [14560,"urn:WaterMeter:MC0203J22010600005","2024-03-12T12:45:00",17.1,15.019617,0.07],
    [14561,"urn:WaterMeter:MC0203J22010600005","2024-03-12T13:00:00",17.399,15.016552,0.071],
    [14562,"urn:WaterMeter:MC0203J22010600005","2024-03-12T13:15:00",17.5,15.012285,0.075],
    [14563,"urn:WaterMeter:MC0203J22010600005","2024-03-12T13:30:00",17.7,15.024698,0.071],
    [14564,"urn:WaterMeter:MC0203J22010600005","2024-03-12T13:45:00",17.799,14.969229,0.073],
    [14565,"urn:WaterMeter:MC0203J22010600005","2024-03-12T14:00:00",17.799,14.944403,0.07],
    [14566,"urn:WaterMeter:MC0203J22010600005","2024-03-12T14:15:00",17.799,14.936257,0.071],
    [14567,"urn:WaterMeter:MC0203J22010600005","2024-03-12T14:30:00",17.799,14.928887,0.073],
    [14568,"urn:WaterMeter:MC0203J22010600005","2024-03-12T14:45:00",17.7,14.923417,0.07],
    [14569,"urn:WaterMeter:MC0203J22010600005","2024-03-12T15:00:00",17.7,14.928111,0.074],
    [14570,"urn:WaterMeter:MC0203J22010600005","2024-03-12T15:15:00",17.799,14.953712,0.071],
    [14571,"urn:WaterMeter:MC0203J22010600005","2024-03-12T15:30:00",17.799,14.934706,0.074],
    [14572,"urn:WaterMeter:MC0203J22010600005","2024-03-12T15:45:00",17.799,14.972681,0.072],
    [14573,"urn:WaterMeter:MC0203J22010600005","2024-03-12T16:00:00",17.799,14.936645,0.073],
    [14574,"urn:WaterMeter:MC0203J22010600005","2024-03-12T16:15:00",17.7,14.935481,0.073],
    [14575,"urn:WaterMeter:MC0203J22010600005","2024-03-12T16:30:00",17.6,14.90441,0.074],
    [14576,"urn:WaterMeter:MC0203J22010600005","2024-03-12T16:45:00",17.399,14.904022,0.076],
    [14577,"urn:WaterMeter:MC0203J22010600005","2024-03-12T17:00:00",17.2,14.842385,0.073],
    [14578,"urn:WaterMeter:MC0203J22010600005","2024-03-12T17:15:00",17.1,14.85441,0.071],
    [14579,"urn:WaterMeter:MC0203J22010600005","2024-03-12T17:30:00",16.899,14.889709,0.073],
    [14580,"urn:WaterMeter:MC0203J22010600005","2024-03-12T17:45:00",16.7,14.871865,0.076],
    [14581,"urn:WaterMeter:MC0203J22010600005","2024-03-12T18:00:00",16.5,14.81562,0.074],
    [14582,"urn:WaterMeter:MC0203J22010600005","2024-03-12T18:15:00",16.299,14.874542,0.075],
    [14583,"urn:WaterMeter:MC0203J22010600005","2024-03-12T18:30:00",16,14.811741,0.073],
    [14584,"urn:WaterMeter:MC0203J22010600005","2024-03-12T18:45:00",15.8,14.902083,0.072],
    [14585,"urn:WaterMeter:MC0203J22010600005","2024-03-12T19:00:00",15.6,14.799716,0.076],
    [14586,"urn:WaterMeter:MC0203J22010600005","2024-03-12T19:15:00",15.399,14.838119,0.075],
    [14587,"urn:WaterMeter:MC0203J22010600005","2024-03-12T19:30:00",15.199,14.819499,0.075],
    [14588,"urn:WaterMeter:MC0203J22010600005","2024-03-12T19:45:00",15,14.776054,0.075],
    [14589,"urn:WaterMeter:MC0203J22010600005","2024-03-12T20:00:00",14.899,14.801268,0.077],
    [14590,"urn:WaterMeter:MC0203J22010600005","2024-03-12T20:15:00",14.699,14.835364,0.07],
    [14591,"urn:WaterMeter:MC0203J22010600005","2024-03-12T20:30:00",14.5,14.785325,0.072],
    [14592,"urn:WaterMeter:MC0203J22010600005","2024-03-12T20:45:00",14.3,14.7419195,0.076],
    [14593,"urn:WaterMeter:MC0203J22010600005","2024-03-12T21:00:00",14.1,14.753168,0.074],
    [14594,"urn:WaterMeter:MC0203J22010600005","2024-03-12T21:15:00",13.899,14.756271,0.077],
    [14595,"urn:WaterMeter:MC0203J22010600005","2024-03-12T21:30:00",13.699,14.783036,0.072],
    [14596,"urn:WaterMeter:MC0203J22010600005","2024-03-12T21:45:00",13.5,14.817133,0.075],
    [14597,"urn:WaterMeter:MC0203J22010600005","2024-03-12T22:00:00",13.3,14.803596,0.076],
    [14598,"urn:WaterMeter:MC0203J22010600005","2024-03-12T22:15:00",13.199,14.776443,0.077],
    [14599,"urn:WaterMeter:MC0203J22010600005","2024-03-12T22:30:00",13,14.73804,0.073],
    [14600,"urn:WaterMeter:MC0203J22010600005","2024-03-12T22:45:00",12.8,14.725627,0.074],
    [14601,"urn:WaterMeter:MC0203J22010600005","2024-03-12T23:00:00",12.699,14.756271,0.076],
    [14602,"urn:WaterMeter:MC0203J22010600005","2024-03-12T23:15:00",12.5,14.79735,0.078],
    [14603,"urn:WaterMeter:MC0203J22010600005","2024-03-12T23:30:00",12.399,14.783424,0.073],
    [14604,"urn:WaterMeter:MC0203J22010600005","2024-03-12T23:45:00",12.3,14.801656,0.069],
    [14605,"urn:WaterMeter:MC0203J22010600005","2024-03-13T00:00:00",12.1,14.799716,0.076],
    [14606,"urn:WaterMeter:MC0203J22010600005","2024-03-13T00:15:00",12,14.817947,0.078],
    [14607,"urn:WaterMeter:MC0203J22010600005","2024-03-13T00:30:00",11.899,14.758172,0.078],
    [14608,"urn:WaterMeter:MC0203J22010600005","2024-03-13T00:45:00",11.8,14.760926,0.075],
    [14609,"urn:WaterMeter:MC0203J22010600005","2024-03-13T01:00:00",11.6,14.806272,0.069],
    [14610,"urn:WaterMeter:MC0203J22010600005","2024-03-13T01:15:00",11.6,14.826055,0.076],
    [14611,"urn:WaterMeter:MC0203J22010600005","2024-03-13T01:30:00",11.5,14.817947,0.077],
    [14612,"urn:WaterMeter:MC0203J22010600005","2024-03-13T01:45:00",11.399,14.7640295,0.075],
    [14613,"urn:WaterMeter:MC0203J22010600005","2024-03-13T02:00:00",11.3,14.800104,0.076],
    [14614,"urn:WaterMeter:MC0203J22010600005","2024-03-13T02:15:00",11.199,14.7667055,0.072],
    [14615,"urn:WaterMeter:MC0203J22010600005","2024-03-13T02:30:00",11.1,14.826831,0.074],
    [14616,"urn:WaterMeter:MC0203J22010600005","2024-03-13T02:45:00",11,14.75472,0.075],
    [14617,"urn:WaterMeter:MC0203J22010600005","2024-03-13T03:00:00",10.899,14.7233,0.075],
    [14618,"urn:WaterMeter:MC0203J22010600005","2024-03-13T03:15:00",10.899,14.777179,0.077],
    [14619,"urn:WaterMeter:MC0203J22010600005","2024-03-13T03:30:00",10.8,14.807048,0.075],
    [14620,"urn:WaterMeter:MC0203J22010600005","2024-03-13T03:45:00",10.699,14.829197,0.076],
    [14621,"urn:WaterMeter:MC0203J22010600005","2024-03-13T04:00:00",10.6,14.783036,0.074],
    [14622,"urn:WaterMeter:MC0203J22010600005","2024-03-13T04:15:00",10.5,14.75472,0.064],
    [14623,"urn:WaterMeter:MC0203J22010600005","2024-03-13T04:30:00",10.399,14.803983,0.074],
    [14624,"urn:WaterMeter:MC0203J22010600005","2024-03-13T04:45:00",10.3,14.779546,0.075],
    [14625,"urn:WaterMeter:MC0203J22010600005","2024-03-13T05:00:00",10.199,14.750841,0.071],
    [14626,"urn:WaterMeter:MC0203J22010600005","2024-03-13T05:15:00",10.1,14.775278,0.076],
    [14627,"urn:WaterMeter:MC0203J22010600005","2024-03-13T05:30:00",10,14.810966,0.076],
    [14628,"urn:WaterMeter:MC0203J22010600005","2024-03-13T05:45:00",9.899,14.809414,0.073],
    [14629,"urn:WaterMeter:MC0203J22010600005","2024-03-13T06:00:00",9.699,14.748475,0.075],
    [14630,"urn:WaterMeter:MC0203J22010600005","2024-03-13T06:15:00",9.6,14.777567,0.076],
    [14631,"urn:WaterMeter:MC0203J22010600005","2024-03-13T06:30:00",9.399,14.787265,0.074],
    [14632,"urn:WaterMeter:MC0203J22010600005","2024-03-13T06:45:00",9.399,14.798941,0.076],
    [14633,"urn:WaterMeter:MC0203J22010600005","2024-03-13T07:00:00",9.3,14.786489,0.075],
    [14634,"urn:WaterMeter:MC0203J22010600005","2024-03-13T07:15:00",9.3,14.821051,0.073],
    [14635,"urn:WaterMeter:MC0203J22010600005","2024-03-13T07:30:00",9.399,14.791571,0.075],
    [14636,"urn:WaterMeter:MC0203J22010600005","2024-03-13T07:45:00",9.6,14.783424,0.077],
    [14637,"urn:WaterMeter:MC0203J22010600005","2024-03-13T08:00:00",9.8,14.830749,0.073],
    [14638,"urn:WaterMeter:MC0203J22010600005","2024-03-13T08:15:00",10,14.774891,0.076],
    [14639,"urn:WaterMeter:MC0203J22010600005","2024-03-13T08:30:00",10.3,14.8357525,0.073],
    [14640,"urn:WaterMeter:MC0203J22010600005","2024-03-13T08:45:00",10.6,14.826055,0.073],
    [14641,"urn:WaterMeter:MC0203J22010600005","2024-03-13T09:00:00",10.899,14.8132925,0.073],
    [14642,"urn:WaterMeter:MC0203J22010600005","2024-03-13T09:15:00",11.3,14.87493,0.072],
    [14643,"urn:WaterMeter:MC0203J22010600005","2024-03-13T09:30:00",11.699,14.8804,0.073],
    [14644,"urn:WaterMeter:MC0203J22010600005","2024-03-13T09:45:00",12.1,14.83036,0.066],
    [14645,"urn:WaterMeter:MC0203J22010600005","2024-03-13T10:00:00",12.399,14.814069,0.067],
    [14646,"urn:WaterMeter:MC0203J22010600005","2024-03-13T10:15:00",12.699,14.850531,0.069],
    [14647,"urn:WaterMeter:MC0203J22010600005","2024-03-13T10:30:00",13,14.856311,0.071],
    [14648,"urn:WaterMeter:MC0203J22010600005","2024-03-13T10:45:00",13.399,14.894325,0.072],
    [14649,"urn:WaterMeter:MC0203J22010600005","2024-03-13T11:00:00",13.699,14.874542,0.072],
    [14650,"urn:WaterMeter:MC0203J22010600005","2024-03-13T11:15:00",14.199,14.919578,0.074],
    [14651,"urn:WaterMeter:MC0203J22010600005","2024-03-13T11:30:00",14.5,14.899795,0.07],
    [14652,"urn:WaterMeter:MC0203J22010600005","2024-03-13T11:45:00",14.899,14.919189,0.071],
    [14653,"urn:WaterMeter:MC0203J22010600005","2024-03-13T12:00:00",15.3,14.930438,0.073],
    [14654,"urn:WaterMeter:MC0203J22010600005","2024-03-13T12:15:00",15.699,14.917638,0.072],
    [14655,"urn:WaterMeter:MC0203J22010600005","2024-03-13T12:30:00",16,14.920353,0.071],
    [14656,"urn:WaterMeter:MC0203J22010600005","2024-03-13T12:45:00",16.299,14.920353,0.077],
    [14657,"urn:WaterMeter:MC0203J22010600005","2024-03-13T13:00:00",16.399,14.916474,0.073],
    [14658,"urn:WaterMeter:MC0203J22010600005","2024-03-13T13:15:00",16.6,14.870702,0.073],
    [14659,"urn:WaterMeter:MC0203J22010600005","2024-03-13T13:30:00",16.799,14.879235,0.068],
    [14660,"urn:WaterMeter:MC0203J22010600005","2024-03-13T13:45:00",16.899,14.887382,0.072],
    [14661,"urn:WaterMeter:MC0203J22010600005","2024-03-13T14:00:00",17,14.914495,0.073],
    [14662,"urn:WaterMeter:MC0203J22010600005","2024-03-13T14:15:00",17.2,14.899018,0.076],
    [14663,"urn:WaterMeter:MC0203J22010600005","2024-03-13T14:30:00",17.299,14.926559,0.072],
    [14664,"urn:WaterMeter:MC0203J22010600005","2024-03-13T14:45:00",17.2,14.929275,0.071],
    [14665,"urn:WaterMeter:MC0203J22010600005","2024-03-13T15:00:00",17.2,14.893549,0.073],
    [14666,"urn:WaterMeter:MC0203J22010600005","2024-03-13T15:15:00",17.299,14.918801,0.07],
    [14667,"urn:WaterMeter:MC0203J22010600005","2024-03-13T15:30:00",17.299,14.858677,0.074],
    [14668,"urn:WaterMeter:MC0203J22010600005","2024-03-13T15:45:00",17.399,14.854022,0.072],
    [14669,"urn:WaterMeter:MC0203J22010600005","2024-03-13T16:00:00",17.399,14.839282,0.073],
    [14670,"urn:WaterMeter:MC0203J22010600005","2024-03-13T16:15:00",17.299,14.881912,0.074],
    [14671,"urn:WaterMeter:MC0203J22010600005","2024-03-13T16:30:00",17.2,14.795061,0.072],
    [14672,"urn:WaterMeter:MC0203J22010600005","2024-03-13T16:45:00",17.1,14.86721,0.072],
    [14673,"urn:WaterMeter:MC0203J22010600005","2024-03-13T17:00:00",16.899,14.798126,0.074],
    [14674,"urn:WaterMeter:MC0203J22010600005","2024-03-13T17:15:00",16.799,14.863681,0.073],
    [14675,"urn:WaterMeter:MC0203J22010600005","2024-03-13T17:30:00",16.6,14.812129,0.073],
    [14676,"urn:WaterMeter:MC0203J22010600005","2024-03-13T17:45:00",16.5,14.814456,0.075],
    [14677,"urn:WaterMeter:MC0203J22010600005","2024-03-13T18:00:00",16.299,14.7566595,0.074],
    [14678,"urn:WaterMeter:MC0203J22010600005","2024-03-13T18:15:00",16.2,14.766318,0.072],
    [14679,"urn:WaterMeter:MC0203J22010600005","2024-03-13T18:30:00",16,14.81562,0.073],
    [14680,"urn:WaterMeter:MC0203J22010600005","2024-03-13T18:45:00",15.699,14.7985525,0.076],
    [14681,"urn:WaterMeter:MC0203J22010600005","2024-03-13T19:00:00",15.5,14.792346,0.074],
    [14682,"urn:WaterMeter:MC0203J22010600005","2024-03-13T19:15:00",15.3,14.792346,0.075],
    [14683,"urn:WaterMeter:MC0203J22010600005","2024-03-13T19:30:00",15.1,14.750065,0.077],
    [14684,"urn:WaterMeter:MC0203J22010600005","2024-03-13T19:45:00",14.899,14.727528,0.072],
    [14685,"urn:WaterMeter:MC0203J22010600005","2024-03-13T20:00:00",14.699,14.72714,0.07],
    [14686,"urn:WaterMeter:MC0203J22010600005","2024-03-13T20:15:00",14.5,14.735713,0.075],
    [14687,"urn:WaterMeter:MC0203J22010600005","2024-03-13T20:30:00",14.3,14.739941,0.074],
    [14688,"urn:WaterMeter:MC0203J22010600005","2024-03-13T20:45:00",14.199,14.78804,0.075],
    [14689,"urn:WaterMeter:MC0203J22010600005","2024-03-13T21:00:00",14,14.769033,0.074],
    [14690,"urn:WaterMeter:MC0203J22010600005","2024-03-13T21:15:00",13.8,14.749639,0.078],
    [14691,"urn:WaterMeter:MC0203J22010600005","2024-03-13T21:30:00",13.6,14.71399,0.076],
    [14692,"urn:WaterMeter:MC0203J22010600005","2024-03-13T21:45:00",13.399,14.70468,0.076],
    [14693,"urn:WaterMeter:MC0203J22010600005","2024-03-13T22:00:00",13.199,14.732997,0.075],
    [14694,"urn:WaterMeter:MC0203J22010600005","2024-03-13T22:15:00",13.1,14.710461,0.075],
    [14695,"urn:WaterMeter:MC0203J22010600005","2024-03-13T22:30:00",12.899,14.695371,0.075],
    [14696,"urn:WaterMeter:MC0203J22010600005","2024-03-13T22:45:00",12.8,14.68257,0.08],
    [14697,"urn:WaterMeter:MC0203J22010600005","2024-03-13T23:00:00",12.6,14.720158,0.075],
    [14698,"urn:WaterMeter:MC0203J22010600005","2024-03-13T23:15:00",12.5,14.718994,0.075],
    [14699,"urn:WaterMeter:MC0203J22010600005","2024-03-13T23:30:00",12.3,14.750841,0.074],
    [14700,"urn:WaterMeter:MC0203J22010600005","2024-03-13T23:45:00",12.199,14.674424,0.075],
    [14701,"urn:WaterMeter:MC0203J22010600005","2024-03-14T00:00:00",12.1,14.729467,0.073],
    [14702,"urn:WaterMeter:MC0203J22010600005","2024-03-14T00:15:00",12,14.714378,0.077],
    [14703,"urn:WaterMeter:MC0203J22010600005","2024-03-14T00:30:00",11.8,14.692656,0.077],
    [14704,"urn:WaterMeter:MC0203J22010600005","2024-03-14T00:45:00",11.699,14.745023,0.073],
    [14705,"urn:WaterMeter:MC0203J22010600005","2024-03-14T01:00:00",11.6,14.7640295,0.076],
    [14706,"urn:WaterMeter:MC0203J22010600005","2024-03-14T01:15:00",11.5,14.71205,0.076],
    [14707,"urn:WaterMeter:MC0203J22010600005","2024-03-14T01:30:00",11.399,14.750841,0.075],
    [14708,"urn:WaterMeter:MC0203J22010600005","2024-03-14T01:45:00",11.3,14.723688,0.073],
    [14709,"urn:WaterMeter:MC0203J22010600005","2024-03-14T02:00:00",11.199,14.71205,0.074],
    [14710,"urn:WaterMeter:MC0203J22010600005","2024-03-14T02:15:00",11.1,14.74925,0.069],
    [14711,"urn:WaterMeter:MC0203J22010600005","2024-03-14T02:30:00",10.899,14.706232,0.075],
    [14712,"urn:WaterMeter:MC0203J22010600005","2024-03-14T02:45:00",10.8,14.733385,0.079],
    [14713,"urn:WaterMeter:MC0203J22010600005","2024-03-14T03:00:00",10.699,14.743471,0.075],
    [14714,"urn:WaterMeter:MC0203J22010600005","2024-03-14T03:15:00",10.6,14.700375,0.074],
    [14715,"urn:WaterMeter:MC0203J22010600005","2024-03-14T03:30:00",10.6,14.769848,0.075],
    [14716,"urn:WaterMeter:MC0203J22010600005","2024-03-14T03:45:00",10.399,14.68098,0.075],
    [14717,"urn:WaterMeter:MC0203J22010600005","2024-03-14T04:00:00",10.3,14.685286,0.075],
    [14718,"urn:WaterMeter:MC0203J22010600005","2024-03-14T04:15:00",10.199,14.75856,0.075],
    [14719,"urn:WaterMeter:MC0203J22010600005","2024-03-14T04:30:00",10.1,14.733773,0.072],
    [14720,"urn:WaterMeter:MC0203J22010600005","2024-03-14T04:45:00",10,14.727916,0.073],
    [14721,"urn:WaterMeter:MC0203J22010600005","2024-03-14T05:00:00",9.899,14.7640295,0.075],
    [14722,"urn:WaterMeter:MC0203J22010600005","2024-03-14T05:15:00",9.8,14.747699,0.077],
    [14723,"urn:WaterMeter:MC0203J22010600005","2024-03-14T05:30:00",9.699,14.699599,0.076],
    [14724,"urn:WaterMeter:MC0203J22010600005","2024-03-14T05:45:00",9.699,14.722912,0.076],
    [14725,"urn:WaterMeter:MC0203J22010600005","2024-03-14T06:00:00",9.6,14.786101,0.076],
    [14726,"urn:WaterMeter:MC0203J22010600005","2024-03-14T06:15:00",9.5,14.665115,0.074],
    [14727,"urn:WaterMeter:MC0203J22010600005","2024-03-14T06:30:00",9.5,14.724852,0.076],
    [14728,"urn:WaterMeter:MC0203J22010600005","2024-03-14T06:45:00",9.399,14.746147,0.075],
    [14729,"urn:WaterMeter:MC0203J22010600005","2024-03-14T07:00:00",9.399,14.735713,0.074],
    [14730,"urn:WaterMeter:MC0203J22010600005","2024-03-14T07:15:00",9.5,14.750453,0.073],
    [14731,"urn:WaterMeter:MC0203J22010600005","2024-03-14T07:30:00",9.6,14.757784,0.074],
    [14732,"urn:WaterMeter:MC0203J22010600005","2024-03-14T07:45:00",9.8,14.73067,0.076],
    [14733,"urn:WaterMeter:MC0203J22010600005","2024-03-14T08:00:00",10,14.807048,0.07],
    [14734,"urn:WaterMeter:MC0203J22010600005","2024-03-14T08:15:00",10.199,14.780709,0.074],
    [14735,"urn:WaterMeter:MC0203J22010600005","2024-03-14T08:30:00",10.5,14.787265,0.072],
    [14736,"urn:WaterMeter:MC0203J22010600005","2024-03-14T08:45:00",10.8,14.793122,0.074],
    [14737,"urn:WaterMeter:MC0203J22010600005","2024-03-14T09:00:00",11.1,14.755883,0.074],
    [14738,"urn:WaterMeter:MC0203J22010600005","2024-03-14T09:15:00",11.6,14.77873,0.072],
    [14739,"urn:WaterMeter:MC0203J22010600005","2024-03-14T09:30:00",12,14.75472,0.075],
    [14740,"urn:WaterMeter:MC0203J22010600005","2024-03-14T09:45:00",12.5,14.7935095,0.074],
    [14741,"urn:WaterMeter:MC0203J22010600005","2024-03-14T10:00:00",12.899,14.811741,0.072],
    [14742,"urn:WaterMeter:MC0203J22010600005","2024-03-14T10:15:00",13.399,14.801268,0.072],
    [14743,"urn:WaterMeter:MC0203J22010600005","2024-03-14T10:30:00",13.8,14.814069,0.07],
    [14744,"urn:WaterMeter:MC0203J22010600005","2024-03-14T10:45:00",14.3,14.833464,0.072],
    [14745,"urn:WaterMeter:MC0203J22010600005","2024-03-14T11:00:00",14.699,14.878848,0.073],
    [14746,"urn:WaterMeter:MC0203J22010600005","2024-03-14T11:15:00",15.199,14.838506,0.073],
    [14747,"urn:WaterMeter:MC0203J22010600005","2024-03-14T11:30:00",15.699,14.8850155,0.07],
    [14748,"urn:WaterMeter:MC0203J22010600005","2024-03-14T11:45:00",16.299,14.834239,0.068],
    [14749,"urn:WaterMeter:MC0203J22010600005","2024-03-14T12:00:00",16.799,14.879235,0.069],
    [14750,"urn:WaterMeter:MC0203J22010600005","2024-03-14T12:15:00",17.2,14.880012,0.069],
    [14751,"urn:WaterMeter:MC0203J22010600005","2024-03-14T12:30:00",17.5,14.876133,0.069],
    [14752,"urn:WaterMeter:MC0203J22010600005","2024-03-14T12:45:00",17.799,14.881563,0.07],
    [14753,"urn:WaterMeter:MC0203J22010600005","2024-03-14T13:00:00",18.1,14.862517,0.073],
    [14754,"urn:WaterMeter:MC0203J22010600005","2024-03-14T13:15:00",18.299,14.85247,0.074],
    [14755,"urn:WaterMeter:MC0203J22010600005","2024-03-14T13:30:00",18.6,14.926171,0.078],
    [14756,"urn:WaterMeter:MC0203J22010600005","2024-03-14T13:45:00",18.899,14.87652,0.073],
    [14757,"urn:WaterMeter:MC0203J22010600005","2024-03-14T14:00:00",19.1,14.856311,0.073],
    [14758,"urn:WaterMeter:MC0203J22010600005","2024-03-14T14:15:00",19.299,14.889321,0.071],
    [14759,"urn:WaterMeter:MC0203J22010600005","2024-03-14T14:30:00",19.5,14.890485,0.074],
    [14760,"urn:WaterMeter:MC0203J22010600005","2024-03-14T14:45:00",19.6,14.8932,0.07],
    [14761,"urn:WaterMeter:MC0203J22010600005","2024-03-14T15:00:00",19.7,14.815969,0.072],
    [14762,"urn:WaterMeter:MC0203J22010600005","2024-03-14T15:15:00",19.7,14.880787,0.072],
    [14763,"urn:WaterMeter:MC0203J22010600005","2024-03-14T15:30:00",19.799,14.87303,0.072],
    [14764,"urn:WaterMeter:MC0203J22010600005","2024-03-14T15:45:00",19.799,14.863293,0.07],
    [14765,"urn:WaterMeter:MC0203J22010600005","2024-03-14T16:00:00",19.7,14.875706,0.072],
    [14766,"urn:WaterMeter:MC0203J22010600005","2024-03-14T16:15:00",19.6,14.871865,0.072],
    [14767,"urn:WaterMeter:MC0203J22010600005","2024-03-14T16:30:00",19.399,14.77873,0.072],
    [14768,"urn:WaterMeter:MC0203J22010600005","2024-03-14T16:45:00",19.2,14.810577,0.073],
    [14769,"urn:WaterMeter:MC0203J22010600005","2024-03-14T17:00:00",19,14.751228,0.075],
    [14770,"urn:WaterMeter:MC0203J22010600005","2024-03-14T17:15:00",18.799,14.803983,0.071],
    [14771,"urn:WaterMeter:MC0203J22010600005","2024-03-14T17:30:00",18.7,14.729467,0.078],
    [14772,"urn:WaterMeter:MC0203J22010600005","2024-03-14T17:45:00",18.5,14.793122,0.073],
    [14773,"urn:WaterMeter:MC0203J22010600005","2024-03-14T18:00:00",18.299,14.733773,0.077],
    [14774,"urn:WaterMeter:MC0203J22010600005","2024-03-14T18:15:00",18.1,14.780321,0.071],
    [14775,"urn:WaterMeter:MC0203J22010600005","2024-03-14T18:30:00",18,14.768257,0.074],
    [14776,"urn:WaterMeter:MC0203J22010600005","2024-03-14T18:45:00",17.799,14.73804,0.075],
    [14777,"urn:WaterMeter:MC0203J22010600005","2024-03-14T19:00:00",17.7,14.7566595,0.074],
    [14778,"urn:WaterMeter:MC0203J22010600005","2024-03-14T19:15:00",17.5,14.713215,0.075],
    [14779,"urn:WaterMeter:MC0203J22010600005","2024-03-14T19:30:00",17.299,14.718994,0.073],
    [14780,"urn:WaterMeter:MC0203J22010600005","2024-03-14T19:45:00",17.2,14.698087,0.074],
    [14781,"urn:WaterMeter:MC0203J22010600005","2024-03-14T20:00:00",17,14.679467,0.076],
    [14782,"urn:WaterMeter:MC0203J22010600005","2024-03-14T20:15:00",16.799,14.68835,0.074],
    [14783,"urn:WaterMeter:MC0203J22010600005","2024-03-14T20:30:00",16.6,14.740368,0.075],
    [14784,"urn:WaterMeter:MC0203J22010600005","2024-03-14T20:45:00",16.399,14.720158,0.073],
    [14785,"urn:WaterMeter:MC0203J22010600005","2024-03-14T21:00:00",16.2,14.641802,0.074],
    [14786,"urn:WaterMeter:MC0203J22010600005","2024-03-14T21:15:00",16,14.710461,0.076],
    [14787,"urn:WaterMeter:MC0203J22010600005","2024-03-14T21:30:00",15.8,14.703905,0.076],
    [14788,"urn:WaterMeter:MC0203J22010600005","2024-03-14T21:45:00",15.6,14.686062,0.077],
    [14789,"urn:WaterMeter:MC0203J22010600005","2024-03-14T22:00:00",15.5,14.710848,0.075],
    [14790,"urn:WaterMeter:MC0203J22010600005","2024-03-14T22:15:00",15.3,14.664339,0.077],
    [14791,"urn:WaterMeter:MC0203J22010600005","2024-03-14T22:30:00",15.1,14.657357,0.076],
    [14792,"urn:WaterMeter:MC0203J22010600005","2024-03-14T22:45:00",14.899,14.615076,0.074],
    [14793,"urn:WaterMeter:MC0203J22010600005","2024-03-14T23:00:00",14.8,14.641415,0.077],
    [14794,"urn:WaterMeter:MC0203J22010600005","2024-03-14T23:15:00",14.699,14.6705065,0.074],
    [14795,"urn:WaterMeter:MC0203J22010600005","2024-03-14T23:30:00",14.5,14.655417,0.074],
    [14796,"urn:WaterMeter:MC0203J22010600005","2024-03-14T23:45:00",14.399,14.668955,0.076],
    [14797,"urn:WaterMeter:MC0203J22010600005","2024-03-15T00:00:00",14.3,14.604603,0.075],
    [14798,"urn:WaterMeter:MC0203J22010600005","2024-03-15T00:15:00",14.1,14.670895,0.071],
    [14799,"urn:WaterMeter:MC0203J22010600005","2024-03-15T00:30:00",14,14.682182,0.074],
    [14800,"urn:WaterMeter:MC0203J22010600005","2024-03-15T00:45:00",13.899,14.644168,0.075],
    [14801,"urn:WaterMeter:MC0203J22010600005","2024-03-15T01:00:00",13.8,14.633268,0.075],
    [14802,"urn:WaterMeter:MC0203J22010600005","2024-03-15T01:15:00",13.8,14.669731,0.076],
    [14803,"urn:WaterMeter:MC0203J22010600005","2024-03-15T01:30:00",13.699,14.663951,0.075],
    [14804,"urn:WaterMeter:MC0203J22010600005","2024-03-15T01:45:00",13.6,14.613097,0.076],
    [14805,"urn:WaterMeter:MC0203J22010600005","2024-03-15T02:00:00",13.6,14.649948,0.075],
    [14806,"urn:WaterMeter:MC0203J22010600005","2024-03-15T02:15:00",13.6,14.7233,0.075],
    [14807,"urn:WaterMeter:MC0203J22010600005","2024-03-15T02:30:00",13.6,14.63288,0.074],
    [14808,"urn:WaterMeter:MC0203J22010600005","2024-03-15T02:45:00",13.6,14.686062,0.076],
    [14809,"urn:WaterMeter:MC0203J22010600005","2024-03-15T03:00:00",13.6,14.634471,0.072],
    [14810,"urn:WaterMeter:MC0203J22010600005","2024-03-15T03:15:00",13.6,14.7100725,0.074],
    [14811,"urn:WaterMeter:MC0203J22010600005","2024-03-15T03:30:00",13.6,14.683734,0.074],
    [14812,"urn:WaterMeter:MC0203J22010600005","2024-03-15T03:45:00",13.5,14.66046,0.075],
    [14813,"urn:WaterMeter:MC0203J22010600005","2024-03-15T04:00:00",13.5,14.642966,0.073],
    [14814,"urn:WaterMeter:MC0203J22010600005","2024-03-15T04:15:00",13.399,14.647271,0.074],
    [14815,"urn:WaterMeter:MC0203J22010600005","2024-03-15T04:30:00",13.399,14.73067,0.072],
    [14816,"urn:WaterMeter:MC0203J22010600005","2024-03-15T04:45:00",13.3,14.634471,0.073],
    [14817,"urn:WaterMeter:MC0203J22010600005","2024-03-15T05:00:00",13.3,14.68835,0.073],
    [14818,"urn:WaterMeter:MC0203J22010600005","2024-03-15T05:15:00",13.3,14.648436,0.075],
    [14819,"urn:WaterMeter:MC0203J22010600005","2024-03-15T05:30:00",13.3,14.67714,0.077],
    [14820,"urn:WaterMeter:MC0203J22010600005","2024-03-15T05:45:00",13.3,14.71977,0.076],
    [14821,"urn:WaterMeter:MC0203J22010600005","2024-03-15T06:00:00",13.3,14.726015,0.074],
    [14822,"urn:WaterMeter:MC0203J22010600005","2024-03-15T06:15:00",13.199,14.732222,0.075],
    [14823,"urn:WaterMeter:MC0203J22010600005","2024-03-15T06:30:00",13.1,14.662787,0.075],
    [14824,"urn:WaterMeter:MC0203J22010600005","2024-03-15T06:45:00",13.1,14.674037,0.075],
    [14825,"urn:WaterMeter:MC0203J22010600005","2024-03-15T07:00:00",13,14.655029,0.073],
    [14826,"urn:WaterMeter:MC0203J22010600005","2024-03-15T07:15:00",13,14.690678,0.076],
    [14827,"urn:WaterMeter:MC0203J22010600005","2024-03-15T07:30:00",13.199,14.669731,0.076],
    [14828,"urn:WaterMeter:MC0203J22010600005","2024-03-15T07:45:00",13.3,14.672058,0.076],
    [14829,"urn:WaterMeter:MC0203J22010600005","2024-03-15T08:00:00",13.5,14.723688,0.072],
    [14830,"urn:WaterMeter:MC0203J22010600005","2024-03-15T08:15:00",13.8,14.681756,0.071],
    [14831,"urn:WaterMeter:MC0203J22010600005","2024-03-15T08:30:00",14,14.73804,0.069],
    [14832,"urn:WaterMeter:MC0203J22010600005","2024-03-15T08:45:00",14.199,14.73804,0.07],
    [14833,"urn:WaterMeter:MC0203J22010600005","2024-03-15T09:00:00",14.5,14.7593355,0.066],
    [14834,"urn:WaterMeter:MC0203J22010600005","2024-03-15T09:15:00",14.8,14.777179,0.072],
    [14835,"urn:WaterMeter:MC0203J22010600005","2024-03-15T09:30:00",15.199,14.777179,0.071],
    [14836,"urn:WaterMeter:MC0203J22010600005","2024-03-15T09:45:00",15.6,14.826443,0.069],
    [14837,"urn:WaterMeter:MC0203J22010600005","2024-03-15T10:00:00",16,14.855147,0.068],
    [14838,"urn:WaterMeter:MC0203J22010600005","2024-03-15T10:15:00",16.5,14.836528,0.072],
    [14839,"urn:WaterMeter:MC0203J22010600005","2024-03-15T10:30:00",16.799,14.859065,0.072],
    [14840,"urn:WaterMeter:MC0203J22010600005","2024-03-15T10:45:00",17.1,14.921478,0.076],
    [14841,"urn:WaterMeter:MC0203J22010600005","2024-03-15T11:00:00",17.6,14.973884,0.07],
    [14842,"urn:WaterMeter:MC0203J22010600005","2024-03-15T11:15:00",18,15.087151,0.075],
    [14843,"urn:WaterMeter:MC0203J22010600005","2024-03-15T11:30:00",18.5,15.161627,0.076],
    [14844,"urn:WaterMeter:MC0203J22010600005","2024-03-15T11:45:00",19,15.200417,0.082],
    [14845,"urn:WaterMeter:MC0203J22010600005","2024-03-15T12:00:00",19.299,15.305925,0.077],
    [14846,"urn:WaterMeter:MC0203J22010600005","2024-03-15T12:15:00",19.5,15.36795,0.083],
    [14847,"urn:WaterMeter:MC0203J22010600005","2024-03-15T12:30:00",19.6,15.469232,0.083],
    [14848,"urn:WaterMeter:MC0203J22010600005","2024-03-15T12:45:00",19.7,15.546812,0.083],
    [14849,"urn:WaterMeter:MC0203J22010600005","2024-03-15T13:00:00",19.899,15.620086,0.093],
    [14850,"urn:WaterMeter:MC0203J22010600005","2024-03-15T13:15:00",20,15.716673,0.09],
    [14851,"urn:WaterMeter:MC0203J22010600005","2024-03-15T13:30:00",20,15.874975,0.09],
    [14852,"urn:WaterMeter:MC0203J22010600005","2024-03-15T13:45:00",20.2,15.961438,0.088],
    [14853,"urn:WaterMeter:MC0203J22010600005","2024-03-15T14:00:00",20.299,16.110819,0.095],
    [14854,"urn:WaterMeter:MC0203J22010600005","2024-03-15T14:15:00",20.399,16.274124,0.094],
    [14855,"urn:WaterMeter:MC0203J22010600005","2024-03-15T14:30:00",20.399,16.397049,0.101],
    [14856,"urn:WaterMeter:MC0203J22010600005","2024-03-15T14:45:00",20.399,16.565825,0.094],
    [14857,"urn:WaterMeter:MC0203J22010600005","2024-03-15T15:00:00",20.399,16.797401,0.104],
    [14858,"urn:WaterMeter:MC0203J22010600005","2024-03-15T15:15:00",20.399,16.93433,0.106],
    [14859,"urn:WaterMeter:MC0203J22010600005","2024-03-15T15:30:00",20.299,17.077852,0.105],
    [14860,"urn:WaterMeter:MC0203J22010600005","2024-03-15T15:45:00",20.2,17.267149,0.105],
    [14861,"urn:WaterMeter:MC0203J22010600005","2024-03-15T16:00:00",20.2,17.39628,0.105],
    [14862,"urn:WaterMeter:MC0203J22010600005","2024-03-15T16:15:00",20.1,17.5957,0.107],
    [14863,"urn:WaterMeter:MC0203J22010600005","2024-03-15T16:30:00",20.1,17.778788,0.108],
    [14864,"urn:WaterMeter:MC0203J22010600005","2024-03-15T16:45:00",20.1,17.924252,0.112],
    [14865,"urn:WaterMeter:MC0203J22010600005","2024-03-15T17:00:00",20.1,18.091047,0.107],
    [14866,"urn:WaterMeter:MC0203J22010600005","2024-03-15T17:15:00",20.1,18.24582,0.103],
    [14867,"urn:WaterMeter:MC0203J22010600005","2024-03-15T17:30:00",19.899,18.38236,0.116],
    [14868,"urn:WaterMeter:MC0203J22010600005","2024-03-15T17:45:00",19.7,18.506876,0.121],
    [14869,"urn:WaterMeter:MC0203J22010600005","2024-03-15T18:00:00",19.5,18.647646,0.116],
    [14870,"urn:WaterMeter:MC0203J22010600005","2024-03-15T18:15:00",19.299,18.765219,0.114],
    [14871,"urn:WaterMeter:MC0203J22010600005","2024-03-15T18:30:00",19.1,18.850904,0.123],
    [14872,"urn:WaterMeter:MC0203J22010600005","2024-03-15T18:45:00",18.899,19.035158,0.114],
    [14873,"urn:WaterMeter:MC0203J22010600005","2024-03-15T19:00:00",18.7,19.098425,0.119],
    [14874,"urn:WaterMeter:MC0203J22010600005","2024-03-15T19:15:00",18.5,19.3063,0.12],
    [14875,"urn:WaterMeter:MC0203J22010600005","2024-03-15T19:30:00",18.299,19.388962,0.134],
    [14876,"urn:WaterMeter:MC0203J22010600005","2024-03-15T19:45:00",18.2,19.466928,0.126],
    [14877,"urn:WaterMeter:MC0203J22010600005","2024-03-15T20:00:00",18.1,19.608513,0.13],
    [14878,"urn:WaterMeter:MC0203J22010600005","2024-03-15T20:15:00",17.899,19.771004,0.122],
    [14879,"urn:WaterMeter:MC0203J22010600005","2024-03-15T20:30:00",17.799,19.900213,0.122],
    [14880,"urn:WaterMeter:MC0203J22010600005","2024-03-15T20:45:00",17.6,19.949865,0.131],
    [14881,"urn:WaterMeter:MC0203J22010600005","2024-03-15T21:00:00",17.5,20.088732,0.126],
    [14882,"urn:WaterMeter:MC0203J22010600005","2024-03-15T21:15:00",17.299,20.192303,0.127],
    [14883,"urn:WaterMeter:MC0203J22010600005","2024-03-15T21:30:00",17.2,20.268719,0.13],
    [14884,"urn:WaterMeter:MC0203J22010600005","2024-03-15T21:45:00",17,20.407198,0.133],
    [14885,"urn:WaterMeter:MC0203J22010600005","2024-03-15T22:00:00",16.799,20.454523,0.131],
    [14886,"urn:WaterMeter:MC0203J22010600005","2024-03-15T22:15:00",16.7,20.53986,0.124],
    [14887,"urn:WaterMeter:MC0203J22010600005","2024-03-15T22:30:00",16.6,20.638775,0.132],
    [14888,"urn:WaterMeter:MC0203J22010600005","2024-03-15T22:45:00",16.399,20.721746,0.132],
    [14889,"urn:WaterMeter:MC0203J22010600005","2024-03-15T23:00:00",16.299,20.792383,0.136],
    [14890,"urn:WaterMeter:MC0203J22010600005","2024-03-15T23:15:00",16.2,20.888971,0.13],
    [14891,"urn:WaterMeter:MC0203J22010600005","2024-03-15T23:30:00",16,20.98129,0.132],
    [14892,"urn:WaterMeter:MC0203J22010600005","2024-03-15T23:45:00",15.899,21.0387,0.133],
    [14893,"urn:WaterMeter:MC0203J22010600005","2024-03-16T00:00:00",15.699,21.14227,0.137],
    [14894,"urn:WaterMeter:MC0203J22010600005","2024-03-16T00:15:00",15.6,21.154293,0.128],
    [14895,"urn:WaterMeter:MC0203J22010600005","2024-03-16T00:30:00",15.6,21.293161,0.13],
    [14896,"urn:WaterMeter:MC0203J22010600005","2024-03-16T00:45:00",15.5,21.295063,0.133],
    [14897,"urn:WaterMeter:MC0203J22010600005","2024-03-16T01:00:00",15.5,21.378113,0.13],
    [14898,"urn:WaterMeter:MC0203J22010600005","2024-03-16T01:15:00",15.5,21.495258,0.136],
    [14899,"urn:WaterMeter:MC0203J22010600005","2024-03-16T01:30:00",15.5,21.523575,0.134],
    [14900,"urn:WaterMeter:MC0203J22010600005","2024-03-16T01:45:00",15.399,21.559261,0.131],
    [14901,"urn:WaterMeter:MC0203J22010600005","2024-03-16T02:00:00",15.399,21.62598,0.131],
    [14902,"urn:WaterMeter:MC0203J22010600005","2024-03-16T02:15:00",15.3,21.680286,0.136],
    [14903,"urn:WaterMeter:MC0203J22010600005","2024-03-16T02:30:00",15.3,21.764462,0.133],
    [14904,"urn:WaterMeter:MC0203J22010600005","2024-03-16T02:45:00",15.199,21.841652,0.137],
    [14905,"urn:WaterMeter:MC0203J22010600005","2024-03-16T03:15:00",15,21.904453,0.137],
    [14906,"urn:WaterMeter:MC0203J22010600005","2024-03-16T03:30:00",14.899,21.987503,0.136],
    [14907,"urn:WaterMeter:MC0203J22010600005","2024-03-16T03:45:00",14.8,21.979746,0.136],
    [14908,"urn:WaterMeter:MC0203J22010600005","2024-03-16T04:00:00",14.699,22.01039,0.14],
    [14909,"urn:WaterMeter:MC0203J22010600005","2024-03-16T04:15:00",14.6,22.10077,0.132],
    [14910,"urn:WaterMeter:MC0203J22010600005","2024-03-16T04:30:00",14.5,22.15814,0.136],
    [14911,"urn:WaterMeter:MC0203J22010600005","2024-03-16T04:45:00",14.399,22.143438,0.131],
    [14912,"urn:WaterMeter:MC0203J22010600005","2024-03-16T05:00:00",14.3,22.205853,0.132],
    [14913,"urn:WaterMeter:MC0203J22010600005","2024-03-16T05:15:00",14.199,22.282696,0.135],
    [14914,"urn:WaterMeter:MC0203J22010600005","2024-03-16T05:30:00",14.199,22.330755,0.135],
    [14915,"urn:WaterMeter:MC0203J22010600005","2024-03-16T05:45:00",14.1,22.365705,0.137],
    [14916,"urn:WaterMeter:MC0203J22010600005","2024-03-16T06:00:00",14.1,22.381998,0.134],
    [14917,"urn:WaterMeter:MC0203J22010600005","2024-03-16T06:15:00",14.199,22.412642,0.131],
    [14918,"urn:WaterMeter:MC0203J22010600005","2024-03-16T06:30:00",14.3,22.48708,0.136],
    [14919,"urn:WaterMeter:MC0203J22010600005","2024-03-16T06:45:00",14.3,22.54763,0.135],
    [14920,"urn:WaterMeter:MC0203J22010600005","2024-03-16T07:00:00",14.399,22.54802,0.131],
    [14921,"urn:WaterMeter:MC0203J22010600005","2024-03-16T07:15:00",14.399,22.571293,0.135],
    [14922,"urn:WaterMeter:MC0203J22010600005","2024-03-16T07:30:00",14.399,22.580603,0.139],
    [14923,"urn:WaterMeter:MC0203J22010600005","2024-03-16T07:45:00",14.6,22.627539,0.133],
    [14924,"urn:WaterMeter:MC0203J22010600005","2024-03-16T08:00:00",14.8,22.660858,0.137],
    [14925,"urn:WaterMeter:MC0203J22010600005","2024-03-16T08:15:00",15,22.730293,0.135],
    [14926,"urn:WaterMeter:MC0203J22010600005","2024-03-16T08:30:00",15.199,22.702015,0.136],
    [14927,"urn:WaterMeter:MC0203J22010600005","2024-03-16T08:45:00",15.399,22.737663,0.132],
    [14928,"urn:WaterMeter:MC0203J22010600005","2024-03-16T09:00:00",15.699,22.753994,0.136],
    [14929,"urn:WaterMeter:MC0203J22010600005","2024-03-16T09:15:00",16.1,22.739214,0.126],
    [14930,"urn:WaterMeter:MC0203J22010600005","2024-03-16T09:30:00",16.5,22.77684,0.129],
    [14931,"urn:WaterMeter:MC0203J22010600005","2024-03-16T09:45:00",16.799,22.752441,0.126],
    [14932,"urn:WaterMeter:MC0203J22010600005","2024-03-16T10:00:00",17.2,22.80287,0.132],
    [14933,"urn:WaterMeter:MC0203J22010600005","2024-03-16T10:15:00",17.5,22.796236,0.125],
    [14934,"urn:WaterMeter:MC0203J22010600005","2024-03-16T10:30:00",17.899,22.796623,0.124],
    [14935,"urn:WaterMeter:MC0203J22010600005","2024-03-16T10:45:00",18.2,22.776453,0.13],
    [14936,"urn:WaterMeter:MC0203J22010600005","2024-03-16T11:00:00",18.6,22.766407,0.128],
    [14937,"urn:WaterMeter:MC0203J22010600005","2024-03-16T11:15:00",19.1,22.764078,0.123],
    [14938,"urn:WaterMeter:MC0203J22010600005","2024-03-16T11:30:00",19.399,22.744297,0.136],
    [14939,"urn:WaterMeter:MC0203J22010600005","2024-03-16T11:45:00",19.6,22.704342,0.129],
    [14940,"urn:WaterMeter:MC0203J22010600005","2024-03-16T12:00:00",19.799,22.732271,0.125],
    [14941,"urn:WaterMeter:MC0203J22010600005","2024-03-16T12:15:00",20.1,22.754381,0.126],
    [14942,"urn:WaterMeter:MC0203J22010600005","2024-03-16T12:30:00",20.399,22.724901,0.125],
    [14943,"urn:WaterMeter:MC0203J22010600005","2024-03-16T12:45:00",20.6,22.686888,0.133],
    [14944,"urn:WaterMeter:MC0203J22010600005","2024-03-16T13:00:00",20.7,22.726841,0.141],
    [14945,"urn:WaterMeter:MC0203J22010600005","2024-03-16T13:15:00",20.6,22.69926,0.137],
    [14946,"urn:WaterMeter:MC0203J22010600005","2024-03-16T13:30:00",20.5,22.688051,0.131],
    [14947,"urn:WaterMeter:MC0203J22010600005","2024-03-16T13:45:00",20.399,22.670944,0.131],
    [14948,"urn:WaterMeter:MC0203J22010600005","2024-03-16T14:00:00",20.399,22.69926,0.128],
    [14949,"urn:WaterMeter:MC0203J22010600005","2024-03-16T14:15:00",20.5,22.645382,0.13],
    [14950,"urn:WaterMeter:MC0203J22010600005","2024-03-16T14:30:00",20.6,22.697361,0.127],
    [14951,"urn:WaterMeter:MC0203J22010600005","2024-03-16T14:45:00",20.7,22.664776,0.133],
    [14952,"urn:WaterMeter:MC0203J22010600005","2024-03-16T15:00:00",20.799,22.709385,0.125],
    [14953,"urn:WaterMeter:MC0203J22010600005","2024-03-16T15:15:00",20.899,22.701588,0.128],
    [14954,"urn:WaterMeter:MC0203J22010600005","2024-03-16T15:30:00",20.899,22.673698,0.126],
    [14955,"urn:WaterMeter:MC0203J22010600005","2024-03-16T15:45:00",21,22.680254,0.125],
    [14956,"urn:WaterMeter:MC0203J22010600005","2024-03-16T16:00:00",20.799,22.653915,0.137],
    [14957,"urn:WaterMeter:MC0203J22010600005","2024-03-16T16:15:00",20.799,22.685722,0.131],
    [14958,"urn:WaterMeter:MC0203J22010600005","2024-03-16T16:30:00",20.799,22.65857,0.128],
    [14959,"urn:WaterMeter:MC0203J22010600005","2024-03-16T16:45:00",20.799,22.674862,0.129],
    [14960,"urn:WaterMeter:MC0203J22010600005","2024-03-16T17:00:00",20.6,22.71051,0.131],
    [14961,"urn:WaterMeter:MC0203J22010600005","2024-03-16T17:15:00",20.5,22.672922,0.135],
    [14962,"urn:WaterMeter:MC0203J22010600005","2024-03-16T17:30:00",20.299,22.662022,0.131],
    [14963,"urn:WaterMeter:MC0203J22010600005","2024-03-16T17:45:00",20.1,22.703955,0.132],
    [14964,"urn:WaterMeter:MC0203J22010600005","2024-03-16T18:00:00",19.899,22.683784,0.137],
    [14965,"urn:WaterMeter:MC0203J22010600005","2024-03-16T18:15:00",19.7,22.698874,0.132],
    [14966,"urn:WaterMeter:MC0203J22010600005","2024-03-16T18:30:00",19.399,22.747398,0.136],
    [14967,"urn:WaterMeter:MC0203J22010600005","2024-03-16T18:45:00",19.2,22.710897,0.13],
    [14968,"urn:WaterMeter:MC0203J22010600005","2024-03-16T19:00:00",19,22.74352,0.135],
    [14969,"urn:WaterMeter:MC0203J22010600005","2024-03-16T19:15:00",18.7,22.787703,0.128],
    [14970,"urn:WaterMeter:MC0203J22010600005","2024-03-16T19:30:00",18.5,22.786964,0.135],
    [14971,"urn:WaterMeter:MC0203J22010600005","2024-03-16T19:45:00",18.399,22.748175,0.132],
    [14972,"urn:WaterMeter:MC0203J22010600005","2024-03-16T20:00:00",18.2,22.803644,0.135],
    [14973,"urn:WaterMeter:MC0203J22010600005","2024-03-16T20:15:00",18.1,22.82459,0.139],
    [14974,"urn:WaterMeter:MC0203J22010600005","2024-03-16T20:30:00",17.899,22.81179,0.126],
    [14975,"urn:WaterMeter:MC0203J22010600005","2024-03-16T20:45:00",17.799,22.85795,0.136],
    [14976,"urn:WaterMeter:MC0203J22010600005","2024-03-16T21:00:00",17.7,22.872303,0.132],
    [14977,"urn:WaterMeter:MC0203J22010600005","2024-03-16T21:15:00",17.5,22.897516,0.131],
    [14978,"urn:WaterMeter:MC0203J22010600005","2024-03-16T21:30:00",17.399,22.876959,0.141],
    [14979,"urn:WaterMeter:MC0203J22010600005","2024-03-16T21:45:00",17.299,22.866446,0.138],
    [14980,"urn:WaterMeter:MC0203J22010600005","2024-03-16T22:00:00",17.2,22.895538,0.138],
    [14981,"urn:WaterMeter:MC0203J22010600005","2024-03-16T22:15:00",17.1,22.929325,0.131],
    [14982,"urn:WaterMeter:MC0203J22010600005","2024-03-16T22:30:00",17,22.876959,0.134],
    [14983,"urn:WaterMeter:MC0203J22010600005","2024-03-16T22:45:00",16.899,22.911442,0.132],
    [14984,"urn:WaterMeter:MC0203J22010600005","2024-03-16T23:00:00",16.799,22.940573,0.132],
    [14985,"urn:WaterMeter:MC0203J22010600005","2024-03-16T23:15:00",16.6,22.912994,0.127],
    [14986,"urn:WaterMeter:MC0203J22010600005","2024-03-16T23:30:00",16.5,22.951008,0.131],
    [14987,"urn:WaterMeter:MC0203J22010600005","2024-03-16T23:45:00",16.399,22.920015,0.133],
    [14988,"urn:WaterMeter:MC0203J22010600005","2024-03-17T00:00:00",16.399,22.96152,0.139],
    [14989,"urn:WaterMeter:MC0203J22010600005","2024-03-17T00:15:00",16.299,23.007292,0.135],
    [14990,"urn:WaterMeter:MC0203J22010600005","2024-03-17T00:30:00",16.2,22.975096,0.132],
    [14991,"urn:WaterMeter:MC0203J22010600005","2024-03-17T00:45:00",16.1,22.960356,0.134],
    [14992,"urn:WaterMeter:MC0203J22010600005","2024-03-17T01:00:00",16,23.006905,0.132],
    [14993,"urn:WaterMeter:MC0203J22010600005","2024-03-17T01:15:00",15.8,22.974321,0.14],
    [14994,"urn:WaterMeter:MC0203J22010600005","2024-03-17T01:30:00",15.699,23.01699,0.135],
    [14995,"urn:WaterMeter:MC0203J22010600005","2024-03-17T01:45:00",15.6,23.023584,0.136],
    [14996,"urn:WaterMeter:MC0203J22010600005","2024-03-17T02:00:00",15.5,23.0744,0.132],
    [14997,"urn:WaterMeter:MC0203J22010600005","2024-03-17T02:15:00",15.3,23.090303,0.133],
    [14998,"urn:WaterMeter:MC0203J22010600005","2024-03-17T02:30:00",15.199,23.058844,0.135],
    [14999,"urn:WaterMeter:MC0203J22010600005","2024-03-17T02:45:00",15.1,23.060823,0.135],
    [15000,"urn:WaterMeter:MC0203J22010600005","2024-03-17T03:00:00",15,23.069317,0.133],
    [15001,"urn:WaterMeter:MC0203J22010600005","2024-03-17T03:15:00",14.899,23.093407,0.131],
    [15002,"urn:WaterMeter:MC0203J22010600005","2024-03-17T03:30:00",14.8,23.084484,0.132],
    [15003,"urn:WaterMeter:MC0203J22010600005","2024-03-17T03:45:00",14.699,23.066254,0.119],
    [15004,"urn:WaterMeter:MC0203J22010600005","2024-03-17T04:00:00",14.6,23.127502,0.133],
    [15005,"urn:WaterMeter:MC0203J22010600005","2024-03-17T04:15:00",14.5,23.095734,0.133],
    [15006,"urn:WaterMeter:MC0203J22010600005","2024-03-17T04:30:00",14.399,23.084873,0.133],
    [15007,"urn:WaterMeter:MC0203J22010600005","2024-03-17T04:45:00",14.3,23.156595,0.138],
    [15008,"urn:WaterMeter:MC0203J22010600005","2024-03-17T05:00:00",14.199,23.156208,0.135],
    [15009,"urn:WaterMeter:MC0203J22010600005","2024-03-17T05:15:00",14.1,23.124786,0.134],
    [15010,"urn:WaterMeter:MC0203J22010600005","2024-03-17T05:30:00",13.899,23.160513,0.131],
    [15011,"urn:WaterMeter:MC0203J22010600005","2024-03-17T05:45:00",13.8,23.181072,0.135],
    [15012,"urn:WaterMeter:MC0203J22010600005","2024-03-17T06:00:00",13.8,23.202368,0.131],
    [15013,"urn:WaterMeter:MC0203J22010600005","2024-03-17T06:15:00",13.699,23.215168,0.131],
    [15014,"urn:WaterMeter:MC0203J22010600005","2024-03-17T06:30:00",13.6,23.188442,0.134],
    [15015,"urn:WaterMeter:MC0203J22010600005","2024-03-17T06:45:00",13.5,23.200079,0.133],
    [15016,"urn:WaterMeter:MC0203J22010600005","2024-03-17T07:00:00",13.5,23.192709,0.135],
    [15017,"urn:WaterMeter:MC0203J22010600005","2024-03-17T07:15:00",13.5,23.24042,0.135],
    [15018,"urn:WaterMeter:MC0203J22010600005","2024-03-17T07:30:00",13.5,23.202755,0.137],
    [15019,"urn:WaterMeter:MC0203J22010600005","2024-03-17T07:45:00",13.6,23.221762,0.134],
    [15020,"urn:WaterMeter:MC0203J22010600005","2024-03-17T08:00:00",13.8,23.230722,0.137],
    [15021,"urn:WaterMeter:MC0203J22010600005","2024-03-17T08:15:00",14,23.219473,0.137],
    [15022,"urn:WaterMeter:MC0203J22010600005","2024-03-17T08:30:00",14.199,23.166292,0.13],
    [15023,"urn:WaterMeter:MC0203J22010600005","2024-03-17T08:45:00",14.5,23.214392,0.122],
    [15024,"urn:WaterMeter:MC0203J22010600005","2024-03-17T09:00:00",14.8,23.183361,0.129],
    [15025,"urn:WaterMeter:MC0203J22010600005","2024-03-17T09:15:00",15.199,23.172926,0.128],
    [15026,"urn:WaterMeter:MC0203J22010600005","2024-03-17T09:30:00",15.5,23.115517,0.128],
    [15027,"urn:WaterMeter:MC0203J22010600005","2024-03-17T09:45:00",15.899,23.097633,0.128],
    [15028,"urn:WaterMeter:MC0203J22010600005","2024-03-17T10:00:00",16.2,23.10931,0.133],
    [15029,"urn:WaterMeter:MC0203J22010600005","2024-03-17T10:15:00",16.5,23.114353,0.126],
    [15030,"urn:WaterMeter:MC0203J22010600005","2024-03-17T10:30:00",16.799,23.09263,0.12],
    [15031,"urn:WaterMeter:MC0203J22010600005","2024-03-17T10:45:00",17.1,23.001047,0.132],
    [15032,"urn:WaterMeter:MC0203J22010600005","2024-03-17T11:00:00",17.399,22.960356,0.13],
    [15033,"urn:WaterMeter:MC0203J22010600005","2024-03-17T11:15:00",17.899,22.952171,0.121],
    [15034,"urn:WaterMeter:MC0203J22010600005","2024-03-17T11:30:00",18.299,22.911093,0.125],
    [15035,"urn:WaterMeter:MC0203J22010600005","2024-03-17T11:45:00",18.7,22.909542,0.12],
    [15036,"urn:WaterMeter:MC0203J22010600005","2024-03-17T12:00:00",19.1,22.919626,0.124],
    [15037,"urn:WaterMeter:MC0203J22010600005","2024-03-17T12:15:00",19.5,22.826492,0.121],
    [15038,"urn:WaterMeter:MC0203J22010600005","2024-03-17T12:30:00",19.7,22.79356,0.122],
    [15039,"urn:WaterMeter:MC0203J22010600005","2024-03-17T12:45:00",20,22.729517,0.121],
    [15040,"urn:WaterMeter:MC0203J22010600005","2024-03-17T13:00:00",20.1,22.711287,0.12],
    [15041,"urn:WaterMeter:MC0203J22010600005","2024-03-17T13:15:00",20.299,22.698097,0.118],
    [15042,"urn:WaterMeter:MC0203J22010600005","2024-03-17T13:30:00",20.399,22.700424,0.127],
    [15043,"urn:WaterMeter:MC0203J22010600005","2024-03-17T13:45:00",20.5,22.659307,0.121],
    [15044,"urn:WaterMeter:MC0203J22010600005","2024-03-17T14:00:00",20.6,22.5775,0.12],
    [15045,"urn:WaterMeter:MC0203J22010600005","2024-03-17T14:15:00",20.7,22.543325,0.121],
    [15046,"urn:WaterMeter:MC0203J22010600005","2024-03-17T14:30:00",20.899,22.523193,0.122],
    [15047,"urn:WaterMeter:MC0203J22010600005","2024-03-17T14:45:00",21,22.531727,0.129],
    [15048,"urn:WaterMeter:MC0203J22010600005","2024-03-17T15:00:00",21,22.524319,0.123],
    [15049,"urn:WaterMeter:MC0203J22010600005","2024-03-17T15:15:00",21.1,22.439756,0.138],
    [15050,"urn:WaterMeter:MC0203J22010600005","2024-03-17T15:30:00",21.1,22.407948,0.125],
    [15051,"urn:WaterMeter:MC0203J22010600005","2024-03-17T15:45:00",21.1,22.398678,0.125],
    [15052,"urn:WaterMeter:MC0203J22010600005","2024-03-17T16:00:00",21.1,22.415358,0.127],
    [15053,"urn:WaterMeter:MC0203J22010600005","2024-03-17T16:15:00",21.1,22.402945,0.129],
    [15054,"urn:WaterMeter:MC0203J22010600005","2024-03-17T16:30:00",21.1,22.347862,0.124],
    [15055,"urn:WaterMeter:MC0203J22010600005","2024-03-17T16:45:00",21,22.325363,0.126],
    [15056,"urn:WaterMeter:MC0203J22010600005","2024-03-17T17:00:00",20.799,22.332308,0.126],
    [15057,"urn:WaterMeter:MC0203J22010600005","2024-03-17T17:15:00",20.7,22.330755,0.123],
    [15058,"urn:WaterMeter:MC0203J22010600005","2024-03-17T17:30:00",20.5,22.302439,0.119],
    [15059,"urn:WaterMeter:MC0203J22010600005","2024-03-17T17:45:00",20.399,22.274899,0.124],
    [15060,"urn:WaterMeter:MC0203J22010600005","2024-03-17T18:00:00",20.2,22.282307,0.133],
    [15061,"urn:WaterMeter:MC0203J22010600005","2024-03-17T18:15:00",20,22.292355,0.131],
    [15062,"urn:WaterMeter:MC0203J22010600005","2024-03-17T18:30:00",19.799,22.28735,0.126],
    [15063,"urn:WaterMeter:MC0203J22010600005","2024-03-17T18:45:00",19.6,22.301702,0.126],
    [15064,"urn:WaterMeter:MC0203J22010600005","2024-03-17T19:00:00",19.399,22.263649,0.128],
    [15065,"urn:WaterMeter:MC0203J22010600005","2024-03-17T19:15:00",19.2,22.278429,0.135],
    [15066,"urn:WaterMeter:MC0203J22010600005","2024-03-17T19:30:00",19,22.313301,0.124],
    [15067,"urn:WaterMeter:MC0203J22010600005","2024-03-17T19:45:00",18.7,22.270283,0.139],
    [15068,"urn:WaterMeter:MC0203J22010600005","2024-03-17T20:00:00",18.5,22.323812,0.123],
    [15069,"urn:WaterMeter:MC0203J22010600005","2024-03-17T20:15:00",18.299,22.301313,0.123],
    [15070,"urn:WaterMeter:MC0203J22010600005","2024-03-17T20:30:00",18.2,22.298212,0.124],
    [15071,"urn:WaterMeter:MC0203J22010600005","2024-03-17T20:45:00",18,22.303215,0.134],
    [15072,"urn:WaterMeter:MC0203J22010600005","2024-03-17T21:00:00",17.799,22.303991,0.126],
    [15073,"urn:WaterMeter:MC0203J22010600005","2024-03-17T21:15:00",17.7,22.350538,0.133],
    [15074,"urn:WaterMeter:MC0203J22010600005","2024-03-17T21:30:00",17.5,22.316055,0.129],
    [15075,"urn:WaterMeter:MC0203J22010600005","2024-03-17T21:45:00",17.399,22.364155,0.13],
    [15076,"urn:WaterMeter:MC0203J22010600005","2024-03-17T22:00:00",17.299,22.374239,0.119],
    [15077,"urn:WaterMeter:MC0203J22010600005","2024-03-17T22:15:00",17.1,22.370321,0.134],
    [15078,"urn:WaterMeter:MC0203J22010600005","2024-03-17T22:30:00",17,22.32614,0.125],
    [15079,"urn:WaterMeter:MC0203J22010600005","2024-03-17T22:45:00",16.899,22.329592,0.125],
    [15080,"urn:WaterMeter:MC0203J22010600005","2024-03-17T23:00:00",16.799,22.324589,0.133],
    [15081,"urn:WaterMeter:MC0203J22010600005","2024-03-17T23:15:00",16.7,22.321486,0.118],
    [15082,"urn:WaterMeter:MC0203J22010600005","2024-03-17T23:30:00",16.5,22.37967,0.126],
    [15083,"urn:WaterMeter:MC0203J22010600005","2024-03-17T23:45:00",16.399,22.368382,0.126],
    [15084,"urn:WaterMeter:MC0203J22010600005","2024-03-18T00:00:00",16.299,22.389717,0.13],
    [15085,"urn:WaterMeter:MC0203J22010600005","2024-03-18T00:15:00",16.2,22.397125,0.129],
    [15086,"urn:WaterMeter:MC0203J22010600005","2024-03-18T00:30:00",16.1,22.384712,0.132],
    [15087,"urn:WaterMeter:MC0203J22010600005","2024-03-18T00:45:00",16,22.409111,0.125],
    [15088,"urn:WaterMeter:MC0203J22010600005","2024-03-18T01:00:00",15.899,22.347475,0.13],
    [15089,"urn:WaterMeter:MC0203J22010600005","2024-03-18T01:15:00",15.8,22.407948,0.127],
    [15090,"urn:WaterMeter:MC0203J22010600005","2024-03-18T01:30:00",15.699,22.388554,0.134],
    [15091,"urn:WaterMeter:MC0203J22010600005","2024-03-18T01:45:00",15.6,22.410275,0.134],
    [15092,"urn:WaterMeter:MC0203J22010600005","2024-03-18T02:00:00",15.5,22.423502,0.135],
    [15093,"urn:WaterMeter:MC0203J22010600005","2024-03-18T02:15:00",15.399,22.350151,0.131],
    [15094,"urn:WaterMeter:MC0203J22010600005","2024-03-18T02:30:00",15.199,22.374239,0.126],
    [15095,"urn:WaterMeter:MC0203J22010600005","2024-03-18T02:45:00",15.1,22.378506,0.129],
    [15096,"urn:WaterMeter:MC0203J22010600005","2024-03-18T03:00:00",15,22.397514,0.129],
    [15097,"urn:WaterMeter:MC0203J22010600005","2024-03-18T03:15:00",14.899,22.429283,0.127],
    [15098,"urn:WaterMeter:MC0203J22010600005","2024-03-18T03:30:00",14.8,22.394411,0.123],
    [15099,"urn:WaterMeter:MC0203J22010600005","2024-03-18T03:45:00",14.6,22.372688,0.13],
    [15100,"urn:WaterMeter:MC0203J22010600005","2024-03-18T04:00:00",14.5,22.377342,0.136],
    [15101,"urn:WaterMeter:MC0203J22010600005","2024-03-18T04:15:00",14.399,22.419197,0.129],
    [15102,"urn:WaterMeter:MC0203J22010600005","2024-03-18T04:30:00",14.3,22.463844,0.123],
    [15103,"urn:WaterMeter:MC0203J22010600005","2024-03-18T04:45:00",14.199,22.411865,0.125],
    [15104,"urn:WaterMeter:MC0203J22010600005","2024-03-18T05:00:00",14.1,22.407948,0.131],
    [15105,"urn:WaterMeter:MC0203J22010600005","2024-03-18T05:15:00",14,22.415358,0.125],
    [15106,"urn:WaterMeter:MC0203J22010600005","2024-03-18T05:30:00",14,22.48324,0.124],
    [15107,"urn:WaterMeter:MC0203J22010600005","2024-03-18T05:45:00",13.899,22.424278,0.126],
    [15108,"urn:WaterMeter:MC0203J22010600005","2024-03-18T06:00:00",13.8,22.47777,0.132],
    [15109,"urn:WaterMeter:MC0203J22010600005","2024-03-18T06:15:00",13.8,22.451431,0.129],
    [15110,"urn:WaterMeter:MC0203J22010600005","2024-03-18T06:30:00",13.8,22.461517,0.125],
    [15111,"urn:WaterMeter:MC0203J22010600005","2024-03-18T06:45:00",13.8,22.422728,0.129],
    [15112,"urn:WaterMeter:MC0203J22010600005","2024-03-18T07:00:00",13.8,22.453371,0.124],
    [15113,"urn:WaterMeter:MC0203J22010600005","2024-03-18T07:15:00",13.899,22.43898,0.123],
    [15114,"urn:WaterMeter:MC0203J22010600005","2024-03-18T07:30:00",14.1,22.453758,0.121],
    [15115,"urn:WaterMeter:MC0203J22010600005","2024-03-18T07:45:00",14.199,22.432812,0.13],
    [15116,"urn:WaterMeter:MC0203J22010600005","2024-03-18T08:00:00",14.399,22.4332,0.134],
    [15117,"urn:WaterMeter:MC0203J22010600005","2024-03-18T08:15:00",14.699,22.471214,0.124],
    [15118,"urn:WaterMeter:MC0203J22010600005","2024-03-18T08:30:00",14.899,22.369158,0.126],
    [15119,"urn:WaterMeter:MC0203J22010600005","2024-03-18T08:45:00",15.199,22.378119,0.125],
    [15120,"urn:WaterMeter:MC0203J22010600005","2024-03-18T09:00:00",15.6,22.762527,0.125],
    [15121,"urn:WaterMeter:MC0203J22010600005","2024-03-18T09:15:00",16.1,23.934374,0.14],
    [15122,"urn:WaterMeter:MC0203J22010600005","2024-03-18T09:30:00",16.6,24.79202,0.143],
    [15123,"urn:WaterMeter:MC0203J22010600005","2024-03-18T09:45:00",17,25.490976,0.148],
    [15124,"urn:WaterMeter:MC0203J22010600005","2024-03-18T10:00:00",17.299,26.01503,0.161],
    [15125,"urn:WaterMeter:MC0203J22010600005","2024-03-18T10:15:00",17.7,26.436329,0.155],
    [15126,"urn:WaterMeter:MC0203J22010600005","2024-03-18T10:30:00",18.1,26.755144,0.169],
    [15127,"urn:WaterMeter:MC0203J22010600005","2024-03-18T10:45:00",18.399,27.011196,0.157],
    [15128,"urn:WaterMeter:MC0203J22010600005","2024-03-18T11:00:00",18.799,27.202044,0.16],
    [15129,"urn:WaterMeter:MC0203J22010600005","2024-03-18T11:15:00",19.2,27.380089,0.156],
    [15130,"urn:WaterMeter:MC0203J22010600005","2024-03-18T11:30:00",19.6,27.460384,0.161],
    [15131,"urn:WaterMeter:MC0203J22010600005","2024-03-18T11:45:00",20,27.583736,0.162],
    [15132,"urn:WaterMeter:MC0203J22010600005","2024-03-18T12:00:00",20.399,27.666708,0.161],
    [15133,"urn:WaterMeter:MC0203J22010600005","2024-03-18T12:15:00",20.7,27.751698,0.159],
    [15134,"urn:WaterMeter:MC0203J22010600005","2024-03-18T12:30:00",20.799,27.812984,0.163],
    [15135,"urn:WaterMeter:MC0203J22010600005","2024-03-18T12:45:00",21,27.84324,0.167],
    [15136,"urn:WaterMeter:MC0203J22010600005","2024-03-18T13:00:00",21.2,27.883583,0.172],
    [15137,"urn:WaterMeter:MC0203J22010600005","2024-03-18T13:15:00",21.299,27.870783,0.168],
    [15138,"urn:WaterMeter:MC0203J22010600005","2024-03-18T13:30:00",21.5,27.868805,0.16],
    [15139,"urn:WaterMeter:MC0203J22010600005","2024-03-18T13:45:00",21.6,27.920046,0.17],
    [15140,"urn:WaterMeter:MC0203J22010600005","2024-03-18T14:00:00",21.7,27.934748,0.162],
    [15141,"urn:WaterMeter:MC0203J22010600005","2024-03-18T14:15:00",21.799,27.944096,0.17],
    [15142,"urn:WaterMeter:MC0203J22010600005","2024-03-18T14:30:00",21.899,27.903366,0.167],
    [15143,"urn:WaterMeter:MC0203J22010600005","2024-03-18T14:45:00",22,27.889751,0.172],
    [15144,"urn:WaterMeter:MC0203J22010600005","2024-03-18T15:00:00",22,27.933235,0.164],
    [15145,"urn:WaterMeter:MC0203J22010600005","2024-03-18T15:15:00",22,27.936298,0.162],
    [15146,"urn:WaterMeter:MC0203J22010600005","2024-03-18T15:30:00",21.899,27.9119,0.164],
    [15147,"urn:WaterMeter:MC0203J22010600005","2024-03-18T15:45:00",21.899,27.918455,0.163],
    [15148,"urn:WaterMeter:MC0203J22010600005","2024-03-18T16:00:00",21.7,27.922762,0.172],
    [15149,"urn:WaterMeter:MC0203J22010600005","2024-03-18T16:15:00",21.5,27.89367,0.172],
    [15150,"urn:WaterMeter:MC0203J22010600005","2024-03-18T16:30:00",21.399,27.885136,0.169],
    [15151,"urn:WaterMeter:MC0203J22010600005","2024-03-18T16:45:00",21.2,27.9119,0.177],
    [15152,"urn:WaterMeter:MC0203J22010600005","2024-03-18T17:00:00",21,27.89367,0.164],
    [15153,"urn:WaterMeter:MC0203J22010600005","2024-03-18T17:15:00",20.799,27.915741,0.175],
    [15154,"urn:WaterMeter:MC0203J22010600005","2024-03-18T17:30:00",20.6,27.927378,0.171],
    [15155,"urn:WaterMeter:MC0203J22010600005","2024-03-18T17:45:00",20.399,27.940992,0.169],
    [15156,"urn:WaterMeter:MC0203J22010600005","2024-03-18T18:00:00",20.2,27.951853,0.17],
    [15157,"urn:WaterMeter:MC0203J22010600005","2024-03-18T18:15:00",20,27.969698,0.181],
    [15158,"urn:WaterMeter:MC0203J22010600005","2024-03-18T18:30:00",19.799,27.947548,0.166],
    [15159,"urn:WaterMeter:MC0203J22010600005","2024-03-18T18:45:00",19.6,27.982498,0.188],
    [15160,"urn:WaterMeter:MC0203J22010600005","2024-03-18T19:00:00",19.5,27.964655,0.17],
    [15161,"urn:WaterMeter:MC0203J22010600005","2024-03-18T19:15:00",19.299,28.010426,0.167],
    [15162,"urn:WaterMeter:MC0203J22010600005","2024-03-18T19:30:00",19.2,27.95069,0.169],
    [15163,"urn:WaterMeter:MC0203J22010600005","2024-03-18T19:45:00",19,27.96,0.179],
    [15164,"urn:WaterMeter:MC0203J22010600005","2024-03-18T20:00:00",18.899,28.000729,0.164],
    [15165,"urn:WaterMeter:MC0203J22010600005","2024-03-18T20:15:00",18.7,28.015818,0.167],
    [15166,"urn:WaterMeter:MC0203J22010600005","2024-03-18T20:30:00",18.6,28.011202,0.168],
    [15167,"urn:WaterMeter:MC0203J22010600005","2024-03-18T20:45:00",18.5,28.018572,0.174],
    [15168,"urn:WaterMeter:MC0203J22010600005","2024-03-18T21:00:00",18.399,28.008099,0.167],
    [15169,"urn:WaterMeter:MC0203J22010600005","2024-03-18T21:15:00",18.299,27.984438,0.167],
    [15170,"urn:WaterMeter:MC0203J22010600005","2024-03-18T21:30:00",18.2,28.043747,0.167],
    [15171,"urn:WaterMeter:MC0203J22010600005","2024-03-18T21:45:00",18.1,28.004221,0.173],
    [15172,"urn:WaterMeter:MC0203J22010600005","2024-03-18T22:00:00",18,28.016632,0.177],
    [15173,"urn:WaterMeter:MC0203J22010600005","2024-03-18T22:15:00",17.899,27.983273,0.193],
    [15174,"urn:WaterMeter:MC0203J22010600005","2024-03-18T22:30:00",17.799,28.001892,0.173],
    [15175,"urn:WaterMeter:MC0203J22010600005","2024-03-18T22:45:00",17.7,28.030598,0.171],
    [15176,"urn:WaterMeter:MC0203J22010600005","2024-03-18T23:00:00",17.6,28.00612,0.175],
    [15177,"urn:WaterMeter:MC0203J22010600005","2024-03-18T23:15:00",17.5,28.05581,0.168],
    [15178,"urn:WaterMeter:MC0203J22010600005","2024-03-18T23:30:00",17.399,27.998014,0.168],
    [15179,"urn:WaterMeter:MC0203J22010600005","2024-03-18T23:45:00",17.299,28.023615,0.176],
    [15180,"urn:WaterMeter:MC0203J22010600005","2024-03-19T00:00:00",17.2,28.008488,0.173],
    [15181,"urn:WaterMeter:MC0203J22010600005","2024-03-19T00:15:00",17.1,28.021288,0.167],
    [15182,"urn:WaterMeter:MC0203J22010600005","2024-03-19T00:30:00",17.1,28.01896,0.176],
    [15183,"urn:WaterMeter:MC0203J22010600005","2024-03-19T00:45:00",17,27.980171,0.172],
    [15184,"urn:WaterMeter:MC0203J22010600005","2024-03-19T01:00:00",16.899,28.006935,0.188],
    [15185,"urn:WaterMeter:MC0203J22010600005","2024-03-19T01:15:00",16.799,27.965042,0.17],
    [15186,"urn:WaterMeter:MC0203J22010600005","2024-03-19T01:30:00",16.799,28.06163,0.173],
    [15187,"urn:WaterMeter:MC0203J22010600005","2024-03-19T01:45:00",16.7,28.008099,0.172],
    [15188,"urn:WaterMeter:MC0203J22010600005","2024-03-19T02:00:00",16.6,27.994484,0.165],
    [15189,"urn:WaterMeter:MC0203J22010600005","2024-03-19T02:15:00",16.6,28.001118,0.174],
    [15190,"urn:WaterMeter:MC0203J22010600005","2024-03-19T02:30:00",16.5,27.994871,0.181],
    [15191,"urn:WaterMeter:MC0203J22010600005","2024-03-19T02:45:00",16.399,28.011591,0.171],
    [15192,"urn:WaterMeter:MC0203J22010600005","2024-03-19T03:00:00",16.299,28.006548,0.173],
    [15193,"urn:WaterMeter:MC0203J22010600005","2024-03-19T03:15:00",16.2,28.000341,0.173],
    [15194,"urn:WaterMeter:MC0203J22010600005","2024-03-19T03:30:00",16.1,27.990255,0.166],
    [15195,"urn:WaterMeter:MC0203J22010600005","2024-03-19T03:45:00",16,27.991808,0.17],
    [15196,"urn:WaterMeter:MC0203J22010600005","2024-03-19T04:00:00",15.899,28.041847,0.168],
    [15197,"urn:WaterMeter:MC0203J22010600005","2024-03-19T04:15:00",15.8,27.996035,0.171],
    [15198,"urn:WaterMeter:MC0203J22010600005","2024-03-19T04:30:00",15.6,28.04844,0.168],
    [15199,"urn:WaterMeter:MC0203J22010600005","2024-03-19T04:45:00",15.5,28.031723,0.168],
    [15200,"urn:WaterMeter:MC0203J22010600005","2024-03-19T05:00:00",15.5,28.027105,0.167],
    [15201,"urn:WaterMeter:MC0203J22010600005","2024-03-19T05:15:00",15.399,28.057362,0.171],
    [15202,"urn:WaterMeter:MC0203J22010600005","2024-03-19T05:30:00",15.3,28.015043,0.166],
    [15203,"urn:WaterMeter:MC0203J22010600005","2024-03-19T05:45:00",15.199,28.05228,0.164],
    [15204,"urn:WaterMeter:MC0203J22010600005","2024-03-19T06:00:00",15.1,28.048054,0.166],
    [15205,"urn:WaterMeter:MC0203J22010600005","2024-03-19T06:15:00",15,28.03564,0.17],
    [15206,"urn:WaterMeter:MC0203J22010600005","2024-03-19T06:30:00",15,28.033274,0.175],
    [15207,"urn:WaterMeter:MC0203J22010600005","2024-03-19T06:45:00",15,28.050768,0.168],
    [15208,"urn:WaterMeter:MC0203J22010600005","2024-03-19T07:00:00",15,28.005344,0.171],
    [15209,"urn:WaterMeter:MC0203J22010600005","2024-03-19T07:15:00",15,28.013103,0.174],
    [15210,"urn:WaterMeter:MC0203J22010600005","2024-03-19T07:30:00",15,28.01543,0.17],
    [15211,"urn:WaterMeter:MC0203J22010600005","2024-03-19T07:45:00",15.1,28.006935,0.168],
    [15212,"urn:WaterMeter:MC0203J22010600005","2024-03-19T08:00:00",15.199,28.026718,0.169],
    [15213,"urn:WaterMeter:MC0203J22010600005","2024-03-19T08:15:00",15.399,28.03211,0.169],
    [15214,"urn:WaterMeter:MC0203J22010600005","2024-03-19T08:30:00",15.6,27.98948,0.17],
    [15215,"urn:WaterMeter:MC0203J22010600005","2024-03-19T08:45:00",15.899,27.940216,0.163],
    [15216,"urn:WaterMeter:MC0203J22010600005","2024-03-19T09:00:00",16.1,27.946772,0.165],
    [15217,"urn:WaterMeter:MC0203J22010600005","2024-03-19T09:15:00",16.399,27.926252,0.161],
    [15218,"urn:WaterMeter:MC0203J22010600005","2024-03-19T09:30:00",16.7,27.883583,0.161],
    [15219,"urn:WaterMeter:MC0203J22010600005","2024-03-19T09:45:00",17,27.86958,0.165],
    [15220,"urn:WaterMeter:MC0203J22010600005","2024-03-19T10:00:00",17.299,27.805614,0.162],
    [15221,"urn:WaterMeter:MC0203J22010600005","2024-03-19T10:15:00",17.6,27.807943,0.157],
    [15222,"urn:WaterMeter:MC0203J22010600005","2024-03-19T10:30:00",17.899,27.761356,0.168],
    [15223,"urn:WaterMeter:MC0203J22010600005","2024-03-19T10:45:00",18.1,27.696615,0.161],
    [15224,"urn:WaterMeter:MC0203J22010600005","2024-03-19T11:00:00",18.299,27.657011,0.166],
    [15225,"urn:WaterMeter:MC0203J22010600005","2024-03-19T11:15:00",18.5,27.654335,0.157],
    [15226,"urn:WaterMeter:MC0203J22010600005","2024-03-19T11:30:00",18.899,27.610113,0.159],
    [15227,"urn:WaterMeter:MC0203J22010600005","2024-03-19T11:45:00",19.2,27.604683,0.165],
    [15228,"urn:WaterMeter:MC0203J22010600005","2024-03-19T12:00:00",19.6,27.546497,0.156],
    [15229,"urn:WaterMeter:MC0203J22010600005","2024-03-19T12:15:00",19.799,27.508446,0.162],
    [15230,"urn:WaterMeter:MC0203J22010600005","2024-03-19T12:30:00",20.1,27.470043,0.156],
    [15231,"urn:WaterMeter:MC0203J22010600005","2024-03-19T12:45:00",20.299,27.401424,0.155],
    [15232,"urn:WaterMeter:MC0203J22010600005","2024-03-19T13:00:00",20.5,27.396381,0.166],
    [15233,"urn:WaterMeter:MC0203J22010600005","2024-03-19T13:15:00",20.6,27.343626,0.162],
    [15234,"urn:WaterMeter:MC0203J22010600005","2024-03-19T13:30:00",20.7,27.3188,0.159],
    [15235,"urn:WaterMeter:MC0203J22010600005","2024-03-19T13:45:00",20.7,27.309103,0.161],
    [15236,"urn:WaterMeter:MC0203J22010600005","2024-03-19T14:00:00",20.799,27.251694,0.161],
    [15237,"urn:WaterMeter:MC0203J22010600005","2024-03-19T14:15:00",20.899,27.214067,0.156],
    [15238,"urn:WaterMeter:MC0203J22010600005","2024-03-19T14:30:00",21,27.177217,0.158],
    [15239,"urn:WaterMeter:MC0203J22010600005","2024-03-19T14:45:00",21.2,27.144634,0.158],
    [15240,"urn:WaterMeter:MC0203J22010600005","2024-03-19T15:00:00",21.399,27.128729,0.161],
    [15241,"urn:WaterMeter:MC0203J22010600005","2024-03-19T15:15:00",21.5,27.10309,0.159],
    [15242,"urn:WaterMeter:MC0203J22010600005","2024-03-19T15:30:00",21.6,27.082918,0.171],
    [15243,"urn:WaterMeter:MC0203J22010600005","2024-03-19T15:45:00",21.6,27.041065,0.16],
    [15244,"urn:WaterMeter:MC0203J22010600005","2024-03-19T16:00:00",21.6,27.02167,0.154],
    [15245,"urn:WaterMeter:MC0203J22010600005","2024-03-19T16:15:00",21.6,27.002274,0.168],
    [15246,"urn:WaterMeter:MC0203J22010600005","2024-03-19T16:30:00",21.5,26.948317,0.163],
    [15247,"urn:WaterMeter:MC0203J22010600005","2024-03-19T16:45:00",21.299,26.937843,0.169],
    [15248,"urn:WaterMeter:MC0203J22010600005","2024-03-19T17:00:00",21.2,26.945602,0.161],
    [15249,"urn:WaterMeter:MC0203J22010600005","2024-03-19T17:15:00",21,26.909916,0.156],
    [15250,"urn:WaterMeter:MC0203J22010600005","2024-03-19T17:30:00",20.899,26.900606,0.175],
    [15251,"urn:WaterMeter:MC0203J22010600005","2024-03-19T17:45:00",20.7,26.935944,0.15],
    [15252,"urn:WaterMeter:MC0203J22010600005","2024-03-19T18:00:00",20.6,26.948706,0.163],
    [15253,"urn:WaterMeter:MC0203J22010600005","2024-03-19T18:15:00",20.399,26.939009,0.162],
    [15254,"urn:WaterMeter:MC0203J22010600005","2024-03-19T18:30:00",20.299,26.910303,0.163],
    [15255,"urn:WaterMeter:MC0203J22010600005","2024-03-19T18:45:00",20.2,26.907976,0.167],
    [15256,"urn:WaterMeter:MC0203J22010600005","2024-03-19T19:00:00",20.1,26.898705,0.164],
    [15257,"urn:WaterMeter:MC0203J22010600005","2024-03-19T19:15:00",20,26.901033,0.161],
    [15258,"urn:WaterMeter:MC0203J22010600005","2024-03-19T19:30:00",19.799,26.875044,0.166],
    [15259,"urn:WaterMeter:MC0203J22010600005","2024-03-19T19:45:00",19.7,26.88121,0.17],
    [15260,"urn:WaterMeter:MC0203J22010600005","2024-03-19T20:00:00",19.6,26.923143,0.155],
    [15261,"urn:WaterMeter:MC0203J22010600005","2024-03-19T20:15:00",19.5,26.92931,0.158],
    [15262,"urn:WaterMeter:MC0203J22010600005","2024-03-19T20:30:00",19.299,26.893274,0.159],
    [15263,"urn:WaterMeter:MC0203J22010600005","2024-03-19T20:45:00",19.2,26.852545,0.158],
    [15264,"urn:WaterMeter:MC0203J22010600005","2024-03-19T21:00:00",19,26.867285,0.17],
    [15265,"urn:WaterMeter:MC0203J22010600005","2024-03-19T21:15:00",18.899,26.882414,0.159],
    [15266,"urn:WaterMeter:MC0203J22010600005","2024-03-19T21:30:00",18.7,26.872328,0.17],
    [15267,"urn:WaterMeter:MC0203J22010600005","2024-03-19T21:45:00",18.6,26.906464,0.157],
    [15268,"urn:WaterMeter:MC0203J22010600005","2024-03-19T22:00:00",18.399,26.889357,0.158],
    [15269,"urn:WaterMeter:MC0203J22010600005","2024-03-19T22:15:00",18.399,26.912281,0.158],
    [15270,"urn:WaterMeter:MC0203J22010600005","2024-03-19T22:30:00",18.299,26.893661,0.161],
    [15271,"urn:WaterMeter:MC0203J22010600005","2024-03-19T22:45:00",18.2,26.901808,0.159],
    [15272,"urn:WaterMeter:MC0203J22010600005","2024-03-19T23:00:00",18.1,26.885517,0.165],
    [15273,"urn:WaterMeter:MC0203J22010600005","2024-03-19T23:15:00",18.1,26.89091,0.166],
    [15274,"urn:WaterMeter:MC0203J22010600005","2024-03-19T23:30:00",18.1,26.902971,0.17],
    [15275,"urn:WaterMeter:MC0203J22010600005","2024-03-19T23:45:00",18,26.87931,0.159],
    [15276,"urn:WaterMeter:MC0203J22010600005","2024-03-20T00:00:00",17.899,26.860264,0.156],
    [15277,"urn:WaterMeter:MC0203J22010600005","2024-03-20T00:15:00",17.899,26.820738,0.171],
    [15278,"urn:WaterMeter:MC0203J22010600005","2024-03-20T00:30:00",17.799,26.871513,0.161],
    [15279,"urn:WaterMeter:MC0203J22010600005","2024-03-20T00:45:00",17.7,26.900606,0.16],
    [15280,"urn:WaterMeter:MC0203J22010600005","2024-03-20T01:00:00",17.6,26.902584,0.18],
    [15281,"urn:WaterMeter:MC0203J22010600005","2024-03-20T01:15:00",17.5,26.923918,0.162],
    [15282,"urn:WaterMeter:MC0203J22010600005","2024-03-20T01:30:00",17.299,26.885517,0.164],
    [15283,"urn:WaterMeter:MC0203J22010600005","2024-03-20T01:45:00",17.2,26.862242,0.162],
    [15284,"urn:WaterMeter:MC0203J22010600005","2024-03-20T02:00:00",17.1,26.87737,0.156],
    [15285,"urn:WaterMeter:MC0203J22010600005","2024-03-20T02:15:00",17,26.870737,0.162],
    [15286,"urn:WaterMeter:MC0203J22010600005","2024-03-20T02:30:00",16.899,26.855648,0.161],
    [15287,"urn:WaterMeter:MC0203J22010600005","2024-03-20T02:45:00",16.7,26.890133,0.166],
    [15288,"urn:WaterMeter:MC0203J22010600005","2024-03-20T03:00:00",16.6,26.891335,0.157],
    [15289,"urn:WaterMeter:MC0203J22010600005","2024-03-20T03:15:00",16.5,26.887417,0.163],
    [15290,"urn:WaterMeter:MC0203J22010600005","2024-03-20T03:30:00",16.399,26.906813,0.16],
    [15291,"urn:WaterMeter:MC0203J22010600005","2024-03-20T03:45:00",16.299,26.88858,0.171],
    [15292,"urn:WaterMeter:MC0203J22010600005","2024-03-20T04:00:00",16.2,26.925083,0.159],
    [15293,"urn:WaterMeter:MC0203J22010600005","2024-03-20T04:30:00",16,26.871126,0.161],
    [15294,"urn:WaterMeter:MC0203J22010600005","2024-03-20T04:45:00",16,26.904524,0.163],
    [15295,"urn:WaterMeter:MC0203J22010600005","2024-03-20T05:00:00",16,26.878147,0.165],
    [15296,"urn:WaterMeter:MC0203J22010600005","2024-03-20T05:15:00",16,26.94215,0.161],
    [15297,"urn:WaterMeter:MC0203J22010600005","2024-03-20T05:30:00",16,26.89793,0.162],
    [15298,"urn:WaterMeter:MC0203J22010600005","2024-03-20T05:45:00",16,26.921204,0.172],
    [15299,"urn:WaterMeter:MC0203J22010600005","2024-03-20T06:00:00",16,26.867285,0.167],
    [15300,"urn:WaterMeter:MC0203J22010600005","2024-03-20T06:15:00",16,26.854097,0.167],
    [15301,"urn:WaterMeter:MC0203J22010600005","2024-03-20T06:30:00",16,26.89211,0.168],
    [15302,"urn:WaterMeter:MC0203J22010600005","2024-03-20T06:45:00",16,26.890133,0.155],
    [15303,"urn:WaterMeter:MC0203J22010600005","2024-03-20T07:00:00",16,26.83315,0.167],
    [15304,"urn:WaterMeter:MC0203J22010600005","2024-03-20T07:15:00",16.1,26.852118,0.157],
    [15305,"urn:WaterMeter:MC0203J22010600005","2024-03-20T07:30:00",16.1,26.835089,0.156],
    [15306,"urn:WaterMeter:MC0203J22010600005","2024-03-20T07:45:00",16.2,26.87737,0.156],
    [15307,"urn:WaterMeter:MC0203J22010600005","2024-03-20T08:00:00",16.299,26.95146,0.162],
    [15308,"urn:WaterMeter:MC0203J22010600005","2024-03-20T08:15:00",16.399,27.454565,0.167],
    [15309,"urn:WaterMeter:MC0203J22010600005","2024-03-20T08:30:00",16.5,28.182653,0.173],
    [15310,"urn:WaterMeter:MC0203J22010600005","2024-03-20T08:45:00",16.6,28.769508,0.183],
    [15311,"urn:WaterMeter:MC0203J22010600005","2024-03-20T09:00:00",16.799,29.303684,0.192],
    [15312,"urn:WaterMeter:MC0203J22010600005","2024-03-20T09:15:00",17,29.596123,0.186],
    [15313,"urn:WaterMeter:MC0203J22010600005","2024-03-20T09:30:00",17.2,29.729212,0.189],
    [15314,"urn:WaterMeter:MC0203J22010600005","2024-03-20T09:45:00",17.5,29.766449,0.188],
    [15315,"urn:WaterMeter:MC0203J22010600005","2024-03-20T10:00:00",17.7,29.809467,0.185],
    [15316,"urn:WaterMeter:MC0203J22010600005","2024-03-20T10:15:00",17.799,29.820755,0.19],
    [15317,"urn:WaterMeter:MC0203J22010600005","2024-03-20T10:30:00",18,29.794378,0.187],
    [15318,"urn:WaterMeter:MC0203J22010600005","2024-03-20T10:45:00",18.2,29.788172,0.187],
    [15319,"urn:WaterMeter:MC0203J22010600005","2024-03-20T11:00:00",18.399,29.745892,0.187],
    [15320,"urn:WaterMeter:MC0203J22010600005","2024-03-20T11:15:00",18.7,29.755589,0.188],
    [15321,"urn:WaterMeter:MC0203J22010600005","2024-03-20T11:30:00",18.899,29.712881,0.184],
    [15322,"urn:WaterMeter:MC0203J22010600005","2024-03-20T11:45:00",19.1,29.6943,0.198],
    [15323,"urn:WaterMeter:MC0203J22010600005","2024-03-20T12:00:00",19.299,29.708652,0.193],
    [15324,"urn:WaterMeter:MC0203J22010600005","2024-03-20T12:15:00",19.5,29.659002,0.194],
    [15325,"urn:WaterMeter:MC0203J22010600005","2024-03-20T12:30:00",19.7,29.605045,0.179],
    [15326,"urn:WaterMeter:MC0203J22010600005","2024-03-20T12:45:00",19.899,29.56319,0.191],
    [15327,"urn:WaterMeter:MC0203J22010600005","2024-03-20T13:00:00",20,29.579094,0.185],
    [15328,"urn:WaterMeter:MC0203J22010600005","2024-03-20T13:15:00",20,29.498373,0.181],
    [15329,"urn:WaterMeter:MC0203J22010600005","2024-03-20T13:30:00",20.1,29.5244,0.205],
    [15330,"urn:WaterMeter:MC0203J22010600005","2024-03-20T13:45:00",20.1,29.503841,0.198],
    [15331,"urn:WaterMeter:MC0203J22010600005","2024-03-20T14:00:00",20.2,29.431654,0.182],
    [15332,"urn:WaterMeter:MC0203J22010600005","2024-03-20T14:15:00",20.2,29.429714,0.182],
    [15333,"urn:WaterMeter:MC0203J22010600005","2024-03-20T14:30:00",20.299,29.383165,0.182],
    [15334,"urn:WaterMeter:MC0203J22010600005","2024-03-20T14:45:00",20.399,29.397556,0.19],
    [15335,"urn:WaterMeter:MC0203J22010600005","2024-03-20T15:00:00",20.299,29.402988,0.183],
    [15336,"urn:WaterMeter:MC0203J22010600005","2024-03-20T15:15:00",20.2,29.336657,0.191],
    [15337,"urn:WaterMeter:MC0203J22010600005","2024-03-20T15:30:00",20.1,29.32343,0.194],
    [15338,"urn:WaterMeter:MC0203J22010600005","2024-03-20T15:45:00",20,29.344803,0.192],
    [15339,"urn:WaterMeter:MC0203J22010600005","2024-03-20T16:00:00",19.899,29.320753,0.186],
    [15340,"urn:WaterMeter:MC0203J22010600005","2024-03-20T16:15:00",19.799,29.30291,0.185],
    [15341,"urn:WaterMeter:MC0203J22010600005","2024-03-20T16:30:00",19.7,29.32153,0.194],
    [15342,"urn:WaterMeter:MC0203J22010600005","2024-03-20T16:45:00",19.6,29.322693,0.193],
    [15343,"urn:WaterMeter:MC0203J22010600005","2024-03-20T17:00:00",19.5,29.272654,0.19],
    [15344,"urn:WaterMeter:MC0203J22010600005","2024-03-20T17:15:00",19.399,29.267998,0.185],
    [15345,"urn:WaterMeter:MC0203J22010600005","2024-03-20T17:30:00",19.299,29.321917,0.195],
    [15346,"urn:WaterMeter:MC0203J22010600005","2024-03-20T17:45:00",19.2,29.268774,0.187],
    [15347,"urn:WaterMeter:MC0203J22010600005","2024-03-20T18:00:00",19.2,29.255934,0.182],
    [15348,"urn:WaterMeter:MC0203J22010600005","2024-03-20T18:15:00",19.1,29.272654,0.183],
    [15349,"urn:WaterMeter:MC0203J22010600005","2024-03-20T18:30:00",19,29.287394,0.191],
    [15350,"urn:WaterMeter:MC0203J22010600005","2024-03-20T18:45:00",18.899,29.273003,0.184],
    [15351,"urn:WaterMeter:MC0203J22010600005","2024-03-20T19:00:00",18.7,29.27692,0.203],
    [15352,"urn:WaterMeter:MC0203J22010600005","2024-03-20T19:15:00",18.6,29.237316,0.191],
    [15353,"urn:WaterMeter:MC0203J22010600005","2024-03-20T19:30:00",18.5,29.27886,0.197],
    [15354,"urn:WaterMeter:MC0203J22010600005","2024-03-20T19:45:00",18.399,29.223778,0.182],
    [15355,"urn:WaterMeter:MC0203J22010600005","2024-03-20T20:00:00",18.299,29.257524,0.188],
    [15356,"urn:WaterMeter:MC0203J22010600005","2024-03-20T20:15:00",18.2,29.241234,0.183],
    [15357,"urn:WaterMeter:MC0203J22010600005","2024-03-20T20:30:00",18.1,29.23654,0.194],
    [15358,"urn:WaterMeter:MC0203J22010600005","2024-03-20T20:45:00",18,29.205547,0.185],
    [15359,"urn:WaterMeter:MC0203J22010600005","2024-03-20T21:00:00",17.899,29.212917,0.188],
    [15360,"urn:WaterMeter:MC0203J22010600005","2024-03-20T21:15:00",17.799,29.193909,0.181],
    [15361,"urn:WaterMeter:MC0203J22010600005","2024-03-20T21:30:00",17.7,29.190805,0.179],
    [15362,"urn:WaterMeter:MC0203J22010600005","2024-03-20T21:45:00",17.7,29.181885,0.187],
    [15363,"urn:WaterMeter:MC0203J22010600005","2024-03-20T22:00:00",17.6,29.188828,0.187],
    [15364,"urn:WaterMeter:MC0203J22010600005","2024-03-20T22:15:00",17.5,29.205935,0.182],
    [15365,"urn:WaterMeter:MC0203J22010600005","2024-03-20T22:30:00",17.5,29.171412,0.196],
    [15366,"urn:WaterMeter:MC0203J22010600005","2024-03-20T22:45:00",17.399,29.164818,0.169],
    [15367,"urn:WaterMeter:MC0203J22010600005","2024-03-20T23:00:00",17.299,29.176027,0.18],
    [15368,"urn:WaterMeter:MC0203J22010600005","2024-03-20T23:15:00",17.2,29.201668,0.185],
    [15369,"urn:WaterMeter:MC0203J22010600005","2024-03-20T23:30:00",17.1,29.158571,0.187],
    [15370,"urn:WaterMeter:MC0203J22010600005","2024-03-20T23:45:00",17,29.205547,0.187],
    [15371,"urn:WaterMeter:MC0203J22010600005","2024-03-21T00:00:00",17,29.177578,0.182],
    [15372,"urn:WaterMeter:MC0203J22010600005","2024-03-21T00:15:00",17,29.152405,0.183],
    [15373,"urn:WaterMeter:MC0203J22010600005","2024-03-21T00:30:00",16.899,29.141155,0.17],
    [15374,"urn:WaterMeter:MC0203J22010600005","2024-03-21T00:45:00",16.899,29.158184,0.183],
    [15375,"urn:WaterMeter:MC0203J22010600005","2024-03-21T01:00:00",16.799,29.121334,0.182],
    [15376,"urn:WaterMeter:MC0203J22010600005","2024-03-21T01:15:00",16.7,29.138788,0.191],
    [15377,"urn:WaterMeter:MC0203J22010600005","2024-03-21T01:30:00",16.7,29.157797,0.186],
    [15378,"urn:WaterMeter:MC0203J22010600005","2024-03-21T01:45:00",16.6,29.132233,0.186],
    [15379,"urn:WaterMeter:MC0203J22010600005","2024-03-21T02:00:00",16.6,29.164042,0.183],
    [15380,"urn:WaterMeter:MC0203J22010600005","2024-03-21T02:15:00",16.5,29.104692,0.183],
    [15381,"urn:WaterMeter:MC0203J22010600005","2024-03-21T02:30:00",16.5,29.150852,0.183],
    [15382,"urn:WaterMeter:MC0203J22010600005","2024-03-21T02:45:00",16.5,29.153955,0.188],
    [15383,"urn:WaterMeter:MC0203J22010600005","2024-03-21T03:00:00",16.399,29.093832,0.179],
    [15384,"urn:WaterMeter:MC0203J22010600005","2024-03-21T03:15:00",16.399,29.082155,0.181],
    [15385,"urn:WaterMeter:MC0203J22010600005","2024-03-21T03:30:00",16.299,29.084522,0.184],
    [15386,"urn:WaterMeter:MC0203J22010600005","2024-03-21T03:45:00",16.299,29.129868,0.182],
    [15387,"urn:WaterMeter:MC0203J22010600005","2024-03-21T04:00:00",16.2,29.103916,0.186],
    [15388,"urn:WaterMeter:MC0203J22010600005","2024-03-21T04:15:00",16.2,29.100388,0.186],
    [15389,"urn:WaterMeter:MC0203J22010600005","2024-03-21T04:30:00",16.2,29.05892,0.18],
    [15390,"urn:WaterMeter:MC0203J22010600005","2024-03-21T04:45:00",16.1,29.077927,0.19],
    [15391,"urn:WaterMeter:MC0203J22010600005","2024-03-21T05:00:00",16.1,29.071682,0.185],
    [15392,"urn:WaterMeter:MC0203J22010600005","2024-03-21T05:15:00",16,29.03681,0.175],
    [15393,"urn:WaterMeter:MC0203J22010600005","2024-03-21T05:30:00",16,29.06629,0.183],
    [15394,"urn:WaterMeter:MC0203J22010600005","2024-03-21T05:45:00",16,29.05504,0.185],
    [15395,"urn:WaterMeter:MC0203J22010600005","2024-03-21T06:00:00",16,29.022419,0.186],
    [15396,"urn:WaterMeter:MC0203J22010600005","2024-03-21T06:15:00",15.899,29.015087,0.191],
    [15397,"urn:WaterMeter:MC0203J22010600005","2024-03-21T06:30:00",15.899,29.056206,0.181],
    [15398,"urn:WaterMeter:MC0203J22010600005","2024-03-21T06:45:00",15.899,28.98518,0.187],
    [15399,"urn:WaterMeter:MC0203J22010600005","2024-03-21T07:00:00",15.899,28.995693,0.179],
    [15400,"urn:WaterMeter:MC0203J22010600005","2024-03-21T07:15:00",15.899,29.00927,0.176],
    [15401,"urn:WaterMeter:MC0203J22010600005","2024-03-21T07:30:00",16,28.993364,0.182],
    [15402,"urn:WaterMeter:MC0203J22010600005","2024-03-21T07:45:00",16.1,28.991814,0.18],
    [15403,"urn:WaterMeter:MC0203J22010600005","2024-03-21T08:00:00",16.2,28.969315,0.179],
    [15404,"urn:WaterMeter:MC0203J22010600005","2024-03-21T08:15:00",16.399,28.978237,0.18],
    [15405,"urn:WaterMeter:MC0203J22010600005","2024-03-21T08:30:00",16.5,28.944063,0.176],
    [15406,"urn:WaterMeter:MC0203J22010600005","2024-03-21T08:45:00",16.6,28.9076,0.18],
    [15407,"urn:WaterMeter:MC0203J22010600005","2024-03-21T09:00:00",16.7,28.878897,0.181],
    [15408,"urn:WaterMeter:MC0203J22010600005","2024-03-21T09:15:00",16.7,28.873505,0.19],
    [15409,"urn:WaterMeter:MC0203J22010600005","2024-03-21T09:30:00",16.899,28.864195,0.184],
    [15410,"urn:WaterMeter:MC0203J22010600005","2024-03-21T09:45:00",17.1,28.853722,0.183],
    [15411,"urn:WaterMeter:MC0203J22010600005","2024-03-21T10:00:00",17.399,28.808298,0.176],
    [15412,"urn:WaterMeter:MC0203J22010600005","2024-03-21T10:15:00",17.7,28.79864,0.18],
    [15413,"urn:WaterMeter:MC0203J22010600005","2024-03-21T10:30:00",17.899,28.724163,0.173],
    [15414,"urn:WaterMeter:MC0203J22010600005","2024-03-21T10:45:00",18.1,28.725714,0.18],
    [15415,"urn:WaterMeter:MC0203J22010600005","2024-03-21T11:00:00",18.299,28.69701,0.184],
    [15416,"urn:WaterMeter:MC0203J22010600005","2024-03-21T11:15:00",18.5,28.65085,0.176],
    [15417,"urn:WaterMeter:MC0203J22010600005","2024-03-21T11:30:00",18.7,28.621368,0.176],
    [15418,"urn:WaterMeter:MC0203J22010600005","2024-03-21T11:45:00",18.799,28.560856,0.18],
    [15419,"urn:WaterMeter:MC0203J22010600005","2024-03-21T12:00:00",19,28.566288,0.176],
    [15420,"urn:WaterMeter:MC0203J22010600005","2024-03-21T12:15:00",19.1,28.528622,0.178],
    [15421,"urn:WaterMeter:MC0203J22010600005","2024-03-21T12:30:00",19.2,28.477808,0.175],
    [15422,"urn:WaterMeter:MC0203J22010600005","2024-03-21T12:45:00",19.2,28.470825,0.171],
    [15423,"urn:WaterMeter:MC0203J22010600005","2024-03-21T13:00:00",19.299,28.45302,0.176],
    [15424,"urn:WaterMeter:MC0203J22010600005","2024-03-21T13:15:00",19.399,28.397938,0.173],
    [15425,"urn:WaterMeter:MC0203J22010600005","2024-03-21T13:30:00",19.5,28.391344,0.182],
    [15426,"urn:WaterMeter:MC0203J22010600005","2024-03-21T13:45:00",19.6,28.387465,0.186],
    [15427,"urn:WaterMeter:MC0203J22010600005","2024-03-21T14:00:00",19.7,28.357985,0.17],
    [15428,"urn:WaterMeter:MC0203J22010600005","2024-03-21T14:15:00",19.7,28.274975,0.18],
    [15429,"urn:WaterMeter:MC0203J22010600005","2024-03-21T14:30:00",19.799,28.25364,0.176],
    [15430,"urn:WaterMeter:MC0203J22010600005","2024-03-21T14:45:00",19.799,28.263725,0.175],
    [15431,"urn:WaterMeter:MC0203J22010600005","2024-03-21T15:00:00",19.799,28.242392,0.169],
    [15432,"urn:WaterMeter:MC0203J22010600005","2024-03-21T15:15:00",19.799,28.242779,0.181],
    [15433,"urn:WaterMeter:MC0203J22010600005","2024-03-21T15:30:00",19.7,28.207829,0.171],
    [15434,"urn:WaterMeter:MC0203J22010600005","2024-03-21T15:45:00",19.6,28.207441,0.189],
    [15435,"urn:WaterMeter:MC0203J22010600005","2024-03-21T16:00:00",19.6,28.1799,0.179],
    [15436,"urn:WaterMeter:MC0203J22010600005","2024-03-21T16:15:00",19.5,28.176447,0.175],
    [15437,"urn:WaterMeter:MC0203J22010600005","2024-03-21T16:30:00",19.399,28.174896,0.179],
    [15438,"urn:WaterMeter:MC0203J22010600005","2024-03-21T16:45:00",19.299,28.199295,0.174],
    [15439,"urn:WaterMeter:MC0203J22010600005","2024-03-21T17:00:00",19.2,28.129086,0.179],
    [15440,"urn:WaterMeter:MC0203J22010600005","2024-03-21T17:15:00",19.1,28.14848,0.173],
    [15441,"urn:WaterMeter:MC0203J22010600005","2024-03-21T17:30:00",19,28.109303,0.178],
    [15442,"urn:WaterMeter:MC0203J22010600005","2024-03-21T17:45:00",18.899,28.108177,0.176],
    [15443,"urn:WaterMeter:MC0203J22010600005","2024-03-21T18:00:00",18.799,28.103523,0.178],
    [15444,"urn:WaterMeter:MC0203J22010600005","2024-03-21T18:15:00",18.7,28.126797,0.174],
    [15445,"urn:WaterMeter:MC0203J22010600005","2024-03-21T18:30:00",18.6,28.141499,0.173],
    [15446,"urn:WaterMeter:MC0203J22010600005","2024-03-21T18:45:00",18.399,28.088007,0.185],
    [15447,"urn:WaterMeter:MC0203J22010600005","2024-03-21T19:00:00",18.299,28.149643,0.181],
    [15448,"urn:WaterMeter:MC0203J22010600005","2024-03-21T19:15:00",18.2,28.103523,0.175],
    [15449,"urn:WaterMeter:MC0203J22010600005","2024-03-21T19:30:00",18.1,28.137657,0.18],
    [15450,"urn:WaterMeter:MC0203J22010600005","2024-03-21T19:45:00",17.899,28.119427,0.176],
    [15451,"urn:WaterMeter:MC0203J22010600005","2024-03-21T20:00:00",17.799,28.112406,0.184],
    [15452,"urn:WaterMeter:MC0203J22010600005","2024-03-21T20:15:00",17.6,28.105461,0.176],
    [15453,"urn:WaterMeter:MC0203J22010600005","2024-03-21T20:30:00",17.5,28.075205,0.175],
    [15454,"urn:WaterMeter:MC0203J22010600005","2024-03-21T20:45:00",17.399,28.097704,0.175],
    [15455,"urn:WaterMeter:MC0203J22010600005","2024-03-21T21:00:00",17.299,28.112406,0.184],
    [15456,"urn:WaterMeter:MC0203J22010600005","2024-03-21T21:15:00",17.2,28.108953,0.181],
    [15457,"urn:WaterMeter:MC0203J22010600005","2024-03-21T21:30:00",17.1,28.10232,0.171],
    [15458,"urn:WaterMeter:MC0203J22010600005","2024-03-21T21:45:00",17,28.13339,0.173],
    [15459,"urn:WaterMeter:MC0203J22010600005","2024-03-21T22:00:00",16.899,28.114384,0.175],
    [15460,"urn:WaterMeter:MC0203J22010600005","2024-03-21T22:15:00",16.899,28.112793,0.168],
    [15461,"urn:WaterMeter:MC0203J22010600005","2024-03-21T22:30:00",16.799,28.110466,0.187],
    [15462,"urn:WaterMeter:MC0203J22010600005","2024-03-21T22:45:00",16.7,28.09146,0.178],
    [15463,"urn:WaterMeter:MC0203J22010600005","2024-03-21T23:00:00",16.7,28.112406,0.181],
    [15464,"urn:WaterMeter:MC0203J22010600005","2024-03-21T23:15:00",16.6,28.095377,0.181],
    [15465,"urn:WaterMeter:MC0203J22010600005","2024-03-21T23:30:00",16.5,28.12408,0.172],
    [15466,"urn:WaterMeter:MC0203J22010600005","2024-03-21T23:45:00",16.399,28.127573,0.173],
    [15467,"urn:WaterMeter:MC0203J22010600005","2024-03-22T00:00:00",16.299,28.143864,0.18],
    [15468,"urn:WaterMeter:MC0203J22010600005","2024-03-22T00:15:00",16.2,28.08723,0.17],
    [15469,"urn:WaterMeter:MC0203J22010600005","2024-03-22T00:30:00",16.2,28.12602,0.174],
    [15470,"urn:WaterMeter:MC0203J22010600005","2024-03-22T00:45:00",16.1,28.089907,0.173],
    [15471,"urn:WaterMeter:MC0203J22010600005","2024-03-22T01:00:00",16.1,28.150808,0.185],
    [15472,"urn:WaterMeter:MC0203J22010600005","2024-03-22T01:15:00",16,28.101194,0.173],
    [15473,"urn:WaterMeter:MC0203J22010600005","2024-03-22T01:30:00",15.899,28.135717,0.18],
    [15474,"urn:WaterMeter:MC0203J22010600005","2024-03-22T01:45:00",15.8,28.108953,0.175],
    [15475,"urn:WaterMeter:MC0203J22010600005","2024-03-22T02:00:00",15.8,28.084127,0.173],
    [15476,"urn:WaterMeter:MC0203J22010600005","2024-03-22T02:15:00",15.8,28.12249,0.177],
    [15477,"urn:WaterMeter:MC0203J22010600005","2024-03-22T02:30:00",15.699,28.08917,0.175],
    [15478,"urn:WaterMeter:MC0203J22010600005","2024-03-22T02:45:00",15.699,28.14111,0.172],
    [15479,"urn:WaterMeter:MC0203J22010600005","2024-03-22T03:00:00",15.6,28.08917,0.174],
    [15480,"urn:WaterMeter:MC0203J22010600005","2024-03-22T03:15:00",15.5,28.11163,0.176],
    [15481,"urn:WaterMeter:MC0203J22010600005","2024-03-22T03:30:00",15.399,28.078697,0.171],
    [15482,"urn:WaterMeter:MC0203J22010600005","2024-03-22T03:45:00",15.3,28.111242,0.166],
    [15483,"urn:WaterMeter:MC0203J22010600005","2024-03-22T04:00:00",15.3,28.10585,0.177],
    [15484,"urn:WaterMeter:MC0203J22010600005","2024-03-22T04:15:00",15.199,28.058527,0.18],
    [15485,"urn:WaterMeter:MC0203J22010600005","2024-03-22T04:30:00",15.199,28.05969,0.17],
    [15486,"urn:WaterMeter:MC0203J22010600005","2024-03-22T04:45:00",15.1,28.09848,0.175],
    [15487,"urn:WaterMeter:MC0203J22010600005","2024-03-22T05:00:00",15,28.05969,0.167],
    [15488,"urn:WaterMeter:MC0203J22010600005","2024-03-22T05:15:00",15,28.088007,0.164],
    [15489,"urn:WaterMeter:MC0203J22010600005","2024-03-22T05:30:00",14.899,28.078308,0.171],
    [15490,"urn:WaterMeter:MC0203J22010600005","2024-03-22T05:45:00",14.899,28.048054,0.169],
    [15491,"urn:WaterMeter:MC0203J22010600005","2024-03-22T06:00:00",14.899,28.064732,0.173],
    [15492,"urn:WaterMeter:MC0203J22010600005","2024-03-22T06:15:00",14.8,28.040682,0.169],
    [15493,"urn:WaterMeter:MC0203J22010600005","2024-03-22T06:30:00",14.8,28.051506,0.179],
    [15494,"urn:WaterMeter:MC0203J22010600005","2024-03-22T06:45:00",14.899,28.042234,0.168],
    [15495,"urn:WaterMeter:MC0203J22010600005","2024-03-22T07:00:00",14.899,28.020124,0.171],
    [15496,"urn:WaterMeter:MC0203J22010600005","2024-03-22T07:15:00",14.899,27.990644,0.185],
    [15497,"urn:WaterMeter:MC0203J22010600005","2024-03-22T07:30:00",15.1,27.988316,0.17],
    [15498,"urn:WaterMeter:MC0203J22010600005","2024-03-22T07:45:00",15.199,28.018185,0.169],
    [15499,"urn:WaterMeter:MC0203J22010600005","2024-03-22T08:00:00",15.3,28.325363,0.174],
    [15500,"urn:WaterMeter:MC0203J22010600005","2024-03-22T08:15:00",15.5,29.053877,0.185],
    [15501,"urn:WaterMeter:MC0203J22010600005","2024-03-22T08:30:00",15.699,29.679173,0.194],
    [15502,"urn:WaterMeter:MC0203J22010600005","2024-03-22T08:45:00",15.899,30.084528,0.2],
    [15503,"urn:WaterMeter:MC0203J22010600005","2024-03-22T09:00:00",16.1,30.383598,0.203],
    [15504,"urn:WaterMeter:MC0203J22010600005","2024-03-22T09:15:00",16.2,30.496826,0.21],
    [15505,"urn:WaterMeter:MC0203J22010600005","2024-03-22T09:30:00",16.5,30.510054,0.201],
    [15506,"urn:WaterMeter:MC0203J22010600005","2024-03-22T09:45:00",16.799,30.4208,0.205],
    [15507,"urn:WaterMeter:MC0203J22010600005","2024-03-22T10:00:00",17.1,30.412304,0.203],
    [15508,"urn:WaterMeter:MC0203J22010600005","2024-03-22T10:15:00",17.299,30.372738,0.195],
    [15509,"urn:WaterMeter:MC0203J22010600005","2024-03-22T10:30:00",17.6,30.346361,0.195],
    [15510,"urn:WaterMeter:MC0203J22010600005","2024-03-22T10:45:00",18,30.356058,0.192],
    [15511,"urn:WaterMeter:MC0203J22010600005","2024-03-22T11:00:00",18.2,30.275763,0.196],
    [15512,"urn:WaterMeter:MC0203J22010600005","2024-03-22T11:15:00",18.6,30.191977,0.187],
    [15513,"urn:WaterMeter:MC0203J22010600005","2024-03-22T11:30:00",18.799,30.14888,0.19],
    [15514,"urn:WaterMeter:MC0203J22010600005","2024-03-22T11:45:00",19.1,30.140385,0.189],
    [15515,"urn:WaterMeter:MC0203J22010600005","2024-03-22T12:00:00",19.399,30.068584,0.189],
    [15516,"urn:WaterMeter:MC0203J22010600005","2024-03-22T12:15:00",19.6,30.009663,0.19],
    [15517,"urn:WaterMeter:MC0203J22010600005","2024-03-22T12:30:00",19.799,29.998413,0.204],
    [15518,"urn:WaterMeter:MC0203J22010600005","2024-03-22T12:45:00",19.899,29.990269,0.192],
    [15519,"urn:WaterMeter:MC0203J22010600005","2024-03-22T13:00:00",20.1,29.931696,0.191],
    [15520,"urn:WaterMeter:MC0203J22010600005","2024-03-22T13:15:00",20.2,29.868467,0.198],
    [15521,"urn:WaterMeter:MC0203J22010600005","2024-03-22T13:30:00",20.2,29.837397,0.175],
    [15522,"urn:WaterMeter:MC0203J22010600005","2024-03-22T13:45:00",20.299,29.815325,0.196],
    [15523,"urn:WaterMeter:MC0203J22010600005","2024-03-22T14:00:00",20.299,29.775372,0.188],
    [15524,"urn:WaterMeter:MC0203J22010600005","2024-03-22T14:15:00",20.299,29.724556,0.193],
    [15525,"urn:WaterMeter:MC0203J22010600005","2024-03-22T14:30:00",20.299,29.682238,0.188],
    [15526,"urn:WaterMeter:MC0203J22010600005","2024-03-22T14:45:00",20.299,29.691196,0.187],
    [15527,"urn:WaterMeter:MC0203J22010600005","2024-03-22T15:00:00",20.2,29.675293,0.189],
    [15528,"urn:WaterMeter:MC0203J22010600005","2024-03-22T15:15:00",20.2,29.64077,0.188],
    [15529,"urn:WaterMeter:MC0203J22010600005","2024-03-22T15:30:00",20.1,29.650467,0.197],
    [15530,"urn:WaterMeter:MC0203J22010600005","2024-03-22T15:45:00",20.1,29.631073,0.203],
    [15531,"urn:WaterMeter:MC0203J22010600005","2024-03-22T16:00:00",20.1,29.54302,0.188],
    [15532,"urn:WaterMeter:MC0203J22010600005","2024-03-22T16:15:00",20,29.554657,0.192],
    [15533,"urn:WaterMeter:MC0203J22010600005","2024-03-22T16:30:00",19.899,29.540304,0.186],
    [15534,"urn:WaterMeter:MC0203J22010600005","2024-03-22T16:45:00",19.899,29.539528,0.184],
    [15535,"urn:WaterMeter:MC0203J22010600005","2024-03-22T17:00:00",19.799,29.487898,0.199],
    [15536,"urn:WaterMeter:MC0203J22010600005","2024-03-22T17:15:00",19.7,29.515867,0.192],
    [15537,"urn:WaterMeter:MC0203J22010600005","2024-03-22T17:30:00",19.5,29.488674,0.188],
    [15538,"urn:WaterMeter:MC0203J22010600005","2024-03-22T17:45:00",19.399,29.434408,0.186],
    [15539,"urn:WaterMeter:MC0203J22010600005","2024-03-22T18:00:00",19.299,29.473198,0.189],
    [15540,"urn:WaterMeter:MC0203J22010600005","2024-03-22T18:15:00",19.1,29.449108,0.194],
    [15541,"urn:WaterMeter:MC0203J22010600005","2024-03-22T18:30:00",18.899,29.437899,0.197],
    [15542,"urn:WaterMeter:MC0203J22010600005","2024-03-22T18:45:00",18.7,29.447208,0.189],
    [15543,"urn:WaterMeter:MC0203J22010600005","2024-03-22T19:00:00",18.6,29.436735,0.207],
    [15544,"urn:WaterMeter:MC0203J22010600005","2024-03-22T19:15:00",18.399,29.458845,0.195],
    [15545,"urn:WaterMeter:MC0203J22010600005","2024-03-22T19:30:00",18.2,29.409542,0.19],
    [15546,"urn:WaterMeter:MC0203J22010600005","2024-03-22T19:45:00",18.1,29.486347,0.194],
    [15547,"urn:WaterMeter:MC0203J22010600005","2024-03-22T20:00:00",17.899,29.439798,0.19],
    [15548,"urn:WaterMeter:MC0203J22010600005","2024-03-22T20:15:00",17.7,29.463888,0.203],
    [15549,"urn:WaterMeter:MC0203J22010600005","2024-03-22T20:30:00",17.5,29.424322,0.202],
    [15550,"urn:WaterMeter:MC0203J22010600005","2024-03-22T20:45:00",17.399,29.458458,0.201],
    [15551,"urn:WaterMeter:MC0203J22010600005","2024-03-22T21:00:00",17.2,29.441778,0.203],
    [15552,"urn:WaterMeter:MC0203J22010600005","2024-03-22T21:15:00",17.1,29.449108,0.205],
    [15553,"urn:WaterMeter:MC0203J22010600005","2024-03-22T21:30:00",17,29.466215,0.194],
    [15554,"urn:WaterMeter:MC0203J22010600005","2024-03-22T21:45:00",16.799,29.402561,0.2],
    [15555,"urn:WaterMeter:MC0203J22010600005","2024-03-22T22:00:00",16.7,29.452639,0.194],
    [15556,"urn:WaterMeter:MC0203J22010600005","2024-03-22T22:15:00",16.6,29.413462,0.191],
    [15557,"urn:WaterMeter:MC0203J22010600005","2024-03-22T22:30:00",16.5,29.429714,0.206],
    [15558,"urn:WaterMeter:MC0203J22010600005","2024-03-22T22:45:00",16.399,29.460745,0.199],
    [15559,"urn:WaterMeter:MC0203J22010600005","2024-03-22T23:00:00",16.299,29.457682,0.194],
    [15560,"urn:WaterMeter:MC0203J22010600005","2024-03-22T23:15:00",16.2,29.440187,0.191],
    [15561,"urn:WaterMeter:MC0203J22010600005","2024-03-22T23:30:00",16.1,29.428938,0.191],
    [15562,"urn:WaterMeter:MC0203J22010600005","2024-03-22T23:45:00",16.1,29.459194,0.194],
    [15563,"urn:WaterMeter:MC0203J22010600005","2024-03-23T00:00:00",16,29.421955,0.189],
    [15564,"urn:WaterMeter:MC0203J22010600005","2024-03-23T00:15:00",16,29.402988,0.194],
    [15565,"urn:WaterMeter:MC0203J22010600005","2024-03-23T00:30:00",15.899,29.421955,0.197],
    [15566,"urn:WaterMeter:MC0203J22010600005","2024-03-23T00:45:00",15.8,29.411482,0.191],
    [15567,"urn:WaterMeter:MC0203J22010600005","2024-03-23T01:00:00",15.699,29.409542,0.189],
    [15568,"urn:WaterMeter:MC0203J22010600005","2024-03-23T01:15:00",15.6,29.440964,0.189],
    [15569,"urn:WaterMeter:MC0203J22010600005","2024-03-23T01:30:00",15.5,29.433243,0.206],
    [15570,"urn:WaterMeter:MC0203J22010600005","2024-03-23T01:45:00",15.5,29.394453,0.208],
    [15571,"urn:WaterMeter:MC0203J22010600005","2024-03-23T02:00:00",15.399,29.427038,0.188],
    [15572,"urn:WaterMeter:MC0203J22010600005","2024-03-23T02:15:00",15.3,29.384756,0.193],
    [15573,"urn:WaterMeter:MC0203J22010600005","2024-03-23T02:30:00",15.3,29.347906,0.2],
    [15574,"urn:WaterMeter:MC0203J22010600005","2024-03-23T02:45:00",15.3,29.339373,0.187],
    [15575,"urn:WaterMeter:MC0203J22010600005","2024-03-23T03:00:00",15.199,29.394066,0.187],
    [15576,"urn:WaterMeter:MC0203J22010600005","2024-03-23T03:15:00",15.199,29.368853,0.194],
    [15577,"urn:WaterMeter:MC0203J22010600005","2024-03-23T03:30:00",15.1,29.346354,0.191],
    [15578,"urn:WaterMeter:MC0203J22010600005","2024-03-23T03:45:00",15.1,29.38239,0.184],
    [15579,"urn:WaterMeter:MC0203J22010600005","2024-03-23T04:00:00",15.1,29.322304,0.184],
    [15580,"urn:WaterMeter:MC0203J22010600005","2024-03-23T04:15:00",15.1,29.315283,0.188],
    [15581,"urn:WaterMeter:MC0203J22010600005","2024-03-23T04:30:00",15.1,29.316486,0.191],
    [15582,"urn:WaterMeter:MC0203J22010600005","2024-03-23T04:45:00",15.1,29.299417,0.192],
    [15583,"urn:WaterMeter:MC0203J22010600005","2024-03-23T05:00:00",15.1,29.32308,0.19],
    [15584,"urn:WaterMeter:MC0203J22010600005","2024-03-23T05:15:00",15,29.321917,0.183],
    [15585,"urn:WaterMeter:MC0203J22010600005","2024-03-23T05:30:00",15,29.295113,0.187],
    [15586,"urn:WaterMeter:MC0203J22010600005","2024-03-23T05:45:00",15,29.276106,0.187],
    [15587,"urn:WaterMeter:MC0203J22010600005","2024-03-23T06:00:00",15.1,29.291273,0.188],
    [15588,"urn:WaterMeter:MC0203J22010600005","2024-03-23T06:15:00",15.1,29.280024,0.204],
    [15589,"urn:WaterMeter:MC0203J22010600005","2024-03-23T06:30:00",15.1,29.28464,0.194],
    [15590,"urn:WaterMeter:MC0203J22010600005","2024-03-23T06:45:00",15.1,29.271101,0.189],
    [15591,"urn:WaterMeter:MC0203J22010600005","2024-03-23T07:00:00",15.1,29.238905,0.185],
    [15592,"urn:WaterMeter:MC0203J22010600005","2024-03-23T07:15:00",15.1,29.223778,0.202],
    [15593,"urn:WaterMeter:MC0203J22010600005","2024-03-23T07:30:00",15.1,29.25671,0.188],
    [15594,"urn:WaterMeter:MC0203J22010600005","2024-03-23T07:45:00",15.199,29.225718,0.191],
    [15595,"urn:WaterMeter:MC0203J22010600005","2024-03-23T08:00:00",15.199,29.25516,0.184],
    [15596,"urn:WaterMeter:MC0203J22010600005","2024-03-23T08:15:00",15.3,29.193909,0.196],
    [15597,"urn:WaterMeter:MC0203J22010600005","2024-03-23T08:30:00",15.399,29.228432,0.182],
    [15598,"urn:WaterMeter:MC0203J22010600005","2024-03-23T08:45:00",15.5,29.193909,0.189],
    [15599,"urn:WaterMeter:MC0203J22010600005","2024-03-23T09:00:00",15.699,29.173738,0.183],
    [15600,"urn:WaterMeter:MC0203J22010600005","2024-03-23T09:15:00",15.899,29.128742,0.185],
    [15601,"urn:WaterMeter:MC0203J22010600005","2024-03-23T09:30:00",16.1,29.111635,0.189],
    [15602,"urn:WaterMeter:MC0203J22010600005","2024-03-23T09:45:00",16.399,29.119005,0.181],
    [15603,"urn:WaterMeter:MC0203J22010600005","2024-03-23T10:00:00",16.6,29.047283,0.181],
    [15604,"urn:WaterMeter:MC0203J22010600005","2024-03-23T10:15:00",16.899,29.022806,0.179],
    [15605,"urn:WaterMeter:MC0203J22010600005","2024-03-23T10:30:00",17.299,29.004576,0.183],
    [15606,"urn:WaterMeter:MC0203J22010600005","2024-03-23T10:45:00",17.6,28.939058,0.176],
    [15607,"urn:WaterMeter:MC0203J22010600005","2024-03-23T11:00:00",17.899,28.876608,0.175],
    [15608,"urn:WaterMeter:MC0203J22010600005","2024-03-23T11:15:00",18.1,28.867647,0.177],
    [15609,"urn:WaterMeter:MC0203J22010600005","2024-03-23T11:30:00",18.299,28.843248,0.175],
    [15610,"urn:WaterMeter:MC0203J22010600005","2024-03-23T11:45:00",18.5,28.813766,0.177],
    [15611,"urn:WaterMeter:MC0203J22010600005","2024-03-23T12:00:00",18.799,28.731882,0.175],
    [15612,"urn:WaterMeter:MC0203J22010600005","2024-03-23T12:15:00",19,28.699724,0.178],
    [15613,"urn:WaterMeter:MC0203J22010600005","2024-03-23T12:30:00",19.1,28.686537,0.17],
    [15614,"urn:WaterMeter:MC0203J22010600005","2024-03-23T12:45:00",19.299,28.671408,0.174],
    [15615,"urn:WaterMeter:MC0203J22010600005","2024-03-23T13:00:00",19.299,28.586071,0.173],
    [15616,"urn:WaterMeter:MC0203J22010600005","2024-03-23T13:15:00",19.299,28.562796,0.184],
    [15617,"urn:WaterMeter:MC0203J22010600005","2024-03-23T13:30:00",19.399,28.556938,0.18],
    [15618,"urn:WaterMeter:MC0203J22010600005","2024-03-23T13:45:00",19.5,28.535643,0.182],
    [15619,"urn:WaterMeter:MC0203J22010600005","2024-03-23T14:00:00",19.5,28.48444,0.187],
    [15620,"urn:WaterMeter:MC0203J22010600005","2024-03-23T14:15:00",19.6,28.483664,0.173],
    [15621,"urn:WaterMeter:MC0203J22010600005","2024-03-23T14:30:00",19.6,28.432423,0.179],
    [15622,"urn:WaterMeter:MC0203J22010600005","2024-03-23T14:45:00",19.6,28.420399,0.182],
    [15623,"urn:WaterMeter:MC0203J22010600005","2024-03-23T15:00:00",19.6,28.402943,0.174],
    [15624,"urn:WaterMeter:MC0203J22010600005","2024-03-23T15:15:00",19.6,28.37385,0.184],
    [15625,"urn:WaterMeter:MC0203J22010600005","2024-03-23T15:30:00",19.6,28.340918,0.182],
    [15626,"urn:WaterMeter:MC0203J22010600005","2024-03-23T15:45:00",19.6,28.32191,0.181],
    [15627,"urn:WaterMeter:MC0203J22010600005","2024-03-23T16:00:00",19.6,28.277264,0.179],
    [15628,"urn:WaterMeter:MC0203J22010600005","2024-03-23T16:15:00",19.5,28.290102,0.187],
    [15629,"urn:WaterMeter:MC0203J22010600005","2024-03-23T16:30:00",19.5,28.238861,0.193],
    [15630,"urn:WaterMeter:MC0203J22010600005","2024-03-23T16:45:00",19.399,28.250149,0.177],
    [15631,"urn:WaterMeter:MC0203J22010600005","2024-03-23T17:00:00",19.299,28.25748,0.185],
    [15632,"urn:WaterMeter:MC0203J22010600005","2024-03-23T17:15:00",19.2,28.204765,0.165],
    [15633,"urn:WaterMeter:MC0203J22010600005","2024-03-23T17:30:00",19.1,28.198908,0.185],
    [15634,"urn:WaterMeter:MC0203J22010600005","2024-03-23T17:45:00",19,28.245068,0.178],
    [15635,"urn:WaterMeter:MC0203J22010600005","2024-03-23T18:00:00",18.899,28.196619,0.189],
    [15636,"urn:WaterMeter:MC0203J22010600005","2024-03-23T18:15:00",18.7,28.201273,0.177],
    [15637,"urn:WaterMeter:MC0203J22010600005","2024-03-23T18:30:00",18.6,28.228775,0.173],
    [15638,"urn:WaterMeter:MC0203J22010600005","2024-03-23T18:45:00",18.399,28.21679,0.175],
    [15639,"urn:WaterMeter:MC0203J22010600005","2024-03-23T19:00:00",18.299,28.21679,0.178],
    [15640,"urn:WaterMeter:MC0203J22010600005","2024-03-23T19:15:00",18.1,28.241615,0.176],
    [15641,"urn:WaterMeter:MC0203J22010600005","2024-03-23T19:30:00",18,28.18343,0.18],
    [15642,"urn:WaterMeter:MC0203J22010600005","2024-03-23T19:45:00",17.799,28.186882,0.194],
    [15643,"urn:WaterMeter:MC0203J22010600005","2024-03-23T20:00:00",17.7,28.231918,0.191],
    [15644,"urn:WaterMeter:MC0203J22010600005","2024-03-23T20:15:00",17.6,28.21097,0.189],
    [15645,"urn:WaterMeter:MC0203J22010600005","2024-03-23T20:30:00",17.399,28.258255,0.178],
    [15646,"urn:WaterMeter:MC0203J22010600005","2024-03-23T20:45:00",17.299,28.20554,0.179],
    [15647,"urn:WaterMeter:MC0203J22010600005","2024-03-23T21:00:00",17.1,28.184593,0.18],
    [15648,"urn:WaterMeter:MC0203J22010600005","2024-03-23T21:15:00",17,28.208605,0.179],
    [15649,"urn:WaterMeter:MC0203J22010600005","2024-03-23T21:30:00",16.799,28.219893,0.185],
    [15650,"urn:WaterMeter:MC0203J22010600005","2024-03-23T21:45:00",16.7,28.254803,0.188],
    [15651,"urn:WaterMeter:MC0203J22010600005","2024-03-23T22:00:00",16.6,28.191189,0.175],
    [15652,"urn:WaterMeter:MC0203J22010600005","2024-03-23T22:15:00",16.5,28.195843,0.18],
    [15653,"urn:WaterMeter:MC0203J22010600005","2024-03-23T22:30:00",16.299,28.222609,0.186],
    [15654,"urn:WaterMeter:MC0203J22010600005","2024-03-23T22:45:00",16.2,28.230366,0.179],
    [15655,"urn:WaterMeter:MC0203J22010600005","2024-03-23T23:00:00",16.1,28.215239,0.178],
    [15656,"urn:WaterMeter:MC0203J22010600005","2024-03-23T23:15:00",16,28.248985,0.183],
    [15657,"urn:WaterMeter:MC0203J22010600005","2024-03-23T23:30:00",15.899,28.212135,0.182],
    [15658,"urn:WaterMeter:MC0203J22010600005","2024-03-23T23:45:00",15.8,28.232693,0.187],
    [15659,"urn:WaterMeter:MC0203J22010600005","2024-03-24T00:00:00",15.699,28.197783,0.176],
    [15660,"urn:WaterMeter:MC0203J22010600005","2024-03-24T00:15:00",15.6,28.197393,0.176],
    [15661,"urn:WaterMeter:MC0203J22010600005","2024-03-24T00:30:00",15.5,28.248558,0.182],
    [15662,"urn:WaterMeter:MC0203J22010600005","2024-03-24T00:45:00",15.399,28.256355,0.183],
    [15663,"urn:WaterMeter:MC0203J22010600005","2024-03-24T01:00:00",15.3,28.203213,0.19],
    [15664,"urn:WaterMeter:MC0203J22010600005","2024-03-24T01:15:00",15.199,28.226448,0.18],
    [15665,"urn:WaterMeter:MC0203J22010600005","2024-03-24T01:30:00",15.199,28.20205,0.182],
    [15666,"urn:WaterMeter:MC0203J22010600005","2024-03-24T01:45:00",15.1,28.223383,0.186],
    [15667,"urn:WaterMeter:MC0203J22010600005","2024-03-24T02:00:00",15.1,28.203213,0.176],
    [15668,"urn:WaterMeter:MC0203J22010600005","2024-03-24T02:15:00",15,28.245844,0.178],
    [15669,"urn:WaterMeter:MC0203J22010600005","2024-03-24T02:30:00",14.899,28.207052,0.183],
    [15670,"urn:WaterMeter:MC0203J22010600005","2024-03-24T02:45:00",14.899,28.212523,0.18],
    [15671,"urn:WaterMeter:MC0203J22010600005","2024-03-24T03:00:00",14.899,28.237698,0.172],
    [15672,"urn:WaterMeter:MC0203J22010600005","2024-03-24T03:15:00",14.8,28.215626,0.177],
    [15673,"urn:WaterMeter:MC0203J22010600005","2024-03-24T03:30:00",14.8,28.209381,0.171],
    [15674,"urn:WaterMeter:MC0203J22010600005","2024-03-24T03:45:00",14.8,28.23696,0.183],
    [15675,"urn:WaterMeter:MC0203J22010600005","2024-03-24T04:00:00",14.8,28.207829,0.182],
    [15676,"urn:WaterMeter:MC0203J22010600005","2024-03-24T04:15:00",14.699,28.225323,0.171],
    [15677,"urn:WaterMeter:MC0203J22010600005","2024-03-24T04:30:00",14.699,28.17451,0.177],
    [15678,"urn:WaterMeter:MC0203J22010600005","2024-03-24T04:45:00",14.699,28.170591,0.172],
    [15679,"urn:WaterMeter:MC0203J22010600005","2024-03-24T05:00:00",14.699,28.23502,0.184],
    [15680,"urn:WaterMeter:MC0203J22010600005","2024-03-24T05:15:00",14.699,28.207829,0.172],
    [15681,"urn:WaterMeter:MC0203J22010600005","2024-03-24T05:30:00",14.699,28.150808,0.192],
    [15682,"urn:WaterMeter:MC0203J22010600005","2024-03-24T05:45:00",14.699,28.21097,0.18],
    [15683,"urn:WaterMeter:MC0203J22010600005","2024-03-24T06:00:00",14.699,28.146967,0.178],
    [15684,"urn:WaterMeter:MC0203J22010600005","2024-03-24T06:15:00",14.6,28.186882,0.167],
    [15685,"urn:WaterMeter:MC0203J22010600005","2024-03-24T06:30:00",14.6,28.150032,0.183],
    [15686,"urn:WaterMeter:MC0203J22010600005","2024-03-24T06:45:00",14.6,28.140722,0.181],
    [15687,"urn:WaterMeter:MC0203J22010600005","2024-03-24T07:00:00",14.6,28.12447,0.185],
    [15688,"urn:WaterMeter:MC0203J22010600005","2024-03-24T07:15:00",14.6,28.129862,0.169],
    [15689,"urn:WaterMeter:MC0203J22010600005","2024-03-24T07:30:00",14.6,28.117487,0.183],
    [15690,"urn:WaterMeter:MC0203J22010600005","2024-03-24T07:45:00",14.699,28.108564,0.175],
    [15691,"urn:WaterMeter:MC0203J22010600005","2024-03-24T08:00:00",14.8,28.07637,0.17],
    [15692,"urn:WaterMeter:MC0203J22010600005","2024-03-24T08:15:00",14.899,28.108953,0.173],
    [15693,"urn:WaterMeter:MC0203J22010600005","2024-03-24T08:30:00",14.899,28.100807,0.174],
    [15694,"urn:WaterMeter:MC0203J22010600005","2024-03-24T08:45:00",15,28.073227,0.172],
    [15695,"urn:WaterMeter:MC0203J22010600005","2024-03-24T09:00:00",15.1,28.023228,0.17],
    [15696,"urn:WaterMeter:MC0203J22010600005","2024-03-24T09:15:00",15.3,28.034826,0.168],
    [15697,"urn:WaterMeter:MC0203J22010600005","2024-03-24T09:30:00",15.5,28.017408,0.187],
    [15698,"urn:WaterMeter:MC0203J22010600005","2024-03-24T09:45:00",15.6,27.977842,0.174],
    [15699,"urn:WaterMeter:MC0203J22010600005","2024-03-24T10:00:00",15.8,27.980558,0.181],
    [15700,"urn:WaterMeter:MC0203J22010600005","2024-03-24T10:15:00",15.899,27.974314,0.176],
    [15701,"urn:WaterMeter:MC0203J22010600005","2024-03-24T10:30:00",16,27.939829,0.176],
    [15702,"urn:WaterMeter:MC0203J22010600005","2024-03-24T10:45:00",16.1,27.885523,0.171],
    [15703,"urn:WaterMeter:MC0203J22010600005","2024-03-24T11:00:00",16.299,27.898672,0.168],
    [15704,"urn:WaterMeter:MC0203J22010600005","2024-03-24T11:15:00",16.399,27.851776,0.165],
    [15705,"urn:WaterMeter:MC0203J22010600005","2024-03-24T11:30:00",16.5,27.86027,0.163],
    [15706,"urn:WaterMeter:MC0203J22010600005","2024-03-24T11:45:00",16.6,27.861086,0.165],
    [15707,"urn:WaterMeter:MC0203J22010600005","2024-03-24T12:00:00",16.799,27.801697,0.168],
    [15708,"urn:WaterMeter:MC0203J22010600005","2024-03-24T12:15:00",16.899,27.80131,0.171],
    [15709,"urn:WaterMeter:MC0203J22010600005","2024-03-24T12:30:00",17.1,27.800533,0.171],
    [15710,"urn:WaterMeter:MC0203J22010600005","2024-03-24T12:45:00",17.2,27.774971,0.164],
    [15711,"urn:WaterMeter:MC0203J22010600005","2024-03-24T13:00:00",17.2,27.726484,0.165],
    [15712,"urn:WaterMeter:MC0203J22010600005","2024-03-24T13:15:00",17.299,27.700495,0.173],
    [15713,"urn:WaterMeter:MC0203J22010600005","2024-03-24T13:30:00",17.299,27.696228,0.174],
    [15714,"urn:WaterMeter:MC0203J22010600005","2024-03-24T13:45:00",17.399,27.659765,0.169],
    [15715,"urn:WaterMeter:MC0203J22010600005","2024-03-24T14:00:00",17.5,27.648129,0.183],
    [15716,"urn:WaterMeter:MC0203J22010600005","2024-03-24T14:15:00",17.6,27.602743,0.161],
    [15717,"urn:WaterMeter:MC0203J22010600005","2024-03-24T14:30:00",17.7,27.593046,0.174],
    [15718,"urn:WaterMeter:MC0203J22010600005","2024-03-24T14:45:00",17.799,27.59805,0.172],
    [15719,"urn:WaterMeter:MC0203J22010600005","2024-03-24T15:00:00",17.799,27.55542,0.164],
    [15720,"urn:WaterMeter:MC0203J22010600005","2024-03-24T15:15:00",17.799,27.508446,0.166],
    [15721,"urn:WaterMeter:MC0203J22010600005","2024-03-24T15:30:00",17.799,27.487925,0.162],
    [15722,"urn:WaterMeter:MC0203J22010600005","2024-03-24T15:45:00",17.7,27.475124,0.176],
    [15723,"urn:WaterMeter:MC0203J22010600005","2024-03-24T16:00:00",17.6,27.441765,0.173],
    [15724,"urn:WaterMeter:MC0203J22010600005","2024-03-24T16:15:00",17.5,27.46116,0.166],
    [15725,"urn:WaterMeter:MC0203J22010600005","2024-03-24T16:30:00",17.5,27.445644,0.171],
    [15726,"urn:WaterMeter:MC0203J22010600005","2024-03-24T16:45:00",17.399,27.431253,0.167],
    [15727,"urn:WaterMeter:MC0203J22010600005","2024-03-24T17:00:00",17.399,27.46306,0.165],
    [15728,"urn:WaterMeter:MC0203J22010600005","2024-03-24T17:15:00",17.299,27.414185,0.166],
    [15729,"urn:WaterMeter:MC0203J22010600005","2024-03-24T17:30:00",17.2,27.446808,0.172],
    [15730,"urn:WaterMeter:MC0203J22010600005","2024-03-24T17:45:00",17.1,27.440989,0.171],
    [15731,"urn:WaterMeter:MC0203J22010600005","2024-03-24T18:00:00",17,27.393627,0.168],
    [15732,"urn:WaterMeter:MC0203J22010600005","2024-03-24T18:15:00",16.899,27.380865,0.166],
    [15733,"urn:WaterMeter:MC0203J22010600005","2024-03-24T18:30:00",16.799,27.389399,0.164],
    [15734,"urn:WaterMeter:MC0203J22010600005","2024-03-24T18:45:00",16.7,27.378149,0.175],
    [15735,"urn:WaterMeter:MC0203J22010600005","2024-03-24T19:00:00",16.6,27.415388,0.173],
    [15736,"urn:WaterMeter:MC0203J22010600005","2024-03-24T19:15:00",16.5,27.385094,0.183],
    [15737,"urn:WaterMeter:MC0203J22010600005","2024-03-24T19:30:00",16.299,27.423107,0.166],
    [15738,"urn:WaterMeter:MC0203J22010600005","2024-03-24T19:45:00",16.1,27.38548,0.164],
    [15739,"urn:WaterMeter:MC0203J22010600005","2024-03-24T20:00:00",15.8,27.376986,0.166],
    [15740,"urn:WaterMeter:MC0203J22010600005","2024-03-24T20:15:00",15.699,27.439438,0.175],
    [15741,"urn:WaterMeter:MC0203J22010600005","2024-03-24T20:30:00",15.699,27.424698,0.17],
    [15742,"urn:WaterMeter:MC0203J22010600005","2024-03-24T20:45:00",15.699,27.425861,0.166],
    [15743,"urn:WaterMeter:MC0203J22010600005","2024-03-24T21:00:00",15.699,27.400648,0.166],
    [15744,"urn:WaterMeter:MC0203J22010600005","2024-03-24T21:15:00",15.699,27.420431,0.169],
    [15745,"urn:WaterMeter:MC0203J22010600005","2024-03-24T21:30:00",15.699,27.39479,0.176],
    [15746,"urn:WaterMeter:MC0203J22010600005","2024-03-24T21:45:00",15.699,27.371555,0.174],
    [15747,"urn:WaterMeter:MC0203J22010600005","2024-03-24T22:00:00",15.699,27.41341,0.168],
    [15748,"urn:WaterMeter:MC0203J22010600005","2024-03-24T22:15:00",15.6,27.407242,0.17],
    [15749,"urn:WaterMeter:MC0203J22010600005","2024-03-24T22:30:00",15.6,27.42427,0.165],
    [15750,"urn:WaterMeter:MC0203J22010600005","2024-03-24T22:45:00",15.6,27.401035,0.171],
    [15751,"urn:WaterMeter:MC0203J22010600005","2024-03-24T23:00:00",15.6,27.432804,0.164],
    [15752,"urn:WaterMeter:MC0203J22010600005","2024-03-24T23:15:00",15.5,27.380089,0.177],
    [15753,"urn:WaterMeter:MC0203J22010600005","2024-03-24T23:30:00",15.5,27.393238,0.172],
    [15754,"urn:WaterMeter:MC0203J22010600005","2024-03-24T23:45:00",15.399,27.334278,0.169],
    [15755,"urn:WaterMeter:MC0203J22010600005","2024-03-25T00:00:00",15.399,27.397932,0.176],
    [15756,"urn:WaterMeter:MC0203J22010600005","2024-03-25T00:15:00",15.399,27.351772,0.161],
    [15757,"urn:WaterMeter:MC0203J22010600005","2024-03-25T00:30:00",15.399,27.405691,0.169],
    [15758,"urn:WaterMeter:MC0203J22010600005","2024-03-25T00:45:00",15.3,27.359142,0.158],
    [15759,"urn:WaterMeter:MC0203J22010600005","2024-03-25T01:00:00",15.3,27.382805,0.166],
    [15760,"urn:WaterMeter:MC0203J22010600005","2024-03-25T01:15:00",15.3,27.34867,0.162],
    [15761,"urn:WaterMeter:MC0203J22010600005","2024-03-25T01:30:00",15.3,27.394403,0.168],
    [15762,"urn:WaterMeter:MC0203J22010600005","2024-03-25T01:45:00",15.3,27.369616,0.179],
    [15763,"urn:WaterMeter:MC0203J22010600005","2024-03-25T02:00:00",15.3,27.356388,0.166],
    [15764,"urn:WaterMeter:MC0203J22010600005","2024-03-25T02:15:00",15.3,27.340523,0.168],
    [15765,"urn:WaterMeter:MC0203J22010600005","2024-03-25T02:30:00",15.3,27.360306,0.161],
    [15766,"urn:WaterMeter:MC0203J22010600005","2024-03-25T02:45:00",15.3,27.327295,0.166],
    [15767,"urn:WaterMeter:MC0203J22010600005","2024-03-25T03:00:00",15.3,27.29863,0.168],
    [15768,"urn:WaterMeter:MC0203J22010600005","2024-03-25T03:15:00",15.3,27.323069,0.174],
    [15769,"urn:WaterMeter:MC0203J22010600005","2024-03-25T03:30:00",15.3,27.31182,0.169],
    [15770,"urn:WaterMeter:MC0203J22010600005","2024-03-25T03:45:00",15.3,27.33389,0.16],
    [15771,"urn:WaterMeter:MC0203J22010600005","2024-03-25T04:00:00",15.3,27.32074,0.169],
    [15772,"urn:WaterMeter:MC0203J22010600005","2024-03-25T04:15:00",15.199,27.32462,0.162],
    [15773,"urn:WaterMeter:MC0203J22010600005","2024-03-25T04:30:00",15.1,27.332766,0.164],
    [15774,"urn:WaterMeter:MC0203J22010600005","2024-03-25T04:45:00",15.1,27.300957,0.183],
    [15775,"urn:WaterMeter:MC0203J22010600005","2024-03-25T05:00:00",15.1,27.32462,0.174],
    [15776,"urn:WaterMeter:MC0203J22010600005","2024-03-25T05:15:00",15.1,27.323069,0.164],
    [15777,"urn:WaterMeter:MC0203J22010600005","2024-03-25T05:30:00",15,27.310266,0.177],
    [15778,"urn:WaterMeter:MC0203J22010600005","2024-03-25T05:45:00",15,27.348282,0.168],
    [15779,"urn:WaterMeter:MC0203J22010600005","2024-03-25T06:00:00",15,27.306738,0.16],
    [15780,"urn:WaterMeter:MC0203J22010600005","2024-03-25T06:15:00",15,27.303673,0.172],
    [15781,"urn:WaterMeter:MC0203J22010600005","2024-03-25T06:30:00",15,27.33389,0.167],
    [15782,"urn:WaterMeter:MC0203J22010600005","2024-03-25T06:45:00",15,27.357592,0.166],
    [15783,"urn:WaterMeter:MC0203J22010600005","2024-03-25T07:00:00",15,27.402588,0.165],
    [15784,"urn:WaterMeter:MC0203J22010600005","2024-03-25T07:15:00",15.1,27.371943,0.176],
    [15785,"urn:WaterMeter:MC0203J22010600005","2024-03-25T07:30:00",15.199,27.374231,0.163],
    [15786,"urn:WaterMeter:MC0203J22010600005","2024-03-25T07:45:00",15.199,27.368065,0.171],
    [15787,"urn:WaterMeter:MC0203J22010600005","2024-03-25T08:00:00",15.3,27.416164,0.165],
    [15788,"urn:WaterMeter:MC0203J22010600005","2024-03-25T08:15:00",15.3,28.057362,0.193],
    [15789,"urn:WaterMeter:MC0203J22010600005","2024-03-25T08:30:00",15.399,28.996857,0.191],
    [15790,"urn:WaterMeter:MC0203J22010600005","2024-03-25T08:45:00",15.5,29.719088,0.204],
    [15791,"urn:WaterMeter:MC0203J22010600005","2024-03-25T09:00:00",15.6,30.143877,0.201],
    [15792,"urn:WaterMeter:MC0203J22010600005","2024-03-25T09:15:00",15.699,30.31688,0.198],
    [15793,"urn:WaterMeter:MC0203J22010600005","2024-03-25T09:30:00",15.8,30.312225,0.208],
    [15794,"urn:WaterMeter:MC0203J22010600005","2024-03-25T09:45:00",16,30.336275,0.211],
    [15795,"urn:WaterMeter:MC0203J22010600005","2024-03-25T10:00:00",16.1,30.277313,0.202],
    [15796,"urn:WaterMeter:MC0203J22010600005","2024-03-25T10:15:00",16.2,30.273436,0.199],
    [15797,"urn:WaterMeter:MC0203J22010600005","2024-03-25T10:30:00",16.299,30.273785,0.194],
    [15798,"urn:WaterMeter:MC0203J22010600005","2024-03-25T10:45:00",16.399,30.243916,0.206],
    [15799,"urn:WaterMeter:MC0203J22010600005","2024-03-25T11:00:00",16.6,30.24124,0.196],
    [15800,"urn:WaterMeter:MC0203J22010600005","2024-03-25T11:15:00",16.799,30.184217,0.215],
    [15801,"urn:WaterMeter:MC0203J22010600005","2024-03-25T11:30:00",17,30.131851,0.201],
    [15802,"urn:WaterMeter:MC0203J22010600005","2024-03-25T11:45:00",17.1,30.179564,0.207],
    [15803,"urn:WaterMeter:MC0203J22010600005","2024-03-25T12:00:00",17.299,30.08992,0.196],
    [15804,"urn:WaterMeter:MC0203J22010600005","2024-03-25T12:15:00",17.5,30.080997,0.2],
    [15805,"urn:WaterMeter:MC0203J22010600005","2024-03-25T12:30:00",17.5,30.083364,0.195],
    [15806,"urn:WaterMeter:MC0203J22010600005","2024-03-25T12:45:00",17.5,30.061214,0.198],
    [15807,"urn:WaterMeter:MC0203J22010600005","2024-03-25T13:00:00",17.5,30.043798,0.207],
    [15808,"urn:WaterMeter:MC0203J22010600005","2024-03-25T13:15:00",17.5,29.996475,0.197],
    [15809,"urn:WaterMeter:MC0203J22010600005","2024-03-25T13:30:00",17.399,29.997639,0.199],
    [15810,"urn:WaterMeter:MC0203J22010600005","2024-03-25T13:45:00",17.299,30.019361,0.198],
    [15811,"urn:WaterMeter:MC0203J22010600005","2024-03-25T14:00:00",17.2,30.023628,0.205],
    [15812,"urn:WaterMeter:MC0203J22010600005","2024-03-25T14:15:00",17.2,30.002642,0.207],
    [15813,"urn:WaterMeter:MC0203J22010600005","2024-03-25T14:30:00",17.1,29.975529,0.201],
    [15814,"urn:WaterMeter:MC0203J22010600005","2024-03-25T14:45:00",17,29.979795,0.188],
    [15815,"urn:WaterMeter:MC0203J22010600005","2024-03-25T15:00:00",17,29.93829,0.205],
    [15816,"urn:WaterMeter:MC0203J22010600005","2024-03-25T15:15:00",16.899,29.961176,0.201],
    [15817,"urn:WaterMeter:MC0203J22010600005","2024-03-25T15:30:00",16.899,29.996475,0.204],
    [15818,"urn:WaterMeter:MC0203J22010600005","2024-03-25T15:45:00",16.799,29.983248,0.196],
    [15819,"urn:WaterMeter:MC0203J22010600005","2024-03-25T16:00:00",16.7,29.92743,0.209],
    [15820,"urn:WaterMeter:MC0203J22010600005","2024-03-25T16:15:00",16.7,29.953766,0.192],
    [15821,"urn:WaterMeter:MC0203J22010600005","2024-03-25T16:30:00",16.6,29.944845,0.209],
    [15822,"urn:WaterMeter:MC0203J22010600005","2024-03-25T16:45:00",16.6,29.954931,0.198],
    [15823,"urn:WaterMeter:MC0203J22010600005","2024-03-25T17:00:00",16.7,29.924326,0.206],
    [15824,"urn:WaterMeter:MC0203J22010600005","2024-03-25T17:15:00",16.7,29.900276,0.209],
    [15825,"urn:WaterMeter:MC0203J22010600005","2024-03-25T17:30:00",16.7,29.916956,0.204],
    [15826,"urn:WaterMeter:MC0203J22010600005","2024-03-25T17:45:00",16.7,29.903767,0.207],
    [15827,"urn:WaterMeter:MC0203J22010600005","2024-03-25T18:00:00",16.7,29.90338,0.204],
    [15828,"urn:WaterMeter:MC0203J22010600005","2024-03-25T18:15:00",16.7,29.88825,0.204],
    [15829,"urn:WaterMeter:MC0203J22010600005","2024-03-25T18:30:00",16.7,29.879328,0.197],
    [15830,"urn:WaterMeter:MC0203J22010600005","2024-03-25T18:45:00",16.6,29.91967,0.193],
    [15831,"urn:WaterMeter:MC0203J22010600005","2024-03-25T19:00:00",16.6,29.846745,0.2],
    [15832,"urn:WaterMeter:MC0203J22010600005","2024-03-25T19:15:00",16.5,29.892517,0.2],
    [15833,"urn:WaterMeter:MC0203J22010600005","2024-03-25T19:30:00",16.399,29.87002,0.196],
    [15834,"urn:WaterMeter:MC0203J22010600005","2024-03-25T19:45:00",16.399,29.88437,0.194],
    [15835,"urn:WaterMeter:MC0203J22010600005","2024-03-25T20:00:00",16.399,29.877739,0.197],
    [15836,"urn:WaterMeter:MC0203J22010600005","2024-03-25T20:15:00",16.299,29.839375,0.206],
    [15837,"urn:WaterMeter:MC0203J22010600005","2024-03-25T20:30:00",16.299,29.89911,0.209],
    [15838,"urn:WaterMeter:MC0203J22010600005","2024-03-25T20:45:00",16.2,29.823471,0.197],
    [15839,"urn:WaterMeter:MC0203J22010600005","2024-03-25T21:00:00",16.2,29.863037,0.195],
    [15840,"urn:WaterMeter:MC0203J22010600005","2024-03-25T21:15:00",16.1,29.873123,0.206],
    [15841,"urn:WaterMeter:MC0203J22010600005","2024-03-25T21:30:00",16.1,29.818777,0.202],
    [15842,"urn:WaterMeter:MC0203J22010600005","2024-03-25T21:45:00",16,29.852564,0.198],
    [15843,"urn:WaterMeter:MC0203J22010600005","2024-03-25T22:00:00",16,29.88282,0.205],
    [15844,"urn:WaterMeter:MC0203J22010600005","2024-03-25T22:15:00",16,29.877739,0.198],
    [15845,"urn:WaterMeter:MC0203J22010600005","2024-03-25T22:30:00",15.899,29.865751,0.207],
    [15846,"urn:WaterMeter:MC0203J22010600005","2024-03-25T22:45:00",15.899,29.816063,0.193],
    [15847,"urn:WaterMeter:MC0203J22010600005","2024-03-25T23:00:00",15.899,29.875023,0.199],
    [15848,"urn:WaterMeter:MC0203J22010600005","2024-03-25T23:15:00",15.8,29.89911,0.199],
    [15849,"urn:WaterMeter:MC0203J22010600005","2024-03-25T23:30:00",15.8,29.826574,0.197],
    [15850,"urn:WaterMeter:MC0203J22010600005","2024-03-25T23:45:00",15.8,29.80524,0.197],
    [15851,"urn:WaterMeter:MC0203J22010600005","2024-03-26T00:00:00",15.699,29.873898,0.204],
    [15852,"urn:WaterMeter:MC0203J22010600005","2024-03-26T00:15:00",15.6,29.838173,0.192],
    [15853,"urn:WaterMeter:MC0203J22010600005","2024-03-26T00:30:00",15.5,29.86071,0.2],
    [15854,"urn:WaterMeter:MC0203J22010600005","2024-03-26T00:45:00",15.5,29.84209,0.196],
    [15855,"urn:WaterMeter:MC0203J22010600005","2024-03-26T01:00:00",15.5,29.871183,0.195],
    [15856,"urn:WaterMeter:MC0203J22010600005","2024-03-26T01:15:00",15.399,29.833944,0.218],
    [15857,"urn:WaterMeter:MC0203J22010600005","2024-03-26T01:30:00",15.399,29.88476,0.196],
    [15858,"urn:WaterMeter:MC0203J22010600005","2024-03-26T01:45:00",15.399,29.864588,0.195],
    [15859,"urn:WaterMeter:MC0203J22010600005","2024-03-26T02:00:00",15.3,29.802137,0.194],
    [15860,"urn:WaterMeter:MC0203J22010600005","2024-03-26T02:15:00",15.3,29.871958,0.194],
    [15861,"urn:WaterMeter:MC0203J22010600005","2024-03-26T02:30:00",15.3,29.864588,0.203],
    [15862,"urn:WaterMeter:MC0203J22010600005","2024-03-26T02:45:00",15.199,29.806791,0.193],
    [15863,"urn:WaterMeter:MC0203J22010600005","2024-03-26T03:00:00",15.1,29.836233,0.198],
    [15864,"urn:WaterMeter:MC0203J22010600005","2024-03-26T03:15:00",15,29.819553,0.192],
    [15865,"urn:WaterMeter:MC0203J22010600005","2024-03-26T03:30:00",14.899,29.816837,0.2],
    [15866,"urn:WaterMeter:MC0203J22010600005","2024-03-26T03:45:00",14.899,29.811834,0.199],
    [15867,"urn:WaterMeter:MC0203J22010600005","2024-03-26T04:00:00",14.899,29.811447,0.194],
    [15868,"urn:WaterMeter:MC0203J22010600005","2024-03-26T04:15:00",14.899,29.828087,0.191],
    [15869,"urn:WaterMeter:MC0203J22010600005","2024-03-26T04:30:00",14.8,29.814161,0.194],
    [15870,"urn:WaterMeter:MC0203J22010600005","2024-03-26T04:45:00",14.699,29.874247,0.195],
    [15871,"urn:WaterMeter:MC0203J22010600005","2024-03-26T05:00:00",14.699,29.845581,0.204],
    [15872,"urn:WaterMeter:MC0203J22010600005","2024-03-26T05:15:00",14.6,29.82192,0.193],
    [15873,"urn:WaterMeter:MC0203J22010600005","2024-03-26T05:30:00",14.6,29.802137,0.19],
    [15874,"urn:WaterMeter:MC0203J22010600005","2024-03-26T05:45:00",14.5,29.816063,0.203],
    [15875,"urn:WaterMeter:MC0203J22010600005","2024-03-26T06:00:00",14.399,29.808304,0.197],
    [15876,"urn:WaterMeter:MC0203J22010600005","2024-03-26T06:15:00",14.3,29.819553,0.189],
    [15877,"urn:WaterMeter:MC0203J22010600005","2024-03-26T06:30:00",14.3,29.830841,0.19],
    [15878,"urn:WaterMeter:MC0203J22010600005","2024-03-26T06:45:00",14.199,29.814161,0.197],
    [15879,"urn:WaterMeter:MC0203J22010600005","2024-03-26T07:00:00",14,29.793215,0.195],
    [15880,"urn:WaterMeter:MC0203J22010600005","2024-03-26T07:15:00",14,29.817614,0.196],
    [15881,"urn:WaterMeter:MC0203J22010600005","2024-03-26T07:30:00",14,29.828087,0.189],
    [15882,"urn:WaterMeter:MC0203J22010600005","2024-03-26T07:45:00",14.1,29.826962,0.198],
    [15883,"urn:WaterMeter:MC0203J22010600005","2024-03-26T08:00:00",14.1,29.836233,0.203],
    [15884,"urn:WaterMeter:MC0203J22010600005","2024-03-26T08:15:00",14.199,29.767614,0.192],
    [15885,"urn:WaterMeter:MC0203J22010600005","2024-03-26T08:30:00",14.199,29.752098,0.201],
    [15886,"urn:WaterMeter:MC0203J22010600005","2024-03-26T08:45:00",14.199,29.748995,0.193],
    [15887,"urn:WaterMeter:MC0203J22010600005","2024-03-26T09:00:00",14.199,29.747831,0.194],
    [15888,"urn:WaterMeter:MC0203J22010600005","2024-03-26T09:15:00",14.199,29.723005,0.197],
    [15889,"urn:WaterMeter:MC0203J22010600005","2024-03-26T09:30:00",14.199,29.725332,0.185],
    [15890,"urn:WaterMeter:MC0203J22010600005","2024-03-26T09:45:00",14.199,29.732702,0.194],
    [15891,"urn:WaterMeter:MC0203J22010600005","2024-03-26T10:00:00",14.3,29.717575,0.191],
    [15892,"urn:WaterMeter:MC0203J22010600005","2024-03-26T10:15:00",14.3,29.69271,0.199],
    [15893,"urn:WaterMeter:MC0203J22010600005","2024-03-26T10:30:00",14.3,29.718739,0.185],
    [15894,"urn:WaterMeter:MC0203J22010600005","2024-03-26T10:45:00",14.1,29.676456,0.203],
    [15895,"urn:WaterMeter:MC0203J22010600005","2024-03-26T11:00:00",13.899,29.715246,0.193],
    [15896,"urn:WaterMeter:MC0203J22010600005","2024-03-26T11:15:00",13.699,29.691586,0.19],
    [15897,"urn:WaterMeter:MC0203J22010600005","2024-03-26T11:30:00",13.699,29.684603,0.196],
    [15898,"urn:WaterMeter:MC0203J22010600005","2024-03-26T11:45:00",13.699,29.716022,0.196],
    [15899,"urn:WaterMeter:MC0203J22010600005","2024-03-26T12:00:00",13.8,29.730375,0.188],
    [15900,"urn:WaterMeter:MC0203J22010600005","2024-03-26T12:15:00",14,29.69081,0.196],
    [15901,"urn:WaterMeter:MC0203J22010600005","2024-03-26T12:30:00",14,29.692322,0.193],
    [15902,"urn:WaterMeter:MC0203J22010600005","2024-03-26T12:45:00",14,29.707489,0.194],
    [15903,"urn:WaterMeter:MC0203J22010600005","2024-03-26T13:00:00",14.1,29.669086,0.187],
    [15904,"urn:WaterMeter:MC0203J22010600005","2024-03-26T13:15:00",14.1,29.687706,0.198],
    [15905,"urn:WaterMeter:MC0203J22010600005","2024-03-26T13:30:00",14.3,29.686155,0.198],
    [15906,"urn:WaterMeter:MC0203J22010600005","2024-03-26T13:45:00",14.399,29.652796,0.196],
    [15907,"urn:WaterMeter:MC0203J22010600005","2024-03-26T14:00:00",14.399,29.608574,0.198],
    [15908,"urn:WaterMeter:MC0203J22010600005","2024-03-26T14:15:00",14.399,29.58879,0.191],
    [15909,"urn:WaterMeter:MC0203J22010600005","2024-03-26T14:30:00",14.3,29.61672,0.193],
    [15910,"urn:WaterMeter:MC0203J22010600005","2024-03-26T14:45:00",14.1,29.6078,0.19],
    [15911,"urn:WaterMeter:MC0203J22010600005","2024-03-26T15:00:00",14,29.589954,0.199],
    [15912,"urn:WaterMeter:MC0203J22010600005","2024-03-26T15:15:00",13.899,29.575953,0.195],
    [15913,"urn:WaterMeter:MC0203J22010600005","2024-03-26T15:30:00",13.699,29.579481,0.196],
    [15914,"urn:WaterMeter:MC0203J22010600005","2024-03-26T15:45:00",13.5,29.57634,0.188],
    [15915,"urn:WaterMeter:MC0203J22010600005","2024-03-26T16:00:00",13.5,29.56862,0.19],
    [15916,"urn:WaterMeter:MC0203J22010600005","2024-03-26T16:15:00",13.3,29.606209,0.184],
    [15917,"urn:WaterMeter:MC0203J22010600005","2024-03-26T16:30:00",13.199,29.575563,0.196],
    [15918,"urn:WaterMeter:MC0203J22010600005","2024-03-26T16:45:00",13.1,29.57056,0.19],
    [15919,"urn:WaterMeter:MC0203J22010600005","2024-03-26T17:00:00",13.1,29.558535,0.196],
    [15920,"urn:WaterMeter:MC0203J22010600005","2024-03-26T17:15:00",13,29.54302,0.191],
    [15921,"urn:WaterMeter:MC0203J22010600005","2024-03-26T17:30:00",12.899,29.532547,0.195],
    [15922,"urn:WaterMeter:MC0203J22010600005","2024-03-26T17:45:00",12.8,29.545307,0.194],
    [15923,"urn:WaterMeter:MC0203J22010600005","2024-03-26T18:00:00",12.8,29.532547,0.186],
    [15924,"urn:WaterMeter:MC0203J22010600005","2024-03-26T18:15:00",12.699,29.51893,0.186],
    [15925,"urn:WaterMeter:MC0203J22010600005","2024-03-26T18:30:00",12.6,29.54302,0.187],
    [15926,"urn:WaterMeter:MC0203J22010600005","2024-03-26T18:45:00",12.6,29.543795,0.193],
    [15927,"urn:WaterMeter:MC0203J22010600005","2024-03-26T19:00:00",12.5,29.56509,0.186],
    [15928,"urn:WaterMeter:MC0203J22010600005","2024-03-26T19:15:00",12.5,29.554657,0.195],
    [15929,"urn:WaterMeter:MC0203J22010600005","2024-03-26T19:30:00",12.399,29.551165,0.187],
    [15930,"urn:WaterMeter:MC0203J22010600005","2024-03-26T19:45:00",12.3,29.56509,0.188],
    [15931,"urn:WaterMeter:MC0203J22010600005","2024-03-26T20:00:00",12.3,29.523624,0.191],
    [15932,"urn:WaterMeter:MC0203J22010600005","2024-03-26T20:15:00",12.199,29.523237,0.186],
    [15933,"urn:WaterMeter:MC0203J22010600005","2024-03-26T20:30:00",12.1,29.512764,0.192],
    [15934,"urn:WaterMeter:MC0203J22010600005","2024-03-26T20:45:00",12,29.499962,0.194],
    [15935,"urn:WaterMeter:MC0203J22010600005","2024-03-26T21:00:00",11.899,29.520521,0.192],
    [15936,"urn:WaterMeter:MC0203J22010600005","2024-03-26T21:15:00",11.899,29.520134,0.193],
    [15937,"urn:WaterMeter:MC0203J22010600005","2024-03-26T21:30:00",11.899,29.530218,0.197],
    [15938,"urn:WaterMeter:MC0203J22010600005","2024-03-26T21:45:00",11.8,29.543407,0.19],
    [15939,"urn:WaterMeter:MC0203J22010600005","2024-03-26T22:00:00",11.8,29.511599,0.187],
    [15940,"urn:WaterMeter:MC0203J22010600005","2024-03-26T22:15:00",11.8,29.53371,0.193],
    [15941,"urn:WaterMeter:MC0203J22010600005","2024-03-26T22:30:00",11.8,29.507294,0.191],
    [15942,"urn:WaterMeter:MC0203J22010600005","2024-03-26T22:45:00",11.8,29.501125,0.192],
    [15943,"urn:WaterMeter:MC0203J22010600005","2024-03-26T23:00:00",11.8,29.50613,0.184],
    [15944,"urn:WaterMeter:MC0203J22010600005","2024-03-26T23:15:00",11.699,29.471645,0.197],
    [15945,"urn:WaterMeter:MC0203J22010600005","2024-03-26T23:30:00",11.6,29.541468,0.185],
    [15946,"urn:WaterMeter:MC0203J22010600005","2024-03-26T23:45:00",11.5,29.48014,0.192],
    [15947,"urn:WaterMeter:MC0203J22010600005","2024-03-27T00:00:00",11.399,29.4635,0.19],
    [15948,"urn:WaterMeter:MC0203J22010600005","2024-03-27T00:15:00",11.399,29.471258,0.191],
    [15949,"urn:WaterMeter:MC0203J22010600005","2024-03-27T00:30:00",11.3,29.485222,0.187],
    [15950,"urn:WaterMeter:MC0203J22010600005","2024-03-27T00:45:00",11.199,29.495308,0.184],
    [15951,"urn:WaterMeter:MC0203J22010600005","2024-03-27T01:00:00",11.1,29.466215,0.193],
    [15952,"urn:WaterMeter:MC0203J22010600005","2024-03-27T01:15:00",11.1,29.49492,0.191],
    [15953,"urn:WaterMeter:MC0203J22010600005","2024-03-27T01:30:00",11,29.470444,0.188],
    [15954,"urn:WaterMeter:MC0203J22010600005","2024-03-27T01:45:00",11,29.516254,0.196],
    [15955,"urn:WaterMeter:MC0203J22010600005","2024-03-27T02:00:00",11,29.457682,0.186],
    [15956,"urn:WaterMeter:MC0203J22010600005","2024-03-27T02:15:00",11,29.477852,0.189],
    [15957,"urn:WaterMeter:MC0203J22010600005","2024-03-27T02:30:00",11,29.49492,0.18],
    [15958,"urn:WaterMeter:MC0203J22010600005","2024-03-27T02:45:00",11,29.487898,0.19],
    [15959,"urn:WaterMeter:MC0203J22010600005","2024-03-27T03:00:00",10.899,29.486734,0.188],
    [15960,"urn:WaterMeter:MC0203J22010600005","2024-03-27T03:15:00",10.899,29.452639,0.183],
    [15961,"urn:WaterMeter:MC0203J22010600005","2024-03-27T03:30:00",10.899,29.44872,0.183],
    [15962,"urn:WaterMeter:MC0203J22010600005","2024-03-27T03:45:00",10.899,29.457293,0.19],
    [15963,"urn:WaterMeter:MC0203J22010600005","2024-03-27T04:00:00",10.899,29.466951,0.187],
    [15964,"urn:WaterMeter:MC0203J22010600005","2024-03-27T04:15:00",10.899,29.458458,0.19],
    [15965,"urn:WaterMeter:MC0203J22010600005","2024-03-27T04:30:00",10.8,29.453026,0.189],
    [15966,"urn:WaterMeter:MC0203J22010600005","2024-03-27T04:45:00",10.6,29.432468,0.184],
    [15967,"urn:WaterMeter:MC0203J22010600005","2024-03-27T05:00:00",10.5,29.457682,0.193],
    [15968,"urn:WaterMeter:MC0203J22010600005","2024-03-27T05:15:00",10.5,29.439798,0.181],
    [15969,"urn:WaterMeter:MC0203J22010600005","2024-03-27T05:30:00",10.399,29.468504,0.182],
    [15970,"urn:WaterMeter:MC0203J22010600005","2024-03-27T05:45:00",10.3,29.409931,0.189],
    [15971,"urn:WaterMeter:MC0203J22010600005","2024-03-27T06:00:00",10.199,29.440187,0.188],
    [15972,"urn:WaterMeter:MC0203J22010600005","2024-03-27T06:15:00",10.1,29.466215,0.188],
    [15973,"urn:WaterMeter:MC0203J22010600005","2024-03-27T06:30:00",10,29.438675,0.192],
    [15974,"urn:WaterMeter:MC0203J22010600005","2024-03-27T06:45:00",10,29.43402,0.184],
    [15975,"urn:WaterMeter:MC0203J22010600005","2024-03-27T07:00:00",10,29.43945,0.188],
    [15976,"urn:WaterMeter:MC0203J22010600005","2024-03-27T07:15:00",10.1,29.465439,0.183],
    [15977,"urn:WaterMeter:MC0203J22010600005","2024-03-27T07:30:00",10.399,29.442553,0.181],
    [15978,"urn:WaterMeter:MC0203J22010600005","2024-03-27T07:45:00",10.6,29.652796,0.187],
    [15979,"urn:WaterMeter:MC0203J22010600005","2024-03-27T08:00:00",10.899,30.200123,0.197],
    [15980,"urn:WaterMeter:MC0203J22010600005","2024-03-27T08:15:00",11.1,30.674135,0.207],
    [15981,"urn:WaterMeter:MC0203J22010600005","2024-03-27T08:30:00",11.399,30.926659,0.212],
    [15982,"urn:WaterMeter:MC0203J22010600005","2024-03-27T08:45:00",11.699,31.16673,0.202],
    [15983,"urn:WaterMeter:MC0203J22010600005","2024-03-27T09:00:00",12,31.278095,0.209],
    [15984,"urn:WaterMeter:MC0203J22010600005","2024-03-27T09:15:00",12.199,31.238918,0.202],
    [15985,"urn:WaterMeter:MC0203J22010600005","2024-03-27T09:30:00",12.5,31.153969,0.207],
    [15986,"urn:WaterMeter:MC0203J22010600005","2024-03-27T09:45:00",12.8,31.09462,0.202],
    [15987,"urn:WaterMeter:MC0203J22010600005","2024-03-27T10:00:00",13.1,31.064363,0.199],
    [15988,"urn:WaterMeter:MC0203J22010600005","2024-03-27T10:15:00",13.399,30.966612,0.206],
    [15989,"urn:WaterMeter:MC0203J22010600005","2024-03-27T10:30:00",13.6,30.975534,0.2],
    [15990,"urn:WaterMeter:MC0203J22010600005","2024-03-27T10:45:00",13.899,30.90804,0.206],
    [15991,"urn:WaterMeter:MC0203J22010600005","2024-03-27T11:00:00",14.199,30.877783,0.194],
    [15992,"urn:WaterMeter:MC0203J22010600005","2024-03-27T11:15:00",14.5,30.84171,0.209],
    [15993,"urn:WaterMeter:MC0203J22010600005","2024-03-27T11:30:00",14.899,30.75866,0.195],
    [15994,"urn:WaterMeter:MC0203J22010600005","2024-03-27T11:45:00",15.1,30.735424,0.208],
    [15995,"urn:WaterMeter:MC0203J22010600005","2024-03-27T12:00:00",15.399,30.648146,0.198],
    [15996,"urn:WaterMeter:MC0203J22010600005","2024-03-27T12:15:00",15.6,30.639612,0.196],
    [15997,"urn:WaterMeter:MC0203J22010600005","2024-03-27T12:30:00",15.8,30.612808,0.2],
    [15998,"urn:WaterMeter:MC0203J22010600005","2024-03-27T12:45:00",16,30.550007,0.21],
    [15999,"urn:WaterMeter:MC0203J22010600005","2024-03-27T13:00:00",16.1,30.505787,0.198],
    [16000,"urn:WaterMeter:MC0203J22010600005","2024-03-27T13:15:00",16.2,30.436703,0.206],
    [16001,"urn:WaterMeter:MC0203J22010600005","2024-03-27T13:30:00",16.299,30.441784,0.206],
    [16002,"urn:WaterMeter:MC0203J22010600005","2024-03-27T13:45:00",16.399,30.424328,0.208],
    [16003,"urn:WaterMeter:MC0203J22010600005","2024-03-27T14:00:00",16.5,30.4111,0.208],
    [16004,"urn:WaterMeter:MC0203J22010600005","2024-03-27T14:15:00",16.6,30.389418,0.201],
    [16005,"urn:WaterMeter:MC0203J22010600005","2024-03-27T14:30:00",16.7,30.321108,0.196],
    [16006,"urn:WaterMeter:MC0203J22010600005","2024-03-27T14:45:00",16.799,30.29283,0.194],
    [16007,"urn:WaterMeter:MC0203J22010600005","2024-03-27T15:00:00",16.899,30.27266,0.2],
    [16008,"urn:WaterMeter:MC0203J22010600005","2024-03-27T15:15:00",17.1,30.226072,0.205],
    [16009,"urn:WaterMeter:MC0203J22010600005","2024-03-27T15:30:00",17.1,30.173357,0.196],
    [16010,"urn:WaterMeter:MC0203J22010600005","2024-03-27T15:45:00",17.2,30.17681,0.202],
    [16011,"urn:WaterMeter:MC0203J22010600005","2024-03-27T16:00:00",17.1,30.141937,0.194],
    [16012,"urn:WaterMeter:MC0203J22010600005","2024-03-27T16:15:00",17.1,30.119787,0.196],
    [16013,"urn:WaterMeter:MC0203J22010600005","2024-03-27T16:30:00",17,30.115171,0.195],
    [16014,"urn:WaterMeter:MC0203J22010600005","2024-03-27T16:45:00",16.899,30.025566,0.206],
    [16015,"urn:WaterMeter:MC0203J22010600005","2024-03-27T17:00:00",16.799,30.067461,0.2],
    [16016,"urn:WaterMeter:MC0203J22010600005","2024-03-27T17:15:00",16.7,30.086079,0.2],
    [16017,"urn:WaterMeter:MC0203J22010600005","2024-03-27T17:30:00",16.5,30.04919,0.195],
    [16018,"urn:WaterMeter:MC0203J22010600005","2024-03-27T17:45:00",16.399,30.048801,0.202],
    [16019,"urn:WaterMeter:MC0203J22010600005","2024-03-27T18:00:00",16.299,30.04919,0.208],
    [16020,"urn:WaterMeter:MC0203J22010600005","2024-03-27T18:15:00",16.2,30.018585,0.2],
    [16021,"urn:WaterMeter:MC0203J22010600005","2024-03-27T18:30:00",16.1,30.0085,0.198],
    [16022,"urn:WaterMeter:MC0203J22010600005","2024-03-27T18:45:00",16,30.023628,0.206],
    [16023,"urn:WaterMeter:MC0203J22010600005","2024-03-27T19:00:00",15.899,30.034489,0.195],
    [16024,"urn:WaterMeter:MC0203J22010600005","2024-03-27T19:15:00",15.8,29.967382,0.201],
    [16025,"urn:WaterMeter:MC0203J22010600005","2024-03-27T19:30:00",15.699,29.998802,0.193],
    [16026,"urn:WaterMeter:MC0203J22010600005","2024-03-27T19:45:00",15.6,29.988716,0.196],
    [16027,"urn:WaterMeter:MC0203J22010600005","2024-03-27T20:00:00",15.6,29.980183,0.201],
    [16028,"urn:WaterMeter:MC0203J22010600005","2024-03-27T20:15:00",15.5,29.994535,0.201],
    [16029,"urn:WaterMeter:MC0203J22010600005","2024-03-27T20:30:00",15.399,29.970873,0.194],
    [16030,"urn:WaterMeter:MC0203J22010600005","2024-03-27T20:45:00",15.399,29.960787,0.21],
    [16031,"urn:WaterMeter:MC0203J22010600005","2024-03-27T21:00:00",15.399,29.968159,0.204],
    [16032,"urn:WaterMeter:MC0203J22010600005","2024-03-27T21:15:00",15.3,29.93476,0.202],
    [16033,"urn:WaterMeter:MC0203J22010600005","2024-03-27T21:30:00",15.3,29.926653,0.196],
    [16034,"urn:WaterMeter:MC0203J22010600005","2024-03-27T21:45:00",15.3,29.94217,0.2],
    [16035,"urn:WaterMeter:MC0203J22010600005","2024-03-27T22:00:00",15.3,29.904543,0.205],
    [16036,"urn:WaterMeter:MC0203J22010600005","2024-03-27T22:15:00",15.3,29.927816,0.196],
    [16037,"urn:WaterMeter:MC0203J22010600005","2024-03-27T22:30:00",15.199,29.883984,0.195],
    [16038,"urn:WaterMeter:MC0203J22010600005","2024-03-27T22:45:00",15.199,29.870407,0.2],
    [16039,"urn:WaterMeter:MC0203J22010600005","2024-03-27T23:00:00",15.199,29.867266,0.198],
    [16040,"urn:WaterMeter:MC0203J22010600005","2024-03-27T23:15:00",15.1,29.878553,0.199],
    [16041,"urn:WaterMeter:MC0203J22010600005","2024-03-27T23:30:00",15.1,29.842867,0.197],
    [16042,"urn:WaterMeter:MC0203J22010600005","2024-03-27T23:45:00",15.1,29.865364,0.203],
    [16043,"urn:WaterMeter:MC0203J22010600005","2024-03-28T00:00:00",15.1,29.83895,0.188],
    [16044,"urn:WaterMeter:MC0203J22010600005","2024-03-28T00:15:00",15.1,29.79046,0.202],
    [16045,"urn:WaterMeter:MC0203J22010600005","2024-03-28T00:30:00",15.1,29.823471,0.196],
    [16046,"urn:WaterMeter:MC0203J22010600005","2024-03-28T00:45:00",15,29.802525,0.202],
    [16047,"urn:WaterMeter:MC0203J22010600005","2024-03-28T01:00:00",15,29.79783,0.191],
    [16048,"urn:WaterMeter:MC0203J22010600005","2024-03-28T01:15:00",15.1,29.816837,0.194],
    [16049,"urn:WaterMeter:MC0203J22010600005","2024-03-28T01:30:00",15.1,29.824635,0.196],
    [16050,"urn:WaterMeter:MC0203J22010600005","2024-03-28T01:45:00",15.1,29.779987,0.203],
    [16051,"urn:WaterMeter:MC0203J22010600005","2024-03-28T02:00:00",15,29.791275,0.196],
    [16052,"urn:WaterMeter:MC0203J22010600005","2024-03-28T02:15:00",15,29.750507,0.195],
    [16053,"urn:WaterMeter:MC0203J22010600005","2024-03-28T02:30:00",15,29.702795,0.19],
    [16054,"urn:WaterMeter:MC0203J22010600005","2024-03-28T02:45:00",15,29.76098,0.194],
    [16055,"urn:WaterMeter:MC0203J22010600005","2024-03-28T03:00:00",15.1,29.755976,0.193],
    [16056,"urn:WaterMeter:MC0203J22010600005","2024-03-28T03:15:00",15,29.711329,0.201],
    [16057,"urn:WaterMeter:MC0203J22010600005","2024-03-28T03:30:00",15,29.736969,0.197],
    [16058,"urn:WaterMeter:MC0203J22010600005","2024-03-28T03:45:00",15,29.695463,0.193],
    [16059,"urn:WaterMeter:MC0203J22010600005","2024-03-28T04:00:00",15,29.659002,0.194],
    [16060,"urn:WaterMeter:MC0203J22010600005","2024-03-28T04:15:00",15,29.644222,0.197],
    [16061,"urn:WaterMeter:MC0203J22010600005","2024-03-28T04:30:00",15,29.716799,0.193],
    [16062,"urn:WaterMeter:MC0203J22010600005","2024-03-28T04:45:00",15,29.698956,0.202],
    [16063,"urn:WaterMeter:MC0203J22010600005","2024-03-28T05:00:00",15,29.66676,0.188],
    [16064,"urn:WaterMeter:MC0203J22010600005","2024-03-28T05:15:00",15,29.63922,0.196],
    [16065,"urn:WaterMeter:MC0203J22010600005","2024-03-28T05:30:00",15,29.67607,0.189],
    [16066,"urn:WaterMeter:MC0203J22010600005","2024-03-28T05:45:00",15,29.658226,0.193],
    [16067,"urn:WaterMeter:MC0203J22010600005","2024-03-28T06:00:00",15,29.62603,0.187],
    [16068,"urn:WaterMeter:MC0203J22010600005","2024-03-28T06:15:00",15.1,29.594223,0.197],
    [16069,"urn:WaterMeter:MC0203J22010600005","2024-03-28T06:30:00",15.1,29.549614,0.19],
    [16070,"urn:WaterMeter:MC0203J22010600005","2024-03-28T06:45:00",15.1,29.566643,0.191],
    [16071,"urn:WaterMeter:MC0203J22010600005","2024-03-28T07:00:00",15.199,29.588404,0.189],
    [16072,"urn:WaterMeter:MC0203J22010600005","2024-03-28T07:15:00",15.199,29.54492,0.193],
    [16073,"urn:WaterMeter:MC0203J22010600005","2024-03-28T07:30:00",15.3,29.50613,0.188],
    [16074,"urn:WaterMeter:MC0203J22010600005","2024-03-28T07:45:00",15.399,29.513151,0.187],
    [16075,"urn:WaterMeter:MC0203J22010600005","2024-03-28T08:00:00",15.399,29.465828,0.188],
    [16076,"urn:WaterMeter:MC0203J22010600005","2024-03-28T08:15:00",15.5,29.448334,0.19],
    [16077,"urn:WaterMeter:MC0203J22010600005","2024-03-28T08:30:00",15.6,29.413073,0.197],
    [16078,"urn:WaterMeter:MC0203J22010600005","2024-03-28T08:45:00",15.699,29.386309,0.204],
    [16079,"urn:WaterMeter:MC0203J22010600005","2024-03-28T09:00:00",15.899,29.371916,0.189],
    [16080,"urn:WaterMeter:MC0203J22010600005","2024-03-28T09:15:00",16,29.351358,0.194],
    [16081,"urn:WaterMeter:MC0203J22010600005","2024-03-28T09:30:00",16.2,29.336657,0.192],
    [16082,"urn:WaterMeter:MC0203J22010600005","2024-03-28T09:45:00",16.399,29.285416,0.186],
    [16083,"urn:WaterMeter:MC0203J22010600005","2024-03-28T10:00:00",16.6,29.245111,0.189],
    [16084,"urn:WaterMeter:MC0203J22010600005","2024-03-28T10:15:00",16.6,29.23654,0.19],
    [16085,"urn:WaterMeter:MC0203J22010600005","2024-03-28T10:30:00",16.7,29.183435,0.195],
    [16086,"urn:WaterMeter:MC0203J22010600005","2024-03-28T10:45:00",16.899,29.166756,0.188],
    [16087,"urn:WaterMeter:MC0203J22010600005","2024-03-28T11:00:00",17,29.119394,0.191],
    [16088,"urn:WaterMeter:MC0203J22010600005","2024-03-28T11:15:00",17.1,29.1365,0.196],
    [16089,"urn:WaterMeter:MC0203J22010600005","2024-03-28T11:30:00",17.2,29.095383,0.185],
    [16090,"urn:WaterMeter:MC0203J22010600005","2024-03-28T11:45:00",17.2,29.025173,0.186],
    [16091,"urn:WaterMeter:MC0203J22010600005","2024-03-28T12:00:00",17.299,29.065126,0.183],
    [16092,"urn:WaterMeter:MC0203J22010600005","2024-03-28T12:15:00",17.5,28.978237,0.189],
    [16093,"urn:WaterMeter:MC0203J22010600005","2024-03-28T12:30:00",17.6,28.942162,0.183],
    [16094,"urn:WaterMeter:MC0203J22010600005","2024-03-28T12:45:00",17.899,28.922379,0.178],
    [16095,"urn:WaterMeter:MC0203J22010600005","2024-03-28T13:00:00",18.299,28.843636,0.2],
    [16096,"urn:WaterMeter:MC0203J22010600005","2024-03-28T13:15:00",18.399,28.831612,0.181],
    [16097,"urn:WaterMeter:MC0203J22010600005","2024-03-28T13:30:00",18.399,28.793985,0.192],
    [16098,"urn:WaterMeter:MC0203J22010600005","2024-03-28T13:45:00",18.399,28.740067,0.184],
    [16099,"urn:WaterMeter:MC0203J22010600005","2024-03-28T14:00:00",18.7,28.723349,0.189],
    [16100,"urn:WaterMeter:MC0203J22010600005","2024-03-28T14:15:00",18.899,28.67525,0.179],
    [16101,"urn:WaterMeter:MC0203J22010600005","2024-03-28T14:30:00",19,28.635683,0.189],
    [16102,"urn:WaterMeter:MC0203J22010600005","2024-03-28T14:45:00",19.1,28.622145,0.177],
    [16103,"urn:WaterMeter:MC0203J22010600005","2024-03-28T15:00:00",19.1,28.607367,0.186],
    [16104,"urn:WaterMeter:MC0203J22010600005","2024-03-28T15:15:00",19.1,28.549181,0.186],
    [16105,"urn:WaterMeter:MC0203J22010600005","2024-03-28T15:30:00",19,28.537931,0.178],
    [16106,"urn:WaterMeter:MC0203J22010600005","2024-03-28T15:45:00",18.899,28.471212,0.18],
    [16107,"urn:WaterMeter:MC0203J22010600005","2024-03-28T16:00:00",18.899,28.451818,0.191],
    [16108,"urn:WaterMeter:MC0203J22010600005","2024-03-28T16:15:00",18.799,28.495302,0.181],
    [16109,"urn:WaterMeter:MC0203J22010600005","2024-03-28T16:30:00",18.7,28.421173,0.178],
    [16110,"urn:WaterMeter:MC0203J22010600005","2024-03-28T16:45:00",18.7,28.4344,0.182],
    [16111,"urn:WaterMeter:MC0203J22010600005","2024-03-28T17:00:00",18.6,28.397163,0.184],
    [16112,"urn:WaterMeter:MC0203J22010600005","2024-03-28T17:15:00",18.5,28.421173,0.182],
    [16113,"urn:WaterMeter:MC0203J22010600005","2024-03-28T17:30:00",18.399,28.37932,0.193],
    [16114,"urn:WaterMeter:MC0203J22010600005","2024-03-28T17:45:00",18.299,28.382383,0.177],
    [16115,"urn:WaterMeter:MC0203J22010600005","2024-03-28T18:00:00",18.2,28.393633,0.199],
    [16116,"urn:WaterMeter:MC0203J22010600005","2024-03-28T18:15:00",18.1,28.35368,0.187],
    [16117,"urn:WaterMeter:MC0203J22010600005","2024-03-28T18:30:00",17.899,28.357985,0.189],
    [16118,"urn:WaterMeter:MC0203J22010600005","2024-03-28T18:45:00",17.799,28.35333,0.184],
    [16119,"urn:WaterMeter:MC0203J22010600005","2024-03-28T19:00:00",17.7,28.326952,0.18],
    [16120,"urn:WaterMeter:MC0203J22010600005","2024-03-28T19:15:00",17.6,28.32381,0.183],
    [16121,"urn:WaterMeter:MC0203J22010600005","2024-03-28T19:30:00",17.5,28.347511,0.181],
    [16122,"urn:WaterMeter:MC0203J22010600005","2024-03-28T19:45:00",17.399,28.336262,0.181],
    [16123,"urn:WaterMeter:MC0203J22010600005","2024-03-28T20:00:00",17.299,28.342043,0.192],
    [16124,"urn:WaterMeter:MC0203J22010600005","2024-03-28T20:15:00",17.1,28.361088,0.182],
    [16125,"urn:WaterMeter:MC0203J22010600005","2024-03-28T20:30:00",17.1,28.333158,0.189],
    [16126,"urn:WaterMeter:MC0203J22010600005","2024-03-28T20:45:00",17,28.36454,0.188],
    [16127,"urn:WaterMeter:MC0203J22010600005","2024-03-28T21:00:00",16.899,28.310661,0.184],
    [16128,"urn:WaterMeter:MC0203J22010600005","2024-03-28T21:15:00",16.799,28.326565,0.181],
    [16129,"urn:WaterMeter:MC0203J22010600005","2024-03-28T21:30:00",16.799,28.354843,0.187],
    [16130,"urn:WaterMeter:MC0203J22010600005","2024-03-28T21:45:00",16.7,28.301352,0.178],
    [16131,"urn:WaterMeter:MC0203J22010600005","2024-03-28T22:00:00",16.7,28.343594,0.183],
    [16132,"urn:WaterMeter:MC0203J22010600005","2024-03-28T22:15:00",16.6,28.312601,0.188],
    [16133,"urn:WaterMeter:MC0203J22010600005","2024-03-28T22:30:00",16.6,28.292042,0.19],
    [16134,"urn:WaterMeter:MC0203J22010600005","2024-03-28T22:45:00",16.5,28.296658,0.181],
    [16135,"urn:WaterMeter:MC0203J22010600005","2024-03-28T23:00:00",16.5,28.28502,0.182],
    [16136,"urn:WaterMeter:MC0203J22010600005","2024-03-28T23:15:00",16.399,28.309109,0.182],
    [16137,"urn:WaterMeter:MC0203J22010600005","2024-03-28T23:30:00",16.399,28.303251,0.173],
    [16138,"urn:WaterMeter:MC0203J22010600005","2024-03-28T23:45:00",16.299,28.311825,0.178],
    [16139,"urn:WaterMeter:MC0203J22010600005","2024-03-29T00:00:00",16.2,28.273811,0.173],
    [16140,"urn:WaterMeter:MC0203J22010600005","2024-03-29T00:15:00",16.1,28.312212,0.178],
    [16141,"urn:WaterMeter:MC0203J22010600005","2024-03-29T00:30:00",16,28.258255,0.187],
    [16142,"urn:WaterMeter:MC0203J22010600005","2024-03-29T00:45:00",15.899,28.243555,0.191],
    [16143,"urn:WaterMeter:MC0203J22010600005","2024-03-29T01:00:00",15.8,28.292042,0.182],
    [16144,"urn:WaterMeter:MC0203J22010600005","2024-03-29T01:15:00",15.699,28.282732,0.185],
    [16145,"urn:WaterMeter:MC0203J22010600005","2024-03-29T01:30:00",15.6,28.290491,0.188],
    [16146,"urn:WaterMeter:MC0203J22010600005","2024-03-29T01:45:00",15.5,28.306355,0.185],
    [16147,"urn:WaterMeter:MC0203J22010600005","2024-03-29T02:00:00",15.399,28.273811,0.196],
    [16148,"urn:WaterMeter:MC0203J22010600005","2024-03-29T02:15:00",15.399,28.279629,0.181],
    [16149,"urn:WaterMeter:MC0203J22010600005","2024-03-29T02:30:00",15.3,28.229164,0.186],
    [16150,"urn:WaterMeter:MC0203J22010600005","2024-03-29T02:45:00",15.3,28.269156,0.175],
    [16151,"urn:WaterMeter:MC0203J22010600005","2024-03-29T03:00:00",15.3,28.246231,0.181],
    [16152,"urn:WaterMeter:MC0203J22010600005","2024-03-29T03:15:00",15.199,28.285408,0.176],
    [16153,"urn:WaterMeter:MC0203J22010600005","2024-03-29T03:30:00",15.199,28.238861,0.18],
    [16154,"urn:WaterMeter:MC0203J22010600005","2024-03-29T03:45:00",15.1,28.278465,0.181],
    [16155,"urn:WaterMeter:MC0203J22010600005","2024-03-29T04:00:00",15.1,28.257868,0.18],
    [16156,"urn:WaterMeter:MC0203J22010600005","2024-03-29T04:15:00",15,28.257092,0.178],
    [16157,"urn:WaterMeter:MC0203J22010600005","2024-03-29T04:30:00",14.8,28.26679,0.175],
    [16158,"urn:WaterMeter:MC0203J22010600005","2024-03-29T04:45:00",14.699,28.226835,0.18],
    [16159,"urn:WaterMeter:MC0203J22010600005","2024-03-29T05:00:00",14.6,28.26485,0.185],
    [16160,"urn:WaterMeter:MC0203J22010600005","2024-03-29T05:15:00",14.5,28.227999,0.185],
    [16161,"urn:WaterMeter:MC0203J22010600005","2024-03-29T05:30:00",14.3,28.262173,0.185],
    [16162,"urn:WaterMeter:MC0203J22010600005","2024-03-29T05:45:00",14.199,28.240063,0.175],
    [16163,"urn:WaterMeter:MC0203J22010600005","2024-03-29T06:00:00",14.1,28.291265,0.174],
    [16164,"urn:WaterMeter:MC0203J22010600005","2024-03-29T06:15:00",13.899,28.233082,0.184],
    [16165,"urn:WaterMeter:MC0203J22010600005","2024-03-29T06:30:00",13.8,28.245068,0.184],
    [16166,"urn:WaterMeter:MC0203J22010600005","2024-03-29T06:45:00",13.699,28.312212,0.182],
    [16167,"urn:WaterMeter:MC0203J22010600005","2024-03-29T07:00:00",13.699,28.275362,0.18],
    [16168,"urn:WaterMeter:MC0203J22010600005","2024-03-29T07:15:00",13.8,28.243942,0.183],
    [16169,"urn:WaterMeter:MC0203J22010600005","2024-03-29T07:30:00",14,28.263725,0.184],
    [16170,"urn:WaterMeter:MC0203J22010600005","2024-03-29T07:45:00",14.199,28.298248,0.182],
    [16171,"urn:WaterMeter:MC0203J22010600005","2024-03-29T08:00:00",14.399,28.771059,0.196],
    [16172,"urn:WaterMeter:MC0203J22010600005","2024-03-29T08:15:00",14.6,29.656673,0.211],
    [16173,"urn:WaterMeter:MC0203J22010600005","2024-03-29T08:30:00",14.8,30.325026,0.207],
    [16174,"urn:WaterMeter:MC0203J22010600005","2024-03-29T08:45:00",15,30.80831,0.22],
    [16175,"urn:WaterMeter:MC0203J22010600005","2024-03-29T09:00:00",15.3,31.04264,0.216],
    [16176,"urn:WaterMeter:MC0203J22010600005","2024-03-29T09:15:00",15.6,30.988722,0.219],
    [16177,"urn:WaterMeter:MC0203J22010600005","2024-03-29T09:30:00",15.8,30.899893,0.21],
    [16178,"urn:WaterMeter:MC0203J22010600005","2024-03-29T09:45:00",16,30.894424,0.214],
    [16179,"urn:WaterMeter:MC0203J22010600005","2024-03-29T10:00:00",16.299,30.785463,0.21],
    [16180,"urn:WaterMeter:MC0203J22010600005","2024-03-29T10:15:00",16.7,30.79516,0.202],
    [16181,"urn:WaterMeter:MC0203J22010600005","2024-03-29T10:30:00",17,30.735811,0.209],
    [16182,"urn:WaterMeter:MC0203J22010600005","2024-03-29T10:45:00",17.299,30.698185,0.202],
    [16183,"urn:WaterMeter:MC0203J22010600005","2024-03-29T11:00:00",17.6,30.63104,0.204],
    [16184,"urn:WaterMeter:MC0203J22010600005","2024-03-29T11:15:00",17.899,30.57716,0.206],
    [16185,"urn:WaterMeter:MC0203J22010600005","2024-03-29T11:30:00",18.2,30.498804,0.204],
    [16186,"urn:WaterMeter:MC0203J22010600005","2024-03-29T11:45:00",18.399,30.502296,0.215],
    [16187,"urn:WaterMeter:MC0203J22010600005","2024-03-29T12:00:00",18.6,30.435577,0.207],
    [16188,"urn:WaterMeter:MC0203J22010600005","2024-03-29T12:15:00",18.7,30.385925,0.212],
    [16189,"urn:WaterMeter:MC0203J22010600005","2024-03-29T12:30:00",18.7,30.351751,0.204],
    [16190,"urn:WaterMeter:MC0203J22010600005","2024-03-29T12:45:00",18.799,30.270332,0.203],
    [16191,"urn:WaterMeter:MC0203J22010600005","2024-03-29T13:00:00",18.799,30.279642,0.205],
    [16192,"urn:WaterMeter:MC0203J22010600005","2024-03-29T13:15:00",18.799,30.245855,0.202],
    [16193,"urn:WaterMeter:MC0203J22010600005","2024-03-29T13:30:00",18.799,30.207453,0.203],
    [16194,"urn:WaterMeter:MC0203J22010600005","2024-03-29T13:45:00",18.799,30.159393,0.198],
    [16195,"urn:WaterMeter:MC0203J22010600005","2024-03-29T14:00:00",18.799,30.146553,0.202],
    [16196,"urn:WaterMeter:MC0203J22010600005","2024-03-29T14:15:00",18.7,30.145428,0.2],
    [16197,"urn:WaterMeter:MC0203J22010600005","2024-03-29T14:30:00",18.7,30.141548,0.209],
    [16198,"urn:WaterMeter:MC0203J22010600005","2024-03-29T14:45:00",18.6,30.058538,0.205],
    [16199,"urn:WaterMeter:MC0203J22010600005","2024-03-29T15:00:00",18.6,30.080997,0.202],
    [16200,"urn:WaterMeter:MC0203J22010600005","2024-03-29T15:15:00",18.399,30.038755,0.205],
    [16201,"urn:WaterMeter:MC0203J22010600005","2024-03-29T15:30:00",18.2,30.039919,0.212],
    [16202,"urn:WaterMeter:MC0203J22010600005","2024-03-29T15:45:00",18.2,30.053885,0.214],
    [16203,"urn:WaterMeter:MC0203J22010600005","2024-03-29T16:00:00",18,30.060827,0.203],
    [16204,"urn:WaterMeter:MC0203J22010600005","2024-03-29T16:15:00",17.899,30.014318,0.209],
    [16205,"urn:WaterMeter:MC0203J22010600005","2024-03-29T16:30:00",17.799,30.038755,0.202],
    [16206,"urn:WaterMeter:MC0203J22010600005","2024-03-29T16:45:00",17.799,29.98251,0.207],
    [16207,"urn:WaterMeter:MC0203J22010600005","2024-03-29T17:00:00",17.799,29.973938,0.213],
    [16208,"urn:WaterMeter:MC0203J22010600005","2024-03-29T17:15:00",17.799,30.000742,0.204],
    [16209,"urn:WaterMeter:MC0203J22010600005","2024-03-29T17:30:00",17.7,29.963852,0.204],
    [16210,"urn:WaterMeter:MC0203J22010600005","2024-03-29T17:45:00",17.6,29.95652,0.201],
    [16211,"urn:WaterMeter:MC0203J22010600005","2024-03-29T18:00:00",17.5,29.911913,0.208],
    [16212,"urn:WaterMeter:MC0203J22010600005","2024-03-29T18:15:00",17.399,29.95691,0.205],
    [16213,"urn:WaterMeter:MC0203J22010600005","2024-03-29T18:30:00",17.2,29.93476,0.204],
    [16214,"urn:WaterMeter:MC0203J22010600005","2024-03-29T18:45:00",17.1,29.88088,0.214],
    [16215,"urn:WaterMeter:MC0203J22010600005","2024-03-29T19:00:00",16.899,29.926226,0.201],
    [16216,"urn:WaterMeter:MC0203J22010600005","2024-03-29T19:15:00",16.799,29.899887,0.196],
    [16217,"urn:WaterMeter:MC0203J22010600005","2024-03-29T19:30:00",16.6,29.889803,0.204],
    [16218,"urn:WaterMeter:MC0203J22010600005","2024-03-29T19:45:00",16.5,29.89213,0.212],
    [16219,"urn:WaterMeter:MC0203J22010600005","2024-03-29T20:00:00",16.299,29.882044,0.201],
    [16220,"urn:WaterMeter:MC0203J22010600005","2024-03-29T20:15:00",16.2,29.849848,0.217],
    [16221,"urn:WaterMeter:MC0203J22010600005","2024-03-29T20:30:00",16.1,29.865364,0.206],
    [16222,"urn:WaterMeter:MC0203J22010600005","2024-03-29T20:45:00",16,29.89597,0.21],
    [16223,"urn:WaterMeter:MC0203J22010600005","2024-03-29T21:00:00",15.899,29.88825,0.202],
    [16224,"urn:WaterMeter:MC0203J22010600005","2024-03-29T21:15:00",15.8,29.855627,0.207],
    [16225,"urn:WaterMeter:MC0203J22010600005","2024-03-29T21:30:00",15.6,29.894806,0.206],
    [16226,"urn:WaterMeter:MC0203J22010600005","2024-03-29T21:45:00",15.5,29.88282,0.211],
    [16227,"urn:WaterMeter:MC0203J22010600005","2024-03-29T22:00:00",15.5,29.898336,0.206],
    [16228,"urn:WaterMeter:MC0203J22010600005","2024-03-29T22:15:00",15.399,29.83472,0.202],
    [16229,"urn:WaterMeter:MC0203J22010600005","2024-03-29T22:30:00",15.3,29.848646,0.2],
    [16230,"urn:WaterMeter:MC0203J22010600005","2024-03-29T22:45:00",15.1,29.863813,0.202],
    [16231,"urn:WaterMeter:MC0203J22010600005","2024-03-29T23:00:00",15,29.880493,0.208],
    [16232,"urn:WaterMeter:MC0203J22010600005","2024-03-29T23:15:00",14.8,29.854504,0.207],
    [16233,"urn:WaterMeter:MC0203J22010600005","2024-03-29T23:30:00",14.699,29.83856,0.205],
    [16234,"urn:WaterMeter:MC0203J22010600005","2024-03-29T23:45:00",14.5,29.830454,0.211],
    [16235,"urn:WaterMeter:MC0203J22010600005","2024-03-30T00:00:00",14.399,29.896357,0.21],
    [16236,"urn:WaterMeter:MC0203J22010600005","2024-03-30T00:15:00",14.199,29.890577,0.202],
    [16237,"urn:WaterMeter:MC0203J22010600005","2024-03-30T00:30:00",14.1,29.858343,0.208],
    [16238,"urn:WaterMeter:MC0203J22010600005","2024-03-30T00:45:00",14,29.90528,0.205],
    [16239,"urn:WaterMeter:MC0203J22010600005","2024-03-30T01:00:00",13.899,29.845581,0.198],
    [16240,"urn:WaterMeter:MC0203J22010600005","2024-03-30T01:15:00",13.8,29.882044,0.211],
    [16241,"urn:WaterMeter:MC0203J22010600005","2024-03-30T01:30:00",13.699,29.83278,0.199],
    [16242,"urn:WaterMeter:MC0203J22010600005","2024-03-30T01:45:00",13.6,29.85877,0.212],
    [16243,"urn:WaterMeter:MC0203J22010600005","2024-03-30T02:00:00",13.399,29.842478,0.202],
    [16244,"urn:WaterMeter:MC0203J22010600005","2024-03-30T02:15:00",13.399,29.846745,0.202],
    [16245,"urn:WaterMeter:MC0203J22010600005","2024-03-30T02:30:00",13.199,29.87157,0.201],
    [16246,"urn:WaterMeter:MC0203J22010600005","2024-03-30T02:45:00",13.1,29.828087,0.202],
    [16247,"urn:WaterMeter:MC0203J22010600005","2024-03-30T03:00:00",13,29.854504,0.197],
    [16248,"urn:WaterMeter:MC0203J22010600005","2024-03-30T03:15:00",13,29.863037,0.225],
    [16249,"urn:WaterMeter:MC0203J22010600005","2024-03-30T03:30:00",12.899,29.897133,0.203],
    [16250,"urn:WaterMeter:MC0203J22010600005","2024-03-30T03:45:00",12.8,29.889414,0.204],
    [16251,"urn:WaterMeter:MC0203J22010600005","2024-03-30T04:00:00",12.699,29.882431,0.204],
    [16252,"urn:WaterMeter:MC0203J22010600005","2024-03-30T04:15:00",12.6,29.873123,0.198],
    [16253,"urn:WaterMeter:MC0203J22010600005","2024-03-30T04:30:00",12.5,29.883984,0.204],
    [16254,"urn:WaterMeter:MC0203J22010600005","2024-03-30T04:45:00",12.5,29.81998,0.201],
    [16255,"urn:WaterMeter:MC0203J22010600005","2024-03-30T05:00:00",12.399,29.852951,0.198],
    [16256,"urn:WaterMeter:MC0203J22010600005","2024-03-30T05:15:00",12.399,29.85718,0.202],
    [16257,"urn:WaterMeter:MC0203J22010600005","2024-03-30T05:30:00",12.3,29.84787,0.203],
    [16258,"urn:WaterMeter:MC0203J22010600005","2024-03-30T05:45:00",12.3,29.872347,0.2],
    [16259,"urn:WaterMeter:MC0203J22010600005","2024-03-30T06:00:00",12.199,29.870794,0.21],
    [16260,"urn:WaterMeter:MC0203J22010600005","2024-03-30T06:15:00",12.199,29.863424,0.199],
    [16261,"urn:WaterMeter:MC0203J22010600005","2024-03-30T06:30:00",12.1,29.87541,0.207],
    [16262,"urn:WaterMeter:MC0203J22010600005","2024-03-30T06:45:00",12.1,29.819553,0.206],
    [16263,"urn:WaterMeter:MC0203J22010600005","2024-03-30T07:00:00",12.1,29.878164,0.198],
    [16264,"urn:WaterMeter:MC0203J22010600005","2024-03-30T07:15:00",12.1,29.820368,0.196],
    [16265,"urn:WaterMeter:MC0203J22010600005","2024-03-30T07:30:00",12.199,29.856792,0.202],
    [16266,"urn:WaterMeter:MC0203J22010600005","2024-03-30T07:45:00",12.3,29.817614,0.189],
    [16267,"urn:WaterMeter:MC0203J22010600005","2024-03-30T08:00:00",12.399,29.821531,0.197],
    [16268,"urn:WaterMeter:MC0203J22010600005","2024-03-30T08:15:00",12.5,29.806015,0.194],
    [16269,"urn:WaterMeter:MC0203J22010600005","2024-03-30T08:30:00",12.6,29.800158,0.197],
    [16270,"urn:WaterMeter:MC0203J22010600005","2024-03-30T08:45:00",12.8,29.801361,0.199],
    [16271,"urn:WaterMeter:MC0203J22010600005","2024-03-30T09:00:00",13,29.775372,0.195],
    [16272,"urn:WaterMeter:MC0203J22010600005","2024-03-30T09:15:00",13.199,29.764898,0.192],
    [16273,"urn:WaterMeter:MC0203J22010600005","2024-03-30T09:30:00",13.399,29.723005,0.209],
    [16274,"urn:WaterMeter:MC0203J22010600005","2024-03-30T09:45:00",13.699,29.70008,0.196],
    [16275,"urn:WaterMeter:MC0203J22010600005","2024-03-30T10:00:00",14,29.644222,0.191],
    [16276,"urn:WaterMeter:MC0203J22010600005","2024-03-30T10:15:00",14.199,29.57444,0.201],
    [16277,"urn:WaterMeter:MC0203J22010600005","2024-03-30T10:30:00",14.5,29.582197,0.194],
    [16278,"urn:WaterMeter:MC0203J22010600005","2024-03-30T10:45:00",14.8,29.560863,0.192],
    [16279,"urn:WaterMeter:MC0203J22010600005","2024-03-30T11:00:00",15,29.53565,0.192],
    [16280,"urn:WaterMeter:MC0203J22010600005","2024-03-30T11:15:00",15.3,29.457682,0.19],
    [16281,"urn:WaterMeter:MC0203J22010600005","2024-03-30T11:30:00",15.5,29.462725,0.198],
    [16282,"urn:WaterMeter:MC0203J22010600005","2024-03-30T11:45:00",15.699,29.37661,0.195],
    [16283,"urn:WaterMeter:MC0203J22010600005","2024-03-30T12:00:00",15.8,29.38786,0.195],
    [16284,"urn:WaterMeter:MC0203J22010600005","2024-03-30T12:15:00",15.899,29.353685,0.188],
    [16285,"urn:WaterMeter:MC0203J22010600005","2024-03-30T12:30:00",16,29.283903,0.184],
    [16286,"urn:WaterMeter:MC0203J22010600005","2024-03-30T12:45:00",16.1,29.281963,0.203],
    [16287,"urn:WaterMeter:MC0203J22010600005","2024-03-30T13:00:00",16.2,29.24356,0.187],
    [16288,"urn:WaterMeter:MC0203J22010600005","2024-03-30T13:15:00",16.2,29.219124,0.201],
    [16289,"urn:WaterMeter:MC0203J22010600005","2024-03-30T13:30:00",16.1,29.202055,0.196],
    [16290,"urn:WaterMeter:MC0203J22010600005","2024-03-30T13:45:00",16.1,29.153568,0.198],
    [16291,"urn:WaterMeter:MC0203J22010600005","2024-03-30T14:00:00",16.1,29.138788,0.191],
    [16292,"urn:WaterMeter:MC0203J22010600005","2024-03-30T14:15:00",15.899,29.138014,0.191],
    [16293,"urn:WaterMeter:MC0203J22010600005","2024-03-30T14:30:00",15.899,29.099222,0.192],
    [16294,"urn:WaterMeter:MC0203J22010600005","2024-03-30T14:45:00",15.899,29.143095,0.193],
    [16295,"urn:WaterMeter:MC0203J22010600005","2024-03-30T15:00:00",15.8,29.089952,0.189],
    [16296,"urn:WaterMeter:MC0203J22010600005","2024-03-30T15:15:00",15.8,29.092667,0.197],
    [16297,"urn:WaterMeter:MC0203J22010600005","2024-03-30T15:30:00",15.699,29.07944,0.187],
    [16298,"urn:WaterMeter:MC0203J22010600005","2024-03-30T15:45:00",15.6,29.05,0.19],
    [16299,"urn:WaterMeter:MC0203J22010600005","2024-03-30T16:00:00",15.6,29.082155,0.192],
    [16300,"urn:WaterMeter:MC0203J22010600005","2024-03-30T16:15:00",15.5,29.014273,0.191],
    [16301,"urn:WaterMeter:MC0203J22010600005","2024-03-30T16:30:00",15.5,29.015476,0.185],
    [16302,"urn:WaterMeter:MC0203J22010600005","2024-03-30T16:45:00",15.399,29.039526,0.191],
    [16303,"urn:WaterMeter:MC0203J22010600005","2024-03-30T17:00:00",15.3,29.021255,0.202],
    [16304,"urn:WaterMeter:MC0203J22010600005","2024-03-30T17:15:00",15.199,29.0038,0.189],
    [16305,"urn:WaterMeter:MC0203J22010600005","2024-03-30T17:30:00",15.1,28.994102,0.188],
    [16306,"urn:WaterMeter:MC0203J22010600005","2024-03-30T17:45:00",15.1,29.022032,0.195],
    [16307,"urn:WaterMeter:MC0203J22010600005","2024-03-30T18:00:00",15,28.982077,0.193],
    [16308,"urn:WaterMeter:MC0203J22010600005","2024-03-30T18:15:00",14.899,28.979013,0.199],
    [16309,"urn:WaterMeter:MC0203J22010600005","2024-03-30T18:30:00",14.899,28.977074,0.212],
    [16310,"urn:WaterMeter:MC0203J22010600005","2024-03-30T18:45:00",14.8,28.97203,0.192],
    [16311,"urn:WaterMeter:MC0203J22010600005","2024-03-30T19:00:00",14.8,28.94061,0.191],
    [16312,"urn:WaterMeter:MC0203J22010600005","2024-03-30T19:15:00",14.699,28.960005,0.185],
    [16313,"urn:WaterMeter:MC0203J22010600005","2024-03-30T19:30:00",14.699,28.947205,0.194],
    [16314,"urn:WaterMeter:MC0203J22010600005","2024-03-30T19:45:00",14.6,28.96117,0.195],
    [16315,"urn:WaterMeter:MC0203J22010600005","2024-03-30T20:00:00",14.5,28.954575,0.192],
    [16316,"urn:WaterMeter:MC0203J22010600005","2024-03-30T20:15:00",14.5,28.928198,0.194],
    [16317,"urn:WaterMeter:MC0203J22010600005","2024-03-30T20:30:00",14.399,28.97587,0.188],
    [16318,"urn:WaterMeter:MC0203J22010600005","2024-03-30T20:45:00",14.3,28.93553,0.192],
    [16319,"urn:WaterMeter:MC0203J22010600005","2024-03-30T21:00:00",14.3,28.923155,0.188],
    [16320,"urn:WaterMeter:MC0203J22010600005","2024-03-30T21:15:00",14.199,28.876608,0.183],
    [16321,"urn:WaterMeter:MC0203J22010600005","2024-03-30T21:30:00",14.199,28.874279,0.188],
    [16322,"urn:WaterMeter:MC0203J22010600005","2024-03-30T21:45:00",14.1,28.897903,0.191],
    [16323,"urn:WaterMeter:MC0203J22010600005","2024-03-30T22:00:00",14,28.900658,0.195],
    [16324,"urn:WaterMeter:MC0203J22010600005","2024-03-30T22:15:00",14,28.897514,0.192],
    [16325,"urn:WaterMeter:MC0203J22010600005","2024-03-30T22:30:00",13.899,28.908415,0.193],
    [16326,"urn:WaterMeter:MC0203J22010600005","2024-03-30T22:45:00",13.8,28.92622,0.186],
    [16327,"urn:WaterMeter:MC0203J22010600005","2024-03-30T23:00:00",13.8,28.930138,0.187],
    [16328,"urn:WaterMeter:MC0203J22010600005","2024-03-30T23:15:00",13.699,28.876219,0.194],
    [16329,"urn:WaterMeter:MC0203J22010600005","2024-03-30T23:30:00",13.6,28.904497,0.195],
    [16330,"urn:WaterMeter:MC0203J22010600005","2024-03-30T23:45:00",13.6,28.94061,0.189],
    [16331,"urn:WaterMeter:MC0203J22010600005","2024-03-31T00:00:00",13.5,28.911518,0.198],
    [16332,"urn:WaterMeter:MC0203J22010600005","2024-03-31T00:15:00",13.5,28.908802,0.19],
    [16333,"urn:WaterMeter:MC0203J22010600005","2024-03-31T00:30:00",13.399,28.901821,0.19],
    [16334,"urn:WaterMeter:MC0203J22010600005","2024-03-31T00:45:00",13.399,28.870012,0.191],
    [16335,"urn:WaterMeter:MC0203J22010600005","2024-03-31T01:00:00",13.3,28.867258,0.185],
    [16336,"urn:WaterMeter:MC0203J22010600005","2024-03-31T01:15:00",13.199,28.84286,0.191],
    [16337,"urn:WaterMeter:MC0203J22010600005","2024-03-31T01:30:00",13.1,28.902208,0.191],
    [16338,"urn:WaterMeter:MC0203J22010600005","2024-03-31T01:45:00",13,28.863419,0.191],
    [16339,"urn:WaterMeter:MC0203J22010600005","2024-03-31T02:00:00",12.899,28.916523,0.194],
    [16340,"urn:WaterMeter:MC0203J22010600005","2024-03-31T02:15:00",12.8,28.86881,0.191],
    [16341,"urn:WaterMeter:MC0203J22010600005","2024-03-31T02:30:00",12.699,28.887817,0.188],
    [16342,"urn:WaterMeter:MC0203J22010600005","2024-03-31T02:45:00",12.6,28.921604,0.193],
    [16343,"urn:WaterMeter:MC0203J22010600005","2024-03-31T03:00:00",12.5,28.902985,0.192],
    [16344,"urn:WaterMeter:MC0203J22010600005","2024-03-31T03:15:00",12.5,28.854885,0.183],
    [16345,"urn:WaterMeter:MC0203J22010600005","2024-03-31T03:30:00",12.399,28.906437,0.187],
    [16346,"urn:WaterMeter:MC0203J22010600005","2024-03-31T03:45:00",12.399,28.921991,0.198],
    [16347,"urn:WaterMeter:MC0203J22010600005","2024-03-31T04:00:00",12.3,28.894838,0.196],
    [16348,"urn:WaterMeter:MC0203J22010600005","2024-03-31T04:15:00",12.3,28.897903,0.193],
    [16349,"urn:WaterMeter:MC0203J22010600005","2024-03-31T04:30:00",12.199,28.928585,0.186],
    [16350,"urn:WaterMeter:MC0203J22010600005","2024-03-31T04:45:00",12.199,28.861479,0.193],
    [16351,"urn:WaterMeter:MC0203J22010600005","2024-03-31T05:00:00",12.1,28.938284,0.19],
    [16352,"urn:WaterMeter:MC0203J22010600005","2024-03-31T05:15:00",12,28.896002,0.184],
    [16353,"urn:WaterMeter:MC0203J22010600005","2024-03-31T05:30:00",12,28.883202,0.195],
    [16354,"urn:WaterMeter:MC0203J22010600005","2024-03-31T05:45:00",12,28.910742,0.182],
    [16355,"urn:WaterMeter:MC0203J22010600005","2024-03-31T06:00:00",12.1,28.890959,0.185],
    [16356,"urn:WaterMeter:MC0203J22010600005","2024-03-31T06:15:00",12.1,28.859114,0.181],
    [16357,"urn:WaterMeter:MC0203J22010600005","2024-03-31T06:30:00",12.199,28.900269,0.184],
    [16358,"urn:WaterMeter:MC0203J22010600005","2024-03-31T06:45:00",12.199,28.875055,0.187],
    [16359,"urn:WaterMeter:MC0203J22010600005","2024-03-31T07:00:00",12.199,28.834715,0.185],
    [16360,"urn:WaterMeter:MC0203J22010600005","2024-03-31T07:15:00",12.3,28.867647,0.194],
    [16361,"urn:WaterMeter:MC0203J22010600005","2024-03-31T07:30:00",12.399,28.79282,0.193],
    [16362,"urn:WaterMeter:MC0203J22010600005","2024-03-31T07:45:00",12.5,28.817259,0.194],
    [16363,"urn:WaterMeter:MC0203J22010600005","2024-03-31T08:00:00",12.699,28.821913,0.189],
    [16364,"urn:WaterMeter:MC0203J22010600005","2024-03-31T08:15:00",12.8,28.80601,0.184],
    [16365,"urn:WaterMeter:MC0203J22010600005","2024-03-31T08:30:00",12.899,28.81144,0.177],
    [16366,"urn:WaterMeter:MC0203J22010600005","2024-03-31T08:45:00",13,28.803682,0.192],
    [16367,"urn:WaterMeter:MC0203J22010600005","2024-03-31T09:00:00",13.1,28.77653,0.181],
    [16368,"urn:WaterMeter:MC0203J22010600005","2024-03-31T09:15:00",13.199,28.729206,0.182],
    [16369,"urn:WaterMeter:MC0203J22010600005","2024-03-31T09:30:00",13.399,28.773037,0.187],
    [16370,"urn:WaterMeter:MC0203J22010600005","2024-03-31T09:45:00",13.5,28.733046,0.188],
    [16371,"urn:WaterMeter:MC0203J22010600005","2024-03-31T10:00:00",13.699,28.720284,0.183],
    [16372,"urn:WaterMeter:MC0203J22010600005","2024-03-31T10:15:00",13.8,28.69895,0.185],
    [16373,"urn:WaterMeter:MC0203J22010600005","2024-03-31T10:30:00",13.899,28.724937,0.186],
    [16374,"urn:WaterMeter:MC0203J22010600005","2024-03-31T10:45:00",14,28.69895,0.183],
    [16375,"urn:WaterMeter:MC0203J22010600005","2024-03-31T11:00:00",14.1,28.692316,0.185],
    [16376,"urn:WaterMeter:MC0203J22010600005","2024-03-31T11:15:00",14.3,28.636885,0.181],
    [16377,"urn:WaterMeter:MC0203J22010600005","2024-03-31T11:30:00",14.6,28.662487,0.185],
    [16378,"urn:WaterMeter:MC0203J22010600005","2024-03-31T11:45:00",14.899,28.603914,0.194],
    [16379,"urn:WaterMeter:MC0203J22010600005","2024-03-31T12:00:00",15.199,28.583742,0.179],
    [16380,"urn:WaterMeter:MC0203J22010600005","2024-03-31T12:15:00",15.5,28.564348,0.18],
    [16381,"urn:WaterMeter:MC0203J22010600005","2024-03-31T12:30:00",15.699,28.517372,0.182],
    [16382,"urn:WaterMeter:MC0203J22010600005","2024-03-31T12:45:00",15.8,28.483664,0.181],
    [16383,"urn:WaterMeter:MC0203J22010600005","2024-03-31T13:00:00",15.8,28.443323,0.177],
    [16384,"urn:WaterMeter:MC0203J22010600005","2024-03-31T13:15:00",15.699,28.4344,0.181],
    [16385,"urn:WaterMeter:MC0203J22010600005","2024-03-31T13:30:00",15.6,28.423113,0.188],
    [16386,"urn:WaterMeter:MC0203J22010600005","2024-03-31T13:45:00",15.5,28.432035,0.186],
    [16387,"urn:WaterMeter:MC0203J22010600005","2024-03-31T14:00:00",15.3,28.41772,0.18],
    [16388,"urn:WaterMeter:MC0203J22010600005","2024-03-31T14:15:00",15.3,28.426643,0.182],
    [16389,"urn:WaterMeter:MC0203J22010600005","2024-03-31T14:30:00",15.1,28.450655,0.19],
    [16390,"urn:WaterMeter:MC0203J22010600005","2024-03-31T14:45:00",15,28.41074,0.176],
    [16391,"urn:WaterMeter:MC0203J22010600005","2024-03-31T15:00:00",14.899,28.418884,0.193],
    [16392,"urn:WaterMeter:MC0203J22010600005","2024-03-31T15:15:00",14.899,28.414618,0.182],
    [16393,"urn:WaterMeter:MC0203J22010600005","2024-03-31T15:30:00",14.8,28.43673,0.185],
    [16394,"urn:WaterMeter:MC0203J22010600005","2024-03-31T15:45:00",14.8,28.41423,0.174],
    [16395,"urn:WaterMeter:MC0203J22010600005","2024-03-31T16:00:00",14.899,28.41264,0.181],
    [16396,"urn:WaterMeter:MC0203J22010600005","2024-03-31T16:15:00",14.899,28.38475,0.186],
    [16397,"urn:WaterMeter:MC0203J22010600005","2024-03-31T16:30:00",14.8,28.39018,0.182],
    [16398,"urn:WaterMeter:MC0203J22010600005","2024-03-31T16:45:00",14.899,28.370785,0.186],
    [16399,"urn:WaterMeter:MC0203J22010600005","2024-03-31T17:00:00",14.899,28.407248,0.179],
    [16400,"urn:WaterMeter:MC0203J22010600005","2024-03-31T17:15:00",14.8,28.383936,0.177],
    [16401,"urn:WaterMeter:MC0203J22010600005","2024-03-31T17:30:00",14.699,28.34437,0.186],
    [16402,"urn:WaterMeter:MC0203J22010600005","2024-03-31T17:45:00",14.699,28.346348,0.18],
    [16403,"urn:WaterMeter:MC0203J22010600005","2024-03-31T18:00:00",14.6,28.375828,0.168],
    [16404,"urn:WaterMeter:MC0203J22010600005","2024-03-31T18:15:00",14.5,28.374237,0.187],
    [16405,"urn:WaterMeter:MC0203J22010600005","2024-03-31T18:30:00",14.3,28.383936,0.181],
    [16406,"urn:WaterMeter:MC0203J22010600005","2024-03-31T18:45:00",14.199,28.347511,0.183],
    [16407,"urn:WaterMeter:MC0203J22010600005","2024-03-31T19:00:00",14.1,28.325363,0.179],
    [16408,"urn:WaterMeter:MC0203J22010600005","2024-03-31T19:15:00",14,28.341305,0.186],
    [16409,"urn:WaterMeter:MC0203J22010600005","2024-03-31T19:30:00",13.899,28.354456,0.18],
    [16410,"urn:WaterMeter:MC0203J22010600005","2024-03-31T19:45:00",13.899,28.314152,0.181],
    [16411,"urn:WaterMeter:MC0203J22010600005","2024-03-31T20:00:00",13.8,28.368847,0.18],
    [16412,"urn:WaterMeter:MC0203J22010600005","2024-03-31T20:15:00",13.699,28.328505,0.188],
    [16413,"urn:WaterMeter:MC0203J22010600005","2024-03-31T20:30:00",13.699,28.38475,0.19],
    [16414,"urn:WaterMeter:MC0203J22010600005","2024-03-31T20:45:00",13.6,28.36454,0.186],
    [16415,"urn:WaterMeter:MC0203J22010600005","2024-03-31T21:00:00",13.5,28.349064,0.186],
    [16416,"urn:WaterMeter:MC0203J22010600005","2024-03-31T21:15:00",13.5,28.342043,0.184],
    [16417,"urn:WaterMeter:MC0203J22010600005","2024-03-31T21:30:00",13.5,28.337814,0.183],
    [16418,"urn:WaterMeter:MC0203J22010600005","2024-03-31T21:45:00",13.399,28.342043,0.189],
    [16419,"urn:WaterMeter:MC0203J22010600005","2024-03-31T22:00:00",13.3,28.340528,0.19],
    [16420,"urn:WaterMeter:MC0203J22010600005","2024-03-31T22:15:00",13.3,28.354843,0.189],
    [16421,"urn:WaterMeter:MC0203J22010600005","2024-03-31T22:30:00",13.199,28.337427,0.187],
    [16422,"urn:WaterMeter:MC0203J22010600005","2024-03-31T22:45:00",13.199,28.354843,0.188],
    [16423,"urn:WaterMeter:MC0203J22010600005","2024-03-31T23:00:00",13.1,28.376991,0.177],
    [16424,"urn:WaterMeter:MC0203J22010600005","2024-03-31T23:15:00",13.1,28.347511,0.188],
    [16425,"urn:WaterMeter:MC0203J22010600005","2024-03-31T23:30:00",13,28.32381,0.186],
    [16426,"urn:WaterMeter:MC0203J22010600005","2024-03-31T23:45:00",12.899,28.328892,0.198],
    [16427,"urn:WaterMeter:MC0203J22010600005","2024-04-01T00:00:00",12.8,28.342817,0.176],
    [16428,"urn:WaterMeter:MC0203J22010600005","2024-04-01T00:15:00",12.699,28.321522,0.174],
    [16429,"urn:WaterMeter:MC0203J22010600005","2024-04-01T00:30:00",12.6,28.3479,0.181],
    [16430,"urn:WaterMeter:MC0203J22010600005","2024-04-01T00:45:00",12.6,28.323423,0.186],
    [16431,"urn:WaterMeter:MC0203J22010600005","2024-04-01T01:00:00",12.5,28.330444,0.184],
    [16432,"urn:WaterMeter:MC0203J22010600005","2024-04-01T01:15:00",12.3,28.308334,0.178],
    [16433,"urn:WaterMeter:MC0203J22010600005","2024-04-01T01:30:00",12.199,28.301739,0.178],
    [16434,"urn:WaterMeter:MC0203J22010600005","2024-04-01T01:45:00",12.1,28.356434,0.178],
    [16435,"urn:WaterMeter:MC0203J22010600005","2024-04-01T02:00:00",12,28.322298,0.18],
    [16436,"urn:WaterMeter:MC0203J22010600005","2024-04-01T02:15:00",11.899,28.30364,0.181],
    [16437,"urn:WaterMeter:MC0203J22010600005","2024-04-01T02:30:00",11.8,28.38316,0.175],
    [16438,"urn:WaterMeter:MC0203J22010600005","2024-04-01T02:45:00",11.699,28.375053,0.179],
    [16439,"urn:WaterMeter:MC0203J22010600005","2024-04-01T03:00:00",11.6,28.342043,0.183],
    [16440,"urn:WaterMeter:MC0203J22010600005","2024-04-01T03:15:00",11.5,28.3607,0.179],
    [16441,"urn:WaterMeter:MC0203J22010600005","2024-04-01T03:30:00",11.399,28.36613,0.179],
    [16442,"urn:WaterMeter:MC0203J22010600005","2024-04-01T03:45:00",11.3,28.337038,0.181],
    [16443,"urn:WaterMeter:MC0203J22010600005","2024-04-01T04:00:00",11.199,28.352942,0.176],
    [16444,"urn:WaterMeter:MC0203J22010600005","2024-04-01T04:15:00",11.1,28.351004,0.185],
    [16445,"urn:WaterMeter:MC0203J22010600005","2024-04-01T04:30:00",11.1,28.327341,0.187],
    [16446,"urn:WaterMeter:MC0203J22010600005","2024-04-01T04:45:00",11,28.3242,0.187],
    [16447,"urn:WaterMeter:MC0203J22010600005","2024-04-01T05:00:00",10.899,28.362213,0.177],
    [16448,"urn:WaterMeter:MC0203J22010600005","2024-04-01T05:15:00",10.899,28.349451,0.175],
    [16449,"urn:WaterMeter:MC0203J22010600005","2024-04-01T05:30:00",10.899,28.334284,0.168],
    [16450,"urn:WaterMeter:MC0203J22010600005","2024-04-01T05:45:00",10.8,28.359148,0.175],
    [16451,"urn:WaterMeter:MC0203J22010600005","2024-04-01T06:00:00",10.8,28.328117,0.175],
    [16452,"urn:WaterMeter:MC0203J22010600005","2024-04-01T06:15:00",10.699,28.335447,0.183],
    [16453,"urn:WaterMeter:MC0203J22010600005","2024-04-01T06:30:00",10.6,28.358374,0.181],
    [16454,"urn:WaterMeter:MC0203J22010600005","2024-04-01T06:45:00",10.5,28.35368,0.177],
    [16455,"urn:WaterMeter:MC0203J22010600005","2024-04-01T07:00:00",10.5,28.372337,0.188],
    [16456,"urn:WaterMeter:MC0203J22010600005","2024-04-01T07:15:00",10.8,28.37195,0.174],
    [16457,"urn:WaterMeter:MC0203J22010600005","2024-04-01T07:30:00",11,28.371174,0.179],
    [16458,"urn:WaterMeter:MC0203J22010600005","2024-04-01T07:45:00",11.3,28.399103,0.18],
    [16459,"urn:WaterMeter:MC0203J22010600005","2024-04-01T08:00:00",11.5,28.518148,0.188],
    [16460,"urn:WaterMeter:MC0203J22010600005","2024-04-01T08:15:00",11.699,29.310667,0.196],
    [16461,"urn:WaterMeter:MC0203J22010600005","2024-04-01T08:30:00",11.899,30.107374,0.207],
    [16462,"urn:WaterMeter:MC0203J22010600005","2024-04-01T08:45:00",12.199,30.651987,0.203],
    [16463,"urn:WaterMeter:MC0203J22010600005","2024-04-01T09:00:00",12.399,31.034107,0.214],
    [16464,"urn:WaterMeter:MC0203J22010600005","2024-04-01T09:15:00",12.699,31.06863,0.228],
    [16465,"urn:WaterMeter:MC0203J22010600005","2024-04-01T09:30:00",12.899,31.001097,0.216],
    [16466,"urn:WaterMeter:MC0203J22010600005","2024-04-01T09:45:00",13.199,30.97278,0.22],
    [16467,"urn:WaterMeter:MC0203J22010600005","2024-04-01T10:00:00",13.399,30.933214,0.21],
    [16468,"urn:WaterMeter:MC0203J22010600005","2024-04-01T10:15:00",13.699,30.884338,0.212],
    [16469,"urn:WaterMeter:MC0203J22010600005","2024-04-01T10:30:00",13.899,30.811453,0.221],
    [16470,"urn:WaterMeter:MC0203J22010600005","2024-04-01T10:45:00",14.1,30.78814,0.214],
    [16471,"urn:WaterMeter:MC0203J22010600005","2024-04-01T11:00:00",14.3,30.759047,0.204],
    [16472,"urn:WaterMeter:MC0203J22010600005","2024-04-01T11:15:00",14.5,30.681854,0.213],
    [16473,"urn:WaterMeter:MC0203J22010600005","2024-04-01T11:30:00",14.699,30.685385,0.21],
    [16474,"urn:WaterMeter:MC0203J22010600005","2024-04-01T11:45:00",14.8,30.650434,0.219],
    [16475,"urn:WaterMeter:MC0203J22010600005","2024-04-01T12:00:00",14.899,30.615562,0.221],
    [16476,"urn:WaterMeter:MC0203J22010600005","2024-04-01T12:15:00",15.1,30.587635,0.217],
    [16477,"urn:WaterMeter:MC0203J22010600005","2024-04-01T12:30:00",15.3,30.544577,0.205],
    [16478,"urn:WaterMeter:MC0203J22010600005","2024-04-01T12:45:00",15.399,30.495275,0.224],
    [16479,"urn:WaterMeter:MC0203J22010600005","2024-04-01T13:00:00",15.5,30.49066,0.211],
    [16480,"urn:WaterMeter:MC0203J22010600005","2024-04-01T13:15:00",15.6,30.428595,0.217],
    [16481,"urn:WaterMeter:MC0203J22010600005","2024-04-01T13:30:00",15.6,30.387478,0.215],
    [16482,"urn:WaterMeter:MC0203J22010600005","2024-04-01T13:45:00",15.8,30.416958,0.215],
    [16483,"urn:WaterMeter:MC0203J22010600005","2024-04-01T14:00:00",16,30.380844,0.202],
    [16484,"urn:WaterMeter:MC0203J22010600005","2024-04-01T14:15:00",16.2,30.331232,0.212],
    [16485,"urn:WaterMeter:MC0203J22010600005","2024-04-01T14:30:00",16.299,30.282318,0.218],
    [16486,"urn:WaterMeter:MC0203J22010600005","2024-04-01T14:45:00",16.299,30.279253,0.215],
    [16487,"urn:WaterMeter:MC0203J22010600005","2024-04-01T15:00:00",16.399,30.234995,0.207],
    [16488,"urn:WaterMeter:MC0203J22010600005","2024-04-01T15:15:00",16.399,30.199347,0.203],
    [16489,"urn:WaterMeter:MC0203J22010600005","2024-04-01T15:30:00",16.399,30.198183,0.204],
    [16490,"urn:WaterMeter:MC0203J22010600005","2024-04-01T15:45:00",16.5,30.122541,0.205],
    [16491,"urn:WaterMeter:MC0203J22010600005","2024-04-01T16:00:00",16.5,30.108927,0.205],
    [16492,"urn:WaterMeter:MC0203J22010600005","2024-04-01T16:15:00",16.399,30.076769,0.207],
    [16493,"urn:WaterMeter:MC0203J22010600005","2024-04-01T16:30:00",16.299,30.102758,0.207],
    [16494,"urn:WaterMeter:MC0203J22010600005","2024-04-01T16:45:00",16.299,30.069748,0.204],
    [16495,"urn:WaterMeter:MC0203J22010600005","2024-04-01T17:00:00",16.2,30.077158,0.22],
    [16496,"urn:WaterMeter:MC0203J22010600005","2024-04-01T17:15:00",16.2,30.033325,0.209],
    [16497,"urn:WaterMeter:MC0203J22010600005","2024-04-01T17:30:00",16.1,30.041431,0.208],
    [16498,"urn:WaterMeter:MC0203J22010600005","2024-04-01T17:45:00",16.1,30.043798,0.202],
    [16499,"urn:WaterMeter:MC0203J22010600005","2024-04-01T18:00:00",16,30.000353,0.204],
    [16500,"urn:WaterMeter:MC0203J22010600005","2024-04-01T18:15:00",15.899,29.990618,0.206],
    [16501,"urn:WaterMeter:MC0203J22010600005","2024-04-01T18:30:00",15.8,30.00656,0.213],
    [16502,"urn:WaterMeter:MC0203J22010600005","2024-04-01T18:45:00",15.699,30.030958,0.202],
    [16503,"urn:WaterMeter:MC0203J22010600005","2024-04-01T19:00:00",15.5,30.017809,0.213],
    [16504,"urn:WaterMeter:MC0203J22010600005","2024-04-01T19:15:00",15.399,30.0104,0.203],
    [16505,"urn:WaterMeter:MC0203J22010600005","2024-04-01T19:30:00",15.3,29.97708,0.209],
    [16506,"urn:WaterMeter:MC0203J22010600005","2024-04-01T19:45:00",15.3,29.979406,0.207],
    [16507,"urn:WaterMeter:MC0203J22010600005","2024-04-01T20:00:00",15.199,29.995699,0.217],
    [16508,"urn:WaterMeter:MC0203J22010600005","2024-04-01T20:15:00",15.1,29.960787,0.206],
    [16509,"urn:WaterMeter:MC0203J22010600005","2024-04-01T20:30:00",15,29.962727,0.207],
    [16510,"urn:WaterMeter:MC0203J22010600005","2024-04-01T20:45:00",14.899,29.931307,0.208],
    [16511,"urn:WaterMeter:MC0203J22010600005","2024-04-01T21:00:00",14.899,29.977467,0.21],
    [16512,"urn:WaterMeter:MC0203J22010600005","2024-04-01T21:15:00",14.8,29.93829,0.212],
    [16513,"urn:WaterMeter:MC0203J22010600005","2024-04-01T21:30:00",14.699,29.950314,0.212],
    [16514,"urn:WaterMeter:MC0203J22010600005","2024-04-01T21:45:00",14.6,29.944845,0.204],
    [16515,"urn:WaterMeter:MC0203J22010600005","2024-04-01T22:00:00",14.5,29.900276,0.208],
    [16516,"urn:WaterMeter:MC0203J22010600005","2024-04-01T22:15:00",14.3,29.97902,0.211],
    [16517,"urn:WaterMeter:MC0203J22010600005","2024-04-01T22:30:00",14.199,29.94217,0.21],
    [16518,"urn:WaterMeter:MC0203J22010600005","2024-04-01T22:45:00",14.1,29.958849,0.204],
    [16519,"urn:WaterMeter:MC0203J22010600005","2024-04-01T23:00:00",13.899,29.924675,0.199],
    [16520,"urn:WaterMeter:MC0203J22010600005","2024-04-01T23:15:00",13.8,29.954931,0.204],
    [16521,"urn:WaterMeter:MC0203J22010600005","2024-04-01T23:30:00",13.699,29.955746,0.215],
    [16522,"urn:WaterMeter:MC0203J22010600005","2024-04-01T23:45:00",13.6,29.973938,0.203],
    [16523,"urn:WaterMeter:MC0203J22010600005","2024-04-02T00:00:00",13.5,29.975916,0.204],
    [16524,"urn:WaterMeter:MC0203J22010600005","2024-04-02T00:15:00",13.399,29.93282,0.213],
    [16525,"urn:WaterMeter:MC0203J22010600005","2024-04-02T00:30:00",13.3,29.961176,0.204],
    [16526,"urn:WaterMeter:MC0203J22010600005","2024-04-02T00:45:00",13.199,29.965015,0.202],
    [16527,"urn:WaterMeter:MC0203J22010600005","2024-04-02T01:00:00",13.1,29.93635,0.208],
    [16528,"urn:WaterMeter:MC0203J22010600005","2024-04-02T01:15:00",13,29.958073,0.201],
    [16529,"urn:WaterMeter:MC0203J22010600005","2024-04-02T01:30:00",12.899,29.971998,0.201],
    [16530,"urn:WaterMeter:MC0203J22010600005","2024-04-02T01:45:00",12.8,29.944845,0.206],
    [16531,"urn:WaterMeter:MC0203J22010600005","2024-04-02T02:00:00",12.699,29.919283,0.204],
    [16532,"urn:WaterMeter:MC0203J22010600005","2024-04-02T02:15:00",12.6,29.98057,0.203],
    [16533,"urn:WaterMeter:MC0203J22010600005","2024-04-02T02:30:00",12.5,29.968546,0.203],
    [16534,"urn:WaterMeter:MC0203J22010600005","2024-04-02T02:45:00",12.399,29.961563,0.211],
    [16535,"urn:WaterMeter:MC0203J22010600005","2024-04-02T03:00:00",12.3,29.955318,0.208],
    [16536,"urn:WaterMeter:MC0203J22010600005","2024-04-02T03:15:00",12.199,29.92545,0.199],
    [16537,"urn:WaterMeter:MC0203J22010600005","2024-04-02T03:30:00",12.199,29.926653,0.199],
    [16538,"urn:WaterMeter:MC0203J22010600005","2024-04-02T03:45:00",12.1,29.94023,0.212],
    [16539,"urn:WaterMeter:MC0203J22010600005","2024-04-02T04:00:00",12,29.960012,0.205],
    [16540,"urn:WaterMeter:MC0203J22010600005","2024-04-02T04:15:00",11.899,29.980959,0.211],
    [16541,"urn:WaterMeter:MC0203J22010600005","2024-04-02T04:30:00",11.8,29.920057,0.207],
    [16542,"urn:WaterMeter:MC0203J22010600005","2024-04-02T04:45:00",11.699,29.993332,0.207],
    [16543,"urn:WaterMeter:MC0203J22010600005","2024-04-02T05:00:00",11.699,29.93282,0.212],
    [16544,"urn:WaterMeter:MC0203J22010600005","2024-04-02T05:15:00",11.6,29.929756,0.219],
    [16545,"urn:WaterMeter:MC0203J22010600005","2024-04-02T05:30:00",11.5,29.92355,0.206],
    [16546,"urn:WaterMeter:MC0203J22010600005","2024-04-02T05:45:00",11.399,29.987165,0.208],
    [16547,"urn:WaterMeter:MC0203J22010600005","2024-04-02T06:00:00",11.199,29.938677,0.206],
    [16548,"urn:WaterMeter:MC0203J22010600005","2024-04-02T06:15:00",11.199,29.963852,0.213],
    [16549,"urn:WaterMeter:MC0203J22010600005","2024-04-02T06:30:00",11.1,29.908033,0.204],
    [16550,"urn:WaterMeter:MC0203J22010600005","2024-04-02T06:45:00",11.1,29.936737,0.213],
    [16551,"urn:WaterMeter:MC0203J22010600005","2024-04-02T07:00:00",11.1,29.921997,0.206],
    [16552,"urn:WaterMeter:MC0203J22010600005","2024-04-02T07:15:00",11.1,29.96583,0.203],
    [16553,"urn:WaterMeter:MC0203J22010600005","2024-04-02T07:30:00",11.199,29.922773,0.214],
    [16554,"urn:WaterMeter:MC0203J22010600005","2024-04-02T07:45:00",11.399,29.890966,0.194],
    [16555,"urn:WaterMeter:MC0203J22010600005","2024-04-02T08:00:00",11.6,29.913036,0.191],
    [16556,"urn:WaterMeter:MC0203J22010600005","2024-04-02T08:15:00",11.699,29.890966,0.209],
    [16557,"urn:WaterMeter:MC0203J22010600005","2024-04-02T08:30:00",12,29.893642,0.206],
    [16558,"urn:WaterMeter:MC0203J22010600005","2024-04-02T08:45:00",12.3,29.871958,0.201],
    [16559,"urn:WaterMeter:MC0203J22010600005","2024-04-02T09:00:00",12.6,29.823858,0.208],
    [16560,"urn:WaterMeter:MC0203J22010600005","2024-04-02T09:15:00",12.899,29.821531,0.193],
    [16561,"urn:WaterMeter:MC0203J22010600005","2024-04-02T09:30:00",13.199,29.754425,0.196],
    [16562,"urn:WaterMeter:MC0203J22010600005","2024-04-02T09:45:00",13.5,29.684216,0.191],
    [16563,"urn:WaterMeter:MC0203J22010600005","2024-04-02T10:00:00",13.899,29.695463,0.198],
    [16564,"urn:WaterMeter:MC0203J22010600005","2024-04-02T10:15:00",14.199,29.675682,0.193],
    [16565,"urn:WaterMeter:MC0203J22010600005","2024-04-02T10:30:00",14.399,29.628746,0.201],
    [16566,"urn:WaterMeter:MC0203J22010600005","2024-04-02T10:45:00",14.699,29.538326,0.198],
    [16567,"urn:WaterMeter:MC0203J22010600005","2024-04-02T11:00:00",15,29.553493,0.192],
    [16568,"urn:WaterMeter:MC0203J22010600005","2024-04-02T11:15:00",15.3,29.524788,0.191],
    [16569,"urn:WaterMeter:MC0203J22010600005","2024-04-02T11:30:00",15.5,29.43049,0.214],
    [16570,"urn:WaterMeter:MC0203J22010600005","2024-04-02T11:45:00",15.8,29.36032,0.189],
    [16571,"urn:WaterMeter:MC0203J22010600005","2024-04-02T12:00:00",15.899,29.357216,0.196],
    [16572,"urn:WaterMeter:MC0203J22010600005","2024-04-02T12:15:00",16.1,29.30252,0.203],
    [16573,"urn:WaterMeter:MC0203J22010600005","2024-04-02T12:30:00",16.299,29.27149,0.194],
    [16574,"urn:WaterMeter:MC0203J22010600005","2024-04-02T12:45:00",16.5,29.241621,0.199],
    [16575,"urn:WaterMeter:MC0203J22010600005","2024-04-02T13:00:00",16.7,29.178354,0.199],
    [16576,"urn:WaterMeter:MC0203J22010600005","2024-04-02T13:15:00",16.799,29.180721,0.191],
    [16577,"urn:WaterMeter:MC0203J22010600005","2024-04-02T13:30:00",16.899,29.134172,0.198],
    [16578,"urn:WaterMeter:MC0203J22010600005","2024-04-02T13:45:00",17,29.092667,0.194],
    [16579,"urn:WaterMeter:MC0203J22010600005","2024-04-02T14:00:00",17.1,29.052288,0.185],
    [16580,"urn:WaterMeter:MC0203J22010600005","2024-04-02T14:15:00",17.1,29.000734,0.19],
    [16581,"urn:WaterMeter:MC0203J22010600005","2024-04-02T14:30:00",17.1,28.998407,0.191],
    [16582,"urn:WaterMeter:MC0203J22010600005","2024-04-02T14:45:00",17.1,28.966988,0.194],
    [16583,"urn:WaterMeter:MC0203J22010600005","2024-04-02T15:00:00",17.1,28.914621,0.204],
    [16584,"urn:WaterMeter:MC0203J22010600005","2024-04-02T15:15:00",17.1,28.901821,0.192],
    [16585,"urn:WaterMeter:MC0203J22010600005","2024-04-02T15:30:00",17.1,28.897514,0.199],
    [16586,"urn:WaterMeter:MC0203J22010600005","2024-04-02T15:45:00",17,28.838205,0.195],
    [16587,"urn:WaterMeter:MC0203J22010600005","2024-04-02T16:00:00",17,28.845575,0.201],
    [16588,"urn:WaterMeter:MC0203J22010600005","2024-04-02T16:15:00",17,28.844799,0.197],
    [16589,"urn:WaterMeter:MC0203J22010600005","2024-04-02T16:30:00",16.899,28.837818,0.197],
    [16590,"urn:WaterMeter:MC0203J22010600005","2024-04-02T16:45:00",16.899,28.791618,0.192],
    [16591,"urn:WaterMeter:MC0203J22010600005","2024-04-02T17:00:00",16.799,28.74472,0.191],
    [16592,"urn:WaterMeter:MC0203J22010600005","2024-04-02T17:15:00",16.799,28.766443,0.193],
    [16593,"urn:WaterMeter:MC0203J22010600005","2024-04-02T17:30:00",16.799,28.747437,0.199],
    [16594,"urn:WaterMeter:MC0203J22010600005","2024-04-02T17:45:00",16.7,28.760626,0.195],
    [16595,"urn:WaterMeter:MC0203J22010600005","2024-04-02T18:00:00",16.7,28.716793,0.195],
    [16596,"urn:WaterMeter:MC0203J22010600005","2024-04-02T18:15:00",16.6,28.667917,0.196],
    [16597,"urn:WaterMeter:MC0203J22010600005","2024-04-02T18:30:00",16.5,28.688864,0.191],
    [16598,"urn:WaterMeter:MC0203J22010600005","2024-04-02T18:45:00",16.399,28.688087,0.194],
    [16599,"urn:WaterMeter:MC0203J22010600005","2024-04-02T19:00:00",16.299,28.692703,0.192],
    [16600,"urn:WaterMeter:MC0203J22010600005","2024-04-02T19:15:00",16.2,28.690804,0.193],
    [16601,"urn:WaterMeter:MC0203J22010600005","2024-04-02T19:30:00",16.1,28.676838,0.184],
    [16602,"urn:WaterMeter:MC0203J22010600005","2024-04-02T19:45:00",16,28.650074,0.189],
    [16603,"urn:WaterMeter:MC0203J22010600005","2024-04-02T20:00:00",15.899,28.637661,0.2],
    [16604,"urn:WaterMeter:MC0203J22010600005","2024-04-02T20:15:00",15.8,28.685373,0.194],
    [16605,"urn:WaterMeter:MC0203J22010600005","2024-04-02T20:30:00",15.699,28.679941,0.195],
    [16606,"urn:WaterMeter:MC0203J22010600005","2024-04-02T20:45:00",15.6,28.657055,0.19],
    [16607,"urn:WaterMeter:MC0203J22010600005","2024-04-02T21:00:00",15.5,28.697397,0.198],
    [16608,"urn:WaterMeter:MC0203J22010600005","2024-04-02T21:15:00",15.399,28.691153,0.194],
    [16609,"urn:WaterMeter:MC0203J22010600005","2024-04-02T21:30:00",15.199,28.679941,0.197],
    [16610,"urn:WaterMeter:MC0203J22010600005","2024-04-02T21:45:00",15.1,28.660547,0.194],
    [16611,"urn:WaterMeter:MC0203J22010600005","2024-04-02T22:00:00",15,28.652014,0.194],
    [16612,"urn:WaterMeter:MC0203J22010600005","2024-04-02T22:15:00",14.899,28.636457,0.191],
    [16613,"urn:WaterMeter:MC0203J22010600005","2024-04-02T22:30:00",14.8,28.693867,0.199],
    [16614,"urn:WaterMeter:MC0203J22010600005","2024-04-02T22:45:00",14.6,28.660934,0.196],
    [16615,"urn:WaterMeter:MC0203J22010600005","2024-04-02T23:00:00",14.5,28.650074,0.194],
    [16616,"urn:WaterMeter:MC0203J22010600005","2024-04-02T23:15:00",14.399,28.6877,0.203],
    [16617,"urn:WaterMeter:MC0203J22010600005","2024-04-02T23:30:00",14.199,28.668304,0.187],
    [16618,"urn:WaterMeter:MC0203J22010600005","2024-04-02T23:45:00",14.1,28.692316,0.202],
    [16619,"urn:WaterMeter:MC0203J22010600005","2024-04-03T00:00:00",14,28.677227,0.198],
    [16620,"urn:WaterMeter:MC0203J22010600005","2024-04-03T00:15:00",13.8,28.665977,0.199],
    [16621,"urn:WaterMeter:MC0203J22010600005","2024-04-03T00:30:00",13.699,28.709034,0.203],
    [16622,"urn:WaterMeter:MC0203J22010600005","2024-04-03T00:45:00",13.6,28.709034,0.202],
    [16623,"urn:WaterMeter:MC0203J22010600005","2024-04-03T01:00:00",13.5,28.70593,0.188],
    [16624,"urn:WaterMeter:MC0203J22010600005","2024-04-03T01:15:00",13.399,28.70279,0.194],
    [16625,"urn:WaterMeter:MC0203J22010600005","2024-04-03T01:30:00",13.199,28.697397,0.198],
    [16626,"urn:WaterMeter:MC0203J22010600005","2024-04-03T01:45:00",13.1,28.743132,0.195],
    [16627,"urn:WaterMeter:MC0203J22010600005","2024-04-03T02:00:00",13,28.690414,0.204],
    [16628,"urn:WaterMeter:MC0203J22010600005","2024-04-03T02:15:00",12.8,28.699724,0.195],
    [16629,"urn:WaterMeter:MC0203J22010600005","2024-04-03T02:30:00",12.8,28.714853,0.198],
    [16630,"urn:WaterMeter:MC0203J22010600005","2024-04-03T02:45:00",12.699,28.667528,0.188],
    [16631,"urn:WaterMeter:MC0203J22010600005","2024-04-03T03:00:00",12.6,28.710197,0.201],
    [16632,"urn:WaterMeter:MC0203J22010600005","2024-04-03T03:15:00",12.5,28.743132,0.189],
    [16633,"urn:WaterMeter:MC0203J22010600005","2024-04-03T03:30:00",12.399,28.742743,0.194],
    [16634,"urn:WaterMeter:MC0203J22010600005","2024-04-03T03:45:00",12.3,28.691153,0.197],
    [16635,"urn:WaterMeter:MC0203J22010600005","2024-04-03T04:00:00",12.199,28.69154,0.188],
    [16636,"urn:WaterMeter:MC0203J22010600005","2024-04-03T04:15:00",12.1,28.735023,0.189],
    [16637,"urn:WaterMeter:MC0203J22010600005","2024-04-03T04:30:00",12.1,28.720284,0.195],
    [16638,"urn:WaterMeter:MC0203J22010600005","2024-04-03T04:45:00",11.899,28.72649,0.193],
    [16639,"urn:WaterMeter:MC0203J22010600005","2024-04-03T05:00:00",11.8,28.750889,0.196],
    [16640,"urn:WaterMeter:MC0203J22010600005","2024-04-03T05:15:00",11.699,28.75442,0.188],
    [16641,"urn:WaterMeter:MC0203J22010600005","2024-04-03T05:30:00",11.6,28.750502,0.195],
    [16642,"urn:WaterMeter:MC0203J22010600005","2024-04-03T05:45:00",11.6,28.710936,0.188],
    [16643,"urn:WaterMeter:MC0203J22010600005","2024-04-03T06:00:00",11.5,28.743946,0.189],
    [16644,"urn:WaterMeter:MC0203J22010600005","2024-04-03T06:15:00",11.399,28.729942,0.2],
    [16645,"urn:WaterMeter:MC0203J22010600005","2024-04-03T06:30:00",11.399,28.721447,0.203],
    [16646,"urn:WaterMeter:MC0203J22010600005","2024-04-03T06:45:00",11.399,28.712486,0.19],
    [16647,"urn:WaterMeter:MC0203J22010600005","2024-04-03T07:00:00",11.399,28.72455,0.202],
    [16648,"urn:WaterMeter:MC0203J22010600005","2024-04-03T07:15:00",11.6,28.700113,0.189],
    [16649,"urn:WaterMeter:MC0203J22010600005","2024-04-03T07:30:00",11.899,28.672146,0.207],
    [16650,"urn:WaterMeter:MC0203J22010600005","2024-04-03T07:45:00",12.1,28.849804,0.191],
    [16651,"urn:WaterMeter:MC0203J22010600005","2024-04-03T08:00:00",12.3,29.513538,0.208],
    [16652,"urn:WaterMeter:MC0203J22010600005","2024-04-03T08:15:00",12.6,30.34283,0.217],
    [16653,"urn:WaterMeter:MC0203J22010600005","2024-04-03T08:30:00",12.899,30.901833,0.23],
    [16654,"urn:WaterMeter:MC0203J22010600005","2024-04-03T08:45:00",13.199,31.209826,0.224],
    [16655,"urn:WaterMeter:MC0203J22010600005","2024-04-03T09:00:00",13.5,31.42356,0.215],
    [16656,"urn:WaterMeter:MC0203J22010600005","2024-04-03T09:15:00",13.8,31.359554,0.222],
    [16657,"urn:WaterMeter:MC0203J22010600005","2024-04-03T09:30:00",14.199,31.185,0.223],
    [16658,"urn:WaterMeter:MC0203J22010600005","2024-04-03T09:45:00",14.5,31.17026,0.221],
    [16659,"urn:WaterMeter:MC0203J22010600005","2024-04-03T10:00:00",14.899,31.092293,0.221],
    [16660,"urn:WaterMeter:MC0203J22010600005","2024-04-03T10:15:00",15.199,31.007341,0.219],
    [16661,"urn:WaterMeter:MC0203J22010600005","2024-04-03T10:30:00",15.5,30.958466,0.218],
    [16662,"urn:WaterMeter:MC0203J22010600005","2024-04-03T10:45:00",15.899,30.898342,0.227],
    [16663,"urn:WaterMeter:MC0203J22010600005","2024-04-03T11:00:00",16.2,30.836628,0.219],
    [16664,"urn:WaterMeter:MC0203J22010600005","2024-04-03T11:15:00",16.399,30.788528,0.228],
    [16665,"urn:WaterMeter:MC0203J22010600005","2024-04-03T11:30:00",16.7,30.7843,0.21],
    [16666,"urn:WaterMeter:MC0203J22010600005","2024-04-03T11:45:00",16.899,30.705944,0.215],
    [16667,"urn:WaterMeter:MC0203J22010600005","2024-04-03T12:00:00",17.2,30.65315,0.211],
    [16668,"urn:WaterMeter:MC0203J22010600005","2024-04-03T12:15:00",17.5,30.633368,0.213],
    [16669,"urn:WaterMeter:MC0203J22010600005","2024-04-03T12:30:00",17.7,30.55156,0.215],
    [16670,"urn:WaterMeter:MC0203J22010600005","2024-04-03T12:45:00",17.899,30.537983,0.216],
    [16671,"urn:WaterMeter:MC0203J22010600005","2024-04-03T13:00:00",18.1,30.476269,0.21],
    [16672,"urn:WaterMeter:MC0203J22010600005","2024-04-03T13:15:00",18.2,30.427044,0.227],
    [16673,"urn:WaterMeter:MC0203J22010600005","2024-04-03T13:30:00",18.299,30.384375,0.214],
    [16674,"urn:WaterMeter:MC0203J22010600005","2024-04-03T13:45:00",18.399,30.378517,0.213],
    [16675,"urn:WaterMeter:MC0203J22010600005","2024-04-03T14:00:00",18.5,30.335499,0.213],
    [16676,"urn:WaterMeter:MC0203J22010600005","2024-04-03T14:15:00",18.6,30.314125,0.212],
    [16677,"urn:WaterMeter:MC0203J22010600005","2024-04-03T14:30:00",18.7,30.25249,0.218],
    [16678,"urn:WaterMeter:MC0203J22010600005","2024-04-03T14:45:00",18.799,30.258696,0.224],
    [16679,"urn:WaterMeter:MC0203J22010600005","2024-04-03T15:00:00",18.899,30.20788,0.209],
    [16680,"urn:WaterMeter:MC0203J22010600005","2024-04-03T15:15:00",18.899,30.1675,0.213],
    [16681,"urn:WaterMeter:MC0203J22010600005","2024-04-03T15:30:00",19,30.125257,0.218],
    [16682,"urn:WaterMeter:MC0203J22010600005","2024-04-03T15:45:00",19,30.124481,0.22],
    [16683,"urn:WaterMeter:MC0203J22010600005","2024-04-03T16:00:00",19,30.072502,0.23],
    [16684,"urn:WaterMeter:MC0203J22010600005","2024-04-03T16:15:00",18.899,30.072115,0.209],
    [16685,"urn:WaterMeter:MC0203J22010600005","2024-04-03T16:30:00",18.799,29.987165,0.215],
    [16686,"urn:WaterMeter:MC0203J22010600005","2024-04-03T16:45:00",18.7,29.991392,0.222],
    [16687,"urn:WaterMeter:MC0203J22010600005","2024-04-03T17:00:00",18.6,29.96583,0.211],
    [16688,"urn:WaterMeter:MC0203J22010600005","2024-04-03T17:15:00",18.5,29.978243,0.219],
    [16689,"urn:WaterMeter:MC0203J22010600005","2024-04-03T17:30:00",18.399,29.965015,0.219],
    [16690,"urn:WaterMeter:MC0203J22010600005","2024-04-03T17:45:00",18.299,29.92743,0.222],
    [16691,"urn:WaterMeter:MC0203J22010600005","2024-04-03T18:00:00",18.2,29.944069,0.209],
    [16692,"urn:WaterMeter:MC0203J22010600005","2024-04-03T18:15:00",18,29.950314,0.211],
    [16693,"urn:WaterMeter:MC0203J22010600005","2024-04-03T18:30:00",17.899,29.953379,0.215],
    [16694,"urn:WaterMeter:MC0203J22010600005","2024-04-03T18:45:00",17.799,29.907257,0.219],
    [16695,"urn:WaterMeter:MC0203J22010600005","2024-04-03T19:00:00",17.7,29.914976,0.218],
    [16696,"urn:WaterMeter:MC0203J22010600005","2024-04-03T19:15:00",17.6,29.909973,0.213],
    [16697,"urn:WaterMeter:MC0203J22010600005","2024-04-03T19:30:00",17.5,29.91812,0.212],
    [16698,"urn:WaterMeter:MC0203J22010600005","2024-04-03T19:45:00",17.299,29.935535,0.213],
    [16699,"urn:WaterMeter:MC0203J22010600005","2024-04-03T20:00:00",17.2,29.929756,0.216],
    [16700,"urn:WaterMeter:MC0203J22010600005","2024-04-03T20:15:00",17,29.907646,0.212],
    [16701,"urn:WaterMeter:MC0203J22010600005","2024-04-03T20:30:00",16.899,29.867653,0.218],
    [16702,"urn:WaterMeter:MC0203J22010600005","2024-04-03T20:45:00",16.799,29.913036,0.219],
    [16703,"urn:WaterMeter:MC0203J22010600005","2024-04-03T21:00:00",16.7,29.86071,0.198],
    [16704,"urn:WaterMeter:MC0203J22010600005","2024-04-03T21:15:00",16.5,29.931307,0.227],
    [16705,"urn:WaterMeter:MC0203J22010600005","2024-04-03T21:30:00",16.399,29.86265,0.208],
    [16706,"urn:WaterMeter:MC0203J22010600005","2024-04-03T21:45:00",16.299,29.885147,0.211],
    [16707,"urn:WaterMeter:MC0203J22010600005","2024-04-03T22:00:00",16.2,29.887863,0.22],
    [16708,"urn:WaterMeter:MC0203J22010600005","2024-04-03T22:15:00",16.1,29.837397,0.215],
    [16709,"urn:WaterMeter:MC0203J22010600005","2024-04-03T22:30:00",16,29.900663,0.213],
    [16710,"urn:WaterMeter:MC0203J22010600005","2024-04-03T22:45:00",15.899,29.876963,0.215],
    [16711,"urn:WaterMeter:MC0203J22010600005","2024-04-03T23:00:00",15.8,29.878164,0.206],
    [16712,"urn:WaterMeter:MC0203J22010600005","2024-04-03T23:15:00",15.699,29.878553,0.213],
    [16713,"urn:WaterMeter:MC0203J22010600005","2024-04-03T23:30:00",15.6,29.85524,0.211],
    [16714,"urn:WaterMeter:MC0203J22010600005","2024-04-03T23:45:00",15.399,29.86071,0.215],
    [16715,"urn:WaterMeter:MC0203J22010600005","2024-04-04T00:00:00",15.3,29.87735,0.216],
    [16716,"urn:WaterMeter:MC0203J22010600005","2024-04-04T00:15:00",15.199,29.881657,0.214],
    [16717,"urn:WaterMeter:MC0203J22010600005","2024-04-04T00:30:00",15.1,29.843254,0.215],
    [16718,"urn:WaterMeter:MC0203J22010600005","2024-04-04T00:45:00",15,29.909584,0.212],
    [16719,"urn:WaterMeter:MC0203J22010600005","2024-04-04T01:00:00",14.899,29.848646,0.214],
    [16720,"urn:WaterMeter:MC0203J22010600005","2024-04-04T01:15:00",14.8,29.887436,0.213],
    [16721,"urn:WaterMeter:MC0203J22010600005","2024-04-04T01:30:00",14.699,29.89213,0.211],
    [16722,"urn:WaterMeter:MC0203J22010600005","2024-04-04T01:45:00",14.6,29.876963,0.218],
    [16723,"urn:WaterMeter:MC0203J22010600005","2024-04-04T02:00:00",14.6,29.859934,0.213],
    [16724,"urn:WaterMeter:MC0203J22010600005","2024-04-04T02:15:00",14.399,29.863424,0.214],
    [16725,"urn:WaterMeter:MC0203J22010600005","2024-04-04T02:30:00",14.3,29.859547,0.215],
    [16726,"urn:WaterMeter:MC0203J22010600005","2024-04-04T02:45:00",14.199,29.880493,0.217],
    [16727,"urn:WaterMeter:MC0203J22010600005","2024-04-04T03:00:00",14.1,29.880104,0.212],
    [16728,"urn:WaterMeter:MC0203J22010600005","2024-04-04T03:15:00",14,29.900276,0.212],
    [16729,"urn:WaterMeter:MC0203J22010600005","2024-04-04T03:30:00",13.899,29.886272,0.214],
    [16730,"urn:WaterMeter:MC0203J22010600005","2024-04-04T03:45:00",13.899,29.894419,0.221],
    [16731,"urn:WaterMeter:MC0203J22010600005","2024-04-04T04:00:00",13.8,29.89019,0.208],
    [16732,"urn:WaterMeter:MC0203J22010600005","2024-04-04T04:15:00",13.699,29.865364,0.216],
    [16733,"urn:WaterMeter:MC0203J22010600005","2024-04-04T04:30:00",13.6,29.837397,0.216],
    [16734,"urn:WaterMeter:MC0203J22010600005","2024-04-04T04:45:00",13.6,29.893293,0.207],
    [16735,"urn:WaterMeter:MC0203J22010600005","2024-04-04T05:00:00",13.5,29.864588,0.221],
    [16736,"urn:WaterMeter:MC0203J22010600005","2024-04-04T05:15:00",13.399,29.85524,0.212],
    [16737,"urn:WaterMeter:MC0203J22010600005","2024-04-04T05:30:00",13.3,29.86614,0.206],
    [16738,"urn:WaterMeter:MC0203J22010600005","2024-04-04T05:45:00",13.3,29.845581,0.21],
    [16739,"urn:WaterMeter:MC0203J22010600005","2024-04-04T06:00:00",13.3,29.885534,0.21],
    [16740,"urn:WaterMeter:MC0203J22010600005","2024-04-04T06:15:00",13.199,29.84787,0.203],
    [16741,"urn:WaterMeter:MC0203J22010600005","2024-04-04T06:30:00",13.199,29.87157,0.203],
    [16742,"urn:WaterMeter:MC0203J22010600005","2024-04-04T06:45:00",13.199,29.813385,0.217],
    [16743,"urn:WaterMeter:MC0203J22010600005","2024-04-04T07:00:00",13.199,29.849848,0.207],
    [16744,"urn:WaterMeter:MC0203J22010600005","2024-04-04T07:15:00",13.399,29.82735,0.211],
    [16745,"urn:WaterMeter:MC0203J22010600005","2024-04-04T07:30:00",13.5,29.81261,0.208],
    [16746,"urn:WaterMeter:MC0203J22010600005","2024-04-04T07:45:00",13.8,29.785069,0.208],
    [16747,"urn:WaterMeter:MC0203J22010600005","2024-04-04T08:00:00",14,29.755976,0.213],
    [16748,"urn:WaterMeter:MC0203J22010600005","2024-04-04T08:15:00",14.199,29.755976,0.211],
    [16749,"urn:WaterMeter:MC0203J22010600005","2024-04-04T08:30:00",14.399,29.694689,0.21],
    [16750,"urn:WaterMeter:MC0203J22010600005","2024-04-04T08:45:00",14.699,29.687706,0.203],
    [16751,"urn:WaterMeter:MC0203J22010600005","2024-04-04T09:00:00",15,29.66831,0.207],
    [16752,"urn:WaterMeter:MC0203J22010600005","2024-04-04T09:15:00",15.3,29.630297,0.203],
    [16753,"urn:WaterMeter:MC0203J22010600005","2024-04-04T09:30:00",15.6,29.574827,0.202],
    [16754,"urn:WaterMeter:MC0203J22010600005","2024-04-04T09:45:00",15.899,29.540691,0.202],
    [16755,"urn:WaterMeter:MC0203J22010600005","2024-04-04T10:00:00",16.1,29.50966,0.201],
    [16756,"urn:WaterMeter:MC0203J22010600005","2024-04-04T10:15:00",16.399,29.480568,0.207],
    [16757,"urn:WaterMeter:MC0203J22010600005","2024-04-04T10:30:00",16.7,29.440187,0.203],
    [16758,"urn:WaterMeter:MC0203J22010600005","2024-04-04T10:45:00",16.899,29.374283,0.198],
    [16759,"urn:WaterMeter:MC0203J22010600005","2024-04-04T11:00:00",17.2,29.29356,0.198],
    [16760,"urn:WaterMeter:MC0203J22010600005","2024-04-04T11:15:00",17.5,29.271101,0.192],
    [16761,"urn:WaterMeter:MC0203J22010600005","2024-04-04T11:30:00",17.799,29.262955,0.195],
    [16762,"urn:WaterMeter:MC0203J22010600005","2024-04-04T11:45:00",18.1,29.196198,0.199],
    [16763,"urn:WaterMeter:MC0203J22010600005","2024-04-04T12:00:00",18.299,29.158571,0.198],
    [16764,"urn:WaterMeter:MC0203J22010600005","2024-04-04T12:15:00",18.5,29.11633,0.206],
    [16765,"urn:WaterMeter:MC0203J22010600005","2024-04-04T12:30:00",18.7,29.060822,0.202],
    [16766,"urn:WaterMeter:MC0203J22010600005","2024-04-04T12:45:00",18.799,29.010044,0.212],
    [16767,"urn:WaterMeter:MC0203J22010600005","2024-04-04T13:00:00",19,28.95729,0.197],
    [16768,"urn:WaterMeter:MC0203J22010600005","2024-04-04T13:15:00",19.2,28.912294,0.207],
    [16769,"urn:WaterMeter:MC0203J22010600005","2024-04-04T13:30:00",19.299,28.872341,0.195],
    [16770,"urn:WaterMeter:MC0203J22010600005","2024-04-04T13:45:00",19.399,28.841309,0.206],
    [16771,"urn:WaterMeter:MC0203J22010600005","2024-04-04T14:00:00",19.5,28.810625,0.192],
    [16772,"urn:WaterMeter:MC0203J22010600005","2024-04-04T14:15:00",19.6,28.72649,0.2],
    [16773,"urn:WaterMeter:MC0203J22010600005","2024-04-04T14:30:00",19.7,28.728817,0.208],
    [16774,"urn:WaterMeter:MC0203J22010600005","2024-04-04T14:45:00",19.7,28.644255,0.202],
    [16775,"urn:WaterMeter:MC0203J22010600005","2024-04-04T15:00:00",19.7,28.632967,0.199],
    [16776,"urn:WaterMeter:MC0203J22010600005","2024-04-04T15:15:00",19.799,28.625984,0.198],
    [16777,"urn:WaterMeter:MC0203J22010600005","2024-04-04T15:30:00",19.799,28.569002,0.201],
    [16778,"urn:WaterMeter:MC0203J22010600005","2024-04-04T15:45:00",19.799,28.53448,0.201],
    [16779,"urn:WaterMeter:MC0203J22010600005","2024-04-04T16:00:00",19.799,28.521679,0.198],
    [16780,"urn:WaterMeter:MC0203J22010600005","2024-04-04T16:15:00",19.799,28.494913,0.196],
    [16781,"urn:WaterMeter:MC0203J22010600005","2024-04-04T16:30:00",19.799,28.485992,0.198],
    [16782,"urn:WaterMeter:MC0203J22010600005","2024-04-04T16:45:00",19.7,28.435564,0.204],
    [16783,"urn:WaterMeter:MC0203J22010600005","2024-04-04T17:00:00",19.6,28.407248,0.189],
    [16784,"urn:WaterMeter:MC0203J22010600005","2024-04-04T17:15:00",19.6,28.38824,0.201],
    [16785,"urn:WaterMeter:MC0203J22010600005","2024-04-04T17:30:00",19.5,28.365355,0.191],
    [16786,"urn:WaterMeter:MC0203J22010600005","2024-04-04T17:45:00",19.399,28.31489,0.202],
    [16787,"urn:WaterMeter:MC0203J22010600005","2024-04-04T18:00:00",19.299,28.372725,0.189],
    [16788,"urn:WaterMeter:MC0203J22010600005","2024-04-04T18:15:00",19.1,28.334673,0.205],
    [16789,"urn:WaterMeter:MC0203J22010600005","2024-04-04T18:30:00",19,28.306355,0.201],
    [16790,"urn:WaterMeter:MC0203J22010600005","2024-04-04T18:45:00",18.899,28.301739,0.189],
    [16791,"urn:WaterMeter:MC0203J22010600005","2024-04-04T19:00:00",18.7,28.284634,0.19],
    [16792,"urn:WaterMeter:MC0203J22010600005","2024-04-04T19:15:00",18.6,28.331608,0.193],
    [16793,"urn:WaterMeter:MC0203J22010600005","2024-04-04T19:30:00",18.399,28.32575,0.202],
    [16794,"urn:WaterMeter:MC0203J22010600005","2024-04-04T19:45:00",18.299,28.310661,0.192],
    [16795,"urn:WaterMeter:MC0203J22010600005","2024-04-04T20:00:00",18.2,28.313375,0.201],
    [16796,"urn:WaterMeter:MC0203J22010600005","2024-04-04T20:15:00",18,28.31489,0.205],
    [16797,"urn:WaterMeter:MC0203J22010600005","2024-04-04T20:30:00",17.899,28.288939,0.195],
    [16798,"urn:WaterMeter:MC0203J22010600005","2024-04-04T20:45:00",17.799,28.304804,0.209],
    [16799,"urn:WaterMeter:MC0203J22010600005","2024-04-04T21:00:00",17.7,28.30717,0.192],
    [16800,"urn:WaterMeter:MC0203J22010600005","2024-04-04T21:15:00",17.6,28.319971,0.202],
    [16801,"urn:WaterMeter:MC0203J22010600005","2024-04-04T21:30:00",17.5,28.289326,0.201],
    [16802,"urn:WaterMeter:MC0203J22010600005","2024-04-04T21:45:00",17.299,28.328505,0.213],
    [16803,"urn:WaterMeter:MC0203J22010600005","2024-04-04T22:00:00",17.2,28.300964,0.201],
    [16804,"urn:WaterMeter:MC0203J22010600005","2024-04-04T22:15:00",17.1,28.287775,0.193],
    [16805,"urn:WaterMeter:MC0203J22010600005","2024-04-04T22:30:00",17,28.25364,0.191],
    [16806,"urn:WaterMeter:MC0203J22010600005","2024-04-04T22:45:00",16.899,28.295881,0.195],
    [16807,"urn:WaterMeter:MC0203J22010600005","2024-04-04T23:00:00",16.899,28.292042,0.193],
    [16808,"urn:WaterMeter:MC0203J22010600005","2024-04-04T23:15:00",16.799,28.305191,0.201],
    [16809,"urn:WaterMeter:MC0203J22010600005","2024-04-04T23:30:00",16.7,28.290102,0.202],
    [16810,"urn:WaterMeter:MC0203J22010600005","2024-04-04T23:45:00",16.5,28.291655,0.194],
    [16811,"urn:WaterMeter:MC0203J22010600005","2024-04-05T00:00:00",16.399,28.295881,0.202],
    [16812,"urn:WaterMeter:MC0203J22010600005","2024-04-05T00:15:00",16.299,28.281956,0.192],
    [16813,"urn:WaterMeter:MC0203J22010600005","2024-04-05T00:30:00",16.1,28.271095,0.205],
    [16814,"urn:WaterMeter:MC0203J22010600005","2024-04-05T00:45:00",16.1,28.32381,0.208],
    [16815,"urn:WaterMeter:MC0203J22010600005","2024-04-05T01:00:00",15.899,28.261786,0.202],
    [16816,"urn:WaterMeter:MC0203J22010600005","2024-04-05T01:15:00",15.8,28.295145,0.198],
    [16817,"urn:WaterMeter:MC0203J22010600005","2024-04-05T01:30:00",15.699,28.340528,0.2],
    [16818,"urn:WaterMeter:MC0203J22010600005","2024-04-05T01:45:00",15.6,28.288939,0.203],
    [16819,"urn:WaterMeter:MC0203J22010600005","2024-04-05T02:00:00",15.399,28.318419,0.193],
    [16820,"urn:WaterMeter:MC0203J22010600005","2024-04-05T02:15:00",15.3,28.306355,0.195],
    [16821,"urn:WaterMeter:MC0203J22010600005","2024-04-05T02:30:00",15.199,28.282345,0.2],
    [16822,"urn:WaterMeter:MC0203J22010600005","2024-04-05T02:45:00",15,28.283857,0.197],
    [16823,"urn:WaterMeter:MC0203J22010600005","2024-04-05T03:00:00",14.899,28.350227,0.196],
    [16824,"urn:WaterMeter:MC0203J22010600005","2024-04-05T03:15:00",14.8,28.310274,0.206],
    [16825,"urn:WaterMeter:MC0203J22010600005","2024-04-05T03:30:00",14.699,28.323423,0.197],
    [16826,"urn:WaterMeter:MC0203J22010600005","2024-04-05T03:45:00",14.6,28.306744,0.196],
    [16827,"urn:WaterMeter:MC0203J22010600005","2024-04-05T04:00:00",14.399,28.32928,0.208],
    [16828,"urn:WaterMeter:MC0203J22010600005","2024-04-05T04:15:00",14.3,28.331995,0.198],
    [16829,"urn:WaterMeter:MC0203J22010600005","2024-04-05T04:30:00",14.199,28.36454,0.205],
    [16830,"urn:WaterMeter:MC0203J22010600005","2024-04-05T04:45:00",14,28.320358,0.199],
    [16831,"urn:WaterMeter:MC0203J22010600005","2024-04-05T05:00:00",13.899,28.38863,0.191],
    [16832,"urn:WaterMeter:MC0203J22010600005","2024-04-05T05:15:00",13.8,28.38316,0.194],
    [16833,"urn:WaterMeter:MC0203J22010600005","2024-04-05T05:30:00",13.699,28.346348,0.197],
    [16834,"urn:WaterMeter:MC0203J22010600005","2024-04-05T05:45:00",13.6,28.374626,0.197],
    [16835,"urn:WaterMeter:MC0203J22010600005","2024-04-05T06:00:00",13.5,28.380095,0.191],
    [16836,"urn:WaterMeter:MC0203J22010600005","2024-04-05T06:15:00",13.5,28.373463,0.198],
    [16837,"urn:WaterMeter:MC0203J22010600005","2024-04-05T06:30:00",13.399,28.335447,0.198],
    [16838,"urn:WaterMeter:MC0203J22010600005","2024-04-05T06:45:00",13.3,28.34398,0.202],
    [16839,"urn:WaterMeter:MC0203J22010600005","2024-04-05T07:00:00",13.399,28.316053,0.2],
    [16840,"urn:WaterMeter:MC0203J22010600005","2024-04-05T07:15:00",13.5,28.306355,0.192],
    [16841,"urn:WaterMeter:MC0203J22010600005","2024-04-05T07:30:00",13.699,28.334284,0.192],
    [16842,"urn:WaterMeter:MC0203J22010600005","2024-04-05T07:45:00",13.899,28.399103,0.193],
    [16843,"urn:WaterMeter:MC0203J22010600005","2024-04-05T08:00:00",14.1,28.825016,0.202],
    [16844,"urn:WaterMeter:MC0203J22010600005","2024-04-05T08:15:00",14.3,29.808304,0.219],
    [16845,"urn:WaterMeter:MC0203J22010600005","2024-04-05T08:30:00",14.6,30.49415,0.224],
    [16846,"urn:WaterMeter:MC0203J22010600005","2024-04-05T08:45:00",14.899,30.929375,0.227],
    [16847,"urn:WaterMeter:MC0203J22010600005","2024-04-05T09:00:00",15.199,31.178406,0.241],
    [16848,"urn:WaterMeter:MC0203J22010600005","2024-04-05T09:15:00",15.399,31.16832,0.235],
    [16849,"urn:WaterMeter:MC0203J22010600005","2024-04-05T09:30:00",15.6,31.047297,0.234],
    [16850,"urn:WaterMeter:MC0203J22010600005","2024-04-05T09:45:00",15.899,30.934378,0.225],
    [16851,"urn:WaterMeter:MC0203J22010600005","2024-04-05T10:00:00",16.2,30.905674,0.224],
    [16852,"urn:WaterMeter:MC0203J22010600005","2024-04-05T10:15:00",16.399,30.855286,0.225],
    [16853,"urn:WaterMeter:MC0203J22010600005","2024-04-05T10:30:00",16.6,30.818396,0.227],
    [16854,"urn:WaterMeter:MC0203J22010600005","2024-04-05T10:45:00",16.899,30.810677,0.223],
    [16855,"urn:WaterMeter:MC0203J22010600005","2024-04-05T11:00:00",17.2,30.683058,0.232],
    [16856,"urn:WaterMeter:MC0203J22010600005","2024-04-05T11:15:00",17.399,30.662071,0.225],
    [16857,"urn:WaterMeter:MC0203J22010600005","2024-04-05T11:30:00",17.7,30.607805,0.224],
    [16858,"urn:WaterMeter:MC0203J22010600005","2024-04-05T11:45:00",18,30.600435,0.217],
    [16859,"urn:WaterMeter:MC0203J22010600005","2024-04-05T12:00:00",18.2,30.52557,0.22],
    [16860,"urn:WaterMeter:MC0203J22010600005","2024-04-05T12:15:00",18.399,30.47398,0.217],
    [16861,"urn:WaterMeter:MC0203J22010600005","2024-04-05T12:30:00",18.7,30.403381,0.218],
    [16862,"urn:WaterMeter:MC0203J22010600005","2024-04-05T12:45:00",18.899,30.392132,0.215],
    [16863,"urn:WaterMeter:MC0203J22010600005","2024-04-05T13:00:00",19.1,30.326578,0.209],
    [16864,"urn:WaterMeter:MC0203J22010600005","2024-04-05T13:15:00",19.399,30.312225,0.223],
    [16865,"urn:WaterMeter:MC0203J22010600005","2024-04-05T13:30:00",19.6,30.262148,0.225],
    [16866,"urn:WaterMeter:MC0203J22010600005","2024-04-05T13:45:00",19.7,30.21176,0.223],
    [16867,"urn:WaterMeter:MC0203J22010600005","2024-04-05T14:00:00",19.799,30.20051,0.236],
    [16868,"urn:WaterMeter:MC0203J22010600005","2024-04-05T14:15:00",19.899,30.113232,0.223],
    [16869,"urn:WaterMeter:MC0203J22010600005","2024-04-05T14:30:00",19.899,30.10815,0.221],
    [16870,"urn:WaterMeter:MC0203J22010600005","2024-04-05T14:45:00",20,30.046515,0.208],
    [16871,"urn:WaterMeter:MC0203J22010600005","2024-04-05T15:00:00",20.1,30.011951,0.214],
    [16872,"urn:WaterMeter:MC0203J22010600005","2024-04-05T15:15:00",20.2,29.992945,0.215],
    [16873,"urn:WaterMeter:MC0203J22010600005","2024-04-05T15:30:00",20.299,29.974325,0.211],
    [16874,"urn:WaterMeter:MC0203J22010600005","2024-04-05T15:45:00",20.299,29.926653,0.218],
    [16875,"urn:WaterMeter:MC0203J22010600005","2024-04-05T16:00:00",20.299,29.829678,0.219],
    [16876,"urn:WaterMeter:MC0203J22010600005","2024-04-05T16:15:00",20.299,29.847483,0.225],
    [16877,"urn:WaterMeter:MC0203J22010600005","2024-04-05T16:30:00",20.299,29.809467,0.225],
    [16878,"urn:WaterMeter:MC0203J22010600005","2024-04-05T16:45:00",20.299,29.77766,0.224],
    [16879,"urn:WaterMeter:MC0203J22010600005","2024-04-05T17:00:00",20.2,29.738482,0.21],
    [16880,"urn:WaterMeter:MC0203J22010600005","2024-04-05T17:15:00",20.1,29.754038,0.217],
    [16881,"urn:WaterMeter:MC0203J22010600005","2024-04-05T17:30:00",20,29.736582,0.212],
    [16882,"urn:WaterMeter:MC0203J22010600005","2024-04-05T17:45:00",19.899,29.756365,0.218],
    [16883,"urn:WaterMeter:MC0203J22010600005","2024-04-05T18:00:00",19.7,29.68887,0.228],
    [16884,"urn:WaterMeter:MC0203J22010600005","2024-04-05T18:15:00",19.6,29.712105,0.215],
    [16885,"urn:WaterMeter:MC0203J22010600005","2024-04-05T18:30:00",19.399,29.696629,0.219],
    [16886,"urn:WaterMeter:MC0203J22010600005","2024-04-05T18:45:00",19.2,29.711329,0.217],
    [16887,"urn:WaterMeter:MC0203J22010600005","2024-04-05T19:00:00",19.1,29.6687,0.215],
    [16888,"urn:WaterMeter:MC0203J22010600005","2024-04-05T19:15:00",18.899,29.66831,0.21],
    [16889,"urn:WaterMeter:MC0203J22010600005","2024-04-05T19:30:00",18.799,29.714083,0.21],
    [16890,"urn:WaterMeter:MC0203J22010600005","2024-04-05T19:45:00",18.7,29.662066,0.22],
    [16891,"urn:WaterMeter:MC0203J22010600005","2024-04-05T20:00:00",18.5,29.699343,0.214],
    [16892,"urn:WaterMeter:MC0203J22010600005","2024-04-05T20:15:00",18.399,29.677233,0.216],
    [16893,"urn:WaterMeter:MC0203J22010600005","2024-04-05T20:30:00",18.2,29.65745,0.214],
    [16894,"urn:WaterMeter:MC0203J22010600005","2024-04-05T20:45:00",18.1,29.704386,0.227],
    [16895,"urn:WaterMeter:MC0203J22010600005","2024-04-05T21:00:00",18,29.682238,0.208],
    [16896,"urn:WaterMeter:MC0203J22010600005","2024-04-05T21:15:00",17.799,29.674906,0.215],
    [16897,"urn:WaterMeter:MC0203J22010600005","2024-04-05T21:30:00",17.6,29.647753,0.227],
    [16898,"urn:WaterMeter:MC0203J22010600005","2024-04-05T21:45:00",17.5,29.651632,0.218],
    [16899,"urn:WaterMeter:MC0203J22010600005","2024-04-05T22:00:00",17.299,29.691586,0.214],
    [16900,"urn:WaterMeter:MC0203J22010600005","2024-04-05T22:15:00",17.2,29.703999,0.218],
    [16901,"urn:WaterMeter:MC0203J22010600005","2024-04-05T22:30:00",17,29.666372,0.219],
    [16902,"urn:WaterMeter:MC0203J22010600005","2024-04-05T22:45:00",16.899,29.659777,0.215],
    [16903,"urn:WaterMeter:MC0203J22010600005","2024-04-05T23:00:00",16.799,29.719864,0.215],
    [16904,"urn:WaterMeter:MC0203J22010600005","2024-04-05T23:15:00",16.6,29.677233,0.22],
    [16905,"urn:WaterMeter:MC0203J22010600005","2024-04-05T23:30:00",16.5,29.70555,0.229],
    [16906,"urn:WaterMeter:MC0203J22010600005","2024-04-05T23:45:00",16.399,29.674091,0.22],
    [16907,"urn:WaterMeter:MC0203J22010600005","2024-04-06T00:00:00",16.299,29.665983,0.215],
    [16908,"urn:WaterMeter:MC0203J22010600005","2024-04-06T00:15:00",16.1,29.691196,0.219],
    [16909,"urn:WaterMeter:MC0203J22010600005","2024-04-06T00:30:00",16,29.692322,0.222],
    [16910,"urn:WaterMeter:MC0203J22010600005","2024-04-06T00:45:00",15.899,29.712881,0.21],
    [16911,"urn:WaterMeter:MC0203J22010600005","2024-04-06T01:00:00",15.699,29.726109,0.231],
    [16912,"urn:WaterMeter:MC0203J22010600005","2024-04-06T01:15:00",15.6,29.68499,0.215],
    [16913,"urn:WaterMeter:MC0203J22010600005","2024-04-06T01:30:00",15.5,29.695076,0.217],
    [16914,"urn:WaterMeter:MC0203J22010600005","2024-04-06T01:45:00",15.399,29.681072,0.216],
    [16915,"urn:WaterMeter:MC0203J22010600005","2024-04-06T02:00:00",15.3,29.723782,0.226],
    [16916,"urn:WaterMeter:MC0203J22010600005","2024-04-06T02:15:00",15.3,29.686543,0.214],
    [16917,"urn:WaterMeter:MC0203J22010600005","2024-04-06T02:30:00",15.199,29.745892,0.217],
    [16918,"urn:WaterMeter:MC0203J22010600005","2024-04-06T02:45:00",15.199,29.697792,0.215],
    [16919,"urn:WaterMeter:MC0203J22010600005","2024-04-06T03:00:00",15.1,29.713308,0.212],
    [16920,"urn:WaterMeter:MC0203J22010600005","2024-04-06T03:15:00",15,29.673315,0.216],
    [16921,"urn:WaterMeter:MC0203J22010600005","2024-04-06T03:30:00",14.899,29.716412,0.214],
    [16922,"urn:WaterMeter:MC0203J22010600005","2024-04-06T03:45:00",14.8,29.662455,0.212],
    [16923,"urn:WaterMeter:MC0203J22010600005","2024-04-06T04:00:00",14.8,29.707102,0.209],
    [16924,"urn:WaterMeter:MC0203J22010600005","2024-04-06T04:15:00",14.699,29.6687,0.208],
    [16925,"urn:WaterMeter:MC0203J22010600005","2024-04-06T04:30:00",14.6,29.734642,0.216],
    [16926,"urn:WaterMeter:MC0203J22010600005","2024-04-06T04:45:00",14.5,29.65939,0.213],
    [16927,"urn:WaterMeter:MC0203J22010600005","2024-04-06T05:00:00",14.5,29.684603,0.217],
    [16928,"urn:WaterMeter:MC0203J22010600005","2024-04-06T05:15:00",14.399,29.697792,0.216],
    [16929,"urn:WaterMeter:MC0203J22010600005","2024-04-06T05:30:00",14.399,29.683401,0.211],
    [16930,"urn:WaterMeter:MC0203J22010600005","2024-04-06T05:45:00",14.399,29.655123,0.212],
    [16931,"urn:WaterMeter:MC0203J22010600005","2024-04-06T06:00:00",14.3,29.696629,0.209],
    [16932,"urn:WaterMeter:MC0203J22010600005","2024-04-06T06:15:00",14.199,29.620987,0.22],
    [16933,"urn:WaterMeter:MC0203J22010600005","2024-04-06T06:30:00",14.199,29.68499,0.21],
    [16934,"urn:WaterMeter:MC0203J22010600005","2024-04-06T06:45:00",14.199,29.6687,0.205],
    [16935,"urn:WaterMeter:MC0203J22010600005","2024-04-06T07:00:00",14.3,29.656673,0.205],
    [16936,"urn:WaterMeter:MC0203J22010600005","2024-04-06T07:15:00",14.3,29.654308,0.207],
    [16937,"urn:WaterMeter:MC0203J22010600005","2024-04-06T07:30:00",14.5,29.650856,0.219],
    [16938,"urn:WaterMeter:MC0203J22010600005","2024-04-06T07:45:00",14.6,29.635302,0.218],
    [16939,"urn:WaterMeter:MC0203J22010600005","2024-04-06T08:00:00",14.8,29.590343,0.217],
    [16940,"urn:WaterMeter:MC0203J22010600005","2024-04-06T08:15:00",15,29.54845,0.214],
    [16941,"urn:WaterMeter:MC0203J22010600005","2024-04-06T08:30:00",15.199,29.583323,0.21],
    [16942,"urn:WaterMeter:MC0203J22010600005","2024-04-06T08:45:00",15.5,29.497635,0.209],
    [16943,"urn:WaterMeter:MC0203J22010600005","2024-04-06T09:00:00",15.8,29.518543,0.219],
    [16944,"urn:WaterMeter:MC0203J22010600005","2024-04-06T09:15:00",16.1,29.440964,0.21],
    [16945,"urn:WaterMeter:MC0203J22010600005","2024-04-06T09:30:00",16.399,29.440964,0.204],
    [16946,"urn:WaterMeter:MC0203J22010600005","2024-04-06T09:45:00",16.6,29.352135,0.205],
    [16947,"urn:WaterMeter:MC0203J22010600005","2024-04-06T10:00:00",16.899,29.29709,0.202],
    [16948,"urn:WaterMeter:MC0203J22010600005","2024-04-06T10:15:00",17.2,29.235764,0.221],
    [16949,"urn:WaterMeter:MC0203J22010600005","2024-04-06T10:30:00",17.5,29.251318,0.211],
    [16950,"urn:WaterMeter:MC0203J22010600005","2024-04-06T10:45:00",17.7,29.206322,0.198],
    [16951,"urn:WaterMeter:MC0203J22010600005","2024-04-06T11:00:00",18,29.149261,0.209],
    [16952,"urn:WaterMeter:MC0203J22010600005","2024-04-06T11:15:00",18.2,29.089176,0.211],
    [16953,"urn:WaterMeter:MC0203J22010600005","2024-04-06T11:30:00",18.5,29.051899,0.203],
    [16954,"urn:WaterMeter:MC0203J22010600005","2024-04-06T11:45:00",18.7,29.022806,0.213],
    [16955,"urn:WaterMeter:MC0203J22010600005","2024-04-06T12:00:00",18.899,28.968151,0.197],
    [16956,"urn:WaterMeter:MC0203J22010600005","2024-04-06T12:15:00",19,28.94678,0.202],
    [16957,"urn:WaterMeter:MC0203J22010600005","2024-04-06T12:30:00",19.2,28.893675,0.21],
    [16958,"urn:WaterMeter:MC0203J22010600005","2024-04-06T12:45:00",19.399,28.863806,0.194],
    [16959,"urn:WaterMeter:MC0203J22010600005","2024-04-06T13:00:00",19.5,28.781921,0.206],
    [16960,"urn:WaterMeter:MC0203J22010600005","2024-04-06T13:15:00",19.6,28.7121,0.208],
    [16961,"urn:WaterMeter:MC0203J22010600005","2024-04-06T13:30:00",19.799,28.694643,0.207],
    [16962,"urn:WaterMeter:MC0203J22010600005","2024-04-06T13:45:00",19.899,28.718733,0.197],
    [16963,"urn:WaterMeter:MC0203J22010600005","2024-04-06T14:00:00",19.899,28.638824,0.205],
    [16964,"urn:WaterMeter:MC0203J22010600005","2024-04-06T14:15:00",20,28.604689,0.197],
    [16965,"urn:WaterMeter:MC0203J22010600005","2024-04-06T14:30:00",20,28.544565,0.206],
    [16966,"urn:WaterMeter:MC0203J22010600005","2024-04-06T14:45:00",20,28.53254,0.196],
    [16967,"urn:WaterMeter:MC0203J22010600005","2024-04-06T15:00:00",20,28.51586,0.194],
    [16968,"urn:WaterMeter:MC0203J22010600005","2024-04-06T15:15:00",20,28.484829,0.194],
    [16969,"urn:WaterMeter:MC0203J22010600005","2024-04-06T15:30:00",20,28.464657,0.194],
    [16970,"urn:WaterMeter:MC0203J22010600005","2024-04-06T15:45:00",19.899,28.432423,0.198],
    [16971,"urn:WaterMeter:MC0203J22010600005","2024-04-06T16:00:00",19.799,28.39949,0.204],
    [16972,"urn:WaterMeter:MC0203J22010600005","2024-04-06T16:15:00",19.7,28.413416,0.214],
    [16973,"urn:WaterMeter:MC0203J22010600005","2024-04-06T16:30:00",19.6,28.394447,0.204],
    [16974,"urn:WaterMeter:MC0203J22010600005","2024-04-06T16:45:00",19.6,28.36807,0.199],
    [16975,"urn:WaterMeter:MC0203J22010600005","2024-04-06T17:00:00",19.6,28.357597,0.203],
    [16976,"urn:WaterMeter:MC0203J22010600005","2024-04-06T17:15:00",19.5,28.360312,0.204],
    [16977,"urn:WaterMeter:MC0203J22010600005","2024-04-06T17:30:00",19.5,28.36493,0.195],
    [16978,"urn:WaterMeter:MC0203J22010600005","2024-04-06T17:45:00",19.5,28.347511,0.2],
    [16979,"urn:WaterMeter:MC0203J22010600005","2024-04-06T18:00:00",19.399,28.32381,0.206],
    [16980,"urn:WaterMeter:MC0203J22010600005","2024-04-06T18:15:00",19.299,28.34398,0.212],
    [16981,"urn:WaterMeter:MC0203J22010600005","2024-04-06T18:30:00",19.2,28.247395,0.198],
    [16982,"urn:WaterMeter:MC0203J22010600005","2024-04-06T18:45:00",19.2,28.310661,0.207],
    [16983,"urn:WaterMeter:MC0203J22010600005","2024-04-06T19:00:00",19.1,28.322298,0.193],
    [16984,"urn:WaterMeter:MC0203J22010600005","2024-04-06T19:15:00",19,28.288939,0.204],
    [16985,"urn:WaterMeter:MC0203J22010600005","2024-04-06T19:30:00",19,28.248558,0.202],
    [16986,"urn:WaterMeter:MC0203J22010600005","2024-04-06T19:45:00",18.899,28.258682,0.21],
    [16987,"urn:WaterMeter:MC0203J22010600005","2024-04-06T20:00:00",18.899,28.255968,0.214],
    [16988,"urn:WaterMeter:MC0203J22010600005","2024-04-06T20:15:00",18.799,28.274199,0.21],
    [16989,"urn:WaterMeter:MC0203J22010600005","2024-04-06T20:30:00",18.799,28.273422,0.195],
    [16990,"urn:WaterMeter:MC0203J22010600005","2024-04-06T20:45:00",18.7,28.227999,0.203],
    [16991,"urn:WaterMeter:MC0203J22010600005","2024-04-06T21:00:00",18.6,28.233856,0.192],
    [16992,"urn:WaterMeter:MC0203J22010600005","2024-04-06T21:15:00",18.6,28.262949,0.196],
    [16993,"urn:WaterMeter:MC0203J22010600005","2024-04-06T21:30:00",18.6,28.258255,0.195],
    [16994,"urn:WaterMeter:MC0203J22010600005","2024-04-06T21:45:00",18.5,28.26679,0.196],
    [16995,"urn:WaterMeter:MC0203J22010600005","2024-04-06T22:00:00",18.5,28.233082,0.215],
    [16996,"urn:WaterMeter:MC0203J22010600005","2024-04-06T22:15:00",18.5,28.20554,0.191],
    [16997,"urn:WaterMeter:MC0203J22010600005","2024-04-06T22:30:00",18.5,28.236185,0.193],
    [16998,"urn:WaterMeter:MC0203J22010600005","2024-04-06T22:45:00",18.399,28.208992,0.196],
    [16999,"urn:WaterMeter:MC0203J22010600005","2024-04-06T23:00:00",18.399,28.222609,0.19],
    [17000,"urn:WaterMeter:MC0203J22010600005","2024-04-06T23:15:00",18.399,28.219078,0.2],
    [17001,"urn:WaterMeter:MC0203J22010600005","2024-04-06T23:30:00",18.299,28.197393,0.203],
    [17002,"urn:WaterMeter:MC0203J22010600005","2024-04-06T23:45:00",18.2,28.19817,0.206],
    [17003,"urn:WaterMeter:MC0203J22010600005","2024-04-07T00:00:00",18.1,28.208605,0.193],
    [17004,"urn:WaterMeter:MC0203J22010600005","2024-04-07T00:15:00",18.1,28.173733,0.194],
    [17005,"urn:WaterMeter:MC0203J22010600005","2024-04-07T00:30:00",18,28.178,0.208],
    [17006,"urn:WaterMeter:MC0203J22010600005","2024-04-07T00:45:00",17.899,28.235409,0.204],
    [17007,"urn:WaterMeter:MC0203J22010600005","2024-04-07T01:00:00",17.899,28.169815,0.207],
    [17008,"urn:WaterMeter:MC0203J22010600005","2024-04-07T01:15:00",17.799,28.131413,0.202],
    [17009,"urn:WaterMeter:MC0203J22010600005","2024-04-07T01:30:00",17.799,28.168652,0.211],
    [17010,"urn:WaterMeter:MC0203J22010600005","2024-04-07T01:45:00",17.7,28.187658,0.196],
    [17011,"urn:WaterMeter:MC0203J22010600005","2024-04-07T02:00:00",17.7,28.184206,0.203],
    [17012,"urn:WaterMeter:MC0203J22010600005","2024-04-07T02:15:00",17.6,28.17451,0.194],
    [17013,"urn:WaterMeter:MC0203J22010600005","2024-04-07T02:30:00",17.6,28.163647,0.21],
    [17014,"urn:WaterMeter:MC0203J22010600005","2024-04-07T02:45:00",17.5,28.196619,0.199],
    [17015,"urn:WaterMeter:MC0203J22010600005","2024-04-07T03:00:00",17.399,28.13533,0.2],
    [17016,"urn:WaterMeter:MC0203J22010600005","2024-04-07T03:15:00",17.399,28.141886,0.197],
    [17017,"urn:WaterMeter:MC0203J22010600005","2024-04-07T03:30:00",17.299,28.160116,0.206],
    [17018,"urn:WaterMeter:MC0203J22010600005","2024-04-07T03:45:00",17.299,28.169815,0.198],
    [17019,"urn:WaterMeter:MC0203J22010600005","2024-04-07T04:00:00",17.2,28.17606,0.2],
    [17020,"urn:WaterMeter:MC0203J22010600005","2024-04-07T04:15:00",17.1,28.159729,0.195],
    [17021,"urn:WaterMeter:MC0203J22010600005","2024-04-07T04:30:00",17,28.131025,0.196],
    [17022,"urn:WaterMeter:MC0203J22010600005","2024-04-07T04:45:00",17,28.117874,0.195],
    [17023,"urn:WaterMeter:MC0203J22010600005","2024-04-07T05:00:00",16.899,28.113607,0.201],
    [17024,"urn:WaterMeter:MC0203J22010600005","2024-04-07T05:15:00",16.899,28.12249,0.206],
    [17025,"urn:WaterMeter:MC0203J22010600005","2024-04-07T05:30:00",16.799,28.170591,0.196],
    [17026,"urn:WaterMeter:MC0203J22010600005","2024-04-07T05:45:00",16.799,28.14111,0.191],
    [17027,"urn:WaterMeter:MC0203J22010600005","2024-04-07T06:00:00",16.7,28.139597,0.194],
    [17028,"urn:WaterMeter:MC0203J22010600005","2024-04-07T06:15:00",16.6,28.11865,0.205],
    [17029,"urn:WaterMeter:MC0203J22010600005","2024-04-07T06:30:00",16.6,28.121326,0.195],
    [17030,"urn:WaterMeter:MC0203J22010600005","2024-04-07T06:45:00",16.6,28.128347,0.191],
    [17031,"urn:WaterMeter:MC0203J22010600005","2024-04-07T07:00:00",16.6,28.075594,0.194],
    [17032,"urn:WaterMeter:MC0203J22010600005","2024-04-07T07:15:00",16.7,28.1074,0.196],
    [17033,"urn:WaterMeter:MC0203J22010600005","2024-04-07T07:30:00",16.799,28.082537,0.193],
    [17034,"urn:WaterMeter:MC0203J22010600005","2024-04-07T07:45:00",16.899,28.0837,0.195],
    [17035,"urn:WaterMeter:MC0203J22010600005","2024-04-07T08:00:00",17.1,28.066284,0.18],
    [17036,"urn:WaterMeter:MC0203J22010600005","2024-04-07T08:15:00",17.299,28.05581,0.197],
    [17037,"urn:WaterMeter:MC0203J22010600005","2024-04-07T08:30:00",17.5,28.014267,0.199],
    [17038,"urn:WaterMeter:MC0203J22010600005","2024-04-07T08:45:00",17.6,27.980946,0.195],
    [17039,"urn:WaterMeter:MC0203J22010600005","2024-04-07T09:00:00",17.799,27.969309,0.2],
    [17040,"urn:WaterMeter:MC0203J22010600005","2024-04-07T09:15:00",17.899,27.928968,0.205],
    [17041,"urn:WaterMeter:MC0203J22010600005","2024-04-07T09:30:00",18.1,27.89173,0.19],
    [17042,"urn:WaterMeter:MC0203J22010600005","2024-04-07T09:45:00",18.2,27.894444,0.19],
    [17043,"urn:WaterMeter:MC0203J22010600005","2024-04-07T10:00:00",18.299,27.841263,0.197],
    [17044,"urn:WaterMeter:MC0203J22010600005","2024-04-07T10:15:00",18.399,27.81954,0.212],
    [17045,"urn:WaterMeter:MC0203J22010600005","2024-04-07T10:30:00",18.5,27.793978,0.185],
    [17046,"urn:WaterMeter:MC0203J22010600005","2024-04-07T10:45:00",18.7,27.745104,0.198],
    [17047,"urn:WaterMeter:MC0203J22010600005","2024-04-07T11:00:00",18.899,27.695414,0.183],
    [17048,"urn:WaterMeter:MC0203J22010600005","2024-04-07T11:15:00",19.1,27.704334,0.187],
    [17049,"urn:WaterMeter:MC0203J22010600005","2024-04-07T11:30:00",19.299,27.677996,0.174],
    [17050,"urn:WaterMeter:MC0203J22010600005","2024-04-07T11:45:00",19.5,27.597662,0.206],
    [17051,"urn:WaterMeter:MC0203J22010600005","2024-04-07T12:00:00",19.7,27.562403,0.178],
    [17052,"urn:WaterMeter:MC0203J22010600005","2024-04-07T12:15:00",19.899,27.515078,0.186],
    [17053,"urn:WaterMeter:MC0203J22010600005","2024-04-07T12:30:00",20,27.465427,0.183],
    [17054,"urn:WaterMeter:MC0203J22010600005","2024-04-07T12:45:00",20.2,27.409182,0.185],
    [17055,"urn:WaterMeter:MC0203J22010600005","2024-04-07T13:00:00",20.399,27.410732,0.188],
    [17056,"urn:WaterMeter:MC0203J22010600005","2024-04-07T13:15:00",20.5,27.346302,0.194],
    [17057,"urn:WaterMeter:MC0203J22010600005","2024-04-07T13:30:00",20.7,27.297039,0.181],
    [17058,"urn:WaterMeter:MC0203J22010600005","2024-04-07T13:45:00",20.799,27.245876,0.192],
    [17059,"urn:WaterMeter:MC0203J22010600005","2024-04-07T14:00:00",20.899,27.167908,0.189],
    [17060,"urn:WaterMeter:MC0203J22010600005","2024-04-07T14:15:00",21,27.15821,0.18],
    [17061,"urn:WaterMeter:MC0203J22010600005","2024-04-07T14:30:00",21.1,27.068993,0.175],
    [17062,"urn:WaterMeter:MC0203J22010600005","2024-04-07T14:45:00",21.1,27.0399,0.18],
    [17063,"urn:WaterMeter:MC0203J22010600005","2024-04-07T15:00:00",21.2,27.005726,0.183],
    [17064,"urn:WaterMeter:MC0203J22010600005","2024-04-07T15:15:00",21.2,27.000723,0.197],
    [17065,"urn:WaterMeter:MC0203J22010600005","2024-04-07T15:30:00",21.299,26.902584,0.193],
    [17066,"urn:WaterMeter:MC0203J22010600005","2024-04-07T15:45:00",21.299,26.920427,0.178],
    [17067,"urn:WaterMeter:MC0203J22010600005","2024-04-07T16:00:00",21.399,26.88474,0.178],
    [17068,"urn:WaterMeter:MC0203J22010600005","2024-04-07T16:15:00",21.399,26.813755,0.183],
    [17069,"urn:WaterMeter:MC0203J22010600005","2024-04-07T16:30:00",21.399,26.772987,0.174],
    [17070,"urn:WaterMeter:MC0203J22010600005","2024-04-07T16:45:00",21.399,26.78699,0.196],
    [17071,"urn:WaterMeter:MC0203J22010600005","2024-04-07T17:00:00",21.399,26.766432,0.179],
    [17072,"urn:WaterMeter:MC0203J22010600005","2024-04-07T17:15:00",21.299,26.696959,0.174],
    [17073,"urn:WaterMeter:MC0203J22010600005","2024-04-07T17:30:00",21.2,26.723373,0.192],
    [17074,"urn:WaterMeter:MC0203J22010600005","2024-04-07T17:45:00",21.1,26.66131,0.173],
    [17075,"urn:WaterMeter:MC0203J22010600005","2024-04-07T18:00:00",21,26.638773,0.178],
    [17076,"urn:WaterMeter:MC0203J22010600005","2024-04-07T18:15:00",20.799,26.657005,0.184],
    [17077,"urn:WaterMeter:MC0203J22010600005","2024-04-07T18:30:00",20.7,26.655453,0.179],
    [17078,"urn:WaterMeter:MC0203J22010600005","2024-04-07T18:45:00",20.5,26.624071,0.179],
    [17079,"urn:WaterMeter:MC0203J22010600005","2024-04-07T19:00:00",20.399,26.66325,0.183],
    [17080,"urn:WaterMeter:MC0203J22010600005","2024-04-07T19:15:00",20.299,26.638773,0.182],
    [17081,"urn:WaterMeter:MC0203J22010600005","2024-04-07T19:30:00",20.1,26.64114,0.188],
    [17082,"urn:WaterMeter:MC0203J22010600005","2024-04-07T19:45:00",20,26.587997,0.186],
    [17083,"urn:WaterMeter:MC0203J22010600005","2024-04-07T20:00:00",19.899,26.625624,0.177],
    [17084,"urn:WaterMeter:MC0203J22010600005","2024-04-07T20:15:00",19.799,26.63338,0.182],
    [17085,"urn:WaterMeter:MC0203J22010600005","2024-04-07T20:30:00",19.7,26.616663,0.18],
    [17086,"urn:WaterMeter:MC0203J22010600005","2024-04-07T20:45:00",19.6,26.599207,0.179],
    [17087,"urn:WaterMeter:MC0203J22010600005","2024-04-07T21:00:00",19.5,26.628689,0.18],
    [17088,"urn:WaterMeter:MC0203J22010600005","2024-04-07T21:15:00",19.399,26.630278,0.174],
    [17089,"urn:WaterMeter:MC0203J22010600005","2024-04-07T21:30:00",19.299,26.579813,0.174],
    [17090,"urn:WaterMeter:MC0203J22010600005","2024-04-07T21:45:00",19.2,26.63183,0.178],
    [17091,"urn:WaterMeter:MC0203J22010600005","2024-04-07T22:00:00",19.2,26.62601,0.176],
    [17092,"urn:WaterMeter:MC0203J22010600005","2024-04-07T22:15:00",19.1,26.615887,0.178],
    [17093,"urn:WaterMeter:MC0203J22010600005","2024-04-07T22:30:00",19,26.620968,0.175],
    [17094,"urn:WaterMeter:MC0203J22010600005","2024-04-07T22:45:00",19,26.61515,0.191],
    [17095,"urn:WaterMeter:MC0203J22010600005","2024-04-07T23:00:00",18.899,26.59498,0.178],
    [17096,"urn:WaterMeter:MC0203J22010600005","2024-04-07T23:15:00",18.799,26.593815,0.187],
    [17097,"urn:WaterMeter:MC0203J22010600005","2024-04-07T23:30:00",18.799,26.555801,0.187],
    [17098,"urn:WaterMeter:MC0203J22010600005","2024-04-07T23:45:00",18.7,26.585281,0.175],
    [17099,"urn:WaterMeter:MC0203J22010600005","2024-04-08T00:00:00",18.6,26.57636,0.175],
    [17100,"urn:WaterMeter:MC0203J22010600005","2024-04-08T00:15:00",18.6,26.56899,0.186],
    [17101,"urn:WaterMeter:MC0203J22010600005","2024-04-08T00:30:00",18.5,26.58951,0.186],
    [17102,"urn:WaterMeter:MC0203J22010600005","2024-04-08T00:45:00",18.5,26.558477,0.185],
    [17103,"urn:WaterMeter:MC0203J22010600005","2024-04-08T01:00:00",18.399,26.553474,0.182],
    [17104,"urn:WaterMeter:MC0203J22010600005","2024-04-08T01:15:00",18.299,26.565887,0.181],
    [17105,"urn:WaterMeter:MC0203J22010600005","2024-04-08T01:30:00",18.2,26.593428,0.18],
    [17106,"urn:WaterMeter:MC0203J22010600005","2024-04-08T01:45:00",18.2,26.547655,0.181],
    [17107,"urn:WaterMeter:MC0203J22010600005","2024-04-08T02:00:00",18.2,26.554638,0.18],
    [17108,"urn:WaterMeter:MC0203J22010600005","2024-04-08T02:15:00",18.1,26.542225,0.175],
    [17109,"urn:WaterMeter:MC0203J22010600005","2024-04-08T02:30:00",18,26.55809,0.181],
    [17110,"urn:WaterMeter:MC0203J22010600005","2024-04-08T02:45:00",18,26.546104,0.177],
    [17111,"urn:WaterMeter:MC0203J22010600005","2024-04-08T03:00:00",17.899,26.533691,0.189],
    [17112,"urn:WaterMeter:MC0203J22010600005","2024-04-08T03:15:00",17.899,26.579424,0.176],
    [17113,"urn:WaterMeter:MC0203J22010600005","2024-04-08T03:30:00",17.799,26.501844,0.178],
    [17114,"urn:WaterMeter:MC0203J22010600005","2024-04-08T03:45:00",17.7,26.56162,0.18],
    [17115,"urn:WaterMeter:MC0203J22010600005","2024-04-08T04:00:00",17.6,26.514685,0.183],
    [17116,"urn:WaterMeter:MC0203J22010600005","2024-04-08T04:15:00",17.6,26.522404,0.175],
    [17117,"urn:WaterMeter:MC0203J22010600005","2024-04-08T04:30:00",17.5,26.542225,0.193],
    [17118,"urn:WaterMeter:MC0203J22010600005","2024-04-08T04:45:00",17.5,26.530937,0.176],
    [17119,"urn:WaterMeter:MC0203J22010600005","2024-04-08T05:00:00",17.399,26.553085,0.201],
    [17120,"urn:WaterMeter:MC0203J22010600005","2024-04-08T05:15:00",17.399,26.55964,0.173],
    [17121,"urn:WaterMeter:MC0203J22010600005","2024-04-08T05:30:00",17.299,26.522015,0.178],
    [17122,"urn:WaterMeter:MC0203J22010600005","2024-04-08T05:45:00",17.299,26.544165,0.171],
    [17123,"urn:WaterMeter:MC0203J22010600005","2024-04-08T06:00:00",17.2,26.481285,0.17],
    [17124,"urn:WaterMeter:MC0203J22010600005","2024-04-08T06:15:00",17.2,26.507702,0.176],
    [17125,"urn:WaterMeter:MC0203J22010600005","2024-04-08T06:30:00",17.2,26.536795,0.181],
    [17126,"urn:WaterMeter:MC0203J22010600005","2024-04-08T06:45:00",17.2,26.51193,0.175],
    [17127,"urn:WaterMeter:MC0203J22010600005","2024-04-08T07:00:00",17.299,26.48245,0.182],
    [17128,"urn:WaterMeter:MC0203J22010600005","2024-04-08T07:15:00",17.399,26.494513,0.183],
    [17129,"urn:WaterMeter:MC0203J22010600005","2024-04-08T07:30:00",17.5,26.474342,0.181],
    [17130,"urn:WaterMeter:MC0203J22010600005","2024-04-08T07:45:00",17.6,26.460728,0.191],
    [17131,"urn:WaterMeter:MC0203J22010600005","2024-04-08T08:00:00",17.799,26.465809,0.187],
    [17132,"urn:WaterMeter:MC0203J22010600005","2024-04-08T08:15:00",18,26.787378,0.184],
    [17133,"urn:WaterMeter:MC0203J22010600005","2024-04-08T08:30:00",18.2,28.123306,0.211],
    [17134,"urn:WaterMeter:MC0203J22010600005","2024-04-08T08:45:00",18.299,29.288557,0.215],
    [17135,"urn:WaterMeter:MC0203J22010600005","2024-04-08T09:00:00",18.5,30.093838,0.24],
    [17136,"urn:WaterMeter:MC0203J22010600005","2024-04-08T09:15:00",18.7,30.285849,0.237],
    [17137,"urn:WaterMeter:MC0203J22010600005","2024-04-08T09:30:00",18.899,30.286623,0.223],
    [17138,"urn:WaterMeter:MC0203J22010600005","2024-04-08T09:45:00",19.2,30.321108,0.236],
    [17139,"urn:WaterMeter:MC0203J22010600005","2024-04-08T10:00:00",19.399,30.305632,0.23],
    [17140,"urn:WaterMeter:MC0203J22010600005","2024-04-08T10:15:00",19.6,30.27809,0.228],
    [17141,"urn:WaterMeter:MC0203J22010600005","2024-04-08T10:30:00",19.799,30.25016,0.226],
    [17142,"urn:WaterMeter:MC0203J22010600005","2024-04-08T10:45:00",20.1,30.190424,0.225],
    [17143,"urn:WaterMeter:MC0203J22010600005","2024-04-08T11:00:00",20.299,30.136507,0.235],
    [17144,"urn:WaterMeter:MC0203J22010600005","2024-04-08T11:15:00",20.6,30.142324,0.223],
    [17145,"urn:WaterMeter:MC0203J22010600005","2024-04-08T11:30:00",20.799,30.104311,0.221],
    [17146,"urn:WaterMeter:MC0203J22010600005","2024-04-08T11:45:00",21,30.049578,0.232],
    [17147,"urn:WaterMeter:MC0203J22010600005","2024-04-08T12:00:00",21.1,30.007336,0.216],
    [17148,"urn:WaterMeter:MC0203J22010600005","2024-04-08T12:15:00",21.399,29.980959,0.228],
    [17149,"urn:WaterMeter:MC0203J22010600005","2024-04-08T12:30:00",21.5,29.936737,0.217],
    [17150,"urn:WaterMeter:MC0203J22010600005","2024-04-08T12:45:00",21.7,29.90881,0.225],
    [17151,"urn:WaterMeter:MC0203J22010600005","2024-04-08T13:00:00",21.799,29.849073,0.231],
    [17152,"urn:WaterMeter:MC0203J22010600005","2024-04-08T13:15:00",21.899,29.828863,0.217],
    [17153,"urn:WaterMeter:MC0203J22010600005","2024-04-08T13:30:00",21.899,29.772655,0.216],
    [17154,"urn:WaterMeter:MC0203J22010600005","2024-04-08T13:45:00",22,29.712105,0.24],
    [17155,"urn:WaterMeter:MC0203J22010600005","2024-04-08T14:00:00",22.1,29.716799,0.218],
    [17156,"urn:WaterMeter:MC0203J22010600005","2024-04-08T14:15:00",22.1,29.678396,0.217],
    [17157,"urn:WaterMeter:MC0203J22010600005","2024-04-08T14:30:00",22.2,29.628746,0.238],
    [17158,"urn:WaterMeter:MC0203J22010600005","2024-04-08T14:45:00",22.2,29.62603,0.216],
    [17159,"urn:WaterMeter:MC0203J22010600005","2024-04-08T15:00:00",22.2,29.614355,0.213],
    [17160,"urn:WaterMeter:MC0203J22010600005","2024-04-08T15:15:00",22.1,29.566254,0.219],
    [17161,"urn:WaterMeter:MC0203J22010600005","2024-04-08T15:30:00",22.1,29.538752,0.241],
    [17162,"urn:WaterMeter:MC0203J22010600005","2024-04-08T15:45:00",22,29.510824,0.22],
    [17163,"urn:WaterMeter:MC0203J22010600005","2024-04-08T16:00:00",22,29.486347,0.218],
    [17164,"urn:WaterMeter:MC0203J22010600005","2024-04-08T16:15:00",22,29.44135,0.227],
    [17165,"urn:WaterMeter:MC0203J22010600005","2024-04-08T16:30:00",22,29.466215,0.212],
    [17166,"urn:WaterMeter:MC0203J22010600005","2024-04-08T16:45:00",21.899,29.433243,0.219],
    [17167,"urn:WaterMeter:MC0203J22010600005","2024-04-08T17:00:00",21.799,29.425098,0.229],
    [17168,"urn:WaterMeter:MC0203J22010600005","2024-04-08T17:15:00",21.7,29.4154,0.222],
    [17169,"urn:WaterMeter:MC0203J22010600005","2024-04-08T17:30:00",21.6,29.412258,0.215],
    [17170,"urn:WaterMeter:MC0203J22010600005","2024-04-08T17:45:00",21.5,29.387083,0.215],
    [17171,"urn:WaterMeter:MC0203J22010600005","2024-04-08T18:00:00",21.5,29.366913,0.22],
    [17172,"urn:WaterMeter:MC0203J22010600005","2024-04-08T18:15:00",21.399,29.366913,0.21],
    [17173,"urn:WaterMeter:MC0203J22010600005","2024-04-08T18:30:00",21.299,29.353298,0.22],
    [17174,"urn:WaterMeter:MC0203J22010600005","2024-04-08T18:45:00",21.2,29.31412,0.229],
    [17175,"urn:WaterMeter:MC0203J22010600005","2024-04-08T19:00:00",21,29.31218,0.219],
    [17176,"urn:WaterMeter:MC0203J22010600005","2024-04-08T19:15:00",20.899,29.322693,0.21],
    [17177,"urn:WaterMeter:MC0203J22010600005","2024-04-08T19:30:00",20.799,29.30834,0.221],
    [17178,"urn:WaterMeter:MC0203J22010600005","2024-04-08T19:45:00",20.6,29.307564,0.215],
    [17179,"urn:WaterMeter:MC0203J22010600005","2024-04-08T20:00:00",20.5,29.3064,0.224],
    [17180,"urn:WaterMeter:MC0203J22010600005","2024-04-08T20:15:00",20.399,29.263344,0.218],
    [17181,"urn:WaterMeter:MC0203J22010600005","2024-04-08T20:30:00",20.299,29.30834,0.21],
    [17182,"urn:WaterMeter:MC0203J22010600005","2024-04-08T20:45:00",20.2,29.302134,0.221],
    [17183,"urn:WaterMeter:MC0203J22010600005","2024-04-08T21:00:00",20,29.305199,0.232],
    [17184,"urn:WaterMeter:MC0203J22010600005","2024-04-08T21:15:00",19.899,29.267223,0.218],
    [17185,"urn:WaterMeter:MC0203J22010600005","2024-04-08T21:30:00",19.799,29.302134,0.216],
    [17186,"urn:WaterMeter:MC0203J22010600005","2024-04-08T21:45:00",19.7,29.264507,0.221],
    [17187,"urn:WaterMeter:MC0203J22010600005","2024-04-08T22:00:00",19.6,29.267223,0.211],
    [17188,"urn:WaterMeter:MC0203J22010600005","2024-04-08T22:15:00",19.5,29.24007,0.216],
    [17189,"urn:WaterMeter:MC0203J22010600005","2024-04-08T22:30:00",19.399,29.287004,0.22],
    [17190,"urn:WaterMeter:MC0203J22010600005","2024-04-08T22:45:00",19.299,29.308727,0.209],
    [17191,"urn:WaterMeter:MC0203J22010600005","2024-04-08T23:00:00",19.2,29.255547,0.215],
    [17192,"urn:WaterMeter:MC0203J22010600005","2024-04-08T23:15:00",19.1,29.267223,0.216],
    [17193,"urn:WaterMeter:MC0203J22010600005","2024-04-08T23:30:00",19,29.231535,0.22],
    [17194,"urn:WaterMeter:MC0203J22010600005","2024-04-08T23:45:00",18.899,29.265633,0.222],
    [17195,"urn:WaterMeter:MC0203J22010600005","2024-04-09T00:00:00",18.899,29.228432,0.21],
    [17196,"urn:WaterMeter:MC0203J22010600005","2024-04-09T00:15:00",18.799,29.209038,0.213],
    [17197,"urn:WaterMeter:MC0203J22010600005","2024-04-09T00:30:00",18.6,29.226105,0.213],
    [17198,"urn:WaterMeter:MC0203J22010600005","2024-04-09T00:45:00",18.5,29.224941,0.226],
    [17199,"urn:WaterMeter:MC0203J22010600005","2024-04-09T01:00:00",18.399,29.267223,0.218],
    [17200,"urn:WaterMeter:MC0203J22010600005","2024-04-09T01:15:00",18.299,29.19775,0.209],
    [17201,"urn:WaterMeter:MC0203J22010600005","2024-04-09T01:30:00",18.2,29.257914,0.224],
    [17202,"urn:WaterMeter:MC0203J22010600005","2024-04-09T01:45:00",18,29.251318,0.209],
    [17203,"urn:WaterMeter:MC0203J22010600005","2024-04-09T02:00:00",17.899,29.214817,0.221],
    [17204,"urn:WaterMeter:MC0203J22010600005","2024-04-09T02:15:00",17.799,29.181885,0.226],
    [17205,"urn:WaterMeter:MC0203J22010600005","2024-04-09T02:30:00",17.7,29.223778,0.22],
    [17206,"urn:WaterMeter:MC0203J22010600005","2024-04-09T02:45:00",17.6,29.196974,0.215],
    [17207,"urn:WaterMeter:MC0203J22010600005","2024-04-09T03:00:00",17.5,29.189217,0.23],
    [17208,"urn:WaterMeter:MC0203J22010600005","2024-04-09T03:15:00",17.399,29.188828,0.207],
    [17209,"urn:WaterMeter:MC0203J22010600005","2024-04-09T03:30:00",17.299,29.180721,0.223],
    [17210,"urn:WaterMeter:MC0203J22010600005","2024-04-09T03:45:00",17.2,29.200891,0.22],
    [17211,"urn:WaterMeter:MC0203J22010600005","2024-04-09T04:00:00",17.1,29.217144,0.216],
    [17212,"urn:WaterMeter:MC0203J22010600005","2024-04-09T04:15:00",17,29.19581,0.218],
    [17213,"urn:WaterMeter:MC0203J22010600005","2024-04-09T04:30:00",16.899,29.159348,0.21],
    [17214,"urn:WaterMeter:MC0203J22010600005","2024-04-09T04:45:00",16.799,29.154343,0.219],
    [17215,"urn:WaterMeter:MC0203J22010600005","2024-04-09T05:00:00",16.7,29.218735,0.212],
    [17216,"urn:WaterMeter:MC0203J22010600005","2024-04-09T05:15:00",16.6,29.150425,0.213],
    [17217,"urn:WaterMeter:MC0203J22010600005","2024-04-09T05:30:00",16.5,29.177967,0.219],
    [17218,"urn:WaterMeter:MC0203J22010600005","2024-04-09T05:45:00",16.399,29.138788,0.208],
    [17219,"urn:WaterMeter:MC0203J22010600005","2024-04-09T06:00:00",16.299,29.145422,0.205],
    [17220,"urn:WaterMeter:MC0203J22010600005","2024-04-09T06:15:00",16.2,29.182661,0.213],
    [17221,"urn:WaterMeter:MC0203J22010600005","2024-04-09T06:30:00",16.2,29.146198,0.21],
    [17222,"urn:WaterMeter:MC0203J22010600005","2024-04-09T06:45:00",16.1,29.136889,0.22],
    [17223,"urn:WaterMeter:MC0203J22010600005","2024-04-09T07:00:00",16.1,29.147749,0.21],
    [17224,"urn:WaterMeter:MC0203J22010600005","2024-04-09T07:15:00",16.1,29.117105,0.213],
    [17225,"urn:WaterMeter:MC0203J22010600005","2024-04-09T07:30:00",16.1,29.124475,0.208],
    [17226,"urn:WaterMeter:MC0203J22010600005","2024-04-09T07:45:00",16.1,29.124475,0.212],
    [17227,"urn:WaterMeter:MC0203J22010600005","2024-04-09T08:00:00",16.1,29.089563,0.21],
    [17228,"urn:WaterMeter:MC0203J22010600005","2024-04-09T08:15:00",16.2,29.089952,0.206],
    [17229,"urn:WaterMeter:MC0203J22010600005","2024-04-09T08:30:00",16.2,29.039913,0.206],
    [17230,"urn:WaterMeter:MC0203J22010600005","2024-04-09T08:45:00",16.299,29.019743,0.212],
    [17231,"urn:WaterMeter:MC0203J22010600005","2024-04-09T09:00:00",16.5,29.024784,0.206],
    [17232,"urn:WaterMeter:MC0203J22010600005","2024-04-09T09:15:00",16.6,28.982077,0.209],
    [17233,"urn:WaterMeter:MC0203J22010600005","2024-04-09T09:30:00",16.7,28.921215,0.203],
    [17234,"urn:WaterMeter:MC0203J22010600005","2024-04-09T09:45:00",16.899,28.899105,0.204],
    [17235,"urn:WaterMeter:MC0203J22010600005","2024-04-09T10:00:00",17,28.863031,0.208],
    [17236,"urn:WaterMeter:MC0203J22010600005","2024-04-09T10:15:00",17.2,28.823465,0.204],
    [17237,"urn:WaterMeter:MC0203J22010600005","2024-04-09T10:30:00",17.399,28.825016,0.195],
    [17238,"urn:WaterMeter:MC0203J22010600005","2024-04-09T10:45:00",17.5,28.775366,0.2],
    [17239,"urn:WaterMeter:MC0203J22010600005","2024-04-09T11:00:00",17.7,28.718733,0.2],
    [17240,"urn:WaterMeter:MC0203J22010600005","2024-04-09T11:15:00",17.899,28.720284,0.2],
    [17241,"urn:WaterMeter:MC0203J22010600005","2024-04-09T11:30:00",18.1,28.656668,0.196],
    [17242,"urn:WaterMeter:MC0203J22010600005","2024-04-09T11:45:00",18.2,28.601198,0.197],
    [17243,"urn:WaterMeter:MC0203J22010600005","2024-04-09T12:00:00",18.399,28.57517,0.207],
    [17244,"urn:WaterMeter:MC0203J22010600005","2024-04-09T12:15:00",18.6,28.53254,0.194],
    [17245,"urn:WaterMeter:MC0203J22010600005","2024-04-09T12:30:00",18.6,28.492586,0.199],
    [17246,"urn:WaterMeter:MC0203J22010600005","2024-04-09T12:45:00",18.7,28.412252,0.207],
    [17247,"urn:WaterMeter:MC0203J22010600005","2024-04-09T13:00:00",18.799,28.371561,0.195],
    [17248,"urn:WaterMeter:MC0203J22010600005","2024-04-09T13:15:00",18.899,28.33665,0.203],
    [17249,"urn:WaterMeter:MC0203J22010600005","2024-04-09T13:30:00",18.899,28.343594,0.205],
    [17250,"urn:WaterMeter:MC0203J22010600005","2024-04-09T13:45:00",19,28.246231,0.196],
    [17251,"urn:WaterMeter:MC0203J22010600005","2024-04-09T14:00:00",19,28.246231,0.195],
    [17252,"urn:WaterMeter:MC0203J22010600005","2024-04-09T14:15:00",19.1,28.175283,0.193],
    [17253,"urn:WaterMeter:MC0203J22010600005","2024-04-09T14:30:00",19.1,28.1318,0.204],
    [17254,"urn:WaterMeter:MC0203J22010600005","2024-04-09T14:45:00",19.1,28.093824,0.203],
    [17255,"urn:WaterMeter:MC0203J22010600005","2024-04-09T15:00:00",19.1,28.100807,0.196],
    [17256,"urn:WaterMeter:MC0203J22010600005","2024-04-09T15:15:00",19.1,28.056587,0.196],
    [17257,"urn:WaterMeter:MC0203J22010600005","2024-04-09T15:30:00",19.1,28.000341,0.199],
    [17258,"urn:WaterMeter:MC0203J22010600005","2024-04-09T15:45:00",19.1,27.957245,0.195],
    [17259,"urn:WaterMeter:MC0203J22010600005","2024-04-09T16:00:00",19,27.936687,0.221],
    [17260,"urn:WaterMeter:MC0203J22010600005","2024-04-09T16:15:00",19,27.90996,0.212],
    [17261,"urn:WaterMeter:MC0203J22010600005","2024-04-09T16:30:00",19,27.904142,0.194],
    [17262,"urn:WaterMeter:MC0203J22010600005","2024-04-09T16:45:00",18.899,27.862637,0.205],
    [17263,"urn:WaterMeter:MC0203J22010600005","2024-04-09T17:00:00",18.799,27.800146,0.202],
    [17264,"urn:WaterMeter:MC0203J22010600005","2024-04-09T17:15:00",18.799,27.850573,0.187],
    [17265,"urn:WaterMeter:MC0203J22010600005","2024-04-09T17:30:00",18.799,27.783504,0.199],
    [17266,"urn:WaterMeter:MC0203J22010600005","2024-04-09T17:45:00",18.7,27.766438,0.196],
    [17267,"urn:WaterMeter:MC0203J22010600005","2024-04-09T18:00:00",18.7,27.774971,0.197],
    [17268,"urn:WaterMeter:MC0203J22010600005","2024-04-09T18:15:00",18.6,27.737345,0.19],
    [17269,"urn:WaterMeter:MC0203J22010600005","2024-04-09T18:30:00",18.5,27.738508,0.204],
    [17270,"urn:WaterMeter:MC0203J22010600005","2024-04-09T18:45:00",18.5,27.722954,0.197],
    [17271,"urn:WaterMeter:MC0203J22010600005","2024-04-09T19:00:00",18.399,27.698555,0.202],
    [17272,"urn:WaterMeter:MC0203J22010600005","2024-04-09T19:15:00",18.2,27.708641,0.195],
    [17273,"urn:WaterMeter:MC0203J22010600005","2024-04-09T19:30:00",18.1,27.656235,0.195],
    [17274,"urn:WaterMeter:MC0203J22010600005","2024-04-09T19:45:00",18,27.667135,0.191],
    [17275,"urn:WaterMeter:MC0203J22010600005","2024-04-09T20:00:00",17.899,27.656624,0.205],
    [17276,"urn:WaterMeter:MC0203J22010600005","2024-04-09T20:15:00",17.799,27.707865,0.196],
    [17277,"urn:WaterMeter:MC0203J22010600005","2024-04-09T20:30:00",17.6,27.653946,0.189],
    [17278,"urn:WaterMeter:MC0203J22010600005","2024-04-09T20:45:00",17.5,27.658213,0.196],
    [17279,"urn:WaterMeter:MC0203J22010600005","2024-04-09T21:00:00",17.399,27.625591,0.194],
    [17280,"urn:WaterMeter:MC0203J22010600005","2024-04-09T21:15:00",17.299,27.637228,0.19],
    [17281,"urn:WaterMeter:MC0203J22010600005","2024-04-09T21:30:00",17.2,27.662092,0.197],
    [17282,"urn:WaterMeter:MC0203J22010600005","2024-04-09T21:45:00",17.1,27.650068,0.204],
    [17283,"urn:WaterMeter:MC0203J22010600005","2024-04-09T22:00:00",17.1,27.659765,0.195],
    [17284,"urn:WaterMeter:MC0203J22010600005","2024-04-09T22:15:00",16.899,27.639982,0.194],
    [17285,"urn:WaterMeter:MC0203J22010600005","2024-04-09T22:30:00",16.799,27.642696,0.201],
    [17286,"urn:WaterMeter:MC0203J22010600005","2024-04-09T22:45:00",16.7,27.651232,0.191],
    [17287,"urn:WaterMeter:MC0203J22010600005","2024-04-09T23:00:00",16.6,27.622526,0.194],
    [17288,"urn:WaterMeter:MC0203J22010600005","2024-04-09T23:15:00",16.5,27.66632,0.197],
    [17289,"urn:WaterMeter:MC0203J22010600005","2024-04-09T23:30:00",16.399,27.661705,0.191],
    [17290,"urn:WaterMeter:MC0203J22010600005","2024-04-09T23:45:00",16.299,27.645761,0.192],
    [17291,"urn:WaterMeter:MC0203J22010600005","2024-04-10T00:00:00",16.2,27.635326,0.209],
    [17292,"urn:WaterMeter:MC0203J22010600005","2024-04-10T00:15:00",16.1,27.676018,0.183],
    [17293,"urn:WaterMeter:MC0203J22010600005","2024-04-10T00:30:00",16,27.648129,0.199],
    [17294,"urn:WaterMeter:MC0203J22010600005","2024-04-10T00:45:00",15.899,27.628733,0.197],
    [17295,"urn:WaterMeter:MC0203J22010600005","2024-04-10T01:00:00",15.8,27.619423,0.194],
    [17296,"urn:WaterMeter:MC0203J22010600005","2024-04-10T01:15:00",15.6,27.671015,0.198],
    [17297,"urn:WaterMeter:MC0203J22010600005","2024-04-10T01:30:00",15.5,27.650455,0.196],
    [17298,"urn:WaterMeter:MC0203J22010600005","2024-04-10T01:45:00",15.5,27.684164,0.19],
    [17299,"urn:WaterMeter:MC0203J22010600005","2024-04-10T02:00:00",15.399,27.652395,0.201],
    [17300,"urn:WaterMeter:MC0203J22010600005","2024-04-10T02:15:00",15.199,27.667522,0.197],
    [17301,"urn:WaterMeter:MC0203J22010600005","2024-04-10T02:30:00",15.1,27.676405,0.195],
    [17302,"urn:WaterMeter:MC0203J22010600005","2024-04-10T02:45:00",15,27.650068,0.194],
    [17303,"urn:WaterMeter:MC0203J22010600005","2024-04-10T03:00:00",14.899,27.624428,0.194],
    [17304,"urn:WaterMeter:MC0203J22010600005","2024-04-10T03:15:00",14.699,27.633776,0.202],
    [17305,"urn:WaterMeter:MC0203J22010600005","2024-04-10T03:30:00",14.6,27.676018,0.197],
    [17306,"urn:WaterMeter:MC0203J22010600005","2024-04-10T03:45:00",14.5,27.688082,0.191],
    [17307,"urn:WaterMeter:MC0203J22010600005","2024-04-10T04:00:00",14.399,27.63106,0.198],
    [17308,"urn:WaterMeter:MC0203J22010600005","2024-04-10T04:15:00",14.3,27.68494,0.19],
    [17309,"urn:WaterMeter:MC0203J22010600005","2024-04-10T04:30:00",14.199,27.658213,0.196],
    [17310,"urn:WaterMeter:MC0203J22010600005","2024-04-10T04:45:00",14.1,27.67563,0.191],
    [17311,"urn:WaterMeter:MC0203J22010600005","2024-04-10T05:00:00",14,27.689632,0.197],
    [17312,"urn:WaterMeter:MC0203J22010600005","2024-04-10T05:15:00",13.899,27.664381,0.197],
    [17313,"urn:WaterMeter:MC0203J22010600005","2024-04-10T05:30:00",13.699,27.658213,0.196],
    [17314,"urn:WaterMeter:MC0203J22010600005","2024-04-10T05:45:00",13.5,27.689632,0.184],
    [17315,"urn:WaterMeter:MC0203J22010600005","2024-04-10T06:00:00",13.399,27.644985,0.204],
    [17316,"urn:WaterMeter:MC0203J22010600005","2024-04-10T06:15:00",13.3,27.66248,0.196],
    [17317,"urn:WaterMeter:MC0203J22010600005","2024-04-10T06:30:00",13.3,27.680323,0.197],
    [17318,"urn:WaterMeter:MC0203J22010600005","2024-04-10T06:45:00",13.3,27.646149,0.191],
    [17319,"urn:WaterMeter:MC0203J22010600005","2024-04-10T07:00:00",13.3,27.703558,0.193],
    [17320,"urn:WaterMeter:MC0203J22010600005","2024-04-10T07:15:00",13.5,27.657011,0.191],
    [17321,"urn:WaterMeter:MC0203J22010600005","2024-04-10T07:30:00",13.8,27.625202,0.184],
    [17322,"urn:WaterMeter:MC0203J22010600005","2024-04-10T07:45:00",14.1,27.628733,0.186],
    [17323,"urn:WaterMeter:MC0203J22010600005","2024-04-10T08:00:00",14.3,27.769928,0.189],
    [17324,"urn:WaterMeter:MC0203J22010600005","2024-04-10T08:15:00",14.6,28.576334,0.205],
    [17325,"urn:WaterMeter:MC0203J22010600005","2024-04-10T08:30:00",14.8,29.61866,0.219],
    [17326,"urn:WaterMeter:MC0203J22010600005","2024-04-10T08:45:00",15.1,30.312225,0.23],
    [17327,"urn:WaterMeter:MC0203J22010600005","2024-04-10T09:00:00",15.3,30.716417,0.239],
    [17328,"urn:WaterMeter:MC0203J22010600005","2024-04-10T09:15:00",15.6,30.827705,0.228],
    [17329,"urn:WaterMeter:MC0203J22010600005","2024-04-10T09:30:00",15.899,30.740816,0.232],
    [17330,"urn:WaterMeter:MC0203J22010600005","2024-04-10T09:45:00",16.1,30.733871,0.235],
    [17331,"urn:WaterMeter:MC0203J22010600005","2024-04-10T10:00:00",16.399,30.648535,0.231],
    [17332,"urn:WaterMeter:MC0203J22010600005","2024-04-10T10:15:00",16.6,30.618666,0.226],
    [17333,"urn:WaterMeter:MC0203J22010600005","2024-04-10T10:30:00",16.799,30.592638,0.227],
    [17334,"urn:WaterMeter:MC0203J22010600005","2024-04-10T10:45:00",17,30.548069,0.226],
    [17335,"urn:WaterMeter:MC0203J22010600005","2024-04-10T11:00:00",17.299,30.518976,0.233],
    [17336,"urn:WaterMeter:MC0203J22010600005","2024-04-10T11:15:00",17.5,30.470877,0.224],
    [17337,"urn:WaterMeter:MC0203J22010600005","2024-04-10T11:30:00",17.799,30.438643,0.224],
    [17338,"urn:WaterMeter:MC0203J22010600005","2024-04-10T11:45:00",18,30.391706,0.234],
    [17339,"urn:WaterMeter:MC0203J22010600005","2024-04-10T12:00:00",18.1,30.354895,0.222],
    [17340,"urn:WaterMeter:MC0203J22010600005","2024-04-10T12:15:00",18.299,30.340115,0.219],
    [17341,"urn:WaterMeter:MC0203J22010600005","2024-04-10T12:30:00",18.5,30.271883,0.235],
    [17342,"urn:WaterMeter:MC0203J22010600005","2024-04-10T12:45:00",18.7,30.223358,0.217],
    [17343,"urn:WaterMeter:MC0203J22010600005","2024-04-10T13:00:00",18.799,30.22999,0.219],
    [17344,"urn:WaterMeter:MC0203J22010600005","2024-04-10T13:15:00",18.899,30.184956,0.229],
    [17345,"urn:WaterMeter:MC0203J22010600005","2024-04-10T13:30:00",19.1,30.10854,0.223],
    [17346,"urn:WaterMeter:MC0203J22010600005","2024-04-10T13:45:00",19.2,30.073278,0.234],
    [17347,"urn:WaterMeter:MC0203J22010600005","2024-04-10T14:00:00",19.399,30.058926,0.224],
    [17348,"urn:WaterMeter:MC0203J22010600005","2024-04-10T14:15:00",19.399,30.026731,0.228],
    [17349,"urn:WaterMeter:MC0203J22010600005","2024-04-10T14:30:00",19.5,30.01393,0.219],
    [17350,"urn:WaterMeter:MC0203J22010600005","2024-04-10T14:45:00",19.5,29.92316,0.229],
    [17351,"urn:WaterMeter:MC0203J22010600005","2024-04-10T15:00:00",19.5,29.92898,0.221],
    [17352,"urn:WaterMeter:MC0203J22010600005","2024-04-10T15:15:00",19.6,29.882431,0.22],
    [17353,"urn:WaterMeter:MC0203J22010600005","2024-04-10T15:30:00",19.6,29.825798,0.22],
    [17354,"urn:WaterMeter:MC0203J22010600005","2024-04-10T15:45:00",19.6,29.788172,0.216],
    [17355,"urn:WaterMeter:MC0203J22010600005","2024-04-10T16:00:00",19.7,29.756365,0.224],
    [17356,"urn:WaterMeter:MC0203J22010600005","2024-04-10T16:15:00",19.7,29.775759,0.229],
    [17357,"urn:WaterMeter:MC0203J22010600005","2024-04-10T16:30:00",19.7,29.717575,0.214],
    [17358,"urn:WaterMeter:MC0203J22010600005","2024-04-10T16:45:00",19.6,29.723005,0.225],
    [17359,"urn:WaterMeter:MC0203J22010600005","2024-04-10T17:00:00",19.6,29.697792,0.224],
    [17360,"urn:WaterMeter:MC0203J22010600005","2024-04-10T17:15:00",19.5,29.686155,0.22],
    [17361,"urn:WaterMeter:MC0203J22010600005","2024-04-10T17:30:00",19.399,29.697403,0.227],
    [17362,"urn:WaterMeter:MC0203J22010600005","2024-04-10T17:45:00",19.399,29.63922,0.216],
    [17363,"urn:WaterMeter:MC0203J22010600005","2024-04-10T18:00:00",19.299,29.63185,0.219],
    [17364,"urn:WaterMeter:MC0203J22010600005","2024-04-10T18:15:00",19.2,29.6225,0.217],
    [17365,"urn:WaterMeter:MC0203J22010600005","2024-04-10T18:30:00",19.1,29.608963,0.227],
    [17366,"urn:WaterMeter:MC0203J22010600005","2024-04-10T18:45:00",19,29.612066,0.224],
    [17367,"urn:WaterMeter:MC0203J22010600005","2024-04-10T19:00:00",18.899,29.584486,0.22],
    [17368,"urn:WaterMeter:MC0203J22010600005","2024-04-10T19:15:00",18.7,29.573664,0.218],
    [17369,"urn:WaterMeter:MC0203J22010600005","2024-04-10T19:30:00",18.6,29.571337,0.236],
    [17370,"urn:WaterMeter:MC0203J22010600005","2024-04-10T19:45:00",18.5,29.584873,0.217],
    [17371,"urn:WaterMeter:MC0203J22010600005","2024-04-10T20:00:00",18.399,29.583323,0.225],
    [17372,"urn:WaterMeter:MC0203J22010600005","2024-04-10T20:15:00",18.2,29.584486,0.231],
    [17373,"urn:WaterMeter:MC0203J22010600005","2024-04-10T20:30:00",18.1,29.560474,0.218],
    [17374,"urn:WaterMeter:MC0203J22010600005","2024-04-10T20:45:00",18,29.573664,0.22],
    [17375,"urn:WaterMeter:MC0203J22010600005","2024-04-10T21:00:00",17.899,29.57405,0.236],
    [17376,"urn:WaterMeter:MC0203J22010600005","2024-04-10T21:15:00",17.799,29.588404,0.219],
    [17377,"urn:WaterMeter:MC0203J22010600005","2024-04-10T21:30:00",17.7,29.560863,0.217],
    [17378,"urn:WaterMeter:MC0203J22010600005","2024-04-10T21:45:00",17.6,29.583323,0.228],
    [17379,"urn:WaterMeter:MC0203J22010600005","2024-04-10T22:00:00",17.5,29.598877,0.235],
    [17380,"urn:WaterMeter:MC0203J22010600005","2024-04-10T22:15:00",17.399,29.568233,0.232],
    [17381,"urn:WaterMeter:MC0203J22010600005","2024-04-10T22:30:00",17.299,29.551554,0.223],
    [17382,"urn:WaterMeter:MC0203J22010600005","2024-04-10T22:45:00",17.2,29.551554,0.219],
    [17383,"urn:WaterMeter:MC0203J22010600005","2024-04-10T23:00:00",17,29.568233,0.221],
    [17384,"urn:WaterMeter:MC0203J22010600005","2024-04-10T23:15:00",16.899,29.56703,0.225],
    [17385,"urn:WaterMeter:MC0203J22010600005","2024-04-10T23:30:00",16.799,29.520521,0.224],
    [17386,"urn:WaterMeter:MC0203J22010600005","2024-04-10T23:45:00",16.7,29.545696,0.226],
    [17387,"urn:WaterMeter:MC0203J22010600005","2024-04-11T00:00:00",16.6,29.586037,0.223],
    [17388,"urn:WaterMeter:MC0203J22010600005","2024-04-11T00:15:00",16.5,29.56509,0.226],
    [17389,"urn:WaterMeter:MC0203J22010600005","2024-04-11T00:30:00",16.5,29.58181,0.213],
    [17390,"urn:WaterMeter:MC0203J22010600005","2024-04-11T00:45:00",16.399,29.550001,0.216],
    [17391,"urn:WaterMeter:MC0203J22010600005","2024-04-11T01:00:00",16.299,29.541855,0.22],
    [17392,"urn:WaterMeter:MC0203J22010600005","2024-04-11T01:15:00",16.2,29.57793,0.214],
    [17393,"urn:WaterMeter:MC0203J22010600005","2024-04-11T01:30:00",16.2,29.53371,0.223],
    [17394,"urn:WaterMeter:MC0203J22010600005","2024-04-11T01:45:00",16.1,29.58181,0.217],
    [17395,"urn:WaterMeter:MC0203J22010600005","2024-04-11T02:00:00",16,29.51893,0.217],
    [17396,"urn:WaterMeter:MC0203J22010600005","2024-04-11T02:15:00",15.899,29.57444,0.214],
    [17397,"urn:WaterMeter:MC0203J22010600005","2024-04-11T02:30:00",15.899,29.538326,0.213],
    [17398,"urn:WaterMeter:MC0203J22010600005","2024-04-11T02:45:00",15.8,29.558535,0.223],
    [17399,"urn:WaterMeter:MC0203J22010600005","2024-04-11T03:00:00",15.699,29.527077,0.221],
    [17400,"urn:WaterMeter:MC0203J22010600005","2024-04-11T03:15:00",15.699,29.51703,0.218],
    [17401,"urn:WaterMeter:MC0203J22010600005","2024-04-11T03:30:00",15.6,29.527077,0.213],
    [17402,"urn:WaterMeter:MC0203J22010600005","2024-04-11T03:45:00",15.5,29.523624,0.216],
    [17403,"urn:WaterMeter:MC0203J22010600005","2024-04-11T04:00:00",15.399,29.529055,0.222],
    [17404,"urn:WaterMeter:MC0203J22010600005","2024-04-11T04:15:00",15.3,29.50035,0.224],
    [17405,"urn:WaterMeter:MC0203J22010600005","2024-04-11T04:30:00",15.199,29.524012,0.221],
    [17406,"urn:WaterMeter:MC0203J22010600005","2024-04-11T04:45:00",15.199,29.553493,0.221],
    [17407,"urn:WaterMeter:MC0203J22010600005","2024-04-11T05:00:00",15.1,29.506517,0.221],
    [17408,"urn:WaterMeter:MC0203J22010600005","2024-04-11T05:15:00",15,29.556946,0.221],
    [17409,"urn:WaterMeter:MC0203J22010600005","2024-04-11T05:30:00",15,29.477076,0.229],
    [17410,"urn:WaterMeter:MC0203J22010600005","2024-04-11T05:45:00",14.899,29.48751,0.225],
    [17411,"urn:WaterMeter:MC0203J22010600005","2024-04-11T06:00:00",14.899,29.475912,0.217],
    [17412,"urn:WaterMeter:MC0203J22010600005","2024-04-11T06:15:00",14.8,29.476688,0.23],
    [17413,"urn:WaterMeter:MC0203J22010600005","2024-04-11T06:30:00",14.8,29.471645,0.218],
    [17414,"urn:WaterMeter:MC0203J22010600005","2024-04-11T06:45:00",14.699,29.507294,0.217],
    [17415,"urn:WaterMeter:MC0203J22010600005","2024-04-11T07:00:00",14.8,29.50807,0.22],
    [17416,"urn:WaterMeter:MC0203J22010600005","2024-04-11T07:15:00",14.899,29.470055,0.219],
    [17417,"urn:WaterMeter:MC0203J22010600005","2024-04-11T07:30:00",15.1,29.480568,0.211],
    [17418,"urn:WaterMeter:MC0203J22010600005","2024-04-11T07:45:00",15.199,29.440187,0.211],
    [17419,"urn:WaterMeter:MC0203J22010600005","2024-04-11T08:00:00",15.399,29.413073,0.228],
    [17420,"urn:WaterMeter:MC0203J22010600005","2024-04-11T08:15:00",15.6,29.440575,0.211],
    [17421,"urn:WaterMeter:MC0203J22010600005","2024-04-11T08:30:00",15.8,29.392864,0.211],
    [17422,"urn:WaterMeter:MC0203J22010600005","2024-04-11T08:45:00",16,29.34907,0.215],
    [17423,"urn:WaterMeter:MC0203J22010600005","2024-04-11T09:00:00",16.2,29.30291,0.21],
    [17424,"urn:WaterMeter:MC0203J22010600005","2024-04-11T09:15:00",16.399,29.27533,0.21],
    [17425,"urn:WaterMeter:MC0203J22010600005","2024-04-11T09:30:00",16.6,29.22723,0.204],
    [17426,"urn:WaterMeter:MC0203J22010600005","2024-04-11T09:45:00",16.899,29.232311,0.204],
    [17427,"urn:WaterMeter:MC0203J22010600005","2024-04-11T10:00:00",17.1,29.155508,0.206],
    [17428,"urn:WaterMeter:MC0203J22010600005","2024-04-11T10:15:00",17.299,29.142706,0.207],
    [17429,"urn:WaterMeter:MC0203J22010600005","2024-04-11T10:30:00",17.5,29.139565,0.212],
    [17430,"urn:WaterMeter:MC0203J22010600005","2024-04-11T10:45:00",17.7,29.104692,0.216],
    [17431,"urn:WaterMeter:MC0203J22010600005","2024-04-11T11:00:00",18,29.058144,0.207],
    [17432,"urn:WaterMeter:MC0203J22010600005","2024-04-11T11:15:00",18.2,28.998796,0.228],
    [17433,"urn:WaterMeter:MC0203J22010600005","2024-04-11T11:30:00",18.299,28.935917,0.207],
    [17434,"urn:WaterMeter:MC0203J22010600005","2024-04-11T11:45:00",18.5,28.89639,0.207],
    [17435,"urn:WaterMeter:MC0203J22010600005","2024-04-11T12:00:00",18.7,28.88549,0.203],
    [17436,"urn:WaterMeter:MC0203J22010600005","2024-04-11T12:15:00",18.899,28.806396,0.208],
    [17437,"urn:WaterMeter:MC0203J22010600005","2024-04-11T12:30:00",19,28.830835,0.217],
    [17438,"urn:WaterMeter:MC0203J22010600005","2024-04-11T12:45:00",19.2,28.71718,0.2],
    [17439,"urn:WaterMeter:MC0203J22010600005","2024-04-11T13:00:00",19.299,28.714464,0.198],
    [17440,"urn:WaterMeter:MC0203J22010600005","2024-04-11T13:15:00",19.5,28.60659,0.21],
    [17441,"urn:WaterMeter:MC0203J22010600005","2024-04-11T13:30:00",19.6,28.628351,0.2],
    [17442,"urn:WaterMeter:MC0203J22010600005","2024-04-11T13:45:00",19.7,28.551546,0.203],
    [17443,"urn:WaterMeter:MC0203J22010600005","2024-04-11T14:00:00",19.799,28.517372,0.194],
    [17444,"urn:WaterMeter:MC0203J22010600005","2024-04-11T14:15:00",19.899,28.470049,0.207],
    [17445,"urn:WaterMeter:MC0203J22010600005","2024-04-11T14:30:00",19.899,28.45143,0.207],
    [17446,"urn:WaterMeter:MC0203J22010600005","2024-04-11T14:45:00",19.899,28.402943,0.202],
    [17447,"urn:WaterMeter:MC0203J22010600005","2024-04-11T15:00:00",19.899,28.392857,0.207],
    [17448,"urn:WaterMeter:MC0203J22010600005","2024-04-11T15:15:00",20,28.34243,0.197],
    [17449,"urn:WaterMeter:MC0203J22010600005","2024-04-11T15:30:00",20,28.316868,0.204],
    [17450,"urn:WaterMeter:MC0203J22010600005","2024-04-11T15:45:00",20,28.290102,0.207],
    [17451,"urn:WaterMeter:MC0203J22010600005","2024-04-11T16:00:00",19.899,28.235796,0.202],
    [17452,"urn:WaterMeter:MC0203J22010600005","2024-04-11T16:15:00",19.899,28.22959,0.2],
    [17453,"urn:WaterMeter:MC0203J22010600005","2024-04-11T16:30:00",19.899,28.205153,0.196],
    [17454,"urn:WaterMeter:MC0203J22010600005","2024-04-11T16:45:00",19.799,28.15042,0.198],
    [17455,"urn:WaterMeter:MC0203J22010600005","2024-04-11T17:00:00",19.799,28.126797,0.197],
    [17456,"urn:WaterMeter:MC0203J22010600005","2024-04-11T17:15:00",19.7,28.135717,0.205],
    [17457,"urn:WaterMeter:MC0203J22010600005","2024-04-11T17:30:00",19.6,28.125633,0.204],
    [17458,"urn:WaterMeter:MC0203J22010600005","2024-04-11T17:45:00",19.5,28.051117,0.197],
    [17459,"urn:WaterMeter:MC0203J22010600005","2024-04-11T18:00:00",19.399,28.111242,0.201],
    [17460,"urn:WaterMeter:MC0203J22010600005","2024-04-11T18:15:00",19.299,28.079084,0.203],
    [17461,"urn:WaterMeter:MC0203J22010600005","2024-04-11T18:30:00",19.1,28.04107,0.197],
    [17462,"urn:WaterMeter:MC0203J22010600005","2024-04-11T18:45:00",19,28.037968,0.202],
    [17463,"urn:WaterMeter:MC0203J22010600005","2024-04-11T19:00:00",18.899,28.044523,0.2],
    [17464,"urn:WaterMeter:MC0203J22010600005","2024-04-11T19:15:00",18.7,28.046888,0.207],
    [17465,"urn:WaterMeter:MC0203J22010600005","2024-04-11T19:30:00",18.6,28.025942,0.196],
    [17466,"urn:WaterMeter:MC0203J22010600005","2024-04-11T19:45:00",18.5,27.997238,0.202],
    [17467,"urn:WaterMeter:MC0203J22010600005","2024-04-11T20:00:00",18.399,28.006548,0.204],
    [17468,"urn:WaterMeter:MC0203J22010600005","2024-04-11T20:15:00",18.299,28.029821,0.196],
    [17469,"urn:WaterMeter:MC0203J22010600005","2024-04-11T20:30:00",18.2,27.998014,0.197],
    [17470,"urn:WaterMeter:MC0203J22010600005","2024-04-11T20:45:00",18,28.015043,0.2],
    [17471,"urn:WaterMeter:MC0203J22010600005","2024-04-11T21:00:00",17.899,28.053057,0.201],
    [17472,"urn:WaterMeter:MC0203J22010600005","2024-04-11T21:15:00",17.799,28.018185,0.2],
    [17473,"urn:WaterMeter:MC0203J22010600005","2024-04-11T21:30:00",17.7,28.039518,0.207],
    [17474,"urn:WaterMeter:MC0203J22010600005","2024-04-11T21:45:00",17.6,28.024353,0.205],
    [17475,"urn:WaterMeter:MC0203J22010600005","2024-04-11T22:00:00",17.5,27.999178,0.209],
    [17476,"urn:WaterMeter:MC0203J22010600005","2024-04-11T22:15:00",17.399,27.994484,0.196],
    [17477,"urn:WaterMeter:MC0203J22010600005","2024-04-11T22:30:00",17.299,28.02633,0.216],
    [17478,"urn:WaterMeter:MC0203J22010600005","2024-04-11T22:45:00",17.2,28.05228,0.2],
    [17479,"urn:WaterMeter:MC0203J22010600005","2024-04-11T23:00:00",17,28.022839,0.202],
    [17480,"urn:WaterMeter:MC0203J22010600005","2024-04-11T23:15:00",16.899,27.997625,0.212],
    [17481,"urn:WaterMeter:MC0203J22010600005","2024-04-11T23:30:00",16.799,27.99332,0.203],
    [17482,"urn:WaterMeter:MC0203J22010600005","2024-04-11T23:45:00",16.7,27.991419,0.198],
    [17483,"urn:WaterMeter:MC0203J22010600005","2024-04-12T00:00:00",16.5,28.012714,0.2],
    [17484,"urn:WaterMeter:MC0203J22010600005","2024-04-12T00:15:00",16.399,27.992195,0.209],
    [17485,"urn:WaterMeter:MC0203J22010600005","2024-04-12T00:30:00",16.299,27.977455,0.2],
    [17486,"urn:WaterMeter:MC0203J22010600005","2024-04-12T00:45:00",16.2,28.020512,0.2],
    [17487,"urn:WaterMeter:MC0203J22010600005","2024-04-12T01:00:00",16.1,28.030209,0.203],
    [17488,"urn:WaterMeter:MC0203J22010600005","2024-04-12T01:15:00",16,28.011591,0.2],
    [17489,"urn:WaterMeter:MC0203J22010600005","2024-04-12T01:30:00",15.899,27.998789,0.198],
    [17490,"urn:WaterMeter:MC0203J22010600005","2024-04-12T01:45:00",15.8,28.001892,0.201],
    [17491,"urn:WaterMeter:MC0203J22010600005","2024-04-12T02:00:00",15.699,28.036804,0.199],
    [17492,"urn:WaterMeter:MC0203J22010600005","2024-04-12T02:15:00",15.5,27.990644,0.199],
    [17493,"urn:WaterMeter:MC0203J22010600005","2024-04-12T02:30:00",15.399,28.028658,0.206],
    [17494,"urn:WaterMeter:MC0203J22010600005","2024-04-12T02:45:00",15.3,28.006548,0.185],
    [17495,"urn:WaterMeter:MC0203J22010600005","2024-04-12T03:00:00",15.199,28.031374,0.209],
    [17496,"urn:WaterMeter:MC0203J22010600005","2024-04-12T03:15:00",15,27.999178,0.2],
    [17497,"urn:WaterMeter:MC0203J22010600005","2024-04-12T03:30:00",14.899,28.00612,0.201],
    [17498,"urn:WaterMeter:MC0203J22010600005","2024-04-12T03:45:00",14.8,28.045725,0.201],
    [17499,"urn:WaterMeter:MC0203J22010600005","2024-04-12T04:00:00",14.6,28.021675,0.2],
    [17500,"urn:WaterMeter:MC0203J22010600005","2024-04-12T04:15:00",14.6,28.022064,0.196],
    [17501,"urn:WaterMeter:MC0203J22010600005","2024-04-12T04:30:00",14.5,28.053057,0.202],
    [17502,"urn:WaterMeter:MC0203J22010600005","2024-04-12T04:45:00",14.399,28.053444,0.197],
    [17503,"urn:WaterMeter:MC0203J22010600005","2024-04-12T05:00:00",14.3,28.05775,0.2],
    [17504,"urn:WaterMeter:MC0203J22010600005","2024-04-12T05:15:00",14.199,28.075205,0.215],
    [17505,"urn:WaterMeter:MC0203J22010600005","2024-04-12T05:30:00",14.1,28.056974,0.204],
    [17506,"urn:WaterMeter:MC0203J22010600005","2024-04-12T05:45:00",14.1,28.034437,0.208],
    [17507,"urn:WaterMeter:MC0203J22010600005","2024-04-12T06:00:00",14,28.017408,0.196],
    [17508,"urn:WaterMeter:MC0203J22010600005","2024-04-12T06:15:00",14,27.980171,0.198],
    [17509,"urn:WaterMeter:MC0203J22010600005","2024-04-12T06:30:00",14,28.015818,0.196],
    [17510,"urn:WaterMeter:MC0203J22010600005","2024-04-12T06:45:00",14.1,28.004957,0.197],
    [17511,"urn:WaterMeter:MC0203J22010600005","2024-04-12T07:00:00",14.1,27.999178,0.192],
    [17512,"urn:WaterMeter:MC0203J22010600005","2024-04-12T07:15:00",14.3,28.036804,0.195],
    [17513,"urn:WaterMeter:MC0203J22010600005","2024-04-12T07:30:00",14.5,27.9728,0.199],
    [17514,"urn:WaterMeter:MC0203J22010600005","2024-04-12T07:45:00",14.8,28.022064,0.191],
    [17515,"urn:WaterMeter:MC0203J22010600005","2024-04-12T08:00:00",15,28.318808,0.202],
    [17516,"urn:WaterMeter:MC0203J22010600005","2024-04-12T08:15:00",15.3,29.427813,0.219],
    [17517,"urn:WaterMeter:MC0203J22010600005","2024-04-12T08:30:00",15.5,30.262922,0.237],
    [17518,"urn:WaterMeter:MC0203J22010600005","2024-04-12T08:45:00",15.8,30.726114,0.24],
    [17519,"urn:WaterMeter:MC0203J22010600005","2024-04-12T09:00:00",16.1,31.021267,0.231],
    [17520,"urn:WaterMeter:MC0203J22010600005","2024-04-12T09:15:00",16.299,31.00385,0.249],
    [17521,"urn:WaterMeter:MC0203J22010600005","2024-04-12T09:30:00",16.6,30.885502,0.238],
    [17522,"urn:WaterMeter:MC0203J22010600005","2024-04-12T09:45:00",16.899,30.869637,0.232],
    [17523,"urn:WaterMeter:MC0203J22010600005","2024-04-12T10:00:00",17.1,30.80447,0.227],
    [17524,"urn:WaterMeter:MC0203J22010600005","2024-04-12T10:15:00",17.299,30.762964,0.228],
    [17525,"urn:WaterMeter:MC0203J22010600005","2024-04-12T10:30:00",17.5,30.68073,0.243],
    [17526,"urn:WaterMeter:MC0203J22010600005","2024-04-12T10:45:00",17.7,30.664051,0.239],
    [17527,"urn:WaterMeter:MC0203J22010600005","2024-04-12T11:00:00",18,30.615175,0.234],
    [17528,"urn:WaterMeter:MC0203J22010600005","2024-04-12T11:15:00",18.2,30.552723,0.225],
    [17529,"urn:WaterMeter:MC0203J22010600005","2024-04-12T11:30:00",18.399,30.48868,0.234],
    [17530,"urn:WaterMeter:MC0203J22010600005","2024-04-12T11:45:00",18.6,30.506176,0.223],
    [17531,"urn:WaterMeter:MC0203J22010600005","2024-04-12T12:00:00",18.799,30.454197,0.228],
    [17532,"urn:WaterMeter:MC0203J22010600005","2024-04-12T12:15:00",19,30.374289,0.223],
    [17533,"urn:WaterMeter:MC0203J22010600005","2024-04-12T12:30:00",19.1,30.30951,0.225],
    [17534,"urn:WaterMeter:MC0203J22010600005","2024-04-12T12:45:00",19.299,30.290503,0.227],
    [17535,"urn:WaterMeter:MC0203J22010600005","2024-04-12T13:00:00",19.399,30.23775,0.235],
    [17536,"urn:WaterMeter:MC0203J22010600005","2024-04-12T13:15:00",19.5,30.218353,0.222],
    [17537,"urn:WaterMeter:MC0203J22010600005","2024-04-12T13:30:00",19.6,30.168663,0.235],
    [17538,"urn:WaterMeter:MC0203J22010600005","2024-04-12T13:45:00",19.7,30.118275,0.22],
    [17539,"urn:WaterMeter:MC0203J22010600005","2024-04-12T14:00:00",19.799,30.111681,0.232],
    [17540,"urn:WaterMeter:MC0203J22010600005","2024-04-12T14:15:00",19.899,30.064745,0.235],
    [17541,"urn:WaterMeter:MC0203J22010600005","2024-04-12T14:30:00",20,30.011564,0.226],
    [17542,"urn:WaterMeter:MC0203J22010600005","2024-04-12T14:45:00",20,29.966219,0.223],
    [17543,"urn:WaterMeter:MC0203J22010600005","2024-04-12T15:00:00",20.1,29.98639,0.217],
    [17544,"urn:WaterMeter:MC0203J22010600005","2024-04-12T15:15:00",20.1,29.912687,0.228],
    [17545,"urn:WaterMeter:MC0203J22010600005","2024-04-12T15:30:00",20.1,29.887863,0.225],
    [17546,"urn:WaterMeter:MC0203J22010600005","2024-04-12T15:45:00",20.1,29.849073,0.213],
    [17547,"urn:WaterMeter:MC0203J22010600005","2024-04-12T16:00:00",20,29.868467,0.222],
    [17548,"urn:WaterMeter:MC0203J22010600005","2024-04-12T16:15:00",20,29.7796,0.224],
    [17549,"urn:WaterMeter:MC0203J22010600005","2024-04-12T16:30:00",20,29.812222,0.221],
    [17550,"urn:WaterMeter:MC0203J22010600005","2024-04-12T16:45:00",20,29.755201,0.23],
    [17551,"urn:WaterMeter:MC0203J22010600005","2024-04-12T17:00:00",19.899,29.712105,0.222],
    [17552,"urn:WaterMeter:MC0203J22010600005","2024-04-12T17:15:00",19.899,29.703999,0.233],
    [17553,"urn:WaterMeter:MC0203J22010600005","2024-04-12T17:30:00",19.799,29.7424,0.224],
    [17554,"urn:WaterMeter:MC0203J22010600005","2024-04-12T17:45:00",19.7,29.702408,0.238],
    [17555,"urn:WaterMeter:MC0203J22010600005","2024-04-12T18:00:00",19.7,29.675682,0.225],
    [17556,"urn:WaterMeter:MC0203J22010600005","2024-04-12T18:15:00",19.6,29.641157,0.236],
    [17557,"urn:WaterMeter:MC0203J22010600005","2024-04-12T18:30:00",19.5,29.656673,0.229],
    [17558,"urn:WaterMeter:MC0203J22010600005","2024-04-12T18:45:00",19.399,29.632236,0.226],
    [17559,"urn:WaterMeter:MC0203J22010600005","2024-04-12T19:00:00",19.2,29.63728,0.219],
    [17560,"urn:WaterMeter:MC0203J22010600005","2024-04-12T19:15:00",19.1,29.643059,0.238],
    [17561,"urn:WaterMeter:MC0203J22010600005","2024-04-12T19:30:00",19,29.643835,0.22],
    [17562,"urn:WaterMeter:MC0203J22010600005","2024-04-12T19:45:00",18.899,29.671803,0.212],
    [17563,"urn:WaterMeter:MC0203J22010600005","2024-04-12T20:00:00",18.799,29.65008,0.233],
    [17564,"urn:WaterMeter:MC0203J22010600005","2024-04-12T20:15:00",18.6,29.60004,0.232],
    [17565,"urn:WaterMeter:MC0203J22010600005","2024-04-12T20:30:00",18.5,29.654308,0.217],
    [17566,"urn:WaterMeter:MC0203J22010600005","2024-04-12T20:45:00",18.299,29.612453,0.222],
    [17567,"urn:WaterMeter:MC0203J22010600005","2024-04-12T21:00:00",18.2,29.608574,0.219],
    [17568,"urn:WaterMeter:MC0203J22010600005","2024-04-12T21:15:00",18.1,29.603882,0.222],
    [17569,"urn:WaterMeter:MC0203J22010600005","2024-04-12T21:30:00",18,29.6559,0.214],
    [17570,"urn:WaterMeter:MC0203J22010600005","2024-04-12T21:45:00",17.899,29.582197,0.229],
    [17571,"urn:WaterMeter:MC0203J22010600005","2024-04-12T22:00:00",17.799,29.664005,0.222],
    [17572,"urn:WaterMeter:MC0203J22010600005","2024-04-12T22:15:00",17.7,29.602367,0.228],
    [17573,"urn:WaterMeter:MC0203J22010600005","2024-04-12T22:30:00",17.5,29.650856,0.228],
    [17574,"urn:WaterMeter:MC0203J22010600005","2024-04-12T22:45:00",17.399,29.616333,0.221],
    [17575,"urn:WaterMeter:MC0203J22010600005","2024-04-12T23:00:00",17.299,29.595736,0.225],
    [17576,"urn:WaterMeter:MC0203J22010600005","2024-04-12T23:15:00",17.1,29.61284,0.219],
    [17577,"urn:WaterMeter:MC0203J22010600005","2024-04-12T23:30:00",17,29.62991,0.228],
    [17578,"urn:WaterMeter:MC0203J22010600005","2024-04-12T23:45:00",16.899,29.603493,0.216],
    [17579,"urn:WaterMeter:MC0203J22010600005","2024-04-13T00:00:00",16.799,29.611677,0.229],
    [17580,"urn:WaterMeter:MC0203J22010600005","2024-04-13T00:15:00",16.7,29.60043,0.225],
    [17581,"urn:WaterMeter:MC0203J22010600005","2024-04-13T00:30:00",16.6,29.61672,0.236],
    [17582,"urn:WaterMeter:MC0203J22010600005","2024-04-13T00:45:00",16.5,29.61672,0.234],
    [17583,"urn:WaterMeter:MC0203J22010600005","2024-04-13T01:00:00",16.399,29.621376,0.222],
    [17584,"urn:WaterMeter:MC0203J22010600005","2024-04-13T01:15:00",16.299,29.656673,0.223],
    [17585,"urn:WaterMeter:MC0203J22010600005","2024-04-13T01:30:00",16.2,29.605045,0.225],
    [17586,"urn:WaterMeter:MC0203J22010600005","2024-04-13T01:45:00",16.1,29.617496,0.221],
    [17587,"urn:WaterMeter:MC0203J22010600005","2024-04-13T02:00:00",16,29.622889,0.221],
    [17588,"urn:WaterMeter:MC0203J22010600005","2024-04-13T02:15:00",15.899,29.648916,0.224],
    [17589,"urn:WaterMeter:MC0203J22010600005","2024-04-13T02:30:00",15.8,29.634525,0.224],
    [17590,"urn:WaterMeter:MC0203J22010600005","2024-04-13T02:45:00",15.699,29.632236,0.226],
    [17591,"urn:WaterMeter:MC0203J22010600005","2024-04-13T03:00:00",15.6,29.596123,0.224],
    [17592,"urn:WaterMeter:MC0203J22010600005","2024-04-13T03:15:00",15.5,29.610514,0.238],
    [17593,"urn:WaterMeter:MC0203J22010600005","2024-04-13T03:30:00",15.5,29.597713,0.228],
    [17594,"urn:WaterMeter:MC0203J22010600005","2024-04-13T03:45:00",15.399,29.61284,0.223],
    [17595,"urn:WaterMeter:MC0203J22010600005","2024-04-13T04:00:00",15.3,29.57634,0.216],
    [17596,"urn:WaterMeter:MC0203J22010600005","2024-04-13T04:15:00",15.199,29.632236,0.219],
    [17597,"urn:WaterMeter:MC0203J22010600005","2024-04-13T04:30:00",15.1,29.59849,0.229],
    [17598,"urn:WaterMeter:MC0203J22010600005","2024-04-13T04:45:00",15,29.631073,0.221],
    [17599,"urn:WaterMeter:MC0203J22010600005","2024-04-13T05:00:00",14.899,29.591894,0.218],
    [17600,"urn:WaterMeter:MC0203J22010600005","2024-04-13T05:15:00",14.8,29.643446,0.227],
    [17601,"urn:WaterMeter:MC0203J22010600005","2024-04-13T05:30:00",14.699,29.601204,0.219],
    [17602,"urn:WaterMeter:MC0203J22010600005","2024-04-13T05:45:00",14.6,29.607023,0.212],
    [17603,"urn:WaterMeter:MC0203J22010600005","2024-04-13T06:00:00",14.6,29.606209,0.212],
    [17604,"urn:WaterMeter:MC0203J22010600005","2024-04-13T06:15:00",14.5,29.602716,0.23],
    [17605,"urn:WaterMeter:MC0203J22010600005","2024-04-13T06:30:00",14.5,29.571337,0.228],
    [17606,"urn:WaterMeter:MC0203J22010600005","2024-04-13T06:45:00",14.6,29.569397,0.219],
    [17607,"urn:WaterMeter:MC0203J22010600005","2024-04-13T07:00:00",14.699,29.616333,0.219],
    [17608,"urn:WaterMeter:MC0203J22010600005","2024-04-13T07:15:00",14.8,29.581034,0.23],
    [17609,"urn:WaterMeter:MC0203J22010600005","2024-04-13T07:30:00",14.899,29.562027,0.222],
    [17610,"urn:WaterMeter:MC0203J22010600005","2024-04-13T07:45:00",15.1,29.551165,0.21],
    [17611,"urn:WaterMeter:MC0203J22010600005","2024-04-13T08:00:00",15.399,29.529055,0.211],
    [17612,"urn:WaterMeter:MC0203J22010600005","2024-04-13T08:15:00",15.6,29.458845,0.209],
    [17613,"urn:WaterMeter:MC0203J22010600005","2024-04-13T08:30:00",15.8,29.403376,0.215],
    [17614,"urn:WaterMeter:MC0203J22010600005","2024-04-13T08:45:00",16.1,29.408768,0.215],
    [17615,"urn:WaterMeter:MC0203J22010600005","2024-04-13T09:00:00",16.399,29.353685,0.213],
    [17616,"urn:WaterMeter:MC0203J22010600005","2024-04-13T09:15:00",16.7,29.346354,0.209],
    [17617,"urn:WaterMeter:MC0203J22010600005","2024-04-13T09:30:00",17,29.243174,0.211],
    [17618,"urn:WaterMeter:MC0203J22010600005","2024-04-13T09:45:00",17.2,29.260628,0.222],
    [17619,"urn:WaterMeter:MC0203J22010600005","2024-04-13T10:00:00",17.5,29.214468,0.212],
    [17620,"urn:WaterMeter:MC0203J22010600005","2024-04-13T10:15:00",17.7,29.133009,0.205],
    [17621,"urn:WaterMeter:MC0203J22010600005","2024-04-13T10:30:00",18,29.106243,0.208],
    [17622,"urn:WaterMeter:MC0203J22010600005","2024-04-13T10:45:00",18.2,29.03099,0.218],
    [17623,"urn:WaterMeter:MC0203J22010600005","2024-04-13T11:00:00",18.5,28.954924,0.215],
    [17624,"urn:WaterMeter:MC0203J22010600005","2024-04-13T11:15:00",18.799,28.962334,0.215],
    [17625,"urn:WaterMeter:MC0203J22010600005","2024-04-13T11:30:00",19,28.858725,0.211],
    [17626,"urn:WaterMeter:MC0203J22010600005","2024-04-13T11:45:00",19.2,28.857948,0.202],
    [17627,"urn:WaterMeter:MC0203J22010600005","2024-04-13T12:00:00",19.399,28.773426,0.213],
    [17628,"urn:WaterMeter:MC0203J22010600005","2024-04-13T12:15:00",19.6,28.716793,0.206],
    [17629,"urn:WaterMeter:MC0203J22010600005","2024-04-13T12:30:00",19.799,28.670244,0.2],
    [17630,"urn:WaterMeter:MC0203J22010600005","2024-04-13T12:45:00",20,28.63452,0.208],
    [17631,"urn:WaterMeter:MC0203J22010600005","2024-04-13T13:00:00",20.2,28.551159,0.203],
    [17632,"urn:WaterMeter:MC0203J22010600005","2024-04-13T13:15:00",20.299,28.487932,0.211],
    [17633,"urn:WaterMeter:MC0203J22010600005","2024-04-13T13:30:00",20.5,28.459188,0.211],
    [17634,"urn:WaterMeter:MC0203J22010600005","2024-04-13T13:45:00",20.6,28.376604,0.205],
    [17635,"urn:WaterMeter:MC0203J22010600005","2024-04-13T14:00:00",20.7,28.33665,0.204],
    [17636,"urn:WaterMeter:MC0203J22010600005","2024-04-13T14:15:00",20.7,28.34596,0.206],
    [17637,"urn:WaterMeter:MC0203J22010600005","2024-04-13T14:30:00",20.799,28.27765,0.204],
    [17638,"urn:WaterMeter:MC0203J22010600005","2024-04-13T14:45:00",20.899,28.207441,0.202],
    [17639,"urn:WaterMeter:MC0203J22010600005","2024-04-13T15:00:00",20.899,28.147356,0.203],
    [17640,"urn:WaterMeter:MC0203J22010600005","2024-04-13T15:15:00",20.799,28.13378,0.205],
    [17641,"urn:WaterMeter:MC0203J22010600005","2024-04-13T15:30:00",20.799,28.12408,0.195],
    [17642,"urn:WaterMeter:MC0203J22010600005","2024-04-13T15:45:00",20.799,28.016632,0.204],
    [17643,"urn:WaterMeter:MC0203J22010600005","2024-04-13T16:00:00",20.7,28.013878,0.198],
    [17644,"urn:WaterMeter:MC0203J22010600005","2024-04-13T16:15:00",20.7,27.961163,0.205],
    [17645,"urn:WaterMeter:MC0203J22010600005","2024-04-13T16:30:00",20.6,27.944872,0.201],
    [17646,"urn:WaterMeter:MC0203J22010600005","2024-04-13T16:45:00",20.5,27.899448,0.203],
    [17647,"urn:WaterMeter:MC0203J22010600005","2024-04-13T17:00:00",20.399,27.879278,0.195],
    [17648,"urn:WaterMeter:MC0203J22010600005","2024-04-13T17:15:00",20.399,27.868456,0.199],
    [17649,"urn:WaterMeter:MC0203J22010600005","2024-04-13T17:30:00",20.299,27.807167,0.21],
    [17650,"urn:WaterMeter:MC0203J22010600005","2024-04-13T17:45:00",20.2,27.8157,0.208],
    [17651,"urn:WaterMeter:MC0203J22010600005","2024-04-13T18:00:00",20.1,27.80833,0.194],
    [17652,"urn:WaterMeter:MC0203J22010600005","2024-04-13T18:15:00",20,27.775747,0.201],
    [17653,"urn:WaterMeter:MC0203J22010600005","2024-04-13T18:30:00",19.899,27.757904,0.195],
    [17654,"urn:WaterMeter:MC0203J22010600005","2024-04-13T18:45:00",19.799,27.752085,0.193],
    [17655,"urn:WaterMeter:MC0203J22010600005","2024-04-13T19:00:00",19.6,27.746655,0.196],
    [17656,"urn:WaterMeter:MC0203J22010600005","2024-04-13T19:15:00",19.5,27.726095,0.197],
    [17657,"urn:WaterMeter:MC0203J22010600005","2024-04-13T19:30:00",19.299,27.767988,0.195],
    [17658,"urn:WaterMeter:MC0203J22010600005","2024-04-13T19:45:00",19.1,27.712519,0.205],
    [17659,"urn:WaterMeter:MC0203J22010600005","2024-04-13T20:00:00",19,27.752823,0.201],
    [17660,"urn:WaterMeter:MC0203J22010600005","2024-04-13T20:15:00",18.899,27.76411,0.201],
    [17661,"urn:WaterMeter:MC0203J22010600005","2024-04-13T20:30:00",18.7,27.6939,0.2],
    [17662,"urn:WaterMeter:MC0203J22010600005","2024-04-13T20:45:00",18.6,27.735405,0.215],
    [17663,"urn:WaterMeter:MC0203J22010600005","2024-04-13T21:00:00",18.399,27.700882,0.193],
    [17664,"urn:WaterMeter:MC0203J22010600005","2024-04-13T21:15:00",18.299,27.701658,0.219],
    [17665,"urn:WaterMeter:MC0203J22010600005","2024-04-13T21:30:00",18.2,27.715197,0.197],
    [17666,"urn:WaterMeter:MC0203J22010600005","2024-04-13T21:45:00",18,27.727648,0.197],
    [17667,"urn:WaterMeter:MC0203J22010600005","2024-04-13T22:00:00",17.899,27.692348,0.202],
    [17668,"urn:WaterMeter:MC0203J22010600005","2024-04-13T22:15:00",17.7,27.74196,0.197],
    [17669,"urn:WaterMeter:MC0203J22010600005","2024-04-13T22:30:00",17.6,27.736958,0.198],
    [17670,"urn:WaterMeter:MC0203J22010600005","2024-04-13T22:45:00",17.5,27.703947,0.202],
    [17671,"urn:WaterMeter:MC0203J22010600005","2024-04-13T23:00:00",17.399,27.74006,0.197],
    [17672,"urn:WaterMeter:MC0203J22010600005","2024-04-13T23:15:00",17.299,27.724504,0.201],
    [17673,"urn:WaterMeter:MC0203J22010600005","2024-04-13T23:30:00",17.1,27.726484,0.201],
    [17674,"urn:WaterMeter:MC0203J22010600005","2024-04-13T23:45:00",17,27.738508,0.197],
    [17675,"urn:WaterMeter:MC0203J22010600005","2024-04-14T00:00:00",16.899,27.692348,0.195],
    [17676,"urn:WaterMeter:MC0203J22010600005","2024-04-14T00:15:00",16.799,27.69425,0.201],
    [17677,"urn:WaterMeter:MC0203J22010600005","2024-04-14T00:30:00",16.7,27.715622,0.198],
    [17678,"urn:WaterMeter:MC0203J22010600005","2024-04-14T00:45:00",16.6,27.706701,0.202],
    [17679,"urn:WaterMeter:MC0203J22010600005","2024-04-14T01:00:00",16.5,27.718338,0.193],
    [17680,"urn:WaterMeter:MC0203J22010600005","2024-04-14T01:15:00",16.299,27.735794,0.204],
    [17681,"urn:WaterMeter:MC0203J22010600005","2024-04-14T01:30:00",16.2,27.68494,0.202],
    [17682,"urn:WaterMeter:MC0203J22010600005","2024-04-14T01:45:00",16.1,27.743513,0.205],
    [17683,"urn:WaterMeter:MC0203J22010600005","2024-04-14T02:00:00",16,27.710192,0.204],
    [17684,"urn:WaterMeter:MC0203J22010600005","2024-04-14T02:15:00",16,27.747818,0.202],
    [17685,"urn:WaterMeter:MC0203J22010600005","2024-04-14T02:30:00",15.899,27.73269,0.197],
    [17686,"urn:WaterMeter:MC0203J22010600005","2024-04-14T02:45:00",15.8,27.73304,0.195],
    [17687,"urn:WaterMeter:MC0203J22010600005","2024-04-14T03:00:00",15.699,27.708252,0.182],
    [17688,"urn:WaterMeter:MC0203J22010600005","2024-04-14T03:15:00",15.6,27.709028,0.201],
    [17689,"urn:WaterMeter:MC0203J22010600005","2024-04-14T03:30:00",15.5,27.714808,0.218],
    [17690,"urn:WaterMeter:MC0203J22010600005","2024-04-14T03:45:00",15.5,27.726871,0.198],
    [17691,"urn:WaterMeter:MC0203J22010600005","2024-04-14T04:00:00",15.399,27.729975,0.194],
    [17692,"urn:WaterMeter:MC0203J22010600005","2024-04-14T04:15:00",15.3,27.704723,0.194],
    [17693,"urn:WaterMeter:MC0203J22010600005","2024-04-14T04:30:00",15.3,27.708252,0.203],
    [17694,"urn:WaterMeter:MC0203J22010600005","2024-04-14T04:45:00",15.199,27.698942,0.195],
    [17695,"urn:WaterMeter:MC0203J22010600005","2024-04-14T05:00:00",15.1,27.687695,0.199],
    [17696,"urn:WaterMeter:MC0203J22010600005","2024-04-14T05:15:00",15.1,27.671402,0.197],
    [17697,"urn:WaterMeter:MC0203J22010600005","2024-04-14T05:30:00",15,27.677996,0.198],
    [17698,"urn:WaterMeter:MC0203J22010600005","2024-04-14T05:45:00",15,27.663994,0.202],
    [17699,"urn:WaterMeter:MC0203J22010600005","2024-04-14T06:00:00",14.899,27.661316,0.216],
    [17700,"urn:WaterMeter:MC0203J22010600005","2024-04-14T06:15:00",14.899,27.666708,0.198],
    [17701,"urn:WaterMeter:MC0203J22010600005","2024-04-14T06:30:00",14.899,27.656624,0.203],
    [17702,"urn:WaterMeter:MC0203J22010600005","2024-04-14T06:45:00",14.899,27.712132,0.193],
    [17703,"urn:WaterMeter:MC0203J22010600005","2024-04-14T07:00:00",15,27.625202,0.202],
    [17704,"urn:WaterMeter:MC0203J22010600005","2024-04-14T07:15:00",15.1,27.673342,0.196],
    [17705,"urn:WaterMeter:MC0203J22010600005","2024-04-14T07:30:00",15.3,27.626368,0.195],
    [17706,"urn:WaterMeter:MC0203J22010600005","2024-04-14T07:45:00",15.5,27.59033,0.193],
    [17707,"urn:WaterMeter:MC0203J22010600005","2024-04-14T08:00:00",15.699,27.581797,0.191],
    [17708,"urn:WaterMeter:MC0203J22010600005","2024-04-14T08:15:00",16,27.51275,0.189],
    [17709,"urn:WaterMeter:MC0203J22010600005","2024-04-14T08:30:00",16.2,27.504993,0.194],
    [17710,"urn:WaterMeter:MC0203J22010600005","2024-04-14T08:45:00",16.5,27.430864,0.209],
    [17711,"urn:WaterMeter:MC0203J22010600005","2024-04-14T09:00:00",16.799,27.420818,0.194],
    [17712,"urn:WaterMeter:MC0203J22010600005","2024-04-14T09:15:00",17.1,27.35953,0.185],
    [17713,"urn:WaterMeter:MC0203J22010600005","2024-04-14T09:30:00",17.399,27.305613,0.187],
    [17714,"urn:WaterMeter:MC0203J22010600005","2024-04-14T09:45:00",17.7,27.260227,0.194],
    [17715,"urn:WaterMeter:MC0203J22010600005","2024-04-14T10:00:00",18,27.218683,0.191],
    [17716,"urn:WaterMeter:MC0203J22010600005","2024-04-14T10:15:00",18.2,27.155107,0.177],
    [17717,"urn:WaterMeter:MC0203J22010600005","2024-04-14T10:30:00",18.5,27.109722,0.186],
    [17718,"urn:WaterMeter:MC0203J22010600005","2024-04-14T10:45:00",18.7,27.048435,0.181],
    [17719,"urn:WaterMeter:MC0203J22010600005","2024-04-14T11:00:00",19.1,26.97741,0.194],
    [17720,"urn:WaterMeter:MC0203J22010600005","2024-04-14T11:15:00",19.299,26.901033,0.189],
    [17721,"urn:WaterMeter:MC0203J22010600005","2024-04-14T11:30:00",19.6,26.808325,0.176],
    [17722,"urn:WaterMeter:MC0203J22010600005","2024-04-14T11:45:00",19.799,26.74467,0.179],
    [17723,"urn:WaterMeter:MC0203J22010600005","2024-04-14T12:00:00",20.1,26.719107,0.182],
    [17724,"urn:WaterMeter:MC0203J22010600005","2024-04-14T12:15:00",20.299,26.626787,0.177],
    [17725,"urn:WaterMeter:MC0203J22010600005","2024-04-14T12:30:00",20.5,26.599207,0.181],
    [17726,"urn:WaterMeter:MC0203J22010600005","2024-04-14T12:45:00",20.7,26.482061,0.178],
    [17727,"urn:WaterMeter:MC0203J22010600005","2024-04-14T13:00:00",20.799,26.44525,0.188],
    [17728,"urn:WaterMeter:MC0203J22010600005","2024-04-14T13:15:00",20.899,26.364916,0.184],
    [17729,"urn:WaterMeter:MC0203J22010600005","2024-04-14T13:30:00",21,26.331984,0.185],
    [17730,"urn:WaterMeter:MC0203J22010600005","2024-04-14T13:45:00",21.1,26.278414,0.174],
    [17731,"urn:WaterMeter:MC0203J22010600005","2024-04-14T14:00:00",21.2,26.21251,0.174],
    [17732,"urn:WaterMeter:MC0203J22010600005","2024-04-14T14:15:00",21.299,26.167126,0.174],
    [17733,"urn:WaterMeter:MC0203J22010600005","2024-04-14T14:30:00",21.299,26.089546,0.181],
    [17734,"urn:WaterMeter:MC0203J22010600005","2024-04-14T14:45:00",21.299,26.045673,0.175],
    [17735,"urn:WaterMeter:MC0203J22010600005","2024-04-14T15:00:00",21.299,25.981321,0.177],
    [17736,"urn:WaterMeter:MC0203J22010600005","2024-04-14T15:15:00",21.299,25.921585,0.175],
    [17737,"urn:WaterMeter:MC0203J22010600005","2024-04-14T15:30:00",21.299,25.866116,0.174],
    [17738,"urn:WaterMeter:MC0203J22010600005","2024-04-14T15:45:00",21.399,25.80987,0.188],
    [17739,"urn:WaterMeter:MC0203J22010600005","2024-04-14T16:00:00",21.399,25.770693,0.171],
    [17740,"urn:WaterMeter:MC0203J22010600005","2024-04-14T16:15:00",21.399,25.70665,0.172],
    [17741,"urn:WaterMeter:MC0203J22010600005","2024-04-14T16:30:00",21.299,25.67872,0.186],
    [17742,"urn:WaterMeter:MC0203J22010600005","2024-04-14T16:45:00",21.299,25.660141,0.175],
    [17743,"urn:WaterMeter:MC0203J22010600005","2024-04-14T17:00:00",21.2,25.59924,0.184],
    [17744,"urn:WaterMeter:MC0203J22010600005","2024-04-14T17:15:00",21.2,25.523172,0.183],
    [17745,"urn:WaterMeter:MC0203J22010600005","2024-04-14T17:30:00",21.1,25.563942,0.177],
    [17746,"urn:WaterMeter:MC0203J22010600005","2024-04-14T17:45:00",21,25.478216,0.173],
    [17747,"urn:WaterMeter:MC0203J22010600005","2024-04-14T18:00:00",21,25.506144,0.184],
    [17748,"urn:WaterMeter:MC0203J22010600005","2024-04-14T18:15:00",20.899,25.42934,0.172],
    [17749,"urn:WaterMeter:MC0203J22010600005","2024-04-14T18:30:00",20.799,25.43318,0.185],
    [17750,"urn:WaterMeter:MC0203J22010600005","2024-04-14T18:45:00",20.6,25.411108,0.173],
    [17751,"urn:WaterMeter:MC0203J22010600005","2024-04-14T19:00:00",20.5,25.391325,0.171],
    [17752,"urn:WaterMeter:MC0203J22010600005","2024-04-14T19:15:00",20.399,25.352535,0.168],
    [17753,"urn:WaterMeter:MC0203J22010600005","2024-04-14T19:30:00",20.299,25.37387,0.172],
    [17754,"urn:WaterMeter:MC0203J22010600005","2024-04-14T19:45:00",20.1,25.402964,0.171],
    [17755,"urn:WaterMeter:MC0203J22010600005","2024-04-14T20:00:00",20,25.316072,0.168],
    [17756,"urn:WaterMeter:MC0203J22010600005","2024-04-14T20:15:00",19.799,25.375383,0.178],
    [17757,"urn:WaterMeter:MC0203J22010600005","2024-04-14T20:30:00",19.6,25.319138,0.176],
    [17758,"urn:WaterMeter:MC0203J22010600005","2024-04-14T20:45:00",19.5,25.336594,0.176],
    [17759,"urn:WaterMeter:MC0203J22010600005","2024-04-14T21:00:00",19.299,25.335081,0.178],
    [17760,"urn:WaterMeter:MC0203J22010600005","2024-04-14T21:15:00",19.2,25.327322,0.169],
    [17761,"urn:WaterMeter:MC0203J22010600005","2024-04-14T21:30:00",19,25.345165,0.179],
    [17762,"urn:WaterMeter:MC0203J22010600005","2024-04-14T21:45:00",18.899,25.326546,0.173],
    [17763,"urn:WaterMeter:MC0203J22010600005","2024-04-14T22:00:00",18.799,25.31875,0.164],
    [17764,"urn:WaterMeter:MC0203J22010600005","2024-04-14T22:15:00",18.6,25.314909,0.172],
    [17765,"urn:WaterMeter:MC0203J22010600005","2024-04-14T22:30:00",18.5,25.27802,0.179],
    [17766,"urn:WaterMeter:MC0203J22010600005","2024-04-14T22:45:00",18.299,25.314909,0.173],
    [17767,"urn:WaterMeter:MC0203J22010600005","2024-04-14T23:00:00",18.2,25.317198,0.17],
    [17768,"urn:WaterMeter:MC0203J22010600005","2024-04-14T23:15:00",18.1,25.32771,0.181],
    [17769,"urn:WaterMeter:MC0203J22010600005","2024-04-14T23:30:00",18,25.319138,0.176],
    [17770,"urn:WaterMeter:MC0203J22010600005","2024-04-14T23:45:00",17.899,25.336205,0.183],
    [17771,"urn:WaterMeter:MC0203J22010600005","2024-04-15T00:00:00",17.7,25.275343,0.171],
    [17772,"urn:WaterMeter:MC0203J22010600005","2024-04-15T00:15:00",17.6,25.304825,0.183],
    [17773,"urn:WaterMeter:MC0203J22010600005","2024-04-15T00:30:00",17.5,25.321892,0.181],
    [17774,"urn:WaterMeter:MC0203J22010600005","2024-04-15T00:45:00",17.399,25.23923,0.17],
    [17775,"urn:WaterMeter:MC0203J22010600005","2024-04-15T01:00:00",17.2,25.275732,0.177],
    [17776,"urn:WaterMeter:MC0203J22010600005","2024-04-15T01:15:00",17.1,25.243536,0.176],
    [17777,"urn:WaterMeter:MC0203J22010600005","2024-04-15T01:30:00",17,25.247803,0.178],
    [17778,"urn:WaterMeter:MC0203J22010600005","2024-04-15T01:45:00",16.899,25.320728,0.17],
    [17779,"urn:WaterMeter:MC0203J22010600005","2024-04-15T02:00:00",16.799,25.271425,0.177],
    [17780,"urn:WaterMeter:MC0203J22010600005","2024-04-15T02:15:00",16.799,25.265646,0.173],
    [17781,"urn:WaterMeter:MC0203J22010600005","2024-04-15T02:30:00",16.6,25.251255,0.173],
    [17782,"urn:WaterMeter:MC0203J22010600005","2024-04-15T02:45:00",16.5,25.292023,0.172],
    [17783,"urn:WaterMeter:MC0203J22010600005","2024-04-15T03:00:00",16.399,25.245087,0.171],
    [17784,"urn:WaterMeter:MC0203J22010600005","2024-04-15T03:15:00",16.299,25.26681,0.18],
    [17785,"urn:WaterMeter:MC0203J22010600005","2024-04-15T03:30:00",16.2,25.279572,0.176],
    [17786,"urn:WaterMeter:MC0203J22010600005","2024-04-15T03:45:00",16.1,25.266033,0.184],
    [17787,"urn:WaterMeter:MC0203J22010600005","2024-04-15T04:00:00",16,25.274569,0.178],
    [17788,"urn:WaterMeter:MC0203J22010600005","2024-04-15T04:15:00",15.899,25.24664,0.172],
    [17789,"urn:WaterMeter:MC0203J22010600005","2024-04-15T04:30:00",15.8,25.288532,0.169],
    [17790,"urn:WaterMeter:MC0203J22010600005","2024-04-15T04:45:00",15.699,25.251642,0.173],
    [17791,"urn:WaterMeter:MC0203J22010600005","2024-04-15T05:00:00",15.699,25.264095,0.179],
    [17792,"urn:WaterMeter:MC0203J22010600005","2024-04-15T05:15:00",15.6,25.236166,0.17],
    [17793,"urn:WaterMeter:MC0203J22010600005","2024-04-15T05:30:00",15.6,25.260952,0.168],
    [17794,"urn:WaterMeter:MC0203J22010600005","2024-04-15T05:45:00",15.5,25.2094,0.175],
    [17795,"urn:WaterMeter:MC0203J22010600005","2024-04-15T06:00:00",15.399,25.240395,0.175],
    [17796,"urn:WaterMeter:MC0203J22010600005","2024-04-15T06:15:00",15.399,25.227243,0.176],
    [17797,"urn:WaterMeter:MC0203J22010600005","2024-04-15T06:30:00",15.399,25.263319,0.177],
    [17798,"urn:WaterMeter:MC0203J22010600005","2024-04-15T06:45:00",15.399,25.23345,0.175],
    [17799,"urn:WaterMeter:MC0203J22010600005","2024-04-15T07:00:00",15.5,25.226856,0.176],
    [17800,"urn:WaterMeter:MC0203J22010600005","2024-04-15T07:15:00",15.699,25.20785,0.186],
    [17801,"urn:WaterMeter:MC0203J22010600005","2024-04-15T07:30:00",16,25.138027,0.168],
    [17802,"urn:WaterMeter:MC0203J22010600005","2024-04-15T07:45:00",16.2,25.173286,0.171],
    [17803,"urn:WaterMeter:MC0203J22010600005","2024-04-15T08:00:00",16.6,25.172163,0.162],
    [17804,"urn:WaterMeter:MC0203J22010600005","2024-04-15T08:15:00",16.799,25.075188,0.176],
    [17805,"urn:WaterMeter:MC0203J22010600005","2024-04-15T08:30:00",17.1,25.83043,0.183],
    [17806,"urn:WaterMeter:MC0203J22010600005","2024-04-15T08:45:00",17.299,27.356,0.209],
    [17807,"urn:WaterMeter:MC0203J22010600005","2024-04-15T09:00:00",17.6,28.747824,0.22],
    [17808,"urn:WaterMeter:MC0203J22010600005","2024-04-15T09:15:00",17.899,29.562414,0.23],
    [17809,"urn:WaterMeter:MC0203J22010600005","2024-04-15T09:30:00",18.2,29.861097,0.229],
    [17810,"urn:WaterMeter:MC0203J22010600005","2024-04-15T09:45:00",18.5,29.94178,0.223],
    [17811,"urn:WaterMeter:MC0203J22010600005","2024-04-15T10:00:00",18.7,30.006172,0.242],
    [17812,"urn:WaterMeter:MC0203J22010600005","2024-04-15T10:15:00",18.899,30.032122,0.227],
    [17813,"urn:WaterMeter:MC0203J22010600005","2024-04-15T10:30:00",19.1,30.0085,0.231],
    [17814,"urn:WaterMeter:MC0203J22010600005","2024-04-15T10:45:00",19.399,29.986002,0.222],
    [17815,"urn:WaterMeter:MC0203J22010600005","2024-04-15T11:00:00",19.799,29.996475,0.221],
    [17816,"urn:WaterMeter:MC0203J22010600005","2024-04-15T11:15:00",20.1,29.935923,0.227],
    [17817,"urn:WaterMeter:MC0203J22010600005","2024-04-15T11:30:00",20.399,29.942944,0.221],
    [17818,"urn:WaterMeter:MC0203J22010600005","2024-04-15T11:45:00",20.6,29.88666,0.241],
    [17819,"urn:WaterMeter:MC0203J22010600005","2024-04-15T12:00:00",20.799,29.867653,0.235],
    [17820,"urn:WaterMeter:MC0203J22010600005","2024-04-15T12:15:00",21,29.841314,0.221],
    [17821,"urn:WaterMeter:MC0203J22010600005","2024-04-15T12:30:00",21.2,29.807955,0.221],
    [17822,"urn:WaterMeter:MC0203J22010600005","2024-04-15T12:45:00",21.399,29.759428,0.228],
    [17823,"urn:WaterMeter:MC0203J22010600005","2024-04-15T13:00:00",21.5,29.723392,0.238],
    [17824,"urn:WaterMeter:MC0203J22010600005","2024-04-15T13:15:00",21.7,29.610514,0.202],
    [17825,"urn:WaterMeter:MC0203J22010600005","2024-04-15T13:30:00",21.799,29.592283,0.23],
    [17826,"urn:WaterMeter:MC0203J22010600005","2024-04-15T13:45:00",21.899,29.580257,0.229],
    [17827,"urn:WaterMeter:MC0203J22010600005","2024-04-15T14:00:00",22,29.51703,0.218],
    [17828,"urn:WaterMeter:MC0203J22010600005","2024-04-15T14:15:00",22.1,29.484058,0.223],
    [17829,"urn:WaterMeter:MC0203J22010600005","2024-04-15T14:30:00",22.2,29.409155,0.219],
    [17830,"urn:WaterMeter:MC0203J22010600005","2024-04-15T14:45:00",22.2,29.427813,0.219],
    [17831,"urn:WaterMeter:MC0203J22010600005","2024-04-15T15:00:00",22.299,29.386696,0.214],
    [17832,"urn:WaterMeter:MC0203J22010600005","2024-04-15T15:15:00",22.299,29.35291,0.225],
    [17833,"urn:WaterMeter:MC0203J22010600005","2024-04-15T15:30:00",22.399,29.30989,0.218],
    [17834,"urn:WaterMeter:MC0203J22010600005","2024-04-15T15:45:00",22.5,29.224554,0.217],
    [17835,"urn:WaterMeter:MC0203J22010600005","2024-04-15T16:00:00",22.5,29.177967,0.226],
    [17836,"urn:WaterMeter:MC0203J22010600005","2024-04-15T16:15:00",22.399,29.200115,0.223],
    [17837,"urn:WaterMeter:MC0203J22010600005","2024-04-15T16:30:00",22.399,29.112062,0.227],
    [17838,"urn:WaterMeter:MC0203J22010600005","2024-04-15T16:45:00",22.299,29.10314,0.216],
    [17839,"urn:WaterMeter:MC0203J22010600005","2024-04-15T17:00:00",22.2,29.099222,0.225],
    [17840,"urn:WaterMeter:MC0203J22010600005","2024-04-15T17:15:00",22.1,29.039913,0.226],
    [17841,"urn:WaterMeter:MC0203J22010600005","2024-04-15T17:30:00",22,29.041426,0.216],
    [17842,"urn:WaterMeter:MC0203J22010600005","2024-04-15T17:45:00",21.899,29.029827,0.221],
    [17843,"urn:WaterMeter:MC0203J22010600005","2024-04-15T18:00:00",21.799,29.002249,0.223],
    [17844,"urn:WaterMeter:MC0203J22010600005","2024-04-15T18:15:00",21.7,29.025173,0.217],
    [17845,"urn:WaterMeter:MC0203J22010600005","2024-04-15T18:30:00",21.7,28.997244,0.218],
    [17846,"urn:WaterMeter:MC0203J22010600005","2024-04-15T18:45:00",21.6,29.019354,0.215],
    [17847,"urn:WaterMeter:MC0203J22010600005","2024-04-15T19:00:00",21.5,28.948368,0.237],
    [17848,"urn:WaterMeter:MC0203J22010600005","2024-04-15T19:15:00",21.399,28.97432,0.22],
    [17849,"urn:WaterMeter:MC0203J22010600005","2024-04-15T19:30:00",21.299,28.947205,0.216],
    [17850,"urn:WaterMeter:MC0203J22010600005","2024-04-15T19:45:00",21.1,28.899881,0.235],
    [17851,"urn:WaterMeter:MC0203J22010600005","2024-04-15T20:00:00",21,28.914234,0.213],
    [17852,"urn:WaterMeter:MC0203J22010600005","2024-04-15T20:15:00",20.899,28.910355,0.223],
    [17853,"urn:WaterMeter:MC0203J22010600005","2024-04-15T20:30:00",20.799,28.926607,0.213],
    [17854,"urn:WaterMeter:MC0203J22010600005","2024-04-15T20:45:00",20.7,28.941387,0.217],
    [17855,"urn:WaterMeter:MC0203J22010600005","2024-04-15T21:00:00",20.6,28.958454,0.224],
    [17856,"urn:WaterMeter:MC0203J22010600005","2024-04-15T21:15:00",20.5,28.94061,0.231],
    [17857,"urn:WaterMeter:MC0203J22010600005","2024-04-15T21:30:00",20.299,28.921215,0.213],
    [17858,"urn:WaterMeter:MC0203J22010600005","2024-04-15T21:45:00",20.2,28.918888,0.234],
    [17859,"urn:WaterMeter:MC0203J22010600005","2024-04-15T22:00:00",20.1,28.884752,0.22],
    [17860,"urn:WaterMeter:MC0203J22010600005","2024-04-15T22:15:00",19.899,28.9076,0.218],
    [17861,"urn:WaterMeter:MC0203J22010600005","2024-04-15T22:30:00",19.799,28.87812,0.214],
    [17862,"urn:WaterMeter:MC0203J22010600005","2024-04-15T22:45:00",19.7,28.911518,0.21],
    [17863,"urn:WaterMeter:MC0203J22010600005","2024-04-15T23:00:00",19.5,28.883589,0.214],
    [17864,"urn:WaterMeter:MC0203J22010600005","2024-04-15T23:15:00",19.399,28.898718,0.229],
    [17865,"urn:WaterMeter:MC0203J22010600005","2024-04-15T23:30:00",19.299,28.876995,0.221],
    [17866,"urn:WaterMeter:MC0203J22010600005","2024-04-15T23:45:00",19.2,28.888205,0.221],
    [17867,"urn:WaterMeter:MC0203J22010600005","2024-04-16T00:00:00",19.1,28.926607,0.209],
    [17868,"urn:WaterMeter:MC0203J22010600005","2024-04-16T00:15:00",19,28.875444,0.221],
    [17869,"urn:WaterMeter:MC0203J22010600005","2024-04-16T00:30:00",18.799,28.869625,0.227],
    [17870,"urn:WaterMeter:MC0203J22010600005","2024-04-16T00:45:00",18.7,28.909967,0.218],
    [17871,"urn:WaterMeter:MC0203J22010600005","2024-04-16T01:00:00",18.6,28.897127,0.211],
    [17872,"urn:WaterMeter:MC0203J22010600005","2024-04-16T01:15:00",18.5,28.86687,0.215],
    [17873,"urn:WaterMeter:MC0203J22010600005","2024-04-16T01:30:00",18.399,28.901432,0.221],
    [17874,"urn:WaterMeter:MC0203J22010600005","2024-04-16T01:45:00",18.299,28.899881,0.225],
    [17875,"urn:WaterMeter:MC0203J22010600005","2024-04-16T02:00:00",18.299,28.907213,0.216],
    [17876,"urn:WaterMeter:MC0203J22010600005","2024-04-16T02:15:00",18.2,28.90566,0.215],
    [17877,"urn:WaterMeter:MC0203J22010600005","2024-04-16T02:30:00",18.1,28.890572,0.208],
    [17878,"urn:WaterMeter:MC0203J22010600005","2024-04-16T02:45:00",18,28.906437,0.21],
    [17879,"urn:WaterMeter:MC0203J22010600005","2024-04-16T03:00:00",18,28.880098,0.227],
    [17880,"urn:WaterMeter:MC0203J22010600005","2024-04-16T03:15:00",17.899,28.894838,0.22],
    [17881,"urn:WaterMeter:MC0203J22010600005","2024-04-16T03:30:00",17.799,28.841309,0.225],
    [17882,"urn:WaterMeter:MC0203J22010600005","2024-04-16T03:45:00",17.7,28.829632,0.215],
    [17883,"urn:WaterMeter:MC0203J22010600005","2024-04-16T04:00:00",17.6,28.884365,0.215],
    [17884,"urn:WaterMeter:MC0203J22010600005","2024-04-16T04:15:00",17.5,28.885878,0.208],
    [17885,"urn:WaterMeter:MC0203J22010600005","2024-04-16T04:30:00",17.399,28.838942,0.212],
    [17886,"urn:WaterMeter:MC0203J22010600005","2024-04-16T04:45:00",17.299,28.861092,0.213],
    [17887,"urn:WaterMeter:MC0203J22010600005","2024-04-16T05:00:00",17.2,28.843248,0.212],
    [17888,"urn:WaterMeter:MC0203J22010600005","2024-04-16T05:15:00",17.1,28.853333,0.212],
    [17889,"urn:WaterMeter:MC0203J22010600005","2024-04-16T05:30:00",17,28.836653,0.209],
    [17890,"urn:WaterMeter:MC0203J22010600005","2024-04-16T05:45:00",16.899,28.853722,0.211],
    [17891,"urn:WaterMeter:MC0203J22010600005","2024-04-16T06:00:00",16.799,28.799026,0.211],
    [17892,"urn:WaterMeter:MC0203J22010600005","2024-04-16T06:15:00",16.799,28.83743,0.214],
    [17893,"urn:WaterMeter:MC0203J22010600005","2024-04-16T06:30:00",16.799,28.789679,0.206],
    [17894,"urn:WaterMeter:MC0203J22010600005","2024-04-16T06:45:00",16.899,28.795923,0.211],
    [17895,"urn:WaterMeter:MC0203J22010600005","2024-04-16T07:00:00",17,28.809849,0.22],
    [17896,"urn:WaterMeter:MC0203J22010600005","2024-04-16T07:15:00",17.2,28.775366,0.228],
    [17897,"urn:WaterMeter:MC0203J22010600005","2024-04-16T07:30:00",17.399,28.767607,0.204],
    [17898,"urn:WaterMeter:MC0203J22010600005","2024-04-16T07:45:00",17.6,28.753256,0.218],
    [17899,"urn:WaterMeter:MC0203J22010600005","2024-04-16T08:00:00",17.899,28.705544,0.203],
    [17900,"urn:WaterMeter:MC0203J22010600005","2024-04-16T08:15:00",18.2,28.648521,0.206],
    [17901,"urn:WaterMeter:MC0203J22010600005","2024-04-16T08:30:00",18.5,28.613224,0.216],
    [17902,"urn:WaterMeter:MC0203J22010600005","2024-04-16T08:45:00",18.799,28.590338,0.203],
    [17903,"urn:WaterMeter:MC0203J22010600005","2024-04-16T09:00:00",19.1,28.540686,0.205],
    [17904,"urn:WaterMeter:MC0203J22010600005","2024-04-16T09:15:00",19.399,28.445263,0.212],
    [17905,"urn:WaterMeter:MC0203J22010600005","2024-04-16T09:30:00",19.6,28.415007,0.2],
    [17906,"urn:WaterMeter:MC0203J22010600005","2024-04-16T09:45:00",19.899,28.357985,0.211],
    [17907,"urn:WaterMeter:MC0203J22010600005","2024-04-16T10:00:00",20.1,28.274975,0.198],
    [17908,"urn:WaterMeter:MC0203J22010600005","2024-04-16T10:15:00",20.399,28.186533,0.198],
    [17909,"urn:WaterMeter:MC0203J22010600005","2024-04-16T10:30:00",20.7,28.15744,0.212],
    [17910,"urn:WaterMeter:MC0203J22010600005","2024-04-16T10:45:00",21,28.101194,0.197],
    [17911,"urn:WaterMeter:MC0203J22010600005","2024-04-16T11:00:00",21.2,28.058138,0.204],
    [17912,"urn:WaterMeter:MC0203J22010600005","2024-04-16T11:15:00",21.399,27.955694,0.202],
    [17913,"urn:WaterMeter:MC0203J22010600005","2024-04-16T11:30:00",21.6,27.91384,0.2],
    [17914,"urn:WaterMeter:MC0203J22010600005","2024-04-16T11:45:00",21.799,27.804064,0.194],
    [17915,"urn:WaterMeter:MC0203J22010600005","2024-04-16T12:00:00",22.1,27.764885,0.194],
    [17916,"urn:WaterMeter:MC0203J22010600005","2024-04-16T12:15:00",22.299,27.705925,0.193],
    [17917,"urn:WaterMeter:MC0203J22010600005","2024-04-16T12:30:00",22.399,27.606972,0.195],
    [17918,"urn:WaterMeter:MC0203J22010600005","2024-04-16T12:45:00",22.6,27.572487,0.204],
    [17919,"urn:WaterMeter:MC0203J22010600005","2024-04-16T13:00:00",22.7,27.471594,0.196],
    [17920,"urn:WaterMeter:MC0203J22010600005","2024-04-16T13:15:00",22.799,27.387459,0.191],
    [17921,"urn:WaterMeter:MC0203J22010600005","2024-04-16T13:30:00",22.899,27.310266,0.201],
    [17922,"urn:WaterMeter:MC0203J22010600005","2024-04-16T13:45:00",23,27.269112,0.202],
    [17923,"urn:WaterMeter:MC0203J22010600005","2024-04-16T14:00:00",23.2,27.159723,0.199],
    [17924,"urn:WaterMeter:MC0203J22010600005","2024-04-16T14:15:00",23.299,27.114378,0.195],
    [17925,"urn:WaterMeter:MC0203J22010600005","2024-04-16T14:30:00",23.299,27.031366,0.193],
    [17926,"urn:WaterMeter:MC0203J22010600005","2024-04-16T14:45:00",23.399,26.999947,0.188],
    [17927,"urn:WaterMeter:MC0203J22010600005","2024-04-16T15:00:00",23.399,26.894827,0.189],
    [17928,"urn:WaterMeter:MC0203J22010600005","2024-04-16T15:15:00",23.299,26.830008,0.186],
    [17929,"urn:WaterMeter:MC0203J22010600005","2024-04-16T15:30:00",23.299,26.777292,0.183],
    [17930,"urn:WaterMeter:MC0203J22010600005","2024-04-16T15:45:00",23.2,26.757898,0.187],
    [17931,"urn:WaterMeter:MC0203J22010600005","2024-04-16T16:00:00",23.1,26.755144,0.204],
    [17932,"urn:WaterMeter:MC0203J22010600005","2024-04-16T16:15:00",23,26.663637,0.186],
    [17933,"urn:WaterMeter:MC0203J22010600005","2024-04-16T16:30:00",23,26.65045,0.199],
    [17934,"urn:WaterMeter:MC0203J22010600005","2024-04-16T16:45:00",22.799,26.622908,0.187],
    [17935,"urn:WaterMeter:MC0203J22010600005","2024-04-16T17:00:00",22.799,26.586834,0.188],
    [17936,"urn:WaterMeter:MC0203J22010600005","2024-04-16T17:15:00",22.7,26.522015,0.187],
    [17937,"urn:WaterMeter:MC0203J22010600005","2024-04-16T17:30:00",22.6,26.489471,0.201],
    [17938,"urn:WaterMeter:MC0203J22010600005","2024-04-16T17:45:00",22.5,26.494513,0.187],
    [17939,"urn:WaterMeter:MC0203J22010600005","2024-04-16T18:00:00",22.299,26.459602,0.187],
    [17940,"urn:WaterMeter:MC0203J22010600005","2024-04-16T18:15:00",22.2,26.454948,0.185],
    [17941,"urn:WaterMeter:MC0203J22010600005","2024-04-16T18:30:00",22.1,26.473528,0.187],
    [17942,"urn:WaterMeter:MC0203J22010600005","2024-04-16T18:45:00",22,26.465422,0.183],
    [17943,"urn:WaterMeter:MC0203J22010600005","2024-04-16T19:00:00",21.899,26.430122,0.187],
    [17944,"urn:WaterMeter:MC0203J22010600005","2024-04-16T19:15:00",21.7,26.410727,0.198],
    [17945,"urn:WaterMeter:MC0203J22010600005","2024-04-16T19:30:00",21.6,26.398314,0.191],
    [17946,"urn:WaterMeter:MC0203J22010600005","2024-04-16T19:45:00",21.5,26.382023,0.18],
    [17947,"urn:WaterMeter:MC0203J22010600005","2024-04-16T20:00:00",21.399,26.408012,0.19],
    [17948,"urn:WaterMeter:MC0203J22010600005","2024-04-16T20:15:00",21.2,26.371937,0.182],
    [17949,"urn:WaterMeter:MC0203J22010600005","2024-04-16T20:30:00",21.1,26.361076,0.187],
    [17950,"urn:WaterMeter:MC0203J22010600005","2024-04-16T20:45:00",21,26.3731,0.201],
    [17951,"urn:WaterMeter:MC0203J22010600005","2024-04-16T21:00:00",20.899,26.361076,0.185],
    [17952,"urn:WaterMeter:MC0203J22010600005","2024-04-16T21:15:00",20.799,26.375776,0.195],
    [17953,"urn:WaterMeter:MC0203J22010600005","2024-04-16T21:30:00",20.7,26.342457,0.182],
    [17954,"urn:WaterMeter:MC0203J22010600005","2024-04-16T21:45:00",20.5,26.35677,0.184],
    [17955,"urn:WaterMeter:MC0203J22010600005","2024-04-16T22:00:00",20.399,26.353706,0.187],
    [17956,"urn:WaterMeter:MC0203J22010600005","2024-04-16T22:15:00",20.299,26.385862,0.185],
    [17957,"urn:WaterMeter:MC0203J22010600005","2024-04-16T22:30:00",20.2,26.359524,0.195],
    [17958,"urn:WaterMeter:MC0203J22010600005","2024-04-16T22:45:00",20.1,26.352541,0.197],
    [17959,"urn:WaterMeter:MC0203J22010600005","2024-04-16T23:00:00",20,26.363016,0.187],
    [17960,"urn:WaterMeter:MC0203J22010600005","2024-04-16T23:15:00",19.799,26.34746,0.186],
    [17961,"urn:WaterMeter:MC0203J22010600005","2024-04-16T23:30:00",19.7,26.295908,0.191],
    [17962,"urn:WaterMeter:MC0203J22010600005","2024-04-16T23:45:00",19.6,26.357973,0.185],
    [17963,"urn:WaterMeter:MC0203J22010600005","2024-04-17T00:00:00",19.5,26.377367,0.186],
    [17964,"urn:WaterMeter:MC0203J22010600005","2024-04-17T00:15:00",19.399,26.315304,0.189],
    [17965,"urn:WaterMeter:MC0203J22010600005","2024-04-17T00:30:00",19.299,26.3366,0.195],
    [17966,"urn:WaterMeter:MC0203J22010600005","2024-04-17T00:45:00",19.2,26.35448,0.194],
    [17967,"urn:WaterMeter:MC0203J22010600005","2024-04-17T01:00:00",19,26.35099,0.197],
    [17968,"urn:WaterMeter:MC0203J22010600005","2024-04-17T01:15:00",19,26.336987,0.188],
    [17969,"urn:WaterMeter:MC0203J22010600005","2024-04-17T01:30:00",18.899,26.361464,0.185],
    [17970,"urn:WaterMeter:MC0203J22010600005","2024-04-17T01:45:00",18.799,26.32535,0.191],
    [17971,"urn:WaterMeter:MC0203J22010600005","2024-04-17T02:00:00",18.799,26.353706,0.189],
    [17972,"urn:WaterMeter:MC0203J22010600005","2024-04-17T02:15:00",18.799,26.294357,0.18],
    [17973,"urn:WaterMeter:MC0203J22010600005","2024-04-17T02:30:00",18.799,26.323061,0.185],
    [17974,"urn:WaterMeter:MC0203J22010600005","2024-04-17T02:45:00",18.899,26.348663,0.182],
    [17975,"urn:WaterMeter:MC0203J22010600005","2024-04-17T03:00:00",18.899,26.287724,0.192],
    [17976,"urn:WaterMeter:MC0203J22010600005","2024-04-17T03:15:00",18.899,26.281944,0.179],
    [17977,"urn:WaterMeter:MC0203J22010600005","2024-04-17T03:30:00",18.899,26.274574,0.188],
    [17978,"urn:WaterMeter:MC0203J22010600005","2024-04-17T03:45:00",18.899,26.27535,0.181],
    [17979,"urn:WaterMeter:MC0203J22010600005","2024-04-17T04:00:00",18.899,26.263712,0.198],
    [17980,"urn:WaterMeter:MC0203J22010600005","2024-04-17T04:15:00",18.899,26.242378,0.19],
    [17981,"urn:WaterMeter:MC0203J22010600005","2024-04-17T04:30:00",19,26.25902,0.178],
    [17982,"urn:WaterMeter:MC0203J22010600005","2024-04-17T04:45:00",18.899,26.229538,0.183],
    [17983,"urn:WaterMeter:MC0203J22010600005","2024-04-17T05:00:00",18.899,26.252464,0.184],
    [17984,"urn:WaterMeter:MC0203J22010600005","2024-04-17T05:15:00",18.899,26.200834,0.181],
    [17985,"urn:WaterMeter:MC0203J22010600005","2024-04-17T05:30:00",18.799,26.236559,0.183],
    [17986,"urn:WaterMeter:MC0203J22010600005","2024-04-17T05:45:00",18.7,26.238111,0.189],
    [17987,"urn:WaterMeter:MC0203J22010600005","2024-04-17T06:00:00",18.6,26.182215,0.195],
    [17988,"urn:WaterMeter:MC0203J22010600005","2024-04-17T06:15:00",18.5,26.224148,0.196],
    [17989,"urn:WaterMeter:MC0203J22010600005","2024-04-17T06:30:00",18.5,26.207855,0.181],
    [17990,"urn:WaterMeter:MC0203J22010600005","2024-04-17T06:45:00",18.5,26.189198,0.187],
    [17991,"urn:WaterMeter:MC0203J22010600005","2024-04-17T07:00:00",18.5,26.226862,0.194],
    [17992,"urn:WaterMeter:MC0203J22010600005","2024-04-17T07:15:00",18.6,26.167513,0.183],
    [17993,"urn:WaterMeter:MC0203J22010600005","2024-04-17T07:30:00",18.7,26.226475,0.178],
    [17994,"urn:WaterMeter:MC0203J22010600005","2024-04-17T07:45:00",18.799,26.186909,0.175],
    [17995,"urn:WaterMeter:MC0203J22010600005","2024-04-17T08:00:00",18.899,26.218328,0.191],
    [17996,"urn:WaterMeter:MC0203J22010600005","2024-04-17T08:15:00",18.899,26.495678,0.194],
    [17997,"urn:WaterMeter:MC0203J22010600005","2024-04-17T08:30:00",19.1,27.890177,0.23],
    [17998,"urn:WaterMeter:MC0203J22010600005","2024-04-17T08:45:00",19.299,29.148874,0.253],
    [17999,"urn:WaterMeter:MC0203J22010600005","2024-04-17T09:00:00",19.399,30.023201,0.245],
    [18000,"urn:WaterMeter:MC0203J22010600005","2024-04-17T09:15:00",19.6,30.223745,0.231],
    [18001,"urn:WaterMeter:MC0203J22010600005","2024-04-17T09:30:00",19.7,30.263311,0.261],
    [18002,"urn:WaterMeter:MC0203J22010600005","2024-04-17T09:45:00",19.899,30.285849,0.247],
    [18003,"urn:WaterMeter:MC0203J22010600005","2024-04-17T10:00:00",20,30.257143,0.238],
    [18004,"urn:WaterMeter:MC0203J22010600005","2024-04-17T10:15:00",20.2,30.270332,0.246],
    [18005,"urn:WaterMeter:MC0203J22010600005","2024-04-17T10:30:00",20.299,30.15629,0.227],
    [18006,"urn:WaterMeter:MC0203J22010600005","2024-04-17T10:45:00",20.399,30.174133,0.251],
    [18007,"urn:WaterMeter:MC0203J22010600005","2024-04-17T11:00:00",20.6,30.15629,0.237],
    [18008,"urn:WaterMeter:MC0203J22010600005","2024-04-17T11:15:00",20.7,30.1303,0.245],
    [18009,"urn:WaterMeter:MC0203J22010600005","2024-04-17T11:30:00",20.799,30.077934,0.231],
    [18010,"urn:WaterMeter:MC0203J22010600005","2024-04-17T11:45:00",21,30.039532,0.232],
    [18011,"urn:WaterMeter:MC0203J22010600005","2024-04-17T12:00:00",21.1,30.064745,0.229],
    [18012,"urn:WaterMeter:MC0203J22010600005","2024-04-17T12:15:00",21.2,29.994108,0.238],
    [18013,"urn:WaterMeter:MC0203J22010600005","2024-04-17T12:30:00",21.299,29.971998,0.229],
    [18014,"urn:WaterMeter:MC0203J22010600005","2024-04-17T12:45:00",21.399,29.968546,0.232],
    [18015,"urn:WaterMeter:MC0203J22010600005","2024-04-17T13:00:00",21.399,29.894806,0.24],
    [18016,"urn:WaterMeter:MC0203J22010600005","2024-04-17T13:15:00",21.5,29.872347,0.229],
    [18017,"urn:WaterMeter:MC0203J22010600005","2024-04-17T13:30:00",21.6,29.83662,0.231],
    [18018,"urn:WaterMeter:MC0203J22010600005","2024-04-17T13:45:00",21.6,29.777271,0.233],
    [18019,"urn:WaterMeter:MC0203J22010600005","2024-04-17T14:00:00",21.6,29.765675,0.227],
    [18020,"urn:WaterMeter:MC0203J22010600005","2024-04-17T14:15:00",21.7,29.729212,0.239],
    [18021,"urn:WaterMeter:MC0203J22010600005","2024-04-17T14:30:00",21.6,29.685766,0.229],
    [18022,"urn:WaterMeter:MC0203J22010600005","2024-04-17T14:45:00",21.6,29.686543,0.256],
    [18023,"urn:WaterMeter:MC0203J22010600005","2024-04-17T15:00:00",21.6,29.64814,0.228],
    [18024,"urn:WaterMeter:MC0203J22010600005","2024-04-17T15:15:00",21.6,29.619823,0.24],
    [18025,"urn:WaterMeter:MC0203J22010600005","2024-04-17T15:30:00",21.6,29.5725,0.224],
    [18026,"urn:WaterMeter:MC0203J22010600005","2024-04-17T15:45:00",21.6,29.593447,0.229],
    [18027,"urn:WaterMeter:MC0203J22010600005","2024-04-17T16:00:00",21.6,29.55617,0.225],
    [18028,"urn:WaterMeter:MC0203J22010600005","2024-04-17T16:15:00",21.6,29.51703,0.238],
    [18029,"urn:WaterMeter:MC0203J22010600005","2024-04-17T16:30:00",21.5,29.496859,0.226],
    [18030,"urn:WaterMeter:MC0203J22010600005","2024-04-17T16:45:00",21.5,29.506907,0.238],
    [18031,"urn:WaterMeter:MC0203J22010600005","2024-04-17T17:00:00",21.399,29.453026,0.228],
    [18032,"urn:WaterMeter:MC0203J22010600005","2024-04-17T17:15:00",21.399,29.470444,0.23],
    [18033,"urn:WaterMeter:MC0203J22010600005","2024-04-17T17:30:00",21.299,29.405703,0.231],
    [18034,"urn:WaterMeter:MC0203J22010600005","2024-04-17T17:45:00",21.2,29.423159,0.236],
    [18035,"urn:WaterMeter:MC0203J22010600005","2024-04-17T18:00:00",21.1,29.371529,0.227],
    [18036,"urn:WaterMeter:MC0203J22010600005","2024-04-17T18:15:00",21,29.435959,0.243],
    [18037,"urn:WaterMeter:MC0203J22010600005","2024-04-17T18:30:00",20.799,29.387472,0.248],
    [18038,"urn:WaterMeter:MC0203J22010600005","2024-04-17T18:45:00",20.7,29.399496,0.219],
    [18039,"urn:WaterMeter:MC0203J22010600005","2024-04-17T19:00:00",20.5,29.404152,0.224],
    [18040,"urn:WaterMeter:MC0203J22010600005","2024-04-17T19:15:00",20.399,29.398333,0.234],
    [18041,"urn:WaterMeter:MC0203J22010600005","2024-04-17T19:30:00",20.299,29.364973,0.225],
    [18042,"urn:WaterMeter:MC0203J22010600005","2024-04-17T19:45:00",20.2,29.3436,0.237],
    [18043,"urn:WaterMeter:MC0203J22010600005","2024-04-17T20:00:00",20.1,29.390924,0.224],
    [18044,"urn:WaterMeter:MC0203J22010600005","2024-04-17T20:15:00",20,29.345966,0.231],
    [18045,"urn:WaterMeter:MC0203J22010600005","2024-04-17T20:30:00",19.899,29.353298,0.235],
    [18046,"urn:WaterMeter:MC0203J22010600005","2024-04-17T20:45:00",19.799,29.372305,0.221],
    [18047,"urn:WaterMeter:MC0203J22010600005","2024-04-17T21:00:00",19.799,29.376223,0.218],
    [18048,"urn:WaterMeter:MC0203J22010600005","2024-04-17T21:15:00",19.7,29.356827,0.233],
    [18049,"urn:WaterMeter:MC0203J22010600005","2024-04-17T21:30:00",19.6,29.328123,0.242],
    [18050,"urn:WaterMeter:MC0203J22010600005","2024-04-17T21:45:00",19.6,29.347906,0.224],
    [18051,"urn:WaterMeter:MC0203J22010600005","2024-04-17T22:00:00",19.5,29.33627,0.236],
    [18052,"urn:WaterMeter:MC0203J22010600005","2024-04-17T22:15:00",19.5,29.31412,0.247],
    [18053,"urn:WaterMeter:MC0203J22010600005","2024-04-17T22:30:00",19.399,29.295113,0.223],
    [18054,"urn:WaterMeter:MC0203J22010600005","2024-04-17T22:45:00",19.399,29.337433,0.223],
    [18055,"urn:WaterMeter:MC0203J22010600005","2024-04-17T23:00:00",19.299,29.318426,0.218],
    [18056,"urn:WaterMeter:MC0203J22010600005","2024-04-17T23:15:00",19.2,29.325407,0.225],
    [18057,"urn:WaterMeter:MC0203J22010600005","2024-04-17T23:30:00",19.1,29.290108,0.22],
    [18058,"urn:WaterMeter:MC0203J22010600005","2024-04-17T23:45:00",19,29.264894,0.233],
    [18059,"urn:WaterMeter:MC0203J22010600005","2024-04-18T00:00:00",19,29.30291,0.224],
    [18060,"urn:WaterMeter:MC0203J22010600005","2024-04-18T00:15:00",19,29.287004,0.229],
    [18061,"urn:WaterMeter:MC0203J22010600005","2024-04-18T00:30:00",19,29.309116,0.217],
    [18062,"urn:WaterMeter:MC0203J22010600005","2024-04-18T00:45:00",18.899,29.300194,0.238],
    [18063,"urn:WaterMeter:MC0203J22010600005","2024-04-18T01:00:00",18.899,29.297867,0.226],
    [18064,"urn:WaterMeter:MC0203J22010600005","2024-04-18T01:15:00",18.799,29.276493,0.227],
    [18065,"urn:WaterMeter:MC0203J22010600005","2024-04-18T01:30:00",18.7,29.288557,0.223],
    [18066,"urn:WaterMeter:MC0203J22010600005","2024-04-18T01:45:00",18.7,29.279634,0.22],
    [18067,"urn:WaterMeter:MC0203J22010600005","2024-04-18T02:00:00",18.6,29.26955,0.228],
    [18068,"urn:WaterMeter:MC0203J22010600005","2024-04-18T02:15:00",18.5,29.251318,0.223],
    [18069,"urn:WaterMeter:MC0203J22010600005","2024-04-18T02:30:00",18.399,29.244724,0.233],
    [18070,"urn:WaterMeter:MC0203J22010600005","2024-04-18T02:45:00",18.299,29.279634,0.23],
    [18071,"urn:WaterMeter:MC0203J22010600005","2024-04-18T03:00:00",18.299,29.24356,0.217],
    [18072,"urn:WaterMeter:MC0203J22010600005","2024-04-18T03:15:00",18.2,29.251707,0.232],
    [18073,"urn:WaterMeter:MC0203J22010600005","2024-04-18T03:30:00",18.2,29.264507,0.21],
    [18074,"urn:WaterMeter:MC0203J22010600005","2024-04-18T03:45:00",18.2,29.2327,0.224],
    [18075,"urn:WaterMeter:MC0203J22010600005","2024-04-18T04:00:00",18.1,29.237316,0.219],
    [18076,"urn:WaterMeter:MC0203J22010600005","2024-04-18T04:15:00",18.1,29.218735,0.226],
    [18077,"urn:WaterMeter:MC0203J22010600005","2024-04-18T04:30:00",18.1,29.278471,0.214],
    [18078,"urn:WaterMeter:MC0203J22010600005","2024-04-18T04:45:00",18,29.209038,0.214],
    [18079,"urn:WaterMeter:MC0203J22010600005","2024-04-18T05:00:00",18,29.194298,0.217],
    [18080,"urn:WaterMeter:MC0203J22010600005","2024-04-18T05:15:00",18,29.222225,0.223],
    [18081,"urn:WaterMeter:MC0203J22010600005","2024-04-18T05:30:00",18,29.233475,0.233],
    [18082,"urn:WaterMeter:MC0203J22010600005","2024-04-18T05:45:00",18,29.196198,0.219],
    [18083,"urn:WaterMeter:MC0203J22010600005","2024-04-18T06:00:00",18,29.192745,0.216],
    [18084,"urn:WaterMeter:MC0203J22010600005","2024-04-18T06:15:00",18,29.187315,0.218],
    [18085,"urn:WaterMeter:MC0203J22010600005","2024-04-18T06:30:00",17.899,29.164042,0.234],
    [18086,"urn:WaterMeter:MC0203J22010600005","2024-04-18T06:45:00",17.899,29.20671,0.226],
    [18087,"urn:WaterMeter:MC0203J22010600005","2024-04-18T07:00:00",18,29.163265,0.215],
    [18088,"urn:WaterMeter:MC0203J22010600005","2024-04-18T07:15:00",18,29.130644,0.215],
    [18089,"urn:WaterMeter:MC0203J22010600005","2024-04-18T07:30:00",18.1,29.137238,0.221],
    [18090,"urn:WaterMeter:MC0203J22010600005","2024-04-18T07:45:00",18.2,29.132622,0.217],
    [18091,"urn:WaterMeter:MC0203J22010600005","2024-04-18T08:00:00",18.299,29.133785,0.228],
    [18092,"urn:WaterMeter:MC0203J22010600005","2024-04-18T08:15:00",18.399,29.101551,0.214],
    [18093,"urn:WaterMeter:MC0203J22010600005","2024-04-18T08:30:00",18.5,29.082542,0.214],
    [18094,"urn:WaterMeter:MC0203J22010600005","2024-04-18T08:45:00",18.6,29.06474,0.215],
    [18095,"urn:WaterMeter:MC0203J22010600005","2024-04-18T09:00:00",18.799,29.013496,0.212],
    [18096,"urn:WaterMeter:MC0203J22010600005","2024-04-18T09:15:00",19,28.993364,0.222],
    [18097,"urn:WaterMeter:MC0203J22010600005","2024-04-18T09:30:00",19.2,28.989874,0.21],
    [18098,"urn:WaterMeter:MC0203J22010600005","2024-04-18T09:45:00",19.299,28.940998,0.214],
    [18099,"urn:WaterMeter:MC0203J22010600005","2024-04-18T10:00:00",19.5,28.887041,0.219],
    [18100,"urn:WaterMeter:MC0203J22010600005","2024-04-18T10:15:00",19.6,28.84092,0.205],
    [18101,"urn:WaterMeter:MC0203J22010600005","2024-04-18T10:30:00",19.799,28.856436,0.203],
    [18102,"urn:WaterMeter:MC0203J22010600005","2024-04-18T10:45:00",20,28.74511,0.206],
    [18103,"urn:WaterMeter:MC0203J22010600005","2024-04-18T11:00:00",20.2,28.703566,0.207],
    [18104,"urn:WaterMeter:MC0203J22010600005","2024-04-18T11:15:00",20.399,28.67839,0.216],
    [18105,"urn:WaterMeter:MC0203J22010600005","2024-04-18T11:30:00",20.5,28.623697,0.211],
    [18106,"urn:WaterMeter:MC0203J22010600005","2024-04-18T11:45:00",20.799,28.573658,0.205],
    [18107,"urn:WaterMeter:MC0203J22010600005","2024-04-18T12:00:00",20.899,28.53991,0.206],
    [18108,"urn:WaterMeter:MC0203J22010600005","2024-04-18T12:15:00",21.1,28.487932,0.22],
    [18109,"urn:WaterMeter:MC0203J22010600005","2024-04-18T12:30:00",21.299,28.450306,0.208],
    [18110,"urn:WaterMeter:MC0203J22010600005","2024-04-18T12:45:00",21.399,28.40686,0.215],
    [18111,"urn:WaterMeter:MC0203J22010600005","2024-04-18T13:00:00",21.5,28.349838,0.207],
    [18112,"urn:WaterMeter:MC0203J22010600005","2024-04-18T13:15:00",21.6,28.305191,0.216],
    [18113,"urn:WaterMeter:MC0203J22010600005","2024-04-18T13:30:00",21.7,28.261786,0.207],
    [18114,"urn:WaterMeter:MC0203J22010600005","2024-04-18T13:45:00",21.7,28.22606,0.208],
    [18115,"urn:WaterMeter:MC0203J22010600005","2024-04-18T14:00:00",21.799,28.206278,0.205],
    [18116,"urn:WaterMeter:MC0203J22010600005","2024-04-18T14:15:00",21.899,28.095377,0.203],
    [18117,"urn:WaterMeter:MC0203J22010600005","2024-04-18T14:30:00",22,28.082537,0.199],
    [18118,"urn:WaterMeter:MC0203J22010600005","2024-04-18T14:45:00",22.1,28.018185,0.204],
    [18119,"urn:WaterMeter:MC0203J22010600005","2024-04-18T15:00:00",22.1,28.011591,0.207],
    [18120,"urn:WaterMeter:MC0203J22010600005","2024-04-18T15:15:00",22.2,27.917679,0.218],
    [18121,"urn:WaterMeter:MC0203J22010600005","2024-04-18T15:30:00",22.2,27.875826,0.218],
    [18122,"urn:WaterMeter:MC0203J22010600005","2024-04-18T15:45:00",22.299,27.850573,0.21],
    [18123,"urn:WaterMeter:MC0203J22010600005","2024-04-18T16:00:00",22.299,27.819153,0.2],
    [18124,"urn:WaterMeter:MC0203J22010600005","2024-04-18T16:15:00",22.2,27.788548,0.199],
    [18125,"urn:WaterMeter:MC0203J22010600005","2024-04-18T16:30:00",22.2,27.744715,0.208],
    [18126,"urn:WaterMeter:MC0203J22010600005","2024-04-18T16:45:00",22.2,27.688082,0.198],
    [18127,"urn:WaterMeter:MC0203J22010600005","2024-04-18T17:00:00",22.1,27.699718,0.211],
    [18128,"urn:WaterMeter:MC0203J22010600005","2024-04-18T17:15:00",22,27.671015,0.206],
    [18129,"urn:WaterMeter:MC0203J22010600005","2024-04-18T17:30:00",21.899,27.668686,0.199],
    [18130,"urn:WaterMeter:MC0203J22010600005","2024-04-18T17:45:00",21.7,27.62175,0.214],
    [18131,"urn:WaterMeter:MC0203J22010600005","2024-04-18T18:00:00",21.5,27.64774,0.201],
    [18132,"urn:WaterMeter:MC0203J22010600005","2024-04-18T18:15:00",21.299,27.62175,0.202],
    [18133,"urn:WaterMeter:MC0203J22010600005","2024-04-18T18:30:00",21.1,27.644985,0.202],
    [18134,"urn:WaterMeter:MC0203J22010600005","2024-04-18T18:45:00",21,27.586802,0.21],
    [18135,"urn:WaterMeter:MC0203J22010600005","2024-04-18T19:00:00",20.799,27.629509,0.198],
    [18136,"urn:WaterMeter:MC0203J22010600005","2024-04-18T19:15:00",20.7,27.583736,0.206],
    [18137,"urn:WaterMeter:MC0203J22010600005","2024-04-18T19:30:00",20.6,27.60158,0.21],
    [18138,"urn:WaterMeter:MC0203J22010600005","2024-04-18T19:45:00",20.5,27.60895,0.195],
    [18139,"urn:WaterMeter:MC0203J22010600005","2024-04-18T20:00:00",20.399,27.613993,0.205],
    [18140,"urn:WaterMeter:MC0203J22010600005","2024-04-18T20:15:00",20.299,27.563953,0.199],
    [18141,"urn:WaterMeter:MC0203J22010600005","2024-04-18T20:30:00",20.299,27.586802,0.195],
    [18142,"urn:WaterMeter:MC0203J22010600005","2024-04-18T20:45:00",20.2,27.60352,0.214],
    [18143,"urn:WaterMeter:MC0203J22010600005","2024-04-18T21:00:00",20.2,27.553093,0.195],
    [18144,"urn:WaterMeter:MC0203J22010600005","2024-04-18T21:15:00",20.1,27.55348,0.205],
    [18145,"urn:WaterMeter:MC0203J22010600005","2024-04-18T21:30:00",20,27.596537,0.195],
    [18146,"urn:WaterMeter:MC0203J22010600005","2024-04-18T21:45:00",19.899,27.559649,0.198],
    [18147,"urn:WaterMeter:MC0203J22010600005","2024-04-18T22:00:00",19.899,27.54223,0.203],
    [18148,"urn:WaterMeter:MC0203J22010600005","2024-04-18T22:15:00",19.799,27.56279,0.2],
    [18149,"urn:WaterMeter:MC0203J22010600005","2024-04-18T22:30:00",19.799,27.5721,0.196],
    [18150,"urn:WaterMeter:MC0203J22010600005","2024-04-18T22:45:00",19.7,27.537577,0.2],
    [18151,"urn:WaterMeter:MC0203J22010600005","2024-04-18T23:00:00",19.7,27.520082,0.193],
    [18152,"urn:WaterMeter:MC0203J22010600005","2024-04-18T23:15:00",19.6,27.513527,0.204],
    [18153,"urn:WaterMeter:MC0203J22010600005","2024-04-18T23:30:00",19.6,27.47082,0.198],
    [18154,"urn:WaterMeter:MC0203J22010600005","2024-04-18T23:45:00",19.6,27.529003,0.208],
    [18155,"urn:WaterMeter:MC0203J22010600005","2024-04-19T00:00:00",19.6,27.51469,0.207],
    [18156,"urn:WaterMeter:MC0203J22010600005","2024-04-19T00:15:00",19.5,27.502277,0.199],
    [18157,"urn:WaterMeter:MC0203J22010600005","2024-04-19T00:30:00",19.5,27.51857,0.198],
    [18158,"urn:WaterMeter:MC0203J22010600005","2024-04-19T00:45:00",19.5,27.465427,0.202],
    [18159,"urn:WaterMeter:MC0203J22010600005","2024-04-19T01:00:00",19.5,27.488314,0.209],
    [18160,"urn:WaterMeter:MC0203J22010600005","2024-04-19T01:15:00",19.399,27.47043,0.196],
    [18161,"urn:WaterMeter:MC0203J22010600005","2024-04-19T01:30:00",19.399,27.477064,0.199],
    [18162,"urn:WaterMeter:MC0203J22010600005","2024-04-19T01:45:00",19.399,27.444092,0.195],
    [18163,"urn:WaterMeter:MC0203J22010600005","2024-04-19T02:00:00",19.299,27.444868,0.198],
    [18164,"urn:WaterMeter:MC0203J22010600005","2024-04-19T02:15:00",19.299,27.44448,0.203],
    [18165,"urn:WaterMeter:MC0203J22010600005","2024-04-19T02:30:00",19.299,27.435558,0.21],
    [18166,"urn:WaterMeter:MC0203J22010600005","2024-04-19T02:45:00",19.2,27.440989,0.194],
    [18167,"urn:WaterMeter:MC0203J22010600005","2024-04-19T03:00:00",19.2,27.391338,0.202],
    [18168,"urn:WaterMeter:MC0203J22010600005","2024-04-19T03:15:00",19.1,27.37621,0.208],
    [18169,"urn:WaterMeter:MC0203J22010600005","2024-04-19T03:30:00",19.1,27.409182,0.198],
    [18170,"urn:WaterMeter:MC0203J22010600005","2024-04-19T03:45:00",19,27.412634,0.199],
    [18171,"urn:WaterMeter:MC0203J22010600005","2024-04-19T04:00:00",18.899,27.392075,0.201],
    [18172,"urn:WaterMeter:MC0203J22010600005","2024-04-19T04:15:00",18.799,27.402975,0.199],
    [18173,"urn:WaterMeter:MC0203J22010600005","2024-04-19T04:30:00",18.7,27.381641,0.204],
    [18174,"urn:WaterMeter:MC0203J22010600005","2024-04-19T04:45:00",18.7,27.389786,0.19],
    [18175,"urn:WaterMeter:MC0203J22010600005","2024-04-19T05:00:00",18.7,27.399096,0.196],
    [18176,"urn:WaterMeter:MC0203J22010600005","2024-04-19T05:15:00",18.6,27.36884,0.198],
    [18177,"urn:WaterMeter:MC0203J22010600005","2024-04-19T05:30:00",18.6,27.359142,0.203],
    [18178,"urn:WaterMeter:MC0203J22010600005","2024-04-19T05:45:00",18.399,27.388235,0.192],
    [18179,"urn:WaterMeter:MC0203J22010600005","2024-04-19T06:00:00",18.399,27.335442,0.19],
    [18180,"urn:WaterMeter:MC0203J22010600005","2024-04-19T06:15:00",18.399,27.343239,0.208],
    [18181,"urn:WaterMeter:MC0203J22010600005","2024-04-19T06:30:00",18.399,27.370392,0.195],
    [18182,"urn:WaterMeter:MC0203J22010600005","2024-04-19T06:45:00",18.399,27.370003,0.212],
    [18183,"urn:WaterMeter:MC0203J22010600005","2024-04-19T07:00:00",18.299,27.37462,0.19],
    [18184,"urn:WaterMeter:MC0203J22010600005","2024-04-19T07:15:00",18.299,27.346302,0.194],
    [18185,"urn:WaterMeter:MC0203J22010600005","2024-04-19T07:30:00",18.299,27.314882,0.198],
    [18186,"urn:WaterMeter:MC0203J22010600005","2024-04-19T07:45:00",18.299,27.384317,0.204],
    [18187,"urn:WaterMeter:MC0203J22010600005","2024-04-19T08:00:00",18.299,27.482456,0.199],
    [18188,"urn:WaterMeter:MC0203J22010600005","2024-04-19T08:15:00",18.299,28.533703,0.215],
    [18189,"urn:WaterMeter:MC0203J22010600005","2024-04-19T08:30:00",18.299,29.599264,0.23],
    [18190,"urn:WaterMeter:MC0203J22010600005","2024-04-19T08:45:00",18.299,30.249386,0.254],
    [18191,"urn:WaterMeter:MC0203J22010600005","2024-04-19T09:00:00",18.299,30.593025,0.236],
    [18192,"urn:WaterMeter:MC0203J22010600005","2024-04-19T09:15:00",18.299,30.711336,0.242],
    [18193,"urn:WaterMeter:MC0203J22010600005","2024-04-19T09:30:00",18.299,30.61789,0.25],
    [18194,"urn:WaterMeter:MC0203J22010600005","2024-04-19T09:45:00",18.2,30.615952,0.231],
    [18195,"urn:WaterMeter:MC0203J22010600005","2024-04-19T10:00:00",18.2,30.59772,0.254],
    [18196,"urn:WaterMeter:MC0203J22010600005","2024-04-19T10:15:00",18.2,30.539534,0.235],
    [18197,"urn:WaterMeter:MC0203J22010600005","2024-04-19T10:30:00",18.1,30.546865,0.234],
    [18198,"urn:WaterMeter:MC0203J22010600005","2024-04-19T10:45:00",18.2,30.494886,0.254],
    [18199,"urn:WaterMeter:MC0203J22010600005","2024-04-19T11:00:00",18.1,30.502684,0.244],
    [18200,"urn:WaterMeter:MC0203J22010600005","2024-04-19T11:15:00",18.1,30.531776,0.239],
    [18201,"urn:WaterMeter:MC0203J22010600005","2024-04-19T11:30:00",18.1,30.436703,0.236],
    [18202,"urn:WaterMeter:MC0203J22010600005","2024-04-19T11:45:00",18.2,30.458426,0.241],
    [18203,"urn:WaterMeter:MC0203J22010600005","2024-04-19T12:00:00",18.2,30.41657,0.231],
    [18204,"urn:WaterMeter:MC0203J22010600005","2024-04-19T12:15:00",18.2,30.444498,0.241],
    [18205,"urn:WaterMeter:MC0203J22010600005","2024-04-19T12:30:00",18.399,30.36145,0.264],
    [18206,"urn:WaterMeter:MC0203J22010600005","2024-04-19T12:45:00",18.5,30.317656,0.224],
    [18207,"urn:WaterMeter:MC0203J22010600005","2024-04-19T13:00:00",18.6,30.309122,0.248],
    [18208,"urn:WaterMeter:MC0203J22010600005","2024-04-19T13:15:00",18.6,30.311062,0.235],
    [18209,"urn:WaterMeter:MC0203J22010600005","2024-04-19T13:30:00",18.6,30.285849,0.224],
    [18210,"urn:WaterMeter:MC0203J22010600005","2024-04-19T13:45:00",18.6,30.26684,0.236],
    [18211,"urn:WaterMeter:MC0203J22010600005","2024-04-19T14:00:00",18.7,30.248997,0.227],
    [18212,"urn:WaterMeter:MC0203J22010600005","2024-04-19T14:15:00",18.799,30.226849,0.227],
    [18213,"urn:WaterMeter:MC0203J22010600005","2024-04-19T14:30:00",18.899,30.205126,0.223],
    [18214,"urn:WaterMeter:MC0203J22010600005","2024-04-19T14:45:00",19.1,30.185343,0.227],
    [18215,"urn:WaterMeter:MC0203J22010600005","2024-04-19T15:00:00",19.1,30.12487,0.225],
    [18216,"urn:WaterMeter:MC0203J22010600005","2024-04-19T15:15:00",19.2,30.092674,0.227],
    [18217,"urn:WaterMeter:MC0203J22010600005","2024-04-19T15:30:00",19.299,30.083364,0.226],
    [18218,"urn:WaterMeter:MC0203J22010600005","2024-04-19T15:45:00",19.299,30.051517,0.221],
    [18219,"urn:WaterMeter:MC0203J22010600005","2024-04-19T16:00:00",19.399,30.054272,0.241],
    [18220,"urn:WaterMeter:MC0203J22010600005","2024-04-19T16:15:00",19.399,30.025179,0.229],
    [18221,"urn:WaterMeter:MC0203J22010600005","2024-04-19T16:30:00",19.399,30.011564,0.241],
    [18222,"urn:WaterMeter:MC0203J22010600005","2024-04-19T16:45:00",19.299,29.94372,0.238],
    [18223,"urn:WaterMeter:MC0203J22010600005","2024-04-19T17:00:00",19.299,29.946823,0.223],
    [18224,"urn:WaterMeter:MC0203J22010600005","2024-04-19T17:15:00",19.299,29.938677,0.227],
    [18225,"urn:WaterMeter:MC0203J22010600005","2024-04-19T17:30:00",19.2,29.945232,0.235],
    [18226,"urn:WaterMeter:MC0203J22010600005","2024-04-19T17:45:00",19.1,29.935148,0.232],
    [18227,"urn:WaterMeter:MC0203J22010600005","2024-04-19T18:00:00",19,29.882044,0.25],
    [18228,"urn:WaterMeter:MC0203J22010600005","2024-04-19T18:15:00",18.799,29.87735,0.24],
    [18229,"urn:WaterMeter:MC0203J22010600005","2024-04-19T18:30:00",18.7,29.889414,0.227],
    [18230,"urn:WaterMeter:MC0203J22010600005","2024-04-19T18:45:00",18.6,29.8995,0.23],
    [18231,"urn:WaterMeter:MC0203J22010600005","2024-04-19T19:00:00",18.5,29.8995,0.218],
    [18232,"urn:WaterMeter:MC0203J22010600005","2024-04-19T19:15:00",18.399,29.87541,0.243],
    [18233,"urn:WaterMeter:MC0203J22010600005","2024-04-19T19:30:00",18.299,29.89911,0.231],
    [18234,"urn:WaterMeter:MC0203J22010600005","2024-04-19T19:45:00",18.1,29.90493,0.216],
    [18235,"urn:WaterMeter:MC0203J22010600005","2024-04-19T20:00:00",18,29.8642,0.22],
    [18236,"urn:WaterMeter:MC0203J22010600005","2024-04-19T20:15:00",18,29.836233,0.227],
    [18237,"urn:WaterMeter:MC0203J22010600005","2024-04-19T20:30:00",17.899,29.858343,0.222],
    [18238,"urn:WaterMeter:MC0203J22010600005","2024-04-19T20:45:00",17.799,29.898724,0.228],
    [18239,"urn:WaterMeter:MC0203J22010600005","2024-04-19T21:00:00",17.7,29.840538,0.242],
    [18240,"urn:WaterMeter:MC0203J22010600005","2024-04-19T21:15:00",17.6,29.887863,0.22],
    [18241,"urn:WaterMeter:MC0203J22010600005","2024-04-19T21:30:00",17.5,29.860321,0.236],
    [18242,"urn:WaterMeter:MC0203J22010600005","2024-04-19T21:45:00",17.399,29.84403,0.224],
    [18243,"urn:WaterMeter:MC0203J22010600005","2024-04-19T22:00:00",17.299,29.850237,0.219],
    [18244,"urn:WaterMeter:MC0203J22010600005","2024-04-19T22:15:00",17.2,29.86649,0.221],
    [18245,"urn:WaterMeter:MC0203J22010600005","2024-04-19T22:30:00",17.1,29.889027,0.227],
    [18246,"urn:WaterMeter:MC0203J22010600005","2024-04-19T22:45:00",17,29.846745,0.221],
    [18247,"urn:WaterMeter:MC0203J22010600005","2024-04-19T23:00:00",16.899,29.835108,0.253],
    [18248,"urn:WaterMeter:MC0203J22010600005","2024-04-19T23:15:00",16.799,29.848646,0.225],
    [18249,"urn:WaterMeter:MC0203J22010600005","2024-04-19T23:30:00",16.6,29.84597,0.223],
    [18250,"urn:WaterMeter:MC0203J22010600005","2024-04-19T23:45:00",16.5,29.867653,0.235],
    [18251,"urn:WaterMeter:MC0203J22010600005","2024-04-20T00:00:00",16.399,29.83278,0.223],
    [18252,"urn:WaterMeter:MC0203J22010600005","2024-04-20T00:15:00",16.299,29.85877,0.224],
    [18253,"urn:WaterMeter:MC0203J22010600005","2024-04-20T00:30:00",16.2,29.863424,0.221],
    [18254,"urn:WaterMeter:MC0203J22010600005","2024-04-20T00:45:00",16.1,29.856403,0.23],
    [18255,"urn:WaterMeter:MC0203J22010600005","2024-04-20T01:00:00",15.899,29.885147,0.228],
    [18256,"urn:WaterMeter:MC0203J22010600005","2024-04-20T01:15:00",15.8,29.869244,0.229],
    [18257,"urn:WaterMeter:MC0203J22010600005","2024-04-20T01:30:00",15.699,29.855627,0.222],
    [18258,"urn:WaterMeter:MC0203J22010600005","2024-04-20T01:45:00",15.699,29.881657,0.226],
    [18259,"urn:WaterMeter:MC0203J22010600005","2024-04-20T02:00:00",15.6,29.852564,0.227],
    [18260,"urn:WaterMeter:MC0203J22010600005","2024-04-20T02:15:00",15.6,29.882431,0.226],
    [18261,"urn:WaterMeter:MC0203J22010600005","2024-04-20T02:30:00",15.5,29.886272,0.227],
    [18262,"urn:WaterMeter:MC0203J22010600005","2024-04-20T02:45:00",15.5,29.829678,0.23],
    [18263,"urn:WaterMeter:MC0203J22010600005","2024-04-20T03:00:00",15.399,29.84209,0.222],
    [18264,"urn:WaterMeter:MC0203J22010600005","2024-04-20T03:15:00",15.399,29.84787,0.226],
    [18265,"urn:WaterMeter:MC0203J22010600005","2024-04-20T03:30:00",15.3,29.84946,0.214],
    [18266,"urn:WaterMeter:MC0203J22010600005","2024-04-20T03:45:00",15.3,29.809467,0.217],
    [18267,"urn:WaterMeter:MC0203J22010600005","2024-04-20T04:00:00",15.199,29.820755,0.224],
    [18268,"urn:WaterMeter:MC0203J22010600005","2024-04-20T04:15:00",15.1,29.84015,0.22],
    [18269,"urn:WaterMeter:MC0203J22010600005","2024-04-20T04:30:00",15,29.831617,0.217],
    [18270,"urn:WaterMeter:MC0203J22010600005","2024-04-20T04:45:00",15,29.842867,0.221],
    [18271,"urn:WaterMeter:MC0203J22010600005","2024-04-20T05:00:00",14.899,29.832394,0.22],
    [18272,"urn:WaterMeter:MC0203J22010600005","2024-04-20T05:15:00",14.8,29.86265,0.232],
    [18273,"urn:WaterMeter:MC0203J22010600005","2024-04-20T05:30:00",14.8,29.86226,0.224],
    [18274,"urn:WaterMeter:MC0203J22010600005","2024-04-20T05:45:00",14.699,29.844418,0.227],
    [18275,"urn:WaterMeter:MC0203J22010600005","2024-04-20T06:00:00",14.699,29.831617,0.22],
    [18276,"urn:WaterMeter:MC0203J22010600005","2024-04-20T06:15:00",14.699,29.848646,0.231],
    [18277,"urn:WaterMeter:MC0203J22010600005","2024-04-20T06:30:00",14.699,29.816063,0.22],
    [18278,"urn:WaterMeter:MC0203J22010600005","2024-04-20T06:45:00",14.8,29.8033,0.227],
    [18279,"urn:WaterMeter:MC0203J22010600005","2024-04-20T07:00:00",14.8,29.83662,0.219],
    [18280,"urn:WaterMeter:MC0203J22010600005","2024-04-20T07:15:00",14.8,29.820368,0.231],
    [18281,"urn:WaterMeter:MC0203J22010600005","2024-04-20T07:30:00",14.899,29.804075,0.224],
    [18282,"urn:WaterMeter:MC0203J22010600005","2024-04-20T07:45:00",15.1,29.764511,0.213],
    [18283,"urn:WaterMeter:MC0203J22010600005","2024-04-20T08:00:00",15.3,29.744339,0.22],
    [18284,"urn:WaterMeter:MC0203J22010600005","2024-04-20T08:15:00",15.399,29.774595,0.217],
    [18285,"urn:WaterMeter:MC0203J22010600005","2024-04-20T08:30:00",15.6,29.730375,0.215],
    [18286,"urn:WaterMeter:MC0203J22010600005","2024-04-20T08:45:00",15.8,29.685766,0.213],
    [18287,"urn:WaterMeter:MC0203J22010600005","2024-04-20T09:00:00",16.1,29.6559,0.211],
    [18288,"urn:WaterMeter:MC0203J22010600005","2024-04-20T09:15:00",16.299,29.575953,0.217],
    [18289,"urn:WaterMeter:MC0203J22010600005","2024-04-20T09:30:00",16.6,29.617884,0.214],
    [18290,"urn:WaterMeter:MC0203J22010600005","2024-04-20T09:45:00",16.799,29.550001,0.212],
    [18291,"urn:WaterMeter:MC0203J22010600005","2024-04-20T10:00:00",17,29.525137,0.212],
    [18292,"urn:WaterMeter:MC0203J22010600005","2024-04-20T10:15:00",17.2,29.491817,0.219],
    [18293,"urn:WaterMeter:MC0203J22010600005","2024-04-20T10:30:00",17.399,29.464664,0.221],
    [18294,"urn:WaterMeter:MC0203J22010600005","2024-04-20T10:45:00",17.6,29.45066,0.22],
    [18295,"urn:WaterMeter:MC0203J22010600005","2024-04-20T11:00:00",17.799,29.396782,0.207],
    [18296,"urn:WaterMeter:MC0203J22010600005","2024-04-20T11:15:00",17.899,29.354887,0.21],
    [18297,"urn:WaterMeter:MC0203J22010600005","2024-04-20T11:30:00",18.1,29.30989,0.225],
    [18298,"urn:WaterMeter:MC0203J22010600005","2024-04-20T11:45:00",18.299,29.295113,0.209],
    [18299,"urn:WaterMeter:MC0203J22010600005","2024-04-20T12:00:00",18.5,29.220287,0.214],
    [18300,"urn:WaterMeter:MC0203J22010600005","2024-04-20T12:15:00",18.7,29.228006,0.214],
    [18301,"urn:WaterMeter:MC0203J22010600005","2024-04-20T12:30:00",18.899,29.171799,0.213],
    [18302,"urn:WaterMeter:MC0203J22010600005","2024-04-20T12:45:00",19.1,29.126415,0.224],
    [18303,"urn:WaterMeter:MC0203J22010600005","2024-04-20T13:00:00",19.299,29.096159,0.207],
    [18304,"urn:WaterMeter:MC0203J22010600005","2024-04-20T13:15:00",19.299,29.069393,0.224],
    [18305,"urn:WaterMeter:MC0203J22010600005","2024-04-20T13:30:00",19.399,28.97785,0.2],
    [18306,"urn:WaterMeter:MC0203J22010600005","2024-04-20T13:45:00",19.5,28.965786,0.203],
    [18307,"urn:WaterMeter:MC0203J22010600005","2024-04-20T14:00:00",19.6,28.907988,0.215],
    [18308,"urn:WaterMeter:MC0203J22010600005","2024-04-20T14:15:00",19.6,28.923155,0.204],
    [18309,"urn:WaterMeter:MC0203J22010600005","2024-04-20T14:30:00",19.6,28.855661,0.209],
    [18310,"urn:WaterMeter:MC0203J22010600005","2024-04-20T14:45:00",19.7,28.825405,0.215],
    [18311,"urn:WaterMeter:MC0203J22010600005","2024-04-20T15:00:00",19.6,28.789291,0.21],
    [18312,"urn:WaterMeter:MC0203J22010600005","2024-04-20T15:15:00",19.6,28.782347,0.217],
    [18313,"urn:WaterMeter:MC0203J22010600005","2024-04-20T15:30:00",19.5,28.757133,0.217],
    [18314,"urn:WaterMeter:MC0203J22010600005","2024-04-20T15:45:00",19.399,28.725714,0.213],
    [18315,"urn:WaterMeter:MC0203J22010600005","2024-04-20T16:00:00",19.299,28.729593,0.208],
    [18316,"urn:WaterMeter:MC0203J22010600005","2024-04-20T16:15:00",19.2,28.736963,0.198],
    [18317,"urn:WaterMeter:MC0203J22010600005","2024-04-20T16:30:00",19.2,28.683393,0.213],
    [18318,"urn:WaterMeter:MC0203J22010600005","2024-04-20T16:45:00",19.1,28.673697,0.214],
    [18319,"urn:WaterMeter:MC0203J22010600005","2024-04-20T17:00:00",19,28.653526,0.202],
    [18320,"urn:WaterMeter:MC0203J22010600005","2024-04-20T17:15:00",18.899,28.596117,0.21],
    [18321,"urn:WaterMeter:MC0203J22010600005","2024-04-20T17:30:00",18.799,28.604301,0.198],
    [18322,"urn:WaterMeter:MC0203J22010600005","2024-04-20T17:45:00",18.7,28.641928,0.213],
    [18323,"urn:WaterMeter:MC0203J22010600005","2024-04-20T18:00:00",18.6,28.607367,0.199],
    [18324,"urn:WaterMeter:MC0203J22010600005","2024-04-20T18:15:00",18.5,28.59728,0.207],
    [18325,"urn:WaterMeter:MC0203J22010600005","2024-04-20T18:30:00",18.399,28.600035,0.206],
    [18326,"urn:WaterMeter:MC0203J22010600005","2024-04-20T18:45:00",18.299,28.545341,0.211],
    [18327,"urn:WaterMeter:MC0203J22010600005","2024-04-20T19:00:00",18.1,28.535992,0.207],
    [18328,"urn:WaterMeter:MC0203J22010600005","2024-04-20T19:15:00",18,28.612059,0.209],
    [18329,"urn:WaterMeter:MC0203J22010600005","2024-04-20T19:30:00",17.899,28.564735,0.209],
    [18330,"urn:WaterMeter:MC0203J22010600005","2024-04-20T19:45:00",17.799,28.567024,0.206],
    [18331,"urn:WaterMeter:MC0203J22010600005","2024-04-20T20:00:00",17.7,28.572105,0.2],
    [18332,"urn:WaterMeter:MC0203J22010600005","2024-04-20T20:15:00",17.7,28.545341,0.207],
    [18333,"urn:WaterMeter:MC0203J22010600005","2024-04-20T20:30:00",17.6,28.557327,0.203],
    [18334,"urn:WaterMeter:MC0203J22010600005","2024-04-20T20:45:00",17.5,28.574045,0.209],
    [18335,"urn:WaterMeter:MC0203J22010600005","2024-04-20T21:00:00",17.399,28.556938,0.202],
    [18336,"urn:WaterMeter:MC0203J22010600005","2024-04-20T21:15:00",17.299,28.560081,0.212],
    [18337,"urn:WaterMeter:MC0203J22010600005","2024-04-20T21:30:00",17.2,28.550772,0.203],
    [18338,"urn:WaterMeter:MC0203J22010600005","2024-04-20T21:45:00",17.1,28.555775,0.21],
    [18339,"urn:WaterMeter:MC0203J22010600005","2024-04-20T22:00:00",17,28.56202,0.214],
    [18340,"urn:WaterMeter:MC0203J22010600005","2024-04-20T22:15:00",16.799,28.506939,0.2],
    [18341,"urn:WaterMeter:MC0203J22010600005","2024-04-20T22:30:00",16.7,28.543402,0.199],
    [18342,"urn:WaterMeter:MC0203J22010600005","2024-04-20T22:45:00",16.6,28.533703,0.202],
    [18343,"urn:WaterMeter:MC0203J22010600005","2024-04-20T23:00:00",16.5,28.535992,0.214],
    [18344,"urn:WaterMeter:MC0203J22010600005","2024-04-20T23:15:00",16.399,28.564348,0.209],
    [18345,"urn:WaterMeter:MC0203J22010600005","2024-04-20T23:30:00",16.299,28.50849,0.206],
    [18346,"urn:WaterMeter:MC0203J22010600005","2024-04-20T23:45:00",16.1,28.567411,0.211],
    [18347,"urn:WaterMeter:MC0203J22010600005","2024-04-21T00:00:00",16,28.511206,0.201],
    [18348,"urn:WaterMeter:MC0203J22010600005","2024-04-21T00:15:00",15.899,28.52323,0.204],
    [18349,"urn:WaterMeter:MC0203J22010600005","2024-04-21T00:30:00",15.8,28.536768,0.208],
    [18350,"urn:WaterMeter:MC0203J22010600005","2024-04-21T00:45:00",15.699,28.527885,0.206],
    [18351,"urn:WaterMeter:MC0203J22010600005","2024-04-21T01:00:00",15.5,28.551935,0.209],
    [18352,"urn:WaterMeter:MC0203J22010600005","2024-04-21T01:15:00",15.399,28.54728,0.206],
    [18353,"urn:WaterMeter:MC0203J22010600005","2024-04-21T01:30:00",15.3,28.535643,0.21],
    [18354,"urn:WaterMeter:MC0203J22010600005","2024-04-21T01:45:00",15.199,28.568575,0.204],
    [18355,"urn:WaterMeter:MC0203J22010600005","2024-04-21T02:00:00",15.1,28.564348,0.208],
    [18356,"urn:WaterMeter:MC0203J22010600005","2024-04-21T02:15:00",14.899,28.564348,0.201],
    [18357,"urn:WaterMeter:MC0203J22010600005","2024-04-21T02:30:00",14.8,28.580639,0.203],
    [18358,"urn:WaterMeter:MC0203J22010600005","2024-04-21T02:45:00",14.699,28.537544,0.211],
    [18359,"urn:WaterMeter:MC0203J22010600005","2024-04-21T03:00:00",14.6,28.55465,0.205],
    [18360,"urn:WaterMeter:MC0203J22010600005","2024-04-21T03:15:00",14.5,28.561632,0.206],
    [18361,"urn:WaterMeter:MC0203J22010600005","2024-04-21T03:30:00",14.5,28.56396,0.202],
    [18362,"urn:WaterMeter:MC0203J22010600005","2024-04-21T03:45:00",14.399,28.57711,0.197],
    [18363,"urn:WaterMeter:MC0203J22010600005","2024-04-21T04:00:00",14.3,28.594564,0.2],
    [18364,"urn:WaterMeter:MC0203J22010600005","2024-04-21T04:15:00",14.199,28.524393,0.207],
    [18365,"urn:WaterMeter:MC0203J22010600005","2024-04-21T04:30:00",14.199,28.579088,0.21],
    [18366,"urn:WaterMeter:MC0203J22010600005","2024-04-21T04:45:00",14.199,28.553486,0.198],
    [18367,"urn:WaterMeter:MC0203J22010600005","2024-04-21T05:00:00",14.1,28.517372,0.192],
    [18368,"urn:WaterMeter:MC0203J22010600005","2024-04-21T05:15:00",14.1,28.564735,0.202],
    [18369,"urn:WaterMeter:MC0203J22010600005","2024-04-21T05:30:00",14.1,28.560081,0.195],
    [18370,"urn:WaterMeter:MC0203J22010600005","2024-04-21T05:45:00",14.1,28.56202,0.206],
    [18371,"urn:WaterMeter:MC0203J22010600005","2024-04-21T06:00:00",14.1,28.505386,0.21],
    [18372,"urn:WaterMeter:MC0203J22010600005","2024-04-21T06:15:00",14.1,28.518538,0.203],
    [18373,"urn:WaterMeter:MC0203J22010600005","2024-04-21T06:30:00",14.1,28.5306,0.207],
    [18374,"urn:WaterMeter:MC0203J22010600005","2024-04-21T06:45:00",14.1,28.539095,0.196],
    [18375,"urn:WaterMeter:MC0203J22010600005","2024-04-21T07:00:00",14.1,28.497202,0.201],
    [18376,"urn:WaterMeter:MC0203J22010600005","2024-04-21T07:15:00",14.199,28.496077,0.202],
    [18377,"urn:WaterMeter:MC0203J22010600005","2024-04-21T07:30:00",14.399,28.504612,0.198],
    [18378,"urn:WaterMeter:MC0203J22010600005","2024-04-21T07:45:00",14.6,28.447203,0.197],
    [18379,"urn:WaterMeter:MC0203J22010600005","2024-04-21T08:00:00",14.8,28.42897,0.208],
    [18380,"urn:WaterMeter:MC0203J22010600005","2024-04-21T08:15:00",15.1,28.395224,0.205],
    [18381,"urn:WaterMeter:MC0203J22010600005","2024-04-21T08:30:00",15.3,28.437893,0.194],
    [18382,"urn:WaterMeter:MC0203J22010600005","2024-04-21T08:45:00",15.6,28.351778,0.205],
    [18383,"urn:WaterMeter:MC0203J22010600005","2024-04-21T09:00:00",15.8,28.361826,0.194],
    [18384,"urn:WaterMeter:MC0203J22010600005","2024-04-21T09:15:00",16.1,28.318808,0.192],
    [18385,"urn:WaterMeter:MC0203J22010600005","2024-04-21T09:30:00",16.299,28.274199,0.201],
    [18386,"urn:WaterMeter:MC0203J22010600005","2024-04-21T09:45:00",16.5,28.232693,0.201],
    [18387,"urn:WaterMeter:MC0203J22010600005","2024-04-21T10:00:00",16.7,28.221056,0.191],
    [18388,"urn:WaterMeter:MC0203J22010600005","2024-04-21T10:15:00",17,28.160892,0.196],
    [18389,"urn:WaterMeter:MC0203J22010600005","2024-04-21T10:30:00",17.1,28.151583,0.194],
    [18390,"urn:WaterMeter:MC0203J22010600005","2024-04-21T10:45:00",17.2,28.092623,0.191],
    [18391,"urn:WaterMeter:MC0203J22010600005","2024-04-21T11:00:00",17.399,28.062754,0.192],
    [18392,"urn:WaterMeter:MC0203J22010600005","2024-04-21T11:15:00",17.7,28.041458,0.194],
    [18393,"urn:WaterMeter:MC0203J22010600005","2024-04-21T11:30:00",17.899,28.017408,0.189],
    [18394,"urn:WaterMeter:MC0203J22010600005","2024-04-21T11:45:00",18.1,27.952242,0.19],
    [18395,"urn:WaterMeter:MC0203J22010600005","2024-04-21T12:00:00",18.1,27.945646,0.208],
    [18396,"urn:WaterMeter:MC0203J22010600005","2024-04-21T12:15:00",18.1,27.881256,0.189],
    [18397,"urn:WaterMeter:MC0203J22010600005","2024-04-21T12:30:00",18.2,27.898672,0.194],
    [18398,"urn:WaterMeter:MC0203J22010600005","2024-04-21T12:45:00",18.299,27.821869,0.191],
    [18399,"urn:WaterMeter:MC0203J22010600005","2024-04-21T13:00:00",18.5,27.772217,0.19],
    [18400,"urn:WaterMeter:MC0203J22010600005","2024-04-21T13:15:00",18.7,27.730751,0.187],
    [18401,"urn:WaterMeter:MC0203J22010600005","2024-04-21T13:30:00",18.799,27.738121,0.208],
    [18402,"urn:WaterMeter:MC0203J22010600005","2024-04-21T13:45:00",18.899,27.667135,0.197],
    [18403,"urn:WaterMeter:MC0203J22010600005","2024-04-21T14:00:00",19,27.669462,0.183],
    [18404,"urn:WaterMeter:MC0203J22010600005","2024-04-21T14:15:00",19.1,27.588352,0.191],
    [18405,"urn:WaterMeter:MC0203J22010600005","2024-04-21T14:30:00",19.2,27.58141,0.192],
    [18406,"urn:WaterMeter:MC0203J22010600005","2024-04-21T14:45:00",19.299,27.488663,0.195],
    [18407,"urn:WaterMeter:MC0203J22010600005","2024-04-21T15:00:00",19.299,27.47978,0.193],
    [18408,"urn:WaterMeter:MC0203J22010600005","2024-04-21T15:15:00",19.399,27.406466,0.19],
    [18409,"urn:WaterMeter:MC0203J22010600005","2024-04-21T15:30:00",19.399,27.43358,0.184],
    [18410,"urn:WaterMeter:MC0203J22010600005","2024-04-21T15:45:00",19.399,27.380089,0.191],
    [18411,"urn:WaterMeter:MC0203J22010600005","2024-04-21T16:00:00",19.399,27.337809,0.208],
    [18412,"urn:WaterMeter:MC0203J22010600005","2024-04-21T16:15:00",19.5,27.299406,0.184],
    [18413,"urn:WaterMeter:MC0203J22010600005","2024-04-21T16:30:00",19.5,27.308716,0.195],
    [18414,"urn:WaterMeter:MC0203J22010600005","2024-04-21T16:45:00",19.399,27.259026,0.192],
    [18415,"urn:WaterMeter:MC0203J22010600005","2024-04-21T17:00:00",19.399,27.239243,0.188],
    [18416,"urn:WaterMeter:MC0203J22010600005","2024-04-21T17:15:00",19.399,27.22105,0.188],
    [18417,"urn:WaterMeter:MC0203J22010600005","2024-04-21T17:30:00",19.299,27.186527,0.183],
    [18418,"urn:WaterMeter:MC0203J22010600005","2024-04-21T17:45:00",19.299,27.169847,0.199],
    [18419,"urn:WaterMeter:MC0203J22010600005","2024-04-21T18:00:00",19.2,27.147738,0.185],
    [18420,"urn:WaterMeter:MC0203J22010600005","2024-04-21T18:15:00",19.1,27.102314,0.186],
    [18421,"urn:WaterMeter:MC0203J22010600005","2024-04-21T18:30:00",18.899,27.134935,0.187],
    [18422,"urn:WaterMeter:MC0203J22010600005","2024-04-21T18:45:00",18.799,27.114765,0.193],
    [18423,"urn:WaterMeter:MC0203J22010600005","2024-04-21T19:00:00",18.7,27.093004,0.206],
    [18424,"urn:WaterMeter:MC0203J22010600005","2024-04-21T19:15:00",18.6,27.085672,0.18],
    [18425,"urn:WaterMeter:MC0203J22010600005","2024-04-21T19:30:00",18.5,27.124462,0.181],
    [18426,"urn:WaterMeter:MC0203J22010600005","2024-04-21T19:45:00",18.399,27.08994,0.195],
    [18427,"urn:WaterMeter:MC0203J22010600005","2024-04-21T20:00:00",18.299,27.109335,0.194],
    [18428,"urn:WaterMeter:MC0203J22010600005","2024-04-21T20:15:00",18.1,27.06046,0.188],
    [18429,"urn:WaterMeter:MC0203J22010600005","2024-04-21T20:30:00",18.1,27.056969,0.199],
    [18430,"urn:WaterMeter:MC0203J22010600005","2024-04-21T20:45:00",18,27.025898,0.195],
    [18431,"urn:WaterMeter:MC0203J22010600005","2024-04-21T21:00:00",17.899,27.084082,0.195],
    [18432,"urn:WaterMeter:MC0203J22010600005","2024-04-21T21:15:00",17.799,27.067053,0.189],
    [18433,"urn:WaterMeter:MC0203J22010600005","2024-04-21T21:30:00",17.799,27.049599,0.19],
    [18434,"urn:WaterMeter:MC0203J22010600005","2024-04-21T21:45:00",17.7,27.049986,0.201],
    [18435,"urn:WaterMeter:MC0203J22010600005","2024-04-21T22:00:00",17.6,27.022057,0.193],
    [18436,"urn:WaterMeter:MC0203J22010600005","2024-04-21T22:15:00",17.5,27.007706,0.187],
    [18437,"urn:WaterMeter:MC0203J22010600005","2024-04-21T22:30:00",17.299,27.049599,0.194],
    [18438,"urn:WaterMeter:MC0203J22010600005","2024-04-21T22:45:00",17.2,27.0271,0.189],
    [18439,"urn:WaterMeter:MC0203J22010600005","2024-04-21T23:00:00",17.1,27.039125,0.182],
    [18440,"urn:WaterMeter:MC0203J22010600005","2024-04-21T23:15:00",17,27.056969,0.195],
    [18441,"urn:WaterMeter:MC0203J22010600005","2024-04-21T23:30:00",16.899,27.011972,0.186],
    [18442,"urn:WaterMeter:MC0203J22010600005","2024-04-21T23:45:00",16.799,27.034819,0.189],
    [18443,"urn:WaterMeter:MC0203J22010600005","2024-04-22T00:00:00",16.7,26.991413,0.186],
    [18444,"urn:WaterMeter:MC0203J22010600005","2024-04-22T00:15:00",16.6,27.013912,0.189],
    [18445,"urn:WaterMeter:MC0203J22010600005","2024-04-22T00:30:00",16.5,26.98478,0.181],
    [18446,"urn:WaterMeter:MC0203J22010600005","2024-04-22T00:45:00",16.399,27.01236,0.183],
    [18447,"urn:WaterMeter:MC0203J22010600005","2024-04-22T01:00:00",16.299,26.996805,0.184],
    [18448,"urn:WaterMeter:MC0203J22010600005","2024-04-22T01:15:00",16.1,27.03253,0.188],
    [18449,"urn:WaterMeter:MC0203J22010600005","2024-04-22T01:30:00",16,27.022057,0.188],
    [18450,"urn:WaterMeter:MC0203J22010600005","2024-04-22T01:45:00",16,27.006502,0.192],
    [18451,"urn:WaterMeter:MC0203J22010600005","2024-04-22T02:00:00",15.899,27.039513,0.195],
    [18452,"urn:WaterMeter:MC0203J22010600005","2024-04-22T02:15:00",15.8,27.004175,0.186],
    [18453,"urn:WaterMeter:MC0203J22010600005","2024-04-22T02:30:00",15.699,26.982492,0.191],
    [18454,"urn:WaterMeter:MC0203J22010600005","2024-04-22T02:45:00",15.6,26.991026,0.198],
    [18455,"urn:WaterMeter:MC0203J22010600005","2024-04-22T03:00:00",15.5,26.984043,0.187],
    [18456,"urn:WaterMeter:MC0203J22010600005","2024-04-22T03:15:00",15.399,27.024345,0.182],
    [18457,"urn:WaterMeter:MC0203J22010600005","2024-04-22T03:30:00",15.3,27.0015,0.181],
    [18458,"urn:WaterMeter:MC0203J22010600005","2024-04-22T03:45:00",15.199,26.994516,0.192],
    [18459,"urn:WaterMeter:MC0203J22010600005","2024-04-22T04:00:00",15,27.004175,0.193],
    [18460,"urn:WaterMeter:MC0203J22010600005","2024-04-22T04:15:00",14.899,27.0162,0.185],
    [18461,"urn:WaterMeter:MC0203J22010600005","2024-04-22T04:30:00",14.8,27.020119,0.188],
    [18462,"urn:WaterMeter:MC0203J22010600005","2024-04-22T04:45:00",14.8,27.024345,0.195],
    [18463,"urn:WaterMeter:MC0203J22010600005","2024-04-22T05:00:00",14.699,26.989862,0.198],
    [18464,"urn:WaterMeter:MC0203J22010600005","2024-04-22T05:15:00",14.6,27.017403,0.191],
    [18465,"urn:WaterMeter:MC0203J22010600005","2024-04-22T05:30:00",14.6,27.047659,0.191],
    [18466,"urn:WaterMeter:MC0203J22010600005","2024-04-22T05:45:00",14.5,26.996805,0.187],
    [18467,"urn:WaterMeter:MC0203J22010600005","2024-04-22T06:00:00",14.5,27.015812,0.189],
    [18468,"urn:WaterMeter:MC0203J22010600005","2024-04-22T06:15:00",14.5,27.034082,0.189],
    [18469,"urn:WaterMeter:MC0203J22010600005","2024-04-22T06:30:00",14.5,26.996418,0.189],
    [18470,"urn:WaterMeter:MC0203J22010600005","2024-04-22T06:45:00",14.6,26.989086,0.182],
    [18471,"urn:WaterMeter:MC0203J22010600005","2024-04-22T07:00:00",14.699,26.967325,0.19],
    [18472,"urn:WaterMeter:MC0203J22010600005","2024-04-22T07:15:00",14.899,26.98094,0.177],
    [18473,"urn:WaterMeter:MC0203J22010600005","2024-04-22T07:30:00",15.199,26.972406,0.178],
    [18474,"urn:WaterMeter:MC0203J22010600005","2024-04-22T07:45:00",15.399,26.967325,0.185],
    [18475,"urn:WaterMeter:MC0203J22010600005","2024-04-22T08:00:00",15.699,26.91461,0.178],
    [18476,"urn:WaterMeter:MC0203J22010600005","2024-04-22T08:15:00",15.899,27.443277,0.198],
    [18477,"urn:WaterMeter:MC0203J22010600005","2024-04-22T08:30:00",16.1,28.724163,0.214],
    [18478,"urn:WaterMeter:MC0203J22010600005","2024-04-22T08:45:00",16.299,29.699343,0.22],
    [18479,"urn:WaterMeter:MC0203J22010600005","2024-04-22T09:00:00",16.5,30.395624,0.227],
    [18480,"urn:WaterMeter:MC0203J22010600005","2024-04-22T09:15:00",16.6,30.552723,0.235],
    [18481,"urn:WaterMeter:MC0203J22010600005","2024-04-22T09:30:00",16.799,30.566261,0.236],
    [18482,"urn:WaterMeter:MC0203J22010600005","2024-04-22T09:45:00",17,30.58298,0.22],
    [18483,"urn:WaterMeter:MC0203J22010600005","2024-04-22T10:00:00",17.2,30.589573,0.243],
    [18484,"urn:WaterMeter:MC0203J22010600005","2024-04-22T10:15:00",17.399,30.518976,0.232],
    [18485,"urn:WaterMeter:MC0203J22010600005","2024-04-22T10:30:00",17.6,30.527897,0.222],
    [18486,"urn:WaterMeter:MC0203J22010600005","2024-04-22T10:45:00",17.799,30.491434,0.249],
    [18487,"urn:WaterMeter:MC0203J22010600005","2024-04-22T11:00:00",18,30.458426,0.222],
    [18488,"urn:WaterMeter:MC0203J22010600005","2024-04-22T11:15:00",18.2,30.45726,0.243],
    [18489,"urn:WaterMeter:MC0203J22010600005","2024-04-22T11:30:00",18.399,30.415018,0.221],
    [18490,"urn:WaterMeter:MC0203J22010600005","2024-04-22T11:45:00",18.5,30.358385,0.236],
    [18491,"urn:WaterMeter:MC0203J22010600005","2024-04-22T12:00:00",18.6,30.324638,0.225],
    [18492,"urn:WaterMeter:MC0203J22010600005","2024-04-22T12:15:00",18.7,30.319983,0.231],
    [18493,"urn:WaterMeter:MC0203J22010600005","2024-04-22T12:30:00",18.899,30.296322,0.214],
    [18494,"urn:WaterMeter:MC0203J22010600005","2024-04-22T12:45:00",19.1,30.293179,0.22],
    [18495,"urn:WaterMeter:MC0203J22010600005","2024-04-22T13:00:00",19.2,30.224909,0.228],
    [18496,"urn:WaterMeter:MC0203J22010600005","2024-04-22T13:15:00",19.299,30.188873,0.226],
    [18497,"urn:WaterMeter:MC0203J22010600005","2024-04-22T13:30:00",19.399,30.169477,0.227],
    [18498,"urn:WaterMeter:MC0203J22010600005","2024-04-22T13:45:00",19.5,30.123705,0.217],
    [18499,"urn:WaterMeter:MC0203J22010600005","2024-04-22T14:00:00",19.7,30.096165,0.222],
    [18500,"urn:WaterMeter:MC0203J22010600005","2024-04-22T14:15:00",19.799,30.072891,0.227],
    [18501,"urn:WaterMeter:MC0203J22010600005","2024-04-22T14:30:00",19.899,30.041431,0.219],
    [18502,"urn:WaterMeter:MC0203J22010600005","2024-04-22T14:45:00",19.899,29.984022,0.225],
    [18503,"urn:WaterMeter:MC0203J22010600005","2024-04-22T15:00:00",19.799,30.022814,0.223],
    [18504,"urn:WaterMeter:MC0203J22010600005","2024-04-22T15:15:00",19.7,29.973549,0.22],
    [18505,"urn:WaterMeter:MC0203J22010600005","2024-04-22T15:30:00",19.6,29.959623,0.215],
    [18506,"urn:WaterMeter:MC0203J22010600005","2024-04-22T15:45:00",19.6,29.939066,0.223],
    [18507,"urn:WaterMeter:MC0203J22010600005","2024-04-22T16:00:00",19.5,29.944845,0.225],
    [18508,"urn:WaterMeter:MC0203J22010600005","2024-04-22T16:15:00",19.2,29.960012,0.226],
    [18509,"urn:WaterMeter:MC0203J22010600005","2024-04-22T16:30:00",18.899,29.908033,0.219],
    [18510,"urn:WaterMeter:MC0203J22010600005","2024-04-22T16:45:00",18.6,29.937126,0.231],
    [18511,"urn:WaterMeter:MC0203J22010600005","2024-04-22T17:00:00",18.399,29.94721,0.233],
    [18512,"urn:WaterMeter:MC0203J22010600005","2024-04-22T17:15:00",18.299,29.938677,0.232],
    [18513,"urn:WaterMeter:MC0203J22010600005","2024-04-22T17:30:00",18.1,29.91967,0.23],
    [18514,"urn:WaterMeter:MC0203J22010600005","2024-04-22T17:45:00",18.1,29.959236,0.222],
    [18515,"urn:WaterMeter:MC0203J22010600005","2024-04-22T18:00:00",18,29.920446,0.216],
    [18516,"urn:WaterMeter:MC0203J22010600005","2024-04-22T18:15:00",17.899,29.938677,0.222],
    [18517,"urn:WaterMeter:MC0203J22010600005","2024-04-22T18:30:00",17.7,29.971611,0.22],
    [18518,"urn:WaterMeter:MC0203J22010600005","2024-04-22T18:45:00",17.7,29.968546,0.22],
    [18519,"urn:WaterMeter:MC0203J22010600005","2024-04-22T19:00:00",17.6,29.93984,0.224],
    [18520,"urn:WaterMeter:MC0203J22010600005","2024-04-22T19:15:00",17.5,29.952215,0.223],
    [18521,"urn:WaterMeter:MC0203J22010600005","2024-04-22T19:30:00",17.5,29.906832,0.224],
    [18522,"urn:WaterMeter:MC0203J22010600005","2024-04-22T19:45:00",17.399,29.909197,0.233],
    [18523,"urn:WaterMeter:MC0203J22010600005","2024-04-22T20:00:00",17.399,29.931307,0.221],
    [18524,"urn:WaterMeter:MC0203J22010600005","2024-04-22T20:15:00",17.299,29.93092,0.217],
    [18525,"urn:WaterMeter:MC0203J22010600005","2024-04-22T20:30:00",17.2,29.926226,0.229],
    [18526,"urn:WaterMeter:MC0203J22010600005","2024-04-22T20:45:00",16.899,29.88282,0.225],
    [18527,"urn:WaterMeter:MC0203J22010600005","2024-04-22T21:00:00",16.7,30.364592,0.27],
    [18528,"urn:WaterMeter:MC0203J22010600005","2024-04-22T21:15:00",15.899,42.59663,0.347],
    [18529,"urn:WaterMeter:MC0203J22010600005","2024-04-22T21:30:00",16.1,42.69826,0.323],
    [18530,"urn:WaterMeter:MC0203J22010600005","2024-04-22T21:45:00",16.1,42.7964,0.308],
    [18531,"urn:WaterMeter:MC0203J22010600005","2024-04-22T22:00:00",16.1,43.017464,0.301],
    [18532,"urn:WaterMeter:MC0203J22010600005","2024-04-22T22:15:00",16,42.813816,0.293],
    [18533,"urn:WaterMeter:MC0203J22010600005","2024-04-22T22:30:00",16,42.752914,0.262],
    [18534,"urn:WaterMeter:MC0203J22010600005","2024-04-22T22:45:00",15.899,42.22502,0.27],
    [18535,"urn:WaterMeter:MC0203J22010600005","2024-04-22T23:00:00",16,41.057056,0.256],
    [18536,"urn:WaterMeter:MC0203J22010600005","2024-04-22T23:15:00",16,39.442226,0.254],
    [18537,"urn:WaterMeter:MC0203J22010600005","2024-04-22T23:30:00",16,38.77733,0.243],
    [18538,"urn:WaterMeter:MC0203J22010600005","2024-04-22T23:45:00",16,37.02402,0.248],
    [18539,"urn:WaterMeter:MC0203J22010600005","2024-04-23T00:00:00",16,36.424755,0.233],
    [18540,"urn:WaterMeter:MC0203J22010600005","2024-04-23T00:15:00",16,36.008926,0.231],
    [18541,"urn:WaterMeter:MC0203J22010600005","2024-04-23T00:30:00",15.899,35.652058,0.226],
    [18542,"urn:WaterMeter:MC0203J22010600005","2024-04-23T00:45:00",15.899,35.384365,0.231],
    [18543,"urn:WaterMeter:MC0203J22010600005","2024-04-23T01:00:00",15.899,34.749023,0.222],
    [18544,"urn:WaterMeter:MC0203J22010600005","2024-04-23T01:15:00",15.899,34.548832,0.221],
    [18545,"urn:WaterMeter:MC0203J22010600005","2024-04-23T01:30:00",15.899,34.413067,0.223],
    [18546,"urn:WaterMeter:MC0203J22010600005","2024-04-23T01:45:00",15.899,34.262985,0.226],
    [18547,"urn:WaterMeter:MC0203J22010600005","2024-04-23T02:00:00",15.8,34.19235,0.23],
    [18548,"urn:WaterMeter:MC0203J22010600005","2024-04-23T02:15:00",15.699,34.052746,0.219],
    [18549,"urn:WaterMeter:MC0203J22010600005","2024-04-23T02:30:00",15.6,33.951115,0.225],
    [18550,"urn:WaterMeter:MC0203J22010600005","2024-04-23T02:45:00",15.5,33.897583,0.218],
    [18551,"urn:WaterMeter:MC0203J22010600005","2024-04-23T03:00:00",15.5,33.77074,0.218],
    [18552,"urn:WaterMeter:MC0203J22010600005","2024-04-23T03:15:00",15.5,33.705574,0.224],
    [18553,"urn:WaterMeter:MC0203J22010600005","2024-04-23T03:30:00",15.5,33.65321,0.219],
    [18554,"urn:WaterMeter:MC0203J22010600005","2024-04-23T03:45:00",15.399,33.57908,0.22],
    [18555,"urn:WaterMeter:MC0203J22010600005","2024-04-23T04:00:00",15.3,33.47361,0.219],
    [18556,"urn:WaterMeter:MC0203J22010600005","2024-04-23T04:15:00",15.199,33.40569,0.226],
    [18557,"urn:WaterMeter:MC0203J22010600005","2024-04-23T04:30:00",15.199,33.380512,0.221],
    [18558,"urn:WaterMeter:MC0203J22010600005","2024-04-23T04:45:00",15.1,33.31496,0.22],
    [18559,"urn:WaterMeter:MC0203J22010600005","2024-04-23T05:00:00",15.1,33.26686,0.225],
    [18560,"urn:WaterMeter:MC0203J22010600005","2024-04-23T05:15:00",15.1,33.22109,0.223],
    [18561,"urn:WaterMeter:MC0203J22010600005","2024-04-23T05:30:00",15.1,33.2207,0.215],
    [18562,"urn:WaterMeter:MC0203J22010600005","2024-04-23T05:45:00",15,33.148937,0.227],
    [18563,"urn:WaterMeter:MC0203J22010600005","2024-04-23T06:00:00",15,33.15278,0.217],
    [18564,"urn:WaterMeter:MC0203J22010600005","2024-04-23T06:15:00",15,33.076363,0.223],
    [18565,"urn:WaterMeter:MC0203J22010600005","2024-04-23T06:30:00",15,33.079502,0.223],
    [18566,"urn:WaterMeter:MC0203J22010600005","2024-04-23T06:45:00",15.1,33.05972,0.219],
    [18567,"urn:WaterMeter:MC0203J22010600005","2024-04-23T07:00:00",15,32.954212,0.211],
    [18568,"urn:WaterMeter:MC0203J22010600005","2024-04-23T07:15:00",15,32.920425,0.214],
    [18569,"urn:WaterMeter:MC0203J22010600005","2024-04-23T07:30:00",15,32.870426,0.217],
    [18570,"urn:WaterMeter:MC0203J22010600005","2024-04-23T07:45:00",14.899,32.863792,0.215],
    [18571,"urn:WaterMeter:MC0203J22010600005","2024-04-23T08:00:00",14.8,32.800602,0.218],
    [18572,"urn:WaterMeter:MC0203J22010600005","2024-04-23T08:15:00",14.699,32.7963,0.21],
    [18573,"urn:WaterMeter:MC0203J22010600005","2024-04-23T08:30:00",14.6,32.761425,0.214],
    [18574,"urn:WaterMeter:MC0203J22010600005","2024-04-23T08:45:00",14.5,32.669456,0.217],
    [18575,"urn:WaterMeter:MC0203J22010600005","2024-04-23T09:00:00",14.5,32.620968,0.216],
    [18576,"urn:WaterMeter:MC0203J22010600005","2024-04-23T09:15:00",14.6,32.622944,0.211],
    [18577,"urn:WaterMeter:MC0203J22010600005","2024-04-23T09:30:00",14.699,32.548855,0.217],
    [18578,"urn:WaterMeter:MC0203J22010600005","2024-04-23T09:45:00",14.8,32.504986,0.211],
    [18579,"urn:WaterMeter:MC0203J22010600005","2024-04-23T10:00:00",14.899,32.493347,0.213],
    [18580,"urn:WaterMeter:MC0203J22010600005","2024-04-23T10:15:00",15,32.44641,0.204],
    [18581,"urn:WaterMeter:MC0203J22010600005","2024-04-23T10:30:00",15.199,32.371197,0.213],
    [18582,"urn:WaterMeter:MC0203J22010600005","2024-04-23T10:45:00",15.399,32.340126,0.21],
    [18583,"urn:WaterMeter:MC0203J22010600005","2024-04-23T11:00:00",15.399,32.26957,0.218],
    [18584,"urn:WaterMeter:MC0203J22010600005","2024-04-23T11:15:00",15.5,32.261772,0.222],
    [18585,"urn:WaterMeter:MC0203J22010600005","2024-04-23T11:30:00",15.6,32.177635,0.209],
    [18586,"urn:WaterMeter:MC0203J22010600005","2024-04-23T11:45:00",15.699,32.11441,0.207],
    [18587,"urn:WaterMeter:MC0203J22010600005","2024-04-23T12:00:00",15.699,32.070187,0.207],
    [18588,"urn:WaterMeter:MC0203J22010600005","2024-04-23T12:15:00",15.6,32.002693,0.209],
    [18589,"urn:WaterMeter:MC0203J22010600005","2024-04-23T12:30:00",15.699,31.947224,0.209],
    [18590,"urn:WaterMeter:MC0203J22010600005","2024-04-23T12:45:00",15.699,31.930506,0.207],
    [18591,"urn:WaterMeter:MC0203J22010600005","2024-04-23T13:00:00",15.8,31.854477,0.213],
    [18592,"urn:WaterMeter:MC0203J22010600005","2024-04-23T13:15:00",15.8,31.77073,0.211],
    [18593,"urn:WaterMeter:MC0203J22010600005","2024-04-23T13:30:00",15.8,31.776121,0.218],
    [18594,"urn:WaterMeter:MC0203J22010600005","2024-04-23T13:45:00",15.899,31.708666,0.216],
    [18595,"urn:WaterMeter:MC0203J22010600005","2024-04-23T14:00:00",16,31.639969,0.21],
    [18596,"urn:WaterMeter:MC0203J22010600005","2024-04-23T14:15:00",16.1,31.581394,0.204],
    [18597,"urn:WaterMeter:MC0203J22010600005","2024-04-23T14:30:00",16.2,31.568634,0.202],
    [18598,"urn:WaterMeter:MC0203J22010600005","2024-04-23T14:45:00",16.299,31.508121,0.212],
    [18599,"urn:WaterMeter:MC0203J22010600005","2024-04-23T15:00:00",16.399,31.447958,0.195],
    [18600,"urn:WaterMeter:MC0203J22010600005","2024-04-23T15:15:00",16.399,31.417353,0.196],
    [18601,"urn:WaterMeter:MC0203J22010600005","2024-04-23T15:30:00",16.5,31.29594,0.208],
    [18602,"urn:WaterMeter:MC0203J22010600005","2024-04-23T15:45:00",16.6,31.274178,0.198],
    [18603,"urn:WaterMeter:MC0203J22010600005","2024-04-23T16:00:00",16.7,31.240858,0.206],
    [18604,"urn:WaterMeter:MC0203J22010600005","2024-04-23T16:15:00",16.799,31.210602,0.212],
    [18605,"urn:WaterMeter:MC0203J22010600005","2024-04-23T16:30:00",16.899,31.176039,0.201],
    [18606,"urn:WaterMeter:MC0203J22010600005","2024-04-23T16:45:00",16.899,31.147335,0.207],
    [18607,"urn:WaterMeter:MC0203J22010600005","2024-04-23T17:00:00",16.899,31.117079,0.2],
    [18608,"urn:WaterMeter:MC0203J22010600005","2024-04-23T17:15:00",16.899,31.069756,0.197],
    [18609,"urn:WaterMeter:MC0203J22010600005","2024-04-23T17:30:00",16.899,31.032167,0.202],
    [18610,"urn:WaterMeter:MC0203J22010600005","2024-04-23T17:45:00",16.899,31.010445,0.209],
    [18611,"urn:WaterMeter:MC0203J22010600005","2024-04-23T18:00:00",16.899,30.953773,0.191],
    [18612,"urn:WaterMeter:MC0203J22010600005","2024-04-23T18:15:00",16.799,30.949545,0.205],
    [18613,"urn:WaterMeter:MC0203J22010600005","2024-04-23T18:30:00",16.799,30.900282,0.198],
    [18614,"urn:WaterMeter:MC0203J22010600005","2024-04-23T18:45:00",16.7,30.932089,0.209],
    [18615,"urn:WaterMeter:MC0203J22010600005","2024-04-23T19:00:00",16.6,30.893686,0.212],
    [18616,"urn:WaterMeter:MC0203J22010600005","2024-04-23T19:15:00",16.5,30.892523,0.2],
    [18617,"urn:WaterMeter:MC0203J22010600005","2024-04-23T19:30:00",16.5,30.903345,0.2],
    [18618,"urn:WaterMeter:MC0203J22010600005","2024-04-23T19:45:00",16.399,30.84326,0.193],
    [18619,"urn:WaterMeter:MC0203J22010600005","2024-04-23T20:00:00",16.299,30.853733,0.205],
    [18620,"urn:WaterMeter:MC0203J22010600005","2024-04-23T20:15:00",16.299,30.870802,0.203],
    [18621,"urn:WaterMeter:MC0203J22010600005","2024-04-23T20:30:00",16.2,30.864555,0.209],
    [18622,"urn:WaterMeter:MC0203J22010600005","2024-04-23T20:45:00",16.2,30.792833,0.214],
    [18623,"urn:WaterMeter:MC0203J22010600005","2024-04-23T21:00:00",16.2,30.828907,0.199],
    [18624,"urn:WaterMeter:MC0203J22010600005","2024-04-23T21:15:00",16.1,30.798613,0.21],
    [18625,"urn:WaterMeter:MC0203J22010600005","2024-04-23T21:30:00",16,30.811453,0.21],
    [18626,"urn:WaterMeter:MC0203J22010600005","2024-04-23T21:45:00",16,30.77499,0.2],
    [18627,"urn:WaterMeter:MC0203J22010600005","2024-04-23T22:00:00",15.899,30.755983,0.206],
    [18628,"urn:WaterMeter:MC0203J22010600005","2024-04-23T22:15:00",15.8,30.772663,0.206],
    [18629,"urn:WaterMeter:MC0203J22010600005","2024-04-23T22:30:00",15.699,30.786976,0.204],
    [18630,"urn:WaterMeter:MC0203J22010600005","2024-04-23T22:45:00",15.6,30.74741,0.196],
    [18631,"urn:WaterMeter:MC0203J22010600005","2024-04-23T23:00:00",15.5,30.74357,0.201],
    [18632,"urn:WaterMeter:MC0203J22010600005","2024-04-23T23:15:00",15.5,30.727278,0.2],
    [18633,"urn:WaterMeter:MC0203J22010600005","2024-04-23T23:30:00",15.399,30.748186,0.197],
    [18634,"urn:WaterMeter:MC0203J22010600005","2024-04-23T23:45:00",15.3,30.737364,0.212],
    [18635,"urn:WaterMeter:MC0203J22010600005","2024-04-24T00:00:00",15.199,30.72495,0.205],
    [18636,"urn:WaterMeter:MC0203J22010600005","2024-04-24T00:15:00",15.1,30.75866,0.204],
    [18637,"urn:WaterMeter:MC0203J22010600005","2024-04-24T00:30:00",15,30.753654,0.204],
    [18638,"urn:WaterMeter:MC0203J22010600005","2024-04-24T00:45:00",14.899,30.750513,0.205],
    [18639,"urn:WaterMeter:MC0203J22010600005","2024-04-24T01:00:00",14.8,30.713701,0.198],
    [18640,"urn:WaterMeter:MC0203J22010600005","2024-04-24T01:15:00",14.699,30.674524,0.203],
    [18641,"urn:WaterMeter:MC0203J22010600005","2024-04-24T01:30:00",14.699,30.704004,0.2],
    [18642,"urn:WaterMeter:MC0203J22010600005","2024-04-24T01:45:00",14.5,30.681854,0.199],
    [18643,"urn:WaterMeter:MC0203J22010600005","2024-04-24T02:00:00",14.399,30.718744,0.207],
    [18644,"urn:WaterMeter:MC0203J22010600005","2024-04-24T02:15:00",14.3,30.677238,0.212],
    [18645,"urn:WaterMeter:MC0203J22010600005","2024-04-24T02:30:00",14.199,30.693144,0.197],
    [18646,"urn:WaterMeter:MC0203J22010600005","2024-04-24T02:45:00",14.1,30.726501,0.202],
    [18647,"urn:WaterMeter:MC0203J22010600005","2024-04-24T03:00:00",14,30.68108,0.213],
    [18648,"urn:WaterMeter:MC0203J22010600005","2024-04-24T03:15:00",13.899,30.729567,0.202],
    [18649,"urn:WaterMeter:MC0203J22010600005","2024-04-24T03:30:00",13.8,30.684998,0.21],
    [18650,"urn:WaterMeter:MC0203J22010600005","2024-04-24T03:45:00",13.699,30.714478,0.194],
    [18651,"urn:WaterMeter:MC0203J22010600005","2024-04-24T04:00:00",13.699,30.701637,0.2],
    [18652,"urn:WaterMeter:MC0203J22010600005","2024-04-24T04:15:00",13.6,30.695858,0.205],
    [18653,"urn:WaterMeter:MC0203J22010600005","2024-04-24T04:30:00",13.5,30.721033,0.197],
    [18654,"urn:WaterMeter:MC0203J22010600005","2024-04-24T04:45:00",13.399,30.682243,0.203],
    [18655,"urn:WaterMeter:MC0203J22010600005","2024-04-24T05:00:00",13.3,30.678402,0.209],
    [18656,"urn:WaterMeter:MC0203J22010600005","2024-04-24T05:15:00",13.3,30.693918,0.209],
    [18657,"urn:WaterMeter:MC0203J22010600005","2024-04-24T05:30:00",13.199,30.689613,0.201],
    [18658,"urn:WaterMeter:MC0203J22010600005","2024-04-24T05:45:00",13.1,30.692327,0.205],
    [18659,"urn:WaterMeter:MC0203J22010600005","2024-04-24T06:00:00",13,30.686161,0.196],
    [18660,"urn:WaterMeter:MC0203J22010600005","2024-04-24T06:15:00",13,30.643064,0.194],
    [18661,"urn:WaterMeter:MC0203J22010600005","2024-04-24T06:30:00",13.1,30.622894,0.21],
    [18662,"urn:WaterMeter:MC0203J22010600005","2024-04-24T06:45:00",13.199,30.667154,0.2],
    [18663,"urn:WaterMeter:MC0203J22010600005","2024-04-24T07:00:00",13.3,30.63298,0.195],
    [18664,"urn:WaterMeter:MC0203J22010600005","2024-04-24T07:15:00",13.5,30.634958,0.201],
    [18665,"urn:WaterMeter:MC0203J22010600005","2024-04-24T07:30:00",13.6,30.7618,0.204],
    [18666,"urn:WaterMeter:MC0203J22010600005","2024-04-24T07:45:00",13.8,31.284302,0.202],
    [18667,"urn:WaterMeter:MC0203J22010600005","2024-04-24T08:00:00",13.899,32.35452,0.211],
    [18668,"urn:WaterMeter:MC0203J22010600005","2024-04-24T08:15:00",14.1,33.555843,0.247],
    [18669,"urn:WaterMeter:MC0203J22010600005","2024-04-24T08:30:00",14.199,34.47866,0.243],
    [18670,"urn:WaterMeter:MC0203J22010600005","2024-04-24T08:45:00",14.399,35.135372,0.256],
    [18671,"urn:WaterMeter:MC0203J22010600005","2024-04-24T09:00:00",14.6,35.565556,0.25],
    [18672,"urn:WaterMeter:MC0203J22010600005","2024-04-24T09:15:00",14.8,34.898716,0.247],
    [18673,"urn:WaterMeter:MC0203J22010600005","2024-04-24T09:30:00",15,34.20674,0.23],
    [18674,"urn:WaterMeter:MC0203J22010600005","2024-04-24T09:45:00",15.1,33.828537,0.235],
    [18675,"urn:WaterMeter:MC0203J22010600005","2024-04-24T10:00:00",15.199,33.59347,0.247],
    [18676,"urn:WaterMeter:MC0203J22010600005","2024-04-24T10:15:00",15.399,33.493355,0.224],
    [18677,"urn:WaterMeter:MC0203J22010600005","2024-04-24T10:30:00",15.6,33.28509,0.234],
    [18678,"urn:WaterMeter:MC0203J22010600005","2024-04-24T10:45:00",15.8,33.197037,0.238],
    [18679,"urn:WaterMeter:MC0203J22010600005","2024-04-24T11:00:00",16,33.023647,0.226],
    [18680,"urn:WaterMeter:MC0203J22010600005","2024-04-24T11:15:00",16.2,32.921978,0.229],
    [18681,"urn:WaterMeter:MC0203J22010600005","2024-04-24T11:30:00",16.299,32.8347,0.218],
    [18682,"urn:WaterMeter:MC0203J22010600005","2024-04-24T11:45:00",16.5,32.763752,0.216],
    [18683,"urn:WaterMeter:MC0203J22010600005","2024-04-24T12:00:00",16.7,32.648506,0.216],
    [18684,"urn:WaterMeter:MC0203J22010600005","2024-04-24T12:15:00",16.799,32.610493,0.218],
    [18685,"urn:WaterMeter:MC0203J22010600005","2024-04-24T12:30:00",16.899,32.496063,0.224],
    [18686,"urn:WaterMeter:MC0203J22010600005","2024-04-24T12:45:00",16.899,32.434776,0.224],
    [18687,"urn:WaterMeter:MC0203J22010600005","2024-04-24T13:00:00",17,32.314564,0.21],
    [18688,"urn:WaterMeter:MC0203J22010600005","2024-04-24T13:15:00",17.1,32.272243,0.22],
    [18689,"urn:WaterMeter:MC0203J22010600005","2024-04-24T13:30:00",17.2,32.2172,0.226],
    [18690,"urn:WaterMeter:MC0203J22010600005","2024-04-24T13:45:00",17.299,32.147766,0.224],
    [18691,"urn:WaterMeter:MC0203J22010600005","2024-04-24T14:00:00",17.399,32.088768,0.217],
    [18692,"urn:WaterMeter:MC0203J22010600005","2024-04-24T14:15:00",17.5,31.992607,0.226],
    [18693,"urn:WaterMeter:MC0203J22010600005","2024-04-24T14:30:00",17.5,31.895634,0.224],
    [18694,"urn:WaterMeter:MC0203J22010600005","2024-04-24T14:45:00",17.5,31.91305,0.209],
    [18695,"urn:WaterMeter:MC0203J22010600005","2024-04-24T15:00:00",17.6,31.820381,0.211],
    [18696,"urn:WaterMeter:MC0203J22010600005","2024-04-24T15:15:00",17.7,31.735819,0.212],
    [18697,"urn:WaterMeter:MC0203J22010600005","2024-04-24T15:30:00",17.7,31.734266,0.211],
    [18698,"urn:WaterMeter:MC0203J22010600005","2024-04-24T15:45:00",17.799,31.66716,0.207],
    [18699,"urn:WaterMeter:MC0203J22010600005","2024-04-24T16:00:00",17.799,31.61906,0.219],
    [18700,"urn:WaterMeter:MC0203J22010600005","2024-04-24T16:15:00",17.799,31.59889,0.228],
    [18701,"urn:WaterMeter:MC0203J22010600005","2024-04-24T16:30:00",17.799,31.553505,0.236],
    [18702,"urn:WaterMeter:MC0203J22010600005","2024-04-24T16:45:00",17.7,31.465801,0.206],
    [18703,"urn:WaterMeter:MC0203J22010600005","2024-04-24T17:00:00",17.7,31.429338,0.21],
    [18704,"urn:WaterMeter:MC0203J22010600005","2024-04-24T17:15:00",17.6,31.428951,0.206],
    [18705,"urn:WaterMeter:MC0203J22010600005","2024-04-24T17:30:00",17.5,31.38477,0.213],
    [18706,"urn:WaterMeter:MC0203J22010600005","2024-04-24T17:45:00",17.399,31.34559,0.229],
    [18707,"urn:WaterMeter:MC0203J22010600005","2024-04-24T18:00:00",17.399,31.34206,0.207],
    [18708,"urn:WaterMeter:MC0203J22010600005","2024-04-24T18:15:00",17.299,31.29594,0.219],
    [18709,"urn:WaterMeter:MC0203J22010600005","2024-04-24T18:30:00",17.2,31.298655,0.208],
    [18710,"urn:WaterMeter:MC0203J22010600005","2024-04-24T18:45:00",17.1,31.291634,0.21],
    [18711,"urn:WaterMeter:MC0203J22010600005","2024-04-24T19:00:00",17,31.273403,0.208],
    [18712,"urn:WaterMeter:MC0203J22010600005","2024-04-24T19:15:00",17,31.224138,0.208],
    [18713,"urn:WaterMeter:MC0203J22010600005","2024-04-24T19:30:00",16.899,31.212152,0.21],
    [18714,"urn:WaterMeter:MC0203J22010600005","2024-04-24T19:45:00",16.899,31.204395,0.218],
    [18715,"urn:WaterMeter:MC0203J22010600005","2024-04-24T20:00:00",16.799,31.165216,0.211],
    [18716,"urn:WaterMeter:MC0203J22010600005","2024-04-24T20:15:00",16.799,31.15358,0.208],
    [18717,"urn:WaterMeter:MC0203J22010600005","2024-04-24T20:30:00",16.7,31.156258,0.213],
    [18718,"urn:WaterMeter:MC0203J22010600005","2024-04-24T20:45:00",16.6,31.174488,0.214],
    [18719,"urn:WaterMeter:MC0203J22010600005","2024-04-24T21:00:00",16.6,31.140003,0.223],
    [18720,"urn:WaterMeter:MC0203J22010600005","2024-04-24T21:15:00",16.5,31.158236,0.206],
    [18721,"urn:WaterMeter:MC0203J22010600005","2024-04-24T21:30:00",16.399,31.112076,0.216],
    [18722,"urn:WaterMeter:MC0203J22010600005","2024-04-24T21:45:00",16.299,31.125263,0.219],
    [18723,"urn:WaterMeter:MC0203J22010600005","2024-04-24T22:00:00",16.299,31.131083,0.209],
    [18724,"urn:WaterMeter:MC0203J22010600005","2024-04-24T22:15:00",16.2,31.115528,0.217],
    [18725,"urn:WaterMeter:MC0203J22010600005","2024-04-24T22:30:00",16.1,31.060833,0.209],
    [18726,"urn:WaterMeter:MC0203J22010600005","2024-04-24T22:45:00",16,31.115177,0.209],
    [18727,"urn:WaterMeter:MC0203J22010600005","2024-04-24T23:00:00",16,31.09846,0.2],
    [18728,"urn:WaterMeter:MC0203J22010600005","2024-04-24T23:15:00",15.899,31.04807,0.214],
    [18729,"urn:WaterMeter:MC0203J22010600005","2024-04-24T23:30:00",15.899,31.069756,0.209],
    [18730,"urn:WaterMeter:MC0203J22010600005","2024-04-24T23:45:00",15.8,31.051563,0.212],
    [18731,"urn:WaterMeter:MC0203J22010600005","2024-04-25T00:00:00",15.699,31.030577,0.206],
    [18732,"urn:WaterMeter:MC0203J22010600005","2024-04-25T00:15:00",15.6,31.037598,0.203],
    [18733,"urn:WaterMeter:MC0203J22010600005","2024-04-25T00:30:00",15.5,31.047684,0.214],
    [18734,"urn:WaterMeter:MC0203J22010600005","2024-04-25T00:45:00",15.399,31.043417,0.211],
    [18735,"urn:WaterMeter:MC0203J22010600005","2024-04-25T01:00:00",15.3,31.034883,0.209],
    [18736,"urn:WaterMeter:MC0203J22010600005","2024-04-25T01:15:00",15.1,30.990274,0.209],
    [18737,"urn:WaterMeter:MC0203J22010600005","2024-04-25T01:30:00",15,31.034883,0.213],
    [18738,"urn:WaterMeter:MC0203J22010600005","2024-04-25T01:45:00",14.899,31.03019,0.212],
    [18739,"urn:WaterMeter:MC0203J22010600005","2024-04-25T02:00:00",14.8,30.987947,0.211],
    [18740,"urn:WaterMeter:MC0203J22010600005","2024-04-25T02:15:00",14.699,30.969328,0.211],
    [18741,"urn:WaterMeter:MC0203J22010600005","2024-04-25T02:30:00",14.5,30.994541,0.214],
    [18742,"urn:WaterMeter:MC0203J22010600005","2024-04-25T02:45:00",14.399,30.965061,0.212],
    [18743,"urn:WaterMeter:MC0203J22010600005","2024-04-25T03:00:00",14.3,31.01894,0.205],
    [18744,"urn:WaterMeter:MC0203J22010600005","2024-04-25T03:15:00",14.199,30.999933,0.213],
    [18745,"urn:WaterMeter:MC0203J22010600005","2024-04-25T03:30:00",14.1,30.98015,0.194],
    [18746,"urn:WaterMeter:MC0203J22010600005","2024-04-25T03:45:00",14,31.00032,0.212],
    [18747,"urn:WaterMeter:MC0203J22010600005","2024-04-25T04:00:00",13.899,30.96347,0.212],
    [18748,"urn:WaterMeter:MC0203J22010600005","2024-04-25T04:15:00",13.8,30.967001,0.206],
    [18749,"urn:WaterMeter:MC0203J22010600005","2024-04-25T04:30:00",13.699,30.987558,0.206],
    [18750,"urn:WaterMeter:MC0203J22010600005","2024-04-25T04:45:00",13.6,30.923904,0.207],
    [18751,"urn:WaterMeter:MC0203J22010600005","2024-04-25T05:00:00",13.5,30.997257,0.203],
    [18752,"urn:WaterMeter:MC0203J22010600005","2024-04-25T05:15:00",13.399,30.948769,0.209],
    [18753,"urn:WaterMeter:MC0203J22010600005","2024-04-25T05:30:00",13.3,30.973557,0.231],
    [18754,"urn:WaterMeter:MC0203J22010600005","2024-04-25T05:45:00",13.3,30.979025,0.21],
    [18755,"urn:WaterMeter:MC0203J22010600005","2024-04-25T06:00:00",13.199,30.946829,0.199],
    [18756,"urn:WaterMeter:MC0203J22010600005","2024-04-25T06:15:00",13.199,30.926659,0.21],
    [18757,"urn:WaterMeter:MC0203J22010600005","2024-04-25T06:30:00",13.199,30.936356,0.196],
    [18758,"urn:WaterMeter:MC0203J22010600005","2024-04-25T06:45:00",13.3,30.941748,0.207],
    [18759,"urn:WaterMeter:MC0203J22010600005","2024-04-25T07:00:00",13.3,30.920065,0.204],
    [18760,"urn:WaterMeter:MC0203J22010600005","2024-04-25T07:15:00",13.399,30.920452,0.207],
    [18761,"urn:WaterMeter:MC0203J22010600005","2024-04-25T07:30:00",13.6,30.917349,0.205],
    [18762,"urn:WaterMeter:MC0203J22010600005","2024-04-25T07:45:00",13.8,30.919289,0.213],
    [18763,"urn:WaterMeter:MC0203J22010600005","2024-04-25T08:00:00",14,30.83938,0.206],
    [18764,"urn:WaterMeter:MC0203J22010600005","2024-04-25T08:15:00",14.199,30.807535,0.208],
    [18765,"urn:WaterMeter:MC0203J22010600005","2024-04-25T08:30:00",14.399,30.802143,0.201],
    [18766,"urn:WaterMeter:MC0203J22010600005","2024-04-25T08:45:00",14.6,30.777317,0.206],
    [18767,"urn:WaterMeter:MC0203J22010600005","2024-04-25T09:00:00",14.899,30.7362,0.202],
    [18768,"urn:WaterMeter:MC0203J22010600005","2024-04-25T09:15:00",15.1,30.69194,0.203],
    [18769,"urn:WaterMeter:MC0203J22010600005","2024-04-25T09:30:00",15.3,30.666378,0.198],
    [18770,"urn:WaterMeter:MC0203J22010600005","2024-04-25T09:45:00",15.6,30.641552,0.202],
    [18771,"urn:WaterMeter:MC0203J22010600005","2024-04-25T10:00:00",15.899,30.59578,0.211],
    [18772,"urn:WaterMeter:MC0203J22010600005","2024-04-25T10:15:00",16.1,30.516222,0.195],
    [18773,"urn:WaterMeter:MC0203J22010600005","2024-04-25T10:30:00",16.299,30.49958,0.195],
    [18774,"urn:WaterMeter:MC0203J22010600005","2024-04-25T10:45:00",16.6,30.437477,0.202],
    [18775,"urn:WaterMeter:MC0203J22010600005","2024-04-25T11:00:00",16.899,30.410713,0.19],
    [18776,"urn:WaterMeter:MC0203J22010600005","2024-04-25T11:15:00",17.1,30.357998,0.21],
    [18777,"urn:WaterMeter:MC0203J22010600005","2024-04-25T11:30:00",17.299,30.286236,0.201],
    [18778,"urn:WaterMeter:MC0203J22010600005","2024-04-25T11:45:00",17.5,30.260246,0.202],
    [18779,"urn:WaterMeter:MC0203J22010600005","2024-04-25T12:00:00",17.7,30.17103,0.199],
    [18780,"urn:WaterMeter:MC0203J22010600005","2024-04-25T12:15:00",18,30.136894,0.192],
    [18781,"urn:WaterMeter:MC0203J22010600005","2024-04-25T12:30:00",18.2,30.056988,0.19],
    [18782,"urn:WaterMeter:MC0203J22010600005","2024-04-25T12:45:00",18.399,30.016645,0.185],
    [18783,"urn:WaterMeter:MC0203J22010600005","2024-04-25T13:00:00",18.5,29.95109,0.19],
    [18784,"urn:WaterMeter:MC0203J22010600005","2024-04-25T13:15:00",18.799,29.919283,0.191],
    [18785,"urn:WaterMeter:MC0203J22010600005","2024-04-25T13:30:00",18.899,29.847094,0.187],
    [18786,"urn:WaterMeter:MC0203J22010600005","2024-04-25T13:45:00",18.899,29.864588,0.194],
    [18787,"urn:WaterMeter:MC0203J22010600005","2024-04-25T14:00:00",19,29.753649,0.187],
    [18788,"urn:WaterMeter:MC0203J22010600005","2024-04-25T14:15:00",19.1,29.718739,0.186],
    [18789,"urn:WaterMeter:MC0203J22010600005","2024-04-25T14:30:00",19.299,29.706713,0.185],
    [18790,"urn:WaterMeter:MC0203J22010600005","2024-04-25T14:45:00",19.299,29.630297,0.184],
    [18791,"urn:WaterMeter:MC0203J22010600005","2024-04-25T15:00:00",19.399,29.57793,0.187],
    [18792,"urn:WaterMeter:MC0203J22010600005","2024-04-25T15:15:00",19.399,29.547247,0.201],
    [18793,"urn:WaterMeter:MC0203J22010600005","2024-04-25T15:30:00",19.5,29.484446,0.19],
    [18794,"urn:WaterMeter:MC0203J22010600005","2024-04-25T15:45:00",19.5,29.428162,0.198],
    [18795,"urn:WaterMeter:MC0203J22010600005","2024-04-25T16:00:00",19.399,29.458458,0.187],
    [18796,"urn:WaterMeter:MC0203J22010600005","2024-04-25T16:15:00",19.399,29.42665,0.184],
    [18797,"urn:WaterMeter:MC0203J22010600005","2024-04-25T16:30:00",19.299,29.378162,0.188],
    [18798,"urn:WaterMeter:MC0203J22010600005","2024-04-25T16:45:00",19.2,29.324593,0.204],
    [18799,"urn:WaterMeter:MC0203J22010600005","2024-04-25T17:00:00",19.1,29.296314,0.195],
    [18800,"urn:WaterMeter:MC0203J22010600005","2024-04-25T17:15:00",19,29.27339,0.206],
    [18801,"urn:WaterMeter:MC0203J22010600005","2024-04-25T17:30:00",18.899,29.275717,0.187],
    [18802,"urn:WaterMeter:MC0203J22010600005","2024-04-25T17:45:00",18.899,29.29166,0.182],
    [18803,"urn:WaterMeter:MC0203J22010600005","2024-04-25T18:00:00",18.799,29.281963,0.193],
    [18804,"urn:WaterMeter:MC0203J22010600005","2024-04-25T18:15:00",18.799,29.257524,0.186],
    [18805,"urn:WaterMeter:MC0203J22010600005","2024-04-25T18:30:00",18.799,29.207447,0.191],
    [18806,"urn:WaterMeter:MC0203J22010600005","2024-04-25T18:45:00",18.7,29.182661,0.192],
    [18807,"urn:WaterMeter:MC0203J22010600005","2024-04-25T19:00:00",18.5,29.202055,0.188],
    [18808,"urn:WaterMeter:MC0203J22010600005","2024-04-25T19:15:00",18.399,29.151628,0.203],
    [18809,"urn:WaterMeter:MC0203J22010600005","2024-04-25T19:30:00",18.2,29.179945,0.187],
    [18810,"urn:WaterMeter:MC0203J22010600005","2024-04-25T19:45:00",18.1,29.19197,0.199],
    [18811,"urn:WaterMeter:MC0203J22010600005","2024-04-25T20:00:00",17.899,29.15702,0.189],
    [18812,"urn:WaterMeter:MC0203J22010600005","2024-04-25T20:15:00",17.799,29.155508,0.195],
    [18813,"urn:WaterMeter:MC0203J22010600005","2024-04-25T20:30:00",17.7,29.148138,0.198],
    [18814,"urn:WaterMeter:MC0203J22010600005","2024-04-25T20:45:00",17.6,29.172188,0.186],
    [18815,"urn:WaterMeter:MC0203J22010600005","2024-04-25T21:00:00",17.6,29.148874,0.193],
    [18816,"urn:WaterMeter:MC0203J22010600005","2024-04-25T21:15:00",17.5,29.127966,0.194],
    [18817,"urn:WaterMeter:MC0203J22010600005","2024-04-25T21:30:00",17.5,29.105469,0.192],
    [18818,"urn:WaterMeter:MC0203J22010600005","2024-04-25T21:45:00",17.399,29.15318,0.188],
    [18819,"urn:WaterMeter:MC0203J22010600005","2024-04-25T22:00:00",17.399,29.120945,0.186],
    [18820,"urn:WaterMeter:MC0203J22010600005","2024-04-25T22:15:00",17.399,29.143482,0.19],
    [18821,"urn:WaterMeter:MC0203J22010600005","2024-04-25T22:30:00",17.299,29.128355,0.186],
    [18822,"urn:WaterMeter:MC0203J22010600005","2024-04-25T22:45:00",17.299,29.15896,0.192],
    [18823,"urn:WaterMeter:MC0203J22010600005","2024-04-25T23:00:00",17.2,29.115166,0.19],
    [18824,"urn:WaterMeter:MC0203J22010600005","2024-04-25T23:15:00",17.2,29.106243,0.191],
    [18825,"urn:WaterMeter:MC0203J22010600005","2024-04-25T23:30:00",17.1,29.072845,0.197],
    [18826,"urn:WaterMeter:MC0203J22010600005","2024-04-25T23:45:00",17.1,29.0756,0.191],
    [18827,"urn:WaterMeter:MC0203J22010600005","2024-04-26T00:00:00",17,29.092667,0.195],
    [18828,"urn:WaterMeter:MC0203J22010600005","2024-04-26T00:15:00",16.899,29.079052,0.19],
    [18829,"urn:WaterMeter:MC0203J22010600005","2024-04-26T00:30:00",16.799,29.080605,0.187],
    [18830,"urn:WaterMeter:MC0203J22010600005","2024-04-26T00:45:00",16.7,29.022032,0.193],
    [18831,"urn:WaterMeter:MC0203J22010600005","2024-04-26T01:00:00",16.6,29.085297,0.204],
    [18832,"urn:WaterMeter:MC0203J22010600005","2024-04-26T01:15:00",16.5,29.093832,0.193],
    [18833,"urn:WaterMeter:MC0203J22010600005","2024-04-26T01:30:00",16.399,29.106243,0.196],
    [18834,"urn:WaterMeter:MC0203J22010600005","2024-04-26T01:45:00",16.299,29.05543,0.187],
    [18835,"urn:WaterMeter:MC0203J22010600005","2024-04-26T02:00:00",16.299,29.081379,0.195],
    [18836,"urn:WaterMeter:MC0203J22010600005","2024-04-26T02:15:00",16.2,29.057756,0.193],
    [18837,"urn:WaterMeter:MC0203J22010600005","2024-04-26T02:30:00",16.2,29.059309,0.205],
    [18838,"urn:WaterMeter:MC0203J22010600005","2024-04-26T02:45:00",16.1,29.024359,0.21],
    [18839,"urn:WaterMeter:MC0203J22010600005","2024-04-26T03:00:00",16.1,29.048834,0.186],
    [18840,"urn:WaterMeter:MC0203J22010600005","2024-04-26T03:15:00",16,29.067842,0.187],
    [18841,"urn:WaterMeter:MC0203J22010600005","2024-04-26T03:30:00",15.899,29.067842,0.189],
    [18842,"urn:WaterMeter:MC0203J22010600005","2024-04-26T03:45:00",15.899,29.051899,0.19],
    [18843,"urn:WaterMeter:MC0203J22010600005","2024-04-26T04:00:00",15.8,29.019743,0.186],
    [18844,"urn:WaterMeter:MC0203J22010600005","2024-04-26T04:15:00",15.699,29.011597,0.191],
    [18845,"urn:WaterMeter:MC0203J22010600005","2024-04-26T04:30:00",15.699,29.044956,0.192],
    [18846,"urn:WaterMeter:MC0203J22010600005","2024-04-26T04:45:00",15.6,29.050386,0.184],
    [18847,"urn:WaterMeter:MC0203J22010600005","2024-04-26T05:00:00",15.6,29.037586,0.196],
    [18848,"urn:WaterMeter:MC0203J22010600005","2024-04-26T05:15:00",15.5,29.05698,0.183],
    [18849,"urn:WaterMeter:MC0203J22010600005","2024-04-26T05:30:00",15.5,29.03099,0.186],
    [18850,"urn:WaterMeter:MC0203J22010600005","2024-04-26T05:45:00",15.5,29.035646,0.189],
    [18851,"urn:WaterMeter:MC0203J22010600005","2024-04-26T06:00:00",15.5,29.028276,0.192],
    [18852,"urn:WaterMeter:MC0203J22010600005","2024-04-26T06:15:00",15.5,29.03681,0.178],
    [18853,"urn:WaterMeter:MC0203J22010600005","2024-04-26T06:30:00",15.5,29.05737,0.183],
    [18854,"urn:WaterMeter:MC0203J22010600005","2024-04-26T06:45:00",15.5,29.011984,0.186],
    [18855,"urn:WaterMeter:MC0203J22010600005","2024-04-26T07:00:00",15.6,28.99802,0.184],
    [18856,"urn:WaterMeter:MC0203J22010600005","2024-04-26T07:15:00",15.8,28.9922,0.181],
    [18857,"urn:WaterMeter:MC0203J22010600005","2024-04-26T07:30:00",16,28.944063,0.196],
    [18858,"urn:WaterMeter:MC0203J22010600005","2024-04-26T07:45:00",16.1,29.045343,0.201],
    [18859,"urn:WaterMeter:MC0203J22010600005","2024-04-26T08:00:00",16.299,29.601204,0.2],
    [18860,"urn:WaterMeter:MC0203J22010600005","2024-04-26T08:15:00",16.399,30.884338,0.218],
    [18861,"urn:WaterMeter:MC0203J22010600005","2024-04-26T08:30:00",16.7,32.104324,0.22],
    [18862,"urn:WaterMeter:MC0203J22010600005","2024-04-26T08:45:00",16.799,33.062824,0.225],
    [18863,"urn:WaterMeter:MC0203J22010600005","2024-04-26T09:00:00",17,33.648167,0.234],
    [18864,"urn:WaterMeter:MC0203J22010600005","2024-04-26T09:15:00",17.2,33.332027,0.225],
    [18865,"urn:WaterMeter:MC0203J22010600005","2024-04-26T09:30:00",17.299,32.896416,0.225],
    [18866,"urn:WaterMeter:MC0203J22010600005","2024-04-26T09:45:00",17.5,32.687298,0.223],
    [18867,"urn:WaterMeter:MC0203J22010600005","2024-04-26T10:00:00",17.7,32.556614,0.224],
    [18868,"urn:WaterMeter:MC0203J22010600005","2024-04-26T10:15:00",17.899,32.460415,0.223],
    [18869,"urn:WaterMeter:MC0203J22010600005","2024-04-26T10:30:00",18,32.389816,0.218],
    [18870,"urn:WaterMeter:MC0203J22010600005","2024-04-26T10:45:00",18.2,32.26608,0.22],
    [18871,"urn:WaterMeter:MC0203J22010600005","2024-04-26T11:00:00",18.299,32.16057,0.224],
    [18872,"urn:WaterMeter:MC0203J22010600005","2024-04-26T11:15:00",18.5,32.129925,0.223],
    [18873,"urn:WaterMeter:MC0203J22010600005","2024-04-26T11:30:00",18.6,32.06243,0.213],
    [18874,"urn:WaterMeter:MC0203J22010600005","2024-04-26T11:45:00",18.899,31.93167,0.217],
    [18875,"urn:WaterMeter:MC0203J22010600005","2024-04-26T12:00:00",19,31.904516,0.242],
    [18876,"urn:WaterMeter:MC0203J22010600005","2024-04-26T12:15:00",19.2,31.808355,0.209],
    [18877,"urn:WaterMeter:MC0203J22010600005","2024-04-26T12:30:00",19.299,31.787758,0.213],
    [18878,"urn:WaterMeter:MC0203J22010600005","2024-04-26T12:45:00",19.399,31.685003,0.207],
    [18879,"urn:WaterMeter:MC0203J22010600005","2024-04-26T13:00:00",19.5,31.591518,0.212],
    [18880,"urn:WaterMeter:MC0203J22010600005","2024-04-26T13:15:00",19.6,31.567469,0.215],
    [18881,"urn:WaterMeter:MC0203J22010600005","2024-04-26T13:30:00",19.6,31.464638,0.22],
    [18882,"urn:WaterMeter:MC0203J22010600005","2024-04-26T13:45:00",19.6,31.448345,0.219],
    [18883,"urn:WaterMeter:MC0203J22010600005","2024-04-26T14:00:00",19.6,31.3793,0.211],
    [18884,"urn:WaterMeter:MC0203J22010600005","2024-04-26T14:15:00",19.5,31.37352,0.225],
    [18885,"urn:WaterMeter:MC0203J22010600005","2024-04-26T14:30:00",19.7,31.35296,0.221],
    [18886,"urn:WaterMeter:MC0203J22010600005","2024-04-26T14:45:00",19.799,31.260641,0.208],
    [18887,"urn:WaterMeter:MC0203J22010600005","2024-04-26T15:00:00",19.899,31.211765,0.21],
    [18888,"urn:WaterMeter:MC0203J22010600005","2024-04-26T15:15:00",19.899,31.14427,0.213],
    [18889,"urn:WaterMeter:MC0203J22010600005","2024-04-26T15:30:00",19.899,31.07984,0.215],
    [18890,"urn:WaterMeter:MC0203J22010600005","2024-04-26T15:45:00",19.799,31.019716,0.202],
    [18891,"urn:WaterMeter:MC0203J22010600005","2024-04-26T16:00:00",19.799,30.99295,0.211],
    [18892,"urn:WaterMeter:MC0203J22010600005","2024-04-26T16:15:00",19.799,30.991787,0.214],
    [18893,"urn:WaterMeter:MC0203J22010600005","2024-04-26T16:30:00",19.7,30.904121,0.2],
    [18894,"urn:WaterMeter:MC0203J22010600005","2024-04-26T16:45:00",19.7,30.884338,0.205],
    [18895,"urn:WaterMeter:MC0203J22010600005","2024-04-26T17:00:00",19.6,30.870413,0.201],
    [18896,"urn:WaterMeter:MC0203J22010600005","2024-04-26T17:15:00",19.5,30.840546,0.2],
    [18897,"urn:WaterMeter:MC0203J22010600005","2024-04-26T17:30:00",19.399,30.833563,0.202],
    [18898,"urn:WaterMeter:MC0203J22010600005","2024-04-26T17:45:00",19.299,30.781973,0.216],
    [18899,"urn:WaterMeter:MC0203J22010600005","2024-04-26T18:00:00",19.2,30.76758,0.203],
    [18900,"urn:WaterMeter:MC0203J22010600005","2024-04-26T18:15:00",19.1,30.736975,0.203],
    [18901,"urn:WaterMeter:MC0203J22010600005","2024-04-26T18:30:00",19.1,30.71987,0.223],
    [18902,"urn:WaterMeter:MC0203J22010600005","2024-04-26T18:45:00",19,30.73112,0.207],
    [18903,"urn:WaterMeter:MC0203J22010600005","2024-04-26T19:00:00",18.899,30.718357,0.203],
    [18904,"urn:WaterMeter:MC0203J22010600005","2024-04-26T19:15:00",18.799,30.69741,0.202],
    [18905,"urn:WaterMeter:MC0203J22010600005","2024-04-26T19:30:00",18.7,30.729954,0.2],
    [18906,"urn:WaterMeter:MC0203J22010600005","2024-04-26T19:45:00",18.6,30.660948,0.208],
    [18907,"urn:WaterMeter:MC0203J22010600005","2024-04-26T20:00:00",18.6,30.676851,0.206],
    [18908,"urn:WaterMeter:MC0203J22010600005","2024-04-26T20:15:00",18.5,30.69547,0.211],
    [18909,"urn:WaterMeter:MC0203J22010600005","2024-04-26T20:30:00",18.399,30.644655,0.228],
    [18910,"urn:WaterMeter:MC0203J22010600005","2024-04-26T20:45:00",18.399,30.666765,0.211],
    [18911,"urn:WaterMeter:MC0203J22010600005","2024-04-26T21:00:00",18.299,30.66246,0.209],
    [18912,"urn:WaterMeter:MC0203J22010600005","2024-04-26T21:15:00",18.299,30.635735,0.21],
    [18913,"urn:WaterMeter:MC0203J22010600005","2024-04-26T21:30:00",18.2,30.618279,0.217],
    [18914,"urn:WaterMeter:MC0203J22010600005","2024-04-26T21:45:00",18.1,30.626425,0.202],
    [18915,"urn:WaterMeter:MC0203J22010600005","2024-04-26T22:00:00",18.1,30.613197,0.203],
    [18916,"urn:WaterMeter:MC0203J22010600005","2024-04-26T22:15:00",18,30.581429,0.218],
    [18917,"urn:WaterMeter:MC0203J22010600005","2024-04-26T22:30:00",18,30.606642,0.209],
    [18918,"urn:WaterMeter:MC0203J22010600005","2024-04-26T22:45:00",18,30.58104,0.202],
    [18919,"urn:WaterMeter:MC0203J22010600005","2024-04-26T23:00:00",18,30.555399,0.202],
    [18920,"urn:WaterMeter:MC0203J22010600005","2024-04-26T23:15:00",17.899,30.600435,0.206],
    [18921,"urn:WaterMeter:MC0203J22010600005","2024-04-26T23:30:00",17.899,30.600822,0.206],
    [18922,"urn:WaterMeter:MC0203J22010600005","2024-04-26T23:45:00",17.899,30.596556,0.209],
    [18923,"urn:WaterMeter:MC0203J22010600005","2024-04-27T00:00:00",17.799,30.579489,0.208],
    [18924,"urn:WaterMeter:MC0203J22010600005","2024-04-27T00:15:00",17.799,30.571342,0.219],
    [18925,"urn:WaterMeter:MC0203J22010600005","2024-04-27T00:30:00",17.799,30.52208,0.2],
    [18926,"urn:WaterMeter:MC0203J22010600005","2024-04-27T00:45:00",17.799,30.539923,0.206],
    [18927,"urn:WaterMeter:MC0203J22010600005","2024-04-27T01:00:00",17.7,30.518587,0.209],
    [18928,"urn:WaterMeter:MC0203J22010600005","2024-04-27T01:15:00",17.6,30.514282,0.208],
    [18929,"urn:WaterMeter:MC0203J22010600005","2024-04-27T01:30:00",17.6,30.52906,0.202],
    [18930,"urn:WaterMeter:MC0203J22010600005","2024-04-27T01:45:00",17.5,30.524794,0.213],
    [18931,"urn:WaterMeter:MC0203J22010600005","2024-04-27T02:00:00",17.5,30.478207,0.209],
    [18932,"urn:WaterMeter:MC0203J22010600005","2024-04-27T02:15:00",17.399,30.493763,0.213],
    [18933,"urn:WaterMeter:MC0203J22010600005","2024-04-27T02:30:00",17.399,30.493763,0.202],
    [18934,"urn:WaterMeter:MC0203J22010600005","2024-04-27T02:45:00",17.299,30.471264,0.205],
    [18935,"urn:WaterMeter:MC0203J22010600005","2024-04-27T03:00:00",17.2,30.471264,0.203],
    [18936,"urn:WaterMeter:MC0203J22010600005","2024-04-27T03:15:00",17.1,30.43709,0.202],
    [18937,"urn:WaterMeter:MC0203J22010600005","2024-04-27T03:30:00",17.1,30.454973,0.2],
    [18938,"urn:WaterMeter:MC0203J22010600005","2024-04-27T03:45:00",17,30.485228,0.2],
    [18939,"urn:WaterMeter:MC0203J22010600005","2024-04-27T04:00:00",16.899,30.461178,0.197],
    [18940,"urn:WaterMeter:MC0203J22010600005","2024-04-27T04:15:00",16.899,30.458813,0.207],
    [18941,"urn:WaterMeter:MC0203J22010600005","2024-04-27T04:30:00",16.799,30.461954,0.21],
    [18942,"urn:WaterMeter:MC0203J22010600005","2024-04-27T04:45:00",16.7,30.452644,0.203],
    [18943,"urn:WaterMeter:MC0203J22010600005","2024-04-27T05:00:00",16.6,30.430107,0.198],
    [18944,"urn:WaterMeter:MC0203J22010600005","2024-04-27T05:15:00",16.5,30.453808,0.202],
    [18945,"urn:WaterMeter:MC0203J22010600005","2024-04-27T05:30:00",16.399,30.436703,0.2],
    [18946,"urn:WaterMeter:MC0203J22010600005","2024-04-27T05:45:00",16.399,30.41463,0.206],
    [18947,"urn:WaterMeter:MC0203J22010600005","2024-04-27T06:00:00",16.299,30.443724,0.202],
    [18948,"urn:WaterMeter:MC0203J22010600005","2024-04-27T06:15:00",16.299,30.408037,0.202],
    [18949,"urn:WaterMeter:MC0203J22010600005","2024-04-27T06:30:00",16.299,30.422388,0.199],
    [18950,"urn:WaterMeter:MC0203J22010600005","2024-04-27T06:45:00",16.299,30.383598,0.213],
    [18951,"urn:WaterMeter:MC0203J22010600005","2024-04-27T07:00:00",16.399,30.408037,0.198],
    [18952,"urn:WaterMeter:MC0203J22010600005","2024-04-27T07:15:00",16.5,30.384375,0.197],
    [18953,"urn:WaterMeter:MC0203J22010600005","2024-04-27T07:30:00",16.6,30.365368,0.208],
    [18954,"urn:WaterMeter:MC0203J22010600005","2024-04-27T07:45:00",16.7,30.352917,0.208],
    [18955,"urn:WaterMeter:MC0203J22010600005","2024-04-27T08:00:00",16.799,30.383598,0.207],
    [18956,"urn:WaterMeter:MC0203J22010600005","2024-04-27T08:15:00",17,30.305632,0.204],
    [18957,"urn:WaterMeter:MC0203J22010600005","2024-04-27T08:30:00",17.2,30.293568,0.197],
    [18958,"urn:WaterMeter:MC0203J22010600005","2024-04-27T08:45:00",17.399,30.265251,0.193],
    [18959,"urn:WaterMeter:MC0203J22010600005","2024-04-27T09:00:00",17.5,30.240852,0.193],
    [18960,"urn:WaterMeter:MC0203J22010600005","2024-04-27T09:15:00",17.7,30.21331,0.197],
    [18961,"urn:WaterMeter:MC0203J22010600005","2024-04-27T09:30:00",17.799,30.188484,0.203],
    [18962,"urn:WaterMeter:MC0203J22010600005","2024-04-27T09:45:00",17.899,30.116335,0.197],
    [18963,"urn:WaterMeter:MC0203J22010600005","2024-04-27T10:00:00",18.1,30.10625,0.192],
    [18964,"urn:WaterMeter:MC0203J22010600005","2024-04-27T10:15:00",18.299,30.034101,0.203],
    [18965,"urn:WaterMeter:MC0203J22010600005","2024-04-27T10:30:00",18.5,29.963465,0.189],
    [18966,"urn:WaterMeter:MC0203J22010600005","2024-04-27T10:45:00",18.7,29.963465,0.193],
    [18967,"urn:WaterMeter:MC0203J22010600005","2024-04-27T11:00:00",18.899,29.893642,0.187],
    [18968,"urn:WaterMeter:MC0203J22010600005","2024-04-27T11:15:00",19,29.86265,0.202],
    [18969,"urn:WaterMeter:MC0203J22010600005","2024-04-27T11:30:00",19.2,29.86804,0.196],
    [18970,"urn:WaterMeter:MC0203J22010600005","2024-04-27T11:45:00",19.399,29.766449,0.195],
    [18971,"urn:WaterMeter:MC0203J22010600005","2024-04-27T12:00:00",19.6,29.721027,0.201],
    [18972,"urn:WaterMeter:MC0203J22010600005","2024-04-27T12:15:00",19.6,29.674091,0.186],
    [18973,"urn:WaterMeter:MC0203J22010600005","2024-04-27T12:30:00",19.7,29.59267,0.185],
    [18974,"urn:WaterMeter:MC0203J22010600005","2024-04-27T12:45:00",19.799,29.624052,0.19],
    [18975,"urn:WaterMeter:MC0203J22010600005","2024-04-27T13:00:00",19.899,29.51509,0.207],
    [18976,"urn:WaterMeter:MC0203J22010600005","2024-04-27T13:15:00",20,29.490652,0.191],
    [18977,"urn:WaterMeter:MC0203J22010600005","2024-04-27T13:30:00",20.2,29.459581,0.201],
    [18978,"urn:WaterMeter:MC0203J22010600005","2024-04-27T13:45:00",20.299,29.352135,0.187],
    [18979,"urn:WaterMeter:MC0203J22010600005","2024-04-27T14:00:00",20.399,29.300581,0.185],
    [18980,"urn:WaterMeter:MC0203J22010600005","2024-04-27T14:15:00",20.5,29.295113,0.188],
    [18981,"urn:WaterMeter:MC0203J22010600005","2024-04-27T14:30:00",20.6,29.221062,0.192],
    [18982,"urn:WaterMeter:MC0203J22010600005","2024-04-27T14:45:00",20.6,29.161715,0.187],
    [18983,"urn:WaterMeter:MC0203J22010600005","2024-04-27T15:00:00",20.6,29.131031,0.201],
    [18984,"urn:WaterMeter:MC0203J22010600005","2024-04-27T15:15:00",20.5,29.081379,0.201],
    [18985,"urn:WaterMeter:MC0203J22010600005","2024-04-27T15:30:00",20.399,29.05155,0.191],
    [18986,"urn:WaterMeter:MC0203J22010600005","2024-04-27T15:45:00",20.2,29.033669,0.188],
    [18987,"urn:WaterMeter:MC0203J22010600005","2024-04-27T16:00:00",20.2,29.03875,0.195],
    [18988,"urn:WaterMeter:MC0203J22010600005","2024-04-27T16:15:00",20.1,28.96854,0.197],
    [18989,"urn:WaterMeter:MC0203J22010600005","2024-04-27T16:30:00",20.1,28.960394,0.19],
    [18990,"urn:WaterMeter:MC0203J22010600005","2024-04-27T16:45:00",20,28.932465,0.183],
    [18991,"urn:WaterMeter:MC0203J22010600005","2024-04-27T17:00:00",20,28.868423,0.183],
    [18992,"urn:WaterMeter:MC0203J22010600005","2024-04-27T17:15:00",19.899,28.862642,0.193],
    [18993,"urn:WaterMeter:MC0203J22010600005","2024-04-27T17:30:00",19.899,28.83743,0.189],
    [18994,"urn:WaterMeter:MC0203J22010600005","2024-04-27T17:45:00",19.799,28.810238,0.187],
    [18995,"urn:WaterMeter:MC0203J22010600005","2024-04-27T18:00:00",19.7,28.81881,0.181],
    [18996,"urn:WaterMeter:MC0203J22010600005","2024-04-27T18:15:00",19.6,28.812992,0.198],
    [18997,"urn:WaterMeter:MC0203J22010600005","2024-04-27T18:30:00",19.5,28.782347,0.182],
    [18998,"urn:WaterMeter:MC0203J22010600005","2024-04-27T18:45:00",19.5,28.747824,0.193],
    [18999,"urn:WaterMeter:MC0203J22010600005","2024-04-27T19:00:00",19.399,28.74666,0.188],
    [19000,"urn:WaterMeter:MC0203J22010600005","2024-04-27T19:15:00",19.299,28.70981,0.192],
    [19001,"urn:WaterMeter:MC0203J22010600005","2024-04-27T19:30:00",19.2,28.71171,0.196],
    [19002,"urn:WaterMeter:MC0203J22010600005","2024-04-27T19:45:00",19.1,28.703566,0.182],
    [19003,"urn:WaterMeter:MC0203J22010600005","2024-04-27T20:00:00",19,28.716017,0.195],
    [19004,"urn:WaterMeter:MC0203J22010600005","2024-04-27T20:15:00",18.899,28.683783,0.188],
    [19005,"urn:WaterMeter:MC0203J22010600005","2024-04-27T20:30:00",18.799,28.691153,0.187],
    [19006,"urn:WaterMeter:MC0203J22010600005","2024-04-27T20:45:00",18.7,28.683044,0.183],
    [19007,"urn:WaterMeter:MC0203J22010600005","2024-04-27T21:00:00",18.6,28.69701,0.183],
    [19008,"urn:WaterMeter:MC0203J22010600005","2024-04-27T21:15:00",18.6,28.683783,0.183],
    [19009,"urn:WaterMeter:MC0203J22010600005","2024-04-27T21:30:00",18.5,28.679167,0.194],
    [19010,"urn:WaterMeter:MC0203J22010600005","2024-04-27T21:45:00",18.399,28.697397,0.182],
    [19011,"urn:WaterMeter:MC0203J22010600005","2024-04-27T22:00:00",18.299,28.671757,0.188],
    [19012,"urn:WaterMeter:MC0203J22010600005","2024-04-27T22:15:00",18.299,28.620205,0.184],
    [19013,"urn:WaterMeter:MC0203J22010600005","2024-04-27T22:30:00",18.2,28.628738,0.194],
    [19014,"urn:WaterMeter:MC0203J22010600005","2024-04-27T22:45:00",18.2,28.643867,0.199],
    [19015,"urn:WaterMeter:MC0203J22010600005","2024-04-27T23:00:00",18.1,28.627964,0.189],
    [19016,"urn:WaterMeter:MC0203J22010600005","2024-04-27T23:15:00",18,28.594177,0.181],
    [19017,"urn:WaterMeter:MC0203J22010600005","2024-04-27T23:30:00",17.899,28.607367,0.187],
    [19018,"urn:WaterMeter:MC0203J22010600005","2024-04-27T23:45:00",17.899,28.576334,0.186],
    [19019,"urn:WaterMeter:MC0203J22010600005","2024-04-28T00:00:00",17.799,28.627964,0.191],
    [19020,"urn:WaterMeter:MC0203J22010600005","2024-04-28T00:15:00",17.7,28.594564,0.183],
    [19021,"urn:WaterMeter:MC0203J22010600005","2024-04-28T00:30:00",17.6,28.551546,0.189],
    [19022,"urn:WaterMeter:MC0203J22010600005","2024-04-28T00:45:00",17.5,28.607792,0.203],
    [19023,"urn:WaterMeter:MC0203J22010600005","2024-04-28T01:00:00",17.399,28.580639,0.193],
    [19024,"urn:WaterMeter:MC0203J22010600005","2024-04-28T01:15:00",17.299,28.602362,0.188],
    [19025,"urn:WaterMeter:MC0203J22010600005","2024-04-28T01:30:00",17.2,28.528622,0.184],
    [19026,"urn:WaterMeter:MC0203J22010600005","2024-04-28T01:45:00",17.1,28.546892,0.197],
    [19027,"urn:WaterMeter:MC0203J22010600005","2024-04-28T02:00:00",17.1,28.551935,0.187],
    [19028,"urn:WaterMeter:MC0203J22010600005","2024-04-28T02:15:00",17,28.54185,0.181],
    [19029,"urn:WaterMeter:MC0203J22010600005","2024-04-28T02:30:00",16.899,28.52901,0.182],
    [19030,"urn:WaterMeter:MC0203J22010600005","2024-04-28T02:45:00",16.799,28.534092,0.188],
    [19031,"urn:WaterMeter:MC0203J22010600005","2024-04-28T03:00:00",16.7,28.531765,0.181],
    [19032,"urn:WaterMeter:MC0203J22010600005","2024-04-28T03:15:00",16.7,28.534868,0.18],
    [19033,"urn:WaterMeter:MC0203J22010600005","2024-04-28T03:30:00",16.6,28.535992,0.185],
    [19034,"urn:WaterMeter:MC0203J22010600005","2024-04-28T03:45:00",16.5,28.525946,0.185],
    [19035,"urn:WaterMeter:MC0203J22010600005","2024-04-28T04:00:00",16.5,28.529785,0.182],
    [19036,"urn:WaterMeter:MC0203J22010600005","2024-04-28T04:15:00",16.399,28.507715,0.185],
    [19037,"urn:WaterMeter:MC0203J22010600005","2024-04-28T04:30:00",16.299,28.512756,0.183],
    [19038,"urn:WaterMeter:MC0203J22010600005","2024-04-28T04:45:00",16.2,28.497202,0.177],
    [19039,"urn:WaterMeter:MC0203J22010600005","2024-04-28T05:00:00",16.1,28.483276,0.191],
    [19040,"urn:WaterMeter:MC0203J22010600005","2024-04-28T05:15:00",16.1,28.474743,0.182],
    [19041,"urn:WaterMeter:MC0203J22010600005","2024-04-28T05:30:00",16,28.471212,0.189],
    [19042,"urn:WaterMeter:MC0203J22010600005","2024-04-28T05:45:00",16,28.517761,0.181],
    [19043,"urn:WaterMeter:MC0203J22010600005","2024-04-28T06:00:00",15.899,28.435564,0.185],
    [19044,"urn:WaterMeter:MC0203J22010600005","2024-04-28T06:15:00",16,28.461903,0.18],
    [19045,"urn:WaterMeter:MC0203J22010600005","2024-04-28T06:30:00",16,28.475906,0.184],
    [19046,"urn:WaterMeter:MC0203J22010600005","2024-04-28T06:45:00",16,28.451818,0.181],
    [19047,"urn:WaterMeter:MC0203J22010600005","2024-04-28T07:00:00",16.1,28.43673,0.181],
    [19048,"urn:WaterMeter:MC0203J22010600005","2024-04-28T07:15:00",16.1,28.418497,0.183],
    [19049,"urn:WaterMeter:MC0203J22010600005","2024-04-28T07:30:00",16.1,28.40178,0.181],
    [19050,"urn:WaterMeter:MC0203J22010600005","2024-04-28T07:45:00",16.1,28.387854,0.179],
    [19051,"urn:WaterMeter:MC0203J22010600005","2024-04-28T08:00:00",16.1,28.382772,0.188],
    [19052,"urn:WaterMeter:MC0203J22010600005","2024-04-28T08:15:00",16.2,28.402555,0.177],
    [19053,"urn:WaterMeter:MC0203J22010600005","2024-04-28T08:30:00",16.299,28.340918,0.182],
    [19054,"urn:WaterMeter:MC0203J22010600005","2024-04-28T08:45:00",16.399,28.362213,0.181],
    [19055,"urn:WaterMeter:MC0203J22010600005","2024-04-28T09:00:00",16.399,28.32575,0.173],
    [19056,"urn:WaterMeter:MC0203J22010600005","2024-04-28T09:15:00",16.5,28.295494,0.18],
    [19057,"urn:WaterMeter:MC0203J22010600005","2024-04-28T09:30:00",16.6,28.30364,0.174],
    [19058,"urn:WaterMeter:MC0203J22010600005","2024-04-28T09:45:00",16.6,28.30364,0.18],
    [19059,"urn:WaterMeter:MC0203J22010600005","2024-04-28T10:00:00",16.6,28.259846,0.183],
    [19060,"urn:WaterMeter:MC0203J22010600005","2024-04-28T10:15:00",16.6,28.241615,0.189],
    [19061,"urn:WaterMeter:MC0203J22010600005","2024-04-28T10:30:00",16.6,28.200886,0.178],
    [19062,"urn:WaterMeter:MC0203J22010600005","2024-04-28T10:45:00",16.5,28.22028,0.178],
    [19063,"urn:WaterMeter:MC0203J22010600005","2024-04-28T11:00:00",16.5,28.197393,0.181],
    [19064,"urn:WaterMeter:MC0203J22010600005","2024-04-28T11:15:00",16.5,28.183817,0.179],
    [19065,"urn:WaterMeter:MC0203J22010600005","2024-04-28T11:30:00",16.5,28.19623,0.18],
    [19066,"urn:WaterMeter:MC0203J22010600005","2024-04-28T11:45:00",16.399,28.19623,0.181],
    [19067,"urn:WaterMeter:MC0203J22010600005","2024-04-28T12:00:00",16.5,28.143476,0.178],
    [19068,"urn:WaterMeter:MC0203J22010600005","2024-04-28T12:15:00",16.5,28.13727,0.174],
    [19069,"urn:WaterMeter:MC0203J22010600005","2024-04-28T12:30:00",16.5,28.14848,0.179],
    [19070,"urn:WaterMeter:MC0203J22010600005","2024-04-28T12:45:00",16.6,28.1318,0.176],
    [19071,"urn:WaterMeter:MC0203J22010600005","2024-04-28T13:00:00",16.6,28.12059,0.186],
    [19072,"urn:WaterMeter:MC0203J22010600005","2024-04-28T13:15:00",16.7,28.127184,0.178],
    [19073,"urn:WaterMeter:MC0203J22010600005","2024-04-28T13:30:00",16.7,28.115934,0.172],
    [19074,"urn:WaterMeter:MC0203J22010600005","2024-04-28T13:45:00",16.799,28.125244,0.18],
    [19075,"urn:WaterMeter:MC0203J22010600005","2024-04-28T14:00:00",16.799,28.129862,0.179],
    [19076,"urn:WaterMeter:MC0203J22010600005","2024-04-28T14:15:00",16.799,28.100807,0.171],
    [19077,"urn:WaterMeter:MC0203J22010600005","2024-04-28T14:30:00",16.899,28.108564,0.181],
    [19078,"urn:WaterMeter:MC0203J22010600005","2024-04-28T14:45:00",16.899,28.050768,0.179],
    [19079,"urn:WaterMeter:MC0203J22010600005","2024-04-28T15:00:00",17,28.053057,0.18],
    [19080,"urn:WaterMeter:MC0203J22010600005","2024-04-28T15:15:00",17,28.080637,0.174],
    [19081,"urn:WaterMeter:MC0203J22010600005","2024-04-28T15:30:00",17.1,27.997625,0.175],
    [19082,"urn:WaterMeter:MC0203J22010600005","2024-04-28T15:45:00",17.1,28.007324,0.173],
    [19083,"urn:WaterMeter:MC0203J22010600005","2024-04-28T16:00:00",17.1,28.018572,0.185],
    [19084,"urn:WaterMeter:MC0203J22010600005","2024-04-28T16:15:00",17.1,27.949915,0.173],
    [19085,"urn:WaterMeter:MC0203J22010600005","2024-04-28T16:30:00",17,27.995647,0.173],
    [19086,"urn:WaterMeter:MC0203J22010600005","2024-04-28T16:45:00",17,27.99685,0.18],
    [19087,"urn:WaterMeter:MC0203J22010600005","2024-04-28T17:00:00",16.899,27.943708,0.172],
    [19088,"urn:WaterMeter:MC0203J22010600005","2024-04-28T17:15:00",16.899,27.942156,0.18],
    [19089,"urn:WaterMeter:MC0203J22010600005","2024-04-28T17:30:00",16.799,27.946772,0.171],
    [19090,"urn:WaterMeter:MC0203J22010600005","2024-04-28T17:45:00",16.799,27.987152,0.175],
    [19091,"urn:WaterMeter:MC0203J22010600005","2024-04-28T18:00:00",16.799,27.92121,0.18],
    [19092,"urn:WaterMeter:MC0203J22010600005","2024-04-28T18:15:00",16.7,27.915352,0.187],
    [19093,"urn:WaterMeter:MC0203J22010600005","2024-04-28T18:30:00",16.7,27.915352,0.175],
    [19094,"urn:WaterMeter:MC0203J22010600005","2024-04-28T18:45:00",16.6,27.888975,0.183],
    [19095,"urn:WaterMeter:MC0203J22010600005","2024-04-28T19:00:00",16.6,27.877726,0.183],
    [19096,"urn:WaterMeter:MC0203J22010600005","2024-04-28T19:15:00",16.5,27.899448,0.173],
    [19097,"urn:WaterMeter:MC0203J22010600005","2024-04-28T19:30:00",16.5,27.899876,0.181],
    [19098,"urn:WaterMeter:MC0203J22010600005","2024-04-28T19:45:00",16.5,27.882807,0.176],
    [19099,"urn:WaterMeter:MC0203J22010600005","2024-04-28T20:00:00",16.5,27.879665,0.174],
    [19100,"urn:WaterMeter:MC0203J22010600005","2024-04-28T20:15:00",16.5,27.85449,0.173],
    [19101,"urn:WaterMeter:MC0203J22010600005","2024-04-28T20:30:00",16.399,27.879278,0.174],
    [19102,"urn:WaterMeter:MC0203J22010600005","2024-04-28T20:45:00",16.399,27.889362,0.171],
    [19103,"urn:WaterMeter:MC0203J22010600005","2024-04-28T21:00:00",16.399,27.86768,0.171],
    [19104,"urn:WaterMeter:MC0203J22010600005","2024-04-28T21:15:00",16.399,27.914616,0.188],
    [19105,"urn:WaterMeter:MC0203J22010600005","2024-04-28T21:30:00",16.299,27.866903,0.175],
    [19106,"urn:WaterMeter:MC0203J22010600005","2024-04-28T21:45:00",16.299,27.872334,0.177],
    [19107,"urn:WaterMeter:MC0203J22010600005","2024-04-28T22:00:00",16.299,27.863024,0.177],
    [19108,"urn:WaterMeter:MC0203J22010600005","2024-04-28T22:15:00",16.2,27.824234,0.174],
    [19109,"urn:WaterMeter:MC0203J22010600005","2024-04-28T22:30:00",16.2,27.840488,0.176],
    [19110,"urn:WaterMeter:MC0203J22010600005","2024-04-28T22:45:00",16.2,27.848673,0.182],
    [19111,"urn:WaterMeter:MC0203J22010600005","2024-04-28T23:00:00",16.1,27.84169,0.171],
    [19112,"urn:WaterMeter:MC0203J22010600005","2024-04-28T23:15:00",16.1,27.859495,0.172],
    [19113,"urn:WaterMeter:MC0203J22010600005","2024-04-28T23:30:00",16,27.857943,0.17],
    [19114,"urn:WaterMeter:MC0203J22010600005","2024-04-28T23:45:00",16,27.86225,0.179],
    [19115,"urn:WaterMeter:MC0203J22010600005","2024-04-29T00:00:00",16,27.845957,0.177],
    [19116,"urn:WaterMeter:MC0203J22010600005","2024-04-29T00:15:00",16,27.846344,0.179],
    [19117,"urn:WaterMeter:MC0203J22010600005","2024-04-29T00:30:00",15.899,27.820316,0.175],
    [19118,"urn:WaterMeter:MC0203J22010600005","2024-04-29T00:45:00",15.899,27.84169,0.172],
    [19119,"urn:WaterMeter:MC0203J22010600005","2024-04-29T01:00:00",15.899,27.8157,0.172],
    [19120,"urn:WaterMeter:MC0203J22010600005","2024-04-29T01:15:00",15.8,27.807167,0.17],
    [19121,"urn:WaterMeter:MC0203J22010600005","2024-04-29T01:30:00",15.8,27.796307,0.177],
    [19122,"urn:WaterMeter:MC0203J22010600005","2024-04-29T01:45:00",15.8,27.7901,0.176],
    [19123,"urn:WaterMeter:MC0203J22010600005","2024-04-29T02:00:00",15.699,27.840876,0.177],
    [19124,"urn:WaterMeter:MC0203J22010600005","2024-04-29T02:15:00",15.699,27.778074,0.175],
    [19125,"urn:WaterMeter:MC0203J22010600005","2024-04-29T02:30:00",15.699,27.804451,0.167],
    [19126,"urn:WaterMeter:MC0203J22010600005","2024-04-29T02:45:00",15.699,27.825397,0.17],
    [19127,"urn:WaterMeter:MC0203J22010600005","2024-04-29T03:00:00",15.6,27.804451,0.176],
    [19128,"urn:WaterMeter:MC0203J22010600005","2024-04-29T03:15:00",15.6,27.84906,0.172],
    [19129,"urn:WaterMeter:MC0203J22010600005","2024-04-29T03:30:00",15.6,27.809494,0.172],
    [19130,"urn:WaterMeter:MC0203J22010600005","2024-04-29T03:45:00",15.5,27.781527,0.17],
    [19131,"urn:WaterMeter:MC0203J22010600005","2024-04-29T04:00:00",15.5,27.79359,0.18],
    [19132,"urn:WaterMeter:MC0203J22010600005","2024-04-29T04:15:00",15.5,27.788935,0.17],
    [19133,"urn:WaterMeter:MC0203J22010600005","2024-04-29T04:30:00",15.5,27.807554,0.183],
    [19134,"urn:WaterMeter:MC0203J22010600005","2024-04-29T04:45:00",15.5,27.773808,0.179],
    [19135,"urn:WaterMeter:MC0203J22010600005","2024-04-29T05:00:00",15.399,27.8029,0.175],
    [19136,"urn:WaterMeter:MC0203J22010600005","2024-04-29T05:15:00",15.399,27.786608,0.175],
    [19137,"urn:WaterMeter:MC0203J22010600005","2024-04-29T05:30:00",15.3,27.786608,0.166],
    [19138,"urn:WaterMeter:MC0203J22010600005","2024-04-29T05:45:00",15.3,27.835484,0.169],
    [19139,"urn:WaterMeter:MC0203J22010600005","2024-04-29T06:00:00",15.3,27.78428,0.173],
    [19140,"urn:WaterMeter:MC0203J22010600005","2024-04-29T06:15:00",15.3,27.76252,0.186],
    [19141,"urn:WaterMeter:MC0203J22010600005","2024-04-29T06:30:00",15.3,27.795918,0.176],
    [19142,"urn:WaterMeter:MC0203J22010600005","2024-04-29T06:45:00",15.3,27.77183,0.178],
    [19143,"urn:WaterMeter:MC0203J22010600005","2024-04-29T07:00:00",15.399,27.789711,0.168],
    [19144,"urn:WaterMeter:MC0203J22010600005","2024-04-29T07:15:00",15.5,27.786997,0.177],
    [19145,"urn:WaterMeter:MC0203J22010600005","2024-04-29T07:30:00",15.6,27.75321,0.171],
    [19146,"urn:WaterMeter:MC0203J22010600005","2024-04-29T07:45:00",15.699,27.808718,0.167],
    [19147,"urn:WaterMeter:MC0203J22010600005","2024-04-29T08:00:00",15.699,27.769154,0.165],
    [19148,"urn:WaterMeter:MC0203J22010600005","2024-04-29T08:15:00",15.8,28.306744,0.184],
    [19149,"urn:WaterMeter:MC0203J22010600005","2024-04-29T08:30:00",15.8,29.753649,0.209],
    [19150,"urn:WaterMeter:MC0203J22010600005","2024-04-29T08:45:00",15.899,31.276157,0.211],
    [19151,"urn:WaterMeter:MC0203J22010600005","2024-04-29T09:00:00",16,32.286247,0.226],
    [19152,"urn:WaterMeter:MC0203J22010600005","2024-04-29T09:15:00",16.1,32.32892,0.219],
    [19153,"urn:WaterMeter:MC0203J22010600005","2024-04-29T09:30:00",16.1,32.19742,0.214],
    [19154,"urn:WaterMeter:MC0203J22010600005","2024-04-29T09:45:00",16.2,32.107388,0.22],
    [19155,"urn:WaterMeter:MC0203J22010600005","2024-04-29T10:00:00",16.299,32.058514,0.218],
    [19156,"urn:WaterMeter:MC0203J22010600005","2024-04-29T10:15:00",16.399,31.992996,0.223],
    [19157,"urn:WaterMeter:MC0203J22010600005","2024-04-29T10:30:00",16.6,31.928604,0.213],
    [19158,"urn:WaterMeter:MC0203J22010600005","2024-04-29T10:45:00",16.7,31.863438,0.212],
    [19159,"urn:WaterMeter:MC0203J22010600005","2024-04-29T11:00:00",16.899,31.832405,0.224],
    [19160,"urn:WaterMeter:MC0203J22010600005","2024-04-29T11:15:00",16.899,31.759054,0.208],
    [19161,"urn:WaterMeter:MC0203J22010600005","2024-04-29T11:30:00",16.899,31.745129,0.223],
    [19162,"urn:WaterMeter:MC0203J22010600005","2024-04-29T11:45:00",16.799,31.701683,0.213],
    [19163,"urn:WaterMeter:MC0203J22010600005","2024-04-29T12:00:00",16.7,31.652807,0.24],
    [19164,"urn:WaterMeter:MC0203J22010600005","2024-04-29T12:15:00",16.799,31.634188,0.209],
    [19165,"urn:WaterMeter:MC0203J22010600005","2024-04-29T12:30:00",17,31.594196,0.211],
    [19166,"urn:WaterMeter:MC0203J22010600005","2024-04-29T12:45:00",17,31.568634,0.206],
    [19167,"urn:WaterMeter:MC0203J22010600005","2024-04-29T13:00:00",17,31.476274,0.226],
    [19168,"urn:WaterMeter:MC0203J22010600005","2024-04-29T13:15:00",16.799,31.473986,0.208],
    [19169,"urn:WaterMeter:MC0203J22010600005","2024-04-29T13:30:00",16.6,31.494156,0.211],
    [19170,"urn:WaterMeter:MC0203J22010600005","2024-04-29T13:45:00",16.5,31.496058,0.215],
    [19171,"urn:WaterMeter:MC0203J22010600005","2024-04-29T14:00:00",16.5,31.461573,0.215],
    [19172,"urn:WaterMeter:MC0203J22010600005","2024-04-29T14:15:00",16.5,31.465801,0.216],
    [19173,"urn:WaterMeter:MC0203J22010600005","2024-04-29T14:30:00",16.5,31.463125,0.22],
    [19174,"urn:WaterMeter:MC0203J22010600005","2024-04-29T14:45:00",16.5,31.433643,0.213],
    [19175,"urn:WaterMeter:MC0203J22010600005","2024-04-29T15:00:00",16.6,31.42162,0.215],
    [19176,"urn:WaterMeter:MC0203J22010600005","2024-04-29T15:15:00",16.6,31.410757,0.207],
    [19177,"urn:WaterMeter:MC0203J22010600005","2024-04-29T15:30:00",16.7,31.379686,0.212],
    [19178,"urn:WaterMeter:MC0203J22010600005","2024-04-29T15:45:00",16.799,31.35839,0.219],
    [19179,"urn:WaterMeter:MC0203J22010600005","2024-04-29T16:00:00",16.7,31.35839,0.212],
    [19180,"urn:WaterMeter:MC0203J22010600005","2024-04-29T16:15:00",16.7,31.37546,0.201],
    [19181,"urn:WaterMeter:MC0203J22010600005","2024-04-29T16:30:00",16.6,31.357227,0.208],
    [19182,"urn:WaterMeter:MC0203J22010600005","2024-04-29T16:45:00",16.6,31.337444,0.21],
    [19183,"urn:WaterMeter:MC0203J22010600005","2024-04-29T17:00:00",16.6,31.327747,0.209],
    [19184,"urn:WaterMeter:MC0203J22010600005","2024-04-29T17:15:00",16.6,31.280811,0.212],
    [19185,"urn:WaterMeter:MC0203J22010600005","2024-04-29T17:30:00",16.6,31.302883,0.21],
    [19186,"urn:WaterMeter:MC0203J22010600005","2024-04-29T17:45:00",16.5,31.230385,0.208],
    [19187,"urn:WaterMeter:MC0203J22010600005","2024-04-29T18:00:00",16.5,31.288568,0.215],
    [19188,"urn:WaterMeter:MC0203J22010600005","2024-04-29T18:15:00",16.5,31.291634,0.203],
    [19189,"urn:WaterMeter:MC0203J22010600005","2024-04-29T18:30:00",16.399,31.270687,0.209],
    [19190,"urn:WaterMeter:MC0203J22010600005","2024-04-29T18:45:00",16,41.847206,0.283],
    [19191,"urn:WaterMeter:MC0203J22010600005","2024-04-29T19:00:00",15.8,41.915867,0.283],
    [19192,"urn:WaterMeter:MC0203J22010600005","2024-04-29T19:15:00",15.6,41.806477,0.254],
    [19193,"urn:WaterMeter:MC0203J22010600005","2024-04-29T19:30:00",15.5,41.893368,0.268],
    [19194,"urn:WaterMeter:MC0203J22010600005","2024-04-29T19:45:00",15.5,41.85613,0.27],
    [19195,"urn:WaterMeter:MC0203J22010600005","2024-04-29T20:00:00",15.399,41.951553,0.263],
    [19196,"urn:WaterMeter:MC0203J22010600005","2024-04-29T20:15:00",15.399,42.044262,0.255],
    [19197,"urn:WaterMeter:MC0203J22010600005","2024-04-29T20:30:00",15.199,42.1777,0.251],
    [19198,"urn:WaterMeter:MC0203J22010600005","2024-04-29T20:45:00",15.1,41.63464,0.258],
    [19199,"urn:WaterMeter:MC0203J22010600005","2024-04-29T21:00:00",15.1,41.600464,0.248],
    [19200,"urn:WaterMeter:MC0203J22010600005","2024-04-29T21:15:00",15.1,40.807247,0.229],
    [19201,"urn:WaterMeter:MC0203J22010600005","2024-04-29T21:30:00",15.1,40.574894,0.225],
    [19202,"urn:WaterMeter:MC0203J22010600005","2024-04-29T21:45:00",15.1,39.675354,0.23],
    [19203,"urn:WaterMeter:MC0203J22010600005","2024-04-29T22:00:00",15.1,38.742844,0.233],
    [19204,"urn:WaterMeter:MC0203J22010600005","2024-04-29T22:15:00",15.1,38.166424,0.229],
    [19205,"urn:WaterMeter:MC0203J22010600005","2024-04-29T22:30:00",15.1,37.759907,0.218],
    [19206,"urn:WaterMeter:MC0203J22010600005","2024-04-29T22:45:00",15.1,37.346405,0.213],
    [19207,"urn:WaterMeter:MC0203J22010600005","2024-04-29T23:00:00",15,36.94299,0.22],
    [19208,"urn:WaterMeter:MC0203J22010600005","2024-04-29T23:15:00",15,35.670677,0.212],
    [19209,"urn:WaterMeter:MC0203J22010600005","2024-04-29T23:30:00",14.899,35.06982,0.207],
    [19210,"urn:WaterMeter:MC0203J22010600005","2024-04-29T23:45:00",14.899,34.90457,0.213],
    [19211,"urn:WaterMeter:MC0203J22010600005","2024-04-30T00:00:00",14.8,34.728466,0.202],
    [19212,"urn:WaterMeter:MC0203J22010600005","2024-04-30T00:15:00",14.699,34.594254,0.217],
    [19213,"urn:WaterMeter:MC0203J22010600005","2024-04-30T00:30:00",14.699,34.459652,0.204],
    [19214,"urn:WaterMeter:MC0203J22010600005","2024-04-30T00:45:00",14.6,34.415005,0.205],
    [19215,"urn:WaterMeter:MC0203J22010600005","2024-04-30T01:00:00",14.6,34.323887,0.2],
    [19216,"urn:WaterMeter:MC0203J22010600005","2024-04-30T01:15:00",14.5,34.233894,0.203],
    [19217,"urn:WaterMeter:MC0203J22010600005","2024-04-30T01:30:00",14.399,34.080673,0.208],
    [19218,"urn:WaterMeter:MC0203J22010600005","2024-04-30T01:45:00",14.399,34.10546,0.202],
    [19219,"urn:WaterMeter:MC0203J22010600005","2024-04-30T02:00:00",14.399,33.975166,0.211],
    [19220,"urn:WaterMeter:MC0203J22010600005","2024-04-30T02:15:00",14.3,33.88901,0.209],
    [19221,"urn:WaterMeter:MC0203J22010600005","2024-04-30T02:30:00",14.3,33.80992,0.201],
    [19222,"urn:WaterMeter:MC0203J22010600005","2024-04-30T02:45:00",14.3,33.764885,0.203],
    [19223,"urn:WaterMeter:MC0203J22010600005","2024-04-30T03:00:00",14.199,33.734627,0.201],
    [19224,"urn:WaterMeter:MC0203J22010600005","2024-04-30T03:15:00",14.199,33.664845,0.202],
    [19225,"urn:WaterMeter:MC0203J22010600005","2024-04-30T03:30:00",14.199,33.579857,0.207],
    [19226,"urn:WaterMeter:MC0203J22010600005","2024-04-30T03:45:00",14.1,33.538002,0.205],
    [19227,"urn:WaterMeter:MC0203J22010600005","2024-04-30T04:00:00",14.1,33.43327,0.2],
    [19228,"urn:WaterMeter:MC0203J22010600005","2024-04-30T04:15:00",14.1,33.420856,0.201],
    [19229,"urn:WaterMeter:MC0203J22010600005","2024-04-30T04:30:00",14.1,33.358753,0.199],
    [19230,"urn:WaterMeter:MC0203J22010600005","2024-04-30T04:45:00",14,33.321167,0.201],
    [19231,"urn:WaterMeter:MC0203J22010600005","2024-04-30T05:00:00",13.899,33.295563,0.2],
    [19232,"urn:WaterMeter:MC0203J22010600005","2024-04-30T05:15:00",13.899,33.25247,0.198],
    [19233,"urn:WaterMeter:MC0203J22010600005","2024-04-30T05:30:00",13.899,33.200916,0.204],
    [19234,"urn:WaterMeter:MC0203J22010600005","2024-04-30T05:45:00",13.899,33.173336,0.196],
    [19235,"urn:WaterMeter:MC0203J22010600005","2024-04-30T06:00:00",13.899,33.127216,0.2],
    [19236,"urn:WaterMeter:MC0203J22010600005","2024-04-30T06:15:00",13.899,33.125626,0.198],
    [19237,"urn:WaterMeter:MC0203J22010600005","2024-04-30T06:30:00",13.899,33.007744,0.199],
    [19238,"urn:WaterMeter:MC0203J22010600005","2024-04-30T06:45:00",14,32.992226,0.205],
    [19239,"urn:WaterMeter:MC0203J22010600005","2024-04-30T07:00:00",14.1,32.968563,0.196],
    [19240,"urn:WaterMeter:MC0203J22010600005","2024-04-30T07:15:00",14,32.909214,0.199],
    [19241,"urn:WaterMeter:MC0203J22010600005","2024-04-30T07:30:00",14,32.869263,0.201],
    [19242,"urn:WaterMeter:MC0203J22010600005","2024-04-30T07:45:00",14,32.87547,0.195],
    [19243,"urn:WaterMeter:MC0203J22010600005","2024-04-30T08:00:00",14.1,32.855297,0.199],
    [19244,"urn:WaterMeter:MC0203J22010600005","2024-04-30T08:15:00",14.1,32.778492,0.207],
    [19245,"urn:WaterMeter:MC0203J22010600005","2024-04-30T08:30:00",14.199,32.778107,0.195],
    [19246,"urn:WaterMeter:MC0203J22010600005","2024-04-30T08:45:00",14.3,32.72764,0.2],
    [19247,"urn:WaterMeter:MC0203J22010600005","2024-04-30T09:00:00",14.3,32.678764,0.2],
    [19248,"urn:WaterMeter:MC0203J22010600005","2024-04-30T09:15:00",14.399,32.617516,0.196],
    [19249,"urn:WaterMeter:MC0203J22010600005","2024-04-30T09:30:00",14.6,32.579887,0.196],
    [19250,"urn:WaterMeter:MC0203J22010600005","2024-04-30T09:45:00",14.699,32.561657,0.194],
    [19251,"urn:WaterMeter:MC0203J22010600005","2024-04-30T10:00:00",14.8,32.501534,0.191],
    [19252,"urn:WaterMeter:MC0203J22010600005","2024-04-30T10:15:00",14.899,32.474728,0.196],
    [19253,"urn:WaterMeter:MC0203J22010600005","2024-04-30T10:30:00",14.899,32.408398,0.189],
    [19254,"urn:WaterMeter:MC0203J22010600005","2024-04-30T10:45:00",15,32.369606,0.188],
    [19255,"urn:WaterMeter:MC0203J22010600005","2024-04-30T11:00:00",15.3,32.36577,0.19],
    [19256,"urn:WaterMeter:MC0203J22010600005","2024-04-30T11:15:00",15.5,32.30254,0.191],
    [19257,"urn:WaterMeter:MC0203J22010600005","2024-04-30T11:30:00",15.5,32.249786,0.195],
    [19258,"urn:WaterMeter:MC0203J22010600005","2024-04-30T11:45:00",15.6,32.164795,0.194],
    [19259,"urn:WaterMeter:MC0203J22010600005","2024-04-30T12:00:00",15.699,32.1691,0.188],
    [19260,"urn:WaterMeter:MC0203J22010600005","2024-04-30T12:15:00",15.8,32.068596,0.193],
    [19261,"urn:WaterMeter:MC0203J22010600005","2024-04-30T12:30:00",15.8,32.0345,0.196],
    [19262,"urn:WaterMeter:MC0203J22010600005","2024-04-30T12:45:00",16,31.955757,0.185],
    [19263,"urn:WaterMeter:MC0203J22010600005","2024-04-30T13:00:00",16.1,31.937914,0.188],
    [19264,"urn:WaterMeter:MC0203J22010600005","2024-04-30T13:15:00",16.2,31.885548,0.186],
    [19265,"urn:WaterMeter:MC0203J22010600005","2024-04-30T13:30:00",16.299,31.830078,0.19],
    [19266,"urn:WaterMeter:MC0203J22010600005","2024-04-30T13:45:00",16.5,31.765299,0.19],
    [19267,"urn:WaterMeter:MC0203J22010600005","2024-04-30T14:00:00",16.6,31.72069,0.19],
    [19268,"urn:WaterMeter:MC0203J22010600005","2024-04-30T14:15:00",16.7,31.676857,0.192],
    [19269,"urn:WaterMeter:MC0203J22010600005","2024-04-30T14:30:00",16.899,31.63574,0.194],
    [19270,"urn:WaterMeter:MC0203J22010600005","2024-04-30T14:45:00",16.899,31.570185,0.186],
    [19271,"urn:WaterMeter:MC0203J22010600005","2024-04-30T15:00:00",17,31.533335,0.189],
    [19272,"urn:WaterMeter:MC0203J22010600005","2024-04-30T15:15:00",17,31.491053,0.192],
    [19273,"urn:WaterMeter:MC0203J22010600005","2024-04-30T15:30:00",17.1,31.453426,0.189],
    [19274,"urn:WaterMeter:MC0203J22010600005","2024-04-30T15:45:00",17.2,31.359903,0.198],
    [19275,"urn:WaterMeter:MC0203J22010600005","2024-04-30T16:00:00",17.2,31.371153,0.194],
    [19276,"urn:WaterMeter:MC0203J22010600005","2024-04-30T16:15:00",17.2,31.312193,0.196],
    [19277,"urn:WaterMeter:MC0203J22010600005","2024-04-30T16:30:00",17.2,31.288181,0.198],
    [19278,"urn:WaterMeter:MC0203J22010600005","2024-04-30T16:45:00",17.2,31.224527,0.193],
    [19279,"urn:WaterMeter:MC0203J22010600005","2024-04-30T17:00:00",17.2,31.21642,0.183],
    [19280,"urn:WaterMeter:MC0203J22010600005","2024-04-30T17:15:00",17.2,31.19237,0.196],
    [19281,"urn:WaterMeter:MC0203J22010600005","2024-04-30T17:30:00",17.2,31.15164,0.191],
    [19282,"urn:WaterMeter:MC0203J22010600005","2024-04-30T17:45:00",17.299,31.136086,0.193],
    [19283,"urn:WaterMeter:MC0203J22010600005","2024-04-30T18:00:00",17.299,31.124876,0.186],
    [19284,"urn:WaterMeter:MC0203J22010600005","2024-04-30T18:15:00",17.299,31.08182,0.181],
    [19285,"urn:WaterMeter:MC0203J22010600005","2024-04-30T18:30:00",17.299,31.120996,0.181],
    [19286,"urn:WaterMeter:MC0203J22010600005","2024-04-30T18:45:00",17.2,31.079065,0.189],
    [19287,"urn:WaterMeter:MC0203J22010600005","2024-04-30T19:00:00",17.1,31.057343,0.187],
    [19288,"urn:WaterMeter:MC0203J22010600005","2024-04-30T19:15:00",17,30.999157,0.187],
    [19289,"urn:WaterMeter:MC0203J22010600005","2024-04-30T19:30:00",16.799,31.022043,0.202],
    [19290,"urn:WaterMeter:MC0203J22010600005","2024-04-30T19:45:00",16.7,31.02441,0.193],
    [19291,"urn:WaterMeter:MC0203J22010600005","2024-04-30T20:00:00",16.7,31.01157,0.198],
    [19292,"urn:WaterMeter:MC0203J22010600005","2024-04-30T20:15:00",16.6,30.98368,0.192],
    [19293,"urn:WaterMeter:MC0203J22010600005","2024-04-30T20:30:00",16.6,30.963858,0.19],
    [19294,"urn:WaterMeter:MC0203J22010600005","2024-04-30T20:45:00",16.5,30.98368,0.195],
    [19295,"urn:WaterMeter:MC0203J22010600005","2024-04-30T21:00:00",16.399,30.99295,0.193],
    [19296,"urn:WaterMeter:MC0203J22010600005","2024-04-30T21:15:00",16.299,30.950321,0.192],
    [19297,"urn:WaterMeter:MC0203J22010600005","2024-04-30T21:30:00",16.2,30.964672,0.186],
    [19298,"urn:WaterMeter:MC0203J22010600005","2024-04-30T21:45:00",16.1,30.974758,0.192],
    [19299,"urn:WaterMeter:MC0203J22010600005","2024-04-30T22:00:00",16.1,30.951096,0.193],
    [19300,"urn:WaterMeter:MC0203J22010600005","2024-04-30T22:15:00",16,30.930925,0.191],
    [19301,"urn:WaterMeter:MC0203J22010600005","2024-04-30T22:30:00",15.899,30.94136,0.191],
    [19302,"urn:WaterMeter:MC0203J22010600005","2024-04-30T22:45:00",15.8,30.936745,0.191],
    [19303,"urn:WaterMeter:MC0203J22010600005","2024-04-30T23:00:00",15.6,30.939459,0.192],
    [19304,"urn:WaterMeter:MC0203J22010600005","2024-04-30T23:15:00",15.5,30.931702,0.203],
    [19305,"urn:WaterMeter:MC0203J22010600005","2024-04-30T23:30:00",15.399,30.944464,0.188],
    [19306,"urn:WaterMeter:MC0203J22010600005","2024-04-30T23:45:00",15.3,30.898342,0.183],
    [19307,"urn:WaterMeter:MC0203J22010600005","2024-05-01T00:00:00",15.199,30.932865,0.197],
    [19308,"urn:WaterMeter:MC0203J22010600005","2024-05-01T00:15:00",15.1,30.939459,0.191],
    [19309,"urn:WaterMeter:MC0203J22010600005","2024-05-01T00:30:00",15.1,30.932089,0.187],
    [19310,"urn:WaterMeter:MC0203J22010600005","2024-05-01T00:45:00",15.1,30.948769,0.191],
    [19311,"urn:WaterMeter:MC0203J22010600005","2024-05-01T01:00:00",15,30.928986,0.189],
    [19312,"urn:WaterMeter:MC0203J22010600005","2024-05-01T01:15:00",15,30.916962,0.197],
    [19313,"urn:WaterMeter:MC0203J22010600005","2024-05-01T01:30:00",15,30.928211,0.186],
    [19314,"urn:WaterMeter:MC0203J22010600005","2024-05-01T01:45:00",15,30.887869,0.189],
    [19315,"urn:WaterMeter:MC0203J22010600005","2024-05-01T02:00:00",15,30.893686,0.189],
    [19316,"urn:WaterMeter:MC0203J22010600005","2024-05-01T02:15:00",15,30.902958,0.196],
    [19317,"urn:WaterMeter:MC0203J22010600005","2024-05-01T02:30:00",15,30.86925,0.186],
    [19318,"urn:WaterMeter:MC0203J22010600005","2024-05-01T02:45:00",14.899,30.883175,0.197],
    [19319,"urn:WaterMeter:MC0203J22010600005","2024-05-01T03:00:00",14.899,30.882439,0.187],
    [19320,"urn:WaterMeter:MC0203J22010600005","2024-05-01T03:15:00",14.899,30.862267,0.196],
    [19321,"urn:WaterMeter:MC0203J22010600005","2024-05-01T03:30:00",14.899,30.890196,0.194],
    [19322,"urn:WaterMeter:MC0203J22010600005","2024-05-01T03:45:00",14.8,30.85257,0.183],
    [19323,"urn:WaterMeter:MC0203J22010600005","2024-05-01T04:00:00",14.8,30.864944,0.196],
    [19324,"urn:WaterMeter:MC0203J22010600005","2024-05-01T04:15:00",14.699,30.90067,0.189],
    [19325,"urn:WaterMeter:MC0203J22010600005","2024-05-01T04:30:00",14.699,30.858389,0.191],
    [19326,"urn:WaterMeter:MC0203J22010600005","2024-05-01T04:45:00",14.699,30.852182,0.182],
    [19327,"urn:WaterMeter:MC0203J22010600005","2024-05-01T05:00:00",14.6,30.85257,0.19],
    [19328,"urn:WaterMeter:MC0203J22010600005","2024-05-01T05:15:00",14.6,30.845936,0.192],
    [19329,"urn:WaterMeter:MC0203J22010600005","2024-05-01T05:30:00",14.5,30.880886,0.189],
    [19330,"urn:WaterMeter:MC0203J22010600005","2024-05-01T05:45:00",14.5,30.794384,0.19],
    [19331,"urn:WaterMeter:MC0203J22010600005","2024-05-01T06:00:00",14.5,30.855286,0.187],
    [19332,"urn:WaterMeter:MC0203J22010600005","2024-05-01T06:15:00",14.5,30.805206,0.192],
    [19333,"urn:WaterMeter:MC0203J22010600005","2024-05-01T06:30:00",14.6,30.805595,0.195],
    [19334,"urn:WaterMeter:MC0203J22010600005","2024-05-01T06:45:00",14.699,30.808699,0.189],
    [19335,"urn:WaterMeter:MC0203J22010600005","2024-05-01T07:00:00",14.699,30.74935,0.187],
    [19336,"urn:WaterMeter:MC0203J22010600005","2024-05-01T07:15:00",14.8,30.778442,0.191],
    [19337,"urn:WaterMeter:MC0203J22010600005","2024-05-01T07:30:00",15,30.881662,0.19],
    [19338,"urn:WaterMeter:MC0203J22010600005","2024-05-01T07:45:00",15.199,31.42511,0.196],
    [19339,"urn:WaterMeter:MC0203J22010600005","2024-05-01T08:00:00",15.3,32.358746,0.202],
    [19340,"urn:WaterMeter:MC0203J22010600005","2024-05-01T08:15:00",15.399,33.626442,0.212],
    [19341,"urn:WaterMeter:MC0203J22010600005","2024-05-01T08:30:00",15.5,34.607014,0.222],
    [19342,"urn:WaterMeter:MC0203J22010600005","2024-05-01T08:45:00",15.6,35.312645,0.237],
    [19343,"urn:WaterMeter:MC0203J22010600005","2024-05-01T09:00:00",15.699,35.881306,0.249],
    [19344,"urn:WaterMeter:MC0203J22010600005","2024-05-01T09:15:00",15.8,35.08223,0.229],
    [19345,"urn:WaterMeter:MC0203J22010600005","2024-05-01T09:30:00",15.699,34.425476,0.22],
    [19346,"urn:WaterMeter:MC0203J22010600005","2024-05-01T09:45:00",15.5,34.092697,0.214],
    [19347,"urn:WaterMeter:MC0203J22010600005","2024-05-01T10:00:00",15.399,33.873924,0.217],
    [19348,"urn:WaterMeter:MC0203J22010600005","2024-05-01T10:15:00",15.399,33.792423,0.227],
    [19349,"urn:WaterMeter:MC0203J22010600005","2024-05-01T10:30:00",15.399,33.693935,0.213],
    [19350,"urn:WaterMeter:MC0203J22010600005","2024-05-01T10:45:00",15.3,33.579468,0.213],
    [19351,"urn:WaterMeter:MC0203J22010600005","2024-05-01T11:00:00",15.3,33.509296,0.216],
    [19352,"urn:WaterMeter:MC0203J22010600005","2024-05-01T11:15:00",15.199,33.42586,0.214],
    [19353,"urn:WaterMeter:MC0203J22010600005","2024-05-01T11:30:00",15.199,33.37776,0.203],
    [19354,"urn:WaterMeter:MC0203J22010600005","2024-05-01T11:45:00",15.199,33.300957,0.21],
    [19355,"urn:WaterMeter:MC0203J22010600005","2024-05-01T12:00:00",15.199,33.234276,0.218],
    [19356,"urn:WaterMeter:MC0203J22010600005","2024-05-01T12:15:00",15.199,33.23152,0.221],
    [19357,"urn:WaterMeter:MC0203J22010600005","2024-05-01T12:30:00",15.3,33.215267,0.21],
    [19358,"urn:WaterMeter:MC0203J22010600005","2024-05-01T12:45:00",15.399,33.081444,0.211],
    [19359,"urn:WaterMeter:MC0203J22010600005","2024-05-01T13:00:00",15.5,33.049637,0.215],
    [19360,"urn:WaterMeter:MC0203J22010600005","2024-05-01T13:15:00",15.699,33.00231,0.214],
    [19361,"urn:WaterMeter:MC0203J22010600005","2024-05-01T13:30:00",15.699,32.93598,0.214],
    [19362,"urn:WaterMeter:MC0203J22010600005","2024-05-01T13:45:00",15.8,32.799828,0.204],
    [19363,"urn:WaterMeter:MC0203J22010600005","2024-05-01T14:00:00",15.899,32.74203,0.21],
    [19364,"urn:WaterMeter:MC0203J22010600005","2024-05-01T14:15:00",16,32.709835,0.222],
    [19365,"urn:WaterMeter:MC0203J22010600005","2024-05-01T14:30:00",16,32.68885,0.213],
    [19366,"urn:WaterMeter:MC0203J22010600005","2024-05-01T14:45:00",16.1,32.584156,0.202],
    [19367,"urn:WaterMeter:MC0203J22010600005","2024-05-01T15:00:00",16.1,32.53214,0.211],
    [19368,"urn:WaterMeter:MC0203J22010600005","2024-05-01T15:15:00",16.2,32.514294,0.202],
    [19369,"urn:WaterMeter:MC0203J22010600005","2024-05-01T15:30:00",16.299,32.453434,0.205],
    [19370,"urn:WaterMeter:MC0203J22010600005","2024-05-01T15:45:00",16.299,32.36499,0.212],
    [19371,"urn:WaterMeter:MC0203J22010600005","2024-05-01T16:00:00",16.299,32.37469,0.201],
    [19372,"urn:WaterMeter:MC0203J22010600005","2024-05-01T16:15:00",16,32.315727,0.204],
    [19373,"urn:WaterMeter:MC0203J22010600005","2024-05-01T16:30:00",15.8,32.25871,0.21],
    [19374,"urn:WaterMeter:MC0203J22010600005","2024-05-01T16:45:00",15.8,32.245132,0.204],
    [19375,"urn:WaterMeter:MC0203J22010600005","2024-05-01T17:00:00",15.699,32.165573,0.205],
    [19376,"urn:WaterMeter:MC0203J22010600005","2024-05-01T17:15:00",15.699,32.200523,0.2],
    [19377,"urn:WaterMeter:MC0203J22010600005","2024-05-01T17:30:00",15.6,32.144238,0.208],
    [19378,"urn:WaterMeter:MC0203J22010600005","2024-05-01T17:45:00",15.6,32.1307,0.202],
    [19379,"urn:WaterMeter:MC0203J22010600005","2024-05-01T18:00:00",15.6,32.111694,0.198],
    [19380,"urn:WaterMeter:MC0203J22010600005","2024-05-01T18:15:00",15.5,32.03528,0.205],
    [19381,"urn:WaterMeter:MC0203J22010600005","2024-05-01T18:30:00",15.5,32.00925,0.197],
    [19382,"urn:WaterMeter:MC0203J22010600005","2024-05-01T18:45:00",15.399,32.00192,0.199],
    [19383,"urn:WaterMeter:MC0203J22010600005","2024-05-01T19:00:00",15.3,32.020885,0.208],
    [19384,"urn:WaterMeter:MC0203J22010600005","2024-05-01T19:15:00",15.3,31.967394,0.207],
    [19385,"urn:WaterMeter:MC0203J22010600005","2024-05-01T19:30:00",15.199,31.942919,0.204],
    [19386,"urn:WaterMeter:MC0203J22010600005","2024-05-01T19:45:00",15.1,31.901064,0.198],
    [19387,"urn:WaterMeter:MC0203J22010600005","2024-05-01T20:00:00",15.1,31.881668,0.2],
    [19388,"urn:WaterMeter:MC0203J22010600005","2024-05-01T20:15:00",15,31.849085,0.202],
    [19389,"urn:WaterMeter:MC0203J22010600005","2024-05-01T20:30:00",15,31.92391,0.203],
    [19390,"urn:WaterMeter:MC0203J22010600005","2024-05-01T20:45:00",14.899,31.86111,0.201],
    [19391,"urn:WaterMeter:MC0203J22010600005","2024-05-01T21:00:00",14.899,31.823484,0.202],
    [19392,"urn:WaterMeter:MC0203J22010600005","2024-05-01T21:15:00",14.8,31.817665,0.199],
    [19393,"urn:WaterMeter:MC0203J22010600005","2024-05-01T21:30:00",14.699,31.823872,0.206],
    [19394,"urn:WaterMeter:MC0203J22010600005","2024-05-01T21:45:00",14.699,31.795904,0.194],
    [19395,"urn:WaterMeter:MC0203J22010600005","2024-05-01T22:00:00",14.6,31.779652,0.197],
    [19396,"urn:WaterMeter:MC0203J22010600005","2024-05-01T22:15:00",14.5,31.779263,0.201],
    [19397,"urn:WaterMeter:MC0203J22010600005","2024-05-01T22:30:00",14.399,31.803701,0.209],
    [19398,"urn:WaterMeter:MC0203J22010600005","2024-05-01T22:45:00",14.3,31.785856,0.197],
    [19399,"urn:WaterMeter:MC0203J22010600005","2024-05-01T23:00:00",14.199,31.807968,0.199],
    [19400,"urn:WaterMeter:MC0203J22010600005","2024-05-01T23:15:00",14.1,31.729185,0.194],
    [19401,"urn:WaterMeter:MC0203J22010600005","2024-05-01T23:30:00",14,31.786982,0.205],
    [19402,"urn:WaterMeter:MC0203J22010600005","2024-05-01T23:45:00",13.899,31.821156,0.202],
    [19403,"urn:WaterMeter:MC0203J22010600005","2024-05-02T00:00:00",13.8,31.788572,0.198],
    [19404,"urn:WaterMeter:MC0203J22010600005","2024-05-02T00:15:00",13.8,31.833141,0.203],
    [19405,"urn:WaterMeter:MC0203J22010600005","2024-05-02T00:30:00",13.699,31.795904,0.198],
    [19406,"urn:WaterMeter:MC0203J22010600005","2024-05-02T00:45:00",13.6,31.79668,0.197],
    [19407,"urn:WaterMeter:MC0203J22010600005","2024-05-02T01:00:00",13.5,31.748968,0.201],
    [19408,"urn:WaterMeter:MC0203J22010600005","2024-05-02T01:15:00",13.3,31.741636,0.193],
    [19409,"urn:WaterMeter:MC0203J22010600005","2024-05-02T01:30:00",13.3,31.68578,0.203],
    [19410,"urn:WaterMeter:MC0203J22010600005","2024-05-02T01:45:00",13.199,31.706726,0.193],
    [19411,"urn:WaterMeter:MC0203J22010600005","2024-05-02T02:00:00",13,31.69509,0.197],
    [19412,"urn:WaterMeter:MC0203J22010600005","2024-05-02T02:15:00",12.899,31.757114,0.196],
    [19413,"urn:WaterMeter:MC0203J22010600005","2024-05-02T02:30:00",12.8,31.658976,0.203],
    [19414,"urn:WaterMeter:MC0203J22010600005","2024-05-02T02:45:00",12.699,31.662893,0.197],
    [19415,"urn:WaterMeter:MC0203J22010600005","2024-05-02T03:00:00",12.6,31.61204,0.199],
    [19416,"urn:WaterMeter:MC0203J22010600005","2024-05-02T03:15:00",12.5,31.616734,0.195],
    [19417,"urn:WaterMeter:MC0203J22010600005","2024-05-02T03:30:00",12.399,31.64505,0.195],
    [19418,"urn:WaterMeter:MC0203J22010600005","2024-05-02T03:45:00",12.399,31.617897,0.216],
    [19419,"urn:WaterMeter:MC0203J22010600005","2024-05-02T04:00:00",12.3,31.67608,0.204],
    [19420,"urn:WaterMeter:MC0203J22010600005","2024-05-02T04:15:00",12.199,31.642683,0.202],
    [19421,"urn:WaterMeter:MC0203J22010600005","2024-05-02T04:30:00",12.1,31.597338,0.206],
    [19422,"urn:WaterMeter:MC0203J22010600005","2024-05-02T04:45:00",12,31.62096,0.202],
    [19423,"urn:WaterMeter:MC0203J22010600005","2024-05-02T05:00:00",11.899,31.65238,0.209],
    [19424,"urn:WaterMeter:MC0203J22010600005","2024-05-02T05:15:00",11.8,31.630697,0.195],
    [19425,"urn:WaterMeter:MC0203J22010600005","2024-05-02T05:30:00",11.699,31.611301,0.203],
    [19426,"urn:WaterMeter:MC0203J22010600005","2024-05-02T05:45:00",11.699,31.566694,0.2],
    [19427,"urn:WaterMeter:MC0203J22010600005","2024-05-02T06:00:00",11.699,31.598114,0.201],
    [19428,"urn:WaterMeter:MC0203J22010600005","2024-05-02T06:15:00",11.6,31.578331,0.203],
    [19429,"urn:WaterMeter:MC0203J22010600005","2024-05-02T06:30:00",11.6,31.573637,0.196],
    [19430,"urn:WaterMeter:MC0203J22010600005","2024-05-02T06:45:00",11.699,31.599277,0.205],
    [19431,"urn:WaterMeter:MC0203J22010600005","2024-05-02T07:00:00",11.8,31.558935,0.204],
    [19432,"urn:WaterMeter:MC0203J22010600005","2024-05-02T07:15:00",12,31.544157,0.209],
    [19433,"urn:WaterMeter:MC0203J22010600005","2024-05-02T07:30:00",12.199,31.561613,0.193],
    [19434,"urn:WaterMeter:MC0203J22010600005","2024-05-02T07:45:00",12.399,31.547298,0.191],
    [19435,"urn:WaterMeter:MC0203J22010600005","2024-05-02T08:00:00",12.6,31.483295,0.21],
    [19436,"urn:WaterMeter:MC0203J22010600005","2024-05-02T08:15:00",12.8,31.429338,0.199],
    [19437,"urn:WaterMeter:MC0203J22010600005","2024-05-02T08:30:00",12.899,31.418089,0.203],
    [19438,"urn:WaterMeter:MC0203J22010600005","2024-05-02T08:45:00",13.1,31.418089,0.2],
    [19439,"urn:WaterMeter:MC0203J22010600005","2024-05-02T09:00:00",13.3,31.347918,0.193],
    [19440,"urn:WaterMeter:MC0203J22010600005","2024-05-02T09:15:00",13.5,31.323093,0.192],
    [19441,"urn:WaterMeter:MC0203J22010600005","2024-05-02T09:30:00",13.699,31.309477,0.189],
    [19442,"urn:WaterMeter:MC0203J22010600005","2024-05-02T09:45:00",13.899,31.20711,0.19],
    [19443,"urn:WaterMeter:MC0203J22010600005","2024-05-02T10:00:00",14.199,31.21289,0.192],
    [19444,"urn:WaterMeter:MC0203J22010600005","2024-05-02T10:15:00",14.399,31.16289,0.192],
    [19445,"urn:WaterMeter:MC0203J22010600005","2024-05-02T10:30:00",14.6,31.112463,0.19],
    [19446,"urn:WaterMeter:MC0203J22010600005","2024-05-02T10:45:00",14.899,31.104704,0.187],
    [19447,"urn:WaterMeter:MC0203J22010600005","2024-05-02T11:00:00",15.1,31.055054,0.201],
    [19448,"urn:WaterMeter:MC0203J22010600005","2024-05-02T11:15:00",15.199,30.987558,0.186],
    [19449,"urn:WaterMeter:MC0203J22010600005","2024-05-02T11:30:00",15.399,30.958078,0.19],
    [19450,"urn:WaterMeter:MC0203J22010600005","2024-05-02T11:45:00",15.6,30.921577,0.189],
    [19451,"urn:WaterMeter:MC0203J22010600005","2024-05-02T12:00:00",15.8,30.892136,0.195],
    [19452,"urn:WaterMeter:MC0203J22010600005","2024-05-02T12:15:00",16,30.807922,0.194],
    [19453,"urn:WaterMeter:MC0203J22010600005","2024-05-02T12:30:00",16.1,30.761414,0.189],
    [19454,"urn:WaterMeter:MC0203J22010600005","2024-05-02T12:45:00",16.2,30.738527,0.188],
    [19455,"urn:WaterMeter:MC0203J22010600005","2024-05-02T13:00:00",16.299,30.681467,0.195],
    [19456,"urn:WaterMeter:MC0203J22010600005","2024-05-02T13:15:00",16.399,30.653538,0.191],
    [19457,"urn:WaterMeter:MC0203J22010600005","2024-05-02T13:30:00",16.5,30.630302,0.191],
    [19458,"urn:WaterMeter:MC0203J22010600005","2024-05-02T13:45:00",16.6,30.594965,0.183],
    [19459,"urn:WaterMeter:MC0203J22010600005","2024-05-02T14:00:00",16.7,30.513546,0.184],
    [19460,"urn:WaterMeter:MC0203J22010600005","2024-05-02T14:15:00",16.799,30.447601,0.192],
    [19461,"urn:WaterMeter:MC0203J22010600005","2024-05-02T14:30:00",16.899,30.468899,0.189],
    [19462,"urn:WaterMeter:MC0203J22010600005","2024-05-02T14:45:00",16.899,30.393684,0.183],
    [19463,"urn:WaterMeter:MC0203J22010600005","2024-05-02T15:00:00",17,30.383987,0.184],
    [19464,"urn:WaterMeter:MC0203J22010600005","2024-05-02T15:15:00",17.1,30.359121,0.183],
    [19465,"urn:WaterMeter:MC0203J22010600005","2024-05-02T15:30:00",17.2,30.306406,0.179],
    [19466,"urn:WaterMeter:MC0203J22010600005","2024-05-02T15:45:00",17.2,30.240852,0.189],
    [19467,"urn:WaterMeter:MC0203J22010600005","2024-05-02T16:00:00",17.2,30.230766,0.197],
    [19468,"urn:WaterMeter:MC0203J22010600005","2024-05-02T16:15:00",17.2,30.238913,0.184],
    [19469,"urn:WaterMeter:MC0203J22010600005","2024-05-02T16:30:00",17.2,30.217577,0.198],
    [19470,"urn:WaterMeter:MC0203J22010600005","2024-05-02T16:45:00",17.2,30.132627,0.191],
    [19471,"urn:WaterMeter:MC0203J22010600005","2024-05-02T17:00:00",17.1,30.134567,0.187],
    [19472,"urn:WaterMeter:MC0203J22010600005","2024-05-02T17:15:00",17,30.105474,0.185],
    [19473,"urn:WaterMeter:MC0203J22010600005","2024-05-02T17:30:00",17,30.051905,0.189],
    [19474,"urn:WaterMeter:MC0203J22010600005","2024-05-02T17:45:00",16.899,30.073668,0.194],
    [19475,"urn:WaterMeter:MC0203J22010600005","2024-05-02T18:00:00",16.899,30.060091,0.193],
    [19476,"urn:WaterMeter:MC0203J22010600005","2024-05-02T18:15:00",16.799,30.044575,0.186],
    [19477,"urn:WaterMeter:MC0203J22010600005","2024-05-02T18:30:00",16.7,30.018585,0.186],
    [19478,"urn:WaterMeter:MC0203J22010600005","2024-05-02T18:45:00",16.6,29.987165,0.187],
    [19479,"urn:WaterMeter:MC0203J22010600005","2024-05-02T19:00:00",16.5,29.971222,0.19],
    [19480,"urn:WaterMeter:MC0203J22010600005","2024-05-02T19:15:00",16.399,29.965443,0.188],
    [19481,"urn:WaterMeter:MC0203J22010600005","2024-05-02T19:30:00",16.299,29.980183,0.187],
    [19482,"urn:WaterMeter:MC0203J22010600005","2024-05-02T19:45:00",16.2,29.942944,0.206],
    [19483,"urn:WaterMeter:MC0203J22010600005","2024-05-02T20:00:00",16.2,29.951479,0.189],
    [19484,"urn:WaterMeter:MC0203J22010600005","2024-05-02T20:15:00",16.1,29.911137,0.189],
    [19485,"urn:WaterMeter:MC0203J22010600005","2024-05-02T20:30:00",16,29.946047,0.188],
    [19486,"urn:WaterMeter:MC0203J22010600005","2024-05-02T20:45:00",15.899,29.90299,0.2],
    [19487,"urn:WaterMeter:MC0203J22010600005","2024-05-02T21:00:00",15.899,29.915365,0.186],
    [19488,"urn:WaterMeter:MC0203J22010600005","2024-05-02T21:15:00",15.8,29.868855,0.194],
    [19489,"urn:WaterMeter:MC0203J22010600005","2024-05-02T21:30:00",15.699,29.883596,0.193],
    [19490,"urn:WaterMeter:MC0203J22010600005","2024-05-02T21:45:00",15.6,29.878164,0.194],
    [19491,"urn:WaterMeter:MC0203J22010600005","2024-05-02T22:00:00",15.5,29.865751,0.19],
    [19492,"urn:WaterMeter:MC0203J22010600005","2024-05-02T22:15:00",15.399,29.865751,0.191],
    [19493,"urn:WaterMeter:MC0203J22010600005","2024-05-02T22:30:00",15.3,29.907646,0.185],
    [19494,"urn:WaterMeter:MC0203J22010600005","2024-05-02T22:45:00",15.199,29.847094,0.183],
    [19495,"urn:WaterMeter:MC0203J22010600005","2024-05-02T23:00:00",15.1,29.8642,0.188],
    [19496,"urn:WaterMeter:MC0203J22010600005","2024-05-02T23:15:00",15,29.835846,0.188],
    [19497,"urn:WaterMeter:MC0203J22010600005","2024-05-02T23:30:00",14.899,29.861874,0.192],
    [19498,"urn:WaterMeter:MC0203J22010600005","2024-05-02T23:45:00",14.8,29.864588,0.199],
    [19499,"urn:WaterMeter:MC0203J22010600005","2024-05-03T00:00:00",14.699,29.87157,0.197],
    [19500,"urn:WaterMeter:MC0203J22010600005","2024-05-03T00:15:00",14.5,29.835457,0.192],
    [19501,"urn:WaterMeter:MC0203J22010600005","2024-05-03T00:30:00",14.399,29.8514,0.182],
    [19502,"urn:WaterMeter:MC0203J22010600005","2024-05-03T00:45:00",14.3,29.82541,0.188],
    [19503,"urn:WaterMeter:MC0203J22010600005","2024-05-03T01:00:00",14.3,29.857956,0.202],
    [19504,"urn:WaterMeter:MC0203J22010600005","2024-05-03T01:15:00",14.199,29.828863,0.191],
    [19505,"urn:WaterMeter:MC0203J22010600005","2024-05-03T01:30:00",14.1,29.81839,0.191],
    [19506,"urn:WaterMeter:MC0203J22010600005","2024-05-03T01:45:00",14,29.866877,0.191],
    [19507,"urn:WaterMeter:MC0203J22010600005","2024-05-03T02:00:00",14,29.819166,0.182],
    [19508,"urn:WaterMeter:MC0203J22010600005","2024-05-03T02:15:00",13.899,29.8514,0.191],
    [19509,"urn:WaterMeter:MC0203J22010600005","2024-05-03T02:30:00",13.8,29.843254,0.195],
    [19510,"urn:WaterMeter:MC0203J22010600005","2024-05-03T02:45:00",13.8,29.859158,0.191],
    [19511,"urn:WaterMeter:MC0203J22010600005","2024-05-03T03:00:00",13.699,29.835846,0.197],
    [19512,"urn:WaterMeter:MC0203J22010600005","2024-05-03T03:15:00",13.699,29.812998,0.188],
    [19513,"urn:WaterMeter:MC0203J22010600005","2024-05-03T03:30:00",13.6,29.814938,0.189],
    [19514,"urn:WaterMeter:MC0203J22010600005","2024-05-03T03:45:00",13.6,29.82735,0.191],
    [19515,"urn:WaterMeter:MC0203J22010600005","2024-05-03T04:00:00",13.5,29.791664,0.187],
    [19516,"urn:WaterMeter:MC0203J22010600005","2024-05-03T04:15:00",13.5,29.837397,0.191],
    [19517,"urn:WaterMeter:MC0203J22010600005","2024-05-03T04:30:00",13.399,29.804075,0.194],
    [19518,"urn:WaterMeter:MC0203J22010600005","2024-05-03T04:45:00",13.399,29.787395,0.192],
    [19519,"urn:WaterMeter:MC0203J22010600005","2024-05-03T05:00:00",13.399,29.817614,0.19],
    [19520,"urn:WaterMeter:MC0203J22010600005","2024-05-03T05:15:00",13.399,29.784681,0.192],
    [19521,"urn:WaterMeter:MC0203J22010600005","2024-05-03T05:30:00",13.399,29.84597,0.194],
    [19522,"urn:WaterMeter:MC0203J22010600005","2024-05-03T05:45:00",13.3,29.750507,0.191],
    [19523,"urn:WaterMeter:MC0203J22010600005","2024-05-03T06:00:00",13.3,29.804075,0.194],
    [19524,"urn:WaterMeter:MC0203J22010600005","2024-05-03T06:15:00",13.399,29.802912,0.189],
    [19525,"urn:WaterMeter:MC0203J22010600005","2024-05-03T06:30:00",13.3,29.736582,0.188],
    [19526,"urn:WaterMeter:MC0203J22010600005","2024-05-03T06:45:00",13.399,29.778437,0.185],
    [19527,"urn:WaterMeter:MC0203J22010600005","2024-05-03T07:00:00",13.5,29.760593,0.186],
    [19528,"urn:WaterMeter:MC0203J22010600005","2024-05-03T07:15:00",13.699,29.753649,0.184],
    [19529,"urn:WaterMeter:MC0203J22010600005","2024-05-03T07:30:00",14,29.741585,0.179],
    [19530,"urn:WaterMeter:MC0203J22010600005","2024-05-03T07:45:00",14.1,29.864977,0.193],
    [19531,"urn:WaterMeter:MC0203J22010600005","2024-05-03T08:00:00",14.3,30.613972,0.214],
    [19532,"urn:WaterMeter:MC0203J22010600005","2024-05-03T08:15:00",14.5,31.889427,0.208],
    [19533,"urn:WaterMeter:MC0203J22010600005","2024-05-03T08:30:00",14.699,33.112087,0.214],
    [19534,"urn:WaterMeter:MC0203J22010600005","2024-05-03T08:45:00",14.899,33.94607,0.221],
    [19535,"urn:WaterMeter:MC0203J22010600005","2024-05-03T09:00:00",15.1,34.41039,0.219],
    [19536,"urn:WaterMeter:MC0203J22010600005","2024-05-03T09:15:00",15.399,33.92082,0.224],
    [19537,"urn:WaterMeter:MC0203J22010600005","2024-05-03T09:30:00",15.6,33.48288,0.229],
    [19538,"urn:WaterMeter:MC0203J22010600005","2024-05-03T09:45:00",15.8,33.247852,0.216],
    [19539,"urn:WaterMeter:MC0203J22010600005","2024-05-03T10:00:00",16.1,33.129932,0.218],
    [19540,"urn:WaterMeter:MC0203J22010600005","2024-05-03T10:15:00",16.299,32.987183,0.218],
    [19541,"urn:WaterMeter:MC0203J22010600005","2024-05-03T10:30:00",16.5,32.90844,0.224],
    [19542,"urn:WaterMeter:MC0203J22010600005","2024-05-03T10:45:00",16.7,32.791294,0.215],
    [19543,"urn:WaterMeter:MC0203J22010600005","2024-05-03T11:00:00",16.899,32.675312,0.226],
    [19544,"urn:WaterMeter:MC0203J22010600005","2024-05-03T11:15:00",17.1,32.632645,0.208],
    [19545,"urn:WaterMeter:MC0203J22010600005","2024-05-03T11:30:00",17.299,32.556614,0.219],
    [19546,"urn:WaterMeter:MC0203J22010600005","2024-05-03T11:45:00",17.399,32.4224,0.216],
    [19547,"urn:WaterMeter:MC0203J22010600005","2024-05-03T12:00:00",17.5,32.36499,0.226],
    [19548,"urn:WaterMeter:MC0203J22010600005","2024-05-03T12:15:00",17.6,32.312237,0.211],
    [19549,"urn:WaterMeter:MC0203J22010600005","2024-05-03T12:30:00",17.7,32.234657,0.207],
    [19550,"urn:WaterMeter:MC0203J22010600005","2024-05-03T12:45:00",17.899,32.214447,0.211],
    [19551,"urn:WaterMeter:MC0203J22010600005","2024-05-03T13:00:00",18,32.115574,0.215],
    [19552,"urn:WaterMeter:MC0203J22010600005","2024-05-03T13:15:00",18.1,32.060104,0.228],
    [19553,"urn:WaterMeter:MC0203J22010600005","2024-05-03T13:30:00",18.2,32.00502,0.206],
    [19554,"urn:WaterMeter:MC0203J22010600005","2024-05-03T13:45:00",18.299,31.93128,0.201],
    [19555,"urn:WaterMeter:MC0203J22010600005","2024-05-03T14:00:00",18.399,31.870031,0.203],
    [19556,"urn:WaterMeter:MC0203J22010600005","2024-05-03T14:15:00",18.5,31.800985,0.223],
    [19557,"urn:WaterMeter:MC0203J22010600005","2024-05-03T14:30:00",18.5,31.780039,0.196],
    [19558,"urn:WaterMeter:MC0203J22010600005","2024-05-03T14:45:00",18.6,31.688494,0.203],
    [19559,"urn:WaterMeter:MC0203J22010600005","2024-05-03T15:00:00",18.7,31.63221,0.202],
    [19560,"urn:WaterMeter:MC0203J22010600005","2024-05-03T15:15:00",18.7,31.629145,0.216],
    [19561,"urn:WaterMeter:MC0203J22010600005","2024-05-03T15:30:00",18.7,31.570185,0.222],
    [19562,"urn:WaterMeter:MC0203J22010600005","2024-05-03T15:45:00",18.799,31.513939,0.197],
    [19563,"urn:WaterMeter:MC0203J22010600005","2024-05-03T16:00:00",18.799,31.47515,0.221],
    [19564,"urn:WaterMeter:MC0203J22010600005","2024-05-03T16:15:00",18.899,31.367313,0.212],
    [19565,"urn:WaterMeter:MC0203J22010600005","2024-05-03T16:30:00",18.899,31.348656,0.212],
    [19566,"urn:WaterMeter:MC0203J22010600005","2024-05-03T16:45:00",18.899,31.353348,0.197],
    [19567,"urn:WaterMeter:MC0203J22010600005","2024-05-03T17:00:00",18.899,31.31611,0.2],
    [19568,"urn:WaterMeter:MC0203J22010600005","2024-05-03T17:15:00",18.899,31.219522,0.211],
    [19569,"urn:WaterMeter:MC0203J22010600005","2024-05-03T17:30:00",18.799,31.221075,0.209],
    [19570,"urn:WaterMeter:MC0203J22010600005","2024-05-03T17:45:00",18.799,31.19237,0.195],
    [19571,"urn:WaterMeter:MC0203J22010600005","2024-05-03T18:00:00",18.7,31.131083,0.199],
    [19572,"urn:WaterMeter:MC0203J22010600005","2024-05-03T18:15:00",18.6,31.14078,0.209],
    [19573,"urn:WaterMeter:MC0203J22010600005","2024-05-03T18:30:00",18.5,31.12255,0.204],
    [19574,"urn:WaterMeter:MC0203J22010600005","2024-05-03T18:45:00",18.399,31.1016,0.21],
    [19575,"urn:WaterMeter:MC0203J22010600005","2024-05-03T19:00:00",18.399,31.097296,0.214],
    [19576,"urn:WaterMeter:MC0203J22010600005","2024-05-03T19:15:00",18.299,31.063974,0.217],
    [19577,"urn:WaterMeter:MC0203J22010600005","2024-05-03T19:30:00",18.2,31.055054,0.211],
    [19578,"urn:WaterMeter:MC0203J22010600005","2024-05-03T19:45:00",18.1,31.003075,0.197],
    [19579,"urn:WaterMeter:MC0203J22010600005","2024-05-03T20:00:00",18,31.020103,0.201],
    [19580,"urn:WaterMeter:MC0203J22010600005","2024-05-03T20:15:00",17.899,31.039886,0.196],
    [19581,"urn:WaterMeter:MC0203J22010600005","2024-05-03T20:30:00",17.7,31.043417,0.2],
    [19582,"urn:WaterMeter:MC0203J22010600005","2024-05-03T20:45:00",17.6,30.989887,0.2],
    [19583,"urn:WaterMeter:MC0203J22010600005","2024-05-03T21:00:00",17.5,31.004238,0.208],
    [19584,"urn:WaterMeter:MC0203J22010600005","2024-05-03T21:15:00",17.399,30.99648,0.21],
    [19585,"urn:WaterMeter:MC0203J22010600005","2024-05-03T21:30:00",17.299,30.985619,0.2],
    [19586,"urn:WaterMeter:MC0203J22010600005","2024-05-03T21:45:00",17.2,30.969715,0.201],
    [19587,"urn:WaterMeter:MC0203J22010600005","2024-05-03T22:00:00",17.1,30.971655,0.205],
    [19588,"urn:WaterMeter:MC0203J22010600005","2024-05-03T22:15:00",17,30.982477,0.2],
    [19589,"urn:WaterMeter:MC0203J22010600005","2024-05-03T22:30:00",16.899,30.949932,0.195],
    [19590,"urn:WaterMeter:MC0203J22010600005","2024-05-03T22:45:00",16.799,30.940622,0.205],
    [19591,"urn:WaterMeter:MC0203J22010600005","2024-05-03T23:00:00",16.7,30.933601,0.215],
    [19592,"urn:WaterMeter:MC0203J22010600005","2024-05-03T23:15:00",16.6,30.97631,0.207],
    [19593,"urn:WaterMeter:MC0203J22010600005","2024-05-03T23:30:00",16.5,30.953773,0.211],
    [19594,"urn:WaterMeter:MC0203J22010600005","2024-05-03T23:45:00",16.399,30.913082,0.204],
    [19595,"urn:WaterMeter:MC0203J22010600005","2024-05-04T00:00:00",16.299,30.901058,0.198],
    [19596,"urn:WaterMeter:MC0203J22010600005","2024-05-04T00:15:00",16.2,30.914207,0.213],
    [19597,"urn:WaterMeter:MC0203J22010600005","2024-05-04T00:30:00",16.1,30.958078,0.201],
    [19598,"urn:WaterMeter:MC0203J22010600005","2024-05-04T00:45:00",16,30.899893,0.198],
    [19599,"urn:WaterMeter:MC0203J22010600005","2024-05-04T01:00:00",15.899,30.913818,0.216],
    [19600,"urn:WaterMeter:MC0203J22010600005","2024-05-04T01:15:00",15.8,30.87856,0.207],
    [19601,"urn:WaterMeter:MC0203J22010600005","2024-05-04T01:30:00",15.8,30.875418,0.2],
    [19602,"urn:WaterMeter:MC0203J22010600005","2024-05-04T01:45:00",15.6,30.922354,0.198],
    [19603,"urn:WaterMeter:MC0203J22010600005","2024-05-04T02:00:00",15.5,30.901058,0.206],
    [19604,"urn:WaterMeter:MC0203J22010600005","2024-05-04T02:15:00",15.399,30.858389,0.205],
    [19605,"urn:WaterMeter:MC0203J22010600005","2024-05-04T02:30:00",15.3,30.863781,0.198],
    [19606,"urn:WaterMeter:MC0203J22010600005","2024-05-04T02:45:00",15.199,30.913818,0.215],
    [19607,"urn:WaterMeter:MC0203J22010600005","2024-05-04T03:00:00",15.1,30.852957,0.199],
    [19608,"urn:WaterMeter:MC0203J22010600005","2024-05-04T03:15:00",14.899,30.873516,0.202],
    [19609,"urn:WaterMeter:MC0203J22010600005","2024-05-04T03:30:00",14.899,30.838217,0.207],
    [19610,"urn:WaterMeter:MC0203J22010600005","2024-05-04T03:45:00",14.8,30.880886,0.201],
    [19611,"urn:WaterMeter:MC0203J22010600005","2024-05-04T04:00:00",14.699,30.83977,0.193],
    [19612,"urn:WaterMeter:MC0203J22010600005","2024-05-04T04:15:00",14.6,30.889032,0.2],
    [19613,"urn:WaterMeter:MC0203J22010600005","2024-05-04T04:30:00",14.6,30.85641,0.198],
    [19614,"urn:WaterMeter:MC0203J22010600005","2024-05-04T04:45:00",14.5,30.80831,0.211],
    [19615,"urn:WaterMeter:MC0203J22010600005","2024-05-04T05:00:00",14.5,30.820374,0.202],
    [19616,"urn:WaterMeter:MC0203J22010600005","2024-05-04T05:15:00",14.399,30.863043,0.195],
    [19617,"urn:WaterMeter:MC0203J22010600005","2024-05-04T05:30:00",14.399,30.807146,0.209],
    [19618,"urn:WaterMeter:MC0203J22010600005","2024-05-04T05:45:00",14.3,30.828907,0.199],
    [19619,"urn:WaterMeter:MC0203J22010600005","2024-05-04T06:00:00",14.3,30.825378,0.209],
    [19620,"urn:WaterMeter:MC0203J22010600005","2024-05-04T06:15:00",14.3,30.81762,0.193],
    [19621,"urn:WaterMeter:MC0203J22010600005","2024-05-04T06:30:00",14.3,30.81921,0.196],
    [19622,"urn:WaterMeter:MC0203J22010600005","2024-05-04T06:45:00",14.399,30.785076,0.197],
    [19623,"urn:WaterMeter:MC0203J22010600005","2024-05-04T07:00:00",14.6,30.71758,0.193],
    [19624,"urn:WaterMeter:MC0203J22010600005","2024-05-04T07:15:00",14.699,30.698185,0.189],
    [19625,"urn:WaterMeter:MC0203J22010600005","2024-05-04T07:30:00",14.899,30.686161,0.197],
    [19626,"urn:WaterMeter:MC0203J22010600005","2024-05-04T07:45:00",15.199,30.668318,0.195],
    [19627,"urn:WaterMeter:MC0203J22010600005","2024-05-04T08:00:00",15.399,30.664825,0.194],
    [19628,"urn:WaterMeter:MC0203J22010600005","2024-05-04T08:15:00",15.699,30.604275,0.191],
    [19629,"urn:WaterMeter:MC0203J22010600005","2024-05-04T08:30:00",15.899,30.564709,0.216],
    [19630,"urn:WaterMeter:MC0203J22010600005","2024-05-04T08:45:00",16.1,30.570566,0.191],
    [19631,"urn:WaterMeter:MC0203J22010600005","2024-05-04T09:00:00",16.399,30.495275,0.199],
    [19632,"urn:WaterMeter:MC0203J22010600005","2024-05-04T09:15:00",16.6,30.46851,0.197],
    [19633,"urn:WaterMeter:MC0203J22010600005","2024-05-04T09:30:00",16.899,30.38515,0.195],
    [19634,"urn:WaterMeter:MC0203J22010600005","2024-05-04T09:45:00",17.1,30.35951,0.2],
    [19635,"urn:WaterMeter:MC0203J22010600005","2024-05-04T10:00:00",17.399,30.344809,0.196],
    [19636,"urn:WaterMeter:MC0203J22010600005","2024-05-04T10:15:00",17.6,30.271496,0.195],
    [19637,"urn:WaterMeter:MC0203J22010600005","2024-05-04T10:30:00",17.799,30.21331,0.192],
    [19638,"urn:WaterMeter:MC0203J22010600005","2024-05-04T10:45:00",18.1,30.188873,0.185],
    [19639,"urn:WaterMeter:MC0203J22010600005","2024-05-04T11:00:00",18.299,30.117887,0.188],
    [19640,"urn:WaterMeter:MC0203J22010600005","2024-05-04T11:15:00",18.6,30.068974,0.194],
    [19641,"urn:WaterMeter:MC0203J22010600005","2024-05-04T11:30:00",18.799,29.981346,0.183],
    [19642,"urn:WaterMeter:MC0203J22010600005","2024-05-04T11:45:00",19,29.953379,0.194],
    [19643,"urn:WaterMeter:MC0203J22010600005","2024-05-04T12:00:00",19.1,29.892517,0.193],
    [19644,"urn:WaterMeter:MC0203J22010600005","2024-05-04T12:15:00",19.299,29.800972,0.2],
    [19645,"urn:WaterMeter:MC0203J22010600005","2024-05-04T12:30:00",19.5,29.726109,0.18],
    [19646,"urn:WaterMeter:MC0203J22010600005","2024-05-04T12:45:00",19.6,29.754038,0.185],
    [19647,"urn:WaterMeter:MC0203J22010600005","2024-05-04T13:00:00",19.799,29.619823,0.182],
    [19648,"urn:WaterMeter:MC0203J22010600005","2024-05-04T13:15:00",19.899,29.608574,0.184],
    [19649,"urn:WaterMeter:MC0203J22010600005","2024-05-04T13:30:00",20,29.525913,0.192],
    [19650,"urn:WaterMeter:MC0203J22010600005","2024-05-04T13:45:00",20.2,29.48014,0.184],
    [19651,"urn:WaterMeter:MC0203J22010600005","2024-05-04T14:00:00",20.299,29.443329,0.184],
    [19652,"urn:WaterMeter:MC0203J22010600005","2024-05-04T14:15:00",20.399,29.396782,0.185],
    [19653,"urn:WaterMeter:MC0203J22010600005","2024-05-04T14:30:00",20.5,29.30291,0.185],
    [19654,"urn:WaterMeter:MC0203J22010600005","2024-05-04T14:45:00",20.6,29.274942,0.195],
    [19655,"urn:WaterMeter:MC0203J22010600005","2024-05-04T15:00:00",20.7,29.180332,0.189],
    [19656,"urn:WaterMeter:MC0203J22010600005","2024-05-04T15:15:00",20.7,29.148874,0.179],
    [19657,"urn:WaterMeter:MC0203J22010600005","2024-05-04T15:30:00",20.799,29.083359,0.185],
    [19658,"urn:WaterMeter:MC0203J22010600005","2024-05-04T15:45:00",20.799,29.105469,0.183],
    [19659,"urn:WaterMeter:MC0203J22010600005","2024-05-04T16:00:00",20.799,29.01858,0.189],
    [19660,"urn:WaterMeter:MC0203J22010600005","2024-05-04T16:15:00",20.799,29.005777,0.179],
    [19661,"urn:WaterMeter:MC0203J22010600005","2024-05-04T16:30:00",20.799,28.978624,0.19],
    [19662,"urn:WaterMeter:MC0203J22010600005","2024-05-04T16:45:00",20.7,28.897514,0.191],
    [19663,"urn:WaterMeter:MC0203J22010600005","2024-05-04T17:00:00",20.7,28.891735,0.18],
    [19664,"urn:WaterMeter:MC0203J22010600005","2024-05-04T17:15:00",20.7,28.870789,0.188],
    [19665,"urn:WaterMeter:MC0203J22010600005","2024-05-04T17:30:00",20.6,28.769508,0.175],
    [19666,"urn:WaterMeter:MC0203J22010600005","2024-05-04T17:45:00",20.5,28.755583,0.182],
    [19667,"urn:WaterMeter:MC0203J22010600005","2024-05-04T18:00:00",20.5,28.70787,0.177],
    [19668,"urn:WaterMeter:MC0203J22010600005","2024-05-04T18:15:00",20.399,28.68033,0.183],
    [19669,"urn:WaterMeter:MC0203J22010600005","2024-05-04T18:30:00",20.399,28.66171,0.197],
    [19670,"urn:WaterMeter:MC0203J22010600005","2024-05-04T18:45:00",20.299,28.656668,0.179],
    [19671,"urn:WaterMeter:MC0203J22010600005","2024-05-04T19:00:00",20.1,28.660547,0.189],
    [19672,"urn:WaterMeter:MC0203J22010600005","2024-05-04T19:15:00",20,28.639988,0.188],
    [19673,"urn:WaterMeter:MC0203J22010600005","2024-05-04T19:30:00",19.899,28.593052,0.179],
    [19674,"urn:WaterMeter:MC0203J22010600005","2024-05-04T19:45:00",19.7,28.600422,0.177],
    [19675,"urn:WaterMeter:MC0203J22010600005","2024-05-04T20:00:00",19.6,28.596117,0.184],
    [19676,"urn:WaterMeter:MC0203J22010600005","2024-05-04T20:15:00",19.5,28.598095,0.19],
    [19677,"urn:WaterMeter:MC0203J22010600005","2024-05-04T20:30:00",19.399,28.560856,0.178],
    [19678,"urn:WaterMeter:MC0203J22010600005","2024-05-04T20:45:00",19.2,28.546505,0.175],
    [19679,"urn:WaterMeter:MC0203J22010600005","2024-05-04T21:00:00",19.1,28.566288,0.18],
    [19680,"urn:WaterMeter:MC0203J22010600005","2024-05-04T21:15:00",19,28.53448,0.191],
    [19681,"urn:WaterMeter:MC0203J22010600005","2024-05-04T21:30:00",18.899,28.520088,0.183],
    [19682,"urn:WaterMeter:MC0203J22010600005","2024-05-04T21:45:00",18.799,28.511593,0.189],
    [19683,"urn:WaterMeter:MC0203J22010600005","2024-05-04T22:00:00",18.7,28.534868,0.192],
    [19684,"urn:WaterMeter:MC0203J22010600005","2024-05-04T22:15:00",18.6,28.496466,0.181],
    [19685,"urn:WaterMeter:MC0203J22010600005","2024-05-04T22:30:00",18.5,28.535255,0.189],
    [19686,"urn:WaterMeter:MC0203J22010600005","2024-05-04T22:45:00",18.399,28.511982,0.19],
    [19687,"urn:WaterMeter:MC0203J22010600005","2024-05-04T23:00:00",18.299,28.474356,0.184],
    [19688,"urn:WaterMeter:MC0203J22010600005","2024-05-04T23:15:00",18.2,28.457287,0.19],
    [19689,"urn:WaterMeter:MC0203J22010600005","2024-05-04T23:30:00",18.1,28.490608,0.178],
    [19690,"urn:WaterMeter:MC0203J22010600005","2024-05-04T23:45:00",17.899,28.498365,0.179],
    [19691,"urn:WaterMeter:MC0203J22010600005","2024-05-05T00:00:00",17.799,28.443323,0.181],
    [19692,"urn:WaterMeter:MC0203J22010600005","2024-05-05T00:15:00",17.7,28.500305,0.178],
    [19693,"urn:WaterMeter:MC0203J22010600005","2024-05-05T00:30:00",17.6,28.47319,0.183],
    [19694,"urn:WaterMeter:MC0203J22010600005","2024-05-05T00:45:00",17.5,28.46233,0.186],
    [19695,"urn:WaterMeter:MC0203J22010600005","2024-05-05T01:00:00",17.399,28.480911,0.186],
    [19696,"urn:WaterMeter:MC0203J22010600005","2024-05-05T01:15:00",17.299,28.489096,0.182],
    [19697,"urn:WaterMeter:MC0203J22010600005","2024-05-05T01:30:00",17.1,28.468536,0.194],
    [19698,"urn:WaterMeter:MC0203J22010600005","2024-05-05T01:45:00",17,28.452633,0.188],
    [19699,"urn:WaterMeter:MC0203J22010600005","2024-05-05T02:00:00",16.899,28.4441,0.186],
    [19700,"urn:WaterMeter:MC0203J22010600005","2024-05-05T02:15:00",16.799,28.465046,0.18],
    [19701,"urn:WaterMeter:MC0203J22010600005","2024-05-05T02:30:00",16.7,28.47358,0.18],
    [19702,"urn:WaterMeter:MC0203J22010600005","2024-05-05T02:45:00",16.6,28.472027,0.185],
    [19703,"urn:WaterMeter:MC0203J22010600005","2024-05-05T03:00:00",16.5,28.479746,0.182],
    [19704,"urn:WaterMeter:MC0203J22010600005","2024-05-05T03:15:00",16.399,28.471212,0.174],
    [19705,"urn:WaterMeter:MC0203J22010600005","2024-05-05T03:30:00",16.299,28.46815,0.185],
    [19706,"urn:WaterMeter:MC0203J22010600005","2024-05-05T03:45:00",16.299,28.46074,0.177],
    [19707,"urn:WaterMeter:MC0203J22010600005","2024-05-05T04:00:00",16.2,28.4588,0.178],
    [19708,"urn:WaterMeter:MC0203J22010600005","2024-05-05T04:15:00",16.1,28.470438,0.183],
    [19709,"urn:WaterMeter:MC0203J22010600005","2024-05-05T04:30:00",16,28.4569,0.184],
    [19710,"urn:WaterMeter:MC0203J22010600005","2024-05-05T04:45:00",15.899,28.44212,0.185],
    [19711,"urn:WaterMeter:MC0203J22010600005","2024-05-05T05:00:00",15.8,28.396774,0.185],
    [19712,"urn:WaterMeter:MC0203J22010600005","2024-05-05T05:15:00",15.699,28.438667,0.177],
    [19713,"urn:WaterMeter:MC0203J22010600005","2024-05-05T05:30:00",15.6,28.416557,0.177],
    [19714,"urn:WaterMeter:MC0203J22010600005","2024-05-05T05:45:00",15.6,28.461128,0.183],
    [19715,"urn:WaterMeter:MC0203J22010600005","2024-05-05T06:00:00",15.6,28.396387,0.176],
    [19716,"urn:WaterMeter:MC0203J22010600005","2024-05-05T06:15:00",15.6,28.372725,0.181],
    [19717,"urn:WaterMeter:MC0203J22010600005","2024-05-05T06:30:00",15.6,28.4088,0.18],
    [19718,"urn:WaterMeter:MC0203J22010600005","2024-05-05T06:45:00",15.699,28.38475,0.172],
    [19719,"urn:WaterMeter:MC0203J22010600005","2024-05-05T07:00:00",15.899,28.387077,0.178],
    [19720,"urn:WaterMeter:MC0203J22010600005","2024-05-05T07:15:00",16.1,28.36493,0.174],
    [19721,"urn:WaterMeter:MC0203J22010600005","2024-05-05T07:30:00",16.299,28.333548,0.177],
    [19722,"urn:WaterMeter:MC0203J22010600005","2024-05-05T07:45:00",16.5,28.300964,0.178],
    [19723,"urn:WaterMeter:MC0203J22010600005","2024-05-05T08:00:00",16.799,28.252865,0.173],
    [19724,"urn:WaterMeter:MC0203J22010600005","2024-05-05T08:15:00",17.1,28.205153,0.173],
    [19725,"urn:WaterMeter:MC0203J22010600005","2024-05-05T08:30:00",17.299,28.206665,0.181],
    [19726,"urn:WaterMeter:MC0203J22010600005","2024-05-05T08:45:00",17.6,28.12059,0.167],
    [19727,"urn:WaterMeter:MC0203J22010600005","2024-05-05T09:00:00",17.899,28.057362,0.178],
    [19728,"urn:WaterMeter:MC0203J22010600005","2024-05-05T09:15:00",18.2,28.032497,0.167],
    [19729,"urn:WaterMeter:MC0203J22010600005","2024-05-05T09:30:00",18.399,27.939442,0.175],
    [19730,"urn:WaterMeter:MC0203J22010600005","2024-05-05T09:45:00",18.7,27.93785,0.177],
    [19731,"urn:WaterMeter:MC0203J22010600005","2024-05-05T10:00:00",19,27.895958,0.175],
    [19732,"urn:WaterMeter:MC0203J22010600005","2024-05-05T10:15:00",19.2,27.795141,0.172],
    [19733,"urn:WaterMeter:MC0203J22010600005","2024-05-05T10:30:00",19.5,27.764885,0.166],
    [19734,"urn:WaterMeter:MC0203J22010600005","2024-05-05T10:45:00",19.899,27.674505,0.172],
    [19735,"urn:WaterMeter:MC0203J22010600005","2024-05-05T11:00:00",20.1,27.584513,0.172],
    [19736,"urn:WaterMeter:MC0203J22010600005","2024-05-05T11:15:00",20.2,27.530943,0.168],
    [19737,"urn:WaterMeter:MC0203J22010600005","2024-05-05T11:30:00",20.299,27.51663,0.168],
    [19738,"urn:WaterMeter:MC0203J22010600005","2024-05-05T11:45:00",20.399,27.465427,0.173],
    [19739,"urn:WaterMeter:MC0203J22010600005","2024-05-05T12:00:00",20.5,27.345528,0.162],
    [19740,"urn:WaterMeter:MC0203J22010600005","2024-05-05T12:15:00",20.7,27.310656,0.164],
    [19741,"urn:WaterMeter:MC0203J22010600005","2024-05-05T12:30:00",20.899,27.253246,0.163],
    [19742,"urn:WaterMeter:MC0203J22010600005","2024-05-05T12:45:00",21,27.164028,0.176],
    [19743,"urn:WaterMeter:MC0203J22010600005","2024-05-05T13:00:00",21.2,27.087612,0.158],
    [19744,"urn:WaterMeter:MC0203J22010600005","2024-05-05T13:15:00",21.299,26.970854,0.18],
    [19745,"urn:WaterMeter:MC0203J22010600005","2024-05-05T13:30:00",21.5,26.935556,0.173],
    [19746,"urn:WaterMeter:MC0203J22010600005","2024-05-05T13:45:00",21.6,26.869186,0.166],
    [19747,"urn:WaterMeter:MC0203J22010600005","2024-05-05T14:00:00",21.7,26.831171,0.168],
    [19748,"urn:WaterMeter:MC0203J22010600005","2024-05-05T14:15:00",21.7,26.73152,0.163],
    [19749,"urn:WaterMeter:MC0203J22010600005","2024-05-05T14:30:00",21.799,26.67993,0.168],
    [19750,"urn:WaterMeter:MC0203J22010600005","2024-05-05T14:45:00",21.799,26.594591,0.163],
    [19751,"urn:WaterMeter:MC0203J22010600005","2024-05-05T15:00:00",21.799,26.569727,0.16],
    [19752,"urn:WaterMeter:MC0203J22010600005","2024-05-05T15:15:00",21.799,26.506538,0.163],
    [19753,"urn:WaterMeter:MC0203J22010600005","2024-05-05T15:30:00",21.799,26.48051,0.16],
    [19754,"urn:WaterMeter:MC0203J22010600005","2024-05-05T15:45:00",21.799,26.416157,0.161],
    [19755,"urn:WaterMeter:MC0203J22010600005","2024-05-05T16:00:00",21.799,26.390944,0.168],
    [19756,"urn:WaterMeter:MC0203J22010600005","2024-05-05T16:15:00",21.899,26.33237,0.166],
    [19757,"urn:WaterMeter:MC0203J22010600005","2024-05-05T16:30:00",21.899,26.308283,0.158],
    [19758,"urn:WaterMeter:MC0203J22010600005","2024-05-05T16:45:00",21.799,26.253628,0.159],
    [19759,"urn:WaterMeter:MC0203J22010600005","2024-05-05T17:00:00",21.799,26.238111,0.16],
    [19760,"urn:WaterMeter:MC0203J22010600005","2024-05-05T17:15:00",21.799,26.173294,0.159],
    [19761,"urn:WaterMeter:MC0203J22010600005","2024-05-05T17:30:00",21.799,26.132565,0.163],
    [19762,"urn:WaterMeter:MC0203J22010600005","2024-05-05T17:45:00",21.799,26.106226,0.163],
    [19763,"urn:WaterMeter:MC0203J22010600005","2024-05-05T18:00:00",21.799,26.06084,0.163],
    [19764,"urn:WaterMeter:MC0203J22010600005","2024-05-05T18:15:00",21.7,26.076319,0.167],
    [19765,"urn:WaterMeter:MC0203J22010600005","2024-05-05T18:30:00",21.6,25.999165,0.172],
    [19766,"urn:WaterMeter:MC0203J22010600005","2024-05-05T18:45:00",21.5,25.981321,0.16],
    [19767,"urn:WaterMeter:MC0203J22010600005","2024-05-05T19:00:00",21.399,26.018133,0.164],
    [19768,"urn:WaterMeter:MC0203J22010600005","2024-05-05T19:15:00",21.299,25.91883,0.154],
    [19769,"urn:WaterMeter:MC0203J22010600005","2024-05-05T19:30:00",21.2,25.959173,0.167],
    [19770,"urn:WaterMeter:MC0203J22010600005","2024-05-05T19:45:00",21.1,25.905293,0.157],
    [19771,"urn:WaterMeter:MC0203J22010600005","2024-05-05T20:00:00",21,25.901764,0.156],
    [19772,"urn:WaterMeter:MC0203J22010600005","2024-05-05T20:15:00",20.899,25.919218,0.164],
    [19773,"urn:WaterMeter:MC0203J22010600005","2024-05-05T20:30:00",20.799,25.862974,0.168],
    [19774,"urn:WaterMeter:MC0203J22010600005","2024-05-05T20:45:00",20.6,25.87814,0.165],
    [19775,"urn:WaterMeter:MC0203J22010600005","2024-05-05T21:00:00",20.5,25.83586,0.162],
    [19776,"urn:WaterMeter:MC0203J22010600005","2024-05-05T21:15:00",20.299,25.866892,0.166],
    [19777,"urn:WaterMeter:MC0203J22010600005","2024-05-05T21:30:00",20.2,25.8153,0.163],
    [19778,"urn:WaterMeter:MC0203J22010600005","2024-05-05T21:45:00",20,25.80832,0.159],
    [19779,"urn:WaterMeter:MC0203J22010600005","2024-05-05T22:00:00",19.899,25.818792,0.163],
    [19780,"urn:WaterMeter:MC0203J22010600005","2024-05-05T22:15:00",19.7,25.818792,0.155],
    [19781,"urn:WaterMeter:MC0203J22010600005","2024-05-05T22:30:00",19.7,25.77492,0.161],
    [19782,"urn:WaterMeter:MC0203J22010600005","2024-05-05T22:45:00",19.6,25.814486,0.163],
    [19783,"urn:WaterMeter:MC0203J22010600005","2024-05-05T23:00:00",19.6,25.77845,0.154],
    [19784,"urn:WaterMeter:MC0203J22010600005","2024-05-05T23:15:00",19.5,25.75789,0.162],
    [19785,"urn:WaterMeter:MC0203J22010600005","2024-05-05T23:30:00",19.399,25.739271,0.159],
    [19786,"urn:WaterMeter:MC0203J22010600005","2024-05-05T23:45:00",19.299,25.774532,0.161],
    [19787,"urn:WaterMeter:MC0203J22010600005","2024-05-06T00:00:00",19.299,25.752073,0.158],
    [19788,"urn:WaterMeter:MC0203J22010600005","2024-05-06T00:15:00",19.2,25.753624,0.164],
    [19789,"urn:WaterMeter:MC0203J22010600005","2024-05-06T00:30:00",19,25.743113,0.162],
    [19790,"urn:WaterMeter:MC0203J22010600005","2024-05-06T00:45:00",18.899,25.740437,0.154],
    [19791,"urn:WaterMeter:MC0203J22010600005","2024-05-06T01:00:00",18.799,25.73384,0.156],
    [19792,"urn:WaterMeter:MC0203J22010600005","2024-05-06T01:15:00",18.7,25.717937,0.161],
    [19793,"urn:WaterMeter:MC0203J22010600005","2024-05-06T01:30:00",18.6,25.709015,0.155],
    [19794,"urn:WaterMeter:MC0203J22010600005","2024-05-06T01:45:00",18.399,25.67717,0.165],
    [19795,"urn:WaterMeter:MC0203J22010600005","2024-05-06T02:00:00",18.299,25.69156,0.16],
    [19796,"urn:WaterMeter:MC0203J22010600005","2024-05-06T02:15:00",18.2,25.707037,0.161],
    [19797,"urn:WaterMeter:MC0203J22010600005","2024-05-06T02:30:00",18.1,25.66786,0.162],
    [19798,"urn:WaterMeter:MC0203J22010600005","2024-05-06T02:45:00",18.1,25.658937,0.159],
    [19799,"urn:WaterMeter:MC0203J22010600005","2024-05-06T03:00:00",18,25.66786,0.155],
    [19800,"urn:WaterMeter:MC0203J22010600005","2024-05-06T03:15:00",17.899,25.62907,0.159],
    [19801,"urn:WaterMeter:MC0203J22010600005","2024-05-06T03:30:00",17.899,25.679924,0.163],
    [19802,"urn:WaterMeter:MC0203J22010600005","2024-05-06T03:45:00",17.899,25.639544,0.158],
    [19803,"urn:WaterMeter:MC0203J22010600005","2024-05-06T04:00:00",17.799,25.673717,0.16],
    [19804,"urn:WaterMeter:MC0203J22010600005","2024-05-06T04:15:00",17.799,25.67717,0.162],
    [19805,"urn:WaterMeter:MC0203J22010600005","2024-05-06T04:30:00",17.799,25.631824,0.165],
    [19806,"urn:WaterMeter:MC0203J22010600005","2024-05-06T04:45:00",17.799,25.657774,0.159],
    [19807,"urn:WaterMeter:MC0203J22010600005","2024-05-06T05:00:00",17.7,25.648853,0.153],
    [19808,"urn:WaterMeter:MC0203J22010600005","2024-05-06T05:15:00",17.7,25.605835,0.15],
    [19809,"urn:WaterMeter:MC0203J22010600005","2024-05-06T05:30:00",17.7,25.579845,0.159],
    [19810,"urn:WaterMeter:MC0203J22010600005","2024-05-06T05:45:00",17.7,25.633762,0.155],
    [19811,"urn:WaterMeter:MC0203J22010600005","2024-05-06T06:00:00",17.7,25.595749,0.158],
    [19812,"urn:WaterMeter:MC0203J22010600005","2024-05-06T06:15:00",17.7,25.551489,0.156],
    [19813,"urn:WaterMeter:MC0203J22010600005","2024-05-06T06:30:00",17.799,25.546099,0.153],
    [19814,"urn:WaterMeter:MC0203J22010600005","2024-05-06T06:45:00",17.799,25.591055,0.156],
    [19815,"urn:WaterMeter:MC0203J22010600005","2024-05-06T07:00:00",17.899,25.544546,0.165],
    [19816,"urn:WaterMeter:MC0203J22010600005","2024-05-06T07:15:00",18,25.523987,0.149],
    [19817,"urn:WaterMeter:MC0203J22010600005","2024-05-06T07:30:00",18.2,25.524376,0.16],
    [19818,"urn:WaterMeter:MC0203J22010600005","2024-05-06T07:45:00",18.299,25.563553,0.142],
    [19819,"urn:WaterMeter:MC0203J22010600005","2024-05-06T08:00:00",18.399,25.46619,0.154],
    [19820,"urn:WaterMeter:MC0203J22010600005","2024-05-06T08:15:00",18.5,25.449898,0.156],
    [19821,"urn:WaterMeter:MC0203J22010600005","2024-05-06T08:30:00",18.6,25.991407,0.168],
    [19822,"urn:WaterMeter:MC0203J22010600005","2024-05-06T08:45:00",18.7,27.585638,0.188],
    [19823,"urn:WaterMeter:MC0203J22010600005","2024-05-06T09:00:00",18.799,29.541855,0.216],
    [19824,"urn:WaterMeter:MC0203J22010600005","2024-05-06T09:15:00",18.899,30.7618,0.203],
    [19825,"urn:WaterMeter:MC0203J22010600005","2024-05-06T09:30:00",19,31.287794,0.209],
    [19826,"urn:WaterMeter:MC0203J22010600005","2024-05-06T09:45:00",19.2,31.394854,0.203],
    [19827,"urn:WaterMeter:MC0203J22010600005","2024-05-06T10:00:00",19.299,31.427399,0.209],
    [19828,"urn:WaterMeter:MC0203J22010600005","2024-05-06T10:15:00",19.399,31.44373,0.202],
    [19829,"urn:WaterMeter:MC0203J22010600005","2024-05-06T10:30:00",19.5,31.418089,0.216],
    [19830,"urn:WaterMeter:MC0203J22010600005","2024-05-06T10:45:00",19.7,31.45653,0.199],
    [19831,"urn:WaterMeter:MC0203J22010600005","2024-05-06T11:00:00",19.899,31.371967,0.196],
    [19832,"urn:WaterMeter:MC0203J22010600005","2024-05-06T11:15:00",20.1,31.341673,0.207],
    [19833,"urn:WaterMeter:MC0203J22010600005","2024-05-06T11:30:00",20.2,31.31064,0.212],
    [19834,"urn:WaterMeter:MC0203J22010600005","2024-05-06T11:45:00",20.299,31.294775,0.203],
    [19835,"urn:WaterMeter:MC0203J22010600005","2024-05-06T12:00:00",20.5,31.237366,0.205],
    [19836,"urn:WaterMeter:MC0203J22010600005","2024-05-06T12:15:00",20.6,31.161339,0.198],
    [19837,"urn:WaterMeter:MC0203J22010600005","2024-05-06T12:30:00",20.899,31.115915,0.197],
    [19838,"urn:WaterMeter:MC0203J22010600005","2024-05-06T12:45:00",21.1,31.088026,0.196],
    [19839,"urn:WaterMeter:MC0203J22010600005","2024-05-06T13:00:00",21.2,31.049234,0.209],
    [19840,"urn:WaterMeter:MC0203J22010600005","2024-05-06T13:15:00",21.299,31.015488,0.198],
    [19841,"urn:WaterMeter:MC0203J22010600005","2024-05-06T13:30:00",21.399,30.935192,0.203],
    [19842,"urn:WaterMeter:MC0203J22010600005","2024-05-06T13:45:00",21.399,30.891748,0.193],
    [19843,"urn:WaterMeter:MC0203J22010600005","2024-05-06T14:00:00",21.399,30.890585,0.205],
    [19844,"urn:WaterMeter:MC0203J22010600005","2024-05-06T14:15:00",21.399,30.830072,0.2],
    [19845,"urn:WaterMeter:MC0203J22010600005","2024-05-06T14:30:00",21.399,30.823477,0.203],
    [19846,"urn:WaterMeter:MC0203J22010600005","2024-05-06T14:45:00",21.299,30.766806,0.208],
    [19847,"urn:WaterMeter:MC0203J22010600005","2024-05-06T15:00:00",21.299,30.731544,0.202],
    [19848,"urn:WaterMeter:MC0203J22010600005","2024-05-06T15:15:00",21.299,30.693918,0.202],
    [19849,"urn:WaterMeter:MC0203J22010600005","2024-05-06T15:30:00",21.399,30.69194,0.195],
    [19850,"urn:WaterMeter:MC0203J22010600005","2024-05-06T15:45:00",21.399,30.614748,0.207],
    [19851,"urn:WaterMeter:MC0203J22010600005","2024-05-06T16:00:00",21.399,30.5791,0.193],
    [19852,"urn:WaterMeter:MC0203J22010600005","2024-05-06T16:15:00",21.299,30.562809,0.197],
    [19853,"urn:WaterMeter:MC0203J22010600005","2024-05-06T16:30:00",21.2,30.56242,0.193],
    [19854,"urn:WaterMeter:MC0203J22010600005","2024-05-06T16:45:00",21.2,30.566687,0.196],
    [19855,"urn:WaterMeter:MC0203J22010600005","2024-05-06T17:00:00",21.1,30.483677,0.195],
    [19856,"urn:WaterMeter:MC0203J22010600005","2024-05-06T17:15:00",21,30.522854,0.195],
    [19857,"urn:WaterMeter:MC0203J22010600005","2024-05-06T17:30:00",21,30.506525,0.211],
    [19858,"urn:WaterMeter:MC0203J22010600005","2024-05-06T17:45:00",20.899,30.475143,0.193],
    [19859,"urn:WaterMeter:MC0203J22010600005","2024-05-06T18:00:00",20.899,30.39093,0.209],
    [19860,"urn:WaterMeter:MC0203J22010600005","2024-05-06T18:15:00",20.799,30.401016,0.215],
    [19861,"urn:WaterMeter:MC0203J22010600005","2024-05-06T18:30:00",20.799,30.425491,0.209],
    [19862,"urn:WaterMeter:MC0203J22010600005","2024-05-06T18:45:00",20.7,30.376228,0.201],
    [19863,"urn:WaterMeter:MC0203J22010600005","2024-05-06T19:00:00",20.6,30.395235,0.207],
    [19864,"urn:WaterMeter:MC0203J22010600005","2024-05-06T19:15:00",20.6,30.400627,0.2],
    [19865,"urn:WaterMeter:MC0203J22010600005","2024-05-06T19:30:00",20.5,30.366142,0.195],
    [19866,"urn:WaterMeter:MC0203J22010600005","2024-05-06T19:45:00",20.399,30.391317,0.191],
    [19867,"urn:WaterMeter:MC0203J22010600005","2024-05-06T20:00:00",20.299,30.369246,0.196],
    [19868,"urn:WaterMeter:MC0203J22010600005","2024-05-06T20:15:00",20.2,30.39252,0.199],
    [19869,"urn:WaterMeter:MC0203J22010600005","2024-05-06T20:30:00",20.1,30.328516,0.195],
    [19870,"urn:WaterMeter:MC0203J22010600005","2024-05-06T20:45:00",20,30.356445,0.19],
    [19871,"urn:WaterMeter:MC0203J22010600005","2024-05-06T21:00:00",19.899,30.333134,0.203],
    [19872,"urn:WaterMeter:MC0203J22010600005","2024-05-06T21:15:00",19.899,30.356834,0.2],
    [19873,"urn:WaterMeter:MC0203J22010600005","2024-05-06T21:30:00",19.799,30.298649,0.201],
    [19874,"urn:WaterMeter:MC0203J22010600005","2024-05-06T21:45:00",19.7,30.347525,0.199],
    [19875,"urn:WaterMeter:MC0203J22010600005","2024-05-06T22:00:00",19.6,30.350628,0.199],
    [19876,"urn:WaterMeter:MC0203J22010600005","2024-05-06T22:15:00",19.5,30.290503,0.204],
    [19877,"urn:WaterMeter:MC0203J22010600005","2024-05-06T22:30:00",19.399,30.324638,0.208],
    [19878,"urn:WaterMeter:MC0203J22010600005","2024-05-06T22:45:00",19.2,30.29283,0.201],
    [19879,"urn:WaterMeter:MC0203J22010600005","2024-05-06T23:00:00",19.2,30.324638,0.201],
    [19880,"urn:WaterMeter:MC0203J22010600005","2024-05-06T23:15:00",19.1,30.309898,0.196],
    [19881,"urn:WaterMeter:MC0203J22010600005","2024-05-06T23:30:00",19,30.338215,0.194],
    [19882,"urn:WaterMeter:MC0203J22010600005","2024-05-06T23:45:00",18.799,30.29283,0.191],
    [19883,"urn:WaterMeter:MC0203J22010600005","2024-05-07T00:00:00",18.7,30.276539,0.203],
    [19884,"urn:WaterMeter:MC0203J22010600005","2024-05-07T00:15:00",18.6,30.316105,0.193],
    [19885,"urn:WaterMeter:MC0203J22010600005","2024-05-07T00:30:00",18.6,30.28193,0.196],
    [19886,"urn:WaterMeter:MC0203J22010600005","2024-05-07T00:45:00",18.5,30.31145,0.2],
    [19887,"urn:WaterMeter:MC0203J22010600005","2024-05-07T01:00:00",18.5,30.27072,0.2],
    [19888,"urn:WaterMeter:MC0203J22010600005","2024-05-07T01:15:00",18.399,30.28193,0.192],
    [19889,"urn:WaterMeter:MC0203J22010600005","2024-05-07T01:30:00",18.299,30.248997,0.198],
    [19890,"urn:WaterMeter:MC0203J22010600005","2024-05-07T01:45:00",18.2,30.297873,0.205],
    [19891,"urn:WaterMeter:MC0203J22010600005","2024-05-07T02:00:00",18.2,30.298649,0.191],
    [19892,"urn:WaterMeter:MC0203J22010600005","2024-05-07T02:15:00",18.1,30.261023,0.197],
    [19893,"urn:WaterMeter:MC0203J22010600005","2024-05-07T02:30:00",18,30.227663,0.191],
    [19894,"urn:WaterMeter:MC0203J22010600005","2024-05-07T02:45:00",17.899,30.286236,0.203],
    [19895,"urn:WaterMeter:MC0203J22010600005","2024-05-07T03:00:00",17.799,30.243528,0.204],
    [19896,"urn:WaterMeter:MC0203J22010600005","2024-05-07T03:15:00",17.7,30.283482,0.193],
    [19897,"urn:WaterMeter:MC0203J22010600005","2024-05-07T03:30:00",17.6,30.272272,0.197],
    [19898,"urn:WaterMeter:MC0203J22010600005","2024-05-07T03:45:00",17.5,30.297873,0.194],
    [19899,"urn:WaterMeter:MC0203J22010600005","2024-05-07T04:00:00",17.5,30.250937,0.198],
    [19900,"urn:WaterMeter:MC0203J22010600005","2024-05-07T04:15:00",17.399,30.217152,0.202],
    [19901,"urn:WaterMeter:MC0203J22010600005","2024-05-07T04:30:00",17.299,30.22805,0.199],
    [19902,"urn:WaterMeter:MC0203J22010600005","2024-05-07T04:45:00",17.299,30.2137,0.2],
    [19903,"urn:WaterMeter:MC0203J22010600005","2024-05-07T05:00:00",17.2,30.199347,0.189],
    [19904,"urn:WaterMeter:MC0203J22010600005","2024-05-07T05:15:00",17.1,30.284645,0.189],
    [19905,"urn:WaterMeter:MC0203J22010600005","2024-05-07T05:30:00",17.1,30.227663,0.201],
    [19906,"urn:WaterMeter:MC0203J22010600005","2024-05-07T05:45:00",17,30.224909,0.192],
    [19907,"urn:WaterMeter:MC0203J22010600005","2024-05-07T06:00:00",17,30.203962,0.199],
    [19908,"urn:WaterMeter:MC0203J22010600005","2024-05-07T06:15:00",17.1,30.214863,0.202],
    [19909,"urn:WaterMeter:MC0203J22010600005","2024-05-07T06:30:00",17.1,30.199734,0.198],
    [19910,"urn:WaterMeter:MC0203J22010600005","2024-05-07T06:45:00",17.2,30.16556,0.195],
    [19911,"urn:WaterMeter:MC0203J22010600005","2024-05-07T07:00:00",17.299,30.159393,0.195],
    [19912,"urn:WaterMeter:MC0203J22010600005","2024-05-07T07:15:00",17.399,30.179176,0.206],
    [19913,"urn:WaterMeter:MC0203J22010600005","2024-05-07T07:30:00",17.5,30.103535,0.201],
    [19914,"urn:WaterMeter:MC0203J22010600005","2024-05-07T07:45:00",17.7,30.043022,0.189],
    [19915,"urn:WaterMeter:MC0203J22010600005","2024-05-07T08:00:00",17.799,30.047289,0.195],
    [19916,"urn:WaterMeter:MC0203J22010600005","2024-05-07T08:15:00",18,30.000353,0.201],
    [19917,"urn:WaterMeter:MC0203J22010600005","2024-05-07T08:30:00",18.1,29.98251,0.187],
    [19918,"urn:WaterMeter:MC0203J22010600005","2024-05-07T08:45:00",18.299,29.956133,0.185],
    [19919,"urn:WaterMeter:MC0203J22010600005","2024-05-07T09:00:00",18.5,29.94178,0.189],
    [19920,"urn:WaterMeter:MC0203J22010600005","2024-05-07T09:15:00",18.7,29.89213,0.183],
    [19921,"urn:WaterMeter:MC0203J22010600005","2024-05-07T09:30:00",18.899,29.875023,0.184],
    [19922,"urn:WaterMeter:MC0203J22010600005","2024-05-07T09:45:00",19.1,29.859547,0.192],
    [19923,"urn:WaterMeter:MC0203J22010600005","2024-05-07T10:00:00",19.2,29.853727,0.187],
    [19924,"urn:WaterMeter:MC0203J22010600005","2024-05-07T10:15:00",19.399,29.817226,0.184],
    [19925,"urn:WaterMeter:MC0203J22010600005","2024-05-07T10:30:00",19.6,29.807955,0.191],
    [19926,"urn:WaterMeter:MC0203J22010600005","2024-05-07T10:45:00",19.899,29.729212,0.191],
    [19927,"urn:WaterMeter:MC0203J22010600005","2024-05-07T11:00:00",20.1,29.690033,0.184],
    [19928,"urn:WaterMeter:MC0203J22010600005","2024-05-07T11:15:00",20.299,29.66129,0.197],
    [19929,"urn:WaterMeter:MC0203J22010600005","2024-05-07T11:30:00",20.5,29.6225,0.191],
    [19930,"urn:WaterMeter:MC0203J22010600005","2024-05-07T11:45:00",20.6,29.6078,0.195],
    [19931,"urn:WaterMeter:MC0203J22010600005","2024-05-07T12:00:00",20.6,29.546083,0.18],
    [19932,"urn:WaterMeter:MC0203J22010600005","2024-05-07T12:15:00",20.6,29.50966,0.182],
    [19933,"urn:WaterMeter:MC0203J22010600005","2024-05-07T12:30:00",20.6,29.433243,0.187],
    [19934,"urn:WaterMeter:MC0203J22010600005","2024-05-07T12:45:00",20.7,29.410318,0.184],
    [19935,"urn:WaterMeter:MC0203J22010600005","2024-05-07T13:00:00",20.799,29.350582,0.191],
    [19936,"urn:WaterMeter:MC0203J22010600005","2024-05-07T13:15:00",20.899,29.36769,0.186],
    [19937,"urn:WaterMeter:MC0203J22010600005","2024-05-07T13:30:00",21,29.28817,0.182],
    [19938,"urn:WaterMeter:MC0203J22010600005","2024-05-07T13:45:00",21.2,29.20861,0.188],
    [19939,"urn:WaterMeter:MC0203J22010600005","2024-05-07T14:00:00",21.2,29.183825,0.19],
    [19940,"urn:WaterMeter:MC0203J22010600005","2024-05-07T14:15:00",21.2,29.101551,0.188],
    [19941,"urn:WaterMeter:MC0203J22010600005","2024-05-07T14:30:00",21.299,29.119781,0.182],
    [19942,"urn:WaterMeter:MC0203J22010600005","2024-05-07T14:45:00",21.299,29.044956,0.182],
    [19943,"urn:WaterMeter:MC0203J22010600005","2024-05-07T15:00:00",21.299,28.998407,0.18],
    [19944,"urn:WaterMeter:MC0203J22010600005","2024-05-07T15:15:00",21.299,28.95923,0.188],
    [19945,"urn:WaterMeter:MC0203J22010600005","2024-05-07T15:30:00",21.299,28.890184,0.189],
    [19946,"urn:WaterMeter:MC0203J22010600005","2024-05-07T15:45:00",21.299,28.89674,0.182],
    [19947,"urn:WaterMeter:MC0203J22010600005","2024-05-07T16:00:00",21.299,28.849415,0.181],
    [19948,"urn:WaterMeter:MC0203J22010600005","2024-05-07T16:15:00",21.299,28.791618,0.183],
    [19949,"urn:WaterMeter:MC0203J22010600005","2024-05-07T16:30:00",21.299,28.747824,0.182],
    [19950,"urn:WaterMeter:MC0203J22010600005","2024-05-07T16:45:00",21.2,28.781921,0.18],
    [19951,"urn:WaterMeter:MC0203J22010600005","2024-05-07T17:00:00",21.2,28.734636,0.19],
    [19952,"urn:WaterMeter:MC0203J22010600005","2024-05-07T17:15:00",21.2,28.72067,0.179],
    [19953,"urn:WaterMeter:MC0203J22010600005","2024-05-07T17:30:00",21.1,28.672146,0.179],
    [19954,"urn:WaterMeter:MC0203J22010600005","2024-05-07T17:45:00",21.1,28.625597,0.178],
    [19955,"urn:WaterMeter:MC0203J22010600005","2024-05-07T18:00:00",21,28.630291,0.189],
    [19956,"urn:WaterMeter:MC0203J22010600005","2024-05-07T18:15:00",20.899,28.605465,0.186],
    [19957,"urn:WaterMeter:MC0203J22010600005","2024-05-07T18:30:00",20.799,28.546116,0.188],
    [19958,"urn:WaterMeter:MC0203J22010600005","2024-05-07T18:45:00",20.7,28.567411,0.189],
    [19959,"urn:WaterMeter:MC0203J22010600005","2024-05-07T19:00:00",20.6,28.569391,0.177],
    [19960,"urn:WaterMeter:MC0203J22010600005","2024-05-07T19:15:00",20.5,28.496077,0.182],
    [19961,"urn:WaterMeter:MC0203J22010600005","2024-05-07T19:30:00",20.399,28.518925,0.183],
    [19962,"urn:WaterMeter:MC0203J22010600005","2024-05-07T19:45:00",20.2,28.480911,0.182],
    [19963,"urn:WaterMeter:MC0203J22010600005","2024-05-07T20:00:00",20.1,28.508839,0.191],
    [19964,"urn:WaterMeter:MC0203J22010600005","2024-05-07T20:15:00",20,28.488707,0.178],
    [19965,"urn:WaterMeter:MC0203J22010600005","2024-05-07T20:30:00",19.899,28.475906,0.184],
    [19966,"urn:WaterMeter:MC0203J22010600005","2024-05-07T20:45:00",19.799,28.450306,0.192],
    [19967,"urn:WaterMeter:MC0203J22010600005","2024-05-07T21:00:00",19.7,28.483664,0.184],
    [19968,"urn:WaterMeter:MC0203J22010600005","2024-05-07T21:15:00",19.6,28.43634,0.185],
    [19969,"urn:WaterMeter:MC0203J22010600005","2024-05-07T21:30:00",19.5,28.46582,0.189],
    [19970,"urn:WaterMeter:MC0203J22010600005","2024-05-07T21:45:00",19.399,28.412252,0.191],
    [19971,"urn:WaterMeter:MC0203J22010600005","2024-05-07T22:00:00",19.299,28.432423,0.191],
    [19972,"urn:WaterMeter:MC0203J22010600005","2024-05-07T22:15:00",19.2,28.416946,0.184],
    [19973,"urn:WaterMeter:MC0203J22010600005","2024-05-07T22:30:00",19.1,28.415394,0.193],
    [19974,"urn:WaterMeter:MC0203J22010600005","2024-05-07T22:45:00",19,28.387854,0.184],
    [19975,"urn:WaterMeter:MC0203J22010600005","2024-05-07T23:00:00",18.899,28.378931,0.177],
    [19976,"urn:WaterMeter:MC0203J22010600005","2024-05-07T23:15:00",18.799,28.38824,0.187],
    [19977,"urn:WaterMeter:MC0203J22010600005","2024-05-07T23:30:00",18.7,28.397163,0.179],
    [19978,"urn:WaterMeter:MC0203J22010600005","2024-05-07T23:45:00",18.6,28.407248,0.183],
    [19979,"urn:WaterMeter:MC0203J22010600005","2024-05-08T00:00:00",18.5,28.375053,0.177],
    [19980,"urn:WaterMeter:MC0203J22010600005","2024-05-08T00:15:00",18.399,28.3607,0.181],
    [19981,"urn:WaterMeter:MC0203J22010600005","2024-05-08T00:30:00",18.299,28.34437,0.178],
    [19982,"urn:WaterMeter:MC0203J22010600005","2024-05-08T00:45:00",18.2,28.32928,0.18],
    [19983,"urn:WaterMeter:MC0203J22010600005","2024-05-08T01:00:00",18.1,28.347124,0.177],
    [19984,"urn:WaterMeter:MC0203J22010600005","2024-05-08T01:15:00",18,28.355658,0.178],
    [19985,"urn:WaterMeter:MC0203J22010600005","2024-05-08T01:30:00",17.899,28.361826,0.179],
    [19986,"urn:WaterMeter:MC0203J22010600005","2024-05-08T01:45:00",17.899,28.304804,0.185],
    [19987,"urn:WaterMeter:MC0203J22010600005","2024-05-08T02:00:00",17.799,28.354843,0.174],
    [19988,"urn:WaterMeter:MC0203J22010600005","2024-05-08T02:15:00",17.7,28.312601,0.181],
    [19989,"urn:WaterMeter:MC0203J22010600005","2024-05-08T02:30:00",17.6,28.370785,0.19],
    [19990,"urn:WaterMeter:MC0203J22010600005","2024-05-08T02:45:00",17.6,28.37738,0.185],
    [19991,"urn:WaterMeter:MC0203J22010600005","2024-05-08T03:00:00",17.5,28.361088,0.175],
    [19992,"urn:WaterMeter:MC0203J22010600005","2024-05-08T03:15:00",17.399,28.332771,0.184],
    [19993,"urn:WaterMeter:MC0203J22010600005","2024-05-08T03:30:00",17.299,28.340528,0.195],
    [19994,"urn:WaterMeter:MC0203J22010600005","2024-05-08T03:45:00",17.2,28.345533,0.185],
    [19995,"urn:WaterMeter:MC0203J22010600005","2024-05-08T04:00:00",17.1,28.362213,0.195],
    [19996,"urn:WaterMeter:MC0203J22010600005","2024-05-08T04:15:00",17,28.34243,0.181],
    [19997,"urn:WaterMeter:MC0203J22010600005","2024-05-08T04:30:00",16.899,28.363377,0.183],
    [19998,"urn:WaterMeter:MC0203J22010600005","2024-05-08T04:45:00",16.899,28.312601,0.186],
    [19999,"urn:WaterMeter:MC0203J22010600005","2024-05-08T05:00:00",16.799,28.383936,0.181],
    [20000,"urn:WaterMeter:MC0203J22010600005","2024-05-08T05:15:00",16.799,28.347511,0.189],
    [20001,"urn:WaterMeter:MC0203J22010600005","2024-05-08T05:30:00",16.7,28.37738,0.177],
    [20002,"urn:WaterMeter:MC0203J22010600005","2024-05-08T05:45:00",16.7,28.336262,0.175],
    [20003,"urn:WaterMeter:MC0203J22010600005","2024-05-08T06:00:00",16.7,28.376991,0.18],
    [20004,"urn:WaterMeter:MC0203J22010600005","2024-05-08T06:15:00",16.799,28.299799,0.183],
    [20005,"urn:WaterMeter:MC0203J22010600005","2024-05-08T06:30:00",16.799,28.318808,0.183],
    [20006,"urn:WaterMeter:MC0203J22010600005","2024-05-08T06:45:00",16.899,28.332384,0.185],
    [20007,"urn:WaterMeter:MC0203J22010600005","2024-05-08T07:00:00",17,28.303251,0.176],
    [20008,"urn:WaterMeter:MC0203J22010600005","2024-05-08T07:15:00",17.2,28.286184,0.181],
    [20009,"urn:WaterMeter:MC0203J22010600005","2024-05-08T07:30:00",17.399,28.252089,0.174],
    [20010,"urn:WaterMeter:MC0203J22010600005","2024-05-08T07:45:00",17.6,28.242392,0.172],
    [20011,"urn:WaterMeter:MC0203J22010600005","2024-05-08T08:00:00",17.799,28.361826,0.183],
    [20012,"urn:WaterMeter:MC0203J22010600005","2024-05-08T08:15:00",17.899,29.175678,0.185],
    [20013,"urn:WaterMeter:MC0203J22010600005","2024-05-08T08:30:00",18.1,30.535229,0.203],
    [20014,"urn:WaterMeter:MC0203J22010600005","2024-05-08T08:45:00",18.299,31.762583,0.221],
    [20015,"urn:WaterMeter:MC0203J22010600005","2024-05-08T09:00:00",18.399,32.641953,0.23],
    [20016,"urn:WaterMeter:MC0203J22010600005","2024-05-08T09:15:00",18.6,32.657467,0.225],
    [20017,"urn:WaterMeter:MC0203J22010600005","2024-05-08T09:30:00",18.799,32.425503,0.218],
    [20018,"urn:WaterMeter:MC0203J22010600005","2024-05-08T09:45:00",19,32.327366,0.227],
    [20019,"urn:WaterMeter:MC0203J22010600005","2024-05-08T10:00:00",19.1,32.227676,0.203],
    [20020,"urn:WaterMeter:MC0203J22010600005","2024-05-08T10:15:00",19.299,32.129925,0.218],
    [20021,"urn:WaterMeter:MC0203J22010600005","2024-05-08T10:30:00",19.5,32.063206,0.207],
    [20022,"urn:WaterMeter:MC0203J22010600005","2024-05-08T10:45:00",19.7,32.020885,0.209],
    [20023,"urn:WaterMeter:MC0203J22010600005","2024-05-08T11:00:00",19.899,31.94606,0.214],
    [20024,"urn:WaterMeter:MC0203J22010600005","2024-05-08T11:15:00",20,31.850248,0.225],
    [20025,"urn:WaterMeter:MC0203J22010600005","2024-05-08T11:30:00",20.2,31.802149,0.211],
    [20026,"urn:WaterMeter:MC0203J22010600005","2024-05-08T11:45:00",20.299,31.74086,0.205],
    [20027,"urn:WaterMeter:MC0203J22010600005","2024-05-08T12:00:00",20.399,31.677633,0.212],
    [20028,"urn:WaterMeter:MC0203J22010600005","2024-05-08T12:15:00",20.5,31.605095,0.204],
    [20029,"urn:WaterMeter:MC0203J22010600005","2024-05-08T12:30:00",20.6,31.556995,0.219],
    [20030,"urn:WaterMeter:MC0203J22010600005","2024-05-08T12:45:00",20.799,31.505367,0.207],
    [20031,"urn:WaterMeter:MC0203J22010600005","2024-05-08T13:00:00",20.799,31.41231,0.211],
    [20032,"urn:WaterMeter:MC0203J22010600005","2024-05-08T13:15:00",20.899,31.40494,0.208],
    [20033,"urn:WaterMeter:MC0203J22010600005","2024-05-08T13:30:00",20.899,31.374683,0.204],
    [20034,"urn:WaterMeter:MC0203J22010600005","2024-05-08T13:45:00",20.899,31.3068,0.202],
    [20035,"urn:WaterMeter:MC0203J22010600005","2024-05-08T14:00:00",21,31.250942,0.204],
    [20036,"urn:WaterMeter:MC0203J22010600005","2024-05-08T14:15:00",21.1,31.211378,0.211],
    [20037,"urn:WaterMeter:MC0203J22010600005","2024-05-08T14:30:00",21.1,31.159399,0.208],
    [20038,"urn:WaterMeter:MC0203J22010600005","2024-05-08T14:45:00",21.2,31.096909,0.212],
    [20039,"urn:WaterMeter:MC0203J22010600005","2024-05-08T15:00:00",21.2,31.03174,0.199],
    [20040,"urn:WaterMeter:MC0203J22010600005","2024-05-08T15:15:00",21.2,30.988722,0.2],
    [20041,"urn:WaterMeter:MC0203J22010600005","2024-05-08T15:30:00",21.2,30.978249,0.208],
    [20042,"urn:WaterMeter:MC0203J22010600005","2024-05-08T15:45:00",21.299,30.960754,0.22],
    [20043,"urn:WaterMeter:MC0203J22010600005","2024-05-08T16:00:00",21.299,30.877008,0.207],
    [20044,"urn:WaterMeter:MC0203J22010600005","2024-05-08T16:15:00",21.299,30.845161,0.227],
    [20045,"urn:WaterMeter:MC0203J22010600005","2024-05-08T16:30:00",21.299,30.84869,0.215],
    [20046,"urn:WaterMeter:MC0203J22010600005","2024-05-08T16:45:00",21.299,30.754044,0.209],
    [20047,"urn:WaterMeter:MC0203J22010600005","2024-05-08T17:00:00",21.2,30.721033,0.21],
    [20048,"urn:WaterMeter:MC0203J22010600005","2024-05-08T17:15:00",21.2,30.683058,0.199],
    [20049,"urn:WaterMeter:MC0203J22010600005","2024-05-08T17:30:00",21.1,30.698185,0.212],
    [20050,"urn:WaterMeter:MC0203J22010600005","2024-05-08T17:45:00",21,30.679955,0.212],
    [20051,"urn:WaterMeter:MC0203J22010600005","2024-05-08T18:00:00",21,30.657845,0.218],
    [20052,"urn:WaterMeter:MC0203J22010600005","2024-05-08T18:15:00",20.799,30.634144,0.212],
    [20053,"urn:WaterMeter:MC0203J22010600005","2024-05-08T18:30:00",20.7,30.595354,0.197],
    [20054,"urn:WaterMeter:MC0203J22010600005","2024-05-08T18:45:00",20.6,30.626812,0.219],
    [20055,"urn:WaterMeter:MC0203J22010600005","2024-05-08T19:00:00",20.5,30.585655,0.215],
    [20056,"urn:WaterMeter:MC0203J22010600005","2024-05-08T19:15:00",20.399,30.614748,0.208],
    [20057,"urn:WaterMeter:MC0203J22010600005","2024-05-08T19:30:00",20.299,30.607805,0.203],
    [20058,"urn:WaterMeter:MC0203J22010600005","2024-05-08T19:45:00",20.2,30.55893,0.223],
    [20059,"urn:WaterMeter:MC0203J22010600005","2024-05-08T20:00:00",20.2,30.578712,0.21],
    [20060,"urn:WaterMeter:MC0203J22010600005","2024-05-08T20:15:00",20.1,30.524794,0.208],
    [20061,"urn:WaterMeter:MC0203J22010600005","2024-05-08T20:30:00",20,30.570566,0.202],
    [20062,"urn:WaterMeter:MC0203J22010600005","2024-05-08T20:45:00",19.899,30.510054,0.2],
    [20063,"urn:WaterMeter:MC0203J22010600005","2024-05-08T21:00:00",19.799,30.513933,0.202],
    [20064,"urn:WaterMeter:MC0203J22010600005","2024-05-08T21:15:00",19.7,30.532553,0.198],
    [20065,"urn:WaterMeter:MC0203J22010600005","2024-05-08T21:30:00",19.5,30.559317,0.203],
    [20066,"urn:WaterMeter:MC0203J22010600005","2024-05-08T21:45:00",19.399,30.541473,0.2],
    [20067,"urn:WaterMeter:MC0203J22010600005","2024-05-08T22:00:00",19.299,30.492987,0.209],
    [20068,"urn:WaterMeter:MC0203J22010600005","2024-05-08T22:15:00",19.1,30.520916,0.202],
    [20069,"urn:WaterMeter:MC0203J22010600005","2024-05-08T22:30:00",19,30.53294,0.202],
    [20070,"urn:WaterMeter:MC0203J22010600005","2024-05-08T22:45:00",19,30.507689,0.196],
    [20071,"urn:WaterMeter:MC0203J22010600005","2024-05-08T23:00:00",18.899,30.49997,0.201],
    [20072,"urn:WaterMeter:MC0203J22010600005","2024-05-08T23:15:00",18.799,30.51277,0.2],
    [20073,"urn:WaterMeter:MC0203J22010600005","2024-05-08T23:30:00",18.7,30.476269,0.199],
    [20074,"urn:WaterMeter:MC0203J22010600005","2024-05-08T23:45:00",18.6,30.46661,0.2],
    [20075,"urn:WaterMeter:MC0203J22010600005","2024-05-09T00:00:00",18.5,30.506176,0.207],
    [20076,"urn:WaterMeter:MC0203J22010600005","2024-05-09T00:15:00",18.399,30.455748,0.21],
    [20077,"urn:WaterMeter:MC0203J22010600005","2024-05-09T00:30:00",18.299,30.468122,0.206],
    [20078,"urn:WaterMeter:MC0203J22010600005","2024-05-09T00:45:00",18.2,30.4926,0.197],
    [20079,"urn:WaterMeter:MC0203J22010600005","2024-05-09T01:00:00",18.1,30.44605,0.212],
    [20080,"urn:WaterMeter:MC0203J22010600005","2024-05-09T01:15:00",18,30.461178,0.206],
    [20081,"urn:WaterMeter:MC0203J22010600005","2024-05-09T01:30:00",17.899,30.472816,0.202],
    [20082,"urn:WaterMeter:MC0203J22010600005","2024-05-09T01:45:00",17.799,30.466997,0.196],
    [20083,"urn:WaterMeter:MC0203J22010600005","2024-05-09T02:00:00",17.7,30.428595,0.201],
    [20084,"urn:WaterMeter:MC0203J22010600005","2024-05-09T02:15:00",17.6,30.45536,0.206],
    [20085,"urn:WaterMeter:MC0203J22010600005","2024-05-09T02:30:00",17.5,30.470877,0.196],
    [20086,"urn:WaterMeter:MC0203J22010600005","2024-05-09T02:45:00",17.399,30.397913,0.208],
    [20087,"urn:WaterMeter:MC0203J22010600005","2024-05-09T03:00:00",17.399,30.46273,0.203],
    [20088,"urn:WaterMeter:MC0203J22010600005","2024-05-09T03:15:00",17.299,30.432861,0.2],
    [20089,"urn:WaterMeter:MC0203J22010600005","2024-05-09T03:30:00",17.1,30.467733,0.209],
    [20090,"urn:WaterMeter:MC0203J22010600005","2024-05-09T03:45:00",17,30.45148,0.201],
    [20091,"urn:WaterMeter:MC0203J22010600005","2024-05-09T04:00:00",16.899,30.463894,0.198],
    [20092,"urn:WaterMeter:MC0203J22010600005","2024-05-09T04:15:00",16.799,30.40024,0.208],
    [20093,"urn:WaterMeter:MC0203J22010600005","2024-05-09T04:30:00",16.7,30.401403,0.198],
    [20094,"urn:WaterMeter:MC0203J22010600005","2024-05-09T04:45:00",16.6,30.461567,0.2],
    [20095,"urn:WaterMeter:MC0203J22010600005","2024-05-09T05:00:00",16.5,30.40024,0.205],
    [20096,"urn:WaterMeter:MC0203J22010600005","2024-05-09T05:15:00",16.399,30.4092,0.197],
    [20097,"urn:WaterMeter:MC0203J22010600005","2024-05-09T05:30:00",16.299,30.385538,0.197],
    [20098,"urn:WaterMeter:MC0203J22010600005","2024-05-09T05:45:00",16.2,30.43131,0.217],
    [20099,"urn:WaterMeter:MC0203J22010600005","2024-05-09T06:00:00",16.299,30.420023,0.205],
    [20100,"urn:WaterMeter:MC0203J22010600005","2024-05-09T06:15:00",16.2,30.41886,0.198],
    [20101,"urn:WaterMeter:MC0203J22010600005","2024-05-09T06:30:00",16.2,30.38007,0.22],
    [20102,"urn:WaterMeter:MC0203J22010600005","2024-05-09T06:45:00",16.2,30.391317,0.197],
    [20103,"urn:WaterMeter:MC0203J22010600005","2024-05-09T07:00:00",16.299,30.410713,0.196],
    [20104,"urn:WaterMeter:MC0203J22010600005","2024-05-09T07:15:00",16.5,30.32266,0.21],
    [20105,"urn:WaterMeter:MC0203J22010600005","2024-05-09T07:30:00",16.6,30.291666,0.2],
    [20106,"urn:WaterMeter:MC0203J22010600005","2024-05-09T07:45:00",16.799,30.312225,0.202],
    [20107,"urn:WaterMeter:MC0203J22010600005","2024-05-09T08:00:00",17.1,30.282318,0.199],
    [20108,"urn:WaterMeter:MC0203J22010600005","2024-05-09T08:15:00",17.299,30.271109,0.202],
    [20109,"urn:WaterMeter:MC0203J22010600005","2024-05-09T08:30:00",17.5,30.226072,0.202],
    [20110,"urn:WaterMeter:MC0203J22010600005","2024-05-09T08:45:00",17.7,30.148104,0.192],
    [20111,"urn:WaterMeter:MC0203J22010600005","2024-05-09T09:00:00",17.899,30.155514,0.192],
    [20112,"urn:WaterMeter:MC0203J22010600005","2024-05-09T09:15:00",18.1,30.129873,0.19],
    [20113,"urn:WaterMeter:MC0203J22010600005","2024-05-09T09:30:00",18.299,30.046902,0.193],
    [20114,"urn:WaterMeter:MC0203J22010600005","2024-05-09T09:45:00",18.6,30.008112,0.212],
    [20115,"urn:WaterMeter:MC0203J22010600005","2024-05-09T10:00:00",18.7,29.944458,0.196],
    [20116,"urn:WaterMeter:MC0203J22010600005","2024-05-09T10:15:00",19,29.937126,0.195],
    [20117,"urn:WaterMeter:MC0203J22010600005","2024-05-09T10:30:00",19.2,29.8758,0.192],
    [20118,"urn:WaterMeter:MC0203J22010600005","2024-05-09T10:45:00",19.399,29.854853,0.183],
    [20119,"urn:WaterMeter:MC0203J22010600005","2024-05-09T11:00:00",19.6,29.783129,0.198],
    [20120,"urn:WaterMeter:MC0203J22010600005","2024-05-09T11:15:00",19.7,29.714472,0.19],
    [20121,"urn:WaterMeter:MC0203J22010600005","2024-05-09T11:30:00",19.899,29.672928,0.187],
    [20122,"urn:WaterMeter:MC0203J22010600005","2024-05-09T11:45:00",20.1,29.63185,0.197],
    [20123,"urn:WaterMeter:MC0203J22010600005","2024-05-09T12:00:00",20.2,29.57793,0.181],
    [20124,"urn:WaterMeter:MC0203J22010600005","2024-05-09T12:15:00",20.399,29.523624,0.192],
    [20125,"urn:WaterMeter:MC0203J22010600005","2024-05-09T12:30:00",20.5,29.42471,0.194],
    [20126,"urn:WaterMeter:MC0203J22010600005","2024-05-09T12:45:00",20.7,29.420404,0.194],
    [20127,"urn:WaterMeter:MC0203J22010600005","2024-05-09T13:00:00",20.799,29.392475,0.186],
    [20128,"urn:WaterMeter:MC0203J22010600005","2024-05-09T13:15:00",20.899,29.32153,0.201],
    [20129,"urn:WaterMeter:MC0203J22010600005","2024-05-09T13:30:00",21,29.233475,0.191],
    [20130,"urn:WaterMeter:MC0203J22010600005","2024-05-09T13:45:00",21.1,29.24007,0.198],
    [20131,"urn:WaterMeter:MC0203J22010600005","2024-05-09T14:00:00",21.2,29.108572,0.194],
    [20132,"urn:WaterMeter:MC0203J22010600005","2024-05-09T14:15:00",21.299,29.110472,0.179],
    [20133,"urn:WaterMeter:MC0203J22010600005","2024-05-09T14:30:00",21.299,29.063148,0.184],
    [20134,"urn:WaterMeter:MC0203J22010600005","2024-05-09T14:45:00",21.299,28.957678,0.187],
    [20135,"urn:WaterMeter:MC0203J22010600005","2024-05-09T15:00:00",21.299,28.92583,0.182],
    [20136,"urn:WaterMeter:MC0203J22010600005","2024-05-09T15:15:00",21.399,28.876995,0.182],
    [20137,"urn:WaterMeter:MC0203J22010600005","2024-05-09T15:30:00",21.399,28.835878,0.182],
    [20138,"urn:WaterMeter:MC0203J22010600005","2024-05-09T15:45:00",21.399,28.787003,0.177],
    [20139,"urn:WaterMeter:MC0203J22010600005","2024-05-09T16:00:00",21.399,28.70434,0.178],
    [20140,"urn:WaterMeter:MC0203J22010600005","2024-05-09T16:15:00",21.399,28.729942,0.182],
    [20141,"urn:WaterMeter:MC0203J22010600005","2024-05-09T16:30:00",21.399,28.650461,0.187],
    [20142,"urn:WaterMeter:MC0203J22010600005","2024-05-09T16:45:00",21.399,28.622921,0.196],
    [20143,"urn:WaterMeter:MC0203J22010600005","2024-05-09T17:00:00",21.299,28.591501,0.195],
    [20144,"urn:WaterMeter:MC0203J22010600005","2024-05-09T17:15:00",21.299,28.575558,0.19],
    [20145,"urn:WaterMeter:MC0203J22010600005","2024-05-09T17:30:00",21.2,28.540298,0.2],
    [20146,"urn:WaterMeter:MC0203J22010600005","2024-05-09T17:45:00",21.2,28.507715,0.189],
    [20147,"urn:WaterMeter:MC0203J22010600005","2024-05-09T18:00:00",21.1,28.439405,0.195],
    [20148,"urn:WaterMeter:MC0203J22010600005","2024-05-09T18:15:00",21,28.451042,0.193],
    [20149,"urn:WaterMeter:MC0203J22010600005","2024-05-09T18:30:00",20.899,28.426643,0.181],
    [20150,"urn:WaterMeter:MC0203J22010600005","2024-05-09T18:45:00",20.799,28.45496,0.185],
    [20151,"urn:WaterMeter:MC0203J22010600005","2024-05-09T19:00:00",20.7,28.409576,0.182],
    [20152,"urn:WaterMeter:MC0203J22010600005","2024-05-09T19:15:00",20.6,28.434013,0.183],
    [20153,"urn:WaterMeter:MC0203J22010600005","2024-05-09T19:30:00",20.5,28.352167,0.183],
    [20154,"urn:WaterMeter:MC0203J22010600005","2024-05-09T19:45:00",20.399,28.39212,0.189],
    [20155,"urn:WaterMeter:MC0203J22010600005","2024-05-09T20:00:00",20.299,28.324587,0.181],
    [20156,"urn:WaterMeter:MC0203J22010600005","2024-05-09T20:15:00",20.2,28.358374,0.179],
    [20157,"urn:WaterMeter:MC0203J22010600005","2024-05-09T20:30:00",20.1,28.33859,0.177],
    [20158,"urn:WaterMeter:MC0203J22010600005","2024-05-09T20:45:00",20,28.335836,0.174],
    [20159,"urn:WaterMeter:MC0203J22010600005","2024-05-09T21:00:00",19.899,28.297861,0.177],
    [20160,"urn:WaterMeter:MC0203J22010600005","2024-05-09T21:15:00",19.799,28.296658,0.182],
    [20161,"urn:WaterMeter:MC0203J22010600005","2024-05-09T21:30:00",19.799,28.309498,0.181],
    [20162,"urn:WaterMeter:MC0203J22010600005","2024-05-09T21:45:00",19.7,28.282732,0.182],
    [20163,"urn:WaterMeter:MC0203J22010600005","2024-05-09T22:00:00",19.6,28.313765,0.187],
    [20164,"urn:WaterMeter:MC0203J22010600005","2024-05-09T22:15:00",19.5,28.272646,0.182],
    [20165,"urn:WaterMeter:MC0203J22010600005","2024-05-09T22:30:00",19.5,28.298635,0.177],
    [20166,"urn:WaterMeter:MC0203J22010600005","2024-05-09T22:45:00",19.399,28.259459,0.185],
    [20167,"urn:WaterMeter:MC0203J22010600005","2024-05-09T23:00:00",19.299,28.248985,0.179],
    [20168,"urn:WaterMeter:MC0203J22010600005","2024-05-09T23:15:00",19.2,28.234632,0.188],
    [20169,"urn:WaterMeter:MC0203J22010600005","2024-05-09T23:30:00",19.1,28.196619,0.182],
    [20170,"urn:WaterMeter:MC0203J22010600005","2024-05-09T23:45:00",19,28.200497,0.177],
    [20171,"urn:WaterMeter:MC0203J22010600005","2024-05-10T00:00:00",18.899,28.222996,0.177],
    [20172,"urn:WaterMeter:MC0203J22010600005","2024-05-10T00:15:00",18.799,28.248985,0.179],
    [20173,"urn:WaterMeter:MC0203J22010600005","2024-05-10T00:30:00",18.7,28.199682,0.182],
    [20174,"urn:WaterMeter:MC0203J22010600005","2024-05-10T00:45:00",18.6,28.19468,0.194],
    [20175,"urn:WaterMeter:MC0203J22010600005","2024-05-10T01:00:00",18.5,28.244719,0.186],
    [20176,"urn:WaterMeter:MC0203J22010600005","2024-05-10T01:15:00",18.399,28.217566,0.185],
    [20177,"urn:WaterMeter:MC0203J22010600005","2024-05-10T01:30:00",18.299,28.189598,0.178],
    [20178,"urn:WaterMeter:MC0203J22010600005","2024-05-10T01:45:00",18.1,28.219465,0.195],
    [20179,"urn:WaterMeter:MC0203J22010600005","2024-05-10T02:00:00",18,28.165586,0.178],
    [20180,"urn:WaterMeter:MC0203J22010600005","2024-05-10T02:15:00",17.899,28.171793,0.179],
    [20181,"urn:WaterMeter:MC0203J22010600005","2024-05-10T02:30:00",17.799,28.247395,0.177],
    [20182,"urn:WaterMeter:MC0203J22010600005","2024-05-10T02:45:00",17.7,28.200886,0.181],
    [20183,"urn:WaterMeter:MC0203J22010600005","2024-05-10T03:00:00",17.6,28.170979,0.188],
    [20184,"urn:WaterMeter:MC0203J22010600005","2024-05-10T03:15:00",17.5,28.1908,0.187],
    [20185,"urn:WaterMeter:MC0203J22010600005","2024-05-10T03:30:00",17.399,28.176447,0.19],
    [20186,"urn:WaterMeter:MC0203J22010600005","2024-05-10T03:45:00",17.299,28.209381,0.18],
    [20187,"urn:WaterMeter:MC0203J22010600005","2024-05-10T04:00:00",17.2,28.159729,0.181],
    [20188,"urn:WaterMeter:MC0203J22010600005","2024-05-10T04:15:00",17.1,28.176447,0.176],
    [20189,"urn:WaterMeter:MC0203J22010600005","2024-05-10T04:30:00",17,28.155113,0.177],
    [20190,"urn:WaterMeter:MC0203J22010600005","2024-05-10T04:45:00",16.899,28.184206,0.176],
    [20191,"urn:WaterMeter:MC0203J22010600005","2024-05-10T05:00:00",16.799,28.187658,0.192],
    [20192,"urn:WaterMeter:MC0203J22010600005","2024-05-10T05:15:00",16.7,28.150808,0.176],
    [20193,"urn:WaterMeter:MC0203J22010600005","2024-05-10T05:30:00",16.7,28.156664,0.191],
    [20194,"urn:WaterMeter:MC0203J22010600005","2024-05-10T05:45:00",16.6,28.141886,0.182],
    [20195,"urn:WaterMeter:MC0203J22010600005","2024-05-10T06:00:00",16.6,28.143476,0.174],
    [20196,"urn:WaterMeter:MC0203J22010600005","2024-05-10T06:15:00",16.6,28.1427,0.174],
    [20197,"urn:WaterMeter:MC0203J22010600005","2024-05-10T06:30:00",16.6,28.15783,0.179],
    [20198,"urn:WaterMeter:MC0203J22010600005","2024-05-10T06:45:00",16.6,28.126797,0.179],
    [20199,"urn:WaterMeter:MC0203J22010600005","2024-05-10T07:00:00",16.7,28.119038,0.18],
    [20200,"urn:WaterMeter:MC0203J22010600005","2024-05-10T07:15:00",16.799,28.080637,0.181],
    [20201,"urn:WaterMeter:MC0203J22010600005","2024-05-10T07:30:00",17,28.096153,0.188],
    [20202,"urn:WaterMeter:MC0203J22010600005","2024-05-10T07:45:00",17.2,28.106627,0.18],
    [20203,"urn:WaterMeter:MC0203J22010600005","2024-05-10T08:00:00",17.5,28.10969,0.174],
    [20204,"urn:WaterMeter:MC0203J22010600005","2024-05-10T08:15:00",17.7,28.75442,0.199],
    [20205,"urn:WaterMeter:MC0203J22010600005","2024-05-10T08:30:00",17.899,30.183443,0.204],
    [20206,"urn:WaterMeter:MC0203J22010600005","2024-05-10T08:45:00",18.1,31.491829,0.217],
    [20207,"urn:WaterMeter:MC0203J22010600005","2024-05-10T09:00:00",18.299,32.39909,0.235],
    [20208,"urn:WaterMeter:MC0203J22010600005","2024-05-10T09:15:00",18.5,32.509293,0.219],
    [20209,"urn:WaterMeter:MC0203J22010600005","2024-05-10T09:30:00",18.7,32.28819,0.22],
    [20210,"urn:WaterMeter:MC0203J22010600005","2024-05-10T09:45:00",18.899,32.19858,0.212],
    [20211,"urn:WaterMeter:MC0203J22010600005","2024-05-10T10:00:00",19.1,32.170265,0.225],
    [20212,"urn:WaterMeter:MC0203J22010600005","2024-05-10T10:15:00",19.299,32.03838,0.218],
    [20213,"urn:WaterMeter:MC0203J22010600005","2024-05-10T10:30:00",19.5,31.946447,0.215],
    [20214,"urn:WaterMeter:MC0203J22010600005","2024-05-10T10:45:00",19.799,31.90374,0.211],
    [20215,"urn:WaterMeter:MC0203J22010600005","2024-05-10T11:00:00",20,31.823484,0.22],
    [20216,"urn:WaterMeter:MC0203J22010600005","2024-05-10T11:15:00",20.2,31.784306,0.214],
    [20217,"urn:WaterMeter:MC0203J22010600005","2024-05-10T11:30:00",20.299,31.680698,0.208],
    [20218,"urn:WaterMeter:MC0203J22010600005","2024-05-10T11:45:00",20.5,31.664057,0.221],
    [20219,"urn:WaterMeter:MC0203J22010600005","2024-05-10T12:00:00",20.6,31.595398,0.226],
    [20220,"urn:WaterMeter:MC0203J22010600005","2024-05-10T12:15:00",20.7,31.521309,0.205],
    [20221,"urn:WaterMeter:MC0203J22010600005","2024-05-10T12:30:00",20.799,31.464289,0.207],
    [20222,"urn:WaterMeter:MC0203J22010600005","2024-05-10T12:45:00",21,31.436747,0.218],
    [20223,"urn:WaterMeter:MC0203J22010600005","2024-05-10T13:00:00",21.1,31.350983,0.208],
    [20224,"urn:WaterMeter:MC0203J22010600005","2024-05-10T13:15:00",21.1,31.302496,0.213],
    [20225,"urn:WaterMeter:MC0203J22010600005","2024-05-10T13:30:00",21.2,31.236979,0.226],
    [20226,"urn:WaterMeter:MC0203J22010600005","2024-05-10T13:45:00",21.299,31.193884,0.204],
    [20227,"urn:WaterMeter:MC0203J22010600005","2024-05-10T14:00:00",21.299,31.11091,0.204],
    [20228,"urn:WaterMeter:MC0203J22010600005","2024-05-10T14:15:00",21.399,31.093067,0.216],
    [20229,"urn:WaterMeter:MC0203J22010600005","2024-05-10T14:30:00",21.399,31.032944,0.201],
    [20230,"urn:WaterMeter:MC0203J22010600005","2024-05-10T14:45:00",21.399,30.984068,0.216],
    [20231,"urn:WaterMeter:MC0203J22010600005","2024-05-10T15:00:00",21.5,30.923904,0.215],
    [20232,"urn:WaterMeter:MC0203J22010600005","2024-05-10T15:15:00",21.5,30.898342,0.208],
    [20233,"urn:WaterMeter:MC0203J22010600005","2024-05-10T15:30:00",21.5,30.855635,0.219],
    [20234,"urn:WaterMeter:MC0203J22010600005","2024-05-10T15:45:00",21.5,30.816845,0.214],
    [20235,"urn:WaterMeter:MC0203J22010600005","2024-05-10T16:00:00",21.399,30.804857,0.208],
    [20236,"urn:WaterMeter:MC0203J22010600005","2024-05-10T16:15:00",21.399,30.75482,0.205],
    [20237,"urn:WaterMeter:MC0203J22010600005","2024-05-10T16:30:00",21.399,30.694307,0.211],
    [20238,"urn:WaterMeter:MC0203J22010600005","2024-05-10T16:45:00",21.299,30.672544,0.206],
    [20239,"urn:WaterMeter:MC0203J22010600005","2024-05-10T17:00:00",21.299,30.625648,0.2],
    [20240,"urn:WaterMeter:MC0203J22010600005","2024-05-10T17:15:00",21.299,30.624872,0.2],
    [20241,"urn:WaterMeter:MC0203J22010600005","2024-05-10T17:30:00",21.2,30.55346,0.198],
    [20242,"urn:WaterMeter:MC0203J22010600005","2024-05-10T17:45:00",21.2,30.544966,0.202],
    [20243,"urn:WaterMeter:MC0203J22010600005","2024-05-10T18:00:00",21.1,30.54419,0.207],
    [20244,"urn:WaterMeter:MC0203J22010600005","2024-05-10T18:15:00",21,30.49958,0.198],
    [20245,"urn:WaterMeter:MC0203J22010600005","2024-05-10T18:30:00",20.899,30.465057,0.228],
    [20246,"urn:WaterMeter:MC0203J22010600005","2024-05-10T18:45:00",20.799,30.465057,0.201],
    [20247,"urn:WaterMeter:MC0203J22010600005","2024-05-10T19:00:00",20.799,30.446438,0.219],
    [20248,"urn:WaterMeter:MC0203J22010600005","2024-05-10T19:15:00",20.7,30.431698,0.204],
    [20249,"urn:WaterMeter:MC0203J22010600005","2024-05-10T19:30:00",20.6,30.445663,0.202],
    [20250,"urn:WaterMeter:MC0203J22010600005","2024-05-10T19:45:00",20.5,30.387865,0.199],
    [20251,"urn:WaterMeter:MC0203J22010600005","2024-05-10T20:00:00",20.399,30.432087,0.194],
    [20252,"urn:WaterMeter:MC0203J22010600005","2024-05-10T20:15:00",20.399,30.391317,0.219],
    [20253,"urn:WaterMeter:MC0203J22010600005","2024-05-10T20:30:00",20.299,30.402605,0.212],
    [20254,"urn:WaterMeter:MC0203J22010600005","2024-05-10T20:45:00",20.299,30.398687,0.21],
    [20255,"urn:WaterMeter:MC0203J22010600005","2024-05-10T21:00:00",20.2,30.34089,0.196],
    [20256,"urn:WaterMeter:MC0203J22010600005","2024-05-10T21:15:00",20.2,30.348688,0.205],
    [20257,"urn:WaterMeter:MC0203J22010600005","2024-05-10T21:30:00",20.1,30.345196,0.198],
    [20258,"urn:WaterMeter:MC0203J22010600005","2024-05-10T21:45:00",20,30.323824,0.199],
    [20259,"urn:WaterMeter:MC0203J22010600005","2024-05-10T22:00:00",19.899,30.362225,0.207],
    [20260,"urn:WaterMeter:MC0203J22010600005","2024-05-10T22:15:00",19.799,30.31145,0.199],
    [20261,"urn:WaterMeter:MC0203J22010600005","2024-05-10T22:30:00",19.799,30.306406,0.2],
    [20262,"urn:WaterMeter:MC0203J22010600005","2024-05-10T22:45:00",19.7,30.347912,0.2],
    [20263,"urn:WaterMeter:MC0203J22010600005","2024-05-10T23:00:00",19.6,30.318043,0.2],
    [20264,"urn:WaterMeter:MC0203J22010600005","2024-05-10T23:15:00",19.5,30.297096,0.202],
    [20265,"urn:WaterMeter:MC0203J22010600005","2024-05-10T23:30:00",19.399,30.340504,0.202],
    [20266,"urn:WaterMeter:MC0203J22010600005","2024-05-10T23:45:00",19.299,30.2521,0.203],
    [20267,"urn:WaterMeter:MC0203J22010600005","2024-05-11T00:00:00",19.2,30.277313,0.205],
    [20268,"urn:WaterMeter:MC0203J22010600005","2024-05-11T00:15:00",19.1,30.279253,0.2],
    [20269,"urn:WaterMeter:MC0203J22010600005","2024-05-11T00:30:00",19,30.307959,0.201],
    [20270,"urn:WaterMeter:MC0203J22010600005","2024-05-11T00:45:00",19,30.25947,0.197],
    [20271,"urn:WaterMeter:MC0203J22010600005","2024-05-11T01:00:00",18.899,30.302488,0.2],
    [20272,"urn:WaterMeter:MC0203J22010600005","2024-05-11T01:15:00",18.799,30.302101,0.202],
    [20273,"urn:WaterMeter:MC0203J22010600005","2024-05-11T01:30:00",18.7,30.288176,0.197],
    [20274,"urn:WaterMeter:MC0203J22010600005","2024-05-11T01:45:00",18.7,30.280806,0.203],
    [20275,"urn:WaterMeter:MC0203J22010600005","2024-05-11T02:00:00",18.6,30.25947,0.201],
    [20276,"urn:WaterMeter:MC0203J22010600005","2024-05-11T02:15:00",18.5,30.240852,0.198],
    [20277,"urn:WaterMeter:MC0203J22010600005","2024-05-11T02:30:00",18.5,30.24124,0.196],
    [20278,"urn:WaterMeter:MC0203J22010600005","2024-05-11T02:45:00",18.399,30.236546,0.205],
    [20279,"urn:WaterMeter:MC0203J22010600005","2024-05-11T03:00:00",18.399,30.247446,0.206],
    [20280,"urn:WaterMeter:MC0203J22010600005","2024-05-11T03:15:00",18.299,30.23736,0.216],
    [20281,"urn:WaterMeter:MC0203J22010600005","2024-05-11T03:30:00",18.2,30.192753,0.202],
    [20282,"urn:WaterMeter:MC0203J22010600005","2024-05-11T03:45:00",18.2,30.195467,0.212],
    [20283,"urn:WaterMeter:MC0203J22010600005","2024-05-11T04:00:00",18.1,30.1912,0.198],
    [20284,"urn:WaterMeter:MC0203J22010600005","2024-05-11T04:15:00",18.1,30.2156,0.196],
    [20285,"urn:WaterMeter:MC0203J22010600005","2024-05-11T04:30:00",18,30.191977,0.195],
    [20286,"urn:WaterMeter:MC0203J22010600005","2024-05-11T04:45:00",18,30.20245,0.203],
    [20287,"urn:WaterMeter:MC0203J22010600005","2024-05-11T05:00:00",17.899,30.140385,0.209],
    [20288,"urn:WaterMeter:MC0203J22010600005","2024-05-11T05:15:00",17.899,30.162497,0.197],
    [20289,"urn:WaterMeter:MC0203J22010600005","2024-05-11T05:30:00",17.899,30.138796,0.21],
    [20290,"urn:WaterMeter:MC0203J22010600005","2024-05-11T05:45:00",17.899,30.154737,0.2],
    [20291,"urn:WaterMeter:MC0203J22010600005","2024-05-11T06:00:00",17.899,30.16172,0.197],
    [20292,"urn:WaterMeter:MC0203J22010600005","2024-05-11T06:15:00",17.899,30.112844,0.195],
    [20293,"urn:WaterMeter:MC0203J22010600005","2024-05-11T06:30:00",17.899,30.139183,0.202],
    [20294,"urn:WaterMeter:MC0203J22010600005","2024-05-11T06:45:00",17.899,30.131075,0.202],
    [20295,"urn:WaterMeter:MC0203J22010600005","2024-05-11T07:00:00",17.899,30.114784,0.194],
    [20296,"urn:WaterMeter:MC0203J22010600005","2024-05-11T07:15:00",18,30.104311,0.195],
    [20297,"urn:WaterMeter:MC0203J22010600005","2024-05-11T07:30:00",18,30.051517,0.194],
    [20298,"urn:WaterMeter:MC0203J22010600005","2024-05-11T07:45:00",18.1,30.020525,0.198],
    [20299,"urn:WaterMeter:MC0203J22010600005","2024-05-11T08:00:00",18.299,29.996086,0.209],
    [20300,"urn:WaterMeter:MC0203J22010600005","2024-05-11T08:15:00",18.399,29.973938,0.197],
    [20301,"urn:WaterMeter:MC0203J22010600005","2024-05-11T08:30:00",18.399,29.990269,0.201],
    [20302,"urn:WaterMeter:MC0203J22010600005","2024-05-11T08:45:00",18.5,29.9604,0.19],
    [20303,"urn:WaterMeter:MC0203J22010600005","2024-05-11T09:00:00",18.6,29.913425,0.207],
    [20304,"urn:WaterMeter:MC0203J22010600005","2024-05-11T09:15:00",18.7,29.881657,0.199],
    [20305,"urn:WaterMeter:MC0203J22010600005","2024-05-11T09:30:00",18.7,29.832394,0.195],
    [20306,"urn:WaterMeter:MC0203J22010600005","2024-05-11T09:45:00",18.799,29.865364,0.197],
    [20307,"urn:WaterMeter:MC0203J22010600005","2024-05-11T10:00:00",18.899,29.802525,0.191],
    [20308,"urn:WaterMeter:MC0203J22010600005","2024-05-11T10:15:00",19,29.765285,0.203],
    [20309,"urn:WaterMeter:MC0203J22010600005","2024-05-11T10:30:00",19.1,29.753262,0.189],
    [20310,"urn:WaterMeter:MC0203J22010600005","2024-05-11T10:45:00",19.2,29.684216,0.19],
    [20311,"urn:WaterMeter:MC0203J22010600005","2024-05-11T11:00:00",19.299,29.691196,0.186],
    [20312,"urn:WaterMeter:MC0203J22010600005","2024-05-11T11:15:00",19.299,29.632236,0.19],
    [20313,"urn:WaterMeter:MC0203J22010600005","2024-05-11T11:30:00",19.399,29.5725,0.195],
    [20314,"urn:WaterMeter:MC0203J22010600005","2024-05-11T11:45:00",19.6,29.579481,0.195],
    [20315,"urn:WaterMeter:MC0203J22010600005","2024-05-11T12:00:00",19.899,29.549614,0.185],
    [20316,"urn:WaterMeter:MC0203J22010600005","2024-05-11T12:15:00",20.1,29.503454,0.187],
    [20317,"urn:WaterMeter:MC0203J22010600005","2024-05-11T12:30:00",20.299,29.438675,0.209],
    [20318,"urn:WaterMeter:MC0203J22010600005","2024-05-11T12:45:00",20.399,29.36769,0.192],
    [20319,"urn:WaterMeter:MC0203J22010600005","2024-05-11T13:00:00",20.5,29.28972,0.2],
    [20320,"urn:WaterMeter:MC0203J22010600005","2024-05-11T13:15:00",20.6,29.268387,0.191],
    [20321,"urn:WaterMeter:MC0203J22010600005","2024-05-11T13:30:00",20.799,29.249767,0.199],
    [20322,"urn:WaterMeter:MC0203J22010600005","2024-05-11T13:45:00",20.899,29.141932,0.193],
    [20323,"urn:WaterMeter:MC0203J22010600005","2024-05-11T14:00:00",21,29.148525,0.193],
    [20324,"urn:WaterMeter:MC0203J22010600005","2024-05-11T14:15:00",21.1,29.039526,0.182],
    [20325,"urn:WaterMeter:MC0203J22010600005","2024-05-11T14:30:00",21.2,28.991814,0.179],
    [20326,"urn:WaterMeter:MC0203J22010600005","2024-05-11T14:45:00",21.2,28.94798,0.184],
    [20327,"urn:WaterMeter:MC0203J22010600005","2024-05-11T15:00:00",21.299,28.909191,0.193],
    [20328,"urn:WaterMeter:MC0203J22010600005","2024-05-11T15:15:00",21.399,28.875832,0.182],
    [20329,"urn:WaterMeter:MC0203J22010600005","2024-05-11T15:30:00",21.5,28.814543,0.184],
    [20330,"urn:WaterMeter:MC0203J22010600005","2024-05-11T15:45:00",21.6,28.789291,0.18],
    [20331,"urn:WaterMeter:MC0203J22010600005","2024-05-11T16:00:00",21.6,28.745886,0.179],
    [20332,"urn:WaterMeter:MC0203J22010600005","2024-05-11T16:15:00",21.6,28.683393,0.181],
    [20333,"urn:WaterMeter:MC0203J22010600005","2024-05-11T16:30:00",21.5,28.643091,0.184],
    [20334,"urn:WaterMeter:MC0203J22010600005","2024-05-11T16:45:00",21.5,28.556551,0.18],
    [20335,"urn:WaterMeter:MC0203J22010600005","2024-05-11T17:00:00",21.399,28.553875,0.181],
    [20336,"urn:WaterMeter:MC0203J22010600005","2024-05-11T17:15:00",21.399,28.563572,0.19],
    [20337,"urn:WaterMeter:MC0203J22010600005","2024-05-11T17:30:00",21.299,28.496853,0.181],
    [20338,"urn:WaterMeter:MC0203J22010600005","2024-05-11T17:45:00",21.299,28.470438,0.179],
    [20339,"urn:WaterMeter:MC0203J22010600005","2024-05-11T18:00:00",21.2,28.451818,0.179],
    [20340,"urn:WaterMeter:MC0203J22010600005","2024-05-11T18:15:00",21.1,28.40333,0.181],
    [20341,"urn:WaterMeter:MC0203J22010600005","2024-05-11T18:30:00",21,28.36493,0.181],
    [20342,"urn:WaterMeter:MC0203J22010600005","2024-05-11T18:45:00",20.899,28.419622,0.187],
    [20343,"urn:WaterMeter:MC0203J22010600005","2024-05-11T19:00:00",20.799,28.376604,0.18],
    [20344,"urn:WaterMeter:MC0203J22010600005","2024-05-11T19:15:00",20.7,28.3626,0.18],
    [20345,"urn:WaterMeter:MC0203J22010600005","2024-05-11T19:30:00",20.7,28.385527,0.192],
    [20346,"urn:WaterMeter:MC0203J22010600005","2024-05-11T19:45:00",20.6,28.352554,0.193],
    [20347,"urn:WaterMeter:MC0203J22010600005","2024-05-11T20:00:00",20.5,28.326138,0.187],
    [20348,"urn:WaterMeter:MC0203J22010600005","2024-05-11T20:15:00",20.399,28.315664,0.186],
    [20349,"urn:WaterMeter:MC0203J22010600005","2024-05-11T20:30:00",20.399,28.33859,0.188],
    [20350,"urn:WaterMeter:MC0203J22010600005","2024-05-11T20:45:00",20.299,28.323423,0.187],
    [20351,"urn:WaterMeter:MC0203J22010600005","2024-05-11T21:00:00",20.2,28.318419,0.176],
    [20352,"urn:WaterMeter:MC0203J22010600005","2024-05-11T21:15:00",20.2,28.28502,0.179],
    [20353,"urn:WaterMeter:MC0203J22010600005","2024-05-11T21:30:00",20.1,28.276487,0.178],
    [20354,"urn:WaterMeter:MC0203J22010600005","2024-05-11T21:45:00",20,28.259071,0.185],
    [20355,"urn:WaterMeter:MC0203J22010600005","2024-05-11T22:00:00",20,28.250536,0.186],
    [20356,"urn:WaterMeter:MC0203J22010600005","2024-05-11T22:15:00",19.899,28.234632,0.174],
    [20357,"urn:WaterMeter:MC0203J22010600005","2024-05-11T22:30:00",19.799,28.235409,0.189],
    [20358,"urn:WaterMeter:MC0203J22010600005","2024-05-11T22:45:00",19.7,28.235796,0.188],
    [20359,"urn:WaterMeter:MC0203J22010600005","2024-05-11T23:00:00",19.6,28.247395,0.184],
    [20360,"urn:WaterMeter:MC0203J22010600005","2024-05-11T23:15:00",19.5,28.259459,0.183],
    [20361,"urn:WaterMeter:MC0203J22010600005","2024-05-11T23:30:00",19.5,28.218302,0.18],
    [20362,"urn:WaterMeter:MC0203J22010600005","2024-05-11T23:45:00",19.399,28.245455,0.186],
    [20363,"urn:WaterMeter:MC0203J22010600005","2024-05-12T00:00:00",19.299,28.26101,0.199],
    [20364,"urn:WaterMeter:MC0203J22010600005","2024-05-12T00:15:00",19.2,28.238861,0.174],
    [20365,"urn:WaterMeter:MC0203J22010600005","2024-05-12T00:30:00",19.1,28.223383,0.185],
    [20366,"urn:WaterMeter:MC0203J22010600005","2024-05-12T00:45:00",19,28.238085,0.187],
    [20367,"urn:WaterMeter:MC0203J22010600005","2024-05-12T01:00:00",18.899,28.22222,0.183],
    [20368,"urn:WaterMeter:MC0203J22010600005","2024-05-12T01:15:00",18.799,28.188046,0.179],
    [20369,"urn:WaterMeter:MC0203J22010600005","2024-05-12T01:30:00",18.7,28.18727,0.187],
    [20370,"urn:WaterMeter:MC0203J22010600005","2024-05-12T01:45:00",18.6,28.207441,0.18],
    [20371,"urn:WaterMeter:MC0203J22010600005","2024-05-12T02:00:00",18.5,28.195456,0.179],
    [20372,"urn:WaterMeter:MC0203J22010600005","2024-05-12T02:15:00",18.399,28.200497,0.178],
    [20373,"urn:WaterMeter:MC0203J22010600005","2024-05-12T02:30:00",18.299,28.169815,0.181],
    [20374,"urn:WaterMeter:MC0203J22010600005","2024-05-12T02:45:00",18.2,28.167875,0.18],
    [20375,"urn:WaterMeter:MC0203J22010600005","2024-05-12T03:00:00",18.1,28.191963,0.182],
    [20376,"urn:WaterMeter:MC0203J22010600005","2024-05-12T03:15:00",18,28.210196,0.179],
    [20377,"urn:WaterMeter:MC0203J22010600005","2024-05-12T03:30:00",17.899,28.209768,0.193],
    [20378,"urn:WaterMeter:MC0203J22010600005","2024-05-12T03:45:00",17.899,28.160116,0.174],
    [20379,"urn:WaterMeter:MC0203J22010600005","2024-05-12T04:00:00",17.799,28.130249,0.181],
    [20380,"urn:WaterMeter:MC0203J22010600005","2024-05-12T04:15:00",17.799,28.161282,0.18],
    [20381,"urn:WaterMeter:MC0203J22010600005","2024-05-12T04:30:00",17.7,28.156664,0.188],
    [20382,"urn:WaterMeter:MC0203J22010600005","2024-05-12T04:45:00",17.7,28.13882,0.186],
    [20383,"urn:WaterMeter:MC0203J22010600005","2024-05-12T05:00:00",17.6,28.167488,0.171],
    [20384,"urn:WaterMeter:MC0203J22010600005","2024-05-12T05:15:00",17.5,28.1318,0.192],
    [20385,"urn:WaterMeter:MC0203J22010600005","2024-05-12T05:30:00",17.399,28.136106,0.186],
    [20386,"urn:WaterMeter:MC0203J22010600005","2024-05-12T05:45:00",17.399,28.136883,0.175],
    [20387,"urn:WaterMeter:MC0203J22010600005","2024-05-12T06:00:00",17.399,28.125633,0.178],
    [20388,"urn:WaterMeter:MC0203J22010600005","2024-05-12T06:15:00",17.399,28.140722,0.186],
    [20389,"urn:WaterMeter:MC0203J22010600005","2024-05-12T06:30:00",17.399,28.12641,0.18],
    [20390,"urn:WaterMeter:MC0203J22010600005","2024-05-12T06:45:00",17.399,28.084515,0.175],
    [20391,"urn:WaterMeter:MC0203J22010600005","2024-05-12T07:00:00",17.5,28.104298,0.172],
    [20392,"urn:WaterMeter:MC0203J22010600005","2024-05-12T07:15:00",17.6,28.062754,0.174],
    [20393,"urn:WaterMeter:MC0203J22010600005","2024-05-12T07:30:00",17.799,28.053444,0.187],
    [20394,"urn:WaterMeter:MC0203J22010600005","2024-05-12T07:45:00",18,27.996035,0.187],
    [20395,"urn:WaterMeter:MC0203J22010600005","2024-05-12T08:00:00",18.299,28.012327,0.172],
    [20396,"urn:WaterMeter:MC0203J22010600005","2024-05-12T08:15:00",18.5,27.925476,0.179],
    [20397,"urn:WaterMeter:MC0203J22010600005","2024-05-12T08:30:00",18.7,27.895609,0.183],
    [20398,"urn:WaterMeter:MC0203J22010600005","2024-05-12T08:45:00",18.899,27.86574,0.177],
    [20399,"urn:WaterMeter:MC0203J22010600005","2024-05-12T09:00:00",19.1,27.83079,0.182],
    [20400,"urn:WaterMeter:MC0203J22010600005","2024-05-12T09:15:00",19.299,27.762133,0.175],
    [20401,"urn:WaterMeter:MC0203J22010600005","2024-05-12T09:30:00",19.6,27.73304,0.172],
    [20402,"urn:WaterMeter:MC0203J22010600005","2024-05-12T09:45:00",19.799,27.715197,0.174],
    [20403,"urn:WaterMeter:MC0203J22010600005","2024-05-12T10:00:00",20,27.624428,0.179],
    [20404,"urn:WaterMeter:MC0203J22010600005","2024-05-12T10:15:00",20.2,27.561626,0.173],
    [20405,"urn:WaterMeter:MC0203J22010600005","2024-05-12T10:30:00",20.5,27.548012,0.171],
    [20406,"urn:WaterMeter:MC0203J22010600005","2024-05-12T10:45:00",20.7,27.488314,0.176],
    [20407,"urn:WaterMeter:MC0203J22010600005","2024-05-12T11:00:00",21,27.435947,0.166],
    [20408,"urn:WaterMeter:MC0203J22010600005","2024-05-12T11:15:00",21.1,27.340136,0.17],
    [20409,"urn:WaterMeter:MC0203J22010600005","2024-05-12T11:30:00",21.299,27.327723,0.165],
    [20410,"urn:WaterMeter:MC0203J22010600005","2024-05-12T11:45:00",21.399,27.229546,0.168],
    [20411,"urn:WaterMeter:MC0203J22010600005","2024-05-12T12:00:00",21.5,27.209373,0.164],
    [20412,"urn:WaterMeter:MC0203J22010600005","2024-05-12T12:15:00",21.7,27.119032,0.169],
    [20413,"urn:WaterMeter:MC0203J22010600005","2024-05-12T12:30:00",21.799,27.04184,0.164],
    [20414,"urn:WaterMeter:MC0203J22010600005","2024-05-12T12:45:00",21.899,27.023182,0.161],
    [20415,"urn:WaterMeter:MC0203J22010600005","2024-05-12T13:00:00",22,26.88858,0.167],
    [20416,"urn:WaterMeter:MC0203J22010600005","2024-05-12T13:15:00",22.1,26.857975,0.159],
    [20417,"urn:WaterMeter:MC0203J22010600005","2024-05-12T13:30:00",22.2,26.810225,0.165],
    [20418,"urn:WaterMeter:MC0203J22010600005","2024-05-12T13:45:00",22.299,26.758673,0.17],
    [20419,"urn:WaterMeter:MC0203J22010600005","2024-05-12T14:00:00",22.399,26.671396,0.162],
    [20420,"urn:WaterMeter:MC0203J22010600005","2024-05-12T14:15:00",22.399,26.577097,0.166],
    [20421,"urn:WaterMeter:MC0203J22010600005","2024-05-12T14:30:00",22.5,26.54494,0.163],
    [20422,"urn:WaterMeter:MC0203J22010600005","2024-05-12T14:45:00",22.5,26.527485,0.174],
    [20423,"urn:WaterMeter:MC0203J22010600005","2024-05-12T15:00:00",22.6,26.423876,0.161],
    [20424,"urn:WaterMeter:MC0203J22010600005","2024-05-12T15:15:00",22.6,26.401417,0.163],
    [20425,"urn:WaterMeter:MC0203J22010600005","2024-05-12T15:30:00",22.6,26.321121,0.162],
    [20426,"urn:WaterMeter:MC0203J22010600005","2024-05-12T15:45:00",22.7,26.259794,0.164],
    [20427,"urn:WaterMeter:MC0203J22010600005","2024-05-12T16:00:00",22.6,26.247383,0.162],
    [20428,"urn:WaterMeter:MC0203J22010600005","2024-05-12T16:15:00",22.6,26.198158,0.161],
    [20429,"urn:WaterMeter:MC0203J22010600005","2024-05-12T16:30:00",22.6,26.105837,0.169],
    [20430,"urn:WaterMeter:MC0203J22010600005","2024-05-12T16:45:00",22.6,26.112392,0.165],
    [20431,"urn:WaterMeter:MC0203J22010600005","2024-05-12T17:00:00",22.6,26.057737,0.164],
    [20432,"urn:WaterMeter:MC0203J22010600005","2024-05-12T17:15:00",22.6,26.012741,0.186],
    [20433,"urn:WaterMeter:MC0203J22010600005","2024-05-12T17:30:00",22.5,25.928179,0.159],
    [20434,"urn:WaterMeter:MC0203J22010600005","2024-05-12T17:45:00",22.399,25.964642,0.17],
    [20435,"urn:WaterMeter:MC0203J22010600005","2024-05-12T18:00:00",22.399,25.861034,0.175],
    [20436,"urn:WaterMeter:MC0203J22010600005","2024-05-12T18:15:00",22.299,25.869606,0.171],
    [20437,"urn:WaterMeter:MC0203J22010600005","2024-05-12T18:30:00",22.2,25.849436,0.165],
    [20438,"urn:WaterMeter:MC0203J22010600005","2024-05-12T18:45:00",22.1,25.801685,0.167],
    [20439,"urn:WaterMeter:MC0203J22010600005","2024-05-12T19:00:00",22,25.81569,0.165],
    [20440,"urn:WaterMeter:MC0203J22010600005","2024-05-12T19:15:00",21.899,25.76561,0.16],
    [20441,"urn:WaterMeter:MC0203J22010600005","2024-05-12T19:30:00",21.799,25.736519,0.156],
    [20442,"urn:WaterMeter:MC0203J22010600005","2024-05-12T19:45:00",21.7,25.748194,0.157],
    [20443,"urn:WaterMeter:MC0203J22010600005","2024-05-12T20:00:00",21.6,25.702421,0.15],
    [20444,"urn:WaterMeter:MC0203J22010600005","2024-05-12T20:15:00",21.5,25.706263,0.159],
    [20445,"urn:WaterMeter:MC0203J22010600005","2024-05-12T20:30:00",21.399,25.690784,0.162],
    [20446,"urn:WaterMeter:MC0203J22010600005","2024-05-12T20:45:00",21.299,25.698542,0.168],
    [20447,"urn:WaterMeter:MC0203J22010600005","2024-05-12T21:00:00",21.299,25.675268,0.164],
    [20448,"urn:WaterMeter:MC0203J22010600005","2024-05-12T21:15:00",21.2,25.620962,0.16],
    [20449,"urn:WaterMeter:MC0203J22010600005","2024-05-12T21:30:00",21.1,25.643848,0.17],
    [20450,"urn:WaterMeter:MC0203J22010600005","2024-05-12T21:45:00",21.1,25.59028,0.163],
    [20451,"urn:WaterMeter:MC0203J22010600005","2024-05-12T22:00:00",21,25.626005,0.162],
    [20452,"urn:WaterMeter:MC0203J22010600005","2024-05-12T22:15:00",21,25.59028,0.157],
    [20453,"urn:WaterMeter:MC0203J22010600005","2024-05-12T22:30:00",20.899,25.544546,0.166],
    [20454,"urn:WaterMeter:MC0203J22010600005","2024-05-12T22:45:00",20.799,25.594585,0.165],
    [20455,"urn:WaterMeter:MC0203J22010600005","2024-05-12T23:00:00",20.799,25.611265,0.155],
    [20456,"urn:WaterMeter:MC0203J22010600005","2024-05-12T23:15:00",20.7,25.548813,0.158],
    [20457,"urn:WaterMeter:MC0203J22010600005","2024-05-12T23:30:00",20.7,25.566269,0.155],
    [20458,"urn:WaterMeter:MC0203J22010600005","2024-05-12T23:45:00",20.6,25.516617,0.158],
    [20459,"urn:WaterMeter:MC0203J22010600005","2024-05-13T00:00:00",20.6,25.554632,0.159],
    [20460,"urn:WaterMeter:MC0203J22010600005","2024-05-13T00:15:00",20.5,25.510372,0.156],
    [20461,"urn:WaterMeter:MC0203J22010600005","2024-05-13T00:30:00",20.5,25.48132,0.157],
    [20462,"urn:WaterMeter:MC0203J22010600005","2024-05-13T00:45:00",20.5,25.503002,0.152],
    [20463,"urn:WaterMeter:MC0203J22010600005","2024-05-13T01:00:00",20.399,25.477827,0.154],
    [20464,"urn:WaterMeter:MC0203J22010600005","2024-05-13T01:15:00",20.399,25.522009,0.158],
    [20465,"urn:WaterMeter:MC0203J22010600005","2024-05-13T01:30:00",20.299,25.47007,0.157],
    [20466,"urn:WaterMeter:MC0203J22010600005","2024-05-13T01:45:00",20.299,25.482483,0.153],
    [20467,"urn:WaterMeter:MC0203J22010600005","2024-05-13T02:00:00",20.299,25.498774,0.152],
    [20468,"urn:WaterMeter:MC0203J22010600005","2024-05-13T02:15:00",20.2,25.476664,0.159],
    [20469,"urn:WaterMeter:MC0203J22010600005","2024-05-13T02:30:00",20.1,25.457657,0.16],
    [20470,"urn:WaterMeter:MC0203J22010600005","2024-05-13T02:45:00",20.1,25.466578,0.163],
    [20471,"urn:WaterMeter:MC0203J22010600005","2024-05-13T03:00:00",20,25.42003,0.164],
    [20472,"urn:WaterMeter:MC0203J22010600005","2024-05-13T03:15:00",19.899,25.406803,0.16],
    [20473,"urn:WaterMeter:MC0203J22010600005","2024-05-13T03:30:00",19.899,25.448347,0.161],
    [20474,"urn:WaterMeter:MC0203J22010600005","2024-05-13T03:45:00",19.799,25.408394,0.162],
    [20475,"urn:WaterMeter:MC0203J22010600005","2024-05-13T04:00:00",19.7,25.394003,0.162],
    [20476,"urn:WaterMeter:MC0203J22010600005","2024-05-13T04:15:00",19.6,25.394777,0.16],
    [20477,"urn:WaterMeter:MC0203J22010600005","2024-05-13T04:30:00",19.5,25.40335,0.159],
    [20478,"urn:WaterMeter:MC0203J22010600005","2024-05-13T04:45:00",19.399,25.417315,0.156],
    [20479,"urn:WaterMeter:MC0203J22010600005","2024-05-13T05:00:00",19.299,25.421581,0.152],
    [20480,"urn:WaterMeter:MC0203J22010600005","2024-05-13T05:15:00",19.299,25.367237,0.15],
    [20481,"urn:WaterMeter:MC0203J22010600005","2024-05-13T05:30:00",19.2,25.396717,0.153],
    [20482,"urn:WaterMeter:MC0203J22010600005","2024-05-13T05:45:00",19.1,25.3665,0.153],
    [20483,"urn:WaterMeter:MC0203J22010600005","2024-05-13T06:00:00",19.1,25.357151,0.155],
    [20484,"urn:WaterMeter:MC0203J22010600005","2024-05-13T06:15:00",19.2,25.352924,0.154],
    [20485,"urn:WaterMeter:MC0203J22010600005","2024-05-13T06:30:00",19.2,25.346329,0.155],
    [20486,"urn:WaterMeter:MC0203J22010600005","2024-05-13T06:45:00",19.299,25.375383,0.159],
    [20487,"urn:WaterMeter:MC0203J22010600005","2024-05-13T07:00:00",19.299,25.32806,0.156],
    [20488,"urn:WaterMeter:MC0203J22010600005","2024-05-13T07:15:00",19.5,25.28155,0.152],
    [20489,"urn:WaterMeter:MC0203J22010600005","2024-05-13T07:30:00",19.7,25.267199,0.158],
    [20490,"urn:WaterMeter:MC0203J22010600005","2024-05-13T07:45:00",19.799,25.300945,0.165],
    [20491,"urn:WaterMeter:MC0203J22010600005","2024-05-13T08:00:00",19.899,25.241945,0.159],
    [20492,"urn:WaterMeter:MC0203J22010600005","2024-05-13T08:15:00",20.1,25.19078,0.166],
    [20493,"urn:WaterMeter:MC0203J22010600005","2024-05-13T08:30:00",20.2,25.965418,0.165],
    [20494,"urn:WaterMeter:MC0203J22010600005","2024-05-13T08:45:00",20.399,27.58296,0.178],
    [20495,"urn:WaterMeter:MC0203J22010600005","2024-05-13T09:00:00",20.5,29.35993,0.211],
    [20496,"urn:WaterMeter:MC0203J22010600005","2024-05-13T09:15:00",20.7,30.386314,0.201],
    [20497,"urn:WaterMeter:MC0203J22010600005","2024-05-13T09:30:00",20.899,30.853346,0.211],
    [20498,"urn:WaterMeter:MC0203J22010600005","2024-05-13T09:45:00",21.1,31.02247,0.223],
    [20499,"urn:WaterMeter:MC0203J22010600005","2024-05-13T10:00:00",21.299,31.035658,0.203],
    [20500,"urn:WaterMeter:MC0203J22010600005","2024-05-13T10:15:00",21.5,31.08337,0.204],
    [20501,"urn:WaterMeter:MC0203J22010600005","2024-05-13T10:30:00",21.799,31.104317,0.207],
    [20502,"urn:WaterMeter:MC0203J22010600005","2024-05-13T10:45:00",21.899,31.10548,0.207],
    [20503,"urn:WaterMeter:MC0203J22010600005","2024-05-13T11:00:00",22.1,31.47321,0.222],
    [20504,"urn:WaterMeter:MC0203J22010600005","2024-05-13T11:15:00",22.2,31.709015,0.217],
    [20505,"urn:WaterMeter:MC0203J22010600005","2024-05-13T11:30:00",22.299,31.908821,0.236],
    [20506,"urn:WaterMeter:MC0203J22010600005","2024-05-13T11:45:00",22.5,32.161343,0.223],
    [20507,"urn:WaterMeter:MC0203J22010600005","2024-05-13T12:00:00",22.6,32.29478,0.22],
    [20508,"urn:WaterMeter:MC0203J22010600005","2024-05-13T12:15:00",22.7,32.395596,0.216],
    [20509,"urn:WaterMeter:MC0203J22010600005","2024-05-13T12:30:00",22.799,32.502697,0.247],
    [20510,"urn:WaterMeter:MC0203J22010600005","2024-05-13T12:45:00",23,32.569416,0.24],
    [20511,"urn:WaterMeter:MC0203J22010600005","2024-05-13T13:00:00",23.1,32.639626,0.216],
    [20512,"urn:WaterMeter:MC0203J22010600005","2024-05-13T13:15:00",23.2,32.7013,0.226],
    [20513,"urn:WaterMeter:MC0203J22010600005","2024-05-13T13:30:00",23.299,32.732334,0.227],
    [20514,"urn:WaterMeter:MC0203J22010600005","2024-05-13T13:45:00",23.399,32.833576,0.222],
    [20515,"urn:WaterMeter:MC0203J22010600005","2024-05-13T14:00:00",23.5,32.8906,0.227],
    [20516,"urn:WaterMeter:MC0203J22010600005","2024-05-13T14:15:00",23.5,32.904175,0.227],
    [20517,"urn:WaterMeter:MC0203J22010600005","2024-05-13T14:30:00",23.6,32.954987,0.229],
    [20518,"urn:WaterMeter:MC0203J22010600005","2024-05-13T14:45:00",23.7,33.02675,0.232],
    [20519,"urn:WaterMeter:MC0203J22010600005","2024-05-13T15:00:00",23.7,33.018177,0.243],
    [20520,"urn:WaterMeter:MC0203J22010600005","2024-05-13T15:15:00",23.7,33.049637,0.23],
    [20521,"urn:WaterMeter:MC0203J22010600005","2024-05-13T15:30:00",23.7,33.066666,0.229],
    [20522,"urn:WaterMeter:MC0203J22010600005","2024-05-13T15:45:00",23.7,33.060497,0.252],
    [20523,"urn:WaterMeter:MC0203J22010600005","2024-05-13T16:00:00",23.7,33.18695,0.233],
    [20524,"urn:WaterMeter:MC0203J22010600005","2024-05-13T16:15:00",23.6,33.186565,0.228],
    [20525,"urn:WaterMeter:MC0203J22010600005","2024-05-13T16:30:00",23.6,33.21174,0.24],
    [20526,"urn:WaterMeter:MC0203J22010600005","2024-05-13T16:45:00",23.5,33.27229,0.242],
    [20527,"urn:WaterMeter:MC0203J22010600005","2024-05-13T17:00:00",23.5,33.34987,0.24],
    [20528,"urn:WaterMeter:MC0203J22010600005","2024-05-13T17:15:00",23.5,33.330864,0.244],
    [20529,"urn:WaterMeter:MC0203J22010600005","2024-05-13T17:30:00",23.399,33.35336,0.241],
    [20530,"urn:WaterMeter:MC0203J22010600005","2024-05-13T17:45:00",23.399,33.385906,0.243],
    [20531,"urn:WaterMeter:MC0203J22010600005","2024-05-13T18:00:00",23.399,33.45887,0.241],
    [20532,"urn:WaterMeter:MC0203J22010600005","2024-05-13T18:15:00",23.299,33.46197,0.245],
    [20533,"urn:WaterMeter:MC0203J22010600005","2024-05-13T18:30:00",23.2,33.48874,0.238],
    [20534,"urn:WaterMeter:MC0203J22010600005","2024-05-13T18:45:00",23.2,33.504604,0.231],
    [20535,"urn:WaterMeter:MC0203J22010600005","2024-05-13T19:00:00",23.1,33.504215,0.243],
    [20536,"urn:WaterMeter:MC0203J22010600005","2024-05-13T19:15:00",23,33.556232,0.234],
    [20537,"urn:WaterMeter:MC0203J22010600005","2024-05-13T19:30:00",23,33.53253,0.221],
    [20538,"urn:WaterMeter:MC0203J22010600005","2024-05-13T19:45:00",22.899,33.58649,0.245],
    [20539,"urn:WaterMeter:MC0203J22010600005","2024-05-13T20:00:00",22.799,33.646614,0.237],
    [20540,"urn:WaterMeter:MC0203J22010600005","2024-05-13T20:15:00",22.7,33.647003,0.235],
    [20541,"urn:WaterMeter:MC0203J22010600005","2024-05-13T20:30:00",22.6,33.72342,0.244],
    [20542,"urn:WaterMeter:MC0203J22010600005","2024-05-13T20:45:00",22.5,33.721867,0.257],
    [20543,"urn:WaterMeter:MC0203J22010600005","2024-05-13T21:00:00",22.399,33.736954,0.242],
    [20544,"urn:WaterMeter:MC0203J22010600005","2024-05-13T21:15:00",22.399,33.724194,0.243],
    [20545,"urn:WaterMeter:MC0203J22010600005","2024-05-13T21:30:00",22.2,33.768414,0.237],
    [20546,"urn:WaterMeter:MC0203J22010600005","2024-05-13T21:45:00",22.2,33.806427,0.239],
    [20547,"urn:WaterMeter:MC0203J22010600005","2024-05-13T22:00:00",22.1,33.820004,0.26],
    [20548,"urn:WaterMeter:MC0203J22010600005","2024-05-13T22:15:00",22,33.82815,0.244],
    [20549,"urn:WaterMeter:MC0203J22010600005","2024-05-13T22:30:00",21.899,33.847935,0.253],
    [20550,"urn:WaterMeter:MC0203J22010600005","2024-05-13T22:45:00",21.799,33.85802,0.25],
    [20551,"urn:WaterMeter:MC0203J22010600005","2024-05-13T23:00:00",21.7,33.93909,0.248],
    [20552,"urn:WaterMeter:MC0203J22010600005","2024-05-13T23:15:00",21.6,33.932495,0.24],
    [20553,"urn:WaterMeter:MC0203J22010600005","2024-05-13T23:30:00",21.5,33.94646,0.253],
    [20554,"urn:WaterMeter:MC0203J22010600005","2024-05-13T23:45:00",21.399,33.958836,0.241],
    [20555,"urn:WaterMeter:MC0203J22010600005","2024-05-14T00:00:00",21.299,34.00577,0.251],
    [20556,"urn:WaterMeter:MC0203J22010600005","2024-05-14T00:15:00",21.2,33.96159,0.242],
    [20557,"urn:WaterMeter:MC0203J22010600005","2024-05-14T00:30:00",21.1,34.00771,0.253],
    [20558,"urn:WaterMeter:MC0203J22010600005","2024-05-14T00:45:00",21,34.03141,0.242],
    [20559,"urn:WaterMeter:MC0203J22010600005","2024-05-14T01:00:00",20.899,34.037968,0.239],
    [20560,"urn:WaterMeter:MC0203J22010600005","2024-05-14T01:15:00",20.799,34.075203,0.244],
    [20561,"urn:WaterMeter:MC0203J22010600005","2024-05-14T01:30:00",20.7,34.06706,0.247],
    [20562,"urn:WaterMeter:MC0203J22010600005","2024-05-14T01:45:00",20.7,34.06089,0.245],
    [20563,"urn:WaterMeter:MC0203J22010600005","2024-05-14T02:00:00",20.6,34.136143,0.246],
    [20564,"urn:WaterMeter:MC0203J22010600005","2024-05-14T02:15:00",20.5,34.143864,0.245],
    [20565,"urn:WaterMeter:MC0203J22010600005","2024-05-14T02:30:00",20.399,34.14972,0.243],
    [20566,"urn:WaterMeter:MC0203J22010600005","2024-05-14T02:45:00",20.299,34.110153,0.259],
    [20567,"urn:WaterMeter:MC0203J22010600005","2024-05-14T03:00:00",20.2,34.15356,0.246],
    [20568,"urn:WaterMeter:MC0203J22010600005","2024-05-14T03:15:00",20.1,34.13339,0.245],
    [20569,"urn:WaterMeter:MC0203J22010600005","2024-05-14T03:30:00",20,34.202824,0.25],
    [20570,"urn:WaterMeter:MC0203J22010600005","2024-05-14T03:45:00",19.899,34.17183,0.242],
    [20571,"urn:WaterMeter:MC0203J22010600005","2024-05-14T04:00:00",19.799,34.20519,0.237],
    [20572,"urn:WaterMeter:MC0203J22010600005","2024-05-14T04:15:00",19.7,34.222218,0.255],
    [20573,"urn:WaterMeter:MC0203J22010600005","2024-05-14T04:30:00",19.7,34.211357,0.23],
    [20574,"urn:WaterMeter:MC0203J22010600005","2024-05-14T04:45:00",19.6,34.21062,0.261],
    [20575,"urn:WaterMeter:MC0203J22010600005","2024-05-14T05:00:00",19.5,34.208294,0.247],
    [20576,"urn:WaterMeter:MC0203J22010600005","2024-05-14T05:15:00",19.5,34.28471,0.251],
    [20577,"urn:WaterMeter:MC0203J22010600005","2024-05-14T05:30:00",19.399,34.272297,0.249],
    [20578,"urn:WaterMeter:MC0203J22010600005","2024-05-14T06:00:00",19.399,34.268806,0.24],
    [20579,"urn:WaterMeter:MC0203J22010600005","2024-05-14T06:15:00",19.399,34.259846,0.245],
    [20580,"urn:WaterMeter:MC0203J22010600005","2024-05-14T06:30:00",19.399,34.275787,0.249],
    [20581,"urn:WaterMeter:MC0203J22010600005","2024-05-14T06:45:00",19.5,34.250923,0.246],
    [20582,"urn:WaterMeter:MC0203J22010600005","2024-05-14T07:00:00",19.6,34.48564,0.248],
    [20583,"urn:WaterMeter:MC0203J22010600005","2024-05-14T07:15:00",19.7,34.12063,0.244],
    [20584,"urn:WaterMeter:MC0203J22010600005","2024-05-14T07:30:00",19.899,33.669888,0.241],
    [20585,"urn:WaterMeter:MC0203J22010600005","2024-05-14T07:45:00",20,33.51275,0.231],
    [20586,"urn:WaterMeter:MC0203J22010600005","2024-05-14T08:00:00",20.2,33.35142,0.233],
    [20587,"urn:WaterMeter:MC0203J22010600005","2024-05-14T08:15:00",20.299,33.16562,0.227],
    [20588,"urn:WaterMeter:MC0203J22010600005","2024-05-14T08:30:00",20.399,33.08416,0.235],
    [20589,"urn:WaterMeter:MC0203J22010600005","2024-05-14T08:45:00",20.5,32.96779,0.229],
    [20590,"urn:WaterMeter:MC0203J22010600005","2024-05-14T09:00:00",20.6,32.869648,0.225],
    [20591,"urn:WaterMeter:MC0203J22010600005","2024-05-14T09:15:00",20.799,32.71992,0.224],
    [20592,"urn:WaterMeter:MC0203J22010600005","2024-05-14T09:30:00",20.899,32.652813,0.227],
    [20593,"urn:WaterMeter:MC0203J22010600005","2024-05-14T09:45:00",21.1,32.539158,0.222],
    [20594,"urn:WaterMeter:MC0203J22010600005","2024-05-14T10:00:00",21.299,32.44839,0.225],
    [20595,"urn:WaterMeter:MC0203J22010600005","2024-05-14T10:15:00",21.5,32.422012,0.226],
    [20596,"urn:WaterMeter:MC0203J22010600005","2024-05-14T10:30:00",21.6,32.327366,0.225],
    [20597,"urn:WaterMeter:MC0203J22010600005","2024-05-14T10:45:00",21.799,32.25246,0.231],
    [20598,"urn:WaterMeter:MC0203J22010600005","2024-05-14T11:00:00",21.899,32.15824,0.225],
    [20599,"urn:WaterMeter:MC0203J22010600005","2024-05-14T11:15:00",22.1,32.07907,0.221],
    [20600,"urn:WaterMeter:MC0203J22010600005","2024-05-14T11:30:00",22.2,31.96817,0.229],
    [20601,"urn:WaterMeter:MC0203J22010600005","2024-05-14T11:45:00",22.2,31.910723,0.224],
    [20602,"urn:WaterMeter:MC0203J22010600005","2024-05-14T12:00:00",22.299,31.887487,0.216],
    [20603,"urn:WaterMeter:MC0203J22010600005","2024-05-14T12:15:00",22.399,31.783142,0.224],
    [20604,"urn:WaterMeter:MC0203J22010600005","2024-05-14T12:30:00",22.6,31.74125,0.216],
    [20605,"urn:WaterMeter:MC0203J22010600005","2024-05-14T12:45:00",22.7,31.684616,0.227],
    [20606,"urn:WaterMeter:MC0203J22010600005","2024-05-14T13:00:00",22.7,31.570185,0.221],
    [20607,"urn:WaterMeter:MC0203J22010600005","2024-05-14T13:15:00",22.799,31.535234,0.224],
    [20608,"urn:WaterMeter:MC0203J22010600005","2024-05-14T13:30:00",22.799,31.458042,0.221],
    [20609,"urn:WaterMeter:MC0203J22010600005","2024-05-14T13:45:00",22.799,31.379686,0.223],
    [20610,"urn:WaterMeter:MC0203J22010600005","2024-05-14T14:00:00",22.899,31.35839,0.208],
    [20611,"urn:WaterMeter:MC0203J22010600005","2024-05-14T14:15:00",22.899,31.307964,0.224],
    [20612,"urn:WaterMeter:MC0203J22010600005","2024-05-14T14:30:00",23,31.206722,0.212],
    [20613,"urn:WaterMeter:MC0203J22010600005","2024-05-14T14:45:00",23,31.131083,0.207],
    [20614,"urn:WaterMeter:MC0203J22010600005","2024-05-14T15:00:00",23,31.070143,0.224],
    [20615,"urn:WaterMeter:MC0203J22010600005","2024-05-14T15:15:00",23,31.024797,0.216],
    [20616,"urn:WaterMeter:MC0203J22010600005","2024-05-14T15:30:00",23,30.979025,0.215],
    [20617,"urn:WaterMeter:MC0203J22010600005","2024-05-14T15:45:00",22.899,30.923517,0.214],
    [20618,"urn:WaterMeter:MC0203J22010600005","2024-05-14T16:00:00",22.899,30.885891,0.214],
    [20619,"urn:WaterMeter:MC0203J22010600005","2024-05-14T16:15:00",22.799,30.875805,0.213],
    [20620,"urn:WaterMeter:MC0203J22010600005","2024-05-14T16:30:00",22.7,30.82115,0.228],
    [20621,"urn:WaterMeter:MC0203J22010600005","2024-05-14T16:45:00",22.7,30.785463,0.222],
    [20622,"urn:WaterMeter:MC0203J22010600005","2024-05-14T17:00:00",22.6,30.76219,0.216],
    [20623,"urn:WaterMeter:MC0203J22010600005","2024-05-14T17:15:00",22.6,30.724564,0.218],
    [20624,"urn:WaterMeter:MC0203J22010600005","2024-05-14T17:30:00",22.5,30.69,0.227],
    [20625,"urn:WaterMeter:MC0203J22010600005","2024-05-14T17:45:00",22.5,30.692755,0.215],
    [20626,"urn:WaterMeter:MC0203J22010600005","2024-05-14T18:00:00",22.399,30.647758,0.208],
    [20627,"urn:WaterMeter:MC0203J22010600005","2024-05-14T18:15:00",22.299,30.594965,0.217],
    [20628,"urn:WaterMeter:MC0203J22010600005","2024-05-14T18:30:00",22.299,30.599272,0.205],
    [20629,"urn:WaterMeter:MC0203J22010600005","2024-05-14T18:45:00",22.2,30.58298,0.205],
    [20630,"urn:WaterMeter:MC0203J22010600005","2024-05-14T19:00:00",22.2,30.558542,0.224],
    [20631,"urn:WaterMeter:MC0203J22010600005","2024-05-14T19:15:00",22.1,30.56087,0.208],
    [20632,"urn:WaterMeter:MC0203J22010600005","2024-05-14T19:30:00",22,30.50928,0.209],
    [20633,"urn:WaterMeter:MC0203J22010600005","2024-05-14T19:45:00",21.899,30.51238,0.209],
    [20634,"urn:WaterMeter:MC0203J22010600005","2024-05-14T20:00:00",21.799,30.469713,0.224],
    [20635,"urn:WaterMeter:MC0203J22010600005","2024-05-14T20:15:00",21.7,30.465057,0.207],
    [20636,"urn:WaterMeter:MC0203J22010600005","2024-05-14T20:30:00",21.6,30.44799,0.21],
    [20637,"urn:WaterMeter:MC0203J22010600005","2024-05-14T20:45:00",21.5,30.424717,0.224],
    [20638,"urn:WaterMeter:MC0203J22010600005","2024-05-14T21:00:00",21.399,30.432087,0.207],
    [20639,"urn:WaterMeter:MC0203J22010600005","2024-05-14T21:15:00",21.399,30.41463,0.225],
    [20640,"urn:WaterMeter:MC0203J22010600005","2024-05-14T21:30:00",21.299,30.4092,0.21],
    [20641,"urn:WaterMeter:MC0203J22010600005","2024-05-14T21:45:00",21.2,30.375065,0.213],
    [20642,"urn:WaterMeter:MC0203J22010600005","2024-05-14T22:00:00",21.1,30.39985,0.209],
    [20643,"urn:WaterMeter:MC0203J22010600005","2024-05-14T22:15:00",21,30.378517,0.209],
    [20644,"urn:WaterMeter:MC0203J22010600005","2024-05-14T22:30:00",20.899,30.362225,0.205],
    [20645,"urn:WaterMeter:MC0203J22010600005","2024-05-14T22:45:00",20.899,30.363815,0.216],
    [20646,"urn:WaterMeter:MC0203J22010600005","2024-05-14T23:00:00",20.799,30.331968,0.217],
    [20647,"urn:WaterMeter:MC0203J22010600005","2024-05-14T23:15:00",20.7,30.308346,0.206],
    [20648,"urn:WaterMeter:MC0203J22010600005","2024-05-14T23:30:00",20.6,30.346748,0.204],
    [20649,"urn:WaterMeter:MC0203J22010600005","2024-05-14T23:45:00",20.5,30.344421,0.207],
    [20650,"urn:WaterMeter:MC0203J22010600005","2024-05-15T00:00:00",20.399,30.373125,0.212],
    [20651,"urn:WaterMeter:MC0203J22010600005","2024-05-15T00:15:00",20.299,30.318432,0.21],
    [20652,"urn:WaterMeter:MC0203J22010600005","2024-05-15T00:30:00",20.2,30.283482,0.209],
    [20653,"urn:WaterMeter:MC0203J22010600005","2024-05-15T00:45:00",20.1,30.322271,0.21],
    [20654,"urn:WaterMeter:MC0203J22010600005","2024-05-15T01:00:00",20,30.325413,0.216],
    [20655,"urn:WaterMeter:MC0203J22010600005","2024-05-15T01:15:00",20,30.316492,0.203],
    [20656,"urn:WaterMeter:MC0203J22010600005","2024-05-15T01:30:00",19.899,30.257532,0.211],
    [20657,"urn:WaterMeter:MC0203J22010600005","2024-05-15T01:45:00",19.799,30.28003,0.204],
    [20658,"urn:WaterMeter:MC0203J22010600005","2024-05-15T02:00:00",19.7,30.290503,0.197],
    [20659,"urn:WaterMeter:MC0203J22010600005","2024-05-15T02:15:00",19.6,30.294731,0.206],
    [20660,"urn:WaterMeter:MC0203J22010600005","2024-05-15T02:30:00",19.5,30.233093,0.207],
    [20661,"urn:WaterMeter:MC0203J22010600005","2024-05-15T02:45:00",19.5,30.215986,0.202],
    [20662,"urn:WaterMeter:MC0203J22010600005","2024-05-15T03:00:00",19.399,30.226072,0.198],
    [20663,"urn:WaterMeter:MC0203J22010600005","2024-05-15T03:15:00",19.299,30.195467,0.204],
    [20664,"urn:WaterMeter:MC0203J22010600005","2024-05-15T03:30:00",19.2,30.236158,0.214],
    [20665,"urn:WaterMeter:MC0203J22010600005","2024-05-15T03:45:00",19.1,30.231153,0.214],
    [20666,"urn:WaterMeter:MC0203J22010600005","2024-05-15T04:00:00",19.1,30.22107,0.206],
    [20667,"urn:WaterMeter:MC0203J22010600005","2024-05-15T04:15:00",19,30.196592,0.203],
    [20668,"urn:WaterMeter:MC0203J22010600005","2024-05-15T04:30:00",18.899,30.214087,0.205],
    [20669,"urn:WaterMeter:MC0203J22010600005","2024-05-15T04:45:00",18.799,30.185343,0.208],
    [20670,"urn:WaterMeter:MC0203J22010600005","2024-05-15T05:00:00",18.799,30.153187,0.204],
    [20671,"urn:WaterMeter:MC0203J22010600005","2024-05-15T05:15:00",18.7,30.140385,0.209],
    [20672,"urn:WaterMeter:MC0203J22010600005","2024-05-15T05:30:00",18.6,30.167887,0.203],
    [20673,"urn:WaterMeter:MC0203J22010600005","2024-05-15T05:45:00",18.6,30.150084,0.202],
    [20674,"urn:WaterMeter:MC0203J22010600005","2024-05-15T06:00:00",18.6,30.134178,0.202],
    [20675,"urn:WaterMeter:MC0203J22010600005","2024-05-15T06:15:00",18.6,30.130688,0.212],
    [20676,"urn:WaterMeter:MC0203J22010600005","2024-05-15T06:30:00",18.6,30.119787,0.207],
    [20677,"urn:WaterMeter:MC0203J22010600005","2024-05-15T06:45:00",18.6,30.077158,0.205],
    [20678,"urn:WaterMeter:MC0203J22010600005","2024-05-15T07:00:00",18.7,30.060827,0.202],
    [20679,"urn:WaterMeter:MC0203J22010600005","2024-05-15T07:15:00",18.7,30.027506,0.195],
    [20680,"urn:WaterMeter:MC0203J22010600005","2024-05-15T07:30:00",18.799,29.984411,0.212],
    [20681,"urn:WaterMeter:MC0203J22010600005","2024-05-15T07:45:00",18.899,30.000353,0.2],
    [20682,"urn:WaterMeter:MC0203J22010600005","2024-05-15T08:00:00",19,29.965443,0.211],
    [20683,"urn:WaterMeter:MC0203J22010600005","2024-05-15T08:15:00",19.1,29.90881,0.209],
    [20684,"urn:WaterMeter:MC0203J22010600005","2024-05-15T08:30:00",19.2,29.916529,0.2],
    [20685,"urn:WaterMeter:MC0203J22010600005","2024-05-15T08:45:00",19.299,29.826574,0.196],
    [20686,"urn:WaterMeter:MC0203J22010600005","2024-05-15T09:00:00",19.399,29.863813,0.203],
    [20687,"urn:WaterMeter:MC0203J22010600005","2024-05-15T09:15:00",19.6,29.775372,0.194],
    [20688,"urn:WaterMeter:MC0203J22010600005","2024-05-15T09:30:00",19.7,29.734255,0.203],
    [20689,"urn:WaterMeter:MC0203J22010600005","2024-05-15T09:45:00",19.799,29.65745,0.194],
    [20690,"urn:WaterMeter:MC0203J22010600005","2024-05-15T10:00:00",20,29.6334,0.192],
    [20691,"urn:WaterMeter:MC0203J22010600005","2024-05-15T10:15:00",20.1,29.58879,0.198],
    [20692,"urn:WaterMeter:MC0203J22010600005","2024-05-15T10:30:00",20.299,29.53177,0.2],
    [20693,"urn:WaterMeter:MC0203J22010600005","2024-05-15T10:45:00",20.5,29.447945,0.199],
    [20694,"urn:WaterMeter:MC0203J22010600005","2024-05-15T11:00:00",20.7,29.42855,0.202],
    [20695,"urn:WaterMeter:MC0203J22010600005","2024-05-15T11:15:00",20.899,29.38786,0.198],
    [20696,"urn:WaterMeter:MC0203J22010600005","2024-05-15T11:30:00",21,29.307564,0.208],
    [20697,"urn:WaterMeter:MC0203J22010600005","2024-05-15T11:45:00",21,29.24585,0.191],
    [20698,"urn:WaterMeter:MC0203J22010600005","2024-05-15T12:00:00",21.1,29.207834,0.204],
    [20699,"urn:WaterMeter:MC0203J22010600005","2024-05-15T12:15:00",21.2,29.150852,0.191],
    [20700,"urn:WaterMeter:MC0203J22010600005","2024-05-15T12:30:00",21.2,29.307564,0.2],
    [20701,"urn:WaterMeter:MC0203J22010600005","2024-05-15T12:45:00",21.299,30.006172,0.223],
    [20702,"urn:WaterMeter:MC0203J22010600005","2024-05-15T13:00:00",21.299,31.270687,0.245],
    [20703,"urn:WaterMeter:MC0203J22010600005","2024-05-15T13:15:00",21.299,32.384388,0.229],
    [20704,"urn:WaterMeter:MC0203J22010600005","2024-05-15T13:30:00",21.399,33.03602,0.242],
    [20705,"urn:WaterMeter:MC0203J22010600005","2024-05-15T13:45:00",21.5,33.437923,0.264],
    [20706,"urn:WaterMeter:MC0203J22010600005","2024-05-15T14:00:00",21.5,33.882805,0.25],
    [20707,"urn:WaterMeter:MC0203J22010600005","2024-05-15T14:15:00",21.6,34.248245,0.266],
    [20708,"urn:WaterMeter:MC0203J22010600005","2024-05-15T14:30:00",21.6,34.616753,0.253],
    [20709,"urn:WaterMeter:MC0203J22010600005","2024-05-15T14:45:00",21.6,34.919662,0.273],
    [20710,"urn:WaterMeter:MC0203J22010600005","2024-05-15T15:00:00",21.7,35.10628,0.261],
    [20711,"urn:WaterMeter:MC0203J22010600005","2024-05-15T15:15:00",21.7,35.298252,0.263],
    [20712,"urn:WaterMeter:MC0203J22010600005","2024-05-15T15:30:00",21.799,35.44802,0.275],
    [20713,"urn:WaterMeter:MC0203J22010600005","2024-05-15T15:45:00",21.799,35.564392,0.262],
    [20714,"urn:WaterMeter:MC0203J22010600005","2024-05-15T16:00:00",21.799,35.634212,0.267],
    [20715,"urn:WaterMeter:MC0203J22010600005","2024-05-15T16:15:00",21.7,35.709465,0.267],
    [20716,"urn:WaterMeter:MC0203J22010600005","2024-05-15T16:30:00",21.7,35.805664,0.268],
    [20717,"urn:WaterMeter:MC0203J22010600005","2024-05-15T16:45:00",21.7,35.9007,0.27],
    [20718,"urn:WaterMeter:MC0203J22010600005","2024-05-15T17:00:00",21.6,35.86924,0.27],
    [20719,"urn:WaterMeter:MC0203J22010600005","2024-05-15T17:15:00",21.6,35.939877,0.267],
    [20720,"urn:WaterMeter:MC0203J22010600005","2024-05-15T17:30:00",21.5,35.996086,0.274],
    [20721,"urn:WaterMeter:MC0203J22010600005","2024-05-15T17:45:00",21.399,36.00272,0.266],
    [20722,"urn:WaterMeter:MC0203J22010600005","2024-05-15T18:00:00",21.399,36.114433,0.29],
    [20723,"urn:WaterMeter:MC0203J22010600005","2024-05-15T18:15:00",21.299,36.17262,0.272],
    [20724,"urn:WaterMeter:MC0203J22010600005","2024-05-15T18:30:00",21.2,36.147404,0.276],
    [20725,"urn:WaterMeter:MC0203J22010600005","2024-05-15T18:45:00",21.1,36.22805,0.267],
    [20726,"urn:WaterMeter:MC0203J22010600005","2024-05-15T19:00:00",21.1,36.22421,0.273],
    [20727,"urn:WaterMeter:MC0203J22010600005","2024-05-15T19:15:00",21,36.2502,0.255],
    [20728,"urn:WaterMeter:MC0203J22010600005","2024-05-15T19:30:00",21,36.30563,0.274],
    [20729,"urn:WaterMeter:MC0203J22010600005","2024-05-15T19:45:00",20.899,36.30295,0.27],
    [20730,"urn:WaterMeter:MC0203J22010600005","2024-05-15T20:00:00",20.899,36.371223,0.27],
    [20731,"urn:WaterMeter:MC0203J22010600005","2024-05-15T20:15:00",20.799,36.39605,0.278],
    [20732,"urn:WaterMeter:MC0203J22010600005","2024-05-15T20:30:00",20.7,36.43286,0.286],
    [20733,"urn:WaterMeter:MC0203J22010600005","2024-05-15T20:45:00",20.6,36.415054,0.274],
    [20734,"urn:WaterMeter:MC0203J22010600005","2024-05-15T21:00:00",20.5,36.493023,0.278],
    [20735,"urn:WaterMeter:MC0203J22010600005","2024-05-15T21:15:00",20.399,36.43678,0.293],
    [20736,"urn:WaterMeter:MC0203J22010600005","2024-05-15T21:30:00",20.299,36.45462,0.286],
    [20737,"urn:WaterMeter:MC0203J22010600005","2024-05-15T21:45:00",20.2,36.505436,0.281],
    [20738,"urn:WaterMeter:MC0203J22010600005","2024-05-15T22:00:00",20.1,36.4938,0.27],
    [20739,"urn:WaterMeter:MC0203J22010600005","2024-05-15T22:15:00",20,36.560905,0.28],
    [20740,"urn:WaterMeter:MC0203J22010600005","2024-05-15T22:30:00",19.899,36.53259,0.29],
    [20741,"urn:WaterMeter:MC0203J22010600005","2024-05-15T22:45:00",19.7,36.6156,0.268],
    [20742,"urn:WaterMeter:MC0203J22010600005","2024-05-15T23:00:00",19.6,36.566685,0.272],
    [20743,"urn:WaterMeter:MC0203J22010600005","2024-05-15T23:15:00",19.5,36.56591,0.272],
    [20744,"urn:WaterMeter:MC0203J22010600005","2024-05-15T23:30:00",19.399,36.58802,0.291],
    [20745,"urn:WaterMeter:MC0203J22010600005","2024-05-15T23:45:00",19.299,36.600082,0.276],
    [20746,"urn:WaterMeter:MC0203J22010600005","2024-05-16T00:00:00",19.2,36.62336,0.281],
    [20747,"urn:WaterMeter:MC0203J22010600005","2024-05-16T00:15:00",19.1,36.628014,0.272],
    [20748,"urn:WaterMeter:MC0203J22010600005","2024-05-16T00:30:00",19,36.687748,0.274],
    [20749,"urn:WaterMeter:MC0203J22010600005","2024-05-16T00:45:00",18.899,36.710247,0.278],
    [20750,"urn:WaterMeter:MC0203J22010600005","2024-05-16T01:00:00",18.799,36.659046,0.292],
    [20751,"urn:WaterMeter:MC0203J22010600005","2024-05-16T01:15:00",18.7,36.691242,0.306],
    [20752,"urn:WaterMeter:MC0203J22010600005","2024-05-16T01:30:00",18.7,36.725765,0.28],
    [20753,"urn:WaterMeter:MC0203J22010600005","2024-05-16T01:45:00",18.6,36.759125,0.286],
    [20754,"urn:WaterMeter:MC0203J22010600005","2024-05-16T02:00:00",18.6,36.754467,0.28],
    [20755,"urn:WaterMeter:MC0203J22010600005","2024-05-16T02:15:00",18.5,36.7149,0.284],
    [20756,"urn:WaterMeter:MC0203J22010600005","2024-05-16T02:30:00",18.399,36.77619,0.286],
    [20757,"urn:WaterMeter:MC0203J22010600005","2024-05-16T02:45:00",18.399,36.71956,0.265],
    [20758,"urn:WaterMeter:MC0203J22010600005","2024-05-16T03:00:00",18.299,36.782784,0.275],
    [20759,"urn:WaterMeter:MC0203J22010600005","2024-05-16T03:15:00",18.2,36.798264,0.29],
    [20760,"urn:WaterMeter:MC0203J22010600005","2024-05-16T03:30:00",18.2,36.758347,0.271],
    [20761,"urn:WaterMeter:MC0203J22010600005","2024-05-16T03:45:00",18.1,36.762577,0.271],
    [20762,"urn:WaterMeter:MC0203J22010600005","2024-05-16T04:00:00",18,36.785114,0.278],
    [20763,"urn:WaterMeter:MC0203J22010600005","2024-05-16T04:15:00",17.899,36.81882,0.274],
    [20764,"urn:WaterMeter:MC0203J22010600005","2024-05-16T04:30:00",17.899,36.77111,0.273],
    [20765,"urn:WaterMeter:MC0203J22010600005","2024-05-16T04:45:00",17.799,36.747097,0.288],
    [20766,"urn:WaterMeter:MC0203J22010600005","2024-05-16T05:00:00",17.799,36.79675,0.272],
    [20767,"urn:WaterMeter:MC0203J22010600005","2024-05-16T05:15:00",17.7,36.802567,0.275],
    [20768,"urn:WaterMeter:MC0203J22010600005","2024-05-16T05:30:00",17.7,36.758736,0.282],
    [20769,"urn:WaterMeter:MC0203J22010600005","2024-05-16T05:45:00",17.7,36.855324,0.282],
    [20770,"urn:WaterMeter:MC0203J22010600005","2024-05-16T06:00:00",17.799,36.760246,0.285],
    [20771,"urn:WaterMeter:MC0203J22010600005","2024-05-16T06:15:00",17.799,36.8561,0.265],
    [20772,"urn:WaterMeter:MC0203J22010600005","2024-05-16T06:30:00",17.799,36.747097,0.302],
    [20773,"urn:WaterMeter:MC0203J22010600005","2024-05-16T06:45:00",17.899,36.783173,0.276],
    [20774,"urn:WaterMeter:MC0203J22010600005","2024-05-16T07:00:00",17.799,36.7118,0.271],
    [20775,"urn:WaterMeter:MC0203J22010600005","2024-05-16T07:15:00",17.899,36.728477,0.268],
    [20776,"urn:WaterMeter:MC0203J22010600005","2024-05-16T07:30:00",17.899,36.788216,0.273],
    [20777,"urn:WaterMeter:MC0203J22010600005","2024-05-16T07:45:00",18,36.77425,0.264],
    [20778,"urn:WaterMeter:MC0203J22010600005","2024-05-16T08:00:00",18.1,36.659046,0.269],
    [20779,"urn:WaterMeter:MC0203J22010600005","2024-05-16T08:15:00",18.2,36.686974,0.269],
    [20780,"urn:WaterMeter:MC0203J22010600005","2024-05-16T08:30:00",18.299,36.68891,0.265],
    [20781,"urn:WaterMeter:MC0203J22010600005","2024-05-16T08:45:00",18.5,36.612885,0.269],
    [20782,"urn:WaterMeter:MC0203J22010600005","2024-05-16T09:00:00",18.6,36.601635,0.267],
    [20783,"urn:WaterMeter:MC0203J22010600005","2024-05-16T09:15:00",18.7,36.573708,0.274],
    [20784,"urn:WaterMeter:MC0203J22010600005","2024-05-16T09:30:00",18.799,36.5803,0.279],
    [20785,"urn:WaterMeter:MC0203J22010600005","2024-05-16T09:45:00",19,36.57526,0.285],
    [20786,"urn:WaterMeter:MC0203J22010600005","2024-05-16T10:00:00",19.2,36.522503,0.263],
    [20787,"urn:WaterMeter:MC0203J22010600005","2024-05-16T10:15:00",19.399,36.472855,0.266],
    [20788,"urn:WaterMeter:MC0203J22010600005","2024-05-16T10:30:00",19.5,36.48643,0.276],
    [20789,"urn:WaterMeter:MC0203J22010600005","2024-05-16T10:45:00",19.7,36.422775,0.261],
    [20790,"urn:WaterMeter:MC0203J22010600005","2024-05-16T11:00:00",19.799,36.405357,0.292],
    [20791,"urn:WaterMeter:MC0203J22010600005","2024-05-16T11:15:00",20,36.44337,0.275],
    [20792,"urn:WaterMeter:MC0203J22010600005","2024-05-16T11:30:00",20.1,36.427856,0.267],
    [20793,"urn:WaterMeter:MC0203J22010600005","2024-05-16T11:45:00",20.2,36.378204,0.267],
    [20794,"urn:WaterMeter:MC0203J22010600005","2024-05-16T12:00:00",20.299,36.361526,0.261],
    [20795,"urn:WaterMeter:MC0203J22010600005","2024-05-16T12:15:00",20.399,36.252525,0.286],
    [20796,"urn:WaterMeter:MC0203J22010600005","2024-05-16T12:30:00",20.5,36.232742,0.258],
    [20797,"urn:WaterMeter:MC0203J22010600005","2024-05-16T12:45:00",20.5,36.19628,0.26],
    [20798,"urn:WaterMeter:MC0203J22010600005","2024-05-16T13:00:00",20.6,36.252914,0.262],
    [20799,"urn:WaterMeter:MC0203J22010600005","2024-05-16T13:15:00",20.7,36.15361,0.279],
    [20800,"urn:WaterMeter:MC0203J22010600005","2024-05-16T13:30:00",20.7,36.16447,0.261],
    [20801,"urn:WaterMeter:MC0203J22010600005","2024-05-16T13:45:00",20.799,36.125683,0.27],
    [20802,"urn:WaterMeter:MC0203J22010600005","2024-05-16T14:00:00",20.899,36.115208,0.276],
    [20803,"urn:WaterMeter:MC0203J22010600005","2024-05-16T14:15:00",20.899,36.14314,0.298],
    [20804,"urn:WaterMeter:MC0203J22010600005","2024-05-16T14:30:00",21,36.13922,0.265],
    [20805,"urn:WaterMeter:MC0203J22010600005","2024-05-16T14:45:00",21,36.085728,0.27],
    [20806,"urn:WaterMeter:MC0203J22010600005","2024-05-16T15:00:00",21,36.1284,0.263],
    [20807,"urn:WaterMeter:MC0203J22010600005","2024-05-16T15:15:00",21,36.14116,0.261],
    [20808,"urn:WaterMeter:MC0203J22010600005","2024-05-16T15:30:00",21,36.060127,0.267],
    [20809,"urn:WaterMeter:MC0203J22010600005","2024-05-16T15:45:00",21,36.10629,0.271],
    [20810,"urn:WaterMeter:MC0203J22010600005","2024-05-16T16:00:00",21,36.053493,0.261],
    [20811,"urn:WaterMeter:MC0203J22010600005","2024-05-16T16:15:00",21,36.0822,0.279],
    [20812,"urn:WaterMeter:MC0203J22010600005","2024-05-16T16:30:00",20.899,36.101208,0.261],
    [20813,"urn:WaterMeter:MC0203J22010600005","2024-05-16T16:45:00",20.899,36.097755,0.266],
    [20814,"urn:WaterMeter:MC0203J22010600005","2024-05-16T17:00:00",20.899,36.051205,0.265],
    [20815,"urn:WaterMeter:MC0203J22010600005","2024-05-16T17:15:00",20.799,36.088833,0.26],
    [20816,"urn:WaterMeter:MC0203J22010600005","2024-05-16T17:30:00",20.799,36.081425,0.261],
    [20817,"urn:WaterMeter:MC0203J22010600005","2024-05-16T17:45:00",20.7,36.09659,0.263],
    [20818,"urn:WaterMeter:MC0203J22010600005","2024-05-16T18:00:00",20.7,36.106674,0.265],
    [20819,"urn:WaterMeter:MC0203J22010600005","2024-05-16T18:15:00",20.7,36.088444,0.278],
    [20820,"urn:WaterMeter:MC0203J22010600005","2024-05-16T18:30:00",20.6,36.095425,0.27],
    [20821,"urn:WaterMeter:MC0203J22010600005","2024-05-16T18:45:00",20.6,36.130726,0.27],
    [20822,"urn:WaterMeter:MC0203J22010600005","2024-05-16T19:00:00",20.5,36.144302,0.262],
    [20823,"urn:WaterMeter:MC0203J22010600005","2024-05-16T19:15:00",20.5,36.110554,0.273],
    [20824,"urn:WaterMeter:MC0203J22010600005","2024-05-16T19:30:00",20.399,36.129562,0.262],
    [20825,"urn:WaterMeter:MC0203J22010600005","2024-05-16T19:45:00",20.399,36.09116,0.288],
    [20826,"urn:WaterMeter:MC0203J22010600005","2024-05-16T20:00:00",20.399,36.119087,0.28],
    [20827,"urn:WaterMeter:MC0203J22010600005","2024-05-16T20:15:00",20.299,36.202488,0.267],
    [20828,"urn:WaterMeter:MC0203J22010600005","2024-05-16T20:30:00",20.299,36.165638,0.263],
    [20829,"urn:WaterMeter:MC0203J22010600005","2024-05-16T20:45:00",20.299,36.204037,0.266],
    [20830,"urn:WaterMeter:MC0203J22010600005","2024-05-16T21:00:00",20.299,36.202873,0.262],
    [20831,"urn:WaterMeter:MC0203J22010600005","2024-05-16T21:15:00",20.2,36.187748,0.264],
    [20832,"urn:WaterMeter:MC0203J22010600005","2024-05-16T21:30:00",20.1,36.159004,0.276],
    [20833,"urn:WaterMeter:MC0203J22010600005","2024-05-16T21:45:00",20,36.181927,0.278],
    [20834,"urn:WaterMeter:MC0203J22010600005","2024-05-16T22:00:00",19.899,36.19857,0.281],
    [20835,"urn:WaterMeter:MC0203J22010600005","2024-05-16T22:15:00",19.899,36.17262,0.276],
    [20836,"urn:WaterMeter:MC0203J22010600005","2024-05-16T22:30:00",19.799,36.204037,0.268],
    [20837,"urn:WaterMeter:MC0203J22010600005","2024-05-16T22:45:00",19.7,36.27576,0.264],
    [20838,"urn:WaterMeter:MC0203J22010600005","2024-05-16T23:00:00",19.6,36.27192,0.265],
    [20839,"urn:WaterMeter:MC0203J22010600005","2024-05-16T23:15:00",19.5,36.207916,0.266],
    [20840,"urn:WaterMeter:MC0203J22010600005","2024-05-16T23:30:00",19.399,36.241276,0.262],
    [20841,"urn:WaterMeter:MC0203J22010600005","2024-05-16T23:45:00",19.399,36.291702,0.269],
    [20842,"urn:WaterMeter:MC0203J22010600005","2024-05-17T00:00:00",19.299,36.267616,0.27],
    [20843,"urn:WaterMeter:MC0203J22010600005","2024-05-17T00:15:00",19.2,36.24399,0.269],
    [20844,"urn:WaterMeter:MC0203J22010600005","2024-05-17T00:30:00",19.1,36.30916,0.266],
    [20845,"urn:WaterMeter:MC0203J22010600005","2024-05-17T00:45:00",19,36.299072,0.295],
    [20846,"urn:WaterMeter:MC0203J22010600005","2024-05-17T01:00:00",18.899,36.333946,0.274],
    [20847,"urn:WaterMeter:MC0203J22010600005","2024-05-17T01:15:00",18.799,36.3398,0.262],
    [20848,"urn:WaterMeter:MC0203J22010600005","2024-05-17T01:30:00",18.7,36.32157,0.266],
    [20849,"urn:WaterMeter:MC0203J22010600005","2024-05-17T01:45:00",18.6,36.30295,0.274],
    [20850,"urn:WaterMeter:MC0203J22010600005","2024-05-17T02:00:00",18.6,36.350277,0.263],
    [20851,"urn:WaterMeter:MC0203J22010600005","2024-05-17T02:15:00",18.5,36.313038,0.269],
    [20852,"urn:WaterMeter:MC0203J22010600005","2024-05-17T02:30:00",18.399,36.346397,0.265],
    [20853,"urn:WaterMeter:MC0203J22010600005","2024-05-17T02:45:00",18.299,36.381695,0.282],
    [20854,"urn:WaterMeter:MC0203J22010600005","2024-05-17T03:00:00",18.299,36.319244,0.26],
    [20855,"urn:WaterMeter:MC0203J22010600005","2024-05-17T03:15:00",18.2,36.37235,0.271],
    [20856,"urn:WaterMeter:MC0203J22010600005","2024-05-17T03:30:00",18.1,36.401093,0.268],
    [20857,"urn:WaterMeter:MC0203J22010600005","2024-05-17T03:45:00",18,36.430534,0.261],
    [20858,"urn:WaterMeter:MC0203J22010600005","2024-05-17T04:00:00",18,36.368507,0.265],
    [20859,"urn:WaterMeter:MC0203J22010600005","2024-05-17T04:15:00",17.899,36.408073,0.263],
    [20860,"urn:WaterMeter:MC0203J22010600005","2024-05-17T04:30:00",17.899,36.40691,0.26],
    [20861,"urn:WaterMeter:MC0203J22010600005","2024-05-17T04:45:00",17.799,36.397987,0.265],
    [20862,"urn:WaterMeter:MC0203J22010600005","2024-05-17T05:00:00",17.799,36.47402,0.26],
    [20863,"urn:WaterMeter:MC0203J22010600005","2024-05-17T05:15:00",17.799,36.39915,0.266],
    [20864,"urn:WaterMeter:MC0203J22010600005","2024-05-17T05:30:00",17.7,36.468548,0.275],
    [20865,"urn:WaterMeter:MC0203J22010600005","2024-05-17T05:45:00",17.7,36.44764,0.267],
    [20866,"urn:WaterMeter:MC0203J22010600005","2024-05-17T06:00:00",17.799,36.446087,0.263],
    [20867,"urn:WaterMeter:MC0203J22010600005","2024-05-17T06:15:00",17.899,36.46971,0.268],
    [20868,"urn:WaterMeter:MC0203J22010600005","2024-05-17T06:30:00",17.899,36.415054,0.264],
    [20869,"urn:WaterMeter:MC0203J22010600005","2024-05-17T06:45:00",17.899,36.47518,0.261],
    [20870,"urn:WaterMeter:MC0203J22010600005","2024-05-17T07:00:00",18,36.45889,0.269],
    [20871,"urn:WaterMeter:MC0203J22010600005","2024-05-17T07:15:00",18.2,36.451866,0.27],
    [20872,"urn:WaterMeter:MC0203J22010600005","2024-05-17T07:30:00",18.299,36.44764,0.267],
    [20873,"urn:WaterMeter:MC0203J22010600005","2024-05-17T07:45:00",18.399,36.422775,0.257],
    [20874,"urn:WaterMeter:MC0203J22010600005","2024-05-17T08:00:00",18.6,36.41777,0.27],
    [20875,"urn:WaterMeter:MC0203J22010600005","2024-05-17T08:15:00",18.7,36.37704,0.272],
    [20876,"urn:WaterMeter:MC0203J22010600005","2024-05-17T08:30:00",18.899,36.354504,0.257],
    [20877,"urn:WaterMeter:MC0203J22010600005","2024-05-17T08:45:00",19,36.361137,0.266],
    [20878,"urn:WaterMeter:MC0203J22010600005","2024-05-17T09:00:00",19.1,36.30563,0.252],
    [20879,"urn:WaterMeter:MC0203J22010600005","2024-05-17T09:15:00",19.2,35.240883,0.257],
    [20880,"urn:WaterMeter:MC0203J22010600005","2024-05-17T09:30:00",19.5,34.826218,0.24],
    [20881,"urn:WaterMeter:MC0203J22010600005","2024-05-17T09:45:00",19.6,34.607014,0.245],
    [20882,"urn:WaterMeter:MC0203J22010600005","2024-05-17T10:00:00",19.799,34.381294,0.239],
    [20883,"urn:WaterMeter:MC0203J22010600005","2024-05-17T10:15:00",20,34.192738,0.249],
    [20884,"urn:WaterMeter:MC0203J22010600005","2024-05-17T10:30:00",20.2,33.997623,0.235],
    [20885,"urn:WaterMeter:MC0203J22010600005","2024-05-17T10:45:00",20.299,33.857243,0.247],
    [20886,"urn:WaterMeter:MC0203J22010600005","2024-05-17T11:00:00",20.5,33.747856,0.26],
    [20887,"urn:WaterMeter:MC0203J22010600005","2024-05-17T11:15:00",20.6,33.539555,0.229],
    [20888,"urn:WaterMeter:MC0203J22010600005","2024-05-17T11:30:00",20.7,33.43672,0.232],
    [20889,"urn:WaterMeter:MC0203J22010600005","2024-05-17T11:45:00",20.799,33.356464,0.233],
    [20890,"urn:WaterMeter:MC0203J22010600005","2024-05-17T12:00:00",20.899,33.203205,0.234],
    [20891,"urn:WaterMeter:MC0203J22010600005","2024-05-17T12:15:00",21,33.144245,0.232],
    [20892,"urn:WaterMeter:MC0203J22010600005","2024-05-17T12:30:00",21.1,33.003086,0.252],
    [20893,"urn:WaterMeter:MC0203J22010600005","2024-05-17T12:45:00",21.2,32.946453,0.224],
    [20894,"urn:WaterMeter:MC0203J22010600005","2024-05-17T13:00:00",21.299,32.83086,0.224],
    [20895,"urn:WaterMeter:MC0203J22010600005","2024-05-17T13:15:00",21.399,32.734272,0.244],
    [20896,"urn:WaterMeter:MC0203J22010600005","2024-05-17T13:30:00",21.5,32.62605,0.228],
    [20897,"urn:WaterMeter:MC0203J22010600005","2024-05-17T13:45:00",21.5,32.593464,0.227],
    [20898,"urn:WaterMeter:MC0203J22010600005","2024-05-17T14:00:00",21.5,32.485203,0.227],
    [20899,"urn:WaterMeter:MC0203J22010600005","2024-05-17T14:15:00",21.5,32.453045,0.219],
    [20900,"urn:WaterMeter:MC0203J22010600005","2024-05-17T14:30:00",21.5,32.316505,0.23],
    [20901,"urn:WaterMeter:MC0203J22010600005","2024-05-17T14:45:00",21.5,32.25017,0.226],
    [20902,"urn:WaterMeter:MC0203J22010600005","2024-05-17T15:00:00",21.5,32.22337,0.22],
    [20903,"urn:WaterMeter:MC0203J22010600005","2024-05-17T15:15:00",21.5,32.143112,0.22],
    [20904,"urn:WaterMeter:MC0203J22010600005","2024-05-17T15:30:00",21.5,32.04187,0.239],
    [20905,"urn:WaterMeter:MC0203J22010600005","2024-05-17T15:45:00",21.5,32.04614,0.225],
    [20906,"urn:WaterMeter:MC0203J22010600005","2024-05-17T16:00:00",21.5,31.993773,0.22],
    [20907,"urn:WaterMeter:MC0203J22010600005","2024-05-17T16:15:00",21.5,31.884344,0.228],
    [20908,"urn:WaterMeter:MC0203J22010600005","2024-05-17T16:30:00",21.5,31.848698,0.221],
    [20909,"urn:WaterMeter:MC0203J22010600005","2024-05-17T16:45:00",21.399,31.841328,0.217],
    [20910,"urn:WaterMeter:MC0203J22010600005","2024-05-17T17:00:00",21.399,31.756725,0.218],
    [20911,"urn:WaterMeter:MC0203J22010600005","2024-05-17T17:15:00",21.399,31.757114,0.222],
    [20912,"urn:WaterMeter:MC0203J22010600005","2024-05-17T17:30:00",21.399,31.674143,0.215],
    [20913,"urn:WaterMeter:MC0203J22010600005","2024-05-17T17:45:00",21.299,31.622513,0.223],
    [20914,"urn:WaterMeter:MC0203J22010600005","2024-05-17T18:00:00",21.299,31.595787,0.219],
    [20915,"urn:WaterMeter:MC0203J22010600005","2024-05-17T18:15:00",21.2,31.558548,0.226],
    [20916,"urn:WaterMeter:MC0203J22010600005","2024-05-17T18:30:00",21.2,31.562777,0.221],
    [20917,"urn:WaterMeter:MC0203J22010600005","2024-05-17T18:45:00",21.1,31.537601,0.217],
    [20918,"urn:WaterMeter:MC0203J22010600005","2024-05-17T19:00:00",21,31.503428,0.222],
    [20919,"urn:WaterMeter:MC0203J22010600005","2024-05-17T19:15:00",21,31.496058,0.216],
    [20920,"urn:WaterMeter:MC0203J22010600005","2024-05-17T19:30:00",20.899,31.442953,0.214],
    [20921,"urn:WaterMeter:MC0203J22010600005","2024-05-17T19:45:00",20.799,31.457268,0.219],
    [20922,"urn:WaterMeter:MC0203J22010600005","2024-05-17T20:00:00",20.799,31.4511,0.219],
    [20923,"urn:WaterMeter:MC0203J22010600005","2024-05-17T20:15:00",20.7,31.434032,0.218],
    [20924,"urn:WaterMeter:MC0203J22010600005","2024-05-17T20:30:00",20.6,31.437872,0.218],
    [20925,"urn:WaterMeter:MC0203J22010600005","2024-05-17T20:45:00",20.5,31.406103,0.222],
    [20926,"urn:WaterMeter:MC0203J22010600005","2024-05-17T21:00:00",20.399,31.41425,0.222],
    [20927,"urn:WaterMeter:MC0203J22010600005","2024-05-17T21:15:00",20.299,31.389772,0.212],
    [20928,"urn:WaterMeter:MC0203J22010600005","2024-05-17T21:30:00",20.2,31.404163,0.215],
    [20929,"urn:WaterMeter:MC0203J22010600005","2024-05-17T21:45:00",20.1,31.37507,0.219],
    [20930,"urn:WaterMeter:MC0203J22010600005","2024-05-17T22:00:00",19.899,31.366924,0.23],
    [20931,"urn:WaterMeter:MC0203J22010600005","2024-05-17T22:15:00",19.899,31.41386,0.232],
    [20932,"urn:WaterMeter:MC0203J22010600005","2024-05-17T22:30:00",19.799,31.3312,0.214],
    [20933,"urn:WaterMeter:MC0203J22010600005","2024-05-17T22:45:00",19.7,31.36421,0.211],
    [20934,"urn:WaterMeter:MC0203J22010600005","2024-05-17T23:00:00",19.6,31.392914,0.218],
    [20935,"urn:WaterMeter:MC0203J22010600005","2024-05-17T23:15:00",19.6,31.331976,0.21],
    [20936,"urn:WaterMeter:MC0203J22010600005","2024-05-17T23:30:00",19.5,31.321114,0.214],
    [20937,"urn:WaterMeter:MC0203J22010600005","2024-05-17T23:45:00",19.399,31.322666,0.208],
    [20938,"urn:WaterMeter:MC0203J22010600005","2024-05-18T00:00:00",19.299,31.297878,0.223],
    [20939,"urn:WaterMeter:MC0203J22010600005","2024-05-18T00:15:00",19.2,31.30172,0.218],
    [20940,"urn:WaterMeter:MC0203J22010600005","2024-05-18T00:30:00",19.2,31.328524,0.221],
    [20941,"urn:WaterMeter:MC0203J22010600005","2024-05-18T00:45:00",19.1,31.307964,0.217],
    [20942,"urn:WaterMeter:MC0203J22010600005","2024-05-18T01:00:00",19,31.335117,0.224],
    [20943,"urn:WaterMeter:MC0203J22010600005","2024-05-18T01:15:00",18.899,31.277708,0.222],
    [20944,"urn:WaterMeter:MC0203J22010600005","2024-05-18T01:30:00",18.799,31.264093,0.211],
    [20945,"urn:WaterMeter:MC0203J22010600005","2024-05-18T01:45:00",18.7,31.280035,0.207],
    [20946,"urn:WaterMeter:MC0203J22010600005","2024-05-18T02:00:00",18.6,31.295164,0.221],
    [20947,"urn:WaterMeter:MC0203J22010600005","2024-05-18T02:15:00",18.5,31.30874,0.211],
    [20948,"urn:WaterMeter:MC0203J22010600005","2024-05-18T02:30:00",18.399,31.275768,0.22],
    [20949,"urn:WaterMeter:MC0203J22010600005","2024-05-18T02:45:00",18.399,31.250942,0.213],
    [20950,"urn:WaterMeter:MC0203J22010600005","2024-05-18T03:00:00",18.299,31.259478,0.218],
    [20951,"urn:WaterMeter:MC0203J22010600005","2024-05-18T03:15:00",18.2,31.276932,0.211],
    [20952,"urn:WaterMeter:MC0203J22010600005","2024-05-18T03:30:00",18.2,31.224527,0.216],
    [20953,"urn:WaterMeter:MC0203J22010600005","2024-05-18T03:45:00",18.1,31.242022,0.232],
    [20954,"urn:WaterMeter:MC0203J22010600005","2024-05-18T04:00:00",18.1,31.271463,0.213],
    [20955,"urn:WaterMeter:MC0203J22010600005","2024-05-18T04:15:00",18.1,31.182285,0.218],
    [20956,"urn:WaterMeter:MC0203J22010600005","2024-05-18T04:30:00",18,31.187328,0.21],
    [20957,"urn:WaterMeter:MC0203J22010600005","2024-05-18T04:45:00",18,31.213278,0.216],
    [20958,"urn:WaterMeter:MC0203J22010600005","2024-05-18T05:00:00",18,31.171036,0.207],
    [20959,"urn:WaterMeter:MC0203J22010600005","2024-05-18T05:15:00",18,31.17763,0.204],
    [20960,"urn:WaterMeter:MC0203J22010600005","2024-05-18T05:30:00",18,31.198965,0.209],
    [20961,"urn:WaterMeter:MC0203J22010600005","2024-05-18T05:45:00",18,31.200516,0.206],
    [20962,"urn:WaterMeter:MC0203J22010600005","2024-05-18T06:00:00",18,31.16673,0.208],
    [20963,"urn:WaterMeter:MC0203J22010600005","2024-05-18T06:15:00",18.1,31.116692,0.204],
    [20964,"urn:WaterMeter:MC0203J22010600005","2024-05-18T06:30:00",18.1,31.147335,0.226],
    [20965,"urn:WaterMeter:MC0203J22010600005","2024-05-18T06:45:00",18.1,31.044968,0.208],
    [20966,"urn:WaterMeter:MC0203J22010600005","2024-05-18T07:00:00",18.2,31.044968,0.211],
    [20967,"urn:WaterMeter:MC0203J22010600005","2024-05-18T07:15:00",18.2,31.027514,0.215],
    [20968,"urn:WaterMeter:MC0203J22010600005","2024-05-18T07:30:00",18.299,31.028288,0.2],
    [20969,"urn:WaterMeter:MC0203J22010600005","2024-05-18T07:45:00",18.399,30.95261,0.207],
    [20970,"urn:WaterMeter:MC0203J22010600005","2024-05-18T08:00:00",18.5,30.9433,0.2],
    [20971,"urn:WaterMeter:MC0203J22010600005","2024-05-18T08:15:00",18.7,30.899506,0.205],
    [20972,"urn:WaterMeter:MC0203J22010600005","2024-05-18T08:30:00",18.899,30.820763,0.225],
    [20973,"urn:WaterMeter:MC0203J22010600005","2024-05-18T08:45:00",19.1,30.834726,0.201],
    [20974,"urn:WaterMeter:MC0203J22010600005","2024-05-18T09:00:00",19.2,30.805595,0.194],
    [20975,"urn:WaterMeter:MC0203J22010600005","2024-05-18T09:15:00",19.399,30.727627,0.216],
    [20976,"urn:WaterMeter:MC0203J22010600005","2024-05-18T09:30:00",19.6,30.664825,0.198],
    [20977,"urn:WaterMeter:MC0203J22010600005","2024-05-18T09:45:00",19.799,30.589573,0.207],
    [20978,"urn:WaterMeter:MC0203J22010600005","2024-05-18T10:00:00",19.899,30.56824,0.2],
    [20979,"urn:WaterMeter:MC0203J22010600005","2024-05-18T10:15:00",20.1,30.536392,0.196],
    [20980,"urn:WaterMeter:MC0203J22010600005","2024-05-18T10:30:00",20.299,30.465834,0.199],
    [20981,"urn:WaterMeter:MC0203J22010600005","2024-05-18T10:45:00",20.6,30.357998,0.201],
    [20982,"urn:WaterMeter:MC0203J22010600005","2024-05-18T11:00:00",20.7,30.33162,0.201],
    [20983,"urn:WaterMeter:MC0203J22010600005","2024-05-18T11:15:00",20.899,30.25249,0.202],
    [20984,"urn:WaterMeter:MC0203J22010600005","2024-05-18T11:30:00",21,30.19698,0.205],
    [20985,"urn:WaterMeter:MC0203J22010600005","2024-05-18T11:45:00",21.1,30.139997,0.194],
    [20986,"urn:WaterMeter:MC0203J22010600005","2024-05-18T12:00:00",21.299,30.046515,0.209],
    [20987,"urn:WaterMeter:MC0203J22010600005","2024-05-18T12:15:00",21.399,30.01587,0.197],
    [20988,"urn:WaterMeter:MC0203J22010600005","2024-05-18T12:30:00",21.5,29.946436,0.194],
    [20989,"urn:WaterMeter:MC0203J22010600005","2024-05-18T12:45:00",21.7,29.89174,0.194],
    [20990,"urn:WaterMeter:MC0203J22010600005","2024-05-18T13:00:00",21.7,29.835846,0.194],
    [20991,"urn:WaterMeter:MC0203J22010600005","2024-05-18T13:15:00",21.799,29.764898,0.197],
    [20992,"urn:WaterMeter:MC0203J22010600005","2024-05-18T13:30:00",21.899,29.732275,0.192],
    [20993,"urn:WaterMeter:MC0203J22010600005","2024-05-18T13:45:00",21.899,29.639994,0.189],
    [20994,"urn:WaterMeter:MC0203J22010600005","2024-05-18T14:00:00",22,29.580257,0.19],
    [20995,"urn:WaterMeter:MC0203J22010600005","2024-05-18T14:15:00",22,29.563927,0.189],
    [20996,"urn:WaterMeter:MC0203J22010600005","2024-05-18T14:30:00",22.1,29.480955,0.195],
    [20997,"urn:WaterMeter:MC0203J22010600005","2024-05-18T14:45:00",22.1,29.428938,0.206],
    [20998,"urn:WaterMeter:MC0203J22010600005","2024-05-18T15:00:00",22.1,29.374283,0.193],
    [20999,"urn:WaterMeter:MC0203J22010600005","2024-05-18T15:15:00",22.1,29.326183,0.187],
    [21000,"urn:WaterMeter:MC0203J22010600005","2024-05-18T15:30:00",22.1,29.259077,0.194],
    [21001,"urn:WaterMeter:MC0203J22010600005","2024-05-18T15:45:00",22.1,29.196587,0.207],
    [21002,"urn:WaterMeter:MC0203J22010600005","2024-05-18T16:00:00",22.1,29.200891,0.191],
    [21003,"urn:WaterMeter:MC0203J22010600005","2024-05-18T16:15:00",22.1,29.130644,0.187],
    [21004,"urn:WaterMeter:MC0203J22010600005","2024-05-18T16:30:00",22.1,29.087626,0.19],
    [21005,"urn:WaterMeter:MC0203J22010600005","2024-05-18T16:45:00",22,29.028276,0.187],
    [21006,"urn:WaterMeter:MC0203J22010600005","2024-05-18T17:00:00",22,29.03099,0.186],
    [21007,"urn:WaterMeter:MC0203J22010600005","2024-05-18T17:15:00",21.899,28.94484,0.184],
    [21008,"urn:WaterMeter:MC0203J22010600005","2024-05-18T17:30:00",21.899,28.911905,0.19],
    [21009,"urn:WaterMeter:MC0203J22010600005","2024-05-18T17:45:00",21.799,28.92975,0.183],
    [21010,"urn:WaterMeter:MC0203J22010600005","2024-05-18T18:00:00",21.7,28.890959,0.187],
    [21011,"urn:WaterMeter:MC0203J22010600005","2024-05-18T18:15:00",21.7,28.81532,0.19],
    [21012,"urn:WaterMeter:MC0203J22010600005","2024-05-18T18:30:00",21.6,28.808298,0.186],
    [21013,"urn:WaterMeter:MC0203J22010600005","2024-05-18T18:45:00",21.5,28.802519,0.198],
    [21014,"urn:WaterMeter:MC0203J22010600005","2024-05-18T19:00:00",21.399,28.769896,0.187],
    [21015,"urn:WaterMeter:MC0203J22010600005","2024-05-18T19:15:00",21.299,28.77808,0.183],
    [21016,"urn:WaterMeter:MC0203J22010600005","2024-05-18T19:30:00",21.2,28.77808,0.19],
    [21017,"urn:WaterMeter:MC0203J22010600005","2024-05-18T19:45:00",21.1,28.723349,0.187],
    [21018,"urn:WaterMeter:MC0203J22010600005","2024-05-18T20:00:00",21,28.740454,0.189],
    [21019,"urn:WaterMeter:MC0203J22010600005","2024-05-18T20:15:00",20.899,28.684557,0.187],
    [21020,"urn:WaterMeter:MC0203J22010600005","2024-05-18T20:30:00",20.799,28.718733,0.189],
    [21021,"urn:WaterMeter:MC0203J22010600005","2024-05-18T20:45:00",20.7,28.692316,0.191],
    [21022,"urn:WaterMeter:MC0203J22010600005","2024-05-18T21:00:00",20.6,28.697397,0.182],
    [21023,"urn:WaterMeter:MC0203J22010600005","2024-05-18T21:15:00",20.6,28.700113,0.196],
    [21024,"urn:WaterMeter:MC0203J22010600005","2024-05-18T21:30:00",20.5,28.67525,0.201],
    [21025,"urn:WaterMeter:MC0203J22010600005","2024-05-18T21:45:00",20.399,28.665163,0.188],
    [21026,"urn:WaterMeter:MC0203J22010600005","2024-05-18T22:00:00",20.399,28.649298,0.185],
    [21027,"urn:WaterMeter:MC0203J22010600005","2024-05-18T22:15:00",20.299,28.63452,0.186],
    [21028,"urn:WaterMeter:MC0203J22010600005","2024-05-18T22:30:00",20.2,28.629515,0.185],
    [21029,"urn:WaterMeter:MC0203J22010600005","2024-05-18T22:45:00",20.1,28.629515,0.195],
    [21030,"urn:WaterMeter:MC0203J22010600005","2024-05-18T23:00:00",20,28.624084,0.185],
    [21031,"urn:WaterMeter:MC0203J22010600005","2024-05-18T23:15:00",20,28.605814,0.195],
    [21032,"urn:WaterMeter:MC0203J22010600005","2024-05-18T23:30:00",19.899,28.628738,0.184],
    [21033,"urn:WaterMeter:MC0203J22010600005","2024-05-18T23:45:00",19.799,28.643867,0.185],
    [21034,"urn:WaterMeter:MC0203J22010600005","2024-05-19T00:00:00",19.7,28.617064,0.185],
    [21035,"urn:WaterMeter:MC0203J22010600005","2024-05-19T00:15:00",19.6,28.644255,0.188],
    [21036,"urn:WaterMeter:MC0203J22010600005","2024-05-19T00:30:00",19.5,28.593052,0.181],
    [21037,"urn:WaterMeter:MC0203J22010600005","2024-05-19T00:45:00",19.399,28.608568,0.186],
    [21038,"urn:WaterMeter:MC0203J22010600005","2024-05-19T01:00:00",19.299,28.571718,0.189],
    [21039,"urn:WaterMeter:MC0203J22010600005","2024-05-19T01:15:00",19.2,28.613573,0.178],
    [21040,"urn:WaterMeter:MC0203J22010600005","2024-05-19T01:30:00",19.1,28.584518,0.185],
    [21041,"urn:WaterMeter:MC0203J22010600005","2024-05-19T01:45:00",19.1,28.55849,0.188],
    [21042,"urn:WaterMeter:MC0203J22010600005","2024-05-19T02:00:00",19,28.581415,0.188],
    [21043,"urn:WaterMeter:MC0203J22010600005","2024-05-19T02:15:00",18.899,28.603914,0.177],
    [21044,"urn:WaterMeter:MC0203J22010600005","2024-05-19T02:30:00",18.799,28.589949,0.181],
    [21045,"urn:WaterMeter:MC0203J22010600005","2024-05-19T02:45:00",18.7,28.596504,0.182],
    [21046,"urn:WaterMeter:MC0203J22010600005","2024-05-19T03:00:00",18.6,28.594564,0.187],
    [21047,"urn:WaterMeter:MC0203J22010600005","2024-05-19T03:15:00",18.6,28.525946,0.186],
    [21048,"urn:WaterMeter:MC0203J22010600005","2024-05-19T03:30:00",18.5,28.562796,0.179],
    [21049,"urn:WaterMeter:MC0203J22010600005","2024-05-19T03:45:00",18.399,28.558102,0.191],
    [21050,"urn:WaterMeter:MC0203J22010600005","2024-05-19T04:00:00",18.299,28.57133,0.185],
    [21051,"urn:WaterMeter:MC0203J22010600005","2024-05-19T04:15:00",18.2,28.551159,0.181],
    [21052,"urn:WaterMeter:MC0203J22010600005","2024-05-19T04:30:00",18.1,28.514309,0.179],
    [21053,"urn:WaterMeter:MC0203J22010600005","2024-05-19T04:45:00",18,28.557327,0.188],
    [21054,"urn:WaterMeter:MC0203J22010600005","2024-05-19T05:00:00",18,28.524782,0.189],
    [21055,"urn:WaterMeter:MC0203J22010600005","2024-05-19T05:15:00",17.899,28.560081,0.185],
    [21056,"urn:WaterMeter:MC0203J22010600005","2024-05-19T05:30:00",17.899,28.572495,0.19],
    [21057,"urn:WaterMeter:MC0203J22010600005","2024-05-19T05:45:00",17.899,28.53638,0.185],
    [21058,"urn:WaterMeter:MC0203J22010600005","2024-05-19T06:00:00",17.899,28.503836,0.179],
    [21059,"urn:WaterMeter:MC0203J22010600005","2024-05-19T06:15:00",17.899,28.47707,0.188],
    [21060,"urn:WaterMeter:MC0203J22010600005","2024-05-19T06:30:00",17.899,28.541073,0.186],
    [21061,"urn:WaterMeter:MC0203J22010600005","2024-05-19T06:45:00",17.899,28.476683,0.183],
    [21062,"urn:WaterMeter:MC0203J22010600005","2024-05-19T07:00:00",18,28.460352,0.188],
    [21063,"urn:WaterMeter:MC0203J22010600005","2024-05-19T07:15:00",18.1,28.465046,0.188],
    [21064,"urn:WaterMeter:MC0203J22010600005","2024-05-19T07:30:00",18.299,28.400616,0.172],
    [21065,"urn:WaterMeter:MC0203J22010600005","2024-05-19T07:45:00",18.5,28.396387,0.178],
    [21066,"urn:WaterMeter:MC0203J22010600005","2024-05-19T08:00:00",18.799,28.414618,0.169],
    [21067,"urn:WaterMeter:MC0203J22010600005","2024-05-19T08:15:00",19,28.35139,0.19],
    [21068,"urn:WaterMeter:MC0203J22010600005","2024-05-19T08:30:00",19.1,28.280792,0.174],
    [21069,"urn:WaterMeter:MC0203J22010600005","2024-05-19T08:45:00",19.299,28.263725,0.186],
    [21070,"urn:WaterMeter:MC0203J22010600005","2024-05-19T09:00:00",19.5,28.256355,0.183],
    [21071,"urn:WaterMeter:MC0203J22010600005","2024-05-19T09:15:00",19.7,28.209381,0.175],
    [21072,"urn:WaterMeter:MC0203J22010600005","2024-05-19T09:30:00",19.899,28.13727,0.176],
    [21073,"urn:WaterMeter:MC0203J22010600005","2024-05-19T09:45:00",20.1,28.12641,0.169],
    [21074,"urn:WaterMeter:MC0203J22010600005","2024-05-19T10:00:00",20.2,28.064306,0.177],
    [21075,"urn:WaterMeter:MC0203J22010600005","2024-05-19T10:15:00",20.399,27.992195,0.175],
    [21076,"urn:WaterMeter:MC0203J22010600005","2024-05-19T10:30:00",20.5,27.961163,0.184],
    [21077,"urn:WaterMeter:MC0203J22010600005","2024-05-19T10:45:00",20.7,27.921597,0.167],
    [21078,"urn:WaterMeter:MC0203J22010600005","2024-05-19T11:00:00",20.799,27.879665,0.173],
    [21079,"urn:WaterMeter:MC0203J22010600005","2024-05-19T11:15:00",20.899,27.82307,0.175],
    [21080,"urn:WaterMeter:MC0203J22010600005","2024-05-19T11:30:00",21,27.762133,0.168],
    [21081,"urn:WaterMeter:MC0203J22010600005","2024-05-19T11:45:00",21.1,27.729975,0.184],
    [21082,"urn:WaterMeter:MC0203J22010600005","2024-05-19T12:00:00",21.2,27.627531,0.178],
    [21083,"urn:WaterMeter:MC0203J22010600005","2024-05-19T12:15:00",21.299,27.5849,0.168],
    [21084,"urn:WaterMeter:MC0203J22010600005","2024-05-19T12:30:00",21.5,27.557747,0.176],
    [21085,"urn:WaterMeter:MC0203J22010600005","2024-05-19T12:45:00",21.6,27.480167,0.18],
    [21086,"urn:WaterMeter:MC0203J22010600005","2024-05-19T13:00:00",21.7,27.451036,0.175],
    [21087,"urn:WaterMeter:MC0203J22010600005","2024-05-19T13:15:00",21.799,27.370003,0.166],
    [21088,"urn:WaterMeter:MC0203J22010600005","2024-05-19T13:30:00",21.899,27.355225,0.166],
    [21089,"urn:WaterMeter:MC0203J22010600005","2024-05-19T13:45:00",22,27.257862,0.167],
    [21090,"urn:WaterMeter:MC0203J22010600005","2024-05-19T14:00:00",22,27.19929,0.164],
    [21091,"urn:WaterMeter:MC0203J22010600005","2024-05-19T14:15:00",22.1,27.156271,0.167],
    [21092,"urn:WaterMeter:MC0203J22010600005","2024-05-19T14:30:00",22.1,27.127178,0.169],
    [21093,"urn:WaterMeter:MC0203J22010600005","2024-05-19T14:45:00",22.1,27.072872,0.17],
    [21094,"urn:WaterMeter:MC0203J22010600005","2024-05-19T15:00:00",22.1,27.022446,0.166],
    [21095,"urn:WaterMeter:MC0203J22010600005","2024-05-19T15:15:00",22.1,26.971243,0.163],
    [21096,"urn:WaterMeter:MC0203J22010600005","2024-05-19T15:30:00",22.1,26.922367,0.154],
    [21097,"urn:WaterMeter:MC0203J22010600005","2024-05-19T15:45:00",22.1,26.857588,0.166],
    [21098,"urn:WaterMeter:MC0203J22010600005","2024-05-19T16:00:00",22.2,26.805222,0.177],
    [21099,"urn:WaterMeter:MC0203J22010600005","2024-05-19T16:15:00",22.1,26.78699,0.166],
    [21100,"urn:WaterMeter:MC0203J22010600005","2024-05-19T16:30:00",22.1,26.75557,0.164],
    [21101,"urn:WaterMeter:MC0203J22010600005","2024-05-19T16:45:00",22,26.670233,0.164],
    [21102,"urn:WaterMeter:MC0203J22010600005","2024-05-19T17:00:00",22,26.69079,0.173],
    [21103,"urn:WaterMeter:MC0203J22010600005","2024-05-19T17:15:00",21.899,26.623684,0.161],
    [21104,"urn:WaterMeter:MC0203J22010600005","2024-05-19T17:30:00",21.899,26.60813,0.164],
    [21105,"urn:WaterMeter:MC0203J22010600005","2024-05-19T17:45:00",21.799,26.610884,0.162],
    [21106,"urn:WaterMeter:MC0203J22010600005","2024-05-19T18:00:00",21.799,26.556965,0.16],
    [21107,"urn:WaterMeter:MC0203J22010600005","2024-05-19T18:15:00",21.799,26.529812,0.165],
    [21108,"urn:WaterMeter:MC0203J22010600005","2024-05-19T18:30:00",21.799,26.488306,0.164],
    [21109,"urn:WaterMeter:MC0203J22010600005","2024-05-19T18:45:00",21.7,26.501457,0.161],
    [21110,"urn:WaterMeter:MC0203J22010600005","2024-05-19T19:00:00",21.7,26.490635,0.172],
    [21111,"urn:WaterMeter:MC0203J22010600005","2024-05-19T19:15:00",21.6,26.461502,0.164],
    [21112,"urn:WaterMeter:MC0203J22010600005","2024-05-19T19:30:00",21.5,26.46736,0.174],
    [21113,"urn:WaterMeter:MC0203J22010600005","2024-05-19T19:45:00",21.399,26.450293,0.17],
    [21114,"urn:WaterMeter:MC0203J22010600005","2024-05-19T20:00:00",21.299,26.429346,0.163],
    [21115,"urn:WaterMeter:MC0203J22010600005","2024-05-19T20:15:00",21.1,26.430122,0.179],
    [21116,"urn:WaterMeter:MC0203J22010600005","2024-05-19T20:30:00",21.1,26.421938,0.159],
    [21117,"urn:WaterMeter:MC0203J22010600005","2024-05-19T20:45:00",21,26.395172,0.165],
    [21118,"urn:WaterMeter:MC0203J22010600005","2024-05-19T21:00:00",21,26.36224,0.169],
    [21119,"urn:WaterMeter:MC0203J22010600005","2024-05-19T21:15:00",20.899,26.394047,0.16],
    [21120,"urn:WaterMeter:MC0203J22010600005","2024-05-19T21:30:00",20.899,26.401417,0.159],
    [21121,"urn:WaterMeter:MC0203J22010600005","2024-05-19T21:45:00",20.799,26.355644,0.161],
    [21122,"urn:WaterMeter:MC0203J22010600005","2024-05-19T22:00:00",20.799,26.333923,0.159],
    [21123,"urn:WaterMeter:MC0203J22010600005","2024-05-19T22:15:00",20.7,26.297071,0.158],
    [21124,"urn:WaterMeter:MC0203J22010600005","2024-05-19T22:30:00",20.6,26.336987,0.154],
    [21125,"urn:WaterMeter:MC0203J22010600005","2024-05-19T22:45:00",20.5,26.304054,0.169],
    [21126,"urn:WaterMeter:MC0203J22010600005","2024-05-19T23:00:00",20.399,26.337376,0.16],
    [21127,"urn:WaterMeter:MC0203J22010600005","2024-05-19T23:15:00",20.399,26.315691,0.168],
    [21128,"urn:WaterMeter:MC0203J22010600005","2024-05-19T23:30:00",20.299,26.270267,0.168],
    [21129,"urn:WaterMeter:MC0203J22010600005","2024-05-19T23:45:00",20.2,26.2513,0.171],
    [21130,"urn:WaterMeter:MC0203J22010600005","2024-05-20T00:00:00",20.2,26.33431,0.166],
    [21131,"urn:WaterMeter:MC0203J22010600005","2024-05-20T00:15:00",20.1,26.253239,0.173],
    [21132,"urn:WaterMeter:MC0203J22010600005","2024-05-20T00:30:00",20,26.255955,0.165],
    [21133,"urn:WaterMeter:MC0203J22010600005","2024-05-20T00:45:00",19.899,26.274961,0.164],
    [21134,"urn:WaterMeter:MC0203J22010600005","2024-05-20T01:00:00",19.899,26.246258,0.157],
    [21135,"urn:WaterMeter:MC0203J22010600005","2024-05-20T01:15:00",19.799,26.245869,0.165],
    [21136,"urn:WaterMeter:MC0203J22010600005","2024-05-20T01:30:00",19.7,26.269104,0.17],
    [21137,"urn:WaterMeter:MC0203J22010600005","2024-05-20T01:45:00",19.6,26.209368,0.161],
    [21138,"urn:WaterMeter:MC0203J22010600005","2024-05-20T02:00:00",19.5,26.227251,0.166],
    [21139,"urn:WaterMeter:MC0203J22010600005","2024-05-20T02:15:00",19.5,26.189585,0.162],
    [21140,"urn:WaterMeter:MC0203J22010600005","2024-05-20T02:30:00",19.399,26.195055,0.158],
    [21141,"urn:WaterMeter:MC0203J22010600005","2024-05-20T02:45:00",19.399,26.188072,0.167],
    [21142,"urn:WaterMeter:MC0203J22010600005","2024-05-20T03:00:00",19.399,26.220617,0.162],
    [21143,"urn:WaterMeter:MC0203J22010600005","2024-05-20T03:15:00",19.399,26.202812,0.166],
    [21144,"urn:WaterMeter:MC0203J22010600005","2024-05-20T03:30:00",19.299,26.204752,0.164],
    [21145,"urn:WaterMeter:MC0203J22010600005","2024-05-20T03:45:00",19.2,26.194666,0.162],
    [21146,"urn:WaterMeter:MC0203J22010600005","2024-05-20T04:00:00",19.1,26.139973,0.165],
    [21147,"urn:WaterMeter:MC0203J22010600005","2024-05-20T04:15:00",19,26.156652,0.158],
    [21148,"urn:WaterMeter:MC0203J22010600005","2024-05-20T04:30:00",19,26.172518,0.168],
    [21149,"urn:WaterMeter:MC0203J22010600005","2024-05-20T04:45:00",18.899,26.143425,0.16],
    [21150,"urn:WaterMeter:MC0203J22010600005","2024-05-20T05:00:00",18.799,26.143812,0.157],
    [21151,"urn:WaterMeter:MC0203J22010600005","2024-05-20T05:15:00",18.7,26.153511,0.163],
    [21152,"urn:WaterMeter:MC0203J22010600005","2024-05-20T05:30:00",18.7,26.08524,0.162],
    [21153,"urn:WaterMeter:MC0203J22010600005","2024-05-20T05:45:00",18.6,26.09614,0.158],
    [21154,"urn:WaterMeter:MC0203J22010600005","2024-05-20T06:00:00",18.6,26.072477,0.163],
    [21155,"urn:WaterMeter:MC0203J22010600005","2024-05-20T06:15:00",18.6,26.088383,0.162],
    [21156,"urn:WaterMeter:MC0203J22010600005","2024-05-20T06:30:00",18.6,26.113169,0.157],
    [21157,"urn:WaterMeter:MC0203J22010600005","2024-05-20T06:45:00",18.7,26.082176,0.159],
    [21158,"urn:WaterMeter:MC0203J22010600005","2024-05-20T07:00:00",18.899,26.046839,0.161],
    [21159,"urn:WaterMeter:MC0203J22010600005","2024-05-20T07:15:00",19.1,26.00766,0.156],
    [21160,"urn:WaterMeter:MC0203J22010600005","2024-05-20T07:30:00",19.399,26.021664,0.165],
    [21161,"urn:WaterMeter:MC0203J22010600005","2024-05-20T07:45:00",19.6,26.00576,0.164],
    [21162,"urn:WaterMeter:MC0203J22010600005","2024-05-20T08:00:00",19.7,25.929691,0.159],
    [21163,"urn:WaterMeter:MC0203J22010600005","2024-05-20T08:15:00",19.7,25.962315,0.167],
    [21164,"urn:WaterMeter:MC0203J22010600005","2024-05-20T08:30:00",19.799,26.665577,0.171],
    [21165,"urn:WaterMeter:MC0203J22010600005","2024-05-20T08:45:00",19.899,28.730719,0.195],
    [21166,"urn:WaterMeter:MC0203J22010600005","2024-05-20T09:00:00",20,30.825766,0.242],
    [21167,"urn:WaterMeter:MC0203J22010600005","2024-05-20T09:15:00",20.2,32.0058,0.226],
    [21168,"urn:WaterMeter:MC0203J22010600005","2024-05-20T09:30:00",20.399,32.048813,0.226],
    [21169,"urn:WaterMeter:MC0203J22010600005","2024-05-20T09:45:00",20.6,32.05661,0.217],
    [21170,"urn:WaterMeter:MC0203J22010600005","2024-05-20T10:00:00",20.799,32.006573,0.219],
    [21171,"urn:WaterMeter:MC0203J22010600005","2024-05-20T10:15:00",21,31.985237,0.223],
    [21172,"urn:WaterMeter:MC0203J22010600005","2024-05-20T10:30:00",21,31.971622,0.217],
    [21173,"urn:WaterMeter:MC0203J22010600005","2024-05-20T10:45:00",21.1,31.857231,0.213],
    [21174,"urn:WaterMeter:MC0203J22010600005","2024-05-20T11:00:00",21.299,31.837448,0.205],
    [21175,"urn:WaterMeter:MC0203J22010600005","2024-05-20T11:15:00",21.5,31.74086,0.207],
    [21176,"urn:WaterMeter:MC0203J22010600005","2024-05-20T11:30:00",21.6,31.725346,0.213],
    [21177,"urn:WaterMeter:MC0203J22010600005","2024-05-20T11:45:00",21.6,31.671,0.213],
    [21178,"urn:WaterMeter:MC0203J22010600005","2024-05-20T12:00:00",21.7,31.593807,0.227],
    [21179,"urn:WaterMeter:MC0203J22010600005","2024-05-20T12:15:00",21.899,31.527515,0.206],
    [21180,"urn:WaterMeter:MC0203J22010600005","2024-05-20T12:30:00",22,31.427786,0.208],
    [21181,"urn:WaterMeter:MC0203J22010600005","2024-05-20T12:45:00",22.1,31.394466,0.206],
    [21182,"urn:WaterMeter:MC0203J22010600005","2024-05-20T13:00:00",22.2,31.364986,0.209],
    [21183,"urn:WaterMeter:MC0203J22010600005","2024-05-20T13:15:00",22.299,31.282324,0.203],
    [21184,"urn:WaterMeter:MC0203J22010600005","2024-05-20T13:30:00",22.299,31.250942,0.214],
    [21185,"urn:WaterMeter:MC0203J22010600005","2024-05-20T13:45:00",22.399,31.132633,0.215],
    [21186,"urn:WaterMeter:MC0203J22010600005","2024-05-20T14:00:00",22.5,31.11479,0.212],
    [21187,"urn:WaterMeter:MC0203J22010600005","2024-05-20T14:15:00",22.6,31.043804,0.21],
    [21188,"urn:WaterMeter:MC0203J22010600005","2024-05-20T14:30:00",22.6,30.960367,0.217],
    [21189,"urn:WaterMeter:MC0203J22010600005","2024-05-20T14:45:00",22.5,30.940622,0.204],
    [21190,"urn:WaterMeter:MC0203J22010600005","2024-05-20T15:00:00",22.5,30.934765,0.202],
    [21191,"urn:WaterMeter:MC0203J22010600005","2024-05-20T15:15:00",22.399,30.889032,0.209],
    [21192,"urn:WaterMeter:MC0203J22010600005","2024-05-20T15:30:00",22.399,30.803694,0.215],
    [21193,"urn:WaterMeter:MC0203J22010600005","2024-05-20T15:45:00",22.299,30.785463,0.206],
    [21194,"urn:WaterMeter:MC0203J22010600005","2024-05-20T16:00:00",22.2,30.747799,0.224],
    [21195,"urn:WaterMeter:MC0203J22010600005","2024-05-20T16:15:00",22.1,30.757923,0.203],
    [21196,"urn:WaterMeter:MC0203J22010600005","2024-05-20T16:30:00",22,30.72142,0.204],
    [21197,"urn:WaterMeter:MC0203J22010600005","2024-05-20T16:45:00",21.899,30.664438,0.206],
    [21198,"urn:WaterMeter:MC0203J22010600005","2024-05-20T17:00:00",21.799,30.670994,0.207],
    [21199,"urn:WaterMeter:MC0203J22010600005","2024-05-20T17:15:00",21.799,30.638449,0.201],
    [21200,"urn:WaterMeter:MC0203J22010600005","2024-05-20T17:30:00",21.7,30.612421,0.2],
    [21201,"urn:WaterMeter:MC0203J22010600005","2024-05-20T17:45:00",21.7,30.55699,0.21],
    [21202,"urn:WaterMeter:MC0203J22010600005","2024-05-20T18:00:00",21.6,30.574408,0.2],
    [21203,"urn:WaterMeter:MC0203J22010600005","2024-05-20T18:15:00",21.6,30.571342,0.201],
    [21204,"urn:WaterMeter:MC0203J22010600005","2024-05-20T18:30:00",21.5,30.600046,0.203],
    [21205,"urn:WaterMeter:MC0203J22010600005","2024-05-20T18:45:00",21.5,30.534842,0.198],
    [21206,"urn:WaterMeter:MC0203J22010600005","2024-05-20T19:00:00",21.5,30.536005,0.205],
    [21207,"urn:WaterMeter:MC0203J22010600005","2024-05-20T19:15:00",21.399,30.480574,0.215],
    [21208,"urn:WaterMeter:MC0203J22010600005","2024-05-20T19:30:00",21.299,30.458426,0.203],
    [21209,"urn:WaterMeter:MC0203J22010600005","2024-05-20T19:45:00",21.299,30.492987,0.206],
    [21210,"urn:WaterMeter:MC0203J22010600005","2024-05-20T20:00:00",21.2,30.456486,0.204],
    [21211,"urn:WaterMeter:MC0203J22010600005","2024-05-20T20:15:00",21.1,30.45342,0.205],
    [21212,"urn:WaterMeter:MC0203J22010600005","2024-05-20T20:30:00",21,30.413078,0.197],
    [21213,"urn:WaterMeter:MC0203J22010600005","2024-05-20T20:45:00",20.799,30.4111,0.204],
    [21214,"urn:WaterMeter:MC0203J22010600005","2024-05-20T21:00:00",20.7,30.436703,0.201],
    [21215,"urn:WaterMeter:MC0203J22010600005","2024-05-20T21:15:00",20.6,30.373125,0.197],
    [21216,"urn:WaterMeter:MC0203J22010600005","2024-05-20T21:30:00",20.5,30.396399,0.211],
    [21217,"urn:WaterMeter:MC0203J22010600005","2024-05-20T21:45:00",20.5,30.419634,0.202],
    [21218,"urn:WaterMeter:MC0203J22010600005","2024-05-20T22:00:00",20.399,30.406872,0.199],
    [21219,"urn:WaterMeter:MC0203J22010600005","2024-05-20T22:15:00",20.299,30.39985,0.204],
    [21220,"urn:WaterMeter:MC0203J22010600005","2024-05-20T22:30:00",20.2,30.359898,0.199],
    [21221,"urn:WaterMeter:MC0203J22010600005","2024-05-20T22:45:00",20.1,30.381233,0.202],
    [21222,"urn:WaterMeter:MC0203J22010600005","2024-05-20T23:00:00",20.1,30.4111,0.205],
    [21223,"urn:WaterMeter:MC0203J22010600005","2024-05-20T23:15:00",19.899,30.347525,0.207],
    [21224,"urn:WaterMeter:MC0203J22010600005","2024-05-20T23:30:00",19.799,30.367308,0.198],
    [21225,"urn:WaterMeter:MC0203J22010600005","2024-05-20T23:45:00",19.7,30.351015,0.195],
    [21226,"urn:WaterMeter:MC0203J22010600005","2024-05-21T00:00:00",19.6,30.349075,0.212],
    [21227,"urn:WaterMeter:MC0203J22010600005","2024-05-21T00:15:00",19.5,30.360287,0.203],
    [21228,"urn:WaterMeter:MC0203J22010600005","2024-05-21T00:30:00",19.399,30.317268,0.199],
    [21229,"urn:WaterMeter:MC0203J22010600005","2024-05-21T00:45:00",19.299,30.333948,0.198],
    [21230,"urn:WaterMeter:MC0203J22010600005","2024-05-21T01:00:00",19.299,30.333948,0.215],
    [21231,"urn:WaterMeter:MC0203J22010600005","2024-05-21T01:15:00",19.1,30.316492,0.195],
    [21232,"urn:WaterMeter:MC0203J22010600005","2024-05-21T01:30:00",19.1,30.323048,0.195],
    [21233,"urn:WaterMeter:MC0203J22010600005","2024-05-21T01:45:00",19,30.32072,0.203],
    [21234,"urn:WaterMeter:MC0203J22010600005","2024-05-21T02:00:00",19,30.330845,0.189],
    [21235,"urn:WaterMeter:MC0203J22010600005","2024-05-21T02:15:00",18.899,30.303265,0.193],
    [21236,"urn:WaterMeter:MC0203J22010600005","2024-05-21T02:30:00",18.899,30.299036,0.201],
    [21237,"urn:WaterMeter:MC0203J22010600005","2024-05-21T02:45:00",18.799,30.27456,0.211],
    [21238,"urn:WaterMeter:MC0203J22010600005","2024-05-21T03:00:00",18.7,30.28546,0.198],
    [21239,"urn:WaterMeter:MC0203J22010600005","2024-05-21T03:15:00",18.6,30.306795,0.196],
    [21240,"urn:WaterMeter:MC0203J22010600005","2024-05-21T03:30:00",18.5,30.3002,0.209],
    [21241,"urn:WaterMeter:MC0203J22010600005","2024-05-21T03:45:00",18.399,30.25016,0.202],
    [21242,"urn:WaterMeter:MC0203J22010600005","2024-05-21T04:00:00",18.299,30.273046,0.199],
    [21243,"urn:WaterMeter:MC0203J22010600005","2024-05-21T04:15:00",18.299,30.268393,0.197],
    [21244,"urn:WaterMeter:MC0203J22010600005","2024-05-21T04:30:00",18.2,30.26723,0.191],
    [21245,"urn:WaterMeter:MC0203J22010600005","2024-05-21T04:45:00",18.1,30.248997,0.205],
    [21246,"urn:WaterMeter:MC0203J22010600005","2024-05-21T05:00:00",18,30.20943,0.192],
    [21247,"urn:WaterMeter:MC0203J22010600005","2024-05-21T05:15:00",18,30.256756,0.191],
    [21248,"urn:WaterMeter:MC0203J22010600005","2024-05-21T05:30:00",17.899,30.195854,0.208],
    [21249,"urn:WaterMeter:MC0203J22010600005","2024-05-21T05:45:00",17.899,30.223007,0.198],
    [21250,"urn:WaterMeter:MC0203J22010600005","2024-05-21T06:00:00",17.899,30.18965,0.191],
    [21251,"urn:WaterMeter:MC0203J22010600005","2024-05-21T06:15:00",18,30.23387,0.193],
    [21252,"urn:WaterMeter:MC0203J22010600005","2024-05-21T06:30:00",18.1,30.195467,0.203],
    [21253,"urn:WaterMeter:MC0203J22010600005","2024-05-21T06:45:00",18.2,30.18383,0.193],
    [21254,"urn:WaterMeter:MC0203J22010600005","2024-05-21T07:00:00",18.299,30.151634,0.189],
    [21255,"urn:WaterMeter:MC0203J22010600005","2024-05-21T07:15:00",18.399,30.115948,0.197],
    [21256,"urn:WaterMeter:MC0203J22010600005","2024-05-21T07:30:00",18.5,30.063969,0.194],
    [21257,"urn:WaterMeter:MC0203J22010600005","2024-05-21T07:45:00",18.6,30.076382,0.198],
    [21258,"urn:WaterMeter:MC0203J22010600005","2024-05-21T08:00:00",18.799,29.98639,0.2],
    [21259,"urn:WaterMeter:MC0203J22010600005","2024-05-21T08:15:00",19,29.97902,0.198],
    [21260,"urn:WaterMeter:MC0203J22010600005","2024-05-21T08:30:00",19.2,29.944458,0.187],
    [21261,"urn:WaterMeter:MC0203J22010600005","2024-05-21T08:45:00",19.399,29.89597,0.189],
    [21262,"urn:WaterMeter:MC0203J22010600005","2024-05-21T09:00:00",19.6,29.841702,0.184],
    [21263,"urn:WaterMeter:MC0203J22010600005","2024-05-21T09:15:00",19.799,29.8277,0.199],
    [21264,"urn:WaterMeter:MC0203J22010600005","2024-05-21T09:30:00",20,29.754038,0.186],
    [21265,"urn:WaterMeter:MC0203J22010600005","2024-05-21T09:45:00",20.2,29.693913,0.188],
    [21266,"urn:WaterMeter:MC0203J22010600005","2024-05-21T10:00:00",20.399,29.657837,0.186],
    [21267,"urn:WaterMeter:MC0203J22010600005","2024-05-21T10:15:00",20.6,29.55039,0.195],
    [21268,"urn:WaterMeter:MC0203J22010600005","2024-05-21T10:30:00",20.799,29.486347,0.184],
    [21269,"urn:WaterMeter:MC0203J22010600005","2024-05-21T10:45:00",21.1,29.447208,0.191],
    [21270,"urn:WaterMeter:MC0203J22010600005","2024-05-21T11:00:00",21.2,29.376999,0.186],
    [21271,"urn:WaterMeter:MC0203J22010600005","2024-05-21T11:15:00",21.299,29.318813,0.184],
    [21272,"urn:WaterMeter:MC0203J22010600005","2024-05-21T11:30:00",21.399,29.27886,0.184],
    [21273,"urn:WaterMeter:MC0203J22010600005","2024-05-21T11:45:00",21.5,29.178354,0.186],
    [21274,"urn:WaterMeter:MC0203J22010600005","2024-05-21T12:00:00",21.5,29.165981,0.181],
    [21275,"urn:WaterMeter:MC0203J22010600005","2024-05-21T12:15:00",21.6,29.103916,0.189],
    [21276,"urn:WaterMeter:MC0203J22010600005","2024-05-21T12:30:00",21.7,29.034056,0.186],
    [21277,"urn:WaterMeter:MC0203J22010600005","2024-05-21T12:45:00",21.799,28.987547,0.199],
    [21278,"urn:WaterMeter:MC0203J22010600005","2024-05-21T13:00:00",21.899,28.951084,0.186],
    [21279,"urn:WaterMeter:MC0203J22010600005","2024-05-21T13:15:00",22,28.820322,0.185],
    [21280,"urn:WaterMeter:MC0203J22010600005","2024-05-21T13:30:00",22.1,28.809849,0.188],
    [21281,"urn:WaterMeter:MC0203J22010600005","2024-05-21T13:45:00",22.2,28.712486,0.187],
    [21282,"urn:WaterMeter:MC0203J22010600005","2024-05-21T14:00:00",22.2,28.67839,0.184],
    [21283,"urn:WaterMeter:MC0203J22010600005","2024-05-21T14:15:00",22.299,28.598095,0.18],
    [21284,"urn:WaterMeter:MC0203J22010600005","2024-05-21T14:30:00",22.399,28.51392,0.192],
    [21285,"urn:WaterMeter:MC0203J22010600005","2024-05-21T14:45:00",22.5,28.49569,0.178],
    [21286,"urn:WaterMeter:MC0203J22010600005","2024-05-21T15:00:00",22.5,28.41074,0.185],
    [21287,"urn:WaterMeter:MC0203J22010600005","2024-05-21T15:15:00",22.5,28.340918,0.186],
    [21288,"urn:WaterMeter:MC0203J22010600005","2024-05-21T15:30:00",22.5,28.302128,0.178],
    [21289,"urn:WaterMeter:MC0203J22010600005","2024-05-21T15:45:00",22.5,28.269545,0.182],
    [21290,"urn:WaterMeter:MC0203J22010600005","2024-05-21T16:00:00",22.5,28.223383,0.194],
    [21291,"urn:WaterMeter:MC0203J22010600005","2024-05-21T16:15:00",22.5,28.140722,0.176],
    [21292,"urn:WaterMeter:MC0203J22010600005","2024-05-21T16:30:00",22.399,28.150808,0.199],
    [21293,"urn:WaterMeter:MC0203J22010600005","2024-05-21T16:45:00",22.399,28.031374,0.178],
    [21294,"urn:WaterMeter:MC0203J22010600005","2024-05-21T17:00:00",22.299,28.008488,0.177],
    [21295,"urn:WaterMeter:MC0203J22010600005","2024-05-21T17:15:00",22.299,27.991032,0.176],
    [21296,"urn:WaterMeter:MC0203J22010600005","2024-05-21T17:30:00",22.2,27.934399,0.176],
    [21297,"urn:WaterMeter:MC0203J22010600005","2024-05-21T17:45:00",22.2,27.87505,0.187],
    [21298,"urn:WaterMeter:MC0203J22010600005","2024-05-21T18:00:00",22.1,27.86768,0.181],
    [21299,"urn:WaterMeter:MC0203J22010600005","2024-05-21T18:15:00",22.1,27.848284,0.189],
    [21300,"urn:WaterMeter:MC0203J22010600005","2024-05-21T18:30:00",22,27.827726,0.179],
    [21301,"urn:WaterMeter:MC0203J22010600005","2024-05-21T18:45:00",21.899,27.781914,0.177],
    [21302,"urn:WaterMeter:MC0203J22010600005","2024-05-21T19:00:00",21.899,27.776134,0.182],
    [21303,"urn:WaterMeter:MC0203J22010600005","2024-05-21T19:15:00",21.799,27.745491,0.185],
    [21304,"urn:WaterMeter:MC0203J22010600005","2024-05-21T19:30:00",21.7,27.724117,0.192],
    [21305,"urn:WaterMeter:MC0203J22010600005","2024-05-21T19:45:00",21.7,27.666708,0.17],
    [21306,"urn:WaterMeter:MC0203J22010600005","2024-05-21T20:00:00",21.5,27.66248,0.174],
    [21307,"urn:WaterMeter:MC0203J22010600005","2024-05-21T20:15:00",21.5,27.697779,0.185],
    [21308,"urn:WaterMeter:MC0203J22010600005","2024-05-21T20:30:00",21.399,27.66632,0.177],
    [21309,"urn:WaterMeter:MC0203J22010600005","2024-05-21T20:45:00",21.299,27.663994,0.173],
    [21310,"urn:WaterMeter:MC0203J22010600005","2024-05-21T21:00:00",21.2,27.66632,0.179],
    [21311,"urn:WaterMeter:MC0203J22010600005","2024-05-21T21:15:00",21.1,27.604296,0.176],
    [21312,"urn:WaterMeter:MC0203J22010600005","2024-05-21T21:30:00",21,27.589128,0.183],
    [21313,"urn:WaterMeter:MC0203J22010600005","2024-05-21T21:45:00",20.899,27.636065,0.172],
    [21314,"urn:WaterMeter:MC0203J22010600005","2024-05-21T22:00:00",20.799,27.600803,0.182],
    [21315,"urn:WaterMeter:MC0203J22010600005","2024-05-21T22:15:00",20.7,27.57365,0.175],
    [21316,"urn:WaterMeter:MC0203J22010600005","2024-05-21T22:30:00",20.6,27.558872,0.175],
    [21317,"urn:WaterMeter:MC0203J22010600005","2024-05-21T22:45:00",20.5,27.578268,0.177],
    [21318,"urn:WaterMeter:MC0203J22010600005","2024-05-21T23:00:00",20.399,27.59964,0.176],
    [21319,"urn:WaterMeter:MC0203J22010600005","2024-05-21T23:15:00",20.299,27.572487,0.173],
    [21320,"urn:WaterMeter:MC0203J22010600005","2024-05-21T23:30:00",20.2,27.563953,0.181],
    [21321,"urn:WaterMeter:MC0203J22010600005","2024-05-21T23:45:00",20.1,27.56124,0.174],
    [21322,"urn:WaterMeter:MC0203J22010600005","2024-05-22T00:00:00",20,27.54223,0.187],
    [21323,"urn:WaterMeter:MC0203J22010600005","2024-05-22T00:15:00",19.899,27.567793,0.197],
    [21324,"urn:WaterMeter:MC0203J22010600005","2024-05-22T00:30:00",19.799,27.55736,0.18],
    [21325,"urn:WaterMeter:MC0203J22010600005","2024-05-22T00:45:00",19.799,27.572876,0.173],
    [21326,"urn:WaterMeter:MC0203J22010600005","2024-05-22T01:00:00",19.7,27.519693,0.183],
    [21327,"urn:WaterMeter:MC0203J22010600005","2024-05-22T01:15:00",19.7,27.532146,0.172],
    [21328,"urn:WaterMeter:MC0203J22010600005","2024-05-22T01:30:00",19.6,27.481293,0.177],
    [21329,"urn:WaterMeter:MC0203J22010600005","2024-05-22T01:45:00",19.6,27.524776,0.174],
    [21330,"urn:WaterMeter:MC0203J22010600005","2024-05-22T02:00:00",19.6,27.468918,0.181],
    [21331,"urn:WaterMeter:MC0203J22010600005","2024-05-22T02:15:00",19.5,27.44642,0.186],
    [21332,"urn:WaterMeter:MC0203J22010600005","2024-05-22T02:30:00",19.5,27.502665,0.178],
    [21333,"urn:WaterMeter:MC0203J22010600005","2024-05-22T02:45:00",19.5,27.421206,0.179],
    [21334,"urn:WaterMeter:MC0203J22010600005","2024-05-22T03:00:00",19.399,27.443666,0.174],
    [21335,"urn:WaterMeter:MC0203J22010600005","2024-05-22T03:15:00",19.299,27.406466,0.17],
    [21336,"urn:WaterMeter:MC0203J22010600005","2024-05-22T03:30:00",19.299,27.434395,0.174],
    [21337,"urn:WaterMeter:MC0203J22010600005","2024-05-22T03:45:00",19.2,27.413021,0.17],
    [21338,"urn:WaterMeter:MC0203J22010600005","2024-05-22T04:00:00",19.1,27.395178,0.173],
    [21339,"urn:WaterMeter:MC0203J22010600005","2024-05-22T04:15:00",19.1,27.433193,0.183],
    [21340,"urn:WaterMeter:MC0203J22010600005","2024-05-22T04:30:00",19,27.432804,0.167],
    [21341,"urn:WaterMeter:MC0203J22010600005","2024-05-22T04:45:00",18.899,27.376986,0.169],
    [21342,"urn:WaterMeter:MC0203J22010600005","2024-05-22T05:00:00",18.799,27.375008,0.174],
    [21343,"urn:WaterMeter:MC0203J22010600005","2024-05-22T05:15:00",18.7,27.399096,0.176],
    [21344,"urn:WaterMeter:MC0203J22010600005","2024-05-22T05:30:00",18.6,27.386295,0.165],
    [21345,"urn:WaterMeter:MC0203J22010600005","2024-05-22T05:45:00",18.6,27.367676,0.165],
    [21346,"urn:WaterMeter:MC0203J22010600005","2024-05-22T06:00:00",18.6,27.389399,0.17],
    [21347,"urn:WaterMeter:MC0203J22010600005","2024-05-22T06:15:00",18.7,27.379313,0.176],
    [21348,"urn:WaterMeter:MC0203J22010600005","2024-05-22T06:30:00",18.7,27.329273,0.167],
    [21349,"urn:WaterMeter:MC0203J22010600005","2024-05-22T06:45:00",18.799,27.300957,0.171],
    [21350,"urn:WaterMeter:MC0203J22010600005","2024-05-22T07:00:00",18.899,27.26333,0.177],
    [21351,"urn:WaterMeter:MC0203J22010600005","2024-05-22T07:15:00",19.1,27.236177,0.176],
    [21352,"urn:WaterMeter:MC0203J22010600005","2024-05-22T07:30:00",19.299,27.280787,0.171],
    [21353,"urn:WaterMeter:MC0203J22010600005","2024-05-22T07:45:00",19.399,27.20437,0.183],
    [21354,"urn:WaterMeter:MC0203J22010600005","2024-05-22T08:00:00",19.6,27.209373,0.166],
    [21355,"urn:WaterMeter:MC0203J22010600005","2024-05-22T08:15:00",19.7,27.326132,0.174],
    [21356,"urn:WaterMeter:MC0203J22010600005","2024-05-22T08:30:00",19.899,28.753256,0.205],
    [21357,"urn:WaterMeter:MC0203J22010600005","2024-05-22T08:45:00",20.1,30.58488,0.206],
    [21358,"urn:WaterMeter:MC0203J22010600005","2024-05-22T09:00:00",20.2,32.188496,0.237],
    [21359,"urn:WaterMeter:MC0203J22010600005","2024-05-22T09:15:00",20.399,32.46507,0.229],
    [21360,"urn:WaterMeter:MC0203J22010600005","2024-05-22T09:30:00",20.6,32.375076,0.217],
    [21361,"urn:WaterMeter:MC0203J22010600005","2024-05-22T09:45:00",20.799,32.197033,0.221],
    [21362,"urn:WaterMeter:MC0203J22010600005","2024-05-22T10:00:00",21,32.184578,0.223],
    [21363,"urn:WaterMeter:MC0203J22010600005","2024-05-22T10:15:00",21.2,32.07562,0.212],
    [21364,"urn:WaterMeter:MC0203J22010600005","2024-05-22T10:30:00",21.299,32.012,0.214],
    [21365,"urn:WaterMeter:MC0203J22010600005","2024-05-22T10:45:00",21.5,31.974764,0.216],
    [21366,"urn:WaterMeter:MC0203J22010600005","2024-05-22T11:00:00",21.7,31.895634,0.213],
    [21367,"urn:WaterMeter:MC0203J22010600005","2024-05-22T11:15:00",21.799,31.842878,0.211],
    [21368,"urn:WaterMeter:MC0203J22010600005","2024-05-22T11:30:00",21.899,31.76685,0.226],
    [21369,"urn:WaterMeter:MC0203J22010600005","2024-05-22T11:45:00",22.1,31.722242,0.209],
    [21370,"urn:WaterMeter:MC0203J22010600005","2024-05-22T12:00:00",22.2,31.653584,0.213],
    [21371,"urn:WaterMeter:MC0203J22010600005","2024-05-22T12:15:00",22.299,31.585701,0.21],
    [21372,"urn:WaterMeter:MC0203J22010600005","2024-05-22T12:30:00",22.399,31.497221,0.206],
    [21373,"urn:WaterMeter:MC0203J22010600005","2024-05-22T12:45:00",22.5,31.459246,0.209],
    [21374,"urn:WaterMeter:MC0203J22010600005","2024-05-22T13:00:00",22.6,31.410757,0.218],
    [21375,"urn:WaterMeter:MC0203J22010600005","2024-05-22T13:15:00",22.7,31.335505,0.207],
    [21376,"urn:WaterMeter:MC0203J22010600005","2024-05-22T13:30:00",22.799,31.214441,0.208],
    [21377,"urn:WaterMeter:MC0203J22010600005","2024-05-22T13:45:00",22.899,31.187716,0.216],
    [21378,"urn:WaterMeter:MC0203J22010600005","2024-05-22T14:00:00",23,31.117466,0.209],
    [21379,"urn:WaterMeter:MC0203J22010600005","2024-05-22T14:15:00",23,31.06514,0.222],
    [21380,"urn:WaterMeter:MC0203J22010600005","2024-05-22T14:30:00",23,31.018553,0.21],
    [21381,"urn:WaterMeter:MC0203J22010600005","2024-05-22T14:45:00",23,30.937908,0.201],
    [21382,"urn:WaterMeter:MC0203J22010600005","2024-05-22T15:00:00",23,30.897179,0.21],
    [21383,"urn:WaterMeter:MC0203J22010600005","2024-05-22T15:15:00",23,30.885502,0.208],
    [21384,"urn:WaterMeter:MC0203J22010600005","2024-05-22T15:30:00",23,30.77499,0.213],
    [21385,"urn:WaterMeter:MC0203J22010600005","2024-05-22T15:45:00",23,30.721033,0.211],
    [21386,"urn:WaterMeter:MC0203J22010600005","2024-05-22T16:00:00",23,30.687712,0.205],
    [21387,"urn:WaterMeter:MC0203J22010600005","2024-05-22T16:15:00",22.899,30.666378,0.203],
    [21388,"urn:WaterMeter:MC0203J22010600005","2024-05-22T16:30:00",22.899,30.646982,0.205],
    [21389,"urn:WaterMeter:MC0203J22010600005","2024-05-22T16:45:00",22.799,30.563972,0.206],
    [21390,"urn:WaterMeter:MC0203J22010600005","2024-05-22T17:00:00",22.799,30.521303,0.197],
    [21391,"urn:WaterMeter:MC0203J22010600005","2024-05-22T17:15:00",22.7,30.509666,0.204],
    [21392,"urn:WaterMeter:MC0203J22010600005","2024-05-22T17:30:00",22.7,30.46622,0.202],
    [21393,"urn:WaterMeter:MC0203J22010600005","2024-05-22T17:45:00",22.6,30.40183,0.207],
    [21394,"urn:WaterMeter:MC0203J22010600005","2024-05-22T18:00:00",22.5,30.388641,0.195],
    [21395,"urn:WaterMeter:MC0203J22010600005","2024-05-22T18:15:00",22.5,30.376228,0.199],
    [21396,"urn:WaterMeter:MC0203J22010600005","2024-05-22T18:30:00",22.399,30.354118,0.211],
    [21397,"urn:WaterMeter:MC0203J22010600005","2024-05-22T18:45:00",22.299,30.296322,0.204],
    [21398,"urn:WaterMeter:MC0203J22010600005","2024-05-22T19:00:00",22.2,30.319208,0.209],
    [21399,"urn:WaterMeter:MC0203J22010600005","2024-05-22T19:15:00",22.1,30.269169,0.199],
    [21400,"urn:WaterMeter:MC0203J22010600005","2024-05-22T19:30:00",22,30.265638,0.203],
    [21401,"urn:WaterMeter:MC0203J22010600005","2024-05-22T19:45:00",21.899,30.24124,0.196],
    [21402,"urn:WaterMeter:MC0203J22010600005","2024-05-22T20:00:00",21.799,30.205513,0.202],
    [21403,"urn:WaterMeter:MC0203J22010600005","2024-05-22T20:15:00",21.799,30.201286,0.207],
    [21404,"urn:WaterMeter:MC0203J22010600005","2024-05-22T20:30:00",21.7,30.18189,0.203],
    [21405,"urn:WaterMeter:MC0203J22010600005","2024-05-22T20:45:00",21.7,30.179176,0.206],
    [21406,"urn:WaterMeter:MC0203J22010600005","2024-05-22T21:00:00",21.6,30.148104,0.206],
    [21407,"urn:WaterMeter:MC0203J22010600005","2024-05-22T21:15:00",21.5,30.166723,0.198],
    [21408,"urn:WaterMeter:MC0203J22010600005","2024-05-22T21:30:00",21.399,30.14733,0.212],
    [21409,"urn:WaterMeter:MC0203J22010600005","2024-05-22T21:45:00",21.299,30.134567,0.213],
    [21410,"urn:WaterMeter:MC0203J22010600005","2024-05-22T22:00:00",21.2,30.108927,0.205],
    [21411,"urn:WaterMeter:MC0203J22010600005","2024-05-22T22:15:00",21.1,30.124094,0.201],
    [21412,"urn:WaterMeter:MC0203J22010600005","2024-05-22T22:30:00",21,30.138407,0.2],
    [21413,"urn:WaterMeter:MC0203J22010600005","2024-05-22T22:45:00",20.799,30.115948,0.196],
    [21414,"urn:WaterMeter:MC0203J22010600005","2024-05-22T23:00:00",20.7,30.086079,0.206],
    [21415,"urn:WaterMeter:MC0203J22010600005","2024-05-22T23:15:00",20.6,30.10625,0.216],
    [21416,"urn:WaterMeter:MC0203J22010600005","2024-05-22T23:30:00",20.5,30.096552,0.215],
    [21417,"urn:WaterMeter:MC0203J22010600005","2024-05-22T23:45:00",20.399,30.090307,0.205],
    [21418,"urn:WaterMeter:MC0203J22010600005","2024-05-23T00:00:00",20.299,30.078709,0.207],
    [21419,"urn:WaterMeter:MC0203J22010600005","2024-05-23T00:15:00",20.299,30.030958,0.209],
    [21420,"urn:WaterMeter:MC0203J22010600005","2024-05-23T00:30:00",20.2,30.018196,0.204],
    [21421,"urn:WaterMeter:MC0203J22010600005","2024-05-23T00:45:00",20.1,30.04182,0.196],
    [21422,"urn:WaterMeter:MC0203J22010600005","2024-05-23T01:00:00",20,30.056988,0.2],
    [21423,"urn:WaterMeter:MC0203J22010600005","2024-05-23T01:15:00",20,30.032122,0.203],
    [21424,"urn:WaterMeter:MC0203J22010600005","2024-05-23T01:30:00",19.899,30.039532,0.197],
    [21425,"urn:WaterMeter:MC0203J22010600005","2024-05-23T01:45:00",19.799,30.020525,0.208],
    [21426,"urn:WaterMeter:MC0203J22010600005","2024-05-23T02:00:00",19.7,30.005785,0.204],
    [21427,"urn:WaterMeter:MC0203J22010600005","2024-05-23T02:15:00",19.6,30.035652,0.209],
    [21428,"urn:WaterMeter:MC0203J22010600005","2024-05-23T02:30:00",19.6,30.048065,0.197],
    [21429,"urn:WaterMeter:MC0203J22010600005","2024-05-23T02:45:00",19.5,30.024792,0.193],
    [21430,"urn:WaterMeter:MC0203J22010600005","2024-05-23T03:00:00",19.5,29.979795,0.199],
    [21431,"urn:WaterMeter:MC0203J22010600005","2024-05-23T03:15:00",19.399,29.961563,0.202],
    [21432,"urn:WaterMeter:MC0203J22010600005","2024-05-23T03:30:00",19.299,30.011175,0.197],
    [21433,"urn:WaterMeter:MC0203J22010600005","2024-05-23T03:45:00",19.299,30.00303,0.194],
    [21434,"urn:WaterMeter:MC0203J22010600005","2024-05-23T04:00:00",19.2,29.952602,0.192],
    [21435,"urn:WaterMeter:MC0203J22010600005","2024-05-23T04:15:00",19.2,29.9604,0.195],
    [21436,"urn:WaterMeter:MC0203J22010600005","2024-05-23T04:30:00",19.1,29.993721,0.195],
    [21437,"urn:WaterMeter:MC0203J22010600005","2024-05-23T04:45:00",19,29.968933,0.209],
    [21438,"urn:WaterMeter:MC0203J22010600005","2024-05-23T05:00:00",18.899,29.9476,0.201],
    [21439,"urn:WaterMeter:MC0203J22010600005","2024-05-23T05:15:00",18.899,29.94721,0.208],
    [21440,"urn:WaterMeter:MC0203J22010600005","2024-05-23T05:30:00",18.799,29.921223,0.204],
    [21441,"urn:WaterMeter:MC0203J22010600005","2024-05-23T05:45:00",18.799,29.967382,0.195],
    [21442,"urn:WaterMeter:MC0203J22010600005","2024-05-23T06:00:00",18.799,29.923937,0.19],
    [21443,"urn:WaterMeter:MC0203J22010600005","2024-05-23T06:15:00",18.799,29.907646,0.192],
    [21444,"urn:WaterMeter:MC0203J22010600005","2024-05-23T06:30:00",18.799,29.92161,0.2],
    [21445,"urn:WaterMeter:MC0203J22010600005","2024-05-23T06:45:00",19,29.9123,0.197],
    [21446,"urn:WaterMeter:MC0203J22010600005","2024-05-23T07:00:00",19.2,30.018196,0.2],
    [21447,"urn:WaterMeter:MC0203J22010600005","2024-05-23T07:15:00",19.299,30.663237,0.221],
    [21448,"urn:WaterMeter:MC0203J22010600005","2024-05-23T07:30:00",19.399,31.848309,0.222],
    [21449,"urn:WaterMeter:MC0203J22010600005","2024-05-23T07:45:00",19.6,32.858788,0.233],
    [21450,"urn:WaterMeter:MC0203J22010600005","2024-05-23T08:00:00",19.7,33.557396,0.235],
    [21451,"urn:WaterMeter:MC0203J22010600005","2024-05-23T08:15:00",19.799,34.080673,0.243],
    [21452,"urn:WaterMeter:MC0203J22010600005","2024-05-23T08:30:00",19.899,34.419697,0.241],
    [21453,"urn:WaterMeter:MC0203J22010600005","2024-05-23T08:45:00",20,34.690453,0.246],
    [21454,"urn:WaterMeter:MC0203J22010600005","2024-05-23T09:00:00",20.2,34.892937,0.247],
    [21455,"urn:WaterMeter:MC0203J22010600005","2024-05-23T09:15:00",20.299,35.039173,0.262],
    [21456,"urn:WaterMeter:MC0203J22010600005","2024-05-23T09:30:00",20.399,35.081066,0.253],
    [21457,"urn:WaterMeter:MC0203J22010600005","2024-05-23T09:45:00",20.5,35.201664,0.262],
    [21458,"urn:WaterMeter:MC0203J22010600005","2024-05-23T10:00:00",20.6,35.28778,0.247],
    [21459,"urn:WaterMeter:MC0203J22010600005","2024-05-23T10:15:00",20.7,35.323505,0.259],
    [21460,"urn:WaterMeter:MC0203J22010600005","2024-05-23T10:30:00",20.799,35.347942,0.252],
    [21461,"urn:WaterMeter:MC0203J22010600005","2024-05-23T10:45:00",20.899,35.43716,0.266],
    [21462,"urn:WaterMeter:MC0203J22010600005","2024-05-23T11:00:00",21,35.4391,0.25],
    [21463,"urn:WaterMeter:MC0203J22010600005","2024-05-23T11:15:00",21.2,35.48565,0.267],
    [21464,"urn:WaterMeter:MC0203J22010600005","2024-05-23T11:30:00",21.299,35.46703,0.25],
    [21465,"urn:WaterMeter:MC0203J22010600005","2024-05-23T11:45:00",21.399,35.56672,0.252],
    [21466,"urn:WaterMeter:MC0203J22010600005","2024-05-23T12:00:00",21.5,35.512802,0.26],
    [21467,"urn:WaterMeter:MC0203J22010600005","2024-05-23T12:15:00",21.6,35.604343,0.258],
    [21468,"urn:WaterMeter:MC0203J22010600005","2024-05-23T12:30:00",21.7,35.584175,0.267],
    [21469,"urn:WaterMeter:MC0203J22010600005","2024-05-23T12:45:00",21.799,35.57564,0.269],
    [21470,"urn:WaterMeter:MC0203J22010600005","2024-05-23T13:00:00",22,35.571373,0.277],
    [21471,"urn:WaterMeter:MC0203J22010600005","2024-05-23T13:15:00",22.1,35.61827,0.277],
    [21472,"urn:WaterMeter:MC0203J22010600005","2024-05-23T13:30:00",22.1,35.61788,0.263],
    [21473,"urn:WaterMeter:MC0203J22010600005","2024-05-23T13:45:00",22.1,35.63111,0.266],
    [21474,"urn:WaterMeter:MC0203J22010600005","2024-05-23T14:00:00",22.1,35.70132,0.265],
    [21475,"urn:WaterMeter:MC0203J22010600005","2024-05-23T14:15:00",22.1,35.66447,0.258],
    [21476,"urn:WaterMeter:MC0203J22010600005","2024-05-23T14:30:00",22.1,35.65706,0.257],
    [21477,"urn:WaterMeter:MC0203J22010600005","2024-05-23T14:45:00",22.1,35.702873,0.263],
    [21478,"urn:WaterMeter:MC0203J22010600005","2024-05-23T15:00:00",22.1,35.746315,0.259],
    [21479,"urn:WaterMeter:MC0203J22010600005","2024-05-23T15:15:00",22,35.726532,0.26],
    [21480,"urn:WaterMeter:MC0203J22010600005","2024-05-23T15:30:00",22,35.79364,0.272],
    [21481,"urn:WaterMeter:MC0203J22010600005","2024-05-23T15:45:00",22,35.718777,0.271],
    [21482,"urn:WaterMeter:MC0203J22010600005","2024-05-23T16:00:00",22,35.788597,0.26],
    [21483,"urn:WaterMeter:MC0203J22010600005","2024-05-23T16:15:00",21.899,35.81067,0.263],
    [21484,"urn:WaterMeter:MC0203J22010600005","2024-05-23T16:30:00",21.899,35.794415,0.279],
    [21485,"urn:WaterMeter:MC0203J22010600005","2024-05-23T16:45:00",21.799,35.83864,0.258],
    [21486,"urn:WaterMeter:MC0203J22010600005","2024-05-23T17:00:00",21.7,35.891777,0.27],
    [21487,"urn:WaterMeter:MC0203J22010600005","2024-05-23T17:15:00",21.7,35.888638,0.276],
    [21488,"urn:WaterMeter:MC0203J22010600005","2024-05-23T17:30:00",21.6,35.907642,0.262],
    [21489,"urn:WaterMeter:MC0203J22010600005","2024-05-23T17:45:00",21.6,35.923588,0.262],
    [21490,"urn:WaterMeter:MC0203J22010600005","2024-05-23T18:00:00",21.5,35.95268,0.264],
    [21491,"urn:WaterMeter:MC0203J22010600005","2024-05-23T18:15:00",21.399,35.93018,0.296],
    [21492,"urn:WaterMeter:MC0203J22010600005","2024-05-23T18:30:00",21.399,35.94527,0.279],
    [21493,"urn:WaterMeter:MC0203J22010600005","2024-05-23T18:45:00",21.299,35.966606,0.266],
    [21494,"urn:WaterMeter:MC0203J22010600005","2024-05-23T19:00:00",21.299,35.99496,0.275],
    [21495,"urn:WaterMeter:MC0203J22010600005","2024-05-23T19:15:00",21.2,36.02638,0.263],
    [21496,"urn:WaterMeter:MC0203J22010600005","2024-05-23T19:30:00",21.2,35.989918,0.268],
    [21497,"urn:WaterMeter:MC0203J22010600005","2024-05-23T19:45:00",21.1,35.996086,0.28],
    [21498,"urn:WaterMeter:MC0203J22010600005","2024-05-23T20:00:00",21.1,36.0803,0.281],
    [21499,"urn:WaterMeter:MC0203J22010600005","2024-05-23T20:15:00",21,36.019787,0.284],
    [21500,"urn:WaterMeter:MC0203J22010600005","2024-05-23T20:30:00",20.899,36.073277,0.27],
    [21501,"urn:WaterMeter:MC0203J22010600005","2024-05-23T20:45:00",20.899,36.09814,0.27],
    [21502,"urn:WaterMeter:MC0203J22010600005","2024-05-23T21:00:00",20.799,36.14275,0.264],
    [21503,"urn:WaterMeter:MC0203J22010600005","2024-05-23T21:15:00",20.799,36.11715,0.28],
    [21504,"urn:WaterMeter:MC0203J22010600005","2024-05-23T21:30:00",20.799,36.08922,0.275],
    [21505,"urn:WaterMeter:MC0203J22010600005","2024-05-23T21:45:00",20.7,36.11676,0.264],
    [21506,"urn:WaterMeter:MC0203J22010600005","2024-05-23T22:00:00",20.7,36.158615,0.285],
    [21507,"urn:WaterMeter:MC0203J22010600005","2024-05-23T22:15:00",20.6,36.101208,0.29],
    [21508,"urn:WaterMeter:MC0203J22010600005","2024-05-23T22:30:00",20.5,36.154774,0.269],
    [21509,"urn:WaterMeter:MC0203J22010600005","2024-05-23T22:45:00",20.5,36.214123,0.277],
    [21510,"urn:WaterMeter:MC0203J22010600005","2024-05-23T23:00:00",20.399,36.226536,0.267],
    [21511,"urn:WaterMeter:MC0203J22010600005","2024-05-23T23:15:00",20.299,36.180336,0.276],
    [21512,"urn:WaterMeter:MC0203J22010600005","2024-05-23T23:30:00",20.2,36.225372,0.264],
    [21513,"urn:WaterMeter:MC0203J22010600005","2024-05-23T23:45:00",20.2,36.17995,0.283],
    [21514,"urn:WaterMeter:MC0203J22010600005","2024-05-24T00:00:00",20.1,36.20943,0.272],
    [21515,"urn:WaterMeter:MC0203J22010600005","2024-05-24T00:15:00",20,36.223045,0.278],
    [21516,"urn:WaterMeter:MC0203J22010600005","2024-05-24T00:30:00",19.899,36.25792,0.274],
    [21517,"urn:WaterMeter:MC0203J22010600005","2024-05-24T00:45:00",19.799,36.228436,0.267],
    [21518,"urn:WaterMeter:MC0203J22010600005","2024-05-24T01:00:00",19.799,36.245544,0.285],
    [21519,"urn:WaterMeter:MC0203J22010600005","2024-05-24T01:15:00",19.7,36.25912,0.272],
    [21520,"urn:WaterMeter:MC0203J22010600005","2024-05-24T01:30:00",19.6,36.283947,0.275],
    [21521,"urn:WaterMeter:MC0203J22010600005","2024-05-24T01:45:00",19.5,36.308384,0.28],
    [21522,"urn:WaterMeter:MC0203J22010600005","2024-05-24T02:00:00",19.5,36.27192,0.275],
    [21523,"urn:WaterMeter:MC0203J22010600005","2024-05-24T02:15:00",19.399,36.36579,0.276],
    [21524,"urn:WaterMeter:MC0203J22010600005","2024-05-24T02:30:00",19.299,36.298298,0.268],
    [21525,"urn:WaterMeter:MC0203J22010600005","2024-05-24T02:45:00",19.2,36.33472,0.272],
    [21526,"urn:WaterMeter:MC0203J22010600005","2024-05-24T03:00:00",19.2,36.37549,0.275],
    [21527,"urn:WaterMeter:MC0203J22010600005","2024-05-24T03:15:00",19.1,36.324287,0.28],
    [21528,"urn:WaterMeter:MC0203J22010600005","2024-05-24T03:30:00",19.1,36.337864,0.265],
    [21529,"urn:WaterMeter:MC0203J22010600005","2024-05-24T03:45:00",19,36.317307,0.278],
    [21530,"urn:WaterMeter:MC0203J22010600005","2024-05-24T04:00:00",19,36.306793,0.27],
    [21531,"urn:WaterMeter:MC0203J22010600005","2024-05-24T04:15:00",18.899,36.328552,0.286],
    [21532,"urn:WaterMeter:MC0203J22010600005","2024-05-24T04:30:00",18.799,36.356094,0.292],
    [21533,"urn:WaterMeter:MC0203J22010600005","2024-05-24T04:45:00",18.7,36.35528,0.271],
    [21534,"urn:WaterMeter:MC0203J22010600005","2024-05-24T05:00:00",18.6,36.349113,0.285],
    [21535,"urn:WaterMeter:MC0203J22010600005","2024-05-24T05:15:00",18.6,36.411915,0.267],
    [21536,"urn:WaterMeter:MC0203J22010600005","2024-05-24T05:30:00",18.5,36.41777,0.266],
    [21537,"urn:WaterMeter:MC0203J22010600005","2024-05-24T05:45:00",18.5,36.38053,0.28],
    [21538,"urn:WaterMeter:MC0203J22010600005","2024-05-24T06:00:00",18.399,36.401478,0.267],
    [21539,"urn:WaterMeter:MC0203J22010600005","2024-05-24T06:15:00",18.399,36.41467,0.274],
    [21540,"urn:WaterMeter:MC0203J22010600005","2024-05-24T06:30:00",18.399,36.36657,0.275],
    [21541,"urn:WaterMeter:MC0203J22010600005","2024-05-24T06:45:00",18.399,36.41855,0.28],
    [21542,"urn:WaterMeter:MC0203J22010600005","2024-05-24T07:00:00",18.5,36.437943,0.266],
    [21543,"urn:WaterMeter:MC0203J22010600005","2024-05-24T07:15:00",18.6,36.358036,0.265],
    [21544,"urn:WaterMeter:MC0203J22010600005","2024-05-24T07:30:00",18.7,36.397213,0.278],
    [21545,"urn:WaterMeter:MC0203J22010600005","2024-05-24T07:45:00",18.799,36.402992,0.286],
    [21546,"urn:WaterMeter:MC0203J22010600005","2024-05-24T08:00:00",19,36.361137,0.269],
    [21547,"urn:WaterMeter:MC0203J22010600005","2024-05-24T08:15:00",19.2,36.35334,0.289],
    [21548,"urn:WaterMeter:MC0203J22010600005","2024-05-24T08:30:00",19.299,36.27386,0.271],
    [21549,"urn:WaterMeter:MC0203J22010600005","2024-05-24T08:45:00",19.399,36.337475,0.278],
    [21550,"urn:WaterMeter:MC0203J22010600005","2024-05-24T09:00:00",19.5,36.271145,0.265],
    [21551,"urn:WaterMeter:MC0203J22010600005","2024-05-24T09:15:00",19.7,35.788597,0.255],
    [21552,"urn:WaterMeter:MC0203J22010600005","2024-05-24T09:30:00",19.899,35.398758,0.272],
    [21553,"urn:WaterMeter:MC0203J22010600005","2024-05-24T09:45:00",20,34.553913,0.254],
    [21554,"urn:WaterMeter:MC0203J22010600005","2024-05-24T10:00:00",20.1,34.375828,0.267],
    [21555,"urn:WaterMeter:MC0203J22010600005","2024-05-24T10:15:00",20.299,34.16834,0.26],
    [21556,"urn:WaterMeter:MC0203J22010600005","2024-05-24T10:30:00",20.399,34.025166,0.259],
    [21557,"urn:WaterMeter:MC0203J22010600005","2024-05-24T10:45:00",20.6,33.927803,0.248],
    [21558,"urn:WaterMeter:MC0203J22010600005","2024-05-24T11:00:00",20.7,33.77811,0.255],
    [21559,"urn:WaterMeter:MC0203J22010600005","2024-05-24T11:15:00",20.799,33.61981,0.239],
    [21560,"urn:WaterMeter:MC0203J22010600005","2024-05-24T11:30:00",20.799,33.50503,0.255],
    [21561,"urn:WaterMeter:MC0203J22010600005","2024-05-24T11:45:00",20.899,33.360344,0.238],
    [21562,"urn:WaterMeter:MC0203J22010600005","2024-05-24T12:00:00",21,33.25949,0.238],
    [21563,"urn:WaterMeter:MC0203J22010600005","2024-05-24T12:15:00",21.1,33.19351,0.236],
    [21564,"urn:WaterMeter:MC0203J22010600005","2024-05-24T12:30:00",21.2,33.112476,0.247],
    [21565,"urn:WaterMeter:MC0203J22010600005","2024-05-24T12:45:00",21.299,32.979774,0.244],
    [21566,"urn:WaterMeter:MC0203J22010600005","2024-05-24T13:00:00",21.399,32.92159,0.26],
    [21567,"urn:WaterMeter:MC0203J22010600005","2024-05-24T13:15:00",21.399,32.837456,0.238],
    [21568,"urn:WaterMeter:MC0203J22010600005","2024-05-24T13:30:00",21.399,32.727253,0.231],
    [21569,"urn:WaterMeter:MC0203J22010600005","2024-05-24T13:45:00",21.5,32.629112,0.235],
    [21570,"urn:WaterMeter:MC0203J22010600005","2024-05-24T14:00:00",21.6,32.582565,0.235],
    [21571,"urn:WaterMeter:MC0203J22010600005","2024-05-24T14:15:00",21.6,32.43749,0.227],
    [21572,"urn:WaterMeter:MC0203J22010600005","2024-05-24T14:30:00",21.6,32.369606,0.228],
    [21573,"urn:WaterMeter:MC0203J22010600005","2024-05-24T14:45:00",21.7,32.34133,0.226],
    [21574,"urn:WaterMeter:MC0203J22010600005","2024-05-24T15:00:00",21.7,32.242764,0.214],
    [21575,"urn:WaterMeter:MC0203J22010600005","2024-05-24T15:15:00",21.799,32.14579,0.227],
    [21576,"urn:WaterMeter:MC0203J22010600005","2024-05-24T15:30:00",21.799,32.139233,0.223],
    [21577,"urn:WaterMeter:MC0203J22010600005","2024-05-24T15:45:00",21.799,32.088768,0.221],
    [21578,"urn:WaterMeter:MC0203J22010600005","2024-05-24T16:00:00",21.799,31.969683,0.242],
    [21579,"urn:WaterMeter:MC0203J22010600005","2024-05-24T16:15:00",21.799,31.921621,0.222],
    [21580,"urn:WaterMeter:MC0203J22010600005","2024-05-24T16:30:00",21.799,31.863438,0.223],
    [21581,"urn:WaterMeter:MC0203J22010600005","2024-05-24T16:45:00",21.799,31.87232,0.226],
    [21582,"urn:WaterMeter:MC0203J22010600005","2024-05-24T17:00:00",21.799,31.809519,0.227],
    [21583,"urn:WaterMeter:MC0203J22010600005","2024-05-24T17:15:00",21.799,31.771893,0.226],
    [21584,"urn:WaterMeter:MC0203J22010600005","2024-05-24T17:30:00",21.7,31.705563,0.223],
    [21585,"urn:WaterMeter:MC0203J22010600005","2024-05-24T17:45:00",21.6,31.674143,0.221],
    [21586,"urn:WaterMeter:MC0203J22010600005","2024-05-24T18:00:00",21.6,31.668324,0.222],
    [21587,"urn:WaterMeter:MC0203J22010600005","2024-05-24T18:15:00",21.5,31.63768,0.237],
    [21588,"urn:WaterMeter:MC0203J22010600005","2024-05-24T18:30:00",21.399,31.600054,0.219],
    [21589,"urn:WaterMeter:MC0203J22010600005","2024-05-24T18:45:00",21.299,31.63221,0.219],
    [21590,"urn:WaterMeter:MC0203J22010600005","2024-05-24T19:00:00",21.299,31.560488,0.22],
    [21591,"urn:WaterMeter:MC0203J22010600005","2024-05-24T19:15:00",21.2,31.546911,0.232],
    [21592,"urn:WaterMeter:MC0203J22010600005","2024-05-24T19:30:00",21.1,31.542994,0.218],
    [21593,"urn:WaterMeter:MC0203J22010600005","2024-05-24T19:45:00",21,31.527515,0.228],
    [21594,"urn:WaterMeter:MC0203J22010600005","2024-05-24T20:00:00",21,31.517431,0.214],
    [21595,"urn:WaterMeter:MC0203J22010600005","2024-05-24T20:15:00",20.899,31.469332,0.216],
    [21596,"urn:WaterMeter:MC0203J22010600005","2024-05-24T20:30:00",20.899,31.440239,0.219],
    [21597,"urn:WaterMeter:MC0203J22010600005","2024-05-24T20:45:00",20.799,31.493769,0.216],
    [21598,"urn:WaterMeter:MC0203J22010600005","2024-05-24T21:00:00",20.799,31.43826,0.221],
    [21599,"urn:WaterMeter:MC0203J22010600005","2024-05-24T21:15:00",20.7,31.482132,0.224],
    [21600,"urn:WaterMeter:MC0203J22010600005","2024-05-24T21:30:00",20.7,31.48252,0.222],
    [21601,"urn:WaterMeter:MC0203J22010600005","2024-05-24T21:45:00",20.6,31.44373,0.215],
    [21602,"urn:WaterMeter:MC0203J22010600005","2024-05-24T22:00:00",20.6,31.465412,0.219],
    [21603,"urn:WaterMeter:MC0203J22010600005","2024-05-24T22:15:00",20.5,31.434032,0.217],
    [21604,"urn:WaterMeter:MC0203J22010600005","2024-05-24T22:30:00",20.399,31.429766,0.22],
    [21605,"urn:WaterMeter:MC0203J22010600005","2024-05-24T22:45:00",20.399,31.415026,0.217],
    [21606,"urn:WaterMeter:MC0203J22010600005","2024-05-24T23:00:00",20.299,31.415413,0.219],
    [21607,"urn:WaterMeter:MC0203J22010600005","2024-05-24T23:15:00",20.2,31.385544,0.209],
    [21608,"urn:WaterMeter:MC0203J22010600005","2024-05-24T23:30:00",20.1,31.389772,0.229],
    [21609,"urn:WaterMeter:MC0203J22010600005","2024-05-24T23:45:00",20,31.37895,0.219],
    [21610,"urn:WaterMeter:MC0203J22010600005","2024-05-25T00:00:00",20,31.356451,0.218],
    [21611,"urn:WaterMeter:MC0203J22010600005","2024-05-25T00:15:00",19.899,31.381277,0.215],
    [21612,"urn:WaterMeter:MC0203J22010600005","2024-05-25T00:30:00",19.799,31.37313,0.216],
    [21613,"urn:WaterMeter:MC0203J22010600005","2024-05-25T00:45:00",19.799,31.394466,0.216],
    [21614,"urn:WaterMeter:MC0203J22010600005","2024-05-25T01:00:00",19.7,31.382053,0.227],
    [21615,"urn:WaterMeter:MC0203J22010600005","2024-05-25T01:15:00",19.6,31.406103,0.231],
    [21616,"urn:WaterMeter:MC0203J22010600005","2024-05-25T01:30:00",19.5,31.371967,0.22],
    [21617,"urn:WaterMeter:MC0203J22010600005","2024-05-25T01:45:00",19.5,31.359903,0.215],
    [21618,"urn:WaterMeter:MC0203J22010600005","2024-05-25T02:00:00",19.399,31.359167,0.218],
    [21619,"urn:WaterMeter:MC0203J22010600005","2024-05-25T02:15:00",19.299,31.366924,0.223],
    [21620,"urn:WaterMeter:MC0203J22010600005","2024-05-25T02:30:00",19.299,31.314947,0.225],
    [21621,"urn:WaterMeter:MC0203J22010600005","2024-05-25T02:45:00",19.2,31.31417,0.22],
    [21622,"urn:WaterMeter:MC0203J22010600005","2024-05-25T03:00:00",19.1,31.344814,0.223],
    [21623,"urn:WaterMeter:MC0203J22010600005","2024-05-25T03:15:00",19,31.356064,0.224],
    [21624,"urn:WaterMeter:MC0203J22010600005","2024-05-25T03:30:00",19,31.33279,0.23],
    [21625,"urn:WaterMeter:MC0203J22010600005","2024-05-25T03:45:00",18.899,31.307188,0.215],
    [21626,"urn:WaterMeter:MC0203J22010600005","2024-05-25T04:00:00",18.899,31.32189,0.208],
    [21627,"urn:WaterMeter:MC0203J22010600005","2024-05-25T04:15:00",18.799,31.293573,0.212],
    [21628,"urn:WaterMeter:MC0203J22010600005","2024-05-25T04:30:00",18.799,31.280035,0.214],
    [21629,"urn:WaterMeter:MC0203J22010600005","2024-05-25T04:45:00",18.7,31.263704,0.21],
    [21630,"urn:WaterMeter:MC0203J22010600005","2024-05-25T05:00:00",18.7,31.282324,0.217],
    [21631,"urn:WaterMeter:MC0203J22010600005","2024-05-25T05:15:00",18.6,31.257538,0.21],
    [21632,"urn:WaterMeter:MC0203J22010600005","2024-05-25T05:30:00",18.6,31.259865,0.226],
    [21633,"urn:WaterMeter:MC0203J22010600005","2024-05-25T05:45:00",18.6,31.239305,0.219],
    [21634,"urn:WaterMeter:MC0203J22010600005","2024-05-25T06:00:00",18.6,31.249392,0.22],
    [21635,"urn:WaterMeter:MC0203J22010600005","2024-05-25T06:15:00",18.6,31.239695,0.211],
    [21636,"urn:WaterMeter:MC0203J22010600005","2024-05-25T06:30:00",18.6,31.246288,0.215],
    [21637,"urn:WaterMeter:MC0203J22010600005","2024-05-25T06:45:00",18.7,31.179958,0.21],
    [21638,"urn:WaterMeter:MC0203J22010600005","2024-05-25T07:00:00",18.799,31.189266,0.204],
    [21639,"urn:WaterMeter:MC0203J22010600005","2024-05-25T07:15:00",18.899,31.176428,0.215],
    [21640,"urn:WaterMeter:MC0203J22010600005","2024-05-25T07:30:00",19,31.14427,0.209],
    [21641,"urn:WaterMeter:MC0203J22010600005","2024-05-25T07:45:00",19.2,31.091127,0.224],
    [21642,"urn:WaterMeter:MC0203J22010600005","2024-05-25T08:00:00",19.399,31.098848,0.211],
    [21643,"urn:WaterMeter:MC0203J22010600005","2024-05-25T08:15:00",19.5,31.044193,0.206],
    [21644,"urn:WaterMeter:MC0203J22010600005","2024-05-25T08:30:00",19.7,30.970879,0.196],
    [21645,"urn:WaterMeter:MC0203J22010600005","2024-05-25T08:45:00",19.799,30.967775,0.203],
    [21646,"urn:WaterMeter:MC0203J22010600005","2024-05-25T09:00:00",20,30.908428,0.208],
    [21647,"urn:WaterMeter:MC0203J22010600005","2024-05-25T09:15:00",20.2,30.829683,0.226],
    [21648,"urn:WaterMeter:MC0203J22010600005","2024-05-25T09:30:00",20.399,30.816107,0.218],
    [21649,"urn:WaterMeter:MC0203J22010600005","2024-05-25T09:45:00",20.6,30.768745,0.215],
    [21650,"urn:WaterMeter:MC0203J22010600005","2024-05-25T10:00:00",20.799,30.730343,0.204],
    [21651,"urn:WaterMeter:MC0203J22010600005","2024-05-25T10:15:00",21,30.6272,0.223],
    [21652,"urn:WaterMeter:MC0203J22010600005","2024-05-25T10:30:00",21.1,30.607805,0.207],
    [21653,"urn:WaterMeter:MC0203J22010600005","2024-05-25T10:45:00",21.399,30.564709,0.2],
    [21654,"urn:WaterMeter:MC0203J22010600005","2024-05-25T11:00:00",21.5,30.49415,0.202],
    [21655,"urn:WaterMeter:MC0203J22010600005","2024-05-25T11:15:00",21.7,30.440193,0.211],
    [21656,"urn:WaterMeter:MC0203J22010600005","2024-05-25T11:30:00",21.799,30.385925,0.21],
    [21657,"urn:WaterMeter:MC0203J22010600005","2024-05-25T11:45:00",21.899,30.330069,0.198],
    [21658,"urn:WaterMeter:MC0203J22010600005","2024-05-25T12:00:00",22.1,30.269556,0.196],
    [21659,"urn:WaterMeter:MC0203J22010600005","2024-05-25T12:15:00",22.2,30.193916,0.198],
    [21660,"urn:WaterMeter:MC0203J22010600005","2024-05-25T12:30:00",22.399,30.119013,0.196],
    [21661,"urn:WaterMeter:MC0203J22010600005","2024-05-25T12:45:00",22.5,30.092285,0.198],
    [21662,"urn:WaterMeter:MC0203J22010600005","2024-05-25T13:00:00",22.6,30.005785,0.194],
    [21663,"urn:WaterMeter:MC0203J22010600005","2024-05-25T13:15:00",22.799,29.968546,0.202],
    [21664,"urn:WaterMeter:MC0203J22010600005","2024-05-25T13:30:00",22.899,29.8514,0.196],
    [21665,"urn:WaterMeter:MC0203J22010600005","2024-05-25T13:45:00",23,29.805628,0.195],
    [21666,"urn:WaterMeter:MC0203J22010600005","2024-05-25T14:00:00",23.1,29.7424,0.195],
    [21667,"urn:WaterMeter:MC0203J22010600005","2024-05-25T14:15:00",23.2,29.680685,0.201],
    [21668,"urn:WaterMeter:MC0203J22010600005","2024-05-25T14:30:00",23.2,29.60935,0.206],
    [21669,"urn:WaterMeter:MC0203J22010600005","2024-05-25T14:45:00",23.299,29.603882,0.193],
    [21670,"urn:WaterMeter:MC0203J22010600005","2024-05-25T15:00:00",23.299,29.472422,0.203],
    [21671,"urn:WaterMeter:MC0203J22010600005","2024-05-25T15:15:00",23.399,29.489063,0.189],
    [21672,"urn:WaterMeter:MC0203J22010600005","2024-05-25T15:30:00",23.5,29.39329,0.193],
    [21673,"urn:WaterMeter:MC0203J22010600005","2024-05-25T15:45:00",23.5,29.368464,0.205],
    [21674,"urn:WaterMeter:MC0203J22010600005","2024-05-25T16:00:00",23.5,29.31959,0.188],
    [21675,"urn:WaterMeter:MC0203J22010600005","2024-05-25T16:15:00",23.5,29.266407,0.199],
    [21676,"urn:WaterMeter:MC0203J22010600005","2024-05-25T16:30:00",23.5,29.203608,0.195],
    [21677,"urn:WaterMeter:MC0203J22010600005","2024-05-25T16:45:00",23.5,29.183435,0.192],
    [21678,"urn:WaterMeter:MC0203J22010600005","2024-05-25T17:00:00",23.5,29.130644,0.206],
    [21679,"urn:WaterMeter:MC0203J22010600005","2024-05-25T17:15:00",23.5,29.081379,0.197],
    [21680,"urn:WaterMeter:MC0203J22010600005","2024-05-25T17:30:00",23.399,29.048447,0.196],
    [21681,"urn:WaterMeter:MC0203J22010600005","2024-05-25T17:45:00",23.399,29.042202,0.195],
    [21682,"urn:WaterMeter:MC0203J22010600005","2024-05-25T18:00:00",23.399,28.971254,0.192],
    [21683,"urn:WaterMeter:MC0203J22010600005","2024-05-25T18:15:00",23.299,28.92975,0.199],
    [21684,"urn:WaterMeter:MC0203J22010600005","2024-05-25T18:30:00",23.299,28.937508,0.197],
    [21685,"urn:WaterMeter:MC0203J22010600005","2024-05-25T18:45:00",23.2,28.901045,0.188],
    [21686,"urn:WaterMeter:MC0203J22010600005","2024-05-25T19:00:00",23.1,28.877344,0.197],
    [21687,"urn:WaterMeter:MC0203J22010600005","2024-05-25T19:15:00",23.1,28.881649,0.189],
    [21688,"urn:WaterMeter:MC0203J22010600005","2024-05-25T19:30:00",23,28.852558,0.19],
    [21689,"urn:WaterMeter:MC0203J22010600005","2024-05-25T19:45:00",22.899,28.820711,0.186],
    [21690,"urn:WaterMeter:MC0203J22010600005","2024-05-25T20:00:00",22.799,28.772223,0.193],
    [21691,"urn:WaterMeter:MC0203J22010600005","2024-05-25T20:15:00",22.7,28.787779,0.194],
    [21692,"urn:WaterMeter:MC0203J22010600005","2024-05-25T20:30:00",22.7,28.806396,0.187],
    [21693,"urn:WaterMeter:MC0203J22010600005","2024-05-25T20:45:00",22.6,28.780758,0.197],
    [21694,"urn:WaterMeter:MC0203J22010600005","2024-05-25T21:00:00",22.5,28.789679,0.19],
    [21695,"urn:WaterMeter:MC0203J22010600005","2024-05-25T21:15:00",22.399,28.77614,0.2],
    [21696,"urn:WaterMeter:MC0203J22010600005","2024-05-25T21:30:00",22.399,28.75946,0.188],
    [21697,"urn:WaterMeter:MC0203J22010600005","2024-05-25T21:45:00",22.299,28.75985,0.186],
    [21698,"urn:WaterMeter:MC0203J22010600005","2024-05-25T22:00:00",22.2,28.71563,0.191],
    [21699,"urn:WaterMeter:MC0203J22010600005","2024-05-25T22:15:00",22.2,28.682657,0.193],
    [21700,"urn:WaterMeter:MC0203J22010600005","2024-05-25T22:30:00",22.1,28.73227,0.189],
    [21701,"urn:WaterMeter:MC0203J22010600005","2024-05-25T22:45:00",22,28.70434,0.207],
    [21702,"urn:WaterMeter:MC0203J22010600005","2024-05-25T23:00:00",21.899,28.70632,0.189],
    [21703,"urn:WaterMeter:MC0203J22010600005","2024-05-25T23:15:00",21.799,28.7005,0.192],
    [21704,"urn:WaterMeter:MC0203J22010600005","2024-05-25T23:30:00",21.7,28.676838,0.19],
    [21705,"urn:WaterMeter:MC0203J22010600005","2024-05-25T23:45:00",21.7,28.685373,0.2],
    [21706,"urn:WaterMeter:MC0203J22010600005","2024-05-26T00:00:00",21.6,28.685373,0.196],
    [21707,"urn:WaterMeter:MC0203J22010600005","2024-05-26T00:15:00",21.5,28.695847,0.201],
    [21708,"urn:WaterMeter:MC0203J22010600005","2024-05-26T00:30:00",21.5,28.654303,0.186],
    [21709,"urn:WaterMeter:MC0203J22010600005","2024-05-26T00:45:00",21.399,28.680717,0.193],
    [21710,"urn:WaterMeter:MC0203J22010600005","2024-05-26T01:00:00",21.299,28.683044,0.192],
    [21711,"urn:WaterMeter:MC0203J22010600005","2024-05-26T01:15:00",21.2,28.666754,0.192],
    [21712,"urn:WaterMeter:MC0203J22010600005","2024-05-26T01:30:00",21.1,28.629128,0.206],
    [21713,"urn:WaterMeter:MC0203J22010600005","2024-05-26T01:45:00",21.1,28.645767,0.184],
    [21714,"urn:WaterMeter:MC0203J22010600005","2024-05-26T02:00:00",21,28.629902,0.199],
    [21715,"urn:WaterMeter:MC0203J22010600005","2024-05-26T02:15:00",20.899,28.648521,0.189],
    [21716,"urn:WaterMeter:MC0203J22010600005","2024-05-26T02:30:00",20.799,28.608181,0.185],
    [21717,"urn:WaterMeter:MC0203J22010600005","2024-05-26T02:45:00",20.7,28.619818,0.182],
    [21718,"urn:WaterMeter:MC0203J22010600005","2024-05-26T03:00:00",20.6,28.58797,0.185],
    [21719,"urn:WaterMeter:MC0203J22010600005","2024-05-26T03:15:00",20.5,28.62676,0.19],
    [21720,"urn:WaterMeter:MC0203J22010600005","2024-05-26T03:30:00",20.399,28.621368,0.186],
    [21721,"urn:WaterMeter:MC0203J22010600005","2024-05-26T03:45:00",20.399,28.641151,0.191],
    [21722,"urn:WaterMeter:MC0203J22010600005","2024-05-26T04:00:00",20.299,28.63452,0.196],
    [21723,"urn:WaterMeter:MC0203J22010600005","2024-05-26T04:15:00",20.299,28.612059,0.19],
    [21724,"urn:WaterMeter:MC0203J22010600005","2024-05-26T04:30:00",20.2,28.631067,0.181],
    [21725,"urn:WaterMeter:MC0203J22010600005","2024-05-26T04:45:00",20.1,28.606201,0.196],
    [21726,"urn:WaterMeter:MC0203J22010600005","2024-05-26T05:00:00",20,28.59534,0.186],
    [21727,"urn:WaterMeter:MC0203J22010600005","2024-05-26T05:15:00",20,28.580639,0.186],
    [21728,"urn:WaterMeter:MC0203J22010600005","2024-05-26T05:30:00",20,28.61012,0.188],
    [21729,"urn:WaterMeter:MC0203J22010600005","2024-05-26T05:45:00",19.899,28.586807,0.198],
    [21730,"urn:WaterMeter:MC0203J22010600005","2024-05-26T06:00:00",19.899,28.577885,0.189],
    [21731,"urn:WaterMeter:MC0203J22010600005","2024-05-26T06:15:00",20,28.570166,0.184],
    [21732,"urn:WaterMeter:MC0203J22010600005","2024-05-26T06:30:00",20,28.544565,0.18],
    [21733,"urn:WaterMeter:MC0203J22010600005","2024-05-26T06:45:00",20.1,28.509615,0.187],
    [21734,"urn:WaterMeter:MC0203J22010600005","2024-05-26T07:00:00",20.2,28.532152,0.183],
    [21735,"urn:WaterMeter:MC0203J22010600005","2024-05-26T07:15:00",20.299,28.520515,0.185],
    [21736,"urn:WaterMeter:MC0203J22010600005","2024-05-26T07:30:00",20.5,28.522455,0.185],
    [21737,"urn:WaterMeter:MC0203J22010600005","2024-05-26T07:45:00",20.6,28.453796,0.177],
    [21738,"urn:WaterMeter:MC0203J22010600005","2024-05-26T08:00:00",20.7,28.39212,0.192],
    [21739,"urn:WaterMeter:MC0203J22010600005","2024-05-26T08:15:00",20.799,28.40178,0.183],
    [21740,"urn:WaterMeter:MC0203J22010600005","2024-05-26T08:30:00",21,28.342817,0.186],
    [21741,"urn:WaterMeter:MC0203J22010600005","2024-05-26T08:45:00",21.1,28.347511,0.181],
    [21742,"urn:WaterMeter:MC0203J22010600005","2024-05-26T09:00:00",21.299,28.309498,0.182],
    [21743,"urn:WaterMeter:MC0203J22010600005","2024-05-26T09:15:00",21.5,28.25748,0.179],
    [21744,"urn:WaterMeter:MC0203J22010600005","2024-05-26T09:30:00",21.6,28.207441,0.18],
    [21745,"urn:WaterMeter:MC0203J22010600005","2024-05-26T09:45:00",21.799,28.138433,0.18],
    [21746,"urn:WaterMeter:MC0203J22010600005","2024-05-26T10:00:00",22,28.07792,0.189],
    [21747,"urn:WaterMeter:MC0203J22010600005","2024-05-26T10:15:00",22.2,28.025127,0.189],
    [21748,"urn:WaterMeter:MC0203J22010600005","2024-05-26T10:30:00",22.299,27.972412,0.188],
    [21749,"urn:WaterMeter:MC0203J22010600005","2024-05-26T10:45:00",22.6,27.915741,0.178],
    [21750,"urn:WaterMeter:MC0203J22010600005","2024-05-26T11:00:00",22.7,27.894444,0.187],
    [21751,"urn:WaterMeter:MC0203J22010600005","2024-05-26T11:15:00",22.899,27.791613,0.172],
    [21752,"urn:WaterMeter:MC0203J22010600005","2024-05-26T11:30:00",23,27.736958,0.177],
    [21753,"urn:WaterMeter:MC0203J22010600005","2024-05-26T11:45:00",23.2,27.664768,0.19],
    [21754,"urn:WaterMeter:MC0203J22010600005","2024-05-26T12:00:00",23.399,27.620586,0.17],
    [21755,"urn:WaterMeter:MC0203J22010600005","2024-05-26T12:15:00",23.5,27.50383,0.173],
    [21756,"urn:WaterMeter:MC0203J22010600005","2024-05-26T12:30:00",23.7,27.456894,0.172],
    [21757,"urn:WaterMeter:MC0203J22010600005","2024-05-26T12:45:00",23.799,27.399096,0.174],
    [21758,"urn:WaterMeter:MC0203J22010600005","2024-05-26T13:00:00",23.899,27.335442,0.17],
    [21759,"urn:WaterMeter:MC0203J22010600005","2024-05-26T13:15:00",24.1,27.241997,0.181],
    [21760,"urn:WaterMeter:MC0203J22010600005","2024-05-26T13:30:00",24.2,27.166744,0.177],
    [21761,"urn:WaterMeter:MC0203J22010600005","2024-05-26T13:45:00",24.299,27.059683,0.176],
    [21762,"urn:WaterMeter:MC0203J22010600005","2024-05-26T14:00:00",24.399,27.014687,0.171],
    [21763,"urn:WaterMeter:MC0203J22010600005","2024-05-26T14:15:00",24.5,26.91845,0.173],
    [21764,"urn:WaterMeter:MC0203J22010600005","2024-05-26T14:30:00",24.6,26.826555,0.179],
    [21765,"urn:WaterMeter:MC0203J22010600005","2024-05-26T14:45:00",24.6,26.77031,0.171],
    [21766,"urn:WaterMeter:MC0203J22010600005","2024-05-26T15:00:00",24.7,26.730356,0.166],
    [21767,"urn:WaterMeter:MC0203J22010600005","2024-05-26T15:15:00",24.7,26.656616,0.168],
    [21768,"urn:WaterMeter:MC0203J22010600005","2024-05-26T15:30:00",24.799,26.523605,0.17],
    [21769,"urn:WaterMeter:MC0203J22010600005","2024-05-26T15:45:00",24.799,26.535242,0.172],
    [21770,"urn:WaterMeter:MC0203J22010600005","2024-05-26T16:00:00",24.799,26.470852,0.164],
    [21771,"urn:WaterMeter:MC0203J22010600005","2024-05-26T16:15:00",24.7,26.38625,0.181],
    [21772,"urn:WaterMeter:MC0203J22010600005","2024-05-26T16:30:00",24.7,26.352541,0.166],
    [21773,"urn:WaterMeter:MC0203J22010600005","2024-05-26T16:45:00",24.6,26.292418,0.162],
    [21774,"urn:WaterMeter:MC0203J22010600005","2024-05-26T17:00:00",24.5,26.250874,0.164],
    [21775,"urn:WaterMeter:MC0203J22010600005","2024-05-26T17:15:00",24.5,26.236948,0.16],
    [21776,"urn:WaterMeter:MC0203J22010600005","2024-05-26T17:30:00",24.399,26.189974,0.162],
    [21777,"urn:WaterMeter:MC0203J22010600005","2024-05-26T17:45:00",24.299,26.186132,0.174],
    [21778,"urn:WaterMeter:MC0203J22010600005","2024-05-26T18:00:00",24.2,26.139585,0.166],
    [21779,"urn:WaterMeter:MC0203J22010600005","2024-05-26T18:15:00",24.2,26.131788,0.162],
    [21780,"urn:WaterMeter:MC0203J22010600005","2024-05-26T18:30:00",24.1,26.079847,0.163],
    [21781,"urn:WaterMeter:MC0203J22010600005","2024-05-26T18:45:00",24,26.04067,0.172],
    [21782,"urn:WaterMeter:MC0203J22010600005","2024-05-26T19:00:00",23.899,26.027443,0.17],
    [21783,"urn:WaterMeter:MC0203J22010600005","2024-05-26T19:15:00",23.899,26.025154,0.171],
    [21784,"urn:WaterMeter:MC0203J22010600005","2024-05-26T19:30:00",23.7,25.977016,0.169],
    [21785,"urn:WaterMeter:MC0203J22010600005","2024-05-26T19:45:00",23.7,25.988264,0.163],
    [21786,"urn:WaterMeter:MC0203J22010600005","2024-05-26T20:00:00",23.6,25.947575,0.166],
    [21787,"urn:WaterMeter:MC0203J22010600005","2024-05-26T20:15:00",23.6,25.923912,0.16],
    [21788,"urn:WaterMeter:MC0203J22010600005","2024-05-26T20:30:00",23.5,25.938614,0.163],
    [21789,"urn:WaterMeter:MC0203J22010600005","2024-05-26T20:45:00",23.399,25.935162,0.167],
    [21790,"urn:WaterMeter:MC0203J22010600005","2024-05-26T21:00:00",23.399,25.875425,0.166],
    [21791,"urn:WaterMeter:MC0203J22010600005","2024-05-26T21:15:00",23.299,25.882795,0.173],
    [21792,"urn:WaterMeter:MC0203J22010600005","2024-05-26T21:30:00",23.2,25.886675,0.182],
    [21793,"urn:WaterMeter:MC0203J22010600005","2024-05-26T21:45:00",23.1,25.873098,0.168],
    [21794,"urn:WaterMeter:MC0203J22010600005","2024-05-26T22:00:00",23.1,25.803625,0.175],
    [21795,"urn:WaterMeter:MC0203J22010600005","2024-05-26T22:15:00",23,25.81724,0.167],
    [21796,"urn:WaterMeter:MC0203J22010600005","2024-05-26T22:30:00",22.899,25.812935,0.166],
    [21797,"urn:WaterMeter:MC0203J22010600005","2024-05-26T22:45:00",22.899,25.79319,0.17],
    [21798,"urn:WaterMeter:MC0203J22010600005","2024-05-26T23:00:00",22.799,25.80599,0.166],
    [21799,"urn:WaterMeter:MC0203J22010600005","2024-05-26T23:15:00",22.799,25.804012,0.172],
    [21800,"urn:WaterMeter:MC0203J22010600005","2024-05-26T23:30:00",22.7,25.767977,0.164],
    [21801,"urn:WaterMeter:MC0203J22010600005","2024-05-26T23:45:00",22.6,25.75789,0.168],
    [21802,"urn:WaterMeter:MC0203J22010600005","2024-05-27T00:00:00",22.6,25.747417,0.165],
    [21803,"urn:WaterMeter:MC0203J22010600005","2024-05-27T00:15:00",22.5,25.754013,0.164],
    [21804,"urn:WaterMeter:MC0203J22010600005","2024-05-27T00:30:00",22.399,25.7416,0.167],
    [21805,"urn:WaterMeter:MC0203J22010600005","2024-05-27T00:45:00",22.299,25.72721,0.16],
    [21806,"urn:WaterMeter:MC0203J22010600005","2024-05-27T01:00:00",22.299,25.724493,0.162],
    [21807,"urn:WaterMeter:MC0203J22010600005","2024-05-27T01:15:00",22.2,25.705873,0.162],
    [21808,"urn:WaterMeter:MC0203J22010600005","2024-05-27T01:30:00",22.1,25.672165,0.162],
    [21809,"urn:WaterMeter:MC0203J22010600005","2024-05-27T01:45:00",22,25.70281,0.16],
    [21810,"urn:WaterMeter:MC0203J22010600005","2024-05-27T02:00:00",22,25.682251,0.162],
    [21811,"urn:WaterMeter:MC0203J22010600005","2024-05-27T02:15:00",21.899,25.702421,0.172],
    [21812,"urn:WaterMeter:MC0203J22010600005","2024-05-27T02:30:00",21.799,25.636478,0.166],
    [21813,"urn:WaterMeter:MC0203J22010600005","2024-05-27T02:45:00",21.7,25.656261,0.157],
    [21814,"urn:WaterMeter:MC0203J22010600005","2024-05-27T03:00:00",21.6,25.670614,0.164],
    [21815,"urn:WaterMeter:MC0203J22010600005","2024-05-27T03:15:00",21.6,25.608898,0.156],
    [21816,"urn:WaterMeter:MC0203J22010600005","2024-05-27T03:30:00",21.5,25.651608,0.163],
    [21817,"urn:WaterMeter:MC0203J22010600005","2024-05-27T03:45:00",21.399,25.655098,0.158],
    [21818,"urn:WaterMeter:MC0203J22010600005","2024-05-27T04:00:00",21.299,25.603895,0.172],
    [21819,"urn:WaterMeter:MC0203J22010600005","2024-05-27T04:15:00",21.299,25.602343,0.159],
    [21820,"urn:WaterMeter:MC0203J22010600005","2024-05-27T04:30:00",21.2,25.606222,0.156],
    [21821,"urn:WaterMeter:MC0203J22010600005","2024-05-27T04:45:00",21.1,25.613981,0.17],
    [21822,"urn:WaterMeter:MC0203J22010600005","2024-05-27T05:00:00",21.1,25.608511,0.155],
    [21823,"urn:WaterMeter:MC0203J22010600005","2024-05-27T05:15:00",21.1,25.548813,0.165],
    [21824,"urn:WaterMeter:MC0203J22010600005","2024-05-27T05:30:00",21,25.575579,0.172],
    [21825,"urn:WaterMeter:MC0203J22010600005","2024-05-27T05:45:00",21,25.565105,0.166],
    [21826,"urn:WaterMeter:MC0203J22010600005","2024-05-27T06:00:00",21,25.549938,0.169],
    [21827,"urn:WaterMeter:MC0203J22010600005","2024-05-27T06:15:00",21,25.580194,0.161],
    [21828,"urn:WaterMeter:MC0203J22010600005","2024-05-27T06:30:00",21.1,25.557735,0.156],
    [21829,"urn:WaterMeter:MC0203J22010600005","2024-05-27T06:45:00",21.2,25.548813,0.164],
    [21830,"urn:WaterMeter:MC0203J22010600005","2024-05-27T07:00:00",21.299,25.50886,0.167],
    [21831,"urn:WaterMeter:MC0203J22010600005","2024-05-27T07:15:00",21.399,25.450674,0.17],
    [21832,"urn:WaterMeter:MC0203J22010600005","2024-05-27T07:30:00",21.5,25.460371,0.157],
    [21833,"urn:WaterMeter:MC0203J22010600005","2024-05-27T07:45:00",21.6,25.44951,0.168],
    [21834,"urn:WaterMeter:MC0203J22010600005","2024-05-27T08:00:00",21.799,25.379688,0.168],
    [21835,"urn:WaterMeter:MC0203J22010600005","2024-05-27T08:15:00",21.899,25.352924,0.152],
    [21836,"urn:WaterMeter:MC0203J22010600005","2024-05-27T08:30:00",22,25.507307,0.179],
    [21837,"urn:WaterMeter:MC0203J22010600005","2024-05-27T08:45:00",22.2,26.68148,0.189],
    [21838,"urn:WaterMeter:MC0203J22010600005","2024-05-27T09:00:00",22.299,28.71171,0.208],
    [21839,"urn:WaterMeter:MC0203J22010600005","2024-05-27T09:15:00",22.5,30.200897,0.228],
    [21840,"urn:WaterMeter:MC0203J22010600005","2024-05-27T09:30:00",22.7,30.852182,0.222],
    [21841,"urn:WaterMeter:MC0203J22010600005","2024-05-27T09:45:00",22.899,31.17957,0.227],
    [21842,"urn:WaterMeter:MC0203J22010600005","2024-05-27T10:00:00",23.1,31.288181,0.233],
    [21843,"urn:WaterMeter:MC0203J22010600005","2024-05-27T10:15:00",23.2,31.313784,0.207],
    [21844,"urn:WaterMeter:MC0203J22010600005","2024-05-27T10:30:00",23.399,31.281975,0.215],
    [21845,"urn:WaterMeter:MC0203J22010600005","2024-05-27T10:45:00",23.5,31.288958,0.207],
    [21846,"urn:WaterMeter:MC0203J22010600005","2024-05-27T11:00:00",23.7,31.222626,0.213],
    [21847,"urn:WaterMeter:MC0203J22010600005","2024-05-27T11:15:00",23.899,31.208662,0.208],
    [21848,"urn:WaterMeter:MC0203J22010600005","2024-05-27T11:30:00",24,31.19621,0.206],
    [21849,"urn:WaterMeter:MC0203J22010600005","2024-05-27T11:45:00",24.2,31.138412,0.212],
    [21850,"urn:WaterMeter:MC0203J22010600005","2024-05-27T12:00:00",24.299,31.1016,0.205],
    [21851,"urn:WaterMeter:MC0203J22010600005","2024-05-27T12:15:00",24.399,31.058893,0.205],
    [21852,"urn:WaterMeter:MC0203J22010600005","2024-05-27T12:30:00",24.6,30.972393,0.215],
    [21853,"urn:WaterMeter:MC0203J22010600005","2024-05-27T12:45:00",24.7,30.933214,0.208],
    [21854,"urn:WaterMeter:MC0203J22010600005","2024-05-27T13:00:00",24.799,30.873129,0.202],
    [21855,"urn:WaterMeter:MC0203J22010600005","2024-05-27T13:15:00",24.899,30.795937,0.2],
    [21856,"urn:WaterMeter:MC0203J22010600005","2024-05-27T13:30:00",25,30.77654,0.219],
    [21857,"urn:WaterMeter:MC0203J22010600005","2024-05-27T13:45:00",25.1,30.664825,0.21],
    [21858,"urn:WaterMeter:MC0203J22010600005","2024-05-27T14:00:00",25.2,30.664438,0.206],
    [21859,"urn:WaterMeter:MC0203J22010600005","2024-05-27T14:15:00",25.2,30.552336,0.207],
    [21860,"urn:WaterMeter:MC0203J22010600005","2024-05-27T14:30:00",25.2,30.48096,0.206],
    [21861,"urn:WaterMeter:MC0203J22010600005","2024-05-27T14:45:00",25.299,30.471651,0.209],
    [21862,"urn:WaterMeter:MC0203J22010600005","2024-05-27T15:00:00",25.299,30.383211,0.199],
    [21863,"urn:WaterMeter:MC0203J22010600005","2024-05-27T15:15:00",25.299,30.335499,0.205],
    [21864,"urn:WaterMeter:MC0203J22010600005","2024-05-27T15:30:00",25.299,30.288952,0.211],
    [21865,"urn:WaterMeter:MC0203J22010600005","2024-05-27T15:45:00",25.299,30.249386,0.207],
    [21866,"urn:WaterMeter:MC0203J22010600005","2024-05-27T16:00:00",25.299,30.20982,0.207],
    [21867,"urn:WaterMeter:MC0203J22010600005","2024-05-27T16:15:00",25.2,30.160557,0.199],
    [21868,"urn:WaterMeter:MC0203J22010600005","2024-05-27T16:30:00",25.2,30.133015,0.216],
    [21869,"urn:WaterMeter:MC0203J22010600005","2024-05-27T16:45:00",25.1,30.112457,0.199],
    [21870,"urn:WaterMeter:MC0203J22010600005","2024-05-27T17:00:00",25.1,30.062805,0.187],
    [21871,"urn:WaterMeter:MC0203J22010600005","2024-05-27T17:15:00",25.1,30.01587,0.199],
    [21872,"urn:WaterMeter:MC0203J22010600005","2024-05-27T17:30:00",25,29.988329,0.205],
    [21873,"urn:WaterMeter:MC0203J22010600005","2024-05-27T17:45:00",24.899,29.95691,0.205],
    [21874,"urn:WaterMeter:MC0203J22010600005","2024-05-27T18:00:00",24.899,29.928593,0.21],
    [21875,"urn:WaterMeter:MC0203J22010600005","2024-05-27T18:15:00",24.799,29.915365,0.194],
    [21876,"urn:WaterMeter:MC0203J22010600005","2024-05-27T18:30:00",24.7,29.908033,0.209],
    [21877,"urn:WaterMeter:MC0203J22010600005","2024-05-27T18:45:00",24.7,29.860321,0.201],
    [21878,"urn:WaterMeter:MC0203J22010600005","2024-05-27T19:00:00",24.6,29.832394,0.201],
    [21879,"urn:WaterMeter:MC0203J22010600005","2024-05-27T19:15:00",24.5,29.835108,0.199],
    [21880,"urn:WaterMeter:MC0203J22010600005","2024-05-27T19:30:00",24.399,29.846357,0.204],
    [21881,"urn:WaterMeter:MC0203J22010600005","2024-05-27T19:45:00",24.299,29.809467,0.198],
    [21882,"urn:WaterMeter:MC0203J22010600005","2024-05-27T20:00:00",24.2,29.821144,0.22],
    [21883,"urn:WaterMeter:MC0203J22010600005","2024-05-27T20:15:00",24.1,29.83856,0.193],
    [21884,"urn:WaterMeter:MC0203J22010600005","2024-05-27T20:30:00",24.1,29.80908,0.201],
    [21885,"urn:WaterMeter:MC0203J22010600005","2024-05-27T20:45:00",24,29.78119,0.199],
    [21886,"urn:WaterMeter:MC0203J22010600005","2024-05-27T21:00:00",24,29.779211,0.211],
    [21887,"urn:WaterMeter:MC0203J22010600005","2024-05-27T21:15:00",23.899,29.73887,0.201],
    [21888,"urn:WaterMeter:MC0203J22010600005","2024-05-27T21:30:00",23.899,29.728436,0.198],
    [21889,"urn:WaterMeter:MC0203J22010600005","2024-05-27T21:45:00",23.799,29.711329,0.204],
    [21890,"urn:WaterMeter:MC0203J22010600005","2024-05-27T22:00:00",23.799,29.756752,0.209],
    [21891,"urn:WaterMeter:MC0203J22010600005","2024-05-27T22:15:00",23.7,29.69081,0.198],
    [21892,"urn:WaterMeter:MC0203J22010600005","2024-05-27T22:30:00",23.6,29.693485,0.196],
    [21893,"urn:WaterMeter:MC0203J22010600005","2024-05-27T22:45:00",23.5,29.689259,0.206],
    [21894,"urn:WaterMeter:MC0203J22010600005","2024-05-27T23:00:00",23.5,29.745502,0.196],
    [21895,"urn:WaterMeter:MC0203J22010600005","2024-05-27T23:15:00",23.399,29.672539,0.21],
    [21896,"urn:WaterMeter:MC0203J22010600005","2024-05-27T23:30:00",23.299,29.673702,0.198],
    [21897,"urn:WaterMeter:MC0203J22010600005","2024-05-27T23:45:00",23.299,29.642672,0.197],
    [21898,"urn:WaterMeter:MC0203J22010600005","2024-05-28T00:00:00",23.2,29.67956,0.212],
    [21899,"urn:WaterMeter:MC0203J22010600005","2024-05-28T00:15:00",23.1,29.675293,0.195],
    [21900,"urn:WaterMeter:MC0203J22010600005","2024-05-28T00:30:00",23.1,29.657837,0.196],
    [21901,"urn:WaterMeter:MC0203J22010600005","2024-05-28T00:45:00",23,29.644222,0.192],
    [21902,"urn:WaterMeter:MC0203J22010600005","2024-05-28T01:00:00",23,29.636116,0.198],
    [21903,"urn:WaterMeter:MC0203J22010600005","2024-05-28T01:15:00",22.899,29.643446,0.201],
    [21904,"urn:WaterMeter:MC0203J22010600005","2024-05-28T01:30:00",22.799,29.649303,0.204],
    [21905,"urn:WaterMeter:MC0203J22010600005","2024-05-28T01:45:00",22.799,29.644222,0.2],
    [21906,"urn:WaterMeter:MC0203J22010600005","2024-05-28T02:00:00",22.7,29.619047,0.206],
    [21907,"urn:WaterMeter:MC0203J22010600005","2024-05-28T02:15:00",22.6,29.624052,0.201],
    [21908,"urn:WaterMeter:MC0203J22010600005","2024-05-28T02:30:00",22.6,29.60582,0.201],
    [21909,"urn:WaterMeter:MC0203J22010600005","2024-05-28T02:45:00",22.5,29.589567,0.205],
    [21910,"urn:WaterMeter:MC0203J22010600005","2024-05-28T03:00:00",22.5,29.59073,0.195],
    [21911,"urn:WaterMeter:MC0203J22010600005","2024-05-28T03:15:00",22.399,29.610126,0.182],
    [21912,"urn:WaterMeter:MC0203J22010600005","2024-05-28T03:30:00",22.399,29.62797,0.192],
    [21913,"urn:WaterMeter:MC0203J22010600005","2024-05-28T03:45:00",22.299,29.593834,0.195],
    [21914,"urn:WaterMeter:MC0203J22010600005","2024-05-28T04:00:00",22.2,29.575214,0.202],
    [21915,"urn:WaterMeter:MC0203J22010600005","2024-05-28T04:15:00",22.2,29.563927,0.2],
    [21916,"urn:WaterMeter:MC0203J22010600005","2024-05-28T04:30:00",22.1,29.60198,0.202],
    [21917,"urn:WaterMeter:MC0203J22010600005","2024-05-28T04:45:00",22,29.577116,0.195],
    [21918,"urn:WaterMeter:MC0203J22010600005","2024-05-28T05:00:00",22,29.585262,0.203],
    [21919,"urn:WaterMeter:MC0203J22010600005","2024-05-28T05:15:00",21.899,29.575953,0.199],
    [21920,"urn:WaterMeter:MC0203J22010600005","2024-05-28T05:30:00",21.899,29.53177,0.2],
    [21921,"urn:WaterMeter:MC0203J22010600005","2024-05-28T05:45:00",21.899,29.545696,0.197],
    [21922,"urn:WaterMeter:MC0203J22010600005","2024-05-28T06:00:00",21.899,29.515478,0.196],
    [21923,"urn:WaterMeter:MC0203J22010600005","2024-05-28T06:15:00",22,29.523624,0.195],
    [21924,"urn:WaterMeter:MC0203J22010600005","2024-05-28T06:30:00",22,29.512764,0.192],
    [21925,"urn:WaterMeter:MC0203J22010600005","2024-05-28T06:45:00",22.1,29.525913,0.193],
    [21926,"urn:WaterMeter:MC0203J22010600005","2024-05-28T07:00:00",22.1,29.464275,0.191],
    [21927,"urn:WaterMeter:MC0203J22010600005","2024-05-28T07:15:00",22.2,29.438286,0.197],
    [21928,"urn:WaterMeter:MC0203J22010600005","2024-05-28T07:30:00",22.299,29.434408,0.208],
    [21929,"urn:WaterMeter:MC0203J22010600005","2024-05-28T07:45:00",22.399,29.42855,0.19],
    [21930,"urn:WaterMeter:MC0203J22010600005","2024-05-28T08:00:00",22.5,29.376223,0.192],
    [21931,"urn:WaterMeter:MC0203J22010600005","2024-05-28T08:15:00",22.7,29.339373,0.205],
    [21932,"urn:WaterMeter:MC0203J22010600005","2024-05-28T08:30:00",22.799,29.335106,0.188],
    [21933,"urn:WaterMeter:MC0203J22010600005","2024-05-28T08:45:00",22.799,29.2571,0.189],
    [21934,"urn:WaterMeter:MC0203J22010600005","2024-05-28T09:00:00",22.899,29.213692,0.189],
    [21935,"urn:WaterMeter:MC0203J22010600005","2024-05-28T09:15:00",23,29.16982,0.189],
    [21936,"urn:WaterMeter:MC0203J22010600005","2024-05-28T09:30:00",23.1,29.156282,0.191],
    [21937,"urn:WaterMeter:MC0203J22010600005","2024-05-28T09:45:00",23.299,29.05543,0.19],
    [21938,"urn:WaterMeter:MC0203J22010600005","2024-05-28T10:00:00",23.399,29.078703,0.198],
    [21939,"urn:WaterMeter:MC0203J22010600005","2024-05-28T10:15:00",23.6,29.015476,0.201],
    [21940,"urn:WaterMeter:MC0203J22010600005","2024-05-28T10:30:00",23.7,28.930525,0.187],
    [21941,"urn:WaterMeter:MC0203J22010600005","2024-05-28T10:45:00",23.899,28.861092,0.188],
    [21942,"urn:WaterMeter:MC0203J22010600005","2024-05-28T11:00:00",24,28.81532,0.185],
    [21943,"urn:WaterMeter:MC0203J22010600005","2024-05-28T11:15:00",24.1,28.756746,0.185],
    [21944,"urn:WaterMeter:MC0203J22010600005","2024-05-28T11:30:00",24.1,28.718344,0.193],
    [21945,"urn:WaterMeter:MC0203J22010600005","2024-05-28T11:45:00",24.2,28.643091,0.185],
    [21946,"urn:WaterMeter:MC0203J22010600005","2024-05-28T12:00:00",24.299,28.585682,0.185],
    [21947,"urn:WaterMeter:MC0203J22010600005","2024-05-28T12:15:00",24.299,28.539095,0.184],
    [21948,"urn:WaterMeter:MC0203J22010600005","2024-05-28T12:30:00",24.399,28.46233,0.194],
    [21949,"urn:WaterMeter:MC0203J22010600005","2024-05-28T12:45:00",24.5,28.402166,0.186],
    [21950,"urn:WaterMeter:MC0203J22010600005","2024-05-28T13:00:00",24.6,28.358374,0.195],
    [21951,"urn:WaterMeter:MC0203J22010600005","2024-05-28T13:15:00",24.7,28.276487,0.196],
    [21952,"urn:WaterMeter:MC0203J22010600005","2024-05-28T13:30:00",24.7,28.221443,0.18],
    [21953,"urn:WaterMeter:MC0203J22010600005","2024-05-28T13:45:00",24.799,28.17451,0.184],
    [21954,"urn:WaterMeter:MC0203J22010600005","2024-05-28T14:00:00",24.799,28.104298,0.192],
    [21955,"urn:WaterMeter:MC0203J22010600005","2024-05-28T14:15:00",24.799,28.023228,0.188],
    [21956,"urn:WaterMeter:MC0203J22010600005","2024-05-28T14:30:00",24.799,27.936687,0.186],
    [21957,"urn:WaterMeter:MC0203J22010600005","2024-05-28T14:45:00",24.799,27.94138,0.179],
    [21958,"urn:WaterMeter:MC0203J22010600005","2024-05-28T15:00:00",24.899,27.831993,0.18],
    [21959,"urn:WaterMeter:MC0203J22010600005","2024-05-28T15:15:00",24.899,27.812984,0.184],
    [21960,"urn:WaterMeter:MC0203J22010600005","2024-05-28T15:30:00",24.899,27.762133,0.177],
    [21961,"urn:WaterMeter:MC0203J22010600005","2024-05-28T15:45:00",24.899,27.704723,0.18],
    [21962,"urn:WaterMeter:MC0203J22010600005","2024-05-28T16:00:00",24.799,27.657825,0.182],
    [21963,"urn:WaterMeter:MC0203J22010600005","2024-05-28T16:15:00",24.799,27.589943,0.174],
    [21964,"urn:WaterMeter:MC0203J22010600005","2024-05-28T16:30:00",24.799,27.571323,0.176],
    [21965,"urn:WaterMeter:MC0203J22010600005","2024-05-28T16:45:00",24.7,27.48521,0.181],
    [21966,"urn:WaterMeter:MC0203J22010600005","2024-05-28T17:00:00",24.7,27.47978,0.176],
    [21967,"urn:WaterMeter:MC0203J22010600005","2024-05-28T17:15:00",24.6,27.427801,0.177],
    [21968,"urn:WaterMeter:MC0203J22010600005","2024-05-28T17:30:00",24.5,27.419655,0.182],
    [21969,"urn:WaterMeter:MC0203J22010600005","2024-05-28T17:45:00",24.5,27.382805,0.177],
    [21970,"urn:WaterMeter:MC0203J22010600005","2024-05-28T18:00:00",24.399,27.335442,0.172],
    [21971,"urn:WaterMeter:MC0203J22010600005","2024-05-28T18:15:00",24.299,27.299406,0.174],
    [21972,"urn:WaterMeter:MC0203J22010600005","2024-05-28T18:30:00",24.2,27.262943,0.178],
    [21973,"urn:WaterMeter:MC0203J22010600005","2024-05-28T18:45:00",24.1,27.28195,0.187],
    [21974,"urn:WaterMeter:MC0203J22010600005","2024-05-28T19:00:00",24,27.21562,0.177],
    [21975,"urn:WaterMeter:MC0203J22010600005","2024-05-28T19:15:00",23.899,27.240833,0.179],
    [21976,"urn:WaterMeter:MC0203J22010600005","2024-05-28T19:30:00",23.799,27.223764,0.175],
    [21977,"urn:WaterMeter:MC0203J22010600005","2024-05-28T19:45:00",23.7,27.190756,0.171],
    [21978,"urn:WaterMeter:MC0203J22010600005","2024-05-28T20:00:00",23.6,27.196611,0.17],
    [21979,"urn:WaterMeter:MC0203J22010600005","2024-05-28T20:15:00",23.6,27.171747,0.175],
    [21980,"urn:WaterMeter:MC0203J22010600005","2024-05-28T20:30:00",23.5,27.18067,0.177],
    [21981,"urn:WaterMeter:MC0203J22010600005","2024-05-28T20:45:00",23.399,27.166744,0.181],
    [21982,"urn:WaterMeter:MC0203J22010600005","2024-05-28T21:00:00",23.399,27.144634,0.18],
    [21983,"urn:WaterMeter:MC0203J22010600005","2024-05-28T21:15:00",23.299,27.12326,0.171],
    [21984,"urn:WaterMeter:MC0203J22010600005","2024-05-28T21:30:00",23.2,27.102701,0.175],
    [21985,"urn:WaterMeter:MC0203J22010600005","2024-05-28T21:45:00",23.2,27.123648,0.179],
    [21986,"urn:WaterMeter:MC0203J22010600005","2024-05-28T22:00:00",23.1,27.075161,0.18],
    [21987,"urn:WaterMeter:MC0203J22010600005","2024-05-28T22:15:00",23,27.094168,0.176],
    [21988,"urn:WaterMeter:MC0203J22010600005","2024-05-28T22:30:00",22.899,27.093391,0.176],
    [21989,"urn:WaterMeter:MC0203J22010600005","2024-05-28T22:45:00",22.799,27.082918,0.187],
    [21990,"urn:WaterMeter:MC0203J22010600005","2024-05-28T23:00:00",22.799,27.063135,0.181],
    [21991,"urn:WaterMeter:MC0203J22010600005","2024-05-28T23:15:00",22.7,27.035595,0.178],
    [21992,"urn:WaterMeter:MC0203J22010600005","2024-05-28T23:30:00",22.7,27.050373,0.177],
    [21993,"urn:WaterMeter:MC0203J22010600005","2024-05-28T23:45:00",22.6,27.068605,0.177],
    [21994,"urn:WaterMeter:MC0203J22010600005","2024-05-29T00:00:00",22.5,27.034819,0.165],
    [21995,"urn:WaterMeter:MC0203J22010600005","2024-05-29T00:15:00",22.399,27.05499,0.174],
    [21996,"urn:WaterMeter:MC0203J22010600005","2024-05-29T00:30:00",22.399,26.985945,0.168],
    [21997,"urn:WaterMeter:MC0203J22010600005","2024-05-29T00:45:00",22.299,27.04184,0.179],
    [21998,"urn:WaterMeter:MC0203J22010600005","2024-05-29T01:00:00",22.2,27.00887,0.172],
    [21999,"urn:WaterMeter:MC0203J22010600005","2024-05-29T01:15:00",22.1,27.002663,0.177],
    [22000,"urn:WaterMeter:MC0203J22010600005","2024-05-29T01:30:00",22,27.011583,0.196],
    [22001,"urn:WaterMeter:MC0203J22010600005","2024-05-29T01:45:00",22,26.974346,0.17],
    [22002,"urn:WaterMeter:MC0203J22010600005","2024-05-29T02:00:00",21.899,27.003439,0.173],
    [22003,"urn:WaterMeter:MC0203J22010600005","2024-05-29T02:15:00",21.799,26.968489,0.179],
    [22004,"urn:WaterMeter:MC0203J22010600005","2024-05-29T02:30:00",21.7,26.984043,0.171],
    [22005,"urn:WaterMeter:MC0203J22010600005","2024-05-29T02:45:00",21.6,26.997581,0.174],
    [22006,"urn:WaterMeter:MC0203J22010600005","2024-05-29T03:00:00",21.6,26.929699,0.176],
    [22007,"urn:WaterMeter:MC0203J22010600005","2024-05-29T03:15:00",21.5,26.96969,0.171],
    [22008,"urn:WaterMeter:MC0203J22010600005","2024-05-29T03:30:00",21.399,26.97939,0.175],
    [22009,"urn:WaterMeter:MC0203J22010600005","2024-05-29T03:45:00",21.299,26.944864,0.169],
    [22010,"urn:WaterMeter:MC0203J22010600005","2024-05-29T04:00:00",21.299,26.932453,0.18],
    [22011,"urn:WaterMeter:MC0203J22010600005","2024-05-29T04:15:00",21.2,26.945253,0.171],
    [22012,"urn:WaterMeter:MC0203J22010600005","2024-05-29T04:30:00",21.1,26.937107,0.177],
    [22013,"urn:WaterMeter:MC0203J22010600005","2024-05-29T04:45:00",21,26.902584,0.176],
    [22014,"urn:WaterMeter:MC0203J22010600005","2024-05-29T05:00:00",21,26.9053,0.17],
    [22015,"urn:WaterMeter:MC0203J22010600005","2024-05-29T05:15:00",20.899,26.903748,0.171],
    [22016,"urn:WaterMeter:MC0203J22010600005","2024-05-29T05:30:00",20.799,26.91073,0.189],
    [22017,"urn:WaterMeter:MC0203J22010600005","2024-05-29T05:45:00",20.799,26.91073,0.177],
    [22018,"urn:WaterMeter:MC0203J22010600005","2024-05-29T06:00:00",20.799,26.89052,0.177],
    [22019,"urn:WaterMeter:MC0203J22010600005","2024-05-29T06:15:00",20.899,26.896765,0.179],
    [22020,"urn:WaterMeter:MC0203J22010600005","2024-05-29T06:30:00",20.899,26.873491,0.174],
    [22021,"urn:WaterMeter:MC0203J22010600005","2024-05-29T06:45:00",21,26.829231,0.182],
    [22022,"urn:WaterMeter:MC0203J22010600005","2024-05-29T07:00:00",21,26.784235,0.18],
    [22023,"urn:WaterMeter:MC0203J22010600005","2024-05-29T07:15:00",21.2,26.795525,0.167],
    [22024,"urn:WaterMeter:MC0203J22010600005","2024-05-29T07:30:00",21.399,26.768759,0.164],
    [22025,"urn:WaterMeter:MC0203J22010600005","2024-05-29T07:45:00",21.6,26.765268,0.174],
    [22026,"urn:WaterMeter:MC0203J22010600005","2024-05-29T08:00:00",21.7,26.72803,0.174],
    [22027,"urn:WaterMeter:MC0203J22010600005","2024-05-29T08:15:00",21.899,26.782335,0.187],
    [22028,"urn:WaterMeter:MC0203J22010600005","2024-05-29T08:30:00",22,27.691961,0.2],
    [22029,"urn:WaterMeter:MC0203J22010600005","2024-05-29T08:45:00",22.2,29.604656,0.212],
    [22030,"urn:WaterMeter:MC0203J22010600005","2024-05-29T09:00:00",22.299,31.158236,0.24],
    [22031,"urn:WaterMeter:MC0203J22010600005","2024-05-29T09:15:00",22.399,31.830854,0.227],
    [22032,"urn:WaterMeter:MC0203J22010600005","2024-05-29T09:30:00",22.6,31.834307,0.222],
    [22033,"urn:WaterMeter:MC0203J22010600005","2024-05-29T09:45:00",22.799,31.76491,0.226],
    [22034,"urn:WaterMeter:MC0203J22010600005","2024-05-29T10:00:00",23,31.703234,0.221],
    [22035,"urn:WaterMeter:MC0203J22010600005","2024-05-29T10:15:00",23.1,31.643887,0.217],
    [22036,"urn:WaterMeter:MC0203J22010600005","2024-05-29T10:30:00",23.299,31.616344,0.224],
    [22037,"urn:WaterMeter:MC0203J22010600005","2024-05-29T10:45:00",23.5,31.551178,0.213],
    [22038,"urn:WaterMeter:MC0203J22010600005","2024-05-29T11:00:00",23.7,31.497648,0.217],
    [22039,"urn:WaterMeter:MC0203J22010600005","2024-05-29T11:15:00",23.799,31.429766,0.218],
    [22040,"urn:WaterMeter:MC0203J22010600005","2024-05-29T11:30:00",23.899,31.389772,0.213],
    [22041,"urn:WaterMeter:MC0203J22010600005","2024-05-29T11:45:00",24,31.296328,0.213],
    [22042,"urn:WaterMeter:MC0203J22010600005","2024-05-29T12:00:00",24.1,31.245087,0.21],
    [22043,"urn:WaterMeter:MC0203J22010600005","2024-05-29T12:15:00",24.2,31.167933,0.216],
    [22044,"urn:WaterMeter:MC0203J22010600005","2024-05-29T12:30:00",24.399,31.147335,0.221],
    [22045,"urn:WaterMeter:MC0203J22010600005","2024-05-29T12:45:00",24.5,31.04807,0.214],
    [22046,"urn:WaterMeter:MC0203J22010600005","2024-05-29T13:00:00",24.6,30.951872,0.205],
    [22047,"urn:WaterMeter:MC0203J22010600005","2024-05-29T13:15:00",24.7,30.891748,0.221],
    [22048,"urn:WaterMeter:MC0203J22010600005","2024-05-29T13:30:00",24.799,30.857185,0.209],
    [22049,"urn:WaterMeter:MC0203J22010600005","2024-05-29T13:45:00",24.899,30.787752,0.206],
    [22050,"urn:WaterMeter:MC0203J22010600005","2024-05-29T14:00:00",25,30.728016,0.21],
    [22051,"urn:WaterMeter:MC0203J22010600005","2024-05-29T14:15:00",25,30.655905,0.209],
    [22052,"urn:WaterMeter:MC0203J22010600005","2024-05-29T14:30:00",25.1,30.588799,0.214],
    [22053,"urn:WaterMeter:MC0203J22010600005","2024-05-29T14:45:00",25.2,30.51238,0.207],
    [22054,"urn:WaterMeter:MC0203J22010600005","2024-05-29T15:00:00",25.2,30.461178,0.218],
    [22055,"urn:WaterMeter:MC0203J22010600005","2024-05-29T15:15:00",25.299,30.41463,0.209],
    [22056,"urn:WaterMeter:MC0203J22010600005","2024-05-29T15:30:00",25.299,30.357609,0.213],
    [22057,"urn:WaterMeter:MC0203J22010600005","2024-05-29T15:45:00",25.299,30.29283,0.208],
    [22058,"urn:WaterMeter:MC0203J22010600005","2024-05-29T16:00:00",25.399,30.253653,0.203],
    [22059,"urn:WaterMeter:MC0203J22010600005","2024-05-29T16:15:00",25.399,30.225685,0.213],
    [22060,"urn:WaterMeter:MC0203J22010600005","2024-05-29T16:30:00",25.399,30.152798,0.208],
    [22061,"urn:WaterMeter:MC0203J22010600005","2024-05-29T16:45:00",25.299,30.09923,0.205],
    [22062,"urn:WaterMeter:MC0203J22010600005","2024-05-29T17:00:00",25.299,30.033325,0.22],
    [22063,"urn:WaterMeter:MC0203J22010600005","2024-05-29T17:15:00",25.299,30.007723,0.207],
    [22064,"urn:WaterMeter:MC0203J22010600005","2024-05-29T17:30:00",25.299,29.991781,0.207],
    [22065,"urn:WaterMeter:MC0203J22010600005","2024-05-29T17:45:00",25.299,29.957684,0.187],
    [22066,"urn:WaterMeter:MC0203J22010600005","2024-05-29T18:00:00",25.2,29.889414,0.199],
    [22067,"urn:WaterMeter:MC0203J22010600005","2024-05-29T18:15:00",25.2,29.854853,0.213],
    [22068,"urn:WaterMeter:MC0203J22010600005","2024-05-29T18:30:00",25.1,29.840538,0.197],
    [22069,"urn:WaterMeter:MC0203J22010600005","2024-05-29T18:45:00",25.1,29.823858,0.204],
    [22070,"urn:WaterMeter:MC0203J22010600005","2024-05-29T19:00:00",25,29.81645,0.203],
    [22071,"urn:WaterMeter:MC0203J22010600005","2024-05-29T19:15:00",24.899,29.801361,0.21],
    [22072,"urn:WaterMeter:MC0203J22010600005","2024-05-29T19:30:00",24.799,29.751284,0.202],
    [22073,"urn:WaterMeter:MC0203J22010600005","2024-05-29T19:45:00",24.7,29.781965,0.196],
    [22074,"urn:WaterMeter:MC0203J22010600005","2024-05-29T20:00:00",24.6,29.737745,0.223],
    [22075,"urn:WaterMeter:MC0203J22010600005","2024-05-29T20:15:00",24.5,29.743176,0.204],
    [22076,"urn:WaterMeter:MC0203J22010600005","2024-05-29T20:30:00",24.399,29.70555,0.197],
    [22077,"urn:WaterMeter:MC0203J22010600005","2024-05-29T20:45:00",24.299,29.70008,0.199],
    [22078,"urn:WaterMeter:MC0203J22010600005","2024-05-29T21:00:00",24.2,29.678785,0.207],
    [22079,"urn:WaterMeter:MC0203J22010600005","2024-05-29T21:15:00",24.1,29.681849,0.206],
    [22080,"urn:WaterMeter:MC0203J22010600005","2024-05-29T21:30:00",24,29.665596,0.197],
    [22081,"urn:WaterMeter:MC0203J22010600005","2024-05-29T21:45:00",23.899,29.709816,0.207],
    [22082,"urn:WaterMeter:MC0203J22010600005","2024-05-29T22:00:00",23.799,29.643835,0.197],
    [22083,"urn:WaterMeter:MC0203J22010600005","2024-05-29T22:15:00",23.7,29.640383,0.207],
    [22084,"urn:WaterMeter:MC0203J22010600005","2024-05-29T22:30:00",23.6,29.651632,0.208],
    [22085,"urn:WaterMeter:MC0203J22010600005","2024-05-29T22:45:00",23.5,29.660902,0.205],
    [22086,"urn:WaterMeter:MC0203J22010600005","2024-05-29T23:00:00",23.399,29.617884,0.2],
    [22087,"urn:WaterMeter:MC0203J22010600005","2024-05-29T23:15:00",23.399,29.62991,0.215],
    [22088,"urn:WaterMeter:MC0203J22010600005","2024-05-29T23:30:00",23.299,29.642672,0.205],
    [22089,"urn:WaterMeter:MC0203J22010600005","2024-05-29T23:45:00",23.2,29.631073,0.208],
    [22090,"urn:WaterMeter:MC0203J22010600005","2024-05-30T00:00:00",23.1,29.589954,0.207],
    [22091,"urn:WaterMeter:MC0203J22010600005","2024-05-30T00:15:00",23,29.604269,0.208],
    [22092,"urn:WaterMeter:MC0203J22010600005","2024-05-30T00:30:00",22.899,29.585262,0.207],
    [22093,"urn:WaterMeter:MC0203J22010600005","2024-05-30T00:45:00",22.799,29.619047,0.2],
    [22094,"urn:WaterMeter:MC0203J22010600005","2024-05-30T01:00:00",22.7,29.58565,0.201],
    [22095,"urn:WaterMeter:MC0203J22010600005","2024-05-30T01:15:00",22.6,29.57056,0.201],
    [22096,"urn:WaterMeter:MC0203J22010600005","2024-05-30T01:30:00",22.5,29.547247,0.196],
    [22097,"urn:WaterMeter:MC0203J22010600005","2024-05-30T01:45:00",22.399,29.553104,0.202],
    [22098,"urn:WaterMeter:MC0203J22010600005","2024-05-30T02:00:00",22.299,29.582197,0.2],
    [22099,"urn:WaterMeter:MC0203J22010600005","2024-05-30T02:15:00",22.299,29.548023,0.195],
    [22100,"urn:WaterMeter:MC0203J22010600005","2024-05-30T02:30:00",22.2,29.554657,0.199],
    [22101,"urn:WaterMeter:MC0203J22010600005","2024-05-30T02:45:00",22.1,29.520134,0.209],
    [22102,"urn:WaterMeter:MC0203J22010600005","2024-05-30T03:00:00",22,29.543407,0.206],
    [22103,"urn:WaterMeter:MC0203J22010600005","2024-05-30T03:15:00",21.899,29.54108,0.203],
    [22104,"urn:WaterMeter:MC0203J22010600005","2024-05-30T03:30:00",21.799,29.509233,0.2],
    [22105,"urn:WaterMeter:MC0203J22010600005","2024-05-30T03:45:00",21.7,29.542244,0.201],
    [22106,"urn:WaterMeter:MC0203J22010600005","2024-05-30T04:00:00",21.6,29.513151,0.199],
    [22107,"urn:WaterMeter:MC0203J22010600005","2024-05-30T04:15:00",21.5,29.513151,0.204],
    [22108,"urn:WaterMeter:MC0203J22010600005","2024-05-30T04:30:00",21.5,29.532158,0.203],
    [22109,"urn:WaterMeter:MC0203J22010600005","2024-05-30T04:45:00",21.399,29.514702,0.199],
    [22110,"urn:WaterMeter:MC0203J22010600005","2024-05-30T05:00:00",21.299,29.51703,0.196],
    [22111,"urn:WaterMeter:MC0203J22010600005","2024-05-30T05:15:00",21.299,29.470444,0.201],
    [22112,"urn:WaterMeter:MC0203J22010600005","2024-05-30T05:30:00",21.2,29.501125,0.197],
    [22113,"urn:WaterMeter:MC0203J22010600005","2024-05-30T05:45:00",21.2,29.473585,0.2],
    [22114,"urn:WaterMeter:MC0203J22010600005","2024-05-30T06:00:00",21.1,29.468891,0.19],
    [22115,"urn:WaterMeter:MC0203J22010600005","2024-05-30T06:15:00",21.1,29.45066,0.193],
    [22116,"urn:WaterMeter:MC0203J22010600005","2024-05-30T06:30:00",21.2,29.462725,0.196],
    [22117,"urn:WaterMeter:MC0203J22010600005","2024-05-30T06:45:00",21.2,29.460745,0.201],
    [22118,"urn:WaterMeter:MC0203J22010600005","2024-05-30T07:00:00",21.299,29.363382,0.194],
    [22119,"urn:WaterMeter:MC0203J22010600005","2024-05-30T07:15:00",21.399,29.390924,0.19],
    [22120,"urn:WaterMeter:MC0203J22010600005","2024-05-30T07:30:00",21.6,29.313343,0.19],
    [22121,"urn:WaterMeter:MC0203J22010600005","2024-05-30T07:45:00",21.799,29.311056,0.19],
    [22122,"urn:WaterMeter:MC0203J22010600005","2024-05-30T08:00:00",21.899,29.261791,0.191],
    [22123,"urn:WaterMeter:MC0203J22010600005","2024-05-30T08:15:00",22.1,29.246237,0.195],
    [22124,"urn:WaterMeter:MC0203J22010600005","2024-05-30T08:30:00",22.299,29.162878,0.194],
    [22125,"urn:WaterMeter:MC0203J22010600005","2024-05-30T08:45:00",22.399,29.126802,0.204],
    [22126,"urn:WaterMeter:MC0203J22010600005","2024-05-30T09:00:00",22.6,29.110472,0.191],
    [22127,"urn:WaterMeter:MC0203J22010600005","2024-05-30T09:15:00",22.7,29.03099,0.188],
    [22128,"urn:WaterMeter:MC0203J22010600005","2024-05-30T09:30:00",22.899,28.949144,0.203],
    [22129,"urn:WaterMeter:MC0203J22010600005","2024-05-30T09:45:00",23.1,28.952635,0.201],
    [22130,"urn:WaterMeter:MC0203J22010600005","2024-05-30T10:00:00",23.299,28.81881,0.197],
    [22131,"urn:WaterMeter:MC0203J22010600005","2024-05-30T10:15:00",23.5,28.790842,0.187],
    [22132,"urn:WaterMeter:MC0203J22010600005","2024-05-30T10:30:00",23.7,28.77847,0.197],
    [22133,"urn:WaterMeter:MC0203J22010600005","2024-05-30T10:45:00",23.899,28.683393,0.189],
    [22134,"urn:WaterMeter:MC0203J22010600005","2024-05-30T11:00:00",24.1,28.61012,0.194],
    [22135,"urn:WaterMeter:MC0203J22010600005","2024-05-30T11:15:00",24.2,28.504223,0.194],
    [22136,"urn:WaterMeter:MC0203J22010600005","2024-05-30T11:30:00",24.399,28.447203,0.198],
    [22137,"urn:WaterMeter:MC0203J22010600005","2024-05-30T11:45:00",24.5,28.34596,0.194],
    [22138,"urn:WaterMeter:MC0203J22010600005","2024-05-30T12:00:00",24.7,28.287775,0.178],
    [22139,"urn:WaterMeter:MC0203J22010600005","2024-05-30T12:15:00",24.799,28.202826,0.185],
    [22140,"urn:WaterMeter:MC0203J22010600005","2024-05-30T12:30:00",25,28.14464,0.181],
    [22141,"urn:WaterMeter:MC0203J22010600005","2024-05-30T12:45:00",25.2,28.028658,0.191],
    [22142,"urn:WaterMeter:MC0203J22010600005","2024-05-30T13:00:00",25.299,27.963102,0.177],
    [22143,"urn:WaterMeter:MC0203J22010600005","2024-05-30T13:15:00",25.5,27.888588,0.184],
    [22144,"urn:WaterMeter:MC0203J22010600005","2024-05-30T13:30:00",25.6,27.76058,0.177],
    [22145,"urn:WaterMeter:MC0203J22010600005","2024-05-30T13:45:00",25.7,27.689245,0.193],
    [22146,"urn:WaterMeter:MC0203J22010600005","2024-05-30T14:00:00",25.799,27.61283,0.179],
    [22147,"urn:WaterMeter:MC0203J22010600005","2024-05-30T14:15:00",25.899,27.510386,0.19],
    [22148,"urn:WaterMeter:MC0203J22010600005","2024-05-30T14:30:00",26,27.445255,0.171],
    [22149,"urn:WaterMeter:MC0203J22010600005","2024-05-30T14:45:00",26.1,27.349833,0.179],
    [22150,"urn:WaterMeter:MC0203J22010600005","2024-05-30T15:00:00",26.1,27.291647,0.174],
    [22151,"urn:WaterMeter:MC0203J22010600005","2024-05-30T15:15:00",26.2,27.17295,0.173],
    [22152,"urn:WaterMeter:MC0203J22010600005","2024-05-30T15:30:00",26.299,27.096535,0.182],
    [22153,"urn:WaterMeter:MC0203J22010600005","2024-05-30T15:45:00",26.299,26.99568,0.188],
    [22154,"urn:WaterMeter:MC0203J22010600005","2024-05-30T16:00:00",26.299,26.89405,0.175],
    [22155,"urn:WaterMeter:MC0203J22010600005","2024-05-30T16:15:00",26.299,26.841644,0.176],
    [22156,"urn:WaterMeter:MC0203J22010600005","2024-05-30T16:30:00",26.299,26.785051,0.176],
    [22157,"urn:WaterMeter:MC0203J22010600005","2024-05-30T16:45:00",26.299,26.679543,0.173],
    [22158,"urn:WaterMeter:MC0203J22010600005","2024-05-30T17:00:00",26.299,26.664026,0.166],
    [22159,"urn:WaterMeter:MC0203J22010600005","2024-05-30T17:15:00",26.299,26.542612,0.173],
    [22160,"urn:WaterMeter:MC0203J22010600005","2024-05-30T17:30:00",26.299,26.51193,0.172],
    [22161,"urn:WaterMeter:MC0203J22010600005","2024-05-30T17:45:00",26.2,26.468136,0.178],
    [22162,"urn:WaterMeter:MC0203J22010600005","2024-05-30T18:00:00",26.2,26.37539,0.177],
    [22163,"urn:WaterMeter:MC0203J22010600005","2024-05-30T18:15:00",26.1,26.345133,0.183],
    [22164,"urn:WaterMeter:MC0203J22010600005","2024-05-30T18:30:00",26,26.286173,0.185],
    [22165,"urn:WaterMeter:MC0203J22010600005","2024-05-30T18:45:00",25.899,26.30712,0.169],
    [22166,"urn:WaterMeter:MC0203J22010600005","2024-05-30T19:00:00",25.799,26.206692,0.168],
    [22167,"urn:WaterMeter:MC0203J22010600005","2024-05-30T19:15:00",25.6,26.236172,0.177],
    [22168,"urn:WaterMeter:MC0203J22010600005","2024-05-30T19:30:00",25.5,26.197382,0.168],
    [22169,"urn:WaterMeter:MC0203J22010600005","2024-05-30T19:45:00",25.399,26.196606,0.178],
    [22170,"urn:WaterMeter:MC0203J22010600005","2024-05-30T20:00:00",25.2,26.190361,0.168],
    [22171,"urn:WaterMeter:MC0203J22010600005","2024-05-30T20:15:00",25.1,26.170578,0.169],
    [22172,"urn:WaterMeter:MC0203J22010600005","2024-05-30T20:30:00",25,26.139196,0.181],
    [22173,"urn:WaterMeter:MC0203J22010600005","2024-05-30T20:45:00",24.899,26.07946,0.178],
    [22174,"urn:WaterMeter:MC0203J22010600005","2024-05-30T21:00:00",24.799,26.07752,0.167],
    [22175,"urn:WaterMeter:MC0203J22010600005","2024-05-30T21:15:00",24.7,26.122906,0.17],
    [22176,"urn:WaterMeter:MC0203J22010600005","2024-05-30T21:30:00",24.6,26.096527,0.169],
    [22177,"urn:WaterMeter:MC0203J22010600005","2024-05-30T21:45:00",24.5,26.115108,0.173],
    [22178,"urn:WaterMeter:MC0203J22010600005","2024-05-30T22:00:00",24.399,26.07209,0.172],
    [22179,"urn:WaterMeter:MC0203J22010600005","2024-05-30T22:15:00",24.299,26.049591,0.174],
    [22180,"urn:WaterMeter:MC0203J22010600005","2024-05-30T22:30:00",24.299,26.058126,0.172],
    [22181,"urn:WaterMeter:MC0203J22010600005","2024-05-30T22:45:00",24.2,26.037954,0.178],
    [22182,"urn:WaterMeter:MC0203J22010600005","2024-05-30T23:00:00",24.1,25.999165,0.168],
    [22183,"urn:WaterMeter:MC0203J22010600005","2024-05-30T23:15:00",24,26.023214,0.169],
    [22184,"urn:WaterMeter:MC0203J22010600005","2024-05-30T23:30:00",23.899,25.99257,0.167],
    [22185,"urn:WaterMeter:MC0203J22010600005","2024-05-30T23:45:00",23.799,25.96503,0.177],
    [22186,"urn:WaterMeter:MC0203J22010600005","2024-05-31T00:00:00",23.799,26.00188,0.174],
    [22187,"urn:WaterMeter:MC0203J22010600005","2024-05-31T00:15:00",23.7,25.99994,0.169],
    [22188,"urn:WaterMeter:MC0203J22010600005","2024-05-31T00:30:00",23.6,25.981321,0.173],
    [22189,"urn:WaterMeter:MC0203J22010600005","2024-05-31T00:45:00",23.5,25.947575,0.168],
    [22190,"urn:WaterMeter:MC0203J22010600005","2024-05-31T01:00:00",23.399,25.983648,0.182],
    [22191,"urn:WaterMeter:MC0203J22010600005","2024-05-31T01:15:00",23.299,25.920383,0.172],
    [22192,"urn:WaterMeter:MC0203J22010600005","2024-05-31T01:30:00",23.2,25.938227,0.171],
    [22193,"urn:WaterMeter:MC0203J22010600005","2024-05-31T01:45:00",23.1,25.918055,0.172],
    [22194,"urn:WaterMeter:MC0203J22010600005","2024-05-31T02:00:00",23,25.919218,0.171],
    [22195,"urn:WaterMeter:MC0203J22010600005","2024-05-31T02:15:00",22.899,25.885122,0.179],
    [22196,"urn:WaterMeter:MC0203J22010600005","2024-05-31T02:30:00",22.799,25.927015,0.17],
    [22197,"urn:WaterMeter:MC0203J22010600005","2024-05-31T02:45:00",22.7,25.894045,0.167],
    [22198,"urn:WaterMeter:MC0203J22010600005","2024-05-31T03:00:00",22.7,25.880428,0.171],
    [22199,"urn:WaterMeter:MC0203J22010600005","2024-05-31T03:15:00",22.6,25.87465,0.17],
    [22200,"urn:WaterMeter:MC0203J22010600005","2024-05-31T03:30:00",22.5,25.936712,0.168],
    [22201,"urn:WaterMeter:MC0203J22010600005","2024-05-31T03:45:00",22.399,25.87465,0.175],
    [22202,"urn:WaterMeter:MC0203J22010600005","2024-05-31T04:00:00",22.299,25.87077,0.164],
    [22203,"urn:WaterMeter:MC0203J22010600005","2024-05-31T04:15:00",22.2,25.876589,0.162],
    [22204,"urn:WaterMeter:MC0203J22010600005","2024-05-31T04:30:00",22.1,25.825386,0.175],
    [22205,"urn:WaterMeter:MC0203J22010600005","2024-05-31T04:45:00",22.1,25.845945,0.169],
    [22206,"urn:WaterMeter:MC0203J22010600005","2024-05-31T05:00:00",22,25.809093,0.18],
    [22207,"urn:WaterMeter:MC0203J22010600005","2024-05-31T05:15:00",21.899,25.848272,0.162],
    [22208,"urn:WaterMeter:MC0203J22010600005","2024-05-31T05:30:00",21.899,25.798233,0.167],
    [22209,"urn:WaterMeter:MC0203J22010600005","2024-05-31T05:45:00",21.799,25.805216,0.166],
    [22210,"urn:WaterMeter:MC0203J22010600005","2024-05-31T06:00:00",21.799,25.774532,0.168],
    [22211,"urn:WaterMeter:MC0203J22010600005","2024-05-31T06:15:00",21.899,25.76367,0.167],
    [22212,"urn:WaterMeter:MC0203J22010600005","2024-05-31T06:30:00",21.899,25.74897,0.169],
    [22213,"urn:WaterMeter:MC0203J22010600005","2024-05-31T06:45:00",22,25.7544,0.169],
    [22214,"urn:WaterMeter:MC0203J22010600005","2024-05-31T07:00:00",22.2,25.75475,0.181],
    [22215,"urn:WaterMeter:MC0203J22010600005","2024-05-31T07:15:00",22.399,25.681087,0.162],
    [22216,"urn:WaterMeter:MC0203J22010600005","2024-05-31T07:30:00",22.5,25.652382,0.171],
    [22217,"urn:WaterMeter:MC0203J22010600005","2024-05-31T07:45:00",22.7,25.653545,0.166],
    [22218,"urn:WaterMeter:MC0203J22010600005","2024-05-31T08:00:00",22.799,25.567432,0.171],
    [22219,"urn:WaterMeter:MC0203J22010600005","2024-05-31T08:15:00",23,25.502266,0.16],
    [22220,"urn:WaterMeter:MC0203J22010600005","2024-05-31T08:30:00",23.1,25.653158,0.175],
    [22221,"urn:WaterMeter:MC0203J22010600005","2024-05-31T08:45:00",23.2,26.58567,0.196],
    [22222,"urn:WaterMeter:MC0203J22010600005","2024-05-31T09:00:00",23.299,28.511982,0.205],
    [22223,"urn:WaterMeter:MC0203J22010600005","2024-05-31T09:15:00",23.5,29.896357,0.213],
    [22224,"urn:WaterMeter:MC0203J22010600005","2024-05-31T09:30:00",23.7,30.522467,0.212],
    [22225,"urn:WaterMeter:MC0203J22010600005","2024-05-31T09:45:00",23.799,30.843998,0.211],
    [22226,"urn:WaterMeter:MC0203J22010600005","2024-05-31T10:00:00",23.899,30.91347,0.214],
    [22227,"urn:WaterMeter:MC0203J22010600005","2024-05-31T10:15:00",24,31.0151,0.22],
    [22228,"urn:WaterMeter:MC0203J22010600005","2024-05-31T10:30:00",24.2,30.974758,0.22],
    [22229,"urn:WaterMeter:MC0203J22010600005","2024-05-31T10:45:00",24.299,30.984068,0.208],
    [22230,"urn:WaterMeter:MC0203J22010600005","2024-05-31T11:00:00",24.399,30.972004,0.228],
    [22231,"urn:WaterMeter:MC0203J22010600005","2024-05-31T11:15:00",24.399,30.919676,0.215],
    [22232,"urn:WaterMeter:MC0203J22010600005","2024-05-31T11:30:00",24.5,30.922354,0.211],
    [22233,"urn:WaterMeter:MC0203J22010600005","2024-05-31T11:45:00",24.5,30.882788,0.214],
    [22234,"urn:WaterMeter:MC0203J22010600005","2024-05-31T12:00:00",24.6,30.835503,0.211],
    [22235,"urn:WaterMeter:MC0203J22010600005","2024-05-31T12:15:00",24.6,30.784687,0.219],
    [22236,"urn:WaterMeter:MC0203J22010600005","2024-05-31T12:30:00",24.7,30.744734,0.215],
    [22237,"urn:WaterMeter:MC0203J22010600005","2024-05-31T12:45:00",24.7,30.68263,0.211],
    [22238,"urn:WaterMeter:MC0203J22010600005","2024-05-31T13:00:00",24.799,30.670994,0.205],
    [22239,"urn:WaterMeter:MC0203J22010600005","2024-05-31T13:15:00",24.799,30.614748,0.205],
    [22240,"urn:WaterMeter:MC0203J22010600005","2024-05-31T13:30:00",24.899,30.565485,0.207],
    [22241,"urn:WaterMeter:MC0203J22010600005","2024-05-31T13:45:00",24.899,30.495275,0.222],
    [22242,"urn:WaterMeter:MC0203J22010600005","2024-05-31T14:00:00",24.899,30.48329,0.209],
    [22243,"urn:WaterMeter:MC0203J22010600005","2024-05-31T14:15:00",24.899,30.420023,0.222],
    [22244,"urn:WaterMeter:MC0203J22010600005","2024-05-31T14:30:00",24.899,30.408424,0.212],
    [22245,"urn:WaterMeter:MC0203J22010600005","2024-05-31T14:45:00",24.899,30.347912,0.212],
    [22246,"urn:WaterMeter:MC0203J22010600005","2024-05-31T15:00:00",24.899,30.30757,0.203],
    [22247,"urn:WaterMeter:MC0203J22010600005","2024-05-31T15:15:00",24.799,30.242016,0.211],
    [22248,"urn:WaterMeter:MC0203J22010600005","2024-05-31T15:30:00",24.799,30.223745,0.211],
    [22249,"urn:WaterMeter:MC0203J22010600005","2024-05-31T15:45:00",24.799,30.212147,0.212],
    [22250,"urn:WaterMeter:MC0203J22010600005","2024-05-31T16:00:00",24.7,30.131851,0.214],
    [22251,"urn:WaterMeter:MC0203J22010600005","2024-05-31T16:15:00",24.7,30.139183,0.201],
    [22252,"urn:WaterMeter:MC0203J22010600005","2024-05-31T16:30:00",24.6,30.09151,0.205],
    [22253,"urn:WaterMeter:MC0203J22010600005","2024-05-31T16:45:00",24.5,30.079834,0.214],
    [22254,"urn:WaterMeter:MC0203J22010600005","2024-05-31T17:00:00",24.5,30.038755,0.205],
    [22255,"urn:WaterMeter:MC0203J22010600005","2024-05-31T17:15:00",24.5,30.017033,0.208],
    [22256,"urn:WaterMeter:MC0203J22010600005","2024-05-31T17:30:00",24.399,29.983635,0.223],
    [22257,"urn:WaterMeter:MC0203J22010600005","2024-05-31T17:45:00",24.399,29.918894,0.213],
    [22258,"urn:WaterMeter:MC0203J22010600005","2024-05-31T18:00:00",24.299,29.904154,0.202],
    [22259,"urn:WaterMeter:MC0203J22010600005","2024-05-31T18:15:00",24.2,29.899887,0.204],
    [22260,"urn:WaterMeter:MC0203J22010600005","2024-05-31T18:30:00",24.1,29.871183,0.197],
    [22261,"urn:WaterMeter:MC0203J22010600005","2024-05-31T18:45:00",24,29.86226,0.202],
    [22262,"urn:WaterMeter:MC0203J22010600005","2024-05-31T19:00:00",24,29.87157,0.204],
    [22263,"urn:WaterMeter:MC0203J22010600005","2024-05-31T19:15:00",23.899,29.848257,0.207],
    [22264,"urn:WaterMeter:MC0203J22010600005","2024-05-31T19:30:00",23.799,29.86265,0.2],
    [22265,"urn:WaterMeter:MC0203J22010600005","2024-05-31T19:45:00",23.7,29.83701,0.204],
    [22266,"urn:WaterMeter:MC0203J22010600005","2024-05-31T20:00:00",23.7,29.792051,0.203],
    [22267,"urn:WaterMeter:MC0203J22010600005","2024-05-31T20:15:00",23.6,29.819166,0.219],
    [22268,"urn:WaterMeter:MC0203J22010600005","2024-05-31T20:30:00",23.6,29.797443,0.205],
    [22269,"urn:WaterMeter:MC0203J22010600005","2024-05-31T20:45:00",23.6,29.77029,0.206],
    [22270,"urn:WaterMeter:MC0203J22010600005","2024-05-31T21:00:00",23.5,29.756365,0.207],
    [22271,"urn:WaterMeter:MC0203J22010600005","2024-05-31T21:15:00",23.399,29.740034,0.199],
    [22272,"urn:WaterMeter:MC0203J22010600005","2024-05-31T21:30:00",23.399,29.732275,0.198],
    [22273,"urn:WaterMeter:MC0203J22010600005","2024-05-31T21:45:00",23.299,29.742788,0.202],
    [22274,"urn:WaterMeter:MC0203J22010600005","2024-05-31T22:00:00",23.299,29.715635,0.204],
    [22275,"urn:WaterMeter:MC0203J22010600005","2024-05-31T22:15:00",23.299,29.716412,0.201],
    [22276,"urn:WaterMeter:MC0203J22010600005","2024-05-31T22:30:00",23.299,29.729212,0.214],
    [22277,"urn:WaterMeter:MC0203J22010600005","2024-05-31T22:45:00",23.2,29.712492,0.204],
    [22278,"urn:WaterMeter:MC0203J22010600005","2024-05-31T23:00:00",23.2,29.664005,0.202],
    [22279,"urn:WaterMeter:MC0203J22010600005","2024-05-31T23:15:00",23.2,29.699343,0.199],
    [22280,"urn:WaterMeter:MC0203J22010600005","2024-05-31T23:30:00",23.2,29.678396,0.203],
    [22281,"urn:WaterMeter:MC0203J22010600005","2024-05-31T23:45:00",23.2,29.639606,0.199],
    [22282,"urn:WaterMeter:MC0203J22010600005","2024-06-01T00:00:00",23.2,29.667923,0.201],
    [22283,"urn:WaterMeter:MC0203J22010600005","2024-06-01T00:15:00",23.1,29.6225,0.198],
    [22284,"urn:WaterMeter:MC0203J22010600005","2024-06-01T00:30:00",23,29.6559,0.213],
    [22285,"urn:WaterMeter:MC0203J22010600005","2024-06-01T00:45:00",23,29.621376,0.2],
    [22286,"urn:WaterMeter:MC0203J22010600005","2024-06-01T01:00:00",22.899,29.631073,0.202],
    [22287,"urn:WaterMeter:MC0203J22010600005","2024-06-01T01:15:00",22.899,29.63185,0.199],
    [22288,"urn:WaterMeter:MC0203J22010600005","2024-06-01T01:30:00",22.899,29.593834,0.213],
    [22289,"urn:WaterMeter:MC0203J22010600005","2024-06-01T01:45:00",22.799,29.605433,0.214],
    [22290,"urn:WaterMeter:MC0203J22010600005","2024-06-01T02:00:00",22.799,29.566254,0.196],
    [22291,"urn:WaterMeter:MC0203J22010600005","2024-06-01T02:15:00",22.799,29.610514,0.201],
    [22292,"urn:WaterMeter:MC0203J22010600005","2024-06-01T02:30:00",22.799,29.586813,0.197],
    [22293,"urn:WaterMeter:MC0203J22010600005","2024-06-01T02:45:00",22.799,29.56319,0.206],
    [22294,"urn:WaterMeter:MC0203J22010600005","2024-06-01T03:00:00",22.7,29.55772,0.202],
    [22295,"urn:WaterMeter:MC0203J22010600005","2024-06-01T03:15:00",22.7,29.55194,0.205],
    [22296,"urn:WaterMeter:MC0203J22010600005","2024-06-01T03:30:00",22.6,29.571724,0.205],
    [22297,"urn:WaterMeter:MC0203J22010600005","2024-06-01T03:45:00",22.6,29.537163,0.21],
    [22298,"urn:WaterMeter:MC0203J22010600005","2024-06-01T04:00:00",22.5,29.549225,0.203],
    [22299,"urn:WaterMeter:MC0203J22010600005","2024-06-01T04:15:00",22.5,29.51893,0.202],
    [22300,"urn:WaterMeter:MC0203J22010600005","2024-06-01T04:30:00",22.399,29.532934,0.2],
    [22301,"urn:WaterMeter:MC0203J22010600005","2024-06-01T04:45:00",22.399,29.532158,0.206],
    [22302,"urn:WaterMeter:MC0203J22010600005","2024-06-01T05:00:00",22.299,29.562027,0.211],
    [22303,"urn:WaterMeter:MC0203J22010600005","2024-06-01T05:15:00",22.299,29.504229,0.195],
    [22304,"urn:WaterMeter:MC0203J22010600005","2024-06-01T05:30:00",22.299,29.521297,0.198],
    [22305,"urn:WaterMeter:MC0203J22010600005","2024-06-01T05:45:00",22.299,29.482508,0.199],
    [22306,"urn:WaterMeter:MC0203J22010600005","2024-06-01T06:00:00",22.299,29.503454,0.193],
    [22307,"urn:WaterMeter:MC0203J22010600005","2024-06-01T06:15:00",22.299,29.468117,0.207],
    [22308,"urn:WaterMeter:MC0203J22010600005","2024-06-01T06:30:00",22.299,29.488287,0.195],
    [22309,"urn:WaterMeter:MC0203J22010600005","2024-06-01T06:45:00",22.299,29.496471,0.214],
    [22310,"urn:WaterMeter:MC0203J22010600005","2024-06-01T07:00:00",22.299,29.481344,0.195],
    [22311,"urn:WaterMeter:MC0203J22010600005","2024-06-01T07:15:00",22.299,29.438675,0.203],
    [22312,"urn:WaterMeter:MC0203J22010600005","2024-06-01T07:30:00",22.299,29.43402,0.203],
    [22313,"urn:WaterMeter:MC0203J22010600005","2024-06-01T07:45:00",22.399,29.392475,0.199],
    [22314,"urn:WaterMeter:MC0203J22010600005","2024-06-01T08:00:00",22.399,29.352522,0.194],
    [22315,"urn:WaterMeter:MC0203J22010600005","2024-06-01T08:15:00",22.399,29.34131,0.203],
    [22316,"urn:WaterMeter:MC0203J22010600005","2024-06-01T08:30:00",22.399,29.31959,0.199],
    [22317,"urn:WaterMeter:MC0203J22010600005","2024-06-01T08:45:00",22.299,29.275717,0.21],
    [22318,"urn:WaterMeter:MC0203J22010600005","2024-06-01T09:00:00",22.399,29.261017,0.194],
    [22319,"urn:WaterMeter:MC0203J22010600005","2024-06-01T09:15:00",22.399,29.253996,0.197],
    [22320,"urn:WaterMeter:MC0203J22010600005","2024-06-01T09:30:00",22.399,29.267223,0.195],
    [22321,"urn:WaterMeter:MC0203J22010600005","2024-06-01T09:45:00",22.399,29.226843,0.208],
    [22322,"urn:WaterMeter:MC0203J22010600005","2024-06-01T10:00:00",22.399,29.196198,0.205],
    [22323,"urn:WaterMeter:MC0203J22010600005","2024-06-01T10:15:00",22.399,29.159348,0.204],
    [22324,"urn:WaterMeter:MC0203J22010600005","2024-06-01T10:30:00",22.399,29.129868,0.2],
    [22325,"urn:WaterMeter:MC0203J22010600005","2024-06-01T10:45:00",22.5,29.114002,0.2],
    [22326,"urn:WaterMeter:MC0203J22010600005","2024-06-01T11:00:00",22.6,29.053062,0.193],
    [22327,"urn:WaterMeter:MC0203J22010600005","2024-06-01T11:15:00",22.7,29.024784,0.197],
    [22328,"urn:WaterMeter:MC0203J22010600005","2024-06-01T11:30:00",22.7,29.018967,0.206],
    [22329,"urn:WaterMeter:MC0203J22010600005","2024-06-01T11:45:00",22.799,28.944063,0.194],
    [22330,"urn:WaterMeter:MC0203J22010600005","2024-06-01T12:00:00",22.899,28.882814,0.196],
    [22331,"urn:WaterMeter:MC0203J22010600005","2024-06-01T12:15:00",22.899,28.826918,0.189],
    [22332,"urn:WaterMeter:MC0203J22010600005","2024-06-01T12:30:00",23,28.83549,0.19],
    [22333,"urn:WaterMeter:MC0203J22010600005","2024-06-01T12:45:00",23,28.733046,0.198],
    [22334,"urn:WaterMeter:MC0203J22010600005","2024-06-01T13:00:00",23.1,28.727654,0.189],
    [22335,"urn:WaterMeter:MC0203J22010600005","2024-06-01T13:15:00",23.1,28.68576,0.196],
    [22336,"urn:WaterMeter:MC0203J22010600005","2024-06-01T13:30:00",23.2,28.604689,0.191],
    [22337,"urn:WaterMeter:MC0203J22010600005","2024-06-01T13:45:00",23.2,28.582191,0.185],
    [22338,"urn:WaterMeter:MC0203J22010600005","2024-06-01T14:00:00",23.299,28.506163,0.198],
    [22339,"urn:WaterMeter:MC0203J22010600005","2024-06-01T14:15:00",23.299,28.510391,0.188],
    [22340,"urn:WaterMeter:MC0203J22010600005","2024-06-01T14:30:00",23.299,28.396774,0.193],
    [22341,"urn:WaterMeter:MC0203J22010600005","2024-06-01T14:45:00",23.399,28.407248,0.196],
    [22342,"urn:WaterMeter:MC0203J22010600005","2024-06-01T15:00:00",23.399,28.319971,0.186],
    [22343,"urn:WaterMeter:MC0203J22010600005","2024-06-01T15:15:00",23.399,28.300575,0.201],
    [22344,"urn:WaterMeter:MC0203J22010600005","2024-06-01T15:30:00",23.399,28.25364,0.193],
    [22345,"urn:WaterMeter:MC0203J22010600005","2024-06-01T15:45:00",23.399,28.197006,0.181],
    [22346,"urn:WaterMeter:MC0203J22010600005","2024-06-01T16:00:00",23.399,28.149256,0.182],
    [22347,"urn:WaterMeter:MC0203J22010600005","2024-06-01T16:15:00",23.399,28.117487,0.187],
    [22348,"urn:WaterMeter:MC0203J22010600005","2024-06-01T16:30:00",23.399,28.109303,0.19],
    [22349,"urn:WaterMeter:MC0203J22010600005","2024-06-01T16:45:00",23.299,28.067835,0.185],
    [22350,"urn:WaterMeter:MC0203J22010600005","2024-06-01T17:00:00",23.2,28.025942,0.19],
    [22351,"urn:WaterMeter:MC0203J22010600005","2024-06-01T17:15:00",23.1,28.012327,0.188],
    [22352,"urn:WaterMeter:MC0203J22010600005","2024-06-01T17:30:00",23,27.981335,0.176],
    [22353,"urn:WaterMeter:MC0203J22010600005","2024-06-01T17:45:00",22.899,27.95806,0.194],
    [22354,"urn:WaterMeter:MC0203J22010600005","2024-06-01T18:00:00",22.899,27.94716,0.191],
    [22355,"urn:WaterMeter:MC0203J22010600005","2024-06-01T18:15:00",22.799,27.952242,0.183],
    [22356,"urn:WaterMeter:MC0203J22010600005","2024-06-01T18:30:00",22.7,27.961939,0.187],
    [22357,"urn:WaterMeter:MC0203J22010600005","2024-06-01T18:45:00",22.7,27.88397,0.186],
    [22358,"urn:WaterMeter:MC0203J22010600005","2024-06-01T19:00:00",22.6,27.87311,0.192],
    [22359,"urn:WaterMeter:MC0203J22010600005","2024-06-01T19:15:00",22.6,27.898285,0.184],
    [22360,"urn:WaterMeter:MC0203J22010600005","2024-06-01T19:30:00",22.6,27.878502,0.185],
    [22361,"urn:WaterMeter:MC0203J22010600005","2024-06-01T19:45:00",22.6,27.882032,0.19],
    [22362,"urn:WaterMeter:MC0203J22010600005","2024-06-01T20:00:00",22.5,27.830402,0.184],
    [22363,"urn:WaterMeter:MC0203J22010600005","2024-06-01T20:15:00",22.5,27.804064,0.184],
    [22364,"urn:WaterMeter:MC0203J22010600005","2024-06-01T20:30:00",22.399,27.798983,0.185],
    [22365,"urn:WaterMeter:MC0203J22010600005","2024-06-01T20:45:00",22.299,27.820316,0.194],
    [22366,"urn:WaterMeter:MC0203J22010600005","2024-06-01T21:00:00",22.299,27.81376,0.185],
    [22367,"urn:WaterMeter:MC0203J22010600005","2024-06-01T21:15:00",22.2,27.784668,0.178],
    [22368,"urn:WaterMeter:MC0203J22010600005","2024-06-01T21:30:00",22.2,27.80833,0.19],
    [22369,"urn:WaterMeter:MC0203J22010600005","2024-06-01T21:45:00",22.2,27.782303,0.191],
    [22370,"urn:WaterMeter:MC0203J22010600005","2024-06-01T22:00:00",22.2,27.771091,0.185],
    [22371,"urn:WaterMeter:MC0203J22010600005","2024-06-01T22:15:00",22.1,27.733814,0.188],
    [22372,"urn:WaterMeter:MC0203J22010600005","2024-06-01T22:30:00",22.1,27.722954,0.18],
    [22373,"urn:WaterMeter:MC0203J22010600005","2024-06-01T22:45:00",22.1,27.743124,0.188],
    [22374,"urn:WaterMeter:MC0203J22010600005","2024-06-01T23:00:00",22.1,27.727648,0.184],
    [22375,"urn:WaterMeter:MC0203J22010600005","2024-06-01T23:15:00",22,27.72179,0.191],
    [22376,"urn:WaterMeter:MC0203J22010600005","2024-06-01T23:30:00",22,27.711744,0.184],
    [22377,"urn:WaterMeter:MC0203J22010600005","2024-06-01T23:45:00",22,27.702784,0.179],
    [22378,"urn:WaterMeter:MC0203J22010600005","2024-06-02T00:00:00",22,27.684551,0.186],
    [22379,"urn:WaterMeter:MC0203J22010600005","2024-06-02T00:15:00",21.899,27.715622,0.187],
    [22380,"urn:WaterMeter:MC0203J22010600005","2024-06-02T00:30:00",21.899,27.685328,0.183],
    [22381,"urn:WaterMeter:MC0203J22010600005","2024-06-02T00:45:00",21.899,27.643822,0.181],
    [22382,"urn:WaterMeter:MC0203J22010600005","2024-06-02T01:00:00",21.799,27.65511,0.183],
    [22383,"urn:WaterMeter:MC0203J22010600005","2024-06-02T01:15:00",21.799,27.673729,0.182],
    [22384,"urn:WaterMeter:MC0203J22010600005","2024-06-02T01:30:00",21.799,27.635715,0.203],
    [22385,"urn:WaterMeter:MC0203J22010600005","2024-06-02T01:45:00",21.7,27.625202,0.187],
    [22386,"urn:WaterMeter:MC0203J22010600005","2024-06-02T02:00:00",21.7,27.634163,0.178],
    [22387,"urn:WaterMeter:MC0203J22010600005","2024-06-02T02:15:00",21.7,27.622915,0.186],
    [22388,"urn:WaterMeter:MC0203J22010600005","2024-06-02T02:30:00",21.6,27.617445,0.182],
    [22389,"urn:WaterMeter:MC0203J22010600005","2024-06-02T02:45:00",21.6,27.551153,0.181],
    [22390,"urn:WaterMeter:MC0203J22010600005","2024-06-02T03:00:00",21.5,27.633,0.178],
    [22391,"urn:WaterMeter:MC0203J22010600005","2024-06-02T03:15:00",21.399,27.602356,0.182],
    [22392,"urn:WaterMeter:MC0203J22010600005","2024-06-02T03:30:00",21.399,27.589943,0.185],
    [22393,"urn:WaterMeter:MC0203J22010600005","2024-06-02T03:45:00",21.299,27.588352,0.181],
    [22394,"urn:WaterMeter:MC0203J22010600005","2024-06-02T04:00:00",21.299,27.59964,0.175],
    [22395,"urn:WaterMeter:MC0203J22010600005","2024-06-02T04:15:00",21.2,27.57404,0.196],
    [22396,"urn:WaterMeter:MC0203J22010600005","2024-06-02T04:30:00",21.2,27.58296,0.184],
    [22397,"urn:WaterMeter:MC0203J22010600005","2024-06-02T04:45:00",21.1,27.548786,0.183],
    [22398,"urn:WaterMeter:MC0203J22010600005","2024-06-02T05:00:00",21.1,27.566242,0.197],
    [22399,"urn:WaterMeter:MC0203J22010600005","2024-06-02T05:15:00",21,27.503054,0.185],
    [22400,"urn:WaterMeter:MC0203J22010600005","2024-06-02T05:30:00",21,27.52784,0.178],
    [22401,"urn:WaterMeter:MC0203J22010600005","2024-06-02T05:45:00",21,27.484047,0.177],
    [22402,"urn:WaterMeter:MC0203J22010600005","2024-06-02T06:00:00",20.899,27.48905,0.186],
    [22403,"urn:WaterMeter:MC0203J22010600005","2024-06-02T06:15:00",21,27.515467,0.196],
    [22404,"urn:WaterMeter:MC0203J22010600005","2024-06-02T06:30:00",21,27.46853,0.181],
    [22405,"urn:WaterMeter:MC0203J22010600005","2024-06-02T06:45:00",21,27.460384,0.175],
    [22406,"urn:WaterMeter:MC0203J22010600005","2024-06-02T07:00:00",21.1,27.485598,0.172],
    [22407,"urn:WaterMeter:MC0203J22010600005","2024-06-02T07:15:00",21.2,27.414185,0.182],
    [22408,"urn:WaterMeter:MC0203J22010600005","2024-06-02T07:30:00",21.299,27.416552,0.177],
    [22409,"urn:WaterMeter:MC0203J22010600005","2024-06-02T07:45:00",21.299,27.366512,0.178],
    [22410,"urn:WaterMeter:MC0203J22010600005","2024-06-02T08:00:00",21.5,27.364534,0.175],
    [22411,"urn:WaterMeter:MC0203J22010600005","2024-06-02T08:15:00",21.6,27.33742,0.18],
    [22412,"urn:WaterMeter:MC0203J22010600005","2024-06-02T08:30:00",21.7,27.307125,0.188],
    [22413,"urn:WaterMeter:MC0203J22010600005","2024-06-02T08:45:00",21.799,27.249716,0.179],
    [22414,"urn:WaterMeter:MC0203J22010600005","2024-06-02T09:00:00",21.899,27.202044,0.178],
    [22415,"urn:WaterMeter:MC0203J22010600005","2024-06-02T09:15:00",22,27.169847,0.162],
    [22416,"urn:WaterMeter:MC0203J22010600005","2024-06-02T09:30:00",22,27.173338,0.176],
    [22417,"urn:WaterMeter:MC0203J22010600005","2024-06-02T09:45:00",22.2,27.097698,0.177],
    [22418,"urn:WaterMeter:MC0203J22010600005","2024-06-02T10:00:00",22.299,27.074774,0.171],
    [22419,"urn:WaterMeter:MC0203J22010600005","2024-06-02T10:15:00",22.5,27.0399,0.174],
    [22420,"urn:WaterMeter:MC0203J22010600005","2024-06-02T10:30:00",22.6,26.95534,0.176],
    [22421,"urn:WaterMeter:MC0203J22010600005","2024-06-02T10:45:00",22.799,26.860264,0.176],
    [22422,"urn:WaterMeter:MC0203J22010600005","2024-06-02T11:00:00",23.1,26.814919,0.179],
    [22423,"urn:WaterMeter:MC0203J22010600005","2024-06-02T11:15:00",23.2,26.744282,0.175],
    [22424,"urn:WaterMeter:MC0203J22010600005","2024-06-02T11:30:00",23.299,26.68536,0.171],
    [22425,"urn:WaterMeter:MC0203J22010600005","2024-06-02T11:45:00",23.299,26.653164,0.17],
    [22426,"urn:WaterMeter:MC0203J22010600005","2024-06-02T12:00:00",23.399,26.577486,0.172],
    [22427,"urn:WaterMeter:MC0203J22010600005","2024-06-02T12:15:00",23.5,26.551922,0.187],
    [22428,"urn:WaterMeter:MC0203J22010600005","2024-06-02T12:30:00",23.5,26.472015,0.17],
    [22429,"urn:WaterMeter:MC0203J22010600005","2024-06-02T12:45:00",23.6,26.418486,0.173],
    [22430,"urn:WaterMeter:MC0203J22010600005","2024-06-02T13:00:00",23.7,26.344746,0.175],
    [22431,"urn:WaterMeter:MC0203J22010600005","2024-06-02T13:15:00",23.7,26.273798,0.173],
    [22432,"urn:WaterMeter:MC0203J22010600005","2024-06-02T13:30:00",23.7,26.239275,0.166],
    [22433,"urn:WaterMeter:MC0203J22010600005","2024-06-02T13:45:00",23.799,26.167513,0.176],
    [22434,"urn:WaterMeter:MC0203J22010600005","2024-06-02T14:00:00",23.799,26.08334,0.173],
    [22435,"urn:WaterMeter:MC0203J22010600005","2024-06-02T14:15:00",23.799,26.001492,0.176],
    [22436,"urn:WaterMeter:MC0203J22010600005","2024-06-02T14:30:00",23.899,25.951841,0.17],
    [22437,"urn:WaterMeter:MC0203J22010600005","2024-06-02T14:45:00",23.899,25.923525,0.171],
    [22438,"urn:WaterMeter:MC0203J22010600005","2024-06-02T15:00:00",23.899,25.83043,0.167],
    [22439,"urn:WaterMeter:MC0203J22010600005","2024-06-02T15:15:00",23.899,25.77651,0.177],
    [22440,"urn:WaterMeter:MC0203J22010600005","2024-06-02T15:30:00",23.899,25.705097,0.17],
    [22441,"urn:WaterMeter:MC0203J22010600005","2024-06-02T15:45:00",23.899,25.676432,0.163],
    [22442,"urn:WaterMeter:MC0203J22010600005","2024-06-02T16:00:00",23.899,25.636478,0.165],
    [22443,"urn:WaterMeter:MC0203J22010600005","2024-06-02T16:15:00",23.799,25.587952,0.18],
    [22444,"urn:WaterMeter:MC0203J22010600005","2024-06-02T16:30:00",23.799,25.506533,0.174],
    [22445,"urn:WaterMeter:MC0203J22010600005","2024-06-02T16:45:00",23.799,25.49567,0.163],
    [22446,"urn:WaterMeter:MC0203J22010600005","2024-06-02T17:00:00",23.7,25.446795,0.168],
    [22447,"urn:WaterMeter:MC0203J22010600005","2024-06-02T17:15:00",23.7,25.376547,0.164],
    [22448,"urn:WaterMeter:MC0203J22010600005","2024-06-02T17:30:00",23.7,25.356377,0.162],
    [22449,"urn:WaterMeter:MC0203J22010600005","2024-06-02T17:45:00",23.6,25.336594,0.165],
    [22450,"urn:WaterMeter:MC0203J22010600005","2024-06-02T18:00:00",23.6,25.268362,0.171],
    [22451,"urn:WaterMeter:MC0203J22010600005","2024-06-02T18:15:00",23.5,25.214443,0.165],
    [22452,"urn:WaterMeter:MC0203J22010600005","2024-06-02T18:30:00",23.399,25.244312,0.163],
    [22453,"urn:WaterMeter:MC0203J22010600005","2024-06-02T18:45:00",23.299,25.208624,0.162],
    [22454,"urn:WaterMeter:MC0203J22010600005","2024-06-02T19:00:00",23.299,25.158587,0.167],
    [22455,"urn:WaterMeter:MC0203J22010600005","2024-06-02T19:15:00",23.2,25.15428,0.17],
    [22456,"urn:WaterMeter:MC0203J22010600005","2024-06-02T19:30:00",23.1,25.12833,0.164],
    [22457,"urn:WaterMeter:MC0203J22010600005","2024-06-02T19:45:00",23,25.126778,0.164],
    [22458,"urn:WaterMeter:MC0203J22010600005","2024-06-02T20:00:00",23,25.076313,0.159],
    [22459,"urn:WaterMeter:MC0203J22010600005","2024-06-02T20:15:00",22.899,25.063162,0.163],
    [22460,"urn:WaterMeter:MC0203J22010600005","2024-06-02T20:30:00",22.799,25.046057,0.163],
    [22461,"urn:WaterMeter:MC0203J22010600005","2024-06-02T20:45:00",22.799,25.083683,0.179],
    [22462,"urn:WaterMeter:MC0203J22010600005","2024-06-02T21:00:00",22.7,25.035234,0.159],
    [22463,"urn:WaterMeter:MC0203J22010600005","2024-06-02T21:15:00",22.7,25.030966,0.158],
    [22464,"urn:WaterMeter:MC0203J22010600005","2024-06-02T21:30:00",22.6,25.03791,0.158],
    [22465,"urn:WaterMeter:MC0203J22010600005","2024-06-02T21:45:00",22.6,24.988647,0.159],
    [22466,"urn:WaterMeter:MC0203J22010600005","2024-06-02T22:00:00",22.5,25.018904,0.169],
    [22467,"urn:WaterMeter:MC0203J22010600005","2024-06-02T22:15:00",22.5,24.982092,0.165],
    [22468,"urn:WaterMeter:MC0203J22010600005","2024-06-02T22:30:00",22.5,24.95455,0.165],
    [22469,"urn:WaterMeter:MC0203J22010600005","2024-06-02T22:45:00",22.399,24.944077,0.16],
    [22470,"urn:WaterMeter:MC0203J22010600005","2024-06-02T23:00:00",22.399,24.958817,0.156],
    [22471,"urn:WaterMeter:MC0203J22010600005","2024-06-02T23:15:00",22.299,24.910292,0.161],
    [22472,"urn:WaterMeter:MC0203J22010600005","2024-06-02T23:30:00",22.299,24.94718,0.165],
    [22473,"urn:WaterMeter:MC0203J22010600005","2024-06-02T23:45:00",22.2,24.891672,0.168],
    [22474,"urn:WaterMeter:MC0203J22010600005","2024-06-03T00:00:00",22.2,24.911455,0.16],
    [22475,"urn:WaterMeter:MC0203J22010600005","2024-06-03T00:15:00",22.1,24.879686,0.161],
    [22476,"urn:WaterMeter:MC0203J22010600005","2024-06-03T00:30:00",22.1,24.871113,0.16],
    [22477,"urn:WaterMeter:MC0203J22010600005","2024-06-03T00:45:00",22,24.839344,0.16],
    [22478,"urn:WaterMeter:MC0203J22010600005","2024-06-03T01:00:00",22,24.88434,0.165],
    [22479,"urn:WaterMeter:MC0203J22010600005","2024-06-03T01:15:00",21.899,24.831198,0.169],
    [22480,"urn:WaterMeter:MC0203J22010600005","2024-06-03T01:30:00",21.799,24.835854,0.158],
    [22481,"urn:WaterMeter:MC0203J22010600005","2024-06-03T01:45:00",21.799,24.85327,0.16],
    [22482,"urn:WaterMeter:MC0203J22010600005","2024-06-03T02:00:00",21.7,24.847878,0.152],
    [22483,"urn:WaterMeter:MC0203J22010600005","2024-06-03T02:15:00",21.7,24.8087,0.16],
    [22484,"urn:WaterMeter:MC0203J22010600005","2024-06-03T02:30:00",21.6,24.774527,0.159],
    [22485,"urn:WaterMeter:MC0203J22010600005","2024-06-03T02:45:00",21.5,24.76991,0.165],
    [22486,"urn:WaterMeter:MC0203J22010600005","2024-06-03T03:00:00",21.5,24.775301,0.154],
    [22487,"urn:WaterMeter:MC0203J22010600005","2024-06-03T03:15:00",21.399,24.783098,0.159],
    [22488,"urn:WaterMeter:MC0203J22010600005","2024-06-03T03:30:00",21.399,24.762539,0.158],
    [22489,"urn:WaterMeter:MC0203J22010600005","2024-06-03T03:45:00",21.299,24.752066,0.159],
    [22490,"urn:WaterMeter:MC0203J22010600005","2024-06-03T04:00:00",21.2,24.726078,0.159],
    [22491,"urn:WaterMeter:MC0203J22010600005","2024-06-03T04:15:00",21.1,24.735737,0.16],
    [22492,"urn:WaterMeter:MC0203J22010600005","2024-06-03T04:30:00",21,24.705519,0.156],
    [22493,"urn:WaterMeter:MC0203J22010600005","2024-06-03T04:45:00",21,24.732285,0.161],
    [22494,"urn:WaterMeter:MC0203J22010600005","2024-06-03T05:00:00",20.899,24.69039,0.153],
    [22495,"urn:WaterMeter:MC0203J22010600005","2024-06-03T05:15:00",20.899,24.673323,0.157],
    [22496,"urn:WaterMeter:MC0203J22010600005","2024-06-03T05:30:00",20.799,24.669405,0.156],
    [22497,"urn:WaterMeter:MC0203J22010600005","2024-06-03T05:45:00",20.799,24.663237,0.152],
    [22498,"urn:WaterMeter:MC0203J22010600005","2024-06-03T06:00:00",20.799,24.687675,0.152],
    [22499,"urn:WaterMeter:MC0203J22010600005","2024-06-03T06:15:00",20.899,24.641516,0.163],
    [22500,"urn:WaterMeter:MC0203J22010600005","2024-06-03T06:30:00",20.899,24.669792,0.162],
    [22501,"urn:WaterMeter:MC0203J22010600005","2024-06-03T06:45:00",21,24.646557,0.158],
    [22502,"urn:WaterMeter:MC0203J22010600005","2024-06-03T07:00:00",21.1,24.593416,0.16],
    [22503,"urn:WaterMeter:MC0203J22010600005","2024-06-03T07:15:00",21.399,24.59105,0.153],
    [22504,"urn:WaterMeter:MC0203J22010600005","2024-06-03T07:30:00",21.6,24.593027,0.166],
    [22505,"urn:WaterMeter:MC0203J22010600005","2024-06-03T07:45:00",21.7,24.551134,0.154],
    [22506,"urn:WaterMeter:MC0203J22010600005","2024-06-03T08:00:00",21.899,24.526308,0.155],
    [22507,"urn:WaterMeter:MC0203J22010600005","2024-06-03T08:15:00",22,24.491785,0.149],
    [22508,"urn:WaterMeter:MC0203J22010600005","2024-06-03T08:30:00",22.1,24.48399,0.151],
    [22509,"urn:WaterMeter:MC0203J22010600005","2024-06-03T08:45:00",22.2,24.65001,0.177],
    [22510,"urn:WaterMeter:MC0203J22010600005","2024-06-03T09:00:00",22.299,25.914991,0.186],
    [22511,"urn:WaterMeter:MC0203J22010600005","2024-06-03T09:15:00",22.5,27.56857,0.199],
    [22512,"urn:WaterMeter:MC0203J22010600005","2024-06-03T09:30:00",22.7,28.671757,0.206],
    [22513,"urn:WaterMeter:MC0203J22010600005","2024-06-03T09:45:00",22.799,29.262955,0.206],
    [22514,"urn:WaterMeter:MC0203J22010600005","2024-06-03T10:00:00",22.899,29.747442,0.202],
    [22515,"urn:WaterMeter:MC0203J22010600005","2024-06-03T10:15:00",23,30.072891,0.21],
    [22516,"urn:WaterMeter:MC0203J22010600005","2024-06-03T10:30:00",23.2,30.247057,0.207],
    [22517,"urn:WaterMeter:MC0203J22010600005","2024-06-03T10:45:00",23.299,30.302488,0.212],
    [22518,"urn:WaterMeter:MC0203J22010600005","2024-06-03T11:00:00",23.399,30.293179,0.215],
    [22519,"urn:WaterMeter:MC0203J22010600005","2024-06-03T11:15:00",23.5,30.348299,0.207],
    [22520,"urn:WaterMeter:MC0203J22010600005","2024-06-03T11:30:00",23.6,30.30757,0.213],
    [22521,"urn:WaterMeter:MC0203J22010600005","2024-06-03T11:45:00",23.6,30.315716,0.22],
    [22522,"urn:WaterMeter:MC0203J22010600005","2024-06-03T12:00:00",23.6,30.33352,0.209],
    [22523,"urn:WaterMeter:MC0203J22010600005","2024-06-03T12:15:00",23.6,30.318043,0.201],
    [22524,"urn:WaterMeter:MC0203J22010600005","2024-06-03T12:30:00",23.7,30.257532,0.215],
    [22525,"urn:WaterMeter:MC0203J22010600005","2024-06-03T12:45:00",23.799,30.256756,0.205],
    [22526,"urn:WaterMeter:MC0203J22010600005","2024-06-03T13:00:00",23.799,30.230766,0.21],
    [22527,"urn:WaterMeter:MC0203J22010600005","2024-06-03T13:15:00",23.799,30.19857,0.221],
    [22528,"urn:WaterMeter:MC0203J22010600005","2024-06-03T13:30:00",23.899,30.116724,0.202],
    [22529,"urn:WaterMeter:MC0203J22010600005","2024-06-03T13:45:00",23.899,30.126383,0.22],
    [22530,"urn:WaterMeter:MC0203J22010600005","2024-06-03T14:00:00",24,30.083752,0.203],
    [22531,"urn:WaterMeter:MC0203J22010600005","2024-06-03T14:15:00",24,30.053885,0.213],
    [22532,"urn:WaterMeter:MC0203J22010600005","2024-06-03T14:30:00",24,29.986776,0.201],
    [22533,"urn:WaterMeter:MC0203J22010600005","2024-06-03T14:45:00",24.1,29.934372,0.207],
    [22534,"urn:WaterMeter:MC0203J22010600005","2024-06-03T15:00:00",24.1,29.92898,0.208],
    [22535,"urn:WaterMeter:MC0203J22010600005","2024-06-03T15:15:00",24.1,29.885147,0.205],
    [22536,"urn:WaterMeter:MC0203J22010600005","2024-06-03T15:30:00",24.1,29.809856,0.224],
    [22537,"urn:WaterMeter:MC0203J22010600005","2024-06-03T15:45:00",24.1,29.81261,0.202],
    [22538,"urn:WaterMeter:MC0203J22010600005","2024-06-03T16:00:00",24.1,29.748219,0.203],
    [22539,"urn:WaterMeter:MC0203J22010600005","2024-06-03T16:15:00",24.1,29.692322,0.207],
    [22540,"urn:WaterMeter:MC0203J22010600005","2024-06-03T16:30:00",24,29.678785,0.21],
    [22541,"urn:WaterMeter:MC0203J22010600005","2024-06-03T16:45:00",24,29.620987,0.204],
    [22542,"urn:WaterMeter:MC0203J22010600005","2024-06-03T17:00:00",24,29.578707,0.202],
    [22543,"urn:WaterMeter:MC0203J22010600005","2024-06-03T17:15:00",24,29.542244,0.212],
    [22544,"urn:WaterMeter:MC0203J22010600005","2024-06-03T17:30:00",23.899,29.55931,0.214],
    [22545,"urn:WaterMeter:MC0203J22010600005","2024-06-03T17:45:00",23.899,29.523237,0.206],
    [22546,"urn:WaterMeter:MC0203J22010600005","2024-06-03T18:00:00",23.799,29.495695,0.203],
    [22547,"urn:WaterMeter:MC0203J22010600005","2024-06-03T18:15:00",23.799,29.440964,0.211],
    [22548,"urn:WaterMeter:MC0203J22010600005","2024-06-03T18:30:00",23.7,29.443716,0.2],
    [22549,"urn:WaterMeter:MC0203J22010600005","2024-06-03T18:45:00",23.6,29.393679,0.2],
    [22550,"urn:WaterMeter:MC0203J22010600005","2024-06-03T19:00:00",23.5,29.4154,0.199],
    [22551,"urn:WaterMeter:MC0203J22010600005","2024-06-03T19:15:00",23.399,29.369629,0.206],
    [22552,"urn:WaterMeter:MC0203J22010600005","2024-06-03T19:30:00",23.299,29.351358,0.203],
    [22553,"urn:WaterMeter:MC0203J22010600005","2024-06-03T19:45:00",23.2,29.370752,0.215],
    [22554,"urn:WaterMeter:MC0203J22010600005","2024-06-03T20:00:00",23.2,29.361094,0.2],
    [22555,"urn:WaterMeter:MC0203J22010600005","2024-06-03T20:15:00",23.1,29.342476,0.201],
    [22556,"urn:WaterMeter:MC0203J22010600005","2024-06-03T20:30:00",23.1,29.357603,0.207],
    [22557,"urn:WaterMeter:MC0203J22010600005","2024-06-03T20:45:00",23,29.28429,0.196],
    [22558,"urn:WaterMeter:MC0203J22010600005","2024-06-03T21:00:00",22.899,29.311443,0.205],
    [22559,"urn:WaterMeter:MC0203J22010600005","2024-06-03T21:15:00",22.799,29.290497,0.195],
    [22560,"urn:WaterMeter:MC0203J22010600005","2024-06-03T21:30:00",22.799,29.300581,0.192],
    [22561,"urn:WaterMeter:MC0203J22010600005","2024-06-03T21:45:00",22.7,29.281963,0.209],
    [22562,"urn:WaterMeter:MC0203J22010600005","2024-06-03T22:00:00",22.7,29.258688,0.201],
    [22563,"urn:WaterMeter:MC0203J22010600005","2024-06-03T22:15:00",22.6,29.270327,0.209],
    [22564,"urn:WaterMeter:MC0203J22010600005","2024-06-03T22:30:00",22.5,29.239681,0.2],
    [22565,"urn:WaterMeter:MC0203J22010600005","2024-06-03T22:45:00",22.5,29.26024,0.208],
    [22566,"urn:WaterMeter:MC0203J22010600005","2024-06-03T23:00:00",22.399,29.267998,0.199],
    [22567,"urn:WaterMeter:MC0203J22010600005","2024-06-03T23:15:00",22.399,29.235764,0.197],
    [22568,"urn:WaterMeter:MC0203J22010600005","2024-06-03T23:30:00",22.399,29.265633,0.202],
    [22569,"urn:WaterMeter:MC0203J22010600005","2024-06-03T23:45:00",22.299,29.24007,0.195],
    [22570,"urn:WaterMeter:MC0203J22010600005","2024-06-04T00:00:00",22.299,29.225718,0.199],
    [22571,"urn:WaterMeter:MC0203J22010600005","2024-06-04T00:15:00",22.2,29.190418,0.228],
    [22572,"urn:WaterMeter:MC0203J22010600005","2024-06-04T00:30:00",22.1,29.226843,0.199],
    [22573,"urn:WaterMeter:MC0203J22010600005","2024-06-04T00:45:00",22,29.223001,0.216],
    [22574,"urn:WaterMeter:MC0203J22010600005","2024-06-04T01:00:00",22,29.180332,0.202],
    [22575,"urn:WaterMeter:MC0203J22010600005","2024-06-04T01:15:00",21.899,29.201668,0.206],
    [22576,"urn:WaterMeter:MC0203J22010600005","2024-06-04T01:30:00",21.799,29.16055,0.209],
    [22577,"urn:WaterMeter:MC0203J22010600005","2024-06-04T01:45:00",21.799,29.181108,0.195],
    [22578,"urn:WaterMeter:MC0203J22010600005","2024-06-04T02:00:00",21.7,29.14387,0.203],
    [22579,"urn:WaterMeter:MC0203J22010600005","2024-06-04T02:15:00",21.7,29.133396,0.199],
    [22580,"urn:WaterMeter:MC0203J22010600005","2024-06-04T02:30:00",21.7,29.131458,0.216],
    [22581,"urn:WaterMeter:MC0203J22010600005","2024-06-04T02:45:00",21.6,29.157797,0.199],
    [22582,"urn:WaterMeter:MC0203J22010600005","2024-06-04T03:00:00",21.6,29.088013,0.203],
    [22583,"urn:WaterMeter:MC0203J22010600005","2024-06-04T03:15:00",21.6,29.125252,0.212],
    [22584,"urn:WaterMeter:MC0203J22010600005","2024-06-04T03:30:00",21.6,29.131458,0.195],
    [22585,"urn:WaterMeter:MC0203J22010600005","2024-06-04T03:45:00",21.5,29.11633,0.197],
    [22586,"urn:WaterMeter:MC0203J22010600005","2024-06-04T04:00:00",21.5,29.071295,0.203],
    [22587,"urn:WaterMeter:MC0203J22010600005","2024-06-04T04:15:00",21.399,29.076376,0.203],
    [22588,"urn:WaterMeter:MC0203J22010600005","2024-06-04T04:30:00",21.299,29.095383,0.207],
    [22589,"urn:WaterMeter:MC0203J22010600005","2024-06-04T04:45:00",21.299,29.075212,0.197],
    [22590,"urn:WaterMeter:MC0203J22010600005","2024-06-04T05:00:00",21.2,29.072845,0.203],
    [22591,"urn:WaterMeter:MC0203J22010600005","2024-06-04T05:15:00",21.1,29.070946,0.2],
    [22592,"urn:WaterMeter:MC0203J22010600005","2024-06-04T05:30:00",21.1,29.078316,0.196],
    [22593,"urn:WaterMeter:MC0203J22010600005","2024-06-04T05:45:00",21.1,29.02595,0.202],
    [22594,"urn:WaterMeter:MC0203J22010600005","2024-06-04T06:00:00",21.1,29.017803,0.2],
    [22595,"urn:WaterMeter:MC0203J22010600005","2024-06-04T06:15:00",21.1,28.994879,0.198],
    [22596,"urn:WaterMeter:MC0203J22010600005","2024-06-04T06:30:00",21.1,29.03681,0.209],
    [22597,"urn:WaterMeter:MC0203J22010600005","2024-06-04T06:45:00",21.2,29.000734,0.199],
    [22598,"urn:WaterMeter:MC0203J22010600005","2024-06-04T07:00:00",21.299,28.965397,0.202],
    [22599,"urn:WaterMeter:MC0203J22010600005","2024-06-04T07:15:00",21.399,28.931688,0.193],
    [22600,"urn:WaterMeter:MC0203J22010600005","2024-06-04T07:30:00",21.6,28.908802,0.2],
    [22601,"urn:WaterMeter:MC0203J22010600005","2024-06-04T07:45:00",21.7,28.891735,0.203],
    [22602,"urn:WaterMeter:MC0203J22010600005","2024-06-04T08:00:00",21.799,28.885101,0.194],
    [22603,"urn:WaterMeter:MC0203J22010600005","2024-06-04T08:15:00",21.899,28.806396,0.194],
    [22604,"urn:WaterMeter:MC0203J22010600005","2024-06-04T08:30:00",22,28.790455,0.204],
    [22605,"urn:WaterMeter:MC0203J22010600005","2024-06-04T08:45:00",22.2,28.72843,0.191],
    [22606,"urn:WaterMeter:MC0203J22010600005","2024-06-04T09:00:00",22.299,28.70279,0.19],
    [22607,"urn:WaterMeter:MC0203J22010600005","2024-06-04T09:15:00",22.399,28.619429,0.195],
    [22608,"urn:WaterMeter:MC0203J22010600005","2024-06-04T09:30:00",22.5,28.579475,0.205],
    [22609,"urn:WaterMeter:MC0203J22010600005","2024-06-04T09:45:00",22.6,28.520088,0.186],
    [22610,"urn:WaterMeter:MC0203J22010600005","2024-06-04T10:00:00",22.799,28.45496,0.196],
    [22611,"urn:WaterMeter:MC0203J22010600005","2024-06-04T10:15:00",23,28.415783,0.187],
    [22612,"urn:WaterMeter:MC0203J22010600005","2024-06-04T10:30:00",23.2,28.3479,0.186],
    [22613,"urn:WaterMeter:MC0203J22010600005","2024-06-04T10:45:00",23.399,28.302128,0.188],
    [22614,"urn:WaterMeter:MC0203J22010600005","2024-06-04T11:00:00",23.6,28.229979,0.192],
    [22615,"urn:WaterMeter:MC0203J22010600005","2024-06-04T11:15:00",23.7,28.19468,0.189],
    [22616,"urn:WaterMeter:MC0203J22010600005","2024-06-04T11:30:00",23.799,28.091846,0.186],
    [22617,"urn:WaterMeter:MC0203J22010600005","2024-06-04T11:45:00",23.899,28.044523,0.19],
    [22618,"urn:WaterMeter:MC0203J22010600005","2024-06-04T12:00:00",24,27.962326,0.192],
    [22619,"urn:WaterMeter:MC0203J22010600005","2024-06-04T12:15:00",24.2,27.886686,0.202],
    [22620,"urn:WaterMeter:MC0203J22010600005","2024-06-04T12:30:00",24.299,27.825787,0.184],
    [22621,"urn:WaterMeter:MC0203J22010600005","2024-06-04T12:45:00",24.399,27.752823,0.187],
    [22622,"urn:WaterMeter:MC0203J22010600005","2024-06-04T13:00:00",24.5,27.641533,0.189],
    [22623,"urn:WaterMeter:MC0203J22010600005","2024-06-04T13:15:00",24.7,27.571712,0.189],
    [22624,"urn:WaterMeter:MC0203J22010600005","2024-06-04T13:30:00",24.799,27.513914,0.185],
    [22625,"urn:WaterMeter:MC0203J22010600005","2024-06-04T13:45:00",24.799,27.46151,0.184],
    [22626,"urn:WaterMeter:MC0203J22010600005","2024-06-04T14:00:00",24.799,27.371555,0.197],
    [22627,"urn:WaterMeter:MC0203J22010600005","2024-06-04T14:15:00",24.899,27.295876,0.187],
    [22628,"urn:WaterMeter:MC0203J22010600005","2024-06-04T14:30:00",25,27.24161,0.181],
    [22629,"urn:WaterMeter:MC0203J22010600005","2024-06-04T14:45:00",25.1,27.136875,0.181],
    [22630,"urn:WaterMeter:MC0203J22010600005","2024-06-04T15:00:00",25.1,27.097698,0.176],
    [22631,"urn:WaterMeter:MC0203J22010600005","2024-06-04T15:15:00",25.1,26.9918,0.189],
    [22632,"urn:WaterMeter:MC0203J22010600005","2024-06-04T15:30:00",25.1,26.92547,0.187],
    [22633,"urn:WaterMeter:MC0203J22010600005","2024-06-04T15:45:00",25.1,26.864182,0.172],
    [22634,"urn:WaterMeter:MC0203J22010600005","2024-06-04T16:00:00",25.1,26.83315,0.177],
    [22635,"urn:WaterMeter:MC0203J22010600005","2024-06-04T16:15:00",25.1,26.759062,0.178],
    [22636,"urn:WaterMeter:MC0203J22010600005","2024-06-04T16:30:00",25.1,26.69079,0.185],
    [22637,"urn:WaterMeter:MC0203J22010600005","2024-06-04T16:45:00",25.1,26.655842,0.18],
    [22638,"urn:WaterMeter:MC0203J22010600005","2024-06-04T17:00:00",25,26.582567,0.178],
    [22639,"urn:WaterMeter:MC0203J22010600005","2024-06-04T17:15:00",25,26.527872,0.175],
    [22640,"urn:WaterMeter:MC0203J22010600005","2024-06-04T17:30:00",25,26.465033,0.178],
    [22641,"urn:WaterMeter:MC0203J22010600005","2024-06-04T17:45:00",24.899,26.414955,0.176],
    [22642,"urn:WaterMeter:MC0203J22010600005","2024-06-04T18:00:00",24.899,26.40995,0.193],
    [22643,"urn:WaterMeter:MC0203J22010600005","2024-06-04T18:15:00",24.799,26.342068,0.173],
    [22644,"urn:WaterMeter:MC0203J22010600005","2024-06-04T18:30:00",24.7,26.31957,0.178],
    [22645,"urn:WaterMeter:MC0203J22010600005","2024-06-04T18:45:00",24.7,26.308283,0.177],
    [22646,"urn:WaterMeter:MC0203J22010600005","2024-06-04T19:00:00",24.6,26.264877,0.174],
    [22647,"urn:WaterMeter:MC0203J22010600005","2024-06-04T19:15:00",24.6,26.249321,0.171],
    [22648,"urn:WaterMeter:MC0203J22010600005","2024-06-04T19:30:00",24.5,26.219105,0.179],
    [22649,"urn:WaterMeter:MC0203J22010600005","2024-06-04T19:45:00",24.399,26.159369,0.18],
    [22650,"urn:WaterMeter:MC0203J22010600005","2024-06-04T20:00:00",24.299,26.153898,0.173],
    [22651,"urn:WaterMeter:MC0203J22010600005","2024-06-04T20:15:00",24.2,26.125233,0.176],
    [22652,"urn:WaterMeter:MC0203J22010600005","2024-06-04T20:30:00",24.1,26.119026,0.17],
    [22653,"urn:WaterMeter:MC0203J22010600005","2024-06-04T20:45:00",24,26.083727,0.178],
    [22654,"urn:WaterMeter:MC0203J22010600005","2024-06-04T21:00:00",23.899,26.100796,0.182],
    [22655,"urn:WaterMeter:MC0203J22010600005","2024-06-04T21:15:00",23.799,26.10002,0.18],
    [22656,"urn:WaterMeter:MC0203J22010600005","2024-06-04T21:30:00",23.799,26.04645,0.165],
    [22657,"urn:WaterMeter:MC0203J22010600005","2024-06-04T21:45:00",23.7,26.062004,0.17],
    [22658,"urn:WaterMeter:MC0203J22010600005","2024-06-04T22:00:00",23.6,26.006884,0.185],
    [22659,"urn:WaterMeter:MC0203J22010600005","2024-06-04T22:15:00",23.5,26.029034,0.175],
    [22660,"urn:WaterMeter:MC0203J22010600005","2024-06-04T22:30:00",23.399,26.049204,0.175],
    [22661,"urn:WaterMeter:MC0203J22010600005","2024-06-04T22:45:00",23.299,26.030197,0.172],
    [22662,"urn:WaterMeter:MC0203J22010600005","2024-06-04T23:00:00",23.299,26.0333,0.171],
    [22663,"urn:WaterMeter:MC0203J22010600005","2024-06-04T23:15:00",23.2,25.986364,0.171],
    [22664,"urn:WaterMeter:MC0203J22010600005","2024-06-04T23:30:00",23.1,25.993734,0.181],
    [22665,"urn:WaterMeter:MC0203J22010600005","2024-06-04T23:45:00",23,25.985977,0.18],
    [22666,"urn:WaterMeter:MC0203J22010600005","2024-06-05T00:00:00",22.899,25.978956,0.17],
    [22667,"urn:WaterMeter:MC0203J22010600005","2024-06-05T00:15:00",22.799,25.979343,0.173],
    [22668,"urn:WaterMeter:MC0203J22010600005","2024-06-05T00:30:00",22.7,25.986364,0.175],
    [22669,"urn:WaterMeter:MC0203J22010600005","2024-06-05T00:45:00",22.6,25.964642,0.178],
    [22670,"urn:WaterMeter:MC0203J22010600005","2024-06-05T01:00:00",22.5,25.95801,0.176],
    [22671,"urn:WaterMeter:MC0203J22010600005","2024-06-05T01:15:00",22.399,25.967745,0.169],
    [22672,"urn:WaterMeter:MC0203J22010600005","2024-06-05T01:30:00",22.399,25.916931,0.17],
    [22673,"urn:WaterMeter:MC0203J22010600005","2024-06-05T01:45:00",22.299,25.913052,0.181],
    [22674,"urn:WaterMeter:MC0203J22010600005","2024-06-05T02:00:00",22.2,25.90956,0.172],
    [22675,"urn:WaterMeter:MC0203J22010600005","2024-06-05T02:15:00",22.2,25.940165,0.186],
    [22676,"urn:WaterMeter:MC0203J22010600005","2024-06-05T02:30:00",22.1,25.87465,0.179],
    [22677,"urn:WaterMeter:MC0203J22010600005","2024-06-05T02:45:00",22,25.889002,0.17],
    [22678,"urn:WaterMeter:MC0203J22010600005","2024-06-05T03:00:00",22,25.868443,0.173],
    [22679,"urn:WaterMeter:MC0203J22010600005","2024-06-05T03:15:00",21.899,25.84478,0.167],
    [22680,"urn:WaterMeter:MC0203J22010600005","2024-06-05T03:30:00",21.799,25.861034,0.166],
    [22681,"urn:WaterMeter:MC0203J22010600005","2024-06-05T03:45:00",21.7,25.825773,0.182],
    [22682,"urn:WaterMeter:MC0203J22010600005","2024-06-05T04:00:00",21.7,25.845945,0.184],
    [22683,"urn:WaterMeter:MC0203J22010600005","2024-06-05T04:15:00",21.6,25.849436,0.173],
    [22684,"urn:WaterMeter:MC0203J22010600005","2024-06-05T04:30:00",21.5,25.814486,0.168],
    [22685,"urn:WaterMeter:MC0203J22010600005","2024-06-05T04:45:00",21.5,25.82108,0.172],
    [22686,"urn:WaterMeter:MC0203J22010600005","2024-06-05T05:00:00",21.399,25.770693,0.19],
    [22687,"urn:WaterMeter:MC0203J22010600005","2024-06-05T05:15:00",21.399,25.808706,0.169],
    [22688,"urn:WaterMeter:MC0203J22010600005","2024-06-05T05:30:00",21.299,25.817627,0.169],
    [22689,"urn:WaterMeter:MC0203J22010600005","2024-06-05T05:45:00",21.299,25.79354,0.169],
    [22690,"urn:WaterMeter:MC0203J22010600005","2024-06-05T06:00:00",21.299,25.76406,0.165],
    [22691,"urn:WaterMeter:MC0203J22010600005","2024-06-05T06:15:00",21.2,25.771467,0.163],
    [22692,"urn:WaterMeter:MC0203J22010600005","2024-06-05T06:30:00",21.299,25.773407,0.17],
    [22693,"urn:WaterMeter:MC0203J22010600005","2024-06-05T06:45:00",21.399,25.746603,0.167],
    [22694,"urn:WaterMeter:MC0203J22010600005","2024-06-05T07:00:00",21.5,25.72488,0.165],
    [22695,"urn:WaterMeter:MC0203J22010600005","2024-06-05T07:15:00",21.7,25.684578,0.176],
    [22696,"urn:WaterMeter:MC0203J22010600005","2024-06-05T07:30:00",21.899,25.66747,0.164],
    [22697,"urn:WaterMeter:MC0203J22010600005","2024-06-05T07:45:00",22.1,25.628294,0.169],
    [22698,"urn:WaterMeter:MC0203J22010600005","2024-06-05T08:00:00",22.2,25.615532,0.162],
    [22699,"urn:WaterMeter:MC0203J22010600005","2024-06-05T08:15:00",22.399,25.542955,0.17],
    [22700,"urn:WaterMeter:MC0203J22010600005","2024-06-05T08:30:00",22.5,26.06472,0.184],
    [22701,"urn:WaterMeter:MC0203J22010600005","2024-06-05T08:45:00",22.7,27.53486,0.195],
    [22702,"urn:WaterMeter:MC0203J22010600005","2024-06-05T09:00:00",22.799,29.31218,0.211],
    [22703,"urn:WaterMeter:MC0203J22010600005","2024-06-05T09:15:00",23,30.375841,0.218],
    [22704,"urn:WaterMeter:MC0203J22010600005","2024-06-05T09:30:00",23.2,30.68263,0.219],
    [22705,"urn:WaterMeter:MC0203J22010600005","2024-06-05T09:45:00",23.399,30.825766,0.225],
    [22706,"urn:WaterMeter:MC0203J22010600005","2024-06-05T10:00:00",23.6,30.825766,0.222],
    [22707,"urn:WaterMeter:MC0203J22010600005","2024-06-05T10:15:00",23.799,30.823477,0.227],
    [22708,"urn:WaterMeter:MC0203J22010600005","2024-06-05T10:30:00",23.899,30.837015,0.231],
    [22709,"urn:WaterMeter:MC0203J22010600005","2024-06-05T10:45:00",24.1,30.825378,0.219],
    [22710,"urn:WaterMeter:MC0203J22010600005","2024-06-05T11:00:00",24.299,30.78391,0.216],
    [22711,"urn:WaterMeter:MC0203J22010600005","2024-06-05T11:15:00",24.399,30.76797,0.219],
    [22712,"urn:WaterMeter:MC0203J22010600005","2024-06-05T11:30:00",24.5,30.712538,0.221],
    [22713,"urn:WaterMeter:MC0203J22010600005","2024-06-05T11:45:00",24.7,30.672934,0.213],
    [22714,"urn:WaterMeter:MC0203J22010600005","2024-06-05T12:00:00",24.799,30.612034,0.219],
    [22715,"urn:WaterMeter:MC0203J22010600005","2024-06-05T12:15:00",25,30.569403,0.215],
    [22716,"urn:WaterMeter:MC0203J22010600005","2024-06-05T12:30:00",25.1,30.543802,0.224],
    [22717,"urn:WaterMeter:MC0203J22010600005","2024-06-05T12:45:00",25.2,30.46851,0.213],
    [22718,"urn:WaterMeter:MC0203J22010600005","2024-06-05T13:00:00",25.399,30.40955,0.226],
    [22719,"urn:WaterMeter:MC0203J22010600005","2024-06-05T13:15:00",25.5,30.330456,0.218],
    [22720,"urn:WaterMeter:MC0203J22010600005","2024-06-05T13:30:00",25.6,30.32266,0.239],
    [22721,"urn:WaterMeter:MC0203J22010600005","2024-06-05T13:45:00",25.7,30.240076,0.225],
    [22722,"urn:WaterMeter:MC0203J22010600005","2024-06-05T14:00:00",25.799,30.187283,0.226],
    [22723,"urn:WaterMeter:MC0203J22010600005","2024-06-05T14:15:00",25.899,30.117111,0.213],
    [22724,"urn:WaterMeter:MC0203J22010600005","2024-06-05T14:30:00",26,30.046902,0.218],
    [22725,"urn:WaterMeter:MC0203J22010600005","2024-06-05T14:45:00",26,29.95846,0.229],
    [22726,"urn:WaterMeter:MC0203J22010600005","2024-06-05T15:00:00",26.1,29.902603,0.209],
    [22727,"urn:WaterMeter:MC0203J22010600005","2024-06-05T15:15:00",26.1,29.834332,0.21],
    [22728,"urn:WaterMeter:MC0203J22010600005","2024-06-05T15:30:00",26.2,29.78119,0.223],
    [22729,"urn:WaterMeter:MC0203J22010600005","2024-06-05T15:45:00",26.2,29.720638,0.22],
    [22730,"urn:WaterMeter:MC0203J22010600005","2024-06-05T16:00:00",26.2,29.621763,0.208],
    [22731,"urn:WaterMeter:MC0203J22010600005","2024-06-05T16:15:00",26.2,29.575953,0.206],
    [22732,"urn:WaterMeter:MC0203J22010600005","2024-06-05T16:30:00",26.299,29.538752,0.212],
    [22733,"urn:WaterMeter:MC0203J22010600005","2024-06-05T16:45:00",26.299,29.491041,0.207],
    [22734,"urn:WaterMeter:MC0203J22010600005","2024-06-05T17:00:00",26.299,29.426262,0.202],
    [22735,"urn:WaterMeter:MC0203J22010600005","2024-06-05T17:15:00",26.2,29.39523,0.208],
    [22736,"urn:WaterMeter:MC0203J22010600005","2024-06-05T17:30:00",26.2,29.325407,0.202],
    [22737,"urn:WaterMeter:MC0203J22010600005","2024-06-05T17:45:00",26.2,29.318037,0.202],
    [22738,"urn:WaterMeter:MC0203J22010600005","2024-06-05T18:00:00",26.1,29.236927,0.208],
    [22739,"urn:WaterMeter:MC0203J22010600005","2024-06-05T18:15:00",26.1,29.23654,0.207],
    [22740,"urn:WaterMeter:MC0203J22010600005","2024-06-05T18:30:00",26,29.202831,0.208],
    [22741,"urn:WaterMeter:MC0203J22010600005","2024-06-05T18:45:00",25.899,29.185764,0.203],
    [22742,"urn:WaterMeter:MC0203J22010600005","2024-06-05T19:00:00",25.7,29.169044,0.214],
    [22743,"urn:WaterMeter:MC0203J22010600005","2024-06-05T19:15:00",25.6,29.120558,0.206],
    [22744,"urn:WaterMeter:MC0203J22010600005","2024-06-05T19:30:00",25.5,29.138401,0.211],
    [22745,"urn:WaterMeter:MC0203J22010600005","2024-06-05T19:45:00",25.399,29.09771,0.206],
    [22746,"urn:WaterMeter:MC0203J22010600005","2024-06-05T20:00:00",25.299,29.091852,0.214],
    [22747,"urn:WaterMeter:MC0203J22010600005","2024-06-05T20:15:00",25.2,29.105856,0.202],
    [22748,"urn:WaterMeter:MC0203J22010600005","2024-06-05T20:30:00",25,29.050774,0.227],
    [22749,"urn:WaterMeter:MC0203J22010600005","2024-06-05T20:45:00",24.899,29.06629,0.209],
    [22750,"urn:WaterMeter:MC0203J22010600005","2024-06-05T21:00:00",24.799,29.043365,0.204],
    [22751,"urn:WaterMeter:MC0203J22010600005","2024-06-05T21:15:00",24.7,29.065126,0.214],
    [22752,"urn:WaterMeter:MC0203J22010600005","2024-06-05T21:30:00",24.6,29.037197,0.208],
    [22753,"urn:WaterMeter:MC0203J22010600005","2024-06-05T21:45:00",24.399,29.0275,0.198],
    [22754,"urn:WaterMeter:MC0203J22010600005","2024-06-05T22:00:00",24.299,29.004576,0.208],
    [22755,"urn:WaterMeter:MC0203J22010600005","2024-06-05T22:15:00",24.299,28.997631,0.205],
    [22756,"urn:WaterMeter:MC0203J22010600005","2024-06-05T22:30:00",24.2,28.972418,0.219],
    [22757,"urn:WaterMeter:MC0203J22010600005","2024-06-05T22:45:00",24,28.98871,0.202],
    [22758,"urn:WaterMeter:MC0203J22010600005","2024-06-05T23:00:00",23.899,29.011208,0.199],
    [22759,"urn:WaterMeter:MC0203J22010600005","2024-06-05T23:15:00",23.799,29.006166,0.203],
    [22760,"urn:WaterMeter:MC0203J22010600005","2024-06-05T23:30:00",23.7,28.966173,0.209],
    [22761,"urn:WaterMeter:MC0203J22010600005","2024-06-05T23:45:00",23.6,28.965397,0.199],
    [22762,"urn:WaterMeter:MC0203J22010600005","2024-06-06T00:00:00",23.5,28.963846,0.215],
    [22763,"urn:WaterMeter:MC0203J22010600005","2024-06-06T00:15:00",23.399,28.955313,0.205],
    [22764,"urn:WaterMeter:MC0203J22010600005","2024-06-06T00:30:00",23.299,28.934792,0.206],
    [22765,"urn:WaterMeter:MC0203J22010600005","2024-06-06T00:45:00",23.2,28.924667,0.212],
    [22766,"urn:WaterMeter:MC0203J22010600005","2024-06-06T01:00:00",23.1,28.92044,0.214],
    [22767,"urn:WaterMeter:MC0203J22010600005","2024-06-06T01:15:00",23,28.92044,0.203],
    [22768,"urn:WaterMeter:MC0203J22010600005","2024-06-06T01:30:00",22.899,28.909191,0.203],
    [22769,"urn:WaterMeter:MC0203J22010600005","2024-06-06T01:45:00",22.799,28.871952,0.202],
    [22770,"urn:WaterMeter:MC0203J22010600005","2024-06-06T02:00:00",22.7,28.873892,0.21],
    [22771,"urn:WaterMeter:MC0203J22010600005","2024-06-06T02:15:00",22.6,28.874279,0.205],
    [22772,"urn:WaterMeter:MC0203J22010600005","2024-06-06T02:30:00",22.5,28.907213,0.205],
    [22773,"urn:WaterMeter:MC0203J22010600005","2024-06-06T02:45:00",22.399,28.878508,0.218],
    [22774,"urn:WaterMeter:MC0203J22010600005","2024-06-06T03:00:00",22.299,28.878897,0.22],
    [22775,"urn:WaterMeter:MC0203J22010600005","2024-06-06T03:15:00",22.2,28.870789,0.2],
    [22776,"urn:WaterMeter:MC0203J22010600005","2024-06-06T03:30:00",22.2,28.83549,0.204],
    [22777,"urn:WaterMeter:MC0203J22010600005","2024-06-06T03:45:00",22.1,28.844799,0.206],
    [22778,"urn:WaterMeter:MC0203J22010600005","2024-06-06T04:00:00",22,28.853333,0.202],
    [22779,"urn:WaterMeter:MC0203J22010600005","2024-06-06T04:15:00",21.799,28.822302,0.202],
    [22780,"urn:WaterMeter:MC0203J22010600005","2024-06-06T04:30:00",21.7,28.849804,0.2],
    [22781,"urn:WaterMeter:MC0203J22010600005","2024-06-06T04:45:00",21.6,28.781921,0.201],
    [22782,"urn:WaterMeter:MC0203J22010600005","2024-06-06T05:00:00",21.5,28.786613,0.198],
    [22783,"urn:WaterMeter:MC0203J22010600005","2024-06-06T05:15:00",21.5,28.826569,0.214],
    [22784,"urn:WaterMeter:MC0203J22010600005","2024-06-06T05:30:00",21.399,28.791231,0.207],
    [22785,"urn:WaterMeter:MC0203J22010600005","2024-06-06T05:45:00",21.399,28.792046,0.199],
    [22786,"urn:WaterMeter:MC0203J22010600005","2024-06-06T06:00:00",21.399,28.738903,0.204],
    [22787,"urn:WaterMeter:MC0203J22010600005","2024-06-06T06:15:00",21.5,28.777693,0.226],
    [22788,"urn:WaterMeter:MC0203J22010600005","2024-06-06T06:30:00",21.5,28.696234,0.205],
    [22789,"urn:WaterMeter:MC0203J22010600005","2024-06-06T06:45:00",21.5,28.694643,0.209],
    [22790,"urn:WaterMeter:MC0203J22010600005","2024-06-06T07:00:00",21.6,28.679941,0.2],
    [22791,"urn:WaterMeter:MC0203J22010600005","2024-06-06T07:15:00",21.7,28.65822,0.197],
    [22792,"urn:WaterMeter:MC0203J22010600005","2024-06-06T07:30:00",21.899,28.62521,0.198],
    [22793,"urn:WaterMeter:MC0203J22010600005","2024-06-06T07:45:00",22,28.580639,0.203],
    [22794,"urn:WaterMeter:MC0203J22010600005","2024-06-06T08:00:00",22.2,28.492586,0.19],
    [22795,"urn:WaterMeter:MC0203J22010600005","2024-06-06T08:15:00",22.399,28.465433,0.203],
    [22796,"urn:WaterMeter:MC0203J22010600005","2024-06-06T08:30:00",22.6,28.452206,0.194],
    [22797,"urn:WaterMeter:MC0203J22010600005","2024-06-06T08:45:00",22.799,28.375828,0.193],
    [22798,"urn:WaterMeter:MC0203J22010600005","2024-06-06T09:00:00",22.899,28.305191,0.191],
    [22799,"urn:WaterMeter:MC0203J22010600005","2024-06-06T09:15:00",23.1,28.293205,0.193],
    [22800,"urn:WaterMeter:MC0203J22010600005","2024-06-06T09:30:00",23.299,28.242779,0.186],
    [22801,"urn:WaterMeter:MC0203J22010600005","2024-06-06T09:45:00",23.5,28.195066,0.189],
    [22802,"urn:WaterMeter:MC0203J22010600005","2024-06-06T10:00:00",23.7,28.094988,0.192],
    [22803,"urn:WaterMeter:MC0203J22010600005","2024-06-06T10:15:00",23.899,28.017408,0.189],
    [22804,"urn:WaterMeter:MC0203J22010600005","2024-06-06T10:30:00",24.1,27.948362,0.201],
    [22805,"urn:WaterMeter:MC0203J22010600005","2024-06-06T10:45:00",24.399,27.885136,0.191],
    [22806,"urn:WaterMeter:MC0203J22010600005","2024-06-06T11:00:00",24.6,27.788548,0.183],
    [22807,"urn:WaterMeter:MC0203J22010600005","2024-06-06T11:15:00",24.7,27.731138,0.184],
    [22808,"urn:WaterMeter:MC0203J22010600005","2024-06-06T11:30:00",24.899,27.625591,0.187],
    [22809,"urn:WaterMeter:MC0203J22010600005","2024-06-06T11:45:00",25,27.563177,0.184],
    [22810,"urn:WaterMeter:MC0203J22010600005","2024-06-06T12:00:00",25.2,27.474737,0.19],
    [22811,"urn:WaterMeter:MC0203J22010600005","2024-06-06T12:15:00",25.299,27.367676,0.196],
    [22812,"urn:WaterMeter:MC0203J22010600005","2024-06-06T12:30:00",25.399,27.270313,0.187],
    [22813,"urn:WaterMeter:MC0203J22010600005","2024-06-06T12:45:00",25.5,27.21523,0.184],
    [22814,"urn:WaterMeter:MC0203J22010600005","2024-06-06T13:00:00",25.6,27.15821,0.187],
    [22815,"urn:WaterMeter:MC0203J22010600005","2024-06-06T13:15:00",25.6,27.066278,0.185],
    [22816,"urn:WaterMeter:MC0203J22010600005","2024-06-06T13:30:00",25.6,27.027489,0.19],
    [22817,"urn:WaterMeter:MC0203J22010600005","2024-06-06T13:45:00",25.5,26.974346,0.188],
    [22818,"urn:WaterMeter:MC0203J22010600005","2024-06-06T14:00:00",25.5,26.937843,0.193],
    [22819,"urn:WaterMeter:MC0203J22010600005","2024-06-06T14:15:00",25.399,26.84087,0.192],
    [22820,"urn:WaterMeter:MC0203J22010600005","2024-06-06T14:30:00",25.399,26.80363,0.175],
    [22821,"urn:WaterMeter:MC0203J22010600005","2024-06-06T14:45:00",25.299,26.760225,0.186],
    [22822,"urn:WaterMeter:MC0203J22010600005","2024-06-06T15:00:00",25.299,26.719496,0.183],
    [22823,"urn:WaterMeter:MC0203J22010600005","2024-06-06T15:15:00",25.299,26.667479,0.179],
    [22824,"urn:WaterMeter:MC0203J22010600005","2024-06-06T15:30:00",25.299,26.61705,0.191],
    [22825,"urn:WaterMeter:MC0203J22010600005","2024-06-06T15:45:00",25.299,26.58951,0.178],
    [22826,"urn:WaterMeter:MC0203J22010600005","2024-06-06T16:00:00",25.299,26.523605,0.178],
    [22827,"urn:WaterMeter:MC0203J22010600005","2024-06-06T16:15:00",25.399,26.45805,0.187],
    [22828,"urn:WaterMeter:MC0203J22010600005","2024-06-06T16:30:00",25.399,26.408787,0.198],
    [22829,"urn:WaterMeter:MC0203J22010600005","2024-06-06T16:45:00",25.399,26.324614,0.178],
    [22830,"urn:WaterMeter:MC0203J22010600005","2024-06-06T17:00:00",25.399,26.311037,0.183],
    [22831,"urn:WaterMeter:MC0203J22010600005","2024-06-06T17:15:00",25.399,26.229927,0.177],
    [22832,"urn:WaterMeter:MC0203J22010600005","2024-06-06T17:30:00",25.299,26.15898,0.175],
    [22833,"urn:WaterMeter:MC0203J22010600005","2024-06-06T17:45:00",25.299,26.143425,0.177],
    [22834,"urn:WaterMeter:MC0203J22010600005","2024-06-06T18:00:00",25.299,26.094162,0.189],
    [22835,"urn:WaterMeter:MC0203J22010600005","2024-06-06T18:15:00",25.299,26.055372,0.172],
    [22836,"urn:WaterMeter:MC0203J22010600005","2024-06-06T18:30:00",25.2,26.019337,0.176],
    [22837,"urn:WaterMeter:MC0203J22010600005","2024-06-06T18:45:00",25.1,26.017746,0.183],
    [22838,"urn:WaterMeter:MC0203J22010600005","2024-06-06T19:00:00",25,25.973175,0.171],
    [22839,"urn:WaterMeter:MC0203J22010600005","2024-06-06T19:15:00",24.899,25.967358,0.176],
    [22840,"urn:WaterMeter:MC0203J22010600005","2024-06-06T19:30:00",24.899,25.9487,0.179],
    [22841,"urn:WaterMeter:MC0203J22010600005","2024-06-06T19:45:00",24.799,25.912663,0.186],
    [22842,"urn:WaterMeter:MC0203J22010600005","2024-06-06T20:00:00",24.7,25.919607,0.175],
    [22843,"urn:WaterMeter:MC0203J22010600005","2024-06-06T20:15:00",24.6,25.904518,0.17],
    [22844,"urn:WaterMeter:MC0203J22010600005","2024-06-06T20:30:00",24.5,25.883959,0.169],
    [22845,"urn:WaterMeter:MC0203J22010600005","2024-06-06T20:45:00",24.399,25.847883,0.177],
    [22846,"urn:WaterMeter:MC0203J22010600005","2024-06-06T21:00:00",24.299,25.848272,0.178],
    [22847,"urn:WaterMeter:MC0203J22010600005","2024-06-06T21:15:00",24.299,25.818016,0.179],
    [22848,"urn:WaterMeter:MC0203J22010600005","2024-06-06T21:30:00",24.299,25.825386,0.171],
    [22849,"urn:WaterMeter:MC0203J22010600005","2024-06-06T21:45:00",24.299,25.78582,0.177],
    [22850,"urn:WaterMeter:MC0203J22010600005","2024-06-06T22:00:00",24.2,25.799397,0.175],
    [22851,"urn:WaterMeter:MC0203J22010600005","2024-06-06T22:15:00",24.1,25.74858,0.176],
    [22852,"urn:WaterMeter:MC0203J22010600005","2024-06-06T22:30:00",24,25.718325,0.174],
    [22853,"urn:WaterMeter:MC0203J22010600005","2024-06-06T22:45:00",24,25.72527,0.175],
    [22854,"urn:WaterMeter:MC0203J22010600005","2024-06-06T23:00:00",24,25.683027,0.17],
    [22855,"urn:WaterMeter:MC0203J22010600005","2024-06-06T23:15:00",24,25.70281,0.175],
    [22856,"urn:WaterMeter:MC0203J22010600005","2024-06-06T23:30:00",24,25.694664,0.166],
    [22857,"urn:WaterMeter:MC0203J22010600005","2024-06-06T23:45:00",24,25.638767,0.18],
    [22858,"urn:WaterMeter:MC0203J22010600005","2024-06-07T00:00:00",23.899,25.600754,0.166],
    [22859,"urn:WaterMeter:MC0203J22010600005","2024-06-07T00:15:00",23.899,25.635315,0.177],
    [22860,"urn:WaterMeter:MC0203J22010600005","2024-06-07T00:30:00",23.899,25.606222,0.187],
    [22861,"urn:WaterMeter:MC0203J22010600005","2024-06-07T00:45:00",23.799,25.58097,0.169],
    [22862,"urn:WaterMeter:MC0203J22010600005","2024-06-07T01:00:00",23.7,25.554632,0.162],
    [22863,"urn:WaterMeter:MC0203J22010600005","2024-06-07T01:15:00",23.7,25.556572,0.168],
    [22864,"urn:WaterMeter:MC0203J22010600005","2024-06-07T01:30:00",23.6,25.541405,0.17],
    [22865,"urn:WaterMeter:MC0203J22010600005","2024-06-07T01:45:00",23.6,25.541056,0.168],
    [22866,"urn:WaterMeter:MC0203J22010600005","2024-06-07T02:00:00",23.6,25.536013,0.165],
    [22867,"urn:WaterMeter:MC0203J22010600005","2024-06-07T02:15:00",23.6,25.48287,0.169],
    [22868,"urn:WaterMeter:MC0203J22010600005","2024-06-07T02:30:00",23.5,25.492529,0.175],
    [22869,"urn:WaterMeter:MC0203J22010600005","2024-06-07T02:45:00",23.5,25.460371,0.169],
    [22870,"urn:WaterMeter:MC0203J22010600005","2024-06-07T03:00:00",23.399,25.432793,0.157],
    [22871,"urn:WaterMeter:MC0203J22010600005","2024-06-07T03:15:00",23.399,25.458044,0.159],
    [22872,"urn:WaterMeter:MC0203J22010600005","2024-06-07T03:30:00",23.299,25.408781,0.166],
    [22873,"urn:WaterMeter:MC0203J22010600005","2024-06-07T03:45:00",23.2,25.439425,0.172],
    [22874,"urn:WaterMeter:MC0203J22010600005","2024-06-07T04:00:00",23.2,25.424685,0.164],
    [22875,"urn:WaterMeter:MC0203J22010600005","2024-06-07T04:15:00",23.2,25.40529,0.167],
    [22876,"urn:WaterMeter:MC0203J22010600005","2024-06-07T04:30:00",23.1,25.374258,0.164],
    [22877,"urn:WaterMeter:MC0203J22010600005","2024-06-07T04:45:00",23.1,25.365725,0.172],
    [22878,"urn:WaterMeter:MC0203J22010600005","2024-06-07T05:00:00",23,25.361845,0.167],
    [22879,"urn:WaterMeter:MC0203J22010600005","2024-06-07T05:15:00",23,25.317585,0.177],
    [22880,"urn:WaterMeter:MC0203J22010600005","2024-06-07T05:30:00",22.899,25.321892,0.186],
    [22881,"urn:WaterMeter:MC0203J22010600005","2024-06-07T05:45:00",22.899,25.293186,0.188],
    [22882,"urn:WaterMeter:MC0203J22010600005","2024-06-07T06:00:00",22.899,25.23186,0.172],
    [22883,"urn:WaterMeter:MC0203J22010600005","2024-06-07T06:15:00",22.899,25.243923,0.163],
    [22884,"urn:WaterMeter:MC0203J22010600005","2024-06-07T06:30:00",22.899,25.219835,0.171],
    [22885,"urn:WaterMeter:MC0203J22010600005","2024-06-07T06:45:00",22.899,25.201992,0.174],
    [22886,"urn:WaterMeter:MC0203J22010600005","2024-06-07T07:00:00",23,25.16359,0.165],
    [22887,"urn:WaterMeter:MC0203J22010600005","2024-06-07T07:15:00",23.1,25.09497,0.166],
    [22888,"urn:WaterMeter:MC0203J22010600005","2024-06-07T07:30:00",23.299,25.08601,0.167],
    [22889,"urn:WaterMeter:MC0203J22010600005","2024-06-07T07:45:00",23.399,25.088764,0.182],
    [22890,"urn:WaterMeter:MC0203J22010600005","2024-06-07T08:00:00",23.6,25.040665,0.172],
    [22891,"urn:WaterMeter:MC0203J22010600005","2024-06-07T08:15:00",23.6,24.974722,0.161],
    [22892,"urn:WaterMeter:MC0203J22010600005","2024-06-07T08:30:00",23.7,25.099237,0.187],
    [22893,"urn:WaterMeter:MC0203J22010600005","2024-06-07T08:45:00",23.799,26.252851,0.193],
    [22894,"urn:WaterMeter:MC0203J22010600005","2024-06-07T09:00:00",24,28.149256,0.21],
    [22895,"urn:WaterMeter:MC0203J22010600005","2024-06-07T09:15:00",24.1,29.440187,0.224],
    [22896,"urn:WaterMeter:MC0203J22010600005","2024-06-07T09:30:00",24.299,30.014318,0.225],
    [22897,"urn:WaterMeter:MC0203J22010600005","2024-06-07T09:45:00",24.5,30.325413,0.22],
    [22898,"urn:WaterMeter:MC0203J22010600005","2024-06-07T10:00:00",24.6,30.430107,0.226],
    [22899,"urn:WaterMeter:MC0203J22010600005","2024-06-07T10:15:00",24.799,30.494537,0.223],
    [22900,"urn:WaterMeter:MC0203J22010600005","2024-06-07T10:30:00",24.899,30.516998,0.233],
    [22901,"urn:WaterMeter:MC0203J22010600005","2024-06-07T10:45:00",25.1,30.497215,0.242],
    [22902,"urn:WaterMeter:MC0203J22010600005","2024-06-07T11:00:00",25.2,30.501133,0.229],
    [22903,"urn:WaterMeter:MC0203J22010600005","2024-06-07T11:15:00",25.299,30.454973,0.223],
    [22904,"urn:WaterMeter:MC0203J22010600005","2024-06-07T11:30:00",25.5,30.416182,0.226],
    [22905,"urn:WaterMeter:MC0203J22010600005","2024-06-07T11:45:00",25.6,30.366142,0.213],
    [22906,"urn:WaterMeter:MC0203J22010600005","2024-06-07T12:00:00",25.7,30.342054,0.214],
    [22907,"urn:WaterMeter:MC0203J22010600005","2024-06-07T12:15:00",25.799,30.303652,0.217],
    [22908,"urn:WaterMeter:MC0203J22010600005","2024-06-07T12:30:00",25.799,30.283482,0.219],
    [22909,"urn:WaterMeter:MC0203J22010600005","2024-06-07T12:45:00",25.899,30.226072,0.217],
    [22910,"urn:WaterMeter:MC0203J22010600005","2024-06-07T13:00:00",26,30.18767,0.222],
    [22911,"urn:WaterMeter:MC0203J22010600005","2024-06-07T13:15:00",26.1,30.1194,0.219],
    [22912,"urn:WaterMeter:MC0203J22010600005","2024-06-07T13:30:00",26.1,30.1303,0.216],
    [22913,"urn:WaterMeter:MC0203J22010600005","2024-06-07T13:45:00",26.2,30.053885,0.226],
    [22914,"urn:WaterMeter:MC0203J22010600005","2024-06-07T14:00:00",26.2,29.972385,0.211],
    [22915,"urn:WaterMeter:MC0203J22010600005","2024-06-07T14:15:00",26.299,29.933596,0.214],
    [22916,"urn:WaterMeter:MC0203J22010600005","2024-06-07T14:30:00",26.299,29.8995,0.21],
    [22917,"urn:WaterMeter:MC0203J22010600005","2024-06-07T14:45:00",26.299,29.831228,0.208],
    [22918,"urn:WaterMeter:MC0203J22010600005","2024-06-07T15:00:00",26.399,29.790073,0.209],
    [22919,"urn:WaterMeter:MC0203J22010600005","2024-06-07T15:15:00",26.399,29.705938,0.212],
    [22920,"urn:WaterMeter:MC0203J22010600005","2024-06-07T15:30:00",26.399,29.670639,0.222],
    [22921,"urn:WaterMeter:MC0203J22010600005","2024-06-07T15:45:00",26.399,29.65745,0.225],
    [22922,"urn:WaterMeter:MC0203J22010600005","2024-06-07T16:00:00",26.399,29.570948,0.213],
    [22923,"urn:WaterMeter:MC0203J22010600005","2024-06-07T16:15:00",26.399,29.532158,0.222],
    [22924,"urn:WaterMeter:MC0203J22010600005","2024-06-07T16:30:00",26.399,29.48014,0.224],
    [22925,"urn:WaterMeter:MC0203J22010600005","2024-06-07T16:45:00",26.399,29.444105,0.221],
    [22926,"urn:WaterMeter:MC0203J22010600005","2024-06-07T17:00:00",26.299,29.416952,0.218],
    [22927,"urn:WaterMeter:MC0203J22010600005","2024-06-07T17:15:00",26.299,29.403763,0.216],
    [22928,"urn:WaterMeter:MC0203J22010600005","2024-06-07T17:30:00",26.299,29.379713,0.209],
    [22929,"urn:WaterMeter:MC0203J22010600005","2024-06-07T17:45:00",26.2,29.309504,0.213],
    [22930,"urn:WaterMeter:MC0203J22010600005","2024-06-07T18:00:00",26.2,29.305586,0.214],
    [22931,"urn:WaterMeter:MC0203J22010600005","2024-06-07T18:15:00",26.1,29.302134,0.209],
    [22932,"urn:WaterMeter:MC0203J22010600005","2024-06-07T18:30:00",26.1,29.283514,0.218],
    [22933,"urn:WaterMeter:MC0203J22010600005","2024-06-07T18:45:00",26,29.249378,0.222],
    [22934,"urn:WaterMeter:MC0203J22010600005","2024-06-07T19:00:00",26,29.220287,0.218],
    [22935,"urn:WaterMeter:MC0203J22010600005","2024-06-07T19:15:00",25.899,29.186152,0.203],
    [22936,"urn:WaterMeter:MC0203J22010600005","2024-06-07T19:30:00",25.799,29.180721,0.208],
    [22937,"urn:WaterMeter:MC0203J22010600005","2024-06-07T19:45:00",25.799,29.150038,0.21],
    [22938,"urn:WaterMeter:MC0203J22010600005","2024-06-07T20:00:00",25.7,29.205158,0.199],
    [22939,"urn:WaterMeter:MC0203J22010600005","2024-06-07T20:15:00",25.7,29.176414,0.212],
    [22940,"urn:WaterMeter:MC0203J22010600005","2024-06-07T20:30:00",25.6,29.132622,0.21],
    [22941,"urn:WaterMeter:MC0203J22010600005","2024-06-07T20:45:00",25.5,29.103916,0.221],
    [22942,"urn:WaterMeter:MC0203J22010600005","2024-06-07T21:00:00",25.399,29.112839,0.22],
    [22943,"urn:WaterMeter:MC0203J22010600005","2024-06-07T21:15:00",25.299,29.111248,0.214],
    [22944,"urn:WaterMeter:MC0203J22010600005","2024-06-07T21:30:00",25.299,29.0884,0.221],
    [22945,"urn:WaterMeter:MC0203J22010600005","2024-06-07T21:45:00",25.2,29.076376,0.213],
    [22946,"urn:WaterMeter:MC0203J22010600005","2024-06-07T22:00:00",25.1,29.114002,0.208],
    [22947,"urn:WaterMeter:MC0203J22010600005","2024-06-07T22:15:00",25.1,29.07366,0.205],
    [22948,"urn:WaterMeter:MC0203J22010600005","2024-06-07T22:30:00",25,29.123312,0.209],
    [22949,"urn:WaterMeter:MC0203J22010600005","2024-06-07T22:45:00",24.899,29.044956,0.209],
    [22950,"urn:WaterMeter:MC0203J22010600005","2024-06-07T23:00:00",24.799,29.027113,0.214],
    [22951,"urn:WaterMeter:MC0203J22010600005","2024-06-07T23:15:00",24.799,29.017803,0.21],
    [22952,"urn:WaterMeter:MC0203J22010600005","2024-06-07T23:30:00",24.7,29.053452,0.214],
    [22953,"urn:WaterMeter:MC0203J22010600005","2024-06-07T23:45:00",24.6,29.030216,0.209],
    [22954,"urn:WaterMeter:MC0203J22010600005","2024-06-08T00:00:00",24.6,28.99259,0.209],
    [22955,"urn:WaterMeter:MC0203J22010600005","2024-06-08T00:15:00",24.5,29.004187,0.205],
    [22956,"urn:WaterMeter:MC0203J22010600005","2024-06-08T00:30:00",24.399,28.998796,0.211],
    [22957,"urn:WaterMeter:MC0203J22010600005","2024-06-08T00:45:00",24.299,28.99259,0.204],
    [22958,"urn:WaterMeter:MC0203J22010600005","2024-06-08T01:00:00",24.2,28.979788,0.208],
    [22959,"urn:WaterMeter:MC0203J22010600005","2024-06-08T01:15:00",24.2,28.972807,0.202],
    [22960,"urn:WaterMeter:MC0203J22010600005","2024-06-08T01:30:00",24.1,28.916523,0.21],
    [22961,"urn:WaterMeter:MC0203J22010600005","2024-06-08T01:45:00",24,28.924667,0.205],
    [22962,"urn:WaterMeter:MC0203J22010600005","2024-06-08T02:00:00",24,28.961945,0.206],
    [22963,"urn:WaterMeter:MC0203J22010600005","2024-06-08T02:15:00",23.899,28.953411,0.206],
    [22964,"urn:WaterMeter:MC0203J22010600005","2024-06-08T02:30:00",23.799,28.939835,0.204],
    [22965,"urn:WaterMeter:MC0203J22010600005","2024-06-08T02:45:00",23.799,28.965786,0.209],
    [22966,"urn:WaterMeter:MC0203J22010600005","2024-06-08T03:00:00",23.7,28.879322,0.214],
    [22967,"urn:WaterMeter:MC0203J22010600005","2024-06-08T03:15:00",23.6,28.890959,0.2],
    [22968,"urn:WaterMeter:MC0203J22010600005","2024-06-08T03:30:00",23.6,28.914621,0.203],
    [22969,"urn:WaterMeter:MC0203J22010600005","2024-06-08T03:45:00",23.5,28.883589,0.204],
    [22970,"urn:WaterMeter:MC0203J22010600005","2024-06-08T04:00:00",23.399,28.879322,0.21],
    [22971,"urn:WaterMeter:MC0203J22010600005","2024-06-08T04:15:00",23.399,28.908415,0.205],
    [22972,"urn:WaterMeter:MC0203J22010600005","2024-06-08T04:30:00",23.299,28.895615,0.215],
    [22973,"urn:WaterMeter:MC0203J22010600005","2024-06-08T04:45:00",23.299,28.876995,0.211],
    [22974,"urn:WaterMeter:MC0203J22010600005","2024-06-08T05:00:00",23.2,28.855272,0.203],
    [22975,"urn:WaterMeter:MC0203J22010600005","2024-06-08T05:15:00",23.2,28.815706,0.221],
    [22976,"urn:WaterMeter:MC0203J22010600005","2024-06-08T05:30:00",23.2,28.820322,0.201],
    [22977,"urn:WaterMeter:MC0203J22010600005","2024-06-08T05:45:00",23.2,28.800928,0.202],
    [22978,"urn:WaterMeter:MC0203J22010600005","2024-06-08T06:00:00",23.2,28.819159,0.212],
    [22979,"urn:WaterMeter:MC0203J22010600005","2024-06-08T06:15:00",23.2,28.79864,0.214],
    [22980,"urn:WaterMeter:MC0203J22010600005","2024-06-08T06:30:00",23.299,28.797863,0.199],
    [22981,"urn:WaterMeter:MC0203J22010600005","2024-06-08T06:45:00",23.299,28.709034,0.206],
    [22982,"urn:WaterMeter:MC0203J22010600005","2024-06-08T07:00:00",23.399,28.683044,0.219],
    [22983,"urn:WaterMeter:MC0203J22010600005","2024-06-08T07:15:00",23.399,28.657055,0.204],
    [22984,"urn:WaterMeter:MC0203J22010600005","2024-06-08T07:30:00",23.5,28.651625,0.208],
    [22985,"urn:WaterMeter:MC0203J22010600005","2024-06-08T07:45:00",23.6,28.587194,0.2],
    [22986,"urn:WaterMeter:MC0203J22010600005","2024-06-08T08:00:00",23.6,28.583742,0.221],
    [22987,"urn:WaterMeter:MC0203J22010600005","2024-06-08T08:15:00",23.7,28.52323,0.196],
    [22988,"urn:WaterMeter:MC0203J22010600005","2024-06-08T08:30:00",23.899,28.459188,0.204],
    [22989,"urn:WaterMeter:MC0203J22010600005","2024-06-08T08:45:00",24,28.46074,0.2],
    [22990,"urn:WaterMeter:MC0203J22010600005","2024-06-08T09:00:00",24.1,28.362213,0.208],
    [22991,"urn:WaterMeter:MC0203J22010600005","2024-06-08T09:15:00",24.2,28.348288,0.199],
    [22992,"urn:WaterMeter:MC0203J22010600005","2024-06-08T09:30:00",24.399,28.26101,0.177],
    [22993,"urn:WaterMeter:MC0203J22010600005","2024-06-08T09:45:00",24.5,28.232306,0.206],
    [22994,"urn:WaterMeter:MC0203J22010600005","2024-06-08T10:00:00",24.7,28.113997,0.198],
    [22995,"urn:WaterMeter:MC0203J22010600005","2024-06-08T10:15:00",24.899,28.067448,0.193],
    [22996,"urn:WaterMeter:MC0203J22010600005","2024-06-08T10:30:00",25.1,28.007711,0.193],
    [22997,"urn:WaterMeter:MC0203J22010600005","2024-06-08T10:45:00",25.2,27.932846,0.194],
    [22998,"urn:WaterMeter:MC0203J22010600005","2024-06-08T11:00:00",25.399,27.88242,0.212],
    [22999,"urn:WaterMeter:MC0203J22010600005","2024-06-08T11:15:00",25.5,27.785831,0.193],
    [23000,"urn:WaterMeter:MC0203J22010600005","2024-06-08T11:30:00",25.7,27.726871,0.19],
    [23001,"urn:WaterMeter:MC0203J22010600005","2024-06-08T11:45:00",25.799,27.654335,0.188],
    [23002,"urn:WaterMeter:MC0203J22010600005","2024-06-08T12:00:00",26,27.541843,0.193],
    [23003,"urn:WaterMeter:MC0203J22010600005","2024-06-08T12:15:00",26.1,27.506933,0.192],
    [23004,"urn:WaterMeter:MC0203J22010600005","2024-06-08T12:30:00",26.2,27.417328,0.184],
    [23005,"urn:WaterMeter:MC0203J22010600005","2024-06-08T12:45:00",26.399,27.297815,0.196],
    [23006,"urn:WaterMeter:MC0203J22010600005","2024-06-08T13:00:00",26.5,27.243937,0.19],
    [23007,"urn:WaterMeter:MC0203J22010600005","2024-06-08T13:15:00",26.6,27.157822,0.188],
    [23008,"urn:WaterMeter:MC0203J22010600005","2024-06-08T13:30:00",26.7,27.06589,0.185],
    [23009,"urn:WaterMeter:MC0203J22010600005","2024-06-08T13:45:00",26.799,27.012747,0.195],
    [23010,"urn:WaterMeter:MC0203J22010600005","2024-06-08T14:00:00",26.899,26.911507,0.187],
    [23011,"urn:WaterMeter:MC0203J22010600005","2024-06-08T14:15:00",26.899,26.823841,0.192],
    [23012,"urn:WaterMeter:MC0203J22010600005","2024-06-08T14:30:00",27.1,26.759836,0.197],
    [23013,"urn:WaterMeter:MC0203J22010600005","2024-06-08T14:45:00",27.1,26.636446,0.19],
    [23014,"urn:WaterMeter:MC0203J22010600005","2024-06-08T15:00:00",27.1,26.581404,0.195],
    [23015,"urn:WaterMeter:MC0203J22010600005","2024-06-08T15:15:00",27.1,26.496065,0.198],
    [23016,"urn:WaterMeter:MC0203J22010600005","2024-06-08T15:30:00",27.1,26.427406,0.187],
    [23017,"urn:WaterMeter:MC0203J22010600005","2024-06-08T15:45:00",27,26.39715,0.183],
    [23018,"urn:WaterMeter:MC0203J22010600005","2024-06-08T16:00:00",27,26.314915,0.188],
    [23019,"urn:WaterMeter:MC0203J22010600005","2024-06-08T16:15:00",26.899,26.245869,0.176],
    [23020,"urn:WaterMeter:MC0203J22010600005","2024-06-08T16:30:00",26.799,26.164799,0.183],
    [23021,"urn:WaterMeter:MC0203J22010600005","2024-06-08T16:45:00",26.7,26.134502,0.187],
    [23022,"urn:WaterMeter:MC0203J22010600005","2024-06-08T17:00:00",26.6,26.1167,0.188],
    [23023,"urn:WaterMeter:MC0203J22010600005","2024-06-08T17:15:00",26.299,26.067436,0.191],
    [23024,"urn:WaterMeter:MC0203J22010600005","2024-06-08T17:30:00",26,26.034813,0.178],
    [23025,"urn:WaterMeter:MC0203J22010600005","2024-06-08T17:45:00",26.299,40.67804,0.297],
    [23026,"urn:WaterMeter:MC0203J22010600005","2024-06-08T18:00:00",26,40.75484,0.303],
    [23027,"urn:WaterMeter:MC0203J22010600005","2024-06-08T18:15:00",25.399,40.936417,0.308],
    [23028,"urn:WaterMeter:MC0203J22010600005","2024-06-08T18:30:00",25.2,41.10473,0.304],
    [23029,"urn:WaterMeter:MC0203J22010600005","2024-06-08T18:45:00",24.799,41.24321,0.297],
    [23030,"urn:WaterMeter:MC0203J22010600005","2024-06-08T19:00:00",25,41.247128,0.298],
    [23031,"urn:WaterMeter:MC0203J22010600005","2024-06-08T19:15:00",24.6,41.347206,0.295],
    [23032,"urn:WaterMeter:MC0203J22010600005","2024-06-08T19:30:00",24.5,41.41392,0.287],
    [23033,"urn:WaterMeter:MC0203J22010600005","2024-06-08T19:45:00",24.299,41.555508,0.295],
    [23034,"urn:WaterMeter:MC0203J22010600005","2024-06-08T20:00:00",24.299,41.776184,0.276],
    [23035,"urn:WaterMeter:MC0203J22010600005","2024-06-08T20:15:00",24.1,41.192043,0.282],
    [23036,"urn:WaterMeter:MC0203J22010600005","2024-06-08T20:30:00",24,40.82583,0.266],
    [23037,"urn:WaterMeter:MC0203J22010600005","2024-06-08T20:45:00",23.899,40.147003,0.288],
    [23038,"urn:WaterMeter:MC0203J22010600005","2024-06-08T21:00:00",23.7,39.08381,0.257],
    [23039,"urn:WaterMeter:MC0203J22010600005","2024-06-08T21:15:00",23.7,38.21565,0.252],
    [23040,"urn:WaterMeter:MC0203J22010600005","2024-06-08T21:30:00",23.6,37.649742,0.248],
    [23041,"urn:WaterMeter:MC0203J22010600005","2024-06-08T21:45:00",23.5,35.830063,0.249],
    [23042,"urn:WaterMeter:MC0203J22010600005","2024-06-08T22:00:00",23.399,35.13809,0.232],
    [23043,"urn:WaterMeter:MC0203J22010600005","2024-06-08T22:15:00",23.299,34.83475,0.232],
    [23044,"urn:WaterMeter:MC0203J22010600005","2024-06-08T22:30:00",23.2,34.541847,0.244],
    [23045,"urn:WaterMeter:MC0203J22010600005","2024-06-08T22:45:00",23.2,34.31803,0.227],
    [23046,"urn:WaterMeter:MC0203J22010600005","2024-06-08T23:00:00",23.2,34.183853,0.229],
    [23047,"urn:WaterMeter:MC0203J22010600005","2024-06-08T23:15:00",23.2,34.083736,0.237],
    [23048,"urn:WaterMeter:MC0203J22010600005","2024-06-08T23:30:00",23.2,33.97206,0.25],
    [23049,"urn:WaterMeter:MC0203J22010600005","2024-06-08T23:45:00",23.1,33.794365,0.25],
    [23050,"urn:WaterMeter:MC0203J22010600005","2024-06-09T00:00:00",23.1,33.685402,0.24],
    [23051,"urn:WaterMeter:MC0203J22010600005","2024-06-09T00:15:00",23,33.574852,0.233],
    [23052,"urn:WaterMeter:MC0203J22010600005","2024-06-09T00:30:00",23,33.508133,0.23],
    [23053,"urn:WaterMeter:MC0203J22010600005","2024-06-09T00:45:00",22.899,33.382065,0.252],
    [23054,"urn:WaterMeter:MC0203J22010600005","2024-06-09T01:00:00",22.799,33.33164,0.228],
    [23055,"urn:WaterMeter:MC0203J22010600005","2024-06-09T01:15:00",22.799,33.304096,0.248],
    [23056,"urn:WaterMeter:MC0203J22010600005","2024-06-09T01:30:00",22.7,33.268024,0.234],
    [23057,"urn:WaterMeter:MC0203J22010600005","2024-06-09T01:45:00",22.6,33.17687,0.244],
    [23058,"urn:WaterMeter:MC0203J22010600005","2024-06-09T02:00:00",22.5,33.12799,0.226],
    [23059,"urn:WaterMeter:MC0203J22010600005","2024-06-09T02:15:00",22.399,33.058945,0.227],
    [23060,"urn:WaterMeter:MC0203J22010600005","2024-06-09T02:30:00",22.399,33.009254,0.234],
    [23061,"urn:WaterMeter:MC0203J22010600005","2024-06-09T02:45:00",22.299,32.996105,0.241],
    [23062,"urn:WaterMeter:MC0203J22010600005","2024-06-09T03:00:00",22.2,32.9065,0.229],
    [23063,"urn:WaterMeter:MC0203J22010600005","2024-06-09T03:15:00",22.1,32.903786,0.238],
    [23064,"urn:WaterMeter:MC0203J22010600005","2024-06-09T03:30:00",22,32.8906,0.227],
    [23065,"urn:WaterMeter:MC0203J22010600005","2024-06-09T03:45:00",22,32.800217,0.221],
    [23066,"urn:WaterMeter:MC0203J22010600005","2024-06-09T04:00:00",21.899,32.79052,0.227],
    [23067,"urn:WaterMeter:MC0203J22010600005","2024-06-09T04:15:00",21.799,32.841682,0.238],
    [23068,"urn:WaterMeter:MC0203J22010600005","2024-06-09T04:30:00",21.7,32.750175,0.237],
    [23069,"urn:WaterMeter:MC0203J22010600005","2024-06-09T04:45:00",21.7,32.74242,0.224],
    [23070,"urn:WaterMeter:MC0203J22010600005","2024-06-09T05:00:00",21.6,32.702854,0.226],
    [23071,"urn:WaterMeter:MC0203J22010600005","2024-06-09T05:15:00",21.5,32.69238,0.242],
    [23072,"urn:WaterMeter:MC0203J22010600005","2024-06-09T05:30:00",21.5,32.69932,0.225],
    [23073,"urn:WaterMeter:MC0203J22010600005","2024-06-09T05:45:00",21.5,32.661346,0.235],
    [23074,"urn:WaterMeter:MC0203J22010600005","2024-06-09T06:00:00",21.5,32.64467,0.231],
    [23075,"urn:WaterMeter:MC0203J22010600005","2024-06-09T06:15:00",21.5,32.624886,0.223],
    [23076,"urn:WaterMeter:MC0203J22010600005","2024-06-09T06:30:00",21.5,32.53024,0.229],
    [23077,"urn:WaterMeter:MC0203J22010600005","2024-06-09T06:45:00",21.399,32.52399,0.223],
    [23078,"urn:WaterMeter:MC0203J22010600005","2024-06-09T07:00:00",21.399,32.514683,0.222],
    [23079,"urn:WaterMeter:MC0203J22010600005","2024-06-09T07:15:00",21.399,32.551144,0.243],
    [23080,"urn:WaterMeter:MC0203J22010600005","2024-06-09T07:30:00",21.5,32.474342,0.22],
    [23081,"urn:WaterMeter:MC0203J22010600005","2024-06-09T07:45:00",21.6,32.428997,0.241],
    [23082,"urn:WaterMeter:MC0203J22010600005","2024-06-09T08:00:00",21.7,32.446026,0.222],
    [23083,"urn:WaterMeter:MC0203J22010600005","2024-06-09T08:15:00",21.7,32.391758,0.223],
    [23084,"urn:WaterMeter:MC0203J22010600005","2024-06-09T08:30:00",21.799,32.3487,0.224],
    [23085,"urn:WaterMeter:MC0203J22010600005","2024-06-09T08:45:00",21.799,32.269955,0.222],
    [23086,"urn:WaterMeter:MC0203J22010600005","2024-06-09T09:00:00",21.899,32.26375,0.236],
    [23087,"urn:WaterMeter:MC0203J22010600005","2024-06-09T09:15:00",22,32.242764,0.223],
    [23088,"urn:WaterMeter:MC0203J22010600005","2024-06-09T09:30:00",22.1,32.20091,0.221],
    [23089,"urn:WaterMeter:MC0203J22010600005","2024-06-09T09:45:00",22.2,32.087994,0.225],
    [23090,"urn:WaterMeter:MC0203J22010600005","2024-06-09T10:00:00",22.399,32.079884,0.217],
    [23091,"urn:WaterMeter:MC0203J22010600005","2024-06-09T10:15:00",22.5,32.04959,0.223],
    [23092,"urn:WaterMeter:MC0203J22010600005","2024-06-09T10:30:00",22.7,31.974764,0.22],
    [23093,"urn:WaterMeter:MC0203J22010600005","2024-06-09T10:45:00",22.799,31.915804,0.218],
    [23094,"urn:WaterMeter:MC0203J22010600005","2024-06-09T11:00:00",23,31.868868,0.216],
    [23095,"urn:WaterMeter:MC0203J22010600005","2024-06-09T11:15:00",23,31.823484,0.249],
    [23096,"urn:WaterMeter:MC0203J22010600005","2024-06-09T11:30:00",23.1,31.736555,0.217],
    [23097,"urn:WaterMeter:MC0203J22010600005","2024-06-09T11:45:00",23.2,31.673754,0.215],
    [23098,"urn:WaterMeter:MC0203J22010600005","2024-06-09T12:00:00",23.299,31.606647,0.228],
    [23099,"urn:WaterMeter:MC0203J22010600005","2024-06-09T12:15:00",23.399,31.550014,0.213],
    [23100,"urn:WaterMeter:MC0203J22010600005","2024-06-09T12:30:00",23.399,31.444117,0.221],
    [23101,"urn:WaterMeter:MC0203J22010600005","2024-06-09T12:45:00",23.5,31.442566,0.21],
    [23102,"urn:WaterMeter:MC0203J22010600005","2024-06-09T13:00:00",23.6,31.37546,0.219],
    [23103,"urn:WaterMeter:MC0203J22010600005","2024-06-09T13:15:00",23.7,31.305637,0.22],
    [23104,"urn:WaterMeter:MC0203J22010600005","2024-06-09T13:30:00",23.799,31.254007,0.215],
    [23105,"urn:WaterMeter:MC0203J22010600005","2024-06-09T13:45:00",23.899,31.192759,0.221],
    [23106,"urn:WaterMeter:MC0203J22010600005","2024-06-09T14:00:00",23.899,31.145046,0.223],
    [23107,"urn:WaterMeter:MC0203J22010600005","2024-06-09T14:15:00",24,31.092293,0.212],
    [23108,"urn:WaterMeter:MC0203J22010600005","2024-06-09T14:30:00",24.1,31.035658,0.219],
    [23109,"urn:WaterMeter:MC0203J22010600005","2024-06-09T14:45:00",24.1,30.98209,0.227],
    [23110,"urn:WaterMeter:MC0203J22010600005","2024-06-09T15:00:00",24.2,30.940622,0.21],
    [23111,"urn:WaterMeter:MC0203J22010600005","2024-06-09T15:15:00",24.2,30.90067,0.223],
    [23112,"urn:WaterMeter:MC0203J22010600005","2024-06-09T15:30:00",24.2,30.875418,0.219],
    [23113,"urn:WaterMeter:MC0203J22010600005","2024-06-09T15:45:00",24.2,30.794384,0.21],
    [23114,"urn:WaterMeter:MC0203J22010600005","2024-06-09T16:00:00",24.2,30.794773,0.209],
    [23115,"urn:WaterMeter:MC0203J22010600005","2024-06-09T16:15:00",24.2,30.737751,0.207],
    [23116,"urn:WaterMeter:MC0203J22010600005","2024-06-09T16:30:00",24.2,30.667154,0.209],
    [23117,"urn:WaterMeter:MC0203J22010600005","2024-06-09T16:45:00",24.2,30.68108,0.21],
    [23118,"urn:WaterMeter:MC0203J22010600005","2024-06-09T17:00:00",24.2,30.63298,0.208],
    [23119,"urn:WaterMeter:MC0203J22010600005","2024-06-09T17:15:00",24.2,30.606642,0.211],
    [23120,"urn:WaterMeter:MC0203J22010600005","2024-06-09T17:30:00",24.1,30.56436,0.216],
    [23121,"urn:WaterMeter:MC0203J22010600005","2024-06-09T17:45:00",24,30.529837,0.207],
    [23122,"urn:WaterMeter:MC0203J22010600005","2024-06-09T18:00:00",24,30.494886,0.208],
    [23123,"urn:WaterMeter:MC0203J22010600005","2024-06-09T18:15:00",24,30.486004,0.212],
    [23124,"urn:WaterMeter:MC0203J22010600005","2024-06-09T18:30:00",23.899,30.455748,0.217],
    [23125,"urn:WaterMeter:MC0203J22010600005","2024-06-09T18:45:00",23.899,30.460014,0.209],
    [23126,"urn:WaterMeter:MC0203J22010600005","2024-06-09T19:00:00",23.899,30.404158,0.213],
    [23127,"urn:WaterMeter:MC0203J22010600005","2024-06-09T19:15:00",23.799,30.438643,0.21],
    [23128,"urn:WaterMeter:MC0203J22010600005","2024-06-09T19:30:00",23.799,30.354895,0.21],
    [23129,"urn:WaterMeter:MC0203J22010600005","2024-06-09T19:45:00",23.799,30.354118,0.214],
    [23130,"urn:WaterMeter:MC0203J22010600005","2024-06-09T20:00:00",23.799,30.334335,0.207],
    [23131,"urn:WaterMeter:MC0203J22010600005","2024-06-09T20:15:00",23.799,30.333134,0.217],
    [23132,"urn:WaterMeter:MC0203J22010600005","2024-06-09T20:30:00",23.799,30.330845,0.214],
    [23133,"urn:WaterMeter:MC0203J22010600005","2024-06-09T20:45:00",23.799,30.342054,0.207],
    [23134,"urn:WaterMeter:MC0203J22010600005","2024-06-09T21:00:00",23.7,30.3002,0.213],
    [23135,"urn:WaterMeter:MC0203J22010600005","2024-06-09T21:15:00",23.7,30.304855,0.205],
    [23136,"urn:WaterMeter:MC0203J22010600005","2024-06-09T21:30:00",23.6,30.28934,0.205],
    [23137,"urn:WaterMeter:MC0203J22010600005","2024-06-09T21:45:00",23.6,30.255165,0.205],
    [23138,"urn:WaterMeter:MC0203J22010600005","2024-06-09T22:00:00",23.6,30.256756,0.219],
    [23139,"urn:WaterMeter:MC0203J22010600005","2024-06-09T22:15:00",23.5,30.2137,0.203],
    [23140,"urn:WaterMeter:MC0203J22010600005","2024-06-09T22:30:00",23.5,30.19698,0.211],
    [23141,"urn:WaterMeter:MC0203J22010600005","2024-06-09T22:45:00",23.399,30.233093,0.218],
    [23142,"urn:WaterMeter:MC0203J22010600005","2024-06-09T23:00:00",23.399,30.231543,0.204],
    [23143,"urn:WaterMeter:MC0203J22010600005","2024-06-09T23:15:00",23.299,30.2156,0.205],
    [23144,"urn:WaterMeter:MC0203J22010600005","2024-06-09T23:30:00",23.2,30.199734,0.212],
    [23145,"urn:WaterMeter:MC0203J22010600005","2024-06-09T23:45:00",23.1,30.17064,0.205],
    [23146,"urn:WaterMeter:MC0203J22010600005","2024-06-10T00:00:00",23,30.183443,0.211],
    [23147,"urn:WaterMeter:MC0203J22010600005","2024-06-10T00:15:00",22.899,30.193916,0.206],
    [23148,"urn:WaterMeter:MC0203J22010600005","2024-06-10T00:30:00",22.899,30.16366,0.215],
    [23149,"urn:WaterMeter:MC0203J22010600005","2024-06-10T00:45:00",22.799,30.156677,0.218],
    [23150,"urn:WaterMeter:MC0203J22010600005","2024-06-10T01:00:00",22.7,30.19857,0.205],
    [23151,"urn:WaterMeter:MC0203J22010600005","2024-06-10T01:15:00",22.7,30.188059,0.205],
    [23152,"urn:WaterMeter:MC0203J22010600005","2024-06-10T01:30:00",22.6,30.188873,0.206],
    [23153,"urn:WaterMeter:MC0203J22010600005","2024-06-10T01:45:00",22.5,30.152798,0.212],
    [23154,"urn:WaterMeter:MC0203J22010600005","2024-06-10T02:00:00",22.399,30.169477,0.216],
    [23155,"urn:WaterMeter:MC0203J22010600005","2024-06-10T02:15:00",22.399,30.164047,0.214],
    [23156,"urn:WaterMeter:MC0203J22010600005","2024-06-10T02:30:00",22.299,30.172194,0.213],
    [23157,"urn:WaterMeter:MC0203J22010600005","2024-06-10T02:45:00",22.2,30.179176,0.208],
    [23158,"urn:WaterMeter:MC0203J22010600005","2024-06-10T03:00:00",22.2,30.142324,0.207],
    [23159,"urn:WaterMeter:MC0203J22010600005","2024-06-10T03:15:00",22.1,30.14927,0.205],
    [23160,"urn:WaterMeter:MC0203J22010600005","2024-06-10T03:30:00",22,30.131464,0.205],
    [23161,"urn:WaterMeter:MC0203J22010600005","2024-06-10T03:45:00",22,30.169867,0.213],
    [23162,"urn:WaterMeter:MC0203J22010600005","2024-06-10T04:00:00",21.899,30.137281,0.209],
    [23163,"urn:WaterMeter:MC0203J22010600005","2024-06-10T04:15:00",21.899,30.124481,0.202],
    [23164,"urn:WaterMeter:MC0203J22010600005","2024-06-10T04:30:00",21.799,30.102371,0.216],
    [23165,"urn:WaterMeter:MC0203J22010600005","2024-06-10T04:45:00",21.799,30.122541,0.21],
    [23166,"urn:WaterMeter:MC0203J22010600005","2024-06-10T05:00:00",21.799,30.116724,0.203],
    [23167,"urn:WaterMeter:MC0203J22010600005","2024-06-10T05:15:00",21.7,30.119787,0.2],
    [23168,"urn:WaterMeter:MC0203J22010600005","2024-06-10T05:30:00",21.799,30.076769,0.208],
    [23169,"urn:WaterMeter:MC0203J22010600005","2024-06-10T05:45:00",21.799,30.068197,0.209],
    [23170,"urn:WaterMeter:MC0203J22010600005","2024-06-10T06:00:00",21.799,30.068584,0.218],
    [23171,"urn:WaterMeter:MC0203J22010600005","2024-06-10T06:15:00",21.899,30.087593,0.209],
    [23172,"urn:WaterMeter:MC0203J22010600005","2024-06-10T06:30:00",21.899,30.032122,0.2],
    [23173,"urn:WaterMeter:MC0203J22010600005","2024-06-10T06:45:00",22,29.998026,0.199],
    [23174,"urn:WaterMeter:MC0203J22010600005","2024-06-10T07:00:00",22.1,29.995312,0.207],
    [23175,"urn:WaterMeter:MC0203J22010600005","2024-06-10T07:15:00",22.2,30.02867,0.2],
    [23176,"urn:WaterMeter:MC0203J22010600005","2024-06-10T07:30:00",22.399,30.026342,0.207],
    [23177,"urn:WaterMeter:MC0203J22010600005","2024-06-10T07:45:00",22.5,30.240076,0.212],
    [23178,"urn:WaterMeter:MC0203J22010600005","2024-06-10T08:00:00",22.7,30.870802,0.217],
    [23179,"urn:WaterMeter:MC0203J22010600005","2024-06-10T08:15:00",22.799,31.92938,0.234],
    [23180,"urn:WaterMeter:MC0203J22010600005","2024-06-10T08:30:00",22.799,32.984467,0.248],
    [23181,"urn:WaterMeter:MC0203J22010600005","2024-06-10T08:45:00",22.799,33.76337,0.249],
    [23182,"urn:WaterMeter:MC0203J22010600005","2024-06-10T09:00:00",22.899,34.277687,0.254],
    [23183,"urn:WaterMeter:MC0203J22010600005","2024-06-10T09:15:00",23,33.852936,0.245],
    [23184,"urn:WaterMeter:MC0203J22010600005","2024-06-10T09:30:00",23.2,33.412323,0.261],
    [23185,"urn:WaterMeter:MC0203J22010600005","2024-06-10T09:45:00",23.399,33.138466,0.235],
    [23186,"urn:WaterMeter:MC0203J22010600005","2024-06-10T10:00:00",23.6,33.02675,0.25],
    [23187,"urn:WaterMeter:MC0203J22010600005","2024-06-10T10:15:00",23.799,32.892498,0.24],
    [23188,"urn:WaterMeter:MC0203J22010600005","2024-06-10T10:30:00",23.899,32.818058,0.228],
    [23189,"urn:WaterMeter:MC0203J22010600005","2024-06-10T10:45:00",24.1,32.69587,0.231],
    [23190,"urn:WaterMeter:MC0203J22010600005","2024-06-10T11:00:00",24.2,32.57756,0.231],
    [23191,"urn:WaterMeter:MC0203J22010600005","2024-06-10T11:15:00",24.2,32.466194,0.233],
    [23192,"urn:WaterMeter:MC0203J22010600005","2024-06-10T11:30:00",24.299,32.409214,0.228],
    [23193,"urn:WaterMeter:MC0203J22010600005","2024-06-10T11:45:00",24.299,32.351803,0.244],
    [23194,"urn:WaterMeter:MC0203J22010600005","2024-06-10T12:00:00",24.399,32.22884,0.23],
    [23195,"urn:WaterMeter:MC0203J22010600005","2024-06-10T12:15:00",24.399,32.137257,0.233],
    [23196,"urn:WaterMeter:MC0203J22010600005","2024-06-10T12:30:00",24.399,32.06821,0.234],
    [23197,"urn:WaterMeter:MC0203J22010600005","2024-06-10T12:45:00",24.5,32.030582,0.226],
    [23198,"urn:WaterMeter:MC0203J22010600005","2024-06-10T13:00:00",24.5,31.982096,0.24],
    [23199,"urn:WaterMeter:MC0203J22010600005","2024-06-10T13:15:00",24.6,31.912273,0.226],
    [23200,"urn:WaterMeter:MC0203J22010600005","2024-06-10T13:30:00",24.6,31.865337,0.224],
    [23201,"urn:WaterMeter:MC0203J22010600005","2024-06-10T13:45:00",24.6,31.788572,0.229],
    [23202,"urn:WaterMeter:MC0203J22010600005","2024-06-10T14:00:00",24.7,31.707113,0.226],
    [23203,"urn:WaterMeter:MC0203J22010600005","2024-06-10T14:15:00",24.7,31.65048,0.247],
    [23204,"urn:WaterMeter:MC0203J22010600005","2024-06-10T14:30:00",24.7,31.59889,0.234],
    [23205,"urn:WaterMeter:MC0203J22010600005","2024-06-10T14:45:00",24.7,31.52515,0.225],
    [23206,"urn:WaterMeter:MC0203J22010600005","2024-06-10T15:00:00",24.7,31.511225,0.224],
    [23207,"urn:WaterMeter:MC0203J22010600005","2024-06-10T15:15:00",24.7,31.437872,0.219],
    [23208,"urn:WaterMeter:MC0203J22010600005","2024-06-10T15:30:00",24.7,31.42511,0.236],
    [23209,"urn:WaterMeter:MC0203J22010600005","2024-06-10T15:45:00",24.7,31.394466,0.224],
    [23210,"urn:WaterMeter:MC0203J22010600005","2024-06-10T16:00:00",24.7,31.360292,0.229],
    [23211,"urn:WaterMeter:MC0203J22010600005","2024-06-10T16:15:00",24.6,31.291634,0.236],
    [23212,"urn:WaterMeter:MC0203J22010600005","2024-06-10T16:30:00",24.7,31.277708,0.22],
    [23213,"urn:WaterMeter:MC0203J22010600005","2024-06-10T16:45:00",24.6,31.212502,0.217],
    [23214,"urn:WaterMeter:MC0203J22010600005","2024-06-10T17:00:00",24.6,31.215605,0.236],
    [23215,"urn:WaterMeter:MC0203J22010600005","2024-06-10T17:15:00",24.399,31.162113,0.22],
    [23216,"urn:WaterMeter:MC0203J22010600005","2024-06-10T17:30:00",24.299,31.169096,0.218],
    [23217,"urn:WaterMeter:MC0203J22010600005","2024-06-10T17:45:00",18.2,40.267292,0.308],
    [23218,"urn:WaterMeter:MC0203J22010600005","2024-06-10T18:00:00",16.6,40.099716,0.298],
    [23219,"urn:WaterMeter:MC0203J22010600005","2024-06-10T18:15:00",17.5,39.88715,0.297],
    [23220,"urn:WaterMeter:MC0203J22010600005","2024-06-10T18:30:00",18.2,39.838272,0.305],
    [23221,"urn:WaterMeter:MC0203J22010600005","2024-06-10T18:45:00",18.799,39.91465,0.308],
    [23222,"urn:WaterMeter:MC0203J22010600005","2024-06-10T19:00:00",19.2,39.937965,0.298],
    [23223,"urn:WaterMeter:MC0203J22010600005","2024-06-10T19:15:00",19.399,39.93525,0.336],
    [23224,"urn:WaterMeter:MC0203J22010600005","2024-06-10T19:30:00",19.5,40.01283,0.305],
    [23225,"urn:WaterMeter:MC0203J22010600005","2024-06-10T19:45:00",19.799,39.96861,0.298],
    [23226,"urn:WaterMeter:MC0203J22010600005","2024-06-10T20:00:00",19.899,39.966667,0.339],
    [23227,"urn:WaterMeter:MC0203J22010600005","2024-06-10T20:15:00",20.1,39.39568,0.309],
    [23228,"urn:WaterMeter:MC0203J22010600005","2024-06-10T20:30:00",20.2,39.26806,0.299],
    [23229,"urn:WaterMeter:MC0203J22010600005","2024-06-10T20:45:00",20.2,39.053165,0.303],
    [23230,"urn:WaterMeter:MC0203J22010600005","2024-06-10T21:00:00",20.2,38.554325,0.298],
    [23231,"urn:WaterMeter:MC0203J22010600005","2024-06-10T21:15:00",20.299,38.05044,0.294],
    [23232,"urn:WaterMeter:MC0203J22010600005","2024-06-10T21:30:00",20.299,37.463936,0.301],
    [23233,"urn:WaterMeter:MC0203J22010600005","2024-06-10T21:45:00",20.299,37.112072,0.284],
    [23234,"urn:WaterMeter:MC0203J22010600005","2024-06-10T22:00:00",20.399,36.56591,0.293],
    [23235,"urn:WaterMeter:MC0203J22010600005","2024-06-10T22:15:00",20.399,35.77304,0.292],
    [23236,"urn:WaterMeter:MC0203J22010600005","2024-06-10T22:30:00",20.399,35.40962,0.299],
    [23237,"urn:WaterMeter:MC0203J22010600005","2024-06-10T22:45:00",20.399,35.12141,0.288],
    [23238,"urn:WaterMeter:MC0203J22010600005","2024-06-10T23:00:00",20.5,34.932888,0.27],
    [23239,"urn:WaterMeter:MC0203J22010600005","2024-06-10T23:15:00",20.5,34.71679,0.267],
    [23240,"urn:WaterMeter:MC0203J22010600005","2024-06-10T23:30:00",20.5,34.363064,0.287],
    [23241,"urn:WaterMeter:MC0203J22010600005","2024-06-10T23:45:00",20.5,34.27924,0.27],
    [23242,"urn:WaterMeter:MC0203J22010600005","2024-06-11T00:00:00",20.5,34.150497,0.275],
    [23243,"urn:WaterMeter:MC0203J22010600005","2024-06-11T00:15:00",20.5,34.07757,0.263],
    [23244,"urn:WaterMeter:MC0203J22010600005","2024-06-11T00:30:00",20.5,33.93754,0.262],
    [23245,"urn:WaterMeter:MC0203J22010600005","2024-06-11T00:45:00",20.5,33.88901,0.26],
    [23246,"urn:WaterMeter:MC0203J22010600005","2024-06-11T01:00:00",20.5,33.754025,0.273],
    [23247,"urn:WaterMeter:MC0203J22010600005","2024-06-11T01:15:00",20.5,33.636528,0.252],
    [23248,"urn:WaterMeter:MC0203J22010600005","2024-06-11T01:30:00",20.5,33.592697,0.254],
    [23249,"urn:WaterMeter:MC0203J22010600005","2024-06-11T01:45:00",20.5,33.57718,0.255],
    [23250,"urn:WaterMeter:MC0203J22010600005","2024-06-11T02:00:00",20.5,33.49572,0.281],
    [23251,"urn:WaterMeter:MC0203J22010600005","2024-06-11T02:15:00",20.5,33.407627,0.264],
    [23252,"urn:WaterMeter:MC0203J22010600005","2024-06-11T02:30:00",20.5,33.36806,0.261],
    [23253,"urn:WaterMeter:MC0203J22010600005","2024-06-11T02:45:00",20.5,33.35491,0.251],
    [23254,"urn:WaterMeter:MC0203J22010600005","2024-06-11T03:00:00",20.5,33.321552,0.264],
    [23255,"urn:WaterMeter:MC0203J22010600005","2024-06-11T03:15:00",20.5,33.25208,0.26],
    [23256,"urn:WaterMeter:MC0203J22010600005","2024-06-11T03:30:00",20.5,33.156696,0.291],
    [23257,"urn:WaterMeter:MC0203J22010600005","2024-06-11T03:45:00",20.5,33.149326,0.274],
    [23258,"urn:WaterMeter:MC0203J22010600005","2024-06-11T04:00:00",20.5,33.096146,0.251],
    [23259,"urn:WaterMeter:MC0203J22010600005","2024-06-11T04:15:00",20.5,32.99339,0.256],
    [23260,"urn:WaterMeter:MC0203J22010600005","2024-06-11T04:30:00",20.5,32.939434,0.253],
    [23261,"urn:WaterMeter:MC0203J22010600005","2024-06-11T04:45:00",20.5,32.907665,0.247],
    [23262,"urn:WaterMeter:MC0203J22010600005","2024-06-11T05:00:00",20.5,32.922752,0.253],
    [23263,"urn:WaterMeter:MC0203J22010600005","2024-06-11T05:15:00",20.5,32.804054,0.257],
    [23264,"urn:WaterMeter:MC0203J22010600005","2024-06-11T05:30:00",20.5,32.861855,0.265],
    [23265,"urn:WaterMeter:MC0203J22010600005","2024-06-11T05:45:00",20.399,32.781597,0.265],
    [23266,"urn:WaterMeter:MC0203J22010600005","2024-06-11T06:00:00",20.5,32.79591,0.26],
    [23267,"urn:WaterMeter:MC0203J22010600005","2024-06-11T06:15:00",20.5,32.75871,0.27],
    [23268,"urn:WaterMeter:MC0203J22010600005","2024-06-11T06:30:00",20.5,32.728416,0.246],
    [23269,"urn:WaterMeter:MC0203J22010600005","2024-06-11T06:45:00",20.6,32.67954,0.241],
    [23270,"urn:WaterMeter:MC0203J22010600005","2024-06-11T07:00:00",20.6,32.687687,0.264],
    [23271,"urn:WaterMeter:MC0203J22010600005","2024-06-11T07:15:00",20.5,32.608593,0.26],
    [23272,"urn:WaterMeter:MC0203J22010600005","2024-06-11T07:30:00",20.5,32.60316,0.264],
    [23273,"urn:WaterMeter:MC0203J22010600005","2024-06-11T07:45:00",20.6,32.586094,0.255],
    [23274,"urn:WaterMeter:MC0203J22010600005","2024-06-11T08:00:00",20.6,32.52209,0.252],
    [23275,"urn:WaterMeter:MC0203J22010600005","2024-06-11T08:15:00",20.7,32.50192,0.245],
    [23276,"urn:WaterMeter:MC0203J22010600005","2024-06-11T08:30:00",20.7,32.43171,0.25],
    [23277,"urn:WaterMeter:MC0203J22010600005","2024-06-11T08:45:00",20.899,32.422012,0.264],
    [23278,"urn:WaterMeter:MC0203J22010600005","2024-06-11T09:00:00",20.899,32.443737,0.246],
    [23279,"urn:WaterMeter:MC0203J22010600005","2024-06-11T09:15:00",20.899,32.432873,0.247],
    [23280,"urn:WaterMeter:MC0203J22010600005","2024-06-11T09:30:00",21,32.39486,0.267],
    [23281,"urn:WaterMeter:MC0203J22010600005","2024-06-11T09:45:00",21,32.355682,0.244],
    [23282,"urn:WaterMeter:MC0203J22010600005","2024-06-11T10:00:00",21,32.337414,0.259],
    [23283,"urn:WaterMeter:MC0203J22010600005","2024-06-11T10:15:00",21.1,32.27147,0.259],
    [23284,"urn:WaterMeter:MC0203J22010600005","2024-06-11T10:30:00",21.2,32.305645,0.263],
    [23285,"urn:WaterMeter:MC0203J22010600005","2024-06-11T10:45:00",21.299,32.281944,0.242],
    [23286,"urn:WaterMeter:MC0203J22010600005","2024-06-11T11:00:00",21.399,32.268017,0.254],
    [23287,"urn:WaterMeter:MC0203J22010600005","2024-06-11T11:15:00",21.5,32.17725,0.254],
    [23288,"urn:WaterMeter:MC0203J22010600005","2024-06-11T11:30:00",21.5,32.15626,0.259],
    [23289,"urn:WaterMeter:MC0203J22010600005","2024-06-11T11:45:00",21.5,32.122166,0.256],
    [23290,"urn:WaterMeter:MC0203J22010600005","2024-06-11T12:00:00",21.5,32.166348,0.261],
    [23291,"urn:WaterMeter:MC0203J22010600005","2024-06-11T12:15:00",21.6,32.159794,0.262],
    [23292,"urn:WaterMeter:MC0203J22010600005","2024-06-11T12:30:00",21.7,32.118286,0.242],
    [23293,"urn:WaterMeter:MC0203J22010600005","2024-06-11T12:45:00",21.799,32.068596,0.249],
    [23294,"urn:WaterMeter:MC0203J22010600005","2024-06-11T13:00:00",21.899,32.08066,0.241],
    [23295,"urn:WaterMeter:MC0203J22010600005","2024-06-11T13:15:00",22,31.998814,0.241],
    [23296,"urn:WaterMeter:MC0203J22010600005","2024-06-11T13:30:00",22.2,31.97554,0.244],
    [23297,"urn:WaterMeter:MC0203J22010600005","2024-06-11T13:45:00",22.2,31.923136,0.259],
    [23298,"urn:WaterMeter:MC0203J22010600005","2024-06-11T14:00:00",22.299,31.860722,0.269],
    [23299,"urn:WaterMeter:MC0203J22010600005","2024-06-11T14:15:00",22.299,31.831629,0.246],
    [23300,"urn:WaterMeter:MC0203J22010600005","2024-06-11T14:30:00",22.299,31.799433,0.241],
    [23301,"urn:WaterMeter:MC0203J22010600005","2024-06-11T14:45:00",22.2,31.785856,0.243],
    [23302,"urn:WaterMeter:MC0203J22010600005","2024-06-11T15:00:00",22.2,31.78353,0.263],
    [23303,"urn:WaterMeter:MC0203J22010600005","2024-06-11T15:15:00",22.2,31.755562,0.239],
    [23304,"urn:WaterMeter:MC0203J22010600005","2024-06-11T15:30:00",22.2,31.748192,0.259],
    [23305,"urn:WaterMeter:MC0203J22010600005","2024-06-11T15:45:00",22.2,31.716423,0.252],
    [23306,"urn:WaterMeter:MC0203J22010600005","2024-06-11T16:00:00",22.2,31.73194,0.251],
    [23307,"urn:WaterMeter:MC0203J22010600005","2024-06-11T16:15:00",22.2,31.698929,0.257],
    [23308,"urn:WaterMeter:MC0203J22010600005","2024-06-11T16:30:00",22.2,31.672977,0.241],
    [23309,"urn:WaterMeter:MC0203J22010600005","2024-06-11T16:45:00",22.299,31.70789,0.25],
    [23310,"urn:WaterMeter:MC0203J22010600005","2024-06-11T17:00:00",22.299,31.697378,0.25],
    [23311,"urn:WaterMeter:MC0203J22010600005","2024-06-11T17:15:00",22.299,31.642296,0.246],
    [23312,"urn:WaterMeter:MC0203J22010600005","2024-06-11T17:30:00",22.299,31.638844,0.244],
    [23313,"urn:WaterMeter:MC0203J22010600005","2024-06-11T17:45:00",22.299,31.66169,0.247],
    [23314,"urn:WaterMeter:MC0203J22010600005","2024-06-11T18:00:00",22.299,31.601566,0.245],
    [23315,"urn:WaterMeter:MC0203J22010600005","2024-06-11T18:15:00",22.2,31.616344,0.248],
    [23316,"urn:WaterMeter:MC0203J22010600005","2024-06-11T18:30:00",22.1,31.589191,0.242],
    [23317,"urn:WaterMeter:MC0203J22010600005","2024-06-11T18:45:00",22.1,31.573637,0.241],
    [23318,"urn:WaterMeter:MC0203J22010600005","2024-06-11T19:00:00",22.1,31.587252,0.244],
    [23319,"urn:WaterMeter:MC0203J22010600005","2024-06-11T19:15:00",22.1,31.592295,0.244],
    [23320,"urn:WaterMeter:MC0203J22010600005","2024-06-11T19:30:00",22,31.59342,0.243],
    [23321,"urn:WaterMeter:MC0203J22010600005","2024-06-11T19:45:00",22,31.592644,0.243],
    [23322,"urn:WaterMeter:MC0203J22010600005","2024-06-11T20:00:00",22,31.540316,0.237],
    [23323,"urn:WaterMeter:MC0203J22010600005","2024-06-11T20:15:00",21.899,31.574024,0.254],
    [23324,"urn:WaterMeter:MC0203J22010600005","2024-06-11T20:30:00",21.899,31.566694,0.251],
    [23325,"urn:WaterMeter:MC0203J22010600005","2024-06-11T20:45:00",21.899,31.513552,0.24],
    [23326,"urn:WaterMeter:MC0203J22010600005","2024-06-11T21:00:00",21.899,31.538765,0.259],
    [23327,"urn:WaterMeter:MC0203J22010600005","2024-06-11T21:15:00",21.899,31.493769,0.274],
    [23328,"urn:WaterMeter:MC0203J22010600005","2024-06-11T21:30:00",21.799,31.482908,0.239],
    [23329,"urn:WaterMeter:MC0203J22010600005","2024-06-11T21:45:00",21.799,31.527515,0.249],
    [23330,"urn:WaterMeter:MC0203J22010600005","2024-06-11T22:00:00",21.799,31.504204,0.237],
    [23331,"urn:WaterMeter:MC0203J22010600005","2024-06-11T22:15:00",21.799,31.533335,0.239],
    [23332,"urn:WaterMeter:MC0203J22010600005","2024-06-11T22:30:00",21.7,31.484032,0.24],
    [23333,"urn:WaterMeter:MC0203J22010600005","2024-06-11T22:45:00",21.7,31.471659,0.249],
    [23334,"urn:WaterMeter:MC0203J22010600005","2024-06-11T23:00:00",21.7,31.468943,0.238],
    [23335,"urn:WaterMeter:MC0203J22010600005","2024-06-11T23:15:00",21.6,31.435196,0.238],
    [23336,"urn:WaterMeter:MC0203J22010600005","2024-06-11T23:30:00",21.6,31.480968,0.235],
    [23337,"urn:WaterMeter:MC0203J22010600005","2024-06-11T23:45:00",21.6,31.427399,0.243],
    [23338,"urn:WaterMeter:MC0203J22010600005","2024-06-12T00:00:00",21.6,31.454203,0.24],
    [23339,"urn:WaterMeter:MC0203J22010600005","2024-06-12T00:15:00",21.6,31.40878,0.252],
    [23340,"urn:WaterMeter:MC0203J22010600005","2024-06-12T00:30:00",21.6,31.38632,0.245],
    [23341,"urn:WaterMeter:MC0203J22010600005","2024-06-12T00:45:00",21.6,31.423946,0.243],
    [23342,"urn:WaterMeter:MC0203J22010600005","2024-06-12T01:00:00",21.5,31.39175,0.252],
    [23343,"urn:WaterMeter:MC0203J22010600005","2024-06-12T01:15:00",21.5,31.39214,0.232],
    [23344,"urn:WaterMeter:MC0203J22010600005","2024-06-12T01:30:00",21.5,31.414637,0.24],
    [23345,"urn:WaterMeter:MC0203J22010600005","2024-06-12T01:45:00",21.5,31.39175,0.239],
    [23346,"urn:WaterMeter:MC0203J22010600005","2024-06-12T02:00:00",21.5,31.422783,0.236],
    [23347,"urn:WaterMeter:MC0203J22010600005","2024-06-12T02:15:00",21.399,31.350206,0.242],
    [23348,"urn:WaterMeter:MC0203J22010600005","2024-06-12T02:30:00",21.399,31.348267,0.236],
    [23349,"urn:WaterMeter:MC0203J22010600005","2024-06-12T02:45:00",21.399,31.354513,0.234],
    [23350,"urn:WaterMeter:MC0203J22010600005","2024-06-12T03:00:00",21.399,31.377787,0.251],
    [23351,"urn:WaterMeter:MC0203J22010600005","2024-06-12T03:15:00",21.399,31.305637,0.236],
    [23352,"urn:WaterMeter:MC0203J22010600005","2024-06-12T03:30:00",21.399,31.34943,0.259],
    [23353,"urn:WaterMeter:MC0203J22010600005","2024-06-12T03:45:00",21.399,31.316887,0.237],
    [23354,"urn:WaterMeter:MC0203J22010600005","2024-06-12T04:00:00",21.399,31.342487,0.252],
    [23355,"urn:WaterMeter:MC0203J22010600005","2024-06-12T04:15:00",21.399,31.347143,0.225],
    [23356,"urn:WaterMeter:MC0203J22010600005","2024-06-12T04:30:00",21.399,31.34982,0.25],
    [23357,"urn:WaterMeter:MC0203J22010600005","2024-06-12T04:45:00",21.399,31.314947,0.247],
    [23358,"urn:WaterMeter:MC0203J22010600005","2024-06-12T05:00:00",21.399,31.30327,0.236],
    [23359,"urn:WaterMeter:MC0203J22010600005","2024-06-12T05:15:00",21.399,31.272627,0.24],
    [23360,"urn:WaterMeter:MC0203J22010600005","2024-06-12T05:30:00",21.399,31.257925,0.237],
    [23361,"urn:WaterMeter:MC0203J22010600005","2024-06-12T05:45:00",21.399,31.30874,0.244],
    [23362,"urn:WaterMeter:MC0203J22010600005","2024-06-12T06:00:00",21.399,31.255598,0.237],
    [23363,"urn:WaterMeter:MC0203J22010600005","2024-06-12T06:15:00",21.399,31.241634,0.264],
    [23364,"urn:WaterMeter:MC0203J22010600005","2024-06-12T06:30:00",21.399,31.293186,0.232],
    [23365,"urn:WaterMeter:MC0203J22010600005","2024-06-12T06:45:00",21.399,31.289345,0.246],
    [23366,"urn:WaterMeter:MC0203J22010600005","2024-06-12T07:00:00",21.399,31.191206,0.239],
    [23367,"urn:WaterMeter:MC0203J22010600005","2024-06-12T07:15:00",21.5,31.313395,0.262],
    [23368,"urn:WaterMeter:MC0203J22010600005","2024-06-12T07:30:00",21.7,31.532171,0.245],
    [23369,"urn:WaterMeter:MC0203J22010600005","2024-06-12T07:45:00",21.799,32.079884,0.243],
    [23370,"urn:WaterMeter:MC0203J22010600005","2024-06-12T08:00:00",21.899,33.118683,0.267],
    [23371,"urn:WaterMeter:MC0203J22010600005","2024-06-12T08:15:00",21.899,34.051193,0.271],
    [23372,"urn:WaterMeter:MC0203J22010600005","2024-06-12T08:30:00",22,34.71524,0.274],
    [23373,"urn:WaterMeter:MC0203J22010600005","2024-06-12T08:45:00",22,35.212566,0.281],
    [23374,"urn:WaterMeter:MC0203J22010600005","2024-06-12T09:00:00",22.1,35.600853,0.293],
    [23375,"urn:WaterMeter:MC0203J22010600005","2024-06-12T09:15:00",22.2,35.345966,0.279],
    [23376,"urn:WaterMeter:MC0203J22010600005","2024-06-12T09:30:00",22.299,34.77191,0.277],
    [23377,"urn:WaterMeter:MC0203J22010600005","2024-06-12T09:45:00",22.299,34.13494,0.271],
    [23378,"urn:WaterMeter:MC0203J22010600005","2024-06-12T10:00:00",22.299,33.80759,0.27],
    [23379,"urn:WaterMeter:MC0203J22010600005","2024-06-12T10:15:00",22.1,33.594635,0.269],
    [23380,"urn:WaterMeter:MC0203J22010600005","2024-06-12T10:30:00",21.899,33.52869,0.271],
    [23381,"urn:WaterMeter:MC0203J22010600005","2024-06-12T10:45:00",21.899,33.39409,0.289],
    [23382,"urn:WaterMeter:MC0203J22010600005","2024-06-12T11:00:00",21.899,33.375084,0.277],
    [23383,"urn:WaterMeter:MC0203J22010600005","2024-06-12T11:15:00",21.899,33.271862,0.266],
    [23384,"urn:WaterMeter:MC0203J22010600005","2024-06-12T11:30:00",21.899,33.156307,0.272],
    [23385,"urn:WaterMeter:MC0203J22010600005","2024-06-12T11:45:00",21.899,33.11015,0.263],
    [23386,"urn:WaterMeter:MC0203J22010600005","2024-06-12T12:00:00",21.899,33.05235,0.259],
    [23387,"urn:WaterMeter:MC0203J22010600005","2024-06-12T12:15:00",21.899,33.020157,0.269],
    [23388,"urn:WaterMeter:MC0203J22010600005","2024-06-12T12:30:00",21.899,32.94176,0.255],
    [23389,"urn:WaterMeter:MC0203J22010600005","2024-06-12T12:45:00",22.1,32.83784,0.255],
    [23390,"urn:WaterMeter:MC0203J22010600005","2024-06-12T13:00:00",22.2,32.848316,0.255],
    [23391,"urn:WaterMeter:MC0203J22010600005","2024-06-12T13:15:00",22.299,32.801765,0.26],
    [23392,"urn:WaterMeter:MC0203J22010600005","2024-06-12T13:30:00",22.399,32.671043,0.258],
    [23393,"urn:WaterMeter:MC0203J22010600005","2024-06-12T13:45:00",22.399,32.62566,0.255],
    [23394,"urn:WaterMeter:MC0203J22010600005","2024-06-12T14:00:00",22.299,32.557392,0.243],
    [23395,"urn:WaterMeter:MC0203J22010600005","2024-06-12T14:15:00",22.2,32.571316,0.265],
    [23396,"urn:WaterMeter:MC0203J22010600005","2024-06-12T14:30:00",22.1,32.44839,0.259],
    [23397,"urn:WaterMeter:MC0203J22010600005","2024-06-12T14:45:00",21.1,39.80918,0.317],
    [23398,"urn:WaterMeter:MC0203J22010600005","2024-06-12T15:00:00",21.1,39.58187,0.298],
    [23399,"urn:WaterMeter:MC0203J22010600005","2024-06-12T15:15:00",21.299,39.472485,0.315],
    [23400,"urn:WaterMeter:MC0203J22010600005","2024-06-12T15:30:00",21.5,39.550064,0.295],
    [23401,"urn:WaterMeter:MC0203J22010600005","2024-06-12T15:45:00",21.799,39.579155,0.296],
    [23402,"urn:WaterMeter:MC0203J22010600005","2024-06-12T16:00:00",22.2,39.608635,0.296],
    [23403,"urn:WaterMeter:MC0203J22010600005","2024-06-12T16:15:00",22.399,39.538815,0.294],
    [23404,"urn:WaterMeter:MC0203J22010600005","2024-06-12T16:30:00",22.299,39.612087,0.292],
    [23405,"urn:WaterMeter:MC0203J22010600005","2024-06-12T16:45:00",22.1,39.699017,0.298],
    [23406,"urn:WaterMeter:MC0203J22010600005","2024-06-12T17:00:00",21.899,39.64859,0.314],
    [23407,"urn:WaterMeter:MC0203J22010600005","2024-06-12T17:15:00",21.799,39.217247,0.301],
    [23408,"urn:WaterMeter:MC0203J22010600005","2024-06-12T17:30:00",21.7,39.12027,0.295],
    [23409,"urn:WaterMeter:MC0203J22010600005","2024-06-12T17:45:00",21.5,39.152855,0.301],
    [23410,"urn:WaterMeter:MC0203J22010600005","2024-06-12T18:00:00",21.399,39.21259,0.296],
    [23411,"urn:WaterMeter:MC0203J22010600005","2024-06-12T18:15:00",21.299,39.20363,0.303],
    [23412,"urn:WaterMeter:MC0203J22010600005","2024-06-12T18:30:00",21.299,39.092342,0.33],
    [23413,"urn:WaterMeter:MC0203J22010600005","2024-06-12T18:45:00",21.2,39.080276,0.318],
    [23414,"urn:WaterMeter:MC0203J22010600005","2024-06-12T19:00:00",21.2,38.95774,0.285],
    [23415,"urn:WaterMeter:MC0203J22010600005","2024-06-12T19:15:00",21.1,38.51127,0.294],
    [23416,"urn:WaterMeter:MC0203J22010600005","2024-06-12T19:30:00",21.1,38.317318,0.282],
    [23417,"urn:WaterMeter:MC0203J22010600005","2024-06-12T19:45:00",21,38.27077,0.283],
    [23418,"urn:WaterMeter:MC0203J22010600005","2024-06-12T20:00:00",20.899,37.837097,0.279],
    [23419,"urn:WaterMeter:MC0203J22010600005","2024-06-12T20:15:00",20.899,37.413124,0.285],
    [23420,"urn:WaterMeter:MC0203J22010600005","2024-06-12T20:30:00",20.799,37.177666,0.298],
    [23421,"urn:WaterMeter:MC0203J22010600005","2024-06-12T20:45:00",20.7,36.65513,0.293],
    [23422,"urn:WaterMeter:MC0203J22010600005","2024-06-12T21:00:00",20.7,36.48096,0.27],
    [23423,"urn:WaterMeter:MC0203J22010600005","2024-06-12T21:15:00",20.7,35.825447,0.274],
    [23424,"urn:WaterMeter:MC0203J22010600005","2024-06-12T21:30:00",20.6,35.37277,0.262],
    [23425,"urn:WaterMeter:MC0203J22010600005","2024-06-12T21:45:00",20.6,35.103916,0.261],
    [23426,"urn:WaterMeter:MC0203J22010600005","2024-06-12T22:00:00",20.6,34.92707,0.258],
    [23427,"urn:WaterMeter:MC0203J22010600005","2024-06-12T22:15:00",20.5,34.82932,0.261],
    [23428,"urn:WaterMeter:MC0203J22010600005","2024-06-12T22:30:00",20.5,34.654377,0.257],
    [23429,"urn:WaterMeter:MC0203J22010600005","2024-06-12T22:45:00",20.399,34.62994,0.265],
    [23430,"urn:WaterMeter:MC0203J22010600005","2024-06-12T23:00:00",20.399,34.462753,0.263],
    [23431,"urn:WaterMeter:MC0203J22010600005","2024-06-12T23:15:00",20.399,34.37005,0.256],
    [23432,"urn:WaterMeter:MC0203J22010600005","2024-06-12T23:30:00",20.299,34.32889,0.258],
    [23433,"urn:WaterMeter:MC0203J22010600005","2024-06-12T23:45:00",20.2,34.19972,0.253],
    [23434,"urn:WaterMeter:MC0203J22010600005","2024-06-13T00:00:00",20.2,34.15515,0.251],
    [23435,"urn:WaterMeter:MC0203J22010600005","2024-06-13T00:15:00",20.2,34.126446,0.274],
    [23436,"urn:WaterMeter:MC0203J22010600005","2024-06-13T00:30:00",20.1,34.002705,0.25],
    [23437,"urn:WaterMeter:MC0203J22010600005","2024-06-13T00:45:00",20.1,33.96081,0.249],
    [23438,"urn:WaterMeter:MC0203J22010600005","2024-06-13T01:00:00",20,33.90767,0.261],
    [23439,"urn:WaterMeter:MC0203J22010600005","2024-06-13T01:15:00",20,33.76527,0.254],
    [23440,"urn:WaterMeter:MC0203J22010600005","2024-06-13T01:30:00",19.899,33.735405,0.249],
    [23441,"urn:WaterMeter:MC0203J22010600005","2024-06-13T01:45:00",19.899,33.710617,0.254],
    [23442,"urn:WaterMeter:MC0203J22010600005","2024-06-13T02:00:00",19.899,33.6105,0.248],
    [23443,"urn:WaterMeter:MC0203J22010600005","2024-06-13T02:15:00",19.799,33.61403,0.268],
    [23444,"urn:WaterMeter:MC0203J22010600005","2024-06-13T02:30:00",19.799,33.531406,0.25],
    [23445,"urn:WaterMeter:MC0203J22010600005","2024-06-13T02:45:00",19.7,33.49921,0.257],
    [23446,"urn:WaterMeter:MC0203J22010600005","2024-06-13T03:00:00",19.7,33.455727,0.265],
    [23447,"urn:WaterMeter:MC0203J22010600005","2024-06-13T03:15:00",19.6,33.404915,0.257],
    [23448,"urn:WaterMeter:MC0203J22010600005","2024-06-13T03:30:00",19.6,33.391376,0.247],
    [23449,"urn:WaterMeter:MC0203J22010600005","2024-06-13T03:45:00",19.5,33.317673,0.251],
    [23450,"urn:WaterMeter:MC0203J22010600005","2024-06-13T04:00:00",19.5,33.300957,0.263],
    [23451,"urn:WaterMeter:MC0203J22010600005","2024-06-13T04:15:00",19.5,33.307163,0.25],
    [23452,"urn:WaterMeter:MC0203J22010600005","2024-06-13T04:30:00",19.399,33.25949,0.257],
    [23453,"urn:WaterMeter:MC0203J22010600005","2024-06-13T04:45:00",19.299,33.17609,0.247],
    [23454,"urn:WaterMeter:MC0203J22010600005","2024-06-13T05:00:00",19.299,33.193897,0.267],
    [23455,"urn:WaterMeter:MC0203J22010600005","2024-06-13T05:15:00",19.299,33.12838,0.25],
    [23456,"urn:WaterMeter:MC0203J22010600005","2024-06-13T05:30:00",19.2,33.074074,0.262],
    [23457,"urn:WaterMeter:MC0203J22010600005","2024-06-13T05:45:00",19.2,33.0508,0.239],
    [23458,"urn:WaterMeter:MC0203J22010600005","2024-06-13T06:00:00",19.2,33.090366,0.251],
    [23459,"urn:WaterMeter:MC0203J22010600005","2024-06-13T06:15:00",19.2,33.012783,0.239],
    [23460,"urn:WaterMeter:MC0203J22010600005","2024-06-13T06:30:00",19.299,33.017788,0.251],
    [23461,"urn:WaterMeter:MC0203J22010600005","2024-06-13T06:45:00",19.299,32.99494,0.262],
    [23462,"urn:WaterMeter:MC0203J22010600005","2024-06-13T07:00:00",19.299,32.950684,0.245],
    [23463,"urn:WaterMeter:MC0203J22010600005","2024-06-13T07:15:00",19.399,32.93831,0.248],
    [23464,"urn:WaterMeter:MC0203J22010600005","2024-06-13T07:30:00",19.5,32.89719,0.237],
    [23465,"urn:WaterMeter:MC0203J22010600005","2024-06-13T07:45:00",19.6,32.84909,0.246],
    [23466,"urn:WaterMeter:MC0203J22010600005","2024-06-13T08:00:00",19.7,32.851032,0.244],
    [23467,"urn:WaterMeter:MC0203J22010600005","2024-06-13T08:15:00",19.7,32.79052,0.247],
    [23468,"urn:WaterMeter:MC0203J22010600005","2024-06-13T08:30:00",19.799,32.742805,0.259],
    [23469,"urn:WaterMeter:MC0203J22010600005","2024-06-13T08:45:00",19.899,32.71794,0.255],
    [23470,"urn:WaterMeter:MC0203J22010600005","2024-06-13T09:00:00",20,32.7257,0.249],
    [23471,"urn:WaterMeter:MC0203J22010600005","2024-06-13T09:15:00",20,32.69238,0.245],
    [23472,"urn:WaterMeter:MC0203J22010600005","2024-06-13T09:30:00",20,32.65553,0.246],
    [23473,"urn:WaterMeter:MC0203J22010600005","2024-06-13T09:45:00",20.1,32.656693,0.244],
    [23474,"urn:WaterMeter:MC0203J22010600005","2024-06-13T10:00:00",20.1,32.60549,0.249],
    [23475,"urn:WaterMeter:MC0203J22010600005","2024-06-13T10:15:00",20.2,32.576008,0.264],
    [23476,"urn:WaterMeter:MC0203J22010600005","2024-06-13T10:30:00",20.2,32.569416,0.238],
    [23477,"urn:WaterMeter:MC0203J22010600005","2024-06-13T10:45:00",20.299,32.549244,0.243],
    [23478,"urn:WaterMeter:MC0203J22010600005","2024-06-13T11:00:00",20.399,32.560883,0.247],
    [23479,"urn:WaterMeter:MC0203J22010600005","2024-06-13T11:15:00",20.5,32.46895,0.252],
    [23480,"urn:WaterMeter:MC0203J22010600005","2024-06-13T11:30:00",20.6,32.40417,0.241],
    [23481,"urn:WaterMeter:MC0203J22010600005","2024-06-13T11:45:00",20.7,32.42779,0.244],
    [23482,"urn:WaterMeter:MC0203J22010600005","2024-06-13T12:00:00",20.899,32.322323,0.243],
    [23483,"urn:WaterMeter:MC0203J22010600005","2024-06-13T12:15:00",21,32.31728,0.245],
    [23484,"urn:WaterMeter:MC0203J22010600005","2024-06-13T12:30:00",21,32.297108,0.254],
    [23485,"urn:WaterMeter:MC0203J22010600005","2024-06-13T12:45:00",21.1,32.22298,0.236],
    [23486,"urn:WaterMeter:MC0203J22010600005","2024-06-13T13:00:00",21.2,32.226513,0.244],
    [23487,"urn:WaterMeter:MC0203J22010600005","2024-06-13T13:15:00",21.299,32.12333,0.239],
    [23488,"urn:WaterMeter:MC0203J22010600005","2024-06-13T13:30:00",21.5,32.118286,0.231],
    [23489,"urn:WaterMeter:MC0203J22010600005","2024-06-13T13:45:00",21.6,32.0345,0.246],
    [23490,"urn:WaterMeter:MC0203J22010600005","2024-06-13T14:00:00",21.7,32.00502,0.246],
    [23491,"urn:WaterMeter:MC0203J22010600005","2024-06-13T14:15:00",21.7,31.988302,0.236],
    [23492,"urn:WaterMeter:MC0203J22010600005","2024-06-13T14:30:00",21.799,31.95184,0.242],
    [23493,"urn:WaterMeter:MC0203J22010600005","2024-06-13T14:45:00",21.899,31.896797,0.234],
    [23494,"urn:WaterMeter:MC0203J22010600005","2024-06-13T15:00:00",22,31.838999,0.231],
    [23495,"urn:WaterMeter:MC0203J22010600005","2024-06-13T15:15:00",22.1,31.800985,0.238],
    [23496,"urn:WaterMeter:MC0203J22010600005","2024-06-13T15:30:00",22.2,31.789349,0.234],
    [23497,"urn:WaterMeter:MC0203J22010600005","2024-06-13T15:45:00",22.2,31.778448,0.254],
    [23498,"urn:WaterMeter:MC0203J22010600005","2024-06-13T16:00:00",22.2,31.72457,0.246],
    [23499,"urn:WaterMeter:MC0203J22010600005","2024-06-13T16:15:00",22.299,31.700092,0.24],
    [23500,"urn:WaterMeter:MC0203J22010600005","2024-06-13T16:30:00",22.299,31.65397,0.235],
    [23501,"urn:WaterMeter:MC0203J22010600005","2024-06-13T16:45:00",22.299,31.634964,0.236],
    [23502,"urn:WaterMeter:MC0203J22010600005","2024-06-13T17:00:00",22.299,31.543768,0.235],
    [23503,"urn:WaterMeter:MC0203J22010600005","2024-06-13T17:15:00",22.299,31.536438,0.247],
    [23504,"urn:WaterMeter:MC0203J22010600005","2024-06-13T17:30:00",22.299,31.499586,0.243],
    [23505,"urn:WaterMeter:MC0203J22010600005","2024-06-13T17:45:00",22.2,31.471659,0.232],
    [23506,"urn:WaterMeter:MC0203J22010600005","2024-06-13T18:00:00",22.1,31.500751,0.249],
    [23507,"urn:WaterMeter:MC0203J22010600005","2024-06-13T18:15:00",22,31.445631,0.249],
    [23508,"urn:WaterMeter:MC0203J22010600005","2024-06-13T18:30:00",21.899,31.482132,0.233],
    [23509,"urn:WaterMeter:MC0203J22010600005","2024-06-13T18:45:00",21.899,31.40684,0.243],
    [23510,"urn:WaterMeter:MC0203J22010600005","2024-06-13T19:00:00",21.799,31.422007,0.233],
    [23511,"urn:WaterMeter:MC0203J22010600005","2024-06-13T19:15:00",21.799,31.41037,0.242],
    [23512,"urn:WaterMeter:MC0203J22010600005","2024-06-13T19:30:00",21.7,31.39016,0.249],
    [23513,"urn:WaterMeter:MC0203J22010600005","2024-06-13T19:45:00",21.7,31.417353,0.232],
    [23514,"urn:WaterMeter:MC0203J22010600005","2024-06-13T20:00:00",21.6,31.390976,0.246],
    [23515,"urn:WaterMeter:MC0203J22010600005","2024-06-13T20:15:00",21.6,31.35878,0.251],
    [23516,"urn:WaterMeter:MC0203J22010600005","2024-06-13T20:30:00",21.5,31.333178,0.234],
    [23517,"urn:WaterMeter:MC0203J22010600005","2024-06-13T20:45:00",21.5,31.327747,0.235],
    [23518,"urn:WaterMeter:MC0203J22010600005","2024-06-13T21:00:00",21.5,31.361456,0.23],
    [23519,"urn:WaterMeter:MC0203J22010600005","2024-06-13T21:15:00",21.399,31.345978,0.234],
    [23520,"urn:WaterMeter:MC0203J22010600005","2024-06-13T21:30:00",21.399,31.29047,0.245],
    [23521,"urn:WaterMeter:MC0203J22010600005","2024-06-13T21:45:00",21.299,31.339384,0.239],
    [23522,"urn:WaterMeter:MC0203J22010600005","2024-06-13T22:00:00",21.299,31.297878,0.235],
    [23523,"urn:WaterMeter:MC0203J22010600005","2024-06-13T22:15:00",21.2,31.311804,0.235],
    [23524,"urn:WaterMeter:MC0203J22010600005","2024-06-13T22:30:00",21.2,31.320377,0.233],
    [23525,"urn:WaterMeter:MC0203J22010600005","2024-06-13T22:45:00",21.1,31.31611,0.239],
    [23526,"urn:WaterMeter:MC0203J22010600005","2024-06-13T23:00:00",21.1,31.294775,0.24],
    [23527,"urn:WaterMeter:MC0203J22010600005","2024-06-13T23:15:00",21.1,31.284302,0.234],
    [23528,"urn:WaterMeter:MC0203J22010600005","2024-06-13T23:30:00",21,31.290083,0.24],
    [23529,"urn:WaterMeter:MC0203J22010600005","2024-06-13T23:45:00",21,31.294388,0.233],
    [23530,"urn:WaterMeter:MC0203J22010600005","2024-06-14T00:00:00",20.899,31.274605,0.241],
    [23531,"urn:WaterMeter:MC0203J22010600005","2024-06-14T00:15:00",20.899,31.294388,0.232],
    [23532,"urn:WaterMeter:MC0203J22010600005","2024-06-14T00:30:00",20.799,31.262192,0.236],
    [23533,"urn:WaterMeter:MC0203J22010600005","2024-06-14T00:45:00",20.799,31.252068,0.24],
    [23534,"urn:WaterMeter:MC0203J22010600005","2024-06-14T01:00:00",20.799,31.284302,0.239],
    [23535,"urn:WaterMeter:MC0203J22010600005","2024-06-14T01:15:00",20.7,31.30172,0.232],
    [23536,"urn:WaterMeter:MC0203J22010600005","2024-06-14T01:30:00",20.7,31.208662,0.23],
    [23537,"urn:WaterMeter:MC0203J22010600005","2024-06-14T01:45:00",20.6,31.283876,0.231],
    [23538,"urn:WaterMeter:MC0203J22010600005","2024-06-14T02:00:00",20.5,31.266848,0.22],
    [23539,"urn:WaterMeter:MC0203J22010600005","2024-06-14T02:15:00",20.5,31.240082,0.246],
    [23540,"urn:WaterMeter:MC0203J22010600005","2024-06-14T02:30:00",20.399,31.25362,0.243],
    [23541,"urn:WaterMeter:MC0203J22010600005","2024-06-14T02:45:00",20.399,31.266459,0.231],
    [23542,"urn:WaterMeter:MC0203J22010600005","2024-06-14T03:00:00",20.299,31.205132,0.24],
    [23543,"urn:WaterMeter:MC0203J22010600005","2024-06-14T03:15:00",20.299,31.276157,0.236],
    [23544,"urn:WaterMeter:MC0203J22010600005","2024-06-14T03:30:00",20.2,31.200516,0.236],
    [23545,"urn:WaterMeter:MC0203J22010600005","2024-06-14T03:45:00",20.2,31.230385,0.233],
    [23546,"urn:WaterMeter:MC0203J22010600005","2024-06-14T04:00:00",20.1,31.215605,0.25],
    [23547,"urn:WaterMeter:MC0203J22010600005","2024-06-14T04:15:00",20.1,31.229221,0.238],
    [23548,"urn:WaterMeter:MC0203J22010600005","2024-06-14T04:30:00",20,31.207499,0.23],
    [23549,"urn:WaterMeter:MC0203J22010600005","2024-06-14T04:45:00",20,31.215605,0.239],
    [23550,"urn:WaterMeter:MC0203J22010600005","2024-06-14T05:00:00",19.899,31.227282,0.233],
    [23551,"urn:WaterMeter:MC0203J22010600005","2024-06-14T05:15:00",19.899,31.25168,0.236],
    [23552,"urn:WaterMeter:MC0203J22010600005","2024-06-14T05:30:00",19.799,31.235388,0.225],
    [23553,"urn:WaterMeter:MC0203J22010600005","2024-06-14T05:45:00",19.799,31.221462,0.25],
    [23554,"urn:WaterMeter:MC0203J22010600005","2024-06-14T06:00:00",19.7,31.180346,0.23],
    [23555,"urn:WaterMeter:MC0203J22010600005","2024-06-14T06:15:00",19.7,31.229221,0.244],
    [23556,"urn:WaterMeter:MC0203J22010600005","2024-06-14T06:30:00",19.7,31.227282,0.231],
    [23557,"urn:WaterMeter:MC0203J22010600005","2024-06-14T06:45:00",19.799,31.1741,0.238],
    [23558,"urn:WaterMeter:MC0203J22010600005","2024-06-14T07:00:00",19.899,31.176815,0.241],
    [23559,"urn:WaterMeter:MC0203J22010600005","2024-06-14T07:15:00",20.1,31.223015,0.234],
    [23560,"urn:WaterMeter:MC0203J22010600005","2024-06-14T07:30:00",20.399,31.348656,0.245],
    [23561,"urn:WaterMeter:MC0203J22010600005","2024-06-14T07:45:00",20.6,31.784306,0.24],
    [23562,"urn:WaterMeter:MC0203J22010600005","2024-06-14T08:00:00",20.799,32.704792,0.25],
    [23563,"urn:WaterMeter:MC0203J22010600005","2024-06-14T08:15:00",20.899,33.801,0.264],
    [23564,"urn:WaterMeter:MC0203J22010600005","2024-06-14T08:30:00",21.1,34.558178,0.27],
    [23565,"urn:WaterMeter:MC0203J22010600005","2024-06-14T08:45:00",21.2,35.078354,0.279],
    [23566,"urn:WaterMeter:MC0203J22010600005","2024-06-14T09:00:00",21.399,35.385143,0.274],
    [23567,"urn:WaterMeter:MC0203J22010600005","2024-06-14T09:15:00",21.6,35.02521,0.294],
    [23568,"urn:WaterMeter:MC0203J22010600005","2024-06-14T09:30:00",21.799,34.463104,0.277],
    [23569,"urn:WaterMeter:MC0203J22010600005","2024-06-14T09:45:00",22,34.054684,0.261],
    [23570,"urn:WaterMeter:MC0203J22010600005","2024-06-14T10:00:00",22.1,33.884785,0.284],
    [23571,"urn:WaterMeter:MC0203J22010600005","2024-06-14T10:15:00",22.2,33.716785,0.267],
    [23572,"urn:WaterMeter:MC0203J22010600005","2024-06-14T10:30:00",22.299,33.5477,0.257],
    [23573,"urn:WaterMeter:MC0203J22010600005","2024-06-14T10:45:00",22.5,33.42939,0.259],
    [23574,"urn:WaterMeter:MC0203J22010600005","2024-06-14T11:00:00",22.5,33.31302,0.254],
    [23575,"urn:WaterMeter:MC0203J22010600005","2024-06-14T11:15:00",22.5,33.254448,0.263],
    [23576,"urn:WaterMeter:MC0203J22010600005","2024-06-14T11:30:00",22.5,33.164803,0.27],
    [23577,"urn:WaterMeter:MC0203J22010600005","2024-06-14T11:45:00",22.399,33.056965,0.273],
    [23578,"urn:WaterMeter:MC0203J22010600005","2024-06-14T12:00:00",22.5,32.93055,0.26],
    [23579,"urn:WaterMeter:MC0203J22010600005","2024-06-14T12:15:00",22.7,32.880123,0.265],
    [23580,"urn:WaterMeter:MC0203J22010600005","2024-06-14T12:30:00",22.799,32.800602,0.28],
    [23581,"urn:WaterMeter:MC0203J22010600005","2024-06-14T12:45:00",22.899,32.7719,0.278],
    [23582,"urn:WaterMeter:MC0203J22010600005","2024-06-14T13:00:00",23,32.639973,0.248],
    [23583,"urn:WaterMeter:MC0203J22010600005","2024-06-14T13:15:00",23,32.556225,0.247],
    [23584,"urn:WaterMeter:MC0203J22010600005","2024-06-14T13:30:00",23.1,32.495674,0.254],
    [23585,"urn:WaterMeter:MC0203J22010600005","2024-06-14T13:45:00",23.1,32.394085,0.249],
    [23586,"urn:WaterMeter:MC0203J22010600005","2024-06-14T14:00:00",23.1,32.382446,0.247],
    [23587,"urn:WaterMeter:MC0203J22010600005","2024-06-14T14:15:00",23.2,32.26216,0.255],
    [23588,"urn:WaterMeter:MC0203J22010600005","2024-06-14T14:30:00",23.1,32.16402,0.259],
    [23589,"urn:WaterMeter:MC0203J22010600005","2024-06-14T14:45:00",23.1,32.12178,0.25],
    [23590,"urn:WaterMeter:MC0203J22010600005","2024-06-14T15:00:00",23.1,32.04575,0.247],
    [23591,"urn:WaterMeter:MC0203J22010600005","2024-06-14T15:15:00",23.1,31.973213,0.26],
    [23592,"urn:WaterMeter:MC0203J22010600005","2024-06-14T15:30:00",23.1,31.89443,0.239],
    [23593,"urn:WaterMeter:MC0203J22010600005","2024-06-14T15:45:00",23.1,31.900288,0.239],
    [23594,"urn:WaterMeter:MC0203J22010600005","2024-06-14T16:00:00",23,31.83547,0.247],
    [23595,"urn:WaterMeter:MC0203J22010600005","2024-06-14T16:15:00",22.899,31.795904,0.242],
    [23596,"urn:WaterMeter:MC0203J22010600005","2024-06-14T16:30:00",22.899,31.722242,0.257],
    [23597,"urn:WaterMeter:MC0203J22010600005","2024-06-14T16:45:00",22.799,31.649317,0.24],
    [23598,"urn:WaterMeter:MC0203J22010600005","2024-06-14T17:00:00",22.7,31.658976,0.239],
    [23599,"urn:WaterMeter:MC0203J22010600005","2024-06-14T17:15:00",22.7,31.579494,0.235],
    [23600,"urn:WaterMeter:MC0203J22010600005","2024-06-14T17:30:00",22.6,31.54532,0.259],
    [23601,"urn:WaterMeter:MC0203J22010600005","2024-06-14T17:45:00",22.5,31.530231,0.241],
    [23602,"urn:WaterMeter:MC0203J22010600005","2024-06-14T18:00:00",22.399,31.522472,0.248],
    [23603,"urn:WaterMeter:MC0203J22010600005","2024-06-14T18:15:00",22.399,31.501139,0.265],
    [23604,"urn:WaterMeter:MC0203J22010600005","2024-06-14T18:30:00",22.299,31.465412,0.234],
    [23605,"urn:WaterMeter:MC0203J22010600005","2024-06-14T18:45:00",22.299,31.414637,0.257],
    [23606,"urn:WaterMeter:MC0203J22010600005","2024-06-14T19:00:00",22.2,31.361456,0.238],
    [23607,"urn:WaterMeter:MC0203J22010600005","2024-06-14T19:15:00",22.2,31.353737,0.264],
    [23608,"urn:WaterMeter:MC0203J22010600005","2024-06-14T19:30:00",22.1,31.369213,0.266],
    [23609,"urn:WaterMeter:MC0203J22010600005","2024-06-14T19:45:00",22.1,31.363047,0.253],
    [23610,"urn:WaterMeter:MC0203J22010600005","2024-06-14T20:00:00",22,31.296328,0.243],
    [23611,"urn:WaterMeter:MC0203J22010600005","2024-06-14T20:15:00",21.899,31.326195,0.235],
    [23612,"urn:WaterMeter:MC0203J22010600005","2024-06-14T20:30:00",21.899,31.316498,0.226],
    [23613,"urn:WaterMeter:MC0203J22010600005","2024-06-14T20:45:00",21.899,31.331587,0.248],
    [23614,"urn:WaterMeter:MC0203J22010600005","2024-06-14T21:00:00",21.799,31.253231,0.238],
    [23615,"urn:WaterMeter:MC0203J22010600005","2024-06-14T21:15:00",21.7,31.297104,0.25],
    [23616,"urn:WaterMeter:MC0203J22010600005","2024-06-14T21:30:00",21.6,31.28663,0.233],
    [23617,"urn:WaterMeter:MC0203J22010600005","2024-06-14T21:45:00",21.6,31.245512,0.232],
    [23618,"urn:WaterMeter:MC0203J22010600005","2024-06-14T22:00:00",21.5,31.252457,0.236],
    [23619,"urn:WaterMeter:MC0203J22010600005","2024-06-14T22:15:00",21.5,31.27185,0.23],
    [23620,"urn:WaterMeter:MC0203J22010600005","2024-06-14T22:30:00",21.399,31.273403,0.238],
    [23621,"urn:WaterMeter:MC0203J22010600005","2024-06-14T22:45:00",21.399,31.238142,0.245],
    [23622,"urn:WaterMeter:MC0203J22010600005","2024-06-14T23:00:00",21.299,31.232285,0.253],
    [23623,"urn:WaterMeter:MC0203J22010600005","2024-06-14T23:15:00",21.299,31.190042,0.234],
    [23624,"urn:WaterMeter:MC0203J22010600005","2024-06-14T23:30:00",21.2,31.16095,0.238],
    [23625,"urn:WaterMeter:MC0203J22010600005","2024-06-14T23:45:00",21.2,31.172586,0.243],
    [23626,"urn:WaterMeter:MC0203J22010600005","2024-06-15T00:00:00",21.1,31.195822,0.243],
    [23627,"urn:WaterMeter:MC0203J22010600005","2024-06-15T00:15:00",21.1,31.175652,0.234],
    [23628,"urn:WaterMeter:MC0203J22010600005","2024-06-15T00:30:00",21,31.207886,0.248],
    [23629,"urn:WaterMeter:MC0203J22010600005","2024-06-15T00:45:00",21,31.181122,0.24],
    [23630,"urn:WaterMeter:MC0203J22010600005","2024-06-15T01:00:00",20.899,31.171423,0.235],
    [23631,"urn:WaterMeter:MC0203J22010600005","2024-06-15T01:15:00",20.899,31.205132,0.236],
    [23632,"urn:WaterMeter:MC0203J22010600005","2024-06-15T01:30:00",20.799,31.16673,0.233],
    [23633,"urn:WaterMeter:MC0203J22010600005","2024-06-15T01:45:00",20.799,31.163666,0.244],
    [23634,"urn:WaterMeter:MC0203J22010600005","2024-06-15T02:00:00",20.7,31.150866,0.248],
    [23635,"urn:WaterMeter:MC0203J22010600005","2024-06-15T02:15:00",20.7,31.143496,0.235],
    [23636,"urn:WaterMeter:MC0203J22010600005","2024-06-15T02:30:00",20.6,31.14078,0.233],
    [23637,"urn:WaterMeter:MC0203J22010600005","2024-06-15T02:45:00",20.6,31.127552,0.236],
    [23638,"urn:WaterMeter:MC0203J22010600005","2024-06-15T03:00:00",20.5,31.141167,0.256],
    [23639,"urn:WaterMeter:MC0203J22010600005","2024-06-15T03:15:00",20.5,31.069756,0.255],
    [23640,"urn:WaterMeter:MC0203J22010600005","2024-06-15T03:30:00",20.399,31.1241,0.243],
    [23641,"urn:WaterMeter:MC0203J22010600005","2024-06-15T03:45:00",20.399,31.119833,0.242],
    [23642,"urn:WaterMeter:MC0203J22010600005","2024-06-15T04:00:00",20.299,31.084146,0.225],
    [23643,"urn:WaterMeter:MC0203J22010600005","2024-06-15T04:15:00",20.299,31.045744,0.256],
    [23644,"urn:WaterMeter:MC0203J22010600005","2024-06-15T04:30:00",20.299,31.086086,0.236],
    [23645,"urn:WaterMeter:MC0203J22010600005","2024-06-15T04:45:00",20.2,31.069756,0.236],
    [23646,"urn:WaterMeter:MC0203J22010600005","2024-06-15T05:00:00",20.2,31.046907,0.232],
    [23647,"urn:WaterMeter:MC0203J22010600005","2024-06-15T05:15:00",20.2,31.038723,0.231],
    [23648,"urn:WaterMeter:MC0203J22010600005","2024-06-15T05:30:00",20.2,31.07984,0.229],
    [23649,"urn:WaterMeter:MC0203J22010600005","2024-06-15T05:45:00",20.2,31.0151,0.25],
    [23650,"urn:WaterMeter:MC0203J22010600005","2024-06-15T06:00:00",20.2,31.023634,0.239],
    [23651,"urn:WaterMeter:MC0203J22010600005","2024-06-15T06:15:00",20.299,31.027124,0.24],
    [23652,"urn:WaterMeter:MC0203J22010600005","2024-06-15T06:30:00",20.299,31.019327,0.225],
    [23653,"urn:WaterMeter:MC0203J22010600005","2024-06-15T06:45:00",20.399,31.030577,0.229],
    [23654,"urn:WaterMeter:MC0203J22010600005","2024-06-15T07:00:00",20.5,31.01157,0.227],
    [23655,"urn:WaterMeter:MC0203J22010600005","2024-06-15T07:15:00",20.5,30.929762,0.229],
    [23656,"urn:WaterMeter:MC0203J22010600005","2024-06-15T07:30:00",20.6,30.947992,0.229],
    [23657,"urn:WaterMeter:MC0203J22010600005","2024-06-15T07:45:00",20.7,30.954975,0.238],
    [23658,"urn:WaterMeter:MC0203J22010600005","2024-06-15T08:00:00",20.799,30.901445,0.228],
    [23659,"urn:WaterMeter:MC0203J22010600005","2024-06-15T08:15:00",20.899,30.875805,0.228],
    [23660,"urn:WaterMeter:MC0203J22010600005","2024-06-15T08:30:00",21,30.908815,0.227],
    [23661,"urn:WaterMeter:MC0203J22010600005","2024-06-15T08:45:00",21.299,30.798613,0.23],
    [23662,"urn:WaterMeter:MC0203J22010600005","2024-06-15T09:00:00",21.6,30.786589,0.23],
    [23663,"urn:WaterMeter:MC0203J22010600005","2024-06-15T09:15:00",21.799,30.747023,0.225],
    [23664,"urn:WaterMeter:MC0203J22010600005","2024-06-15T09:30:00",22.1,30.674524,0.223],
    [23665,"urn:WaterMeter:MC0203J22010600005","2024-06-15T09:45:00",22.2,30.665602,0.231],
    [23666,"urn:WaterMeter:MC0203J22010600005","2024-06-15T10:00:00",22.399,30.613972,0.224],
    [23667,"urn:WaterMeter:MC0203J22010600005","2024-06-15T10:15:00",22.5,30.541862,0.227],
    [23668,"urn:WaterMeter:MC0203J22010600005","2024-06-15T10:30:00",22.7,30.516998,0.255],
    [23669,"urn:WaterMeter:MC0203J22010600005","2024-06-15T10:45:00",22.799,30.43709,0.219],
    [23670,"urn:WaterMeter:MC0203J22010600005","2024-06-15T11:00:00",23,30.394848,0.23],
    [23671,"urn:WaterMeter:MC0203J22010600005","2024-06-15T11:15:00",23.1,30.303652,0.217],
    [23672,"urn:WaterMeter:MC0203J22010600005","2024-06-15T11:30:00",23.1,30.290115,0.221],
    [23673,"urn:WaterMeter:MC0203J22010600005","2024-06-15T11:45:00",23.299,30.221457,0.216],
    [23674,"urn:WaterMeter:MC0203J22010600005","2024-06-15T12:00:00",23.299,30.164047,0.235],
    [23675,"urn:WaterMeter:MC0203J22010600005","2024-06-15T12:15:00",23.399,30.068974,0.225],
    [23676,"urn:WaterMeter:MC0203J22010600005","2024-06-15T12:30:00",23.399,30.045738,0.215],
    [23677,"urn:WaterMeter:MC0203J22010600005","2024-06-15T12:45:00",23.5,29.995699,0.223],
    [23678,"urn:WaterMeter:MC0203J22010600005","2024-06-15T13:00:00",23.5,29.914202,0.213],
    [23679,"urn:WaterMeter:MC0203J22010600005","2024-06-15T13:15:00",23.6,29.898336,0.225],
    [23680,"urn:WaterMeter:MC0203J22010600005","2024-06-15T13:30:00",23.6,29.852951,0.227],
    [23681,"urn:WaterMeter:MC0203J22010600005","2024-06-15T13:45:00",23.7,29.760204,0.215],
    [23682,"urn:WaterMeter:MC0203J22010600005","2024-06-15T14:00:00",23.799,29.758265,0.232],
    [23683,"urn:WaterMeter:MC0203J22010600005","2024-06-15T14:15:00",23.799,29.671803,0.219],
    [23684,"urn:WaterMeter:MC0203J22010600005","2024-06-15T14:30:00",23.799,29.586426,0.217],
    [23685,"urn:WaterMeter:MC0203J22010600005","2024-06-15T14:45:00",23.899,29.516254,0.217],
    [23686,"urn:WaterMeter:MC0203J22010600005","2024-06-15T15:00:00",23.899,29.481344,0.223],
    [23687,"urn:WaterMeter:MC0203J22010600005","2024-06-15T15:15:00",24,29.457293,0.207],
    [23688,"urn:WaterMeter:MC0203J22010600005","2024-06-15T15:30:00",24.1,29.373468,0.215],
    [23689,"urn:WaterMeter:MC0203J22010600005","2024-06-15T15:45:00",24.1,29.328123,0.213],
    [23690,"urn:WaterMeter:MC0203J22010600005","2024-06-15T16:00:00",24,29.290108,0.216],
    [23691,"urn:WaterMeter:MC0203J22010600005","2024-06-15T16:15:00",24,29.261017,0.218],
    [23692,"urn:WaterMeter:MC0203J22010600005","2024-06-15T16:30:00",24,29.238905,0.224],
    [23693,"urn:WaterMeter:MC0203J22010600005","2024-06-15T16:45:00",24,29.167532,0.225],
    [23694,"urn:WaterMeter:MC0203J22010600005","2024-06-15T17:00:00",24,29.146973,0.211],
    [23695,"urn:WaterMeter:MC0203J22010600005","2024-06-15T17:15:00",24,29.126026,0.21],
    [23696,"urn:WaterMeter:MC0203J22010600005","2024-06-15T17:30:00",24,29.066679,0.219],
    [23697,"urn:WaterMeter:MC0203J22010600005","2024-06-15T17:45:00",23.899,29.05543,0.206],
    [23698,"urn:WaterMeter:MC0203J22010600005","2024-06-15T18:00:00",23.899,29.011208,0.21],
    [23699,"urn:WaterMeter:MC0203J22010600005","2024-06-15T18:15:00",23.799,29.004187,0.21],
    [23700,"urn:WaterMeter:MC0203J22010600005","2024-06-15T18:30:00",23.6,28.954575,0.223],
    [23701,"urn:WaterMeter:MC0203J22010600005","2024-06-15T18:45:00",23.5,28.948757,0.215],
    [23702,"urn:WaterMeter:MC0203J22010600005","2024-06-15T19:00:00",23.399,28.892511,0.224],
    [23703,"urn:WaterMeter:MC0203J22010600005","2024-06-15T19:15:00",23.299,28.92975,0.208],
    [23704,"urn:WaterMeter:MC0203J22010600005","2024-06-15T19:30:00",23.299,28.918112,0.208],
    [23705,"urn:WaterMeter:MC0203J22010600005","2024-06-15T19:45:00",23.2,28.909191,0.212],
    [23706,"urn:WaterMeter:MC0203J22010600005","2024-06-15T20:00:00",23.2,28.825405,0.212],
    [23707,"urn:WaterMeter:MC0203J22010600005","2024-06-15T20:15:00",23.2,28.888205,0.216],
    [23708,"urn:WaterMeter:MC0203J22010600005","2024-06-15T20:30:00",23.2,28.853722,0.205],
    [23709,"urn:WaterMeter:MC0203J22010600005","2024-06-15T20:45:00",23.1,28.845188,0.214],
    [23710,"urn:WaterMeter:MC0203J22010600005","2024-06-15T21:00:00",23,28.828468,0.211],
    [23711,"urn:WaterMeter:MC0203J22010600005","2024-06-15T21:15:00",23,28.828857,0.202],
    [23712,"urn:WaterMeter:MC0203J22010600005","2024-06-15T21:30:00",22.899,28.785063,0.213],
    [23713,"urn:WaterMeter:MC0203J22010600005","2024-06-15T21:45:00",22.899,28.79282,0.227],
    [23714,"urn:WaterMeter:MC0203J22010600005","2024-06-15T22:00:00",22.899,28.751665,0.207],
    [23715,"urn:WaterMeter:MC0203J22010600005","2024-06-15T22:15:00",22.899,28.733046,0.216],
    [23716,"urn:WaterMeter:MC0203J22010600005","2024-06-15T22:30:00",22.899,28.736963,0.218],
    [23717,"urn:WaterMeter:MC0203J22010600005","2024-06-15T22:45:00",22.799,28.752829,0.205],
    [23718,"urn:WaterMeter:MC0203J22010600005","2024-06-15T23:00:00",22.799,28.716404,0.213],
    [23719,"urn:WaterMeter:MC0203J22010600005","2024-06-15T23:15:00",22.799,28.711323,0.202],
    [23720,"urn:WaterMeter:MC0203J22010600005","2024-06-15T23:30:00",22.7,28.69507,0.218],
    [23721,"urn:WaterMeter:MC0203J22010600005","2024-06-15T23:45:00",22.7,28.726103,0.202],
    [23722,"urn:WaterMeter:MC0203J22010600005","2024-06-16T00:00:00",22.6,28.686537,0.213],
    [23723,"urn:WaterMeter:MC0203J22010600005","2024-06-16T00:15:00",22.6,28.693867,0.202],
    [23724,"urn:WaterMeter:MC0203J22010600005","2024-06-16T00:30:00",22.6,28.675674,0.222],
    [23725,"urn:WaterMeter:MC0203J22010600005","2024-06-16T00:45:00",22.6,28.68417,0.207],
    [23726,"urn:WaterMeter:MC0203J22010600005","2024-06-16T01:00:00",22.5,28.683044,0.207],
    [23727,"urn:WaterMeter:MC0203J22010600005","2024-06-16T01:15:00",22.5,28.661324,0.204],
    [23728,"urn:WaterMeter:MC0203J22010600005","2024-06-16T01:30:00",22.399,28.64891,0.206],
    [23729,"urn:WaterMeter:MC0203J22010600005","2024-06-16T01:45:00",22.399,28.67525,0.212],
    [23730,"urn:WaterMeter:MC0203J22010600005","2024-06-16T02:00:00",22.299,28.657444,0.224],
    [23731,"urn:WaterMeter:MC0203J22010600005","2024-06-16T02:15:00",22.299,28.644993,0.212],
    [23732,"urn:WaterMeter:MC0203J22010600005","2024-06-16T02:30:00",22.2,28.665163,0.207],
    [23733,"urn:WaterMeter:MC0203J22010600005","2024-06-16T02:45:00",22.1,28.652014,0.203],
    [23734,"urn:WaterMeter:MC0203J22010600005","2024-06-16T03:00:00",22.1,28.649298,0.205],
    [23735,"urn:WaterMeter:MC0203J22010600005","2024-06-16T03:15:00",22,28.613224,0.211],
    [23736,"urn:WaterMeter:MC0203J22010600005","2024-06-16T03:30:00",21.899,28.646156,0.205],
    [23737,"urn:WaterMeter:MC0203J22010600005","2024-06-16T03:45:00",21.799,28.617878,0.206],
    [23738,"urn:WaterMeter:MC0203J22010600005","2024-06-16T04:00:00",21.799,28.603138,0.209],
    [23739,"urn:WaterMeter:MC0203J22010600005","2024-06-16T04:15:00",21.799,28.60659,0.208],
    [23740,"urn:WaterMeter:MC0203J22010600005","2024-06-16T04:30:00",21.7,28.596504,0.216],
    [23741,"urn:WaterMeter:MC0203J22010600005","2024-06-16T04:45:00",21.7,28.590338,0.212],
    [23742,"urn:WaterMeter:MC0203J22010600005","2024-06-16T05:00:00",21.7,28.601198,0.206],
    [23743,"urn:WaterMeter:MC0203J22010600005","2024-06-16T05:15:00",21.7,28.564735,0.197],
    [23744,"urn:WaterMeter:MC0203J22010600005","2024-06-16T05:30:00",21.7,28.58642,0.206],
    [23745,"urn:WaterMeter:MC0203J22010600005","2024-06-16T05:45:00",21.7,28.577497,0.194],
    [23746,"urn:WaterMeter:MC0203J22010600005","2024-06-16T06:00:00",21.7,28.563572,0.203],
    [23747,"urn:WaterMeter:MC0203J22010600005","2024-06-16T06:15:00",21.7,28.550772,0.217],
    [23748,"urn:WaterMeter:MC0203J22010600005","2024-06-16T06:30:00",21.799,28.594564,0.206],
    [23749,"urn:WaterMeter:MC0203J22010600005","2024-06-16T06:45:00",21.899,28.544565,0.201],
    [23750,"urn:WaterMeter:MC0203J22010600005","2024-06-16T07:00:00",22,28.569391,0.209],
    [23751,"urn:WaterMeter:MC0203J22010600005","2024-06-16T07:15:00",22.1,28.544565,0.2],
    [23752,"urn:WaterMeter:MC0203J22010600005","2024-06-16T07:30:00",22.1,28.50655,0.206],
    [23753,"urn:WaterMeter:MC0203J22010600005","2024-06-16T07:45:00",22.2,28.505386,0.202],
    [23754,"urn:WaterMeter:MC0203J22010600005","2024-06-16T08:00:00",22.2,28.492199,0.206],
    [23755,"urn:WaterMeter:MC0203J22010600005","2024-06-16T08:15:00",22.2,28.484053,0.215],
    [23756,"urn:WaterMeter:MC0203J22010600005","2024-06-16T08:30:00",22.399,28.451818,0.203],
    [23757,"urn:WaterMeter:MC0203J22010600005","2024-06-16T08:45:00",22.5,28.421173,0.211],
    [23758,"urn:WaterMeter:MC0203J22010600005","2024-06-16T09:00:00",22.6,28.401003,0.195],
    [23759,"urn:WaterMeter:MC0203J22010600005","2024-06-16T09:15:00",22.799,28.32575,0.209],
    [23760,"urn:WaterMeter:MC0203J22010600005","2024-06-16T09:30:00",23,28.294369,0.214],
    [23761,"urn:WaterMeter:MC0203J22010600005","2024-06-16T09:45:00",23.1,28.273422,0.215],
    [23762,"urn:WaterMeter:MC0203J22010600005","2024-06-16T10:00:00",23.2,28.214462,0.199],
    [23763,"urn:WaterMeter:MC0203J22010600005","2024-06-16T10:15:00",23.299,28.186882,0.202],
    [23764,"urn:WaterMeter:MC0203J22010600005","2024-06-16T10:30:00",23.5,28.146967,0.199],
    [23765,"urn:WaterMeter:MC0203J22010600005","2024-06-16T10:45:00",23.6,28.099257,0.219],
    [23766,"urn:WaterMeter:MC0203J22010600005","2024-06-16T11:00:00",23.799,28.05228,0.198],
    [23767,"urn:WaterMeter:MC0203J22010600005","2024-06-16T11:15:00",23.899,28.012327,0.2],
    [23768,"urn:WaterMeter:MC0203J22010600005","2024-06-16T11:30:00",23.899,27.934748,0.215],
    [23769,"urn:WaterMeter:MC0203J22010600005","2024-06-16T11:45:00",23.899,27.87311,0.2],
    [23770,"urn:WaterMeter:MC0203J22010600005","2024-06-16T12:00:00",23.899,27.817253,0.207],
    [23771,"urn:WaterMeter:MC0203J22010600005","2024-06-16T12:15:00",24,27.760193,0.196],
    [23772,"urn:WaterMeter:MC0203J22010600005","2024-06-16T12:30:00",24.1,27.738508,0.219],
    [23773,"urn:WaterMeter:MC0203J22010600005","2024-06-16T12:45:00",24.2,27.652006,0.2],
    [23774,"urn:WaterMeter:MC0203J22010600005","2024-06-16T13:00:00",24.2,27.591883,0.191],
    [23775,"urn:WaterMeter:MC0203J22010600005","2024-06-16T13:15:00",24.299,27.53292,0.189],
    [23776,"urn:WaterMeter:MC0203J22010600005","2024-06-16T13:30:00",24.399,27.484821,0.199],
    [23777,"urn:WaterMeter:MC0203J22010600005","2024-06-16T13:45:00",24.399,27.410345,0.195],
    [23778,"urn:WaterMeter:MC0203J22010600005","2024-06-16T14:00:00",24.399,27.327723,0.191],
    [23779,"urn:WaterMeter:MC0203J22010600005","2024-06-16T14:15:00",24.399,27.260227,0.198],
    [23780,"urn:WaterMeter:MC0203J22010600005","2024-06-16T14:30:00",24.299,27.225317,0.2],
    [23781,"urn:WaterMeter:MC0203J22010600005","2024-06-16T14:45:00",24.299,27.188078,0.191],
    [23782,"urn:WaterMeter:MC0203J22010600005","2024-06-16T15:00:00",24.299,27.141104,0.185],
    [23783,"urn:WaterMeter:MC0203J22010600005","2024-06-16T15:15:00",24.299,27.081018,0.189],
    [23784,"urn:WaterMeter:MC0203J22010600005","2024-06-16T15:30:00",24.299,27.02904,0.193],
    [23785,"urn:WaterMeter:MC0203J22010600005","2024-06-16T15:45:00",24.299,26.95495,0.186],
    [23786,"urn:WaterMeter:MC0203J22010600005","2024-06-16T16:00:00",24.2,26.900606,0.188],
    [23787,"urn:WaterMeter:MC0203J22010600005","2024-06-16T16:15:00",24.2,26.86457,0.202],
    [23788,"urn:WaterMeter:MC0203J22010600005","2024-06-16T16:30:00",24.2,26.790092,0.188],
    [23789,"urn:WaterMeter:MC0203J22010600005","2024-06-16T16:45:00",24.1,26.753204,0.189],
    [23790,"urn:WaterMeter:MC0203J22010600005","2024-06-16T17:00:00",24.1,26.68885,0.195],
    [23791,"urn:WaterMeter:MC0203J22010600005","2024-06-16T17:15:00",24,26.655453,0.192],
    [23792,"urn:WaterMeter:MC0203J22010600005","2024-06-16T17:30:00",24,26.60778,0.193],
    [23793,"urn:WaterMeter:MC0203J22010600005","2024-06-16T17:45:00",24,26.587997,0.192],
    [23794,"urn:WaterMeter:MC0203J22010600005","2024-06-16T18:00:00",23.899,26.531713,0.192],
    [23795,"urn:WaterMeter:MC0203J22010600005","2024-06-16T18:15:00",23.799,26.489859,0.197],
    [23796,"urn:WaterMeter:MC0203J22010600005","2024-06-16T18:30:00",23.799,26.47667,0.188],
    [23797,"urn:WaterMeter:MC0203J22010600005","2024-06-16T18:45:00",23.799,26.455336,0.191],
    [23798,"urn:WaterMeter:MC0203J22010600005","2024-06-16T19:00:00",23.7,26.449516,0.182],
    [23799,"urn:WaterMeter:MC0203J22010600005","2024-06-16T19:15:00",23.7,26.414179,0.192],
    [23800,"urn:WaterMeter:MC0203J22010600005","2024-06-16T19:30:00",23.6,26.382797,0.184],
    [23801,"urn:WaterMeter:MC0203J22010600005","2024-06-16T19:45:00",23.6,26.36185,0.191],
    [23802,"urn:WaterMeter:MC0203J22010600005","2024-06-16T20:00:00",23.5,26.35448,0.193],
    [23803,"urn:WaterMeter:MC0203J22010600005","2024-06-16T20:15:00",23.5,26.309874,0.182],
    [23804,"urn:WaterMeter:MC0203J22010600005","2024-06-16T20:30:00",23.399,26.333534,0.188],
    [23805,"urn:WaterMeter:MC0203J22010600005","2024-06-16T20:45:00",23.399,26.305956,0.191],
    [23806,"urn:WaterMeter:MC0203J22010600005","2024-06-16T21:00:00",23.399,26.329657,0.181],
    [23807,"urn:WaterMeter:MC0203J22010600005","2024-06-16T21:15:00",23.399,26.295908,0.183],
    [23808,"urn:WaterMeter:MC0203J22010600005","2024-06-16T21:30:00",23.299,26.273798,0.196],
    [23809,"urn:WaterMeter:MC0203J22010600005","2024-06-16T21:45:00",23.299,26.252851,0.199],
    [23810,"urn:WaterMeter:MC0203J22010600005","2024-06-16T22:00:00",23.299,26.256731,0.177],
    [23811,"urn:WaterMeter:MC0203J22010600005","2024-06-16T22:15:00",23.2,26.214449,0.186],
    [23812,"urn:WaterMeter:MC0203J22010600005","2024-06-16T22:30:00",23.2,26.220617,0.179],
    [23813,"urn:WaterMeter:MC0203J22010600005","2024-06-16T22:45:00",23.1,26.21251,0.178],
    [23814,"urn:WaterMeter:MC0203J22010600005","2024-06-16T23:00:00",23.1,26.216002,0.184],
    [23815,"urn:WaterMeter:MC0203J22010600005","2024-06-16T23:15:00",23,26.226862,0.183],
    [23816,"urn:WaterMeter:MC0203J22010600005","2024-06-16T23:30:00",23,26.207468,0.182],
    [23817,"urn:WaterMeter:MC0203J22010600005","2024-06-16T23:45:00",23,26.187296,0.19],
    [23818,"urn:WaterMeter:MC0203J22010600005","2024-06-17T00:00:00",22.899,26.204752,0.18],
    [23819,"urn:WaterMeter:MC0203J22010600005","2024-06-17T00:15:00",22.799,26.1923,0.178],
    [23820,"urn:WaterMeter:MC0203J22010600005","2024-06-17T00:30:00",22.799,26.16092,0.205],
    [23821,"urn:WaterMeter:MC0203J22010600005","2024-06-17T00:45:00",22.7,26.195442,0.183],
    [23822,"urn:WaterMeter:MC0203J22010600005","2024-06-17T01:00:00",22.7,26.176823,0.187],
    [23823,"urn:WaterMeter:MC0203J22010600005","2024-06-17T01:15:00",22.6,26.162432,0.19],
    [23824,"urn:WaterMeter:MC0203J22010600005","2024-06-17T01:30:00",22.6,26.166739,0.194],
    [23825,"urn:WaterMeter:MC0203J22010600005","2024-06-17T01:45:00",22.5,26.183805,0.195],
    [23826,"urn:WaterMeter:MC0203J22010600005","2024-06-17T02:00:00",22.5,26.167902,0.19],
    [23827,"urn:WaterMeter:MC0203J22010600005","2024-06-17T02:15:00",22.399,26.174109,0.184],
    [23828,"urn:WaterMeter:MC0203J22010600005","2024-06-17T02:30:00",22.399,26.172518,0.179],
    [23829,"urn:WaterMeter:MC0203J22010600005","2024-06-17T02:45:00",22.299,26.126396,0.183],
    [23830,"urn:WaterMeter:MC0203J22010600005","2024-06-17T03:00:00",22.299,26.161306,0.189],
    [23831,"urn:WaterMeter:MC0203J22010600005","2024-06-17T03:15:00",22.2,26.135706,0.182],
    [23832,"urn:WaterMeter:MC0203J22010600005","2024-06-17T03:30:00",22.2,26.150795,0.177],
    [23833,"urn:WaterMeter:MC0203J22010600005","2024-06-17T03:45:00",22.1,26.133339,0.179],
    [23834,"urn:WaterMeter:MC0203J22010600005","2024-06-17T04:00:00",22,26.167902,0.173],
    [23835,"urn:WaterMeter:MC0203J22010600005","2024-06-17T04:15:00",22,26.126783,0.185],
    [23836,"urn:WaterMeter:MC0203J22010600005","2024-06-17T04:30:00",21.899,26.107777,0.181],
    [23837,"urn:WaterMeter:MC0203J22010600005","2024-06-17T04:45:00",21.899,26.111269,0.174],
    [23838,"urn:WaterMeter:MC0203J22010600005","2024-06-17T05:00:00",21.799,26.098856,0.184],
    [23839,"urn:WaterMeter:MC0203J22010600005","2024-06-17T05:15:00",21.799,26.082176,0.174],
    [23840,"urn:WaterMeter:MC0203J22010600005","2024-06-17T05:30:00",21.7,26.105022,0.173],
    [23841,"urn:WaterMeter:MC0203J22010600005","2024-06-17T05:45:00",21.7,26.105837,0.188],
    [23842,"urn:WaterMeter:MC0203J22010600005","2024-06-17T06:00:00",21.7,26.161695,0.173],
    [23843,"urn:WaterMeter:MC0203J22010600005","2024-06-17T06:15:00",21.7,26.087606,0.176],
    [23844,"urn:WaterMeter:MC0203J22010600005","2024-06-17T06:30:00",21.799,26.08334,0.175],
    [23845,"urn:WaterMeter:MC0203J22010600005","2024-06-17T06:45:00",21.799,26.112782,0.179],
    [23846,"urn:WaterMeter:MC0203J22010600005","2024-06-17T07:00:00",21.899,26.05192,0.185],
    [23847,"urn:WaterMeter:MC0203J22010600005","2024-06-17T07:15:00",22.1,26.027443,0.177],
    [23848,"urn:WaterMeter:MC0203J22010600005","2024-06-17T07:30:00",22.2,26.07593,0.175],
    [23849,"urn:WaterMeter:MC0203J22010600005","2024-06-17T07:45:00",22.299,26.069374,0.171],
    [23850,"urn:WaterMeter:MC0203J22010600005","2024-06-17T08:00:00",22.5,25.993734,0.172],
    [23851,"urn:WaterMeter:MC0203J22010600005","2024-06-17T08:15:00",22.6,26.006535,0.193],
    [23852,"urn:WaterMeter:MC0203J22010600005","2024-06-17T08:30:00",22.799,26.210531,0.199],
    [23853,"urn:WaterMeter:MC0203J22010600005","2024-06-17T08:45:00",22.899,27.331602,0.206],
    [23854,"urn:WaterMeter:MC0203J22010600005","2024-06-17T09:00:00",23.1,29.069006,0.24],
    [23855,"urn:WaterMeter:MC0203J22010600005","2024-06-17T09:15:00",23.299,30.240463,0.235],
    [23856,"urn:WaterMeter:MC0203J22010600005","2024-06-17T09:30:00",23.399,30.772663,0.226],
    [23857,"urn:WaterMeter:MC0203J22010600005","2024-06-17T09:45:00",23.6,31.058119,0.226],
    [23858,"urn:WaterMeter:MC0203J22010600005","2024-06-17T10:00:00",23.7,31.12992,0.248],
    [23859,"urn:WaterMeter:MC0203J22010600005","2024-06-17T10:15:00",23.799,31.215605,0.233],
    [23860,"urn:WaterMeter:MC0203J22010600005","2024-06-17T10:30:00",24,31.229996,0.229],
    [23861,"urn:WaterMeter:MC0203J22010600005","2024-06-17T10:45:00",24.1,31.203619,0.227],
    [23862,"urn:WaterMeter:MC0203J22010600005","2024-06-17T11:00:00",24.2,31.176039,0.226],
    [23863,"urn:WaterMeter:MC0203J22010600005","2024-06-17T11:15:00",24.299,31.171812,0.237],
    [23864,"urn:WaterMeter:MC0203J22010600005","2024-06-17T11:30:00",24.399,31.130306,0.224],
    [23865,"urn:WaterMeter:MC0203J22010600005","2024-06-17T11:45:00",24.5,31.091904,0.251],
    [23866,"urn:WaterMeter:MC0203J22010600005","2024-06-17T12:00:00",24.5,31.0279,0.234],
    [23867,"urn:WaterMeter:MC0203J22010600005","2024-06-17T12:15:00",24.6,31.071346,0.23],
    [23868,"urn:WaterMeter:MC0203J22010600005","2024-06-17T12:30:00",24.7,30.973982,0.231],
    [23869,"urn:WaterMeter:MC0203J22010600005","2024-06-17T12:45:00",24.799,30.923517,0.231],
    [23870,"urn:WaterMeter:MC0203J22010600005","2024-06-17T13:00:00",24.799,30.879723,0.223],
    [23871,"urn:WaterMeter:MC0203J22010600005","2024-06-17T13:15:00",24.899,30.865719,0.238],
    [23872,"urn:WaterMeter:MC0203J22010600005","2024-06-17T13:30:00",24.899,30.808699,0.233],
    [23873,"urn:WaterMeter:MC0203J22010600005","2024-06-17T13:45:00",24.899,30.765293,0.24],
    [23874,"urn:WaterMeter:MC0203J22010600005","2024-06-17T14:00:00",25,30.740427,0.235],
    [23875,"urn:WaterMeter:MC0203J22010600005","2024-06-17T14:15:00",25,30.683058,0.246],
    [23876,"urn:WaterMeter:MC0203J22010600005","2024-06-17T14:30:00",24.899,30.624872,0.236],
    [23877,"urn:WaterMeter:MC0203J22010600005","2024-06-17T14:45:00",24.899,30.597332,0.22],
    [23878,"urn:WaterMeter:MC0203J22010600005","2024-06-17T15:00:00",24.899,30.575958,0.233],
    [23879,"urn:WaterMeter:MC0203J22010600005","2024-06-17T15:15:00",24.899,30.533329,0.233],
    [23880,"urn:WaterMeter:MC0203J22010600005","2024-06-17T15:30:00",24.799,30.48329,0.23],
    [23881,"urn:WaterMeter:MC0203J22010600005","2024-06-17T15:45:00",24.799,30.408037,0.22],
    [23882,"urn:WaterMeter:MC0203J22010600005","2024-06-17T16:00:00",24.7,30.388641,0.22],
    [23883,"urn:WaterMeter:MC0203J22010600005","2024-06-17T16:15:00",24.6,30.358772,0.236],
    [23884,"urn:WaterMeter:MC0203J22010600005","2024-06-17T16:30:00",24.6,30.32425,0.218],
    [23885,"urn:WaterMeter:MC0203J22010600005","2024-06-17T16:45:00",24.5,30.260246,0.228],
    [23886,"urn:WaterMeter:MC0203J22010600005","2024-06-17T17:00:00",24.5,30.219517,0.232],
    [23887,"urn:WaterMeter:MC0203J22010600005","2024-06-17T17:15:00",24.5,30.209044,0.225],
    [23888,"urn:WaterMeter:MC0203J22010600005","2024-06-17T17:30:00",24.399,30.152023,0.218],
    [23889,"urn:WaterMeter:MC0203J22010600005","2024-06-17T17:45:00",24.399,30.127934,0.231],
    [23890,"urn:WaterMeter:MC0203J22010600005","2024-06-17T18:00:00",24.399,30.095001,0.214],
    [23891,"urn:WaterMeter:MC0203J22010600005","2024-06-17T18:15:00",24.299,30.100393,0.23],
    [23892,"urn:WaterMeter:MC0203J22010600005","2024-06-17T18:30:00",24.299,30.031734,0.23],
    [23893,"urn:WaterMeter:MC0203J22010600005","2024-06-17T18:45:00",24.2,30.002642,0.239],
    [23894,"urn:WaterMeter:MC0203J22010600005","2024-06-17T19:00:00",24.2,29.975916,0.221],
    [23895,"urn:WaterMeter:MC0203J22010600005","2024-06-17T19:15:00",24.1,29.987553,0.224],
    [23896,"urn:WaterMeter:MC0203J22010600005","2024-06-17T19:30:00",24,29.967382,0.22],
    [23897,"urn:WaterMeter:MC0203J22010600005","2024-06-17T19:45:00",24,29.950703,0.227],
    [23898,"urn:WaterMeter:MC0203J22010600005","2024-06-17T20:00:00",23.899,29.98251,0.223],
    [23899,"urn:WaterMeter:MC0203J22010600005","2024-06-17T20:15:00",23.899,29.948376,0.228],
    [23900,"urn:WaterMeter:MC0203J22010600005","2024-06-17T20:30:00",23.799,29.930143,0.224],
    [23901,"urn:WaterMeter:MC0203J22010600005","2024-06-17T20:45:00",23.799,29.935148,0.234],
    [23902,"urn:WaterMeter:MC0203J22010600005","2024-06-17T21:00:00",23.7,29.911137,0.217],
    [23903,"urn:WaterMeter:MC0203J22010600005","2024-06-17T21:15:00",23.7,29.889027,0.214],
    [23904,"urn:WaterMeter:MC0203J22010600005","2024-06-17T21:30:00",23.7,29.89756,0.227],
    [23905,"urn:WaterMeter:MC0203J22010600005","2024-06-17T21:45:00",23.6,29.92316,0.222],
    [23906,"urn:WaterMeter:MC0203J22010600005","2024-06-17T22:00:00",23.6,29.859934,0.219],
    [23907,"urn:WaterMeter:MC0203J22010600005","2024-06-17T22:15:00",23.5,29.84403,0.22],
    [23908,"urn:WaterMeter:MC0203J22010600005","2024-06-17T22:30:00",23.5,29.861485,0.224],
    [23909,"urn:WaterMeter:MC0203J22010600005","2024-06-17T22:45:00",23.399,29.86265,0.221],
    [23910,"urn:WaterMeter:MC0203J22010600005","2024-06-17T23:00:00",23.399,29.833168,0.231],
    [23911,"urn:WaterMeter:MC0203J22010600005","2024-06-17T23:15:00",23.299,29.814938,0.227],
    [23912,"urn:WaterMeter:MC0203J22010600005","2024-06-17T23:30:00",23.299,29.854504,0.235],
    [23913,"urn:WaterMeter:MC0203J22010600005","2024-06-17T23:45:00",23.299,29.792439,0.218],
    [23914,"urn:WaterMeter:MC0203J22010600005","2024-06-18T00:00:00",23.2,29.813774,0.215],
    [23915,"urn:WaterMeter:MC0203J22010600005","2024-06-18T00:15:00",23.2,29.811447,0.207],
    [23916,"urn:WaterMeter:MC0203J22010600005","2024-06-18T00:30:00",23.1,29.796667,0.213],
    [23917,"urn:WaterMeter:MC0203J22010600005","2024-06-18T00:45:00",23.1,29.804464,0.221],
    [23918,"urn:WaterMeter:MC0203J22010600005","2024-06-18T01:00:00",23,29.778437,0.22],
    [23919,"urn:WaterMeter:MC0203J22010600005","2024-06-18T01:15:00",23,29.784294,0.226],
    [23920,"urn:WaterMeter:MC0203J22010600005","2024-06-18T01:30:00",23,29.757141,0.214],
    [23921,"urn:WaterMeter:MC0203J22010600005","2024-06-18T01:45:00",22.899,29.78119,0.21],
    [23922,"urn:WaterMeter:MC0203J22010600005","2024-06-18T02:00:00",22.799,29.745892,0.217],
    [23923,"urn:WaterMeter:MC0203J22010600005","2024-06-18T02:15:00",22.799,29.752485,0.222],
    [23924,"urn:WaterMeter:MC0203J22010600005","2024-06-18T02:30:00",22.7,29.754812,0.226],
    [23925,"urn:WaterMeter:MC0203J22010600005","2024-06-18T02:45:00",22.7,29.775759,0.222],
    [23926,"urn:WaterMeter:MC0203J22010600005","2024-06-18T03:00:00",22.6,29.768778,0.227],
    [23927,"urn:WaterMeter:MC0203J22010600005","2024-06-18T03:15:00",22.5,29.755589,0.216],
    [23928,"urn:WaterMeter:MC0203J22010600005","2024-06-18T03:30:00",22.5,29.766449,0.226],
    [23929,"urn:WaterMeter:MC0203J22010600005","2024-06-18T03:45:00",22.399,29.712105,0.222],
    [23930,"urn:WaterMeter:MC0203J22010600005","2024-06-18T04:00:00",22.299,29.700468,0.221],
    [23931,"urn:WaterMeter:MC0203J22010600005","2024-06-18T04:15:00",22.299,29.710592,0.214],
    [23932,"urn:WaterMeter:MC0203J22010600005","2024-06-18T04:30:00",22.2,29.710205,0.222],
    [23933,"urn:WaterMeter:MC0203J22010600005","2024-06-18T04:45:00",22.1,29.73309,0.217],
    [23934,"urn:WaterMeter:MC0203J22010600005","2024-06-18T05:00:00",22.1,29.687706,0.229],
    [23935,"urn:WaterMeter:MC0203J22010600005","2024-06-18T05:15:00",22,29.750895,0.214],
    [23936,"urn:WaterMeter:MC0203J22010600005","2024-06-18T05:30:00",22,29.728436,0.214],
    [23937,"urn:WaterMeter:MC0203J22010600005","2024-06-18T05:45:00",22,29.711718,0.231],
    [23938,"urn:WaterMeter:MC0203J22010600005","2024-06-18T06:00:00",21.899,29.69081,0.219],
    [23939,"urn:WaterMeter:MC0203J22010600005","2024-06-18T06:15:00",22,29.70904,0.21],
    [23940,"urn:WaterMeter:MC0203J22010600005","2024-06-18T06:30:00",22,29.691935,0.229],
    [23941,"urn:WaterMeter:MC0203J22010600005","2024-06-18T06:45:00",22.1,29.704386,0.215],
    [23942,"urn:WaterMeter:MC0203J22010600005","2024-06-18T07:15:00",22.299,29.676846,0.213],
    [23943,"urn:WaterMeter:MC0203J22010600005","2024-06-18T07:30:00",22.399,29.638443,0.222],
    [23944,"urn:WaterMeter:MC0203J22010600005","2024-06-18T07:45:00",22.5,29.593447,0.23],
    [23945,"urn:WaterMeter:MC0203J22010600005","2024-06-18T08:00:00",22.6,29.575563,0.215],
    [23946,"urn:WaterMeter:MC0203J22010600005","2024-06-18T08:15:00",22.799,29.495695,0.216],
    [23947,"urn:WaterMeter:MC0203J22010600005","2024-06-18T08:30:00",22.899,29.487123,0.21],
    [23948,"urn:WaterMeter:MC0203J22010600005","2024-06-18T08:45:00",23,29.443329,0.21],
    [23949,"urn:WaterMeter:MC0203J22010600005","2024-06-18T09:00:00",23.2,29.423546,0.222],
    [23950,"urn:WaterMeter:MC0203J22010600005","2024-06-18T09:15:00",23.299,29.368076,0.219],
    [23951,"urn:WaterMeter:MC0203J22010600005","2024-06-18T09:30:00",23.5,29.35838,0.227],
    [23952,"urn:WaterMeter:MC0203J22010600005","2024-06-18T09:45:00",23.5,29.348682,0.224],
    [23953,"urn:WaterMeter:MC0203J22010600005","2024-06-18T10:00:00",23.6,29.2571,0.218],
    [23954,"urn:WaterMeter:MC0203J22010600005","2024-06-18T10:15:00",23.7,29.2455,0.22],
    [23955,"urn:WaterMeter:MC0203J22010600005","2024-06-18T10:30:00",23.799,29.198914,0.223],
    [23956,"urn:WaterMeter:MC0203J22010600005","2024-06-18T10:45:00",23.899,29.126802,0.219],
    [23957,"urn:WaterMeter:MC0203J22010600005","2024-06-18T11:00:00",24,29.065126,0.211],
    [23958,"urn:WaterMeter:MC0203J22010600005","2024-06-18T11:15:00",24.1,29.07366,0.206],
    [23959,"urn:WaterMeter:MC0203J22010600005","2024-06-18T11:30:00",24.2,28.982077,0.204],
    [23960,"urn:WaterMeter:MC0203J22010600005","2024-06-18T11:45:00",24.299,28.923544,0.213],
    [23961,"urn:WaterMeter:MC0203J22010600005","2024-06-18T12:00:00",24.399,28.88549,0.224],
    [23962,"urn:WaterMeter:MC0203J22010600005","2024-06-18T12:15:00",24.399,28.834326,0.209],
    [23963,"urn:WaterMeter:MC0203J22010600005","2024-06-18T12:30:00",24.5,28.78584,0.211],
    [23964,"urn:WaterMeter:MC0203J22010600005","2024-06-18T12:45:00",24.6,28.705156,0.202],
    [23965,"urn:WaterMeter:MC0203J22010600005","2024-06-18T13:00:00",24.7,28.666365,0.207],
    [23966,"urn:WaterMeter:MC0203J22010600005","2024-06-18T13:15:00",24.7,28.575947,0.207],
    [23967,"urn:WaterMeter:MC0203J22010600005","2024-06-18T13:30:00",24.799,28.530212,0.215],
    [23968,"urn:WaterMeter:MC0203J22010600005","2024-06-18T13:45:00",24.899,28.486767,0.21],
    [23969,"urn:WaterMeter:MC0203J22010600005","2024-06-18T14:00:00",25,28.394835,0.204],
    [23970,"urn:WaterMeter:MC0203J22010600005","2024-06-18T14:15:00",25,28.31489,0.207],
    [23971,"urn:WaterMeter:MC0203J22010600005","2024-06-18T14:30:00",25.1,28.300964,0.208],
    [23972,"urn:WaterMeter:MC0203J22010600005","2024-06-18T14:45:00",25.1,28.198908,0.21],
    [23973,"urn:WaterMeter:MC0203J22010600005","2024-06-18T15:00:00",25.1,28.16326,0.211],
    [23974,"urn:WaterMeter:MC0203J22010600005","2024-06-18T15:15:00",25.1,28.08215,0.201],
    [23975,"urn:WaterMeter:MC0203J22010600005","2024-06-18T15:30:00",25.2,28.05581,0.208],
    [23976,"urn:WaterMeter:MC0203J22010600005","2024-06-18T15:45:00",25.2,27.961552,0.202],
    [23977,"urn:WaterMeter:MC0203J22010600005","2024-06-18T16:00:00",25.1,27.905306,0.21],
    [23978,"urn:WaterMeter:MC0203J22010600005","2024-06-18T16:15:00",25.1,27.8863,0.202],
    [23979,"urn:WaterMeter:MC0203J22010600005","2024-06-18T16:30:00",25.1,27.821093,0.207],
    [23980,"urn:WaterMeter:MC0203J22010600005","2024-06-18T16:45:00",25.1,27.717562,0.198],
    [23981,"urn:WaterMeter:MC0203J22010600005","2024-06-18T17:00:00",25.1,27.743124,0.195],
    [23982,"urn:WaterMeter:MC0203J22010600005","2024-06-18T17:15:00",25.1,27.67563,0.204],
    [23983,"urn:WaterMeter:MC0203J22010600005","2024-06-18T17:30:00",25,27.641146,0.208],
    [23984,"urn:WaterMeter:MC0203J22010600005","2024-06-18T17:45:00",25,27.59964,0.2],
    [23985,"urn:WaterMeter:MC0203J22010600005","2024-06-18T18:00:00",25,27.546497,0.196],
    [23986,"urn:WaterMeter:MC0203J22010600005","2024-06-18T18:15:00",24.899,27.485598,0.195],
    [23987,"urn:WaterMeter:MC0203J22010600005","2024-06-18T18:30:00",24.799,27.4759,0.189],
    [23988,"urn:WaterMeter:MC0203J22010600005","2024-06-18T18:45:00",24.7,27.447195,0.206],
    [23989,"urn:WaterMeter:MC0203J22010600005","2024-06-18T19:00:00",24.6,27.437498,0.19],
    [23990,"urn:WaterMeter:MC0203J22010600005","2024-06-18T19:15:00",24.6,27.39095,0.201],
    [23991,"urn:WaterMeter:MC0203J22010600005","2024-06-18T19:30:00",24.5,27.359919,0.203],
    [23992,"urn:WaterMeter:MC0203J22010600005","2024-06-18T19:45:00",24.399,27.380089,0.202],
    [23993,"urn:WaterMeter:MC0203J22010600005","2024-06-18T20:00:00",24.399,27.30406,0.201],
    [23994,"urn:WaterMeter:MC0203J22010600005","2024-06-18T20:15:00",24.299,27.312983,0.213],
    [23995,"urn:WaterMeter:MC0203J22010600005","2024-06-18T20:30:00",24.2,27.297428,0.195],
    [23996,"urn:WaterMeter:MC0203J22010600005","2024-06-18T20:45:00",24.2,27.288506,0.19],
    [23997,"urn:WaterMeter:MC0203J22010600005","2024-06-18T21:00:00",24.1,27.301346,0.208],
    [23998,"urn:WaterMeter:MC0203J22010600005","2024-06-18T21:15:00",24,27.251694,0.201],
    [23999,"urn:WaterMeter:MC0203J22010600005","2024-06-18T21:30:00",24,27.218683,0.207],
    [24000,"urn:WaterMeter:MC0203J22010600005","2024-06-18T21:45:00",23.899,27.252857,0.191],
    [24001,"urn:WaterMeter:MC0203J22010600005","2024-06-18T22:00:00",23.899,27.217909,0.198],
    [24002,"urn:WaterMeter:MC0203J22010600005","2024-06-18T22:15:00",23.799,27.218296,0.199],
    [24003,"urn:WaterMeter:MC0203J22010600005","2024-06-18T22:30:00",23.799,27.184975,0.203],
    [24004,"urn:WaterMeter:MC0203J22010600005","2024-06-18T22:45:00",23.799,27.22454,0.194],
    [24005,"urn:WaterMeter:MC0203J22010600005","2024-06-18T23:00:00",23.7,27.20437,0.201],
    [24006,"urn:WaterMeter:MC0203J22010600005","2024-06-18T23:15:00",23.7,27.163641,0.194],
    [24007,"urn:WaterMeter:MC0203J22010600005","2024-06-18T23:30:00",23.7,27.216394,0.195],
    [24008,"urn:WaterMeter:MC0203J22010600005","2024-06-18T23:45:00",23.7,27.185364,0.189],
    [24009,"urn:WaterMeter:MC0203J22010600005","2024-06-19T00:00:00",23.7,27.192734,0.196],
    [24010,"urn:WaterMeter:MC0203J22010600005","2024-06-19T00:15:00",23.6,27.14149,0.198],
    [24011,"urn:WaterMeter:MC0203J22010600005","2024-06-19T00:30:00",23.6,27.160887,0.195],
    [24012,"urn:WaterMeter:MC0203J22010600005","2024-06-19T00:45:00",23.6,27.135712,0.19],
    [24013,"urn:WaterMeter:MC0203J22010600005","2024-06-19T01:00:00",23.5,27.095758,0.194],
    [24014,"urn:WaterMeter:MC0203J22010600005","2024-06-19T01:15:00",23.5,27.08994,0.193],
    [24015,"urn:WaterMeter:MC0203J22010600005","2024-06-19T01:30:00",23.5,27.06046,0.205],
    [24016,"urn:WaterMeter:MC0203J22010600005","2024-06-19T01:45:00",23.5,27.102701,0.193],
    [24017,"urn:WaterMeter:MC0203J22010600005","2024-06-19T02:00:00",23.399,27.11395,0.198],
    [24018,"urn:WaterMeter:MC0203J22010600005","2024-06-19T02:15:00",23.399,27.108948,0.184],
    [24019,"urn:WaterMeter:MC0203J22010600005","2024-06-19T02:30:00",23.399,27.055378,0.194],
    [24020,"urn:WaterMeter:MC0203J22010600005","2024-06-19T02:45:00",23.299,27.078691,0.197],
    [24021,"urn:WaterMeter:MC0203J22010600005","2024-06-19T03:00:00",23.299,27.095758,0.199],
    [24022,"urn:WaterMeter:MC0203J22010600005","2024-06-19T03:15:00",23.2,27.088776,0.186],
    [24023,"urn:WaterMeter:MC0203J22010600005","2024-06-19T03:30:00",23.1,27.054602,0.196],
    [24024,"urn:WaterMeter:MC0203J22010600005","2024-06-19T03:45:00",23,27.037573,0.187],
    [24025,"urn:WaterMeter:MC0203J22010600005","2024-06-19T04:00:00",23,27.040289,0.191],
    [24026,"urn:WaterMeter:MC0203J22010600005","2024-06-19T04:15:00",22.899,27.028652,0.186],
    [24027,"urn:WaterMeter:MC0203J22010600005","2024-06-19T04:30:00",22.799,27.059296,0.19],
    [24028,"urn:WaterMeter:MC0203J22010600005","2024-06-19T04:45:00",22.799,27.022833,0.19],
    [24029,"urn:WaterMeter:MC0203J22010600005","2024-06-19T05:00:00",22.7,26.996418,0.187],
    [24030,"urn:WaterMeter:MC0203J22010600005","2024-06-19T05:15:00",22.7,26.982492,0.199],
    [24031,"urn:WaterMeter:MC0203J22010600005","2024-06-19T05:30:00",22.7,27.003439,0.188],
    [24032,"urn:WaterMeter:MC0203J22010600005","2024-06-19T05:45:00",22.6,26.97008,0.189],
    [24033,"urn:WaterMeter:MC0203J22010600005","2024-06-19T06:00:00",22.5,26.949907,0.19],
    [24034,"urn:WaterMeter:MC0203J22010600005","2024-06-19T06:15:00",22.5,26.940598,0.196],
    [24035,"urn:WaterMeter:MC0203J22010600005","2024-06-19T06:30:00",22.6,26.9181,0.198],
    [24036,"urn:WaterMeter:MC0203J22010600005","2024-06-19T06:45:00",22.6,26.880823,0.185],
    [24037,"urn:WaterMeter:MC0203J22010600005","2024-06-19T07:00:00",22.6,26.846338,0.194],
    [24038,"urn:WaterMeter:MC0203J22010600005","2024-06-19T07:15:00",22.7,26.856424,0.195],
    [24039,"urn:WaterMeter:MC0203J22010600005","2024-06-19T07:30:00",22.799,26.827332,0.19],
    [24040,"urn:WaterMeter:MC0203J22010600005","2024-06-19T07:45:00",22.899,26.816858,0.19],
    [24041,"urn:WaterMeter:MC0203J22010600005","2024-06-19T08:00:00",22.899,26.734972,0.19],
    [24042,"urn:WaterMeter:MC0203J22010600005","2024-06-19T08:15:00",23,26.845951,0.204],
    [24043,"urn:WaterMeter:MC0203J22010600005","2024-06-19T08:30:00",23.1,27.661705,0.226],
    [24044,"urn:WaterMeter:MC0203J22010600005","2024-06-19T08:45:00",23.2,29.3192,0.23],
    [24045,"urn:WaterMeter:MC0203J22010600005","2024-06-19T09:00:00",23.299,30.72142,0.236],
    [24046,"urn:WaterMeter:MC0203J22010600005","2024-06-19T09:15:00",23.399,31.617897,0.245],
    [24047,"urn:WaterMeter:MC0203J22010600005","2024-06-19T09:30:00",23.6,31.65083,0.247],
    [24048,"urn:WaterMeter:MC0203J22010600005","2024-06-19T09:45:00",23.7,31.600403,0.241],
    [24049,"urn:WaterMeter:MC0203J22010600005","2024-06-19T10:00:00",23.7,31.576391,0.242],
    [24050,"urn:WaterMeter:MC0203J22010600005","2024-06-19T10:15:00",23.799,31.547688,0.246],
    [24051,"urn:WaterMeter:MC0203J22010600005","2024-06-19T10:30:00",23.899,31.531395,0.243],
    [24052,"urn:WaterMeter:MC0203J22010600005","2024-06-19T10:45:00",24,31.487135,0.242],
    [24053,"urn:WaterMeter:MC0203J22010600005","2024-06-19T11:00:00",24,31.46041,0.241],
    [24054,"urn:WaterMeter:MC0203J22010600005","2024-06-19T11:15:00",24.2,31.380852,0.237],
    [24055,"urn:WaterMeter:MC0203J22010600005","2024-06-19T11:30:00",24.299,31.350595,0.239],
    [24056,"urn:WaterMeter:MC0203J22010600005","2024-06-19T11:45:00",24.299,31.290083,0.241],
    [24057,"urn:WaterMeter:MC0203J22010600005","2024-06-19T12:00:00",24.399,31.279648,0.241],
    [24058,"urn:WaterMeter:MC0203J22010600005","2024-06-19T12:15:00",24.5,31.190819,0.236],
    [24059,"urn:WaterMeter:MC0203J22010600005","2024-06-19T12:30:00",24.5,31.1241,0.25],
    [24060,"urn:WaterMeter:MC0203J22010600005","2024-06-19T12:45:00",24.399,31.097683,0.248],
    [24061,"urn:WaterMeter:MC0203J22010600005","2024-06-19T13:00:00",24.399,31.076736,0.248],
    [24062,"urn:WaterMeter:MC0203J22010600005","2024-06-19T13:15:00",24.399,31.010794,0.236],
    [24063,"urn:WaterMeter:MC0203J22010600005","2024-06-19T13:30:00",24.399,30.986784,0.235],
    [24064,"urn:WaterMeter:MC0203J22010600005","2024-06-19T13:45:00",24.5,30.948381,0.245],
    [24065,"urn:WaterMeter:MC0203J22010600005","2024-06-19T14:00:00",24.6,30.889032,0.229],
    [24066,"urn:WaterMeter:MC0203J22010600005","2024-06-19T14:15:00",24.7,30.838217,0.247],
    [24067,"urn:WaterMeter:MC0203J22010600005","2024-06-19T14:30:00",24.7,30.79322,0.243],
    [24068,"urn:WaterMeter:MC0203J22010600005","2024-06-19T14:45:00",24.7,30.733097,0.231],
    [24069,"urn:WaterMeter:MC0203J22010600005","2024-06-19T15:00:00",24.7,30.655516,0.232],
    [24070,"urn:WaterMeter:MC0203J22010600005","2024-06-19T15:15:00",24.7,30.609745,0.235],
    [24071,"urn:WaterMeter:MC0203J22010600005","2024-06-19T15:30:00",24.6,30.605478,0.237],
    [24072,"urn:WaterMeter:MC0203J22010600005","2024-06-19T15:45:00",24.6,30.570566,0.241],
    [24073,"urn:WaterMeter:MC0203J22010600005","2024-06-19T16:00:00",24.6,30.525183,0.227],
    [24074,"urn:WaterMeter:MC0203J22010600005","2024-06-19T16:15:00",24.6,30.439417,0.224],
    [24075,"urn:WaterMeter:MC0203J22010600005","2024-06-19T16:30:00",24.6,30.450705,0.238],
    [24076,"urn:WaterMeter:MC0203J22010600005","2024-06-19T16:45:00",24.6,30.398687,0.228],
    [24077,"urn:WaterMeter:MC0203J22010600005","2024-06-19T17:00:00",24.5,30.358772,0.228],
    [24078,"urn:WaterMeter:MC0203J22010600005","2024-06-19T17:15:00",24.5,30.338602,0.226],
    [24079,"urn:WaterMeter:MC0203J22010600005","2024-06-19T17:30:00",24.6,30.304855,0.24],
    [24080,"urn:WaterMeter:MC0203J22010600005","2024-06-19T17:45:00",24.6,30.273046,0.227],
    [24081,"urn:WaterMeter:MC0203J22010600005","2024-06-19T18:00:00",24.5,30.25404,0.226],
    [24082,"urn:WaterMeter:MC0203J22010600005","2024-06-19T18:15:00",24.399,30.217577,0.226],
    [24083,"urn:WaterMeter:MC0203J22010600005","2024-06-19T18:30:00",24.2,30.15241,0.226],
    [24084,"urn:WaterMeter:MC0203J22010600005","2024-06-19T18:45:00",24,30.190424,0.218],
    [24085,"urn:WaterMeter:MC0203J22010600005","2024-06-19T19:00:00",24,30.168663,0.227],
    [24086,"urn:WaterMeter:MC0203J22010600005","2024-06-19T19:15:00",23.899,30.139997,0.226],
    [24087,"urn:WaterMeter:MC0203J22010600005","2024-06-19T19:30:00",23.6,30.091898,0.242],
    [24088,"urn:WaterMeter:MC0203J22010600005","2024-06-19T19:45:00",23.5,30.096552,0.223],
    [24089,"urn:WaterMeter:MC0203J22010600005","2024-06-19T20:00:00",23.5,30.064745,0.23],
    [24090,"urn:WaterMeter:MC0203J22010600005","2024-06-19T20:15:00",23.399,30.053495,0.225],
    [24091,"urn:WaterMeter:MC0203J22010600005","2024-06-19T20:30:00",23.399,30.075994,0.231],
    [24092,"urn:WaterMeter:MC0203J22010600005","2024-06-19T20:45:00",23.399,30.039143,0.223],
    [24093,"urn:WaterMeter:MC0203J22010600005","2024-06-19T21:00:00",23.299,30.025955,0.231],
    [24094,"urn:WaterMeter:MC0203J22010600005","2024-06-19T21:15:00",23.299,29.993332,0.226],
    [24095,"urn:WaterMeter:MC0203J22010600005","2024-06-19T21:30:00",23.299,30.005009,0.221],
    [24096,"urn:WaterMeter:MC0203J22010600005","2024-06-19T21:45:00",23.2,29.993332,0.222],
    [24097,"urn:WaterMeter:MC0203J22010600005","2024-06-19T22:00:00",23.2,29.989492,0.222],
    [24098,"urn:WaterMeter:MC0203J22010600005","2024-06-19T22:15:00",23.1,29.989492,0.229],
    [24099,"urn:WaterMeter:MC0203J22010600005","2024-06-19T22:30:00",23.1,29.952215,0.247],
    [24100,"urn:WaterMeter:MC0203J22010600005","2024-06-19T22:45:00",23.1,29.913425,0.234],
    [24101,"urn:WaterMeter:MC0203J22010600005","2024-06-19T23:00:00",23.1,29.954931,0.231],
    [24102,"urn:WaterMeter:MC0203J22010600005","2024-06-19T23:15:00",23.1,29.945232,0.234],
    [24103,"urn:WaterMeter:MC0203J22010600005","2024-06-19T23:30:00",23.1,29.911137,0.221],
    [24104,"urn:WaterMeter:MC0203J22010600005","2024-06-19T23:45:00",23,29.892904,0.22],
    [24105,"urn:WaterMeter:MC0203J22010600005","2024-06-20T00:00:00",23,29.876575,0.232],
    [24106,"urn:WaterMeter:MC0203J22010600005","2024-06-20T00:15:00",23,29.847094,0.23],
    [24107,"urn:WaterMeter:MC0203J22010600005","2024-06-20T00:30:00",22.899,29.90338,0.225],
    [24108,"urn:WaterMeter:MC0203J22010600005","2024-06-20T00:45:00",22.899,29.863424,0.219],
    [24109,"urn:WaterMeter:MC0203J22010600005","2024-06-20T01:00:00",22.899,29.83472,0.213],
    [24110,"urn:WaterMeter:MC0203J22010600005","2024-06-20T01:15:00",22.799,29.84946,0.233],
    [24111,"urn:WaterMeter:MC0203J22010600005","2024-06-20T01:30:00",22.799,29.82541,0.223],
    [24112,"urn:WaterMeter:MC0203J22010600005","2024-06-20T01:45:00",22.799,29.83895,0.222],
    [24113,"urn:WaterMeter:MC0203J22010600005","2024-06-20T02:00:00",22.7,29.80908,0.23],
    [24114,"urn:WaterMeter:MC0203J22010600005","2024-06-20T02:15:00",22.7,29.828476,0.219],
    [24115,"urn:WaterMeter:MC0203J22010600005","2024-06-20T02:30:00",22.6,29.82541,0.241],
    [24116,"urn:WaterMeter:MC0203J22010600005","2024-06-20T02:45:00",22.5,29.780764,0.222],
    [24117,"urn:WaterMeter:MC0203J22010600005","2024-06-20T03:00:00",22.399,29.811834,0.224],
    [24118,"urn:WaterMeter:MC0203J22010600005","2024-06-20T03:15:00",22.399,29.764511,0.224],
    [24119,"urn:WaterMeter:MC0203J22010600005","2024-06-20T03:30:00",22.299,29.783518,0.233],
    [24120,"urn:WaterMeter:MC0203J22010600005","2024-06-20T03:45:00",22.2,29.779987,0.23],
    [24121,"urn:WaterMeter:MC0203J22010600005","2024-06-20T04:00:00",22.2,29.800158,0.235],
    [24122,"urn:WaterMeter:MC0203J22010600005","2024-06-20T04:15:00",22.1,29.755201,0.219],
    [24123,"urn:WaterMeter:MC0203J22010600005","2024-06-20T04:30:00",22,29.734642,0.221],
    [24124,"urn:WaterMeter:MC0203J22010600005","2024-06-20T04:45:00",22,29.75167,0.218],
    [24125,"urn:WaterMeter:MC0203J22010600005","2024-06-20T05:00:00",21.899,29.725332,0.244],
    [24126,"urn:WaterMeter:MC0203J22010600005","2024-06-20T05:15:00",21.799,29.721415,0.231],
    [24127,"urn:WaterMeter:MC0203J22010600005","2024-06-20T05:30:00",21.7,29.736582,0.232],
    [24128,"urn:WaterMeter:MC0203J22010600005","2024-06-20T05:45:00",21.7,29.748995,0.22],
    [24129,"urn:WaterMeter:MC0203J22010600005","2024-06-20T06:00:00",21.7,29.685379,0.224],
    [24130,"urn:WaterMeter:MC0203J22010600005","2024-06-20T06:15:00",21.7,29.677233,0.223],
    [24131,"urn:WaterMeter:MC0203J22010600005","2024-06-20T06:30:00",21.7,29.683401,0.22],
    [24132,"urn:WaterMeter:MC0203J22010600005","2024-06-20T06:45:00",21.799,29.64077,0.239],
    [24133,"urn:WaterMeter:MC0203J22010600005","2024-06-20T07:00:00",21.799,29.595346,0.219],
    [24134,"urn:WaterMeter:MC0203J22010600005","2024-06-20T07:15:00",21.799,29.5981,0.232],
    [24135,"urn:WaterMeter:MC0203J22010600005","2024-06-20T07:30:00",21.799,29.58724,0.219],
    [24136,"urn:WaterMeter:MC0203J22010600005","2024-06-20T07:45:00",21.799,29.5244,0.215],
    [24137,"urn:WaterMeter:MC0203J22010600005","2024-06-20T08:00:00",21.799,29.479364,0.217],
    [24138,"urn:WaterMeter:MC0203J22010600005","2024-06-20T08:15:00",21.899,29.454966,0.221],
    [24139,"urn:WaterMeter:MC0203J22010600005","2024-06-20T08:30:00",22,29.42277,0.228],
    [24140,"urn:WaterMeter:MC0203J22010600005","2024-06-20T08:45:00",22.1,29.404926,0.242],
    [24141,"urn:WaterMeter:MC0203J22010600005","2024-06-20T09:00:00",22.2,29.384369,0.218],
    [24142,"urn:WaterMeter:MC0203J22010600005","2024-06-20T09:15:00",22.399,29.291273,0.212],
    [24143,"urn:WaterMeter:MC0203J22010600005","2024-06-20T09:30:00",22.5,29.235376,0.215],
    [24144,"urn:WaterMeter:MC0203J22010600005","2024-06-20T09:45:00",22.7,29.209814,0.216],
    [24145,"urn:WaterMeter:MC0203J22010600005","2024-06-20T10:00:00",22.799,29.185375,0.212],
    [24146,"urn:WaterMeter:MC0203J22010600005","2024-06-20T10:15:00",23,29.137625,0.219],
    [24147,"urn:WaterMeter:MC0203J22010600005","2024-06-20T10:30:00",23,29.046507,0.221],
    [24148,"urn:WaterMeter:MC0203J22010600005","2024-06-20T10:45:00",23.2,28.999184,0.212],
    [24149,"urn:WaterMeter:MC0203J22010600005","2024-06-20T11:00:00",23.299,28.9666,0.212],
    [24150,"urn:WaterMeter:MC0203J22010600005","2024-06-20T11:15:00",23.299,28.890184,0.209],
    [24151,"urn:WaterMeter:MC0203J22010600005","2024-06-20T11:30:00",23.399,28.79476,0.218],
    [24152,"urn:WaterMeter:MC0203J22010600005","2024-06-20T11:45:00",23.5,28.771448,0.208],
    [24153,"urn:WaterMeter:MC0203J22010600005","2024-06-20T12:00:00",23.5,28.706707,0.217],
    [24154,"urn:WaterMeter:MC0203J22010600005","2024-06-20T12:15:00",23.6,28.68227,0.215],
    [24155,"urn:WaterMeter:MC0203J22010600005","2024-06-20T12:30:00",23.7,28.588785,0.208],
    [24156,"urn:WaterMeter:MC0203J22010600005","2024-06-20T12:45:00",23.799,28.53991,0.205],
    [24157,"urn:WaterMeter:MC0203J22010600005","2024-06-20T13:00:00",23.899,28.445263,0.207],
    [24158,"urn:WaterMeter:MC0203J22010600005","2024-06-20T13:15:00",24,28.385138,0.211],
    [24159,"urn:WaterMeter:MC0203J22010600005","2024-06-20T13:30:00",24,28.321135,0.2],
    [24160,"urn:WaterMeter:MC0203J22010600005","2024-06-20T13:45:00",24,28.271872,0.217],
    [24161,"urn:WaterMeter:MC0203J22010600005","2024-06-20T14:00:00",23.899,28.21869,0.209],
    [24162,"urn:WaterMeter:MC0203J22010600005","2024-06-20T14:15:00",24,28.173344,0.202],
    [24163,"urn:WaterMeter:MC0203J22010600005","2024-06-20T14:30:00",24,28.115934,0.203],
    [24164,"urn:WaterMeter:MC0203J22010600005","2024-06-20T14:45:00",24,28.046114,0.2],
    [24165,"urn:WaterMeter:MC0203J22010600005","2024-06-20T15:00:00",24,27.979006,0.212],
    [24166,"urn:WaterMeter:MC0203J22010600005","2024-06-20T15:15:00",24,27.953405,0.205],
    [24167,"urn:WaterMeter:MC0203J22010600005","2024-06-20T15:30:00",24.1,27.876213,0.213],
    [24168,"urn:WaterMeter:MC0203J22010600005","2024-06-20T15:45:00",24,27.785444,0.217],
    [24169,"urn:WaterMeter:MC0203J22010600005","2024-06-20T16:00:00",24,27.794754,0.211],
    [24170,"urn:WaterMeter:MC0203J22010600005","2024-06-20T16:15:00",23.899,27.738508,0.203],
    [24171,"urn:WaterMeter:MC0203J22010600005","2024-06-20T16:30:00",23.899,27.66985,0.21],
    [24172,"urn:WaterMeter:MC0203J22010600005","2024-06-20T16:45:00",24,27.591494,0.207],
    [24173,"urn:WaterMeter:MC0203J22010600005","2024-06-20T17:00:00",24,27.560036,0.197],
    [24174,"urn:WaterMeter:MC0203J22010600005","2024-06-20T17:15:00",24,27.51116,0.195],
    [24175,"urn:WaterMeter:MC0203J22010600005","2024-06-20T17:30:00",24,27.474737,0.199],
    [24176,"urn:WaterMeter:MC0203J22010600005","2024-06-20T17:45:00",23.899,27.461897,0.196],
    [24177,"urn:WaterMeter:MC0203J22010600005","2024-06-20T18:00:00",23.899,27.366085,0.215],
    [24178,"urn:WaterMeter:MC0203J22010600005","2024-06-20T18:15:00",23.799,27.332376,0.21],
    [24179,"urn:WaterMeter:MC0203J22010600005","2024-06-20T18:30:00",23.799,27.290483,0.194],
    [24180,"urn:WaterMeter:MC0203J22010600005","2024-06-20T18:45:00",23.7,27.272253,0.2],
    [24181,"urn:WaterMeter:MC0203J22010600005","2024-06-20T19:00:00",23.6,27.260227,0.212],
    [24182,"urn:WaterMeter:MC0203J22010600005","2024-06-20T19:15:00",23.5,27.223377,0.194],
    [24183,"urn:WaterMeter:MC0203J22010600005","2024-06-20T19:30:00",23.399,27.177994,0.194],
    [24184,"urn:WaterMeter:MC0203J22010600005","2024-06-20T19:45:00",23.399,27.136488,0.189],
    [24185,"urn:WaterMeter:MC0203J22010600005","2024-06-20T20:00:00",23.399,27.10468,0.194],
    [24186,"urn:WaterMeter:MC0203J22010600005","2024-06-20T20:15:00",23.399,27.134161,0.199],
    [24187,"urn:WaterMeter:MC0203J22010600005","2024-06-20T20:30:00",23.299,27.10468,0.203],
    [24188,"urn:WaterMeter:MC0203J22010600005","2024-06-20T20:45:00",23.299,27.090715,0.207],
    [24189,"urn:WaterMeter:MC0203J22010600005","2024-06-20T21:00:00",23.2,27.059296,0.194],
    [24190,"urn:WaterMeter:MC0203J22010600005","2024-06-20T21:15:00",23.2,27.04921,0.196],
    [24191,"urn:WaterMeter:MC0203J22010600005","2024-06-20T21:30:00",23.1,27.055765,0.208],
    [24192,"urn:WaterMeter:MC0203J22010600005","2024-06-20T21:45:00",23,26.985945,0.211],
    [24193,"urn:WaterMeter:MC0203J22010600005","2024-06-20T22:00:00",23,26.98831,0.197],
    [24194,"urn:WaterMeter:MC0203J22010600005","2024-06-20T22:15:00",23,26.98288,0.201],
    [24195,"urn:WaterMeter:MC0203J22010600005","2024-06-20T22:30:00",22.899,26.966936,0.193],
    [24196,"urn:WaterMeter:MC0203J22010600005","2024-06-20T22:45:00",22.799,26.97008,0.194],
    [24197,"urn:WaterMeter:MC0203J22010600005","2024-06-20T23:00:00",22.7,26.907589,0.195],
    [24198,"urn:WaterMeter:MC0203J22010600005","2024-06-20T23:15:00",22.7,26.912281,0.194],
    [24199,"urn:WaterMeter:MC0203J22010600005","2024-06-20T23:30:00",22.6,26.941763,0.193],
    [24200,"urn:WaterMeter:MC0203J22010600005","2024-06-20T23:45:00",22.5,26.917711,0.201],
    [24201,"urn:WaterMeter:MC0203J22010600005","2024-06-21T00:00:00",22.5,26.876984,0.179],
    [24202,"urn:WaterMeter:MC0203J22010600005","2024-06-21T00:15:00",22.299,26.896378,0.19],
    [24203,"urn:WaterMeter:MC0203J22010600005","2024-06-21T00:30:00",22.299,26.893661,0.201],
    [24204,"urn:WaterMeter:MC0203J22010600005","2024-06-21T00:45:00",22.2,26.86263,0.196],
    [24205,"urn:WaterMeter:MC0203J22010600005","2024-06-21T01:00:00",22.1,26.859528,0.201],
    [24206,"urn:WaterMeter:MC0203J22010600005","2024-06-21T01:15:00",22.1,26.819962,0.195],
    [24207,"urn:WaterMeter:MC0203J22010600005","2024-06-21T01:30:00",22,26.859915,0.192],
    [24208,"urn:WaterMeter:MC0203J22010600005","2024-06-21T01:45:00",22,26.865345,0.191],
    [24209,"urn:WaterMeter:MC0203J22010600005","2024-06-21T02:00:00",21.899,26.857975,0.192],
    [24210,"urn:WaterMeter:MC0203J22010600005","2024-06-21T02:15:00",21.799,26.821125,0.202],
    [24211,"urn:WaterMeter:MC0203J22010600005","2024-06-21T02:30:00",21.799,26.820349,0.191],
    [24212,"urn:WaterMeter:MC0203J22010600005","2024-06-21T02:45:00",21.7,26.840132,0.191],
    [24213,"urn:WaterMeter:MC0203J22010600005","2024-06-21T03:00:00",21.7,26.847115,0.187],
    [24214,"urn:WaterMeter:MC0203J22010600005","2024-06-21T03:15:00",21.6,26.81294,0.196],
    [24215,"urn:WaterMeter:MC0203J22010600005","2024-06-21T03:30:00",21.6,26.800179,0.2],
    [24216,"urn:WaterMeter:MC0203J22010600005","2024-06-21T03:45:00",21.5,26.80173,0.198],
    [24217,"urn:WaterMeter:MC0203J22010600005","2024-06-21T04:00:00",21.399,26.754368,0.186],
    [24218,"urn:WaterMeter:MC0203J22010600005","2024-06-21T04:15:00",21.399,26.759449,0.2],
    [24219,"urn:WaterMeter:MC0203J22010600005","2024-06-21T04:30:00",21.299,26.754368,0.196],
    [24220,"urn:WaterMeter:MC0203J22010600005","2024-06-21T04:45:00",21.2,26.766819,0.184],
    [24221,"urn:WaterMeter:MC0203J22010600005","2024-06-21T05:00:00",21.2,26.757122,0.184],
    [24222,"urn:WaterMeter:MC0203J22010600005","2024-06-21T05:15:00",21.2,26.745058,0.192],
    [24223,"urn:WaterMeter:MC0203J22010600005","2024-06-21T05:30:00",21.2,26.701263,0.2],
    [24224,"urn:WaterMeter:MC0203J22010600005","2024-06-21T05:45:00",21.2,26.728416,0.19],
    [24225,"urn:WaterMeter:MC0203J22010600005","2024-06-21T06:00:00",21.1,26.654327,0.189],
    [24226,"urn:WaterMeter:MC0203J22010600005","2024-06-21T06:15:00",21.1,26.637997,0.185],
    [24227,"urn:WaterMeter:MC0203J22010600005","2024-06-21T06:30:00",21.1,26.700876,0.187],
    [24228,"urn:WaterMeter:MC0203J22010600005","2024-06-21T06:45:00",21.2,26.62446,0.19],
    [24229,"urn:WaterMeter:MC0203J22010600005","2024-06-21T07:00:00",21.2,26.60584,0.198],
    [24230,"urn:WaterMeter:MC0203J22010600005","2024-06-21T07:15:00",21.399,26.530937,0.19],
    [24231,"urn:WaterMeter:MC0203J22010600005","2024-06-21T07:30:00",21.6,26.547655,0.184],
    [24232,"urn:WaterMeter:MC0203J22010600005","2024-06-21T07:45:00",21.7,26.529812,0.188],
    [24233,"urn:WaterMeter:MC0203J22010600005","2024-06-21T08:00:00",21.799,26.480122,0.192],
    [24234,"urn:WaterMeter:MC0203J22010600005","2024-06-21T08:15:00",21.899,26.41383,0.193],
    [24235,"urn:WaterMeter:MC0203J22010600005","2024-06-21T08:30:00",22.1,26.811388,0.198],
    [24236,"urn:WaterMeter:MC0203J22010600005","2024-06-21T08:45:00",22.2,28.128347,0.223],
    [24237,"urn:WaterMeter:MC0203J22010600005","2024-06-21T09:00:00",22.299,29.750507,0.235],
    [24238,"urn:WaterMeter:MC0203J22010600005","2024-06-21T09:15:00",22.6,30.723011,0.243],
    [24239,"urn:WaterMeter:MC0203J22010600005","2024-06-21T09:30:00",22.799,31.013937,0.255],
    [24240,"urn:WaterMeter:MC0203J22010600005","2024-06-21T09:45:00",23,31.08686,0.243],
    [24241,"urn:WaterMeter:MC0203J22010600005","2024-06-21T10:00:00",23.1,31.152416,0.257],
    [24242,"urn:WaterMeter:MC0203J22010600005","2024-06-21T10:15:00",23.299,31.152805,0.247],
    [24243,"urn:WaterMeter:MC0203J22010600005","2024-06-21T10:30:00",23.399,31.119833,0.269],
    [24244,"urn:WaterMeter:MC0203J22010600005","2024-06-21T10:45:00",23.6,31.152029,0.261],
    [24245,"urn:WaterMeter:MC0203J22010600005","2024-06-21T11:00:00",23.7,31.104704,0.244],
    [24246,"urn:WaterMeter:MC0203J22010600005","2024-06-21T11:15:00",23.7,31.079453,0.24],
    [24247,"urn:WaterMeter:MC0203J22010600005","2024-06-21T11:30:00",23.799,31.003464,0.241],
    [24248,"urn:WaterMeter:MC0203J22010600005","2024-06-21T11:45:00",23.899,31.008118,0.26],
    [24249,"urn:WaterMeter:MC0203J22010600005","2024-06-21T12:00:00",24,30.961918,0.235],
    [24250,"urn:WaterMeter:MC0203J22010600005","2024-06-21T12:15:00",24.1,30.897955,0.241],
    [24251,"urn:WaterMeter:MC0203J22010600005","2024-06-21T12:30:00",24.1,30.866108,0.251],
    [24252,"urn:WaterMeter:MC0203J22010600005","2024-06-21T12:45:00",24.2,30.832787,0.248],
    [24253,"urn:WaterMeter:MC0203J22010600005","2024-06-21T13:00:00",24.299,30.779606,0.232],
    [24254,"urn:WaterMeter:MC0203J22010600005","2024-06-21T13:15:00",24.299,30.752491,0.242],
    [24255,"urn:WaterMeter:MC0203J22010600005","2024-06-21T13:30:00",24.399,30.678402,0.246],
    [24256,"urn:WaterMeter:MC0203J22010600005","2024-06-21T13:45:00",24.399,30.605478,0.241],
    [24257,"urn:WaterMeter:MC0203J22010600005","2024-06-21T14:00:00",24.5,30.587246,0.239],
    [24258,"urn:WaterMeter:MC0203J22010600005","2024-06-21T14:15:00",24.5,30.5182,0.244],
    [24259,"urn:WaterMeter:MC0203J22010600005","2024-06-21T14:30:00",24.5,30.45536,0.247],
    [24260,"urn:WaterMeter:MC0203J22010600005","2024-06-21T14:45:00",24.6,30.39093,0.249],
    [24261,"urn:WaterMeter:MC0203J22010600005","2024-06-21T15:00:00",24.6,30.367695,0.23],
    [24262,"urn:WaterMeter:MC0203J22010600005","2024-06-21T15:15:00",24.6,30.323435,0.244],
    [24263,"urn:WaterMeter:MC0203J22010600005","2024-06-21T15:30:00",24.7,30.294342,0.236],
    [24264,"urn:WaterMeter:MC0203J22010600005","2024-06-21T15:45:00",24.7,30.18573,0.25],
    [24265,"urn:WaterMeter:MC0203J22010600005","2024-06-21T16:00:00",24.6,30.153961,0.239],
    [24266,"urn:WaterMeter:MC0203J22010600005","2024-06-21T16:15:00",24.6,30.14504,0.213],
    [24267,"urn:WaterMeter:MC0203J22010600005","2024-06-21T16:30:00",24.6,30.10078,0.233],
    [24268,"urn:WaterMeter:MC0203J22010600005","2024-06-21T16:45:00",24.5,30.034876,0.236],
    [24269,"urn:WaterMeter:MC0203J22010600005","2024-06-21T17:00:00",24.5,29.984022,0.248],
    [24270,"urn:WaterMeter:MC0203J22010600005","2024-06-21T17:15:00",24.399,29.984411,0.232],
    [24271,"urn:WaterMeter:MC0203J22010600005","2024-06-21T17:30:00",24.399,29.928204,0.234],
    [24272,"urn:WaterMeter:MC0203J22010600005","2024-06-21T17:45:00",24.299,29.894419,0.233],
    [24273,"urn:WaterMeter:MC0203J22010600005","2024-06-21T18:00:00",24.299,29.89597,0.224],
    [24274,"urn:WaterMeter:MC0203J22010600005","2024-06-21T18:15:00",24.2,29.8277,0.23],
    [24275,"urn:WaterMeter:MC0203J22010600005","2024-06-21T18:30:00",24.2,29.840538,0.235],
    [24276,"urn:WaterMeter:MC0203J22010600005","2024-06-21T18:45:00",24.1,29.767225,0.225],
    [24277,"urn:WaterMeter:MC0203J22010600005","2024-06-21T19:00:00",24.1,29.756752,0.234],
    [24278,"urn:WaterMeter:MC0203J22010600005","2024-06-21T19:15:00",24,29.726496,0.231],
    [24279,"urn:WaterMeter:MC0203J22010600005","2024-06-21T19:30:00",23.899,29.753262,0.226],
    [24280,"urn:WaterMeter:MC0203J22010600005","2024-06-21T19:45:00",23.899,29.71098,0.228],
    [24281,"urn:WaterMeter:MC0203J22010600005","2024-06-21T20:00:00",23.799,29.68693,0.224],
    [24282,"urn:WaterMeter:MC0203J22010600005","2024-06-21T20:15:00",23.7,29.680685,0.229],
    [24283,"urn:WaterMeter:MC0203J22010600005","2024-06-21T20:30:00",23.7,29.680298,0.239],
    [24284,"urn:WaterMeter:MC0203J22010600005","2024-06-21T20:45:00",23.6,29.647364,0.229],
    [24285,"urn:WaterMeter:MC0203J22010600005","2024-06-21T21:00:00",23.6,29.636503,0.242],
    [24286,"urn:WaterMeter:MC0203J22010600005","2024-06-21T21:15:00",23.6,29.62021,0.225],
    [24287,"urn:WaterMeter:MC0203J22010600005","2024-06-21T21:30:00",23.6,29.619823,0.225],
    [24288,"urn:WaterMeter:MC0203J22010600005","2024-06-21T21:45:00",23.5,29.602716,0.238],
    [24289,"urn:WaterMeter:MC0203J22010600005","2024-06-21T22:00:00",23.5,29.55194,0.238],
    [24290,"urn:WaterMeter:MC0203J22010600005","2024-06-21T22:15:00",23.399,29.55194,0.232],
    [24291,"urn:WaterMeter:MC0203J22010600005","2024-06-21T22:30:00",23.399,29.588017,0.222],
    [24292,"urn:WaterMeter:MC0203J22010600005","2024-06-21T22:45:00",23.299,29.56862,0.232],
    [24293,"urn:WaterMeter:MC0203J22010600005","2024-06-21T23:00:00",23.2,29.525913,0.233],
    [24294,"urn:WaterMeter:MC0203J22010600005","2024-06-21T23:15:00",23.2,29.536425,0.243],
    [24295,"urn:WaterMeter:MC0203J22010600005","2024-06-21T23:30:00",23.2,29.521685,0.22],
    [24296,"urn:WaterMeter:MC0203J22010600005","2024-06-21T23:45:00",23.1,29.490652,0.232],
    [24297,"urn:WaterMeter:MC0203J22010600005","2024-06-22T00:00:00",23,29.499147,0.225],
    [24298,"urn:WaterMeter:MC0203J22010600005","2024-06-22T00:15:00",23,29.483671,0.223],
    [24299,"urn:WaterMeter:MC0203J22010600005","2024-06-22T00:30:00",22.899,29.5263,0.229],
    [24300,"urn:WaterMeter:MC0203J22010600005","2024-06-22T00:45:00",22.799,29.496859,0.243],
    [24301,"urn:WaterMeter:MC0203J22010600005","2024-06-22T01:00:00",22.7,29.494144,0.238],
    [24302,"urn:WaterMeter:MC0203J22010600005","2024-06-22T01:15:00",22.7,29.489063,0.227],
    [24303,"urn:WaterMeter:MC0203J22010600005","2024-06-22T01:30:00",22.6,29.476301,0.235],
    [24304,"urn:WaterMeter:MC0203J22010600005","2024-06-22T01:45:00",22.5,29.477852,0.238],
    [24305,"urn:WaterMeter:MC0203J22010600005","2024-06-22T02:00:00",22.399,29.487123,0.226],
    [24306,"urn:WaterMeter:MC0203J22010600005","2024-06-22T02:15:00",22.399,29.484058,0.235],
    [24307,"urn:WaterMeter:MC0203J22010600005","2024-06-22T02:30:00",22.299,29.484835,0.232],
    [24308,"urn:WaterMeter:MC0203J22010600005","2024-06-22T02:45:00",22.2,29.458069,0.229],
    [24309,"urn:WaterMeter:MC0203J22010600005","2024-06-22T03:00:00",22.2,29.432856,0.227],
    [24310,"urn:WaterMeter:MC0203J22010600005","2024-06-22T03:15:00",22.1,29.460745,0.245],
    [24311,"urn:WaterMeter:MC0203J22010600005","2024-06-22T03:30:00",22,29.418116,0.234],
    [24312,"urn:WaterMeter:MC0203J22010600005","2024-06-22T03:45:00",22,29.418116,0.232],
    [24313,"urn:WaterMeter:MC0203J22010600005","2024-06-22T04:00:00",21.899,29.392864,0.225],
    [24314,"urn:WaterMeter:MC0203J22010600005","2024-06-22T04:15:00",21.799,29.398333,0.229],
    [24315,"urn:WaterMeter:MC0203J22010600005","2024-06-22T04:30:00",21.7,29.40066,0.222],
    [24316,"urn:WaterMeter:MC0203J22010600005","2024-06-22T04:45:00",21.6,29.3673,0.24],
    [24317,"urn:WaterMeter:MC0203J22010600005","2024-06-22T05:00:00",21.5,29.369978,0.221],
    [24318,"urn:WaterMeter:MC0203J22010600005","2024-06-22T05:15:00",21.399,29.36575,0.219],
    [24319,"urn:WaterMeter:MC0203J22010600005","2024-06-22T05:30:00",21.399,29.412258,0.228],
    [24320,"urn:WaterMeter:MC0203J22010600005","2024-06-22T05:45:00",21.399,29.347517,0.231],
    [24321,"urn:WaterMeter:MC0203J22010600005","2024-06-22T06:00:00",21.399,29.386696,0.236],
    [24322,"urn:WaterMeter:MC0203J22010600005","2024-06-22T06:15:00",21.399,29.33821,0.215],
    [24323,"urn:WaterMeter:MC0203J22010600005","2024-06-22T06:30:00",21.399,29.36575,0.236],
    [24324,"urn:WaterMeter:MC0203J22010600005","2024-06-22T06:45:00",21.399,29.346354,0.224],
    [24325,"urn:WaterMeter:MC0203J22010600005","2024-06-22T07:00:00",21.6,29.310667,0.226],
    [24326,"urn:WaterMeter:MC0203J22010600005","2024-06-22T07:15:00",21.7,29.308727,0.229],
    [24327,"urn:WaterMeter:MC0203J22010600005","2024-06-22T07:30:00",21.899,29.292786,0.221],
    [24328,"urn:WaterMeter:MC0203J22010600005","2024-06-22T07:45:00",22,29.229597,0.224],
    [24329,"urn:WaterMeter:MC0203J22010600005","2024-06-22T08:00:00",22.1,29.22145,0.217],
    [24330,"urn:WaterMeter:MC0203J22010600005","2024-06-22T08:15:00",22.299,29.154732,0.222],
    [24331,"urn:WaterMeter:MC0203J22010600005","2024-06-22T08:30:00",22.399,29.157797,0.23],
    [24332,"urn:WaterMeter:MC0203J22010600005","2024-06-22T08:45:00",22.5,29.03328,0.217],
    [24333,"urn:WaterMeter:MC0203J22010600005","2024-06-22T09:00:00",22.7,29.02397,0.218],
    [24334,"urn:WaterMeter:MC0203J22010600005","2024-06-22T09:15:00",22.899,28.98677,0.229],
    [24335,"urn:WaterMeter:MC0203J22010600005","2024-06-22T09:30:00",23,28.922379,0.221],
    [24336,"urn:WaterMeter:MC0203J22010600005","2024-06-22T09:45:00",23.2,28.90566,0.229],
    [24337,"urn:WaterMeter:MC0203J22010600005","2024-06-22T10:00:00",23.399,28.812216,0.221],
    [24338,"urn:WaterMeter:MC0203J22010600005","2024-06-22T10:15:00",23.6,28.787003,0.217],
    [24339,"urn:WaterMeter:MC0203J22010600005","2024-06-22T10:30:00",23.7,28.723736,0.217],
    [24340,"urn:WaterMeter:MC0203J22010600005","2024-06-22T10:45:00",23.899,28.664387,0.226],
    [24341,"urn:WaterMeter:MC0203J22010600005","2024-06-22T11:00:00",24,28.584518,0.205],
    [24342,"urn:WaterMeter:MC0203J22010600005","2024-06-22T11:15:00",24.2,28.540686,0.222],
    [24343,"urn:WaterMeter:MC0203J22010600005","2024-06-22T11:30:00",24.299,28.48289,0.22],
    [24344,"urn:WaterMeter:MC0203J22010600005","2024-06-22T11:45:00",24.399,28.390957,0.206],
    [24345,"urn:WaterMeter:MC0203J22010600005","2024-06-22T12:00:00",24.6,28.345146,0.208],
    [24346,"urn:WaterMeter:MC0203J22010600005","2024-06-22T12:15:00",24.7,28.260235,0.225],
    [24347,"urn:WaterMeter:MC0203J22010600005","2024-06-22T12:30:00",24.7,28.184982,0.211],
    [24348,"urn:WaterMeter:MC0203J22010600005","2024-06-22T12:45:00",24.799,28.127184,0.211],
    [24349,"urn:WaterMeter:MC0203J22010600005","2024-06-22T13:00:00",24.899,28.055424,0.204],
    [24350,"urn:WaterMeter:MC0203J22010600005","2024-06-22T13:15:00",25,27.957634,0.217],
    [24351,"urn:WaterMeter:MC0203J22010600005","2024-06-22T13:30:00",25.1,27.888199,0.204],
    [24352,"urn:WaterMeter:MC0203J22010600005","2024-06-22T13:45:00",25.2,27.841263,0.208],
    [24353,"urn:WaterMeter:MC0203J22010600005","2024-06-22T14:00:00",25.299,27.739672,0.201],
    [24354,"urn:WaterMeter:MC0203J22010600005","2024-06-22T14:15:00",25.299,27.690409,0.208],
    [24355,"urn:WaterMeter:MC0203J22010600005","2024-06-22T14:30:00",25.399,27.581797,0.204],
    [24356,"urn:WaterMeter:MC0203J22010600005","2024-06-22T14:45:00",25.399,27.504604,0.205],
    [24357,"urn:WaterMeter:MC0203J22010600005","2024-06-22T15:00:00",25.5,27.42237,0.2],
    [24358,"urn:WaterMeter:MC0203J22010600005","2024-06-22T15:15:00",25.399,27.378538,0.201],
    [24359,"urn:WaterMeter:MC0203J22010600005","2024-06-22T15:30:00",25.399,27.2707,0.205],
    [24360,"urn:WaterMeter:MC0203J22010600005","2024-06-22T15:45:00",25.399,27.21368,0.198],
    [24361,"urn:WaterMeter:MC0203J22010600005","2024-06-22T16:00:00",25.399,27.156658,0.213],
    [24362,"urn:WaterMeter:MC0203J22010600005","2024-06-22T16:15:00",25.299,27.057356,0.201],
    [24363,"urn:WaterMeter:MC0203J22010600005","2024-06-22T16:30:00",25.299,26.989086,0.202],
    [24364,"urn:WaterMeter:MC0203J22010600005","2024-06-22T16:45:00",25.2,26.924694,0.207],
    [24365,"urn:WaterMeter:MC0203J22010600005","2024-06-22T17:00:00",25.2,26.864958,0.201],
    [24366,"urn:WaterMeter:MC0203J22010600005","2024-06-22T17:15:00",25.1,26.825392,0.191],
    [24367,"urn:WaterMeter:MC0203J22010600005","2024-06-22T17:30:00",25.1,26.765268,0.205],
    [24368,"urn:WaterMeter:MC0203J22010600005","2024-06-22T17:45:00",25,26.702816,0.205],
    [24369,"urn:WaterMeter:MC0203J22010600005","2024-06-22T18:00:00",25,26.634933,0.192],
    [24370,"urn:WaterMeter:MC0203J22010600005","2024-06-22T18:15:00",24.899,26.612434,0.213],
    [24371,"urn:WaterMeter:MC0203J22010600005","2024-06-22T18:30:00",24.899,26.595367,0.194],
    [24372,"urn:WaterMeter:MC0203J22010600005","2024-06-22T18:45:00",24.899,26.57089,0.195],
    [24373,"urn:WaterMeter:MC0203J22010600005","2024-06-22T19:00:00",24.799,26.508478,0.197],
    [24374,"urn:WaterMeter:MC0203J22010600005","2024-06-22T19:15:00",24.799,26.506926,0.199],
    [24375,"urn:WaterMeter:MC0203J22010600005","2024-06-22T19:30:00",24.7,26.438269,0.207],
    [24376,"urn:WaterMeter:MC0203J22010600005","2024-06-22T19:45:00",24.6,26.436329,0.179],
    [24377,"urn:WaterMeter:MC0203J22010600005","2024-06-22T20:00:00",24.5,26.444048,0.2],
    [24378,"urn:WaterMeter:MC0203J22010600005","2024-06-22T20:15:00",24.5,26.410727,0.193],
    [24379,"urn:WaterMeter:MC0203J22010600005","2024-06-22T20:30:00",24.5,26.38784,0.195],
    [24380,"urn:WaterMeter:MC0203J22010600005","2024-06-22T20:45:00",24.399,26.35836,0.197],
    [24381,"urn:WaterMeter:MC0203J22010600005","2024-06-22T21:00:00",24.399,26.32888,0.219],
    [24382,"urn:WaterMeter:MC0203J22010600005","2024-06-22T21:15:00",24.299,26.313364,0.202],
    [24383,"urn:WaterMeter:MC0203J22010600005","2024-06-22T21:30:00",24.299,26.317204,0.188],
    [24384,"urn:WaterMeter:MC0203J22010600005","2024-06-22T21:45:00",24.2,26.289276,0.188],
    [24385,"urn:WaterMeter:MC0203J22010600005","2024-06-22T22:00:00",24.2,26.271084,0.201],
    [24386,"urn:WaterMeter:MC0203J22010600005","2024-06-22T22:15:00",24.1,26.283495,0.204],
    [24387,"urn:WaterMeter:MC0203J22010600005","2024-06-22T22:30:00",24.1,26.238111,0.191],
    [24388,"urn:WaterMeter:MC0203J22010600005","2024-06-22T22:45:00",24,26.249321,0.194],
    [24389,"urn:WaterMeter:MC0203J22010600005","2024-06-22T23:00:00",24,26.23109,0.194],
    [24390,"urn:WaterMeter:MC0203J22010600005","2024-06-22T23:15:00",23.899,26.24393,0.188],
    [24391,"urn:WaterMeter:MC0203J22010600005","2024-06-22T23:30:00",23.799,26.189198,0.187],
    [24392,"urn:WaterMeter:MC0203J22010600005","2024-06-22T23:45:00",23.799,26.173294,0.201],
    [24393,"urn:WaterMeter:MC0203J22010600005","2024-06-23T00:00:00",23.7,26.187685,0.189],
    [24394,"urn:WaterMeter:MC0203J22010600005","2024-06-23T00:15:00",23.7,26.139585,0.19],
    [24395,"urn:WaterMeter:MC0203J22010600005","2024-06-23T00:30:00",23.6,26.124805,0.2],
    [24396,"urn:WaterMeter:MC0203J22010600005","2024-06-23T00:45:00",23.6,26.132565,0.186],
    [24397,"urn:WaterMeter:MC0203J22010600005","2024-06-23T01:00:00",23.5,26.130276,0.188],
    [24398,"urn:WaterMeter:MC0203J22010600005","2024-06-23T01:15:00",23.5,26.11088,0.197],
    [24399,"urn:WaterMeter:MC0203J22010600005","2024-06-23T01:30:00",23.399,26.11631,0.192],
    [24400,"urn:WaterMeter:MC0203J22010600005","2024-06-23T01:45:00",23.299,26.135319,0.199],
    [24401,"urn:WaterMeter:MC0203J22010600005","2024-06-23T02:00:00",23.299,26.117863,0.198],
    [24402,"urn:WaterMeter:MC0203J22010600005","2024-06-23T02:15:00",23.2,26.141136,0.186],
    [24403,"urn:WaterMeter:MC0203J22010600005","2024-06-23T02:30:00",23.1,26.07209,0.198],
    [24404,"urn:WaterMeter:MC0203J22010600005","2024-06-23T02:45:00",23.1,26.065845,0.19],
    [24405,"urn:WaterMeter:MC0203J22010600005","2024-06-23T03:00:00",23,26.08524,0.186],
    [24406,"urn:WaterMeter:MC0203J22010600005","2024-06-23T03:15:00",22.899,26.076319,0.216],
    [24407,"urn:WaterMeter:MC0203J22010600005","2024-06-23T03:30:00",22.799,26.062393,0.185],
    [24408,"urn:WaterMeter:MC0203J22010600005","2024-06-23T03:45:00",22.799,26.084852,0.201],
    [24409,"urn:WaterMeter:MC0203J22010600005","2024-06-23T04:00:00",22.7,26.030973,0.198],
    [24410,"urn:WaterMeter:MC0203J22010600005","2024-06-23T04:15:00",22.6,26.05576,0.195],
    [24411,"urn:WaterMeter:MC0203J22010600005","2024-06-23T04:30:00",22.5,26.04804,0.183],
    [24412,"urn:WaterMeter:MC0203J22010600005","2024-06-23T04:45:00",22.5,26.053083,0.195],
    [24413,"urn:WaterMeter:MC0203J22010600005","2024-06-23T05:00:00",22.399,26.025541,0.199],
    [24414,"urn:WaterMeter:MC0203J22010600005","2024-06-23T05:15:00",22.399,26.021664,0.187],
    [24415,"urn:WaterMeter:MC0203J22010600005","2024-06-23T05:30:00",22.399,25.995636,0.197],
    [24416,"urn:WaterMeter:MC0203J22010600005","2024-06-23T05:45:00",22.399,26.008863,0.186],
    [24417,"urn:WaterMeter:MC0203J22010600005","2024-06-23T06:00:00",22.399,25.977016,0.188],
    [24418,"urn:WaterMeter:MC0203J22010600005","2024-06-23T06:15:00",22.399,25.990244,0.191],
    [24419,"urn:WaterMeter:MC0203J22010600005","2024-06-23T06:30:00",22.5,25.89866,0.211],
    [24420,"urn:WaterMeter:MC0203J22010600005","2024-06-23T06:45:00",22.6,25.962702,0.185],
    [24421,"urn:WaterMeter:MC0203J22010600005","2024-06-23T07:00:00",22.7,25.945248,0.185],
    [24422,"urn:WaterMeter:MC0203J22010600005","2024-06-23T07:15:00",22.799,25.847883,0.194],
    [24423,"urn:WaterMeter:MC0203J22010600005","2024-06-23T07:30:00",22.899,25.84478,0.191],
    [24424,"urn:WaterMeter:MC0203J22010600005","2024-06-23T07:45:00",23,25.831593,0.186],
    [24425,"urn:WaterMeter:MC0203J22010600005","2024-06-23T08:00:00",23.1,25.77651,0.186],
    [24426,"urn:WaterMeter:MC0203J22010600005","2024-06-23T08:15:00",23.299,25.74897,0.181],
    [24427,"urn:WaterMeter:MC0203J22010600005","2024-06-23T08:30:00",23.399,25.7191,0.179],
    [24428,"urn:WaterMeter:MC0203J22010600005","2024-06-23T08:45:00",23.5,25.687254,0.195],
    [24429,"urn:WaterMeter:MC0203J22010600005","2024-06-23T09:00:00",23.7,25.651995,0.185],
    [24430,"urn:WaterMeter:MC0203J22010600005","2024-06-23T09:15:00",23.799,25.591444,0.181],
    [24431,"urn:WaterMeter:MC0203J22010600005","2024-06-23T09:30:00",24,25.508472,0.185],
    [24432,"urn:WaterMeter:MC0203J22010600005","2024-06-23T09:45:00",24.1,25.478603,0.182],
    [24433,"urn:WaterMeter:MC0203J22010600005","2024-06-23T10:00:00",24.2,25.38861,0.182],
    [24434,"urn:WaterMeter:MC0203J22010600005","2024-06-23T10:15:00",24.399,25.344002,0.179],
    [24435,"urn:WaterMeter:MC0203J22010600005","2024-06-23T10:30:00",24.5,25.276896,0.18],
    [24436,"urn:WaterMeter:MC0203J22010600005","2024-06-23T10:45:00",24.7,25.21522,0.185],
    [24437,"urn:WaterMeter:MC0203J22010600005","2024-06-23T11:00:00",24.799,25.186514,0.177],
    [24438,"urn:WaterMeter:MC0203J22010600005","2024-06-23T11:15:00",24.899,25.121347,0.18],
    [24439,"urn:WaterMeter:MC0203J22010600005","2024-06-23T11:30:00",25,25.063162,0.175],
    [24440,"urn:WaterMeter:MC0203J22010600005","2024-06-23T11:45:00",25,24.97123,0.176],
    [24441,"urn:WaterMeter:MC0203J22010600005","2024-06-23T12:00:00",25.1,24.89753,0.177],
    [24442,"urn:WaterMeter:MC0203J22010600005","2024-06-23T12:15:00",25.2,24.877357,0.187],
    [24443,"urn:WaterMeter:MC0203J22010600005","2024-06-23T12:30:00",25.299,24.726465,0.176],
    [24444,"urn:WaterMeter:MC0203J22010600005","2024-06-23T12:45:00",25.5,24.663626,0.176],
    [24445,"urn:WaterMeter:MC0203J22010600005","2024-06-23T13:00:00",25.6,24.61669,0.168],
    [24446,"urn:WaterMeter:MC0203J22010600005","2024-06-23T13:15:00",25.6,24.54101,0.173],
    [24447,"urn:WaterMeter:MC0203J22010600005","2024-06-23T13:30:00",25.7,24.448729,0.158],
    [24448,"urn:WaterMeter:MC0203J22010600005","2024-06-23T13:45:00",25.799,24.397488,0.178],
    [24449,"urn:WaterMeter:MC0203J22010600005","2024-06-23T14:00:00",25.799,24.298223,0.177],
    [24450,"urn:WaterMeter:MC0203J22010600005","2024-06-23T14:15:00",25.899,24.227238,0.167],
    [24451,"urn:WaterMeter:MC0203J22010600005","2024-06-23T14:30:00",25.899,24.167889,0.168],
    [24452,"urn:WaterMeter:MC0203J22010600005","2024-06-23T14:45:00",26,24.05113,0.177],
    [24453,"urn:WaterMeter:MC0203J22010600005","2024-06-23T15:00:00",26,24.013117,0.165],
    [24454,"urn:WaterMeter:MC0203J22010600005","2024-06-23T15:15:00",26.1,23.895971,0.166],
    [24455,"urn:WaterMeter:MC0203J22010600005","2024-06-23T15:30:00",26.1,23.850588,0.179],
    [24456,"urn:WaterMeter:MC0203J22010600005","2024-06-23T15:45:00",26.1,23.73189,0.177],
    [24457,"urn:WaterMeter:MC0203J22010600005","2024-06-23T16:00:00",26.1,23.75206,0.163],
    [24458,"urn:WaterMeter:MC0203J22010600005","2024-06-23T16:15:00",26.1,23.639957,0.171],
    [24459,"urn:WaterMeter:MC0203J22010600005","2024-06-23T16:30:00",26,23.603882,0.166],
    [24460,"urn:WaterMeter:MC0203J22010600005","2024-06-23T16:45:00",26,23.517382,0.166],
    [24461,"urn:WaterMeter:MC0203J22010600005","2024-06-23T17:00:00",26,23.473549,0.161],
    [24462,"urn:WaterMeter:MC0203J22010600005","2024-06-23T17:15:00",25.899,23.387047,0.168],
    [24463,"urn:WaterMeter:MC0203J22010600005","2024-06-23T17:30:00",25.899,23.357527,0.165],
    [24464,"urn:WaterMeter:MC0203J22010600005","2024-06-23T17:45:00",25.899,23.322227,0.166],
    [24465,"urn:WaterMeter:MC0203J22010600005","2024-06-23T18:00:00",25.799,23.266409,0.165],
    [24466,"urn:WaterMeter:MC0203J22010600005","2024-06-23T18:15:00",25.7,23.188442,0.159],
    [24467,"urn:WaterMeter:MC0203J22010600005","2024-06-23T18:30:00",25.6,23.171762,0.158],
    [24468,"urn:WaterMeter:MC0203J22010600005","2024-06-23T18:45:00",25.5,23.123663,0.162],
    [24469,"urn:WaterMeter:MC0203J22010600005","2024-06-23T19:00:00",25.399,23.07401,0.168],
    [24470,"urn:WaterMeter:MC0203J22010600005","2024-06-23T19:15:00",25.299,23.068153,0.161],
    [24471,"urn:WaterMeter:MC0203J22010600005","2024-06-23T19:30:00",25.2,23.061987,0.174],
    [24472,"urn:WaterMeter:MC0203J22010600005","2024-06-23T19:45:00",25.1,22.996042,0.162],
    [24473,"urn:WaterMeter:MC0203J22010600005","2024-06-23T20:00:00",25,23.003801,0.168],
    [24474,"urn:WaterMeter:MC0203J22010600005","2024-06-23T20:15:00",24.899,22.985569,0.162],
    [24475,"urn:WaterMeter:MC0203J22010600005","2024-06-23T20:30:00",24.799,22.990574,0.161],
    [24476,"urn:WaterMeter:MC0203J22010600005","2024-06-23T20:45:00",24.799,22.968115,0.171],
    [24477,"urn:WaterMeter:MC0203J22010600005","2024-06-23T21:00:00",24.7,22.910316,0.157],
    [24478,"urn:WaterMeter:MC0203J22010600005","2024-06-23T21:15:00",24.7,22.932777,0.165],
    [24479,"urn:WaterMeter:MC0203J22010600005","2024-06-23T21:30:00",24.6,22.872652,0.162],
    [24480,"urn:WaterMeter:MC0203J22010600005","2024-06-23T21:45:00",24.6,22.88394,0.16],
    [24481,"urn:WaterMeter:MC0203J22010600005","2024-06-23T22:00:00",24.5,22.838556,0.165],
    [24482,"urn:WaterMeter:MC0203J22010600005","2024-06-23T22:15:00",24.399,22.815243,0.158],
    [24483,"urn:WaterMeter:MC0203J22010600005","2024-06-23T22:30:00",24.399,22.798176,0.157],
    [24484,"urn:WaterMeter:MC0203J22010600005","2024-06-23T22:45:00",24.299,22.792784,0.166],
    [24485,"urn:WaterMeter:MC0203J22010600005","2024-06-23T23:00:00",24.299,22.810627,0.153],
    [24486,"urn:WaterMeter:MC0203J22010600005","2024-06-23T23:15:00",24.2,22.761364,0.166],
    [24487,"urn:WaterMeter:MC0203J22010600005","2024-06-23T23:30:00",24.2,22.80054,0.165],
    [24488,"urn:WaterMeter:MC0203J22010600005","2024-06-23T23:45:00",24.1,22.757833,0.16],
    [24489,"urn:WaterMeter:MC0203J22010600005","2024-06-24T00:00:00",24,22.77494,0.161],
    [24490,"urn:WaterMeter:MC0203J22010600005","2024-06-24T00:15:00",24,22.773388,0.161],
    [24491,"urn:WaterMeter:MC0203J22010600005","2024-06-24T00:30:00",23.899,22.713264,0.162],
    [24492,"urn:WaterMeter:MC0203J22010600005","2024-06-24T00:45:00",23.899,22.67909,0.161],
    [24493,"urn:WaterMeter:MC0203J22010600005","2024-06-24T01:00:00",23.799,22.709734,0.168],
    [24494,"urn:WaterMeter:MC0203J22010600005","2024-06-24T01:15:00",23.799,22.694645,0.158],
    [24495,"urn:WaterMeter:MC0203J22010600005","2024-06-24T01:30:00",23.7,22.661634,0.155],
    [24496,"urn:WaterMeter:MC0203J22010600005","2024-06-24T01:45:00",23.7,22.653915,0.156],
    [24497,"urn:WaterMeter:MC0203J22010600005","2024-06-24T02:00:00",23.6,22.667492,0.162],
    [24498,"urn:WaterMeter:MC0203J22010600005","2024-06-24T02:15:00",23.5,22.63103,0.166],
    [24499,"urn:WaterMeter:MC0203J22010600005","2024-06-24T02:30:00",23.399,22.614311,0.157],
    [24500,"urn:WaterMeter:MC0203J22010600005","2024-06-24T02:45:00",23.399,22.615902,0.157],
    [24501,"urn:WaterMeter:MC0203J22010600005","2024-06-24T03:00:00",23.299,22.593752,0.164],
    [24502,"urn:WaterMeter:MC0203J22010600005","2024-06-24T03:15:00",23.2,22.58099,0.158],
    [24503,"urn:WaterMeter:MC0203J22010600005","2024-06-24T03:30:00",23.2,22.578663,0.158],
    [24504,"urn:WaterMeter:MC0203J22010600005","2024-06-24T03:45:00",23.1,22.58642,0.153],
    [24505,"urn:WaterMeter:MC0203J22010600005","2024-06-24T04:00:00",23,22.58099,0.156],
    [24506,"urn:WaterMeter:MC0203J22010600005","2024-06-24T04:15:00",22.899,22.563496,0.153],
    [24507,"urn:WaterMeter:MC0203J22010600005","2024-06-24T04:30:00",22.899,22.546856,0.157],
    [24508,"urn:WaterMeter:MC0203J22010600005","2024-06-24T04:45:00",22.799,22.551897,0.154],
    [24509,"urn:WaterMeter:MC0203J22010600005","2024-06-24T05:00:00",22.799,22.519314,0.16],
    [24510,"urn:WaterMeter:MC0203J22010600005","2024-06-24T05:15:00",22.7,22.545265,0.168],
    [24511,"urn:WaterMeter:MC0203J22010600005","2024-06-24T05:30:00",22.6,22.49216,0.165],
    [24512,"urn:WaterMeter:MC0203J22010600005","2024-06-24T05:45:00",22.6,22.516949,0.153],
    [24513,"urn:WaterMeter:MC0203J22010600005","2024-06-24T06:00:00",22.6,22.546429,0.168],
    [24514,"urn:WaterMeter:MC0203J22010600005","2024-06-24T06:15:00",22.6,22.51078,0.154],
    [24515,"urn:WaterMeter:MC0203J22010600005","2024-06-24T06:30:00",22.6,22.460354,0.166],
    [24516,"urn:WaterMeter:MC0203J22010600005","2024-06-24T06:45:00",22.6,22.472378,0.157],
    [24517,"urn:WaterMeter:MC0203J22010600005","2024-06-24T07:00:00",22.7,22.428507,0.157],
    [24518,"urn:WaterMeter:MC0203J22010600005","2024-06-24T07:15:00",22.899,22.38894,0.161],
    [24519,"urn:WaterMeter:MC0203J22010600005","2024-06-24T07:30:00",23.1,22.388165,0.161],
    [24520,"urn:WaterMeter:MC0203J22010600005","2024-06-24T07:45:00",23.299,22.361012,0.15],
    [24521,"urn:WaterMeter:MC0203J22010600005","2024-06-24T08:00:00",23.5,22.31489,0.16],
    [24522,"urn:WaterMeter:MC0203J22010600005","2024-06-24T08:15:00",23.6,22.25593,0.155],
    [24523,"urn:WaterMeter:MC0203J22010600005","2024-06-24T08:30:00",23.7,22.264812,0.147],
    [24524,"urn:WaterMeter:MC0203J22010600005","2024-06-24T08:45:00",23.899,22.361788,0.149],
    [24525,"urn:WaterMeter:MC0203J22010600005","2024-06-24T09:00:00",24,23.101551,0.17],
    [24526,"urn:WaterMeter:MC0203J22010600005","2024-06-24T09:15:00",24.2,24.626776,0.206],
    [24527,"urn:WaterMeter:MC0203J22010600005","2024-06-24T09:30:00",24.399,25.88198,0.222],
    [24528,"urn:WaterMeter:MC0203J22010600005","2024-06-24T09:45:00",24.5,27.00848,0.218],
    [24529,"urn:WaterMeter:MC0203J22010600005","2024-06-24T10:00:00",24.6,27.659765,0.221],
    [24530,"urn:WaterMeter:MC0203J22010600005","2024-06-24T10:15:00",24.7,28.185757,0.221],
    [24531,"urn:WaterMeter:MC0203J22010600005","2024-06-24T10:30:00",24.899,28.55465,0.227],
    [24532,"urn:WaterMeter:MC0203J22010600005","2024-06-24T10:45:00",25.1,28.84092,0.229],
    [24533,"urn:WaterMeter:MC0203J22010600005","2024-06-24T11:00:00",25.2,29.06823,0.227],
    [24534,"urn:WaterMeter:MC0203J22010600005","2024-06-24T11:15:00",25.2,29.237316,0.232],
    [24535,"urn:WaterMeter:MC0203J22010600005","2024-06-24T11:30:00",25.299,29.348682,0.227],
    [24536,"urn:WaterMeter:MC0203J22010600005","2024-06-24T11:45:00",25.299,29.378937,0.234],
    [24537,"urn:WaterMeter:MC0203J22010600005","2024-06-24T12:00:00",25.5,29.441778,0.238],
    [24538,"urn:WaterMeter:MC0203J22010600005","2024-06-24T12:15:00",25.5,29.454191,0.24],
    [24539,"urn:WaterMeter:MC0203J22010600005","2024-06-24T12:30:00",25.5,29.478977,0.241],
    [24540,"urn:WaterMeter:MC0203J22010600005","2024-06-24T12:45:00",25.6,29.433632,0.234],
    [24541,"urn:WaterMeter:MC0203J22010600005","2024-06-24T13:00:00",25.7,29.427813,0.222],
    [24542,"urn:WaterMeter:MC0203J22010600005","2024-06-24T13:15:00",25.799,29.405315,0.24],
    [24543,"urn:WaterMeter:MC0203J22010600005","2024-06-24T13:30:00",25.799,29.410707,0.232],
    [24544,"urn:WaterMeter:MC0203J22010600005","2024-06-24T13:45:00",25.899,29.37506,0.222],
    [24545,"urn:WaterMeter:MC0203J22010600005","2024-06-24T14:00:00",25.899,29.318813,0.226],
    [24546,"urn:WaterMeter:MC0203J22010600005","2024-06-24T14:15:00",25.899,29.264894,0.235],
    [24547,"urn:WaterMeter:MC0203J22010600005","2024-06-24T14:30:00",25.899,29.242008,0.227],
    [24548,"urn:WaterMeter:MC0203J22010600005","2024-06-24T14:45:00",25.899,29.210588,0.24],
    [24549,"urn:WaterMeter:MC0203J22010600005","2024-06-24T15:00:00",25.899,29.169434,0.242],
    [24550,"urn:WaterMeter:MC0203J22010600005","2024-06-24T15:15:00",26,29.1365,0.229],
    [24551,"urn:WaterMeter:MC0203J22010600005","2024-06-24T15:30:00",26,29.122536,0.226],
    [24552,"urn:WaterMeter:MC0203J22010600005","2024-06-24T15:45:00",25.899,29.053062,0.226],
    [24553,"urn:WaterMeter:MC0203J22010600005","2024-06-24T16:00:00",25.899,28.99802,0.231],
    [24554,"urn:WaterMeter:MC0203J22010600005","2024-06-24T16:15:00",25.899,29.023195,0.224],
    [24555,"urn:WaterMeter:MC0203J22010600005","2024-06-24T16:30:00",25.899,28.963457,0.227],
    [24556,"urn:WaterMeter:MC0203J22010600005","2024-06-24T16:45:00",25.799,28.897514,0.224],
    [24557,"urn:WaterMeter:MC0203J22010600005","2024-06-24T17:00:00",25.799,28.89639,0.23],
    [24558,"urn:WaterMeter:MC0203J22010600005","2024-06-24T17:15:00",25.799,28.876995,0.238],
    [24559,"urn:WaterMeter:MC0203J22010600005","2024-06-24T17:30:00",25.7,28.799026,0.232],
    [24560,"urn:WaterMeter:MC0203J22010600005","2024-06-24T17:45:00",25.7,28.771835,0.231],
    [24561,"urn:WaterMeter:MC0203J22010600005","2024-06-24T18:00:00",25.6,28.762138,0.241],
    [24562,"urn:WaterMeter:MC0203J22010600005","2024-06-24T18:15:00",25.6,28.758686,0.222],
    [24563,"urn:WaterMeter:MC0203J22010600005","2024-06-24T18:30:00",25.5,28.733046,0.244],
    [24564,"urn:WaterMeter:MC0203J22010600005","2024-06-24T18:45:00",25.399,28.678778,0.214],
    [24565,"urn:WaterMeter:MC0203J22010600005","2024-06-24T19:00:00",25.299,28.655077,0.235],
    [24566,"urn:WaterMeter:MC0203J22010600005","2024-06-24T19:15:00",25.299,28.65085,0.221],
    [24567,"urn:WaterMeter:MC0203J22010600005","2024-06-24T19:30:00",25.2,28.6396,0.226],
    [24568,"urn:WaterMeter:MC0203J22010600005","2024-06-24T19:45:00",25.1,28.665977,0.22],
    [24569,"urn:WaterMeter:MC0203J22010600005","2024-06-24T20:00:00",25,28.630678,0.221],
    [24570,"urn:WaterMeter:MC0203J22010600005","2024-06-24T20:15:00",25,28.64154,0.227],
    [24571,"urn:WaterMeter:MC0203J22010600005","2024-06-24T20:30:00",24.899,28.630291,0.226],
    [24572,"urn:WaterMeter:MC0203J22010600005","2024-06-24T20:45:00",24.799,28.605078,0.22],
    [24573,"urn:WaterMeter:MC0203J22010600005","2024-06-24T21:00:00",24.799,28.575558,0.23],
    [24574,"urn:WaterMeter:MC0203J22010600005","2024-06-24T21:15:00",24.7,28.571718,0.221],
    [24575,"urn:WaterMeter:MC0203J22010600005","2024-06-24T21:30:00",24.7,28.619041,0.219],
    [24576,"urn:WaterMeter:MC0203J22010600005","2024-06-24T21:45:00",24.6,28.598095,0.228],
    [24577,"urn:WaterMeter:MC0203J22010600005","2024-06-24T22:00:00",24.5,28.569002,0.222],
    [24578,"urn:WaterMeter:MC0203J22010600005","2024-06-24T22:15:00",24.5,28.567411,0.232],
    [24579,"urn:WaterMeter:MC0203J22010600005","2024-06-24T22:30:00",24.399,28.529398,0.226],
    [24580,"urn:WaterMeter:MC0203J22010600005","2024-06-24T22:45:00",24.399,28.526333,0.221],
    [24581,"urn:WaterMeter:MC0203J22010600005","2024-06-24T23:00:00",24.299,28.526333,0.22],
    [24582,"urn:WaterMeter:MC0203J22010600005","2024-06-24T23:15:00",24.299,28.543789,0.234],
    [24583,"urn:WaterMeter:MC0203J22010600005","2024-06-24T23:30:00",24.299,28.527885,0.223],
    [24584,"urn:WaterMeter:MC0203J22010600005","2024-06-24T23:45:00",24.2,28.498365,0.22],
    [24585,"urn:WaterMeter:MC0203J22010600005","2024-06-25T00:00:00",24.2,28.507715,0.232],
    [24586,"urn:WaterMeter:MC0203J22010600005","2024-06-25T00:15:00",24.1,28.491423,0.224],
    [24587,"urn:WaterMeter:MC0203J22010600005","2024-06-25T00:30:00",24.1,28.517372,0.218],
    [24588,"urn:WaterMeter:MC0203J22010600005","2024-06-25T00:45:00",24,28.497591,0.238],
    [24589,"urn:WaterMeter:MC0203J22010600005","2024-06-25T01:00:00",24,28.514696,0.223],
    [24590,"urn:WaterMeter:MC0203J22010600005","2024-06-25T01:15:00",23.899,28.46776,0.229],
    [24591,"urn:WaterMeter:MC0203J22010600005","2024-06-25T01:30:00",23.899,28.439405,0.23],
    [24592,"urn:WaterMeter:MC0203J22010600005","2024-06-25T01:45:00",23.799,28.44212,0.232],
    [24593,"urn:WaterMeter:MC0203J22010600005","2024-06-25T02:00:00",23.799,28.42509,0.227],
    [24594,"urn:WaterMeter:MC0203J22010600005","2024-06-25T02:15:00",23.799,28.417334,0.215],
    [24595,"urn:WaterMeter:MC0203J22010600005","2024-06-25T02:30:00",23.7,28.42548,0.237],
    [24596,"urn:WaterMeter:MC0203J22010600005","2024-06-25T02:45:00",23.6,28.415783,0.223],
    [24597,"urn:WaterMeter:MC0203J22010600005","2024-06-25T03:00:00",23.6,28.43091,0.22],
    [24598,"urn:WaterMeter:MC0203J22010600005","2024-06-25T03:15:00",23.5,28.401003,0.225],
    [24599,"urn:WaterMeter:MC0203J22010600005","2024-06-25T03:30:00",23.5,28.405308,0.217],
    [24600,"urn:WaterMeter:MC0203J22010600005","2024-06-25T03:45:00",23.399,28.368458,0.224],
    [24601,"urn:WaterMeter:MC0203J22010600005","2024-06-25T04:00:00",23.299,28.386301,0.228],
    [24602,"urn:WaterMeter:MC0203J22010600005","2024-06-25T04:15:00",23.299,28.372337,0.217],
    [24603,"urn:WaterMeter:MC0203J22010600005","2024-06-25T04:30:00",23.2,28.41423,0.215],
    [24604,"urn:WaterMeter:MC0203J22010600005","2024-06-25T04:45:00",23.1,28.38316,0.223],
    [24605,"urn:WaterMeter:MC0203J22010600005","2024-06-25T05:00:00",23.1,28.404144,0.225],
    [24606,"urn:WaterMeter:MC0203J22010600005","2024-06-25T05:15:00",23,28.399103,0.224],
    [24607,"urn:WaterMeter:MC0203J22010600005","2024-06-25T05:30:00",23,28.38863,0.223],
    [24608,"urn:WaterMeter:MC0203J22010600005","2024-06-25T05:45:00",23,28.361826,0.225],
    [24609,"urn:WaterMeter:MC0203J22010600005","2024-06-25T06:00:00",23,28.35368,0.216],
    [24610,"urn:WaterMeter:MC0203J22010600005","2024-06-25T06:15:00",23,28.326565,0.226],
    [24611,"urn:WaterMeter:MC0203J22010600005","2024-06-25T06:30:00",23,28.343206,0.239],
    [24612,"urn:WaterMeter:MC0203J22010600005","2024-06-25T06:45:00",23.1,28.294758,0.217],
    [24613,"urn:WaterMeter:MC0203J22010600005","2024-06-25T07:00:00",23.2,28.306355,0.227],
    [24614,"urn:WaterMeter:MC0203J22010600005","2024-06-25T07:15:00",23.299,28.282345,0.218],
    [24615,"urn:WaterMeter:MC0203J22010600005","2024-06-25T07:30:00",23.399,28.267178,0.192],
    [24616,"urn:WaterMeter:MC0203J22010600005","2024-06-25T07:45:00",23.399,28.208992,0.216],
    [24617,"urn:WaterMeter:MC0203J22010600005","2024-06-25T08:00:00",23.5,28.175283,0.237],
    [24618,"urn:WaterMeter:MC0203J22010600005","2024-06-25T08:15:00",23.6,28.126797,0.228],
    [24619,"urn:WaterMeter:MC0203J22010600005","2024-06-25T08:30:00",23.7,28.1171,0.208],
    [24620,"urn:WaterMeter:MC0203J22010600005","2024-06-25T08:45:00",23.799,28.062405,0.215],
    [24621,"urn:WaterMeter:MC0203J22010600005","2024-06-25T09:00:00",23.899,28.065508,0.208],
    [24622,"urn:WaterMeter:MC0203J22010600005","2024-06-25T09:15:00",24.1,28.010426,0.223],
    [24623,"urn:WaterMeter:MC0203J22010600005","2024-06-25T09:30:00",24.2,27.974314,0.213],
    [24624,"urn:WaterMeter:MC0203J22010600005","2024-06-25T09:45:00",24.399,27.932846,0.221],
    [24625,"urn:WaterMeter:MC0203J22010600005","2024-06-25T10:00:00",24.5,27.833544,0.228],
    [24626,"urn:WaterMeter:MC0203J22010600005","2024-06-25T10:15:00",24.7,27.81376,0.205],
    [24627,"urn:WaterMeter:MC0203J22010600005","2024-06-25T10:30:00",24.799,27.724894,0.207],
    [24628,"urn:WaterMeter:MC0203J22010600005","2024-06-25T10:45:00",25,27.657825,0.215],
    [24629,"urn:WaterMeter:MC0203J22010600005","2024-06-25T11:00:00",25.1,27.622526,0.207],
    [24630,"urn:WaterMeter:MC0203J22010600005","2024-06-25T11:15:00",25.2,27.547623,0.204],
    [24631,"urn:WaterMeter:MC0203J22010600005","2024-06-25T11:30:00",25.299,27.473574,0.199],
    [24632,"urn:WaterMeter:MC0203J22010600005","2024-06-25T11:45:00",25.399,27.418102,0.213],
    [24633,"urn:WaterMeter:MC0203J22010600005","2024-06-25T12:00:00",25.5,27.353285,0.206],
    [24634,"urn:WaterMeter:MC0203J22010600005","2024-06-25T12:15:00",25.6,27.313759,0.2],
    [24635,"urn:WaterMeter:MC0203J22010600005","2024-06-25T12:30:00",25.7,27.171747,0.21],
    [24636,"urn:WaterMeter:MC0203J22010600005","2024-06-25T12:45:00",25.799,27.139553,0.218],
    [24637,"urn:WaterMeter:MC0203J22010600005","2024-06-25T13:00:00",25.899,27.10115,0.196],
    [24638,"urn:WaterMeter:MC0203J22010600005","2024-06-25T13:15:00",26,26.996805,0.213],
    [24639,"urn:WaterMeter:MC0203J22010600005","2024-06-25T13:30:00",26.1,26.89793,0.205],
    [24640,"urn:WaterMeter:MC0203J22010600005","2024-06-25T13:45:00",26.2,26.869186,0.193],
    [24641,"urn:WaterMeter:MC0203J22010600005","2024-06-25T14:00:00",26.2,26.794748,0.203],
    [24642,"urn:WaterMeter:MC0203J22010600005","2024-06-25T14:15:00",26.299,26.704367,0.203],
    [24643,"urn:WaterMeter:MC0203J22010600005","2024-06-25T14:30:00",26.299,26.62601,0.208],
    [24644,"urn:WaterMeter:MC0203J22010600005","2024-06-25T14:45:00",26.399,26.581015,0.214],
    [24645,"urn:WaterMeter:MC0203J22010600005","2024-06-25T15:00:00",26.399,26.498005,0.193],
    [24646,"urn:WaterMeter:MC0203J22010600005","2024-06-25T15:15:00",26.399,26.44525,0.22],
    [24647,"urn:WaterMeter:MC0203J22010600005","2024-06-25T15:30:00",26.399,26.346296,0.196],
    [24648,"urn:WaterMeter:MC0203J22010600005","2024-06-25T15:45:00",26.399,26.278803,0.197],
    [24649,"urn:WaterMeter:MC0203J22010600005","2024-06-25T16:00:00",26.399,26.204752,0.209],
    [24650,"urn:WaterMeter:MC0203J22010600005","2024-06-25T16:15:00",26.399,26.151182,0.206],
    [24651,"urn:WaterMeter:MC0203J22010600005","2024-06-25T16:30:00",26.399,26.113169,0.192],
    [24652,"urn:WaterMeter:MC0203J22010600005","2024-06-25T16:45:00",26.399,26.062393,0.204],
    [24653,"urn:WaterMeter:MC0203J22010600005","2024-06-25T17:00:00",26.299,25.978567,0.207],
    [24654,"urn:WaterMeter:MC0203J22010600005","2024-06-25T17:15:00",26.299,25.913828,0.202],
    [24655,"urn:WaterMeter:MC0203J22010600005","2024-06-25T17:30:00",26.2,25.928955,0.199],
    [24656,"urn:WaterMeter:MC0203J22010600005","2024-06-25T17:45:00",26.2,25.852888,0.192],
    [24657,"urn:WaterMeter:MC0203J22010600005","2024-06-25T18:00:00",26,25.80832,0.192],
    [24658,"urn:WaterMeter:MC0203J22010600005","2024-06-25T18:15:00",26,25.775309,0.192],
    [24659,"urn:WaterMeter:MC0203J22010600005","2024-06-25T18:30:00",25.899,25.702421,0.189],
    [24660,"urn:WaterMeter:MC0203J22010600005","2024-06-25T18:45:00",25.799,25.639544,0.198],
    [24661,"urn:WaterMeter:MC0203J22010600005","2024-06-25T19:00:00",25.7,25.664795,0.188],
    [24662,"urn:WaterMeter:MC0203J22010600005","2024-06-25T19:15:00",25.6,25.620148,0.188],
    [24663,"urn:WaterMeter:MC0203J22010600005","2024-06-25T19:30:00",25.5,25.588728,0.192],
    [24664,"urn:WaterMeter:MC0203J22010600005","2024-06-25T19:45:00",25.399,25.572048,0.189],
    [24665,"urn:WaterMeter:MC0203J22010600005","2024-06-25T20:00:00",25.299,25.53446,0.196],
    [24666,"urn:WaterMeter:MC0203J22010600005","2024-06-25T20:15:00",25.2,25.502266,0.192],
    [24667,"urn:WaterMeter:MC0203J22010600005","2024-06-25T20:30:00",25.2,25.51817,0.189],
    [24668,"urn:WaterMeter:MC0203J22010600005","2024-06-25T20:45:00",25.1,25.469294,0.186],
    [24669,"urn:WaterMeter:MC0203J22010600005","2024-06-25T21:00:00",25.1,25.432793,0.192],
    [24670,"urn:WaterMeter:MC0203J22010600005","2024-06-25T21:15:00",25,25.484772,0.191],
    [24671,"urn:WaterMeter:MC0203J22010600005","2024-06-25T21:30:00",24.899,25.419254,0.187],
    [24672,"urn:WaterMeter:MC0203J22010600005","2024-06-25T21:45:00",24.899,25.4274,0.198],
    [24673,"urn:WaterMeter:MC0203J22010600005","2024-06-25T22:00:00",24.799,25.42581,0.194],
    [24674,"urn:WaterMeter:MC0203J22010600005","2024-06-25T22:15:00",24.799,25.378525,0.194],
    [24675,"urn:WaterMeter:MC0203J22010600005","2024-06-25T22:30:00",24.7,25.38861,0.186],
    [24676,"urn:WaterMeter:MC0203J22010600005","2024-06-25T22:45:00",24.6,25.398308,0.197],
    [24677,"urn:WaterMeter:MC0203J22010600005","2024-06-25T23:00:00",24.6,25.336205,0.186],
    [24678,"urn:WaterMeter:MC0203J22010600005","2024-06-25T23:15:00",24.5,25.386633,0.195],
    [24679,"urn:WaterMeter:MC0203J22010600005","2024-06-25T23:30:00",24.399,25.321505,0.188],
    [24680,"urn:WaterMeter:MC0203J22010600005","2024-06-25T23:45:00",24.399,25.342451,0.186],
    [24681,"urn:WaterMeter:MC0203J22010600005","2024-06-26T00:00:00",24.299,25.333141,0.195],
    [24682,"urn:WaterMeter:MC0203J22010600005","2024-06-26T00:15:00",24.2,25.331202,0.195],
    [24683,"urn:WaterMeter:MC0203J22010600005","2024-06-26T00:30:00",24.2,25.291248,0.197],
    [24684,"urn:WaterMeter:MC0203J22010600005","2024-06-26T00:45:00",24.1,25.273016,0.188],
    [24685,"urn:WaterMeter:MC0203J22010600005","2024-06-26T01:00:00",24.1,25.295126,0.189],
    [24686,"urn:WaterMeter:MC0203J22010600005","2024-06-26T01:15:00",24,25.258625,0.186],
    [24687,"urn:WaterMeter:MC0203J22010600005","2024-06-26T01:30:00",23.899,25.273792,0.192],
    [24688,"urn:WaterMeter:MC0203J22010600005","2024-06-26T01:45:00",23.899,25.262543,0.193],
    [24689,"urn:WaterMeter:MC0203J22010600005","2024-06-26T02:00:00",23.799,25.205133,0.184],
    [24690,"urn:WaterMeter:MC0203J22010600005","2024-06-26T02:15:00",23.7,25.258625,0.19],
    [24691,"urn:WaterMeter:MC0203J22010600005","2024-06-26T02:30:00",23.7,25.24276,0.182],
    [24692,"urn:WaterMeter:MC0203J22010600005","2024-06-26T02:45:00",23.6,25.226856,0.184],
    [24693,"urn:WaterMeter:MC0203J22010600005","2024-06-26T03:00:00",23.5,25.247026,0.183],
    [24694,"urn:WaterMeter:MC0203J22010600005","2024-06-26T03:15:00",23.399,25.199703,0.188],
    [24695,"urn:WaterMeter:MC0203J22010600005","2024-06-26T03:30:00",23.399,25.177204,0.184],
    [24696,"urn:WaterMeter:MC0203J22010600005","2024-06-26T03:45:00",23.299,25.222939,0.182],
    [24697,"urn:WaterMeter:MC0203J22010600005","2024-06-26T04:00:00",23.299,25.206686,0.184],
    [24698,"urn:WaterMeter:MC0203J22010600005","2024-06-26T04:15:00",23.2,25.207073,0.192],
    [24699,"urn:WaterMeter:MC0203J22010600005","2024-06-26T04:30:00",23.1,25.184963,0.187],
    [24700,"urn:WaterMeter:MC0203J22010600005","2024-06-26T04:45:00",23,25.170998,0.182],
    [24701,"urn:WaterMeter:MC0203J22010600005","2024-06-26T05:00:00",23,25.146173,0.194],
    [24702,"urn:WaterMeter:MC0203J22010600005","2024-06-26T05:15:00",23,25.17643,0.202],
    [24703,"urn:WaterMeter:MC0203J22010600005","2024-06-26T05:30:00",22.899,25.156647,0.183],
    [24704,"urn:WaterMeter:MC0203J22010600005","2024-06-26T05:45:00",22.799,25.162813,0.183],
    [24705,"urn:WaterMeter:MC0203J22010600005","2024-06-26T06:00:00",22.799,25.162813,0.183],
    [24706,"urn:WaterMeter:MC0203J22010600005","2024-06-26T06:15:00",22.799,25.08562,0.184],
    [24707,"urn:WaterMeter:MC0203J22010600005","2024-06-26T06:30:00",22.799,25.055792,0.182],
    [24708,"urn:WaterMeter:MC0203J22010600005","2024-06-26T06:45:00",22.899,25.105017,0.177],
    [24709,"urn:WaterMeter:MC0203J22010600005","2024-06-26T07:00:00",22.899,25.078678,0.183],
    [24710,"urn:WaterMeter:MC0203J22010600005","2024-06-26T07:15:00",23.1,25.00649,0.182],
    [24711,"urn:WaterMeter:MC0203J22010600005","2024-06-26T07:30:00",23.2,25.040276,0.183],
    [24712,"urn:WaterMeter:MC0203J22010600005","2024-06-26T07:45:00",23.299,24.981703,0.181],
    [24713,"urn:WaterMeter:MC0203J22010600005","2024-06-26T08:00:00",23.399,24.953386,0.175],
    [24714,"urn:WaterMeter:MC0203J22010600005","2024-06-26T08:15:00",23.5,24.878521,0.174],
    [24715,"urn:WaterMeter:MC0203J22010600005","2024-06-26T08:30:00",23.6,25.010408,0.183],
    [24716,"urn:WaterMeter:MC0203J22010600005","2024-06-26T08:45:00",23.7,26.198158,0.23],
    [24717,"urn:WaterMeter:MC0203J22010600005","2024-06-26T09:00:00",23.799,28.005733,0.245],
    [24718,"urn:WaterMeter:MC0203J22010600005","2024-06-26T09:15:00",23.899,29.164818,0.24],
    [24719,"urn:WaterMeter:MC0203J22010600005","2024-06-26T09:30:00",24,29.764122,0.242],
    [24720,"urn:WaterMeter:MC0203J22010600005","2024-06-26T09:45:00",24.1,30.077158,0.24],
    [24721,"urn:WaterMeter:MC0203J22010600005","2024-06-26T10:00:00",24.2,30.17646,0.256],
    [24722,"urn:WaterMeter:MC0203J22010600005","2024-06-26T10:15:00",24.299,30.22068,0.246],
    [24723,"urn:WaterMeter:MC0203J22010600005","2024-06-26T10:30:00",24.399,30.253263,0.255],
    [24724,"urn:WaterMeter:MC0203J22010600005","2024-06-26T10:45:00",24.6,30.243916,0.248],
    [24725,"urn:WaterMeter:MC0203J22010600005","2024-06-26T11:00:00",24.799,30.245468,0.269],
    [24726,"urn:WaterMeter:MC0203J22010600005","2024-06-26T11:15:00",24.899,30.236158,0.247],
    [24727,"urn:WaterMeter:MC0203J22010600005","2024-06-26T11:30:00",25,30.209044,0.244],
    [24728,"urn:WaterMeter:MC0203J22010600005","2024-06-26T11:45:00",25.1,30.17646,0.258],
    [24729,"urn:WaterMeter:MC0203J22010600005","2024-06-26T12:00:00",25.1,30.136894,0.241],
    [24730,"urn:WaterMeter:MC0203J22010600005","2024-06-26T12:15:00",25.2,30.10625,0.251],
    [24731,"urn:WaterMeter:MC0203J22010600005","2024-06-26T12:30:00",25.2,30.066296,0.24],
    [24732,"urn:WaterMeter:MC0203J22010600005","2024-06-26T12:45:00",25.399,30.03798,0.255],
    [24733,"urn:WaterMeter:MC0203J22010600005","2024-06-26T13:00:00",25.5,30.015482,0.253],
    [24734,"urn:WaterMeter:MC0203J22010600005","2024-06-26T13:15:00",25.6,29.963465,0.243],
    [24735,"urn:WaterMeter:MC0203J22010600005","2024-06-26T13:30:00",25.7,29.896746,0.243],
    [24736,"urn:WaterMeter:MC0203J22010600005","2024-06-26T13:45:00",25.7,29.86226,0.236],
    [24737,"urn:WaterMeter:MC0203J22010600005","2024-06-26T14:00:00",25.799,29.858343,0.251],
    [24738,"urn:WaterMeter:MC0203J22010600005","2024-06-26T14:15:00",25.799,29.739645,0.239],
    [24739,"urn:WaterMeter:MC0203J22010600005","2024-06-26T14:30:00",25.899,29.714472,0.243],
    [24740,"urn:WaterMeter:MC0203J22010600005","2024-06-26T14:45:00",25.899,29.654308,0.233],
    [24741,"urn:WaterMeter:MC0203J22010600005","2024-06-26T15:00:00",25.899,29.609737,0.246],
    [24742,"urn:WaterMeter:MC0203J22010600005","2024-06-26T15:15:00",25.899,29.550001,0.245],
    [24743,"urn:WaterMeter:MC0203J22010600005","2024-06-26T15:30:00",25.899,29.517767,0.243],
    [24744,"urn:WaterMeter:MC0203J22010600005","2024-06-26T15:45:00",25.899,29.429714,0.24],
    [24745,"urn:WaterMeter:MC0203J22010600005","2024-06-26T16:00:00",25.899,29.413849,0.241],
    [24746,"urn:WaterMeter:MC0203J22010600005","2024-06-26T16:15:00",25.899,29.371916,0.245],
    [24747,"urn:WaterMeter:MC0203J22010600005","2024-06-26T16:30:00",25.899,29.347517,0.24],
    [24748,"urn:WaterMeter:MC0203J22010600005","2024-06-26T16:45:00",25.799,29.254383,0.24],
    [24749,"urn:WaterMeter:MC0203J22010600005","2024-06-26T17:00:00",25.799,29.239294,0.254],
    [24750,"urn:WaterMeter:MC0203J22010600005","2024-06-26T17:15:00",25.7,29.212141,0.229],
    [24751,"urn:WaterMeter:MC0203J22010600005","2024-06-26T17:30:00",25.6,29.183825,0.232],
    [24752,"urn:WaterMeter:MC0203J22010600005","2024-06-26T17:45:00",25.6,29.142706,0.236],
    [24753,"urn:WaterMeter:MC0203J22010600005","2024-06-26T18:00:00",25.5,29.128742,0.245],
    [24754,"urn:WaterMeter:MC0203J22010600005","2024-06-26T18:15:00",25.5,29.078316,0.238],
    [24755,"urn:WaterMeter:MC0203J22010600005","2024-06-26T18:30:00",25.5,29.089563,0.249],
    [24756,"urn:WaterMeter:MC0203J22010600005","2024-06-26T18:45:00",25.399,29.058144,0.242],
    [24757,"urn:WaterMeter:MC0203J22010600005","2024-06-26T19:00:00",25.399,29.040262,0.245],
    [24758,"urn:WaterMeter:MC0203J22010600005","2024-06-26T19:15:00",25.299,29.050774,0.251],
    [24759,"urn:WaterMeter:MC0203J22010600005","2024-06-26T19:30:00",25.2,29.041039,0.234],
    [24760,"urn:WaterMeter:MC0203J22010600005","2024-06-26T19:45:00",25.2,28.992977,0.244],
    [24761,"urn:WaterMeter:MC0203J22010600005","2024-06-26T20:00:00",25.1,28.998407,0.233],
    [24762,"urn:WaterMeter:MC0203J22010600005","2024-06-26T20:15:00",25,28.987158,0.231],
    [24763,"urn:WaterMeter:MC0203J22010600005","2024-06-26T20:30:00",24.899,28.984016,0.24],
    [24764,"urn:WaterMeter:MC0203J22010600005","2024-06-26T20:45:00",24.799,28.99259,0.247],
    [24765,"urn:WaterMeter:MC0203J22010600005","2024-06-26T21:00:00",24.799,28.92781,0.244],
    [24766,"urn:WaterMeter:MC0203J22010600005","2024-06-26T21:15:00",24.7,28.984793,0.243],
    [24767,"urn:WaterMeter:MC0203J22010600005","2024-06-26T21:30:00",24.6,28.925056,0.245],
    [24768,"urn:WaterMeter:MC0203J22010600005","2024-06-26T21:45:00",24.6,28.90376,0.233],
    [24769,"urn:WaterMeter:MC0203J22010600005","2024-06-26T22:00:00",24.5,28.890572,0.24],
    [24770,"urn:WaterMeter:MC0203J22010600005","2024-06-26T22:15:00",24.399,28.891348,0.231],
    [24771,"urn:WaterMeter:MC0203J22010600005","2024-06-26T22:30:00",24.399,28.887041,0.232],
    [24772,"urn:WaterMeter:MC0203J22010600005","2024-06-26T22:45:00",24.299,28.912294,0.227],
    [24773,"urn:WaterMeter:MC0203J22010600005","2024-06-26T23:00:00",24.299,28.893288,0.239],
    [24774,"urn:WaterMeter:MC0203J22010600005","2024-06-26T23:15:00",24.2,28.855272,0.225],
    [24775,"urn:WaterMeter:MC0203J22010600005","2024-06-26T23:30:00",24.1,28.878508,0.227],
    [24776,"urn:WaterMeter:MC0203J22010600005","2024-06-26T23:45:00",24.1,28.876219,0.23],
    [24777,"urn:WaterMeter:MC0203J22010600005","2024-06-27T00:00:00",24,28.8595,0.236],
    [24778,"urn:WaterMeter:MC0203J22010600005","2024-06-27T00:15:00",24,28.857948,0.233],
    [24779,"urn:WaterMeter:MC0203J22010600005","2024-06-27T00:30:00",23.899,28.824629,0.24],
    [24780,"urn:WaterMeter:MC0203J22010600005","2024-06-27T00:45:00",23.799,28.817259,0.236],
    [24781,"urn:WaterMeter:MC0203J22010600005","2024-06-27T01:00:00",23.7,28.828468,0.25],
    [24782,"urn:WaterMeter:MC0203J22010600005","2024-06-27T01:15:00",23.6,28.806786,0.225],
    [24783,"urn:WaterMeter:MC0203J22010600005","2024-06-27T01:30:00",23.7,28.812603,0.241],
    [24784,"urn:WaterMeter:MC0203J22010600005","2024-06-27T01:45:00",23.6,28.777693,0.239],
    [24785,"urn:WaterMeter:MC0203J22010600005","2024-06-27T02:00:00",23.6,28.808685,0.242],
    [24786,"urn:WaterMeter:MC0203J22010600005","2024-06-27T02:15:00",23.6,28.784676,0.231],
    [24787,"urn:WaterMeter:MC0203J22010600005","2024-06-27T02:30:00",23.5,28.781532,0.229],
    [24788,"urn:WaterMeter:MC0203J22010600005","2024-06-27T02:45:00",23.5,28.771835,0.237],
    [24789,"urn:WaterMeter:MC0203J22010600005","2024-06-27T03:00:00",23.399,28.757133,0.234],
    [24790,"urn:WaterMeter:MC0203J22010600005","2024-06-27T03:15:00",23.299,28.750502,0.241],
    [24791,"urn:WaterMeter:MC0203J22010600005","2024-06-27T03:30:00",23.299,28.721834,0.236],
    [24792,"urn:WaterMeter:MC0203J22010600005","2024-06-27T03:45:00",23.299,28.7358,0.232],
    [24793,"urn:WaterMeter:MC0203J22010600005","2024-06-27T04:00:00",23.1,28.68227,0.239],
    [24794,"urn:WaterMeter:MC0203J22010600005","2024-06-27T04:15:00",23.1,28.700888,0.226],
    [24795,"urn:WaterMeter:MC0203J22010600005","2024-06-27T04:30:00",23,28.693092,0.231],
    [24796,"urn:WaterMeter:MC0203J22010600005","2024-06-27T04:45:00",23,28.653137,0.245],
    [24797,"urn:WaterMeter:MC0203J22010600005","2024-06-27T05:00:00",23,28.63413,0.225],
    [24798,"urn:WaterMeter:MC0203J22010600005","2024-06-27T05:15:00",23,28.678003,0.229],
    [24799,"urn:WaterMeter:MC0203J22010600005","2024-06-27T05:30:00",23,28.657055,0.238],
    [24800,"urn:WaterMeter:MC0203J22010600005","2024-06-27T05:45:00",23.1,28.595728,0.232],
    [24801,"urn:WaterMeter:MC0203J22010600005","2024-06-27T06:00:00",23.1,28.599648,0.231],
    [24802,"urn:WaterMeter:MC0203J22010600005","2024-06-27T06:15:00",23.2,28.591112,0.235],
    [24803,"urn:WaterMeter:MC0203J22010600005","2024-06-27T06:30:00",23.2,28.547628,0.23],
    [24804,"urn:WaterMeter:MC0203J22010600005","2024-06-27T06:45:00",23.2,28.548018,0.23],
    [24805,"urn:WaterMeter:MC0203J22010600005","2024-06-27T07:00:00",23.299,28.503836,0.219],
    [24806,"urn:WaterMeter:MC0203J22010600005","2024-06-27T07:15:00",23.399,28.44953,0.229],
    [24807,"urn:WaterMeter:MC0203J22010600005","2024-06-27T07:30:00",23.5,28.428583,0.237],
    [24808,"urn:WaterMeter:MC0203J22010600005","2024-06-27T07:45:00",23.6,28.376991,0.224],
    [24809,"urn:WaterMeter:MC0203J22010600005","2024-06-27T08:00:00",23.7,28.347124,0.223],
    [24810,"urn:WaterMeter:MC0203J22010600005","2024-06-27T08:15:00",23.799,28.32928,0.23],
    [24811,"urn:WaterMeter:MC0203J22010600005","2024-06-27T08:30:00",23.899,28.301352,0.234],
    [24812,"urn:WaterMeter:MC0203J22010600005","2024-06-27T08:45:00",24,28.242002,0.218],
    [24813,"urn:WaterMeter:MC0203J22010600005","2024-06-27T09:00:00",24.2,28.19817,0.228],
    [24814,"urn:WaterMeter:MC0203J22010600005","2024-06-27T09:15:00",24.299,28.123693,0.222],
    [24815,"urn:WaterMeter:MC0203J22010600005","2024-06-27T09:30:00",24.299,28.10003,0.218],
    [24816,"urn:WaterMeter:MC0203J22010600005","2024-06-27T09:45:00",24.399,28.053444,0.223],
    [24817,"urn:WaterMeter:MC0203J22010600005","2024-06-27T10:00:00",24.6,27.99332,0.214],
    [24818,"urn:WaterMeter:MC0203J22010600005","2024-06-27T10:15:00",24.7,27.922373,0.225],
    [24819,"urn:WaterMeter:MC0203J22010600005","2024-06-27T10:30:00",24.899,27.889751,0.234],
    [24820,"urn:WaterMeter:MC0203J22010600005","2024-06-27T10:45:00",25,27.78816,0.217],
    [24821,"urn:WaterMeter:MC0203J22010600005","2024-06-27T11:00:00",25.2,27.739672,0.215],
    [24822,"urn:WaterMeter:MC0203J22010600005","2024-06-27T11:15:00",25.299,27.653946,0.209],
    [24823,"urn:WaterMeter:MC0203J22010600005","2024-06-27T11:30:00",25.399,27.615932,0.215],
    [24824,"urn:WaterMeter:MC0203J22010600005","2024-06-27T11:45:00",25.5,27.545723,0.213],
    [24825,"urn:WaterMeter:MC0203J22010600005","2024-06-27T12:00:00",25.6,27.459608,0.239],
    [24826,"urn:WaterMeter:MC0203J22010600005","2024-06-27T12:15:00",25.7,27.37268,0.229],
    [24827,"urn:WaterMeter:MC0203J22010600005","2024-06-27T12:30:00",25.799,27.3413,0.222],
    [24828,"urn:WaterMeter:MC0203J22010600005","2024-06-27T12:45:00",25.899,27.21562,0.21],
    [24829,"urn:WaterMeter:MC0203J22010600005","2024-06-27T13:00:00",26,27.154331,0.208],
    [24830,"urn:WaterMeter:MC0203J22010600005","2024-06-27T13:15:00",26.1,27.096146,0.211],
    [24831,"urn:WaterMeter:MC0203J22010600005","2024-06-27T13:30:00",26.2,27.05499,0.207],
    [24832,"urn:WaterMeter:MC0203J22010600005","2024-06-27T13:45:00",26.2,26.941763,0.206],
    [24833,"urn:WaterMeter:MC0203J22010600005","2024-06-27T14:00:00",26.299,26.86996,0.21],
    [24834,"urn:WaterMeter:MC0203J22010600005","2024-06-27T14:15:00",26.299,26.788542,0.226],
    [24835,"urn:WaterMeter:MC0203J22010600005","2024-06-27T14:30:00",26.399,26.734198,0.209],
    [24836,"urn:WaterMeter:MC0203J22010600005","2024-06-27T14:45:00",26.399,26.686872,0.21],
    [24837,"urn:WaterMeter:MC0203J22010600005","2024-06-27T15:00:00",26.5,26.629503,0.212],
    [24838,"urn:WaterMeter:MC0203J22010600005","2024-06-27T15:15:00",26.5,26.555414,0.205],
    [24839,"urn:WaterMeter:MC0203J22010600005","2024-06-27T15:30:00",26.5,26.494125,0.218],
    [24840,"urn:WaterMeter:MC0203J22010600005","2024-06-27T15:45:00",26.5,26.404482,0.204],
    [24841,"urn:WaterMeter:MC0203J22010600005","2024-06-27T16:00:00",26.5,26.37504,0.202],
    [24842,"urn:WaterMeter:MC0203J22010600005","2024-06-27T16:15:00",26.5,26.33276,0.199],
    [24843,"urn:WaterMeter:MC0203J22010600005","2024-06-27T16:30:00",26.399,26.283108,0.202],
    [24844,"urn:WaterMeter:MC0203J22010600005","2024-06-27T16:45:00",26.399,26.230703,0.203],
    [24845,"urn:WaterMeter:MC0203J22010600005","2024-06-27T17:00:00",26.399,26.156265,0.22],
    [24846,"urn:WaterMeter:MC0203J22010600005","2024-06-27T17:15:00",26.399,26.1167,0.195],
    [24847,"urn:WaterMeter:MC0203J22010600005","2024-06-27T17:30:00",26.399,26.074379,0.204],
    [24848,"urn:WaterMeter:MC0203J22010600005","2024-06-27T17:45:00",26.299,26.050367,0.202],
    [24849,"urn:WaterMeter:MC0203J22010600005","2024-06-27T18:00:00",26.299,26.010414,0.196],
    [24850,"urn:WaterMeter:MC0203J22010600005","2024-06-27T18:15:00",26.299,25.934774,0.207],
    [24851,"urn:WaterMeter:MC0203J22010600005","2024-06-27T18:30:00",26.2,25.938614,0.21],
    [24852,"urn:WaterMeter:MC0203J22010600005","2024-06-27T18:45:00",26.2,25.904905,0.206],
    [24853,"urn:WaterMeter:MC0203J22010600005","2024-06-27T19:00:00",26.1,25.86883,0.191],
    [24854,"urn:WaterMeter:MC0203J22010600005","2024-06-27T19:15:00",26,25.86728,0.199],
    [24855,"urn:WaterMeter:MC0203J22010600005","2024-06-27T19:30:00",25.899,25.796293,0.198],
    [24856,"urn:WaterMeter:MC0203J22010600005","2024-06-27T19:45:00",25.899,25.792803,0.201],
    [24857,"urn:WaterMeter:MC0203J22010600005","2024-06-27T20:00:00",25.799,25.788923,0.198],
    [24858,"urn:WaterMeter:MC0203J22010600005","2024-06-27T20:15:00",25.799,25.765999,0.204],
    [24859,"urn:WaterMeter:MC0203J22010600005","2024-06-27T20:30:00",25.7,25.756727,0.197],
    [24860,"urn:WaterMeter:MC0203J22010600005","2024-06-27T20:45:00",25.7,25.743113,0.196],
    [24861,"urn:WaterMeter:MC0203J22010600005","2024-06-27T21:00:00",25.6,25.73772,0.191],
    [24862,"urn:WaterMeter:MC0203J22010600005","2024-06-27T21:15:00",25.5,25.728798,0.195],
    [24863,"urn:WaterMeter:MC0203J22010600005","2024-06-27T21:30:00",25.5,25.712894,0.192],
    [24864,"urn:WaterMeter:MC0203J22010600005","2024-06-27T21:45:00",25.5,25.684578,0.194],
    [24865,"urn:WaterMeter:MC0203J22010600005","2024-06-27T22:00:00",25.5,25.64924,0.203],
    [24866,"urn:WaterMeter:MC0203J22010600005","2024-06-27T22:15:00",25.5,25.638031,0.192],
    [24867,"urn:WaterMeter:MC0203J22010600005","2024-06-27T22:30:00",25.399,25.631435,0.206],
    [24868,"urn:WaterMeter:MC0203J22010600005","2024-06-27T22:45:00",25.399,25.659752,0.201],
    [24869,"urn:WaterMeter:MC0203J22010600005","2024-06-27T23:00:00",25.399,25.62329,0.195],
    [24870,"urn:WaterMeter:MC0203J22010600005","2024-06-27T23:15:00",25.399,25.581745,0.194],
    [24871,"urn:WaterMeter:MC0203J22010600005","2024-06-27T23:30:00",25.399,25.600754,0.191],
    [24872,"urn:WaterMeter:MC0203J22010600005","2024-06-27T23:45:00",25.299,25.58097,0.197],
    [24873,"urn:WaterMeter:MC0203J22010600005","2024-06-28T00:00:00",25.299,25.544159,0.191],
    [24874,"urn:WaterMeter:MC0203J22010600005","2024-06-28T00:15:00",25.299,25.534073,0.18],
    [24875,"urn:WaterMeter:MC0203J22010600005","2024-06-28T00:30:00",25.299,25.54218,0.192],
    [24876,"urn:WaterMeter:MC0203J22010600005","2024-06-28T00:45:00",25.299,25.522785,0.209],
    [24877,"urn:WaterMeter:MC0203J22010600005","2024-06-28T01:00:00",25.299,25.54765,0.191],
    [24878,"urn:WaterMeter:MC0203J22010600005","2024-06-28T01:15:00",25.2,25.532095,0.196],
    [24879,"urn:WaterMeter:MC0203J22010600005","2024-06-28T01:30:00",25.2,25.475887,0.191],
    [24880,"urn:WaterMeter:MC0203J22010600005","2024-06-28T01:45:00",25.2,25.52011,0.185],
    [24881,"urn:WaterMeter:MC0203J22010600005","2024-06-28T02:00:00",25.2,25.514677,0.19],
    [24882,"urn:WaterMeter:MC0203J22010600005","2024-06-28T02:15:00",25.2,25.473133,0.197],
    [24883,"urn:WaterMeter:MC0203J22010600005","2024-06-28T02:30:00",25.2,25.48322,0.191],
    [24884,"urn:WaterMeter:MC0203J22010600005","2024-06-28T02:45:00",25.1,25.473133,0.192],
    [24885,"urn:WaterMeter:MC0203J22010600005","2024-06-28T03:00:00",25.1,25.407618,0.204],
    [24886,"urn:WaterMeter:MC0203J22010600005","2024-06-28T03:15:00",25.1,25.43865,0.199],
    [24887,"urn:WaterMeter:MC0203J22010600005","2024-06-28T03:30:00",25,25.40719,0.192],
    [24888,"urn:WaterMeter:MC0203J22010600005","2024-06-28T03:45:00",25,25.44214,0.202],
    [24889,"urn:WaterMeter:MC0203J22010600005","2024-06-28T04:00:00",25,25.41809,0.19],
    [24890,"urn:WaterMeter:MC0203J22010600005","2024-06-28T04:15:00",25,25.424685,0.185],
    [24891,"urn:WaterMeter:MC0203J22010600005","2024-06-28T04:30:00",25,25.385895,0.19],
    [24892,"urn:WaterMeter:MC0203J22010600005","2024-06-28T04:45:00",25,25.342451,0.198],
    [24893,"urn:WaterMeter:MC0203J22010600005","2024-06-28T05:00:00",25,25.3684,0.192],
    [24894,"urn:WaterMeter:MC0203J22010600005","2024-06-28T05:15:00",25,25.32806,0.194],
    [24895,"urn:WaterMeter:MC0203J22010600005","2024-06-28T05:30:00",25,25.347454,0.204],
    [24896,"urn:WaterMeter:MC0203J22010600005","2024-06-28T05:45:00",25,25.352924,0.191],
    [24897,"urn:WaterMeter:MC0203J22010600005","2024-06-28T06:00:00",25,25.310215,0.187],
    [24898,"urn:WaterMeter:MC0203J22010600005","2024-06-28T06:15:00",25,25.339735,0.192],
    [24899,"urn:WaterMeter:MC0203J22010600005","2024-06-28T06:30:00",25,25.329224,0.194],
    [24900,"urn:WaterMeter:MC0203J22010600005","2024-06-28T06:45:00",25.1,25.271038,0.189],
    [24901,"urn:WaterMeter:MC0203J22010600005","2024-06-28T07:00:00",25.1,25.269875,0.184],
    [24902,"urn:WaterMeter:MC0203J22010600005","2024-06-28T07:15:00",25.2,25.241945,0.196],
    [24903,"urn:WaterMeter:MC0203J22010600005","2024-06-28T07:30:00",25.299,25.238842,0.183],
    [24904,"urn:WaterMeter:MC0203J22010600005","2024-06-28T07:45:00",25.299,25.228796,0.188],
    [24905,"urn:WaterMeter:MC0203J22010600005","2024-06-28T08:00:00",25.399,25.170998,0.194],
    [24906,"urn:WaterMeter:MC0203J22010600005","2024-06-28T08:15:00",25.399,25.16673,0.189],
    [24907,"urn:WaterMeter:MC0203J22010600005","2024-06-28T08:30:00",25.399,25.876202,0.205],
    [24908,"urn:WaterMeter:MC0203J22010600005","2024-06-28T08:45:00",25.5,27.425474,0.251],
    [24909,"urn:WaterMeter:MC0203J22010600005","2024-06-28T09:00:00",25.6,28.989098,0.251],
    [24910,"urn:WaterMeter:MC0203J22010600005","2024-06-28T09:15:00",25.6,29.87735,0.255],
    [24911,"urn:WaterMeter:MC0203J22010600005","2024-06-28T09:30:00",25.5,30.183443,0.267],
    [24912,"urn:WaterMeter:MC0203J22010600005","2024-06-28T09:45:00",25.6,30.292055,0.275],
    [24913,"urn:WaterMeter:MC0203J22010600005","2024-06-28T10:00:00",25.6,30.35951,0.271],
    [24914,"urn:WaterMeter:MC0203J22010600005","2024-06-28T10:15:00",25.6,30.373514,0.262],
    [24915,"urn:WaterMeter:MC0203J22010600005","2024-06-28T10:30:00",25.6,30.364204,0.273],
    [24916,"urn:WaterMeter:MC0203J22010600005","2024-06-28T10:45:00",25.7,30.37076,0.27],
    [24917,"urn:WaterMeter:MC0203J22010600005","2024-06-28T11:00:00",25.799,30.325802,0.287],
    [24918,"urn:WaterMeter:MC0203J22010600005","2024-06-28T11:15:00",25.899,30.346748,0.26],
    [24919,"urn:WaterMeter:MC0203J22010600005","2024-06-28T11:30:00",26,30.294731,0.258],
    [24920,"urn:WaterMeter:MC0203J22010600005","2024-06-28T11:45:00",26.1,30.301325,0.251],
    [24921,"urn:WaterMeter:MC0203J22010600005","2024-06-28T12:00:00",26.2,30.247057,0.271],
    [24922,"urn:WaterMeter:MC0203J22010600005","2024-06-28T12:15:00",26.299,30.201286,0.257],
    [24923,"urn:WaterMeter:MC0203J22010600005","2024-06-28T12:30:00",26.299,30.186506,0.262],
    [24924,"urn:WaterMeter:MC0203J22010600005","2024-06-28T12:45:00",26.299,30.186506,0.259],
    [24925,"urn:WaterMeter:MC0203J22010600005","2024-06-28T13:00:00",26.399,30.10815,0.256],
    [24926,"urn:WaterMeter:MC0203J22010600005","2024-06-28T13:15:00",26.5,30.102758,0.27],
    [24927,"urn:WaterMeter:MC0203J22010600005","2024-06-28T13:30:00",26.5,30.036428,0.255],
    [24928,"urn:WaterMeter:MC0203J22010600005","2024-06-28T13:45:00",26.6,29.992168,0.249],
    [24929,"urn:WaterMeter:MC0203J22010600005","2024-06-28T14:00:00",26.6,29.989492,0.255],
    [24930,"urn:WaterMeter:MC0203J22010600005","2024-06-28T14:15:00",26.7,29.882044,0.245],
    [24931,"urn:WaterMeter:MC0203J22010600005","2024-06-28T14:30:00",26.7,29.864977,0.258],
    [24932,"urn:WaterMeter:MC0203J22010600005","2024-06-28T14:45:00",26.7,29.81067,0.244],
    [24933,"urn:WaterMeter:MC0203J22010600005","2024-06-28T15:00:00",26.7,29.766449,0.247],
    [24934,"urn:WaterMeter:MC0203J22010600005","2024-06-28T15:15:00",26.7,29.745502,0.242],
    [24935,"urn:WaterMeter:MC0203J22010600005","2024-06-28T15:30:00",26.799,29.693485,0.235],
    [24936,"urn:WaterMeter:MC0203J22010600005","2024-06-28T15:45:00",26.799,29.637667,0.239],
    [24937,"urn:WaterMeter:MC0203J22010600005","2024-06-28T16:00:00",26.799,29.584099,0.249],
    [24938,"urn:WaterMeter:MC0203J22010600005","2024-06-28T16:15:00",26.799,29.5597,0.239],
    [24939,"urn:WaterMeter:MC0203J22010600005","2024-06-28T16:30:00",26.799,29.504618,0.256],
    [24940,"urn:WaterMeter:MC0203J22010600005","2024-06-28T16:45:00",26.7,29.43402,0.253],
    [24941,"urn:WaterMeter:MC0203J22010600005","2024-06-28T17:00:00",26.7,29.440964,0.255],
    [24942,"urn:WaterMeter:MC0203J22010600005","2024-06-28T17:15:00",26.6,29.409542,0.254],
    [24943,"urn:WaterMeter:MC0203J22010600005","2024-06-28T17:30:00",26.6,29.342825,0.25],
    [24944,"urn:WaterMeter:MC0203J22010600005","2024-06-28T17:45:00",26.6,29.32657,0.241],
    [24945,"urn:WaterMeter:MC0203J22010600005","2024-06-28T18:00:00",26.5,29.25516,0.243],
    [24946,"urn:WaterMeter:MC0203J22010600005","2024-06-28T18:15:00",26.399,29.250154,0.239],
    [24947,"urn:WaterMeter:MC0203J22010600005","2024-06-28T18:30:00",26.399,29.251707,0.254],
    [24948,"urn:WaterMeter:MC0203J22010600005","2024-06-28T18:45:00",26.399,29.207834,0.251],
    [24949,"urn:WaterMeter:MC0203J22010600005","2024-06-28T19:00:00",26.299,29.22339,0.239],
    [24950,"urn:WaterMeter:MC0203J22010600005","2024-06-28T19:15:00",26.299,29.2327,0.255],
    [24951,"urn:WaterMeter:MC0203J22010600005","2024-06-28T19:30:00",26.2,29.185375,0.243],
    [24952,"urn:WaterMeter:MC0203J22010600005","2024-06-28T19:45:00",26.1,29.193134,0.252],
    [24953,"urn:WaterMeter:MC0203J22010600005","2024-06-28T20:00:00",26,29.196974,0.249],
    [24954,"urn:WaterMeter:MC0203J22010600005","2024-06-28T20:15:00",26,29.185375,0.253],
    [24955,"urn:WaterMeter:MC0203J22010600005","2024-06-28T20:30:00",25.899,29.152016,0.236],
    [24956,"urn:WaterMeter:MC0203J22010600005","2024-06-28T20:45:00",25.799,29.174515,0.25],
    [24957,"urn:WaterMeter:MC0203J22010600005","2024-06-28T21:00:00",25.799,29.091465,0.239],
    [24958,"urn:WaterMeter:MC0203J22010600005","2024-06-28T21:15:00",25.7,29.135725,0.264],
    [24959,"urn:WaterMeter:MC0203J22010600005","2024-06-28T21:30:00",25.7,29.127192,0.256],
    [24960,"urn:WaterMeter:MC0203J22010600005","2024-06-28T21:45:00",25.6,29.113615,0.24],
    [24961,"urn:WaterMeter:MC0203J22010600005","2024-06-28T22:00:00",25.6,29.091465,0.243],
    [24962,"urn:WaterMeter:MC0203J22010600005","2024-06-28T22:15:00",25.5,29.078703,0.231],
    [24963,"urn:WaterMeter:MC0203J22010600005","2024-06-28T22:30:00",25.399,29.049223,0.25],
    [24964,"urn:WaterMeter:MC0203J22010600005","2024-06-28T22:45:00",25.299,29.075212,0.241],
    [24965,"urn:WaterMeter:MC0203J22010600005","2024-06-28T23:00:00",25.2,29.041039,0.245],
    [24966,"urn:WaterMeter:MC0203J22010600005","2024-06-28T23:15:00",25.2,29.019743,0.239],
    [24967,"urn:WaterMeter:MC0203J22010600005","2024-06-28T23:30:00",25.1,29.037586,0.249],
    [24968,"urn:WaterMeter:MC0203J22010600005","2024-06-28T23:45:00",25,28.999184,0.25],
    [24969,"urn:WaterMeter:MC0203J22010600005","2024-06-29T00:00:00",25,29.012373,0.233],
    [24970,"urn:WaterMeter:MC0203J22010600005","2024-06-29T00:15:00",24.899,29.015087,0.249],
    [24971,"urn:WaterMeter:MC0203J22010600005","2024-06-29T00:30:00",24.899,29.000347,0.241],
    [24972,"urn:WaterMeter:MC0203J22010600005","2024-06-29T00:45:00",24.799,28.957678,0.249],
    [24973,"urn:WaterMeter:MC0203J22010600005","2024-06-29T01:00:00",24.7,28.967377,0.244],
    [24974,"urn:WaterMeter:MC0203J22010600005","2024-06-29T01:15:00",24.7,28.931301,0.256],
    [24975,"urn:WaterMeter:MC0203J22010600005","2024-06-29T01:30:00",24.6,28.93324,0.231],
    [24976,"urn:WaterMeter:MC0203J22010600005","2024-06-29T01:45:00",24.5,28.92044,0.235],
    [24977,"urn:WaterMeter:MC0203J22010600005","2024-06-29T02:00:00",24.5,28.943287,0.235],
    [24978,"urn:WaterMeter:MC0203J22010600005","2024-06-29T02:15:00",24.399,28.928198,0.252],
    [24979,"urn:WaterMeter:MC0203J22010600005","2024-06-29T02:30:00",24.399,28.9076,0.232],
    [24980,"urn:WaterMeter:MC0203J22010600005","2024-06-29T02:45:00",24.399,28.898718,0.236],
    [24981,"urn:WaterMeter:MC0203J22010600005","2024-06-29T03:00:00",24.299,28.897903,0.229],
    [24982,"urn:WaterMeter:MC0203J22010600005","2024-06-29T03:15:00",24.2,28.883202,0.229],
    [24983,"urn:WaterMeter:MC0203J22010600005","2024-06-29T03:30:00",24.2,28.877731,0.239],
    [24984,"urn:WaterMeter:MC0203J22010600005","2024-06-29T03:45:00",24.1,28.855272,0.236],
    [24985,"urn:WaterMeter:MC0203J22010600005","2024-06-29T04:00:00",24,28.835102,0.242],
    [24986,"urn:WaterMeter:MC0203J22010600005","2024-06-29T04:15:00",24,28.821526,0.244],
    [24987,"urn:WaterMeter:MC0203J22010600005","2024-06-29T04:30:00",23.899,28.83549,0.247],
    [24988,"urn:WaterMeter:MC0203J22010600005","2024-06-29T04:45:00",23.799,28.878897,0.24],
    [24989,"urn:WaterMeter:MC0203J22010600005","2024-06-29T05:00:00",23.799,28.822302,0.239],
    [24990,"urn:WaterMeter:MC0203J22010600005","2024-06-29T05:15:00",23.7,28.821138,0.233],
    [24991,"urn:WaterMeter:MC0203J22010600005","2024-06-29T05:30:00",23.6,28.844799,0.235],
    [24992,"urn:WaterMeter:MC0203J22010600005","2024-06-29T05:45:00",23.6,28.810625,0.231],
    [24993,"urn:WaterMeter:MC0203J22010600005","2024-06-29T06:00:00",23.6,28.81144,0.228],
    [24994,"urn:WaterMeter:MC0203J22010600005","2024-06-29T06:15:00",23.5,28.753256,0.231],
    [24995,"urn:WaterMeter:MC0203J22010600005","2024-06-29T06:30:00",23.6,28.738514,0.237],
    [24996,"urn:WaterMeter:MC0203J22010600005","2024-06-29T06:45:00",23.6,28.762953,0.234],
    [24997,"urn:WaterMeter:MC0203J22010600005","2024-06-29T07:00:00",23.6,28.738127,0.228],
    [24998,"urn:WaterMeter:MC0203J22010600005","2024-06-29T07:15:00",23.6,28.691153,0.23],
    [24999,"urn:WaterMeter:MC0203J22010600005","2024-06-29T07:30:00",23.6,28.648521,0.241],
    [25000,"urn:WaterMeter:MC0203J22010600005","2024-06-29T07:45:00",23.6,28.610508,0.246],
    [25001,"urn:WaterMeter:MC0203J22010600005","2024-06-29T08:00:00",23.6,28.598095,0.249],
    [25002,"urn:WaterMeter:MC0203J22010600005","2024-06-29T08:15:00",23.7,28.565123,0.234],
    [25003,"urn:WaterMeter:MC0203J22010600005","2024-06-29T08:30:00",23.799,28.498755,0.232],
    [25004,"urn:WaterMeter:MC0203J22010600005","2024-06-29T08:45:00",23.899,28.489096,0.236],
    [25005,"urn:WaterMeter:MC0203J22010600005","2024-06-29T09:00:00",24,28.398327,0.241],
    [25006,"urn:WaterMeter:MC0203J22010600005","2024-06-29T09:15:00",24.2,28.371174,0.244],
    [25007,"urn:WaterMeter:MC0203J22010600005","2024-06-29T09:30:00",24.299,28.339754,0.227],
    [25008,"urn:WaterMeter:MC0203J22010600005","2024-06-29T09:45:00",24.5,28.236572,0.238],
    [25009,"urn:WaterMeter:MC0203J22010600005","2024-06-29T10:00:00",24.6,28.197006,0.224],
    [25010,"urn:WaterMeter:MC0203J22010600005","2024-06-29T10:15:00",24.7,28.13339,0.223],
    [25011,"urn:WaterMeter:MC0203J22010600005","2024-06-29T10:30:00",24.899,28.012714,0.229],
    [25012,"urn:WaterMeter:MC0203J22010600005","2024-06-29T10:45:00",25.2,28.005733,0.218],
    [25013,"urn:WaterMeter:MC0203J22010600005","2024-06-29T11:00:00",25.299,27.939053,0.223],
    [25014,"urn:WaterMeter:MC0203J22010600005","2024-06-29T11:15:00",25.5,27.856043,0.227],
    [25015,"urn:WaterMeter:MC0203J22010600005","2024-06-29T11:30:00",25.6,27.755188,0.233],
    [25016,"urn:WaterMeter:MC0203J22010600005","2024-06-29T11:45:00",25.7,27.705498,0.222],
    [25017,"urn:WaterMeter:MC0203J22010600005","2024-06-29T12:00:00",25.7,27.630672,0.222],
    [25018,"urn:WaterMeter:MC0203J22010600005","2024-06-29T12:15:00",25.799,27.581797,0.217],
    [25019,"urn:WaterMeter:MC0203J22010600005","2024-06-29T12:30:00",25.799,27.487537,0.231],
    [25020,"urn:WaterMeter:MC0203J22010600005","2024-06-29T12:45:00",25.899,27.382416,0.22],
    [25021,"urn:WaterMeter:MC0203J22010600005","2024-06-29T13:00:00",26.1,27.364185,0.22],
    [25022,"urn:WaterMeter:MC0203J22010600005","2024-06-29T13:15:00",26.1,27.28932,0.221],
    [25023,"urn:WaterMeter:MC0203J22010600005","2024-06-29T13:30:00",26.299,27.16558,0.229],
    [25024,"urn:WaterMeter:MC0203J22010600005","2024-06-29T13:45:00",26.299,27.096146,0.219],
    [25025,"urn:WaterMeter:MC0203J22010600005","2024-06-29T14:00:00",26.399,27.05658,0.212],
    [25026,"urn:WaterMeter:MC0203J22010600005","2024-06-29T14:15:00",26.5,26.940987,0.208],
    [25027,"urn:WaterMeter:MC0203J22010600005","2024-06-29T14:30:00",26.5,26.889744,0.212],
    [25028,"urn:WaterMeter:MC0203J22010600005","2024-06-29T14:45:00",26.6,26.79436,0.21],
    [25029,"urn:WaterMeter:MC0203J22010600005","2024-06-29T15:00:00",26.6,26.71135,0.207],
    [25030,"urn:WaterMeter:MC0203J22010600005","2024-06-29T15:15:00",26.6,26.642303,0.205],
    [25031,"urn:WaterMeter:MC0203J22010600005","2024-06-29T15:30:00",26.7,26.574034,0.225],
    [25032,"urn:WaterMeter:MC0203J22010600005","2024-06-29T15:45:00",26.7,26.442884,0.206],
    [25033,"urn:WaterMeter:MC0203J22010600005","2024-06-29T16:00:00",26.799,26.398314,0.2],
    [25034,"urn:WaterMeter:MC0203J22010600005","2024-06-29T16:15:00",26.799,26.31414,0.2],
    [25035,"urn:WaterMeter:MC0203J22010600005","2024-06-29T16:30:00",26.799,26.228374,0.207],
    [25036,"urn:WaterMeter:MC0203J22010600005","2024-06-29T16:45:00",26.799,26.141912,0.205],
    [25037,"urn:WaterMeter:MC0203J22010600005","2024-06-29T17:00:00",26.7,26.10196,0.22],
    [25038,"urn:WaterMeter:MC0203J22010600005","2024-06-29T17:15:00",26.7,26.044937,0.202],
    [25039,"urn:WaterMeter:MC0203J22010600005","2024-06-29T17:30:00",26.7,25.954557,0.201],
    [25040,"urn:WaterMeter:MC0203J22010600005","2024-06-29T17:45:00",26.6,25.944082,0.201],
    [25041,"urn:WaterMeter:MC0203J22010600005","2024-06-29T18:00:00",26.6,25.861422,0.204],
    [25042,"urn:WaterMeter:MC0203J22010600005","2024-06-29T18:15:00",26.5,25.838573,0.199],
    [25043,"urn:WaterMeter:MC0203J22010600005","2024-06-29T18:30:00",26.5,25.745827,0.198],
    [25044,"urn:WaterMeter:MC0203J22010600005","2024-06-29T18:45:00",26.399,25.754013,0.196],
    [25045,"urn:WaterMeter:MC0203J22010600005","2024-06-29T19:00:00",26.299,25.752848,0.195],
    [25046,"urn:WaterMeter:MC0203J22010600005","2024-06-29T19:15:00",26.299,25.68419,0.19],
    [25047,"urn:WaterMeter:MC0203J22010600005","2024-06-29T19:30:00",26.2,25.624842,0.196],
    [25048,"urn:WaterMeter:MC0203J22010600005","2024-06-29T19:45:00",26.1,25.61592,0.19],
    [25049,"urn:WaterMeter:MC0203J22010600005","2024-06-29T20:00:00",26.1,25.568558,0.212],
    [25050,"urn:WaterMeter:MC0203J22010600005","2024-06-29T20:15:00",26,25.575579,0.21],
    [25051,"urn:WaterMeter:MC0203J22010600005","2024-06-29T20:30:00",25.899,25.54218,0.204],
    [25052,"urn:WaterMeter:MC0203J22010600005","2024-06-29T20:45:00",25.899,25.5011,0.199],
    [25053,"urn:WaterMeter:MC0203J22010600005","2024-06-29T21:00:00",25.799,25.507696,0.203],
    [25054,"urn:WaterMeter:MC0203J22010600005","2024-06-29T21:15:00",25.7,25.497997,0.202],
    [25055,"urn:WaterMeter:MC0203J22010600005","2024-06-29T21:30:00",25.6,25.454515,0.198],
    [25056,"urn:WaterMeter:MC0203J22010600005","2024-06-29T21:45:00",25.6,25.40564,0.204],
    [25057,"urn:WaterMeter:MC0203J22010600005","2024-06-29T22:00:00",25.5,25.472359,0.195],
    [25058,"urn:WaterMeter:MC0203J22010600005","2024-06-29T22:15:00",25.399,25.426197,0.195],
    [25059,"urn:WaterMeter:MC0203J22010600005","2024-06-29T22:30:00",25.299,25.404514,0.195],
    [25060,"urn:WaterMeter:MC0203J22010600005","2024-06-29T22:45:00",25.299,25.398308,0.195],
    [25061,"urn:WaterMeter:MC0203J22010600005","2024-06-29T23:00:00",25.2,25.409557,0.198],
    [25062,"urn:WaterMeter:MC0203J22010600005","2024-06-29T23:15:00",25.2,25.384731,0.195],
    [25063,"urn:WaterMeter:MC0203J22010600005","2024-06-29T23:30:00",25.1,25.39986,0.192],
    [25064,"urn:WaterMeter:MC0203J22010600005","2024-06-29T23:45:00",25,25.399471,0.194],
    [25065,"urn:WaterMeter:MC0203J22010600005","2024-06-30T00:00:00",25,25.357927,0.21],
    [25066,"urn:WaterMeter:MC0203J22010600005","2024-06-30T00:15:00",24.899,25.367237,0.193],
    [25067,"urn:WaterMeter:MC0203J22010600005","2024-06-30T00:30:00",24.899,25.344778,0.198],
    [25068,"urn:WaterMeter:MC0203J22010600005","2024-06-30T00:45:00",24.799,25.339308,0.198],
    [25069,"urn:WaterMeter:MC0203J22010600005","2024-06-30T01:00:00",24.7,25.31297,0.199],
    [25070,"urn:WaterMeter:MC0203J22010600005","2024-06-30T01:15:00",24.7,25.325771,0.198],
    [25071,"urn:WaterMeter:MC0203J22010600005","2024-06-30T01:30:00",24.6,25.317974,0.193],
    [25072,"urn:WaterMeter:MC0203J22010600005","2024-06-30T01:45:00",24.6,25.282713,0.198],
    [25073,"urn:WaterMeter:MC0203J22010600005","2024-06-30T02:00:00",24.5,25.280735,0.2],
    [25074,"urn:WaterMeter:MC0203J22010600005","2024-06-30T02:15:00",24.5,25.279572,0.198],
    [25075,"urn:WaterMeter:MC0203J22010600005","2024-06-30T02:30:00",24.399,25.294739,0.186],
    [25076,"urn:WaterMeter:MC0203J22010600005","2024-06-30T02:45:00",24.299,25.23733,0.202],
    [25077,"urn:WaterMeter:MC0203J22010600005","2024-06-30T03:00:00",24.299,25.230736,0.186],
    [25078,"urn:WaterMeter:MC0203J22010600005","2024-06-30T03:15:00",24.2,25.26875,0.195],
    [25079,"urn:WaterMeter:MC0203J22010600005","2024-06-30T03:30:00",24.1,25.213242,0.182],
    [25080,"urn:WaterMeter:MC0203J22010600005","2024-06-30T03:45:00",24.1,25.203543,0.194],
    [25081,"urn:WaterMeter:MC0203J22010600005","2024-06-30T04:00:00",24,25.223366,0.202],
    [25082,"urn:WaterMeter:MC0203J22010600005","2024-06-30T04:15:00",24,25.225693,0.191],
    [25083,"urn:WaterMeter:MC0203J22010600005","2024-06-30T04:30:00",23.899,25.173286,0.197],
    [25084,"urn:WaterMeter:MC0203J22010600005","2024-06-30T04:45:00",23.899,25.16359,0.194],
    [25085,"urn:WaterMeter:MC0203J22010600005","2024-06-30T05:00:00",23.799,25.134886,0.199],
    [25086,"urn:WaterMeter:MC0203J22010600005","2024-06-30T05:15:00",23.799,25.160137,0.189],
    [25087,"urn:WaterMeter:MC0203J22010600005","2024-06-30T05:30:00",23.7,25.13411,0.193],
    [25088,"urn:WaterMeter:MC0203J22010600005","2024-06-30T05:45:00",23.7,25.122473,0.189],
    [25089,"urn:WaterMeter:MC0203J22010600005","2024-06-30T06:00:00",23.7,25.099625,0.196],
    [25090,"urn:WaterMeter:MC0203J22010600005","2024-06-30T06:15:00",23.7,25.115877,0.186],
    [25091,"urn:WaterMeter:MC0203J22010600005","2024-06-30T06:30:00",23.7,25.105404,0.195],
    [25092,"urn:WaterMeter:MC0203J22010600005","2024-06-30T06:45:00",23.799,25.038298,0.186],
    [25093,"urn:WaterMeter:MC0203J22010600005","2024-06-30T07:00:00",23.899,25.022045,0.186],
    [25094,"urn:WaterMeter:MC0203J22010600005","2024-06-30T07:15:00",24,24.94718,0.196],
    [25095,"urn:WaterMeter:MC0203J22010600005","2024-06-30T07:30:00",24.1,24.966187,0.185],
    [25096,"urn:WaterMeter:MC0203J22010600005","2024-06-30T07:45:00",24.2,24.91421,0.18],
    [25097,"urn:WaterMeter:MC0203J22010600005","2024-06-30T08:00:00",24.299,24.832323,0.193],
    [25098,"urn:WaterMeter:MC0203J22010600005","2024-06-30T08:15:00",24.399,24.793144,0.182],
    [25099,"urn:WaterMeter:MC0203J22010600005","2024-06-30T08:30:00",24.6,24.768745,0.188],
    [25100,"urn:WaterMeter:MC0203J22010600005","2024-06-30T08:45:00",24.799,24.721422,0.185],
    [25101,"urn:WaterMeter:MC0203J22010600005","2024-06-30T09:00:00",25,24.665565,0.19],
    [25102,"urn:WaterMeter:MC0203J22010600005","2024-06-30T09:15:00",25.2,24.582903,0.184],
    [25103,"urn:WaterMeter:MC0203J22010600005","2024-06-30T09:30:00",25.299,24.48554,0.18],
    [25104,"urn:WaterMeter:MC0203J22010600005","2024-06-30T09:45:00",25.5,24.42817,0.19],
    [25105,"urn:WaterMeter:MC0203J22010600005","2024-06-30T10:00:00",25.7,24.379255,0.183],
    [25106,"urn:WaterMeter:MC0203J22010600005","2024-06-30T10:15:00",25.899,24.344383,0.183],
    [25107,"urn:WaterMeter:MC0203J22010600005","2024-06-30T10:30:00",26.1,24.203924,0.174],
    [25108,"urn:WaterMeter:MC0203J22010600005","2024-06-30T10:45:00",26.299,24.098028,0.179],
    [25109,"urn:WaterMeter:MC0203J22010600005","2024-06-30T11:00:00",26.5,24.028246,0.188],
    [25110,"urn:WaterMeter:MC0203J22010600005","2024-06-30T11:15:00",26.6,23.910711,0.173],
    [25111,"urn:WaterMeter:MC0203J22010600005","2024-06-30T11:30:00",26.7,23.892092,0.18],
    [25112,"urn:WaterMeter:MC0203J22010600005","2024-06-30T11:45:00",26.799,23.740036,0.184],
    [25113,"urn:WaterMeter:MC0203J22010600005","2024-06-30T12:00:00",26.899,23.673317,0.176],
    [25114,"urn:WaterMeter:MC0203J22010600005","2024-06-30T12:15:00",27,23.573975,0.174],
    [25115,"urn:WaterMeter:MC0203J22010600005","2024-06-30T12:30:00",27.1,23.448723,0.186],
    [25116,"urn:WaterMeter:MC0203J22010600005","2024-06-30T12:45:00",27.2,23.350933,0.165],
    [25117,"urn:WaterMeter:MC0203J22010600005","2024-06-30T13:00:00",27.299,23.272964,0.182],
    [25118,"urn:WaterMeter:MC0203J22010600005","2024-06-30T13:15:00",27.399,23.17952,0.172],
    [25119,"urn:WaterMeter:MC0203J22010600005","2024-06-30T13:30:00",27.5,23.055391,0.167],
    [25120,"urn:WaterMeter:MC0203J22010600005","2024-06-30T13:45:00",27.5,22.94325,0.165],
    [25121,"urn:WaterMeter:MC0203J22010600005","2024-06-30T14:00:00",27.5,22.86726,0.175],
    [25122,"urn:WaterMeter:MC0203J22010600005","2024-06-30T14:15:00",27.6,22.77494,0.174],
    [25123,"urn:WaterMeter:MC0203J22010600005","2024-06-30T14:30:00",27.6,22.660471,0.168],
    [25124,"urn:WaterMeter:MC0203J22010600005","2024-06-30T14:45:00",27.7,22.541424,0.169],
    [25125,"urn:WaterMeter:MC0203J22010600005","2024-06-30T15:00:00",27.7,22.442898,0.167],
    [25126,"urn:WaterMeter:MC0203J22010600005","2024-06-30T15:15:00",27.7,22.3723,0.17],
    [25127,"urn:WaterMeter:MC0203J22010600005","2024-06-30T15:30:00",27.7,22.273735,0.178],
    [25128,"urn:WaterMeter:MC0203J22010600005","2024-06-30T15:45:00",27.799,22.18921,0.165],
    [25129,"urn:WaterMeter:MC0203J22010600005","2024-06-30T16:00:00",27.7,22.120552,0.16],
    [25130,"urn:WaterMeter:MC0203J22010600005","2024-06-30T16:15:00",27.7,22.021988,0.174],
    [25131,"urn:WaterMeter:MC0203J22010600005","2024-06-30T16:30:00",27.7,21.905617,0.155],
    [25132,"urn:WaterMeter:MC0203J22010600005","2024-06-30T16:45:00",27.7,21.847433,0.156],
    [25133,"urn:WaterMeter:MC0203J22010600005","2024-06-30T17:00:00",27.6,21.791225,0.156],
    [25134,"urn:WaterMeter:MC0203J22010600005","2024-06-30T17:15:00",27.6,21.712055,0.158],
    [25135,"urn:WaterMeter:MC0203J22010600005","2024-06-30T17:30:00",27.5,21.671326,0.16],
    [25136,"urn:WaterMeter:MC0203J22010600005","2024-06-30T17:45:00",27.399,21.598051,0.161],
    [25137,"urn:WaterMeter:MC0203J22010600005","2024-06-30T18:00:00",27.399,21.568571,0.159],
    [25138,"urn:WaterMeter:MC0203J22010600005","2024-06-30T18:15:00",27.299,21.507244,0.163],
    [25139,"urn:WaterMeter:MC0203J22010600005","2024-06-30T18:30:00",27.2,21.476988,0.156],
    [25140,"urn:WaterMeter:MC0203J22010600005","2024-06-30T18:45:00",27.1,21.394403,0.152],
    [25141,"urn:WaterMeter:MC0203J22010600005","2024-06-30T19:00:00",27,21.432419,0.159],
    [25142,"urn:WaterMeter:MC0203J22010600005","2024-06-30T19:15:00",26.899,21.38587,0.165],
    [25143,"urn:WaterMeter:MC0203J22010600005","2024-06-30T19:30:00",26.799,21.333466,0.156],
    [25144,"urn:WaterMeter:MC0203J22010600005","2024-06-30T19:45:00",26.7,21.33583,0.166],
    [25145,"urn:WaterMeter:MC0203J22010600005","2024-06-30T20:00:00",26.6,21.28459,0.16],
    [25146,"urn:WaterMeter:MC0203J22010600005","2024-06-30T20:15:00",26.5,21.274504,0.156],
    [25147,"urn:WaterMeter:MC0203J22010600005","2024-06-30T20:30:00",26.399,21.29355,0.156],
    [25148,"urn:WaterMeter:MC0203J22010600005","2024-06-30T20:45:00",26.399,21.278034,0.153],
    [25149,"urn:WaterMeter:MC0203J22010600005","2024-06-30T21:00:00",26.299,21.238855,0.153],
    [25150,"urn:WaterMeter:MC0203J22010600005","2024-06-30T21:15:00",26.2,21.198902,0.16],
    [25151,"urn:WaterMeter:MC0203J22010600005","2024-06-30T21:30:00",26.2,21.213642,0.153],
    [25152,"urn:WaterMeter:MC0203J22010600005","2024-06-30T21:45:00",26.1,21.236103,0.157],
    [25153,"urn:WaterMeter:MC0203J22010600005","2024-06-30T22:00:00",26.1,21.174465,0.166],
    [25154,"urn:WaterMeter:MC0203J22010600005","2024-06-30T22:15:00",26,21.18839,0.153],
    [25155,"urn:WaterMeter:MC0203J22010600005","2024-06-30T22:30:00",25.899,21.14227,0.149],
    [25156,"urn:WaterMeter:MC0203J22010600005","2024-06-30T22:45:00",25.799,21.157785,0.151],
    [25157,"urn:WaterMeter:MC0203J22010600005","2024-06-30T23:00:00",25.799,21.153519,0.159],
    [25158,"urn:WaterMeter:MC0203J22010600005","2024-06-30T23:15:00",25.7,21.18455,0.161],
    [25159,"urn:WaterMeter:MC0203J22010600005","2024-06-30T23:30:00",25.6,21.12365,0.156],
    [25160,"urn:WaterMeter:MC0203J22010600005","2024-06-30T23:45:00",25.6,21.13102,0.151],
    [25161,"urn:WaterMeter:MC0203J22010600005","2024-07-01T00:00:00",25.5,21.12559,0.159],
    [25162,"urn:WaterMeter:MC0203J22010600005","2024-07-01T00:15:00",25.399,21.16438,0.154],
    [25163,"urn:WaterMeter:MC0203J22010600005","2024-07-01T00:30:00",25.299,21.100725,0.154],
    [25164,"urn:WaterMeter:MC0203J22010600005","2024-07-01T00:45:00",25.299,21.087576,0.156],
    [25165,"urn:WaterMeter:MC0203J22010600005","2024-07-01T01:00:00",25.299,21.196924,0.158],
    [25166,"urn:WaterMeter:MC0203J22010600005","2024-07-01T01:15:00",25.2,21.149212,0.154],
    [25167,"urn:WaterMeter:MC0203J22010600005","2024-07-01T01:30:00",25.2,21.161276,0.15],
    [25168,"urn:WaterMeter:MC0203J22010600005","2024-07-01T01:45:00",25.2,21.14382,0.149],
    [25169,"urn:WaterMeter:MC0203J22010600005","2024-07-01T02:00:00",25.2,21.094946,0.151],
    [25170,"urn:WaterMeter:MC0203J22010600005","2024-07-01T02:15:00",25.1,21.121323,0.162],
    [25171,"urn:WaterMeter:MC0203J22010600005","2024-07-01T02:30:00",25.1,21.141882,0.151],
    [25172,"urn:WaterMeter:MC0203J22010600005","2024-07-01T02:45:00",25,21.144985,0.159],
    [25173,"urn:WaterMeter:MC0203J22010600005","2024-07-01T03:00:00",25,21.133736,0.157],
    [25174,"urn:WaterMeter:MC0203J22010600005","2024-07-01T03:15:00",24.899,21.057707,0.155],
    [25175,"urn:WaterMeter:MC0203J22010600005","2024-07-01T03:30:00",24.899,21.020857,0.153],
    [25176,"urn:WaterMeter:MC0203J22010600005","2024-07-01T03:45:00",24.799,21.030516,0.146],
    [25177,"urn:WaterMeter:MC0203J22010600005","2024-07-01T04:00:00",24.7,21.025124,0.146],
    [25178,"urn:WaterMeter:MC0203J22010600005","2024-07-01T04:15:00",24.6,21.04801,0.149],
    [25179,"urn:WaterMeter:MC0203J22010600005","2024-07-01T04:30:00",24.6,21.037148,0.147],
    [25180,"urn:WaterMeter:MC0203J22010600005","2024-07-01T04:45:00",24.5,21.000685,0.151],
    [25181,"urn:WaterMeter:MC0203J22010600005","2024-07-01T05:00:00",24.399,21.032843,0.154],
    [25182,"urn:WaterMeter:MC0203J22010600005","2024-07-01T05:15:00",24.299,21.002625,0.155],
    [25183,"urn:WaterMeter:MC0203J22010600005","2024-07-01T05:30:00",24.2,20.99991,0.144],
    [25184,"urn:WaterMeter:MC0203J22010600005","2024-07-01T05:45:00",24.2,21.008444,0.145],
    [25185,"urn:WaterMeter:MC0203J22010600005","2024-07-01T06:00:00",24.2,20.979738,0.143],
    [25186,"urn:WaterMeter:MC0203J22010600005","2024-07-01T06:15:00",24.299,20.964184,0.158],
    [25187,"urn:WaterMeter:MC0203J22010600005","2024-07-01T06:30:00",24.299,20.956038,0.154],
    [25188,"urn:WaterMeter:MC0203J22010600005","2024-07-01T06:45:00",24.399,20.892073,0.149],
    [25189,"urn:WaterMeter:MC0203J22010600005","2024-07-01T07:00:00",24.5,20.897078,0.146],
    [25190,"urn:WaterMeter:MC0203J22010600005","2024-07-01T07:15:00",24.6,20.85212,0.154],
    [25191,"urn:WaterMeter:MC0203J22010600005","2024-07-01T07:30:00",24.7,20.85212,0.155],
    [25192,"urn:WaterMeter:MC0203J22010600005","2024-07-01T07:45:00",24.799,20.875355,0.15],
    [25193,"urn:WaterMeter:MC0203J22010600005","2024-07-01T08:00:00",24.899,20.866472,0.142],
    [25194,"urn:WaterMeter:MC0203J22010600005","2024-07-01T08:15:00",25,20.786564,0.141],
    [25195,"urn:WaterMeter:MC0203J22010600005","2024-07-01T08:30:00",25,20.743896,0.142],
    [25196,"urn:WaterMeter:MC0203J22010600005","2024-07-01T08:45:00",25.1,20.838505,0.148],
    [25197,"urn:WaterMeter:MC0203J22010600005","2024-07-01T09:00:00",25.2,21.153906,0.157],
    [25198,"urn:WaterMeter:MC0203J22010600005","2024-07-01T09:15:00",25.399,22.642628,0.175],
    [25199,"urn:WaterMeter:MC0203J22010600005","2024-07-01T09:30:00",25.6,23.841665,0.193],
    [25200,"urn:WaterMeter:MC0203J22010600005","2024-07-01T09:45:00",25.799,24.874254,0.215],
    [25201,"urn:WaterMeter:MC0203J22010600005","2024-07-01T10:00:00",25.899,25.814098,0.229],
    [25202,"urn:WaterMeter:MC0203J22010600005","2024-07-01T10:15:00",26.1,26.446413,0.243],
    [25203,"urn:WaterMeter:MC0203J22010600005","2024-07-01T10:30:00",26.299,26.913445,0.238],
    [25204,"urn:WaterMeter:MC0203J22010600005","2024-07-01T10:45:00",26.6,27.268335,0.232],
    [25205,"urn:WaterMeter:MC0203J22010600005","2024-07-01T11:00:00",26.6,27.53909,0.234],
    [25206,"urn:WaterMeter:MC0203J22010600005","2024-07-01T11:15:00",26.7,27.775358,0.227],
    [25207,"urn:WaterMeter:MC0203J22010600005","2024-07-01T11:30:00",26.799,27.973188,0.228],
    [25208,"urn:WaterMeter:MC0203J22010600005","2024-07-01T11:45:00",26.7,28.129086,0.248],
    [25209,"urn:WaterMeter:MC0203J22010600005","2024-07-01T12:00:00",26.799,28.20205,0.251],
    [25210,"urn:WaterMeter:MC0203J22010600005","2024-07-01T12:15:00",26.899,28.293205,0.239],
    [25211,"urn:WaterMeter:MC0203J22010600005","2024-07-01T12:30:00",27,28.335447,0.236],
    [25212,"urn:WaterMeter:MC0203J22010600005","2024-07-01T12:45:00",27.1,28.381609,0.248],
    [25213,"urn:WaterMeter:MC0203J22010600005","2024-07-01T13:00:00",27.1,28.311438,0.231],
    [25214,"urn:WaterMeter:MC0203J22010600005","2024-07-01T13:15:00",27.2,28.343206,0.216],
    [25215,"urn:WaterMeter:MC0203J22010600005","2024-07-01T13:30:00",27.299,28.330832,0.23],
    [25216,"urn:WaterMeter:MC0203J22010600005","2024-07-01T13:45:00",27.399,28.314152,0.229],
    [25217,"urn:WaterMeter:MC0203J22010600005","2024-07-01T14:00:00",27.399,28.281181,0.248],
    [25218,"urn:WaterMeter:MC0203J22010600005","2024-07-01T14:15:00",27.399,28.241226,0.25],
    [25219,"urn:WaterMeter:MC0203J22010600005","2024-07-01T14:30:00",27.399,28.208218,0.228],
    [25220,"urn:WaterMeter:MC0203J22010600005","2024-07-01T14:45:00",27.299,28.181879,0.234],
    [25221,"urn:WaterMeter:MC0203J22010600005","2024-07-01T15:00:00",27.299,28.134943,0.24],
    [25222,"urn:WaterMeter:MC0203J22010600005","2024-07-01T15:15:00",27.299,28.084127,0.238],
    [25223,"urn:WaterMeter:MC0203J22010600005","2024-07-01T15:30:00",27.299,28.05969,0.251],
    [25224,"urn:WaterMeter:MC0203J22010600005","2024-07-01T15:45:00",27.299,28.03564,0.239],
    [25225,"urn:WaterMeter:MC0203J22010600005","2024-07-01T16:00:00",27.299,28.010038,0.229],
    [25226,"urn:WaterMeter:MC0203J22010600005","2024-07-01T16:15:00",27.2,27.965778,0.228],
    [25227,"urn:WaterMeter:MC0203J22010600005","2024-07-01T16:30:00",27.2,27.907982,0.241],
    [25228,"urn:WaterMeter:MC0203J22010600005","2024-07-01T16:45:00",27.2,27.87695,0.221],
    [25229,"urn:WaterMeter:MC0203J22010600005","2024-07-01T17:00:00",27.2,27.861473,0.237],
    [25230,"urn:WaterMeter:MC0203J22010600005","2024-07-01T17:15:00",27.1,27.809107,0.235],
    [25231,"urn:WaterMeter:MC0203J22010600005","2024-07-01T17:30:00",27.1,27.78622,0.233],
    [25232,"urn:WaterMeter:MC0203J22010600005","2024-07-01T17:45:00",27.1,27.758291,0.226],
    [25233,"urn:WaterMeter:MC0203J22010600005","2024-07-01T18:00:00",27,27.739672,0.233],
    [25234,"urn:WaterMeter:MC0203J22010600005","2024-07-01T18:15:00",27,27.677221,0.223],
    [25235,"urn:WaterMeter:MC0203J22010600005","2024-07-01T18:30:00",26.899,27.66985,0.237],
    [25236,"urn:WaterMeter:MC0203J22010600005","2024-07-01T18:45:00",26.799,27.655458,0.238],
    [25237,"urn:WaterMeter:MC0203J22010600005","2024-07-01T19:00:00",26.799,27.633389,0.22],
    [25238,"urn:WaterMeter:MC0203J22010600005","2024-07-01T19:15:00",26.7,27.586802,0.219],
    [25239,"urn:WaterMeter:MC0203J22010600005","2024-07-01T19:30:00",26.6,27.639206,0.242],
    [25240,"urn:WaterMeter:MC0203J22010600005","2024-07-01T19:45:00",26.5,27.569733,0.23],
    [25241,"urn:WaterMeter:MC0203J22010600005","2024-07-01T20:00:00",26.399,27.592659,0.238],
    [25242,"urn:WaterMeter:MC0203J22010600005","2024-07-01T20:15:00",26.399,27.570547,0.233],
    [25243,"urn:WaterMeter:MC0203J22010600005","2024-07-01T20:30:00",26.299,27.55736,0.225],
    [25244,"urn:WaterMeter:MC0203J22010600005","2024-07-01T20:45:00",26.2,27.56279,0.233],
    [25245,"urn:WaterMeter:MC0203J22010600005","2024-07-01T21:00:00",26.1,27.585289,0.227],
    [25246,"urn:WaterMeter:MC0203J22010600005","2024-07-01T21:15:00",26.1,27.530167,0.226],
    [25247,"urn:WaterMeter:MC0203J22010600005","2024-07-01T21:30:00",26,27.493357,0.224],
    [25248,"urn:WaterMeter:MC0203J22010600005","2024-07-01T21:45:00",25.899,27.528616,0.238],
    [25249,"urn:WaterMeter:MC0203J22010600005","2024-07-01T22:00:00",25.799,27.50732,0.223],
    [25250,"urn:WaterMeter:MC0203J22010600005","2024-07-01T22:15:00",25.799,27.480167,0.228],
    [25251,"urn:WaterMeter:MC0203J22010600005","2024-07-01T22:30:00",25.7,27.521246,0.222],
    [25252,"urn:WaterMeter:MC0203J22010600005","2024-07-01T22:45:00",25.6,27.47784,0.219],
    [25253,"urn:WaterMeter:MC0203J22010600005","2024-07-01T23:00:00",25.5,27.506157,0.221],
    [25254,"urn:WaterMeter:MC0203J22010600005","2024-07-01T23:15:00",25.299,27.49258,0.237],
    [25255,"urn:WaterMeter:MC0203J22010600005","2024-07-01T23:30:00",25.299,27.492153,0.228],
    [25256,"urn:WaterMeter:MC0203J22010600005","2024-07-01T23:45:00",25.1,27.514303,0.229],
    [25257,"urn:WaterMeter:MC0203J22010600005","2024-07-02T00:00:00",25,27.479391,0.22],
    [25258,"urn:WaterMeter:MC0203J22010600005","2024-07-02T00:15:00",24.899,27.464264,0.233],
    [25259,"urn:WaterMeter:MC0203J22010600005","2024-07-02T00:30:00",24.899,27.478228,0.22],
    [25260,"urn:WaterMeter:MC0203J22010600005","2024-07-02T00:45:00",24.799,27.464651,0.221],
    [25261,"urn:WaterMeter:MC0203J22010600005","2024-07-02T01:00:00",24.799,27.460384,0.224],
    [25262,"urn:WaterMeter:MC0203J22010600005","2024-07-02T01:15:00",24.799,27.420042,0.227],
    [25263,"urn:WaterMeter:MC0203J22010600005","2024-07-02T01:30:00",24.7,27.437885,0.23],
    [25264,"urn:WaterMeter:MC0203J22010600005","2024-07-02T01:45:00",24.6,27.450647,0.23],
    [25265,"urn:WaterMeter:MC0203J22010600005","2024-07-02T02:00:00",24.6,27.44642,0.219],
    [25266,"urn:WaterMeter:MC0203J22010600005","2024-07-02T02:15:00",24.5,27.468142,0.234],
    [25267,"urn:WaterMeter:MC0203J22010600005","2024-07-02T02:30:00",24.5,27.454565,0.223],
    [25268,"urn:WaterMeter:MC0203J22010600005","2024-07-02T02:45:00",24.399,27.435558,0.228],
    [25269,"urn:WaterMeter:MC0203J22010600005","2024-07-02T03:00:00",24.299,27.443666,0.231],
    [25270,"urn:WaterMeter:MC0203J22010600005","2024-07-02T03:15:00",24.2,27.439825,0.233],
    [25271,"urn:WaterMeter:MC0203J22010600005","2024-07-02T03:30:00",24.2,27.46659,0.222],
    [25272,"urn:WaterMeter:MC0203J22010600005","2024-07-02T03:45:00",24.1,27.416552,0.231],
    [25273,"urn:WaterMeter:MC0203J22010600005","2024-07-02T04:00:00",24,27.420818,0.223],
    [25274,"urn:WaterMeter:MC0203J22010600005","2024-07-02T04:15:00",24,27.454954,0.225],
    [25275,"urn:WaterMeter:MC0203J22010600005","2024-07-02T04:30:00",23.899,27.486374,0.224],
    [25276,"urn:WaterMeter:MC0203J22010600005","2024-07-02T04:45:00",23.799,27.467754,0.222],
    [25277,"urn:WaterMeter:MC0203J22010600005","2024-07-02T05:00:00",23.799,27.4759,0.218],
    [25278,"urn:WaterMeter:MC0203J22010600005","2024-07-02T05:15:00",23.799,27.449873,0.23],
    [25279,"urn:WaterMeter:MC0203J22010600005","2024-07-02T05:30:00",23.7,27.430128,0.227],
    [25280,"urn:WaterMeter:MC0203J22010600005","2024-07-02T05:45:00",23.7,27.376598,0.223],
    [25281,"urn:WaterMeter:MC0203J22010600005","2024-07-02T06:00:00",23.7,27.359919,0.234],
    [25282,"urn:WaterMeter:MC0203J22010600005","2024-07-02T06:15:00",23.7,27.381641,0.225],
    [25283,"urn:WaterMeter:MC0203J22010600005","2024-07-02T06:30:00",23.799,27.334665,0.223],
    [25284,"urn:WaterMeter:MC0203J22010600005","2024-07-02T06:45:00",23.799,27.309103,0.23],
    [25285,"urn:WaterMeter:MC0203J22010600005","2024-07-02T07:00:00",23.899,27.31182,0.218],
    [25286,"urn:WaterMeter:MC0203J22010600005","2024-07-02T07:15:00",24,27.270313,0.219],
    [25287,"urn:WaterMeter:MC0203J22010600005","2024-07-02T07:30:00",24.1,27.233463,0.214],
    [25288,"urn:WaterMeter:MC0203J22010600005","2024-07-02T07:45:00",24.1,27.194674,0.212],
    [25289,"urn:WaterMeter:MC0203J22010600005","2024-07-02T08:00:00",24.299,27.182648,0.237],
    [25290,"urn:WaterMeter:MC0203J22010600005","2024-07-02T08:15:00",24.399,27.14347,0.229],
    [25291,"urn:WaterMeter:MC0203J22010600005","2024-07-02T08:30:00",24.5,27.077526,0.212],
    [25292,"urn:WaterMeter:MC0203J22010600005","2024-07-02T08:45:00",24.7,27.075161,0.225],
    [25293,"urn:WaterMeter:MC0203J22010600005","2024-07-02T09:00:00",24.899,27.005726,0.218],
    [25294,"urn:WaterMeter:MC0203J22010600005","2024-07-02T09:15:00",25.1,26.92,0.216],
    [25295,"urn:WaterMeter:MC0203J22010600005","2024-07-02T09:30:00",25.299,26.869186,0.217],
    [25296,"urn:WaterMeter:MC0203J22010600005","2024-07-02T09:45:00",25.5,26.830784,0.217],
    [25297,"urn:WaterMeter:MC0203J22010600005","2024-07-02T10:00:00",25.6,26.762552,0.209],
    [25298,"urn:WaterMeter:MC0203J22010600005","2024-07-02T10:15:00",25.799,26.697773,0.212],
    [25299,"urn:WaterMeter:MC0203J22010600005","2024-07-02T10:30:00",26,26.586445,0.21],
    [25300,"urn:WaterMeter:MC0203J22010600005","2024-07-02T10:45:00",26.299,26.547268,0.229],
    [25301,"urn:WaterMeter:MC0203J22010600005","2024-07-02T11:00:00",26.399,26.483614,0.212],
    [25302,"urn:WaterMeter:MC0203J22010600005","2024-07-02T11:15:00",26.6,26.376553,0.207],
    [25303,"urn:WaterMeter:MC0203J22010600005","2024-07-02T11:30:00",26.7,26.318756,0.202],
    [25304,"urn:WaterMeter:MC0203J22010600005","2024-07-02T11:45:00",26.799,26.254791,0.208],
    [25305,"urn:WaterMeter:MC0203J22010600005","2024-07-02T12:00:00",26.899,26.151182,0.197],
    [25306,"urn:WaterMeter:MC0203J22010600005","2024-07-02T12:15:00",27,26.093386,0.211],
    [25307,"urn:WaterMeter:MC0203J22010600005","2024-07-02T12:30:00",27.2,25.990244,0.199],
    [25308,"urn:WaterMeter:MC0203J22010600005","2024-07-02T12:45:00",27.299,25.911888,0.196],
    [25309,"urn:WaterMeter:MC0203J22010600005","2024-07-02T13:00:00",27.5,25.814913,0.197],
    [25310,"urn:WaterMeter:MC0203J22010600005","2024-07-02T13:15:00",27.6,25.762896,0.211],
    [25311,"urn:WaterMeter:MC0203J22010600005","2024-07-02T13:30:00",27.7,25.66208,0.217],
    [25312,"urn:WaterMeter:MC0203J22010600005","2024-07-02T13:45:00",27.799,25.558123,0.229],
    [25313,"urn:WaterMeter:MC0203J22010600005","2024-07-02T14:00:00",27.799,25.473133,0.211],
    [25314,"urn:WaterMeter:MC0203J22010600005","2024-07-02T14:15:00",28,25.389387,0.202],
    [25315,"urn:WaterMeter:MC0203J22010600005","2024-07-02T14:30:00",28,25.272629,0.192],
    [25316,"urn:WaterMeter:MC0203J22010600005","2024-07-02T14:45:00",28.1,25.201216,0.194],
    [25317,"urn:WaterMeter:MC0203J22010600005","2024-07-02T15:00:00",28.1,25.130268,0.189],
    [25318,"urn:WaterMeter:MC0203J22010600005","2024-07-02T15:15:00",28.1,25.039112,0.184],
    [25319,"urn:WaterMeter:MC0203J22010600005","2024-07-02T15:30:00",28.1,24.961533,0.191],
    [25320,"urn:WaterMeter:MC0203J22010600005","2024-07-02T15:45:00",28.1,24.903347,0.202],
    [25321,"urn:WaterMeter:MC0203J22010600005","2024-07-02T16:00:00",28.1,24.841671,0.197],
    [25322,"urn:WaterMeter:MC0203J22010600005","2024-07-02T16:15:00",28.1,24.733059,0.189],
    [25323,"urn:WaterMeter:MC0203J22010600005","2024-07-02T16:30:00",28.1,24.654316,0.191],
    [25324,"urn:WaterMeter:MC0203J22010600005","2024-07-02T16:45:00",28,24.582516,0.189],
    [25325,"urn:WaterMeter:MC0203J22010600005","2024-07-02T17:00:00",28,24.509628,0.186],
    [25326,"urn:WaterMeter:MC0203J22010600005","2024-07-02T17:15:00",27.899,24.403732,0.197],
    [25327,"urn:WaterMeter:MC0203J22010600005","2024-07-02T17:30:00",27.899,24.382786,0.191],
    [25328,"urn:WaterMeter:MC0203J22010600005","2024-07-02T17:45:00",27.899,24.325764,0.182],
    [25329,"urn:WaterMeter:MC0203J22010600005","2024-07-02T18:00:00",27.799,24.244694,0.189],
    [25330,"urn:WaterMeter:MC0203J22010600005","2024-07-02T18:15:00",27.7,24.174833,0.191],
    [25331,"urn:WaterMeter:MC0203J22010600005","2024-07-02T18:30:00",27.7,24.113583,0.181],
    [25332,"urn:WaterMeter:MC0203J22010600005","2024-07-02T18:45:00",27.6,24.041046,0.183],
    [25333,"urn:WaterMeter:MC0203J22010600005","2024-07-02T19:00:00",27.399,24.017345,0.184],
    [25334,"urn:WaterMeter:MC0203J22010600005","2024-07-02T19:15:00",27.299,23.978943,0.183],
    [25335,"urn:WaterMeter:MC0203J22010600005","2024-07-02T19:30:00",27.2,23.939766,0.18],
    [25336,"urn:WaterMeter:MC0203J22010600005","2024-07-02T19:45:00",27,23.908384,0.179],
    [25337,"urn:WaterMeter:MC0203J22010600005","2024-07-02T20:00:00",26.899,23.849035,0.189],
    [25338,"urn:WaterMeter:MC0203J22010600005","2024-07-02T20:15:00",26.799,23.871922,0.192],
    [25339,"urn:WaterMeter:MC0203J22010600005","2024-07-02T20:30:00",26.7,23.83895,0.185],
    [25340,"urn:WaterMeter:MC0203J22010600005","2024-07-02T20:45:00",26.6,23.79822,0.181],
    [25341,"urn:WaterMeter:MC0203J22010600005","2024-07-02T21:00:00",26.6,23.814125,0.176],
    [25342,"urn:WaterMeter:MC0203J22010600005","2024-07-02T21:15:00",26.5,23.774946,0.179],
    [25343,"urn:WaterMeter:MC0203J22010600005","2024-07-02T21:30:00",26.5,23.753613,0.179],
    [25344,"urn:WaterMeter:MC0203J22010600005","2024-07-02T21:45:00",26.399,23.73538,0.176],
    [25345,"urn:WaterMeter:MC0203J22010600005","2024-07-02T22:00:00",26.299,23.749346,0.19],
    [25346,"urn:WaterMeter:MC0203J22010600005","2024-07-02T22:15:00",26.299,23.67642,0.185],
    [25347,"urn:WaterMeter:MC0203J22010600005","2024-07-02T22:30:00",26.2,23.696203,0.185],
    [25348,"urn:WaterMeter:MC0203J22010600005","2024-07-02T22:45:00",26.2,23.693487,0.176],
    [25349,"urn:WaterMeter:MC0203J22010600005","2024-07-02T23:00:00",26.1,23.6213,0.174],
    [25350,"urn:WaterMeter:MC0203J22010600005","2024-07-02T23:15:00",26,23.651556,0.183],
    [25351,"urn:WaterMeter:MC0203J22010600005","2024-07-02T23:30:00",25.899,23.627544,0.181],
    [25352,"urn:WaterMeter:MC0203J22010600005","2024-07-02T23:45:00",25.899,23.606985,0.177],
    [25353,"urn:WaterMeter:MC0203J22010600005","2024-07-03T00:00:00",25.799,23.608538,0.172],
    [25354,"urn:WaterMeter:MC0203J22010600005","2024-07-03T00:15:00",25.7,23.586039,0.182],
    [25355,"urn:WaterMeter:MC0203J22010600005","2024-07-03T00:30:00",25.7,23.561602,0.181],
    [25356,"urn:WaterMeter:MC0203J22010600005","2024-07-03T00:45:00",25.6,23.537552,0.182],
    [25357,"urn:WaterMeter:MC0203J22010600005","2024-07-03T01:00:00",25.5,23.548412,0.185],
    [25358,"urn:WaterMeter:MC0203J22010600005","2024-07-03T01:15:00",25.399,23.558498,0.172],
    [25359,"urn:WaterMeter:MC0203J22010600005","2024-07-03T01:30:00",25.299,23.51195,0.181],
    [25360,"urn:WaterMeter:MC0203J22010600005","2024-07-03T01:45:00",25.2,23.5251,0.173],
    [25361,"urn:WaterMeter:MC0203J22010600005","2024-07-03T02:00:00",25.1,23.510399,0.185],
    [25362,"urn:WaterMeter:MC0203J22010600005","2024-07-03T02:15:00",25,23.44562,0.177],
    [25363,"urn:WaterMeter:MC0203J22010600005","2024-07-03T02:30:00",25,23.484797,0.18],
    [25364,"urn:WaterMeter:MC0203J22010600005","2024-07-03T02:45:00",24.899,23.4398,0.177],
    [25365,"urn:WaterMeter:MC0203J22010600005","2024-07-03T03:00:00",24.799,23.48441,0.186],
    [25366,"urn:WaterMeter:MC0203J22010600005","2024-07-03T03:15:00",24.7,23.44523,0.186],
    [25367,"urn:WaterMeter:MC0203J22010600005","2024-07-03T03:30:00",24.7,23.474285,0.174],
    [25368,"urn:WaterMeter:MC0203J22010600005","2024-07-03T03:45:00",24.6,23.4623,0.18],
    [25369,"urn:WaterMeter:MC0203J22010600005","2024-07-03T04:00:00",24.5,23.43282,0.178],
    [25370,"urn:WaterMeter:MC0203J22010600005","2024-07-03T04:15:00",24.5,23.44752,0.177],
    [25371,"urn:WaterMeter:MC0203J22010600005","2024-07-03T04:30:00",24.399,23.436272,0.18],
    [25372,"urn:WaterMeter:MC0203J22010600005","2024-07-03T04:45:00",24.299,23.404501,0.176],
    [25373,"urn:WaterMeter:MC0203J22010600005","2024-07-03T05:00:00",24.2,23.401787,0.181],
    [25374,"urn:WaterMeter:MC0203J22010600005","2024-07-03T05:15:00",24.2,23.44213,0.182],
    [25375,"urn:WaterMeter:MC0203J22010600005","2024-07-03T05:30:00",24.1,23.387047,0.188],
    [25376,"urn:WaterMeter:MC0203J22010600005","2024-07-03T05:45:00",24.1,23.357178,0.178],
    [25377,"urn:WaterMeter:MC0203J22010600005","2024-07-03T06:00:00",24.1,23.39558,0.18],
    [25378,"urn:WaterMeter:MC0203J22010600005","2024-07-03T06:15:00",24.2,23.404114,0.175],
    [25379,"urn:WaterMeter:MC0203J22010600005","2024-07-03T06:30:00",24.2,23.409506,0.177],
    [25380,"urn:WaterMeter:MC0203J22010600005","2024-07-03T06:45:00",24.299,23.368427,0.178],
    [25381,"urn:WaterMeter:MC0203J22010600005","2024-07-03T07:00:00",24.299,23.315285,0.174],
    [25382,"urn:WaterMeter:MC0203J22010600005","2024-07-03T07:15:00",24.5,23.283865,0.187],
    [25383,"urn:WaterMeter:MC0203J22010600005","2024-07-03T07:30:00",24.7,23.256325,0.168],
    [25384,"urn:WaterMeter:MC0203J22010600005","2024-07-03T07:45:00",24.899,23.23305,0.169],
    [25385,"urn:WaterMeter:MC0203J22010600005","2024-07-03T08:00:00",25,23.196976,0.168],
    [25386,"urn:WaterMeter:MC0203J22010600005","2024-07-03T08:15:00",25.1,23.160126,0.172],
    [25387,"urn:WaterMeter:MC0203J22010600005","2024-07-03T08:30:00",25.299,23.106169,0.178],
    [25388,"urn:WaterMeter:MC0203J22010600005","2024-07-03T08:45:00",25.399,23.201242,0.195],
    [25389,"urn:WaterMeter:MC0203J22010600005","2024-07-03T09:00:00",25.6,24.057299,0.194],
    [25390,"urn:WaterMeter:MC0203J22010600005","2024-07-03T09:15:00",25.799,25.385895,0.219],
    [25391,"urn:WaterMeter:MC0203J22010600005","2024-07-03T09:30:00",26.1,26.563948,0.245],
    [25392,"urn:WaterMeter:MC0203J22010600005","2024-07-03T09:45:00",26.299,27.416939,0.233],
    [25393,"urn:WaterMeter:MC0203J22010600005","2024-07-03T10:00:00",26.399,27.918844,0.251],
    [25394,"urn:WaterMeter:MC0203J22010600005","2024-07-03T10:15:00",26.6,28.289326,0.247],
    [25395,"urn:WaterMeter:MC0203J22010600005","2024-07-03T10:30:00",26.799,28.610508,0.254],
    [25396,"urn:WaterMeter:MC0203J22010600005","2024-07-03T10:45:00",27,28.80054,0.248],
    [25397,"urn:WaterMeter:MC0203J22010600005","2024-07-03T11:00:00",27.2,28.927383,0.247],
    [25398,"urn:WaterMeter:MC0203J22010600005","2024-07-03T11:15:00",27.399,28.96117,0.258],
    [25399,"urn:WaterMeter:MC0203J22010600005","2024-07-03T11:30:00",27.5,29.000734,0.249],
    [25400,"urn:WaterMeter:MC0203J22010600005","2024-07-03T11:45:00",27.7,29.04961,0.24],
    [25401,"urn:WaterMeter:MC0203J22010600005","2024-07-03T12:00:00",27.799,29.034483,0.242],
    [25402,"urn:WaterMeter:MC0203J22010600005","2024-07-03T12:15:00",27.799,28.967764,0.249],
    [25403,"urn:WaterMeter:MC0203J22010600005","2024-07-03T12:30:00",28,28.913458,0.247],
    [25404,"urn:WaterMeter:MC0203J22010600005","2024-07-03T12:45:00",28,28.881649,0.252],
    [25405,"urn:WaterMeter:MC0203J22010600005","2024-07-03T13:00:00",28.2,28.852945,0.233],
    [25406,"urn:WaterMeter:MC0203J22010600005","2024-07-03T13:15:00",28.2,28.846312,0.253],
    [25407,"urn:WaterMeter:MC0203J22010600005","2024-07-03T13:30:00",28.299,28.758297,0.252],
    [25408,"urn:WaterMeter:MC0203J22010600005","2024-07-03T13:45:00",28.399,28.702053,0.248],
    [25409,"urn:WaterMeter:MC0203J22010600005","2024-07-03T14:00:00",28.5,28.666754,0.247],
    [25410,"urn:WaterMeter:MC0203J22010600005","2024-07-03T14:15:00",28.6,28.572882,0.249],
    [25411,"urn:WaterMeter:MC0203J22010600005","2024-07-03T14:30:00",28.7,28.52323,0.236],
    [25412,"urn:WaterMeter:MC0203J22010600005","2024-07-03T14:45:00",28.7,28.472803,0.247],
    [25413,"urn:WaterMeter:MC0203J22010600005","2024-07-03T15:00:00",28.799,28.391344,0.241],
    [25414,"urn:WaterMeter:MC0203J22010600005","2024-07-03T15:15:00",28.799,28.3626,0.248],
    [25415,"urn:WaterMeter:MC0203J22010600005","2024-07-03T15:30:00",28.899,28.342043,0.254],
    [25416,"urn:WaterMeter:MC0203J22010600005","2024-07-03T15:45:00",28.899,28.311049,0.241],
    [25417,"urn:WaterMeter:MC0203J22010600005","2024-07-03T16:00:00",28.799,28.223772,0.252],
    [25418,"urn:WaterMeter:MC0203J22010600005","2024-07-03T16:15:00",28.799,28.196619,0.247],
    [25419,"urn:WaterMeter:MC0203J22010600005","2024-07-03T16:30:00",28.799,28.143476,0.235],
    [25420,"urn:WaterMeter:MC0203J22010600005","2024-07-03T16:45:00",28.799,28.073227,0.244],
    [25421,"urn:WaterMeter:MC0203J22010600005","2024-07-03T17:00:00",28.7,28.023228,0.232],
    [25422,"urn:WaterMeter:MC0203J22010600005","2024-07-03T17:15:00",28.7,27.956081,0.245],
    [25423,"urn:WaterMeter:MC0203J22010600005","2024-07-03T17:30:00",28.7,27.902979,0.235],
    [25424,"urn:WaterMeter:MC0203J22010600005","2024-07-03T17:45:00",28.6,27.890953,0.237],
    [25425,"urn:WaterMeter:MC0203J22010600005","2024-07-03T18:00:00",28.5,27.845957,0.245],
    [25426,"urn:WaterMeter:MC0203J22010600005","2024-07-03T18:15:00",28.5,27.801697,0.245],
    [25427,"urn:WaterMeter:MC0203J22010600005","2024-07-03T18:30:00",28.399,27.75674,0.226],
    [25428,"urn:WaterMeter:MC0203J22010600005","2024-07-03T18:45:00",28.299,27.752434,0.235],
    [25429,"urn:WaterMeter:MC0203J22010600005","2024-07-03T19:00:00",28.2,27.74235,0.234],
    [25430,"urn:WaterMeter:MC0203J22010600005","2024-07-03T19:15:00",28.1,27.710968,0.256],
    [25431,"urn:WaterMeter:MC0203J22010600005","2024-07-03T19:30:00",28,27.703947,0.24],
    [25432,"urn:WaterMeter:MC0203J22010600005","2024-07-03T19:45:00",27.899,27.678772,0.226],
    [25433,"urn:WaterMeter:MC0203J22010600005","2024-07-03T20:00:00",27.7,27.671015,0.224],
    [25434,"urn:WaterMeter:MC0203J22010600005","2024-07-03T20:15:00",27.6,27.66248,0.246],
    [25435,"urn:WaterMeter:MC0203J22010600005","2024-07-03T20:30:00",27.5,27.675241,0.226],
    [25436,"urn:WaterMeter:MC0203J22010600005","2024-07-03T20:45:00",27.5,27.648516,0.242],
    [25437,"urn:WaterMeter:MC0203J22010600005","2024-07-03T21:00:00",27.399,27.627142,0.226],
    [25438,"urn:WaterMeter:MC0203J22010600005","2024-07-03T21:15:00",27.299,27.630285,0.239],
    [25439,"urn:WaterMeter:MC0203J22010600005","2024-07-03T21:30:00",27.2,27.652006,0.238],
    [25440,"urn:WaterMeter:MC0203J22010600005","2024-07-03T21:45:00",27.1,27.622915,0.23],
    [25441,"urn:WaterMeter:MC0203J22010600005","2024-07-03T22:00:00",27.1,27.586025,0.229],
    [25442,"urn:WaterMeter:MC0203J22010600005","2024-07-03T22:15:00",27,27.589128,0.225],
    [25443,"urn:WaterMeter:MC0203J22010600005","2024-07-03T22:30:00",26.899,27.633389,0.221],
    [25444,"urn:WaterMeter:MC0203J22010600005","2024-07-03T22:45:00",26.799,27.563177,0.237],
    [25445,"urn:WaterMeter:MC0203J22010600005","2024-07-03T23:00:00",26.7,27.593822,0.224],
    [25446,"urn:WaterMeter:MC0203J22010600005","2024-07-03T23:15:00",26.7,27.582186,0.233],
    [25447,"urn:WaterMeter:MC0203J22010600005","2024-07-03T23:30:00",26.6,27.558485,0.235],
    [25448,"urn:WaterMeter:MC0203J22010600005","2024-07-03T23:45:00",26.5,27.588741,0.233],
    [25449,"urn:WaterMeter:MC0203J22010600005","2024-07-04T00:00:00",26.399,27.580633,0.233],
    [25450,"urn:WaterMeter:MC0203J22010600005","2024-07-04T00:15:00",26.299,27.548786,0.234],
    [25451,"urn:WaterMeter:MC0203J22010600005","2024-07-04T00:30:00",26.2,27.554644,0.234],
    [25452,"urn:WaterMeter:MC0203J22010600005","2024-07-04T00:45:00",26.1,27.537964,0.233],
    [25453,"urn:WaterMeter:MC0203J22010600005","2024-07-04T01:00:00",26,27.548012,0.236],
    [25454,"urn:WaterMeter:MC0203J22010600005","2024-07-04T01:15:00",26,27.56085,0.236],
    [25455,"urn:WaterMeter:MC0203J22010600005","2024-07-04T01:30:00",25.899,27.54064,0.227],
    [25456,"urn:WaterMeter:MC0203J22010600005","2024-07-04T01:45:00",25.799,27.530167,0.22],
    [25457,"urn:WaterMeter:MC0203J22010600005","2024-07-04T02:00:00",25.7,27.536024,0.23],
    [25458,"urn:WaterMeter:MC0203J22010600005","2024-07-04T02:15:00",25.6,27.534473,0.242],
    [25459,"urn:WaterMeter:MC0203J22010600005","2024-07-04T02:30:00",25.5,27.508833,0.222],
    [25460,"urn:WaterMeter:MC0203J22010600005","2024-07-04T02:45:00",25.399,27.537964,0.226],
    [25461,"urn:WaterMeter:MC0203J22010600005","2024-07-04T03:00:00",25.299,27.534086,0.218],
    [25462,"urn:WaterMeter:MC0203J22010600005","2024-07-04T03:15:00",25.299,27.489826,0.227],
    [25463,"urn:WaterMeter:MC0203J22010600005","2024-07-04T03:30:00",25.2,27.478228,0.236],
    [25464,"urn:WaterMeter:MC0203J22010600005","2024-07-04T03:45:00",25.1,27.515854,0.228],
    [25465,"urn:WaterMeter:MC0203J22010600005","2024-07-04T04:00:00",25,27.460772,0.223],
    [25466,"urn:WaterMeter:MC0203J22010600005","2024-07-04T04:15:00",25,27.47784,0.223],
    [25467,"urn:WaterMeter:MC0203J22010600005","2024-07-04T04:30:00",24.899,27.469267,0.229],
    [25468,"urn:WaterMeter:MC0203J22010600005","2024-07-04T04:45:00",24.799,27.44642,0.235],
    [25469,"urn:WaterMeter:MC0203J22010600005","2024-07-04T05:00:00",24.7,27.457668,0.237],
    [25470,"urn:WaterMeter:MC0203J22010600005","2024-07-04T05:15:00",24.6,27.47082,0.221],
    [25471,"urn:WaterMeter:MC0203J22010600005","2024-07-04T05:30:00",24.6,27.49452,0.232],
    [25472,"urn:WaterMeter:MC0203J22010600005","2024-07-04T05:45:00",24.5,27.464651,0.24],
    [25473,"urn:WaterMeter:MC0203J22010600005","2024-07-04T06:00:00",24.5,27.430477,0.224],
    [25474,"urn:WaterMeter:MC0203J22010600005","2024-07-04T06:15:00",24.6,27.428577,0.221],
    [25475,"urn:WaterMeter:MC0203J22010600005","2024-07-04T06:30:00",24.6,27.400259,0.235],
    [25476,"urn:WaterMeter:MC0203J22010600005","2024-07-04T06:45:00",24.6,27.395178,0.233],
    [25477,"urn:WaterMeter:MC0203J22010600005","2024-07-04T07:00:00",24.7,27.376986,0.221],
    [25478,"urn:WaterMeter:MC0203J22010600005","2024-07-04T07:15:00",24.799,27.368452,0.217],
    [25479,"urn:WaterMeter:MC0203J22010600005","2024-07-04T07:30:00",25,27.345915,0.219],
    [25480,"urn:WaterMeter:MC0203J22010600005","2024-07-04T07:45:00",25.1,27.26721,0.226],
    [25481,"urn:WaterMeter:MC0203J22010600005","2024-07-04T08:00:00",25.299,27.248552,0.217],
    [25482,"urn:WaterMeter:MC0203J22010600005","2024-07-04T08:15:00",25.399,27.22299,0.226],
    [25483,"urn:WaterMeter:MC0203J22010600005","2024-07-04T08:30:00",25.6,27.150452,0.217],
    [25484,"urn:WaterMeter:MC0203J22010600005","2024-07-04T08:45:00",25.7,27.117092,0.222],
    [25485,"urn:WaterMeter:MC0203J22010600005","2024-07-04T09:00:00",25.899,27.06236,0.215],
    [25486,"urn:WaterMeter:MC0203J22010600005","2024-07-04T09:15:00",26.1,27.005339,0.215],
    [25487,"urn:WaterMeter:MC0203J22010600005","2024-07-04T09:30:00",26.299,26.92198,0.214],
    [25488,"urn:WaterMeter:MC0203J22010600005","2024-07-04T09:45:00",26.5,26.851343,0.218],
    [25489,"urn:WaterMeter:MC0203J22010600005","2024-07-04T10:00:00",26.6,26.783072,0.217],
    [25490,"urn:WaterMeter:MC0203J22010600005","2024-07-04T10:15:00",26.799,26.736176,0.237],
    [25491,"urn:WaterMeter:MC0203J22010600005","2024-07-04T10:30:00",26.899,26.632607,0.236],
    [25492,"urn:WaterMeter:MC0203J22010600005","2024-07-04T10:45:00",27.1,26.552698,0.207],
    [25493,"urn:WaterMeter:MC0203J22010600005","2024-07-04T11:00:00",27.299,26.483225,0.215],
    [25494,"urn:WaterMeter:MC0203J22010600005","2024-07-04T11:15:00",27.5,26.416157,0.208],
    [25495,"urn:WaterMeter:MC0203J22010600005","2024-07-04T11:30:00",27.6,26.30673,0.222],
    [25496,"urn:WaterMeter:MC0203J22010600005","2024-07-04T11:45:00",27.6,26.186522,0.209],
    [25497,"urn:WaterMeter:MC0203J22010600005","2024-07-04T12:00:00",27.7,26.11088,0.214],
    [25498,"urn:WaterMeter:MC0203J22010600005","2024-07-04T12:15:00",27.799,26.056536,0.225],
    [25499,"urn:WaterMeter:MC0203J22010600005","2024-07-04T12:30:00",27.899,25.942144,0.213],
    [25500,"urn:WaterMeter:MC0203J22010600005","2024-07-04T12:45:00",28,25.840088,0.205],
    [25501,"urn:WaterMeter:MC0203J22010600005","2024-07-04T13:00:00",28.2,25.746603,0.205],
    [25502,"urn:WaterMeter:MC0203J22010600005","2024-07-04T13:15:00",28.299,25.626741,0.208],
    [25503,"urn:WaterMeter:MC0203J22010600005","2024-07-04T13:30:00",28.399,25.524763,0.203],
    [25504,"urn:WaterMeter:MC0203J22010600005","2024-07-04T13:45:00",28.399,25.443691,0.197],
    [25505,"urn:WaterMeter:MC0203J22010600005","2024-07-04T14:00:00",28.5,25.299355,0.198],
    [25506,"urn:WaterMeter:MC0203J22010600005","2024-07-04T14:15:00",28.6,25.182985,0.201],
    [25507,"urn:WaterMeter:MC0203J22010600005","2024-07-04T14:30:00",28.6,25.122124,0.202],
    [25508,"urn:WaterMeter:MC0203J22010600005","2024-07-04T14:45:00",28.6,25.007265,0.199],
    [25509,"urn:WaterMeter:MC0203J22010600005","2024-07-04T15:00:00",28.6,24.89012,0.19],
    [25510,"urn:WaterMeter:MC0203J22010600005","2024-07-04T15:15:00",28.6,24.797451,0.205],
    [25511,"urn:WaterMeter:MC0203J22010600005","2024-07-04T15:30:00",28.6,24.715178,0.199],
    [25512,"urn:WaterMeter:MC0203J22010600005","2024-07-04T15:45:00",28.6,24.62053,0.19],
    [25513,"urn:WaterMeter:MC0203J22010600005","2024-07-04T16:00:00",28.5,24.528248,0.199],
    [25514,"urn:WaterMeter:MC0203J22010600005","2024-07-04T16:15:00",28.5,24.421188,0.194],
    [25515,"urn:WaterMeter:MC0203J22010600005","2024-07-04T16:30:00",28.399,24.368395,0.193],
    [25516,"urn:WaterMeter:MC0203J22010600005","2024-07-04T16:45:00",28.399,24.283096,0.192],
    [25517,"urn:WaterMeter:MC0203J22010600005","2024-07-04T17:00:00",28.299,24.179525,0.199],
    [25518,"urn:WaterMeter:MC0203J22010600005","2024-07-04T17:15:00",28.2,24.089922,0.187],
    [25519,"urn:WaterMeter:MC0203J22010600005","2024-07-04T17:30:00",28.2,24.057686,0.174],
    [25520,"urn:WaterMeter:MC0203J22010600005","2024-07-04T17:45:00",28.1,23.997213,0.194],
    [25521,"urn:WaterMeter:MC0203J22010600005","2024-07-04T18:00:00",28,23.877739,0.183],
    [25522,"urn:WaterMeter:MC0203J22010600005","2024-07-04T18:15:00",27.899,23.821495,0.185],
    [25523,"urn:WaterMeter:MC0203J22010600005","2024-07-04T18:30:00",27.799,23.778011,0.185],
    [25524,"urn:WaterMeter:MC0203J22010600005","2024-07-04T18:45:00",27.7,23.704737,0.165],
    [25525,"urn:WaterMeter:MC0203J22010600005","2024-07-04T19:00:00",27.6,23.653534,0.181],
    [25526,"urn:WaterMeter:MC0203J22010600005","2024-07-04T19:15:00",27.5,23.638405,0.183],
    [25527,"urn:WaterMeter:MC0203J22010600005","2024-07-04T19:30:00",27.399,23.606985,0.189],
    [25528,"urn:WaterMeter:MC0203J22010600005","2024-07-04T19:45:00",27.299,23.565868,0.182],
    [25529,"urn:WaterMeter:MC0203J22010600005","2024-07-04T20:00:00",27.2,23.53441,0.177],
    [25530,"urn:WaterMeter:MC0203J22010600005","2024-07-04T20:15:00",27.2,23.494844,0.177],
    [25531,"urn:WaterMeter:MC0203J22010600005","2024-07-04T20:30:00",27.1,23.475836,0.188],
    [25532,"urn:WaterMeter:MC0203J22010600005","2024-07-04T20:45:00",27,23.44752,0.182],
    [25533,"urn:WaterMeter:MC0203J22010600005","2024-07-04T21:00:00",26.899,23.394028,0.188],
    [25534,"urn:WaterMeter:MC0203J22010600005","2024-07-04T21:15:00",26.799,23.39942,0.184],
    [25535,"urn:WaterMeter:MC0203J22010600005","2024-07-04T21:30:00",26.7,23.389336,0.173],
    [25536,"urn:WaterMeter:MC0203J22010600005","2024-07-04T21:45:00",26.6,23.373857,0.183],
    [25537,"urn:WaterMeter:MC0203J22010600005","2024-07-04T22:00:00",26.5,23.343601,0.174],
    [25538,"urn:WaterMeter:MC0203J22010600005","2024-07-04T22:15:00",26.399,23.30326,0.188],
    [25539,"urn:WaterMeter:MC0203J22010600005","2024-07-04T22:30:00",26.299,23.316061,0.179],
    [25540,"urn:WaterMeter:MC0203J22010600005","2024-07-04T22:45:00",26.2,23.289684,0.177],
    [25541,"urn:WaterMeter:MC0203J22010600005","2024-07-04T23:00:00",26.1,23.254345,0.171],
    [25542,"urn:WaterMeter:MC0203J22010600005","2024-07-04T23:15:00",26,23.213266,0.173],
    [25543,"urn:WaterMeter:MC0203J22010600005","2024-07-04T23:30:00",25.899,23.226456,0.172],
    [25544,"urn:WaterMeter:MC0203J22010600005","2024-07-04T23:45:00",25.799,23.231499,0.179],
    [25545,"urn:WaterMeter:MC0203J22010600005","2024-07-05T00:00:00",25.7,23.215982,0.172],
    [25546,"urn:WaterMeter:MC0203J22010600005","2024-07-05T00:15:00",25.6,23.19426,0.185],
    [25547,"urn:WaterMeter:MC0203J22010600005","2024-07-05T00:30:00",25.5,23.19969,0.179],
    [25548,"urn:WaterMeter:MC0203J22010600005","2024-07-05T00:45:00",25.399,23.205082,0.169],
    [25549,"urn:WaterMeter:MC0203J22010600005","2024-07-05T01:00:00",25.299,23.156982,0.175],
    [25550,"urn:WaterMeter:MC0203J22010600005","2024-07-05T01:15:00",25.2,23.113964,0.17],
    [25551,"urn:WaterMeter:MC0203J22010600005","2024-07-05T01:30:00",25,23.144182,0.183],
    [25552,"urn:WaterMeter:MC0203J22010600005","2024-07-05T01:45:00",24.899,23.14073,0.183],
    [25553,"urn:WaterMeter:MC0203J22010600005","2024-07-05T02:00:00",24.799,23.11858,0.176],
    [25554,"urn:WaterMeter:MC0203J22010600005","2024-07-05T02:15:00",24.7,23.113577,0.176],
    [25555,"urn:WaterMeter:MC0203J22010600005","2024-07-05T02:30:00",24.7,23.070908,0.181],
    [25556,"urn:WaterMeter:MC0203J22010600005","2024-07-05T02:45:00",24.6,23.08755,0.179],
    [25557,"urn:WaterMeter:MC0203J22010600005","2024-07-05T03:00:00",24.6,23.077114,0.169],
    [25558,"urn:WaterMeter:MC0203J22010600005","2024-07-05T03:15:00",24.5,23.049923,0.172],
    [25559,"urn:WaterMeter:MC0203J22010600005","2024-07-05T03:30:00",24.399,23.07052,0.176],
    [25560,"urn:WaterMeter:MC0203J22010600005","2024-07-05T03:45:00",24.299,23.032118,0.178],
    [25561,"urn:WaterMeter:MC0203J22010600005","2024-07-05T04:00:00",24.299,23.005352,0.175],
    [25562,"urn:WaterMeter:MC0203J22010600005","2024-07-05T04:15:00",24.2,23.03945,0.179],
    [25563,"urn:WaterMeter:MC0203J22010600005","2024-07-05T04:30:00",24.1,22.999146,0.178],
    [25564,"urn:WaterMeter:MC0203J22010600005","2024-07-05T04:45:00",24.1,23.003025,0.169],
    [25565,"urn:WaterMeter:MC0203J22010600005","2024-07-05T05:00:00",24,22.996431,0.178],
    [25566,"urn:WaterMeter:MC0203J22010600005","2024-07-05T05:15:00",23.899,22.996431,0.183],
    [25567,"urn:WaterMeter:MC0203J22010600005","2024-07-05T05:30:00",23.799,22.947556,0.17],
    [25568,"urn:WaterMeter:MC0203J22010600005","2024-07-05T05:45:00",23.7,22.966562,0.166],
    [25569,"urn:WaterMeter:MC0203J22010600005","2024-07-05T06:00:00",23.7,22.904072,0.162],
    [25570,"urn:WaterMeter:MC0203J22010600005","2024-07-05T06:15:00",23.7,22.932777,0.166],
    [25571,"urn:WaterMeter:MC0203J22010600005","2024-07-05T06:30:00",23.7,22.872303,0.17],
    [25572,"urn:WaterMeter:MC0203J22010600005","2024-07-05T06:45:00",23.6,22.869976,0.167],
    [25573,"urn:WaterMeter:MC0203J22010600005","2024-07-05T07:00:00",23.7,22.829634,0.169],
    [25574,"urn:WaterMeter:MC0203J22010600005","2024-07-05T07:15:00",23.899,22.726065,0.171],
    [25575,"urn:WaterMeter:MC0203J22010600005","2024-07-05T07:30:00",24.1,22.768696,0.168],
    [25576,"urn:WaterMeter:MC0203J22010600005","2024-07-05T07:45:00",24.299,22.731495,0.176],
    [25577,"urn:WaterMeter:MC0203J22010600005","2024-07-05T08:00:00",24.5,22.656242,0.162],
    [25578,"urn:WaterMeter:MC0203J22010600005","2024-07-05T08:15:00",24.6,22.599997,0.162],
    [25579,"urn:WaterMeter:MC0203J22010600005","2024-07-05T08:30:00",24.799,22.498367,0.166],
    [25580,"urn:WaterMeter:MC0203J22010600005","2024-07-05T08:45:00",24.899,22.69034,0.173],
    [25581,"urn:WaterMeter:MC0203J22010600005","2024-07-05T09:00:00",25.1,23.79663,0.191],
    [25582,"urn:WaterMeter:MC0203J22010600005","2024-07-05T09:15:00",25.299,25.061222,0.214],
    [25583,"urn:WaterMeter:MC0203J22010600005","2024-07-05T09:30:00",25.5,26.2404,0.233],
    [25584,"urn:WaterMeter:MC0203J22010600005","2024-07-05T09:45:00",25.7,27.054602,0.24],
    [25585,"urn:WaterMeter:MC0203J22010600005","2024-07-05T10:00:00",25.899,27.546497,0.255],
    [25586,"urn:WaterMeter:MC0203J22010600005","2024-07-05T10:15:00",26,27.898285,0.246],
    [25587,"urn:WaterMeter:MC0203J22010600005","2024-07-05T10:30:00",26.2,28.203213,0.261],
    [25588,"urn:WaterMeter:MC0203J22010600005","2024-07-05T10:45:00",26.5,28.395224,0.242],
    [25589,"urn:WaterMeter:MC0203J22010600005","2024-07-05T11:00:00",26.7,28.539484,0.256],
    [25590,"urn:WaterMeter:MC0203J22010600005","2024-07-05T11:15:00",26.799,28.655077,0.269],
    [25591,"urn:WaterMeter:MC0203J22010600005","2024-07-05T11:30:00",26.899,28.643867,0.245],
    [25592,"urn:WaterMeter:MC0203J22010600005","2024-07-05T11:45:00",27,28.731493,0.26],
    [25593,"urn:WaterMeter:MC0203J22010600005","2024-07-05T12:00:00",27,28.731882,0.252],
    [25594,"urn:WaterMeter:MC0203J22010600005","2024-07-05T12:15:00",27.2,28.69895,0.242],
    [25595,"urn:WaterMeter:MC0203J22010600005","2024-07-05T12:30:00",27.299,28.692703,0.252],
    [25596,"urn:WaterMeter:MC0203J22010600005","2024-07-05T12:45:00",27.399,28.652014,0.241],
    [25597,"urn:WaterMeter:MC0203J22010600005","2024-07-05T13:00:00",27.5,28.604689,0.241],
    [25598,"urn:WaterMeter:MC0203J22010600005","2024-07-05T13:15:00",27.5,28.584518,0.265],
    [25599,"urn:WaterMeter:MC0203J22010600005","2024-07-05T13:30:00",27.6,28.535992,0.252],
    [25600,"urn:WaterMeter:MC0203J22010600005","2024-07-05T13:45:00",27.7,28.505,0.251],
    [25601,"urn:WaterMeter:MC0203J22010600005","2024-07-05T14:00:00",27.7,28.466597,0.238],
    [25602,"urn:WaterMeter:MC0203J22010600005","2024-07-05T14:15:00",27.799,28.38824,0.254],
    [25603,"urn:WaterMeter:MC0203J22010600005","2024-07-05T14:30:00",27.799,28.350615,0.259],
    [25604,"urn:WaterMeter:MC0203J22010600005","2024-07-05T14:45:00",27.799,28.290102,0.247],
    [25605,"urn:WaterMeter:MC0203J22010600005","2024-07-05T15:00:00",27.799,28.272259,0.256],
    [25606,"urn:WaterMeter:MC0203J22010600005","2024-07-05T15:15:00",27.799,28.2036,0.242],
    [25607,"urn:WaterMeter:MC0203J22010600005","2024-07-05T15:30:00",27.799,28.164423,0.241],
    [25608,"urn:WaterMeter:MC0203J22010600005","2024-07-05T15:45:00",27.799,28.084904,0.247],
    [25609,"urn:WaterMeter:MC0203J22010600005","2024-07-05T16:00:00",27.799,28.048828,0.249],
    [25610,"urn:WaterMeter:MC0203J22010600005","2024-07-05T16:15:00",27.799,27.963102,0.235],
    [25611,"urn:WaterMeter:MC0203J22010600005","2024-07-05T16:30:00",27.7,27.9247,0.236],
    [25612,"urn:WaterMeter:MC0203J22010600005","2024-07-05T16:45:00",27.7,27.872723,0.232],
    [25613,"urn:WaterMeter:MC0203J22010600005","2024-07-05T17:00:00",27.6,27.829664,0.231],
    [25614,"urn:WaterMeter:MC0203J22010600005","2024-07-05T17:15:00",27.6,27.81954,0.236],
    [25615,"urn:WaterMeter:MC0203J22010600005","2024-07-05T17:30:00",27.5,27.777687,0.239],
    [25616,"urn:WaterMeter:MC0203J22010600005","2024-07-05T17:45:00",27.5,27.680712,0.254],
    [25617,"urn:WaterMeter:MC0203J22010600005","2024-07-05T18:00:00",27.399,27.676018,0.237],
    [25618,"urn:WaterMeter:MC0203J22010600005","2024-07-05T18:15:00",27.399,27.624815,0.237],
    [25619,"urn:WaterMeter:MC0203J22010600005","2024-07-05T18:30:00",27.299,27.61438,0.236],
    [25620,"urn:WaterMeter:MC0203J22010600005","2024-07-05T18:45:00",27.2,27.613216,0.238],
    [25621,"urn:WaterMeter:MC0203J22010600005","2024-07-05T19:00:00",27.2,27.563566,0.248],
    [25622,"urn:WaterMeter:MC0203J22010600005","2024-07-05T19:15:00",27.1,27.577143,0.249],
    [25623,"urn:WaterMeter:MC0203J22010600005","2024-07-05T19:30:00",27,27.541456,0.245],
    [25624,"urn:WaterMeter:MC0203J22010600005","2024-07-05T19:45:00",26.899,27.519344,0.244],
    [25625,"urn:WaterMeter:MC0203J22010600005","2024-07-05T20:00:00",26.899,27.541456,0.234],
    [25626,"urn:WaterMeter:MC0203J22010600005","2024-07-05T20:15:00",26.799,27.482067,0.23],
    [25627,"urn:WaterMeter:MC0203J22010600005","2024-07-05T20:30:00",26.7,27.492968,0.242],
    [25628,"urn:WaterMeter:MC0203J22010600005","2024-07-05T20:45:00",26.6,27.497234,0.234],
    [25629,"urn:WaterMeter:MC0203J22010600005","2024-07-05T21:00:00",26.5,27.473574,0.235],
    [25630,"urn:WaterMeter:MC0203J22010600005","2024-07-05T21:15:00",26.399,27.43164,0.236],
    [25631,"urn:WaterMeter:MC0203J22010600005","2024-07-05T21:30:00",26.399,27.454954,0.232],
    [25632,"urn:WaterMeter:MC0203J22010600005","2024-07-05T21:45:00",26.299,27.464651,0.242],
    [25633,"urn:WaterMeter:MC0203J22010600005","2024-07-05T22:00:00",26.2,27.457668,0.228],
    [25634,"urn:WaterMeter:MC0203J22010600005","2024-07-05T22:15:00",26.1,27.455341,0.247],
    [25635,"urn:WaterMeter:MC0203J22010600005","2024-07-05T22:30:00",26,27.408794,0.238],
    [25636,"urn:WaterMeter:MC0203J22010600005","2024-07-05T22:45:00",26,27.451424,0.232],
    [25637,"urn:WaterMeter:MC0203J22010600005","2024-07-05T23:00:00",25.899,27.417328,0.237],
    [25638,"urn:WaterMeter:MC0203J22010600005","2024-07-05T23:15:00",25.799,27.405691,0.229],
    [25639,"urn:WaterMeter:MC0203J22010600005","2024-07-05T23:30:00",25.7,27.391338,0.245],
    [25640,"urn:WaterMeter:MC0203J22010600005","2024-07-05T23:45:00",25.6,27.397545,0.234],
    [25641,"urn:WaterMeter:MC0203J22010600005","2024-07-06T00:00:00",25.6,27.366512,0.228],
    [25642,"urn:WaterMeter:MC0203J22010600005","2024-07-06T00:15:00",25.5,27.395178,0.232],
    [25643,"urn:WaterMeter:MC0203J22010600005","2024-07-06T00:30:00",25.399,27.405302,0.223],
    [25644,"urn:WaterMeter:MC0203J22010600005","2024-07-06T00:45:00",25.299,27.370779,0.236],
    [25645,"urn:WaterMeter:MC0203J22010600005","2024-07-06T01:00:00",25.299,27.361858,0.224],
    [25646,"urn:WaterMeter:MC0203J22010600005","2024-07-06T01:15:00",25.2,27.380865,0.252],
    [25647,"urn:WaterMeter:MC0203J22010600005","2024-07-06T01:30:00",25.1,27.361858,0.232],
    [25648,"urn:WaterMeter:MC0203J22010600005","2024-07-06T01:45:00",25,27.347893,0.235],
    [25649,"urn:WaterMeter:MC0203J22010600005","2024-07-06T02:00:00",24.899,27.371555,0.232],
    [25650,"urn:WaterMeter:MC0203J22010600005","2024-07-06T02:15:00",24.899,27.383928,0.235],
    [25651,"urn:WaterMeter:MC0203J22010600005","2024-07-06T02:30:00",24.799,27.345528,0.248],
    [25652,"urn:WaterMeter:MC0203J22010600005","2024-07-06T02:45:00",24.799,27.340912,0.229],
    [25653,"urn:WaterMeter:MC0203J22010600005","2024-07-06T03:00:00",24.7,27.332766,0.23],
    [25654,"urn:WaterMeter:MC0203J22010600005","2024-07-06T03:15:00",24.7,27.326908,0.24],
    [25655,"urn:WaterMeter:MC0203J22010600005","2024-07-06T03:30:00",24.6,27.33005,0.235],
    [25656,"urn:WaterMeter:MC0203J22010600005","2024-07-06T03:45:00",24.5,27.312206,0.233],
    [25657,"urn:WaterMeter:MC0203J22010600005","2024-07-06T04:00:00",24.5,27.283503,0.228],
    [25658,"urn:WaterMeter:MC0203J22010600005","2024-07-06T04:15:00",24.399,27.278032,0.238],
    [25659,"urn:WaterMeter:MC0203J22010600005","2024-07-06T04:30:00",24.299,27.294712,0.232],
    [25660,"urn:WaterMeter:MC0203J22010600005","2024-07-06T04:45:00",24.2,27.283113,0.242],
    [25661,"urn:WaterMeter:MC0203J22010600005","2024-07-06T05:00:00",24.2,27.279236,0.231],
    [25662,"urn:WaterMeter:MC0203J22010600005","2024-07-06T05:15:00",24.1,27.300182,0.227],
    [25663,"urn:WaterMeter:MC0203J22010600005","2024-07-06T05:30:00",24,27.281563,0.224],
    [25664,"urn:WaterMeter:MC0203J22010600005","2024-07-06T05:45:00",24,27.28583,0.223],
    [25665,"urn:WaterMeter:MC0203J22010600005","2024-07-06T06:00:00",24,27.26756,0.238],
    [25666,"urn:WaterMeter:MC0203J22010600005","2024-07-06T06:15:00",24,27.257862,0.229],
    [25667,"urn:WaterMeter:MC0203J22010600005","2024-07-06T06:30:00",24,27.201654,0.233],
    [25668,"urn:WaterMeter:MC0203J22010600005","2024-07-06T06:45:00",24,27.202818,0.222],
    [25669,"urn:WaterMeter:MC0203J22010600005","2024-07-06T07:00:00",24.1,27.210537,0.236],
    [25670,"urn:WaterMeter:MC0203J22010600005","2024-07-06T07:15:00",24.2,27.14188,0.225],
    [25671,"urn:WaterMeter:MC0203J22010600005","2024-07-06T07:30:00",24.299,27.148512,0.223],
    [25672,"urn:WaterMeter:MC0203J22010600005","2024-07-06T07:45:00",24.399,27.124075,0.236],
    [25673,"urn:WaterMeter:MC0203J22010600005","2024-07-06T08:00:00",24.6,27.060072,0.219],
    [25674,"urn:WaterMeter:MC0203J22010600005","2024-07-06T08:15:00",24.799,26.992966,0.222],
    [25675,"urn:WaterMeter:MC0203J22010600005","2024-07-06T08:30:00",24.899,26.954174,0.232],
    [25676,"urn:WaterMeter:MC0203J22010600005","2024-07-06T08:45:00",25.1,26.91267,0.219],
    [25677,"urn:WaterMeter:MC0203J22010600005","2024-07-06T09:00:00",25.299,26.841257,0.237],
    [25678,"urn:WaterMeter:MC0203J22010600005","2024-07-06T09:15:00",25.5,26.80363,0.22],
    [25679,"urn:WaterMeter:MC0203J22010600005","2024-07-06T09:30:00",25.7,26.707859,0.221],
    [25680,"urn:WaterMeter:MC0203J22010600005","2024-07-06T09:45:00",25.899,26.67217,0.225],
    [25681,"urn:WaterMeter:MC0203J22010600005","2024-07-06T10:00:00",26,26.613987,0.229],
    [25682,"urn:WaterMeter:MC0203J22010600005","2024-07-06T10:15:00",26.2,26.563171,0.21],
    [25683,"urn:WaterMeter:MC0203J22010600005","2024-07-06T10:30:00",26.399,26.433962,0.211],
    [25684,"urn:WaterMeter:MC0203J22010600005","2024-07-06T10:45:00",26.6,26.357973,0.225],
    [25685,"urn:WaterMeter:MC0203J22010600005","2024-07-06T11:00:00",26.799,26.286173,0.213],
    [25686,"urn:WaterMeter:MC0203J22010600005","2024-07-06T11:15:00",26.899,26.218328,0.222],
    [25687,"urn:WaterMeter:MC0203J22010600005","2024-07-06T11:30:00",27.1,26.151958,0.21],
    [25688,"urn:WaterMeter:MC0203J22010600005","2024-07-06T11:45:00",27.2,26.065845,0.213],
    [25689,"urn:WaterMeter:MC0203J22010600005","2024-07-06T12:00:00",27.299,25.926628,0.221],
    [25690,"urn:WaterMeter:MC0203J22010600005","2024-07-06T12:15:00",27.5,25.882795,0.215],
    [25691,"urn:WaterMeter:MC0203J22010600005","2024-07-06T12:30:00",27.6,25.794315,0.207],
    [25692,"urn:WaterMeter:MC0203J22010600005","2024-07-06T12:45:00",27.7,25.672554,0.209],
    [25693,"urn:WaterMeter:MC0203J22010600005","2024-07-06T13:00:00",27.899,25.571272,0.207],
    [25694,"urn:WaterMeter:MC0203J22010600005","2024-07-06T13:15:00",28,25.508472,0.201],
    [25695,"urn:WaterMeter:MC0203J22010600005","2024-07-06T13:30:00",28.1,25.420807,0.202],
    [25696,"urn:WaterMeter:MC0203J22010600005","2024-07-06T13:45:00",28.2,25.293575,0.206],
    [25697,"urn:WaterMeter:MC0203J22010600005","2024-07-06T14:00:00",28.299,25.20591,0.198],
    [25698,"urn:WaterMeter:MC0203J22010600005","2024-07-06T14:15:00",28.399,25.096483,0.212],
    [25699,"urn:WaterMeter:MC0203J22010600005","2024-07-06T14:30:00",28.399,24.991789,0.197],
    [25700,"urn:WaterMeter:MC0203J22010600005","2024-07-06T14:45:00",28.5,24.924294,0.208],
    [25701,"urn:WaterMeter:MC0203J22010600005","2024-07-06T15:00:00",28.6,24.839344,0.201],
    [25702,"urn:WaterMeter:MC0203J22010600005","2024-07-06T15:15:00",28.6,24.756683,0.206],
    [25703,"urn:WaterMeter:MC0203J22010600005","2024-07-06T15:30:00",28.7,24.651989,0.2],
    [25704,"urn:WaterMeter:MC0203J22010600005","2024-07-06T15:45:00",28.7,24.567038,0.19],
    [25705,"urn:WaterMeter:MC0203J22010600005","2024-07-06T16:00:00",28.7,24.486355,0.204],
    [25706,"urn:WaterMeter:MC0203J22010600005","2024-07-06T16:15:00",28.7,24.39132,0.205],
    [25707,"urn:WaterMeter:MC0203J22010600005","2024-07-06T16:30:00",28.6,24.301676,0.184],
    [25708,"urn:WaterMeter:MC0203J22010600005","2024-07-06T16:45:00",28.5,24.24702,0.187],
    [25709,"urn:WaterMeter:MC0203J22010600005","2024-07-06T17:00:00",28.5,24.167889,0.196],
    [25710,"urn:WaterMeter:MC0203J22010600005","2024-07-06T17:15:00",28.5,24.100006,0.199],
    [25711,"urn:WaterMeter:MC0203J22010600005","2024-07-06T17:30:00",28.5,24.04415,0.187],
    [25712,"urn:WaterMeter:MC0203J22010600005","2024-07-06T17:45:00",28.5,23.939028,0.196],
    [25713,"urn:WaterMeter:MC0203J22010600005","2024-07-06T18:00:00",28.399,23.897522,0.191],
    [25714,"urn:WaterMeter:MC0203J22010600005","2024-07-06T18:15:00",28.399,23.824171,0.185],
    [25715,"urn:WaterMeter:MC0203J22010600005","2024-07-06T18:30:00",28.299,23.788136,0.198],
    [25716,"urn:WaterMeter:MC0203J22010600005","2024-07-06T18:45:00",28.299,23.70396,0.195],
    [25717,"urn:WaterMeter:MC0203J22010600005","2024-07-06T19:00:00",28.2,23.669786,0.185],
    [25718,"urn:WaterMeter:MC0203J22010600005","2024-07-06T19:15:00",28.2,23.622074,0.194],
    [25719,"urn:WaterMeter:MC0203J22010600005","2024-07-06T19:30:00",28.1,23.61901,0.194],
    [25720,"urn:WaterMeter:MC0203J22010600005","2024-07-06T19:45:00",28,23.558498,0.188],
    [25721,"urn:WaterMeter:MC0203J22010600005","2024-07-06T20:00:00",27.899,23.52669,0.181],
    [25722,"urn:WaterMeter:MC0203J22010600005","2024-07-06T20:15:00",27.799,23.51932,0.175],
    [25723,"urn:WaterMeter:MC0203J22010600005","2024-07-06T20:30:00",27.7,23.488289,0.199],
    [25724,"urn:WaterMeter:MC0203J22010600005","2024-07-06T20:45:00",27.7,23.446396,0.176],
    [25725,"urn:WaterMeter:MC0203J22010600005","2024-07-06T21:00:00",27.7,23.397093,0.182],
    [25726,"urn:WaterMeter:MC0203J22010600005","2024-07-06T21:15:00",27.6,23.393253,0.183],
    [25727,"urn:WaterMeter:MC0203J22010600005","2024-07-06T21:30:00",27.5,23.391314,0.191],
    [25728,"urn:WaterMeter:MC0203J22010600005","2024-07-06T21:45:00",27.399,23.362608,0.189],
    [25729,"urn:WaterMeter:MC0203J22010600005","2024-07-06T22:00:00",27.399,23.356401,0.186],
    [25730,"urn:WaterMeter:MC0203J22010600005","2024-07-06T22:15:00",27.299,23.376574,0.177],
    [25731,"urn:WaterMeter:MC0203J22010600005","2024-07-06T22:30:00",27.2,23.314121,0.196],
    [25732,"urn:WaterMeter:MC0203J22010600005","2024-07-06T22:45:00",27.1,23.290848,0.178],
    [25733,"urn:WaterMeter:MC0203J22010600005","2024-07-06T23:00:00",27,23.329248,0.176],
    [25734,"urn:WaterMeter:MC0203J22010600005","2024-07-06T23:15:00",26.899,23.264858,0.182],
    [25735,"urn:WaterMeter:MC0203J22010600005","2024-07-06T23:30:00",26.799,23.27219,0.186],
    [25736,"urn:WaterMeter:MC0203J22010600005","2024-07-06T23:45:00",26.799,23.235765,0.176],
    [25737,"urn:WaterMeter:MC0203J22010600005","2024-07-07T00:00:00",26.7,23.239645,0.18],
    [25738,"urn:WaterMeter:MC0203J22010600005","2024-07-07T00:15:00",26.6,23.232662,0.176],
    [25739,"urn:WaterMeter:MC0203J22010600005","2024-07-07T00:30:00",26.5,23.211716,0.173],
    [25740,"urn:WaterMeter:MC0203J22010600005","2024-07-07T00:45:00",26.399,23.202019,0.182],
    [25741,"urn:WaterMeter:MC0203J22010600005","2024-07-07T01:00:00",26.399,23.159737,0.181],
    [25742,"urn:WaterMeter:MC0203J22010600005","2024-07-07T01:15:00",26.299,23.191156,0.186],
    [25743,"urn:WaterMeter:MC0203J22010600005","2024-07-07T01:30:00",26.299,23.184135,0.185],
    [25744,"urn:WaterMeter:MC0203J22010600005","2024-07-07T01:45:00",26.299,23.14457,0.175],
    [25745,"urn:WaterMeter:MC0203J22010600005","2024-07-07T02:00:00",26.2,23.118193,0.176],
    [25746,"urn:WaterMeter:MC0203J22010600005","2024-07-07T02:15:00",26.2,23.105392,0.182],
    [25747,"urn:WaterMeter:MC0203J22010600005","2024-07-07T02:30:00",26.2,23.07595,0.182],
    [25748,"urn:WaterMeter:MC0203J22010600005","2024-07-07T02:45:00",26.2,23.106169,0.178],
    [25749,"urn:WaterMeter:MC0203J22010600005","2024-07-07T03:00:00",26.1,23.070908,0.176],
    [25750,"urn:WaterMeter:MC0203J22010600005","2024-07-07T03:15:00",26.1,23.069706,0.177],
    [25751,"urn:WaterMeter:MC0203J22010600005","2024-07-07T03:30:00",26.1,23.09841,0.175],
    [25752,"urn:WaterMeter:MC0203J22010600005","2024-07-07T03:45:00",26.1,23.02436,0.178],
    [25753,"urn:WaterMeter:MC0203J22010600005","2024-07-07T04:00:00",26.1,23.012722,0.181],
    [25754,"urn:WaterMeter:MC0203J22010600005","2024-07-07T04:15:00",26.1,23.006905,0.176],
    [25755,"urn:WaterMeter:MC0203J22010600005","2024-07-07T04:30:00",26.1,23.036385,0.177],
    [25756,"urn:WaterMeter:MC0203J22010600005","2024-07-07T04:45:00",26.1,22.960745,0.182],
    [25757,"urn:WaterMeter:MC0203J22010600005","2024-07-07T05:00:00",26,22.968891,0.174],
    [25758,"urn:WaterMeter:MC0203J22010600005","2024-07-07T05:15:00",26,22.970015,0.178],
    [25759,"urn:WaterMeter:MC0203J22010600005","2024-07-07T05:30:00",26,22.973118,0.184],
    [25760,"urn:WaterMeter:MC0203J22010600005","2024-07-07T05:45:00",26,22.962257,0.171],
    [25761,"urn:WaterMeter:MC0203J22010600005","2024-07-07T06:00:00",26,22.90605,0.172],
    [25762,"urn:WaterMeter:MC0203J22010600005","2024-07-07T06:15:00",26,22.903336,0.186],
    [25763,"urn:WaterMeter:MC0203J22010600005","2024-07-07T06:30:00",26.1,22.917686,0.162],
    [25764,"urn:WaterMeter:MC0203J22010600005","2024-07-07T06:45:00",26.1,22.892048,0.176],
    [25765,"urn:WaterMeter:MC0203J22010600005","2024-07-07T07:00:00",26.1,22.849806,0.183],
    [25766,"urn:WaterMeter:MC0203J22010600005","2024-07-07T07:15:00",26.1,22.768696,0.178],
    [25767,"urn:WaterMeter:MC0203J22010600005","2024-07-07T07:30:00",26.2,22.768307,0.171],
    [25768,"urn:WaterMeter:MC0203J22010600005","2024-07-07T07:45:00",26.2,22.727617,0.179],
    [25769,"urn:WaterMeter:MC0203J22010600005","2024-07-07T08:00:00",26.299,22.698097,0.17],
    [25770,"urn:WaterMeter:MC0203J22010600005","2024-07-07T08:15:00",26.399,22.630253,0.173],
    [25771,"urn:WaterMeter:MC0203J22010600005","2024-07-07T08:30:00",26.5,22.604614,0.163],
    [25772,"urn:WaterMeter:MC0203J22010600005","2024-07-07T08:45:00",26.6,22.561207,0.165],
    [25773,"urn:WaterMeter:MC0203J22010600005","2024-07-07T09:00:00",26.7,22.4941,0.166],
    [25774,"urn:WaterMeter:MC0203J22010600005","2024-07-07T09:15:00",26.7,22.37071,0.161],
    [25775,"urn:WaterMeter:MC0203J22010600005","2024-07-07T09:30:00",26.899,22.337002,0.168],
    [25776,"urn:WaterMeter:MC0203J22010600005","2024-07-07T09:45:00",27,22.252789,0.171],
    [25777,"urn:WaterMeter:MC0203J22010600005","2024-07-07T10:00:00",27.1,22.222958,0.165],
    [25778,"urn:WaterMeter:MC0203J22010600005","2024-07-07T10:15:00",27.2,22.136417,0.172],
    [25779,"urn:WaterMeter:MC0203J22010600005","2024-07-07T10:30:00",27.299,22.068575,0.159],
    [25780,"urn:WaterMeter:MC0203J22010600005","2024-07-07T10:45:00",27.399,21.957247,0.174],
    [25781,"urn:WaterMeter:MC0203J22010600005","2024-07-07T11:00:00",27.6,21.921947,0.162],
    [25782,"urn:WaterMeter:MC0203J22010600005","2024-07-07T11:15:00",27.7,21.850187,0.158],
    [25783,"urn:WaterMeter:MC0203J22010600005","2024-07-07T11:30:00",27.899,21.741535,0.172],
    [25784,"urn:WaterMeter:MC0203J22010600005","2024-07-07T11:45:00",28,21.663568,0.155],
    [25785,"urn:WaterMeter:MC0203J22010600005","2024-07-07T12:00:00",28.1,21.530558,0.168],
    [25786,"urn:WaterMeter:MC0203J22010600005","2024-07-07T12:15:00",28.299,21.42854,0.167],
    [25787,"urn:WaterMeter:MC0203J22010600005","2024-07-07T12:30:00",28.399,21.32652,0.164],
    [25788,"urn:WaterMeter:MC0203J22010600005","2024-07-07T12:45:00",28.6,21.232649,0.161],
    [25789,"urn:WaterMeter:MC0203J22010600005","2024-07-07T13:00:00",28.6,21.138002,0.165],
    [25790,"urn:WaterMeter:MC0203J22010600005","2024-07-07T13:15:00",28.799,21.047234,0.153],
    [25791,"urn:WaterMeter:MC0203J22010600005","2024-07-07T13:30:00",28.799,20.95371,0.148],
    [25792,"urn:WaterMeter:MC0203J22010600005","2024-07-07T13:45:00",28.899,20.851343,0.157],
    [25793,"urn:WaterMeter:MC0203J22010600005","2024-07-07T14:00:00",29,20.751226,0.149],
    [25794,"urn:WaterMeter:MC0203J22010600005","2024-07-07T14:15:00",29,20.671358,0.154],
    [25795,"urn:WaterMeter:MC0203J22010600005","2024-07-07T14:30:00",29,20.566587,0.157],
    [25796,"urn:WaterMeter:MC0203J22010600005","2024-07-07T14:45:00",29.1,20.460302,0.154],
    [25797,"urn:WaterMeter:MC0203J22010600005","2024-07-07T15:00:00",29,20.392033,0.155],
    [25798,"urn:WaterMeter:MC0203J22010600005","2024-07-07T15:15:00",29,20.318758,0.154],
    [25799,"urn:WaterMeter:MC0203J22010600005","2024-07-07T15:30:00",29,20.265965,0.157],
    [25800,"urn:WaterMeter:MC0203J22010600005","2024-07-07T15:45:00",28.899,20.18687,0.147],
    [25801,"urn:WaterMeter:MC0203J22010600005","2024-07-07T16:00:00",28.899,20.117825,0.153],
    [25802,"urn:WaterMeter:MC0203J22010600005","2024-07-07T16:15:00",28.799,20.059252,0.154],
    [25803,"urn:WaterMeter:MC0203J22010600005","2024-07-07T16:30:00",28.7,19.966505,0.141],
    [25804,"urn:WaterMeter:MC0203J22010600005","2024-07-07T16:45:00",28.6,19.88621,0.15],
    [25805,"urn:WaterMeter:MC0203J22010600005","2024-07-07T17:00:00",28.6,19.84552,0.151],
    [25806,"urn:WaterMeter:MC0203J22010600005","2024-07-07T17:15:00",28.5,19.848972,0.147],
    [25807,"urn:WaterMeter:MC0203J22010600005","2024-07-07T17:30:00",28.399,19.756691,0.151],
    [25808,"urn:WaterMeter:MC0203J22010600005","2024-07-07T17:45:00",28.299,19.740398,0.142],
    [25809,"urn:WaterMeter:MC0203J22010600005","2024-07-07T18:00:00",28.1,19.715961,0.149],
    [25810,"urn:WaterMeter:MC0203J22010600005","2024-07-07T18:15:00",28,19.661655,0.155],
    [25811,"urn:WaterMeter:MC0203J22010600005","2024-07-07T18:30:00",27.899,19.692648,0.144],
    [25812,"urn:WaterMeter:MC0203J22010600005","2024-07-07T18:45:00",27.799,19.677559,0.143],
    [25813,"urn:WaterMeter:MC0203J22010600005","2024-07-07T19:00:00",27.7,19.634462,0.148],
    [25814,"urn:WaterMeter:MC0203J22010600005","2024-07-07T19:15:00",27.7,19.62209,0.153],
    [25815,"urn:WaterMeter:MC0203J22010600005","2024-07-07T19:30:00",27.6,19.620537,0.139],
    [25816,"urn:WaterMeter:MC0203J22010600005","2024-07-07T19:45:00",27.5,19.585627,0.138],
    [25817,"urn:WaterMeter:MC0203J22010600005","2024-07-07T20:00:00",27.399,19.618597,0.143],
    [25818,"urn:WaterMeter:MC0203J22010600005","2024-07-07T20:15:00",27.399,19.56852,0.141],
    [25819,"urn:WaterMeter:MC0203J22010600005","2024-07-07T20:30:00",27.299,19.596062,0.147],
    [25820,"urn:WaterMeter:MC0203J22010600005","2024-07-07T20:45:00",27.299,19.565067,0.143],
    [25821,"urn:WaterMeter:MC0203J22010600005","2024-07-07T21:00:00",27.2,19.576279,0.138],
    [25822,"urn:WaterMeter:MC0203J22010600005","2024-07-07T21:15:00",27.1,19.56468,0.14],
    [25823,"urn:WaterMeter:MC0203J22010600005","2024-07-07T21:30:00",27.1,19.534037,0.14],
    [25824,"urn:WaterMeter:MC0203J22010600005","2024-07-07T21:45:00",27,19.535587,0.14],
    [25825,"urn:WaterMeter:MC0203J22010600005","2024-07-07T22:00:00",27,19.487875,0.139],
    [25826,"urn:WaterMeter:MC0203J22010600005","2024-07-07T22:15:00",27,19.50956,0.148],
    [25827,"urn:WaterMeter:MC0203J22010600005","2024-07-07T22:30:00",26.899,19.497923,0.141],
    [25828,"urn:WaterMeter:MC0203J22010600005","2024-07-07T22:45:00",26.899,19.479303,0.148],
    [25829,"urn:WaterMeter:MC0203J22010600005","2024-07-07T23:00:00",26.799,19.487488,0.142],
    [25830,"urn:WaterMeter:MC0203J22010600005","2024-07-07T23:15:00",26.799,19.493694,0.144],
    [25831,"urn:WaterMeter:MC0203J22010600005","2024-07-07T23:30:00",26.7,19.466154,0.14],
    [25832,"urn:WaterMeter:MC0203J22010600005","2024-07-07T23:45:00",26.7,19.447535,0.135],
    [25833,"urn:WaterMeter:MC0203J22010600005","2024-07-08T00:00:00",26.6,19.465378,0.14],
    [25834,"urn:WaterMeter:MC0203J22010600005","2024-07-08T00:15:00",26.6,19.445982,0.139],
    [25835,"urn:WaterMeter:MC0203J22010600005","2024-07-08T00:30:00",26.5,19.444818,0.14],
    [25836,"urn:WaterMeter:MC0203J22010600005","2024-07-08T00:45:00",26.399,19.425425,0.144],
    [25837,"urn:WaterMeter:MC0203J22010600005","2024-07-08T01:00:00",26.399,19.43163,0.142],
    [25838,"urn:WaterMeter:MC0203J22010600005","2024-07-08T01:15:00",26.299,19.405252,0.147],
    [25839,"urn:WaterMeter:MC0203J22010600005","2024-07-08T01:30:00",26.299,19.411459,0.135],
    [25840,"urn:WaterMeter:MC0203J22010600005","2024-07-08T01:45:00",26.2,19.43163,0.137],
    [25841,"urn:WaterMeter:MC0203J22010600005","2024-07-08T02:00:00",26.1,19.433958,0.142],
    [25842,"urn:WaterMeter:MC0203J22010600005","2024-07-08T02:15:00",26.1,19.402887,0.14],
    [25843,"urn:WaterMeter:MC0203J22010600005","2024-07-08T02:30:00",26,19.423058,0.135],
    [25844,"urn:WaterMeter:MC0203J22010600005","2024-07-08T02:45:00",25.899,19.384268,0.147],
    [25845,"urn:WaterMeter:MC0203J22010600005","2024-07-08T03:00:00",25.799,19.379652,0.142],
    [25846,"urn:WaterMeter:MC0203J22010600005","2024-07-08T03:15:00",25.799,19.378489,0.14],
    [25847,"urn:WaterMeter:MC0203J22010600005","2024-07-08T03:30:00",25.7,19.362545,0.141],
    [25848,"urn:WaterMeter:MC0203J22010600005","2024-07-08T03:45:00",25.6,19.40021,0.143],
    [25849,"urn:WaterMeter:MC0203J22010600005","2024-07-08T04:00:00",25.5,19.338146,0.136],
    [25850,"urn:WaterMeter:MC0203J22010600005","2024-07-08T04:15:00",25.5,19.364872,0.141],
    [25851,"urn:WaterMeter:MC0203J22010600005","2024-07-08T04:30:00",25.399,19.30052,0.144],
    [25852,"urn:WaterMeter:MC0203J22010600005","2024-07-08T04:45:00",25.399,19.381203,0.139],
    [25853,"urn:WaterMeter:MC0203J22010600005","2024-07-08T05:00:00",25.299,19.35056,0.147],
    [25854,"urn:WaterMeter:MC0203J22010600005","2024-07-08T05:15:00",25.299,19.355562,0.144],
    [25855,"urn:WaterMeter:MC0203J22010600005","2024-07-08T05:30:00",25.2,19.324142,0.142],
    [25856,"urn:WaterMeter:MC0203J22010600005","2024-07-08T05:45:00",25.2,19.316385,0.144],
    [25857,"urn:WaterMeter:MC0203J22010600005","2024-07-08T06:00:00",25.2,19.32263,0.146],
    [25858,"urn:WaterMeter:MC0203J22010600005","2024-07-08T06:15:00",25.2,19.293926,0.144],
    [25859,"urn:WaterMeter:MC0203J22010600005","2024-07-08T06:30:00",25.2,19.2947,0.146],
    [25860,"urn:WaterMeter:MC0203J22010600005","2024-07-08T06:45:00",25.2,19.273367,0.134],
    [25861,"urn:WaterMeter:MC0203J22010600005","2024-07-08T07:00:00",25.299,19.29509,0.139],
    [25862,"urn:WaterMeter:MC0203J22010600005","2024-07-08T07:15:00",25.399,19.274143,0.143],
    [25863,"urn:WaterMeter:MC0203J22010600005","2024-07-08T07:30:00",25.6,19.243887,0.141],
    [25864,"urn:WaterMeter:MC0203J22010600005","2024-07-08T07:45:00",25.7,19.25591,0.135],
    [25865,"urn:WaterMeter:MC0203J22010600005","2024-07-08T08:00:00",25.7,19.254747,0.133],
    [25866,"urn:WaterMeter:MC0203J22010600005","2024-07-08T08:15:00",25.799,19.192684,0.141],
    [25867,"urn:WaterMeter:MC0203J22010600005","2024-07-08T08:30:00",25.899,19.182985,0.142],
    [25868,"urn:WaterMeter:MC0203J22010600005","2024-07-08T08:45:00",26.1,19.22488,0.135],
    [25869,"urn:WaterMeter:MC0203J22010600005","2024-07-08T09:00:00",26.1,19.402111,0.139],
    [25870,"urn:WaterMeter:MC0203J22010600005","2024-07-08T09:15:00",26.299,19.88621,0.155],
    [25871,"urn:WaterMeter:MC0203J22010600005","2024-07-08T09:30:00",26.5,21.137226,0.168],
    [25872,"urn:WaterMeter:MC0203J22010600005","2024-07-08T09:45:00",26.5,22.160507,0.186],
    [25873,"urn:WaterMeter:MC0203J22010600005","2024-07-08T10:00:00",26.6,23.05384,0.205],
    [25874,"urn:WaterMeter:MC0203J22010600005","2024-07-08T10:15:00",26.7,23.786545,0.207],
    [25875,"urn:WaterMeter:MC0203J22010600005","2024-07-08T10:30:00",26.799,24.423515,0.219],
    [25876,"urn:WaterMeter:MC0203J22010600005","2024-07-08T10:45:00",27.1,24.892836,0.246],
    [25877,"urn:WaterMeter:MC0203J22010600005","2024-07-08T11:00:00",27.299,25.283878,0.226],
    [25878,"urn:WaterMeter:MC0203J22010600005","2024-07-08T11:15:00",27.399,25.604671,0.233],
    [25879,"urn:WaterMeter:MC0203J22010600005","2024-07-08T11:30:00",27.5,25.816076,0.228],
    [25880,"urn:WaterMeter:MC0203J22010600005","2024-07-08T11:45:00",27.6,26.006147,0.225],
    [25881,"urn:WaterMeter:MC0203J22010600005","2024-07-08T12:00:00",27.6,26.079847,0.235],
    [25882,"urn:WaterMeter:MC0203J22010600005","2024-07-08T12:15:00",27.7,26.238499,0.24],
    [25883,"urn:WaterMeter:MC0203J22010600005","2024-07-08T12:30:00",27.899,26.301338,0.231],
    [25884,"urn:WaterMeter:MC0203J22010600005","2024-07-08T12:45:00",28,26.379307,0.236],
    [25885,"urn:WaterMeter:MC0203J22010600005","2024-07-08T13:00:00",28.2,26.436716,0.25],
    [25886,"urn:WaterMeter:MC0203J22010600005","2024-07-08T13:15:00",28.299,26.472015,0.255],
    [25887,"urn:WaterMeter:MC0203J22010600005","2024-07-08T13:30:00",28.399,26.48404,0.231],
    [25888,"urn:WaterMeter:MC0203J22010600005","2024-07-08T13:45:00",28.5,26.508865,0.247],
    [25889,"urn:WaterMeter:MC0203J22010600005","2024-07-08T14:00:00",28.6,26.510418,0.224],
    [25890,"urn:WaterMeter:MC0203J22010600005","2024-07-08T14:15:00",28.7,26.493738,0.237],
    [25891,"urn:WaterMeter:MC0203J22010600005","2024-07-08T14:30:00",28.7,26.480122,0.237],
    [25892,"urn:WaterMeter:MC0203J22010600005","2024-07-08T14:45:00",28.799,26.468136,0.24],
    [25893,"urn:WaterMeter:MC0203J22010600005","2024-07-08T15:00:00",28.799,26.448353,0.234],
    [25894,"urn:WaterMeter:MC0203J22010600005","2024-07-08T15:15:00",28.799,26.41965,0.238],
    [25895,"urn:WaterMeter:MC0203J22010600005","2024-07-08T15:30:00",28.799,26.39017,0.239],
    [25896,"urn:WaterMeter:MC0203J22010600005","2024-07-08T15:45:00",28.799,26.3603,0.221],
    [25897,"urn:WaterMeter:MC0203J22010600005","2024-07-08T16:00:00",28.799,26.335863,0.224],
    [25898,"urn:WaterMeter:MC0203J22010600005","2024-07-08T16:15:00",28.799,26.293968,0.227],
    [25899,"urn:WaterMeter:MC0203J22010600005","2024-07-08T16:30:00",28.799,26.2404,0.242],
    [25900,"urn:WaterMeter:MC0203J22010600005","2024-07-08T16:45:00",28.7,26.228374,0.231],
    [25901,"urn:WaterMeter:MC0203J22010600005","2024-07-08T17:00:00",28.6,26.20514,0.239],
    [25902,"urn:WaterMeter:MC0203J22010600005","2024-07-08T17:15:00",28.6,26.165575,0.236],
    [25903,"urn:WaterMeter:MC0203J22010600005","2024-07-08T17:30:00",28.5,26.143038,0.233],
    [25904,"urn:WaterMeter:MC0203J22010600005","2024-07-08T17:45:00",28.399,26.157429,0.238],
    [25905,"urn:WaterMeter:MC0203J22010600005","2024-07-08T18:00:00",28.299,26.08877,0.219],
    [25906,"urn:WaterMeter:MC0203J22010600005","2024-07-08T18:15:00",28.299,26.118639,0.219],
    [25907,"urn:WaterMeter:MC0203J22010600005","2024-07-08T18:30:00",28.2,26.091486,0.236],
    [25908,"urn:WaterMeter:MC0203J22010600005","2024-07-08T18:45:00",28.1,26.093386,0.227],
    [25909,"urn:WaterMeter:MC0203J22010600005","2024-07-08T19:00:00",28,26.042221,0.221],
    [25910,"urn:WaterMeter:MC0203J22010600005","2024-07-08T19:15:00",27.899,26.04067,0.212],
    [25911,"urn:WaterMeter:MC0203J22010600005","2024-07-08T19:30:00",27.799,26.01119,0.228],
    [25912,"urn:WaterMeter:MC0203J22010600005","2024-07-08T19:45:00",27.6,26.06507,0.222],
    [25913,"urn:WaterMeter:MC0203J22010600005","2024-07-08T20:00:00",27.6,26.03714,0.221],
    [25914,"urn:WaterMeter:MC0203J22010600005","2024-07-08T20:15:00",27.5,26.06821,0.216],
    [25915,"urn:WaterMeter:MC0203J22010600005","2024-07-08T20:30:00",27.399,26.024378,0.242],
    [25916,"urn:WaterMeter:MC0203J22010600005","2024-07-08T20:45:00",27.299,26.030973,0.232],
    [25917,"urn:WaterMeter:MC0203J22010600005","2024-07-08T21:00:00",27.299,26.03559,0.231],
    [25918,"urn:WaterMeter:MC0203J22010600005","2024-07-08T21:15:00",27.2,26.05735,0.216],
    [25919,"urn:WaterMeter:MC0203J22010600005","2024-07-08T21:30:00",27.1,26.062393,0.221],
    [25920,"urn:WaterMeter:MC0203J22010600005","2024-07-08T21:45:00",27.1,26.022827,0.234],
    [25921,"urn:WaterMeter:MC0203J22010600005","2024-07-08T22:00:00",27,25.997963,0.232],
    [25922,"urn:WaterMeter:MC0203J22010600005","2024-07-08T22:15:00",26.899,26.026667,0.228],
    [25923,"urn:WaterMeter:MC0203J22010600005","2024-07-08T22:30:00",26.899,26.027056,0.225],
    [25924,"urn:WaterMeter:MC0203J22010600005","2024-07-08T22:45:00",26.799,26.043386,0.229],
    [25925,"urn:WaterMeter:MC0203J22010600005","2024-07-08T23:00:00",26.799,26.054209,0.217],
    [25926,"urn:WaterMeter:MC0203J22010600005","2024-07-08T23:15:00",26.7,26.01119,0.215],
    [25927,"urn:WaterMeter:MC0203J22010600005","2024-07-08T23:30:00",26.7,26.017746,0.225],
    [25928,"urn:WaterMeter:MC0203J22010600005","2024-07-08T23:45:00",26.6,26.02783,0.219],
    [25929,"urn:WaterMeter:MC0203J22010600005","2024-07-09T00:00:00",26.5,26.032524,0.233],
    [25930,"urn:WaterMeter:MC0203J22010600005","2024-07-09T00:15:00",26.5,26.03873,0.221],
    [25931,"urn:WaterMeter:MC0203J22010600005","2024-07-09T00:30:00",26.399,25.991407,0.222],
    [25932,"urn:WaterMeter:MC0203J22010600005","2024-07-09T00:45:00",26.399,26.034426,0.22],
    [25933,"urn:WaterMeter:MC0203J22010600005","2024-07-09T01:00:00",26.299,26.01856,0.212],
    [25934,"urn:WaterMeter:MC0203J22010600005","2024-07-09T01:15:00",26.299,26.015806,0.231],
    [25935,"urn:WaterMeter:MC0203J22010600005","2024-07-09T01:30:00",26.2,25.983648,0.225],
    [25936,"urn:WaterMeter:MC0203J22010600005","2024-07-09T01:45:00",26.1,25.99874,0.231],
    [25937,"urn:WaterMeter:MC0203J22010600005","2024-07-09T02:00:00",26.1,26.032913,0.228],
    [25938,"urn:WaterMeter:MC0203J22010600005","2024-07-09T02:15:00",26,26.014643,0.231],
    [25939,"urn:WaterMeter:MC0203J22010600005","2024-07-09T02:30:00",25.899,25.972788,0.22],
    [25940,"urn:WaterMeter:MC0203J22010600005","2024-07-09T02:45:00",25.899,25.973175,0.215],
    [25941,"urn:WaterMeter:MC0203J22010600005","2024-07-09T03:00:00",25.799,26.001104,0.227],
    [25942,"urn:WaterMeter:MC0203J22010600005","2024-07-09T03:15:00",25.7,25.975853,0.232],
    [25943,"urn:WaterMeter:MC0203J22010600005","2024-07-09T03:30:00",25.6,25.951454,0.227],
    [25944,"urn:WaterMeter:MC0203J22010600005","2024-07-09T03:45:00",25.6,26.004984,0.221],
    [25945,"urn:WaterMeter:MC0203J22010600005","2024-07-09T04:00:00",25.5,25.968094,0.223],
    [25946,"urn:WaterMeter:MC0203J22010600005","2024-07-09T04:15:00",25.5,25.956844,0.225],
    [25947,"urn:WaterMeter:MC0203J22010600005","2024-07-09T04:30:00",25.399,25.963865,0.217],
    [25948,"urn:WaterMeter:MC0203J22010600005","2024-07-09T04:45:00",25.299,25.968094,0.236],
    [25949,"urn:WaterMeter:MC0203J22010600005","2024-07-09T05:00:00",25.299,25.956457,0.224],
    [25950,"urn:WaterMeter:MC0203J22010600005","2024-07-09T05:15:00",25.2,25.994898,0.218],
    [25951,"urn:WaterMeter:MC0203J22010600005","2024-07-09T05:30:00",25.2,25.930468,0.232],
    [25952,"urn:WaterMeter:MC0203J22010600005","2024-07-09T05:45:00",25.1,25.951841,0.227],
    [25953,"urn:WaterMeter:MC0203J22010600005","2024-07-09T06:00:00",25.1,26.00188,0.224],
    [25954,"urn:WaterMeter:MC0203J22010600005","2024-07-09T06:15:00",25.1,25.93745,0.217],
    [25955,"urn:WaterMeter:MC0203J22010600005","2024-07-09T06:30:00",25.2,25.944471,0.217],
    [25956,"urn:WaterMeter:MC0203J22010600005","2024-07-09T06:45:00",25.2,25.892065,0.217],
    [25957,"urn:WaterMeter:MC0203J22010600005","2024-07-09T07:00:00",25.299,25.881205,0.216],
    [25958,"urn:WaterMeter:MC0203J22010600005","2024-07-09T07:15:00",25.399,25.878529,0.227],
    [25959,"urn:WaterMeter:MC0203J22010600005","2024-07-09T07:30:00",25.5,25.869995,0.218],
    [25960,"urn:WaterMeter:MC0203J22010600005","2024-07-09T07:45:00",25.6,25.812935,0.222],
    [25961,"urn:WaterMeter:MC0203J22010600005","2024-07-09T08:00:00",25.7,25.768364,0.219],
    [25962,"urn:WaterMeter:MC0203J22010600005","2024-07-09T08:15:00",25.799,25.762506,0.223],
    [25963,"urn:WaterMeter:MC0203J22010600005","2024-07-09T08:30:00",25.899,25.681087,0.216],
    [25964,"urn:WaterMeter:MC0203J22010600005","2024-07-09T08:45:00",26,25.670225,0.212],
    [25965,"urn:WaterMeter:MC0203J22010600005","2024-07-09T09:00:00",26.2,25.627518,0.207],
    [25966,"urn:WaterMeter:MC0203J22010600005","2024-07-09T09:15:00",26.399,25.57907,0.219],
    [25967,"urn:WaterMeter:MC0203J22010600005","2024-07-09T09:30:00",26.6,25.516617,0.2],
    [25968,"urn:WaterMeter:MC0203J22010600005","2024-07-09T09:45:00",26.799,25.442528,0.212],
    [25969,"urn:WaterMeter:MC0203J22010600005","2024-07-09T10:00:00",27,25.395166,0.221],
    [25970,"urn:WaterMeter:MC0203J22010600005","2024-07-09T10:15:00",27.1,25.30013,0.211],
    [25971,"urn:WaterMeter:MC0203J22010600005","2024-07-09T10:30:00",27.299,25.20979,0.21],
    [25972,"urn:WaterMeter:MC0203J22010600005","2024-07-09T10:45:00",27.5,25.17255,0.202],
    [25973,"urn:WaterMeter:MC0203J22010600005","2024-07-09T11:00:00",27.7,25.075188,0.206],
    [25974,"urn:WaterMeter:MC0203J22010600005","2024-07-09T11:15:00",27.799,24.968088,0.216],
    [25975,"urn:WaterMeter:MC0203J22010600005","2024-07-09T11:30:00",28,24.903347,0.214],
    [25976,"urn:WaterMeter:MC0203J22010600005","2024-07-09T11:45:00",28.1,24.802105,0.202],
    [25977,"urn:WaterMeter:MC0203J22010600005","2024-07-09T12:00:00",28.2,24.742369,0.214],
    [25978,"urn:WaterMeter:MC0203J22010600005","2024-07-09T12:15:00",28.299,24.645006,0.201],
    [25979,"urn:WaterMeter:MC0203J22010600005","2024-07-09T12:30:00",28.399,24.550747,0.218],
    [25980,"urn:WaterMeter:MC0203J22010600005","2024-07-09T12:45:00",28.6,24.477434,0.205],
    [25981,"urn:WaterMeter:MC0203J22010600005","2024-07-09T13:00:00",28.7,24.359085,0.208],
    [25982,"urn:WaterMeter:MC0203J22010600005","2024-07-09T13:15:00",28.799,24.28965,0.205],
    [25983,"urn:WaterMeter:MC0203J22010600005","2024-07-09T13:30:00",28.899,24.196205,0.208],
    [25984,"urn:WaterMeter:MC0203J22010600005","2024-07-09T13:45:00",29,24.093025,0.207],
    [25985,"urn:WaterMeter:MC0203J22010600005","2024-07-09T14:00:00",29.1,23.996824,0.188],
    [25986,"urn:WaterMeter:MC0203J22010600005","2024-07-09T14:15:00",29.2,23.911098,0.191],
    [25987,"urn:WaterMeter:MC0203J22010600005","2024-07-09T14:30:00",29.299,23.793179,0.189],
    [25988,"urn:WaterMeter:MC0203J22010600005","2024-07-09T14:45:00",29.399,23.696203,0.2],
    [25989,"urn:WaterMeter:MC0203J22010600005","2024-07-09T15:00:00",29.399,23.565868,0.207],
    [25990,"urn:WaterMeter:MC0203J22010600005","2024-07-09T15:15:00",29.399,23.506481,0.192],
    [25991,"urn:WaterMeter:MC0203J22010600005","2024-07-09T15:30:00",29.5,23.393253,0.189],
    [25992,"urn:WaterMeter:MC0203J22010600005","2024-07-09T15:45:00",29.5,23.305975,0.191],
    [25993,"urn:WaterMeter:MC0203J22010600005","2024-07-09T16:00:00",29.5,23.22025,0.184],
    [25994,"urn:WaterMeter:MC0203J22010600005","2024-07-09T16:15:00",29.399,23.169434,0.191],
    [25995,"urn:WaterMeter:MC0203J22010600005","2024-07-09T16:30:00",29.399,23.055391,0.194],
    [25996,"urn:WaterMeter:MC0203J22010600005","2024-07-09T16:45:00",29.299,22.967726,0.183],
    [25997,"urn:WaterMeter:MC0203J22010600005","2024-07-09T17:00:00",29.299,22.928162,0.18],
    [25998,"urn:WaterMeter:MC0203J22010600005","2024-07-09T17:15:00",29.2,22.856749,0.19],
    [25999,"urn:WaterMeter:MC0203J22010600005","2024-07-09T17:30:00",29.2,22.801704,0.185],
    [26000,"urn:WaterMeter:MC0203J22010600005","2024-07-09T17:45:00",29.1,22.720207,0.181],
    [26001,"urn:WaterMeter:MC0203J22010600005","2024-07-09T18:00:00",29,22.637236,0.189],
    [26002,"urn:WaterMeter:MC0203J22010600005","2024-07-09T18:15:00",29,22.616676,0.187],
    [26003,"urn:WaterMeter:MC0203J22010600005","2024-07-09T18:30:00",28.899,22.56466,0.177],
    [26004,"urn:WaterMeter:MC0203J22010600005","2024-07-09T18:45:00",28.799,22.52901,0.19],
    [26005,"urn:WaterMeter:MC0203J22010600005","2024-07-09T19:00:00",28.7,22.49953,0.174],
    [26006,"urn:WaterMeter:MC0203J22010600005","2024-07-09T19:15:00",28.6,22.489058,0.178],
    [26007,"urn:WaterMeter:MC0203J22010600005","2024-07-09T19:30:00",28.5,22.415745,0.178],
    [26008,"urn:WaterMeter:MC0203J22010600005","2024-07-09T19:45:00",28.5,22.404108,0.175],
    [26009,"urn:WaterMeter:MC0203J22010600005","2024-07-09T20:00:00",28.399,22.342392,0.173],
    [26010,"urn:WaterMeter:MC0203J22010600005","2024-07-09T20:15:00",28.299,22.337002,0.183],
    [26011,"urn:WaterMeter:MC0203J22010600005","2024-07-09T20:30:00",28.2,22.310585,0.17],
    [26012,"urn:WaterMeter:MC0203J22010600005","2024-07-09T20:45:00",28.2,22.32261,0.181],
    [26013,"urn:WaterMeter:MC0203J22010600005","2024-07-09T21:00:00",28.1,22.279593,0.183],
    [26014,"urn:WaterMeter:MC0203J22010600005","2024-07-09T21:15:00",28,22.255503,0.171],
    [26015,"urn:WaterMeter:MC0203J22010600005","2024-07-09T21:30:00",27.899,22.214386,0.172],
    [26016,"urn:WaterMeter:MC0203J22010600005","2024-07-09T21:45:00",27.799,22.234945,0.181],
    [26017,"urn:WaterMeter:MC0203J22010600005","2024-07-09T22:00:00",27.7,22.19309,0.179],
    [26018,"urn:WaterMeter:MC0203J22010600005","2024-07-09T22:15:00",27.6,22.212873,0.176],
    [26019,"urn:WaterMeter:MC0203J22010600005","2024-07-09T22:30:00",27.6,22.16361,0.179],
    [26020,"urn:WaterMeter:MC0203J22010600005","2024-07-09T22:45:00",27.5,22.177923,0.173],
    [26021,"urn:WaterMeter:MC0203J22010600005","2024-07-09T23:00:00",27.399,22.144602,0.167],
    [26022,"urn:WaterMeter:MC0203J22010600005","2024-07-09T23:15:00",27.299,22.144602,0.176],
    [26023,"urn:WaterMeter:MC0203J22010600005","2024-07-09T23:30:00",27.299,22.13219,0.194],
    [26024,"urn:WaterMeter:MC0203J22010600005","2024-07-09T23:45:00",27.2,22.089481,0.18],
    [26025,"urn:WaterMeter:MC0203J22010600005","2024-07-10T00:00:00",27.1,22.153912,0.181],
    [26026,"urn:WaterMeter:MC0203J22010600005","2024-07-10T00:15:00",27,22.112019,0.169],
    [26027,"urn:WaterMeter:MC0203J22010600005","2024-07-10T00:30:00",27,22.066635,0.178],
    [26028,"urn:WaterMeter:MC0203J22010600005","2024-07-10T00:45:00",26.899,22.075945,0.186],
    [26029,"urn:WaterMeter:MC0203J22010600005","2024-07-10T01:00:00",26.899,22.079008,0.178],
    [26030,"urn:WaterMeter:MC0203J22010600005","2024-07-10T01:15:00",26.799,22.072065,0.167],
    [26031,"urn:WaterMeter:MC0203J22010600005","2024-07-10T01:30:00",26.7,22.067022,0.169],
    [26032,"urn:WaterMeter:MC0203J22010600005","2024-07-10T01:45:00",26.7,22.061165,0.178],
    [26033,"urn:WaterMeter:MC0203J22010600005","2024-07-10T02:00:00",26.6,22.01776,0.168],
    [26034,"urn:WaterMeter:MC0203J22010600005","2024-07-10T02:15:00",26.5,22.020435,0.175],
    [26035,"urn:WaterMeter:MC0203J22010600005","2024-07-10T02:30:00",26.5,21.973112,0.183],
    [26036,"urn:WaterMeter:MC0203J22010600005","2024-07-10T02:45:00",26.399,22.001429,0.169],
    [26037,"urn:WaterMeter:MC0203J22010600005","2024-07-10T03:00:00",26.299,22.003796,0.171],
    [26038,"urn:WaterMeter:MC0203J22010600005","2024-07-10T03:15:00",26.2,21.988667,0.164],
    [26039,"urn:WaterMeter:MC0203J22010600005","2024-07-10T03:30:00",26.2,21.96578,0.179],
    [26040,"urn:WaterMeter:MC0203J22010600005","2024-07-10T03:45:00",26.1,21.996037,0.185],
    [26041,"urn:WaterMeter:MC0203J22010600005","2024-07-10T04:00:00",26,21.95104,0.169],
    [26042,"urn:WaterMeter:MC0203J22010600005","2024-07-10T04:15:00",25.899,21.95686,0.175],
    [26043,"urn:WaterMeter:MC0203J22010600005","2024-07-10T04:30:00",25.899,21.92346,0.178],
    [26044,"urn:WaterMeter:MC0203J22010600005","2024-07-10T04:45:00",25.799,21.891304,0.171],
    [26045,"urn:WaterMeter:MC0203J22010600005","2024-07-10T05:00:00",25.7,21.91768,0.172],
    [26046,"urn:WaterMeter:MC0203J22010600005","2024-07-10T05:15:00",25.6,21.89592,0.173],
    [26047,"urn:WaterMeter:MC0203J22010600005","2024-07-10T05:30:00",25.6,21.88467,0.164],
    [26048,"urn:WaterMeter:MC0203J22010600005","2024-07-10T05:45:00",25.6,21.906006,0.179],
    [26049,"urn:WaterMeter:MC0203J22010600005","2024-07-10T06:00:00",25.6,21.847433,0.174],
    [26050,"urn:WaterMeter:MC0203J22010600005","2024-07-10T06:15:00",25.6,21.882381,0.172],
    [26051,"urn:WaterMeter:MC0203J22010600005","2024-07-10T06:30:00",25.7,21.843592,0.179],
    [26052,"urn:WaterMeter:MC0203J22010600005","2024-07-10T06:45:00",25.7,21.775322,0.165],
    [26053,"urn:WaterMeter:MC0203J22010600005","2024-07-10T07:00:00",25.799,21.755152,0.16],
    [26054,"urn:WaterMeter:MC0203J22010600005","2024-07-10T07:15:00",25.899,21.709728,0.176],
    [26055,"urn:WaterMeter:MC0203J22010600005","2024-07-10T07:30:00",26,21.721752,0.172],
    [26056,"urn:WaterMeter:MC0203J22010600005","2024-07-10T07:45:00",26.2,21.66671,0.162],
    [26057,"urn:WaterMeter:MC0203J22010600005","2024-07-10T08:00:00",26.2,21.56543,0.161],
    [26058,"urn:WaterMeter:MC0203J22010600005","2024-07-10T08:15:00",26.399,21.564304,0.169],
    [26059,"urn:WaterMeter:MC0203J22010600005","2024-07-10T08:30:00",26.5,21.507244,0.165],
    [26060,"urn:WaterMeter:MC0203J22010600005","2024-07-10T08:45:00",26.6,21.617447,0.179],
    [26061,"urn:WaterMeter:MC0203J22010600005","2024-07-10T09:00:00",26.799,22.613535,0.193],
    [26062,"urn:WaterMeter:MC0203J22010600005","2024-07-10T09:15:00",27,23.941704,0.214],
    [26063,"urn:WaterMeter:MC0203J22010600005","2024-07-10T09:30:00",27.299,25.074799,0.236],
    [26064,"urn:WaterMeter:MC0203J22010600005","2024-07-10T09:45:00",27.5,25.922749,0.235],
    [26065,"urn:WaterMeter:MC0203J22010600005","2024-07-10T10:00:00",27.7,26.494902,0.242],
    [26066,"urn:WaterMeter:MC0203J22010600005","2024-07-10T10:15:00",27.899,26.884354,0.246],
    [26067,"urn:WaterMeter:MC0203J22010600005","2024-07-10T10:30:00",28.2,27.17136,0.243],
    [26068,"urn:WaterMeter:MC0203J22010600005","2024-07-10T10:45:00",28.399,27.370003,0.248],
    [26069,"urn:WaterMeter:MC0203J22010600005","2024-07-10T11:00:00",28.6,27.56434,0.253],
    [26070,"urn:WaterMeter:MC0203J22010600005","2024-07-10T11:15:00",28.799,27.687305,0.253],
    [26071,"urn:WaterMeter:MC0203J22010600005","2024-07-10T11:30:00",28.799,27.753986,0.248],
    [26072,"urn:WaterMeter:MC0203J22010600005","2024-07-10T11:45:00",28.899,27.818766,0.258],
    [26073,"urn:WaterMeter:MC0203J22010600005","2024-07-10T12:00:00",29,27.78622,0.25],
    [26074,"urn:WaterMeter:MC0203J22010600005","2024-07-10T12:15:00",29.2,27.816864,0.27],
    [26075,"urn:WaterMeter:MC0203J22010600005","2024-07-10T12:30:00",29.299,27.779238,0.248],
    [26076,"urn:WaterMeter:MC0203J22010600005","2024-07-10T12:45:00",29.5,27.78114,0.272],
    [26077,"urn:WaterMeter:MC0203J22010600005","2024-07-10T13:00:00",29.6,27.714808,0.27],
    [26078,"urn:WaterMeter:MC0203J22010600005","2024-07-10T13:15:00",29.7,27.657011,0.244],
    [26079,"urn:WaterMeter:MC0203J22010600005","2024-07-10T13:30:00",29.799,27.652782,0.265],
    [26080,"urn:WaterMeter:MC0203J22010600005","2024-07-10T13:45:00",30,27.587965,0.245],
    [26081,"urn:WaterMeter:MC0203J22010600005","2024-07-10T14:00:00",30,27.514303,0.262],
    [26082,"urn:WaterMeter:MC0203J22010600005","2024-07-10T14:15:00",30.1,27.463875,0.241],
    [26083,"urn:WaterMeter:MC0203J22010600005","2024-07-10T14:30:00",30.2,27.366512,0.258],
    [26084,"urn:WaterMeter:MC0203J22010600005","2024-07-10T14:45:00",30.299,27.336218,0.244],
    [26085,"urn:WaterMeter:MC0203J22010600005","2024-07-10T15:00:00",30.399,27.25631,0.241],
    [26086,"urn:WaterMeter:MC0203J22010600005","2024-07-10T15:15:00",30.399,27.188854,0.27],
    [26087,"urn:WaterMeter:MC0203J22010600005","2024-07-10T15:30:00",30.5,27.08447,0.252],
    [26088,"urn:WaterMeter:MC0203J22010600005","2024-07-10T15:45:00",30.5,27.01973,0.244],
    [26089,"urn:WaterMeter:MC0203J22010600005","2024-07-10T16:00:00",30.5,26.967325,0.237],
    [26090,"urn:WaterMeter:MC0203J22010600005","2024-07-10T16:15:00",30.5,26.883188,0.25],
    [26091,"urn:WaterMeter:MC0203J22010600005","2024-07-10T16:30:00",30.399,26.842033,0.244],
    [26092,"urn:WaterMeter:MC0203J22010600005","2024-07-10T16:45:00",30.399,26.752815,0.24],
    [26093,"urn:WaterMeter:MC0203J22010600005","2024-07-10T17:00:00",30.299,26.682257,0.237],
    [26094,"urn:WaterMeter:MC0203J22010600005","2024-07-10T17:15:00",30.299,26.636833,0.243],
    [26095,"urn:WaterMeter:MC0203J22010600005","2024-07-10T17:30:00",30.299,26.566275,0.23],
    [26096,"urn:WaterMeter:MC0203J22010600005","2024-07-10T17:45:00",30.2,26.544165,0.23],
    [26097,"urn:WaterMeter:MC0203J22010600005","2024-07-10T18:00:00",30.2,26.439043,0.255],
    [26098,"urn:WaterMeter:MC0203J22010600005","2024-07-10T18:15:00",30.1,26.41771,0.226],
    [26099,"urn:WaterMeter:MC0203J22010600005","2024-07-10T18:30:00",30,26.369997,0.227],
    [26100,"urn:WaterMeter:MC0203J22010600005","2024-07-10T18:45:00",29.899,26.358747,0.227],
    [26101,"urn:WaterMeter:MC0203J22010600005","2024-07-10T19:00:00",29.799,26.298197,0.24],
    [26102,"urn:WaterMeter:MC0203J22010600005","2024-07-10T19:15:00",29.7,26.274185,0.23],
    [26103,"urn:WaterMeter:MC0203J22010600005","2024-07-10T19:30:00",29.6,26.286947,0.222],
    [26104,"urn:WaterMeter:MC0203J22010600005","2024-07-10T19:45:00",29.5,26.258282,0.225],
    [26105,"urn:WaterMeter:MC0203J22010600005","2024-07-10T20:00:00",29.399,26.21988,0.237],
    [26106,"urn:WaterMeter:MC0203J22010600005","2024-07-10T20:15:00",29.2,26.224148,0.239],
    [26107,"urn:WaterMeter:MC0203J22010600005","2024-07-10T20:30:00",29.1,26.222208,0.242],
    [26108,"urn:WaterMeter:MC0203J22010600005","2024-07-10T20:45:00",29,26.195055,0.236],
    [26109,"urn:WaterMeter:MC0203J22010600005","2024-07-10T21:00:00",28.899,26.194279,0.239],
    [26110,"urn:WaterMeter:MC0203J22010600005","2024-07-10T21:15:00",28.799,26.18846,0.226],
    [26111,"urn:WaterMeter:MC0203J22010600005","2024-07-10T21:30:00",28.7,26.199709,0.242],
    [26112,"urn:WaterMeter:MC0203J22010600005","2024-07-10T21:45:00",28.6,26.161306,0.225],
    [26113,"urn:WaterMeter:MC0203J22010600005","2024-07-10T22:00:00",28.5,26.174496,0.226],
    [26114,"urn:WaterMeter:MC0203J22010600005","2024-07-10T22:15:00",28.399,26.16282,0.231],
    [26115,"urn:WaterMeter:MC0203J22010600005","2024-07-10T22:30:00",28.399,26.156652,0.238],
    [26116,"urn:WaterMeter:MC0203J22010600005","2024-07-10T22:45:00",28.299,26.113945,0.241],
    [26117,"urn:WaterMeter:MC0203J22010600005","2024-07-10T23:00:00",28.2,26.139196,0.225],
    [26118,"urn:WaterMeter:MC0203J22010600005","2024-07-10T23:15:00",28.1,26.131012,0.229],
    [26119,"urn:WaterMeter:MC0203J22010600005","2024-07-10T23:30:00",28,26.1423,0.219],
    [26120,"urn:WaterMeter:MC0203J22010600005","2024-07-10T23:45:00",28,26.132175,0.231],
    [26121,"urn:WaterMeter:MC0203J22010600005","2024-07-11T00:00:00",27.799,26.121742,0.226],
    [26122,"urn:WaterMeter:MC0203J22010600005","2024-07-11T00:15:00",27.7,26.093773,0.233],
    [26123,"urn:WaterMeter:MC0203J22010600005","2024-07-11T00:30:00",27.6,26.099243,0.24],
    [26124,"urn:WaterMeter:MC0203J22010600005","2024-07-11T00:45:00",27.5,26.113556,0.229],
    [26125,"urn:WaterMeter:MC0203J22010600005","2024-07-11T01:00:00",27.399,26.087994,0.221],
    [26126,"urn:WaterMeter:MC0203J22010600005","2024-07-11T01:15:00",27.299,26.09071,0.244],
    [26127,"urn:WaterMeter:MC0203J22010600005","2024-07-11T01:30:00",27.2,26.112392,0.232],
    [26128,"urn:WaterMeter:MC0203J22010600005","2024-07-11T01:45:00",27.1,26.079073,0.238],
    [26129,"urn:WaterMeter:MC0203J22010600005","2024-07-11T02:00:00",27,26.074766,0.229],
    [26130,"urn:WaterMeter:MC0203J22010600005","2024-07-11T02:15:00",26.899,26.091097,0.242],
    [26131,"urn:WaterMeter:MC0203J22010600005","2024-07-11T02:30:00",26.899,26.095713,0.221],
    [26132,"urn:WaterMeter:MC0203J22010600005","2024-07-11T02:45:00",26.799,26.07946,0.233],
    [26133,"urn:WaterMeter:MC0203J22010600005","2024-07-11T03:00:00",26.7,26.084852,0.227],
    [26134,"urn:WaterMeter:MC0203J22010600005","2024-07-11T03:15:00",26.6,26.05735,0.233],
    [26135,"urn:WaterMeter:MC0203J22010600005","2024-07-11T03:30:00",26.5,26.0686,0.226],
    [26136,"urn:WaterMeter:MC0203J22010600005","2024-07-11T03:45:00",26.399,26.048817,0.233],
    [26137,"urn:WaterMeter:MC0203J22010600005","2024-07-11T04:00:00",26.299,26.056536,0.236],
    [26138,"urn:WaterMeter:MC0203J22010600005","2024-07-11T04:15:00",26.2,26.02205,0.232],
    [26139,"urn:WaterMeter:MC0203J22010600005","2024-07-11T04:30:00",26.1,26.053432,0.231],
    [26140,"urn:WaterMeter:MC0203J22010600005","2024-07-11T04:45:00",26.1,26.006147,0.232],
    [26141,"urn:WaterMeter:MC0203J22010600005","2024-07-11T05:00:00",26,25.994122,0.216],
    [26142,"urn:WaterMeter:MC0203J22010600005","2024-07-11T05:15:00",25.899,26.035976,0.236],
    [26143,"urn:WaterMeter:MC0203J22010600005","2024-07-11T05:30:00",25.799,26.014294,0.227],
    [26144,"urn:WaterMeter:MC0203J22010600005","2024-07-11T05:45:00",25.799,26.000717,0.228],
    [26145,"urn:WaterMeter:MC0203J22010600005","2024-07-11T06:00:00",25.7,26.00766,0.235],
    [26146,"urn:WaterMeter:MC0203J22010600005","2024-07-11T06:15:00",25.799,25.98749,0.229],
    [26147,"urn:WaterMeter:MC0203J22010600005","2024-07-11T06:30:00",25.799,25.959173,0.225],
    [26148,"urn:WaterMeter:MC0203J22010600005","2024-07-11T06:45:00",25.799,25.925076,0.221],
    [26149,"urn:WaterMeter:MC0203J22010600005","2024-07-11T07:00:00",25.899,25.952618,0.222],
    [26150,"urn:WaterMeter:MC0203J22010600005","2024-07-11T07:15:00",26,25.880817,0.228],
    [26151,"urn:WaterMeter:MC0203J22010600005","2024-07-11T07:30:00",26.1,25.868055,0.233],
    [26152,"urn:WaterMeter:MC0203J22010600005","2024-07-11T07:45:00",26.2,25.821856,0.216],
    [26153,"urn:WaterMeter:MC0203J22010600005","2024-07-11T08:00:00",26.299,25.777287,0.222],
    [26154,"urn:WaterMeter:MC0203J22010600005","2024-07-11T08:15:00",26.5,25.72527,0.215],
    [26155,"urn:WaterMeter:MC0203J22010600005","2024-07-11T08:30:00",26.6,25.674105,0.213],
    [26156,"urn:WaterMeter:MC0203J22010600005","2024-07-11T08:45:00",26.799,25.592258,0.235],
    [26157,"urn:WaterMeter:MC0203J22010600005","2024-07-11T09:00:00",27,25.55696,0.22],
    [26158,"urn:WaterMeter:MC0203J22010600005","2024-07-11T09:15:00",27.2,25.4755,0.224],
    [26159,"urn:WaterMeter:MC0203J22010600005","2024-07-11T09:30:00",27.399,25.37771,0.22],
    [26160,"urn:WaterMeter:MC0203J22010600005","2024-07-11T09:45:00",27.6,25.273403,0.216],
    [26161,"urn:WaterMeter:MC0203J22010600005","2024-07-11T10:00:00",27.799,25.20979,0.219],
    [26162,"urn:WaterMeter:MC0203J22010600005","2024-07-11T10:15:00",27.899,25.121347,0.227],
    [26163,"urn:WaterMeter:MC0203J22010600005","2024-07-11T10:30:00",28.2,25.049974,0.21],
    [26164,"urn:WaterMeter:MC0203J22010600005","2024-07-11T10:45:00",28.399,24.968864,0.215],
    [26165,"urn:WaterMeter:MC0203J22010600005","2024-07-11T11:00:00",28.7,24.870337,0.214],
    [26166,"urn:WaterMeter:MC0203J22010600005","2024-07-11T11:15:00",28.899,24.785,0.203],
    [26167,"urn:WaterMeter:MC0203J22010600005","2024-07-11T11:30:00",29,24.687675,0.203],
    [26168,"urn:WaterMeter:MC0203J22010600005","2024-07-11T11:45:00",29.2,24.604277,0.21],
    [26169,"urn:WaterMeter:MC0203J22010600005","2024-07-11T12:00:00",29.299,24.472391,0.215],
    [26170,"urn:WaterMeter:MC0203J22010600005","2024-07-11T12:15:00",29.5,24.383173,0.203],
    [26171,"urn:WaterMeter:MC0203J22010600005","2024-07-11T12:30:00",29.6,24.245857,0.206],
    [26172,"urn:WaterMeter:MC0203J22010600005","2024-07-11T12:45:00",29.799,24.169052,0.201],
    [26173,"urn:WaterMeter:MC0203J22010600005","2024-07-11T13:00:00",29.899,24.0457,0.204],
    [26174,"urn:WaterMeter:MC0203J22010600005","2024-07-11T13:15:00",30.1,23.92933,0.197],
    [26175,"urn:WaterMeter:MC0203J22010600005","2024-07-11T13:30:00",30.2,23.823008,0.205],
    [26176,"urn:WaterMeter:MC0203J22010600005","2024-07-11T13:45:00",30.299,23.672928,0.193],
    [26177,"urn:WaterMeter:MC0203J22010600005","2024-07-11T14:00:00",30.399,23.555782,0.193],
    [26178,"urn:WaterMeter:MC0203J22010600005","2024-07-11T14:15:00",30.5,23.45105,0.195],
    [26179,"urn:WaterMeter:MC0203J22010600005","2024-07-11T14:30:00",30.6,23.341623,0.19],
    [26180,"urn:WaterMeter:MC0203J22010600005","2024-07-11T14:45:00",30.7,23.21478,0.196],
    [26181,"urn:WaterMeter:MC0203J22010600005","2024-07-11T15:00:00",30.7,23.113577,0.193],
    [26182,"urn:WaterMeter:MC0203J22010600005","2024-07-11T15:15:00",30.799,23.013111,0.205],
    [26183,"urn:WaterMeter:MC0203J22010600005","2024-07-11T15:30:00",30.799,22.878897,0.185],
    [26184,"urn:WaterMeter:MC0203J22010600005","2024-07-11T15:45:00",30.799,22.807873,0.198],
    [26185,"urn:WaterMeter:MC0203J22010600005","2024-07-11T16:00:00",30.799,22.703178,0.184],
    [26186,"urn:WaterMeter:MC0203J22010600005","2024-07-11T16:15:00",30.799,22.579826,0.186],
    [26187,"urn:WaterMeter:MC0203J22010600005","2024-07-11T16:30:00",30.799,22.471601,0.179],
    [26188,"urn:WaterMeter:MC0203J22010600005","2024-07-11T16:45:00",30.7,22.397514,0.183],
    [26189,"urn:WaterMeter:MC0203J22010600005","2024-07-11T17:00:00",30.7,22.303215,0.179],
    [26190,"urn:WaterMeter:MC0203J22010600005","2024-07-11T17:15:00",30.6,22.24856,0.183],
    [26191,"urn:WaterMeter:MC0203J22010600005","2024-07-11T17:30:00",30.6,22.131414,0.191],
    [26192,"urn:WaterMeter:MC0203J22010600005","2024-07-11T17:45:00",30.6,22.076332,0.18],
    [26193,"urn:WaterMeter:MC0203J22010600005","2024-07-11T18:00:00",30.5,21.987116,0.175],
    [26194,"urn:WaterMeter:MC0203J22010600005","2024-07-11T18:15:00",30.399,21.894794,0.181],
    [26195,"urn:WaterMeter:MC0203J22010600005","2024-07-11T18:30:00",30.399,21.881607,0.174],
    [26196,"urn:WaterMeter:MC0203J22010600005","2024-07-11T18:45:00",30.299,21.848635,0.171],
    [26197,"urn:WaterMeter:MC0203J22010600005","2024-07-11T19:00:00",30.1,21.764462,0.175],
    [26198,"urn:WaterMeter:MC0203J22010600005","2024-07-11T19:15:00",30,21.710892,0.176],
    [26199,"urn:WaterMeter:MC0203J22010600005","2024-07-11T19:30:00",29.899,21.700457,0.175],
    [26200,"urn:WaterMeter:MC0203J22010600005","2024-07-11T19:45:00",29.799,21.656624,0.186],
    [26201,"urn:WaterMeter:MC0203J22010600005","2024-07-11T20:00:00",29.7,21.627144,0.177],
    [26202,"urn:WaterMeter:MC0203J22010600005","2024-07-11T20:15:00",29.6,21.61861,0.171],
    [26203,"urn:WaterMeter:MC0203J22010600005","2024-07-11T20:30:00",29.5,21.582148,0.167],
    [26204,"urn:WaterMeter:MC0203J22010600005","2024-07-11T20:45:00",29.399,21.57788,0.183],
    [26205,"urn:WaterMeter:MC0203J22010600005","2024-07-11T21:00:00",29.299,21.556896,0.167],
    [26206,"urn:WaterMeter:MC0203J22010600005","2024-07-11T21:15:00",29.2,21.523188,0.168],
    [26207,"urn:WaterMeter:MC0203J22010600005","2024-07-11T21:30:00",29.1,21.494095,0.171],
    [26208,"urn:WaterMeter:MC0203J22010600005","2024-07-11T21:45:00",29,21.488237,0.166],
    [26209,"urn:WaterMeter:MC0203J22010600005","2024-07-11T22:00:00",28.899,21.494871,0.169],
    [26210,"urn:WaterMeter:MC0203J22010600005","2024-07-11T22:15:00",28.799,21.432419,0.168],
    [26211,"urn:WaterMeter:MC0203J22010600005","2024-07-11T22:30:00",28.7,21.468454,0.167],
    [26212,"urn:WaterMeter:MC0203J22010600005","2024-07-11T22:45:00",28.6,21.43203,0.178],
    [26213,"urn:WaterMeter:MC0203J22010600005","2024-07-11T23:00:00",28.5,21.400185,0.175],
    [26214,"urn:WaterMeter:MC0203J22010600005","2024-07-11T23:15:00",28.399,21.400959,0.17],
    [26215,"urn:WaterMeter:MC0203J22010600005","2024-07-11T23:30:00",28.299,21.406816,0.174],
    [26216,"urn:WaterMeter:MC0203J22010600005","2024-07-11T23:45:00",28.2,21.39712,0.172],
    [26217,"urn:WaterMeter:MC0203J22010600005","2024-07-12T00:00:00",28.1,21.376173,0.178],
    [26218,"urn:WaterMeter:MC0203J22010600005","2024-07-12T00:15:00",28,21.35445,0.17],
    [26219,"urn:WaterMeter:MC0203J22010600005","2024-07-12T00:30:00",27.899,21.366087,0.162],
    [26220,"urn:WaterMeter:MC0203J22010600005","2024-07-12T00:45:00",27.799,21.36725,0.166],
    [26221,"urn:WaterMeter:MC0203J22010600005","2024-07-12T01:00:00",27.7,21.36217,0.164],
    [26222,"urn:WaterMeter:MC0203J22010600005","2024-07-12T01:15:00",27.6,21.316824,0.178],
    [26223,"urn:WaterMeter:MC0203J22010600005","2024-07-12T01:30:00",27.5,21.283426,0.163],
    [26224,"urn:WaterMeter:MC0203J22010600005","2024-07-12T01:45:00",27.5,21.29743,0.174],
    [26225,"urn:WaterMeter:MC0203J22010600005","2024-07-12T02:00:00",27.399,21.283037,0.163],
    [26226,"urn:WaterMeter:MC0203J22010600005","2024-07-12T02:15:00",27.299,21.299368,0.16],
    [26227,"urn:WaterMeter:MC0203J22010600005","2024-07-12T02:30:00",27.2,21.281137,0.163],
    [26228,"urn:WaterMeter:MC0203J22010600005","2024-07-12T02:45:00",27.1,21.258638,0.168],
    [26229,"urn:WaterMeter:MC0203J22010600005","2024-07-12T03:00:00",27,21.272991,0.165],
    [26230,"urn:WaterMeter:MC0203J22010600005","2024-07-12T03:15:00",26.899,21.244637,0.169],
    [26231,"urn:WaterMeter:MC0203J22010600005","2024-07-12T03:30:00",26.899,21.253208,0.164],
    [26232,"urn:WaterMeter:MC0203J22010600005","2024-07-12T03:45:00",26.799,21.233425,0.161],
    [26233,"urn:WaterMeter:MC0203J22010600005","2024-07-12T04:00:00",26.7,21.214031,0.164],
    [26234,"urn:WaterMeter:MC0203J22010600005","2024-07-12T04:15:00",26.7,21.279585,0.166],
    [26235,"urn:WaterMeter:MC0203J22010600005","2024-07-12T04:30:00",26.6,21.194248,0.159],
    [26236,"urn:WaterMeter:MC0203J22010600005","2024-07-12T04:45:00",26.5,21.191145,0.16],
    [26237,"urn:WaterMeter:MC0203J22010600005","2024-07-12T05:00:00",26.399,21.237692,0.166],
    [26238,"urn:WaterMeter:MC0203J22010600005","2024-07-12T05:15:00",26.299,21.166668,0.182],
    [26239,"urn:WaterMeter:MC0203J22010600005","2024-07-12T05:30:00",26.2,21.182611,0.164],
    [26240,"urn:WaterMeter:MC0203J22010600005","2024-07-12T05:45:00",26.2,21.148438,0.158],
    [26241,"urn:WaterMeter:MC0203J22010600005","2024-07-12T06:00:00",26.2,21.120895,0.171],
    [26242,"urn:WaterMeter:MC0203J22010600005","2024-07-12T06:15:00",26.299,21.102703,0.162],
    [26243,"urn:WaterMeter:MC0203J22010600005","2024-07-12T06:30:00",26.399,21.09611,0.172],
    [26244,"urn:WaterMeter:MC0203J22010600005","2024-07-12T06:45:00",26.5,21.059647,0.158],
    [26245,"urn:WaterMeter:MC0203J22010600005","2024-07-12T07:00:00",26.7,21.044518,0.164],
    [26246,"urn:WaterMeter:MC0203J22010600005","2024-07-12T07:15:00",26.799,20.98129,0.162],
    [26247,"urn:WaterMeter:MC0203J22010600005","2024-07-12T07:30:00",27,20.978964,0.161],
    [26248,"urn:WaterMeter:MC0203J22010600005","2024-07-12T07:45:00",27.1,20.956465,0.169],
    [26249,"urn:WaterMeter:MC0203J22010600005","2024-07-12T08:00:00",27.299,20.850956,0.164],
    [26250,"urn:WaterMeter:MC0203J22010600005","2024-07-12T08:15:00",27.399,20.831173,0.16],
    [26251,"urn:WaterMeter:MC0203J22010600005","2024-07-12T08:30:00",27.6,20.74855,0.17],
    [26252,"urn:WaterMeter:MC0203J22010600005","2024-07-12T08:45:00",27.7,20.790405,0.159],
    [26253,"urn:WaterMeter:MC0203J22010600005","2024-07-12T09:00:00",27.899,21.273767,0.191],
    [26254,"urn:WaterMeter:MC0203J22010600005","2024-07-12T09:15:00",28.2,22.689991,0.2],
    [26255,"urn:WaterMeter:MC0203J22010600005","2024-07-12T09:30:00",28.399,23.756327,0.225],
    [26256,"urn:WaterMeter:MC0203J22010600005","2024-07-12T09:45:00",28.7,24.728792,0.237],
    [26257,"urn:WaterMeter:MC0203J22010600005","2024-07-12T10:00:00",28.899,25.44951,0.236],
    [26258,"urn:WaterMeter:MC0203J22010600005","2024-07-12T10:15:00",29.1,25.936712,0.252],
    [26259,"urn:WaterMeter:MC0203J22010600005","2024-07-12T10:30:00",29.399,26.283495,0.244],
    [26260,"urn:WaterMeter:MC0203J22010600005","2024-07-12T10:45:00",29.6,26.540247,0.248],
    [26261,"urn:WaterMeter:MC0203J22010600005","2024-07-12T11:00:00",29.799,26.73695,0.242],
    [26262,"urn:WaterMeter:MC0203J22010600005","2024-07-12T11:15:00",30,26.864182,0.25],
    [26263,"urn:WaterMeter:MC0203J22010600005","2024-07-12T11:30:00",30.1,26.947542,0.246],
    [26264,"urn:WaterMeter:MC0203J22010600005","2024-07-12T11:45:00",30.2,27.054214,0.243],
    [26265,"urn:WaterMeter:MC0203J22010600005","2024-07-12T12:00:00",30.299,27.088776,0.255],
    [26266,"urn:WaterMeter:MC0203J22010600005","2024-07-12T12:15:00",30.5,27.118256,0.247],
    [26267,"urn:WaterMeter:MC0203J22010600005","2024-07-12T12:30:00",30.6,27.116705,0.243],
    [26268,"urn:WaterMeter:MC0203J22010600005","2024-07-12T12:45:00",30.799,27.106232,0.249],
    [26269,"urn:WaterMeter:MC0203J22010600005","2024-07-12T13:00:00",30.899,27.066666,0.253],
    [26270,"urn:WaterMeter:MC0203J22010600005","2024-07-12T13:15:00",31,27.028263,0.253],
    [26271,"urn:WaterMeter:MC0203J22010600005","2024-07-12T13:30:00",31.1,26.98478,0.244],
    [26272,"urn:WaterMeter:MC0203J22010600005","2024-07-12T13:45:00",31.2,26.949093,0.251],
    [26273,"urn:WaterMeter:MC0203J22010600005","2024-07-12T14:00:00",31.2,26.917711,0.245],
    [26274,"urn:WaterMeter:MC0203J22010600005","2024-07-12T14:15:00",31.2,26.85526,0.239],
    [26275,"urn:WaterMeter:MC0203J22010600005","2024-07-12T14:30:00",31.2,26.771435,0.249],
    [26276,"urn:WaterMeter:MC0203J22010600005","2024-07-12T14:45:00",31.2,26.72415,0.246],
    [26277,"urn:WaterMeter:MC0203J22010600005","2024-07-12T15:00:00",31.2,26.68885,0.246],
    [26278,"urn:WaterMeter:MC0203J22010600005","2024-07-12T15:15:00",31.2,26.612047,0.241],
    [26279,"urn:WaterMeter:MC0203J22010600005","2024-07-12T15:30:00",31.2,26.55809,0.247],
    [26280,"urn:WaterMeter:MC0203J22010600005","2024-07-12T15:45:00",31.1,26.505375,0.249],
    [26281,"urn:WaterMeter:MC0203J22010600005","2024-07-12T16:00:00",30.899,26.444048,0.231],
    [26282,"urn:WaterMeter:MC0203J22010600005","2024-07-12T16:15:00",30.899,26.403706,0.257],
    [26283,"urn:WaterMeter:MC0203J22010600005","2024-07-12T16:30:00",30.799,26.321898,0.238],
    [26284,"urn:WaterMeter:MC0203J22010600005","2024-07-12T16:45:00",30.7,26.29746,0.236],
    [26285,"urn:WaterMeter:MC0203J22010600005","2024-07-12T17:00:00",30.6,26.274185,0.238],
    [26286,"urn:WaterMeter:MC0203J22010600005","2024-07-12T17:15:00",30.6,26.200485,0.238],
    [26287,"urn:WaterMeter:MC0203J22010600005","2024-07-12T17:30:00",30.5,26.184193,0.239],
    [26288,"urn:WaterMeter:MC0203J22010600005","2024-07-12T17:45:00",30.399,26.129112,0.242],
    [26289,"urn:WaterMeter:MC0203J22010600005","2024-07-12T18:00:00",30.299,26.111618,0.256],
    [26290,"urn:WaterMeter:MC0203J22010600005","2024-07-12T18:15:00",30.2,26.08295,0.226],
    [26291,"urn:WaterMeter:MC0203J22010600005","2024-07-12T18:30:00",30.1,26.04261,0.232],
    [26292,"urn:WaterMeter:MC0203J22010600005","2024-07-12T18:45:00",30,26.030973,0.236],
    [26293,"urn:WaterMeter:MC0203J22010600005","2024-07-12T19:00:00",29.899,26.01856,0.234],
    [26294,"urn:WaterMeter:MC0203J22010600005","2024-07-12T19:15:00",29.799,25.995247,0.236],
    [26295,"urn:WaterMeter:MC0203J22010600005","2024-07-12T19:30:00",29.7,25.979343,0.247],
    [26296,"urn:WaterMeter:MC0203J22010600005","2024-07-12T19:45:00",29.6,25.983261,0.231],
    [26297,"urn:WaterMeter:MC0203J22010600005","2024-07-12T20:00:00",29.5,25.97624,0.247],
    [26298,"urn:WaterMeter:MC0203J22010600005","2024-07-12T20:15:00",29.399,25.9487,0.239],
    [26299,"urn:WaterMeter:MC0203J22010600005","2024-07-12T20:30:00",29.299,25.959173,0.228],
    [26300,"urn:WaterMeter:MC0203J22010600005","2024-07-12T20:45:00",29.299,25.921972,0.239],
    [26301,"urn:WaterMeter:MC0203J22010600005","2024-07-12T21:00:00",29.2,25.942919,0.239],
    [26302,"urn:WaterMeter:MC0203J22010600005","2024-07-12T21:15:00",29.1,25.912275,0.224],
    [26303,"urn:WaterMeter:MC0203J22010600005","2024-07-12T21:30:00",29.1,25.942532,0.232],
    [26304,"urn:WaterMeter:MC0203J22010600005","2024-07-12T21:45:00",29,25.922361,0.233],
    [26305,"urn:WaterMeter:MC0203J22010600005","2024-07-12T22:00:00",29,25.930857,0.237],
    [26306,"urn:WaterMeter:MC0203J22010600005","2024-07-12T22:15:00",28.899,25.899048,0.239],
    [26307,"urn:WaterMeter:MC0203J22010600005","2024-07-12T22:30:00",28.899,25.914215,0.229],
    [26308,"urn:WaterMeter:MC0203J22010600005","2024-07-12T22:45:00",28.799,25.894432,0.241],
    [26309,"urn:WaterMeter:MC0203J22010600005","2024-07-12T23:00:00",28.799,25.912663,0.239],
    [26310,"urn:WaterMeter:MC0203J22010600005","2024-07-12T23:15:00",28.7,25.902578,0.234],
    [26311,"urn:WaterMeter:MC0203J22010600005","2024-07-12T23:30:00",28.7,25.8634,0.241],
    [26312,"urn:WaterMeter:MC0203J22010600005","2024-07-12T23:45:00",28.6,25.872282,0.232],
    [26313,"urn:WaterMeter:MC0203J22010600005","2024-07-13T00:00:00",28.6,25.862974,0.23],
    [26314,"urn:WaterMeter:MC0203J22010600005","2024-07-13T00:15:00",28.5,25.889389,0.237],
    [26315,"urn:WaterMeter:MC0203J22010600005","2024-07-13T00:30:00",28.5,25.88551,0.23],
    [26316,"urn:WaterMeter:MC0203J22010600005","2024-07-13T00:45:00",28.5,25.842026,0.225],
    [26317,"urn:WaterMeter:MC0203J22010600005","2024-07-13T01:00:00",28.399,25.844006,0.23],
    [26318,"urn:WaterMeter:MC0203J22010600005","2024-07-13T01:15:00",28.399,25.82655,0.23],
    [26319,"urn:WaterMeter:MC0203J22010600005","2024-07-13T01:30:00",28.399,25.840862,0.229],
    [26320,"urn:WaterMeter:MC0203J22010600005","2024-07-13T01:45:00",28.299,25.821468,0.229],
    [26321,"urn:WaterMeter:MC0203J22010600005","2024-07-13T02:00:00",28.299,25.829653,0.226],
    [26322,"urn:WaterMeter:MC0203J22010600005","2024-07-13T02:15:00",28.2,25.795906,0.235],
    [26323,"urn:WaterMeter:MC0203J22010600005","2024-07-13T02:30:00",28.2,25.8044,0.233],
    [26324,"urn:WaterMeter:MC0203J22010600005","2024-07-13T02:45:00",28.2,25.817627,0.234],
    [26325,"urn:WaterMeter:MC0203J22010600005","2024-07-13T03:00:00",28.2,25.780777,0.226],
    [26326,"urn:WaterMeter:MC0203J22010600005","2024-07-13T03:15:00",28.1,25.781902,0.218],
    [26327,"urn:WaterMeter:MC0203J22010600005","2024-07-13T03:30:00",28.1,25.76177,0.229],
    [26328,"urn:WaterMeter:MC0203J22010600005","2024-07-13T03:45:00",28,25.769917,0.236],
    [26329,"urn:WaterMeter:MC0203J22010600005","2024-07-13T04:00:00",28,25.731901,0.24],
    [26330,"urn:WaterMeter:MC0203J22010600005","2024-07-13T04:15:00",27.899,25.743113,0.225],
    [26331,"urn:WaterMeter:MC0203J22010600005","2024-07-13T04:30:00",27.899,25.73423,0.221],
    [26332,"urn:WaterMeter:MC0203J22010600005","2024-07-13T04:45:00",27.899,25.73966,0.222],
    [26333,"urn:WaterMeter:MC0203J22010600005","2024-07-13T05:00:00",27.799,25.692724,0.223],
    [26334,"urn:WaterMeter:MC0203J22010600005","2024-07-13T05:15:00",27.799,25.7191,0.218],
    [26335,"urn:WaterMeter:MC0203J22010600005","2024-07-13T05:30:00",27.7,25.71751,0.226],
    [26336,"urn:WaterMeter:MC0203J22010600005","2024-07-13T05:45:00",27.7,25.694664,0.236],
    [26337,"urn:WaterMeter:MC0203J22010600005","2024-07-13T06:00:00",27.7,25.674881,0.223],
    [26338,"urn:WaterMeter:MC0203J22010600005","2024-07-13T06:15:00",27.7,25.703585,0.223],
    [26339,"urn:WaterMeter:MC0203J22010600005","2024-07-13T06:30:00",27.7,25.651995,0.217],
    [26340,"urn:WaterMeter:MC0203J22010600005","2024-07-13T06:45:00",27.7,25.62907,0.237],
    [26341,"urn:WaterMeter:MC0203J22010600005","2024-07-13T07:00:00",27.7,25.634151,0.221],
    [26342,"urn:WaterMeter:MC0203J22010600005","2024-07-13T07:15:00",27.7,25.601955,0.218],
    [26343,"urn:WaterMeter:MC0203J22010600005","2024-07-13T07:30:00",27.7,25.592646,0.232],
    [26344,"urn:WaterMeter:MC0203J22010600005","2024-07-13T07:45:00",27.799,25.529768,0.225],
    [26345,"urn:WaterMeter:MC0203J22010600005","2024-07-13T08:00:00",27.799,25.520884,0.214],
    [26346,"urn:WaterMeter:MC0203J22010600005","2024-07-13T08:15:00",27.799,25.479767,0.218],
    [26347,"urn:WaterMeter:MC0203J22010600005","2024-07-13T08:30:00",27.799,25.439425,0.231],
    [26348,"urn:WaterMeter:MC0203J22010600005","2024-07-13T08:45:00",27.799,25.409945,0.214],
    [26349,"urn:WaterMeter:MC0203J22010600005","2024-07-13T09:00:00",27.899,25.367237,0.223],
    [26350,"urn:WaterMeter:MC0203J22010600005","2024-07-13T09:15:00",28.1,25.324219,0.216],
    [26351,"urn:WaterMeter:MC0203J22010600005","2024-07-13T09:30:00",28.2,25.243536,0.23],
    [26352,"urn:WaterMeter:MC0203J22010600005","2024-07-13T09:45:00",28.399,25.186514,0.212],
    [26353,"urn:WaterMeter:MC0203J22010600005","2024-07-13T10:00:00",28.5,25.09497,0.227],
    [26354,"urn:WaterMeter:MC0203J22010600005","2024-07-13T10:15:00",28.7,25.025148,0.224],
    [26355,"urn:WaterMeter:MC0203J22010600005","2024-07-13T10:30:00",28.799,24.972782,0.215],
    [26356,"urn:WaterMeter:MC0203J22010600005","2024-07-13T10:45:00",28.799,24.88822,0.206],
    [26357,"urn:WaterMeter:MC0203J22010600005","2024-07-13T11:00:00",29,24.837017,0.209],
    [26358,"urn:WaterMeter:MC0203J22010600005","2024-07-13T11:15:00",29.1,24.714828,0.22],
    [26359,"urn:WaterMeter:MC0203J22010600005","2024-07-13T11:30:00",29.299,24.654703,0.206],
    [26360,"urn:WaterMeter:MC0203J22010600005","2024-07-13T11:45:00",29.399,24.558117,0.204],
    [26361,"urn:WaterMeter:MC0203J22010600005","2024-07-13T12:00:00",29.399,24.478985,0.203],
    [26362,"urn:WaterMeter:MC0203J22010600005","2024-07-13T12:15:00",29.5,24.39481,0.212],
    [26363,"urn:WaterMeter:MC0203J22010600005","2024-07-13T12:30:00",29.6,24.279993,0.2],
    [26364,"urn:WaterMeter:MC0203J22010600005","2024-07-13T12:45:00",29.7,24.186121,0.212],
    [26365,"urn:WaterMeter:MC0203J22010600005","2024-07-13T13:00:00",29.799,24.098455,0.211],
    [26366,"urn:WaterMeter:MC0203J22010600005","2024-07-13T13:15:00",29.899,24.018509,0.208],
    [26367,"urn:WaterMeter:MC0203J22010600005","2024-07-13T13:30:00",29.899,23.89985,0.217],
    [26368,"urn:WaterMeter:MC0203J22010600005","2024-07-13T13:45:00",30,23.825335,0.195],
    [26369,"urn:WaterMeter:MC0203J22010600005","2024-07-13T14:00:00",30.1,23.701246,0.206],
    [26370,"urn:WaterMeter:MC0203J22010600005","2024-07-13T14:15:00",30.1,23.642672,0.196],
    [26371,"urn:WaterMeter:MC0203J22010600005","2024-07-13T14:30:00",30.1,23.537163,0.197],
    [26372,"urn:WaterMeter:MC0203J22010600005","2024-07-13T14:45:00",30,23.45105,0.193],
    [26373,"urn:WaterMeter:MC0203J22010600005","2024-07-13T15:00:00",30.1,23.34942,0.203],
    [26374,"urn:WaterMeter:MC0203J22010600005","2024-07-13T15:15:00",30,23.302444,0.194],
    [26375,"urn:WaterMeter:MC0203J22010600005","2024-07-13T15:30:00",30,23.221025,0.187],
    [26376,"urn:WaterMeter:MC0203J22010600005","2024-07-13T15:45:00",30,23.13491,0.188],
    [26377,"urn:WaterMeter:MC0203J22010600005","2024-07-13T16:00:00",30,23.036772,0.196],
    [26378,"urn:WaterMeter:MC0203J22010600005","2024-07-13T16:15:00",29.899,22.956478,0.184],
    [26379,"urn:WaterMeter:MC0203J22010600005","2024-07-13T16:30:00",29.899,22.918076,0.194],
    [26380,"urn:WaterMeter:MC0203J22010600005","2024-07-13T16:45:00",29.799,22.853258,0.183],
    [26381,"urn:WaterMeter:MC0203J22010600005","2024-07-13T17:00:00",29.799,22.79162,0.183],
    [26382,"urn:WaterMeter:MC0203J22010600005","2024-07-13T17:15:00",29.799,22.729904,0.182],
    [26383,"urn:WaterMeter:MC0203J22010600005","2024-07-13T17:30:00",29.7,22.669432,0.187],
    [26384,"urn:WaterMeter:MC0203J22010600005","2024-07-13T17:45:00",29.6,22.627539,0.185],
    [26385,"urn:WaterMeter:MC0203J22010600005","2024-07-13T18:00:00",29.6,22.552673,0.182],
    [26386,"urn:WaterMeter:MC0203J22010600005","2024-07-13T18:15:00",29.5,22.52587,0.179],
    [26387,"urn:WaterMeter:MC0203J22010600005","2024-07-13T18:30:00",29.399,22.456861,0.181],
    [26388,"urn:WaterMeter:MC0203J22010600005","2024-07-13T18:45:00",29.299,22.41846,0.183],
    [26389,"urn:WaterMeter:MC0203J22010600005","2024-07-13T19:00:00",29.299,22.443285,0.191],
    [26390,"urn:WaterMeter:MC0203J22010600005","2024-07-13T19:15:00",29.2,22.382772,0.196],
    [26391,"urn:WaterMeter:MC0203J22010600005","2024-07-13T19:30:00",29.1,22.343208,0.182],
    [26392,"urn:WaterMeter:MC0203J22010600005","2024-07-13T19:45:00",29,22.319933,0.187],
    [26393,"urn:WaterMeter:MC0203J22010600005","2024-07-13T20:00:00",28.899,22.326916,0.182],
    [26394,"urn:WaterMeter:MC0203J22010600005","2024-07-13T20:15:00",28.799,22.235332,0.188],
    [26395,"urn:WaterMeter:MC0203J22010600005","2024-07-13T20:30:00",28.7,22.2633,0.184],
    [26396,"urn:WaterMeter:MC0203J22010600005","2024-07-13T20:45:00",28.6,22.201624,0.189],
    [26397,"urn:WaterMeter:MC0203J22010600005","2024-07-13T21:00:00",28.6,22.177147,0.186],
    [26398,"urn:WaterMeter:MC0203J22010600005","2024-07-13T21:15:00",28.5,22.160894,0.184],
    [26399,"urn:WaterMeter:MC0203J22010600005","2024-07-13T21:30:00",28.5,22.17482,0.176],
    [26400,"urn:WaterMeter:MC0203J22010600005","2024-07-13T21:45:00",28.399,22.139133,0.181],
    [26401,"urn:WaterMeter:MC0203J22010600005","2024-07-13T22:00:00",28.399,22.104261,0.176],
    [26402,"urn:WaterMeter:MC0203J22010600005","2024-07-13T22:15:00",28.299,22.084091,0.185],
    [26403,"urn:WaterMeter:MC0203J22010600005","2024-07-13T22:30:00",28.299,22.074392,0.197],
    [26404,"urn:WaterMeter:MC0203J22010600005","2024-07-13T22:45:00",28.299,22.046465,0.182],
    [26405,"urn:WaterMeter:MC0203J22010600005","2024-07-13T23:00:00",28.2,22.063532,0.177],
    [26406,"urn:WaterMeter:MC0203J22010600005","2024-07-13T23:15:00",28.2,22.026293,0.178],
    [26407,"urn:WaterMeter:MC0203J22010600005","2024-07-13T23:30:00",28.2,22.005735,0.179],
    [26408,"urn:WaterMeter:MC0203J22010600005","2024-07-13T23:45:00",28.1,21.988667,0.185],
    [26409,"urn:WaterMeter:MC0203J22010600005","2024-07-14T00:00:00",28.1,21.99177,0.173],
    [26410,"urn:WaterMeter:MC0203J22010600005","2024-07-14T00:15:00",28.1,21.976643,0.183],
    [26411,"urn:WaterMeter:MC0203J22010600005","2024-07-14T00:30:00",28,21.935913,0.182],
    [26412,"urn:WaterMeter:MC0203J22010600005","2024-07-14T00:45:00",28,21.940956,0.173],
    [26413,"urn:WaterMeter:MC0203J22010600005","2024-07-14T01:00:00",27.899,21.92385,0.189],
    [26414,"urn:WaterMeter:MC0203J22010600005","2024-07-14T01:15:00",27.799,21.92346,0.179],
    [26415,"urn:WaterMeter:MC0203J22010600005","2024-07-14T01:30:00",27.799,21.8645,0.18],
    [26416,"urn:WaterMeter:MC0203J22010600005","2024-07-14T01:45:00",27.7,21.868418,0.18],
    [26417,"urn:WaterMeter:MC0203J22010600005","2024-07-14T02:00:00",27.7,21.865276,0.183],
    [26418,"urn:WaterMeter:MC0203J22010600005","2024-07-14T02:15:00",27.6,21.818727,0.183],
    [26419,"urn:WaterMeter:MC0203J22010600005","2024-07-14T02:30:00",27.5,21.849798,0.174],
    [26420,"urn:WaterMeter:MC0203J22010600005","2024-07-14T02:45:00",27.399,21.8645,0.185],
    [26421,"urn:WaterMeter:MC0203J22010600005","2024-07-14T03:00:00",27.299,21.840101,0.19],
    [26422,"urn:WaterMeter:MC0203J22010600005","2024-07-14T03:15:00",27.299,21.808254,0.173],
    [26423,"urn:WaterMeter:MC0203J22010600005","2024-07-14T03:30:00",27.2,21.826874,0.182],
    [26424,"urn:WaterMeter:MC0203J22010600005","2024-07-14T03:45:00",27.2,21.831568,0.174],
    [26425,"urn:WaterMeter:MC0203J22010600005","2024-07-14T04:00:00",27.2,21.771055,0.177],
    [26426,"urn:WaterMeter:MC0203J22010600005","2024-07-14T04:15:00",27.1,21.793165,0.174],
    [26427,"urn:WaterMeter:MC0203J22010600005","2024-07-14T04:30:00",27.1,21.802088,0.173],
    [26428,"urn:WaterMeter:MC0203J22010600005","2024-07-14T04:45:00",27.1,21.769464,0.172],
    [26429,"urn:WaterMeter:MC0203J22010600005","2024-07-14T05:00:00",27.1,21.767138,0.174],
    [26430,"urn:WaterMeter:MC0203J22010600005","2024-07-14T05:15:00",27.1,21.739985,0.18],
    [26431,"urn:WaterMeter:MC0203J22010600005","2024-07-14T05:30:00",27.1,21.733429,0.188],
    [26432,"urn:WaterMeter:MC0203J22010600005","2024-07-14T05:45:00",27.1,21.703949,0.177],
    [26433,"urn:WaterMeter:MC0203J22010600005","2024-07-14T06:00:00",27.1,21.689209,0.165],
    [26434,"urn:WaterMeter:MC0203J22010600005","2024-07-14T06:15:00",27.1,21.651543,0.168],
    [26435,"urn:WaterMeter:MC0203J22010600005","2024-07-14T06:30:00",27.1,21.653482,0.168],
    [26436,"urn:WaterMeter:MC0203J22010600005","2024-07-14T06:45:00",27.1,21.59999,0.17],
    [26437,"urn:WaterMeter:MC0203J22010600005","2024-07-14T07:00:00",27.2,21.62986,0.166],
    [26438,"urn:WaterMeter:MC0203J22010600005","2024-07-14T07:15:00",27.2,21.557283,0.181],
    [26439,"urn:WaterMeter:MC0203J22010600005","2024-07-14T07:30:00",27.2,21.542194,0.169],
    [26440,"urn:WaterMeter:MC0203J22010600005","2024-07-14T07:45:00",27.299,21.508408,0.165],
    [26441,"urn:WaterMeter:MC0203J22010600005","2024-07-14T08:00:00",27.299,21.489014,0.17],
    [26442,"urn:WaterMeter:MC0203J22010600005","2024-07-14T08:15:00",27.399,21.410269,0.16],
    [26443,"urn:WaterMeter:MC0203J22010600005","2024-07-14T08:30:00",27.399,21.361006,0.175],
    [26444,"urn:WaterMeter:MC0203J22010600005","2024-07-14T08:45:00",27.5,21.342775,0.18],
    [26445,"urn:WaterMeter:MC0203J22010600005","2024-07-14T09:00:00",27.6,21.287731,0.168],
    [26446,"urn:WaterMeter:MC0203J22010600005","2024-07-14T09:15:00",27.7,21.284977,0.167],
    [26447,"urn:WaterMeter:MC0203J22010600005","2024-07-14T09:30:00",27.899,21.208988,0.17],
    [26448,"urn:WaterMeter:MC0203J22010600005","2024-07-14T09:45:00",28,21.129429,0.164],
    [26449,"urn:WaterMeter:MC0203J22010600005","2024-07-14T10:00:00",28.2,21.089088,0.167],
    [26450,"urn:WaterMeter:MC0203J22010600005","2024-07-14T10:15:00",28.299,20.975046,0.165],
    [26451,"urn:WaterMeter:MC0203J22010600005","2024-07-14T10:30:00",28.5,20.917248,0.172],
    [26452,"urn:WaterMeter:MC0203J22010600005","2024-07-14T10:45:00",28.7,20.841259,0.174],
    [26453,"urn:WaterMeter:MC0203J22010600005","2024-07-14T11:00:00",29,20.75592,0.16],
    [26454,"urn:WaterMeter:MC0203J22010600005","2024-07-14T11:15:00",29.2,20.653515,0.158],
    [26455,"urn:WaterMeter:MC0203J22010600005","2024-07-14T11:30:00",29.299,20.56775,0.153],
    [26456,"urn:WaterMeter:MC0203J22010600005","2024-07-14T11:45:00",29.5,20.461893,0.16],
    [26457,"urn:WaterMeter:MC0203J22010600005","2024-07-14T12:00:00",29.6,20.376554,0.17],
    [26458,"urn:WaterMeter:MC0203J22010600005","2024-07-14T12:15:00",29.7,20.29238,0.159],
    [26459,"urn:WaterMeter:MC0203J22010600005","2024-07-14T12:30:00",29.899,20.183767,0.156],
    [26460,"urn:WaterMeter:MC0203J22010600005","2024-07-14T12:45:00",30,20.117437,0.148],
    [26461,"urn:WaterMeter:MC0203J22010600005","2024-07-14T13:00:00",30.2,20.000292,0.15],
    [26462,"urn:WaterMeter:MC0203J22010600005","2024-07-14T13:15:00",30.299,19.90293,0.162],
    [26463,"urn:WaterMeter:MC0203J22010600005","2024-07-14T13:30:00",30.5,19.786947,0.154],
    [26464,"urn:WaterMeter:MC0203J22010600005","2024-07-14T13:45:00",30.6,19.660103,0.159],
    [26465,"urn:WaterMeter:MC0203J22010600005","2024-07-14T14:00:00",30.799,19.568132,0.147],
    [26466,"urn:WaterMeter:MC0203J22010600005","2024-07-14T14:15:00",30.799,19.506107,0.155],
    [26467,"urn:WaterMeter:MC0203J22010600005","2024-07-14T14:30:00",30.899,19.425035,0.146],
    [26468,"urn:WaterMeter:MC0203J22010600005","2024-07-14T14:45:00",30.899,19.330389,0.154],
    [26469,"urn:WaterMeter:MC0203J22010600005","2024-07-14T15:00:00",31,19.229107,0.149],
    [26470,"urn:WaterMeter:MC0203J22010600005","2024-07-14T15:15:00",31,19.15114,0.151],
    [26471,"urn:WaterMeter:MC0203J22010600005","2024-07-14T15:30:00",31,19.066616,0.144],
    [26472,"urn:WaterMeter:MC0203J22010600005","2024-07-14T15:45:00",31,18.997143,0.145],
    [26473,"urn:WaterMeter:MC0203J22010600005","2024-07-14T16:00:00",31,18.903698,0.144],
    [26474,"urn:WaterMeter:MC0203J22010600005","2024-07-14T16:15:00",31,18.823402,0.145],
    [26475,"urn:WaterMeter:MC0203J22010600005","2024-07-14T16:30:00",30.899,18.771812,0.141],
    [26476,"urn:WaterMeter:MC0203J22010600005","2024-07-14T16:45:00",30.899,18.677553,0.142],
    [26477,"urn:WaterMeter:MC0203J22010600005","2024-07-14T17:00:00",30.799,18.663937,0.14],
    [26478,"urn:WaterMeter:MC0203J22010600005","2024-07-14T17:15:00",30.799,18.575535,0.139],
    [26479,"urn:WaterMeter:MC0203J22010600005","2024-07-14T17:30:00",30.7,18.537909,0.137],
    [26480,"urn:WaterMeter:MC0203J22010600005","2024-07-14T17:45:00",30.7,18.512695,0.144],
    [26481,"urn:WaterMeter:MC0203J22010600005","2024-07-14T18:00:00",30.6,18.460716,0.146],
    [26482,"urn:WaterMeter:MC0203J22010600005","2024-07-14T18:15:00",30.5,18.438993,0.136],
    [26483,"urn:WaterMeter:MC0203J22010600005","2024-07-14T18:30:00",30.5,18.390507,0.142],
    [26484,"urn:WaterMeter:MC0203J22010600005","2024-07-14T18:45:00",30.399,18.38973,0.137],
    [26485,"urn:WaterMeter:MC0203J22010600005","2024-07-14T19:00:00",30.299,18.368397,0.133],
    [26486,"urn:WaterMeter:MC0203J22010600005","2024-07-14T19:15:00",30.2,18.335773,0.143],
    [26487,"urn:WaterMeter:MC0203J22010600005","2024-07-14T19:30:00",30.1,18.318317,0.137],
    [26488,"urn:WaterMeter:MC0203J22010600005","2024-07-14T19:45:00",30,18.334223,0.141],
    [26489,"urn:WaterMeter:MC0203J22010600005","2024-07-14T20:00:00",29.899,18.333485,0.138],
    [26490,"urn:WaterMeter:MC0203J22010600005","2024-07-14T20:15:00",29.799,18.293919,0.135],
    [26491,"urn:WaterMeter:MC0203J22010600005","2024-07-14T20:30:00",29.799,18.311762,0.132],
    [26492,"urn:WaterMeter:MC0203J22010600005","2024-07-14T20:45:00",29.7,18.314478,0.131],
    [26493,"urn:WaterMeter:MC0203J22010600005","2024-07-14T21:00:00",29.6,18.307844,0.137],
    [26494,"urn:WaterMeter:MC0203J22010600005","2024-07-14T21:15:00",29.5,18.313702,0.136],
    [26495,"urn:WaterMeter:MC0203J22010600005","2024-07-14T21:30:00",29.399,18.309048,0.136],
    [26496,"urn:WaterMeter:MC0203J22010600005","2024-07-14T21:45:00",29.299,18.283058,0.139],
    [26497,"urn:WaterMeter:MC0203J22010600005","2024-07-14T22:00:00",29.2,18.278753,0.142],
    [26498,"urn:WaterMeter:MC0203J22010600005","2024-07-14T22:15:00",29.1,18.279955,0.139],
    [26499,"urn:WaterMeter:MC0203J22010600005","2024-07-14T22:30:00",29,18.281895,0.137],
    [26500,"urn:WaterMeter:MC0203J22010600005","2024-07-14T22:45:00",28.899,18.288837,0.135],
    [26501,"urn:WaterMeter:MC0203J22010600005","2024-07-14T23:00:00",28.899,18.283058,0.135],
    [26502,"urn:WaterMeter:MC0203J22010600005","2024-07-14T23:15:00",28.799,18.250862,0.143],
    [26503,"urn:WaterMeter:MC0203J22010600005","2024-07-14T23:30:00",28.7,18.278753,0.131],
    [26504,"urn:WaterMeter:MC0203J22010600005","2024-07-14T23:45:00",28.6,18.255518,0.133],
    [26505,"urn:WaterMeter:MC0203J22010600005","2024-07-15T00:00:00",28.5,18.253965,0.136],
    [26506,"urn:WaterMeter:MC0203J22010600005","2024-07-15T00:15:00",28.5,18.241552,0.132],
    [26507,"urn:WaterMeter:MC0203J22010600005","2024-07-15T00:30:00",28.399,18.261335,0.134],
    [26508,"urn:WaterMeter:MC0203J22010600005","2024-07-15T00:45:00",28.299,18.251251,0.14],
    [26509,"urn:WaterMeter:MC0203J22010600005","2024-07-15T01:00:00",28.2,18.24035,0.144],
    [26510,"urn:WaterMeter:MC0203J22010600005","2024-07-15T01:15:00",28.1,18.257418,0.136],
    [26511,"urn:WaterMeter:MC0203J22010600005","2024-07-15T01:30:00",28,18.244656,0.143],
    [26512,"urn:WaterMeter:MC0203J22010600005","2024-07-15T01:45:00",27.899,18.209356,0.138],
    [26513,"urn:WaterMeter:MC0203J22010600005","2024-07-15T02:00:00",27.799,18.228752,0.135],
    [26514,"urn:WaterMeter:MC0203J22010600005","2024-07-15T02:15:00",27.7,18.19035,0.134],
    [26515,"urn:WaterMeter:MC0203J22010600005","2024-07-15T02:30:00",27.7,18.231041,0.131],
    [26516,"urn:WaterMeter:MC0203J22010600005","2024-07-15T02:45:00",27.6,18.246595,0.142],
    [26517,"urn:WaterMeter:MC0203J22010600005","2024-07-15T03:00:00",27.5,18.226425,0.139],
    [26518,"urn:WaterMeter:MC0203J22010600005","2024-07-15T03:15:00",27.399,18.22914,0.14],
    [26519,"urn:WaterMeter:MC0203J22010600005","2024-07-15T03:30:00",27.299,18.188023,0.138],
    [26520,"urn:WaterMeter:MC0203J22010600005","2024-07-15T03:45:00",27.2,18.193842,0.136],
    [26521,"urn:WaterMeter:MC0203J22010600005","2024-07-15T04:00:00",27,18.203926,0.134],
    [26522,"urn:WaterMeter:MC0203J22010600005","2024-07-15T04:15:00",26.899,18.208193,0.145],
    [26523,"urn:WaterMeter:MC0203J22010600005","2024-07-15T04:30:00",26.799,18.205479,0.132],
    [26524,"urn:WaterMeter:MC0203J22010600005","2024-07-15T04:45:00",26.7,18.224098,0.138],
    [26525,"urn:WaterMeter:MC0203J22010600005","2024-07-15T05:00:00",26.6,18.236898,0.136],
    [26526,"urn:WaterMeter:MC0203J22010600005","2024-07-15T05:15:00",26.5,18.199232,0.129],
    [26527,"urn:WaterMeter:MC0203J22010600005","2024-07-15T05:30:00",26.5,18.233406,0.135],
    [26528,"urn:WaterMeter:MC0203J22010600005","2024-07-15T05:45:00",26.399,18.212072,0.136],
    [26529,"urn:WaterMeter:MC0203J22010600005","2024-07-15T06:00:00",26.299,18.213236,0.137],
    [26530,"urn:WaterMeter:MC0203J22010600005","2024-07-15T06:15:00",26.299,18.20703,0.139],
    [26531,"urn:WaterMeter:MC0203J22010600005","2024-07-15T06:30:00",26.299,18.204702,0.139],
    [26532,"urn:WaterMeter:MC0203J22010600005","2024-07-15T06:45:00",26.299,18.174446,0.131],
    [26533,"urn:WaterMeter:MC0203J22010600005","2024-07-15T07:00:00",26.299,18.13876,0.132],
    [26534,"urn:WaterMeter:MC0203J22010600005","2024-07-15T07:15:00",26.399,18.115097,0.129],
    [26535,"urn:WaterMeter:MC0203J22010600005","2024-07-15T07:30:00",26.6,18.134493,0.13],
    [26536,"urn:WaterMeter:MC0203J22010600005","2024-07-15T07:45:00",26.799,18.137596,0.139],
    [26537,"urn:WaterMeter:MC0203J22010600005","2024-07-15T08:00:00",27,18.156216,0.141],
    [26538,"urn:WaterMeter:MC0203J22010600005","2024-07-15T08:15:00",27.2,18.10187,0.138],
    [26539,"urn:WaterMeter:MC0203J22010600005","2024-07-15T08:30:00",27.399,18.10695,0.135],
    [26540,"urn:WaterMeter:MC0203J22010600005","2024-07-15T08:45:00",27.5,18.09997,0.134],
    [26541,"urn:WaterMeter:MC0203J22010600005","2024-07-15T09:00:00",27.7,18.181778,0.133],
    [26542,"urn:WaterMeter:MC0203J22010600005","2024-07-15T09:15:00",28,18.401367,0.148],
    [26543,"urn:WaterMeter:MC0203J22010600005","2024-07-15T09:30:00",28.2,18.924257,0.147],
    [26544,"urn:WaterMeter:MC0203J22010600005","2024-07-15T09:45:00",28.399,19.925,0.162],
    [26545,"urn:WaterMeter:MC0203J22010600005","2024-07-15T10:00:00",28.5,21.192308,0.203],
    [26546,"urn:WaterMeter:MC0203J22010600005","2024-07-15T10:15:00",28.7,22.451431,0.224],
    [26547,"urn:WaterMeter:MC0203J22010600005","2024-07-15T10:30:00",28.899,23.638405,0.252],
    [26548,"urn:WaterMeter:MC0203J22010600005","2024-07-15T10:45:00",29.1,24.57243,0.254],
    [26549,"urn:WaterMeter:MC0203J22010600005","2024-07-15T11:00:00",29.399,25.165567,0.268],
    [26550,"urn:WaterMeter:MC0203J22010600005","2024-07-15T11:15:00",29.6,25.544159,0.253],
    [26551,"urn:WaterMeter:MC0203J22010600005","2024-07-15T11:30:00",29.799,25.864176,0.264],
    [26552,"urn:WaterMeter:MC0203J22010600005","2024-07-15T11:45:00",29.899,26.139196,0.25],
    [26553,"urn:WaterMeter:MC0203J22010600005","2024-07-15T12:00:00",30,26.32729,0.245],
    [26554,"urn:WaterMeter:MC0203J22010600005","2024-07-15T12:15:00",30.2,26.461891,0.246],
    [26555,"urn:WaterMeter:MC0203J22010600005","2024-07-15T12:30:00",30.299,26.597267,0.261],
    [26556,"urn:WaterMeter:MC0203J22010600005","2024-07-15T12:45:00",30.399,26.68148,0.279],
    [26557,"urn:WaterMeter:MC0203J22010600005","2024-07-15T13:00:00",30.6,26.721823,0.246],
    [26558,"urn:WaterMeter:MC0203J22010600005","2024-07-15T13:15:00",30.7,26.776516,0.247],
    [26559,"urn:WaterMeter:MC0203J22010600005","2024-07-15T13:30:00",30.799,26.776905,0.252],
    [26560,"urn:WaterMeter:MC0203J22010600005","2024-07-15T13:45:00",31,26.776129,0.25],
    [26561,"urn:WaterMeter:MC0203J22010600005","2024-07-15T14:00:00",31,26.811388,0.249],
    [26562,"urn:WaterMeter:MC0203J22010600005","2024-07-15T14:15:00",31.1,26.747036,0.256],
    [26563,"urn:WaterMeter:MC0203J22010600005","2024-07-15T14:30:00",31.2,26.734198,0.236],
    [26564,"urn:WaterMeter:MC0203J22010600005","2024-07-15T14:45:00",31.2,26.683033,0.249],
    [26565,"urn:WaterMeter:MC0203J22010600005","2024-07-15T15:00:00",31.2,26.63377,0.258],
    [26566,"urn:WaterMeter:MC0203J22010600005","2024-07-15T15:15:00",31.299,26.587221,0.244],
    [26567,"urn:WaterMeter:MC0203J22010600005","2024-07-15T15:30:00",31.299,26.53947,0.247],
    [26568,"urn:WaterMeter:MC0203J22010600005","2024-07-15T15:45:00",31.299,26.469688,0.254],
    [26569,"urn:WaterMeter:MC0203J22010600005","2024-07-15T16:00:00",31.2,26.418873,0.249],
    [26570,"urn:WaterMeter:MC0203J22010600005","2024-07-15T16:15:00",31.2,26.368057,0.246],
    [26571,"urn:WaterMeter:MC0203J22010600005","2024-07-15T16:30:00",31.2,26.314915,0.243],
    [26572,"urn:WaterMeter:MC0203J22010600005","2024-07-15T16:45:00",31.2,26.271858,0.248],
    [26573,"urn:WaterMeter:MC0203J22010600005","2024-07-15T17:00:00",31.1,26.176435,0.244],
    [26574,"urn:WaterMeter:MC0203J22010600005","2024-07-15T17:15:00",31.1,26.115923,0.244],
    [26575,"urn:WaterMeter:MC0203J22010600005","2024-07-15T17:30:00",31,26.071703,0.245],
    [26576,"urn:WaterMeter:MC0203J22010600005","2024-07-15T17:45:00",31,26.024767,0.249],
    [26577,"urn:WaterMeter:MC0203J22010600005","2024-07-15T18:00:00",31,25.997963,0.241],
    [26578,"urn:WaterMeter:MC0203J22010600005","2024-07-15T18:15:00",30.899,25.964254,0.237],
    [26579,"urn:WaterMeter:MC0203J22010600005","2024-07-15T18:30:00",30.799,25.903742,0.253],
    [26580,"urn:WaterMeter:MC0203J22010600005","2024-07-15T18:45:00",30.7,25.890165,0.247],
    [26581,"urn:WaterMeter:MC0203J22010600005","2024-07-15T19:00:00",30.6,25.850986,0.242],
    [26582,"urn:WaterMeter:MC0203J22010600005","2024-07-15T19:15:00",30.399,25.849823,0.24],
    [26583,"urn:WaterMeter:MC0203J22010600005","2024-07-15T19:30:00",30.299,25.823795,0.242],
    [26584,"urn:WaterMeter:MC0203J22010600005","2024-07-15T19:45:00",30.1,25.823019,0.247],
    [26585,"urn:WaterMeter:MC0203J22010600005","2024-07-15T20:00:00",29.899,25.823795,0.241],
    [26586,"urn:WaterMeter:MC0203J22010600005","2024-07-15T20:15:00",29.799,25.795092,0.249],
    [26587,"urn:WaterMeter:MC0203J22010600005","2024-07-15T20:30:00",29.7,25.834307,0.23],
    [26588,"urn:WaterMeter:MC0203J22010600005","2024-07-15T20:45:00",29.6,25.829266,0.263],
    [26589,"urn:WaterMeter:MC0203J22010600005","2024-07-15T21:00:00",29.5,25.802073,0.235],
    [26590,"urn:WaterMeter:MC0203J22010600005","2024-07-15T21:15:00",29.299,25.783842,0.238],
    [26591,"urn:WaterMeter:MC0203J22010600005","2024-07-15T21:30:00",29.2,25.81724,0.237],
    [26592,"urn:WaterMeter:MC0203J22010600005","2024-07-15T21:45:00",29.1,25.80987,0.24],
    [26593,"urn:WaterMeter:MC0203J22010600005","2024-07-15T22:00:00",29,25.790087,0.231],
    [26594,"urn:WaterMeter:MC0203J22010600005","2024-07-15T22:15:00",28.899,25.785006,0.213],
    [26595,"urn:WaterMeter:MC0203J22010600005","2024-07-15T22:30:00",28.799,25.780777,0.234],
    [26596,"urn:WaterMeter:MC0203J22010600005","2024-07-15T22:45:00",28.7,25.779613,0.241],
    [26597,"urn:WaterMeter:MC0203J22010600005","2024-07-15T23:00:00",28.6,25.781902,0.248],
    [26598,"urn:WaterMeter:MC0203J22010600005","2024-07-15T23:15:00",28.399,25.774145,0.239],
    [26599,"urn:WaterMeter:MC0203J22010600005","2024-07-15T23:30:00",28.299,25.7435,0.233],
    [26600,"urn:WaterMeter:MC0203J22010600005","2024-07-15T23:45:00",28.2,25.757504,0.24],
    [26601,"urn:WaterMeter:MC0203J22010600005","2024-07-16T00:00:00",28.1,25.764446,0.248],
    [26602,"urn:WaterMeter:MC0203J22010600005","2024-07-16T00:15:00",28,25.75983,0.243],
    [26603,"urn:WaterMeter:MC0203J22010600005","2024-07-16T00:30:00",27.899,25.78039,0.247],
    [26604,"urn:WaterMeter:MC0203J22010600005","2024-07-16T00:45:00",27.799,25.761383,0.241],
    [26605,"urn:WaterMeter:MC0203J22010600005","2024-07-16T01:00:00",27.7,25.752073,0.239],
    [26606,"urn:WaterMeter:MC0203J22010600005","2024-07-16T01:15:00",27.7,25.747807,0.245],
    [26607,"urn:WaterMeter:MC0203J22010600005","2024-07-16T01:30:00",27.6,25.755526,0.23],
    [26608,"urn:WaterMeter:MC0203J22010600005","2024-07-16T01:45:00",27.5,25.754013,0.23],
    [26609,"urn:WaterMeter:MC0203J22010600005","2024-07-16T02:00:00",27.399,25.731901,0.244],
    [26610,"urn:WaterMeter:MC0203J22010600005","2024-07-16T02:15:00",27.299,25.718714,0.232],
    [26611,"urn:WaterMeter:MC0203J22010600005","2024-07-16T02:30:00",27.2,25.736519,0.241],
    [26612,"urn:WaterMeter:MC0203J22010600005","2024-07-16T02:45:00",27.1,25.719877,0.247],
    [26613,"urn:WaterMeter:MC0203J22010600005","2024-07-16T03:00:00",27,25.731901,0.231],
    [26614,"urn:WaterMeter:MC0203J22010600005","2024-07-16T03:15:00",27,25.713284,0.239],
    [26615,"urn:WaterMeter:MC0203J22010600005","2024-07-16T03:30:00",26.899,25.748194,0.239],
    [26616,"urn:WaterMeter:MC0203J22010600005","2024-07-16T03:45:00",26.899,25.71561,0.232],
    [26617,"urn:WaterMeter:MC0203J22010600005","2024-07-16T04:00:00",26.899,25.685314,0.225],
    [26618,"urn:WaterMeter:MC0203J22010600005","2024-07-16T04:15:00",26.899,25.69156,0.251],
    [26619,"urn:WaterMeter:MC0203J22010600005","2024-07-16T04:30:00",26.899,25.66747,0.251],
    [26620,"urn:WaterMeter:MC0203J22010600005","2024-07-16T04:45:00",26.799,25.665184,0.223],
    [26621,"urn:WaterMeter:MC0203J22010600005","2024-07-16T05:00:00",26.799,25.645401,0.23],
    [26622,"urn:WaterMeter:MC0203J22010600005","2024-07-16T05:15:00",26.899,25.648464,0.23],
    [26623,"urn:WaterMeter:MC0203J22010600005","2024-07-16T05:30:00",26.899,25.62907,0.229],
    [26624,"urn:WaterMeter:MC0203J22010600005","2024-07-16T05:45:00",26.899,25.617472,0.229],
    [26625,"urn:WaterMeter:MC0203J22010600005","2024-07-16T06:00:00",26.899,25.587603,0.247],
    [26626,"urn:WaterMeter:MC0203J22010600005","2024-07-16T06:15:00",27,25.566656,0.224],
    [26627,"urn:WaterMeter:MC0203J22010600005","2024-07-16T06:30:00",27,25.514677,0.231],
    [26628,"urn:WaterMeter:MC0203J22010600005","2024-07-16T06:45:00",27,25.487913,0.226],
    [26629,"urn:WaterMeter:MC0203J22010600005","2024-07-16T07:00:00",27,25.457268,0.228],
    [26630,"urn:WaterMeter:MC0203J22010600005","2024-07-16T07:15:00",27.1,25.43128,0.228],
    [26631,"urn:WaterMeter:MC0203J22010600005","2024-07-16T07:30:00",27.2,25.363785,0.221],
    [26632,"urn:WaterMeter:MC0203J22010600005","2024-07-16T07:45:00",27.299,25.321115,0.217],
    [26633,"urn:WaterMeter:MC0203J22010600005","2024-07-16T08:00:00",27.5,25.254786,0.233],
    [26634,"urn:WaterMeter:MC0203J22010600005","2024-07-16T08:15:00",27.6,25.63993,0.241],
    [26635,"urn:WaterMeter:MC0203J22010600005","2024-07-16T08:30:00",27.7,26.666702,0.257],
    [26636,"urn:WaterMeter:MC0203J22010600005","2024-07-16T08:45:00",27.799,27.511549,0.271],
    [26637,"urn:WaterMeter:MC0203J22010600005","2024-07-16T09:00:00",28,28.271482,0.287],
    [26638,"urn:WaterMeter:MC0203J22010600005","2024-07-16T09:15:00",28.2,28.854496,0.303],
    [26639,"urn:WaterMeter:MC0203J22010600005","2024-07-16T09:30:00",28.299,29.342476,0.291],
    [26640,"urn:WaterMeter:MC0203J22010600005","2024-07-16T09:45:00",28.5,29.688093,0.289],
    [26641,"urn:WaterMeter:MC0203J22010600005","2024-07-16T10:00:00",28.6,29.92161,0.256],
    [26642,"urn:WaterMeter:MC0203J22010600005","2024-07-16T10:15:00",28.799,29.892517,0.296],
    [26643,"urn:WaterMeter:MC0203J22010600005","2024-07-16T10:30:00",29,29.771881,0.295],
    [26644,"urn:WaterMeter:MC0203J22010600005","2024-07-16T10:45:00",29.2,29.702408,0.304],
    [26645,"urn:WaterMeter:MC0203J22010600005","2024-07-16T11:00:00",29.5,29.65551,0.319],
    [26646,"urn:WaterMeter:MC0203J22010600005","2024-07-16T11:15:00",29.7,29.58181,0.308],
    [26647,"urn:WaterMeter:MC0203J22010600005","2024-07-16T11:30:00",29.799,29.507294,0.32],
    [26648,"urn:WaterMeter:MC0203J22010600005","2024-07-16T11:45:00",30,29.45613,0.293],
    [26649,"urn:WaterMeter:MC0203J22010600005","2024-07-16T12:00:00",30,29.359156,0.294],
    [26650,"urn:WaterMeter:MC0203J22010600005","2024-07-16T12:15:00",30.1,29.330063,0.295],
    [26651,"urn:WaterMeter:MC0203J22010600005","2024-07-16T12:30:00",30.2,29.29748,0.285],
    [26652,"urn:WaterMeter:MC0203J22010600005","2024-07-16T12:45:00",30.399,29.21637,0.29],
    [26653,"urn:WaterMeter:MC0203J22010600005","2024-07-16T13:00:00",30.5,29.161325,0.283],
    [26654,"urn:WaterMeter:MC0203J22010600005","2024-07-16T13:15:00",30.6,29.06823,0.282],
    [26655,"urn:WaterMeter:MC0203J22010600005","2024-07-16T13:30:00",30.7,29.003412,0.284],
    [26656,"urn:WaterMeter:MC0203J22010600005","2024-07-16T13:45:00",30.799,28.942938,0.288],
    [26657,"urn:WaterMeter:MC0203J22010600005","2024-07-16T14:00:00",30.799,28.8595,0.28],
    [26658,"urn:WaterMeter:MC0203J22010600005","2024-07-16T14:15:00",30.799,28.795536,0.293],
    [26659,"urn:WaterMeter:MC0203J22010600005","2024-07-16T14:30:00",30.799,28.714464,0.286],
    [26660,"urn:WaterMeter:MC0203J22010600005","2024-07-16T14:45:00",30.799,28.667528,0.278],
    [26661,"urn:WaterMeter:MC0203J22010600005","2024-07-16T15:00:00",30.799,28.600422,0.28],
    [26662,"urn:WaterMeter:MC0203J22010600005","2024-07-16T15:15:00",30.799,28.563572,0.275],
    [26663,"urn:WaterMeter:MC0203J22010600005","2024-07-16T15:30:00",30.799,28.505386,0.282],
    [26664,"urn:WaterMeter:MC0203J22010600005","2024-07-16T15:45:00",30.799,28.472027,0.279],
    [26665,"urn:WaterMeter:MC0203J22010600005","2024-07-16T16:00:00",30.7,28.396387,0.273],
    [26666,"urn:WaterMeter:MC0203J22010600005","2024-07-16T16:15:00",30.7,28.315664,0.275],
    [26667,"urn:WaterMeter:MC0203J22010600005","2024-07-16T16:30:00",30.6,28.265238,0.287],
    [26668,"urn:WaterMeter:MC0203J22010600005","2024-07-16T16:45:00",30.5,28.19274,0.272],
    [26669,"urn:WaterMeter:MC0203J22010600005","2024-07-16T17:00:00",30.399,28.16326,0.287],
    [26670,"urn:WaterMeter:MC0203J22010600005","2024-07-16T17:15:00",30.299,28.13378,0.283],
    [26671,"urn:WaterMeter:MC0203J22010600005","2024-07-16T17:30:00",30.2,28.103523,0.274],
    [26672,"urn:WaterMeter:MC0203J22010600005","2024-07-16T17:45:00",30.2,28.061241,0.279],
    [26673,"urn:WaterMeter:MC0203J22010600005","2024-07-16T18:00:00",30.1,28.078308,0.281],
    [26674,"urn:WaterMeter:MC0203J22010600005","2024-07-16T18:15:00",30,28.017797,0.273],
    [26675,"urn:WaterMeter:MC0203J22010600005","2024-07-16T18:30:00",29.899,27.999565,0.27],
    [26676,"urn:WaterMeter:MC0203J22010600005","2024-07-16T18:45:00",29.7,27.990644,0.278],
    [26677,"urn:WaterMeter:MC0203J22010600005","2024-07-16T19:00:00",29.6,27.949526,0.269],
    [26678,"urn:WaterMeter:MC0203J22010600005","2024-07-16T19:15:00",29.5,27.956081,0.27],
    [26679,"urn:WaterMeter:MC0203J22010600005","2024-07-16T19:30:00",29.5,27.92315,0.265],
    [26680,"urn:WaterMeter:MC0203J22010600005","2024-07-16T19:45:00",29.399,27.92664,0.284],
    [26681,"urn:WaterMeter:MC0203J22010600005","2024-07-16T20:00:00",29.299,27.912676,0.261],
    [26682,"urn:WaterMeter:MC0203J22010600005","2024-07-16T20:15:00",29.2,27.912676,0.279],
    [26683,"urn:WaterMeter:MC0203J22010600005","2024-07-16T20:30:00",29.1,27.872723,0.275],
    [26684,"urn:WaterMeter:MC0203J22010600005","2024-07-16T20:45:00",29,27.88591,0.272],
    [26685,"urn:WaterMeter:MC0203J22010600005","2024-07-16T21:00:00",28.899,27.86027,0.281],
    [26686,"urn:WaterMeter:MC0203J22010600005","2024-07-16T21:15:00",28.899,27.86768,0.273],
    [26687,"urn:WaterMeter:MC0203J22010600005","2024-07-16T21:30:00",28.799,27.864576,0.265],
    [26688,"urn:WaterMeter:MC0203J22010600005","2024-07-16T21:45:00",28.799,27.831179,0.269],
    [26689,"urn:WaterMeter:MC0203J22010600005","2024-07-16T22:00:00",28.7,27.83816,0.271],
    [26690,"urn:WaterMeter:MC0203J22010600005","2024-07-16T22:15:00",28.7,27.84518,0.262],
    [26691,"urn:WaterMeter:MC0203J22010600005","2024-07-16T22:30:00",28.6,27.850962,0.267],
    [26692,"urn:WaterMeter:MC0203J22010600005","2024-07-16T22:45:00",28.6,27.807554,0.26],
    [26693,"urn:WaterMeter:MC0203J22010600005","2024-07-16T23:00:00",28.5,27.779976,0.27],
    [26694,"urn:WaterMeter:MC0203J22010600005","2024-07-16T23:15:00",28.399,27.792387,0.279],
    [26695,"urn:WaterMeter:MC0203J22010600005","2024-07-16T23:30:00",28.399,27.804451,0.258],
    [26696,"urn:WaterMeter:MC0203J22010600005","2024-07-16T23:45:00",28.299,27.779587,0.263],
    [26697,"urn:WaterMeter:MC0203J22010600005","2024-07-17T00:00:00",28.299,27.785831,0.272],
    [26698,"urn:WaterMeter:MC0203J22010600005","2024-07-17T00:15:00",28.2,27.771091,0.261],
    [26699,"urn:WaterMeter:MC0203J22010600005","2024-07-17T00:30:00",28.2,27.77885,0.285],
    [26700,"urn:WaterMeter:MC0203J22010600005","2024-07-17T00:45:00",28.2,27.776134,0.28],
    [26701,"urn:WaterMeter:MC0203J22010600005","2024-07-17T01:00:00",28.1,27.743124,0.264],
    [26702,"urn:WaterMeter:MC0203J22010600005","2024-07-17T01:15:00",28.1,27.722178,0.259],
    [26703,"urn:WaterMeter:MC0203J22010600005","2024-07-17T01:30:00",28.1,27.75321,0.279],
    [26704,"urn:WaterMeter:MC0203J22010600005","2024-07-17T01:45:00",28.1,27.716011,0.259],
    [26705,"urn:WaterMeter:MC0203J22010600005","2024-07-17T02:00:00",28.1,27.688858,0.28],
    [26706,"urn:WaterMeter:MC0203J22010600005","2024-07-17T02:15:00",28,27.6939,0.268],
    [26707,"urn:WaterMeter:MC0203J22010600005","2024-07-17T02:30:00",28,27.672953,0.263],
    [26708,"urn:WaterMeter:MC0203J22010600005","2024-07-17T02:45:00",28,27.690022,0.274],
    [26709,"urn:WaterMeter:MC0203J22010600005","2024-07-17T03:00:00",28,27.670238,0.253],
    [26710,"urn:WaterMeter:MC0203J22010600005","2024-07-17T03:15:00",27.899,27.653559,0.257],
    [26711,"urn:WaterMeter:MC0203J22010600005","2024-07-17T03:30:00",27.899,27.66632,0.255],
    [26712,"urn:WaterMeter:MC0203J22010600005","2024-07-17T03:45:00",27.899,27.62369,0.263],
    [26713,"urn:WaterMeter:MC0203J22010600005","2024-07-17T04:00:00",27.899,27.652395,0.261],
    [26714,"urn:WaterMeter:MC0203J22010600005","2024-07-17T04:15:00",27.799,27.640759,0.277],
    [26715,"urn:WaterMeter:MC0203J22010600005","2024-07-17T04:30:00",27.799,27.578655,0.282],
    [26716,"urn:WaterMeter:MC0203J22010600005","2024-07-17T04:45:00",27.7,27.567406,0.266],
    [26717,"urn:WaterMeter:MC0203J22010600005","2024-07-17T05:00:00",27.7,27.558485,0.271],
    [26718,"urn:WaterMeter:MC0203J22010600005","2024-07-17T05:15:00",27.6,27.57753,0.256],
    [26719,"urn:WaterMeter:MC0203J22010600005","2024-07-17T05:30:00",27.6,27.567793,0.26],
    [26720,"urn:WaterMeter:MC0203J22010600005","2024-07-17T05:45:00",27.5,27.553867,0.273],
    [26721,"urn:WaterMeter:MC0203J22010600005","2024-07-17T06:00:00",27.5,27.571323,0.267],
    [26722,"urn:WaterMeter:MC0203J22010600005","2024-07-17T06:15:00",27.5,27.53874,0.252],
    [26723,"urn:WaterMeter:MC0203J22010600005","2024-07-17T06:30:00",27.5,27.50383,0.261],
    [26724,"urn:WaterMeter:MC0203J22010600005","2024-07-17T06:45:00",27.5,27.504217,0.258],
    [26725,"urn:WaterMeter:MC0203J22010600005","2024-07-17T07:00:00",27.5,27.466204,0.256],
    [26726,"urn:WaterMeter:MC0203J22010600005","2024-07-17T07:15:00",27.6,27.439438,0.268],
    [26727,"urn:WaterMeter:MC0203J22010600005","2024-07-17T07:30:00",27.6,27.410732,0.26],
    [26728,"urn:WaterMeter:MC0203J22010600005","2024-07-17T07:45:00",27.7,27.633389,0.293],
    [26729,"urn:WaterMeter:MC0203J22010600005","2024-07-17T08:00:00",27.7,28.141499,0.287],
    [26730,"urn:WaterMeter:MC0203J22010600005","2024-07-17T08:15:00",27.799,28.99957,0.291],
    [26731,"urn:WaterMeter:MC0203J22010600005","2024-07-17T08:30:00",27.799,29.624828,0.302],
    [26732,"urn:WaterMeter:MC0203J22010600005","2024-07-17T08:45:00",27.799,29.992945,0.302],
    [26733,"urn:WaterMeter:MC0203J22010600005","2024-07-17T09:00:00",28,30.31335,0.331],
    [26734,"urn:WaterMeter:MC0203J22010600005","2024-07-17T09:15:00",28.1,30.596943,0.317],
    [26735,"urn:WaterMeter:MC0203J22010600005","2024-07-17T09:30:00",28.2,30.820374,0.318],
    [26736,"urn:WaterMeter:MC0203J22010600005","2024-07-17T09:45:00",28.2,30.975922,0.31],
    [26737,"urn:WaterMeter:MC0203J22010600005","2024-07-17T10:00:00",28.299,31.151253,0.337],
    [26738,"urn:WaterMeter:MC0203J22010600005","2024-07-17T10:15:00",28.399,30.83395,0.318],
    [26739,"urn:WaterMeter:MC0203J22010600005","2024-07-17T10:30:00",28.5,30.557379,0.315],
    [26740,"urn:WaterMeter:MC0203J22010600005","2024-07-17T10:45:00",28.6,30.431698,0.319],
    [26741,"urn:WaterMeter:MC0203J22010600005","2024-07-17T11:00:00",28.7,30.332357,0.315],
    [26742,"urn:WaterMeter:MC0203J22010600005","2024-07-17T11:15:00",28.799,30.248997,0.294],
    [26743,"urn:WaterMeter:MC0203J22010600005","2024-07-17T11:30:00",28.899,30.14504,0.306],
    [26744,"urn:WaterMeter:MC0203J22010600005","2024-07-17T11:45:00",29,30.096165,0.299],
    [26745,"urn:WaterMeter:MC0203J22010600005","2024-07-17T12:00:00",29,30.020136,0.301],
    [26746,"urn:WaterMeter:MC0203J22010600005","2024-07-17T12:15:00",29.1,29.925838,0.3],
    [26747,"urn:WaterMeter:MC0203J22010600005","2024-07-17T12:30:00",29.1,29.845194,0.295],
    [26748,"urn:WaterMeter:MC0203J22010600005","2024-07-17T12:45:00",29.1,29.787395,0.319],
    [26749,"urn:WaterMeter:MC0203J22010600005","2024-07-17T13:00:00",29.2,29.743952,0.311],
    [26750,"urn:WaterMeter:MC0203J22010600005","2024-07-17T13:15:00",29.299,29.62952,0.293],
    [26751,"urn:WaterMeter:MC0203J22010600005","2024-07-17T13:30:00",29.299,29.60043,0.292],
    [26752,"urn:WaterMeter:MC0203J22010600005","2024-07-17T13:45:00",29.299,29.53755,0.288],
    [26753,"urn:WaterMeter:MC0203J22010600005","2024-07-17T14:00:00",29.299,29.459194,0.295],
    [26754,"urn:WaterMeter:MC0203J22010600005","2024-07-17T14:15:00",29.299,29.425873,0.302],
    [26755,"urn:WaterMeter:MC0203J22010600005","2024-07-17T14:30:00",29.299,29.344803,0.297],
    [26756,"urn:WaterMeter:MC0203J22010600005","2024-07-17T14:45:00",29.299,29.285803,0.3],
    [26757,"urn:WaterMeter:MC0203J22010600005","2024-07-17T15:00:00",29.299,29.245111,0.32],
    [26758,"urn:WaterMeter:MC0203J22010600005","2024-07-17T15:15:00",29.299,29.183048,0.286],
    [26759,"urn:WaterMeter:MC0203J22010600005","2024-07-17T15:30:00",29.299,29.119781,0.29],
    [26760,"urn:WaterMeter:MC0203J22010600005","2024-07-17T15:45:00",29.2,29.09577,0.281],
    [26761,"urn:WaterMeter:MC0203J22010600005","2024-07-17T16:00:00",29.2,29.026724,0.287],
    [26762,"urn:WaterMeter:MC0203J22010600005","2024-07-17T16:15:00",29.2,29.003023,0.286],
    [26763,"urn:WaterMeter:MC0203J22010600005","2024-07-17T16:30:00",29.1,28.966988,0.318],
    [26764,"urn:WaterMeter:MC0203J22010600005","2024-07-17T16:45:00",29.1,28.919275,0.299],
    [26765,"urn:WaterMeter:MC0203J22010600005","2024-07-17T17:00:00",29,28.8576,0.284],
    [26766,"urn:WaterMeter:MC0203J22010600005","2024-07-17T17:15:00",28.899,28.83933,0.285],
    [26767,"urn:WaterMeter:MC0203J22010600005","2024-07-17T17:30:00",28.799,28.835102,0.28],
    [26768,"urn:WaterMeter:MC0203J22010600005","2024-07-17T17:45:00",28.799,28.769896,0.291],
    [26769,"urn:WaterMeter:MC0203J22010600005","2024-07-17T18:00:00",28.7,28.74666,0.294],
    [26770,"urn:WaterMeter:MC0203J22010600005","2024-07-17T18:15:00",28.6,28.721447,0.285],
    [26771,"urn:WaterMeter:MC0203J22010600005","2024-07-17T18:30:00",28.5,28.704767,0.287],
    [26772,"urn:WaterMeter:MC0203J22010600005","2024-07-17T18:45:00",28.399,28.677614,0.281],
    [26773,"urn:WaterMeter:MC0203J22010600005","2024-07-17T19:00:00",28.299,28.671408,0.281],
    [26774,"urn:WaterMeter:MC0203J22010600005","2024-07-17T19:15:00",28.2,28.657831,0.274],
    [26775,"urn:WaterMeter:MC0203J22010600005","2024-07-17T19:30:00",28.1,28.622921,0.295],
    [26776,"urn:WaterMeter:MC0203J22010600005","2024-07-17T19:45:00",28,28.64154,0.28],
    [26777,"urn:WaterMeter:MC0203J22010600005","2024-07-17T20:00:00",27.899,28.641151,0.287],
    [26778,"urn:WaterMeter:MC0203J22010600005","2024-07-17T20:15:00",27.799,28.625597,0.295],
    [26779,"urn:WaterMeter:MC0203J22010600005","2024-07-17T20:30:00",27.799,28.6159,0.299],
    [26780,"urn:WaterMeter:MC0203J22010600005","2024-07-17T20:45:00",27.7,28.619429,0.289],
    [26781,"urn:WaterMeter:MC0203J22010600005","2024-07-17T21:00:00",27.7,28.607792,0.288],
    [26782,"urn:WaterMeter:MC0203J22010600005","2024-07-17T21:15:00",27.6,28.574781,0.28],
    [26783,"urn:WaterMeter:MC0203J22010600005","2024-07-17T21:30:00",27.5,28.556164,0.276],
    [26784,"urn:WaterMeter:MC0203J22010600005","2024-07-17T21:45:00",27.5,28.557327,0.295],
    [26785,"urn:WaterMeter:MC0203J22010600005","2024-07-17T22:00:00",27.399,28.51586,0.292],
    [26786,"urn:WaterMeter:MC0203J22010600005","2024-07-17T22:15:00",27.299,28.579088,0.286],
    [26787,"urn:WaterMeter:MC0203J22010600005","2024-07-17T22:30:00",27.299,28.541073,0.276],
    [26788,"urn:WaterMeter:MC0203J22010600005","2024-07-17T22:45:00",27.2,28.499918,0.285],
    [26789,"urn:WaterMeter:MC0203J22010600005","2024-07-17T23:00:00",27.2,28.499142,0.281],
    [26790,"urn:WaterMeter:MC0203J22010600005","2024-07-17T23:15:00",27.1,28.496466,0.283],
    [26791,"urn:WaterMeter:MC0203J22010600005","2024-07-17T23:30:00",27.1,28.519312,0.278],
    [26792,"urn:WaterMeter:MC0203J22010600005","2024-07-17T23:45:00",27,28.50849,0.281],
    [26793,"urn:WaterMeter:MC0203J22010600005","2024-07-18T00:00:00",27,28.492199,0.273],
    [26794,"urn:WaterMeter:MC0203J22010600005","2024-07-18T00:15:00",26.899,28.506939,0.28],
    [26795,"urn:WaterMeter:MC0203J22010600005","2024-07-18T00:30:00",26.899,28.470049,0.284],
    [26796,"urn:WaterMeter:MC0203J22010600005","2024-07-18T00:45:00",26.799,28.476294,0.287],
    [26797,"urn:WaterMeter:MC0203J22010600005","2024-07-18T01:00:00",26.7,28.448753,0.284],
    [26798,"urn:WaterMeter:MC0203J22010600005","2024-07-18T01:15:00",26.7,28.442509,0.269],
    [26799,"urn:WaterMeter:MC0203J22010600005","2024-07-18T01:30:00",26.6,28.448366,0.277],
    [26800,"urn:WaterMeter:MC0203J22010600005","2024-07-18T01:45:00",26.5,28.42509,0.278],
    [26801,"urn:WaterMeter:MC0203J22010600005","2024-07-18T02:00:00",26.399,28.424704,0.294],
    [26802,"urn:WaterMeter:MC0203J22010600005","2024-07-18T02:15:00",26.399,28.437117,0.278],
    [26803,"urn:WaterMeter:MC0203J22010600005","2024-07-18T02:30:00",26.299,28.40492,0.272],
    [26804,"urn:WaterMeter:MC0203J22010600005","2024-07-18T02:45:00",26.299,28.421173,0.261],
    [26805,"urn:WaterMeter:MC0203J22010600005","2024-07-18T03:00:00",26.2,28.416557,0.271],
    [26806,"urn:WaterMeter:MC0203J22010600005","2024-07-18T03:15:00",26.1,28.400227,0.283],
    [26807,"urn:WaterMeter:MC0203J22010600005","2024-07-18T03:30:00",26.1,28.371174,0.291],
    [26808,"urn:WaterMeter:MC0203J22010600005","2024-07-18T03:45:00",26,28.351778,0.274],
    [26809,"urn:WaterMeter:MC0203J22010600005","2024-07-18T04:00:00",25.899,28.36454,0.279],
    [26810,"urn:WaterMeter:MC0203J22010600005","2024-07-18T04:15:00",25.899,28.380095,0.286],
    [26811,"urn:WaterMeter:MC0203J22010600005","2024-07-18T04:30:00",25.799,28.363764,0.265],
    [26812,"urn:WaterMeter:MC0203J22010600005","2024-07-18T04:45:00",25.799,28.332771,0.282],
    [26813,"urn:WaterMeter:MC0203J22010600005","2024-07-18T05:00:00",25.7,28.346735,0.271],
    [26814,"urn:WaterMeter:MC0203J22010600005","2024-07-18T05:15:00",25.6,28.315664,0.27],
    [26815,"urn:WaterMeter:MC0203J22010600005","2024-07-18T05:30:00",25.6,28.325363,0.28],
    [26816,"urn:WaterMeter:MC0203J22010600005","2024-07-18T05:45:00",25.5,28.299025,0.276],
    [26817,"urn:WaterMeter:MC0203J22010600005","2024-07-18T06:00:00",25.5,28.304028,0.269],
    [26818,"urn:WaterMeter:MC0203J22010600005","2024-07-18T06:15:00",25.5,28.301352,0.274],
    [26819,"urn:WaterMeter:MC0203J22010600005","2024-07-18T06:30:00",25.6,28.263725,0.269],
    [26820,"urn:WaterMeter:MC0203J22010600005","2024-07-18T06:45:00",25.6,28.259846,0.287],
    [26821,"urn:WaterMeter:MC0203J22010600005","2024-07-18T07:00:00",25.6,28.26485,0.276],
    [26822,"urn:WaterMeter:MC0203J22010600005","2024-07-18T07:15:00",25.799,28.236572,0.271],
    [26823,"urn:WaterMeter:MC0203J22010600005","2024-07-18T07:30:00",25.899,28.301352,0.276],
    [26824,"urn:WaterMeter:MC0203J22010600005","2024-07-18T07:45:00",26.1,28.589172,0.272],
    [26825,"urn:WaterMeter:MC0203J22010600005","2024-07-18T08:00:00",26.2,29.233475,0.315],
    [26826,"urn:WaterMeter:MC0203J22010600005","2024-07-18T08:15:00",26.299,29.989492,0.319],
    [26827,"urn:WaterMeter:MC0203J22010600005","2024-07-18T08:30:00",26.399,30.393684,0.321],
    [26828,"urn:WaterMeter:MC0203J22010600005","2024-07-18T08:45:00",26.5,30.71987,0.315],
    [26829,"urn:WaterMeter:MC0203J22010600005","2024-07-18T09:00:00",26.6,30.897179,0.333],
    [26830,"urn:WaterMeter:MC0203J22010600005","2024-07-18T09:15:00",26.6,31.095007,0.317],
    [26831,"urn:WaterMeter:MC0203J22010600005","2024-07-18T09:30:00",26.7,31.188103,0.352],
    [26832,"urn:WaterMeter:MC0203J22010600005","2024-07-18T09:45:00",26.799,31.350983,0.315],
    [26833,"urn:WaterMeter:MC0203J22010600005","2024-07-18T10:00:00",26.899,31.423946,0.345],
    [26834,"urn:WaterMeter:MC0203J22010600005","2024-07-18T10:15:00",27.1,31.143496,0.335],
    [26835,"urn:WaterMeter:MC0203J22010600005","2024-07-18T10:30:00",27.2,30.829683,0.336],
    [26836,"urn:WaterMeter:MC0203J22010600005","2024-07-18T10:45:00",27.299,30.675688,0.31],
    [26837,"urn:WaterMeter:MC0203J22010600005","2024-07-18T11:00:00",27.5,30.529837,0.31],
    [26838,"urn:WaterMeter:MC0203J22010600005","2024-07-18T11:15:00",27.6,30.449503,0.329],
    [26839,"urn:WaterMeter:MC0203J22010600005","2024-07-18T11:30:00",27.7,30.368082,0.311],
    [26840,"urn:WaterMeter:MC0203J22010600005","2024-07-18T11:45:00",27.799,30.283869,0.295],
    [26841,"urn:WaterMeter:MC0203J22010600005","2024-07-18T12:00:00",27.899,30.21137,0.301],
    [26842,"urn:WaterMeter:MC0203J22010600005","2024-07-18T12:15:00",28,30.17681,0.306],
    [26843,"urn:WaterMeter:MC0203J22010600005","2024-07-18T12:30:00",28.1,30.076769,0.302],
    [26844,"urn:WaterMeter:MC0203J22010600005","2024-07-18T12:45:00",28.2,30.014706,0.324],
    [26845,"urn:WaterMeter:MC0203J22010600005","2024-07-18T13:00:00",28.2,29.933985,0.304],
    [26846,"urn:WaterMeter:MC0203J22010600005","2024-07-18T13:15:00",28.299,29.846745,0.307],
    [26847,"urn:WaterMeter:MC0203J22010600005","2024-07-18T13:30:00",28.399,29.811058,0.292],
    [26848,"urn:WaterMeter:MC0203J22010600005","2024-07-18T13:45:00",28.5,29.744339,0.3],
    [26849,"urn:WaterMeter:MC0203J22010600005","2024-07-18T14:00:00",28.5,29.677233,0.315],
    [26850,"urn:WaterMeter:MC0203J22010600005","2024-07-18T14:15:00",28.6,29.589567,0.328],
    [26851,"urn:WaterMeter:MC0203J22010600005","2024-07-18T14:30:00",28.6,29.530218,0.288],
    [26852,"urn:WaterMeter:MC0203J22010600005","2024-07-18T14:45:00",28.6,29.518154,0.314],
    [26853,"urn:WaterMeter:MC0203J22010600005","2024-07-18T15:00:00",28.6,29.437899,0.306],
    [26854,"urn:WaterMeter:MC0203J22010600005","2024-07-18T15:15:00",28.6,29.383593,0.306],
    [26855,"urn:WaterMeter:MC0203J22010600005","2024-07-18T15:30:00",28.6,29.29903,0.29],
    [26856,"urn:WaterMeter:MC0203J22010600005","2024-07-18T15:45:00",28.6,29.236927,0.288],
    [26857,"urn:WaterMeter:MC0203J22010600005","2024-07-18T16:00:00",28.5,29.206322,0.294],
    [26858,"urn:WaterMeter:MC0203J22010600005","2024-07-18T16:15:00",28.5,29.150852,0.295],
    [26859,"urn:WaterMeter:MC0203J22010600005","2024-07-18T16:30:00",28.399,29.096935,0.282],
    [26860,"urn:WaterMeter:MC0203J22010600005","2024-07-18T16:45:00",28.399,29.058533,0.287],
    [26861,"urn:WaterMeter:MC0203J22010600005","2024-07-18T17:00:00",28.299,29.004963,0.285],
    [26862,"urn:WaterMeter:MC0203J22010600005","2024-07-18T17:15:00",28.299,28.97746,0.298],
    [26863,"urn:WaterMeter:MC0203J22010600005","2024-07-18T17:30:00",28.2,28.957678,0.278],
    [26864,"urn:WaterMeter:MC0203J22010600005","2024-07-18T17:45:00",28.1,28.921215,0.277],
    [26865,"urn:WaterMeter:MC0203J22010600005","2024-07-18T18:00:00",28.1,28.867258,0.279],
    [26866,"urn:WaterMeter:MC0203J22010600005","2024-07-18T18:15:00",28,28.866095,0.298],
    [26867,"urn:WaterMeter:MC0203J22010600005","2024-07-18T18:30:00",28,28.847864,0.284],
    [26868,"urn:WaterMeter:MC0203J22010600005","2024-07-18T18:45:00",27.899,28.816095,0.284],
    [26869,"urn:WaterMeter:MC0203J22010600005","2024-07-18T19:00:00",27.799,28.832775,0.295],
    [26870,"urn:WaterMeter:MC0203J22010600005","2024-07-18T19:15:00",27.7,28.795923,0.272],
    [26871,"urn:WaterMeter:MC0203J22010600005","2024-07-18T19:30:00",27.6,28.779633,0.296],
    [26872,"urn:WaterMeter:MC0203J22010600005","2024-07-18T19:45:00",27.5,28.783123,0.276],
    [26873,"urn:WaterMeter:MC0203J22010600005","2024-07-18T20:00:00",27.399,28.78584,0.295],
    [26874,"urn:WaterMeter:MC0203J22010600005","2024-07-18T20:15:00",27.299,28.750113,0.282],
    [26875,"urn:WaterMeter:MC0203J22010600005","2024-07-18T20:30:00",27.2,28.744333,0.304],
    [26876,"urn:WaterMeter:MC0203J22010600005","2024-07-18T20:45:00",27.1,28.729593,0.294],
    [26877,"urn:WaterMeter:MC0203J22010600005","2024-07-18T21:00:00",27.1,28.7486,0.282],
    [26878,"urn:WaterMeter:MC0203J22010600005","2024-07-18T21:15:00",26.899,28.695847,0.288],
    [26879,"urn:WaterMeter:MC0203J22010600005","2024-07-18T21:30:00",26.799,28.73033,0.285],
    [26880,"urn:WaterMeter:MC0203J22010600005","2024-07-18T21:45:00",26.7,28.71912,0.275],
    [26881,"urn:WaterMeter:MC0203J22010600005","2024-07-18T22:00:00",26.6,28.720284,0.282],
    [26882,"urn:WaterMeter:MC0203J22010600005","2024-07-18T22:15:00",26.6,28.690804,0.277],
    [26883,"urn:WaterMeter:MC0203J22010600005","2024-07-18T22:30:00",26.5,28.671408,0.299],
    [26884,"urn:WaterMeter:MC0203J22010600005","2024-07-18T22:45:00",26.399,28.7121,0.282],
    [26885,"urn:WaterMeter:MC0203J22010600005","2024-07-18T23:00:00",26.399,28.70244,0.291],
    [26886,"urn:WaterMeter:MC0203J22010600005","2024-07-18T23:15:00",26.299,28.700113,0.289],
    [26887,"urn:WaterMeter:MC0203J22010600005","2024-07-18T23:30:00",26.2,28.674473,0.282],
    [26888,"urn:WaterMeter:MC0203J22010600005","2024-07-18T23:45:00",26.2,28.67102,0.294],
    [26889,"urn:WaterMeter:MC0203J22010600005","2024-07-19T00:00:00",26,28.659771,0.277],
    [26890,"urn:WaterMeter:MC0203J22010600005","2024-07-19T00:15:00",25.899,28.68188,0.279],
    [26891,"urn:WaterMeter:MC0203J22010600005","2024-07-19T00:30:00",25.899,28.641151,0.281],
    [26892,"urn:WaterMeter:MC0203J22010600005","2024-07-19T00:45:00",25.799,28.605465,0.284],
    [26893,"urn:WaterMeter:MC0203J22010600005","2024-07-19T01:00:00",25.799,28.5787,0.299],
    [26894,"urn:WaterMeter:MC0203J22010600005","2024-07-19T01:15:00",25.7,28.622921,0.279],
    [26895,"urn:WaterMeter:MC0203J22010600005","2024-07-19T01:30:00",25.7,28.60659,0.301],
    [26896,"urn:WaterMeter:MC0203J22010600005","2024-07-19T01:45:00",25.6,28.592665,0.277],
    [26897,"urn:WaterMeter:MC0203J22010600005","2024-07-19T02:00:00",25.5,28.605078,0.284],
    [26898,"urn:WaterMeter:MC0203J22010600005","2024-07-19T02:15:00",25.5,28.574045,0.282],
    [26899,"urn:WaterMeter:MC0203J22010600005","2024-07-19T02:30:00",25.399,28.563572,0.299],
    [26900,"urn:WaterMeter:MC0203J22010600005","2024-07-19T02:45:00",25.299,28.589949,0.279],
    [26901,"urn:WaterMeter:MC0203J22010600005","2024-07-19T03:00:00",25.2,28.536768,0.287],
    [26902,"urn:WaterMeter:MC0203J22010600005","2024-07-19T03:15:00",25.2,28.585682,0.277],
    [26903,"urn:WaterMeter:MC0203J22010600005","2024-07-19T03:30:00",25.1,28.560081,0.288],
    [26904,"urn:WaterMeter:MC0203J22010600005","2024-07-19T03:45:00",25.1,28.537931,0.273],
    [26905,"urn:WaterMeter:MC0203J22010600005","2024-07-19T04:00:00",25,28.509228,0.277],
    [26906,"urn:WaterMeter:MC0203J22010600005","2024-07-19T04:15:00",24.899,28.537155,0.294],
    [26907,"urn:WaterMeter:MC0203J22010600005","2024-07-19T04:30:00",24.799,28.526333,0.271],
    [26908,"urn:WaterMeter:MC0203J22010600005","2024-07-19T04:45:00",24.799,28.492973,0.281],
    [26909,"urn:WaterMeter:MC0203J22010600005","2024-07-19T05:00:00",24.7,28.545341,0.276],
    [26910,"urn:WaterMeter:MC0203J22010600005","2024-07-19T05:15:00",24.7,28.524782,0.288],
    [26911,"urn:WaterMeter:MC0203J22010600005","2024-07-19T05:30:00",24.6,28.496466,0.284],
    [26912,"urn:WaterMeter:MC0203J22010600005","2024-07-19T05:45:00",24.5,28.487932,0.271],
    [26913,"urn:WaterMeter:MC0203J22010600005","2024-07-19T06:00:00",24.5,28.484829,0.281],
    [26914,"urn:WaterMeter:MC0203J22010600005","2024-07-19T06:15:00",24.5,28.4441,0.286],
    [26915,"urn:WaterMeter:MC0203J22010600005","2024-07-19T06:30:00",24.5,28.41617,0.292],
    [26916,"urn:WaterMeter:MC0203J22010600005","2024-07-19T06:45:00",24.6,28.463493,0.268],
    [26917,"urn:WaterMeter:MC0203J22010600005","2024-07-19T07:00:00",24.7,28.420399,0.28],
    [26918,"urn:WaterMeter:MC0203J22010600005","2024-07-19T07:15:00",24.799,28.363764,0.261],
    [26919,"urn:WaterMeter:MC0203J22010600005","2024-07-19T07:30:00",24.899,28.46815,0.27],
    [26920,"urn:WaterMeter:MC0203J22010600005","2024-07-19T07:45:00",25.1,28.830408,0.301],
    [26921,"urn:WaterMeter:MC0203J22010600005","2024-07-19T08:00:00",25.299,29.509233,0.297],
    [26922,"urn:WaterMeter:MC0203J22010600005","2024-07-19T08:15:00",25.5,30.27456,0.319],
    [26923,"urn:WaterMeter:MC0203J22010600005","2024-07-19T08:30:00",25.6,30.733871,0.33],
    [26924,"urn:WaterMeter:MC0203J22010600005","2024-07-19T08:45:00",25.799,30.946829,0.328],
    [26925,"urn:WaterMeter:MC0203J22010600005","2024-07-19T09:00:00",25.899,31.197802,0.33],
    [26926,"urn:WaterMeter:MC0203J22010600005","2024-07-19T09:15:00",26.1,31.294388,0.324],
    [26927,"urn:WaterMeter:MC0203J22010600005","2024-07-19T09:30:00",26.299,31.385544,0.324],
    [26928,"urn:WaterMeter:MC0203J22010600005","2024-07-19T09:45:00",26.5,31.501526,0.309],
    [26929,"urn:WaterMeter:MC0203J22010600005","2024-07-19T10:00:00",26.6,31.595787,0.324],
    [26930,"urn:WaterMeter:MC0203J22010600005","2024-07-19T10:15:00",26.799,31.286242,0.327],
    [26931,"urn:WaterMeter:MC0203J22010600005","2024-07-19T10:30:00",27,30.956139,0.32],
    [26932,"urn:WaterMeter:MC0203J22010600005","2024-07-19T10:45:00",27.1,30.781973,0.318],
    [26933,"urn:WaterMeter:MC0203J22010600005","2024-07-19T11:00:00",27.299,30.659395,0.324],
    [26934,"urn:WaterMeter:MC0203J22010600005","2024-07-19T11:15:00",27.5,30.595354,0.309],
    [26935,"urn:WaterMeter:MC0203J22010600005","2024-07-19T11:30:00",27.6,30.48329,0.316],
    [26936,"urn:WaterMeter:MC0203J22010600005","2024-07-19T11:45:00",27.7,30.4208,0.326],
    [26937,"urn:WaterMeter:MC0203J22010600005","2024-07-19T12:00:00",27.799,30.340115,0.324],
    [26938,"urn:WaterMeter:MC0203J22010600005","2024-07-19T12:15:00",27.899,30.234257,0.319],
    [26939,"urn:WaterMeter:MC0203J22010600005","2024-07-19T12:30:00",28.1,30.193916,0.307],
    [26940,"urn:WaterMeter:MC0203J22010600005","2024-07-19T12:45:00",28.2,30.105087,0.304],
    [26941,"urn:WaterMeter:MC0203J22010600005","2024-07-19T13:00:00",28.299,30.032122,0.319],
    [26942,"urn:WaterMeter:MC0203J22010600005","2024-07-19T13:15:00",28.399,29.961563,0.325],
    [26943,"urn:WaterMeter:MC0203J22010600005","2024-07-19T13:30:00",28.5,29.901827,0.324],
    [26944,"urn:WaterMeter:MC0203J22010600005","2024-07-19T13:45:00",28.6,29.813385,0.305],
    [26945,"urn:WaterMeter:MC0203J22010600005","2024-07-19T14:00:00",28.6,29.765675,0.315],
    [26946,"urn:WaterMeter:MC0203J22010600005","2024-07-19T14:15:00",28.7,29.670639,0.322],
    [26947,"urn:WaterMeter:MC0203J22010600005","2024-07-19T14:30:00",28.799,29.588404,0.293],
    [26948,"urn:WaterMeter:MC0203J22010600005","2024-07-19T14:45:00",28.799,29.534098,0.284],
    [26949,"urn:WaterMeter:MC0203J22010600005","2024-07-19T15:00:00",28.899,29.468504,0.29],
    [26950,"urn:WaterMeter:MC0203J22010600005","2024-07-19T15:15:00",29,29.383165,0.304],
    [26951,"urn:WaterMeter:MC0203J22010600005","2024-07-19T15:30:00",29,29.31218,0.292],
    [26952,"urn:WaterMeter:MC0203J22010600005","2024-07-19T15:45:00",29.1,29.245111,0.288],
    [26953,"urn:WaterMeter:MC0203J22010600005","2024-07-19T16:00:00",29.1,29.206322,0.302],
    [26954,"urn:WaterMeter:MC0203J22010600005","2024-07-19T16:15:00",29.1,29.132233,0.315],
    [26955,"urn:WaterMeter:MC0203J22010600005","2024-07-19T16:30:00",29.1,29.108183,0.311],
    [26956,"urn:WaterMeter:MC0203J22010600005","2024-07-19T16:45:00",29.1,29.03138,0.279],
    [26957,"urn:WaterMeter:MC0203J22010600005","2024-07-19T17:00:00",29,28.987934,0.301],
    [26958,"urn:WaterMeter:MC0203J22010600005","2024-07-19T17:15:00",29,28.948757,0.301],
    [26959,"urn:WaterMeter:MC0203J22010600005","2024-07-19T17:30:00",28.899,28.885878,0.307],
    [26960,"urn:WaterMeter:MC0203J22010600005","2024-07-19T17:45:00",28.899,28.838554,0.287],
    [26961,"urn:WaterMeter:MC0203J22010600005","2024-07-19T18:00:00",28.799,28.790842,0.294],
    [26962,"urn:WaterMeter:MC0203J22010600005","2024-07-19T18:15:00",28.799,28.7839,0.283],
    [26963,"urn:WaterMeter:MC0203J22010600005","2024-07-19T18:30:00",28.7,28.731882,0.283],
    [26964,"urn:WaterMeter:MC0203J22010600005","2024-07-19T18:45:00",28.6,28.766832,0.276],
    [26965,"urn:WaterMeter:MC0203J22010600005","2024-07-19T19:00:00",28.6,28.736187,0.286],
    [26966,"urn:WaterMeter:MC0203J22010600005","2024-07-19T19:15:00",28.5,28.671757,0.281],
    [26967,"urn:WaterMeter:MC0203J22010600005","2024-07-19T19:30:00",28.299,28.713263,0.282],
    [26968,"urn:WaterMeter:MC0203J22010600005","2024-07-19T19:45:00",28.2,28.690414,0.298],
    [26969,"urn:WaterMeter:MC0203J22010600005","2024-07-19T20:00:00",28.1,28.653913,0.277],
    [26970,"urn:WaterMeter:MC0203J22010600005","2024-07-19T20:15:00",28,28.657831,0.303],
    [26971,"urn:WaterMeter:MC0203J22010600005","2024-07-19T20:30:00",27.899,28.646156,0.295],
    [26972,"urn:WaterMeter:MC0203J22010600005","2024-07-19T20:45:00",27.799,28.62676,0.288],
    [26973,"urn:WaterMeter:MC0203J22010600005","2024-07-19T21:00:00",27.7,28.6159,0.284],
    [26974,"urn:WaterMeter:MC0203J22010600005","2024-07-19T21:15:00",27.6,28.611671,0.292],
    [26975,"urn:WaterMeter:MC0203J22010600005","2024-07-19T21:30:00",27.5,28.615124,0.292],
    [26976,"urn:WaterMeter:MC0203J22010600005","2024-07-19T21:45:00",27.299,28.614737,0.271],
    [26977,"urn:WaterMeter:MC0203J22010600005","2024-07-19T22:00:00",27.2,28.617878,0.281],
    [26978,"urn:WaterMeter:MC0203J22010600005","2024-07-19T22:15:00",27.1,28.593052,0.277],
    [26979,"urn:WaterMeter:MC0203J22010600005","2024-07-19T22:30:00",27,28.593441,0.289],
    [26980,"urn:WaterMeter:MC0203J22010600005","2024-07-19T22:45:00",26.899,28.594177,0.31],
    [26981,"urn:WaterMeter:MC0203J22010600005","2024-07-19T23:00:00",26.799,28.604689,0.295],
    [26982,"urn:WaterMeter:MC0203J22010600005","2024-07-19T23:15:00",26.7,28.584518,0.279],
    [26983,"urn:WaterMeter:MC0203J22010600005","2024-07-19T23:30:00",26.6,28.575558,0.286],
    [26984,"urn:WaterMeter:MC0203J22010600005","2024-07-19T23:45:00",26.5,28.57517,0.29],
    [26985,"urn:WaterMeter:MC0203J22010600005","2024-07-20T00:00:00",26.299,28.570942,0.273],
    [26986,"urn:WaterMeter:MC0203J22010600005","2024-07-20T00:15:00",26.2,28.576721,0.28],
    [26987,"urn:WaterMeter:MC0203J22010600005","2024-07-20T00:30:00",26.1,28.550772,0.298],
    [26988,"urn:WaterMeter:MC0203J22010600005","2024-07-20T00:45:00",26,28.53638,0.295],
    [26989,"urn:WaterMeter:MC0203J22010600005","2024-07-20T01:00:00",25.899,28.558878,0.279],
    [26990,"urn:WaterMeter:MC0203J22010600005","2024-07-20T01:15:00",25.799,28.544952,0.283],
    [26991,"urn:WaterMeter:MC0203J22010600005","2024-07-20T01:30:00",25.7,28.546116,0.287],
    [26992,"urn:WaterMeter:MC0203J22010600005","2024-07-20T01:45:00",25.6,28.567024,0.286],
    [26993,"urn:WaterMeter:MC0203J22010600005","2024-07-20T02:00:00",25.5,28.52517,0.279],
    [26994,"urn:WaterMeter:MC0203J22010600005","2024-07-20T02:15:00",25.5,28.510817,0.279],
    [26995,"urn:WaterMeter:MC0203J22010600005","2024-07-20T02:30:00",25.399,28.524393,0.272],
    [26996,"urn:WaterMeter:MC0203J22010600005","2024-07-20T02:45:00",25.299,28.531376,0.298],
    [26997,"urn:WaterMeter:MC0203J22010600005","2024-07-20T03:00:00",25.2,28.523619,0.278],
    [26998,"urn:WaterMeter:MC0203J22010600005","2024-07-20T03:15:00",25.1,28.531765,0.271],
    [26999,"urn:WaterMeter:MC0203J22010600005","2024-07-20T03:30:00",25,28.5306,0.29],
    [27000,"urn:WaterMeter:MC0203J22010600005","2024-07-20T03:45:00",25,28.520088,0.294],
    [27001,"urn:WaterMeter:MC0203J22010600005","2024-07-20T04:00:00",24.899,28.48832,0.27],
    [27002,"urn:WaterMeter:MC0203J22010600005","2024-07-20T04:15:00",24.799,28.489445,0.276],
    [27003,"urn:WaterMeter:MC0203J22010600005","2024-07-20T04:30:00",24.7,28.49375,0.271],
    [27004,"urn:WaterMeter:MC0203J22010600005","2024-07-20T04:45:00",24.7,28.465046,0.279],
    [27005,"urn:WaterMeter:MC0203J22010600005","2024-07-20T05:00:00",24.6,28.468924,0.276],
    [27006,"urn:WaterMeter:MC0203J22010600005","2024-07-20T05:15:00",24.5,28.476683,0.278],
    [27007,"urn:WaterMeter:MC0203J22010600005","2024-07-20T05:30:00",24.399,28.452633,0.275],
    [27008,"urn:WaterMeter:MC0203J22010600005","2024-07-20T05:45:00",24.299,28.463493,0.285],
    [27009,"urn:WaterMeter:MC0203J22010600005","2024-07-20T06:00:00",24.299,28.472416,0.282],
    [27010,"urn:WaterMeter:MC0203J22010600005","2024-07-20T06:15:00",24.2,28.454573,0.271],
    [27011,"urn:WaterMeter:MC0203J22010600005","2024-07-20T06:30:00",24.299,28.435953,0.285],
    [27012,"urn:WaterMeter:MC0203J22010600005","2024-07-20T06:45:00",24.299,28.387854,0.269],
    [27013,"urn:WaterMeter:MC0203J22010600005","2024-07-20T07:00:00",24.299,28.368847,0.263],
    [27014,"urn:WaterMeter:MC0203J22010600005","2024-07-20T07:15:00",24.399,28.35333,0.262],
    [27015,"urn:WaterMeter:MC0203J22010600005","2024-07-20T07:30:00",24.6,28.328117,0.282],
    [27016,"urn:WaterMeter:MC0203J22010600005","2024-07-20T07:45:00",24.7,28.266014,0.281],
    [27017,"urn:WaterMeter:MC0203J22010600005","2024-07-20T08:00:00",24.899,28.241615,0.27],
    [27018,"urn:WaterMeter:MC0203J22010600005","2024-07-20T08:15:00",25.1,28.178,0.271],
    [27019,"urn:WaterMeter:MC0203J22010600005","2024-07-20T08:30:00",25.299,28.146967,0.275],
    [27020,"urn:WaterMeter:MC0203J22010600005","2024-07-20T08:45:00",25.5,28.073616,0.266],
    [27021,"urn:WaterMeter:MC0203J22010600005","2024-07-20T09:00:00",25.799,28.042234,0.272],
    [27022,"urn:WaterMeter:MC0203J22010600005","2024-07-20T09:15:00",26,27.949526,0.257],
    [27023,"urn:WaterMeter:MC0203J22010600005","2024-07-20T09:30:00",26.2,27.918068,0.262],
    [27024,"urn:WaterMeter:MC0203J22010600005","2024-07-20T09:45:00",26.399,27.842854,0.26],
    [27025,"urn:WaterMeter:MC0203J22010600005","2024-07-20T10:00:00",26.6,27.772993,0.276],
    [27026,"urn:WaterMeter:MC0203J22010600005","2024-07-20T10:15:00",26.799,27.673729,0.256],
    [27027,"urn:WaterMeter:MC0203J22010600005","2024-07-20T10:30:00",27,27.630672,0.259],
    [27028,"urn:WaterMeter:MC0203J22010600005","2024-07-20T10:45:00",27.2,27.558872,0.273],
    [27029,"urn:WaterMeter:MC0203J22010600005","2024-07-20T11:00:00",27.5,27.449135,0.255],
    [27030,"urn:WaterMeter:MC0203J22010600005","2024-07-20T11:15:00",27.7,27.360306,0.253],
    [27031,"urn:WaterMeter:MC0203J22010600005","2024-07-20T11:30:00",27.899,27.273804,0.254],
    [27032,"urn:WaterMeter:MC0203J22010600005","2024-07-20T11:45:00",28,27.198126,0.26],
    [27033,"urn:WaterMeter:MC0203J22010600005","2024-07-20T12:00:00",28.2,27.095758,0.249],
    [27034,"urn:WaterMeter:MC0203J22010600005","2024-07-20T12:15:00",28.299,27.004562,0.251],
    [27035,"urn:WaterMeter:MC0203J22010600005","2024-07-20T12:30:00",28.5,26.9072,0.247],
    [27036,"urn:WaterMeter:MC0203J22010600005","2024-07-20T12:45:00",28.7,26.813328,0.245],
    [27037,"urn:WaterMeter:MC0203J22010600005","2024-07-20T13:00:00",28.899,26.738503,0.26],
    [27038,"urn:WaterMeter:MC0203J22010600005","2024-07-20T13:15:00",29,26.638386,0.258],
    [27039,"urn:WaterMeter:MC0203J22010600005","2024-07-20T13:30:00",29.2,26.535242,0.246],
    [27040,"urn:WaterMeter:MC0203J22010600005","2024-07-20T13:45:00",29.299,26.435553,0.236],
    [27041,"urn:WaterMeter:MC0203J22010600005","2024-07-20T14:00:00",29.299,26.31957,0.242],
    [27042,"urn:WaterMeter:MC0203J22010600005","2024-07-20T14:15:00",29.299,26.256342,0.24],
    [27043,"urn:WaterMeter:MC0203J22010600005","2024-07-20T14:30:00",29.399,26.141912,0.243],
    [27044,"urn:WaterMeter:MC0203J22010600005","2024-07-20T14:45:00",29.399,26.05192,0.241],
    [27045,"urn:WaterMeter:MC0203J22010600005","2024-07-20T15:00:00",29.399,25.937838,0.238],
    [27046,"urn:WaterMeter:MC0203J22010600005","2024-07-20T15:15:00",29.399,25.866116,0.235],
    [27047,"urn:WaterMeter:MC0203J22010600005","2024-07-20T15:30:00",29.5,25.801685,0.246],
    [27048,"urn:WaterMeter:MC0203J22010600005","2024-07-20T15:45:00",29.5,25.731127,0.232],
    [27049,"urn:WaterMeter:MC0203J22010600005","2024-07-20T16:00:00",29.5,25.645788,0.239],
    [27050,"urn:WaterMeter:MC0203J22010600005","2024-07-20T16:15:00",29.5,25.554632,0.23],
    [27051,"urn:WaterMeter:MC0203J22010600005","2024-07-20T16:30:00",29.5,25.522398,0.228],
    [27052,"urn:WaterMeter:MC0203J22010600005","2024-07-20T16:45:00",29.5,25.454903,0.242],
    [27053,"urn:WaterMeter:MC0203J22010600005","2024-07-20T17:00:00",29.5,25.381628,0.232],
    [27054,"urn:WaterMeter:MC0203J22010600005","2024-07-20T17:15:00",29.5,25.32961,0.248],
    [27055,"urn:WaterMeter:MC0203J22010600005","2024-07-20T17:30:00",29.5,25.284653,0.225],
    [27056,"urn:WaterMeter:MC0203J22010600005","2024-07-20T17:45:00",29.5,25.212076,0.227],
    [27057,"urn:WaterMeter:MC0203J22010600005","2024-07-20T18:00:00",29.5,25.1485,0.224],
    [27058,"urn:WaterMeter:MC0203J22010600005","2024-07-20T18:15:00",29.399,25.10618,0.232],
    [27059,"urn:WaterMeter:MC0203J22010600005","2024-07-20T18:30:00",29.399,25.119408,0.226],
    [27060,"urn:WaterMeter:MC0203J22010600005","2024-07-20T18:45:00",29.299,25.054628,0.233],
    [27061,"urn:WaterMeter:MC0203J22010600005","2024-07-20T19:00:00",29.299,25.03791,0.233],
    [27062,"urn:WaterMeter:MC0203J22010600005","2024-07-20T19:15:00",29.2,25.024372,0.234],
    [27063,"urn:WaterMeter:MC0203J22010600005","2024-07-20T19:30:00",29.1,24.988258,0.218],
    [27064,"urn:WaterMeter:MC0203J22010600005","2024-07-20T19:45:00",29,24.960331,0.225],
    [27065,"urn:WaterMeter:MC0203J22010600005","2024-07-20T20:00:00",28.899,24.96386,0.225],
    [27066,"urn:WaterMeter:MC0203J22010600005","2024-07-20T20:15:00",28.799,24.921152,0.231],
    [27067,"urn:WaterMeter:MC0203J22010600005","2024-07-20T20:30:00",28.6,24.928522,0.22],
    [27068,"urn:WaterMeter:MC0203J22010600005","2024-07-20T20:45:00",28.5,24.929298,0.235],
    [27069,"urn:WaterMeter:MC0203J22010600005","2024-07-20T21:00:00",28.399,24.957266,0.22],
    [27070,"urn:WaterMeter:MC0203J22010600005","2024-07-20T21:15:00",28.2,24.92154,0.237],
    [27071,"urn:WaterMeter:MC0203J22010600005","2024-07-20T21:30:00",28.1,24.937483,0.223],
    [27072,"urn:WaterMeter:MC0203J22010600005","2024-07-20T21:45:00",28,24.91421,0.232],
    [27073,"urn:WaterMeter:MC0203J22010600005","2024-07-20T22:00:00",27.899,24.88046,0.233],
    [27074,"urn:WaterMeter:MC0203J22010600005","2024-07-20T22:15:00",27.799,24.91421,0.243],
    [27075,"urn:WaterMeter:MC0203J22010600005","2024-07-20T22:30:00",27.7,24.893223,0.229],
    [27076,"urn:WaterMeter:MC0203J22010600005","2024-07-20T22:45:00",27.6,24.8952,0.229],
    [27077,"urn:WaterMeter:MC0203J22010600005","2024-07-20T23:00:00",27.5,24.874254,0.22],
    [27078,"urn:WaterMeter:MC0203J22010600005","2024-07-20T23:15:00",27.299,24.888996,0.235],
    [27079,"urn:WaterMeter:MC0203J22010600005","2024-07-20T23:30:00",27.299,24.887444,0.226],
    [27080,"urn:WaterMeter:MC0203J22010600005","2024-07-20T23:45:00",27.2,24.885117,0.219],
    [27081,"urn:WaterMeter:MC0203J22010600005","2024-07-21T00:00:00",27.1,24.864944,0.221],
    [27082,"urn:WaterMeter:MC0203J22010600005","2024-07-21T00:15:00",27,24.86413,0.221],
    [27083,"urn:WaterMeter:MC0203J22010600005","2024-07-21T00:30:00",26.899,24.863356,0.238],
    [27084,"urn:WaterMeter:MC0203J22010600005","2024-07-21T00:45:00",26.799,24.846327,0.219],
    [27085,"urn:WaterMeter:MC0203J22010600005","2024-07-21T01:00:00",26.7,24.882362,0.221],
    [27086,"urn:WaterMeter:MC0203J22010600005","2024-07-21T01:15:00",26.6,24.850943,0.214],
    [27087,"urn:WaterMeter:MC0203J22010600005","2024-07-21T01:30:00",26.399,24.89206,0.216],
    [27088,"urn:WaterMeter:MC0203J22010600005","2024-07-21T01:45:00",26.2,24.870726,0.224],
    [27089,"urn:WaterMeter:MC0203J22010600005","2024-07-21T02:00:00",26.1,24.846714,0.216],
    [27090,"urn:WaterMeter:MC0203J22010600005","2024-07-21T02:15:00",26.1,24.85486,0.232],
    [27091,"urn:WaterMeter:MC0203J22010600005","2024-07-21T02:30:00",26,24.877747,0.227],
    [27092,"urn:WaterMeter:MC0203J22010600005","2024-07-21T02:45:00",26,24.84943,0.222],
    [27093,"urn:WaterMeter:MC0203J22010600005","2024-07-21T03:00:00",25.899,24.848654,0.213],
    [27094,"urn:WaterMeter:MC0203J22010600005","2024-07-21T03:15:00",25.799,24.859127,0.217],
    [27095,"urn:WaterMeter:MC0203J22010600005","2024-07-21T03:30:00",25.7,24.801718,0.23],
    [27096,"urn:WaterMeter:MC0203J22010600005","2024-07-21T03:45:00",25.6,24.776077,0.219],
    [27097,"urn:WaterMeter:MC0203J22010600005","2024-07-21T04:00:00",25.5,24.844347,0.216],
    [27098,"urn:WaterMeter:MC0203J22010600005","2024-07-21T04:15:00",25.5,24.804394,0.229],
    [27099,"urn:WaterMeter:MC0203J22010600005","2024-07-21T04:30:00",25.399,24.837017,0.218],
    [27100,"urn:WaterMeter:MC0203J22010600005","2024-07-21T04:45:00",25.299,24.792408,0.228],
    [27101,"urn:WaterMeter:MC0203J22010600005","2024-07-21T05:00:00",25.2,24.815643,0.23],
    [27102,"urn:WaterMeter:MC0203J22010600005","2024-07-21T05:15:00",25.2,24.80676,0.214],
    [27103,"urn:WaterMeter:MC0203J22010600005","2024-07-21T05:30:00",25.2,24.776854,0.233],
    [27104,"urn:WaterMeter:MC0203J22010600005","2024-07-21T05:45:00",25.2,24.795473,0.22],
    [27105,"urn:WaterMeter:MC0203J22010600005","2024-07-21T06:00:00",25.2,24.769135,0.207],
    [27106,"urn:WaterMeter:MC0203J22010600005","2024-07-21T06:15:00",25.2,24.74621,0.229],
    [27107,"urn:WaterMeter:MC0203J22010600005","2024-07-21T06:30:00",25.299,24.698885,0.208],
    [27108,"urn:WaterMeter:MC0203J22010600005","2024-07-21T06:45:00",25.399,24.688412,0.215],
    [27109,"urn:WaterMeter:MC0203J22010600005","2024-07-21T07:00:00",25.399,24.653152,0.21],
    [27110,"urn:WaterMeter:MC0203J22010600005","2024-07-21T07:15:00",25.6,24.593027,0.215],
    [27111,"urn:WaterMeter:MC0203J22010600005","2024-07-21T07:30:00",25.7,24.574797,0.209],
    [27112,"urn:WaterMeter:MC0203J22010600005","2024-07-21T07:45:00",25.799,24.526308,0.195],
    [27113,"urn:WaterMeter:MC0203J22010600005","2024-07-21T08:00:00",26,24.440195,0.205],
    [27114,"urn:WaterMeter:MC0203J22010600005","2024-07-21T08:15:00",26.2,24.430885,0.208],
    [27115,"urn:WaterMeter:MC0203J22010600005","2024-07-21T08:30:00",26.299,24.364943,0.221],
    [27116,"urn:WaterMeter:MC0203J22010600005","2024-07-21T08:45:00",26.5,24.29706,0.214],
    [27117,"urn:WaterMeter:MC0203J22010600005","2024-07-21T09:00:00",26.7,24.177975,0.211],
    [27118,"urn:WaterMeter:MC0203J22010600005","2024-07-21T09:15:00",26.799,24.121729,0.199],
    [27119,"urn:WaterMeter:MC0203J22010600005","2024-07-21T09:30:00",27.1,24.058462,0.203],
    [27120,"urn:WaterMeter:MC0203J22010600005","2024-07-21T09:45:00",27.2,23.902914,0.197],
    [27121,"urn:WaterMeter:MC0203J22010600005","2024-07-21T10:00:00",27.399,23.880455,0.196],
    [27122,"urn:WaterMeter:MC0203J22010600005","2024-07-21T10:15:00",27.6,23.741976,0.215],
    [27123,"urn:WaterMeter:MC0203J22010600005","2024-07-21T10:30:00",27.7,23.671764,0.203],
    [27124,"urn:WaterMeter:MC0203J22010600005","2024-07-21T10:45:00",28,23.584875,0.194],
    [27125,"urn:WaterMeter:MC0203J22010600005","2024-07-21T11:00:00",28.299,23.478203,0.192],
    [27126,"urn:WaterMeter:MC0203J22010600005","2024-07-21T11:15:00",28.5,23.390924,0.202],
    [27127,"urn:WaterMeter:MC0203J22010600005","2024-07-21T11:30:00",28.6,23.287355,0.196],
    [27128,"urn:WaterMeter:MC0203J22010600005","2024-07-21T11:45:00",28.799,23.17409,0.2],
    [27129,"urn:WaterMeter:MC0203J22010600005","2024-07-21T12:00:00",28.899,23.084484,0.201],
    [27130,"urn:WaterMeter:MC0203J22010600005","2024-07-21T12:15:00",29,22.973118,0.203],
    [27131,"urn:WaterMeter:MC0203J22010600005","2024-07-21T12:30:00",29.2,22.874205,0.193],
    [27132,"urn:WaterMeter:MC0203J22010600005","2024-07-21T12:45:00",29.299,22.750502,0.196],
    [27133,"urn:WaterMeter:MC0203J22010600005","2024-07-21T13:00:00",29.399,22.67172,0.207],
    [27134,"urn:WaterMeter:MC0203J22010600005","2024-07-21T13:15:00",29.6,22.559267,0.198],
    [27135,"urn:WaterMeter:MC0203J22010600005","2024-07-21T13:30:00",29.7,22.43514,0.186],
    [27136,"urn:WaterMeter:MC0203J22010600005","2024-07-21T13:45:00",29.799,22.345146,0.186],
    [27137,"urn:WaterMeter:MC0203J22010600005","2024-07-21T14:00:00",29.899,22.226023,0.189],
    [27138,"urn:WaterMeter:MC0203J22010600005","2024-07-21T14:15:00",30,22.159344,0.199],
    [27139,"urn:WaterMeter:MC0203J22010600005","2024-07-21T14:30:00",30.1,22.023579,0.184],
    [27140,"urn:WaterMeter:MC0203J22010600005","2024-07-21T14:45:00",30.1,21.935099,0.185],
    [27141,"urn:WaterMeter:MC0203J22010600005","2024-07-21T15:00:00",30.1,21.841265,0.187],
    [27142,"urn:WaterMeter:MC0203J22010600005","2024-07-21T15:15:00",30.1,21.73304,0.174],
    [27143,"urn:WaterMeter:MC0203J22010600005","2024-07-21T15:30:00",30.1,21.665934,0.187],
    [27144,"urn:WaterMeter:MC0203J22010600005","2024-07-21T15:45:00",30.1,21.605383,0.195],
    [27145,"urn:WaterMeter:MC0203J22010600005","2024-07-21T16:00:00",30.1,21.501465,0.189],
    [27146,"urn:WaterMeter:MC0203J22010600005","2024-07-21T16:15:00",30,21.38393,0.174],
    [27147,"urn:WaterMeter:MC0203J22010600005","2024-07-21T16:30:00",30,21.340446,0.179],
    [27148,"urn:WaterMeter:MC0203J22010600005","2024-07-21T16:45:00",29.899,21.272604,0.169],
    [27149,"urn:WaterMeter:MC0203J22010600005","2024-07-21T17:00:00",29.799,21.210152,0.179],
    [27150,"urn:WaterMeter:MC0203J22010600005","2024-07-21T17:15:00",29.7,21.15891,0.169],
    [27151,"urn:WaterMeter:MC0203J22010600005","2024-07-21T17:30:00",29.6,21.09223,0.173],
    [27152,"urn:WaterMeter:MC0203J22010600005","2024-07-21T17:45:00",29.5,21.069305,0.174],
    [27153,"urn:WaterMeter:MC0203J22010600005","2024-07-21T18:00:00",29.399,21.05538,0.179],
    [27154,"urn:WaterMeter:MC0203J22010600005","2024-07-21T18:15:00",29.299,20.985558,0.176],
    [27155,"urn:WaterMeter:MC0203J22010600005","2024-07-21T18:30:00",29.2,20.959568,0.182],
    [27156,"urn:WaterMeter:MC0203J22010600005","2024-07-21T18:45:00",29.1,20.96112,0.174],
    [27157,"urn:WaterMeter:MC0203J22010600005","2024-07-21T19:00:00",29,20.904099,0.183],
    [27158,"urn:WaterMeter:MC0203J22010600005","2024-07-21T19:15:00",28.899,20.920002,0.178],
    [27159,"urn:WaterMeter:MC0203J22010600005","2024-07-21T19:30:00",28.7,20.888155,0.167],
    [27160,"urn:WaterMeter:MC0203J22010600005","2024-07-21T19:45:00",28.7,20.886992,0.175],
    [27161,"urn:WaterMeter:MC0203J22010600005","2024-07-21T20:00:00",28.6,20.824192,0.173],
    [27162,"urn:WaterMeter:MC0203J22010600005","2024-07-21T20:15:00",28.5,20.85018,0.167],
    [27163,"urn:WaterMeter:MC0203J22010600005","2024-07-21T20:30:00",28.399,20.84475,0.184],
    [27164,"urn:WaterMeter:MC0203J22010600005","2024-07-21T20:45:00",28.299,20.791996,0.166],
    [27165,"urn:WaterMeter:MC0203J22010600005","2024-07-21T21:00:00",28.2,20.829195,0.163],
    [27166,"urn:WaterMeter:MC0203J22010600005","2024-07-21T21:15:00",28.2,20.798939,0.165],
    [27167,"urn:WaterMeter:MC0203J22010600005","2024-07-21T21:30:00",28.1,20.782686,0.169],
    [27168,"urn:WaterMeter:MC0203J22010600005","2024-07-21T21:45:00",28,20.7617,0.168],
    [27169,"urn:WaterMeter:MC0203J22010600005","2024-07-21T22:00:00",28,20.747,0.173],
    [27170,"urn:WaterMeter:MC0203J22010600005","2024-07-21T22:15:00",28,20.761312,0.174],
    [27171,"urn:WaterMeter:MC0203J22010600005","2024-07-21T22:30:00",27.899,20.743507,0.168],
    [27172,"urn:WaterMeter:MC0203J22010600005","2024-07-21T22:45:00",27.899,20.724113,0.172],
    [27173,"urn:WaterMeter:MC0203J22010600005","2024-07-21T23:00:00",27.899,20.760536,0.175],
    [27174,"urn:WaterMeter:MC0203J22010600005","2024-07-21T23:15:00",27.799,20.707434,0.177],
    [27175,"urn:WaterMeter:MC0203J22010600005","2024-07-21T23:30:00",27.799,20.69696,0.164],
    [27176,"urn:WaterMeter:MC0203J22010600005","2024-07-21T23:45:00",27.7,20.731094,0.173],
    [27177,"urn:WaterMeter:MC0203J22010600005","2024-07-22T00:00:00",27.7,20.667091,0.173],
    [27178,"urn:WaterMeter:MC0203J22010600005","2024-07-22T00:15:00",27.7,20.694632,0.157],
    [27179,"urn:WaterMeter:MC0203J22010600005","2024-07-22T00:30:00",27.7,20.660109,0.171],
    [27180,"urn:WaterMeter:MC0203J22010600005","2024-07-22T00:45:00",27.6,20.652351,0.177],
    [27181,"urn:WaterMeter:MC0203J22010600005","2024-07-22T01:00:00",27.6,20.653515,0.167],
    [27182,"urn:WaterMeter:MC0203J22010600005","2024-07-22T01:15:00",27.6,20.67834,0.167],
    [27183,"urn:WaterMeter:MC0203J22010600005","2024-07-22T01:30:00",27.5,20.655027,0.171],
    [27184,"urn:WaterMeter:MC0203J22010600005","2024-07-22T01:45:00",27.5,20.66356,0.174],
    [27185,"urn:WaterMeter:MC0203J22010600005","2024-07-22T02:00:00",27.5,20.657782,0.164],
    [27186,"urn:WaterMeter:MC0203J22010600005","2024-07-22T02:15:00",27.5,20.601925,0.162],
    [27187,"urn:WaterMeter:MC0203J22010600005","2024-07-22T02:30:00",27.5,20.62516,0.168],
    [27188,"urn:WaterMeter:MC0203J22010600005","2024-07-22T02:45:00",27.5,20.627138,0.167],
    [27189,"urn:WaterMeter:MC0203J22010600005","2024-07-22T03:00:00",27.5,20.632568,0.159],
    [27190,"urn:WaterMeter:MC0203J22010600005","2024-07-22T03:15:00",27.5,20.599209,0.166],
    [27191,"urn:WaterMeter:MC0203J22010600005","2024-07-22T03:30:00",27.5,20.615461,0.162],
    [27192,"urn:WaterMeter:MC0203J22010600005","2024-07-22T03:45:00",27.5,20.555376,0.164],
    [27193,"urn:WaterMeter:MC0203J22010600005","2024-07-22T04:00:00",27.5,20.617441,0.171],
    [27194,"urn:WaterMeter:MC0203J22010600005","2024-07-22T04:15:00",27.5,20.599209,0.166],
    [27195,"urn:WaterMeter:MC0203J22010600005","2024-07-22T04:30:00",27.399,20.558868,0.163],
    [27196,"urn:WaterMeter:MC0203J22010600005","2024-07-22T04:45:00",27.399,20.584818,0.166],
    [27197,"urn:WaterMeter:MC0203J22010600005","2024-07-22T05:00:00",27.399,20.58253,0.168],
    [27198,"urn:WaterMeter:MC0203J22010600005","2024-07-22T05:15:00",27.399,20.535593,0.168],
    [27199,"urn:WaterMeter:MC0203J22010600005","2024-07-22T05:30:00",27.399,20.553825,0.18],
    [27200,"urn:WaterMeter:MC0203J22010600005","2024-07-22T05:45:00",27.299,20.553436,0.158],
    [27201,"urn:WaterMeter:MC0203J22010600005","2024-07-22T06:00:00",27.299,20.542576,0.156],
    [27202,"urn:WaterMeter:MC0203J22010600005","2024-07-22T06:15:00",27.399,20.535982,0.161],
    [27203,"urn:WaterMeter:MC0203J22010600005","2024-07-22T06:30:00",27.399,20.520466,0.174],
    [27204,"urn:WaterMeter:MC0203J22010600005","2024-07-22T06:45:00",27.399,20.492924,0.171],
    [27205,"urn:WaterMeter:MC0203J22010600005","2024-07-22T07:00:00",27.399,20.493313,0.164],
    [27206,"urn:WaterMeter:MC0203J22010600005","2024-07-22T07:15:00",27.5,20.444437,0.158],
    [27207,"urn:WaterMeter:MC0203J22010600005","2024-07-22T07:30:00",27.6,20.46422,0.152],
    [27208,"urn:WaterMeter:MC0203J22010600005","2024-07-22T07:45:00",27.6,20.431986,0.164],
    [27209,"urn:WaterMeter:MC0203J22010600005","2024-07-22T08:00:00",27.7,20.384312,0.18],
    [27210,"urn:WaterMeter:MC0203J22010600005","2024-07-22T08:15:00",27.7,20.331558,0.171],
    [27211,"urn:WaterMeter:MC0203J22010600005","2024-07-22T08:30:00",27.799,20.451769,0.172],
    [27212,"urn:WaterMeter:MC0203J22010600005","2024-07-22T08:45:00",27.799,20.922718,0.186],
    [27213,"urn:WaterMeter:MC0203J22010600005","2024-07-22T09:00:00",28,22.90993,0.238],
    [27214,"urn:WaterMeter:MC0203J22010600005","2024-07-22T09:15:00",28.1,25.22608,0.278],
    [27215,"urn:WaterMeter:MC0203J22010600005","2024-07-22T09:30:00",28.2,27.165192,0.274],
    [27216,"urn:WaterMeter:MC0203J22010600005","2024-07-22T09:45:00",28.2,28.592276,0.306],
    [27217,"urn:WaterMeter:MC0203J22010600005","2024-07-22T10:00:00",28.299,29.707102,0.307],
    [27218,"urn:WaterMeter:MC0203J22010600005","2024-07-22T10:15:00",28.399,29.852564,0.304],
    [27219,"urn:WaterMeter:MC0203J22010600005","2024-07-22T10:30:00",28.5,29.81839,0.3],
    [27220,"urn:WaterMeter:MC0203J22010600005","2024-07-22T10:45:00",28.6,29.81261,0.3],
    [27221,"urn:WaterMeter:MC0203J22010600005","2024-07-22T11:00:00",28.7,29.733866,0.302],
    [27222,"urn:WaterMeter:MC0203J22010600005","2024-07-22T11:15:00",28.899,29.705162,0.301],
    [27223,"urn:WaterMeter:MC0203J22010600005","2024-07-22T11:30:00",29.1,29.659002,0.296],
    [27224,"urn:WaterMeter:MC0203J22010600005","2024-07-22T11:45:00",29.2,29.619436,0.297],
    [27225,"urn:WaterMeter:MC0203J22010600005","2024-07-22T12:00:00",29.2,29.601593,0.316],
    [27226,"urn:WaterMeter:MC0203J22010600005","2024-07-22T12:15:00",29.299,29.503065,0.296],
    [27227,"urn:WaterMeter:MC0203J22010600005","2024-07-22T12:30:00",29.399,29.449108,0.299],
    [27228,"urn:WaterMeter:MC0203J22010600005","2024-07-22T12:45:00",29.5,29.420792,0.298],
    [27229,"urn:WaterMeter:MC0203J22010600005","2024-07-22T13:00:00",29.6,29.360706,0.296],
    [27230,"urn:WaterMeter:MC0203J22010600005","2024-07-22T13:15:00",29.6,29.316486,0.313],
    [27231,"urn:WaterMeter:MC0203J22010600005","2024-07-22T13:30:00",29.7,29.244337,0.29],
    [27232,"urn:WaterMeter:MC0203J22010600005","2024-07-22T13:45:00",29.799,29.181885,0.292],
    [27233,"urn:WaterMeter:MC0203J22010600005","2024-07-22T14:00:00",29.799,29.101938,0.292],
    [27234,"urn:WaterMeter:MC0203J22010600005","2024-07-22T14:15:00",29.799,29.05892,0.286],
    [27235,"urn:WaterMeter:MC0203J22010600005","2024-07-22T14:30:00",29.799,29.001123,0.282],
    [27236,"urn:WaterMeter:MC0203J22010600005","2024-07-22T14:45:00",29.799,28.930914,0.285],
    [27237,"urn:WaterMeter:MC0203J22010600005","2024-07-22T15:00:00",29.899,28.869198,0.283],
    [27238,"urn:WaterMeter:MC0203J22010600005","2024-07-22T15:15:00",29.899,28.828468,0.292],
    [27239,"urn:WaterMeter:MC0203J22010600005","2024-07-22T15:30:00",29.899,28.787003,0.299],
    [27240,"urn:WaterMeter:MC0203J22010600005","2024-07-22T15:45:00",29.799,28.803293,0.278],
    [27241,"urn:WaterMeter:MC0203J22010600005","2024-07-22T16:00:00",29.799,28.773813,0.288],
    [27242,"urn:WaterMeter:MC0203J22010600005","2024-07-22T16:15:00",29.7,28.728817,0.284],
    [27243,"urn:WaterMeter:MC0203J22010600005","2024-07-22T16:30:00",29.7,28.697784,0.291],
    [27244,"urn:WaterMeter:MC0203J22010600005","2024-07-22T16:45:00",29.6,28.61749,0.284],
    [27245,"urn:WaterMeter:MC0203J22010600005","2024-07-22T17:00:00",29.5,28.579865,0.28],
    [27246,"urn:WaterMeter:MC0203J22010600005","2024-07-22T17:15:00",29.5,28.568188,0.291],
    [27247,"urn:WaterMeter:MC0203J22010600005","2024-07-22T17:30:00",29.399,28.500305,0.274],
    [27248,"urn:WaterMeter:MC0203J22010600005","2024-07-22T17:45:00",29.399,28.480135,0.273],
    [27249,"urn:WaterMeter:MC0203J22010600005","2024-07-22T18:00:00",29.299,28.420786,0.275],
    [27250,"urn:WaterMeter:MC0203J22010600005","2024-07-22T18:15:00",29.2,28.413843,0.281],
    [27251,"urn:WaterMeter:MC0203J22010600005","2024-07-22T18:30:00",29.1,28.377768,0.274],
    [27252,"urn:WaterMeter:MC0203J22010600005","2024-07-22T18:45:00",29.1,28.382383,0.283],
    [27253,"urn:WaterMeter:MC0203J22010600005","2024-07-22T19:00:00",28.899,28.331608,0.279],
    [27254,"urn:WaterMeter:MC0203J22010600005","2024-07-22T19:15:00",28.799,28.357597,0.285],
    [27255,"urn:WaterMeter:MC0203J22010600005","2024-07-22T19:30:00",28.799,28.321522,0.273],
    [27256,"urn:WaterMeter:MC0203J22010600005","2024-07-22T19:45:00",28.7,28.29627,0.292],
    [27257,"urn:WaterMeter:MC0203J22010600005","2024-07-22T20:00:00",28.6,28.269932,0.27],
    [27258,"urn:WaterMeter:MC0203J22010600005","2024-07-22T20:15:00",28.5,28.281569,0.284],
    [27259,"urn:WaterMeter:MC0203J22010600005","2024-07-22T20:30:00",28.399,28.256704,0.276],
    [27260,"urn:WaterMeter:MC0203J22010600005","2024-07-22T20:45:00",28.299,28.252476,0.272],
    [27261,"urn:WaterMeter:MC0203J22010600005","2024-07-22T21:00:00",28.299,28.249372,0.269],
    [27262,"urn:WaterMeter:MC0203J22010600005","2024-07-22T21:15:00",28.2,28.254803,0.274],
    [27263,"urn:WaterMeter:MC0203J22010600005","2024-07-22T21:30:00",28.1,28.233469,0.273],
    [27264,"urn:WaterMeter:MC0203J22010600005","2024-07-22T21:45:00",28,28.21291,0.271],
    [27265,"urn:WaterMeter:MC0203J22010600005","2024-07-22T22:00:00",27.899,28.188046,0.285],
    [27266,"urn:WaterMeter:MC0203J22010600005","2024-07-22T22:15:00",27.899,28.181103,0.279],
    [27267,"urn:WaterMeter:MC0203J22010600005","2024-07-22T22:30:00",27.799,28.161282,0.28],
    [27268,"urn:WaterMeter:MC0203J22010600005","2024-07-22T22:45:00",27.799,28.178,0.272],
    [27269,"urn:WaterMeter:MC0203J22010600005","2024-07-22T23:00:00",27.7,28.15744,0.283],
    [27270,"urn:WaterMeter:MC0203J22010600005","2024-07-22T23:15:00",27.6,28.150808,0.28],
    [27271,"urn:WaterMeter:MC0203J22010600005","2024-07-22T23:30:00",27.5,28.163647,0.272],
    [27272,"urn:WaterMeter:MC0203J22010600005","2024-07-22T23:45:00",27.5,28.16287,0.272],
    [27273,"urn:WaterMeter:MC0203J22010600005","2024-07-23T00:00:00",27.399,28.128696,0.279],
    [27274,"urn:WaterMeter:MC0203J22010600005","2024-07-23T00:15:00",27.299,28.150032,0.309],
    [27275,"urn:WaterMeter:MC0203J22010600005","2024-07-23T00:30:00",27.299,28.155113,0.277],
    [27276,"urn:WaterMeter:MC0203J22010600005","2024-07-23T00:45:00",27.2,28.114384,0.265],
    [27277,"urn:WaterMeter:MC0203J22010600005","2024-07-23T01:00:00",27.1,28.134554,0.285],
    [27278,"urn:WaterMeter:MC0203J22010600005","2024-07-23T01:15:00",27,28.095377,0.279],
    [27279,"urn:WaterMeter:MC0203J22010600005","2024-07-23T01:30:00",27,28.084515,0.281],
    [27280,"urn:WaterMeter:MC0203J22010600005","2024-07-23T01:45:00",26.899,28.1171,0.264],
    [27281,"urn:WaterMeter:MC0203J22010600005","2024-07-23T02:00:00",26.799,28.084127,0.265],
    [27282,"urn:WaterMeter:MC0203J22010600005","2024-07-23T02:15:00",26.799,28.09146,0.263],
    [27283,"urn:WaterMeter:MC0203J22010600005","2024-07-23T02:30:00",26.7,28.096153,0.282],
    [27284,"urn:WaterMeter:MC0203J22010600005","2024-07-23T02:45:00",26.6,28.045338,0.275],
    [27285,"urn:WaterMeter:MC0203J22010600005","2024-07-23T03:00:00",26.5,28.09848,0.267],
    [27286,"urn:WaterMeter:MC0203J22010600005","2024-07-23T03:15:00",26.5,28.072453,0.288],
    [27287,"urn:WaterMeter:MC0203J22010600005","2024-07-23T03:30:00",26.399,28.05969,0.249],
    [27288,"urn:WaterMeter:MC0203J22010600005","2024-07-23T03:45:00",26.399,28.07637,0.282],
    [27289,"urn:WaterMeter:MC0203J22010600005","2024-07-23T04:00:00",26.299,28.04301,0.277],
    [27290,"urn:WaterMeter:MC0203J22010600005","2024-07-23T04:15:00",26.2,28.047277,0.269],
    [27291,"urn:WaterMeter:MC0203J22010600005","2024-07-23T04:30:00",26.1,28.039907,0.271],
    [27292,"urn:WaterMeter:MC0203J22010600005","2024-07-23T04:45:00",26.1,28.017797,0.259],
    [27293,"urn:WaterMeter:MC0203J22010600005","2024-07-23T05:00:00",26,28.018572,0.284],
    [27294,"urn:WaterMeter:MC0203J22010600005","2024-07-23T05:15:00",25.899,28.005733,0.267],
    [27295,"urn:WaterMeter:MC0203J22010600005","2024-07-23T05:30:00",25.899,27.999178,0.275],
    [27296,"urn:WaterMeter:MC0203J22010600005","2024-07-23T05:45:00",25.799,28.010038,0.277],
    [27297,"urn:WaterMeter:MC0203J22010600005","2024-07-23T06:00:00",25.799,27.98595,0.283],
    [27298,"urn:WaterMeter:MC0203J22010600005","2024-07-23T06:15:00",25.799,27.970085,0.27],
    [27299,"urn:WaterMeter:MC0203J22010600005","2024-07-23T06:30:00",25.799,27.949915,0.255],
    [27300,"urn:WaterMeter:MC0203J22010600005","2024-07-23T06:45:00",25.799,27.970085,0.261],
    [27301,"urn:WaterMeter:MC0203J22010600005","2024-07-23T07:00:00",25.799,27.940992,0.278],
    [27302,"urn:WaterMeter:MC0203J22010600005","2024-07-23T07:15:00",25.899,27.803288,0.261],
    [27303,"urn:WaterMeter:MC0203J22010600005","2024-07-23T07:30:00",26.1,27.827337,0.259],
    [27304,"urn:WaterMeter:MC0203J22010600005","2024-07-23T07:45:00",26.299,28.043747,0.275],
    [27305,"urn:WaterMeter:MC0203J22010600005","2024-07-23T08:00:00",26.399,28.74472,0.303],
    [27306,"urn:WaterMeter:MC0203J22010600005","2024-07-23T08:15:00",26.5,29.671026,0.301],
    [27307,"urn:WaterMeter:MC0203J22010600005","2024-07-23T08:30:00",26.7,30.20206,0.314],
    [27308,"urn:WaterMeter:MC0203J22010600005","2024-07-23T08:45:00",26.799,30.48868,0.315],
    [27309,"urn:WaterMeter:MC0203J22010600005","2024-07-23T09:00:00",26.899,30.75831,0.314],
    [27310,"urn:WaterMeter:MC0203J22010600005","2024-07-23T09:15:00",27.1,30.90067,0.327],
    [27311,"urn:WaterMeter:MC0203J22010600005","2024-07-23T09:30:00",27.2,31.009281,0.332],
    [27312,"urn:WaterMeter:MC0203J22010600005","2024-07-23T09:45:00",27.399,31.146948,0.329],
    [27313,"urn:WaterMeter:MC0203J22010600005","2024-07-23T10:00:00",27.399,31.233837,0.326],
    [27314,"urn:WaterMeter:MC0203J22010600005","2024-07-23T10:15:00",27.5,30.966612,0.327],
    [27315,"urn:WaterMeter:MC0203J22010600005","2024-07-23T10:30:00",27.7,30.69039,0.314],
    [27316,"urn:WaterMeter:MC0203J22010600005","2024-07-23T10:45:00",27.899,30.528286,0.326],
    [27317,"urn:WaterMeter:MC0203J22010600005","2024-07-23T11:00:00",28.1,30.426655,0.308],
    [27318,"urn:WaterMeter:MC0203J22010600005","2024-07-23T11:15:00",28.299,30.345196,0.311],
    [27319,"urn:WaterMeter:MC0203J22010600005","2024-07-23T11:30:00",28.399,30.266066,0.34],
    [27320,"urn:WaterMeter:MC0203J22010600005","2024-07-23T11:45:00",28.5,30.15629,0.338],
    [27321,"urn:WaterMeter:MC0203J22010600005","2024-07-23T12:00:00",28.6,30.071688,0.329],
    [27322,"urn:WaterMeter:MC0203J22010600005","2024-07-23T12:15:00",28.7,30.034101,0.303],
    [27323,"urn:WaterMeter:MC0203J22010600005","2024-07-23T12:30:00",28.799,29.963852,0.322],
    [27324,"urn:WaterMeter:MC0203J22010600005","2024-07-23T12:45:00",28.899,29.900276,0.325],
    [27325,"urn:WaterMeter:MC0203J22010600005","2024-07-23T13:00:00",29,29.813774,0.302],
    [27326,"urn:WaterMeter:MC0203J22010600005","2024-07-23T13:15:00",29.1,29.724945,0.304],
    [27327,"urn:WaterMeter:MC0203J22010600005","2024-07-23T13:30:00",29.2,29.665209,0.29],
    [27328,"urn:WaterMeter:MC0203J22010600005","2024-07-23T13:45:00",29.2,29.61672,0.295],
    [27329,"urn:WaterMeter:MC0203J22010600005","2024-07-23T14:00:00",29.2,29.528627,0.302],
    [27330,"urn:WaterMeter:MC0203J22010600005","2024-07-23T14:15:00",29.299,29.452251,0.295],
    [27331,"urn:WaterMeter:MC0203J22010600005","2024-07-23T14:30:00",29.299,29.40609,0.308],
    [27332,"urn:WaterMeter:MC0203J22010600005","2024-07-23T14:45:00",29.399,29.335493,0.299],
    [27333,"urn:WaterMeter:MC0203J22010600005","2024-07-23T15:00:00",29.399,29.260628,0.296],
    [27334,"urn:WaterMeter:MC0203J22010600005","2024-07-23T15:15:00",29.399,29.198524,0.316],
    [27335,"urn:WaterMeter:MC0203J22010600005","2024-07-23T15:30:00",29.299,29.141932,0.292],
    [27336,"urn:WaterMeter:MC0203J22010600005","2024-07-23T15:45:00",29.299,29.096159,0.296],
    [27337,"urn:WaterMeter:MC0203J22010600005","2024-07-23T16:00:00",29.299,29.067842,0.299],
    [27338,"urn:WaterMeter:MC0203J22010600005","2024-07-23T16:15:00",29.299,28.997631,0.3],
    [27339,"urn:WaterMeter:MC0203J22010600005","2024-07-23T16:30:00",29.299,28.93708,0.285],
    [27340,"urn:WaterMeter:MC0203J22010600005","2024-07-23T16:45:00",29.2,28.901821,0.281],
    [27341,"urn:WaterMeter:MC0203J22010600005","2024-07-23T17:00:00",29.2,28.884752,0.315],
    [27342,"urn:WaterMeter:MC0203J22010600005","2024-07-23T17:15:00",29.1,28.802519,0.292],
    [27343,"urn:WaterMeter:MC0203J22010600005","2024-07-23T17:30:00",29.1,28.764503,0.303],
    [27344,"urn:WaterMeter:MC0203J22010600005","2024-07-23T17:45:00",29,28.725327,0.287],
    [27345,"urn:WaterMeter:MC0203J22010600005","2024-07-23T18:00:00",28.899,28.683393,0.298],
    [27346,"urn:WaterMeter:MC0203J22010600005","2024-07-23T18:15:00",28.899,28.667141,0.312],
    [27347,"urn:WaterMeter:MC0203J22010600005","2024-07-23T18:30:00",28.799,28.63223,0.295],
    [27348,"urn:WaterMeter:MC0203J22010600005","2024-07-23T18:45:00",28.7,28.649298,0.28],
    [27349,"urn:WaterMeter:MC0203J22010600005","2024-07-23T19:00:00",28.6,28.608568,0.286],
    [27350,"urn:WaterMeter:MC0203J22010600005","2024-07-23T19:15:00",28.5,28.607367,0.303],
    [27351,"urn:WaterMeter:MC0203J22010600005","2024-07-23T19:30:00",28.399,28.598095,0.298],
    [27352,"urn:WaterMeter:MC0203J22010600005","2024-07-23T19:45:00",28.299,28.537544,0.281],
    [27353,"urn:WaterMeter:MC0203J22010600005","2024-07-23T20:00:00",28.2,28.562796,0.275],
    [27354,"urn:WaterMeter:MC0203J22010600005","2024-07-23T20:15:00",28.1,28.526722,0.301],
    [27355,"urn:WaterMeter:MC0203J22010600005","2024-07-23T20:30:00",28,28.53254,0.29],
    [27356,"urn:WaterMeter:MC0203J22010600005","2024-07-23T20:45:00",27.899,28.513145,0.288],
    [27357,"urn:WaterMeter:MC0203J22010600005","2024-07-23T21:00:00",27.799,28.504223,0.286],
    [27358,"urn:WaterMeter:MC0203J22010600005","2024-07-23T21:15:00",27.7,28.508102,0.299],
    [27359,"urn:WaterMeter:MC0203J22010600005","2024-07-23T21:30:00",27.6,28.519312,0.279],
    [27360,"urn:WaterMeter:MC0203J22010600005","2024-07-23T21:45:00",27.5,28.472416,0.279],
    [27361,"urn:WaterMeter:MC0203J22010600005","2024-07-23T22:00:00",27.399,28.49022,0.271],
    [27362,"urn:WaterMeter:MC0203J22010600005","2024-07-23T22:15:00",27.299,28.481726,0.292],
    [27363,"urn:WaterMeter:MC0203J22010600005","2024-07-23T22:30:00",27.299,28.47358,0.292],
    [27364,"urn:WaterMeter:MC0203J22010600005","2024-07-23T22:45:00",27.2,28.479746,0.277],
    [27365,"urn:WaterMeter:MC0203J22010600005","2024-07-23T23:00:00",27.1,28.473967,0.285],
    [27366,"urn:WaterMeter:MC0203J22010600005","2024-07-23T23:15:00",27,28.444874,0.292],
    [27367,"urn:WaterMeter:MC0203J22010600005","2024-07-23T23:30:00",26.899,28.444874,0.289],
    [27368,"urn:WaterMeter:MC0203J22010600005","2024-07-23T23:45:00",26.899,28.441732,0.286],
    [27369,"urn:WaterMeter:MC0203J22010600005","2024-07-24T00:00:00",26.799,28.41811,0.284],
    [27370,"urn:WaterMeter:MC0203J22010600005","2024-07-24T00:15:00",26.7,28.4344,0.297],
    [27371,"urn:WaterMeter:MC0203J22010600005","2024-07-24T00:30:00",26.6,28.397938,0.281],
    [27372,"urn:WaterMeter:MC0203J22010600005","2024-07-24T00:45:00",26.5,28.423927,0.305],
    [27373,"urn:WaterMeter:MC0203J22010600005","2024-07-24T01:00:00",26.399,28.393246,0.289],
    [27374,"urn:WaterMeter:MC0203J22010600005","2024-07-24T01:15:00",26.299,28.376991,0.278],
    [27375,"urn:WaterMeter:MC0203J22010600005","2024-07-24T01:30:00",26.2,28.406473,0.281],
    [27376,"urn:WaterMeter:MC0203J22010600005","2024-07-24T01:45:00",26.1,28.398327,0.275],
    [27377,"urn:WaterMeter:MC0203J22010600005","2024-07-24T02:00:00",26,28.40139,0.281],
    [27378,"urn:WaterMeter:MC0203J22010600005","2024-07-24T02:15:00",25.899,28.415394,0.267],
    [27379,"urn:WaterMeter:MC0203J22010600005","2024-07-24T02:30:00",25.899,28.383547,0.275],
    [27380,"urn:WaterMeter:MC0203J22010600005","2024-07-24T02:45:00",25.799,28.404144,0.279],
    [27381,"urn:WaterMeter:MC0203J22010600005","2024-07-24T03:00:00",25.7,28.37932,0.303],
    [27382,"urn:WaterMeter:MC0203J22010600005","2024-07-24T03:15:00",25.6,28.376991,0.275],
    [27383,"urn:WaterMeter:MC0203J22010600005","2024-07-24T03:30:00",25.5,28.320358,0.291],
    [27384,"urn:WaterMeter:MC0203J22010600005","2024-07-24T03:45:00",25.399,28.359924,0.269],
    [27385,"urn:WaterMeter:MC0203J22010600005","2024-07-24T04:00:00",25.299,28.369621,0.281],
    [27386,"urn:WaterMeter:MC0203J22010600005","2024-07-24T04:15:00",25.2,28.34398,0.286],
    [27387,"urn:WaterMeter:MC0203J22010600005","2024-07-24T04:30:00",25.2,28.325363,0.27],
    [27388,"urn:WaterMeter:MC0203J22010600005","2024-07-24T04:45:00",25.1,28.36613,0.287],
    [27389,"urn:WaterMeter:MC0203J22010600005","2024-07-24T05:00:00",25,28.350615,0.297],
    [27390,"urn:WaterMeter:MC0203J22010600005","2024-07-24T05:15:00",24.899,28.308722,0.283],
    [27391,"urn:WaterMeter:MC0203J22010600005","2024-07-24T05:30:00",24.799,28.33122,0.276],
    [27392,"urn:WaterMeter:MC0203J22010600005","2024-07-24T05:45:00",24.799,28.334673,0.277],
    [27393,"urn:WaterMeter:MC0203J22010600005","2024-07-24T06:00:00",24.7,28.291265,0.296],
    [27394,"urn:WaterMeter:MC0203J22010600005","2024-07-24T06:15:00",24.7,28.306744,0.283],
    [27395,"urn:WaterMeter:MC0203J22010600005","2024-07-24T06:30:00",24.7,28.312212,0.298],
    [27396,"urn:WaterMeter:MC0203J22010600005","2024-07-24T06:45:00",24.7,28.281569,0.277],
    [27397,"urn:WaterMeter:MC0203J22010600005","2024-07-24T07:00:00",24.7,28.262562,0.285],
    [27398,"urn:WaterMeter:MC0203J22010600005","2024-07-24T07:15:00",24.899,28.179512,0.283],
    [27399,"urn:WaterMeter:MC0203J22010600005","2024-07-24T07:30:00",25.1,28.287775,0.282],
    [27400,"urn:WaterMeter:MC0203J22010600005","2024-07-24T07:45:00",25.2,28.847088,0.295],
    [27401,"urn:WaterMeter:MC0203J22010600005","2024-07-24T08:00:00",25.399,29.815714,0.298],
    [27402,"urn:WaterMeter:MC0203J22010600005","2024-07-24T08:15:00",25.6,30.366531,0.315],
    [27403,"urn:WaterMeter:MC0203J22010600005","2024-07-24T08:30:00",25.799,30.698574,0.322],
    [27404,"urn:WaterMeter:MC0203J22010600005","2024-07-24T08:45:00",26,30.932089,0.332],
    [27405,"urn:WaterMeter:MC0203J22010600005","2024-07-24T09:00:00",26.2,31.085697,0.351],
    [27406,"urn:WaterMeter:MC0203J22010600005","2024-07-24T09:15:00",26.299,31.25521,0.314],
    [27407,"urn:WaterMeter:MC0203J22010600005","2024-07-24T09:30:00",26.5,31.326195,0.325],
    [27408,"urn:WaterMeter:MC0203J22010600005","2024-07-24T09:45:00",26.6,31.424723,0.333],
    [27409,"urn:WaterMeter:MC0203J22010600005","2024-07-24T10:00:00",26.7,31.491442,0.33],
    [27410,"urn:WaterMeter:MC0203J22010600005","2024-07-24T10:15:00",26.899,31.276932,0.325],
    [27411,"urn:WaterMeter:MC0203J22010600005","2024-07-24T10:30:00",27.1,30.9061,0.314],
    [27412,"urn:WaterMeter:MC0203J22010600005","2024-07-24T10:45:00",27.299,30.74163,0.321],
    [27413,"urn:WaterMeter:MC0203J22010600005","2024-07-24T11:00:00",27.399,30.620605,0.321],
    [27414,"urn:WaterMeter:MC0203J22010600005","2024-07-24T11:15:00",27.6,30.56824,0.328],
    [27415,"urn:WaterMeter:MC0203J22010600005","2024-07-24T11:30:00",27.799,30.48678,0.337],
    [27416,"urn:WaterMeter:MC0203J22010600005","2024-07-24T11:45:00",27.899,30.39446,0.312],
    [27417,"urn:WaterMeter:MC0203J22010600005","2024-07-24T12:00:00",28,30.275335,0.336],
    [27418,"urn:WaterMeter:MC0203J22010600005","2024-07-24T12:15:00",28.1,30.22107,0.323],
    [27419,"urn:WaterMeter:MC0203J22010600005","2024-07-24T12:30:00",28.2,30.13224,0.319],
    [27420,"urn:WaterMeter:MC0203J22010600005","2024-07-24T12:45:00",28.399,30.048065,0.327],
    [27421,"urn:WaterMeter:MC0203J22010600005","2024-07-24T13:00:00",28.5,29.995312,0.311],
    [27422,"urn:WaterMeter:MC0203J22010600005","2024-07-24T13:15:00",28.5,29.930143,0.308],
    [27423,"urn:WaterMeter:MC0203J22010600005","2024-07-24T13:30:00",28.7,29.859934,0.304],
    [27424,"urn:WaterMeter:MC0203J22010600005","2024-07-24T13:45:00",28.7,29.7796,0.31],
    [27425,"urn:WaterMeter:MC0203J22010600005","2024-07-24T14:00:00",28.799,29.716799,0.294],
    [27426,"urn:WaterMeter:MC0203J22010600005","2024-07-24T14:15:00",28.899,29.676456,0.332],
    [27427,"urn:WaterMeter:MC0203J22010600005","2024-07-24T14:30:00",29,29.561638,0.313],
    [27428,"urn:WaterMeter:MC0203J22010600005","2024-07-24T14:45:00",29.1,29.510048,0.292],
    [27429,"urn:WaterMeter:MC0203J22010600005","2024-07-24T15:00:00",29.2,29.470055,0.297],
    [27430,"urn:WaterMeter:MC0203J22010600005","2024-07-24T15:15:00",29.2,29.388636,0.296],
    [27431,"urn:WaterMeter:MC0203J22010600005","2024-07-24T15:30:00",29.2,29.316097,0.292],
    [27432,"urn:WaterMeter:MC0203J22010600005","2024-07-24T15:45:00",29.1,29.270714,0.303],
    [27433,"urn:WaterMeter:MC0203J22010600005","2024-07-24T16:00:00",29.1,29.209814,0.296],
    [27434,"urn:WaterMeter:MC0203J22010600005","2024-07-24T16:15:00",29,29.138401,0.307],
    [27435,"urn:WaterMeter:MC0203J22010600005","2024-07-24T16:30:00",29,29.105856,0.286],
    [27436,"urn:WaterMeter:MC0203J22010600005","2024-07-24T16:45:00",28.899,29.04259,0.308],
    [27437,"urn:WaterMeter:MC0203J22010600005","2024-07-24T17:00:00",28.799,29.009657,0.3],
    [27438,"urn:WaterMeter:MC0203J22010600005","2024-07-24T17:15:00",28.7,28.947594,0.289],
    [27439,"urn:WaterMeter:MC0203J22010600005","2024-07-24T17:30:00",28.7,28.915009,0.292],
    [27440,"urn:WaterMeter:MC0203J22010600005","2024-07-24T17:45:00",28.6,28.863031,0.279],
    [27441,"urn:WaterMeter:MC0203J22010600005","2024-07-24T18:00:00",28.5,28.84864,0.305],
    [27442,"urn:WaterMeter:MC0203J22010600005","2024-07-24T18:15:00",28.399,28.783512,0.285],
    [27443,"urn:WaterMeter:MC0203J22010600005","2024-07-24T18:30:00",28.299,28.775366,0.306],
    [27444,"urn:WaterMeter:MC0203J22010600005","2024-07-24T18:45:00",28.299,28.736576,0.29],
    [27445,"urn:WaterMeter:MC0203J22010600005","2024-07-24T19:00:00",28.2,28.74666,0.29],
    [27446,"urn:WaterMeter:MC0203J22010600005","2024-07-24T19:15:00",28.1,28.740843,0.285],
    [27447,"urn:WaterMeter:MC0203J22010600005","2024-07-24T19:30:00",28,28.743557,0.288],
    [27448,"urn:WaterMeter:MC0203J22010600005","2024-07-24T19:45:00",27.899,28.71718,0.305],
    [27449,"urn:WaterMeter:MC0203J22010600005","2024-07-24T20:00:00",27.799,28.67525,0.281],
    [27450,"urn:WaterMeter:MC0203J22010600005","2024-07-24T20:15:00",27.6,28.65628,0.287],
    [27451,"urn:WaterMeter:MC0203J22010600005","2024-07-24T20:30:00",27.399,28.699724,0.284],
    [27452,"urn:WaterMeter:MC0203J22010600005","2024-07-24T20:45:00",27.299,28.664387,0.29],
    [27453,"urn:WaterMeter:MC0203J22010600005","2024-07-24T21:00:00",27.2,28.652363,0.308],
    [27454,"urn:WaterMeter:MC0203J22010600005","2024-07-24T21:15:00",27.1,28.631067,0.291],
    [27455,"urn:WaterMeter:MC0203J22010600005","2024-07-24T21:30:00",27,28.629902,0.285],
    [27456,"urn:WaterMeter:MC0203J22010600005","2024-07-24T21:45:00",26.899,28.622921,0.276],
    [27457,"urn:WaterMeter:MC0203J22010600005","2024-07-24T22:00:00",26.799,28.638437,0.286],
    [27458,"urn:WaterMeter:MC0203J22010600005","2024-07-24T22:15:00",26.7,28.62676,0.287],
    [27459,"urn:WaterMeter:MC0203J22010600005","2024-07-24T22:30:00",26.6,28.63413,0.291],
    [27460,"urn:WaterMeter:MC0203J22010600005","2024-07-24T22:45:00",26.5,28.58642,0.287],
    [27461,"urn:WaterMeter:MC0203J22010600005","2024-07-24T23:00:00",26.399,28.605465,0.289],
    [27462,"urn:WaterMeter:MC0203J22010600005","2024-07-24T23:15:00",26.299,28.599648,0.279],
    [27463,"urn:WaterMeter:MC0203J22010600005","2024-07-24T23:30:00",26.2,28.602749,0.282],
    [27464,"urn:WaterMeter:MC0203J22010600005","2024-07-24T23:45:00",26.1,28.600035,0.283],
    [27465,"urn:WaterMeter:MC0203J22010600005","2024-07-25T00:00:00",26,28.584131,0.282],
    [27466,"urn:WaterMeter:MC0203J22010600005","2024-07-25T00:15:00",25.899,28.537544,0.289],
    [27467,"urn:WaterMeter:MC0203J22010600005","2024-07-25T00:30:00",25.899,28.569778,0.276],
    [27468,"urn:WaterMeter:MC0203J22010600005","2024-07-25T00:45:00",25.7,28.564348,0.28],
    [27469,"urn:WaterMeter:MC0203J22010600005","2024-07-25T01:00:00",25.6,28.566288,0.28],
    [27470,"urn:WaterMeter:MC0203J22010600005","2024-07-25T01:15:00",25.5,28.600811,0.294],
    [27471,"urn:WaterMeter:MC0203J22010600005","2024-07-25T01:30:00",25.5,28.569778,0.297],
    [27472,"urn:WaterMeter:MC0203J22010600005","2024-07-25T01:45:00",25.299,28.539484,0.279],
    [27473,"urn:WaterMeter:MC0203J22010600005","2024-07-25T02:00:00",25.299,28.559305,0.283],
    [27474,"urn:WaterMeter:MC0203J22010600005","2024-07-25T02:15:00",25.2,28.568188,0.282],
    [27475,"urn:WaterMeter:MC0203J22010600005","2024-07-25T02:30:00",25.1,28.538708,0.288],
    [27476,"urn:WaterMeter:MC0203J22010600005","2024-07-25T02:45:00",25,28.572495,0.276],
    [27477,"urn:WaterMeter:MC0203J22010600005","2024-07-25T03:00:00",24.899,28.54728,0.277],
    [27478,"urn:WaterMeter:MC0203J22010600005","2024-07-25T03:15:00",24.799,28.548794,0.274],
    [27479,"urn:WaterMeter:MC0203J22010600005","2024-07-25T03:30:00",24.799,28.52323,0.301],
    [27480,"urn:WaterMeter:MC0203J22010600005","2024-07-25T03:45:00",24.7,28.53832,0.274],
    [27481,"urn:WaterMeter:MC0203J22010600005","2024-07-25T04:00:00",24.6,28.518538,0.276],
    [27482,"urn:WaterMeter:MC0203J22010600005","2024-07-25T04:15:00",24.5,28.510391,0.292],
    [27483,"urn:WaterMeter:MC0203J22010600005","2024-07-25T04:30:00",24.5,28.531765,0.274],
    [27484,"urn:WaterMeter:MC0203J22010600005","2024-07-25T04:45:00",24.399,28.502283,0.292],
    [27485,"urn:WaterMeter:MC0203J22010600005","2024-07-25T05:00:00",24.299,28.506163,0.27],
    [27486,"urn:WaterMeter:MC0203J22010600005","2024-07-25T05:15:00",24.2,28.478971,0.286],
    [27487,"urn:WaterMeter:MC0203J22010600005","2024-07-25T05:30:00",24.2,28.459188,0.274],
    [27488,"urn:WaterMeter:MC0203J22010600005","2024-07-25T05:45:00",24.1,28.458063,0.277],
    [27489,"urn:WaterMeter:MC0203J22010600005","2024-07-25T06:00:00",24.1,28.467373,0.277],
    [27490,"urn:WaterMeter:MC0203J22010600005","2024-07-25T06:15:00",24.1,28.461515,0.274],
    [27491,"urn:WaterMeter:MC0203J22010600005","2024-07-25T06:30:00",24.2,28.421562,0.274],
    [27492,"urn:WaterMeter:MC0203J22010600005","2024-07-25T06:45:00",24.2,28.4441,0.277],
    [27493,"urn:WaterMeter:MC0203J22010600005","2024-07-25T07:00:00",24.2,28.416557,0.272],
    [27494,"urn:WaterMeter:MC0203J22010600005","2024-07-25T07:15:00",24.399,28.3626,0.274],
    [27495,"urn:WaterMeter:MC0203J22010600005","2024-07-25T07:30:00",24.6,28.40686,0.275],
    [27496,"urn:WaterMeter:MC0203J22010600005","2024-07-25T07:45:00",24.899,28.816095,0.279],
    [27497,"urn:WaterMeter:MC0203J22010600005","2024-07-25T08:00:00",25.1,29.639994,0.319],
    [27498,"urn:WaterMeter:MC0203J22010600005","2024-07-25T08:15:00",25.299,30.417307,0.306],
    [27499,"urn:WaterMeter:MC0203J22010600005","2024-07-25T08:30:00",25.5,30.83589,0.321],
    [27500,"urn:WaterMeter:MC0203J22010600005","2024-07-25T08:45:00",25.7,31.05544,0.325],
    [27501,"urn:WaterMeter:MC0203J22010600005","2024-07-25T09:00:00",25.799,31.207886,0.324],
    [27502,"urn:WaterMeter:MC0203J22010600005","2024-07-25T09:15:00",26,31.386707,0.331],
    [27503,"urn:WaterMeter:MC0203J22010600005","2024-07-25T09:30:00",26.2,31.43985,0.323],
    [27504,"urn:WaterMeter:MC0203J22010600005","2024-07-25T09:45:00",26.299,31.538378,0.343],
    [27505,"urn:WaterMeter:MC0203J22010600005","2024-07-25T10:00:00",26.399,31.61712,0.324],
    [27506,"urn:WaterMeter:MC0203J22010600005","2024-07-25T10:15:00",26.6,31.287405,0.315],
    [27507,"urn:WaterMeter:MC0203J22010600005","2024-07-25T10:30:00",26.799,31.026348,0.317],
    [27508,"urn:WaterMeter:MC0203J22010600005","2024-07-25T10:45:00",27,30.855286,0.316],
    [27509,"urn:WaterMeter:MC0203J22010600005","2024-07-25T11:00:00",27.299,30.755983,0.319],
    [27510,"urn:WaterMeter:MC0203J22010600005","2024-07-25T11:15:00",27.399,30.633368,0.308],
    [27511,"urn:WaterMeter:MC0203J22010600005","2024-07-25T11:30:00",27.6,30.542637,0.308],
    [27512,"urn:WaterMeter:MC0203J22010600005","2024-07-25T11:45:00",27.7,30.468122,0.309],
    [27513,"urn:WaterMeter:MC0203J22010600005","2024-07-25T12:00:00",27.799,30.404158,0.312],
    [27514,"urn:WaterMeter:MC0203J22010600005","2024-07-25T12:15:00",27.899,30.336662,0.315],
    [27515,"urn:WaterMeter:MC0203J22010600005","2024-07-25T12:30:00",28,30.232706,0.335],
    [27516,"urn:WaterMeter:MC0203J22010600005","2024-07-25T12:45:00",28.1,30.178787,0.315],
    [27517,"urn:WaterMeter:MC0203J22010600005","2024-07-25T13:00:00",28.299,30.093449,0.299],
    [27518,"urn:WaterMeter:MC0203J22010600005","2024-07-25T13:15:00",28.399,30.06199,0.31],
    [27519,"urn:WaterMeter:MC0203J22010600005","2024-07-25T13:30:00",28.399,29.984022,0.331],
    [27520,"urn:WaterMeter:MC0203J22010600005","2024-07-25T13:45:00",28.5,29.90842,0.296],
    [27521,"urn:WaterMeter:MC0203J22010600005","2024-07-25T14:00:00",28.5,29.878164,0.31],
    [27522,"urn:WaterMeter:MC0203J22010600005","2024-07-25T14:15:00",28.6,29.811447,0.313],
    [27523,"urn:WaterMeter:MC0203J22010600005","2024-07-25T14:30:00",28.6,29.71835,0.3],
    [27524,"urn:WaterMeter:MC0203J22010600005","2024-07-25T14:45:00",28.6,29.707489,0.298],
    [27525,"urn:WaterMeter:MC0203J22010600005","2024-07-25T15:00:00",28.6,29.621376,0.309],
    [27526,"urn:WaterMeter:MC0203J22010600005","2024-07-25T15:15:00",28.6,29.57793,0.296],
    [27527,"urn:WaterMeter:MC0203J22010600005","2024-07-25T15:30:00",28.7,29.51893,0.306],
    [27528,"urn:WaterMeter:MC0203J22010600005","2024-07-25T15:45:00",28.6,29.454966,0.305],
    [27529,"urn:WaterMeter:MC0203J22010600005","2024-07-25T16:00:00",28.6,29.425098,0.297],
    [27530,"urn:WaterMeter:MC0203J22010600005","2024-07-25T16:15:00",28.6,29.36187,0.316],
    [27531,"urn:WaterMeter:MC0203J22010600005","2024-07-25T16:30:00",28.6,29.320753,0.301],
    [27532,"urn:WaterMeter:MC0203J22010600005","2024-07-25T16:45:00",28.5,29.26412,0.298],
    [27533,"urn:WaterMeter:MC0203J22010600005","2024-07-25T17:00:00",28.5,29.247013,0.287],
    [27534,"urn:WaterMeter:MC0203J22010600005","2024-07-25T17:15:00",28.399,29.21792,0.25],
    [27535,"urn:WaterMeter:MC0203J22010600005","2024-07-25T17:30:00",28.299,29.181496,0.296],
    [27536,"urn:WaterMeter:MC0203J22010600005","2024-07-25T17:45:00",28.2,29.110085,0.294],
    [27537,"urn:WaterMeter:MC0203J22010600005","2024-07-25T18:00:00",28.1,29.127192,0.283],
    [27538,"urn:WaterMeter:MC0203J22010600005","2024-07-25T18:15:00",28.1,29.060045,0.288],
    [27539,"urn:WaterMeter:MC0203J22010600005","2024-07-25T18:30:00",27.899,29.08685,0.296],
    [27540,"urn:WaterMeter:MC0203J22010600005","2024-07-25T18:45:00",27.799,29.062761,0.296],
    [27541,"urn:WaterMeter:MC0203J22010600005","2024-07-25T19:00:00",27.7,29.093056,0.292],
    [27542,"urn:WaterMeter:MC0203J22010600005","2024-07-25T19:15:00",27.6,29.096935,0.306],
    [27543,"urn:WaterMeter:MC0203J22010600005","2024-07-25T19:30:00",27.6,29.123312,0.294],
    [27544,"urn:WaterMeter:MC0203J22010600005","2024-07-25T19:45:00",27.5,29.106243,0.311],
    [27545,"urn:WaterMeter:MC0203J22010600005","2024-07-25T20:00:00",27.399,29.093832,0.284],
    [27546,"urn:WaterMeter:MC0203J22010600005","2024-07-25T20:15:00",27.399,29.098448,0.282],
    [27547,"urn:WaterMeter:MC0203J22010600005","2024-07-25T20:30:00",27.299,29.060432,0.288],
    [27548,"urn:WaterMeter:MC0203J22010600005","2024-07-25T20:45:00",27.299,29.083746,0.28],
    [27549,"urn:WaterMeter:MC0203J22010600005","2024-07-25T21:00:00",27.2,29.059309,0.316],
    [27550,"urn:WaterMeter:MC0203J22010600005","2024-07-25T21:15:00",27.1,29.052675,0.319],
    [27551,"urn:WaterMeter:MC0203J22010600005","2024-07-25T21:30:00",27.1,29.05504,0.286],
    [27552,"urn:WaterMeter:MC0203J22010600005","2024-07-25T21:45:00",27,29.05155,0.285],
    [27553,"urn:WaterMeter:MC0203J22010600005","2024-07-25T22:00:00",27,29.015087,0.285],
    [27554,"urn:WaterMeter:MC0203J22010600005","2024-07-25T22:15:00",27,29.001472,0.282],
    [27555,"urn:WaterMeter:MC0203J22010600005","2024-07-25T22:30:00",27,29.039137,0.297],
    [27556,"urn:WaterMeter:MC0203J22010600005","2024-07-25T22:45:00",26.899,28.98363,0.289],
    [27557,"urn:WaterMeter:MC0203J22010600005","2024-07-25T23:00:00",26.899,29.015863,0.286],
    [27558,"urn:WaterMeter:MC0203J22010600005","2024-07-25T23:15:00",26.799,28.995693,0.296],
    [27559,"urn:WaterMeter:MC0203J22010600005","2024-07-25T23:30:00",26.799,28.998407,0.29],
    [27560,"urn:WaterMeter:MC0203J22010600005","2024-07-25T23:45:00",26.799,29.005777,0.295],
    [27561,"urn:WaterMeter:MC0203J22010600005","2024-07-26T00:00:00",26.799,28.969315,0.279],
    [27562,"urn:WaterMeter:MC0203J22010600005","2024-07-26T00:15:00",26.7,28.975483,0.29],
    [27563,"urn:WaterMeter:MC0203J22010600005","2024-07-26T00:30:00",26.7,28.963457,0.312],
    [27564,"urn:WaterMeter:MC0203J22010600005","2024-07-26T00:45:00",26.7,28.945614,0.284],
    [27565,"urn:WaterMeter:MC0203J22010600005","2024-07-26T01:00:00",26.7,28.960394,0.283],
    [27566,"urn:WaterMeter:MC0203J22010600005","2024-07-26T01:15:00",26.7,28.94484,0.299],
    [27567,"urn:WaterMeter:MC0203J22010600005","2024-07-26T01:30:00",26.7,28.916523,0.291],
    [27568,"urn:WaterMeter:MC0203J22010600005","2024-07-26T01:45:00",26.7,28.905273,0.279],
    [27569,"urn:WaterMeter:MC0203J22010600005","2024-07-26T02:00:00",26.6,28.94678,0.296],
    [27570,"urn:WaterMeter:MC0203J22010600005","2024-07-26T02:15:00",26.6,28.922768,0.311],
    [27571,"urn:WaterMeter:MC0203J22010600005","2024-07-26T02:30:00",26.5,28.90376,0.277],
    [27572,"urn:WaterMeter:MC0203J22010600005","2024-07-26T02:45:00",26.5,28.897903,0.282],
    [27573,"urn:WaterMeter:MC0203J22010600005","2024-07-26T03:00:00",26.5,28.873116,0.294],
    [27574,"urn:WaterMeter:MC0203J22010600005","2024-07-26T03:15:00",26.399,28.895615,0.3],
    [27575,"urn:WaterMeter:MC0203J22010600005","2024-07-26T03:30:00",26.299,28.879322,0.281],
    [27576,"urn:WaterMeter:MC0203J22010600005","2024-07-26T03:45:00",26.299,28.883589,0.282],
    [27577,"urn:WaterMeter:MC0203J22010600005","2024-07-26T04:00:00",26.2,28.896002,0.288],
    [27578,"urn:WaterMeter:MC0203J22010600005","2024-07-26T04:15:00",26.2,28.876608,0.285],
    [27579,"urn:WaterMeter:MC0203J22010600005","2024-07-26T04:30:00",26.1,28.884365,0.285],
    [27580,"urn:WaterMeter:MC0203J22010600005","2024-07-26T04:45:00",26.1,28.86687,0.279],
    [27581,"urn:WaterMeter:MC0203J22010600005","2024-07-26T05:00:00",26,28.867258,0.289],
    [27582,"urn:WaterMeter:MC0203J22010600005","2024-07-26T05:15:00",25.899,28.833939,0.277],
    [27583,"urn:WaterMeter:MC0203J22010600005","2024-07-26T05:30:00",25.899,28.82618,0.273],
    [27584,"urn:WaterMeter:MC0203J22010600005","2024-07-26T05:45:00",25.799,28.860315,0.28],
    [27585,"urn:WaterMeter:MC0203J22010600005","2024-07-26T06:00:00",25.799,28.868034,0.274],
    [27586,"urn:WaterMeter:MC0203J22010600005","2024-07-26T06:15:00",25.799,28.823076,0.288],
    [27587,"urn:WaterMeter:MC0203J22010600005","2024-07-26T06:30:00",25.899,28.804459,0.288],
    [27588,"urn:WaterMeter:MC0203J22010600005","2024-07-26T06:45:00",25.899,28.792433,0.283],
    [27589,"urn:WaterMeter:MC0203J22010600005","2024-07-26T07:00:00",25.899,28.679941,0.268],
    [27590,"urn:WaterMeter:MC0203J22010600005","2024-07-26T07:15:00",26.1,28.67839,0.283],
    [27591,"urn:WaterMeter:MC0203J22010600005","2024-07-26T07:30:00",26.2,28.81532,0.283],
    [27592,"urn:WaterMeter:MC0203J22010600005","2024-07-26T07:45:00",26.299,29.261017,0.293],
    [27593,"urn:WaterMeter:MC0203J22010600005","2024-07-26T08:00:00",26.399,29.92898,0.319],
    [27594,"urn:WaterMeter:MC0203J22010600005","2024-07-26T08:15:00",26.5,30.556175,0.316],
    [27595,"urn:WaterMeter:MC0203J22010600005","2024-07-26T08:30:00",26.6,30.944464,0.322],
    [27596,"urn:WaterMeter:MC0203J22010600005","2024-07-26T08:45:00",26.7,31.160563,0.339],
    [27597,"urn:WaterMeter:MC0203J22010600005","2024-07-26T09:00:00",26.7,31.347143,0.342],
    [27598,"urn:WaterMeter:MC0203J22010600005","2024-07-26T09:15:00",26.799,31.48442,0.335],
    [27599,"urn:WaterMeter:MC0203J22010600005","2024-07-26T09:30:00",26.899,31.586088,0.348],
    [27600,"urn:WaterMeter:MC0203J22010600005","2024-07-26T09:45:00",27,31.685003,0.357],
    [27601,"urn:WaterMeter:MC0203J22010600005","2024-07-26T10:00:00",27.1,31.754436,0.32],
    [27602,"urn:WaterMeter:MC0203J22010600005","2024-07-26T10:15:00",27.2,31.418865,0.331],
    [27603,"urn:WaterMeter:MC0203J22010600005","2024-07-26T10:30:00",27.399,31.06475,0.32],
    [27604,"urn:WaterMeter:MC0203J22010600005","2024-07-26T10:45:00",27.5,30.887869,0.334],
    [27605,"urn:WaterMeter:MC0203J22010600005","2024-07-26T11:00:00",27.7,30.818396,0.315],
    [27606,"urn:WaterMeter:MC0203J22010600005","2024-07-26T11:15:00",27.799,30.731934,0.321],
    [27607,"urn:WaterMeter:MC0203J22010600005","2024-07-26T11:30:00",27.899,30.595354,0.312],
    [27608,"urn:WaterMeter:MC0203J22010600005","2024-07-26T11:45:00",27.899,30.56436,0.328],
    [27609,"urn:WaterMeter:MC0203J22010600005","2024-07-26T12:00:00",28,30.5054,0.31],
    [27610,"urn:WaterMeter:MC0203J22010600005","2024-07-26T12:15:00",28,30.436354,0.333],
    [27611,"urn:WaterMeter:MC0203J22010600005","2024-07-26T12:30:00",28.1,30.362614,0.32],
    [27612,"urn:WaterMeter:MC0203J22010600005","2024-07-26T12:45:00",28.1,30.292055,0.295],
    [27613,"urn:WaterMeter:MC0203J22010600005","2024-07-26T13:00:00",28.2,30.231543,0.312],
    [27614,"urn:WaterMeter:MC0203J22010600005","2024-07-26T13:15:00",28.2,30.18767,0.302],
    [27615,"urn:WaterMeter:MC0203J22010600005","2024-07-26T13:30:00",28.2,30.070524,0.3],
    [27616,"urn:WaterMeter:MC0203J22010600005","2024-07-26T13:45:00",28.299,30.046902,0.307],
    [27617,"urn:WaterMeter:MC0203J22010600005","2024-07-26T14:00:00",28.299,29.983248,0.327],
    [27618,"urn:WaterMeter:MC0203J22010600005","2024-07-26T14:15:00",28.299,29.932432,0.312],
    [27619,"urn:WaterMeter:MC0203J22010600005","2024-07-26T14:30:00",28.299,29.900663,0.318],
    [27620,"urn:WaterMeter:MC0203J22010600005","2024-07-26T14:45:00",28.299,29.813774,0.306],
    [27621,"urn:WaterMeter:MC0203J22010600005","2024-07-26T15:00:00",28.299,29.773045,0.298],
    [27622,"urn:WaterMeter:MC0203J22010600005","2024-07-26T15:15:00",28.299,29.75167,0.303],
    [27623,"urn:WaterMeter:MC0203J22010600005","2024-07-26T15:30:00",28.299,29.682238,0.301],
    [27624,"urn:WaterMeter:MC0203J22010600005","2024-07-26T15:45:00",28.2,29.663229,0.299],
    [27625,"urn:WaterMeter:MC0203J22010600005","2024-07-26T16:00:00",28.1,29.619436,0.3],
    [27626,"urn:WaterMeter:MC0203J22010600005","2024-07-26T16:15:00",28.1,29.562414,0.289],
    [27627,"urn:WaterMeter:MC0203J22010600005","2024-07-26T16:30:00",28,29.525913,0.311],
    [27628,"urn:WaterMeter:MC0203J22010600005","2024-07-26T16:45:00",28,29.501514,0.31],
    [27629,"urn:WaterMeter:MC0203J22010600005","2024-07-26T17:00:00",27.899,29.458845,0.301],
    [27630,"urn:WaterMeter:MC0203J22010600005","2024-07-26T17:15:00",27.899,29.427425,0.312],
    [27631,"urn:WaterMeter:MC0203J22010600005","2024-07-26T17:30:00",27.799,29.383165,0.298],
    [27632,"urn:WaterMeter:MC0203J22010600005","2024-07-26T17:45:00",27.799,29.327347,0.289],
    [27633,"urn:WaterMeter:MC0203J22010600005","2024-07-26T18:00:00",27.7,29.316097,0.311],
    [27634,"urn:WaterMeter:MC0203J22010600005","2024-07-26T18:15:00",27.6,29.283127,0.295],
    [27635,"urn:WaterMeter:MC0203J22010600005","2024-07-26T18:30:00",27.5,29.277697,0.311],
    [27636,"urn:WaterMeter:MC0203J22010600005","2024-07-26T18:45:00",27.399,29.2808,0.294],
    [27637,"urn:WaterMeter:MC0203J22010600005","2024-07-26T19:00:00",27.2,29.28235,0.276],
    [27638,"urn:WaterMeter:MC0203J22010600005","2024-07-26T19:15:00",27.1,29.287004,0.296],
    [27639,"urn:WaterMeter:MC0203J22010600005","2024-07-26T19:30:00",27,29.28235,0.308],
    [27640,"urn:WaterMeter:MC0203J22010600005","2024-07-26T19:45:00",27,29.242397,0.288],
    [27641,"urn:WaterMeter:MC0203J22010600005","2024-07-26T20:00:00",26.899,29.239681,0.305],
    [27642,"urn:WaterMeter:MC0203J22010600005","2024-07-26T20:15:00",26.899,29.185375,0.318],
    [27643,"urn:WaterMeter:MC0203J22010600005","2024-07-26T20:30:00",26.799,29.20706,0.3],
    [27644,"urn:WaterMeter:MC0203J22010600005","2024-07-26T20:45:00",26.799,29.20671,0.287],
    [27645,"urn:WaterMeter:MC0203J22010600005","2024-07-26T21:00:00",26.799,29.161715,0.311],
    [27646,"urn:WaterMeter:MC0203J22010600005","2024-07-26T21:15:00",26.7,29.193521,0.283],
    [27647,"urn:WaterMeter:MC0203J22010600005","2024-07-26T21:30:00",26.7,29.182272,0.286],
    [27648,"urn:WaterMeter:MC0203J22010600005","2024-07-26T21:45:00",26.7,29.178354,0.287],
    [27649,"urn:WaterMeter:MC0203J22010600005","2024-07-26T22:00:00",26.6,29.171022,0.315],
    [27650,"urn:WaterMeter:MC0203J22010600005","2024-07-26T22:15:00",26.6,29.133785,0.299],
    [27651,"urn:WaterMeter:MC0203J22010600005","2024-07-26T22:30:00",26.5,29.127966,0.294],
    [27652,"urn:WaterMeter:MC0203J22010600005","2024-07-26T22:45:00",26.5,29.093443,0.286],
    [27653,"urn:WaterMeter:MC0203J22010600005","2024-07-26T23:00:00",26.5,29.119005,0.292],
    [27654,"urn:WaterMeter:MC0203J22010600005","2024-07-26T23:15:00",26.399,29.102753,0.287],
    [27655,"urn:WaterMeter:MC0203J22010600005","2024-07-26T23:30:00",26.399,29.075212,0.291],
    [27656,"urn:WaterMeter:MC0203J22010600005","2024-07-26T23:45:00",26.299,29.077927,0.291],
    [27657,"urn:WaterMeter:MC0203J22010600005","2024-07-27T00:00:00",26.2,29.122923,0.301],
    [27658,"urn:WaterMeter:MC0203J22010600005","2024-07-27T00:15:00",26.2,29.097322,0.292],
    [27659,"urn:WaterMeter:MC0203J22010600005","2024-07-27T00:30:00",26.1,29.047283,0.297],
    [27660,"urn:WaterMeter:MC0203J22010600005","2024-07-27T00:45:00",26,29.09422,0.289],
    [27661,"urn:WaterMeter:MC0203J22010600005","2024-07-27T01:00:00",26,29.071295,0.289],
    [27662,"urn:WaterMeter:MC0203J22010600005","2024-07-27T01:15:00",25.899,29.063148,0.293],
    [27663,"urn:WaterMeter:MC0203J22010600005","2024-07-27T01:30:00",25.7,29.017027,0.299],
    [27664,"urn:WaterMeter:MC0203J22010600005","2024-07-27T01:45:00",25.6,29.080215,0.296],
    [27665,"urn:WaterMeter:MC0203J22010600005","2024-07-27T02:00:00",25.6,29.070557,0.291],
    [27666,"urn:WaterMeter:MC0203J22010600005","2024-07-27T02:15:00",25.5,29.033669,0.281],
    [27667,"urn:WaterMeter:MC0203J22010600005","2024-07-27T02:30:00",25.5,29.023582,0.294],
    [27668,"urn:WaterMeter:MC0203J22010600005","2024-07-27T02:45:00",25.399,29.069393,0.303],
    [27669,"urn:WaterMeter:MC0203J22010600005","2024-07-27T03:00:00",25.299,29.01466,0.292],
    [27670,"urn:WaterMeter:MC0203J22010600005","2024-07-27T03:15:00",25.299,29.023195,0.291],
    [27671,"urn:WaterMeter:MC0203J22010600005","2024-07-27T03:30:00",25.2,29.041426,0.277],
    [27672,"urn:WaterMeter:MC0203J22010600005","2024-07-27T03:45:00",25.1,29.0038,0.283],
    [27673,"urn:WaterMeter:MC0203J22010600005","2024-07-27T04:00:00",25,29.037973,0.287],
    [27674,"urn:WaterMeter:MC0203J22010600005","2024-07-27T04:15:00",24.899,29.086462,0.286],
    [27675,"urn:WaterMeter:MC0203J22010600005","2024-07-27T04:30:00",24.799,29.078316,0.279],
    [27676,"urn:WaterMeter:MC0203J22010600005","2024-07-27T04:45:00",24.799,29.106243,0.278],
    [27677,"urn:WaterMeter:MC0203J22010600005","2024-07-27T05:00:00",24.7,28.971643,0.277],
    [27678,"urn:WaterMeter:MC0203J22010600005","2024-07-27T05:15:00",24.6,29.06629,0.295],
    [27679,"urn:WaterMeter:MC0203J22010600005","2024-07-27T05:30:00",24.5,29.002636,0.282],
    [27680,"urn:WaterMeter:MC0203J22010600005","2024-07-27T05:45:00",24.5,29.019743,0.279],
    [27681,"urn:WaterMeter:MC0203J22010600005","2024-07-27T06:00:00",24.399,29.044956,0.296],
    [27682,"urn:WaterMeter:MC0203J22010600005","2024-07-27T06:15:00",24.5,29.107409,0.281],
    [27683,"urn:WaterMeter:MC0203J22010600005","2024-07-27T06:30:00",24.5,29.130644,0.297],
    [27684,"urn:WaterMeter:MC0203J22010600005","2024-07-27T06:45:00",24.5,29.100775,0.276],
    [27685,"urn:WaterMeter:MC0203J22010600005","2024-07-27T07:00:00",24.5,29.109735,0.317],
    [27686,"urn:WaterMeter:MC0203J22010600005","2024-07-27T07:15:00",24.6,29.0756,0.285],
    [27687,"urn:WaterMeter:MC0203J22010600005","2024-07-27T07:30:00",24.7,29.134562,0.28],
    [27688,"urn:WaterMeter:MC0203J22010600005","2024-07-27T07:45:00",24.799,29.072845,0.277],
    [27689,"urn:WaterMeter:MC0203J22010600005","2024-07-27T08:00:00",25,29.078703,0.297],
    [27690,"urn:WaterMeter:MC0203J22010600005","2024-07-27T08:15:00",25.2,29.076763,0.274],
    [27691,"urn:WaterMeter:MC0203J22010600005","2024-07-27T08:30:00",25.299,29.04612,0.284],
    [27692,"urn:WaterMeter:MC0203J22010600005","2024-07-27T08:45:00",25.399,29.000347,0.281],
    [27693,"urn:WaterMeter:MC0203J22010600005","2024-07-27T09:00:00",25.5,28.980177,0.274],
    [27694,"urn:WaterMeter:MC0203J22010600005","2024-07-27T09:15:00",25.7,29.03487,0.27],
    [27695,"urn:WaterMeter:MC0203J22010600005","2024-07-27T09:30:00",25.799,29.001472,0.283],
    [27696,"urn:WaterMeter:MC0203J22010600005","2024-07-27T09:45:00",25.899,28.94992,0.276],
    [27697,"urn:WaterMeter:MC0203J22010600005","2024-07-27T10:00:00",26,28.902208,0.266],
    [27698,"urn:WaterMeter:MC0203J22010600005","2024-07-27T10:15:00",26.1,28.877731,0.263],
    [27699,"urn:WaterMeter:MC0203J22010600005","2024-07-27T10:30:00",26.2,28.808685,0.27],
    [27700,"urn:WaterMeter:MC0203J22010600005","2024-07-27T10:45:00",26.399,28.740843,0.287],
    [27701,"urn:WaterMeter:MC0203J22010600005","2024-07-27T11:00:00",26.5,28.719507,0.27],
    [27702,"urn:WaterMeter:MC0203J22010600005","2024-07-27T11:15:00",26.7,28.65085,0.263],
    [27703,"urn:WaterMeter:MC0203J22010600005","2024-07-27T11:30:00",26.899,28.641928,0.268],
    [27704,"urn:WaterMeter:MC0203J22010600005","2024-07-27T11:45:00",27,28.582968,0.263],
    [27705,"urn:WaterMeter:MC0203J22010600005","2024-07-27T12:00:00",27.1,28.543013,0.282],
    [27706,"urn:WaterMeter:MC0203J22010600005","2024-07-27T12:15:00",27.2,28.496853,0.262],
    [27707,"urn:WaterMeter:MC0203J22010600005","2024-07-27T12:30:00",27.399,28.409187,0.27],
    [27708,"urn:WaterMeter:MC0203J22010600005","2024-07-27T12:45:00",27.399,28.321522,0.272],
    [27709,"urn:WaterMeter:MC0203J22010600005","2024-07-27T13:00:00",27.5,28.313765,0.266],
    [27710,"urn:WaterMeter:MC0203J22010600005","2024-07-27T13:15:00",27.7,28.189985,0.255],
    [27711,"urn:WaterMeter:MC0203J22010600005","2024-07-27T13:30:00",27.799,28.164036,0.278],
    [27712,"urn:WaterMeter:MC0203J22010600005","2024-07-27T13:45:00",27.899,28.097317,0.264],
    [27713,"urn:WaterMeter:MC0203J22010600005","2024-07-27T14:00:00",28,28.036804,0.253],
    [27714,"urn:WaterMeter:MC0203J22010600005","2024-07-27T14:15:00",28.1,27.939442,0.255],
    [27715,"urn:WaterMeter:MC0203J22010600005","2024-07-27T14:30:00",28.2,27.89173,0.237],
    [27716,"urn:WaterMeter:MC0203J22010600005","2024-07-27T14:45:00",28.2,27.78816,0.252],
    [27717,"urn:WaterMeter:MC0203J22010600005","2024-07-27T15:00:00",28.299,27.764885,0.259],
    [27718,"urn:WaterMeter:MC0203J22010600005","2024-07-27T15:15:00",28.299,27.707865,0.244],
    [27719,"urn:WaterMeter:MC0203J22010600005","2024-07-27T15:30:00",28.299,27.679548,0.25],
    [27720,"urn:WaterMeter:MC0203J22010600005","2024-07-27T15:45:00",28.299,27.60895,0.268],
    [27721,"urn:WaterMeter:MC0203J22010600005","2024-07-27T16:00:00",28.299,27.55154,0.256],
    [27722,"urn:WaterMeter:MC0203J22010600005","2024-07-27T16:15:00",28.2,27.50344,0.266],
    [27723,"urn:WaterMeter:MC0203J22010600005","2024-07-27T16:30:00",28.2,27.446808,0.263],
    [27724,"urn:WaterMeter:MC0203J22010600005","2024-07-27T16:45:00",28.1,27.432417,0.262],
    [27725,"urn:WaterMeter:MC0203J22010600005","2024-07-27T17:00:00",28.1,27.364534,0.237],
    [27726,"urn:WaterMeter:MC0203J22010600005","2024-07-27T17:15:00",28.1,27.359142,0.247],
    [27727,"urn:WaterMeter:MC0203J22010600005","2024-07-27T17:30:00",28.1,27.322292,0.241],
    [27728,"urn:WaterMeter:MC0203J22010600005","2024-07-27T17:45:00",28,27.28001,0.255],
    [27729,"urn:WaterMeter:MC0203J22010600005","2024-07-27T18:00:00",27.899,27.275318,0.251],
    [27730,"urn:WaterMeter:MC0203J22010600005","2024-07-27T18:15:00",27.799,27.240019,0.246],
    [27731,"urn:WaterMeter:MC0203J22010600005","2024-07-27T18:30:00",27.7,27.2451,0.268],
    [27732,"urn:WaterMeter:MC0203J22010600005","2024-07-27T18:45:00",27.6,27.212904,0.255],
    [27733,"urn:WaterMeter:MC0203J22010600005","2024-07-27T19:00:00",27.5,27.211353,0.247],
    [27734,"urn:WaterMeter:MC0203J22010600005","2024-07-27T19:15:00",27.399,27.149677,0.247],
    [27735,"urn:WaterMeter:MC0203J22010600005","2024-07-27T19:30:00",27.299,27.172136,0.247],
    [27736,"urn:WaterMeter:MC0203J22010600005","2024-07-27T19:45:00",27.299,27.149288,0.239],
    [27737,"urn:WaterMeter:MC0203J22010600005","2024-07-27T20:00:00",27.2,27.146961,0.237],
    [27738,"urn:WaterMeter:MC0203J22010600005","2024-07-27T20:15:00",27.1,27.1124,0.256],
    [27739,"urn:WaterMeter:MC0203J22010600005","2024-07-27T20:30:00",27.1,27.129118,0.25],
    [27740,"urn:WaterMeter:MC0203J22010600005","2024-07-27T20:45:00",27,27.127178,0.253],
    [27741,"urn:WaterMeter:MC0203J22010600005","2024-07-27T21:00:00",27,27.098862,0.241],
    [27742,"urn:WaterMeter:MC0203J22010600005","2024-07-27T21:15:00",26.899,27.10115,0.245],
    [27743,"urn:WaterMeter:MC0203J22010600005","2024-07-27T21:30:00",26.899,27.094982,0.242],
    [27744,"urn:WaterMeter:MC0203J22010600005","2024-07-27T21:45:00",26.899,27.113564,0.24],
    [27745,"urn:WaterMeter:MC0203J22010600005","2024-07-27T22:00:00",26.799,27.078302,0.255],
    [27746,"urn:WaterMeter:MC0203J22010600005","2024-07-27T22:15:00",26.799,27.083694,0.245],
    [27747,"urn:WaterMeter:MC0203J22010600005","2024-07-27T22:30:00",26.799,27.098085,0.248],
    [27748,"urn:WaterMeter:MC0203J22010600005","2024-07-27T22:45:00",26.7,27.051926,0.238],
    [27749,"urn:WaterMeter:MC0203J22010600005","2024-07-27T23:00:00",26.7,27.039125,0.24],
    [27750,"urn:WaterMeter:MC0203J22010600005","2024-07-27T23:15:00",26.7,27.054602,0.245],
    [27751,"urn:WaterMeter:MC0203J22010600005","2024-07-27T23:30:00",26.6,27.070932,0.247],
    [27752,"urn:WaterMeter:MC0203J22010600005","2024-07-27T23:45:00",26.6,27.035208,0.246],
    [27753,"urn:WaterMeter:MC0203J22010600005","2024-07-28T00:00:00",26.6,27.055378,0.26],
    [27754,"urn:WaterMeter:MC0203J22010600005","2024-07-28T00:15:00",26.6,26.998007,0.229],
    [27755,"urn:WaterMeter:MC0203J22010600005","2024-07-28T00:30:00",26.6,27.05115,0.237],
    [27756,"urn:WaterMeter:MC0203J22010600005","2024-07-28T00:45:00",26.5,26.985945,0.235],
    [27757,"urn:WaterMeter:MC0203J22010600005","2024-07-28T01:00:00",26.5,26.991413,0.242],
    [27758,"urn:WaterMeter:MC0203J22010600005","2024-07-28T01:15:00",26.399,27.002274,0.254],
    [27759,"urn:WaterMeter:MC0203J22010600005","2024-07-28T01:30:00",26.299,27.015425,0.251],
    [27760,"urn:WaterMeter:MC0203J22010600005","2024-07-28T01:45:00",26.299,26.983267,0.245],
    [27761,"urn:WaterMeter:MC0203J22010600005","2024-07-28T02:00:00",26.2,27.004562,0.248],
    [27762,"urn:WaterMeter:MC0203J22010600005","2024-07-28T02:15:00",26.1,26.979,0.243],
    [27763,"urn:WaterMeter:MC0203J22010600005","2024-07-28T02:30:00",26.1,27.0015,0.248],
    [27764,"urn:WaterMeter:MC0203J22010600005","2024-07-28T02:45:00",26,26.982103,0.247],
    [27765,"urn:WaterMeter:MC0203J22010600005","2024-07-28T03:00:00",25.899,26.966162,0.256],
    [27766,"urn:WaterMeter:MC0203J22010600005","2024-07-28T03:15:00",25.899,26.978186,0.239],
    [27767,"urn:WaterMeter:MC0203J22010600005","2024-07-28T03:30:00",25.899,26.944477,0.234],
    [27768,"urn:WaterMeter:MC0203J22010600005","2024-07-28T03:45:00",25.799,26.957626,0.243],
    [27769,"urn:WaterMeter:MC0203J22010600005","2024-07-28T04:00:00",25.7,26.950296,0.239],
    [27770,"urn:WaterMeter:MC0203J22010600005","2024-07-28T04:15:00",25.7,26.951847,0.24],
    [27771,"urn:WaterMeter:MC0203J22010600005","2024-07-28T04:30:00",25.7,26.92547,0.239],
    [27772,"urn:WaterMeter:MC0203J22010600005","2024-07-28T04:45:00",25.6,26.916937,0.235],
    [27773,"urn:WaterMeter:MC0203J22010600005","2024-07-28T05:00:00",25.5,26.924694,0.238],
    [27774,"urn:WaterMeter:MC0203J22010600005","2024-07-28T05:15:00",25.399,26.892498,0.25],
    [27775,"urn:WaterMeter:MC0203J22010600005","2024-07-28T05:30:00",25.299,26.910303,0.242],
    [27776,"urn:WaterMeter:MC0203J22010600005","2024-07-28T05:45:00",25.299,26.9181,0.232],
    [27777,"urn:WaterMeter:MC0203J22010600005","2024-07-28T06:00:00",25.299,26.868797,0.229],
    [27778,"urn:WaterMeter:MC0203J22010600005","2024-07-28T06:15:00",25.299,26.854872,0.246],
    [27779,"urn:WaterMeter:MC0203J22010600005","2024-07-28T06:30:00",25.299,26.87035,0.231],
    [27780,"urn:WaterMeter:MC0203J22010600005","2024-07-28T06:45:00",25.299,26.852932,0.229],
    [27781,"urn:WaterMeter:MC0203J22010600005","2024-07-28T07:00:00",25.299,26.828495,0.245],
    [27782,"urn:WaterMeter:MC0203J22010600005","2024-07-28T07:15:00",25.399,26.85018,0.233],
    [27783,"urn:WaterMeter:MC0203J22010600005","2024-07-28T07:30:00",25.399,26.788542,0.234],
    [27784,"urn:WaterMeter:MC0203J22010600005","2024-07-28T07:45:00",25.5,26.746649,0.237],
    [27785,"urn:WaterMeter:MC0203J22010600005","2024-07-28T08:00:00",25.6,26.770699,0.246],
    [27786,"urn:WaterMeter:MC0203J22010600005","2024-07-28T08:15:00",25.7,26.753204,0.236],
    [27787,"urn:WaterMeter:MC0203J22010600005","2024-07-28T08:30:00",25.899,26.722986,0.231],
    [27788,"urn:WaterMeter:MC0203J22010600005","2024-07-28T08:45:00",26,26.674072,0.232],
    [27789,"urn:WaterMeter:MC0203J22010600005","2024-07-28T09:00:00",26.2,26.60968,0.219],
    [27790,"urn:WaterMeter:MC0203J22010600005","2024-07-28T09:15:00",26.399,26.60813,0.225],
    [27791,"urn:WaterMeter:MC0203J22010600005","2024-07-28T09:30:00",26.5,26.549944,0.231],
    [27792,"urn:WaterMeter:MC0203J22010600005","2024-07-28T09:45:00",26.7,26.506926,0.23],
    [27793,"urn:WaterMeter:MC0203J22010600005","2024-07-28T10:00:00",26.799,26.401806,0.23],
    [27794,"urn:WaterMeter:MC0203J22010600005","2024-07-28T10:15:00",26.899,26.353706,0.223],
    [27795,"urn:WaterMeter:MC0203J22010600005","2024-07-28T10:30:00",27.1,26.289276,0.222],
    [27796,"urn:WaterMeter:MC0203J22010600005","2024-07-28T10:45:00",27.2,26.264877,0.217],
    [27797,"urn:WaterMeter:MC0203J22010600005","2024-07-28T11:00:00",27.399,26.205528,0.221],
    [27798,"urn:WaterMeter:MC0203J22010600005","2024-07-28T11:15:00",27.5,26.087606,0.224],
    [27799,"urn:WaterMeter:MC0203J22010600005","2024-07-28T11:30:00",27.6,26.048817,0.234],
    [27800,"urn:WaterMeter:MC0203J22010600005","2024-07-28T11:45:00",27.7,26.021275,0.224],
    [27801,"urn:WaterMeter:MC0203J22010600005","2024-07-28T12:00:00",27.799,25.938227,0.227],
    [27802,"urn:WaterMeter:MC0203J22010600005","2024-07-28T12:15:00",27.899,25.86534,0.225],
    [27803,"urn:WaterMeter:MC0203J22010600005","2024-07-28T12:30:00",28.1,25.800173,0.22],
    [27804,"urn:WaterMeter:MC0203J22010600005","2024-07-28T12:45:00",28.2,25.73384,0.219],
    [27805,"urn:WaterMeter:MC0203J22010600005","2024-07-28T13:00:00",28.399,25.645401,0.235],
    [27806,"urn:WaterMeter:MC0203J22010600005","2024-07-28T13:15:00",28.5,25.618984,0.221],
    [27807,"urn:WaterMeter:MC0203J22010600005","2024-07-28T13:30:00",28.6,25.52515,0.215],
    [27808,"urn:WaterMeter:MC0203J22010600005","2024-07-28T13:45:00",28.7,25.45374,0.212],
    [27809,"urn:WaterMeter:MC0203J22010600005","2024-07-28T14:00:00",28.799,25.399471,0.209],
    [27810,"urn:WaterMeter:MC0203J22010600005","2024-07-28T14:15:00",28.799,25.300518,0.226],
    [27811,"urn:WaterMeter:MC0203J22010600005","2024-07-28T14:30:00",28.899,25.220612,0.209],
    [27812,"urn:WaterMeter:MC0203J22010600005","2024-07-28T14:45:00",28.899,25.156258,0.211],
    [27813,"urn:WaterMeter:MC0203J22010600005","2024-07-28T15:00:00",28.899,25.09303,0.215],
    [27814,"urn:WaterMeter:MC0203J22010600005","2024-07-28T15:15:00",29,25.038298,0.214],
    [27815,"urn:WaterMeter:MC0203J22010600005","2024-07-28T15:30:00",29,24.96192,0.22],
    [27816,"urn:WaterMeter:MC0203J22010600005","2024-07-28T15:45:00",29,24.909126,0.217],
    [27817,"urn:WaterMeter:MC0203J22010600005","2024-07-28T16:00:00",29,24.863356,0.216],
    [27818,"urn:WaterMeter:MC0203J22010600005","2024-07-28T16:15:00",29,24.811028,0.198],
    [27819,"urn:WaterMeter:MC0203J22010600005","2024-07-28T16:30:00",29,24.762152,0.203],
    [27820,"urn:WaterMeter:MC0203J22010600005","2024-07-28T16:45:00",29,24.717117,0.204],
    [27821,"urn:WaterMeter:MC0203J22010600005","2024-07-28T17:00:00",29,24.661299,0.208],
    [27822,"urn:WaterMeter:MC0203J22010600005","2024-07-28T17:15:00",29,24.601522,0.203],
    [27823,"urn:WaterMeter:MC0203J22010600005","2024-07-28T17:30:00",29,24.557728,0.209],
    [27824,"urn:WaterMeter:MC0203J22010600005","2024-07-28T17:45:00",28.899,24.546867,0.21],
    [27825,"urn:WaterMeter:MC0203J22010600005","2024-07-28T18:00:00",28.899,24.497215,0.205],
    [27826,"urn:WaterMeter:MC0203J22010600005","2024-07-28T18:15:00",28.799,24.437868,0.207],
    [27827,"urn:WaterMeter:MC0203J22010600005","2024-07-28T18:30:00",28.7,24.44675,0.209],
    [27828,"urn:WaterMeter:MC0203J22010600005","2024-07-28T18:45:00",28.6,24.406408,0.208],
    [27829,"urn:WaterMeter:MC0203J22010600005","2024-07-28T19:00:00",28.5,24.391706,0.204],
    [27830,"urn:WaterMeter:MC0203J22010600005","2024-07-28T19:15:00",28.399,24.38395,0.198],
    [27831,"urn:WaterMeter:MC0203J22010600005","2024-07-28T19:30:00",28.399,24.351753,0.206],
    [27832,"urn:WaterMeter:MC0203J22010600005","2024-07-28T19:45:00",28.299,24.33038,0.197],
    [27833,"urn:WaterMeter:MC0203J22010600005","2024-07-28T20:00:00",28.2,24.330769,0.205],
    [27834,"urn:WaterMeter:MC0203J22010600005","2024-07-28T20:15:00",28.1,24.28228,0.201],
    [27835,"urn:WaterMeter:MC0203J22010600005","2024-07-28T20:30:00",28.1,24.301676,0.213],
    [27836,"urn:WaterMeter:MC0203J22010600005","2024-07-28T20:45:00",28,24.296673,0.196],
    [27837,"urn:WaterMeter:MC0203J22010600005","2024-07-28T21:00:00",28,24.255943,0.214],
    [27838,"urn:WaterMeter:MC0203J22010600005","2024-07-28T21:15:00",27.899,24.25982,0.198],
    [27839,"urn:WaterMeter:MC0203J22010600005","2024-07-28T21:30:00",27.799,24.257881,0.215],
    [27840,"urn:WaterMeter:MC0203J22010600005","2024-07-28T21:45:00",27.799,24.234608,0.202],
    [27841,"urn:WaterMeter:MC0203J22010600005","2024-07-28T22:00:00",27.799,24.187672,0.21],
    [27842,"urn:WaterMeter:MC0203J22010600005","2024-07-28T22:15:00",27.7,24.215601,0.211],
    [27843,"urn:WaterMeter:MC0203J22010600005","2024-07-28T22:30:00",27.6,24.167501,0.21],
    [27844,"urn:WaterMeter:MC0203J22010600005","2024-07-28T22:45:00",27.6,24.182241,0.21],
    [27845,"urn:WaterMeter:MC0203J22010600005","2024-07-28T23:00:00",27.6,24.166725,0.209],
    [27846,"urn:WaterMeter:MC0203J22010600005","2024-07-28T23:15:00",27.5,24.158579,0.199],
    [27847,"urn:WaterMeter:MC0203J22010600005","2024-07-28T23:30:00",27.399,24.127548,0.21],
    [27848,"urn:WaterMeter:MC0203J22010600005","2024-07-28T23:45:00",27.399,24.113583,0.211],
    [27849,"urn:WaterMeter:MC0203J22010600005","2024-07-29T00:00:00",27.299,24.15311,0.201],
    [27850,"urn:WaterMeter:MC0203J22010600005","2024-07-29T00:15:00",27.299,24.148882,0.217],
    [27851,"urn:WaterMeter:MC0203J22010600005","2024-07-29T00:30:00",27.2,24.146942,0.213],
    [27852,"urn:WaterMeter:MC0203J22010600005","2024-07-29T00:45:00",27.1,24.110868,0.212],
    [27853,"urn:WaterMeter:MC0203J22010600005","2024-07-29T01:00:00",27.1,24.124056,0.199],
    [27854,"urn:WaterMeter:MC0203J22010600005","2024-07-29T01:15:00",27,24.098843,0.197],
    [27855,"urn:WaterMeter:MC0203J22010600005","2024-07-29T01:30:00",27,24.063932,0.211],
    [27856,"urn:WaterMeter:MC0203J22010600005","2024-07-29T01:45:00",26.899,24.092249,0.191],
    [27857,"urn:WaterMeter:MC0203J22010600005","2024-07-29T02:00:00",26.899,24.057299,0.2],
    [27858,"urn:WaterMeter:MC0203J22010600005","2024-07-29T02:15:00",26.799,24.085655,0.194],
    [27859,"urn:WaterMeter:MC0203J22010600005","2024-07-29T02:30:00",26.7,24.06083,0.204],
    [27860,"urn:WaterMeter:MC0203J22010600005","2024-07-29T02:45:00",26.7,24.070139,0.209],
    [27861,"urn:WaterMeter:MC0203J22010600005","2024-07-29T03:00:00",26.7,24.035227,0.197],
    [27862,"urn:WaterMeter:MC0203J22010600005","2024-07-29T03:15:00",26.6,24.013117,0.213],
    [27863,"urn:WaterMeter:MC0203J22010600005","2024-07-29T03:30:00",26.6,24.013893,0.2],
    [27864,"urn:WaterMeter:MC0203J22010600005","2024-07-29T03:45:00",26.6,24.019672,0.197],
    [27865,"urn:WaterMeter:MC0203J22010600005","2024-07-29T04:00:00",26.6,24.03484,0.201],
    [27866,"urn:WaterMeter:MC0203J22010600005","2024-07-29T04:15:00",26.5,24.030573,0.203],
    [27867,"urn:WaterMeter:MC0203J22010600005","2024-07-29T04:30:00",26.5,24.028595,0.196],
    [27868,"urn:WaterMeter:MC0203J22010600005","2024-07-29T04:45:00",26.5,23.985964,0.192],
    [27869,"urn:WaterMeter:MC0203J22010600005","2024-07-29T05:00:00",26.399,23.986351,0.207],
    [27870,"urn:WaterMeter:MC0203J22010600005","2024-07-29T05:15:00",26.299,23.983248,0.192],
    [27871,"urn:WaterMeter:MC0203J22010600005","2024-07-29T05:30:00",26.299,23.993723,0.193],
    [27872,"urn:WaterMeter:MC0203J22010600005","2024-07-29T05:45:00",26.299,23.968508,0.212],
    [27873,"urn:WaterMeter:MC0203J22010600005","2024-07-29T06:00:00",26.299,23.955708,0.193],
    [27874,"urn:WaterMeter:MC0203J22010600005","2024-07-29T06:15:00",26.299,23.93127,0.193],
    [27875,"urn:WaterMeter:MC0203J22010600005","2024-07-29T06:30:00",26.299,23.900974,0.199],
    [27876,"urn:WaterMeter:MC0203J22010600005","2024-07-29T06:45:00",26.299,23.906445,0.193],
    [27877,"urn:WaterMeter:MC0203J22010600005","2024-07-29T07:00:00",26.299,23.886662,0.195],
    [27878,"urn:WaterMeter:MC0203J22010600005","2024-07-29T07:15:00",26.399,23.819942,0.195],
    [27879,"urn:WaterMeter:MC0203J22010600005","2024-07-29T07:30:00",26.399,23.823008,0.198],
    [27880,"urn:WaterMeter:MC0203J22010600005","2024-07-29T07:45:00",26.5,23.815638,0.198],
    [27881,"urn:WaterMeter:MC0203J22010600005","2024-07-29T08:00:00",26.5,23.808306,0.194],
    [27882,"urn:WaterMeter:MC0203J22010600005","2024-07-29T08:15:00",26.6,23.733053,0.191],
    [27883,"urn:WaterMeter:MC0203J22010600005","2024-07-29T08:30:00",26.799,23.877739,0.208],
    [27884,"urn:WaterMeter:MC0203J22010600005","2024-07-29T08:45:00",26.899,24.873829,0.239],
    [27885,"urn:WaterMeter:MC0203J22010600005","2024-07-29T09:00:00",27,26.490635,0.264],
    [27886,"urn:WaterMeter:MC0203J22010600005","2024-07-29T09:15:00",27.1,28.110079,0.295],
    [27887,"urn:WaterMeter:MC0203J22010600005","2024-07-29T09:30:00",27.2,29.265244,0.316],
    [27888,"urn:WaterMeter:MC0203J22010600005","2024-07-29T09:45:00",27.299,30.123705,0.31],
    [27889,"urn:WaterMeter:MC0203J22010600005","2024-07-29T10:00:00",27.399,30.733097,0.308],
    [27890,"urn:WaterMeter:MC0203J22010600005","2024-07-29T10:15:00",27.6,30.728403,0.299],
    [27891,"urn:WaterMeter:MC0203J22010600005","2024-07-29T10:30:00",27.899,30.625648,0.3],
    [27892,"urn:WaterMeter:MC0203J22010600005","2024-07-29T10:45:00",28,30.594965,0.314],
    [27893,"urn:WaterMeter:MC0203J22010600005","2024-07-29T11:00:00",28.299,30.556175,0.305],
    [27894,"urn:WaterMeter:MC0203J22010600005","2024-07-29T11:15:00",28.399,30.496439,0.299],
    [27895,"urn:WaterMeter:MC0203J22010600005","2024-07-29T11:30:00",28.6,30.456097,0.295],
    [27896,"urn:WaterMeter:MC0203J22010600005","2024-07-29T11:45:00",28.799,30.415018,0.311],
    [27897,"urn:WaterMeter:MC0203J22010600005","2024-07-29T12:00:00",28.899,30.341278,0.294],
    [27898,"urn:WaterMeter:MC0203J22010600005","2024-07-29T12:15:00",28.899,30.302488,0.297],
    [27899,"urn:WaterMeter:MC0203J22010600005","2024-07-29T12:30:00",28.899,30.268393,0.294],
    [27900,"urn:WaterMeter:MC0203J22010600005","2024-07-29T12:45:00",29,30.223007,0.298],
    [27901,"urn:WaterMeter:MC0203J22010600005","2024-07-29T13:00:00",29.1,30.144264,0.296],
    [27902,"urn:WaterMeter:MC0203J22010600005","2024-07-29T13:15:00",29.2,30.114784,0.278],
    [27903,"urn:WaterMeter:MC0203J22010600005","2024-07-29T13:30:00",29.299,30.057375,0.288],
    [27904,"urn:WaterMeter:MC0203J22010600005","2024-07-29T13:45:00",29.299,29.975529,0.326],
    [27905,"urn:WaterMeter:MC0203J22010600005","2024-07-29T14:00:00",29.399,29.950703,0.288],
    [27906,"urn:WaterMeter:MC0203J22010600005","2024-07-29T14:15:00",29.5,29.90842,0.283],
    [27907,"urn:WaterMeter:MC0203J22010600005","2024-07-29T14:30:00",29.5,29.842867,0.284],
    [27908,"urn:WaterMeter:MC0203J22010600005","2024-07-29T14:45:00",29.5,29.785845,0.291],
    [27909,"urn:WaterMeter:MC0203J22010600005","2024-07-29T15:00:00",29.6,29.735418,0.289],
    [27910,"urn:WaterMeter:MC0203J22010600005","2024-07-29T15:15:00",29.6,29.687706,0.271],
    [27911,"urn:WaterMeter:MC0203J22010600005","2024-07-29T15:30:00",29.6,29.623663,0.279],
    [27912,"urn:WaterMeter:MC0203J22010600005","2024-07-29T15:45:00",29.6,29.582197,0.289],
    [27913,"urn:WaterMeter:MC0203J22010600005","2024-07-29T16:00:00",29.5,29.55194,0.278],
    [27914,"urn:WaterMeter:MC0203J22010600005","2024-07-29T16:15:00",29.5,29.504618,0.275],
    [27915,"urn:WaterMeter:MC0203J22010600005","2024-07-29T16:30:00",29.399,29.442553,0.3],
    [27916,"urn:WaterMeter:MC0203J22010600005","2024-07-29T16:45:00",29.399,29.399496,0.286],
    [27917,"urn:WaterMeter:MC0203J22010600005","2024-07-29T17:00:00",29.299,29.363382,0.278],
    [27918,"urn:WaterMeter:MC0203J22010600005","2024-07-29T17:15:00",29.2,29.340923,0.286],
    [27919,"urn:WaterMeter:MC0203J22010600005","2024-07-29T17:30:00",29.2,29.287004,0.278],
    [27920,"urn:WaterMeter:MC0203J22010600005","2024-07-29T17:45:00",29.2,29.288557,0.289],
    [27921,"urn:WaterMeter:MC0203J22010600005","2024-07-29T18:00:00",29.1,29.240845,0.27],
    [27922,"urn:WaterMeter:MC0203J22010600005","2024-07-29T18:15:00",29.1,29.190031,0.277],
    [27923,"urn:WaterMeter:MC0203J22010600005","2024-07-29T18:30:00",29,29.196198,0.312],
    [27924,"urn:WaterMeter:MC0203J22010600005","2024-07-29T18:45:00",28.899,29.170248,0.277],
    [27925,"urn:WaterMeter:MC0203J22010600005","2024-07-29T19:00:00",28.799,29.130644,0.284],
    [27926,"urn:WaterMeter:MC0203J22010600005","2024-07-29T19:15:00",28.799,29.137238,0.266],
    [27927,"urn:WaterMeter:MC0203J22010600005","2024-07-29T19:30:00",28.7,29.151241,0.283],
    [27928,"urn:WaterMeter:MC0203J22010600005","2024-07-29T19:45:00",28.6,29.150038,0.295],
    [27929,"urn:WaterMeter:MC0203J22010600005","2024-07-29T20:00:00",28.5,29.134562,0.283],
    [27930,"urn:WaterMeter:MC0203J22010600005","2024-07-29T20:15:00",28.399,29.137238,0.29],
    [27931,"urn:WaterMeter:MC0203J22010600005","2024-07-29T20:30:00",28.299,29.155119,0.289],
    [27932,"urn:WaterMeter:MC0203J22010600005","2024-07-29T20:45:00",28.1,29.158571,0.269],
    [27933,"urn:WaterMeter:MC0203J22010600005","2024-07-29T21:00:00",28.1,29.142706,0.278],
    [27934,"urn:WaterMeter:MC0203J22010600005","2024-07-29T21:15:00",28,29.110085,0.274],
    [27935,"urn:WaterMeter:MC0203J22010600005","2024-07-29T21:30:00",27.899,29.122923,0.278],
    [27936,"urn:WaterMeter:MC0203J22010600005","2024-07-29T21:45:00",27.799,29.109735,0.268],
    [27937,"urn:WaterMeter:MC0203J22010600005","2024-07-29T22:00:00",27.7,29.08685,0.286],
    [27938,"urn:WaterMeter:MC0203J22010600005","2024-07-29T22:15:00",27.6,29.120169,0.261],
    [27939,"urn:WaterMeter:MC0203J22010600005","2024-07-29T22:30:00",27.6,29.09577,0.274],
    [27940,"urn:WaterMeter:MC0203J22010600005","2024-07-29T22:45:00",27.5,29.06823,0.263],
    [27941,"urn:WaterMeter:MC0203J22010600005","2024-07-29T23:00:00",27.399,29.054266,0.275],
    [27942,"urn:WaterMeter:MC0203J22010600005","2024-07-29T23:15:00",27.299,29.09034,0.272],
    [27943,"urn:WaterMeter:MC0203J22010600005","2024-07-29T23:30:00",27.299,29.058144,0.261],
    [27944,"urn:WaterMeter:MC0203J22010600005","2024-07-29T23:45:00",27.2,29.056206,0.27],
    [27945,"urn:WaterMeter:MC0203J22010600005","2024-07-30T00:00:00",27.1,29.05504,0.262],
    [27946,"urn:WaterMeter:MC0203J22010600005","2024-07-30T00:15:00",27,29.079052,0.27],
    [27947,"urn:WaterMeter:MC0203J22010600005","2024-07-30T00:30:00",27,29.03681,0.274],
    [27948,"urn:WaterMeter:MC0203J22010600005","2024-07-30T00:45:00",26.899,29.03099,0.286],
    [27949,"urn:WaterMeter:MC0203J22010600005","2024-07-30T01:00:00",26.799,29.00733,0.261],
    [27950,"urn:WaterMeter:MC0203J22010600005","2024-07-30T01:15:00",26.799,29.01082,0.26],
    [27951,"urn:WaterMeter:MC0203J22010600005","2024-07-30T01:30:00",26.7,29.017027,0.273],
    [27952,"urn:WaterMeter:MC0203J22010600005","2024-07-30T01:45:00",26.7,28.979013,0.294],
    [27953,"urn:WaterMeter:MC0203J22010600005","2024-07-30T02:00:00",26.6,28.999184,0.29],
    [27954,"urn:WaterMeter:MC0203J22010600005","2024-07-30T02:15:00",26.6,28.995266,0.274],
    [27955,"urn:WaterMeter:MC0203J22010600005","2024-07-30T02:30:00",26.5,28.95729,0.268],
    [27956,"urn:WaterMeter:MC0203J22010600005","2024-07-30T02:45:00",26.399,28.947205,0.297],
    [27957,"urn:WaterMeter:MC0203J22010600005","2024-07-30T03:00:00",26.399,28.928974,0.27],
    [27958,"urn:WaterMeter:MC0203J22010600005","2024-07-30T03:15:00",26.299,28.94798,0.272],
    [27959,"urn:WaterMeter:MC0203J22010600005","2024-07-30T03:30:00",26.2,28.9557,0.271],
    [27960,"urn:WaterMeter:MC0203J22010600005","2024-07-30T03:45:00",26.2,28.923893,0.257],
    [27961,"urn:WaterMeter:MC0203J22010600005","2024-07-30T04:00:00",26.1,28.934017,0.258],
    [27962,"urn:WaterMeter:MC0203J22010600005","2024-07-30T04:15:00",26.1,28.937895,0.263],
    [27963,"urn:WaterMeter:MC0203J22010600005","2024-07-30T04:30:00",26,28.90376,0.271],
    [27964,"urn:WaterMeter:MC0203J22010600005","2024-07-30T04:45:00",26,28.888205,0.258],
    [27965,"urn:WaterMeter:MC0203J22010600005","2024-07-30T05:00:00",25.899,28.904884,0.261],
    [27966,"urn:WaterMeter:MC0203J22010600005","2024-07-30T05:15:00",25.899,28.849415,0.256],
    [27967,"urn:WaterMeter:MC0203J22010600005","2024-07-30T05:30:00",25.899,28.873116,0.264],
    [27968,"urn:WaterMeter:MC0203J22010600005","2024-07-30T05:45:00",25.899,28.867647,0.283],
    [27969,"urn:WaterMeter:MC0203J22010600005","2024-07-30T06:00:00",25.899,28.825405,0.254],
    [27970,"urn:WaterMeter:MC0203J22010600005","2024-07-30T06:15:00",25.899,28.824629,0.272],
    [27971,"urn:WaterMeter:MC0203J22010600005","2024-07-30T06:30:00",25.899,28.806396,0.27],
    [27972,"urn:WaterMeter:MC0203J22010600005","2024-07-30T06:45:00",25.899,28.800152,0.259],
    [27973,"urn:WaterMeter:MC0203J22010600005","2024-07-30T07:00:00",25.899,28.645767,0.263],
    [27974,"urn:WaterMeter:MC0203J22010600005","2024-07-30T07:15:00",26,28.641928,0.3],
    [27975,"urn:WaterMeter:MC0203J22010600005","2024-07-30T07:30:00",26.1,28.640377,0.27],
    [27976,"urn:WaterMeter:MC0203J22010600005","2024-07-30T07:45:00",26.2,28.920828,0.263],
    [27977,"urn:WaterMeter:MC0203J22010600005","2024-07-30T08:00:00",26.2,29.585262,0.283],
    [27978,"urn:WaterMeter:MC0203J22010600005","2024-07-30T08:15:00",26.299,30.338602,0.296],
    [27979,"urn:WaterMeter:MC0203J22010600005","2024-07-30T08:30:00",26.399,30.873129,0.298],
    [27980,"urn:WaterMeter:MC0203J22010600005","2024-07-30T08:45:00",26.6,31.147335,0.305],
    [27981,"urn:WaterMeter:MC0203J22010600005","2024-07-30T09:00:00",26.6,31.42356,0.324],
    [27982,"urn:WaterMeter:MC0203J22010600005","2024-07-30T09:15:00",26.7,31.570572,0.323],
    [27983,"urn:WaterMeter:MC0203J22010600005","2024-07-30T09:30:00",26.7,31.735819,0.304],
    [27984,"urn:WaterMeter:MC0203J22010600005","2024-07-30T09:45:00",26.799,31.840939,0.341],
    [27985,"urn:WaterMeter:MC0203J22010600005","2024-07-30T10:00:00",27,31.90374,0.335],
    [27986,"urn:WaterMeter:MC0203J22010600005","2024-07-30T10:15:00",27.2,31.632597,0.314],
    [27987,"urn:WaterMeter:MC0203J22010600005","2024-07-30T10:30:00",27.299,31.380463,0.323],
    [27988,"urn:WaterMeter:MC0203J22010600005","2024-07-30T10:45:00",27.6,31.254007,0.305],
    [27989,"urn:WaterMeter:MC0203J22010600005","2024-07-30T11:00:00",27.799,31.159399,0.298],
    [27990,"urn:WaterMeter:MC0203J22010600005","2024-07-30T11:15:00",28,31.1016,0.301],
    [27991,"urn:WaterMeter:MC0203J22010600005","2024-07-30T11:30:00",28.1,31.031353,0.294],
    [27992,"urn:WaterMeter:MC0203J22010600005","2024-07-30T11:45:00",28.2,30.943687,0.301],
    [27993,"urn:WaterMeter:MC0203J22010600005","2024-07-30T12:00:00",28.299,30.853346,0.3],
    [27994,"urn:WaterMeter:MC0203J22010600005","2024-07-30T12:15:00",28.399,30.80831,0.3],
    [27995,"urn:WaterMeter:MC0203J22010600005","2024-07-30T12:30:00",28.5,30.710173,0.299],
    [27996,"urn:WaterMeter:MC0203J22010600005","2024-07-30T12:45:00",28.6,30.631428,0.296],
    [27997,"urn:WaterMeter:MC0203J22010600005","2024-07-30T13:00:00",28.7,30.54768,0.295],
    [27998,"urn:WaterMeter:MC0203J22010600005","2024-07-30T13:15:00",28.799,30.495663,0.308],
    [27999,"urn:WaterMeter:MC0203J22010600005","2024-07-30T13:30:00",28.899,30.449116,0.312],
    [28000,"urn:WaterMeter:MC0203J22010600005","2024-07-30T13:45:00",29,30.358772,0.284],
    [28001,"urn:WaterMeter:MC0203J22010600005","2024-07-30T14:00:00",29,30.280806,0.291],
    [28002,"urn:WaterMeter:MC0203J22010600005","2024-07-30T14:15:00",29.1,30.248997,0.292],
    [28003,"urn:WaterMeter:MC0203J22010600005","2024-07-30T14:30:00",29.1,30.20982,0.294],
    [28004,"urn:WaterMeter:MC0203J22010600005","2024-07-30T14:45:00",29.1,30.150084,0.289],
    [28005,"urn:WaterMeter:MC0203J22010600005","2024-07-30T15:00:00",29.1,30.091898,0.297],
    [28006,"urn:WaterMeter:MC0203J22010600005","2024-07-30T15:15:00",29.1,30.021648,0.296],
    [28007,"urn:WaterMeter:MC0203J22010600005","2024-07-30T15:30:00",29.1,29.978632,0.287],
    [28008,"urn:WaterMeter:MC0203J22010600005","2024-07-30T15:45:00",29.1,29.91773,0.291],
    [28009,"urn:WaterMeter:MC0203J22010600005","2024-07-30T16:00:00",29,29.849848,0.299],
    [28010,"urn:WaterMeter:MC0203J22010600005","2024-07-30T16:15:00",29,29.800585,0.276],
    [28011,"urn:WaterMeter:MC0203J22010600005","2024-07-30T16:30:00",28.899,29.769901,0.286],
    [28012,"urn:WaterMeter:MC0203J22010600005","2024-07-30T16:45:00",28.899,29.704386,0.28],
    [28013,"urn:WaterMeter:MC0203J22010600005","2024-07-30T17:00:00",28.899,29.669863,0.301],
    [28014,"urn:WaterMeter:MC0203J22010600005","2024-07-30T17:15:00",28.799,29.667923,0.28],
    [28015,"urn:WaterMeter:MC0203J22010600005","2024-07-30T17:30:00",28.799,29.590343,0.272],
    [28016,"urn:WaterMeter:MC0203J22010600005","2024-07-30T17:45:00",28.7,29.568233,0.275],
    [28017,"urn:WaterMeter:MC0203J22010600005","2024-07-30T18:00:00",28.6,29.562801,0.3],
    [28018,"urn:WaterMeter:MC0203J22010600005","2024-07-30T18:15:00",28.6,29.553493,0.314],
    [28019,"urn:WaterMeter:MC0203J22010600005","2024-07-30T18:30:00",28.5,29.498373,0.289],
    [28020,"urn:WaterMeter:MC0203J22010600005","2024-07-30T18:45:00",28.399,29.488674,0.28],
    [28021,"urn:WaterMeter:MC0203J22010600005","2024-07-30T19:00:00",28.299,29.436735,0.265],
    [28022,"urn:WaterMeter:MC0203J22010600005","2024-07-30T19:15:00",28.299,29.447945,0.279],
    [28023,"urn:WaterMeter:MC0203J22010600005","2024-07-30T19:30:00",28.1,29.449108,0.274],
    [28024,"urn:WaterMeter:MC0203J22010600005","2024-07-30T19:45:00",28,29.407255,0.28],
    [28025,"urn:WaterMeter:MC0203J22010600005","2024-07-30T20:00:00",27.899,29.403376,0.265],
    [28026,"urn:WaterMeter:MC0203J22010600005","2024-07-30T20:15:00",27.799,29.369978,0.286],
    [28027,"urn:WaterMeter:MC0203J22010600005","2024-07-30T20:30:00",27.7,29.382002,0.275],
    [28028,"urn:WaterMeter:MC0203J22010600005","2024-07-30T20:45:00",27.6,29.377386,0.277],
    [28029,"urn:WaterMeter:MC0203J22010600005","2024-07-30T21:00:00",27.5,29.409155,0.267],
    [28030,"urn:WaterMeter:MC0203J22010600005","2024-07-30T21:15:00",27.399,29.381266,0.274],
    [28031,"urn:WaterMeter:MC0203J22010600005","2024-07-30T21:30:00",27.299,29.364586,0.274],
    [28032,"urn:WaterMeter:MC0203J22010600005","2024-07-30T21:45:00",27.2,29.350582,0.278],
    [28033,"urn:WaterMeter:MC0203J22010600005","2024-07-30T22:00:00",27.1,29.352522,0.275],
    [28034,"urn:WaterMeter:MC0203J22010600005","2024-07-30T22:15:00",27.1,29.34558,0.273],
    [28035,"urn:WaterMeter:MC0203J22010600005","2024-07-30T22:30:00",27,29.324593,0.271],
    [28036,"urn:WaterMeter:MC0203J22010600005","2024-07-30T22:45:00",26.899,29.29748,0.273],
    [28037,"urn:WaterMeter:MC0203J22010600005","2024-07-30T23:00:00",26.799,29.338596,0.28],
    [28038,"urn:WaterMeter:MC0203J22010600005","2024-07-30T23:15:00",26.7,29.33782,0.276],
    [28039,"urn:WaterMeter:MC0203J22010600005","2024-07-30T23:30:00",26.6,29.3064,0.289],
    [28040,"urn:WaterMeter:MC0203J22010600005","2024-07-30T23:45:00",26.5,29.30097,0.265],
    [28041,"urn:WaterMeter:MC0203J22010600005","2024-07-31T00:00:00",26.399,29.283514,0.262],
    [28042,"urn:WaterMeter:MC0203J22010600005","2024-07-31T00:15:00",26.299,29.265633,0.26],
    [28043,"urn:WaterMeter:MC0203J22010600005","2024-07-31T00:30:00",26.299,29.281187,0.275],
    [28044,"urn:WaterMeter:MC0203J22010600005","2024-07-31T00:45:00",26.2,29.296314,0.272],
    [28045,"urn:WaterMeter:MC0203J22010600005","2024-07-31T01:00:00",26.1,29.28235,0.281],
    [28046,"urn:WaterMeter:MC0203J22010600005","2024-07-31T01:15:00",26.1,29.256323,0.27],
    [28047,"urn:WaterMeter:MC0203J22010600005","2024-07-31T01:30:00",26,29.233088,0.269],
    [28048,"urn:WaterMeter:MC0203J22010600005","2024-07-31T01:45:00",25.899,29.231148,0.266],
    [28049,"urn:WaterMeter:MC0203J22010600005","2024-07-31T02:00:00",25.799,29.255547,0.279],
    [28050,"urn:WaterMeter:MC0203J22010600005","2024-07-31T02:15:00",25.7,29.250544,0.271],
    [28051,"urn:WaterMeter:MC0203J22010600005","2024-07-31T02:30:00",25.7,29.225328,0.265],
    [28052,"urn:WaterMeter:MC0203J22010600005","2024-07-31T02:45:00",25.6,29.221062,0.263],
    [28053,"urn:WaterMeter:MC0203J22010600005","2024-07-31T03:00:00",25.5,29.209814,0.263],
    [28054,"urn:WaterMeter:MC0203J22010600005","2024-07-31T03:15:00",25.399,29.189217,0.278],
    [28055,"urn:WaterMeter:MC0203J22010600005","2024-07-31T03:30:00",25.299,29.218307,0.284],
    [28056,"urn:WaterMeter:MC0203J22010600005","2024-07-31T03:45:00",25.2,29.178354,0.265],
    [28057,"urn:WaterMeter:MC0203J22010600005","2024-07-31T04:00:00",25.1,29.19197,0.268],
    [28058,"urn:WaterMeter:MC0203J22010600005","2024-07-31T04:15:00",25.1,29.183825,0.272],
    [28059,"urn:WaterMeter:MC0203J22010600005","2024-07-31T04:30:00",25,29.198914,0.268],
    [28060,"urn:WaterMeter:MC0203J22010600005","2024-07-31T04:45:00",25,29.159735,0.278],
    [28061,"urn:WaterMeter:MC0203J22010600005","2024-07-31T05:00:00",24.899,29.133396,0.262],
    [28062,"urn:WaterMeter:MC0203J22010600005","2024-07-31T05:15:00",24.799,29.157408,0.262],
    [28063,"urn:WaterMeter:MC0203J22010600005","2024-07-31T05:30:00",24.799,29.136112,0.268],
    [28064,"urn:WaterMeter:MC0203J22010600005","2024-07-31T05:45:00",24.799,29.141155,0.275],
    [28065,"urn:WaterMeter:MC0203J22010600005","2024-07-31T06:00:00",24.799,29.14034,0.28],
    [28066,"urn:WaterMeter:MC0203J22010600005","2024-07-31T06:15:00",24.799,29.084522,0.276],
    [28067,"urn:WaterMeter:MC0203J22010600005","2024-07-31T06:30:00",24.799,29.076763,0.28],
    [28068,"urn:WaterMeter:MC0203J22010600005","2024-07-31T06:45:00",24.799,29.09034,0.263],
    [28069,"urn:WaterMeter:MC0203J22010600005","2024-07-31T07:00:00",24.899,29.05892,0.284],
    [28070,"urn:WaterMeter:MC0203J22010600005","2024-07-31T07:15:00",25.1,29.052675,0.282],
    [28071,"urn:WaterMeter:MC0203J22010600005","2024-07-31T07:30:00",25.2,29.083359,0.259],
    [28072,"urn:WaterMeter:MC0203J22010600005","2024-07-31T07:45:00",25.399,29.421955,0.281],
    [28073,"urn:WaterMeter:MC0203J22010600005","2024-07-31T08:00:00",25.6,30.127157,0.292],
    [28074,"urn:WaterMeter:MC0203J22010600005","2024-07-31T08:15:00",25.7,30.798613,0.302],
    [28075,"urn:WaterMeter:MC0203J22010600005","2024-07-31T08:30:00",25.899,31.190432,0.307],
    [28076,"urn:WaterMeter:MC0203J22010600005","2024-07-31T08:45:00",26.1,31.496058,0.309],
    [28077,"urn:WaterMeter:MC0203J22010600005","2024-07-31T09:00:00",26.2,31.589968,0.307],
    [28078,"urn:WaterMeter:MC0203J22010600005","2024-07-31T09:15:00",26.399,31.752886,0.309],
    [28079,"urn:WaterMeter:MC0203J22010600005","2024-07-31T09:30:00",26.6,31.841328,0.321],
    [28080,"urn:WaterMeter:MC0203J22010600005","2024-07-31T09:45:00",26.799,31.980196,0.318],
    [28081,"urn:WaterMeter:MC0203J22010600005","2024-07-31T10:00:00",26.899,32.044586,0.32],
    [28082,"urn:WaterMeter:MC0203J22010600005","2024-07-31T10:15:00",27.1,31.78353,0.309],
    [28083,"urn:WaterMeter:MC0203J22010600005","2024-07-31T10:30:00",27.299,31.512,0.303],
    [28084,"urn:WaterMeter:MC0203J22010600005","2024-07-31T10:45:00",27.5,31.403,0.304],
    [28085,"urn:WaterMeter:MC0203J22010600005","2024-07-31T11:00:00",27.799,31.29594,0.305],
    [28086,"urn:WaterMeter:MC0203J22010600005","2024-07-31T11:15:00",28,31.210213,0.301],
    [28087,"urn:WaterMeter:MC0203J22010600005","2024-07-31T11:30:00",28.2,31.126816,0.317],
    [28088,"urn:WaterMeter:MC0203J22010600005","2024-07-31T11:45:00",28.399,31.082207,0.311],
    [28089,"urn:WaterMeter:MC0203J22010600005","2024-07-31T12:00:00",28.5,31.013548,0.299],
    [28090,"urn:WaterMeter:MC0203J22010600005","2024-07-31T12:15:00",28.6,30.94136,0.298],
    [28091,"urn:WaterMeter:MC0203J22010600005","2024-07-31T12:30:00",28.7,30.871576,0.299],
    [28092,"urn:WaterMeter:MC0203J22010600005","2024-07-31T12:45:00",28.799,30.741243,0.297],
    [28093,"urn:WaterMeter:MC0203J22010600005","2024-07-31T13:00:00",28.899,30.704391,0.319],
    [28094,"urn:WaterMeter:MC0203J22010600005","2024-07-31T13:15:00",28.899,30.618279,0.3],
    [28095,"urn:WaterMeter:MC0203J22010600005","2024-07-31T13:30:00",29,30.544966,0.308],
    [28096,"urn:WaterMeter:MC0203J22010600005","2024-07-31T13:45:00",29.2,30.500744,0.308],
    [28097,"urn:WaterMeter:MC0203J22010600005","2024-07-31T14:00:00",29.2,30.430496,0.292],
    [28098,"urn:WaterMeter:MC0203J22010600005","2024-07-31T14:15:00",29.299,30.356834,0.284],
    [28099,"urn:WaterMeter:MC0203J22010600005","2024-07-31T14:30:00",29.399,30.311838,0.302],
    [28100,"urn:WaterMeter:MC0203J22010600005","2024-07-31T14:45:00",29.5,30.27266,0.309],
    [28101,"urn:WaterMeter:MC0203J22010600005","2024-07-31T15:00:00",29.5,30.190424,0.287],
    [28102,"urn:WaterMeter:MC0203J22010600005","2024-07-31T15:15:00",29.6,30.164047,0.279],
    [28103,"urn:WaterMeter:MC0203J22010600005","2024-07-31T15:30:00",29.7,30.095778,0.314],
    [28104,"urn:WaterMeter:MC0203J22010600005","2024-07-31T15:45:00",29.7,30.043411,0.287],
    [28105,"urn:WaterMeter:MC0203J22010600005","2024-07-31T16:00:00",29.7,29.968159,0.312],
    [28106,"urn:WaterMeter:MC0203J22010600005","2024-07-31T16:15:00",29.7,29.933208,0.282],
    [28107,"urn:WaterMeter:MC0203J22010600005","2024-07-31T16:30:00",29.7,29.869244,0.28],
    [28108,"urn:WaterMeter:MC0203J22010600005","2024-07-31T16:45:00",29.7,29.835846,0.275],
    [28109,"urn:WaterMeter:MC0203J22010600005","2024-07-31T17:00:00",29.7,29.812998,0.292],
    [28110,"urn:WaterMeter:MC0203J22010600005","2024-07-31T17:15:00",29.7,29.764511,0.299],
    [28111,"urn:WaterMeter:MC0203J22010600005","2024-07-31T17:30:00",29.7,29.712881,0.288],
    [28112,"urn:WaterMeter:MC0203J22010600005","2024-07-31T17:45:00",29.7,29.676846,0.273],
    [28113,"urn:WaterMeter:MC0203J22010600005","2024-07-31T18:00:00",29.6,29.665209,0.272],
    [28114,"urn:WaterMeter:MC0203J22010600005","2024-07-31T18:15:00",29.6,29.628746,0.271],
    [28115,"urn:WaterMeter:MC0203J22010600005","2024-07-31T18:30:00",29.5,29.59073,0.279],
    [28116,"urn:WaterMeter:MC0203J22010600005","2024-07-31T18:45:00",29.399,29.552717,0.273],
    [28117,"urn:WaterMeter:MC0203J22010600005","2024-07-31T19:00:00",29.299,29.513151,0.28],
    [28118,"urn:WaterMeter:MC0203J22010600005","2024-07-31T19:15:00",29.2,29.521297,0.275],
    [28119,"urn:WaterMeter:MC0203J22010600005","2024-07-31T19:30:00",29.1,29.501125,0.277],
    [28120,"urn:WaterMeter:MC0203J22010600005","2024-07-31T19:45:00",29,29.474361,0.293],
    [28121,"urn:WaterMeter:MC0203J22010600005","2024-07-31T20:00:00",28.899,29.476301,0.276],
    [28122,"urn:WaterMeter:MC0203J22010600005","2024-07-31T20:15:00",28.799,29.478241,0.286],
    [28123,"urn:WaterMeter:MC0203J22010600005","2024-07-31T20:30:00",28.799,29.463888,0.27],
    [28124,"urn:WaterMeter:MC0203J22010600005","2024-07-31T20:45:00",28.7,29.440964,0.279],
    [28125,"urn:WaterMeter:MC0203J22010600005","2024-07-31T21:00:00",28.6,29.446045,0.268],
    [28126,"urn:WaterMeter:MC0203J22010600005","2024-07-31T21:15:00",28.6,29.405315,0.284],
    [28127,"urn:WaterMeter:MC0203J22010600005","2024-07-31T21:30:00",28.5,29.40609,0.275],
    [28128,"urn:WaterMeter:MC0203J22010600005","2024-07-31T21:45:00",28.399,29.386696,0.275],
    [28129,"urn:WaterMeter:MC0203J22010600005","2024-07-31T22:00:00",28.299,29.39872,0.276],
    [28130,"urn:WaterMeter:MC0203J22010600005","2024-07-31T22:15:00",28.2,29.407642,0.271],
    [28131,"urn:WaterMeter:MC0203J22010600005","2024-07-31T22:30:00",28.1,29.397556,0.292],
    [28132,"urn:WaterMeter:MC0203J22010600005","2024-07-31T22:45:00",28,29.37467,0.288],
    [28133,"urn:WaterMeter:MC0203J22010600005","2024-07-31T23:00:00",27.899,29.359156,0.276],
    [28134,"urn:WaterMeter:MC0203J22010600005","2024-07-31T23:15:00",27.799,29.400272,0.279],
    [28135,"urn:WaterMeter:MC0203J22010600005","2024-07-31T23:30:00",27.7,29.375835,0.278],
    [28136,"urn:WaterMeter:MC0203J22010600005","2024-07-31T23:45:00",27.6,29.366137,0.268],
    [28137,"urn:WaterMeter:MC0203J22010600005","2024-08-01T00:00:00",27.6,29.344803,0.31],
    [28138,"urn:WaterMeter:MC0203J22010600005","2024-08-01T00:15:00",27.5,29.375835,0.272],
    [28139,"urn:WaterMeter:MC0203J22010600005","2024-08-01T00:30:00",27.399,29.357603,0.28],
    [28140,"urn:WaterMeter:MC0203J22010600005","2024-08-01T00:45:00",27.299,29.30291,0.275],
    [28141,"urn:WaterMeter:MC0203J22010600005","2024-08-01T01:00:00",27.2,29.352135,0.272],
    [28142,"urn:WaterMeter:MC0203J22010600005","2024-08-01T01:15:00",27.1,29.324593,0.273],
    [28143,"urn:WaterMeter:MC0203J22010600005","2024-08-01T01:30:00",27,29.31765,0.269],
    [28144,"urn:WaterMeter:MC0203J22010600005","2024-08-01T01:45:00",26.899,29.307564,0.283],
    [28145,"urn:WaterMeter:MC0203J22010600005","2024-08-01T02:00:00",26.799,29.340536,0.269],
    [28146,"urn:WaterMeter:MC0203J22010600005","2024-08-01T02:15:00",26.7,29.3064,0.271],
    [28147,"urn:WaterMeter:MC0203J22010600005","2024-08-01T02:30:00",26.6,29.299417,0.278],
    [28148,"urn:WaterMeter:MC0203J22010600005","2024-08-01T02:45:00",26.5,29.312956,0.282],
    [28149,"urn:WaterMeter:MC0203J22010600005","2024-08-01T03:00:00",26.399,29.312569,0.29],
    [28150,"urn:WaterMeter:MC0203J22010600005","2024-08-01T03:15:00",26.299,29.281963,0.27],
    [28151,"urn:WaterMeter:MC0203J22010600005","2024-08-01T03:30:00",26.2,29.290884,0.268],
    [28152,"urn:WaterMeter:MC0203J22010600005","2024-08-01T03:45:00",26.1,29.278471,0.275],
    [28153,"urn:WaterMeter:MC0203J22010600005","2024-08-01T04:00:00",26.1,29.305586,0.288],
    [28154,"urn:WaterMeter:MC0203J22010600005","2024-08-01T04:15:00",26,29.316486,0.267],
    [28155,"urn:WaterMeter:MC0203J22010600005","2024-08-01T04:30:00",25.899,29.267223,0.274],
    [28156,"urn:WaterMeter:MC0203J22010600005","2024-08-01T04:45:00",25.799,29.272654,0.282],
    [28157,"urn:WaterMeter:MC0203J22010600005","2024-08-01T05:00:00",25.799,29.288557,0.27],
    [28158,"urn:WaterMeter:MC0203J22010600005","2024-08-01T05:15:00",25.7,29.254383,0.267],
    [28159,"urn:WaterMeter:MC0203J22010600005","2024-08-01T05:30:00",25.6,29.277697,0.279],
    [28160,"urn:WaterMeter:MC0203J22010600005","2024-08-01T05:45:00",25.5,29.285027,0.267],
    [28161,"urn:WaterMeter:MC0203J22010600005","2024-08-01T06:00:00",25.5,29.235764,0.284],
    [28162,"urn:WaterMeter:MC0203J22010600005","2024-08-01T06:15:00",25.399,29.237316,0.29],
    [28163,"urn:WaterMeter:MC0203J22010600005","2024-08-01T06:30:00",25.299,29.231148,0.266],
    [28164,"urn:WaterMeter:MC0203J22010600005","2024-08-01T06:45:00",25.299,29.226105,0.271],
    [28165,"urn:WaterMeter:MC0203J22010600005","2024-08-01T07:00:00",25.299,29.198524,0.284],
    [28166,"urn:WaterMeter:MC0203J22010600005","2024-08-01T07:15:00",25.5,29.172188,0.261],
    [28167,"urn:WaterMeter:MC0203J22010600005","2024-08-01T07:30:00",25.7,29.238518,0.267],
    [28168,"urn:WaterMeter:MC0203J22010600005","2024-08-01T07:45:00",25.899,29.53371,0.272],
    [28169,"urn:WaterMeter:MC0203J22010600005","2024-08-01T08:00:00",26,30.199347,0.294],
    [28170,"urn:WaterMeter:MC0203J22010600005","2024-08-01T08:15:00",26.299,30.911919,0.302],
    [28171,"urn:WaterMeter:MC0203J22010600005","2024-08-01T08:30:00",26.5,31.330036,0.311],
    [28172,"urn:WaterMeter:MC0203J22010600005","2024-08-01T08:45:00",26.7,31.556608,0.317],
    [28173,"urn:WaterMeter:MC0203J22010600005","2024-08-01T09:00:00",26.899,31.660526,0.318],
    [28174,"urn:WaterMeter:MC0203J22010600005","2024-08-01T09:15:00",27.1,31.828138,0.318],
    [28175,"urn:WaterMeter:MC0203J22010600005","2024-08-01T09:30:00",27.299,31.887487,0.324],
    [28176,"urn:WaterMeter:MC0203J22010600005","2024-08-01T09:45:00",27.5,31.668324,0.307],
    [28177,"urn:WaterMeter:MC0203J22010600005","2024-08-01T10:00:00",27.7,31.481356,0.319],
    [28178,"urn:WaterMeter:MC0203J22010600005","2024-08-01T10:15:00",27.899,31.354513,0.319],
    [28179,"urn:WaterMeter:MC0203J22010600005","2024-08-01T10:30:00",28.1,31.319601,0.302],
    [28180,"urn:WaterMeter:MC0203J22010600005","2024-08-01T10:45:00",28.299,31.237755,0.314],
    [28181,"urn:WaterMeter:MC0203J22010600005","2024-08-01T11:00:00",28.6,31.15358,0.299],
    [28182,"urn:WaterMeter:MC0203J22010600005","2024-08-01T11:15:00",28.899,31.07053,0.306],
    [28183,"urn:WaterMeter:MC0203J22010600005","2024-08-01T11:30:00",29.1,31.037598,0.293],
    [28184,"urn:WaterMeter:MC0203J22010600005","2024-08-01T11:45:00",29.2,30.952997,0.299],
    [28185,"urn:WaterMeter:MC0203J22010600005","2024-08-01T12:00:00",29.399,30.920452,0.294],
    [28186,"urn:WaterMeter:MC0203J22010600005","2024-08-01T12:15:00",29.6,30.871965,0.325],
    [28187,"urn:WaterMeter:MC0203J22010600005","2024-08-01T12:30:00",29.799,30.780807,0.295],
    [28188,"urn:WaterMeter:MC0203J22010600005","2024-08-01T12:45:00",29.899,30.687325,0.304],
    [28189,"urn:WaterMeter:MC0203J22010600005","2024-08-01T13:00:00",30,30.63298,0.294],
    [28190,"urn:WaterMeter:MC0203J22010600005","2024-08-01T13:15:00",30.1,30.594189,0.311],
    [28191,"urn:WaterMeter:MC0203J22010600005","2024-08-01T13:30:00",30.2,30.559317,0.294],
    [28192,"urn:WaterMeter:MC0203J22010600005","2024-08-01T13:45:00",30.299,30.49415,0.288],
    [28193,"urn:WaterMeter:MC0203J22010600005","2024-08-01T14:00:00",30.399,30.449503,0.298],
    [28194,"urn:WaterMeter:MC0203J22010600005","2024-08-01T14:15:00",30.5,30.378904,0.3],
    [28195,"urn:WaterMeter:MC0203J22010600005","2024-08-01T14:30:00",30.5,30.364979,0.307],
    [28196,"urn:WaterMeter:MC0203J22010600005","2024-08-01T14:45:00",30.5,30.301325,0.305],
    [28197,"urn:WaterMeter:MC0203J22010600005","2024-08-01T15:00:00",30.5,30.249773,0.283],
    [28198,"urn:WaterMeter:MC0203J22010600005","2024-08-01T15:15:00",30.5,30.236158,0.283],
    [28199,"urn:WaterMeter:MC0203J22010600005","2024-08-01T15:30:00",30.5,30.18573,0.28],
    [28200,"urn:WaterMeter:MC0203J22010600005","2024-08-01T15:45:00",30.399,30.14927,0.287],
    [28201,"urn:WaterMeter:MC0203J22010600005","2024-08-01T16:00:00",30.399,30.082588,0.281],
    [28202,"urn:WaterMeter:MC0203J22010600005","2024-08-01T16:15:00",30.399,30.058926,0.294],
    [28203,"urn:WaterMeter:MC0203J22010600005","2024-08-01T16:30:00",30.299,30.032122,0.279],
    [28204,"urn:WaterMeter:MC0203J22010600005","2024-08-01T16:45:00",30.299,30.000742,0.289],
    [28205,"urn:WaterMeter:MC0203J22010600005","2024-08-01T17:00:00",30.299,29.982122,0.288],
    [28206,"urn:WaterMeter:MC0203J22010600005","2024-08-01T17:15:00",30.2,29.94217,0.284],
    [28207,"urn:WaterMeter:MC0203J22010600005","2024-08-01T17:30:00",30.1,29.939453,0.294],
    [28208,"urn:WaterMeter:MC0203J22010600005","2024-08-01T17:45:00",30.1,29.882431,0.29],
    [28209,"urn:WaterMeter:MC0203J22010600005","2024-08-01T18:00:00",30,29.88666,0.282],
    [28210,"urn:WaterMeter:MC0203J22010600005","2024-08-01T18:15:00",29.899,29.896746,0.288],
    [28211,"urn:WaterMeter:MC0203J22010600005","2024-08-01T18:30:00",29.799,29.83662,0.286],
    [28212,"urn:WaterMeter:MC0203J22010600005","2024-08-01T18:45:00",29.7,29.826187,0.27],
    [28213,"urn:WaterMeter:MC0203J22010600005","2024-08-01T19:00:00",29.6,29.80524,0.281],
    [28214,"urn:WaterMeter:MC0203J22010600005","2024-08-01T19:15:00",29.5,29.78856,0.283],
    [28215,"urn:WaterMeter:MC0203J22010600005","2024-08-01T19:30:00",29.399,29.830841,0.275],
    [28216,"urn:WaterMeter:MC0203J22010600005","2024-08-01T19:45:00",29.299,29.780375,0.278],
    [28217,"urn:WaterMeter:MC0203J22010600005","2024-08-01T20:00:00",29.2,29.755589,0.275],
    [28218,"urn:WaterMeter:MC0203J22010600005","2024-08-01T20:15:00",29.1,29.750895,0.293],
    [28219,"urn:WaterMeter:MC0203J22010600005","2024-08-01T20:30:00",29,29.771492,0.296],
    [28220,"urn:WaterMeter:MC0203J22010600005","2024-08-01T20:45:00",28.899,29.746666,0.284],
    [28221,"urn:WaterMeter:MC0203J22010600005","2024-08-01T21:00:00",28.799,29.753262,0.274],
    [28222,"urn:WaterMeter:MC0203J22010600005","2024-08-01T21:15:00",28.7,29.757877,0.281],
    [28223,"urn:WaterMeter:MC0203J22010600005","2024-08-01T21:30:00",28.7,29.724945,0.287],
    [28224,"urn:WaterMeter:MC0203J22010600005","2024-08-01T21:45:00",28.6,29.733479,0.272],
    [28225,"urn:WaterMeter:MC0203J22010600005","2024-08-01T22:00:00",28.5,29.71835,0.285],
    [28226,"urn:WaterMeter:MC0203J22010600005","2024-08-01T22:15:00",28.399,29.70361,0.295],
    [28227,"urn:WaterMeter:MC0203J22010600005","2024-08-01T22:30:00",28.299,29.71098,0.268],
    [28228,"urn:WaterMeter:MC0203J22010600005","2024-08-01T22:45:00",28.299,29.689259,0.272],
    [28229,"urn:WaterMeter:MC0203J22010600005","2024-08-01T23:00:00",28.2,29.671026,0.27],
    [28230,"urn:WaterMeter:MC0203J22010600005","2024-08-01T23:15:00",28.1,29.664005,0.288],
    [28231,"urn:WaterMeter:MC0203J22010600005","2024-08-01T23:30:00",28,29.710592,0.284],
    [28232,"urn:WaterMeter:MC0203J22010600005","2024-08-01T23:45:00",27.899,29.678396,0.264],
    [28233,"urn:WaterMeter:MC0203J22010600005","2024-08-02T00:00:00",27.799,29.670639,0.268],
    [28234,"urn:WaterMeter:MC0203J22010600005","2024-08-02T00:15:00",27.7,29.659002,0.275],
    [28235,"urn:WaterMeter:MC0203J22010600005","2024-08-02T00:30:00",27.6,29.660902,0.281],
    [28236,"urn:WaterMeter:MC0203J22010600005","2024-08-02T00:45:00",27.5,29.648916,0.265],
    [28237,"urn:WaterMeter:MC0203J22010600005","2024-08-02T01:00:00",27.399,29.65202,0.273],
    [28238,"urn:WaterMeter:MC0203J22010600005","2024-08-02T01:15:00",27.299,29.622889,0.275],
    [28239,"urn:WaterMeter:MC0203J22010600005","2024-08-02T01:30:00",27.2,29.646976,0.289],
    [28240,"urn:WaterMeter:MC0203J22010600005","2024-08-02T01:45:00",27.1,29.658226,0.295],
    [28241,"urn:WaterMeter:MC0203J22010600005","2024-08-02T02:00:00",27,29.647753,0.282],
    [28242,"urn:WaterMeter:MC0203J22010600005","2024-08-02T02:15:00",26.899,29.613617,0.264],
    [28243,"urn:WaterMeter:MC0203J22010600005","2024-08-02T02:30:00",26.799,29.631073,0.28],
    [28244,"urn:WaterMeter:MC0203J22010600005","2024-08-02T02:45:00",26.7,29.609737,0.287],
    [28245,"urn:WaterMeter:MC0203J22010600005","2024-08-02T03:00:00",26.6,29.610126,0.273],
    [28246,"urn:WaterMeter:MC0203J22010600005","2024-08-02T03:15:00",26.5,29.60935,0.267],
    [28247,"urn:WaterMeter:MC0203J22010600005","2024-08-02T03:30:00",26.399,29.606634,0.265],
    [28248,"urn:WaterMeter:MC0203J22010600005","2024-08-02T03:45:00",26.299,29.594223,0.271],
    [28249,"urn:WaterMeter:MC0203J22010600005","2024-08-02T04:00:00",26.2,29.60198,0.272],
    [28250,"urn:WaterMeter:MC0203J22010600005","2024-08-02T04:15:00",26.1,29.57634,0.263],
    [28251,"urn:WaterMeter:MC0203J22010600005","2024-08-02T04:30:00",26,29.59073,0.273],
    [28252,"urn:WaterMeter:MC0203J22010600005","2024-08-02T04:45:00",25.899,29.57634,0.266],
    [28253,"urn:WaterMeter:MC0203J22010600005","2024-08-02T05:00:00",25.899,29.59849,0.268],
    [28254,"urn:WaterMeter:MC0203J22010600005","2024-08-02T05:15:00",25.899,29.58142,0.274],
    [28255,"urn:WaterMeter:MC0203J22010600005","2024-08-02T05:30:00",25.899,29.734255,0.286],
    [28256,"urn:WaterMeter:MC0203J22010600005","2024-08-02T05:45:00",25.899,30.039532,0.298],
    [28257,"urn:WaterMeter:MC0203J22010600005","2024-08-02T06:00:00",25.899,30.526695,0.287],
    [28258,"urn:WaterMeter:MC0203J22010600005","2024-08-02T06:15:00",25.899,31.102377,0.3],
    [28259,"urn:WaterMeter:MC0203J22010600005","2024-08-02T06:30:00",25.899,31.431704,0.338],
    [28260,"urn:WaterMeter:MC0203J22010600005","2024-08-02T06:45:00",25.899,31.684616,0.321],
    [28261,"urn:WaterMeter:MC0203J22010600005","2024-08-02T07:00:00",26,31.810682,0.301],
    [28262,"urn:WaterMeter:MC0203J22010600005","2024-08-02T07:15:00",26.1,31.960024,0.311],
    [28263,"urn:WaterMeter:MC0203J22010600005","2024-08-02T07:30:00",26.2,32.03528,0.305],
    [28264,"urn:WaterMeter:MC0203J22010600005","2024-08-02T07:45:00",26.399,32.137257,0.305],
    [28265,"urn:WaterMeter:MC0203J22010600005","2024-08-02T08:00:00",26.6,32.25095,0.323],
    [28266,"urn:WaterMeter:MC0203J22010600005","2024-08-02T08:15:00",26.7,31.972824,0.293],
    [28267,"urn:WaterMeter:MC0203J22010600005","2024-08-02T08:30:00",26.899,31.71177,0.3],
    [28268,"urn:WaterMeter:MC0203J22010600005","2024-08-02T08:45:00",27,31.606647,0.317],
    [28269,"urn:WaterMeter:MC0203J22010600005","2024-08-02T09:00:00",27.1,31.513552,0.296],
    [28270,"urn:WaterMeter:MC0203J22010600005","2024-08-02T09:15:00",27.299,31.435196,0.314],
    [28271,"urn:WaterMeter:MC0203J22010600005","2024-08-02T09:30:00",27.399,31.396406,0.307],
    [28272,"urn:WaterMeter:MC0203J22010600005","2024-08-02T09:45:00",27.5,31.325031,0.297],
    [28273,"urn:WaterMeter:MC0203J22010600005","2024-08-02T10:00:00",27.7,31.266071,0.307],
    [28274,"urn:WaterMeter:MC0203J22010600005","2024-08-02T10:15:00",27.799,31.230385,0.298],
    [28275,"urn:WaterMeter:MC0203J22010600005","2024-08-02T10:30:00",28,31.186901,0.296],
    [28276,"urn:WaterMeter:MC0203J22010600005","2024-08-02T10:45:00",28.1,31.10548,0.29],
    [28277,"urn:WaterMeter:MC0203J22010600005","2024-08-02T11:00:00",28.399,31.076,0.316],
    [28278,"urn:WaterMeter:MC0203J22010600005","2024-08-02T11:15:00",28.6,30.999933,0.288],
    [28279,"urn:WaterMeter:MC0203J22010600005","2024-08-02T11:30:00",28.7,30.952997,0.308],
    [28280,"urn:WaterMeter:MC0203J22010600005","2024-08-02T11:45:00",28.799,30.932089,0.291],
    [28281,"urn:WaterMeter:MC0203J22010600005","2024-08-02T12:00:00",28.899,30.844772,0.292],
    [28282,"urn:WaterMeter:MC0203J22010600005","2024-08-02T12:15:00",29,30.821926,0.296],
    [28283,"urn:WaterMeter:MC0203J22010600005","2024-08-02T12:30:00",29.1,30.742018,0.286],
    [28284,"urn:WaterMeter:MC0203J22010600005","2024-08-02T12:45:00",29.299,30.680342,0.28],
    [28285,"urn:WaterMeter:MC0203J22010600005","2024-08-02T13:00:00",29.399,30.61983,0.294],
    [28286,"urn:WaterMeter:MC0203J22010600005","2024-08-02T13:15:00",29.5,30.581429,0.288],
    [28287,"urn:WaterMeter:MC0203J22010600005","2024-08-02T13:30:00",29.7,30.54609,0.318],
    [28288,"urn:WaterMeter:MC0203J22010600005","2024-08-02T13:45:00",29.7,30.426655,0.288],
    [28289,"urn:WaterMeter:MC0203J22010600005","2024-08-02T14:00:00",29.899,30.412304,0.287],
    [28290,"urn:WaterMeter:MC0203J22010600005","2024-08-02T14:15:00",30,30.351015,0.287],
    [28291,"urn:WaterMeter:MC0203J22010600005","2024-08-02T14:30:00",30.1,30.32425,0.308],
    [28292,"urn:WaterMeter:MC0203J22010600005","2024-08-02T14:45:00",30.1,30.28934,0.292],
    [28293,"urn:WaterMeter:MC0203J22010600005","2024-08-02T15:00:00",30.2,30.268005,0.282],
    [28294,"urn:WaterMeter:MC0203J22010600005","2024-08-02T15:15:00",30.299,30.184566,0.28],
    [28295,"urn:WaterMeter:MC0203J22010600005","2024-08-02T15:30:00",30.399,30.136507,0.278],
    [28296,"urn:WaterMeter:MC0203J22010600005","2024-08-02T15:45:00",30.399,30.084528,0.298],
    [28297,"urn:WaterMeter:MC0203J22010600005","2024-08-02T16:00:00",30.399,30.068974,0.281],
    [28298,"urn:WaterMeter:MC0203J22010600005","2024-08-02T16:15:00",30.5,30.037205,0.28],
    [28299,"urn:WaterMeter:MC0203J22010600005","2024-08-02T16:30:00",30.399,29.97514,0.285],
    [28300,"urn:WaterMeter:MC0203J22010600005","2024-08-02T16:45:00",30.299,29.962727,0.275],
    [28301,"urn:WaterMeter:MC0203J22010600005","2024-08-02T17:00:00",30.299,29.933208,0.273],
    [28302,"urn:WaterMeter:MC0203J22010600005","2024-08-02T17:15:00",30.2,29.906055,0.283],
    [28303,"urn:WaterMeter:MC0203J22010600005","2024-08-02T17:30:00",30.1,29.88282,0.276],
    [28304,"urn:WaterMeter:MC0203J22010600005","2024-08-02T17:45:00",30,29.865751,0.289],
    [28305,"urn:WaterMeter:MC0203J22010600005","2024-08-02T18:00:00",29.899,29.845581,0.276],
    [28306,"urn:WaterMeter:MC0203J22010600005","2024-08-02T18:15:00",29.899,29.782354,0.304],
    [28307,"urn:WaterMeter:MC0203J22010600005","2024-08-02T18:30:00",29.799,29.813774,0.279],
    [28308,"urn:WaterMeter:MC0203J22010600005","2024-08-02T18:45:00",29.7,29.79593,0.293],
    [28309,"urn:WaterMeter:MC0203J22010600005","2024-08-02T19:00:00",29.6,29.760204,0.296],
    [28310,"urn:WaterMeter:MC0203J22010600005","2024-08-02T19:15:00",29.399,29.771881,0.28],
    [28311,"urn:WaterMeter:MC0203J22010600005","2024-08-02T19:30:00",29.299,29.763735,0.272],
    [28312,"urn:WaterMeter:MC0203J22010600005","2024-08-02T19:45:00",29.1,29.745892,0.275],
    [28313,"urn:WaterMeter:MC0203J22010600005","2024-08-02T20:00:00",29,29.751284,0.277],
    [28314,"urn:WaterMeter:MC0203J22010600005","2024-08-02T20:15:00",28.899,29.721027,0.287],
    [28315,"urn:WaterMeter:MC0203J22010600005","2024-08-02T20:30:00",28.799,29.728048,0.288],
    [28316,"urn:WaterMeter:MC0203J22010600005","2024-08-02T20:45:00",28.7,29.730375,0.28],
    [28317,"urn:WaterMeter:MC0203J22010600005","2024-08-02T21:00:00",28.6,29.717186,0.272],
    [28318,"urn:WaterMeter:MC0203J22010600005","2024-08-02T21:15:00",28.5,29.721415,0.286],
    [28319,"urn:WaterMeter:MC0203J22010600005","2024-08-02T21:30:00",28.399,29.702019,0.276],
    [28320,"urn:WaterMeter:MC0203J22010600005","2024-08-02T21:45:00",28.299,29.684216,0.286],
    [28321,"urn:WaterMeter:MC0203J22010600005","2024-08-02T22:00:00",28.2,29.682625,0.295],
    [28322,"urn:WaterMeter:MC0203J22010600005","2024-08-02T22:15:00",28.1,29.698566,0.278],
    [28323,"urn:WaterMeter:MC0203J22010600005","2024-08-02T22:30:00",28.1,29.691586,0.274],
    [28324,"urn:WaterMeter:MC0203J22010600005","2024-08-02T22:45:00",28,29.659777,0.287],
    [28325,"urn:WaterMeter:MC0203J22010600005","2024-08-02T23:00:00",28,29.67956,0.281],
    [28326,"urn:WaterMeter:MC0203J22010600005","2024-08-02T23:15:00",27.899,29.630297,0.289],
    [28327,"urn:WaterMeter:MC0203J22010600005","2024-08-02T23:30:00",27.799,29.643835,0.267],
    [28328,"urn:WaterMeter:MC0203J22010600005","2024-08-02T23:45:00",27.799,29.627193,0.274],
    [28329,"urn:WaterMeter:MC0203J22010600005","2024-08-03T00:00:00",27.7,29.634525,0.278],
    [28330,"urn:WaterMeter:MC0203J22010600005","2024-08-03T00:15:00",27.6,29.619436,0.269],
    [28331,"urn:WaterMeter:MC0203J22010600005","2024-08-03T00:30:00",27.5,29.65392,0.285],
    [28332,"urn:WaterMeter:MC0203J22010600005","2024-08-03T00:45:00",27.399,29.622889,0.276],
    [28333,"urn:WaterMeter:MC0203J22010600005","2024-08-03T01:00:00",27.399,29.634525,0.274],
    [28334,"urn:WaterMeter:MC0203J22010600005","2024-08-03T01:15:00",27.299,29.634525,0.273],
    [28335,"urn:WaterMeter:MC0203J22010600005","2024-08-03T01:30:00",27.2,29.608963,0.281],
    [28336,"urn:WaterMeter:MC0203J22010600005","2024-08-03T01:45:00",27.1,29.61866,0.274],
    [28337,"urn:WaterMeter:MC0203J22010600005","2024-08-03T02:00:00",27,29.61672,0.281],
    [28338,"urn:WaterMeter:MC0203J22010600005","2024-08-03T02:15:00",27,29.569784,0.266],
    [28339,"urn:WaterMeter:MC0203J22010600005","2024-08-03T02:30:00",26.899,29.61323,0.268],
    [28340,"urn:WaterMeter:MC0203J22010600005","2024-08-03T02:45:00",26.799,29.629133,0.262],
    [28341,"urn:WaterMeter:MC0203J22010600005","2024-08-03T03:00:00",26.799,29.593447,0.272],
    [28342,"urn:WaterMeter:MC0203J22010600005","2024-08-03T03:15:00",26.7,29.58565,0.264],
    [28343,"urn:WaterMeter:MC0203J22010600005","2024-08-03T03:30:00",26.7,29.58181,0.271],
    [28344,"urn:WaterMeter:MC0203J22010600005","2024-08-03T03:45:00",26.6,29.604656,0.273],
    [28345,"urn:WaterMeter:MC0203J22010600005","2024-08-03T04:00:00",26.5,29.560087,0.27],
    [28346,"urn:WaterMeter:MC0203J22010600005","2024-08-03T04:15:00",26.5,29.572887,0.269],
    [28347,"urn:WaterMeter:MC0203J22010600005","2024-08-03T04:30:00",26.399,29.569784,0.263],
    [28348,"urn:WaterMeter:MC0203J22010600005","2024-08-03T04:45:00",26.299,29.59496,0.272],
    [28349,"urn:WaterMeter:MC0203J22010600005","2024-08-03T05:00:00",26.299,29.575214,0.297],
    [28350,"urn:WaterMeter:MC0203J22010600005","2024-08-03T05:15:00",26.2,29.553104,0.278],
    [28351,"urn:WaterMeter:MC0203J22010600005","2024-08-03T05:30:00",26.1,29.550001,0.28],
    [28352,"urn:WaterMeter:MC0203J22010600005","2024-08-03T05:45:00",26,29.573664,0.275],
    [28353,"urn:WaterMeter:MC0203J22010600005","2024-08-03T06:00:00",26,29.555044,0.285],
    [28354,"urn:WaterMeter:MC0203J22010600005","2024-08-03T06:15:00",26,29.545696,0.284],
    [28355,"urn:WaterMeter:MC0203J22010600005","2024-08-03T06:30:00",26,29.480568,0.289],
    [28356,"urn:WaterMeter:MC0203J22010600005","2024-08-03T06:45:00",26,29.487898,0.253],
    [28357,"urn:WaterMeter:MC0203J22010600005","2024-08-03T07:00:00",26,29.52824,0.28],
    [28358,"urn:WaterMeter:MC0203J22010600005","2024-08-03T07:15:00",26.1,29.458458,0.281],
    [28359,"urn:WaterMeter:MC0203J22010600005","2024-08-03T07:30:00",26.2,29.449497,0.258],
    [28360,"urn:WaterMeter:MC0203J22010600005","2024-08-03T07:45:00",26.299,29.420055,0.265],
    [28361,"urn:WaterMeter:MC0203J22010600005","2024-08-03T08:00:00",26.5,29.438675,0.271],
    [28362,"urn:WaterMeter:MC0203J22010600005","2024-08-03T08:15:00",26.6,29.366913,0.261],
    [28363,"urn:WaterMeter:MC0203J22010600005","2024-08-03T08:30:00",26.799,29.393679,0.256],
    [28364,"urn:WaterMeter:MC0203J22010600005","2024-08-03T08:45:00",26.899,29.33627,0.256],
    [28365,"urn:WaterMeter:MC0203J22010600005","2024-08-03T09:00:00",27,29.268387,0.254],
    [28366,"urn:WaterMeter:MC0203J22010600005","2024-08-03T09:15:00",27.1,29.246626,0.255],
    [28367,"urn:WaterMeter:MC0203J22010600005","2024-08-03T09:30:00",27.2,29.215204,0.285],
    [28368,"urn:WaterMeter:MC0203J22010600005","2024-08-03T09:45:00",27.399,29.160938,0.274],
    [28369,"urn:WaterMeter:MC0203J22010600005","2024-08-03T10:00:00",27.5,29.126415,0.262],
    [28370,"urn:WaterMeter:MC0203J22010600005","2024-08-03T10:15:00",27.6,29.112839,0.268],
    [28371,"urn:WaterMeter:MC0203J22010600005","2024-08-03T10:30:00",27.799,29.04418,0.26],
    [28372,"urn:WaterMeter:MC0203J22010600005","2024-08-03T10:45:00",28,28.991426,0.273],
    [28373,"urn:WaterMeter:MC0203J22010600005","2024-08-03T11:00:00",28.299,28.97009,0.253],
    [28374,"urn:WaterMeter:MC0203J22010600005","2024-08-03T11:15:00",28.5,28.913845,0.253],
    [28375,"urn:WaterMeter:MC0203J22010600005","2024-08-03T11:30:00",28.799,28.885101,0.258],
    [28376,"urn:WaterMeter:MC0203J22010600005","2024-08-03T11:45:00",28.899,28.82618,0.256],
    [28377,"urn:WaterMeter:MC0203J22010600005","2024-08-03T12:00:00",29,28.766056,0.252],
    [28378,"urn:WaterMeter:MC0203J22010600005","2024-08-03T12:15:00",29.1,28.74472,0.249],
    [28379,"urn:WaterMeter:MC0203J22010600005","2024-08-03T12:30:00",29.299,28.681105,0.245],
    [28380,"urn:WaterMeter:MC0203J22010600005","2024-08-03T12:45:00",29.399,28.663261,0.268],
    [28381,"urn:WaterMeter:MC0203J22010600005","2024-08-03T13:00:00",29.5,28.566675,0.251],
    [28382,"urn:WaterMeter:MC0203J22010600005","2024-08-03T13:15:00",29.6,28.511982,0.249],
    [28383,"urn:WaterMeter:MC0203J22010600005","2024-08-03T13:30:00",29.7,28.487156,0.265],
    [28384,"urn:WaterMeter:MC0203J22010600005","2024-08-03T13:45:00",29.799,28.400227,0.252],
    [28385,"urn:WaterMeter:MC0203J22010600005","2024-08-03T14:00:00",29.899,28.375053,0.245],
    [28386,"urn:WaterMeter:MC0203J22010600005","2024-08-03T14:15:00",29.899,28.304417,0.251],
    [28387,"urn:WaterMeter:MC0203J22010600005","2024-08-03T14:30:00",29.899,28.281569,0.242],
    [28388,"urn:WaterMeter:MC0203J22010600005","2024-08-03T14:45:00",30,28.233856,0.256],
    [28389,"urn:WaterMeter:MC0203J22010600005","2024-08-03T15:00:00",30,28.187658,0.248],
    [28390,"urn:WaterMeter:MC0203J22010600005","2024-08-03T15:15:00",30,28.155113,0.259],
    [28391,"urn:WaterMeter:MC0203J22010600005","2024-08-03T15:30:00",30,28.110466,0.246],
    [28392,"urn:WaterMeter:MC0203J22010600005","2024-08-03T15:45:00",30,28.057362,0.238],
    [28393,"urn:WaterMeter:MC0203J22010600005","2024-08-03T16:00:00",29.899,28.02633,0.251],
    [28394,"urn:WaterMeter:MC0203J22010600005","2024-08-03T16:15:00",29.899,27.977028,0.245],
    [28395,"urn:WaterMeter:MC0203J22010600005","2024-08-03T16:30:00",29.899,27.94332,0.242],
    [28396,"urn:WaterMeter:MC0203J22010600005","2024-08-03T16:45:00",29.799,27.900263,0.243],
    [28397,"urn:WaterMeter:MC0203J22010600005","2024-08-03T17:00:00",29.799,27.850185,0.243],
    [28398,"urn:WaterMeter:MC0203J22010600005","2024-08-03T17:15:00",29.7,27.84363,0.239],
    [28399,"urn:WaterMeter:MC0203J22010600005","2024-08-03T17:30:00",29.6,27.827337,0.243],
    [28400,"urn:WaterMeter:MC0203J22010600005","2024-08-03T17:45:00",29.6,27.787771,0.253],
    [28401,"urn:WaterMeter:MC0203J22010600005","2024-08-03T18:00:00",29.5,27.759844,0.248],
    [28402,"urn:WaterMeter:MC0203J22010600005","2024-08-03T18:15:00",29.399,27.72532,0.237],
    [28403,"urn:WaterMeter:MC0203J22010600005","2024-08-03T18:30:00",29.299,27.715622,0.256],
    [28404,"urn:WaterMeter:MC0203J22010600005","2024-08-03T18:45:00",29.2,27.687695,0.257],
    [28405,"urn:WaterMeter:MC0203J22010600005","2024-08-03T19:00:00",29.1,27.70511,0.251],
    [28406,"urn:WaterMeter:MC0203J22010600005","2024-08-03T19:15:00",29,27.694637,0.244],
    [28407,"urn:WaterMeter:MC0203J22010600005","2024-08-03T19:30:00",28.899,27.673342,0.233],
    [28408,"urn:WaterMeter:MC0203J22010600005","2024-08-03T19:45:00",28.799,27.66632,0.242],
    [28409,"urn:WaterMeter:MC0203J22010600005","2024-08-03T20:00:00",28.799,27.629896,0.248],
    [28410,"urn:WaterMeter:MC0203J22010600005","2024-08-03T20:15:00",28.7,27.611666,0.234],
    [28411,"urn:WaterMeter:MC0203J22010600005","2024-08-03T20:30:00",28.6,27.636452,0.236],
    [28412,"urn:WaterMeter:MC0203J22010600005","2024-08-03T20:45:00",28.5,27.613216,0.243],
    [28413,"urn:WaterMeter:MC0203J22010600005","2024-08-03T21:00:00",28.399,27.592659,0.231],
    [28414,"urn:WaterMeter:MC0203J22010600005","2024-08-03T21:15:00",28.399,27.587576,0.248],
    [28415,"urn:WaterMeter:MC0203J22010600005","2024-08-03T21:30:00",28.299,27.605808,0.255],
    [28416,"urn:WaterMeter:MC0203J22010600005","2024-08-03T21:45:00",28.299,27.53909,0.242],
    [28417,"urn:WaterMeter:MC0203J22010600005","2024-08-03T22:00:00",28.2,27.589943,0.235],
    [28418,"urn:WaterMeter:MC0203J22010600005","2024-08-03T22:15:00",28.2,27.549562,0.229],
    [28419,"urn:WaterMeter:MC0203J22010600005","2024-08-03T22:30:00",28.1,27.559649,0.238],
    [28420,"urn:WaterMeter:MC0203J22010600005","2024-08-03T22:45:00",28.1,27.535637,0.24],
    [28421,"urn:WaterMeter:MC0203J22010600005","2024-08-03T23:00:00",28.1,27.55193,0.232],
    [28422,"urn:WaterMeter:MC0203J22010600005","2024-08-03T23:15:00",28,27.521673,0.246],
    [28423,"urn:WaterMeter:MC0203J22010600005","2024-08-03T23:30:00",27.899,27.53525,0.235],
    [28424,"urn:WaterMeter:MC0203J22010600005","2024-08-03T23:45:00",27.899,27.52047,0.24],
    [28425,"urn:WaterMeter:MC0203J22010600005","2024-08-04T00:00:00",27.899,27.504217,0.252],
    [28426,"urn:WaterMeter:MC0203J22010600005","2024-08-04T00:15:00",27.799,27.537577,0.238],
    [28427,"urn:WaterMeter:MC0203J22010600005","2024-08-04T00:30:00",27.799,27.508833,0.234],
    [28428,"urn:WaterMeter:MC0203J22010600005","2024-08-04T00:45:00",27.799,27.496458,0.233],
    [28429,"urn:WaterMeter:MC0203J22010600005","2024-08-04T01:00:00",27.799,27.47978,0.242],
    [28430,"urn:WaterMeter:MC0203J22010600005","2024-08-04T01:15:00",27.7,27.47237,0.231],
    [28431,"urn:WaterMeter:MC0203J22010600005","2024-08-04T01:30:00",27.7,27.470043,0.242],
    [28432,"urn:WaterMeter:MC0203J22010600005","2024-08-04T01:45:00",27.7,27.434395,0.239],
    [28433,"urn:WaterMeter:MC0203J22010600005","2024-08-04T02:00:00",27.7,27.459997,0.241],
    [28434,"urn:WaterMeter:MC0203J22010600005","2024-08-04T02:15:00",27.6,27.464264,0.235],
    [28435,"urn:WaterMeter:MC0203J22010600005","2024-08-04T02:30:00",27.6,27.438274,0.233],
    [28436,"urn:WaterMeter:MC0203J22010600005","2024-08-04T02:45:00",27.6,27.432417,0.227],
    [28437,"urn:WaterMeter:MC0203J22010600005","2024-08-04T03:00:00",27.5,27.41147,0.24],
    [28438,"urn:WaterMeter:MC0203J22010600005","2024-08-04T03:15:00",27.5,27.443666,0.245],
    [28439,"urn:WaterMeter:MC0203J22010600005","2024-08-04T03:30:00",27.5,27.420431,0.235],
    [28440,"urn:WaterMeter:MC0203J22010600005","2024-08-04T03:45:00",27.399,27.401035,0.243],
    [28441,"urn:WaterMeter:MC0203J22010600005","2024-08-04T04:00:00",27.399,27.431253,0.226],
    [28442,"urn:WaterMeter:MC0203J22010600005","2024-08-04T04:15:00",27.299,27.416939,0.242],
    [28443,"urn:WaterMeter:MC0203J22010600005","2024-08-04T04:30:00",27.2,27.392075,0.233],
    [28444,"urn:WaterMeter:MC0203J22010600005","2024-08-04T04:45:00",27.2,27.394403,0.238],
    [28445,"urn:WaterMeter:MC0203J22010600005","2024-08-04T05:00:00",27.1,27.383928,0.241],
    [28446,"urn:WaterMeter:MC0203J22010600005","2024-08-04T05:15:00",27.1,27.409958,0.232],
    [28447,"urn:WaterMeter:MC0203J22010600005","2024-08-04T05:30:00",27,27.378538,0.232],
    [28448,"urn:WaterMeter:MC0203J22010600005","2024-08-04T05:45:00",27,27.364534,0.235],
    [28449,"urn:WaterMeter:MC0203J22010600005","2024-08-04T06:00:00",26.899,27.366512,0.247],
    [28450,"urn:WaterMeter:MC0203J22010600005","2024-08-04T06:15:00",26.899,27.382805,0.247],
    [28451,"urn:WaterMeter:MC0203J22010600005","2024-08-04T06:30:00",26.899,27.346691,0.222],
    [28452,"urn:WaterMeter:MC0203J22010600005","2024-08-04T06:45:00",26.899,27.340523,0.241],
    [28453,"urn:WaterMeter:MC0203J22010600005","2024-08-04T07:00:00",27,27.334278,0.227],
    [28454,"urn:WaterMeter:MC0203J22010600005","2024-08-04T07:15:00",27,27.318026,0.226],
    [28455,"urn:WaterMeter:MC0203J22010600005","2024-08-04T07:30:00",27.1,27.31143,0.234],
    [28456,"urn:WaterMeter:MC0203J22010600005","2024-08-04T07:45:00",27.2,27.310266,0.23],
    [28457,"urn:WaterMeter:MC0203J22010600005","2024-08-04T08:00:00",27.299,27.282726,0.23],
    [28458,"urn:WaterMeter:MC0203J22010600005","2024-08-04T08:15:00",27.399,27.246264,0.228],
    [28459,"urn:WaterMeter:MC0203J22010600005","2024-08-04T08:30:00",27.5,27.22299,0.222],
    [28460,"urn:WaterMeter:MC0203J22010600005","2024-08-04T08:45:00",27.6,27.183811,0.228],
    [28461,"urn:WaterMeter:MC0203J22010600005","2024-08-04T09:00:00",27.7,27.149677,0.235],
    [28462,"urn:WaterMeter:MC0203J22010600005","2024-08-04T09:15:00",27.899,27.114765,0.222],
    [28463,"urn:WaterMeter:MC0203J22010600005","2024-08-04T09:30:00",28,27.094555,0.237],
    [28464,"urn:WaterMeter:MC0203J22010600005","2024-08-04T09:45:00",28.1,27.052313,0.223],
    [28465,"urn:WaterMeter:MC0203J22010600005","2024-08-04T10:00:00",28.2,27.006115,0.232],
    [28466,"urn:WaterMeter:MC0203J22010600005","2024-08-04T10:15:00",28.399,26.99025,0.226],
    [28467,"urn:WaterMeter:MC0203J22010600005","2024-08-04T10:30:00",28.5,26.930513,0.223],
    [28468,"urn:WaterMeter:MC0203J22010600005","2024-08-04T10:45:00",28.7,26.86457,0.223],
    [28469,"urn:WaterMeter:MC0203J22010600005","2024-08-04T11:00:00",29,26.853321,0.226],
    [28470,"urn:WaterMeter:MC0203J22010600005","2024-08-04T11:15:00",29.2,26.811777,0.221],
    [28471,"urn:WaterMeter:MC0203J22010600005","2024-08-04T11:30:00",29.399,26.733032,0.222],
    [28472,"urn:WaterMeter:MC0203J22010600005","2024-08-04T11:45:00",29.5,26.696182,0.219],
    [28473,"urn:WaterMeter:MC0203J22010600005","2024-08-04T12:00:00",29.6,26.64657,0.227],
    [28474,"urn:WaterMeter:MC0203J22010600005","2024-08-04T12:15:00",29.7,26.586445,0.226],
    [28475,"urn:WaterMeter:MC0203J22010600005","2024-08-04T12:30:00",29.799,26.532528,0.224],
    [28476,"urn:WaterMeter:MC0203J22010600005","2024-08-04T12:45:00",29.899,26.4693,0.208],
    [28477,"urn:WaterMeter:MC0203J22010600005","2024-08-04T13:00:00",30,26.409176,0.215],
    [28478,"urn:WaterMeter:MC0203J22010600005","2024-08-04T13:15:00",30.2,26.331207,0.223],
    [28479,"urn:WaterMeter:MC0203J22010600005","2024-08-04T13:30:00",30.299,26.288887,0.221],
    [28480,"urn:WaterMeter:MC0203J22010600005","2024-08-04T13:45:00",30.5,26.231478,0.213],
    [28481,"urn:WaterMeter:MC0203J22010600005","2024-08-04T14:00:00",30.5,26.184969,0.219],
    [28482,"urn:WaterMeter:MC0203J22010600005","2024-08-04T14:15:00",30.7,26.10739,0.216],
    [28483,"urn:WaterMeter:MC0203J22010600005","2024-08-04T14:30:00",30.7,26.072477,0.212],
    [28484,"urn:WaterMeter:MC0203J22010600005","2024-08-04T14:45:00",30.799,26.007273,0.211],
    [28485,"urn:WaterMeter:MC0203J22010600005","2024-08-04T15:00:00",30.799,25.956844,0.207],
    [28486,"urn:WaterMeter:MC0203J22010600005","2024-08-04T15:15:00",30.799,25.875036,0.231],
    [28487,"urn:WaterMeter:MC0203J22010600005","2024-08-04T15:30:00",30.899,25.847496,0.209],
    [28488,"urn:WaterMeter:MC0203J22010600005","2024-08-04T15:45:00",30.899,25.79901,0.219],
    [28489,"urn:WaterMeter:MC0203J22010600005","2024-08-04T16:00:00",30.899,25.738884,0.212],
    [28490,"urn:WaterMeter:MC0203J22010600005","2024-08-04T16:15:00",30.799,25.67872,0.224],
    [28491,"urn:WaterMeter:MC0203J22010600005","2024-08-04T16:30:00",30.799,25.614368,0.216],
    [28492,"urn:WaterMeter:MC0203J22010600005","2024-08-04T16:45:00",30.799,25.593033,0.211],
    [28493,"urn:WaterMeter:MC0203J22010600005","2024-08-04T17:00:00",30.7,25.539503,0.207],
    [28494,"urn:WaterMeter:MC0203J22010600005","2024-08-04T17:15:00",30.6,25.485197,0.214],
    [28495,"urn:WaterMeter:MC0203J22010600005","2024-08-04T17:30:00",30.6,25.416113,0.224],
    [28496,"urn:WaterMeter:MC0203J22010600005","2024-08-04T17:45:00",30.5,25.402964,0.223],
    [28497,"urn:WaterMeter:MC0203J22010600005","2024-08-04T18:00:00",30.399,25.369991,0.203],
    [28498,"urn:WaterMeter:MC0203J22010600005","2024-08-04T18:15:00",30.299,25.331202,0.203],
    [28499,"urn:WaterMeter:MC0203J22010600005","2024-08-04T18:30:00",30.2,25.292412,0.209],
    [28500,"urn:WaterMeter:MC0203J22010600005","2024-08-04T18:45:00",30.1,25.292799,0.205],
    [28501,"urn:WaterMeter:MC0203J22010600005","2024-08-04T19:00:00",30.1,25.26875,0.197],
    [28502,"urn:WaterMeter:MC0203J22010600005","2024-08-04T19:15:00",30,25.243923,0.211],
    [28503,"urn:WaterMeter:MC0203J22010600005","2024-08-04T19:30:00",29.899,25.2094,0.199],
    [28504,"urn:WaterMeter:MC0203J22010600005","2024-08-04T19:45:00",29.799,25.184574,0.204],
    [28505,"urn:WaterMeter:MC0203J22010600005","2024-08-04T20:00:00",29.6,25.181433,0.208],
    [28506,"urn:WaterMeter:MC0203J22010600005","2024-08-04T20:15:00",29.5,25.172163,0.207],
    [28507,"urn:WaterMeter:MC0203J22010600005","2024-08-04T20:30:00",29.399,25.17061,0.208],
    [28508,"urn:WaterMeter:MC0203J22010600005","2024-08-04T20:45:00",29.299,25.199316,0.207],
    [28509,"urn:WaterMeter:MC0203J22010600005","2024-08-04T21:00:00",29.2,25.15936,0.22],
    [28510,"urn:WaterMeter:MC0203J22010600005","2024-08-04T21:15:00",29.1,25.128717,0.211],
    [28511,"urn:WaterMeter:MC0203J22010600005","2024-08-04T21:30:00",29,25.160913,0.191],
    [28512,"urn:WaterMeter:MC0203J22010600005","2024-08-04T21:45:00",28.899,25.15975,0.213],
    [28513,"urn:WaterMeter:MC0203J22010600005","2024-08-04T22:00:00",28.799,25.130268,0.204],
    [28514,"urn:WaterMeter:MC0203J22010600005","2024-08-04T22:15:00",28.7,25.116692,0.211],
    [28515,"urn:WaterMeter:MC0203J22010600005","2024-08-04T22:30:00",28.6,25.113201,0.198],
    [28516,"urn:WaterMeter:MC0203J22010600005","2024-08-04T22:45:00",28.6,25.125963,0.196],
    [28517,"urn:WaterMeter:MC0203J22010600005","2024-08-04T23:00:00",28.5,25.130268,0.204],
    [28518,"urn:WaterMeter:MC0203J22010600005","2024-08-04T23:15:00",28.399,25.12639,0.208],
    [28519,"urn:WaterMeter:MC0203J22010600005","2024-08-04T23:30:00",28.399,25.086786,0.194],
    [28520,"urn:WaterMeter:MC0203J22010600005","2024-08-04T23:45:00",28.299,25.06545,0.203],
    [28521,"urn:WaterMeter:MC0203J22010600005","2024-08-05T00:00:00",28.2,25.117857,0.208],
    [28522,"urn:WaterMeter:MC0203J22010600005","2024-08-05T00:15:00",28.2,25.100788,0.192],
    [28523,"urn:WaterMeter:MC0203J22010600005","2024-08-05T00:30:00",28.1,25.082945,0.198],
    [28524,"urn:WaterMeter:MC0203J22010600005","2024-08-05T00:45:00",28.1,25.074024,0.206],
    [28525,"urn:WaterMeter:MC0203J22010600005","2024-08-05T01:00:00",28,25.077087,0.205],
    [28526,"urn:WaterMeter:MC0203J22010600005","2024-08-05T01:15:00",28,25.061222,0.21],
    [28527,"urn:WaterMeter:MC0203J22010600005","2024-08-05T01:30:00",27.899,25.036009,0.2],
    [28528,"urn:WaterMeter:MC0203J22010600005","2024-08-05T01:45:00",27.799,25.087988,0.202],
    [28529,"urn:WaterMeter:MC0203J22010600005","2024-08-05T02:00:00",27.7,25.091478,0.219],
    [28530,"urn:WaterMeter:MC0203J22010600005","2024-08-05T02:15:00",27.6,25.062775,0.208],
    [28531,"urn:WaterMeter:MC0203J22010600005","2024-08-05T02:30:00",27.5,25.065063,0.198],
    [28532,"urn:WaterMeter:MC0203J22010600005","2024-08-05T02:45:00",27.399,25.050749,0.207],
    [28533,"urn:WaterMeter:MC0203J22010600005","2024-08-05T03:00:00",27.299,25.055016,0.212],
    [28534,"urn:WaterMeter:MC0203J22010600005","2024-08-05T03:15:00",27.2,24.99912,0.198],
    [28535,"urn:WaterMeter:MC0203J22010600005","2024-08-05T03:30:00",27.1,25.043379,0.201],
    [28536,"urn:WaterMeter:MC0203J22010600005","2024-08-05T03:45:00",27.1,25.055016,0.213],
    [28537,"urn:WaterMeter:MC0203J22010600005","2024-08-05T04:00:00",27,25.031742,0.198],
    [28538,"urn:WaterMeter:MC0203J22010600005","2024-08-05T04:15:00",26.899,25.017738,0.192],
    [28539,"urn:WaterMeter:MC0203J22010600005","2024-08-05T04:30:00",26.799,25.025148,0.203],
    [28540,"urn:WaterMeter:MC0203J22010600005","2024-08-05T04:45:00",26.799,25.041052,0.2],
    [28541,"urn:WaterMeter:MC0203J22010600005","2024-08-05T05:00:00",26.7,25.00843,0.195],
    [28542,"urn:WaterMeter:MC0203J22010600005","2024-08-05T05:15:00",26.7,25.015062,0.198],
    [28543,"urn:WaterMeter:MC0203J22010600005","2024-08-05T05:30:00",26.7,25.015451,0.204],
    [28544,"urn:WaterMeter:MC0203J22010600005","2024-08-05T05:45:00",26.7,25.00071,0.205],
    [28545,"urn:WaterMeter:MC0203J22010600005","2024-08-05T06:00:00",26.7,25.00265,0.192],
    [28546,"urn:WaterMeter:MC0203J22010600005","2024-08-05T06:15:00",26.7,25.016615,0.2],
    [28547,"urn:WaterMeter:MC0203J22010600005","2024-08-05T06:30:00",26.7,25.153893,0.215],
    [28548,"urn:WaterMeter:MC0203J22010600005","2024-08-05T06:45:00",26.7,26.248934,0.241],
    [28549,"urn:WaterMeter:MC0203J22010600005","2024-08-05T07:00:00",26.7,27.915741,0.283],
    [28550,"urn:WaterMeter:MC0203J22010600005","2024-08-05T07:15:00",26.799,29.176027,0.262],
    [28551,"urn:WaterMeter:MC0203J22010600005","2024-08-05T07:30:00",26.899,30.092285,0.272],
    [28552,"urn:WaterMeter:MC0203J22010600005","2024-08-05T07:45:00",27.1,30.70672,0.275],
    [28553,"urn:WaterMeter:MC0203J22010600005","2024-08-05T08:00:00",27.2,30.994154,0.288],
    [28554,"urn:WaterMeter:MC0203J22010600005","2024-08-05T08:15:00",27.299,30.990274,0.296],
    [28555,"urn:WaterMeter:MC0203J22010600005","2024-08-05T08:30:00",27.399,30.949545,0.271],
    [28556,"urn:WaterMeter:MC0203J22010600005","2024-08-05T08:45:00",27.5,30.863781,0.287],
    [28557,"urn:WaterMeter:MC0203J22010600005","2024-08-05T09:00:00",27.6,30.8196,0.274],
    [28558,"urn:WaterMeter:MC0203J22010600005","2024-08-05T09:15:00",27.7,30.837791,0.275],
    [28559,"urn:WaterMeter:MC0203J22010600005","2024-08-05T09:30:00",27.899,30.79555,0.296],
    [28560,"urn:WaterMeter:MC0203J22010600005","2024-08-05T09:45:00",28,30.72879,0.278],
    [28561,"urn:WaterMeter:MC0203J22010600005","2024-08-05T10:00:00",28.1,30.689224,0.282],
    [28562,"urn:WaterMeter:MC0203J22010600005","2024-08-05T10:15:00",28.2,30.640001,0.285],
    [28563,"urn:WaterMeter:MC0203J22010600005","2024-08-05T10:30:00",28.399,30.61983,0.285],
    [28564,"urn:WaterMeter:MC0203J22010600005","2024-08-05T10:45:00",28.6,30.54609,0.269],
    [28565,"urn:WaterMeter:MC0203J22010600005","2024-08-05T11:00:00",28.799,30.496439,0.273],
    [28566,"urn:WaterMeter:MC0203J22010600005","2024-08-05T11:15:00",29,30.455748,0.293],
    [28567,"urn:WaterMeter:MC0203J22010600005","2024-08-05T11:30:00",29.299,30.460014,0.282],
    [28568,"urn:WaterMeter:MC0203J22010600005","2024-08-05T11:45:00",29.399,30.397913,0.264],
    [28569,"urn:WaterMeter:MC0203J22010600005","2024-08-05T12:00:00",29.6,30.34283,0.263],
    [28570,"urn:WaterMeter:MC0203J22010600005","2024-08-05T12:15:00",29.7,30.306406,0.273],
    [28571,"urn:WaterMeter:MC0203J22010600005","2024-08-05T12:30:00",29.799,30.281542,0.278],
    [28572,"urn:WaterMeter:MC0203J22010600005","2024-08-05T12:45:00",29.899,30.216763,0.289],
    [28573,"urn:WaterMeter:MC0203J22010600005","2024-08-05T13:00:00",30.1,30.15819,0.264],
    [28574,"urn:WaterMeter:MC0203J22010600005","2024-08-05T13:15:00",30.2,30.095778,0.273],
    [28575,"urn:WaterMeter:MC0203J22010600005","2024-08-05T13:30:00",30.299,30.082975,0.261],
    [28576,"urn:WaterMeter:MC0203J22010600005","2024-08-05T13:45:00",30.5,30.006948,0.274],
    [28577,"urn:WaterMeter:MC0203J22010600005","2024-08-05T14:00:00",30.7,29.996475,0.264],
    [28578,"urn:WaterMeter:MC0203J22010600005","2024-08-05T14:15:00",30.799,29.8758,0.275],
    [28579,"urn:WaterMeter:MC0203J22010600005","2024-08-05T14:30:00",30.899,29.86963,0.247],
    [28580,"urn:WaterMeter:MC0203J22010600005","2024-08-05T14:45:00",30.899,29.826187,0.267],
    [28581,"urn:WaterMeter:MC0203J22010600005","2024-08-05T15:00:00",31,29.786621,0.26],
    [28582,"urn:WaterMeter:MC0203J22010600005","2024-08-05T15:15:00",31,29.743565,0.271],
    [28583,"urn:WaterMeter:MC0203J22010600005","2024-08-05T15:30:00",31,29.690033,0.261],
    [28584,"urn:WaterMeter:MC0203J22010600005","2024-08-05T15:45:00",31.1,29.61866,0.28],
    [28585,"urn:WaterMeter:MC0203J22010600005","2024-08-05T16:00:00",31.1,29.595736,0.257],
    [28586,"urn:WaterMeter:MC0203J22010600005","2024-08-05T16:15:00",31,29.532547,0.264],
    [28587,"urn:WaterMeter:MC0203J22010600005","2024-08-05T16:30:00",31,29.487898,0.262],
    [28588,"urn:WaterMeter:MC0203J22010600005","2024-08-05T16:45:00",31,29.446045,0.262],
    [28589,"urn:WaterMeter:MC0203J22010600005","2024-08-05T17:00:00",30.899,29.400272,0.262],
    [28590,"urn:WaterMeter:MC0203J22010600005","2024-08-05T17:15:00",30.799,29.387472,0.261],
    [28591,"urn:WaterMeter:MC0203J22010600005","2024-08-05T17:30:00",30.7,29.289333,0.267],
    [28592,"urn:WaterMeter:MC0203J22010600005","2024-08-05T17:45:00",30.6,29.306013,0.261],
    [28593,"urn:WaterMeter:MC0203J22010600005","2024-08-05T18:00:00",30.5,29.281574,0.263],
    [28594,"urn:WaterMeter:MC0203J22010600005","2024-08-05T18:15:00",30.299,29.267223,0.252],
    [28595,"urn:WaterMeter:MC0203J22010600005","2024-08-05T18:30:00",30.2,29.231535,0.262],
    [28596,"urn:WaterMeter:MC0203J22010600005","2024-08-05T18:45:00",30.1,29.212917,0.257],
    [28597,"urn:WaterMeter:MC0203J22010600005","2024-08-05T19:00:00",30,29.192358,0.258],
    [28598,"urn:WaterMeter:MC0203J22010600005","2024-08-05T19:15:00",29.899,29.188051,0.256],
    [28599,"urn:WaterMeter:MC0203J22010600005","2024-08-05T19:30:00",29.799,29.185764,0.274],
    [28600,"urn:WaterMeter:MC0203J22010600005","2024-08-05T19:45:00",29.7,29.16982,0.254],
    [28601,"urn:WaterMeter:MC0203J22010600005","2024-08-05T20:00:00",29.6,29.159735,0.257],
    [28602,"urn:WaterMeter:MC0203J22010600005","2024-08-05T20:15:00",29.5,29.172575,0.259],
    [28603,"urn:WaterMeter:MC0203J22010600005","2024-08-05T20:30:00",29.399,29.136889,0.283],
    [28604,"urn:WaterMeter:MC0203J22010600005","2024-08-05T20:45:00",29.299,29.134949,0.269],
    [28605,"urn:WaterMeter:MC0203J22010600005","2024-08-05T21:00:00",29.299,29.132233,0.262],
    [28606,"urn:WaterMeter:MC0203J22010600005","2024-08-05T21:15:00",29.2,29.09034,0.267],
    [28607,"urn:WaterMeter:MC0203J22010600005","2024-08-05T21:30:00",29.1,29.101162,0.257],
    [28608,"urn:WaterMeter:MC0203J22010600005","2024-08-05T21:45:00",29,29.102753,0.275],
    [28609,"urn:WaterMeter:MC0203J22010600005","2024-08-05T22:00:00",28.899,29.060822,0.255],
    [28610,"urn:WaterMeter:MC0203J22010600005","2024-08-05T22:15:00",28.899,29.076763,0.262],
    [28611,"urn:WaterMeter:MC0203J22010600005","2024-08-05T22:30:00",28.799,29.074049,0.255],
    [28612,"urn:WaterMeter:MC0203J22010600005","2024-08-05T22:45:00",28.7,29.083746,0.252],
    [28613,"urn:WaterMeter:MC0203J22010600005","2024-08-05T23:00:00",28.7,29.053452,0.252],
    [28614,"urn:WaterMeter:MC0203J22010600005","2024-08-05T23:15:00",28.6,29.033669,0.26],
    [28615,"urn:WaterMeter:MC0203J22010600005","2024-08-05T23:30:00",28.5,29.021643,0.266],
    [28616,"urn:WaterMeter:MC0203J22010600005","2024-08-05T23:45:00",28.5,29.037973,0.267],
    [28617,"urn:WaterMeter:MC0203J22010600005","2024-08-06T00:00:00",28.399,29.04259,0.261],
    [28618,"urn:WaterMeter:MC0203J22010600005","2024-08-06T00:15:00",28.299,29.011984,0.258],
    [28619,"urn:WaterMeter:MC0203J22010600005","2024-08-06T00:30:00",28.2,29.024359,0.251],
    [28620,"urn:WaterMeter:MC0203J22010600005","2024-08-06T00:45:00",28.1,29.018967,0.264],
    [28621,"urn:WaterMeter:MC0203J22010600005","2024-08-06T01:00:00",28,29.014273,0.249],
    [28622,"urn:WaterMeter:MC0203J22010600005","2024-08-06T01:15:00",27.899,29.00733,0.246],
    [28623,"urn:WaterMeter:MC0203J22010600005","2024-08-06T01:30:00",27.799,28.984406,0.259],
    [28624,"urn:WaterMeter:MC0203J22010600005","2024-08-06T01:45:00",27.6,29.020866,0.248],
    [28625,"urn:WaterMeter:MC0203J22010600005","2024-08-06T02:00:00",27.5,29.011597,0.263],
    [28626,"urn:WaterMeter:MC0203J22010600005","2024-08-06T02:15:00",27.399,28.99996,0.243],
    [28627,"urn:WaterMeter:MC0203J22010600005","2024-08-06T02:30:00",27.399,28.994879,0.25],
    [28628,"urn:WaterMeter:MC0203J22010600005","2024-08-06T02:45:00",27.299,28.993364,0.249],
    [28629,"urn:WaterMeter:MC0203J22010600005","2024-08-06T03:00:00",27.2,28.979788,0.244],
    [28630,"urn:WaterMeter:MC0203J22010600005","2024-08-06T03:15:00",27,28.94484,0.269],
    [28631,"urn:WaterMeter:MC0203J22010600005","2024-08-06T03:30:00",26.899,28.954187,0.265],
    [28632,"urn:WaterMeter:MC0203J22010600005","2024-08-06T03:45:00",26.799,28.986383,0.273],
    [28633,"urn:WaterMeter:MC0203J22010600005","2024-08-06T04:00:00",26.7,28.950308,0.252],
    [28634,"urn:WaterMeter:MC0203J22010600005","2024-08-06T04:15:00",26.6,28.942938,0.255],
    [28635,"urn:WaterMeter:MC0203J22010600005","2024-08-06T04:30:00",26.6,28.94678,0.262],
    [28636,"urn:WaterMeter:MC0203J22010600005","2024-08-06T04:45:00",26.399,28.9538,0.26],
    [28637,"urn:WaterMeter:MC0203J22010600005","2024-08-06T05:00:00",26.399,28.95729,0.247],
    [28638,"urn:WaterMeter:MC0203J22010600005","2024-08-06T05:15:00",26.399,28.922768,0.26],
    [28639,"urn:WaterMeter:MC0203J22010600005","2024-08-06T05:30:00",26.399,29.00888,0.251],
    [28640,"urn:WaterMeter:MC0203J22010600005","2024-08-06T05:45:00",26.5,29.274942,0.257],
    [28641,"urn:WaterMeter:MC0203J22010600005","2024-08-06T06:00:00",26.399,29.797054,0.27],
    [28642,"urn:WaterMeter:MC0203J22010600005","2024-08-06T06:15:00",26.399,30.506176,0.28],
    [28643,"urn:WaterMeter:MC0203J22010600005","2024-08-06T06:30:00",26.399,31.027124,0.281],
    [28644,"urn:WaterMeter:MC0203J22010600005","2024-08-06T06:45:00",26.399,31.321114,0.295],
    [28645,"urn:WaterMeter:MC0203J22010600005","2024-08-06T07:00:00",26.5,31.509285,0.289],
    [28646,"urn:WaterMeter:MC0203J22010600005","2024-08-06T07:15:00",26.6,31.681473,0.302],
    [28647,"urn:WaterMeter:MC0203J22010600005","2024-08-06T07:30:00",26.7,31.809908,0.294],
    [28648,"urn:WaterMeter:MC0203J22010600005","2024-08-06T07:45:00",26.799,31.939466,0.311],
    [28649,"urn:WaterMeter:MC0203J22010600005","2024-08-06T08:00:00",26.899,32.015495,0.311],
    [28650,"urn:WaterMeter:MC0203J22010600005","2024-08-06T08:15:00",27,31.794352,0.297],
    [28651,"urn:WaterMeter:MC0203J22010600005","2024-08-06T08:30:00",27.2,31.622124,0.298],
    [28652,"urn:WaterMeter:MC0203J22010600005","2024-08-06T08:45:00",27.299,31.498423,0.292],
    [28653,"urn:WaterMeter:MC0203J22010600005","2024-08-06T09:00:00",27.399,31.442179,0.282],
    [28654,"urn:WaterMeter:MC0203J22010600005","2024-08-06T09:15:00",27.399,31.361456,0.291],
    [28655,"urn:WaterMeter:MC0203J22010600005","2024-08-06T09:30:00",27.6,31.279648,0.285],
    [28656,"urn:WaterMeter:MC0203J22010600005","2024-08-06T09:45:00",27.7,31.264093,0.296],
    [28657,"urn:WaterMeter:MC0203J22010600005","2024-08-06T10:00:00",27.899,31.193884,0.287],
    [28658,"urn:WaterMeter:MC0203J22010600005","2024-08-06T10:15:00",28,31.147335,0.298],
    [28659,"urn:WaterMeter:MC0203J22010600005","2024-08-06T10:30:00",28.2,31.099623,0.275],
    [28660,"urn:WaterMeter:MC0203J22010600005","2024-08-06T10:45:00",28.399,31.049973,0.277],
    [28661,"urn:WaterMeter:MC0203J22010600005","2024-08-06T11:00:00",28.6,30.971655,0.28],
    [28662,"urn:WaterMeter:MC0203J22010600005","2024-08-06T11:15:00",28.799,30.932865,0.29],
    [28663,"urn:WaterMeter:MC0203J22010600005","2024-08-06T11:30:00",29.1,30.893686,0.277],
    [28664,"urn:WaterMeter:MC0203J22010600005","2024-08-06T11:45:00",29.2,30.805983,0.274],
    [28665,"urn:WaterMeter:MC0203J22010600005","2024-08-06T12:00:00",29.399,30.724174,0.27],
    [28666,"urn:WaterMeter:MC0203J22010600005","2024-08-06T12:15:00",29.5,30.713701,0.279],
    [28667,"urn:WaterMeter:MC0203J22010600005","2024-08-06T12:30:00",29.6,30.643064,0.289],
    [28668,"urn:WaterMeter:MC0203J22010600005","2024-08-06T12:45:00",29.799,30.589186,0.269],
    [28669,"urn:WaterMeter:MC0203J22010600005","2024-08-06T13:00:00",30,30.516998,0.272],
    [28670,"urn:WaterMeter:MC0203J22010600005","2024-08-06T13:15:00",30.1,30.45187,0.288],
    [28671,"urn:WaterMeter:MC0203J22010600005","2024-08-06T13:30:00",30.2,30.418083,0.27],
    [28672,"urn:WaterMeter:MC0203J22010600005","2024-08-06T13:45:00",30.299,30.399464,0.268],
    [28673,"urn:WaterMeter:MC0203J22010600005","2024-08-06T14:00:00",30.399,30.318432,0.269],
    [28674,"urn:WaterMeter:MC0203J22010600005","2024-08-06T14:15:00",30.399,30.265638,0.271],
    [28675,"urn:WaterMeter:MC0203J22010600005","2024-08-06T14:30:00",30.399,30.241627,0.267],
    [28676,"urn:WaterMeter:MC0203J22010600005","2024-08-06T14:45:00",30.5,30.19314,0.283],
    [28677,"urn:WaterMeter:MC0203J22010600005","2024-08-06T15:00:00",30.5,30.143488,0.276],
    [28678,"urn:WaterMeter:MC0203J22010600005","2024-08-06T15:15:00",30.5,30.10854,0.268],
    [28679,"urn:WaterMeter:MC0203J22010600005","2024-08-06T15:30:00",30.5,30.081812,0.272],
    [28680,"urn:WaterMeter:MC0203J22010600005","2024-08-06T15:45:00",30.6,30.014318,0.27],
    [28681,"urn:WaterMeter:MC0203J22010600005","2024-08-06T16:00:00",30.5,29.96424,0.266],
    [28682,"urn:WaterMeter:MC0203J22010600005","2024-08-06T16:15:00",30.5,29.932432,0.268],
    [28683,"urn:WaterMeter:MC0203J22010600005","2024-08-06T16:30:00",30.399,29.918894,0.27],
    [28684,"urn:WaterMeter:MC0203J22010600005","2024-08-06T16:45:00",30.399,29.852564,0.264],
    [28685,"urn:WaterMeter:MC0203J22010600005","2024-08-06T17:00:00",30.299,29.825024,0.265],
    [28686,"urn:WaterMeter:MC0203J22010600005","2024-08-06T17:15:00",30.2,29.816063,0.267],
    [28687,"urn:WaterMeter:MC0203J22010600005","2024-08-06T17:30:00",30.1,29.769901,0.275],
    [28688,"urn:WaterMeter:MC0203J22010600005","2024-08-06T17:45:00",30,29.71835,0.262],
    [28689,"urn:WaterMeter:MC0203J22010600005","2024-08-06T18:00:00",29.899,29.721802,0.264],
    [28690,"urn:WaterMeter:MC0203J22010600005","2024-08-06T18:15:00",29.799,29.69624,0.257],
    [28691,"urn:WaterMeter:MC0203J22010600005","2024-08-06T18:30:00",29.7,29.685766,0.284],
    [28692,"urn:WaterMeter:MC0203J22010600005","2024-08-06T18:45:00",29.6,29.659002,0.272],
    [28693,"urn:WaterMeter:MC0203J22010600005","2024-08-06T19:00:00",29.5,29.65939,0.257],
    [28694,"urn:WaterMeter:MC0203J22010600005","2024-08-06T19:15:00",29.299,29.62797,0.276],
    [28695,"urn:WaterMeter:MC0203J22010600005","2024-08-06T19:30:00",29.2,29.608187,0.259],
    [28696,"urn:WaterMeter:MC0203J22010600005","2024-08-06T19:45:00",29.1,29.603493,0.271],
    [28697,"urn:WaterMeter:MC0203J22010600005","2024-08-06T20:00:00",29,29.59112,0.272],
    [28698,"urn:WaterMeter:MC0203J22010600005","2024-08-06T20:15:00",28.899,29.580647,0.251],
    [28699,"urn:WaterMeter:MC0203J22010600005","2024-08-06T20:30:00",28.799,29.613617,0.267],
    [28700,"urn:WaterMeter:MC0203J22010600005","2024-08-06T20:45:00",28.7,29.5981,0.271],
    [28701,"urn:WaterMeter:MC0203J22010600005","2024-08-06T21:00:00",28.6,29.548023,0.256],
    [28702,"urn:WaterMeter:MC0203J22010600005","2024-08-06T21:15:00",28.5,29.585262,0.259],
    [28703,"urn:WaterMeter:MC0203J22010600005","2024-08-06T21:30:00",28.399,29.532158,0.274],
    [28704,"urn:WaterMeter:MC0203J22010600005","2024-08-06T21:45:00",28.299,29.54302,0.259],
    [28705,"urn:WaterMeter:MC0203J22010600005","2024-08-06T22:00:00",28.1,29.542244,0.256],
    [28706,"urn:WaterMeter:MC0203J22010600005","2024-08-06T22:15:00",28,29.535261,0.261],
    [28707,"urn:WaterMeter:MC0203J22010600005","2024-08-06T22:30:00",27.799,29.517767,0.259],
    [28708,"urn:WaterMeter:MC0203J22010600005","2024-08-06T22:45:00",27.7,29.50807,0.257],
    [28709,"urn:WaterMeter:MC0203J22010600005","2024-08-06T23:00:00",27.6,29.50035,0.282],
    [28710,"urn:WaterMeter:MC0203J22010600005","2024-08-06T23:15:00",27.5,29.513538,0.253],
    [28711,"urn:WaterMeter:MC0203J22010600005","2024-08-06T23:30:00",27.399,29.492205,0.266],
    [28712,"urn:WaterMeter:MC0203J22010600005","2024-08-06T23:45:00",27.299,29.527464,0.271],
    [28713,"urn:WaterMeter:MC0203J22010600005","2024-08-07T00:00:00",27.2,29.512764,0.26],
    [28714,"urn:WaterMeter:MC0203J22010600005","2024-08-07T00:15:00",27.1,29.499962,0.259],
    [28715,"urn:WaterMeter:MC0203J22010600005","2024-08-07T00:30:00",27,29.461172,0.278],
    [28716,"urn:WaterMeter:MC0203J22010600005","2024-08-07T00:45:00",26.899,29.496859,0.253],
    [28717,"urn:WaterMeter:MC0203J22010600005","2024-08-07T01:00:00",26.799,29.497635,0.263],
    [28718,"urn:WaterMeter:MC0203J22010600005","2024-08-07T01:15:00",26.7,29.491041,0.255],
    [28719,"urn:WaterMeter:MC0203J22010600005","2024-08-07T01:30:00",26.6,29.504618,0.261],
    [28720,"urn:WaterMeter:MC0203J22010600005","2024-08-07T01:45:00",26.5,29.487898,0.252],
    [28721,"urn:WaterMeter:MC0203J22010600005","2024-08-07T02:00:00",26.399,29.457682,0.268],
    [28722,"urn:WaterMeter:MC0203J22010600005","2024-08-07T02:15:00",26.299,29.455355,0.265],
    [28723,"urn:WaterMeter:MC0203J22010600005","2024-08-07T02:45:00",26,29.485222,0.257],
    [28724,"urn:WaterMeter:MC0203J22010600005","2024-08-07T03:00:00",25.899,29.465828,0.26],
    [28725,"urn:WaterMeter:MC0203J22010600005","2024-08-07T03:15:00",25.799,29.491817,0.257],
    [28726,"urn:WaterMeter:MC0203J22010600005","2024-08-07T03:30:00",25.7,29.461561,0.267],
    [28727,"urn:WaterMeter:MC0203J22010600005","2024-08-07T03:45:00",25.7,29.42855,0.247],
    [28728,"urn:WaterMeter:MC0203J22010600005","2024-08-07T04:00:00",25.6,29.43208,0.253],
    [28729,"urn:WaterMeter:MC0203J22010600005","2024-08-07T04:15:00",25.5,29.457682,0.261],
    [28730,"urn:WaterMeter:MC0203J22010600005","2024-08-07T04:30:00",25.5,29.434408,0.254],
    [28731,"urn:WaterMeter:MC0203J22010600005","2024-08-07T04:45:00",25.399,29.436735,0.264],
    [28732,"urn:WaterMeter:MC0203J22010600005","2024-08-07T05:00:00",25.299,29.421955,0.259],
    [28733,"urn:WaterMeter:MC0203J22010600005","2024-08-07T05:15:00",25.399,29.444105,0.251],
    [28734,"urn:WaterMeter:MC0203J22010600005","2024-08-07T05:30:00",25.399,29.506907,0.27],
    [28735,"urn:WaterMeter:MC0203J22010600005","2024-08-07T05:45:00",25.399,29.823858,0.255],
    [28736,"urn:WaterMeter:MC0203J22010600005","2024-08-07T06:00:00",25.399,30.351751,0.289],
    [28737,"urn:WaterMeter:MC0203J22010600005","2024-08-07T06:15:00",25.399,30.939848,0.299],
    [28738,"urn:WaterMeter:MC0203J22010600005","2024-08-07T06:30:00",25.399,31.407228,0.296],
    [28739,"urn:WaterMeter:MC0203J22010600005","2024-08-07T06:45:00",25.5,31.677633,0.295],
    [28740,"urn:WaterMeter:MC0203J22010600005","2024-08-07T07:00:00",25.6,31.849472,0.291],
    [28741,"urn:WaterMeter:MC0203J22010600005","2024-08-07T07:15:00",25.7,31.999203,0.282],
    [28742,"urn:WaterMeter:MC0203J22010600005","2024-08-07T07:30:00",25.799,32.122555,0.297],
    [28743,"urn:WaterMeter:MC0203J22010600005","2024-08-07T07:45:00",26,32.24009,0.332],
    [28744,"urn:WaterMeter:MC0203J22010600005","2024-08-07T08:00:00",26.1,32.33043,0.298],
    [28745,"urn:WaterMeter:MC0203J22010600005","2024-08-07T08:15:00",26.299,32.096565,0.302],
    [28746,"urn:WaterMeter:MC0203J22010600005","2024-08-07T08:30:00",26.399,31.84443,0.287],
    [28747,"urn:WaterMeter:MC0203J22010600005","2024-08-07T08:45:00",26.5,31.686943,0.302],
    [28748,"urn:WaterMeter:MC0203J22010600005","2024-08-07T09:00:00",26.7,31.617508,0.296],
    [28749,"urn:WaterMeter:MC0203J22010600005","2024-08-07T09:15:00",26.799,31.569021,0.311],
    [28750,"urn:WaterMeter:MC0203J22010600005","2024-08-07T09:30:00",26.899,31.51006,0.282],
    [28751,"urn:WaterMeter:MC0203J22010600005","2024-08-07T09:45:00",27,31.416964,0.283],
    [28752,"urn:WaterMeter:MC0203J22010600005","2024-08-07T10:00:00",27.2,31.389772,0.276],
    [28753,"urn:WaterMeter:MC0203J22010600005","2024-08-07T10:15:00",27.399,31.322666,0.276],
    [28754,"urn:WaterMeter:MC0203J22010600005","2024-08-07T10:30:00",27.5,31.239305,0.296],
    [28755,"urn:WaterMeter:MC0203J22010600005","2024-08-07T10:45:00",27.7,31.25168,0.285],
    [28756,"urn:WaterMeter:MC0203J22010600005","2024-08-07T11:00:00",28,31.162502,0.299],
    [28757,"urn:WaterMeter:MC0203J22010600005","2024-08-07T11:15:00",28.2,31.14078,0.278],
    [28758,"urn:WaterMeter:MC0203J22010600005","2024-08-07T11:30:00",28.399,31.073673,0.29],
    [28759,"urn:WaterMeter:MC0203J22010600005","2024-08-07T11:45:00",28.6,30.958078,0.282],
    [28760,"urn:WaterMeter:MC0203J22010600005","2024-08-07T12:00:00",28.7,30.959631,0.274],
    [28761,"urn:WaterMeter:MC0203J22010600005","2024-08-07T12:15:00",28.799,30.885891,0.274],
    [28762,"urn:WaterMeter:MC0203J22010600005","2024-08-07T12:30:00",28.899,30.86188,0.276],
    [28763,"urn:WaterMeter:MC0203J22010600005","2024-08-07T12:45:00",29,30.821926,0.291],
    [28764,"urn:WaterMeter:MC0203J22010600005","2024-08-07T13:00:00",29.2,30.75637,0.289],
    [28765,"urn:WaterMeter:MC0203J22010600005","2024-08-07T13:15:00",29.299,30.698185,0.268],
    [28766,"urn:WaterMeter:MC0203J22010600005","2024-08-07T13:30:00",29.399,30.659395,0.265],
    [28767,"urn:WaterMeter:MC0203J22010600005","2024-08-07T13:45:00",29.5,30.618279,0.274],
    [28768,"urn:WaterMeter:MC0203J22010600005","2024-08-07T14:00:00",29.5,30.522854,0.288],
    [28769,"urn:WaterMeter:MC0203J22010600005","2024-08-07T14:15:00",29.6,30.497602,0.283],
    [28770,"urn:WaterMeter:MC0203J22010600005","2024-08-07T14:30:00",29.6,30.491047,0.268],
    [28771,"urn:WaterMeter:MC0203J22010600005","2024-08-07T14:45:00",29.5,30.428207,0.267],
    [28772,"urn:WaterMeter:MC0203J22010600005","2024-08-07T15:00:00",29.5,30.356058,0.264],
    [28773,"urn:WaterMeter:MC0203J22010600005","2024-08-07T15:15:00",29.6,30.334723,0.265],
    [28774,"urn:WaterMeter:MC0203J22010600005","2024-08-07T15:30:00",29.6,30.311838,0.269],
    [28775,"urn:WaterMeter:MC0203J22010600005","2024-08-07T15:45:00",29.5,30.257532,0.283],
    [28776,"urn:WaterMeter:MC0203J22010600005","2024-08-07T16:00:00",29.5,30.20982,0.28],
    [28777,"urn:WaterMeter:MC0203J22010600005","2024-08-07T16:15:00",29.399,30.196592,0.277],
    [28778,"urn:WaterMeter:MC0203J22010600005","2024-08-07T16:30:00",29.399,30.161331,0.276],
    [28779,"urn:WaterMeter:MC0203J22010600005","2024-08-07T16:45:00",29.299,30.132627,0.258],
    [28780,"urn:WaterMeter:MC0203J22010600005","2024-08-07T17:00:00",29.2,30.131464,0.265],
    [28781,"urn:WaterMeter:MC0203J22010600005","2024-08-07T17:15:00",29.2,30.058538,0.26],
    [28782,"urn:WaterMeter:MC0203J22010600005","2024-08-07T17:30:00",29.1,30.061214,0.26],
    [28783,"urn:WaterMeter:MC0203J22010600005","2024-08-07T17:45:00",29,30.02867,0.268],
    [28784,"urn:WaterMeter:MC0203J22010600005","2024-08-07T18:00:00",28.899,30.043798,0.266],
    [28785,"urn:WaterMeter:MC0203J22010600005","2024-08-07T18:15:00",28.799,29.988329,0.255],
    [28786,"urn:WaterMeter:MC0203J22010600005","2024-08-07T18:30:00",28.7,29.952602,0.291],
    [28787,"urn:WaterMeter:MC0203J22010600005","2024-08-07T18:45:00",28.6,29.971998,0.291],
    [28788,"urn:WaterMeter:MC0203J22010600005","2024-08-07T19:00:00",28.5,29.929367,0.272],
    [28789,"urn:WaterMeter:MC0203J22010600005","2024-08-07T19:15:00",28.399,29.948376,0.259],
    [28790,"urn:WaterMeter:MC0203J22010600005","2024-08-07T19:30:00",28.299,29.94217,0.268],
    [28791,"urn:WaterMeter:MC0203J22010600005","2024-08-07T19:45:00",28.2,29.873123,0.271],
    [28792,"urn:WaterMeter:MC0203J22010600005","2024-08-07T20:00:00",28.1,29.887863,0.26],
    [28793,"urn:WaterMeter:MC0203J22010600005","2024-08-07T20:15:00",28,29.907646,0.269],
    [28794,"urn:WaterMeter:MC0203J22010600005","2024-08-07T20:30:00",28,29.900663,0.262],
    [28795,"urn:WaterMeter:MC0203J22010600005","2024-08-07T20:45:00",27.899,29.857956,0.256],
    [28796,"urn:WaterMeter:MC0203J22010600005","2024-08-07T21:00:00",27.799,29.856792,0.264],
    [28797,"urn:WaterMeter:MC0203J22010600005","2024-08-07T21:15:00",27.799,29.861485,0.263],
    [28798,"urn:WaterMeter:MC0203J22010600005","2024-08-07T21:30:00",27.7,29.8277,0.273],
    [28799,"urn:WaterMeter:MC0203J22010600005","2024-08-07T21:45:00",27.6,29.837397,0.261],
    [28800,"urn:WaterMeter:MC0203J22010600005","2024-08-07T22:00:00",27.5,29.832005,0.259],
    [28801,"urn:WaterMeter:MC0203J22010600005","2024-08-07T22:15:00",27.399,29.808693,0.274],
    [28802,"urn:WaterMeter:MC0203J22010600005","2024-08-07T22:30:00",27.299,29.786232,0.259],
    [28803,"urn:WaterMeter:MC0203J22010600005","2024-08-07T22:45:00",27.2,29.81998,0.255],
    [28804,"urn:WaterMeter:MC0203J22010600005","2024-08-07T23:00:00",27.1,29.785458,0.263],
    [28805,"urn:WaterMeter:MC0203J22010600005","2024-08-07T23:15:00",27.1,29.784681,0.259],
    [28806,"urn:WaterMeter:MC0203J22010600005","2024-08-07T23:30:00",27,29.7796,0.259],
    [28807,"urn:WaterMeter:MC0203J22010600005","2024-08-07T23:45:00",26.899,29.793602,0.264],
    [28808,"urn:WaterMeter:MC0203J22010600005","2024-08-08T00:00:00",26.799,29.768002,0.26],
    [28809,"urn:WaterMeter:MC0203J22010600005","2024-08-08T00:15:00",26.7,29.785458,0.261],
    [28810,"urn:WaterMeter:MC0203J22010600005","2024-08-08T00:30:00",26.6,29.778437,0.258],
    [28811,"urn:WaterMeter:MC0203J22010600005","2024-08-08T00:45:00",26.5,29.777271,0.261],
    [28812,"urn:WaterMeter:MC0203J22010600005","2024-08-08T01:00:00",26.399,29.752485,0.28],
    [28813,"urn:WaterMeter:MC0203J22010600005","2024-08-08T01:15:00",26.299,29.773045,0.259],
    [28814,"urn:WaterMeter:MC0203J22010600005","2024-08-08T01:30:00",26.299,29.715635,0.262],
    [28815,"urn:WaterMeter:MC0203J22010600005","2024-08-08T01:45:00",26.2,29.774984,0.27],
    [28816,"urn:WaterMeter:MC0203J22010600005","2024-08-08T02:00:00",26.1,29.758265,0.264],
    [28817,"urn:WaterMeter:MC0203J22010600005","2024-08-08T02:15:00",26,29.748995,0.247],
    [28818,"urn:WaterMeter:MC0203J22010600005","2024-08-08T02:30:00",26,29.756752,0.283],
    [28819,"urn:WaterMeter:MC0203J22010600005","2024-08-08T02:45:00",25.899,29.748606,0.259],
    [28820,"urn:WaterMeter:MC0203J22010600005","2024-08-08T03:00:00",25.799,29.730375,0.251],
    [28821,"urn:WaterMeter:MC0203J22010600005","2024-08-08T03:15:00",25.7,29.70361,0.253],
    [28822,"urn:WaterMeter:MC0203J22010600005","2024-08-08T03:30:00",25.6,29.691586,0.25],
    [28823,"urn:WaterMeter:MC0203J22010600005","2024-08-08T03:45:00",25.5,29.687706,0.269],
    [28824,"urn:WaterMeter:MC0203J22010600005","2024-08-08T04:00:00",25.399,29.69818,0.248],
    [28825,"urn:WaterMeter:MC0203J22010600005","2024-08-08T04:15:00",25.299,29.707876,0.266],
    [28826,"urn:WaterMeter:MC0203J22010600005","2024-08-08T04:30:00",25.2,29.690422,0.267],
    [28827,"urn:WaterMeter:MC0203J22010600005","2024-08-08T04:45:00",25.1,29.685379,0.266],
    [28828,"urn:WaterMeter:MC0203J22010600005","2024-08-08T05:00:00",25.1,29.691586,0.257],
    [28829,"urn:WaterMeter:MC0203J22010600005","2024-08-08T05:15:00",25.1,29.674906,0.266],
    [28830,"urn:WaterMeter:MC0203J22010600005","2024-08-08T05:30:00",25.2,29.789297,0.256],
    [28831,"urn:WaterMeter:MC0203J22010600005","2024-08-08T05:45:00",25.2,30.138796,0.288],
    [28832,"urn:WaterMeter:MC0203J22010600005","2024-08-08T06:00:00",25.2,30.666765,0.272],
    [28833,"urn:WaterMeter:MC0203J22010600005","2024-08-08T06:15:00",25.299,31.228832,0.297],
    [28834,"urn:WaterMeter:MC0203J22010600005","2024-08-08T06:30:00",25.399,31.56394,0.289],
    [28835,"urn:WaterMeter:MC0203J22010600005","2024-08-08T06:45:00",25.399,31.723793,0.292],
    [28836,"urn:WaterMeter:MC0203J22010600005","2024-08-08T07:00:00",25.399,31.910723,0.295],
    [28837,"urn:WaterMeter:MC0203J22010600005","2024-08-08T07:15:00",25.6,32.011616,0.303],
    [28838,"urn:WaterMeter:MC0203J22010600005","2024-08-08T07:30:00",25.7,32.124844,0.295],
    [28839,"urn:WaterMeter:MC0203J22010600005","2024-08-08T07:45:00",25.799,32.22337,0.315],
    [28840,"urn:WaterMeter:MC0203J22010600005","2024-08-08T08:00:00",25.899,32.27147,0.292],
    [28841,"urn:WaterMeter:MC0203J22010600005","2024-08-08T08:15:00",26.1,32.08299,0.276],
    [28842,"urn:WaterMeter:MC0203J22010600005","2024-08-08T08:30:00",26.2,31.849085,0.288],
    [28843,"urn:WaterMeter:MC0203J22010600005","2024-08-08T08:45:00",26.299,31.770342,0.281],
    [28844,"urn:WaterMeter:MC0203J22010600005","2024-08-08T09:00:00",26.399,31.705563,0.28],
    [28845,"urn:WaterMeter:MC0203J22010600005","2024-08-08T09:15:00",26.6,31.580658,0.281],
    [28846,"urn:WaterMeter:MC0203J22010600005","2024-08-08T09:30:00",26.7,31.532946,0.277],
    [28847,"urn:WaterMeter:MC0203J22010600005","2024-08-08T09:45:00",26.799,31.446018,0.275],
    [28848,"urn:WaterMeter:MC0203J22010600005","2024-08-08T10:00:00",27,31.420843,0.281],
    [28849,"urn:WaterMeter:MC0203J22010600005","2024-08-08T10:15:00",27.1,31.396017,0.275],
    [28850,"urn:WaterMeter:MC0203J22010600005","2024-08-08T10:30:00",27.299,31.320765,0.282],
    [28851,"urn:WaterMeter:MC0203J22010600005","2024-08-08T10:45:00",27.5,31.252068,0.295],
    [28852,"urn:WaterMeter:MC0203J22010600005","2024-08-08T11:00:00",27.7,31.201292,0.287],
    [28853,"urn:WaterMeter:MC0203J22010600005","2024-08-08T11:15:00",28,31.124487,0.316],
    [28854,"urn:WaterMeter:MC0203J22010600005","2024-08-08T11:30:00",28.1,31.09423,0.29],
    [28855,"urn:WaterMeter:MC0203J22010600005","2024-08-08T11:45:00",28.299,31.086086,0.27],
    [28856,"urn:WaterMeter:MC0203J22010600005","2024-08-08T12:00:00",28.399,31.004238,0.271],
    [28857,"urn:WaterMeter:MC0203J22010600005","2024-08-08T12:15:00",28.5,30.966225,0.267],
    [28858,"urn:WaterMeter:MC0203J22010600005","2024-08-08T12:30:00",28.6,30.927046,0.272],
    [28859,"urn:WaterMeter:MC0203J22010600005","2024-08-08T12:45:00",28.7,30.87274,0.263],
    [28860,"urn:WaterMeter:MC0203J22010600005","2024-08-08T13:00:00",28.799,30.818008,0.267],
    [28861,"urn:WaterMeter:MC0203J22010600005","2024-08-08T13:15:00",28.899,30.759823,0.268],
    [28862,"urn:WaterMeter:MC0203J22010600005","2024-08-08T13:30:00",28.899,30.702452,0.275],
    [28863,"urn:WaterMeter:MC0203J22010600005","2024-08-08T13:45:00",29.1,30.677628,0.27],
    [28864,"urn:WaterMeter:MC0203J22010600005","2024-08-08T14:00:00",29.1,30.609356,0.274],
    [28865,"urn:WaterMeter:MC0203J22010600005","2024-08-08T14:15:00",29.1,30.569403,0.271],
    [28866,"urn:WaterMeter:MC0203J22010600005","2024-08-08T14:30:00",29.2,30.5182,0.277],
    [28867,"urn:WaterMeter:MC0203J22010600005","2024-08-08T14:45:00",29.2,30.521303,0.285],
    [28868,"urn:WaterMeter:MC0203J22010600005","2024-08-08T15:00:00",29.2,30.475492,0.271],
    [28869,"urn:WaterMeter:MC0203J22010600005","2024-08-08T15:15:00",29.2,30.39985,0.284],
    [28870,"urn:WaterMeter:MC0203J22010600005","2024-08-08T15:30:00",29.2,30.364204,0.268],
    [28871,"urn:WaterMeter:MC0203J22010600005","2024-08-08T15:45:00",29.2,30.319983,0.278],
    [28872,"urn:WaterMeter:MC0203J22010600005","2024-08-08T16:00:00",29.1,30.310286,0.267],
    [28873,"urn:WaterMeter:MC0203J22010600005","2024-08-08T16:15:00",29.1,30.26141,0.271],
    [28874,"urn:WaterMeter:MC0203J22010600005","2024-08-08T16:30:00",29.1,30.22646,0.27],
    [28875,"urn:WaterMeter:MC0203J22010600005","2024-08-08T16:45:00",29,30.191587,0.27],
    [28876,"urn:WaterMeter:MC0203J22010600005","2024-08-08T17:00:00",28.899,30.165173,0.28],
    [28877,"urn:WaterMeter:MC0203J22010600005","2024-08-08T17:15:00",28.899,30.152798,0.274],
    [28878,"urn:WaterMeter:MC0203J22010600005","2024-08-08T17:30:00",28.799,30.090307,0.277],
    [28879,"urn:WaterMeter:MC0203J22010600005","2024-08-08T17:45:00",28.799,30.080221,0.278],
    [28880,"urn:WaterMeter:MC0203J22010600005","2024-08-08T18:00:00",28.7,30.080221,0.263],
    [28881,"urn:WaterMeter:MC0203J22010600005","2024-08-08T18:15:00",28.6,30.077158,0.259],
    [28882,"urn:WaterMeter:MC0203J22010600005","2024-08-08T18:30:00",28.5,30.022425,0.274],
    [28883,"urn:WaterMeter:MC0203J22010600005","2024-08-08T18:45:00",28.299,30.043411,0.267],
    [28884,"urn:WaterMeter:MC0203J22010600005","2024-08-08T19:00:00",28.2,30.039532,0.267],
    [28885,"urn:WaterMeter:MC0203J22010600005","2024-08-08T19:15:00",28.1,30.006172,0.265],
    [28886,"urn:WaterMeter:MC0203J22010600005","2024-08-08T19:30:00",28,29.986776,0.258],
    [28887,"urn:WaterMeter:MC0203J22010600005","2024-08-08T19:45:00",27.899,29.983635,0.278],
    [28888,"urn:WaterMeter:MC0203J22010600005","2024-08-08T20:00:00",27.799,29.985226,0.274],
    [28889,"urn:WaterMeter:MC0203J22010600005","2024-08-08T20:15:00",27.6,29.971998,0.269],
    [28890,"urn:WaterMeter:MC0203J22010600005","2024-08-08T20:30:00",27.5,29.942944,0.265],
    [28891,"urn:WaterMeter:MC0203J22010600005","2024-08-08T20:45:00",27.399,29.97708,0.259],
    [28892,"urn:WaterMeter:MC0203J22010600005","2024-08-08T21:00:00",27.299,29.961176,0.253],
    [28893,"urn:WaterMeter:MC0203J22010600005","2024-08-08T21:15:00",27.2,29.941393,0.277],
    [28894,"urn:WaterMeter:MC0203J22010600005","2024-08-08T21:30:00",27.1,29.966606,0.256],
    [28895,"urn:WaterMeter:MC0203J22010600005","2024-08-08T21:45:00",26.899,29.9476,0.269],
    [28896,"urn:WaterMeter:MC0203J22010600005","2024-08-08T22:00:00",26.799,29.919283,0.247],
    [28897,"urn:WaterMeter:MC0203J22010600005","2024-08-08T22:15:00",26.7,29.91614,0.257],
    [28898,"urn:WaterMeter:MC0203J22010600005","2024-08-08T22:30:00",26.6,29.896357,0.26],
    [28899,"urn:WaterMeter:MC0203J22010600005","2024-08-08T22:45:00",26.5,29.92704,0.263],
    [28900,"urn:WaterMeter:MC0203J22010600005","2024-08-08T23:00:00",26.399,29.934372,0.26],
    [28901,"urn:WaterMeter:MC0203J22010600005","2024-08-08T23:15:00",26.399,29.902603,0.259],
    [28902,"urn:WaterMeter:MC0203J22010600005","2024-08-08T23:30:00",26.299,29.890966,0.255],
    [28903,"urn:WaterMeter:MC0203J22010600005","2024-08-08T23:45:00",26.2,29.876575,0.258],
    [28904,"urn:WaterMeter:MC0203J22010600005","2024-08-09T00:00:00",26.1,29.872734,0.267],
    [28905,"urn:WaterMeter:MC0203J22010600005","2024-08-09T00:15:00",26,29.83701,0.259],
    [28906,"urn:WaterMeter:MC0203J22010600005","2024-08-09T00:30:00",25.899,29.861874,0.262],
    [28907,"urn:WaterMeter:MC0203J22010600005","2024-08-09T00:45:00",25.799,29.86614,0.258],
    [28908,"urn:WaterMeter:MC0203J22010600005","2024-08-09T01:00:00",25.7,29.856792,0.268],
    [28909,"urn:WaterMeter:MC0203J22010600005","2024-08-09T01:15:00",25.6,29.83856,0.259],
    [28910,"urn:WaterMeter:MC0203J22010600005","2024-08-09T01:30:00",25.6,29.831228,0.245],
    [28911,"urn:WaterMeter:MC0203J22010600005","2024-08-09T01:45:00",25.5,29.815714,0.275],
    [28912,"urn:WaterMeter:MC0203J22010600005","2024-08-09T02:00:00",25.399,29.831228,0.264],
    [28913,"urn:WaterMeter:MC0203J22010600005","2024-08-09T02:15:00",25.299,29.823084,0.267],
    [28914,"urn:WaterMeter:MC0203J22010600005","2024-08-09T02:30:00",25.2,29.804852,0.258],
    [28915,"urn:WaterMeter:MC0203J22010600005","2024-08-09T02:45:00",25.1,29.819553,0.263],
    [28916,"urn:WaterMeter:MC0203J22010600005","2024-08-09T03:00:00",25,29.833557,0.26],
    [28917,"urn:WaterMeter:MC0203J22010600005","2024-08-09T03:15:00",24.799,29.799383,0.26],
    [28918,"urn:WaterMeter:MC0203J22010600005","2024-08-09T03:30:00",24.799,29.79593,0.251],
    [28919,"urn:WaterMeter:MC0203J22010600005","2024-08-09T03:45:00",24.7,29.812222,0.256],
    [28920,"urn:WaterMeter:MC0203J22010600005","2024-08-09T04:00:00",24.6,29.813774,0.255],
    [28921,"urn:WaterMeter:MC0203J22010600005","2024-08-09T04:15:00",24.5,29.819553,0.257],
    [28922,"urn:WaterMeter:MC0203J22010600005","2024-08-09T04:30:00",24.399,29.753262,0.258],
    [28923,"urn:WaterMeter:MC0203J22010600005","2024-08-09T04:45:00",24.299,29.774595,0.254],
    [28924,"urn:WaterMeter:MC0203J22010600005","2024-08-09T05:00:00",24.299,29.762571,0.25],
    [28925,"urn:WaterMeter:MC0203J22010600005","2024-08-09T05:15:00",24.299,29.746279,0.249],
    [28926,"urn:WaterMeter:MC0203J22010600005","2024-08-09T05:30:00",24.299,29.887049,0.272],
    [28927,"urn:WaterMeter:MC0203J22010600005","2024-08-09T05:45:00",24.299,30.235382,0.265],
    [28928,"urn:WaterMeter:MC0203J22010600005","2024-08-09T06:00:00",24.299,30.772274,0.277],
    [28929,"urn:WaterMeter:MC0203J22010600005","2024-08-09T06:15:00",24.399,31.364986,0.302],
    [28930,"urn:WaterMeter:MC0203J22010600005","2024-08-09T06:30:00",24.399,31.771116,0.291],
    [28931,"urn:WaterMeter:MC0203J22010600005","2024-08-09T06:45:00",24.5,32.00886,0.286],
    [28932,"urn:WaterMeter:MC0203J22010600005","2024-08-09T07:00:00",24.6,32.094627,0.302],
    [28933,"urn:WaterMeter:MC0203J22010600005","2024-08-09T07:15:00",24.7,32.298622,0.313],
    [28934,"urn:WaterMeter:MC0203J22010600005","2024-08-09T07:30:00",24.799,32.360725,0.302],
    [28935,"urn:WaterMeter:MC0203J22010600005","2024-08-09T07:45:00",24.899,32.503086,0.295],
    [28936,"urn:WaterMeter:MC0203J22010600005","2024-08-09T08:00:00",25,32.560493,0.306],
    [28937,"urn:WaterMeter:MC0203J22010600005","2024-08-09T08:15:00",25.2,32.35103,0.319],
    [28938,"urn:WaterMeter:MC0203J22010600005","2024-08-09T08:30:00",25.399,32.065884,0.283],
    [28939,"urn:WaterMeter:MC0203J22010600005","2024-08-09T08:45:00",25.5,31.879728,0.283],
    [28940,"urn:WaterMeter:MC0203J22010600005","2024-08-09T09:00:00",25.6,31.804089,0.286],
    [28941,"urn:WaterMeter:MC0203J22010600005","2024-08-09T09:15:00",25.799,31.75405,0.285],
    [28942,"urn:WaterMeter:MC0203J22010600005","2024-08-09T09:30:00",26,31.72806,0.29],
    [28943,"urn:WaterMeter:MC0203J22010600005","2024-08-09T09:45:00",26.2,31.638067,0.276],
    [28944,"urn:WaterMeter:MC0203J22010600005","2024-08-09T10:00:00",26.299,31.5729,0.278],
    [28945,"urn:WaterMeter:MC0203J22010600005","2024-08-09T10:15:00",26.5,31.529455,0.286],
    [28946,"urn:WaterMeter:MC0203J22010600005","2024-08-09T10:30:00",26.7,31.508896,0.289],
    [28947,"urn:WaterMeter:MC0203J22010600005","2024-08-09T10:45:00",26.899,31.434807,0.293],
    [28948,"urn:WaterMeter:MC0203J22010600005","2024-08-09T11:00:00",27.1,31.354124,0.271],
    [28949,"urn:WaterMeter:MC0203J22010600005","2024-08-09T11:15:00",27.399,31.29594,0.275],
    [28950,"urn:WaterMeter:MC0203J22010600005","2024-08-09T11:30:00",27.6,31.294388,0.303],
    [28951,"urn:WaterMeter:MC0203J22010600005","2024-08-09T11:45:00",27.799,31.235388,0.258],
    [28952,"urn:WaterMeter:MC0203J22010600005","2024-08-09T12:00:00",27.899,31.153193,0.272],
    [28953,"urn:WaterMeter:MC0203J22010600005","2024-08-09T12:15:00",28,31.124487,0.276],
    [28954,"urn:WaterMeter:MC0203J22010600005","2024-08-09T12:30:00",28.2,31.090353,0.288],
    [28955,"urn:WaterMeter:MC0203J22010600005","2024-08-09T12:45:00",28.299,31.005014,0.304],
    [28956,"urn:WaterMeter:MC0203J22010600005","2024-08-09T13:00:00",28.399,30.967001,0.27],
    [28957,"urn:WaterMeter:MC0203J22010600005","2024-08-09T13:15:00",28.5,30.928211,0.262],
    [28958,"urn:WaterMeter:MC0203J22010600005","2024-08-09T13:30:00",28.6,30.878172,0.272],
    [28959,"urn:WaterMeter:MC0203J22010600005","2024-08-09T13:45:00",28.7,30.81533,0.272],
    [28960,"urn:WaterMeter:MC0203J22010600005","2024-08-09T14:00:00",28.799,30.769133,0.269],
    [28961,"urn:WaterMeter:MC0203J22010600005","2024-08-09T14:15:00",28.899,30.731934,0.277],
    [28962,"urn:WaterMeter:MC0203J22010600005","2024-08-09T14:30:00",28.899,30.664825,0.271],
    [28963,"urn:WaterMeter:MC0203J22010600005","2024-08-09T14:45:00",28.899,30.638838,0.276],
    [28964,"urn:WaterMeter:MC0203J22010600005","2024-08-09T15:00:00",28.899,30.587246,0.257],
    [28965,"urn:WaterMeter:MC0203J22010600005","2024-08-09T15:15:00",28.899,30.574408,0.263],
    [28966,"urn:WaterMeter:MC0203J22010600005","2024-08-09T15:30:00",28.899,30.536005,0.266],
    [28967,"urn:WaterMeter:MC0203J22010600005","2024-08-09T15:45:00",28.899,30.498379,0.269],
    [28968,"urn:WaterMeter:MC0203J22010600005","2024-08-09T16:00:00",28.899,30.47941,0.278],
    [28969,"urn:WaterMeter:MC0203J22010600005","2024-08-09T16:15:00",28.799,30.428595,0.261],
    [28970,"urn:WaterMeter:MC0203J22010600005","2024-08-09T16:30:00",28.799,30.383987,0.28],
    [28971,"urn:WaterMeter:MC0203J22010600005","2024-08-09T16:45:00",28.7,30.361061,0.279],
    [28972,"urn:WaterMeter:MC0203J22010600005","2024-08-09T17:00:00",28.7,30.316492,0.267],
    [28973,"urn:WaterMeter:MC0203J22010600005","2024-08-09T17:15:00",28.6,30.305632,0.278],
    [28974,"urn:WaterMeter:MC0203J22010600005","2024-08-09T17:30:00",28.5,30.28003,0.268],
    [28975,"urn:WaterMeter:MC0203J22010600005","2024-08-09T17:45:00",28.399,30.261023,0.282],
    [28976,"urn:WaterMeter:MC0203J22010600005","2024-08-09T18:00:00",28.299,30.261799,0.256],
    [28977,"urn:WaterMeter:MC0203J22010600005","2024-08-09T18:15:00",28.2,30.18573,0.273],
    [28978,"urn:WaterMeter:MC0203J22010600005","2024-08-09T18:30:00",28.1,30.214087,0.301],
    [28979,"urn:WaterMeter:MC0203J22010600005","2024-08-09T18:45:00",28,30.177586,0.258],
    [28980,"urn:WaterMeter:MC0203J22010600005","2024-08-09T19:00:00",27.899,30.176073,0.273],
    [28981,"urn:WaterMeter:MC0203J22010600005","2024-08-09T19:15:00",27.799,30.152798,0.262],
    [28982,"urn:WaterMeter:MC0203J22010600005","2024-08-09T19:30:00",27.7,30.181114,0.264],
    [28983,"urn:WaterMeter:MC0203J22010600005","2024-08-09T19:45:00",27.6,30.120176,0.279],
    [28984,"urn:WaterMeter:MC0203J22010600005","2024-08-09T20:00:00",27.5,30.141161,0.25],
    [28985,"urn:WaterMeter:MC0203J22010600005","2024-08-09T20:15:00",27.399,30.115948,0.267],
    [28986,"urn:WaterMeter:MC0203J22010600005","2024-08-09T20:30:00",27.299,30.147717,0.262],
    [28987,"urn:WaterMeter:MC0203J22010600005","2024-08-09T20:45:00",27.2,30.110477,0.274],
    [28988,"urn:WaterMeter:MC0203J22010600005","2024-08-09T21:00:00",27.1,30.082975,0.263],
    [28989,"urn:WaterMeter:MC0203J22010600005","2024-08-09T21:15:00",27,30.085691,0.26],
    [28990,"urn:WaterMeter:MC0203J22010600005","2024-08-09T21:30:00",26.799,30.089144,0.276],
    [28991,"urn:WaterMeter:MC0203J22010600005","2024-08-09T21:45:00",26.7,30.090307,0.269],
    [28992,"urn:WaterMeter:MC0203J22010600005","2024-08-09T22:00:00",26.6,30.092674,0.262],
    [28993,"urn:WaterMeter:MC0203J22010600005","2024-08-09T22:15:00",26.399,30.045738,0.268],
    [28994,"urn:WaterMeter:MC0203J22010600005","2024-08-09T22:30:00",26.299,30.058538,0.26],
    [28995,"urn:WaterMeter:MC0203J22010600005","2024-08-09T22:45:00",26.2,30.040308,0.278],
    [28996,"urn:WaterMeter:MC0203J22010600005","2024-08-09T23:00:00",26.1,30.065132,0.257],
    [28997,"urn:WaterMeter:MC0203J22010600005","2024-08-09T23:15:00",26,30.027119,0.263],
    [28998,"urn:WaterMeter:MC0203J22010600005","2024-08-09T23:30:00",25.899,30.03604,0.27],
    [28999,"urn:WaterMeter:MC0203J22010600005","2024-08-09T23:45:00",25.799,30.04182,0.269],
    [29000,"urn:WaterMeter:MC0203J22010600005","2024-08-10T00:00:00",25.799,30.038755,0.249],
    [29001,"urn:WaterMeter:MC0203J22010600005","2024-08-10T00:15:00",25.7,30.022814,0.269],
    [29002,"urn:WaterMeter:MC0203J22010600005","2024-08-10T00:30:00",25.6,30.018972,0.263],
    [29003,"urn:WaterMeter:MC0203J22010600005","2024-08-10T00:45:00",25.5,30.030958,0.273],
    [29004,"urn:WaterMeter:MC0203J22010600005","2024-08-10T01:00:00",25.399,30.023628,0.254],
    [29005,"urn:WaterMeter:MC0203J22010600005","2024-08-10T01:15:00",25.399,29.981735,0.258],
    [29006,"urn:WaterMeter:MC0203J22010600005","2024-08-10T01:30:00",25.299,30.020525,0.263],
    [29007,"urn:WaterMeter:MC0203J22010600005","2024-08-10T01:45:00",25.2,30.008888,0.25],
    [29008,"urn:WaterMeter:MC0203J22010600005","2024-08-10T02:00:00",25.1,30.009275,0.256],
    [29009,"urn:WaterMeter:MC0203J22010600005","2024-08-10T02:15:00",25,29.953379,0.258],
    [29010,"urn:WaterMeter:MC0203J22010600005","2024-08-10T02:30:00",24.899,29.966606,0.256],
    [29011,"urn:WaterMeter:MC0203J22010600005","2024-08-10T02:45:00",24.899,29.968159,0.258],
    [29012,"urn:WaterMeter:MC0203J22010600005","2024-08-10T03:00:00",24.799,29.95846,0.27],
    [29013,"urn:WaterMeter:MC0203J22010600005","2024-08-10T03:15:00",24.7,29.958849,0.265],
    [29014,"urn:WaterMeter:MC0203J22010600005","2024-08-10T03:30:00",24.6,29.947987,0.264],
    [29015,"urn:WaterMeter:MC0203J22010600005","2024-08-10T03:45:00",24.5,29.94954,0.273],
    [29016,"urn:WaterMeter:MC0203J22010600005","2024-08-10T04:00:00",24.399,29.926226,0.261],
    [29017,"urn:WaterMeter:MC0203J22010600005","2024-08-10T04:15:00",24.299,29.944845,0.256],
    [29018,"urn:WaterMeter:MC0203J22010600005","2024-08-10T04:30:00",24.299,29.935148,0.277],
    [29019,"urn:WaterMeter:MC0203J22010600005","2024-08-10T04:45:00",24.299,29.90144,0.255],
    [29020,"urn:WaterMeter:MC0203J22010600005","2024-08-10T05:00:00",24.299,29.86963,0.25],
    [29021,"urn:WaterMeter:MC0203J22010600005","2024-08-10T05:15:00",24.2,29.889803,0.266],
    [29022,"urn:WaterMeter:MC0203J22010600005","2024-08-10T05:30:00",24.2,29.904154,0.285],
    [29023,"urn:WaterMeter:MC0203J22010600005","2024-08-10T05:45:00",24.2,29.86226,0.255],
    [29024,"urn:WaterMeter:MC0203J22010600005","2024-08-10T06:00:00",24.1,29.835457,0.261],
    [29025,"urn:WaterMeter:MC0203J22010600005","2024-08-10T06:15:00",24.1,29.898724,0.247],
    [29026,"urn:WaterMeter:MC0203J22010600005","2024-08-10T06:30:00",24.1,29.84403,0.254],
    [29027,"urn:WaterMeter:MC0203J22010600005","2024-08-10T06:45:00",24.1,29.824247,0.263],
    [29028,"urn:WaterMeter:MC0203J22010600005","2024-08-10T07:00:00",24.1,29.849848,0.246],
    [29029,"urn:WaterMeter:MC0203J22010600005","2024-08-10T07:15:00",24.2,29.892517,0.25],
    [29030,"urn:WaterMeter:MC0203J22010600005","2024-08-10T07:30:00",24.299,29.87002,0.264],
    [29031,"urn:WaterMeter:MC0203J22010600005","2024-08-10T07:45:00",24.5,29.83662,0.261],
    [29032,"urn:WaterMeter:MC0203J22010600005","2024-08-10T08:00:00",24.7,29.787395,0.248],
    [29033,"urn:WaterMeter:MC0203J22010600005","2024-08-10T08:15:00",24.899,29.765675,0.247],
    [29034,"urn:WaterMeter:MC0203J22010600005","2024-08-10T08:30:00",25.1,29.723392,0.252],
    [29035,"urn:WaterMeter:MC0203J22010600005","2024-08-10T08:45:00",25.299,29.697016,0.244],
    [29036,"urn:WaterMeter:MC0203J22010600005","2024-08-10T09:00:00",25.6,29.662455,0.251],
    [29037,"urn:WaterMeter:MC0203J22010600005","2024-08-10T09:15:00",25.799,29.62991,0.249],
    [29038,"urn:WaterMeter:MC0203J22010600005","2024-08-10T09:30:00",25.899,29.539917,0.246],
    [29039,"urn:WaterMeter:MC0203J22010600005","2024-08-10T09:45:00",26.1,29.472809,0.25],
    [29040,"urn:WaterMeter:MC0203J22010600005","2024-08-10T10:00:00",26.299,29.454191,0.244],
    [29041,"urn:WaterMeter:MC0203J22010600005","2024-08-10T10:15:00",26.5,29.425486,0.241],
    [29042,"urn:WaterMeter:MC0203J22010600005","2024-08-10T10:30:00",26.7,29.397556,0.246],
    [29043,"urn:WaterMeter:MC0203J22010600005","2024-08-10T10:45:00",26.899,29.348682,0.25],
    [29044,"urn:WaterMeter:MC0203J22010600005","2024-08-10T11:00:00",27.1,29.23654,0.239],
    [29045,"urn:WaterMeter:MC0203J22010600005","2024-08-10T11:15:00",27.399,29.212141,0.232],
    [29046,"urn:WaterMeter:MC0203J22010600005","2024-08-10T11:30:00",27.6,29.128742,0.248],
    [29047,"urn:WaterMeter:MC0203J22010600005","2024-08-10T11:45:00",27.799,29.091852,0.238],
    [29048,"urn:WaterMeter:MC0203J22010600005","2024-08-10T12:00:00",27.899,29.05737,0.237],
    [29049,"urn:WaterMeter:MC0203J22010600005","2024-08-10T12:15:00",28,28.972418,0.228],
    [29050,"urn:WaterMeter:MC0203J22010600005","2024-08-10T12:30:00",28.1,28.943676,0.249],
    [29051,"urn:WaterMeter:MC0203J22010600005","2024-08-10T12:45:00",28.2,28.88902,0.238],
    [29052,"urn:WaterMeter:MC0203J22010600005","2024-08-10T13:00:00",28.299,28.827305,0.249],
    [29053,"urn:WaterMeter:MC0203J22010600005","2024-08-10T13:15:00",28.399,28.78584,0.231],
    [29054,"urn:WaterMeter:MC0203J22010600005","2024-08-10T13:30:00",28.5,28.724937,0.229],
    [29055,"urn:WaterMeter:MC0203J22010600005","2024-08-10T13:45:00",28.6,28.696234,0.227],
    [29056,"urn:WaterMeter:MC0203J22010600005","2024-08-10T14:00:00",28.6,28.598095,0.226],
    [29057,"urn:WaterMeter:MC0203J22010600005","2024-08-10T14:15:00",28.7,28.550383,0.229],
    [29058,"urn:WaterMeter:MC0203J22010600005","2024-08-10T14:30:00",28.7,28.497202,0.241],
    [29059,"urn:WaterMeter:MC0203J22010600005","2024-08-10T14:45:00",28.7,28.45496,0.252],
    [29060,"urn:WaterMeter:MC0203J22010600005","2024-08-10T15:00:00",28.799,28.400616,0.248],
    [29061,"urn:WaterMeter:MC0203J22010600005","2024-08-10T15:15:00",28.799,28.3607,0.238],
    [29062,"urn:WaterMeter:MC0203J22010600005","2024-08-10T15:30:00",28.799,28.357597,0.232],
    [29063,"urn:WaterMeter:MC0203J22010600005","2024-08-10T15:45:00",28.799,28.255192,0.233],
    [29064,"urn:WaterMeter:MC0203J22010600005","2024-08-10T16:00:00",28.799,28.231918,0.225],
    [29065,"urn:WaterMeter:MC0203J22010600005","2024-08-10T16:15:00",28.799,28.202826,0.233],
    [29066,"urn:WaterMeter:MC0203J22010600005","2024-08-10T16:30:00",28.7,28.145416,0.221],
    [29067,"urn:WaterMeter:MC0203J22010600005","2024-08-10T16:45:00",28.7,28.145803,0.229],
    [29068,"urn:WaterMeter:MC0203J22010600005","2024-08-10T17:00:00",28.6,28.074818,0.204],
    [29069,"urn:WaterMeter:MC0203J22010600005","2024-08-10T17:15:00",28.6,28.059301,0.231],
    [29070,"urn:WaterMeter:MC0203J22010600005","2024-08-10T17:30:00",28.5,28.018185,0.225],
    [29071,"urn:WaterMeter:MC0203J22010600005","2024-08-10T17:45:00",28.5,28.015818,0.233],
    [29072,"urn:WaterMeter:MC0203J22010600005","2024-08-10T18:00:00",28.399,27.980946,0.227],
    [29073,"urn:WaterMeter:MC0203J22010600005","2024-08-10T18:15:00",28.299,27.930132,0.227],
    [29074,"urn:WaterMeter:MC0203J22010600005","2024-08-10T18:30:00",28.2,27.913063,0.233],
    [29075,"urn:WaterMeter:MC0203J22010600005","2024-08-10T18:45:00",28.2,27.916128,0.24],
    [29076,"urn:WaterMeter:MC0203J22010600005","2024-08-10T19:00:00",28.1,27.9247,0.232],
    [29077,"urn:WaterMeter:MC0203J22010600005","2024-08-10T19:15:00",28,27.894833,0.226],
    [29078,"urn:WaterMeter:MC0203J22010600005","2024-08-10T19:30:00",27.899,27.836647,0.219],
    [29079,"urn:WaterMeter:MC0203J22010600005","2024-08-10T19:45:00",27.799,27.858332,0.22],
    [29080,"urn:WaterMeter:MC0203J22010600005","2024-08-10T20:00:00",27.7,27.857943,0.235],
    [29081,"urn:WaterMeter:MC0203J22010600005","2024-08-10T20:15:00",27.6,27.815313,0.224],
    [29082,"urn:WaterMeter:MC0203J22010600005","2024-08-10T20:30:00",27.5,27.84518,0.224],
    [29083,"urn:WaterMeter:MC0203J22010600005","2024-08-10T20:45:00",27.399,27.84941,0.233],
    [29084,"urn:WaterMeter:MC0203J22010600005","2024-08-10T21:00:00",27.299,27.82695,0.223],
    [29085,"urn:WaterMeter:MC0203J22010600005","2024-08-10T21:15:00",27.2,27.798244,0.244],
    [29086,"urn:WaterMeter:MC0203J22010600005","2024-08-10T21:30:00",27.1,27.831179,0.23],
    [29087,"urn:WaterMeter:MC0203J22010600005","2024-08-10T21:45:00",27,27.835096,0.221],
    [29088,"urn:WaterMeter:MC0203J22010600005","2024-08-10T22:00:00",26.899,27.826561,0.242],
    [29089,"urn:WaterMeter:MC0203J22010600005","2024-08-10T22:15:00",26.799,27.790487,0.234],
    [29090,"urn:WaterMeter:MC0203J22010600005","2024-08-10T22:30:00",26.6,27.815313,0.226],
    [29091,"urn:WaterMeter:MC0203J22010600005","2024-08-10T22:45:00",26.5,27.790874,0.23],
    [29092,"urn:WaterMeter:MC0203J22010600005","2024-08-10T23:00:00",26.399,27.821093,0.226],
    [29093,"urn:WaterMeter:MC0203J22010600005","2024-08-10T23:15:00",26.299,27.805227,0.232],
    [29094,"urn:WaterMeter:MC0203J22010600005","2024-08-10T23:30:00",26.2,27.774584,0.242],
    [29095,"urn:WaterMeter:MC0203J22010600005","2024-08-10T23:45:00",26.1,27.767601,0.22],
    [29096,"urn:WaterMeter:MC0203J22010600005","2024-08-11T00:00:00",26,27.787384,0.237],
    [29097,"urn:WaterMeter:MC0203J22010600005","2024-08-11T00:15:00",26,27.769154,0.222],
    [29098,"urn:WaterMeter:MC0203J22010600005","2024-08-11T00:30:00",25.899,27.740448,0.219],
    [29099,"urn:WaterMeter:MC0203J22010600005","2024-08-11T00:45:00",25.799,27.765661,0.22],
    [29100,"urn:WaterMeter:MC0203J22010600005","2024-08-11T01:00:00",25.799,27.751308,0.218],
    [29101,"urn:WaterMeter:MC0203J22010600005","2024-08-11T01:15:00",25.7,27.736568,0.22],
    [29102,"urn:WaterMeter:MC0203J22010600005","2024-08-11T01:30:00",25.7,27.722954,0.217],
    [29103,"urn:WaterMeter:MC0203J22010600005","2024-08-11T01:45:00",25.6,27.740797,0.221],
    [29104,"urn:WaterMeter:MC0203J22010600005","2024-08-11T02:00:00",25.5,27.715622,0.222],
    [29105,"urn:WaterMeter:MC0203J22010600005","2024-08-11T02:15:00",25.399,27.709805,0.236],
    [29106,"urn:WaterMeter:MC0203J22010600005","2024-08-11T02:30:00",25.299,27.735405,0.222],
    [29107,"urn:WaterMeter:MC0203J22010600005","2024-08-11T02:45:00",25.299,27.702784,0.219],
    [29108,"urn:WaterMeter:MC0203J22010600005","2024-08-11T03:00:00",25.1,27.697392,0.219],
    [29109,"urn:WaterMeter:MC0203J22010600005","2024-08-11T03:15:00",25.1,27.720665,0.22],
    [29110,"urn:WaterMeter:MC0203J22010600005","2024-08-11T03:30:00",25,27.68653,0.219],
    [29111,"urn:WaterMeter:MC0203J22010600005","2024-08-11T03:45:00",24.899,27.685715,0.228],
    [29112,"urn:WaterMeter:MC0203J22010600005","2024-08-11T04:00:00",24.899,27.714031,0.22],
    [29113,"urn:WaterMeter:MC0203J22010600005","2024-08-11T04:15:00",24.799,27.684551,0.223],
    [29114,"urn:WaterMeter:MC0203J22010600005","2024-08-11T04:30:00",24.7,27.673342,0.228],
    [29115,"urn:WaterMeter:MC0203J22010600005","2024-08-11T04:45:00",24.7,27.699331,0.219],
    [29116,"urn:WaterMeter:MC0203J22010600005","2024-08-11T05:00:00",24.6,27.683,0.214],
    [29117,"urn:WaterMeter:MC0203J22010600005","2024-08-11T05:15:00",24.5,27.640759,0.215],
    [29118,"urn:WaterMeter:MC0203J22010600005","2024-08-11T05:30:00",24.5,27.672565,0.219],
    [29119,"urn:WaterMeter:MC0203J22010600005","2024-08-11T05:45:00",24.399,27.637228,0.216],
    [29120,"urn:WaterMeter:MC0203J22010600005","2024-08-11T06:00:00",24.299,27.625591,0.235],
    [29121,"urn:WaterMeter:MC0203J22010600005","2024-08-11T06:15:00",24.299,27.612053,0.214],
    [29122,"urn:WaterMeter:MC0203J22010600005","2024-08-11T06:30:00",24.2,27.615156,0.227],
    [29123,"urn:WaterMeter:MC0203J22010600005","2024-08-11T06:45:00",24.2,27.578655,0.222],
    [29124,"urn:WaterMeter:MC0203J22010600005","2024-08-11T07:00:00",24.299,27.55926,0.215],
    [29125,"urn:WaterMeter:MC0203J22010600005","2024-08-11T07:15:00",24.299,27.596926,0.211],
    [29126,"urn:WaterMeter:MC0203J22010600005","2024-08-11T07:30:00",24.5,27.53874,0.216],
    [29127,"urn:WaterMeter:MC0203J22010600005","2024-08-11T07:45:00",24.6,27.517017,0.22],
    [29128,"urn:WaterMeter:MC0203J22010600005","2024-08-11T08:00:00",24.799,27.461897,0.215],
    [29129,"urn:WaterMeter:MC0203J22010600005","2024-08-11T08:15:00",25,27.452587,0.22],
    [29130,"urn:WaterMeter:MC0203J22010600005","2024-08-11T08:30:00",25.2,27.416552,0.218],
    [29131,"urn:WaterMeter:MC0203J22010600005","2024-08-11T08:45:00",25.5,27.327295,0.205],
    [29132,"urn:WaterMeter:MC0203J22010600005","2024-08-11T09:00:00",25.7,27.29126,0.204],
    [29133,"urn:WaterMeter:MC0203J22010600005","2024-08-11T09:15:00",25.899,27.228033,0.208],
    [29134,"urn:WaterMeter:MC0203J22010600005","2024-08-11T09:30:00",26.1,27.212904,0.213],
    [29135,"urn:WaterMeter:MC0203J22010600005","2024-08-11T09:45:00",26.299,27.147738,0.214],
    [29136,"urn:WaterMeter:MC0203J22010600005","2024-08-11T10:00:00",26.5,27.096146,0.209],
    [29137,"urn:WaterMeter:MC0203J22010600005","2024-08-11T10:15:00",26.7,27.034819,0.224],
    [29138,"urn:WaterMeter:MC0203J22010600005","2024-08-11T10:30:00",26.899,26.98478,0.205],
    [29139,"urn:WaterMeter:MC0203J22010600005","2024-08-11T10:45:00",27.2,26.93633,0.21],
    [29140,"urn:WaterMeter:MC0203J22010600005","2024-08-11T11:00:00",27.399,26.84789,0.211],
    [29141,"urn:WaterMeter:MC0203J22010600005","2024-08-11T11:15:00",27.7,26.757898,0.205],
    [29142,"urn:WaterMeter:MC0203J22010600005","2024-08-11T11:30:00",27.899,26.717943,0.203],
    [29143,"urn:WaterMeter:MC0203J22010600005","2024-08-11T11:45:00",28.1,26.652777,0.209],
    [29144,"urn:WaterMeter:MC0203J22010600005","2024-08-11T12:00:00",28.299,26.583342,0.203],
    [29145,"urn:WaterMeter:MC0203J22010600005","2024-08-11T12:15:00",28.399,26.523605,0.203],
    [29146,"urn:WaterMeter:MC0203J22010600005","2024-08-11T12:30:00",28.5,26.480122,0.21],
    [29147,"urn:WaterMeter:MC0203J22010600005","2024-08-11T12:45:00",28.6,26.437492,0.202],
    [29148,"urn:WaterMeter:MC0203J22010600005","2024-08-11T13:00:00",28.7,26.344007,0.203],
    [29149,"urn:WaterMeter:MC0203J22010600005","2024-08-11T13:15:00",28.799,26.283495,0.205],
    [29150,"urn:WaterMeter:MC0203J22010600005","2024-08-11T13:30:00",28.899,26.203976,0.205],
    [29151,"urn:WaterMeter:MC0203J22010600005","2024-08-11T13:45:00",29,26.151958,0.214],
    [29152,"urn:WaterMeter:MC0203J22010600005","2024-08-11T14:00:00",29.1,26.075155,0.206],
    [29153,"urn:WaterMeter:MC0203J22010600005","2024-08-11T14:15:00",29.1,26.006535,0.195],
    [29154,"urn:WaterMeter:MC0203J22010600005","2024-08-11T14:30:00",29.2,25.964254,0.197],
    [29155,"urn:WaterMeter:MC0203J22010600005","2024-08-11T14:45:00",29.2,25.915766,0.194],
    [29156,"urn:WaterMeter:MC0203J22010600005","2024-08-11T15:00:00",29.299,25.852112,0.194],
    [29157,"urn:WaterMeter:MC0203J22010600005","2024-08-11T15:15:00",29.299,25.7897,0.189],
    [29158,"urn:WaterMeter:MC0203J22010600005","2024-08-11T15:30:00",29.299,25.790087,0.196],
    [29159,"urn:WaterMeter:MC0203J22010600005","2024-08-11T15:45:00",29.299,25.681087,0.203],
    [29160,"urn:WaterMeter:MC0203J22010600005","2024-08-11T16:00:00",29.299,25.641521,0.194],
    [29161,"urn:WaterMeter:MC0203J22010600005","2024-08-11T16:15:00",29.299,25.625229,0.189],
    [29162,"urn:WaterMeter:MC0203J22010600005","2024-08-11T16:30:00",29.2,25.537563,0.204],
    [29163,"urn:WaterMeter:MC0203J22010600005","2024-08-11T16:45:00",29.2,25.519333,0.208],
    [29164,"urn:WaterMeter:MC0203J22010600005","2024-08-11T17:00:00",29.2,25.46076,0.202],
    [29165,"urn:WaterMeter:MC0203J22010600005","2024-08-11T17:15:00",29.2,25.437098,0.198],
    [29166,"urn:WaterMeter:MC0203J22010600005","2024-08-11T17:30:00",29.1,25.392101,0.199],
    [29167,"urn:WaterMeter:MC0203J22010600005","2024-08-11T17:45:00",29,25.364948,0.199],
    [29168,"urn:WaterMeter:MC0203J22010600005","2024-08-11T18:00:00",29,25.315685,0.196],
    [29169,"urn:WaterMeter:MC0203J22010600005","2024-08-11T18:15:00",28.899,25.297415,0.187],
    [29170,"urn:WaterMeter:MC0203J22010600005","2024-08-11T18:30:00",28.799,25.28155,0.196],
    [29171,"urn:WaterMeter:MC0203J22010600005","2024-08-11T18:45:00",28.7,25.233839,0.203],
    [29172,"urn:WaterMeter:MC0203J22010600005","2024-08-11T19:00:00",28.6,25.244312,0.189],
    [29173,"urn:WaterMeter:MC0203J22010600005","2024-08-11T19:15:00",28.5,25.241558,0.186],
    [29174,"urn:WaterMeter:MC0203J22010600005","2024-08-11T19:30:00",28.399,25.224916,0.184],
    [29175,"urn:WaterMeter:MC0203J22010600005","2024-08-11T19:45:00",28.299,25.190393,0.197],
    [29176,"urn:WaterMeter:MC0203J22010600005","2024-08-11T20:00:00",28.2,25.19078,0.19],
    [29177,"urn:WaterMeter:MC0203J22010600005","2024-08-11T20:15:00",28.1,25.198927,0.197],
    [29178,"urn:WaterMeter:MC0203J22010600005","2024-08-11T20:30:00",28.1,25.13919,0.188],
    [29179,"urn:WaterMeter:MC0203J22010600005","2024-08-11T20:45:00",28,25.149277,0.195],
    [29180,"urn:WaterMeter:MC0203J22010600005","2024-08-11T21:00:00",27.899,25.177593,0.195],
    [29181,"urn:WaterMeter:MC0203J22010600005","2024-08-11T21:15:00",27.799,25.121347,0.182],
    [29182,"urn:WaterMeter:MC0203J22010600005","2024-08-11T21:30:00",27.7,25.123636,0.185],
    [29183,"urn:WaterMeter:MC0203J22010600005","2024-08-11T21:45:00",27.6,25.077477,0.205],
    [29184,"urn:WaterMeter:MC0203J22010600005","2024-08-11T22:00:00",27.5,25.130657,0.192],
    [29185,"urn:WaterMeter:MC0203J22010600005","2024-08-11T22:15:00",27.399,25.112038,0.193],
    [29186,"urn:WaterMeter:MC0203J22010600005","2024-08-11T22:30:00",27.299,25.109322,0.199],
    [29187,"urn:WaterMeter:MC0203J22010600005","2024-08-11T22:45:00",27.2,25.125187,0.186],
    [29188,"urn:WaterMeter:MC0203J22010600005","2024-08-11T23:00:00",27,25.085234,0.187],
    [29189,"urn:WaterMeter:MC0203J22010600005","2024-08-11T23:15:00",26.899,25.127941,0.187],
    [29190,"urn:WaterMeter:MC0203J22010600005","2024-08-11T23:30:00",26.799,25.076313,0.197],
    [29191,"urn:WaterMeter:MC0203J22010600005","2024-08-11T23:45:00",26.7,25.11549,0.182],
    [29192,"urn:WaterMeter:MC0203J22010600005","2024-08-12T00:00:00",26.6,25.083334,0.187],
    [29193,"urn:WaterMeter:MC0203J22010600005","2024-08-12T00:15:00",26.5,25.099237,0.186],
    [29194,"urn:WaterMeter:MC0203J22010600005","2024-08-12T00:30:00",26.399,25.101564,0.198],
    [29195,"urn:WaterMeter:MC0203J22010600005","2024-08-12T00:45:00",26.299,25.09497,0.193],
    [29196,"urn:WaterMeter:MC0203J22010600005","2024-08-12T01:00:00",26.2,25.090704,0.194],
    [29197,"urn:WaterMeter:MC0203J22010600005","2024-08-12T01:15:00",26.1,25.07092,0.183],
    [29198,"urn:WaterMeter:MC0203J22010600005","2024-08-12T01:30:00",26.1,25.073635,0.189],
    [29199,"urn:WaterMeter:MC0203J22010600005","2024-08-12T01:45:00",26,25.040665,0.195],
    [29200,"urn:WaterMeter:MC0203J22010600005","2024-08-12T02:00:00",26,25.054628,0.183],
    [29201,"urn:WaterMeter:MC0203J22010600005","2024-08-12T02:15:00",25.899,25.072084,0.192],
    [29202,"urn:WaterMeter:MC0203J22010600005","2024-08-12T02:30:00",25.899,25.059284,0.184],
    [29203,"urn:WaterMeter:MC0203J22010600005","2024-08-12T02:45:00",25.799,25.042215,0.186],
    [29204,"urn:WaterMeter:MC0203J22010600005","2024-08-12T03:00:00",25.7,25.050749,0.17],
    [29205,"urn:WaterMeter:MC0203J22010600005","2024-08-12T03:15:00",25.6,25.042215,0.181],
    [29206,"urn:WaterMeter:MC0203J22010600005","2024-08-12T03:30:00",25.6,25.042215,0.19],
    [29207,"urn:WaterMeter:MC0203J22010600005","2024-08-12T03:45:00",25.5,25.006878,0.197],
    [29208,"urn:WaterMeter:MC0203J22010600005","2024-08-12T04:00:00",25.399,25.035234,0.196],
    [29209,"urn:WaterMeter:MC0203J22010600005","2024-08-12T04:15:00",25.399,25.061998,0.194],
    [29210,"urn:WaterMeter:MC0203J22010600005","2024-08-12T04:30:00",25.299,25.015062,0.182],
    [29211,"urn:WaterMeter:MC0203J22010600005","2024-08-12T04:45:00",25.2,25.029802,0.186],
    [29212,"urn:WaterMeter:MC0203J22010600005","2024-08-12T05:00:00",25.1,25.006102,0.192],
    [29213,"urn:WaterMeter:MC0203J22010600005","2024-08-12T05:15:00",25.2,24.843573,0.187],
    [29214,"urn:WaterMeter:MC0203J22010600005","2024-08-12T05:30:00",25.2,24.87503,0.185],
    [29215,"urn:WaterMeter:MC0203J22010600005","2024-08-12T05:45:00",25.299,24.868048,0.18],
    [29216,"urn:WaterMeter:MC0203J22010600005","2024-08-12T06:00:00",25.299,24.872665,0.18],
    [29217,"urn:WaterMeter:MC0203J22010600005","2024-08-12T06:15:00",25.299,24.835854,0.191],
    [29218,"urn:WaterMeter:MC0203J22010600005","2024-08-12T06:30:00",25.299,24.809475,0.181],
    [29219,"urn:WaterMeter:MC0203J22010600005","2024-08-12T06:45:00",25.299,24.946016,0.205],
    [29220,"urn:WaterMeter:MC0203J22010600005","2024-08-12T07:00:00",25.399,25.971235,0.22],
    [29221,"urn:WaterMeter:MC0203J22010600005","2024-08-12T07:15:00",25.5,27.57404,0.24],
    [29222,"urn:WaterMeter:MC0203J22010600005","2024-08-12T07:30:00",25.6,28.945227,0.239],
    [29223,"urn:WaterMeter:MC0203J22010600005","2024-08-12T07:45:00",25.799,29.882431,0.265],
    [29224,"urn:WaterMeter:MC0203J22010600005","2024-08-12T08:00:00",25.899,30.64194,0.267],
    [29225,"urn:WaterMeter:MC0203J22010600005","2024-08-12T08:15:00",26.1,30.800203,0.291],
    [29226,"urn:WaterMeter:MC0203J22010600005","2024-08-12T08:30:00",26.299,30.828907,0.27],
    [29227,"urn:WaterMeter:MC0203J22010600005","2024-08-12T08:45:00",26.399,30.873905,0.281],
    [29228,"urn:WaterMeter:MC0203J22010600005","2024-08-12T09:00:00",26.5,30.820374,0.264],
    [29229,"urn:WaterMeter:MC0203J22010600005","2024-08-12T09:15:00",26.7,30.822702,0.264],
    [29230,"urn:WaterMeter:MC0203J22010600005","2024-08-12T09:30:00",26.799,30.770334,0.254],
    [29231,"urn:WaterMeter:MC0203J22010600005","2024-08-12T09:45:00",27,30.753654,0.274],
    [29232,"urn:WaterMeter:MC0203J22010600005","2024-08-12T10:00:00",27.2,30.745121,0.27],
    [29233,"urn:WaterMeter:MC0203J22010600005","2024-08-12T10:15:00",27.399,30.694695,0.261],
    [29234,"urn:WaterMeter:MC0203J22010600005","2024-08-12T10:30:00",27.6,30.656292,0.259],
    [29235,"urn:WaterMeter:MC0203J22010600005","2024-08-12T10:45:00",27.799,30.620218,0.261],
    [29236,"urn:WaterMeter:MC0203J22010600005","2024-08-12T11:00:00",28,30.567852,0.25],
    [29237,"urn:WaterMeter:MC0203J22010600005","2024-08-12T11:15:00",28.299,30.532164,0.254],
    [29238,"urn:WaterMeter:MC0203J22010600005","2024-08-12T11:30:00",28.5,30.472816,0.249],
    [29239,"urn:WaterMeter:MC0203J22010600005","2024-08-12T11:45:00",28.7,30.419247,0.261],
    [29240,"urn:WaterMeter:MC0203J22010600005","2024-08-12T12:00:00",28.799,30.39093,0.256],
    [29241,"urn:WaterMeter:MC0203J22010600005","2024-08-12T12:15:00",28.899,30.323048,0.264],
    [29242,"urn:WaterMeter:MC0203J22010600005","2024-08-12T12:30:00",29,30.301714,0.268],
    [29243,"urn:WaterMeter:MC0203J22010600005","2024-08-12T12:45:00",29.2,30.251326,0.262],
    [29244,"urn:WaterMeter:MC0203J22010600005","2024-08-12T13:00:00",29.299,30.223007,0.252],
    [29245,"urn:WaterMeter:MC0203J22010600005","2024-08-12T13:15:00",29.5,30.157803,0.245],
    [29246,"urn:WaterMeter:MC0203J22010600005","2024-08-12T13:30:00",29.6,30.11556,0.247],
    [29247,"urn:WaterMeter:MC0203J22010600005","2024-08-12T13:45:00",29.799,30.064745,0.262],
    [29248,"urn:WaterMeter:MC0203J22010600005","2024-08-12T14:00:00",29.899,30.011564,0.253],
    [29249,"urn:WaterMeter:MC0203J22010600005","2024-08-12T14:15:00",30,29.979406,0.267],
    [29250,"urn:WaterMeter:MC0203J22010600005","2024-08-12T14:30:00",30.2,29.92704,0.257],
    [29251,"urn:WaterMeter:MC0203J22010600005","2024-08-12T14:45:00",30.299,29.90881,0.277],
    [29252,"urn:WaterMeter:MC0203J22010600005","2024-08-12T15:00:00",30.299,29.86226,0.256],
    [29253,"urn:WaterMeter:MC0203J22010600005","2024-08-12T15:15:00",30.399,29.769514,0.252],
    [29254,"urn:WaterMeter:MC0203J22010600005","2024-08-12T15:30:00",30.399,29.79046,0.242],
    [29255,"urn:WaterMeter:MC0203J22010600005","2024-08-12T15:45:00",30.5,29.740421,0.243],
    [29256,"urn:WaterMeter:MC0203J22010600005","2024-08-12T16:00:00",30.5,29.6943,0.243],
    [29257,"urn:WaterMeter:MC0203J22010600005","2024-08-12T16:15:00",30.5,29.664392,0.241],
    [29258,"urn:WaterMeter:MC0203J22010600005","2024-08-12T16:30:00",30.399,29.633013,0.248],
    [29259,"urn:WaterMeter:MC0203J22010600005","2024-08-12T16:45:00",30.299,29.59267,0.244],
    [29260,"urn:WaterMeter:MC0203J22010600005","2024-08-12T17:00:00",30.299,29.546083,0.249],
    [29261,"urn:WaterMeter:MC0203J22010600005","2024-08-12T17:15:00",30.2,29.53914,0.242],
    [29262,"urn:WaterMeter:MC0203J22010600005","2024-08-12T17:30:00",30.2,29.482119,0.247],
    [29263,"urn:WaterMeter:MC0203J22010600005","2024-08-12T17:45:00",30.1,29.464275,0.248],
    [29264,"urn:WaterMeter:MC0203J22010600005","2024-08-12T18:00:00",30,29.449108,0.248],
    [29265,"urn:WaterMeter:MC0203J22010600005","2024-08-12T18:15:00",30,29.443716,0.253],
    [29266,"urn:WaterMeter:MC0203J22010600005","2024-08-12T18:30:00",29.899,29.42855,0.254],
    [29267,"urn:WaterMeter:MC0203J22010600005","2024-08-12T18:45:00",29.799,29.425098,0.242],
    [29268,"urn:WaterMeter:MC0203J22010600005","2024-08-12T19:00:00",29.7,29.373896,0.25],
    [29269,"urn:WaterMeter:MC0203J22010600005","2024-08-12T19:15:00",29.6,29.396782,0.258],
    [29270,"urn:WaterMeter:MC0203J22010600005","2024-08-12T19:30:00",29.399,29.376999,0.25],
    [29271,"urn:WaterMeter:MC0203J22010600005","2024-08-12T19:45:00",29.299,29.350582,0.24],
    [29272,"urn:WaterMeter:MC0203J22010600005","2024-08-12T20:00:00",29.2,29.35097,0.243],
    [29273,"urn:WaterMeter:MC0203J22010600005","2024-08-12T20:15:00",29.1,29.30481,0.248],
    [29274,"urn:WaterMeter:MC0203J22010600005","2024-08-12T20:30:00",29,29.290108,0.251],
    [29275,"urn:WaterMeter:MC0203J22010600005","2024-08-12T20:45:00",28.899,29.289333,0.256],
    [29276,"urn:WaterMeter:MC0203J22010600005","2024-08-12T21:00:00",28.799,29.3192,0.241],
    [29277,"urn:WaterMeter:MC0203J22010600005","2024-08-12T21:15:00",28.7,29.26955,0.253],
    [29278,"urn:WaterMeter:MC0203J22010600005","2024-08-12T21:30:00",28.6,29.248215,0.23],
    [29279,"urn:WaterMeter:MC0203J22010600005","2024-08-12T21:45:00",28.6,29.279247,0.24],
    [29280,"urn:WaterMeter:MC0203J22010600005","2024-08-12T22:00:00",28.5,29.23813,0.25],
    [29281,"urn:WaterMeter:MC0203J22010600005","2024-08-12T22:15:00",28.399,29.2583,0.242],
    [29282,"urn:WaterMeter:MC0203J22010600005","2024-08-12T22:30:00",28.399,29.255934,0.248],
    [29283,"urn:WaterMeter:MC0203J22010600005","2024-08-12T22:45:00",28.299,29.224941,0.242],
    [29284,"urn:WaterMeter:MC0203J22010600005","2024-08-12T23:00:00",28.2,29.2571,0.25],
    [29285,"urn:WaterMeter:MC0203J22010600005","2024-08-12T23:15:00",28.1,29.219898,0.241],
    [29286,"urn:WaterMeter:MC0203J22010600005","2024-08-12T23:30:00",28,29.205935,0.243],
    [29287,"urn:WaterMeter:MC0203J22010600005","2024-08-12T23:45:00",27.899,29.205935,0.252],
    [29288,"urn:WaterMeter:MC0203J22010600005","2024-08-13T00:00:00",27.799,29.211365,0.245],
    [29289,"urn:WaterMeter:MC0203J22010600005","2024-08-13T00:15:00",27.7,29.190418,0.242],
    [29290,"urn:WaterMeter:MC0203J22010600005","2024-08-13T00:30:00",27.6,29.202444,0.249],
    [29291,"urn:WaterMeter:MC0203J22010600005","2024-08-13T00:45:00",27.5,29.16792,0.243],
    [29292,"urn:WaterMeter:MC0203J22010600005","2024-08-13T01:00:00",27.399,29.209038,0.247],
    [29293,"urn:WaterMeter:MC0203J22010600005","2024-08-13T01:15:00",27.299,29.184599,0.243],
    [29294,"urn:WaterMeter:MC0203J22010600005","2024-08-13T01:30:00",27.2,29.173351,0.231],
    [29295,"urn:WaterMeter:MC0203J22010600005","2024-08-13T01:45:00",27.1,29.156631,0.245],
    [29296,"urn:WaterMeter:MC0203J22010600005","2024-08-13T02:00:00",27.1,29.184988,0.254],
    [29297,"urn:WaterMeter:MC0203J22010600005","2024-08-13T02:15:00",27,29.143482,0.242],
    [29298,"urn:WaterMeter:MC0203J22010600005","2024-08-13T02:30:00",26.899,29.191582,0.249],
    [29299,"urn:WaterMeter:MC0203J22010600005","2024-08-13T02:45:00",26.799,29.159348,0.255],
    [29300,"urn:WaterMeter:MC0203J22010600005","2024-08-13T03:00:00",26.7,29.136889,0.243],
    [29301,"urn:WaterMeter:MC0203J22010600005","2024-08-13T03:15:00",26.6,29.141932,0.244],
    [29302,"urn:WaterMeter:MC0203J22010600005","2024-08-13T03:30:00",26.5,29.148874,0.24],
    [29303,"urn:WaterMeter:MC0203J22010600005","2024-08-13T03:45:00",26.399,29.152016,0.25],
    [29304,"urn:WaterMeter:MC0203J22010600005","2024-08-13T04:00:00",26.299,29.129868,0.244],
    [29305,"urn:WaterMeter:MC0203J22010600005","2024-08-13T04:15:00",26.2,29.138788,0.236],
    [29306,"urn:WaterMeter:MC0203J22010600005","2024-08-13T04:30:00",26.2,29.122923,0.238],
    [29307,"urn:WaterMeter:MC0203J22010600005","2024-08-13T04:45:00",26.1,29.125639,0.253],
    [29308,"urn:WaterMeter:MC0203J22010600005","2024-08-13T05:00:00",26,29.1237,0.236],
    [29309,"urn:WaterMeter:MC0203J22010600005","2024-08-13T05:15:00",26,29.132622,0.237],
    [29310,"urn:WaterMeter:MC0203J22010600005","2024-08-13T05:30:00",26,29.176804,0.244],
    [29311,"urn:WaterMeter:MC0203J22010600005","2024-08-13T05:45:00",26,29.396782,0.254],
    [29312,"urn:WaterMeter:MC0203J22010600005","2024-08-13T06:00:00",26,29.900276,0.259],
    [29313,"urn:WaterMeter:MC0203J22010600005","2024-08-13T06:15:00",26,30.677238,0.271],
    [29314,"urn:WaterMeter:MC0203J22010600005","2024-08-13T06:30:00",26,31.197025,0.302],
    [29315,"urn:WaterMeter:MC0203J22010600005","2024-08-13T06:45:00",26.1,31.541481,0.316],
    [29316,"urn:WaterMeter:MC0203J22010600005","2024-08-13T07:00:00",26.1,31.721077,0.282],
    [29317,"urn:WaterMeter:MC0203J22010600005","2024-08-13T07:15:00",26.2,31.899124,0.272],
    [29318,"urn:WaterMeter:MC0203J22010600005","2024-08-13T07:30:00",26.299,32.04536,0.282],
    [29319,"urn:WaterMeter:MC0203J22010600005","2024-08-13T07:45:00",26.399,32.115185,0.279],
    [29320,"urn:WaterMeter:MC0203J22010600005","2024-08-13T08:00:00",26.6,32.212936,0.285],
    [29321,"urn:WaterMeter:MC0203J22010600005","2024-08-13T08:15:00",26.7,32.00192,0.282],
    [29322,"urn:WaterMeter:MC0203J22010600005","2024-08-13T08:30:00",26.799,31.792063,0.275],
    [29323,"urn:WaterMeter:MC0203J22010600005","2024-08-13T08:45:00",26.899,31.688494,0.265],
    [29324,"urn:WaterMeter:MC0203J22010600005","2024-08-13T09:00:00",27,31.571348,0.27],
    [29325,"urn:WaterMeter:MC0203J22010600005","2024-08-13T09:15:00",27.1,31.553854,0.277],
    [29326,"urn:WaterMeter:MC0203J22010600005","2024-08-13T09:30:00",27.2,31.485195,0.272],
    [29327,"urn:WaterMeter:MC0203J22010600005","2024-08-13T09:45:00",27.299,31.405327,0.258],
    [29328,"urn:WaterMeter:MC0203J22010600005","2024-08-13T10:00:00",27.399,31.350983,0.276],
    [29329,"urn:WaterMeter:MC0203J22010600005","2024-08-13T10:15:00",27.6,31.306025,0.274],
    [29330,"urn:WaterMeter:MC0203J22010600005","2024-08-13T10:30:00",27.799,31.285078,0.263],
    [29331,"urn:WaterMeter:MC0203J22010600005","2024-08-13T10:45:00",28,31.232285,0.269],
    [29332,"urn:WaterMeter:MC0203J22010600005","2024-08-13T11:00:00",28.1,31.165955,0.29],
    [29333,"urn:WaterMeter:MC0203J22010600005","2024-08-13T11:15:00",28.399,31.133797,0.268],
    [29334,"urn:WaterMeter:MC0203J22010600005","2024-08-13T11:30:00",28.6,31.043804,0.269],
    [29335,"urn:WaterMeter:MC0203J22010600005","2024-08-13T11:45:00",28.7,30.960367,0.264],
    [29336,"urn:WaterMeter:MC0203J22010600005","2024-08-13T12:00:00",28.899,30.95261,0.279],
    [29337,"urn:WaterMeter:MC0203J22010600005","2024-08-13T12:15:00",29,30.907652,0.265],
    [29338,"urn:WaterMeter:MC0203J22010600005","2024-08-13T12:30:00",29.1,30.834726,0.281],
    [29339,"urn:WaterMeter:MC0203J22010600005","2024-08-13T12:45:00",29.2,30.77883,0.266],
    [29340,"urn:WaterMeter:MC0203J22010600005","2024-08-13T13:00:00",29.299,30.717968,0.258],
    [29341,"urn:WaterMeter:MC0203J22010600005","2024-08-13T13:15:00",29.5,30.706331,0.265],
    [29342,"urn:WaterMeter:MC0203J22010600005","2024-08-13T13:30:00",29.6,30.620605,0.251],
    [29343,"urn:WaterMeter:MC0203J22010600005","2024-08-13T13:45:00",29.7,30.594578,0.289],
    [29344,"urn:WaterMeter:MC0203J22010600005","2024-08-13T14:00:00",29.799,30.506912,0.262],
    [29345,"urn:WaterMeter:MC0203J22010600005","2024-08-13T14:15:00",29.799,30.49221,0.274],
    [29346,"urn:WaterMeter:MC0203J22010600005","2024-08-13T14:30:00",29.799,30.46079,0.26],
    [29347,"urn:WaterMeter:MC0203J22010600005","2024-08-13T14:45:00",29.7,30.410324,0.263],
    [29348,"urn:WaterMeter:MC0203J22010600005","2024-08-13T15:00:00",29.7,30.384375,0.258],
    [29349,"urn:WaterMeter:MC0203J22010600005","2024-08-13T15:15:00",29.7,30.373514,0.277],
    [29350,"urn:WaterMeter:MC0203J22010600005","2024-08-13T15:30:00",29.7,30.351364,0.287],
    [29351,"urn:WaterMeter:MC0203J22010600005","2024-08-13T15:45:00",29.7,30.288952,0.263],
    [29352,"urn:WaterMeter:MC0203J22010600005","2024-08-13T16:00:00",29.6,30.252876,0.261],
    [29353,"urn:WaterMeter:MC0203J22010600005","2024-08-13T16:15:00",29.5,30.260246,0.273],
    [29354,"urn:WaterMeter:MC0203J22010600005","2024-08-13T16:30:00",29.399,30.231153,0.259],
    [29355,"urn:WaterMeter:MC0203J22010600005","2024-08-13T16:45:00",29.399,30.181503,0.26],
    [29356,"urn:WaterMeter:MC0203J22010600005","2024-08-13T17:00:00",29.299,30.169477,0.27],
    [29357,"urn:WaterMeter:MC0203J22010600005","2024-08-13T17:15:00",29.299,30.151634,0.261],
    [29358,"urn:WaterMeter:MC0203J22010600005","2024-08-13T17:30:00",29.2,30.1431,0.257],
    [29359,"urn:WaterMeter:MC0203J22010600005","2024-08-13T17:45:00",29.1,30.125257,0.271],
    [29360,"urn:WaterMeter:MC0203J22010600005","2024-08-13T18:00:00",29.1,30.084915,0.268],
    [29361,"urn:WaterMeter:MC0203J22010600005","2024-08-13T18:15:00",29,30.077934,0.261],
    [29362,"urn:WaterMeter:MC0203J22010600005","2024-08-13T18:30:00",28.899,30.060091,0.262],
    [29363,"urn:WaterMeter:MC0203J22010600005","2024-08-13T18:45:00",28.799,30.034876,0.271],
    [29364,"urn:WaterMeter:MC0203J22010600005","2024-08-13T19:00:00",28.799,30.035265,0.262],
    [29365,"urn:WaterMeter:MC0203J22010600005","2024-08-13T19:15:00",28.7,30.04535,0.251],
    [29366,"urn:WaterMeter:MC0203J22010600005","2024-08-13T19:30:00",28.6,30.031734,0.265],
    [29367,"urn:WaterMeter:MC0203J22010600005","2024-08-13T19:45:00",28.6,30.051517,0.27],
    [29368,"urn:WaterMeter:MC0203J22010600005","2024-08-13T20:00:00",28.5,29.983248,0.253],
    [29369,"urn:WaterMeter:MC0203J22010600005","2024-08-13T20:15:00",28.399,29.99725,0.262],
    [29370,"urn:WaterMeter:MC0203J22010600005","2024-08-13T20:30:00",28.299,29.942556,0.276],
    [29371,"urn:WaterMeter:MC0203J22010600005","2024-08-13T20:45:00",28.2,29.987553,0.255],
    [29372,"urn:WaterMeter:MC0203J22010600005","2024-08-13T21:00:00",28.2,29.981346,0.27],
    [29373,"urn:WaterMeter:MC0203J22010600005","2024-08-13T21:15:00",28.1,29.9476,0.256],
    [29374,"urn:WaterMeter:MC0203J22010600005","2024-08-13T21:30:00",28,29.933596,0.255],
    [29375,"urn:WaterMeter:MC0203J22010600005","2024-08-13T21:45:00",28,29.924675,0.265],
    [29376,"urn:WaterMeter:MC0203J22010600005","2024-08-13T22:00:00",27.899,29.931307,0.273],
    [29377,"urn:WaterMeter:MC0203J22010600005","2024-08-13T22:15:00",27.799,29.918507,0.25],
    [29378,"urn:WaterMeter:MC0203J22010600005","2024-08-13T22:30:00",27.7,29.937126,0.256],
    [29379,"urn:WaterMeter:MC0203J22010600005","2024-08-13T22:45:00",27.7,29.894806,0.256],
    [29380,"urn:WaterMeter:MC0203J22010600005","2024-08-13T23:00:00",27.5,29.883596,0.251],
    [29381,"urn:WaterMeter:MC0203J22010600005","2024-08-13T23:15:00",27.5,29.914202,0.257],
    [29382,"urn:WaterMeter:MC0203J22010600005","2024-08-13T23:30:00",27.399,29.874247,0.268],
    [29383,"urn:WaterMeter:MC0203J22010600005","2024-08-13T23:45:00",27.399,29.874247,0.253],
    [29384,"urn:WaterMeter:MC0203J22010600005","2024-08-14T00:00:00",27.299,29.863037,0.266],
    [29385,"urn:WaterMeter:MC0203J22010600005","2024-08-14T00:15:00",27.299,29.871958,0.255],
    [29386,"urn:WaterMeter:MC0203J22010600005","2024-08-14T00:30:00",27.2,29.84403,0.261],
    [29387,"urn:WaterMeter:MC0203J22010600005","2024-08-14T00:45:00",27.1,29.876575,0.266],
    [29388,"urn:WaterMeter:MC0203J22010600005","2024-08-14T01:00:00",27.1,29.812222,0.255],
    [29389,"urn:WaterMeter:MC0203J22010600005","2024-08-14T01:15:00",27,29.821144,0.255],
    [29390,"urn:WaterMeter:MC0203J22010600005","2024-08-14T01:30:00",26.899,29.852951,0.261],
    [29391,"urn:WaterMeter:MC0203J22010600005","2024-08-14T01:45:00",26.899,29.813385,0.263],
    [29392,"urn:WaterMeter:MC0203J22010600005","2024-08-14T02:00:00",26.799,29.807955,0.254],
    [29393,"urn:WaterMeter:MC0203J22010600005","2024-08-14T02:15:00",26.7,29.822308,0.251],
    [29394,"urn:WaterMeter:MC0203J22010600005","2024-08-14T02:30:00",26.7,29.814548,0.245],
    [29395,"urn:WaterMeter:MC0203J22010600005","2024-08-14T02:45:00",26.6,29.782354,0.252],
    [29396,"urn:WaterMeter:MC0203J22010600005","2024-08-14T03:00:00",26.5,29.786621,0.256],
    [29397,"urn:WaterMeter:MC0203J22010600005","2024-08-14T03:15:00",26.399,29.773819,0.248],
    [29398,"urn:WaterMeter:MC0203J22010600005","2024-08-14T03:30:00",26.299,29.766062,0.246],
    [29399,"urn:WaterMeter:MC0203J22010600005","2024-08-14T03:45:00",26.2,29.775759,0.261],
    [29400,"urn:WaterMeter:MC0203J22010600005","2024-08-14T04:00:00",26.2,29.802525,0.255],
    [29401,"urn:WaterMeter:MC0203J22010600005","2024-08-14T04:15:00",26.1,29.752485,0.254],
    [29402,"urn:WaterMeter:MC0203J22010600005","2024-08-14T04:30:00",26,29.734642,0.255],
    [29403,"urn:WaterMeter:MC0203J22010600005","2024-08-14T04:45:00",25.899,29.743176,0.255],
    [29404,"urn:WaterMeter:MC0203J22010600005","2024-08-14T05:00:00",25.799,29.752098,0.24],
    [29405,"urn:WaterMeter:MC0203J22010600005","2024-08-14T05:15:00",25.899,29.768002,0.254],
    [29406,"urn:WaterMeter:MC0203J22010600005","2024-08-14T05:30:00",25.899,29.882431,0.257],
    [29407,"urn:WaterMeter:MC0203J22010600005","2024-08-14T05:45:00",26,30.218353,0.267],
    [29408,"urn:WaterMeter:MC0203J22010600005","2024-08-14T06:00:00",26,30.740816,0.274],
    [29409,"urn:WaterMeter:MC0203J22010600005","2024-08-14T06:15:00",26,31.299042,0.279],
    [29410,"urn:WaterMeter:MC0203J22010600005","2024-08-14T06:30:00",26,31.619797,0.277],
    [29411,"urn:WaterMeter:MC0203J22010600005","2024-08-14T06:45:00",26.1,31.898737,0.283],
    [29412,"urn:WaterMeter:MC0203J22010600005","2024-08-14T07:00:00",26.1,32.065144,0.281],
    [29413,"urn:WaterMeter:MC0203J22010600005","2024-08-14T07:15:00",26.2,32.189274,0.288],
    [29414,"urn:WaterMeter:MC0203J22010600005","2024-08-14T07:30:00",26.299,32.259483,0.292],
    [29415,"urn:WaterMeter:MC0203J22010600005","2024-08-14T07:45:00",26.399,32.37659,0.307],
    [29416,"urn:WaterMeter:MC0203J22010600005","2024-08-14T08:00:00",26.6,32.484467,0.287],
    [29417,"urn:WaterMeter:MC0203J22010600005","2024-08-14T08:15:00",26.7,32.22884,0.293],
    [29418,"urn:WaterMeter:MC0203J22010600005","2024-08-14T08:30:00",26.799,31.987566,0.281],
    [29419,"urn:WaterMeter:MC0203J22010600005","2024-08-14T08:45:00",26.899,31.867315,0.297],
    [29420,"urn:WaterMeter:MC0203J22010600005","2024-08-14T09:00:00",27,31.766075,0.28],
    [29421,"urn:WaterMeter:MC0203J22010600005","2024-08-14T09:15:00",27.1,31.70595,0.269],
    [29422,"urn:WaterMeter:MC0203J22010600005","2024-08-14T09:30:00",27.2,31.613203,0.29],
    [29423,"urn:WaterMeter:MC0203J22010600005","2024-08-14T09:45:00",27.299,31.59889,0.28],
    [29424,"urn:WaterMeter:MC0203J22010600005","2024-08-14T10:00:00",27.399,31.520922,0.274],
    [29425,"urn:WaterMeter:MC0203J22010600005","2024-08-14T10:15:00",27.5,31.455366,0.271],
    [29426,"urn:WaterMeter:MC0203J22010600005","2024-08-14T10:30:00",27.6,31.41037,0.284],
    [29427,"urn:WaterMeter:MC0203J22010600005","2024-08-14T10:45:00",27.799,31.35296,0.272],
    [29428,"urn:WaterMeter:MC0203J22010600005","2024-08-14T11:00:00",27.899,31.309128,0.274],
    [29429,"urn:WaterMeter:MC0203J22010600005","2024-08-14T11:15:00",28.2,31.285467,0.28],
    [29430,"urn:WaterMeter:MC0203J22010600005","2024-08-14T11:30:00",28.399,31.206722,0.275],
    [29431,"urn:WaterMeter:MC0203J22010600005","2024-08-14T11:45:00",28.5,31.162113,0.269],
    [29432,"urn:WaterMeter:MC0203J22010600005","2024-08-14T12:00:00",28.7,31.10393,0.267],
    [29433,"urn:WaterMeter:MC0203J22010600005","2024-08-14T12:15:00",28.799,31.07212,0.283],
    [29434,"urn:WaterMeter:MC0203J22010600005","2024-08-14T12:30:00",28.7,31.022858,0.273],
    [29435,"urn:WaterMeter:MC0203J22010600005","2024-08-14T12:45:00",28.6,30.998808,0.277],
    [29436,"urn:WaterMeter:MC0203J22010600005","2024-08-14T13:00:00",28.399,30.966612,0.26],
    [29437,"urn:WaterMeter:MC0203J22010600005","2024-08-14T13:15:00",27.899,30.967001,0.267],
    [29438,"urn:WaterMeter:MC0203J22010600005","2024-08-14T13:30:00",27.7,30.934765,0.271],
    [29439,"urn:WaterMeter:MC0203J22010600005","2024-08-14T13:45:00",27.5,30.94136,0.267],
    [29440,"urn:WaterMeter:MC0203J22010600005","2024-08-14T14:00:00",27.299,30.892912,0.264],
    [29441,"urn:WaterMeter:MC0203J22010600005","2024-08-14T14:15:00",27.2,30.875805,0.259],
    [29442,"urn:WaterMeter:MC0203J22010600005","2024-08-14T14:30:00",27.1,30.863781,0.269],
    [29443,"urn:WaterMeter:MC0203J22010600005","2024-08-14T14:45:00",27.1,30.851406,0.268],
    [29444,"urn:WaterMeter:MC0203J22010600005","2024-08-14T15:00:00",27,30.840546,0.277],
    [29445,"urn:WaterMeter:MC0203J22010600005","2024-08-14T15:15:00",27,30.792446,0.278],
    [29446,"urn:WaterMeter:MC0203J22010600005","2024-08-14T15:30:00",26.799,30.780807,0.275],
    [29447,"urn:WaterMeter:MC0203J22010600005","2024-08-14T15:45:00",26.6,30.762577,0.261],
    [29448,"urn:WaterMeter:MC0203J22010600005","2024-08-14T16:00:00",26.5,30.792446,0.271],
    [29449,"urn:WaterMeter:MC0203J22010600005","2024-08-14T16:15:00",26.399,30.744734,0.258],
    [29450,"urn:WaterMeter:MC0203J22010600005","2024-08-14T16:30:00",26.399,30.78042,0.266],
    [29451,"urn:WaterMeter:MC0203J22010600005","2024-08-14T16:45:00",26.299,30.738527,0.263],
    [29452,"urn:WaterMeter:MC0203J22010600005","2024-08-14T17:00:00",26.299,30.720257,0.268],
    [29453,"urn:WaterMeter:MC0203J22010600005","2024-08-14T17:15:00",26.299,30.713701,0.286],
    [29454,"urn:WaterMeter:MC0203J22010600005","2024-08-14T17:30:00",26.299,30.683834,0.279],
    [29455,"urn:WaterMeter:MC0203J22010600005","2024-08-14T17:45:00",26.299,30.686937,0.262],
    [29456,"urn:WaterMeter:MC0203J22010600005","2024-08-14T18:00:00",26.299,30.659395,0.263],
    [29457,"urn:WaterMeter:MC0203J22010600005","2024-08-14T18:15:00",26.299,30.653965,0.285],
    [29458,"urn:WaterMeter:MC0203J22010600005","2024-08-14T18:30:00",26.299,30.659008,0.281],
    [29459,"urn:WaterMeter:MC0203J22010600005","2024-08-14T18:45:00",26.299,30.645819,0.26],
    [29460,"urn:WaterMeter:MC0203J22010600005","2024-08-14T19:00:00",26.2,30.615952,0.281],
    [29461,"urn:WaterMeter:MC0203J22010600005","2024-08-14T19:15:00",26.2,30.636509,0.265],
    [29462,"urn:WaterMeter:MC0203J22010600005","2024-08-14T19:30:00",26.1,30.601599,0.271],
    [29463,"urn:WaterMeter:MC0203J22010600005","2024-08-14T19:45:00",26.1,30.589186,0.285],
    [29464,"urn:WaterMeter:MC0203J22010600005","2024-08-14T20:00:00",26.1,30.588799,0.288],
    [29465,"urn:WaterMeter:MC0203J22010600005","2024-08-14T20:15:00",26.1,30.55893,0.284],
    [29466,"urn:WaterMeter:MC0203J22010600005","2024-08-14T20:30:00",26.1,30.549232,0.265],
    [29467,"urn:WaterMeter:MC0203J22010600005","2024-08-14T20:45:00",26,30.545702,0.261],
    [29468,"urn:WaterMeter:MC0203J22010600005","2024-08-14T21:00:00",26,30.524406,0.268],
    [29469,"urn:WaterMeter:MC0203J22010600005","2024-08-14T21:15:00",25.899,30.534452,0.264],
    [29470,"urn:WaterMeter:MC0203J22010600005","2024-08-14T21:30:00",25.899,30.528673,0.26],
    [29471,"urn:WaterMeter:MC0203J22010600005","2024-08-14T21:45:00",25.799,30.551172,0.259],
    [29472,"urn:WaterMeter:MC0203J22010600005","2024-08-14T22:00:00",25.7,30.546478,0.266],
    [29473,"urn:WaterMeter:MC0203J22010600005","2024-08-14T22:15:00",25.6,30.534452,0.269],
    [29474,"urn:WaterMeter:MC0203J22010600005","2024-08-14T22:30:00",25.5,30.54419,0.26],
    [29475,"urn:WaterMeter:MC0203J22010600005","2024-08-14T22:45:00",25.399,30.504236,0.256],
    [29476,"urn:WaterMeter:MC0203J22010600005","2024-08-14T23:00:00",25.299,30.489107,0.266],
    [29477,"urn:WaterMeter:MC0203J22010600005","2024-08-14T23:15:00",25.2,30.502296,0.264],
    [29478,"urn:WaterMeter:MC0203J22010600005","2024-08-14T23:30:00",25.1,30.513157,0.259],
    [29479,"urn:WaterMeter:MC0203J22010600005","2024-08-14T23:45:00",25,30.503847,0.265],
    [29480,"urn:WaterMeter:MC0203J22010600005","2024-08-15T00:00:00",25,30.53876,0.263],
    [29481,"urn:WaterMeter:MC0203J22010600005","2024-08-15T00:15:00",24.899,30.47398,0.269],
    [29482,"urn:WaterMeter:MC0203J22010600005","2024-08-15T00:30:00",24.799,30.493374,0.261],
    [29483,"urn:WaterMeter:MC0203J22010600005","2024-08-15T00:45:00",24.7,30.508076,0.257],
    [29484,"urn:WaterMeter:MC0203J22010600005","2024-08-15T01:00:00",24.7,30.513546,0.261],
    [29485,"urn:WaterMeter:MC0203J22010600005","2024-08-15T01:15:00",24.6,30.49415,0.262],
    [29486,"urn:WaterMeter:MC0203J22010600005","2024-08-15T01:30:00",24.6,30.489496,0.271],
    [29487,"urn:WaterMeter:MC0203J22010600005","2024-08-15T01:45:00",24.5,30.486004,0.27],
    [29488,"urn:WaterMeter:MC0203J22010600005","2024-08-15T02:00:00",24.399,30.486393,0.275],
    [29489,"urn:WaterMeter:MC0203J22010600005","2024-08-15T02:15:00",24.299,30.471651,0.271],
    [29490,"urn:WaterMeter:MC0203J22010600005","2024-08-15T02:30:00",24.2,30.482513,0.256],
    [29491,"urn:WaterMeter:MC0203J22010600005","2024-08-15T02:45:00",24.2,30.404545,0.258],
    [29492,"urn:WaterMeter:MC0203J22010600005","2024-08-15T03:00:00",24.1,30.435965,0.252],
    [29493,"urn:WaterMeter:MC0203J22010600005","2024-08-15T03:15:00",24,30.465057,0.267],
    [29494,"urn:WaterMeter:MC0203J22010600005","2024-08-15T03:30:00",23.899,30.432087,0.259],
    [29495,"urn:WaterMeter:MC0203J22010600005","2024-08-15T03:45:00",23.899,30.470488,0.261],
    [29496,"urn:WaterMeter:MC0203J22010600005","2024-08-15T04:00:00",23.799,30.466997,0.259],
    [29497,"urn:WaterMeter:MC0203J22010600005","2024-08-15T04:15:00",23.7,30.408812,0.269],
    [29498,"urn:WaterMeter:MC0203J22010600005","2024-08-15T04:30:00",23.6,30.45148,0.26],
    [29499,"urn:WaterMeter:MC0203J22010600005","2024-08-15T04:45:00",23.6,30.416958,0.261],
    [29500,"urn:WaterMeter:MC0203J22010600005","2024-08-15T05:00:00",23.5,30.408812,0.273],
    [29501,"urn:WaterMeter:MC0203J22010600005","2024-08-15T05:15:00",23.6,30.440193,0.263],
    [29502,"urn:WaterMeter:MC0203J22010600005","2024-08-15T05:30:00",23.6,30.617115,0.259],
    [29503,"urn:WaterMeter:MC0203J22010600005","2024-08-15T05:45:00",23.7,30.933601,0.269],
    [29504,"urn:WaterMeter:MC0203J22010600005","2024-08-15T06:00:00",23.7,31.455755,0.28],
    [29505,"urn:WaterMeter:MC0203J22010600005","2024-08-15T06:15:00",23.7,31.838999,0.277],
    [29506,"urn:WaterMeter:MC0203J22010600005","2024-08-15T06:30:00",23.7,32.076008,0.275],
    [29507,"urn:WaterMeter:MC0203J22010600005","2024-08-15T06:45:00",23.799,32.34133,0.282],
    [29508,"urn:WaterMeter:MC0203J22010600005","2024-08-15T07:00:00",23.899,32.4449,0.28],
    [29509,"urn:WaterMeter:MC0203J22010600005","2024-08-15T07:15:00",24,32.511967,0.292],
    [29510,"urn:WaterMeter:MC0203J22010600005","2024-08-15T07:30:00",24.1,32.64036,0.298],
    [29511,"urn:WaterMeter:MC0203J22010600005","2024-08-15T07:45:00",24.2,32.75134,0.287],
    [29512,"urn:WaterMeter:MC0203J22010600005","2024-08-15T08:00:00",24.299,32.824615,0.292],
    [29513,"urn:WaterMeter:MC0203J22010600005","2024-08-15T08:15:00",24.5,32.554676,0.304],
    [29514,"urn:WaterMeter:MC0203J22010600005","2024-08-15T08:30:00",24.7,32.275387,0.274],
    [29515,"urn:WaterMeter:MC0203J22010600005","2024-08-15T08:45:00",24.799,32.165573,0.277],
    [29516,"urn:WaterMeter:MC0203J22010600005","2024-08-15T09:00:00",24.899,32.061268,0.289],
    [29517,"urn:WaterMeter:MC0203J22010600005","2024-08-15T09:15:00",25,31.956533,0.287],
    [29518,"urn:WaterMeter:MC0203J22010600005","2024-08-15T09:30:00",25.2,31.867315,0.288],
    [29519,"urn:WaterMeter:MC0203J22010600005","2024-08-15T09:45:00",25.399,31.847534,0.292],
    [29520,"urn:WaterMeter:MC0203J22010600005","2024-08-15T10:00:00",25.5,31.767199,0.269],
    [29521,"urn:WaterMeter:MC0203J22010600005","2024-08-15T10:15:00",25.6,31.729185,0.272],
    [29522,"urn:WaterMeter:MC0203J22010600005","2024-08-15T10:30:00",25.7,31.70401,0.273],
    [29523,"urn:WaterMeter:MC0203J22010600005","2024-08-15T10:45:00",25.899,31.655523,0.283],
    [29524,"urn:WaterMeter:MC0203J22010600005","2024-08-15T11:00:00",26.2,31.61906,0.288],
    [29525,"urn:WaterMeter:MC0203J22010600005","2024-08-15T11:15:00",26.299,31.569021,0.266],
    [29526,"urn:WaterMeter:MC0203J22010600005","2024-08-15T11:30:00",26.6,31.507345,0.269],
    [29527,"urn:WaterMeter:MC0203J22010600005","2024-08-15T11:45:00",26.7,31.47515,0.267],
    [29528,"urn:WaterMeter:MC0203J22010600005","2024-08-15T12:00:00",26.899,31.408005,0.266],
    [29529,"urn:WaterMeter:MC0203J22010600005","2024-08-15T12:15:00",27,31.35137,0.267],
    [29530,"urn:WaterMeter:MC0203J22010600005","2024-08-15T12:30:00",27.2,31.294775,0.282],
    [29531,"urn:WaterMeter:MC0203J22010600005","2024-08-15T12:45:00",27.399,31.268398,0.275],
    [29532,"urn:WaterMeter:MC0203J22010600005","2024-08-15T13:00:00",27.5,31.240469,0.271],
    [29533,"urn:WaterMeter:MC0203J22010600005","2024-08-15T13:15:00",27.5,31.15164,0.265],
    [29534,"urn:WaterMeter:MC0203J22010600005","2024-08-15T13:30:00",27.399,31.130693,0.272],
    [29535,"urn:WaterMeter:MC0203J22010600005","2024-08-15T13:45:00",27.299,31.112463,0.269],
    [29536,"urn:WaterMeter:MC0203J22010600005","2024-08-15T14:00:00",27.299,31.095396,0.273],
    [29537,"urn:WaterMeter:MC0203J22010600005","2024-08-15T14:15:00",27.299,31.063974,0.254],
    [29538,"urn:WaterMeter:MC0203J22010600005","2024-08-15T14:30:00",27.299,31.019327,0.257],
    [29539,"urn:WaterMeter:MC0203J22010600005","2024-08-15T14:45:00",27.399,30.968164,0.273],
    [29540,"urn:WaterMeter:MC0203J22010600005","2024-08-15T15:00:00",27.399,30.935968,0.276],
    [29541,"urn:WaterMeter:MC0203J22010600005","2024-08-15T15:15:00",27.5,30.914984,0.274],
    [29542,"urn:WaterMeter:MC0203J22010600005","2024-08-15T15:30:00",27.5,30.845161,0.268],
    [29543,"urn:WaterMeter:MC0203J22010600005","2024-08-15T15:45:00",27.399,30.838993,0.261],
    [29544,"urn:WaterMeter:MC0203J22010600005","2024-08-15T16:00:00",27.399,30.77883,0.271],
    [29545,"urn:WaterMeter:MC0203J22010600005","2024-08-15T16:15:00",27.399,30.764517,0.276],
    [29546,"urn:WaterMeter:MC0203J22010600005","2024-08-15T16:30:00",27.399,30.765293,0.273],
    [29547,"urn:WaterMeter:MC0203J22010600005","2024-08-15T16:45:00",27.399,30.741243,0.264],
    [29548,"urn:WaterMeter:MC0203J22010600005","2024-08-15T17:00:00",27.399,30.715641,0.268],
    [29549,"urn:WaterMeter:MC0203J22010600005","2024-08-15T17:15:00",27.399,30.681467,0.259],
    [29550,"urn:WaterMeter:MC0203J22010600005","2024-08-15T17:30:00",27.299,30.640001,0.268],
    [29551,"urn:WaterMeter:MC0203J22010600005","2024-08-15T17:45:00",27.2,30.664051,0.275],
    [29552,"urn:WaterMeter:MC0203J22010600005","2024-08-15T18:00:00",27.1,30.618666,0.27],
    [29553,"urn:WaterMeter:MC0203J22010600005","2024-08-15T18:15:00",26.899,30.60315,0.266],
    [29554,"urn:WaterMeter:MC0203J22010600005","2024-08-15T18:30:00",26.799,30.615562,0.279],
    [29555,"urn:WaterMeter:MC0203J22010600005","2024-08-15T18:45:00",26.7,30.637285,0.256],
    [29556,"urn:WaterMeter:MC0203J22010600005","2024-08-15T19:00:00",26.6,30.562033,0.254],
    [29557,"urn:WaterMeter:MC0203J22010600005","2024-08-15T19:15:00",26.5,30.536781,0.272],
    [29558,"urn:WaterMeter:MC0203J22010600005","2024-08-15T19:30:00",26.399,30.577549,0.268],
    [29559,"urn:WaterMeter:MC0203J22010600005","2024-08-15T19:45:00",26.299,30.567852,0.256],
    [29560,"urn:WaterMeter:MC0203J22010600005","2024-08-15T20:00:00",26.2,30.573242,0.26],
    [29561,"urn:WaterMeter:MC0203J22010600005","2024-08-15T20:15:00",26.1,30.547293,0.262],
    [29562,"urn:WaterMeter:MC0203J22010600005","2024-08-15T20:30:00",26.1,30.501907,0.284],
    [29563,"urn:WaterMeter:MC0203J22010600005","2024-08-15T20:45:00",26,30.516998,0.272],
    [29564,"urn:WaterMeter:MC0203J22010600005","2024-08-15T21:00:00",25.899,30.507689,0.272],
    [29565,"urn:WaterMeter:MC0203J22010600005","2024-08-15T21:15:00",25.799,30.52014,0.261],
    [29566,"urn:WaterMeter:MC0203J22010600005","2024-08-15T21:30:00",25.7,30.473204,0.263],
    [29567,"urn:WaterMeter:MC0203J22010600005","2024-08-15T21:45:00",25.6,30.484064,0.266],
    [29568,"urn:WaterMeter:MC0203J22010600005","2024-08-15T22:00:00",25.5,30.495663,0.257],
    [29569,"urn:WaterMeter:MC0203J22010600005","2024-08-15T22:15:00",25.5,30.506176,0.259],
    [29570,"urn:WaterMeter:MC0203J22010600005","2024-08-15T22:30:00",25.399,30.428595,0.26],
    [29571,"urn:WaterMeter:MC0203J22010600005","2024-08-15T22:45:00",25.299,30.466997,0.251],
    [29572,"urn:WaterMeter:MC0203J22010600005","2024-08-15T23:00:00",25.2,30.471264,0.266],
    [29573,"urn:WaterMeter:MC0203J22010600005","2024-08-15T23:15:00",25.2,30.432861,0.259],
    [29574,"urn:WaterMeter:MC0203J22010600005","2024-08-15T23:30:00",25.1,30.46622,0.276],
    [29575,"urn:WaterMeter:MC0203J22010600005","2024-08-15T23:45:00",25,30.428207,0.263],
    [29576,"urn:WaterMeter:MC0203J22010600005","2024-08-16T00:00:00",24.899,30.469286,0.282],
    [29577,"urn:WaterMeter:MC0203J22010600005","2024-08-16T00:15:00",24.799,30.441397,0.262],
    [29578,"urn:WaterMeter:MC0203J22010600005","2024-08-16T00:30:00",24.799,30.467733,0.267],
    [29579,"urn:WaterMeter:MC0203J22010600005","2024-08-16T00:45:00",24.7,30.424717,0.261],
    [29580,"urn:WaterMeter:MC0203J22010600005","2024-08-16T01:00:00",24.6,30.415018,0.267],
    [29581,"urn:WaterMeter:MC0203J22010600005","2024-08-16T01:15:00",24.5,30.435965,0.268],
    [29582,"urn:WaterMeter:MC0203J22010600005","2024-08-16T01:30:00",24.399,30.437866,0.265],
    [29583,"urn:WaterMeter:MC0203J22010600005","2024-08-16T01:45:00",24.299,30.420023,0.26],
    [29584,"urn:WaterMeter:MC0203J22010600005","2024-08-16T02:00:00",24.299,30.406485,0.265],
    [29585,"urn:WaterMeter:MC0203J22010600005","2024-08-16T02:15:00",24.2,30.425491,0.251],
    [29586,"urn:WaterMeter:MC0203J22010600005","2024-08-16T02:30:00",24.1,30.415018,0.247],
    [29587,"urn:WaterMeter:MC0203J22010600005","2024-08-16T02:45:00",24,30.391317,0.263],
    [29588,"urn:WaterMeter:MC0203J22010600005","2024-08-16T03:00:00",23.899,30.425491,0.259],
    [29589,"urn:WaterMeter:MC0203J22010600005","2024-08-16T03:15:00",23.899,30.37231,0.269],
    [29590,"urn:WaterMeter:MC0203J22010600005","2024-08-16T03:30:00",23.799,30.396011,0.264],
    [29591,"urn:WaterMeter:MC0203J22010600005","2024-08-16T03:45:00",23.7,30.38515,0.261],
    [29592,"urn:WaterMeter:MC0203J22010600005","2024-08-16T04:00:00",23.6,30.39252,0.263],
    [29593,"urn:WaterMeter:MC0203J22010600005","2024-08-16T04:15:00",23.5,30.393295,0.253],
    [29594,"urn:WaterMeter:MC0203J22010600005","2024-08-16T04:30:00",23.5,30.394848,0.259],
    [29595,"urn:WaterMeter:MC0203J22010600005","2024-08-16T04:45:00",23.399,30.417307,0.265],
    [29596,"urn:WaterMeter:MC0203J22010600005","2024-08-16T05:00:00",23.299,30.37041,0.25],
    [29597,"urn:WaterMeter:MC0203J22010600005","2024-08-16T05:15:00",23.5,30.39446,0.247],
    [29598,"urn:WaterMeter:MC0203J22010600005","2024-08-16T05:30:00",23.6,30.554235,0.264],
    [29599,"urn:WaterMeter:MC0203J22010600005","2024-08-16T05:45:00",23.6,30.895975,0.268],
    [29600,"urn:WaterMeter:MC0203J22010600005","2024-08-16T06:00:00",23.7,31.33667,0.268],
    [29601,"urn:WaterMeter:MC0203J22010600005","2024-08-16T06:15:00",23.799,31.833141,0.278],
    [29602,"urn:WaterMeter:MC0203J22010600005","2024-08-16T06:30:00",23.799,32.171043,0.284],
    [29603,"urn:WaterMeter:MC0203J22010600005","2024-08-16T06:45:00",23.899,32.33082,0.288],
    [29604,"urn:WaterMeter:MC0203J22010600005","2024-08-16T07:00:00",24,32.52438,0.284],
    [29605,"urn:WaterMeter:MC0203J22010600005","2024-08-16T07:15:00",24.1,32.646606,0.294],
    [29606,"urn:WaterMeter:MC0203J22010600005","2024-08-16T07:30:00",24.2,32.706306,0.286],
    [29607,"urn:WaterMeter:MC0203J22010600005","2024-08-16T07:45:00",24.399,32.79013,0.292],
    [29608,"urn:WaterMeter:MC0203J22010600005","2024-08-16T08:00:00",24.5,32.85332,0.309],
    [29609,"urn:WaterMeter:MC0203J22010600005","2024-08-16T08:15:00",24.7,32.600834,0.295],
    [29610,"urn:WaterMeter:MC0203J22010600005","2024-08-16T08:30:00",24.799,32.379307,0.3],
    [29611,"urn:WaterMeter:MC0203J22010600005","2024-08-16T08:45:00",24.899,32.20595,0.281],
    [29612,"urn:WaterMeter:MC0203J22010600005","2024-08-16T09:00:00",25,32.16018,0.279],
    [29613,"urn:WaterMeter:MC0203J22010600005","2024-08-16T09:15:00",25.1,32.06049,0.292],
    [29614,"urn:WaterMeter:MC0203J22010600005","2024-08-16T09:30:00",25.299,31.970846,0.294],
    [29615,"urn:WaterMeter:MC0203J22010600005","2024-08-16T09:45:00",25.399,31.916191,0.265],
    [29616,"urn:WaterMeter:MC0203J22010600005","2024-08-16T10:00:00",25.5,31.898737,0.3],
    [29617,"urn:WaterMeter:MC0203J22010600005","2024-08-16T10:15:00",25.6,31.799822,0.271],
    [29618,"urn:WaterMeter:MC0203J22010600005","2024-08-16T10:30:00",25.7,31.771893,0.275],
    [29619,"urn:WaterMeter:MC0203J22010600005","2024-08-16T10:45:00",25.899,31.7428,0.259],
    [29620,"urn:WaterMeter:MC0203J22010600005","2024-08-16T11:00:00",26.1,31.667547,0.295],
    [29621,"urn:WaterMeter:MC0203J22010600005","2024-08-16T11:15:00",26.299,31.610138,0.271],
    [29622,"urn:WaterMeter:MC0203J22010600005","2024-08-16T11:30:00",26.5,31.55463,0.299],
    [29623,"urn:WaterMeter:MC0203J22010600005","2024-08-16T11:45:00",26.6,31.529842,0.279],
    [29624,"urn:WaterMeter:MC0203J22010600005","2024-08-16T12:00:00",26.7,31.481356,0.283],
    [29625,"urn:WaterMeter:MC0203J22010600005","2024-08-16T12:15:00",26.799,31.411533,0.276],
    [29626,"urn:WaterMeter:MC0203J22010600005","2024-08-16T12:30:00",26.899,31.358004,0.262],
    [29627,"urn:WaterMeter:MC0203J22010600005","2024-08-16T12:45:00",27.1,31.306025,0.274],
    [29628,"urn:WaterMeter:MC0203J22010600005","2024-08-16T13:00:00",27.2,31.271463,0.261],
    [29629,"urn:WaterMeter:MC0203J22010600005","2024-08-16T13:15:00",27.299,31.260641,0.271],
    [29630,"urn:WaterMeter:MC0203J22010600005","2024-08-16T13:30:00",27.399,31.185738,0.262],
    [29631,"urn:WaterMeter:MC0203J22010600005","2024-08-16T13:45:00",27.399,31.13341,0.281],
    [29632,"urn:WaterMeter:MC0203J22010600005","2024-08-16T14:00:00",27.5,31.08182,0.277],
    [29633,"urn:WaterMeter:MC0203J22010600005","2024-08-16T14:15:00",27.5,31.061647,0.277],
    [29634,"urn:WaterMeter:MC0203J22010600005","2024-08-16T14:30:00",27.6,31.014711,0.266],
    [29635,"urn:WaterMeter:MC0203J22010600005","2024-08-16T14:45:00",27.7,30.958078,0.289],
    [29636,"urn:WaterMeter:MC0203J22010600005","2024-08-16T15:00:00",27.7,30.904898,0.275],
    [29637,"urn:WaterMeter:MC0203J22010600005","2024-08-16T15:15:00",27.7,30.886705,0.257],
    [29638,"urn:WaterMeter:MC0203J22010600005","2024-08-16T15:30:00",27.7,30.81533,0.272],
    [29639,"urn:WaterMeter:MC0203J22010600005","2024-08-16T15:45:00",27.7,30.8099,0.259],
    [29640,"urn:WaterMeter:MC0203J22010600005","2024-08-16T16:00:00",27.7,30.752491,0.265],
    [29641,"urn:WaterMeter:MC0203J22010600005","2024-08-16T16:15:00",27.7,30.736975,0.268],
    [29642,"urn:WaterMeter:MC0203J22010600005","2024-08-16T16:30:00",27.7,30.699348,0.264],
    [29643,"urn:WaterMeter:MC0203J22010600005","2024-08-16T16:45:00",27.7,30.664825,0.252],
    [29644,"urn:WaterMeter:MC0203J22010600005","2024-08-16T17:00:00",27.7,30.638449,0.262],
    [29645,"urn:WaterMeter:MC0203J22010600005","2024-08-16T17:15:00",27.6,30.643454,0.27],
    [29646,"urn:WaterMeter:MC0203J22010600005","2024-08-16T17:30:00",27.6,30.598883,0.259],
    [29647,"urn:WaterMeter:MC0203J22010600005","2024-08-16T17:45:00",27.5,30.534842,0.252],
    [29648,"urn:WaterMeter:MC0203J22010600005","2024-08-16T18:00:00",27.5,30.55699,0.265],
    [29649,"urn:WaterMeter:MC0203J22010600005","2024-08-16T18:15:00",27.399,30.53876,0.256],
    [29650,"urn:WaterMeter:MC0203J22010600005","2024-08-16T18:30:00",27.299,30.507689,0.263],
    [29651,"urn:WaterMeter:MC0203J22010600005","2024-08-16T18:45:00",27.2,30.497215,0.261],
    [29652,"urn:WaterMeter:MC0203J22010600005","2024-08-16T19:00:00",27.1,30.489883,0.255],
    [29653,"urn:WaterMeter:MC0203J22010600005","2024-08-16T19:15:00",27,30.45342,0.267],
    [29654,"urn:WaterMeter:MC0203J22010600005","2024-08-16T19:30:00",26.899,30.46273,0.267],
    [29655,"urn:WaterMeter:MC0203J22010600005","2024-08-16T19:45:00",26.799,30.423164,0.263],
    [29656,"urn:WaterMeter:MC0203J22010600005","2024-08-16T20:00:00",26.7,30.439417,0.271],
    [29657,"urn:WaterMeter:MC0203J22010600005","2024-08-16T20:15:00",26.6,30.402605,0.258],
    [29658,"urn:WaterMeter:MC0203J22010600005","2024-08-16T20:30:00",26.5,30.42782,0.255],
    [29659,"urn:WaterMeter:MC0203J22010600005","2024-08-16T20:45:00",26.5,30.375452,0.248],
    [29660,"urn:WaterMeter:MC0203J22010600005","2024-08-16T21:00:00",26.399,30.401016,0.268],
    [29661,"urn:WaterMeter:MC0203J22010600005","2024-08-16T21:15:00",26.299,30.366142,0.269],
    [29662,"urn:WaterMeter:MC0203J22010600005","2024-08-16T21:30:00",26.299,30.380844,0.257],
    [29663,"urn:WaterMeter:MC0203J22010600005","2024-08-16T21:45:00",26.299,30.374289,0.265],
    [29664,"urn:WaterMeter:MC0203J22010600005","2024-08-16T22:00:00",26.2,30.349075,0.255],
    [29665,"urn:WaterMeter:MC0203J22010600005","2024-08-16T22:15:00",26.2,30.362614,0.271],
    [29666,"urn:WaterMeter:MC0203J22010600005","2024-08-16T22:30:00",26.1,30.342054,0.253],
    [29667,"urn:WaterMeter:MC0203J22010600005","2024-08-16T22:45:00",26.1,30.329681,0.252],
    [29668,"urn:WaterMeter:MC0203J22010600005","2024-08-16T23:00:00",26,30.321495,0.258],
    [29669,"urn:WaterMeter:MC0203J22010600005","2024-08-16T23:15:00",25.899,30.307182,0.254],
    [29670,"urn:WaterMeter:MC0203J22010600005","2024-08-16T23:30:00",25.899,30.31335,0.264],
    [29671,"urn:WaterMeter:MC0203J22010600005","2024-08-16T23:45:00",25.799,30.32266,0.261],
    [29672,"urn:WaterMeter:MC0203J22010600005","2024-08-17T00:00:00",25.7,30.313738,0.242],
    [29673,"urn:WaterMeter:MC0203J22010600005","2024-08-17T00:15:00",25.6,30.277702,0.277],
    [29674,"urn:WaterMeter:MC0203J22010600005","2024-08-17T00:30:00",25.5,30.300938,0.255],
    [29675,"urn:WaterMeter:MC0203J22010600005","2024-08-17T00:45:00",25.399,30.304428,0.252],
    [29676,"urn:WaterMeter:MC0203J22010600005","2024-08-17T01:00:00",25.399,30.27072,0.252],
    [29677,"urn:WaterMeter:MC0203J22010600005","2024-08-17T01:15:00",25.299,30.234646,0.262],
    [29678,"urn:WaterMeter:MC0203J22010600005","2024-08-17T01:30:00",25.2,30.261023,0.272],
    [29679,"urn:WaterMeter:MC0203J22010600005","2024-08-17T01:45:00",25.1,30.293179,0.261],
    [29680,"urn:WaterMeter:MC0203J22010600005","2024-08-17T02:00:00",25.1,30.281193,0.247],
    [29681,"urn:WaterMeter:MC0203J22010600005","2024-08-17T02:15:00",25,30.280416,0.245],
    [29682,"urn:WaterMeter:MC0203J22010600005","2024-08-17T02:30:00",24.899,30.266453,0.261],
    [29683,"urn:WaterMeter:MC0203J22010600005","2024-08-17T02:45:00",24.799,30.254389,0.25],
    [29684,"urn:WaterMeter:MC0203J22010600005","2024-08-17T03:00:00",24.7,30.260246,0.261],
    [29685,"urn:WaterMeter:MC0203J22010600005","2024-08-17T03:15:00",24.6,30.22107,0.252],
    [29686,"urn:WaterMeter:MC0203J22010600005","2024-08-17T03:30:00",24.5,30.254389,0.284],
    [29687,"urn:WaterMeter:MC0203J22010600005","2024-08-17T03:45:00",24.399,30.251713,0.262],
    [29688,"urn:WaterMeter:MC0203J22010600005","2024-08-17T04:00:00",24.399,30.194304,0.259],
    [29689,"urn:WaterMeter:MC0203J22010600005","2024-08-17T04:15:00",24.299,30.256756,0.259],
    [29690,"urn:WaterMeter:MC0203J22010600005","2024-08-17T04:30:00",24.2,30.259083,0.256],
    [29691,"urn:WaterMeter:MC0203J22010600005","2024-08-17T04:45:00",24.1,30.18767,0.251],
    [29692,"urn:WaterMeter:MC0203J22010600005","2024-08-17T05:00:00",24,30.216375,0.258],
    [29693,"urn:WaterMeter:MC0203J22010600005","2024-08-17T05:15:00",24,30.245468,0.265],
    [29694,"urn:WaterMeter:MC0203J22010600005","2024-08-17T05:30:00",23.899,30.19698,0.255],
    [29695,"urn:WaterMeter:MC0203J22010600005","2024-08-17T05:45:00",23.899,30.18034,0.269],
    [29696,"urn:WaterMeter:MC0203J22010600005","2024-08-17T06:00:00",23.799,30.17452,0.266],
    [29697,"urn:WaterMeter:MC0203J22010600005","2024-08-17T06:15:00",23.799,30.15978,0.26],
    [29698,"urn:WaterMeter:MC0203J22010600005","2024-08-17T06:30:00",23.799,30.194304,0.247],
    [29699,"urn:WaterMeter:MC0203J22010600005","2024-08-17T06:45:00",23.799,30.201286,0.248],
    [29700,"urn:WaterMeter:MC0203J22010600005","2024-08-17T07:00:00",23.899,30.196205,0.233],
    [29701,"urn:WaterMeter:MC0203J22010600005","2024-08-17T07:15:00",23.899,30.117111,0.252],
    [29702,"urn:WaterMeter:MC0203J22010600005","2024-08-17T07:30:00",24,30.143488,0.247],
    [29703,"urn:WaterMeter:MC0203J22010600005","2024-08-17T07:45:00",24.2,30.103148,0.241],
    [29704,"urn:WaterMeter:MC0203J22010600005","2024-08-17T08:00:00",24.299,30.086079,0.249],
    [29705,"urn:WaterMeter:MC0203J22010600005","2024-08-17T08:15:00",24.5,30.059702,0.24],
    [29706,"urn:WaterMeter:MC0203J22010600005","2024-08-17T08:30:00",24.7,30.01393,0.255],
    [29707,"urn:WaterMeter:MC0203J22010600005","2024-08-17T08:45:00",24.799,30.0213,0.243],
    [29708,"urn:WaterMeter:MC0203J22010600005","2024-08-17T09:00:00",25,29.999966,0.253],
    [29709,"urn:WaterMeter:MC0203J22010600005","2024-08-17T09:15:00",25.2,29.957684,0.232],
    [29710,"urn:WaterMeter:MC0203J22010600005","2024-08-17T09:30:00",25.299,29.945621,0.241],
    [29711,"urn:WaterMeter:MC0203J22010600005","2024-08-17T09:45:00",25.5,29.852951,0.243],
    [29712,"urn:WaterMeter:MC0203J22010600005","2024-08-17T10:00:00",25.6,29.868855,0.265],
    [29713,"urn:WaterMeter:MC0203J22010600005","2024-08-17T10:15:00",25.799,29.800585,0.236],
    [29714,"urn:WaterMeter:MC0203J22010600005","2024-08-17T10:30:00",25.899,29.771881,0.244],
    [29715,"urn:WaterMeter:MC0203J22010600005","2024-08-17T10:45:00",26.1,29.728048,0.241],
    [29716,"urn:WaterMeter:MC0203J22010600005","2024-08-17T11:00:00",26.399,29.664005,0.247],
    [29717,"urn:WaterMeter:MC0203J22010600005","2024-08-17T11:15:00",26.7,29.61672,0.252],
    [29718,"urn:WaterMeter:MC0203J22010600005","2024-08-17T11:30:00",26.899,29.551554,0.232],
    [29719,"urn:WaterMeter:MC0203J22010600005","2024-08-17T11:45:00",27.1,29.495308,0.238],
    [29720,"urn:WaterMeter:MC0203J22010600005","2024-08-17T12:00:00",27.299,29.452639,0.256],
    [29721,"urn:WaterMeter:MC0203J22010600005","2024-08-17T12:15:00",27.399,29.417728,0.26],
    [29722,"urn:WaterMeter:MC0203J22010600005","2024-08-17T12:30:00",27.6,29.322693,0.234],
    [29723,"urn:WaterMeter:MC0203J22010600005","2024-08-17T12:45:00",27.7,29.323816,0.228],
    [29724,"urn:WaterMeter:MC0203J22010600005","2024-08-17T13:00:00",27.899,29.2327,0.237],
    [29725,"urn:WaterMeter:MC0203J22010600005","2024-08-17T13:15:00",28,29.16055,0.235],
    [29726,"urn:WaterMeter:MC0203J22010600005","2024-08-17T13:30:00",28.2,29.137625,0.234],
    [29727,"urn:WaterMeter:MC0203J22010600005","2024-08-17T13:45:00",28.299,29.077927,0.244],
    [29728,"urn:WaterMeter:MC0203J22010600005","2024-08-17T14:00:00",28.399,29.013496,0.234],
    [29729,"urn:WaterMeter:MC0203J22010600005","2024-08-17T14:15:00",28.5,28.970867,0.23],
    [29730,"urn:WaterMeter:MC0203J22010600005","2024-08-17T14:30:00",28.6,28.926607,0.226],
    [29731,"urn:WaterMeter:MC0203J22010600005","2024-08-17T14:45:00",28.7,28.857948,0.238],
    [29732,"urn:WaterMeter:MC0203J22010600005","2024-08-17T15:00:00",28.7,28.82269,0.237],
    [29733,"urn:WaterMeter:MC0203J22010600005","2024-08-17T15:15:00",28.799,28.758686,0.231],
    [29734,"urn:WaterMeter:MC0203J22010600005","2024-08-17T15:30:00",28.799,28.73386,0.249],
    [29735,"urn:WaterMeter:MC0203J22010600005","2024-08-17T15:45:00",28.799,28.684557,0.231],
    [29736,"urn:WaterMeter:MC0203J22010600005","2024-08-17T16:00:00",28.799,28.619041,0.23],
    [29737,"urn:WaterMeter:MC0203J22010600005","2024-08-17T16:15:00",28.799,28.556938,0.222],
    [29738,"urn:WaterMeter:MC0203J22010600005","2024-08-17T16:30:00",28.7,28.551546,0.217],
    [29739,"urn:WaterMeter:MC0203J22010600005","2024-08-17T16:45:00",28.7,28.516985,0.227],
    [29740,"urn:WaterMeter:MC0203J22010600005","2024-08-17T17:00:00",28.6,28.46233,0.222],
    [29741,"urn:WaterMeter:MC0203J22010600005","2024-08-17T17:15:00",28.5,28.40492,0.235],
    [29742,"urn:WaterMeter:MC0203J22010600005","2024-08-17T17:30:00",28.399,28.435564,0.226],
    [29743,"urn:WaterMeter:MC0203J22010600005","2024-08-17T17:45:00",28.299,28.376604,0.23],
    [29744,"urn:WaterMeter:MC0203J22010600005","2024-08-17T18:00:00",28.2,28.37385,0.235],
    [29745,"urn:WaterMeter:MC0203J22010600005","2024-08-17T18:15:00",28.1,28.332771,0.232],
    [29746,"urn:WaterMeter:MC0203J22010600005","2024-08-17T18:30:00",28,28.338202,0.229],
    [29747,"urn:WaterMeter:MC0203J22010600005","2024-08-17T18:45:00",27.899,28.311049,0.237],
    [29748,"urn:WaterMeter:MC0203J22010600005","2024-08-17T19:00:00",27.799,28.29627,0.226],
    [29749,"urn:WaterMeter:MC0203J22010600005","2024-08-17T19:15:00",27.7,28.277264,0.226],
    [29750,"urn:WaterMeter:MC0203J22010600005","2024-08-17T19:30:00",27.6,28.28696,0.225],
    [29751,"urn:WaterMeter:MC0203J22010600005","2024-08-17T19:45:00",27.5,28.27575,0.236],
    [29752,"urn:WaterMeter:MC0203J22010600005","2024-08-17T20:00:00",27.399,28.264462,0.227],
    [29753,"urn:WaterMeter:MC0203J22010600005","2024-08-17T20:15:00",27.299,28.247007,0.241],
    [29754,"urn:WaterMeter:MC0203J22010600005","2024-08-17T20:30:00",27.2,28.233469,0.236],
    [29755,"urn:WaterMeter:MC0203J22010600005","2024-08-17T20:45:00",27.2,28.23153,0.225],
    [29756,"urn:WaterMeter:MC0203J22010600005","2024-08-17T21:00:00",27.1,28.219893,0.227],
    [29757,"urn:WaterMeter:MC0203J22010600005","2024-08-17T21:15:00",27,28.23696,0.231],
    [29758,"urn:WaterMeter:MC0203J22010600005","2024-08-17T21:30:00",26.899,28.236572,0.229],
    [29759,"urn:WaterMeter:MC0203J22010600005","2024-08-17T21:45:00",26.799,28.237309,0.228],
    [29760,"urn:WaterMeter:MC0203J22010600005","2024-08-17T22:00:00",26.7,28.179125,0.237],
    [29761,"urn:WaterMeter:MC0203J22010600005","2024-08-17T22:15:00",26.6,28.206665,0.236],
    [29762,"urn:WaterMeter:MC0203J22010600005","2024-08-17T22:30:00",26.5,28.206278,0.229],
    [29763,"urn:WaterMeter:MC0203J22010600005","2024-08-17T22:45:00",26.399,28.1799,0.232],
    [29764,"urn:WaterMeter:MC0203J22010600005","2024-08-17T23:00:00",26.399,28.191189,0.223],
    [29765,"urn:WaterMeter:MC0203J22010600005","2024-08-17T23:15:00",26.299,28.207441,0.221],
    [29766,"urn:WaterMeter:MC0203J22010600005","2024-08-17T23:30:00",26.2,28.193516,0.239],
    [29767,"urn:WaterMeter:MC0203J22010600005","2024-08-17T23:45:00",26.1,28.170591,0.224],
    [29768,"urn:WaterMeter:MC0203J22010600005","2024-08-18T00:00:00",26.1,28.193127,0.221],
    [29769,"urn:WaterMeter:MC0203J22010600005","2024-08-18T00:15:00",26,28.139597,0.22],
    [29770,"urn:WaterMeter:MC0203J22010600005","2024-08-18T00:30:00",25.899,28.171793,0.236],
    [29771,"urn:WaterMeter:MC0203J22010600005","2024-08-18T00:45:00",25.799,28.138046,0.227],
    [29772,"urn:WaterMeter:MC0203J22010600005","2024-08-18T01:00:00",25.7,28.178,0.218],
    [29773,"urn:WaterMeter:MC0203J22010600005","2024-08-18T01:15:00",25.6,28.14848,0.222],
    [29774,"urn:WaterMeter:MC0203J22010600005","2024-08-18T01:30:00",25.5,28.151196,0.222],
    [29775,"urn:WaterMeter:MC0203J22010600005","2024-08-18T01:45:00",25.399,28.14658,0.218],
    [29776,"urn:WaterMeter:MC0203J22010600005","2024-08-18T02:00:00",25.299,28.14464,0.235],
    [29777,"urn:WaterMeter:MC0203J22010600005","2024-08-18T02:15:00",25.2,28.11516,0.215],
    [29778,"urn:WaterMeter:MC0203J22010600005","2024-08-18T02:30:00",25.1,28.153563,0.214],
    [29779,"urn:WaterMeter:MC0203J22010600005","2024-08-18T02:45:00",25,28.134167,0.213],
    [29780,"urn:WaterMeter:MC0203J22010600005","2024-08-18T03:00:00",24.899,28.115934,0.216],
    [29781,"urn:WaterMeter:MC0203J22010600005","2024-08-18T03:15:00",24.799,28.121716,0.218],
    [29782,"urn:WaterMeter:MC0203J22010600005","2024-08-18T03:30:00",24.7,28.11671,0.228],
    [29783,"urn:WaterMeter:MC0203J22010600005","2024-08-18T03:45:00",24.6,28.150808,0.227],
    [29784,"urn:WaterMeter:MC0203J22010600005","2024-08-18T04:00:00",24.5,28.117874,0.215],
    [29785,"urn:WaterMeter:MC0203J22010600005","2024-08-18T04:15:00",24.5,28.121716,0.226],
    [29786,"urn:WaterMeter:MC0203J22010600005","2024-08-18T04:30:00",24.399,28.134167,0.218],
    [29787,"urn:WaterMeter:MC0203J22010600005","2024-08-18T04:45:00",24.299,28.086067,0.247],
    [29788,"urn:WaterMeter:MC0203J22010600005","2024-08-18T05:00:00",24.2,28.110079,0.217],
    [29789,"urn:WaterMeter:MC0203J22010600005","2024-08-18T05:15:00",24.1,28.140722,0.222],
    [29790,"urn:WaterMeter:MC0203J22010600005","2024-08-18T05:30:00",24,28.11516,0.221],
    [29791,"urn:WaterMeter:MC0203J22010600005","2024-08-18T05:45:00",23.899,28.060854,0.216],
    [29792,"urn:WaterMeter:MC0203J22010600005","2024-08-18T06:00:00",23.899,28.084515,0.229],
    [29793,"urn:WaterMeter:MC0203J22010600005","2024-08-18T06:15:00",23.799,28.10585,0.219],
    [29794,"urn:WaterMeter:MC0203J22010600005","2024-08-18T06:30:00",23.799,28.073616,0.226],
    [29795,"urn:WaterMeter:MC0203J22010600005","2024-08-18T06:45:00",23.799,28.092234,0.242],
    [29796,"urn:WaterMeter:MC0203J22010600005","2024-08-18T07:00:00",23.799,28.096153,0.219],
    [29797,"urn:WaterMeter:MC0203J22010600005","2024-08-18T07:15:00",23.899,28.053833,0.221],
    [29798,"urn:WaterMeter:MC0203J22010600005","2024-08-18T07:30:00",24,28.005344,0.211],
    [29799,"urn:WaterMeter:MC0203J22010600005","2024-08-18T07:45:00",24.1,28.00612,0.225],
    [29800,"urn:WaterMeter:MC0203J22010600005","2024-08-18T08:00:00",24.299,27.992582,0.205],
    [29801,"urn:WaterMeter:MC0203J22010600005","2024-08-18T08:15:00",24.6,27.97664,0.22],
    [29802,"urn:WaterMeter:MC0203J22010600005","2024-08-18T08:30:00",24.799,27.908758,0.212],
    [29803,"urn:WaterMeter:MC0203J22010600005","2024-08-18T08:45:00",25,27.890177,0.205],
    [29804,"urn:WaterMeter:MC0203J22010600005","2024-08-18T09:00:00",25.2,27.854103,0.208],
    [29805,"urn:WaterMeter:MC0203J22010600005","2024-08-18T09:15:00",25.399,27.817253,0.208],
    [29806,"urn:WaterMeter:MC0203J22010600005","2024-08-18T09:30:00",25.7,27.78816,0.222],
    [29807,"urn:WaterMeter:MC0203J22010600005","2024-08-18T09:45:00",25.899,27.684164,0.22],
    [29808,"urn:WaterMeter:MC0203J22010600005","2024-08-18T10:00:00",26.1,27.625978,0.213],
    [29809,"urn:WaterMeter:MC0203J22010600005","2024-08-18T10:15:00",26.299,27.641146,0.224],
    [29810,"urn:WaterMeter:MC0203J22010600005","2024-08-18T10:30:00",26.5,27.55154,0.212],
    [29811,"urn:WaterMeter:MC0203J22010600005","2024-08-18T10:45:00",26.799,27.46306,0.208],
    [29812,"urn:WaterMeter:MC0203J22010600005","2024-08-18T11:00:00",27.1,27.445255,0.215],
    [29813,"urn:WaterMeter:MC0203J22010600005","2024-08-18T11:15:00",27.399,27.381252,0.215],
    [29814,"urn:WaterMeter:MC0203J22010600005","2024-08-18T11:30:00",27.7,27.332376,0.223],
    [29815,"urn:WaterMeter:MC0203J22010600005","2024-08-18T11:45:00",27.899,27.262167,0.228],
    [29816,"urn:WaterMeter:MC0203J22010600005","2024-08-18T12:00:00",28,27.19506,0.201],
    [29817,"urn:WaterMeter:MC0203J22010600005","2024-08-18T12:15:00",28.2,27.137651,0.213],
    [29818,"urn:WaterMeter:MC0203J22010600005","2024-08-18T12:30:00",28.299,27.077526,0.197],
    [29819,"urn:WaterMeter:MC0203J22010600005","2024-08-18T12:45:00",28.5,26.975897,0.199],
    [29820,"urn:WaterMeter:MC0203J22010600005","2024-08-18T13:00:00",28.7,26.921204,0.211],
    [29821,"urn:WaterMeter:MC0203J22010600005","2024-08-18T13:15:00",28.799,26.886292,0.203],
    [29822,"urn:WaterMeter:MC0203J22010600005","2024-08-18T13:30:00",28.899,26.785051,0.201],
    [29823,"urn:WaterMeter:MC0203J22010600005","2024-08-18T13:45:00",29.1,26.729193,0.205],
    [29824,"urn:WaterMeter:MC0203J22010600005","2024-08-18T14:00:00",29.299,26.6283,0.199],
    [29825,"urn:WaterMeter:MC0203J22010600005","2024-08-18T14:15:00",29.5,26.584118,0.192],
    [29826,"urn:WaterMeter:MC0203J22010600005","2024-08-18T14:30:00",29.6,26.5193,0.192],
    [29827,"urn:WaterMeter:MC0203J22010600005","2024-08-18T14:45:00",29.7,26.458826,0.208],
    [29828,"urn:WaterMeter:MC0203J22010600005","2024-08-18T15:00:00",29.799,26.395948,0.203],
    [29829,"urn:WaterMeter:MC0203J22010600005","2024-08-18T15:15:00",29.799,26.352541,0.2],
    [29830,"urn:WaterMeter:MC0203J22010600005","2024-08-18T15:30:00",29.799,26.285435,0.192],
    [29831,"urn:WaterMeter:MC0203J22010600005","2024-08-18T15:45:00",29.7,26.239624,0.197],
    [29832,"urn:WaterMeter:MC0203J22010600005","2024-08-18T16:00:00",29.7,26.184582,0.201],
    [29833,"urn:WaterMeter:MC0203J22010600005","2024-08-18T16:15:00",29.6,26.15898,0.201],
    [29834,"urn:WaterMeter:MC0203J22010600005","2024-08-18T16:30:00",29.5,26.104248,0.208],
    [29835,"urn:WaterMeter:MC0203J22010600005","2024-08-18T16:45:00",29.399,26.06084,0.198],
    [29836,"urn:WaterMeter:MC0203J22010600005","2024-08-18T17:00:00",29.299,26.025154,0.192],
    [29837,"urn:WaterMeter:MC0203J22010600005","2024-08-18T17:15:00",29.2,26.014643,0.196],
    [29838,"urn:WaterMeter:MC0203J22010600005","2024-08-18T17:30:00",29.1,25.99257,0.197],
    [29839,"urn:WaterMeter:MC0203J22010600005","2024-08-18T17:45:00",29,25.933609,0.195],
    [29840,"urn:WaterMeter:MC0203J22010600005","2024-08-18T18:00:00",28.899,25.931282,0.196],
    [29841,"urn:WaterMeter:MC0203J22010600005","2024-08-18T18:15:00",28.7,25.919994,0.19],
    [29842,"urn:WaterMeter:MC0203J22010600005","2024-08-18T18:30:00",28.6,25.869995,0.203],
    [29843,"urn:WaterMeter:MC0203J22010600005","2024-08-18T18:45:00",28.5,25.862585,0.194],
    [29844,"urn:WaterMeter:MC0203J22010600005","2024-08-18T19:00:00",28.299,25.862198,0.194],
    [29845,"urn:WaterMeter:MC0203J22010600005","2024-08-18T19:15:00",28.2,25.807154,0.2],
    [29846,"urn:WaterMeter:MC0203J22010600005","2024-08-18T19:30:00",28.1,25.818016,0.189],
    [29847,"urn:WaterMeter:MC0203J22010600005","2024-08-18T19:45:00",28.1,25.814098,0.194],
    [29848,"urn:WaterMeter:MC0203J22010600005","2024-08-18T20:00:00",28,25.799784,0.201],
    [29849,"urn:WaterMeter:MC0203J22010600005","2024-08-18T20:15:00",27.899,25.788147,0.19],
    [29850,"urn:WaterMeter:MC0203J22010600005","2024-08-18T20:30:00",27.799,25.80793,0.192],
    [29851,"urn:WaterMeter:MC0203J22010600005","2024-08-18T20:45:00",27.7,25.763283,0.183],
    [29852,"urn:WaterMeter:MC0203J22010600005","2024-08-18T21:00:00",27.6,25.808706,0.186],
    [29853,"urn:WaterMeter:MC0203J22010600005","2024-08-18T21:15:00",27.6,25.775309,0.193],
    [29854,"urn:WaterMeter:MC0203J22010600005","2024-08-18T21:30:00",27.5,25.73035,0.199],
    [29855,"urn:WaterMeter:MC0203J22010600005","2024-08-18T21:45:00",27.399,25.779613,0.191],
    [29856,"urn:WaterMeter:MC0203J22010600005","2024-08-18T22:00:00",27.299,25.751684,0.2],
    [29857,"urn:WaterMeter:MC0203J22010600005","2024-08-18T22:15:00",27.2,25.74897,0.187],
    [29858,"urn:WaterMeter:MC0203J22010600005","2024-08-18T22:30:00",27.1,25.75052,0.196],
    [29859,"urn:WaterMeter:MC0203J22010600005","2024-08-18T22:45:00",27,25.706263,0.18],
    [29860,"urn:WaterMeter:MC0203J22010600005","2024-08-18T23:00:00",26.899,25.735004,0.192],
    [29861,"urn:WaterMeter:MC0203J22010600005","2024-08-18T23:15:00",26.799,25.76561,0.188],
    [29862,"urn:WaterMeter:MC0203J22010600005","2024-08-18T23:30:00",26.7,25.738497,0.192],
    [29863,"urn:WaterMeter:MC0203J22010600005","2024-08-18T23:45:00",26.7,25.688845,0.191],
    [29864,"urn:WaterMeter:MC0203J22010600005","2024-08-19T00:00:00",26.6,25.73035,0.194],
    [29865,"urn:WaterMeter:MC0203J22010600005","2024-08-19T00:15:00",26.5,25.720264,0.184],
    [29866,"urn:WaterMeter:MC0203J22010600005","2024-08-19T00:30:00",26.399,25.704323,0.184],
    [29867,"urn:WaterMeter:MC0203J22010600005","2024-08-19T00:45:00",26.299,25.703197,0.195],
    [29868,"urn:WaterMeter:MC0203J22010600005","2024-08-19T01:00:00",26.2,25.706263,0.183],
    [29869,"urn:WaterMeter:MC0203J22010600005","2024-08-19T01:15:00",26.2,25.713284,0.197],
    [29870,"urn:WaterMeter:MC0203J22010600005","2024-08-19T01:30:00",26.1,25.660915,0.197],
    [29871,"urn:WaterMeter:MC0203J22010600005","2024-08-19T01:45:00",26,25.671778,0.186],
    [29872,"urn:WaterMeter:MC0203J22010600005","2024-08-19T02:00:00",25.899,25.67682,0.196],
    [29873,"urn:WaterMeter:MC0203J22010600005","2024-08-19T02:15:00",25.799,25.671389,0.192],
    [29874,"urn:WaterMeter:MC0203J22010600005","2024-08-19T02:30:00",25.7,25.711731,0.205],
    [29875,"urn:WaterMeter:MC0203J22010600005","2024-08-19T02:45:00",25.7,25.70471,0.189],
    [29876,"urn:WaterMeter:MC0203J22010600005","2024-08-19T03:00:00",25.6,25.68803,0.195],
    [29877,"urn:WaterMeter:MC0203J22010600005","2024-08-19T03:15:00",25.5,25.650442,0.185],
    [29878,"urn:WaterMeter:MC0203J22010600005","2024-08-19T03:30:00",25.399,25.687254,0.187],
    [29879,"urn:WaterMeter:MC0203J22010600005","2024-08-19T03:45:00",25.299,25.6473,0.185],
    [29880,"urn:WaterMeter:MC0203J22010600005","2024-08-19T04:00:00",25.2,25.63838,0.184],
    [29881,"urn:WaterMeter:MC0203J22010600005","2024-08-19T04:15:00",25.1,25.633375,0.182],
    [29882,"urn:WaterMeter:MC0203J22010600005","2024-08-19T04:30:00",25,25.67682,0.186],
    [29883,"urn:WaterMeter:MC0203J22010600005","2024-08-19T04:45:00",25,25.650831,0.185],
    [29884,"urn:WaterMeter:MC0203J22010600005","2024-08-19T05:00:00",24.899,25.651608,0.186],
    [29885,"urn:WaterMeter:MC0203J22010600005","2024-08-19T05:15:00",24.899,25.628294,0.19],
    [29886,"urn:WaterMeter:MC0203J22010600005","2024-08-19T05:30:00",25,25.626741,0.193],
    [29887,"urn:WaterMeter:MC0203J22010600005","2024-08-19T05:45:00",25,25.617083,0.192],
    [29888,"urn:WaterMeter:MC0203J22010600005","2024-08-19T06:00:00",25,25.62713,0.185],
    [29889,"urn:WaterMeter:MC0203J22010600005","2024-08-19T06:15:00",25,25.562777,0.193],
    [29890,"urn:WaterMeter:MC0203J22010600005","2024-08-19T06:30:00",25.1,25.702034,0.202],
    [29891,"urn:WaterMeter:MC0203J22010600005","2024-08-19T06:45:00",25.1,26.584894,0.227],
    [29892,"urn:WaterMeter:MC0203J22010600005","2024-08-19T07:00:00",25.2,28.119814,0.239],
    [29893,"urn:WaterMeter:MC0203J22010600005","2024-08-19T07:15:00",25.299,29.443716,0.259],
    [29894,"urn:WaterMeter:MC0203J22010600005","2024-08-19T07:30:00",25.399,30.314552,0.268],
    [29895,"urn:WaterMeter:MC0203J22010600005","2024-08-19T07:45:00",25.5,30.994541,0.274],
    [29896,"urn:WaterMeter:MC0203J22010600005","2024-08-19T08:00:00",25.7,31.383217,0.251],
    [29897,"urn:WaterMeter:MC0203J22010600005","2024-08-19T08:15:00",25.899,31.387056,0.267],
    [29898,"urn:WaterMeter:MC0203J22010600005","2024-08-19T08:30:00",26.1,31.324644,0.275],
    [29899,"urn:WaterMeter:MC0203J22010600005","2024-08-19T08:45:00",26.299,31.306025,0.254],
    [29900,"urn:WaterMeter:MC0203J22010600005","2024-08-19T09:00:00",26.399,31.231897,0.25],
    [29901,"urn:WaterMeter:MC0203J22010600005","2024-08-19T09:15:00",26.6,31.226118,0.257],
    [29902,"urn:WaterMeter:MC0203J22010600005","2024-08-19T09:30:00",26.7,31.20905,0.261],
    [29903,"urn:WaterMeter:MC0203J22010600005","2024-08-19T09:45:00",26.899,31.151253,0.249],
    [29904,"urn:WaterMeter:MC0203J22010600005","2024-08-19T10:00:00",27,31.038723,0.265],
    [29905,"urn:WaterMeter:MC0203J22010600005","2024-08-19T10:15:00",27.2,31.035658,0.277],
    [29906,"urn:WaterMeter:MC0203J22010600005","2024-08-19T10:30:00",27.299,30.998032,0.248],
    [29907,"urn:WaterMeter:MC0203J22010600005","2024-08-19T10:45:00",27.5,30.967388,0.273],
    [29908,"urn:WaterMeter:MC0203J22010600005","2024-08-19T11:00:00",27.799,30.928211,0.263],
    [29909,"urn:WaterMeter:MC0203J22010600005","2024-08-19T11:15:00",28.1,30.861103,0.26],
    [29910,"urn:WaterMeter:MC0203J22010600005","2024-08-19T11:30:00",28.299,30.840933,0.262],
    [29911,"urn:WaterMeter:MC0203J22010600005","2024-08-19T11:45:00",28.399,30.813004,0.244],
    [29912,"urn:WaterMeter:MC0203J22010600005","2024-08-19T12:00:00",28.6,30.724564,0.247],
    [29913,"urn:WaterMeter:MC0203J22010600005","2024-08-19T12:15:00",28.7,30.69547,0.264],
    [29914,"urn:WaterMeter:MC0203J22010600005","2024-08-19T12:30:00",28.799,30.653538,0.247],
    [29915,"urn:WaterMeter:MC0203J22010600005","2024-08-19T12:45:00",28.899,30.574018,0.26],
    [29916,"urn:WaterMeter:MC0203J22010600005","2024-08-19T13:00:00",29.1,30.555399,0.247],
    [29917,"urn:WaterMeter:MC0203J22010600005","2024-08-19T13:15:00",29.2,30.49799,0.245],
    [29918,"urn:WaterMeter:MC0203J22010600005","2024-08-19T13:30:00",29.299,30.461567,0.251],
    [29919,"urn:WaterMeter:MC0203J22010600005","2024-08-19T13:45:00",29.399,30.406097,0.242],
    [29920,"urn:WaterMeter:MC0203J22010600005","2024-08-19T14:00:00",29.5,30.360287,0.26],
    [29921,"urn:WaterMeter:MC0203J22010600005","2024-08-19T14:15:00",29.6,30.317656,0.254],
    [29922,"urn:WaterMeter:MC0203J22010600005","2024-08-19T14:30:00",29.7,30.245855,0.259],
    [29923,"urn:WaterMeter:MC0203J22010600005","2024-08-19T14:45:00",29.7,30.219517,0.252],
    [29924,"urn:WaterMeter:MC0203J22010600005","2024-08-19T15:00:00",29.799,30.19469,0.25],
    [29925,"urn:WaterMeter:MC0203J22010600005","2024-08-19T15:15:00",29.799,30.133015,0.253],
    [29926,"urn:WaterMeter:MC0203J22010600005","2024-08-19T15:30:00",29.799,30.11009,0.253],
    [29927,"urn:WaterMeter:MC0203J22010600005","2024-08-19T15:45:00",29.799,30.08798,0.244],
    [29928,"urn:WaterMeter:MC0203J22010600005","2024-08-19T16:00:00",29.799,30.020525,0.241],
    [29929,"urn:WaterMeter:MC0203J22010600005","2024-08-19T16:15:00",29.799,30.024015,0.24],
    [29930,"urn:WaterMeter:MC0203J22010600005","2024-08-19T16:30:00",29.7,29.980183,0.238],
    [29931,"urn:WaterMeter:MC0203J22010600005","2024-08-19T16:45:00",29.7,29.948763,0.246],
    [29932,"urn:WaterMeter:MC0203J22010600005","2024-08-19T17:00:00",29.6,29.897133,0.237],
    [29933,"urn:WaterMeter:MC0203J22010600005","2024-08-19T17:15:00",29.5,29.870407,0.255],
    [29934,"urn:WaterMeter:MC0203J22010600005","2024-08-19T17:30:00",29.399,29.84403,0.237],
    [29935,"urn:WaterMeter:MC0203J22010600005","2024-08-19T17:45:00",29.399,29.82541,0.248],
    [29936,"urn:WaterMeter:MC0203J22010600005","2024-08-19T18:00:00",29.299,29.783518,0.243],
    [29937,"urn:WaterMeter:MC0203J22010600005","2024-08-19T18:15:00",29.2,29.794378,0.248],
    [29938,"urn:WaterMeter:MC0203J22010600005","2024-08-19T18:30:00",29.1,29.762182,0.247],
    [29939,"urn:WaterMeter:MC0203J22010600005","2024-08-19T18:45:00",28.899,29.715635,0.264],
    [29940,"urn:WaterMeter:MC0203J22010600005","2024-08-19T19:00:00",28.799,29.702019,0.238],
    [29941,"urn:WaterMeter:MC0203J22010600005","2024-08-19T19:15:00",28.7,29.701244,0.254],
    [29942,"urn:WaterMeter:MC0203J22010600005","2024-08-19T19:30:00",28.6,29.67956,0.237],
    [29943,"urn:WaterMeter:MC0203J22010600005","2024-08-19T19:45:00",28.6,29.688093,0.247],
    [29944,"urn:WaterMeter:MC0203J22010600005","2024-08-19T20:00:00",28.5,29.681072,0.261],
    [29945,"urn:WaterMeter:MC0203J22010600005","2024-08-19T20:15:00",28.399,29.695463,0.251],
    [29946,"urn:WaterMeter:MC0203J22010600005","2024-08-19T20:30:00",28.299,29.635302,0.25],
    [29947,"urn:WaterMeter:MC0203J22010600005","2024-08-19T20:45:00",28.299,29.643059,0.242],
    [29948,"urn:WaterMeter:MC0203J22010600005","2024-08-19T21:00:00",28.2,29.673315,0.236],
    [29949,"urn:WaterMeter:MC0203J22010600005","2024-08-19T21:15:00",28.1,29.630684,0.235],
    [29950,"urn:WaterMeter:MC0203J22010600005","2024-08-19T21:30:00",28.1,29.62991,0.231],
    [29951,"urn:WaterMeter:MC0203J22010600005","2024-08-19T21:45:00",28,29.61129,0.24],
    [29952,"urn:WaterMeter:MC0203J22010600005","2024-08-19T22:00:00",27.799,29.587627,0.241],
    [29953,"urn:WaterMeter:MC0203J22010600005","2024-08-19T22:15:00",27.7,29.623663,0.249],
    [29954,"urn:WaterMeter:MC0203J22010600005","2024-08-19T22:30:00",27.7,29.605045,0.249],
    [29955,"urn:WaterMeter:MC0203J22010600005","2024-08-19T22:45:00",27.6,29.557333,0.234],
    [29956,"urn:WaterMeter:MC0203J22010600005","2024-08-19T23:00:00",27.6,29.591894,0.233],
    [29957,"urn:WaterMeter:MC0203J22010600005","2024-08-19T23:15:00",27.5,29.536774,0.243],
    [29958,"urn:WaterMeter:MC0203J22010600005","2024-08-19T23:30:00",27.399,29.564703,0.249],
    [29959,"urn:WaterMeter:MC0203J22010600005","2024-08-19T23:45:00",27.399,29.529444,0.231],
    [29960,"urn:WaterMeter:MC0203J22010600005","2024-08-20T00:00:00",27.299,29.550777,0.235],
    [29961,"urn:WaterMeter:MC0203J22010600005","2024-08-20T00:15:00",27.299,29.5263,0.241],
    [29962,"urn:WaterMeter:MC0203J22010600005","2024-08-20T00:30:00",27.2,29.562414,0.236],
    [29963,"urn:WaterMeter:MC0203J22010600005","2024-08-20T00:45:00",27.2,29.55194,0.248],
    [29964,"urn:WaterMeter:MC0203J22010600005","2024-08-20T01:00:00",27.1,29.528627,0.235],
    [29965,"urn:WaterMeter:MC0203J22010600005","2024-08-20T01:15:00",27,29.530607,0.231],
    [29966,"urn:WaterMeter:MC0203J22010600005","2024-08-20T01:30:00",27,29.536774,0.242],
    [29967,"urn:WaterMeter:MC0203J22010600005","2024-08-20T01:45:00",26.899,29.488287,0.246],
    [29968,"urn:WaterMeter:MC0203J22010600005","2024-08-20T02:00:00",26.899,29.508846,0.242],
    [29969,"urn:WaterMeter:MC0203J22010600005","2024-08-20T02:15:00",26.899,29.494144,0.238],
    [29970,"urn:WaterMeter:MC0203J22010600005","2024-08-20T02:30:00",26.799,29.492981,0.233],
    [29971,"urn:WaterMeter:MC0203J22010600005","2024-08-20T02:45:00",26.799,29.46928,0.238],
    [29972,"urn:WaterMeter:MC0203J22010600005","2024-08-20T03:00:00",26.7,29.44682,0.239],
    [29973,"urn:WaterMeter:MC0203J22010600005","2024-08-20T03:15:00",26.7,29.462725,0.237],
    [29974,"urn:WaterMeter:MC0203J22010600005","2024-08-20T03:30:00",26.6,29.447945,0.241],
    [29975,"urn:WaterMeter:MC0203J22010600005","2024-08-20T03:45:00",26.6,29.462725,0.243],
    [29976,"urn:WaterMeter:MC0203J22010600005","2024-08-20T04:00:00",26.5,29.462336,0.239],
    [29977,"urn:WaterMeter:MC0203J22010600005","2024-08-20T04:15:00",26.399,29.43208,0.248],
    [29978,"urn:WaterMeter:MC0203J22010600005","2024-08-20T04:30:00",26.399,29.449884,0.237],
    [29979,"urn:WaterMeter:MC0203J22010600005","2024-08-20T04:45:00",26.299,29.461561,0.233],
    [29980,"urn:WaterMeter:MC0203J22010600005","2024-08-20T05:00:00",26.2,29.466215,0.259],
    [29981,"urn:WaterMeter:MC0203J22010600005","2024-08-20T05:15:00",26.299,29.41928,0.236],
    [29982,"urn:WaterMeter:MC0203J22010600005","2024-08-20T05:30:00",26.299,29.483671,0.248],
    [29983,"urn:WaterMeter:MC0203J22010600005","2024-08-20T05:45:00",26.299,29.790073,0.247],
    [29984,"urn:WaterMeter:MC0203J22010600005","2024-08-20T06:00:00",26.299,30.461954,0.259],
    [29985,"urn:WaterMeter:MC0203J22010600005","2024-08-20T06:15:00",26.299,31.15164,0.258],
    [29986,"urn:WaterMeter:MC0203J22010600005","2024-08-20T06:30:00",26.399,31.563164,0.27],
    [29987,"urn:WaterMeter:MC0203J22010600005","2024-08-20T06:45:00",26.399,31.821156,0.275],
    [29988,"urn:WaterMeter:MC0203J22010600005","2024-08-20T07:00:00",26.5,32.029808,0.279],
    [29989,"urn:WaterMeter:MC0203J22010600005","2024-08-20T07:15:00",26.6,32.166775,0.274],
    [29990,"urn:WaterMeter:MC0203J22010600005","2024-08-20T07:30:00",26.7,32.345207,0.284],
    [29991,"urn:WaterMeter:MC0203J22010600005","2024-08-20T07:45:00",26.799,32.430546,0.279],
    [29992,"urn:WaterMeter:MC0203J22010600005","2024-08-20T08:00:00",26.799,32.50537,0.291],
    [29993,"urn:WaterMeter:MC0203J22010600005","2024-08-20T08:15:00",26.899,32.321934,0.272],
    [29994,"urn:WaterMeter:MC0203J22010600005","2024-08-20T08:30:00",26.899,32.06627,0.282],
    [29995,"urn:WaterMeter:MC0203J22010600005","2024-08-20T08:45:00",26.899,31.99063,0.281],
    [29996,"urn:WaterMeter:MC0203J22010600005","2024-08-20T09:00:00",27,31.904516,0.272],
    [29997,"urn:WaterMeter:MC0203J22010600005","2024-08-20T09:15:00",27.1,31.801762,0.275],
    [29998,"urn:WaterMeter:MC0203J22010600005","2024-08-20T09:30:00",27.2,31.725733,0.261],
    [29999,"urn:WaterMeter:MC0203J22010600005","2024-08-20T09:45:00",27.299,31.669874,0.262],
    [30000,"urn:WaterMeter:MC0203J22010600005","2024-08-20T10:00:00",27.399,31.617508,0.27],
    [30001,"urn:WaterMeter:MC0203J22010600005","2024-08-20T10:15:00",27.6,31.574413,0.264],
    [30002,"urn:WaterMeter:MC0203J22010600005","2024-08-20T10:30:00",27.7,31.521698,0.266],
    [30003,"urn:WaterMeter:MC0203J22010600005","2024-08-20T10:45:00",27.799,31.460022,0.26],
    [30004,"urn:WaterMeter:MC0203J22010600005","2024-08-20T11:00:00",28,31.425499,0.258],
    [30005,"urn:WaterMeter:MC0203J22010600005","2024-08-20T11:15:00",28.2,31.376623,0.267],
    [30006,"urn:WaterMeter:MC0203J22010600005","2024-08-20T11:30:00",28.399,31.261805,0.253],
    [30007,"urn:WaterMeter:MC0203J22010600005","2024-08-20T11:45:00",28.6,31.221462,0.278],
    [30008,"urn:WaterMeter:MC0203J22010600005","2024-08-20T12:00:00",28.7,31.213278,0.25],
    [30009,"urn:WaterMeter:MC0203J22010600005","2024-08-20T12:15:00",28.799,31.143106,0.266],
    [30010,"urn:WaterMeter:MC0203J22010600005","2024-08-20T12:30:00",28.899,31.09268,0.279],
    [30011,"urn:WaterMeter:MC0203J22010600005","2024-08-20T12:45:00",29,31.0395,0.261],
    [30012,"urn:WaterMeter:MC0203J22010600005","2024-08-20T13:00:00",29.1,30.981314,0.261],
    [30013,"urn:WaterMeter:MC0203J22010600005","2024-08-20T13:15:00",29.2,30.948381,0.264],
    [30014,"urn:WaterMeter:MC0203J22010600005","2024-08-20T13:30:00",29.299,30.871965,0.257],
    [30015,"urn:WaterMeter:MC0203J22010600005","2024-08-20T13:45:00",29.399,30.840546,0.249],
    [30016,"urn:WaterMeter:MC0203J22010600005","2024-08-20T14:00:00",29.5,30.769133,0.253],
    [30017,"urn:WaterMeter:MC0203J22010600005","2024-08-20T14:15:00",29.6,30.764128,0.252],
    [30018,"urn:WaterMeter:MC0203J22010600005","2024-08-20T14:30:00",29.7,30.69039,0.258],
    [30019,"urn:WaterMeter:MC0203J22010600005","2024-08-20T14:45:00",29.7,30.641552,0.252],
    [30020,"urn:WaterMeter:MC0203J22010600005","2024-08-20T15:00:00",29.799,30.597332,0.254],
    [30021,"urn:WaterMeter:MC0203J22010600005","2024-08-20T15:15:00",29.799,30.567076,0.272],
    [30022,"urn:WaterMeter:MC0203J22010600005","2024-08-20T15:30:00",29.7,30.515446,0.249],
    [30023,"urn:WaterMeter:MC0203J22010600005","2024-08-20T15:45:00",29.7,30.4829,0.25],
    [30024,"urn:WaterMeter:MC0203J22010600005","2024-08-20T16:00:00",29.6,30.439417,0.275],
    [30025,"urn:WaterMeter:MC0203J22010600005","2024-08-20T16:15:00",29.5,30.413467,0.25],
    [30026,"urn:WaterMeter:MC0203J22010600005","2024-08-20T16:30:00",29.5,30.350239,0.254],
    [30027,"urn:WaterMeter:MC0203J22010600005","2024-08-20T16:45:00",29.399,30.334723,0.254],
    [30028,"urn:WaterMeter:MC0203J22010600005","2024-08-20T17:00:00",29.399,30.321884,0.259],
    [30029,"urn:WaterMeter:MC0203J22010600005","2024-08-20T17:15:00",29.299,30.256367,0.274],
    [30030,"urn:WaterMeter:MC0203J22010600005","2024-08-20T17:30:00",29.2,30.262148,0.255],
    [30031,"urn:WaterMeter:MC0203J22010600005","2024-08-20T17:45:00",29.1,30.21874,0.251],
    [30032,"urn:WaterMeter:MC0203J22010600005","2024-08-20T18:00:00",29,30.18383,0.26],
    [30033,"urn:WaterMeter:MC0203J22010600005","2024-08-20T18:15:00",29,30.19698,0.248],
    [30034,"urn:WaterMeter:MC0203J22010600005","2024-08-20T18:30:00",28.899,30.142324,0.254],
    [30035,"urn:WaterMeter:MC0203J22010600005","2024-08-20T18:45:00",28.799,30.148104,0.266],
    [30036,"urn:WaterMeter:MC0203J22010600005","2024-08-20T19:00:00",28.7,30.105474,0.263],
    [30037,"urn:WaterMeter:MC0203J22010600005","2024-08-20T19:15:00",28.6,30.104311,0.264],
    [30038,"urn:WaterMeter:MC0203J22010600005","2024-08-20T19:30:00",28.5,30.091084,0.254],
    [30039,"urn:WaterMeter:MC0203J22010600005","2024-08-20T19:45:00",28.399,30.107763,0.249],
    [30040,"urn:WaterMeter:MC0203J22010600005","2024-08-20T20:00:00",28.299,30.06044,0.26],
    [30041,"urn:WaterMeter:MC0203J22010600005","2024-08-20T20:15:00",28.2,30.094225,0.241],
    [30042,"urn:WaterMeter:MC0203J22010600005","2024-08-20T20:30:00",28.1,30.056211,0.256],
    [30043,"urn:WaterMeter:MC0203J22010600005","2024-08-20T20:45:00",28.1,30.04919,0.259],
    [30044,"urn:WaterMeter:MC0203J22010600005","2024-08-20T21:00:00",28,30.023201,0.249],
    [30045,"urn:WaterMeter:MC0203J22010600005","2024-08-20T21:15:00",28,30.044575,0.253],
    [30046,"urn:WaterMeter:MC0203J22010600005","2024-08-20T21:30:00",27.899,30.01587,0.246],
    [30047,"urn:WaterMeter:MC0203J22010600005","2024-08-20T21:45:00",27.899,29.998802,0.245],
    [30048,"urn:WaterMeter:MC0203J22010600005","2024-08-20T22:00:00",27.799,30.011951,0.255],
    [30049,"urn:WaterMeter:MC0203J22010600005","2024-08-20T22:15:00",27.7,29.982859,0.256],
    [30050,"urn:WaterMeter:MC0203J22010600005","2024-08-20T22:30:00",27.7,30.00462,0.247],
    [30051,"urn:WaterMeter:MC0203J22010600005","2024-08-20T22:45:00",27.6,29.968933,0.246],
    [30052,"urn:WaterMeter:MC0203J22010600005","2024-08-20T23:00:00",27.5,29.984837,0.245],
    [30053,"urn:WaterMeter:MC0203J22010600005","2024-08-20T23:15:00",27.399,29.974712,0.256],
    [30054,"urn:WaterMeter:MC0203J22010600005","2024-08-20T23:30:00",27.399,29.999578,0.247],
    [30055,"urn:WaterMeter:MC0203J22010600005","2024-08-20T23:45:00",27.299,29.952215,0.248],
    [30056,"urn:WaterMeter:MC0203J22010600005","2024-08-21T00:00:00",27.299,29.963116,0.251],
    [30057,"urn:WaterMeter:MC0203J22010600005","2024-08-21T00:15:00",27.299,29.979795,0.244],
    [30058,"urn:WaterMeter:MC0203J22010600005","2024-08-21T00:30:00",27.2,29.932432,0.239],
    [30059,"urn:WaterMeter:MC0203J22010600005","2024-08-21T00:45:00",27.2,29.933208,0.271],
    [30060,"urn:WaterMeter:MC0203J22010600005","2024-08-21T01:00:00",27.2,29.914976,0.255],
    [30061,"urn:WaterMeter:MC0203J22010600005","2024-08-21T01:15:00",27.1,29.92743,0.242],
    [30062,"urn:WaterMeter:MC0203J22010600005","2024-08-21T01:30:00",27.1,29.932083,0.273],
    [30063,"urn:WaterMeter:MC0203J22010600005","2024-08-21T01:45:00",27.1,29.95109,0.239],
    [30064,"urn:WaterMeter:MC0203J22010600005","2024-08-21T02:00:00",27,29.925062,0.245],
    [30065,"urn:WaterMeter:MC0203J22010600005","2024-08-21T02:15:00",27,29.906055,0.241],
    [30066,"urn:WaterMeter:MC0203J22010600005","2024-08-21T02:30:00",26.899,29.920834,0.24],
    [30067,"urn:WaterMeter:MC0203J22010600005","2024-08-21T02:45:00",26.899,29.876575,0.236],
    [30068,"urn:WaterMeter:MC0203J22010600005","2024-08-21T03:00:00",26.799,29.907646,0.244],
    [30069,"urn:WaterMeter:MC0203J22010600005","2024-08-21T03:15:00",26.799,29.878164,0.246],
    [30070,"urn:WaterMeter:MC0203J22010600005","2024-08-21T03:30:00",26.7,29.883207,0.246],
    [30071,"urn:WaterMeter:MC0203J22010600005","2024-08-21T03:45:00",26.7,29.859547,0.24],
    [30072,"urn:WaterMeter:MC0203J22010600005","2024-08-21T04:00:00",26.6,29.869244,0.228],
    [30073,"urn:WaterMeter:MC0203J22010600005","2024-08-21T04:15:00",26.6,29.833168,0.251],
    [30074,"urn:WaterMeter:MC0203J22010600005","2024-08-21T04:30:00",26.5,29.859934,0.25],
    [30075,"urn:WaterMeter:MC0203J22010600005","2024-08-21T04:45:00",26.5,29.836233,0.246],
    [30076,"urn:WaterMeter:MC0203J22010600005","2024-08-21T05:00:00",26.399,29.835457,0.233],
    [30077,"urn:WaterMeter:MC0203J22010600005","2024-08-21T05:15:00",26.399,29.856403,0.237],
    [30078,"urn:WaterMeter:MC0203J22010600005","2024-08-21T05:30:00",26.5,29.925838,0.249],
    [30079,"urn:WaterMeter:MC0203J22010600005","2024-08-21T05:45:00",26.5,30.310673,0.244],
    [30080,"urn:WaterMeter:MC0203J22010600005","2024-08-21T06:00:00",26.5,30.94489,0.274],
    [30081,"urn:WaterMeter:MC0203J22010600005","2024-08-21T06:15:00",26.6,31.523987,0.267],
    [30082,"urn:WaterMeter:MC0203J22010600005","2024-08-21T06:30:00",26.6,31.916967,0.278],
    [30083,"urn:WaterMeter:MC0203J22010600005","2024-08-21T06:45:00",26.6,32.126396,0.277],
    [30084,"urn:WaterMeter:MC0203J22010600005","2024-08-21T07:00:00",26.7,32.30642,0.281],
    [30085,"urn:WaterMeter:MC0203J22010600005","2024-08-21T07:15:00",26.799,32.436714,0.296],
    [30086,"urn:WaterMeter:MC0203J22010600005","2024-08-21T07:30:00",26.799,32.521317,0.275],
    [30087,"urn:WaterMeter:MC0203J22010600005","2024-08-21T07:45:00",26.899,32.631054,0.288],
    [30088,"urn:WaterMeter:MC0203J22010600005","2024-08-21T08:00:00",26.899,32.780045,0.28],
    [30089,"urn:WaterMeter:MC0203J22010600005","2024-08-21T08:15:00",27,32.484814,0.291],
    [30090,"urn:WaterMeter:MC0203J22010600005","2024-08-21T08:30:00",27.1,32.170654,0.296],
    [30091,"urn:WaterMeter:MC0203J22010600005","2024-08-21T08:45:00",27.1,32.06821,0.278],
    [30092,"urn:WaterMeter:MC0203J22010600005","2024-08-21T09:00:00",27.1,31.95498,0.268],
    [30093,"urn:WaterMeter:MC0203J22010600005","2024-08-21T09:15:00",27.2,31.89796,0.274],
    [30094,"urn:WaterMeter:MC0203J22010600005","2024-08-21T09:30:00",27.2,31.866928,0.267],
    [30095,"urn:WaterMeter:MC0203J22010600005","2024-08-21T09:45:00",27.2,31.815687,0.278],
    [30096,"urn:WaterMeter:MC0203J22010600005","2024-08-21T10:00:00",27.2,31.759054,0.289],
    [30097,"urn:WaterMeter:MC0203J22010600005","2024-08-21T10:15:00",27.1,31.721466,0.269],
    [30098,"urn:WaterMeter:MC0203J22010600005","2024-08-21T10:30:00",27.1,31.66367,0.28],
    [30099,"urn:WaterMeter:MC0203J22010600005","2024-08-21T10:45:00",27.1,31.61204,0.268],
    [30100,"urn:WaterMeter:MC0203J22010600005","2024-08-21T11:00:00",27.1,31.61359,0.27],
    [30101,"urn:WaterMeter:MC0203J22010600005","2024-08-21T11:15:00",27.1,31.5729,0.26],
    [30102,"urn:WaterMeter:MC0203J22010600005","2024-08-21T11:30:00",27.2,31.535624,0.277],
    [30103,"urn:WaterMeter:MC0203J22010600005","2024-08-21T11:45:00",27.299,31.499975,0.272],
    [30104,"urn:WaterMeter:MC0203J22010600005","2024-08-21T12:00:00",27.299,31.475536,0.28],
    [30105,"urn:WaterMeter:MC0203J22010600005","2024-08-21T12:15:00",27.299,31.41386,0.266],
    [30106,"urn:WaterMeter:MC0203J22010600005","2024-08-21T12:30:00",27.399,31.368826,0.261],
    [30107,"urn:WaterMeter:MC0203J22010600005","2024-08-21T12:45:00",27.399,31.32348,0.278],
    [30108,"urn:WaterMeter:MC0203J22010600005","2024-08-21T13:00:00",27.399,31.331587,0.254],
    [30109,"urn:WaterMeter:MC0203J22010600005","2024-08-21T13:15:00",27.399,31.300982,0.272],
    [30110,"urn:WaterMeter:MC0203J22010600005","2024-08-21T13:30:00",27.399,31.254784,0.269],
    [30111,"urn:WaterMeter:MC0203J22010600005","2024-08-21T13:45:00",27.5,31.190432,0.294],
    [30112,"urn:WaterMeter:MC0203J22010600005","2024-08-21T14:00:00",27.6,31.148926,0.258],
    [30113,"urn:WaterMeter:MC0203J22010600005","2024-08-21T14:15:00",27.6,31.093456,0.252],
    [30114,"urn:WaterMeter:MC0203J22010600005","2024-08-21T14:30:00",27.7,31.073284,0.28],
    [30115,"urn:WaterMeter:MC0203J22010600005","2024-08-21T14:45:00",27.799,31.06281,0.248],
    [30116,"urn:WaterMeter:MC0203J22010600005","2024-08-21T15:00:00",27.899,30.977861,0.257],
    [30117,"urn:WaterMeter:MC0203J22010600005","2024-08-21T15:15:00",27.899,30.943687,0.255],
    [30118,"urn:WaterMeter:MC0203J22010600005","2024-08-21T15:30:00",27.899,30.90804,0.252],
    [30119,"urn:WaterMeter:MC0203J22010600005","2024-08-21T15:45:00",27.899,30.8933,0.26],
    [30120,"urn:WaterMeter:MC0203J22010600005","2024-08-21T16:00:00",27.899,30.86188,0.258],
    [30121,"urn:WaterMeter:MC0203J22010600005","2024-08-21T16:15:00",27.899,30.847488,0.25],
    [30122,"urn:WaterMeter:MC0203J22010600005","2024-08-21T16:30:00",28,30.798225,0.266],
    [30123,"urn:WaterMeter:MC0203J22010600005","2024-08-21T16:45:00",27.899,30.76219,0.252],
    [30124,"urn:WaterMeter:MC0203J22010600005","2024-08-21T17:00:00",27.899,30.735037,0.265],
    [30125,"urn:WaterMeter:MC0203J22010600005","2024-08-21T17:15:00",27.799,30.706331,0.278],
    [30126,"urn:WaterMeter:MC0203J22010600005","2024-08-21T17:30:00",27.799,30.668705,0.257],
    [30127,"urn:WaterMeter:MC0203J22010600005","2024-08-21T17:45:00",27.7,30.668318,0.255],
    [30128,"urn:WaterMeter:MC0203J22010600005","2024-08-21T18:00:00",27.6,30.648922,0.257],
    [30129,"urn:WaterMeter:MC0203J22010600005","2024-08-21T18:15:00",27.5,30.637672,0.255],
    [30130,"urn:WaterMeter:MC0203J22010600005","2024-08-21T18:30:00",27.399,30.618666,0.25],
    [30131,"urn:WaterMeter:MC0203J22010600005","2024-08-21T18:45:00",27.299,30.584492,0.253],
    [30132,"urn:WaterMeter:MC0203J22010600005","2024-08-21T19:00:00",27.2,30.58647,0.262],
    [30133,"urn:WaterMeter:MC0203J22010600005","2024-08-21T19:15:00",27.1,30.574795,0.247],
    [30134,"urn:WaterMeter:MC0203J22010600005","2024-08-21T19:30:00",27.1,30.590736,0.261],
    [30135,"urn:WaterMeter:MC0203J22010600005","2024-08-21T19:45:00",27,30.563583,0.276],
    [30136,"urn:WaterMeter:MC0203J22010600005","2024-08-21T20:00:00",27,30.576773,0.254],
    [30137,"urn:WaterMeter:MC0203J22010600005","2024-08-21T20:15:00",26.899,30.515059,0.273],
    [30138,"urn:WaterMeter:MC0203J22010600005","2024-08-21T20:30:00",26.899,30.551172,0.268],
    [30139,"urn:WaterMeter:MC0203J22010600005","2024-08-21T20:45:00",26.799,30.494537,0.262],
    [30140,"urn:WaterMeter:MC0203J22010600005","2024-08-21T21:00:00",26.799,30.518976,0.254],
    [30141,"urn:WaterMeter:MC0203J22010600005","2024-08-21T21:15:00",26.7,30.51277,0.259],
    [30142,"urn:WaterMeter:MC0203J22010600005","2024-08-21T21:30:00",26.7,30.52402,0.24],
    [30143,"urn:WaterMeter:MC0203J22010600005","2024-08-21T21:45:00",26.7,30.50889,0.264],
    [30144,"urn:WaterMeter:MC0203J22010600005","2024-08-21T22:00:00",26.6,30.50928,0.249],
    [30145,"urn:WaterMeter:MC0203J22010600005","2024-08-21T22:15:00",26.6,30.465057,0.24],
    [30146,"urn:WaterMeter:MC0203J22010600005","2024-08-21T22:30:00",26.5,30.49027,0.254],
    [30147,"urn:WaterMeter:MC0203J22010600005","2024-08-21T22:45:00",26.5,30.47782,0.251],
    [30148,"urn:WaterMeter:MC0203J22010600005","2024-08-21T23:00:00",26.399,30.46622,0.251],
    [30149,"urn:WaterMeter:MC0203J22010600005","2024-08-21T23:15:00",26.399,30.46079,0.247],
    [30150,"urn:WaterMeter:MC0203J22010600005","2024-08-21T23:30:00",26.299,30.454973,0.244],
    [30151,"urn:WaterMeter:MC0203J22010600005","2024-08-21T23:45:00",26.2,30.448727,0.282],
    [30152,"urn:WaterMeter:MC0203J22010600005","2024-08-22T00:00:00",26.2,30.402605,0.255],
    [30153,"urn:WaterMeter:MC0203J22010600005","2024-08-22T00:15:00",26.1,30.401016,0.259],
    [30154,"urn:WaterMeter:MC0203J22010600005","2024-08-22T00:30:00",26.1,30.42394,0.244],
    [30155,"urn:WaterMeter:MC0203J22010600005","2024-08-22T00:45:00",26,30.43519,0.263],
    [30156,"urn:WaterMeter:MC0203J22010600005","2024-08-22T01:00:00",26,30.402218,0.254],
    [30157,"urn:WaterMeter:MC0203J22010600005","2024-08-22T01:15:00",25.899,30.408812,0.251],
    [30158,"urn:WaterMeter:MC0203J22010600005","2024-08-22T01:30:00",25.899,30.39446,0.247],
    [30159,"urn:WaterMeter:MC0203J22010600005","2024-08-22T01:45:00",25.799,30.37231,0.25],
    [30160,"urn:WaterMeter:MC0203J22010600005","2024-08-22T02:00:00",25.799,30.399076,0.249],
    [30161,"urn:WaterMeter:MC0203J22010600005","2024-08-22T02:15:00",25.799,30.404934,0.254],
    [30162,"urn:WaterMeter:MC0203J22010600005","2024-08-22T02:30:00",25.7,30.341667,0.25],
    [30163,"urn:WaterMeter:MC0203J22010600005","2024-08-22T02:45:00",25.7,30.347525,0.258],
    [30164,"urn:WaterMeter:MC0203J22010600005","2024-08-22T03:00:00",25.6,30.360674,0.262],
    [30165,"urn:WaterMeter:MC0203J22010600005","2024-08-22T03:15:00",25.6,30.332745,0.253],
    [30166,"urn:WaterMeter:MC0203J22010600005","2024-08-22T03:30:00",25.5,30.345972,0.241],
    [30167,"urn:WaterMeter:MC0203J22010600005","2024-08-22T03:45:00",25.5,30.317656,0.241],
    [30168,"urn:WaterMeter:MC0203J22010600005","2024-08-22T04:00:00",25.399,30.320332,0.274],
    [30169,"urn:WaterMeter:MC0203J22010600005","2024-08-22T04:15:00",25.299,30.326189,0.25],
    [30170,"urn:WaterMeter:MC0203J22010600005","2024-08-22T04:30:00",25.299,30.318043,0.248],
    [30171,"urn:WaterMeter:MC0203J22010600005","2024-08-22T04:45:00",25.2,30.334723,0.25],
    [30172,"urn:WaterMeter:MC0203J22010600005","2024-08-22T05:00:00",25.2,30.336275,0.236],
    [30173,"urn:WaterMeter:MC0203J22010600005","2024-08-22T05:15:00",25.2,30.345972,0.253],
    [30174,"urn:WaterMeter:MC0203J22010600005","2024-08-22T05:30:00",25.299,30.474754,0.253],
    [30175,"urn:WaterMeter:MC0203J22010600005","2024-08-22T05:45:00",25.299,30.852182,0.264],
    [30176,"urn:WaterMeter:MC0203J22010600005","2024-08-22T06:00:00",25.299,31.495668,0.263],
    [30177,"urn:WaterMeter:MC0203J22010600005","2024-08-22T06:15:00",25.299,31.947224,0.267],
    [30178,"urn:WaterMeter:MC0203J22010600005","2024-08-22T06:30:00",25.299,32.219917,0.279],
    [30179,"urn:WaterMeter:MC0203J22010600005","2024-08-22T06:45:00",25.399,32.42473,0.274],
    [30180,"urn:WaterMeter:MC0203J22010600005","2024-08-22T07:00:00",25.399,32.593464,0.272],
    [30181,"urn:WaterMeter:MC0203J22010600005","2024-08-22T07:15:00",25.5,32.653976,0.287],
    [30182,"urn:WaterMeter:MC0203J22010600005","2024-08-22T07:30:00",25.6,32.786602,0.283],
    [30183,"urn:WaterMeter:MC0203J22010600005","2024-08-22T07:45:00",25.6,32.90534,0.3],
    [30184,"urn:WaterMeter:MC0203J22010600005","2024-08-22T08:00:00",25.799,32.972443,0.297],
    [30185,"urn:WaterMeter:MC0203J22010600005","2024-08-22T08:15:00",25.899,32.710224,0.28],
    [30186,"urn:WaterMeter:MC0203J22010600005","2024-08-22T08:30:00",26,32.41309,0.271],
    [30187,"urn:WaterMeter:MC0203J22010600005","2024-08-22T08:45:00",26.1,32.240826,0.286],
    [30188,"urn:WaterMeter:MC0203J22010600005","2024-08-22T09:00:00",26.2,32.184967,0.276],
    [30189,"urn:WaterMeter:MC0203J22010600005","2024-08-22T09:15:00",26.399,32.08454,0.276],
    [30190,"urn:WaterMeter:MC0203J22010600005","2024-08-22T09:30:00",26.5,32.01239,0.288],
    [30191,"urn:WaterMeter:MC0203J22010600005","2024-08-22T09:45:00",26.6,31.92744,0.268],
    [30192,"urn:WaterMeter:MC0203J22010600005","2024-08-22T10:00:00",26.799,31.86848,0.262],
    [30193,"urn:WaterMeter:MC0203J22010600005","2024-08-22T10:15:00",26.899,31.799046,0.261],
    [30194,"urn:WaterMeter:MC0203J22010600005","2024-08-22T10:30:00",27,31.773056,0.265],
    [30195,"urn:WaterMeter:MC0203J22010600005","2024-08-22T10:45:00",27.2,31.709402,0.275],
    [30196,"urn:WaterMeter:MC0203J22010600005","2024-08-22T11:00:00",27.399,31.65083,0.261],
    [30197,"urn:WaterMeter:MC0203J22010600005","2024-08-22T11:15:00",27.6,31.570961,0.268],
    [30198,"urn:WaterMeter:MC0203J22010600005","2024-08-22T11:30:00",27.799,31.527905,0.265],
    [30199,"urn:WaterMeter:MC0203J22010600005","2024-08-22T11:45:00",28,31.47127,0.281],
    [30200,"urn:WaterMeter:MC0203J22010600005","2024-08-22T12:00:00",28.2,31.441402,0.264],
    [30201,"urn:WaterMeter:MC0203J22010600005","2024-08-22T12:15:00",28.299,31.36068,0.264],
    [30202,"urn:WaterMeter:MC0203J22010600005","2024-08-22T12:30:00",28.399,31.3068,0.265],
    [30203,"urn:WaterMeter:MC0203J22010600005","2024-08-22T12:45:00",28.5,31.26258,0.257],
    [30204,"urn:WaterMeter:MC0203J22010600005","2024-08-22T13:00:00",28.6,31.241634,0.267],
    [30205,"urn:WaterMeter:MC0203J22010600005","2024-08-22T13:15:00",28.799,31.158623,0.251],
    [30206,"urn:WaterMeter:MC0203J22010600005","2024-08-22T13:30:00",28.799,31.116302,0.259],
    [30207,"urn:WaterMeter:MC0203J22010600005","2024-08-22T13:45:00",28.799,31.062037,0.264],
    [30208,"urn:WaterMeter:MC0203J22010600005","2024-08-22T14:00:00",28.799,31.04652,0.259],
    [30209,"urn:WaterMeter:MC0203J22010600005","2024-08-22T14:15:00",28.7,30.985619,0.276],
    [30210,"urn:WaterMeter:MC0203J22010600005","2024-08-22T14:30:00",28.7,30.975922,0.259],
    [30211,"urn:WaterMeter:MC0203J22010600005","2024-08-22T14:45:00",28.7,30.891748,0.254],
    [30212,"urn:WaterMeter:MC0203J22010600005","2024-08-22T15:00:00",28.7,30.871965,0.256],
    [30213,"urn:WaterMeter:MC0203J22010600005","2024-08-22T15:15:00",28.799,30.818823,0.263],
    [30214,"urn:WaterMeter:MC0203J22010600005","2024-08-22T15:30:00",28.799,30.760637,0.277],
    [30215,"urn:WaterMeter:MC0203J22010600005","2024-08-22T15:45:00",28.799,30.715254,0.252],
    [30216,"urn:WaterMeter:MC0203J22010600005","2024-08-22T16:00:00",28.799,30.709784,0.258],
    [30217,"urn:WaterMeter:MC0203J22010600005","2024-08-22T16:15:00",28.7,30.666378,0.252],
    [30218,"urn:WaterMeter:MC0203J22010600005","2024-08-22T16:30:00",28.7,30.64194,0.26],
    [30219,"urn:WaterMeter:MC0203J22010600005","2024-08-22T16:45:00",28.6,30.636509,0.257],
    [30220,"urn:WaterMeter:MC0203J22010600005","2024-08-22T17:00:00",28.6,30.58841,0.252],
    [30221,"urn:WaterMeter:MC0203J22010600005","2024-08-22T17:15:00",28.5,30.594965,0.253],
    [30222,"urn:WaterMeter:MC0203J22010600005","2024-08-22T17:30:00",28.399,30.533678,0.265],
    [30223,"urn:WaterMeter:MC0203J22010600005","2024-08-22T17:45:00",28.399,30.526695,0.252],
    [30224,"urn:WaterMeter:MC0203J22010600005","2024-08-22T18:00:00",28.399,30.491047,0.26],
    [30225,"urn:WaterMeter:MC0203J22010600005","2024-08-22T18:15:00",28.299,30.454197,0.265],
    [30226,"urn:WaterMeter:MC0203J22010600005","2024-08-22T18:30:00",28.2,30.458813,0.258],
    [30227,"urn:WaterMeter:MC0203J22010600005","2024-08-22T18:45:00",28.2,30.442947,0.253],
    [30228,"urn:WaterMeter:MC0203J22010600005","2024-08-22T19:00:00",28.1,30.432087,0.254],
    [30229,"urn:WaterMeter:MC0203J22010600005","2024-08-22T19:15:00",28.1,30.429333,0.26],
    [30230,"urn:WaterMeter:MC0203J22010600005","2024-08-22T19:30:00",28,30.39252,0.246],
    [30231,"urn:WaterMeter:MC0203J22010600005","2024-08-22T19:45:00",27.899,30.395624,0.247],
    [30232,"urn:WaterMeter:MC0203J22010600005","2024-08-22T20:00:00",27.899,30.441008,0.257],
    [30233,"urn:WaterMeter:MC0203J22010600005","2024-08-22T20:15:00",27.899,30.404934,0.264],
    [30234,"urn:WaterMeter:MC0203J22010600005","2024-08-22T20:30:00",27.799,30.369635,0.249],
    [30235,"urn:WaterMeter:MC0203J22010600005","2024-08-22T20:45:00",27.7,30.367308,0.253],
    [30236,"urn:WaterMeter:MC0203J22010600005","2024-08-22T21:00:00",27.6,30.37231,0.248],
    [30237,"urn:WaterMeter:MC0203J22010600005","2024-08-22T21:15:00",27.5,30.350239,0.249],
    [30238,"urn:WaterMeter:MC0203J22010600005","2024-08-22T21:30:00",27.399,30.358385,0.251],
    [30239,"urn:WaterMeter:MC0203J22010600005","2024-08-22T21:45:00",27.299,30.361061,0.25],
    [30240,"urn:WaterMeter:MC0203J22010600005","2024-08-22T22:00:00",27.299,30.322271,0.254],
    [30241,"urn:WaterMeter:MC0203J22010600005","2024-08-22T22:15:00",27.2,30.348688,0.251],
    [30242,"urn:WaterMeter:MC0203J22010600005","2024-08-22T22:30:00",27.2,30.32425,0.261],
    [30243,"urn:WaterMeter:MC0203J22010600005","2024-08-22T22:45:00",27.1,30.295546,0.258],
    [30244,"urn:WaterMeter:MC0203J22010600005","2024-08-22T23:00:00",27,30.295158,0.258],
    [30245,"urn:WaterMeter:MC0203J22010600005","2024-08-22T23:15:00",27,30.311838,0.251],
    [30246,"urn:WaterMeter:MC0203J22010600005","2024-08-22T23:30:00",26.899,30.280416,0.259],
    [30247,"urn:WaterMeter:MC0203J22010600005","2024-08-22T23:45:00",26.899,30.301714,0.248],
    [30248,"urn:WaterMeter:MC0203J22010600005","2024-08-23T00:00:00",26.799,30.24667,0.239],
    [30249,"urn:WaterMeter:MC0203J22010600005","2024-08-23T00:15:00",26.799,30.26723,0.241],
    [30250,"urn:WaterMeter:MC0203J22010600005","2024-08-23T00:30:00",26.7,30.295933,0.258],
    [30251,"urn:WaterMeter:MC0203J22010600005","2024-08-23T00:45:00",26.7,30.264086,0.249],
    [30252,"urn:WaterMeter:MC0203J22010600005","2024-08-23T01:00:00",26.6,30.245468,0.255],
    [30253,"urn:WaterMeter:MC0203J22010600005","2024-08-23T01:15:00",26.5,30.262148,0.255],
    [30254,"urn:WaterMeter:MC0203J22010600005","2024-08-23T01:30:00",26.399,30.24861,0.248],
    [30255,"urn:WaterMeter:MC0203J22010600005","2024-08-23T01:45:00",26.399,30.248222,0.25],
    [30256,"urn:WaterMeter:MC0203J22010600005","2024-08-23T02:00:00",26.299,30.230766,0.243],
    [30257,"urn:WaterMeter:MC0203J22010600005","2024-08-23T02:15:00",26.299,30.224909,0.253],
    [30258,"urn:WaterMeter:MC0203J22010600005","2024-08-23T02:30:00",26.299,30.234257,0.246],
    [30259,"urn:WaterMeter:MC0203J22010600005","2024-08-23T02:45:00",26.299,30.217577,0.247],
    [30260,"urn:WaterMeter:MC0203J22010600005","2024-08-23T03:00:00",26.2,30.23775,0.255],
    [30261,"urn:WaterMeter:MC0203J22010600005","2024-08-23T03:15:00",26.2,30.216763,0.247],
    [30262,"urn:WaterMeter:MC0203J22010600005","2024-08-23T03:30:00",26.2,30.227276,0.247],
    [30263,"urn:WaterMeter:MC0203J22010600005","2024-08-23T03:45:00",26.1,30.235382,0.245],
    [30264,"urn:WaterMeter:MC0203J22010600005","2024-08-23T04:00:00",26.1,30.192753,0.241],
    [30265,"urn:WaterMeter:MC0203J22010600005","2024-08-23T04:15:00",26,30.178787,0.238],
    [30266,"urn:WaterMeter:MC0203J22010600005","2024-08-23T04:30:00",26,30.168663,0.252],
    [30267,"urn:WaterMeter:MC0203J22010600005","2024-08-23T04:45:00",26,30.173357,0.249],
    [30268,"urn:WaterMeter:MC0203J22010600005","2024-08-23T05:00:00",26,30.186895,0.246],
    [30269,"urn:WaterMeter:MC0203J22010600005","2024-08-23T05:15:00",26.1,30.162884,0.25],
    [30270,"urn:WaterMeter:MC0203J22010600005","2024-08-23T05:30:00",26.1,30.280806,0.25],
    [30271,"urn:WaterMeter:MC0203J22010600005","2024-08-23T05:45:00",26.2,30.658232,0.254],
    [30272,"urn:WaterMeter:MC0203J22010600005","2024-08-23T06:00:00",26.2,31.294,0.256],
    [30273,"urn:WaterMeter:MC0203J22010600005","2024-08-23T06:15:00",26.2,31.832405,0.289],
    [30274,"urn:WaterMeter:MC0203J22010600005","2024-08-23T06:30:00",26.2,32.205566,0.285],
    [30275,"urn:WaterMeter:MC0203J22010600005","2024-08-23T06:45:00",26.2,32.384773,0.294],
    [30276,"urn:WaterMeter:MC0203J22010600005","2024-08-23T07:00:00",26.299,32.584156,0.296],
    [30277,"urn:WaterMeter:MC0203J22010600005","2024-08-23T07:15:00",26.299,32.743195,0.278],
    [30278,"urn:WaterMeter:MC0203J22010600005","2024-08-23T07:30:00",26.399,32.82229,0.288],
    [30279,"urn:WaterMeter:MC0203J22010600005","2024-08-23T07:45:00",26.399,32.948006,0.291],
    [30280,"urn:WaterMeter:MC0203J22010600005","2024-08-23T08:00:00",26.5,33.0636,0.286],
    [30281,"urn:WaterMeter:MC0203J22010600005","2024-08-23T08:15:00",26.6,32.774227,0.276],
    [30282,"urn:WaterMeter:MC0203J22010600005","2024-08-23T08:30:00",26.7,32.422012,0.264],
    [30283,"urn:WaterMeter:MC0203J22010600005","2024-08-23T08:45:00",26.7,32.278877,0.267],
    [30284,"urn:WaterMeter:MC0203J22010600005","2024-08-23T09:00:00",26.799,32.17686,0.273],
    [30285,"urn:WaterMeter:MC0203J22010600005","2024-08-23T09:15:00",26.899,32.092297,0.27],
    [30286,"urn:WaterMeter:MC0203J22010600005","2024-08-23T09:30:00",26.899,32.0826,0.259],
    [30287,"urn:WaterMeter:MC0203J22010600005","2024-08-23T09:45:00",27.1,31.997263,0.26],
    [30288,"urn:WaterMeter:MC0203J22010600005","2024-08-23T10:00:00",27.1,31.9255,0.276],
    [30289,"urn:WaterMeter:MC0203J22010600005","2024-08-23T10:15:00",27.299,31.8518,0.273],
    [30290,"urn:WaterMeter:MC0203J22010600005","2024-08-23T10:30:00",27.399,31.812235,0.282],
    [30291,"urn:WaterMeter:MC0203J22010600005","2024-08-23T10:45:00",27.5,31.74668,0.264],
    [30292,"urn:WaterMeter:MC0203J22010600005","2024-08-23T11:00:00",27.7,31.712933,0.268],
    [30293,"urn:WaterMeter:MC0203J22010600005","2024-08-23T11:15:00",28,31.608974,0.257],
    [30294,"urn:WaterMeter:MC0203J22010600005","2024-08-23T11:30:00",28.2,31.595398,0.267],
    [30295,"urn:WaterMeter:MC0203J22010600005","2024-08-23T11:45:00",28.399,31.516228,0.25],
    [30296,"urn:WaterMeter:MC0203J22010600005","2024-08-23T12:00:00",28.5,31.477825,0.252],
    [30297,"urn:WaterMeter:MC0203J22010600005","2024-08-23T12:15:00",28.6,31.454203,0.292],
    [30298,"urn:WaterMeter:MC0203J22010600005","2024-08-23T12:30:00",28.7,31.392914,0.255],
    [30299,"urn:WaterMeter:MC0203J22010600005","2024-08-23T12:45:00",28.799,31.355288,0.263],
    [30300,"urn:WaterMeter:MC0203J22010600005","2024-08-23T13:00:00",28.899,31.29943,0.28],
    [30301,"urn:WaterMeter:MC0203J22010600005","2024-08-23T13:15:00",29,31.228832,0.259],
    [30302,"urn:WaterMeter:MC0203J22010600005","2024-08-23T13:30:00",29.2,31.194271,0.255],
    [30303,"urn:WaterMeter:MC0203J22010600005","2024-08-23T13:45:00",29.2,31.134186,0.253],
    [30304,"urn:WaterMeter:MC0203J22010600005","2024-08-23T14:00:00",29.299,31.099236,0.254],
    [30305,"urn:WaterMeter:MC0203J22010600005","2024-08-23T14:15:00",29.299,31.037947,0.252],
    [30306,"urn:WaterMeter:MC0203J22010600005","2024-08-23T14:30:00",29.399,30.974758,0.259],
    [30307,"urn:WaterMeter:MC0203J22010600005","2024-08-23T14:45:00",29.299,30.90804,0.253],
    [30308,"urn:WaterMeter:MC0203J22010600005","2024-08-23T15:00:00",29.299,30.873905,0.259],
    [30309,"urn:WaterMeter:MC0203J22010600005","2024-08-23T15:15:00",29.299,30.840546,0.258],
    [30310,"urn:WaterMeter:MC0203J22010600005","2024-08-23T15:30:00",29.399,30.799002,0.257],
    [30311,"urn:WaterMeter:MC0203J22010600005","2024-08-23T15:45:00",29.299,30.783524,0.26],
    [30312,"urn:WaterMeter:MC0203J22010600005","2024-08-23T16:00:00",29.299,30.708233,0.261],
    [30313,"urn:WaterMeter:MC0203J22010600005","2024-08-23T16:15:00",29.2,30.712538,0.253],
    [30314,"urn:WaterMeter:MC0203J22010600005","2024-08-23T16:30:00",29.2,30.651598,0.25],
    [30315,"urn:WaterMeter:MC0203J22010600005","2024-08-23T16:45:00",29.1,30.624058,0.254],
    [30316,"urn:WaterMeter:MC0203J22010600005","2024-08-23T17:00:00",29,30.624058,0.247],
    [30317,"urn:WaterMeter:MC0203J22010600005","2024-08-23T17:15:00",28.899,30.612034,0.256],
    [30318,"urn:WaterMeter:MC0203J22010600005","2024-08-23T17:30:00",28.7,30.574795,0.26],
    [30319,"urn:WaterMeter:MC0203J22010600005","2024-08-23T17:45:00",28.6,30.559706,0.255],
    [30320,"urn:WaterMeter:MC0203J22010600005","2024-08-23T18:00:00",28.5,30.553848,0.254],
    [30321,"urn:WaterMeter:MC0203J22010600005","2024-08-23T18:15:00",28.299,30.555788,0.265],
    [30322,"urn:WaterMeter:MC0203J22010600005","2024-08-23T18:30:00",28.2,30.508076,0.253],
    [30323,"urn:WaterMeter:MC0203J22010600005","2024-08-23T18:45:00",28.1,30.514282,0.253],
    [30324,"urn:WaterMeter:MC0203J22010600005","2024-08-23T19:00:00",28,30.4926,0.256],
    [30325,"urn:WaterMeter:MC0203J22010600005","2024-08-23T19:15:00",27.899,30.510054,0.253],
    [30326,"urn:WaterMeter:MC0203J22010600005","2024-08-23T19:30:00",27.799,30.455748,0.263],
    [30327,"urn:WaterMeter:MC0203J22010600005","2024-08-23T19:45:00",27.7,30.4926,0.256],
    [30328,"urn:WaterMeter:MC0203J22010600005","2024-08-23T20:00:00",27.6,30.44605,0.212],
    [30329,"urn:WaterMeter:MC0203J22010600005","2024-08-23T20:15:00",27.5,30.444887,0.268],
    [30330,"urn:WaterMeter:MC0203J22010600005","2024-08-23T20:30:00",27.399,30.422388,0.247],
    [30331,"urn:WaterMeter:MC0203J22010600005","2024-08-23T20:45:00",27.299,30.405708,0.25],
    [30332,"urn:WaterMeter:MC0203J22010600005","2024-08-23T21:00:00",27.299,30.42782,0.266],
    [30333,"urn:WaterMeter:MC0203J22010600005","2024-08-23T21:15:00",27.2,30.416182,0.25],
    [30334,"urn:WaterMeter:MC0203J22010600005","2024-08-23T21:30:00",27.1,30.42041,0.247],
    [30335,"urn:WaterMeter:MC0203J22010600005","2024-08-23T21:45:00",27,30.413855,0.267],
    [30336,"urn:WaterMeter:MC0203J22010600005","2024-08-23T22:00:00",26.899,30.392908,0.261],
    [30337,"urn:WaterMeter:MC0203J22010600005","2024-08-23T22:15:00",26.799,30.397175,0.257],
    [30338,"urn:WaterMeter:MC0203J22010600005","2024-08-23T22:30:00",26.7,30.397913,0.25],
    [30339,"urn:WaterMeter:MC0203J22010600005","2024-08-23T22:45:00",26.7,30.403381,0.246],
    [30340,"urn:WaterMeter:MC0203J22010600005","2024-08-23T23:00:00",26.6,30.376228,0.251],
    [30341,"urn:WaterMeter:MC0203J22010600005","2024-08-23T23:15:00",26.5,30.378168,0.244],
    [30342,"urn:WaterMeter:MC0203J22010600005","2024-08-23T23:30:00",26.399,30.352528,0.251],
    [30343,"urn:WaterMeter:MC0203J22010600005","2024-08-23T23:45:00",26.299,30.35951,0.251],
    [30344,"urn:WaterMeter:MC0203J22010600005","2024-08-24T00:00:00",26.299,30.349852,0.241],
    [30345,"urn:WaterMeter:MC0203J22010600005","2024-08-24T00:15:00",26.2,30.359121,0.243],
    [30346,"urn:WaterMeter:MC0203J22010600005","2024-08-24T00:30:00",26.1,30.351751,0.259],
    [30347,"urn:WaterMeter:MC0203J22010600005","2024-08-24T00:45:00",26,30.357998,0.261],
    [30348,"urn:WaterMeter:MC0203J22010600005","2024-08-24T01:00:00",25.899,30.35214,0.246],
    [30349,"urn:WaterMeter:MC0203J22010600005","2024-08-24T01:15:00",25.899,30.317656,0.272],
    [30350,"urn:WaterMeter:MC0203J22010600005","2024-08-24T01:30:00",25.799,30.330456,0.248],
    [30351,"urn:WaterMeter:MC0203J22010600005","2024-08-24T01:45:00",25.7,30.339378,0.24],
    [30352,"urn:WaterMeter:MC0203J22010600005","2024-08-24T02:00:00",25.6,30.330069,0.244],
    [30353,"urn:WaterMeter:MC0203J22010600005","2024-08-24T02:15:00",25.6,30.315716,0.255],
    [30354,"urn:WaterMeter:MC0203J22010600005","2024-08-24T02:30:00",25.5,30.31145,0.252],
    [30355,"urn:WaterMeter:MC0203J22010600005","2024-08-24T02:45:00",25.399,30.31145,0.238],
    [30356,"urn:WaterMeter:MC0203J22010600005","2024-08-24T03:00:00",25.299,30.288176,0.245],
    [30357,"urn:WaterMeter:MC0203J22010600005","2024-08-24T03:15:00",25.299,30.323824,0.251],
    [30358,"urn:WaterMeter:MC0203J22010600005","2024-08-24T03:30:00",25.2,30.294731,0.242],
    [30359,"urn:WaterMeter:MC0203J22010600005","2024-08-24T03:45:00",25.1,30.293179,0.253],
    [30360,"urn:WaterMeter:MC0203J22010600005","2024-08-24T04:00:00",25,30.28934,0.25],
    [30361,"urn:WaterMeter:MC0203J22010600005","2024-08-24T04:15:00",24.899,30.263311,0.239],
    [30362,"urn:WaterMeter:MC0203J22010600005","2024-08-24T04:30:00",24.799,30.279642,0.244],
    [30363,"urn:WaterMeter:MC0203J22010600005","2024-08-24T04:45:00",24.7,30.277313,0.247],
    [30364,"urn:WaterMeter:MC0203J22010600005","2024-08-24T05:00:00",24.7,30.268005,0.25],
    [30365,"urn:WaterMeter:MC0203J22010600005","2024-08-24T05:15:00",24.6,30.29283,0.242],
    [30366,"urn:WaterMeter:MC0203J22010600005","2024-08-24T05:30:00",24.6,30.297873,0.221],
    [30367,"urn:WaterMeter:MC0203J22010600005","2024-08-24T05:45:00",24.5,30.27809,0.251],
    [30368,"urn:WaterMeter:MC0203J22010600005","2024-08-24T06:00:00",24.399,30.20982,0.237],
    [30369,"urn:WaterMeter:MC0203J22010600005","2024-08-24T06:15:00",24.399,30.227663,0.243],
    [30370,"urn:WaterMeter:MC0203J22010600005","2024-08-24T06:30:00",24.399,30.236973,0.254],
    [30371,"urn:WaterMeter:MC0203J22010600005","2024-08-24T06:45:00",24.399,30.243916,0.252],
    [30372,"urn:WaterMeter:MC0203J22010600005","2024-08-24T07:00:00",24.399,30.185343,0.262],
    [30373,"urn:WaterMeter:MC0203J22010600005","2024-08-24T07:15:00",24.5,30.19698,0.239],
    [30374,"urn:WaterMeter:MC0203J22010600005","2024-08-24T07:30:00",24.5,30.168276,0.24],
    [30375,"urn:WaterMeter:MC0203J22010600005","2024-08-24T07:45:00",24.7,30.162884,0.26],
    [30376,"urn:WaterMeter:MC0203J22010600005","2024-08-24T08:00:00",24.799,30.17452,0.236],
    [30377,"urn:WaterMeter:MC0203J22010600005","2024-08-24T08:15:00",24.899,30.117498,0.249],
    [30378,"urn:WaterMeter:MC0203J22010600005","2024-08-24T08:30:00",25.1,30.105087,0.243],
    [30379,"urn:WaterMeter:MC0203J22010600005","2024-08-24T08:45:00",25.299,30.09923,0.241],
    [30380,"urn:WaterMeter:MC0203J22010600005","2024-08-24T09:00:00",25.5,30.007336,0.236],
    [30381,"urn:WaterMeter:MC0203J22010600005","2024-08-24T09:15:00",25.7,30.001905,0.25],
    [30382,"urn:WaterMeter:MC0203J22010600005","2024-08-24T09:30:00",25.799,29.991781,0.255],
    [30383,"urn:WaterMeter:MC0203J22010600005","2024-08-24T09:45:00",26,29.920834,0.229],
    [30384,"urn:WaterMeter:MC0203J22010600005","2024-08-24T10:00:00",26.2,29.91036,0.238],
    [30385,"urn:WaterMeter:MC0203J22010600005","2024-08-24T10:15:00",26.299,29.847483,0.232],
    [30386,"urn:WaterMeter:MC0203J22010600005","2024-08-24T10:30:00",26.5,29.801748,0.241],
    [30387,"urn:WaterMeter:MC0203J22010600005","2024-08-24T10:45:00",26.6,29.754425,0.236],
    [30388,"urn:WaterMeter:MC0203J22010600005","2024-08-24T11:00:00",26.799,29.713696,0.231],
    [30389,"urn:WaterMeter:MC0203J22010600005","2024-08-24T11:15:00",27.1,29.67025,0.237],
    [30390,"urn:WaterMeter:MC0203J22010600005","2024-08-24T11:30:00",27.2,29.575214,0.231],
    [30391,"urn:WaterMeter:MC0203J22010600005","2024-08-24T11:45:00",27.399,29.572887,0.223],
    [30392,"urn:WaterMeter:MC0203J22010600005","2024-08-24T12:00:00",27.6,29.52669,0.229],
    [30393,"urn:WaterMeter:MC0203J22010600005","2024-08-24T12:15:00",27.7,29.455355,0.242],
    [30394,"urn:WaterMeter:MC0203J22010600005","2024-08-24T12:30:00",27.799,29.44682,0.227],
    [30395,"urn:WaterMeter:MC0203J22010600005","2024-08-24T12:45:00",27.899,29.363771,0.241],
    [30396,"urn:WaterMeter:MC0203J22010600005","2024-08-24T13:00:00",28.1,29.278471,0.24],
    [30397,"urn:WaterMeter:MC0203J22010600005","2024-08-24T13:15:00",28.1,29.233864,0.228],
    [30398,"urn:WaterMeter:MC0203J22010600005","2024-08-24T13:30:00",28.2,29.189642,0.231],
    [30399,"urn:WaterMeter:MC0203J22010600005","2024-08-24T13:45:00",28.399,29.171022,0.244],
    [30400,"urn:WaterMeter:MC0203J22010600005","2024-08-24T14:00:00",28.5,29.086073,0.218],
    [30401,"urn:WaterMeter:MC0203J22010600005","2024-08-24T14:15:00",28.6,29.069006,0.235],
    [30402,"urn:WaterMeter:MC0203J22010600005","2024-08-24T14:30:00",28.7,28.991426,0.234],
    [30403,"urn:WaterMeter:MC0203J22010600005","2024-08-24T14:45:00",28.799,28.960781,0.227],
    [30404,"urn:WaterMeter:MC0203J22010600005","2024-08-24T15:00:00",28.799,28.895615,0.242],
    [30405,"urn:WaterMeter:MC0203J22010600005","2024-08-24T15:15:00",28.799,28.857948,0.224],
    [30406,"urn:WaterMeter:MC0203J22010600005","2024-08-24T15:30:00",28.799,28.800152,0.217],
    [30407,"urn:WaterMeter:MC0203J22010600005","2024-08-24T15:45:00",28.799,28.708647,0.218],
    [30408,"urn:WaterMeter:MC0203J22010600005","2024-08-24T16:00:00",28.799,28.716793,0.225],
    [30409,"urn:WaterMeter:MC0203J22010600005","2024-08-24T16:15:00",28.799,28.643091,0.223],
    [30410,"urn:WaterMeter:MC0203J22010600005","2024-08-24T16:30:00",28.799,28.648521,0.224],
    [30411,"urn:WaterMeter:MC0203J22010600005","2024-08-24T16:45:00",28.7,28.578274,0.228],
    [30412,"urn:WaterMeter:MC0203J22010600005","2024-08-24T17:00:00",28.6,28.553099,0.229],
    [30413,"urn:WaterMeter:MC0203J22010600005","2024-08-24T17:15:00",28.5,28.524006,0.226],
    [30414,"urn:WaterMeter:MC0203J22010600005","2024-08-24T17:30:00",28.399,28.533703,0.223],
    [30415,"urn:WaterMeter:MC0203J22010600005","2024-08-24T17:45:00",28.299,28.48832,0.217],
    [30416,"urn:WaterMeter:MC0203J22010600005","2024-08-24T18:00:00",28.2,28.458412,0.228],
    [30417,"urn:WaterMeter:MC0203J22010600005","2024-08-24T18:15:00",28.2,28.444487,0.232],
    [30418,"urn:WaterMeter:MC0203J22010600005","2024-08-24T18:30:00",28.1,28.446426,0.227],
    [30419,"urn:WaterMeter:MC0203J22010600005","2024-08-24T18:45:00",28,28.455347,0.228],
    [30420,"urn:WaterMeter:MC0203J22010600005","2024-08-24T19:00:00",27.899,28.392857,0.223],
    [30421,"urn:WaterMeter:MC0203J22010600005","2024-08-24T19:15:00",27.799,28.421173,0.232],
    [30422,"urn:WaterMeter:MC0203J22010600005","2024-08-24T19:30:00",27.799,28.402943,0.226],
    [30423,"urn:WaterMeter:MC0203J22010600005","2024-08-24T19:45:00",27.7,28.352167,0.212],
    [30424,"urn:WaterMeter:MC0203J22010600005","2024-08-24T20:00:00",27.7,28.361437,0.217],
    [30425,"urn:WaterMeter:MC0203J22010600005","2024-08-24T20:15:00",27.6,28.370785,0.213],
    [30426,"urn:WaterMeter:MC0203J22010600005","2024-08-24T20:30:00",27.6,28.37544,0.243],
    [30427,"urn:WaterMeter:MC0203J22010600005","2024-08-24T20:45:00",27.5,28.357597,0.213],
    [30428,"urn:WaterMeter:MC0203J22010600005","2024-08-24T21:00:00",27.5,28.341305,0.21],
    [30429,"urn:WaterMeter:MC0203J22010600005","2024-08-24T21:15:00",27.399,28.345146,0.215],
    [30430,"urn:WaterMeter:MC0203J22010600005","2024-08-24T21:30:00",27.399,28.330055,0.219],
    [30431,"urn:WaterMeter:MC0203J22010600005","2024-08-24T21:45:00",27.399,28.328505,0.218],
    [30432,"urn:WaterMeter:MC0203J22010600005","2024-08-24T22:00:00",27.299,28.340918,0.228],
    [30433,"urn:WaterMeter:MC0203J22010600005","2024-08-24T22:15:00",27.299,28.2761,0.223],
    [30434,"urn:WaterMeter:MC0203J22010600005","2024-08-24T22:30:00",27.2,28.255192,0.214],
    [30435,"urn:WaterMeter:MC0203J22010600005","2024-08-24T22:45:00",27.2,28.278852,0.215],
    [30436,"urn:WaterMeter:MC0203J22010600005","2024-08-24T23:00:00",27.1,28.239288,0.217],
    [30437,"urn:WaterMeter:MC0203J22010600005","2024-08-24T23:15:00",27.1,28.290878,0.219],
    [30438,"urn:WaterMeter:MC0203J22010600005","2024-08-24T23:30:00",27,28.278852,0.214],
    [30439,"urn:WaterMeter:MC0203J22010600005","2024-08-24T23:45:00",27,28.263338,0.221],
    [30440,"urn:WaterMeter:MC0203J22010600005","2024-08-25T00:00:00",26.899,28.273811,0.213],
    [30441,"urn:WaterMeter:MC0203J22010600005","2024-08-25T00:15:00",26.899,28.240839,0.214],
    [30442,"urn:WaterMeter:MC0203J22010600005","2024-08-25T00:30:00",26.799,28.237309,0.219],
    [30443,"urn:WaterMeter:MC0203J22010600005","2024-08-25T00:45:00",26.799,28.232306,0.22],
    [30444,"urn:WaterMeter:MC0203J22010600005","2024-08-25T01:00:00",26.7,28.238085,0.223],
    [30445,"urn:WaterMeter:MC0203J22010600005","2024-08-25T01:15:00",26.6,28.233856,0.223],
    [30446,"urn:WaterMeter:MC0203J22010600005","2024-08-25T01:30:00",26.6,28.216402,0.219],
    [30447,"urn:WaterMeter:MC0203J22010600005","2024-08-25T01:45:00",26.5,28.23502,0.215],
    [30448,"urn:WaterMeter:MC0203J22010600005","2024-08-25T02:00:00",26.399,28.237309,0.211],
    [30449,"urn:WaterMeter:MC0203J22010600005","2024-08-25T02:15:00",26.399,28.180676,0.225],
    [30450,"urn:WaterMeter:MC0203J22010600005","2024-08-25T02:30:00",26.299,28.197006,0.216],
    [30451,"urn:WaterMeter:MC0203J22010600005","2024-08-25T02:45:00",26.2,28.196619,0.224],
    [30452,"urn:WaterMeter:MC0203J22010600005","2024-08-25T03:00:00",26.2,28.208218,0.212],
    [30453,"urn:WaterMeter:MC0203J22010600005","2024-08-25T03:15:00",26.1,28.188822,0.22],
    [30454,"urn:WaterMeter:MC0203J22010600005","2024-08-25T03:30:00",26.1,28.202436,0.212],
    [30455,"urn:WaterMeter:MC0203J22010600005","2024-08-25T03:45:00",26.1,28.19274,0.22],
    [30456,"urn:WaterMeter:MC0203J22010600005","2024-08-25T04:00:00",26.1,28.14464,0.215],
    [30457,"urn:WaterMeter:MC0203J22010600005","2024-08-25T04:15:00",26.1,28.150032,0.207],
    [30458,"urn:WaterMeter:MC0203J22010600005","2024-08-25T04:30:00",26,28.135717,0.215],
    [30459,"urn:WaterMeter:MC0203J22010600005","2024-08-25T04:45:00",26,28.122917,0.208],
    [30460,"urn:WaterMeter:MC0203J22010600005","2024-08-25T05:00:00",26,28.143476,0.217],
    [30461,"urn:WaterMeter:MC0203J22010600005","2024-08-25T05:15:00",25.899,28.161707,0.211],
    [30462,"urn:WaterMeter:MC0203J22010600005","2024-08-25T05:30:00",25.899,28.119038,0.209],
    [30463,"urn:WaterMeter:MC0203J22010600005","2024-08-25T05:45:00",25.899,28.09848,0.238],
    [30464,"urn:WaterMeter:MC0203J22010600005","2024-08-25T06:00:00",25.799,28.115547,0.215],
    [30465,"urn:WaterMeter:MC0203J22010600005","2024-08-25T06:15:00",25.799,28.101543,0.21],
    [30466,"urn:WaterMeter:MC0203J22010600005","2024-08-25T06:30:00",25.799,28.125633,0.216],
    [30467,"urn:WaterMeter:MC0203J22010600005","2024-08-25T06:45:00",25.799,28.0818,0.224],
    [30468,"urn:WaterMeter:MC0203J22010600005","2024-08-25T07:00:00",25.899,28.080248,0.218],
    [30469,"urn:WaterMeter:MC0203J22010600005","2024-08-25T07:15:00",26,28.083313,0.206],
    [30470,"urn:WaterMeter:MC0203J22010600005","2024-08-25T07:30:00",26,28.034826,0.207],
    [30471,"urn:WaterMeter:MC0203J22010600005","2024-08-25T07:45:00",26.1,28.046501,0.21],
    [30472,"urn:WaterMeter:MC0203J22010600005","2024-08-25T08:00:00",26.2,27.987541,0.206],
    [30473,"urn:WaterMeter:MC0203J22010600005","2024-08-25T08:15:00",26.299,27.9747,0.217],
    [30474,"urn:WaterMeter:MC0203J22010600005","2024-08-25T08:30:00",26.399,27.94138,0.218],
    [30475,"urn:WaterMeter:MC0203J22010600005","2024-08-25T08:45:00",26.6,27.938238,0.203],
    [30476,"urn:WaterMeter:MC0203J22010600005","2024-08-25T09:00:00",26.6,27.90104,0.207],
    [30477,"urn:WaterMeter:MC0203J22010600005","2024-08-25T09:15:00",26.799,27.845957,0.207],
    [30478,"urn:WaterMeter:MC0203J22010600005","2024-08-25T09:30:00",26.899,27.820316,0.218],
    [30479,"urn:WaterMeter:MC0203J22010600005","2024-08-25T09:45:00",27,27.7439,0.197],
    [30480,"urn:WaterMeter:MC0203J22010600005","2024-08-25T10:00:00",27.2,27.715197,0.225],
    [30481,"urn:WaterMeter:MC0203J22010600005","2024-08-25T10:15:00",27.299,27.684551,0.201],
    [30482,"urn:WaterMeter:MC0203J22010600005","2024-08-25T10:30:00",27.5,27.60352,0.202],
    [30483,"urn:WaterMeter:MC0203J22010600005","2024-08-25T10:45:00",27.7,27.524387,0.202],
    [30484,"urn:WaterMeter:MC0203J22010600005","2024-08-25T11:00:00",27.899,27.543783,0.208],
    [30485,"urn:WaterMeter:MC0203J22010600005","2024-08-25T11:15:00",28.1,27.486374,0.203],
    [30486,"urn:WaterMeter:MC0203J22010600005","2024-08-25T11:30:00",28.299,27.444092,0.204],
    [30487,"urn:WaterMeter:MC0203J22010600005","2024-08-25T11:45:00",28.399,27.363798,0.197],
    [30488,"urn:WaterMeter:MC0203J22010600005","2024-08-25T12:00:00",28.5,27.370392,0.202],
    [30489,"urn:WaterMeter:MC0203J22010600005","2024-08-25T12:15:00",28.6,27.293976,0.196],
    [30490,"urn:WaterMeter:MC0203J22010600005","2024-08-25T12:30:00",28.6,27.220623,0.196],
    [30491,"urn:WaterMeter:MC0203J22010600005","2024-08-25T12:45:00",28.7,27.157434,0.2],
    [30492,"urn:WaterMeter:MC0203J22010600005","2024-08-25T13:00:00",28.7,27.08994,0.203],
    [30493,"urn:WaterMeter:MC0203J22010600005","2024-08-25T13:15:00",28.799,27.061235,0.191],
    [30494,"urn:WaterMeter:MC0203J22010600005","2024-08-25T13:30:00",28.899,27.003788,0.195],
    [30495,"urn:WaterMeter:MC0203J22010600005","2024-08-25T13:45:00",28.899,26.944477,0.193],
    [30496,"urn:WaterMeter:MC0203J22010600005","2024-08-25T14:00:00",28.899,26.897541,0.201],
    [30497,"urn:WaterMeter:MC0203J22010600005","2024-08-25T14:15:00",29,26.821474,0.192],
    [30498,"urn:WaterMeter:MC0203J22010600005","2024-08-25T14:30:00",29,26.788542,0.197],
    [30499,"urn:WaterMeter:MC0203J22010600005","2024-08-25T14:45:00",28.899,26.721046,0.201],
    [30500,"urn:WaterMeter:MC0203J22010600005","2024-08-25T15:00:00",28.7,26.731133,0.199],
    [30501,"urn:WaterMeter:MC0203J22010600005","2024-08-25T15:15:00",28.6,26.714025,0.195],
    [30502,"urn:WaterMeter:MC0203J22010600005","2024-08-25T15:30:00",28.399,26.665577,0.206],
    [30503,"urn:WaterMeter:MC0203J22010600005","2024-08-25T15:45:00",28.299,26.65778,0.196],
    [30504,"urn:WaterMeter:MC0203J22010600005","2024-08-25T16:00:00",28.2,26.64657,0.187],
    [30505,"urn:WaterMeter:MC0203J22010600005","2024-08-25T16:15:00",28.1,26.637222,0.201],
    [30506,"urn:WaterMeter:MC0203J22010600005","2024-08-25T16:30:00",28,26.61744,0.19],
    [30507,"urn:WaterMeter:MC0203J22010600005","2024-08-25T16:45:00",28,26.606228,0.188],
    [30508,"urn:WaterMeter:MC0203J22010600005","2024-08-25T17:00:00",28,26.56162,0.185],
    [30509,"urn:WaterMeter:MC0203J22010600005","2024-08-25T17:15:00",28,26.543777,0.186],
    [30510,"urn:WaterMeter:MC0203J22010600005","2024-08-25T17:30:00",28,26.517399,0.202],
    [30511,"urn:WaterMeter:MC0203J22010600005","2024-08-25T17:45:00",28,26.513908,0.196],
    [30512,"urn:WaterMeter:MC0203J22010600005","2024-08-25T18:00:00",27.899,26.472364,0.191],
    [30513,"urn:WaterMeter:MC0203J22010600005","2024-08-25T18:15:00",27.899,26.48051,0.192],
    [30514,"urn:WaterMeter:MC0203J22010600005","2024-08-25T18:30:00",27.799,26.442108,0.198],
    [30515,"urn:WaterMeter:MC0203J22010600005","2024-08-25T18:45:00",27.7,26.423876,0.183],
    [30516,"urn:WaterMeter:MC0203J22010600005","2024-08-25T19:00:00",27.7,26.4084,0.189],
    [30517,"urn:WaterMeter:MC0203J22010600005","2024-08-25T19:15:00",27.6,26.40103,0.19],
    [30518,"urn:WaterMeter:MC0203J22010600005","2024-08-25T19:30:00",27.6,26.402542,0.195],
    [30519,"urn:WaterMeter:MC0203J22010600005","2024-08-25T19:45:00",27.5,26.381634,0.183],
    [30520,"urn:WaterMeter:MC0203J22010600005","2024-08-25T20:00:00",27.5,26.383535,0.189],
    [30521,"urn:WaterMeter:MC0203J22010600005","2024-08-25T20:15:00",27.5,26.4084,0.187],
    [30522,"urn:WaterMeter:MC0203J22010600005","2024-08-25T20:30:00",27.5,26.357159,0.196],
    [30523,"urn:WaterMeter:MC0203J22010600005","2024-08-25T20:45:00",27.399,26.357546,0.192],
    [30524,"urn:WaterMeter:MC0203J22010600005","2024-08-25T21:00:00",27.399,26.35677,0.188],
    [30525,"urn:WaterMeter:MC0203J22010600005","2024-08-25T21:15:00",27.399,26.364916,0.198],
    [30526,"urn:WaterMeter:MC0203J22010600005","2024-08-25T21:30:00",27.399,26.348663,0.186],
    [30527,"urn:WaterMeter:MC0203J22010600005","2024-08-25T21:45:00",27.399,26.344357,0.182],
    [30528,"urn:WaterMeter:MC0203J22010600005","2024-08-25T22:00:00",27.399,26.288887,0.193],
    [30529,"urn:WaterMeter:MC0203J22010600005","2024-08-25T22:15:00",27.399,26.305956,0.189],
    [30530,"urn:WaterMeter:MC0203J22010600005","2024-08-25T22:30:00",27.299,26.340904,0.185],
    [30531,"urn:WaterMeter:MC0203J22010600005","2024-08-25T22:45:00",27.299,26.28078,0.188],
    [30532,"urn:WaterMeter:MC0203J22010600005","2024-08-25T23:00:00",27.299,26.305956,0.181],
    [30533,"urn:WaterMeter:MC0203J22010600005","2024-08-25T23:15:00",27.299,26.292418,0.185],
    [30534,"urn:WaterMeter:MC0203J22010600005","2024-08-25T23:30:00",27.299,26.254015,0.189],
    [30535,"urn:WaterMeter:MC0203J22010600005","2024-08-25T23:45:00",27.299,26.258282,0.18],
    [30536,"urn:WaterMeter:MC0203J22010600005","2024-08-26T00:00:00",27.2,26.264488,0.197],
    [30537,"urn:WaterMeter:MC0203J22010600005","2024-08-26T00:15:00",27.2,26.249321,0.194],
    [30538,"urn:WaterMeter:MC0203J22010600005","2024-08-26T00:30:00",27.2,26.250484,0.19],
    [30539,"urn:WaterMeter:MC0203J22010600005","2024-08-26T00:45:00",27.2,26.211695,0.196],
    [30540,"urn:WaterMeter:MC0203J22010600005","2024-08-26T01:00:00",27.1,26.249321,0.191],
    [30541,"urn:WaterMeter:MC0203J22010600005","2024-08-26T01:15:00",27.1,26.231905,0.187],
    [30542,"urn:WaterMeter:MC0203J22010600005","2024-08-26T01:30:00",27.1,26.237335,0.187],
    [30543,"urn:WaterMeter:MC0203J22010600005","2024-08-26T01:45:00",27,26.253628,0.195],
    [30544,"urn:WaterMeter:MC0203J22010600005","2024-08-26T02:00:00",27,26.224922,0.189],
    [30545,"urn:WaterMeter:MC0203J22010600005","2024-08-26T02:15:00",26.899,26.182215,0.183],
    [30546,"urn:WaterMeter:MC0203J22010600005","2024-08-26T02:30:00",26.899,26.189585,0.181],
    [30547,"urn:WaterMeter:MC0203J22010600005","2024-08-26T02:45:00",26.899,26.195055,0.184],
    [30548,"urn:WaterMeter:MC0203J22010600005","2024-08-26T03:00:00",26.899,26.204365,0.189],
    [30549,"urn:WaterMeter:MC0203J22010600005","2024-08-26T03:15:00",26.799,26.204752,0.187],
    [30550,"urn:WaterMeter:MC0203J22010600005","2024-08-26T03:30:00",26.799,26.177212,0.189],
    [30551,"urn:WaterMeter:MC0203J22010600005","2024-08-26T03:45:00",26.799,26.172129,0.187],
    [30552,"urn:WaterMeter:MC0203J22010600005","2024-08-26T04:00:00",26.799,26.14618,0.193],
    [30553,"urn:WaterMeter:MC0203J22010600005","2024-08-26T04:15:00",26.7,26.152735,0.192],
    [30554,"urn:WaterMeter:MC0203J22010600005","2024-08-26T04:30:00",26.7,26.12403,0.178],
    [30555,"urn:WaterMeter:MC0203J22010600005","2024-08-26T04:45:00",26.7,26.135706,0.189],
    [30556,"urn:WaterMeter:MC0203J22010600005","2024-08-26T05:00:00",26.6,26.106226,0.182],
    [30557,"urn:WaterMeter:MC0203J22010600005","2024-08-26T05:15:00",26.7,26.015806,0.185],
    [30558,"urn:WaterMeter:MC0203J22010600005","2024-08-26T05:30:00",26.7,26.012741,0.188],
    [30559,"urn:WaterMeter:MC0203J22010600005","2024-08-26T05:45:00",26.7,26.010801,0.189],
    [30560,"urn:WaterMeter:MC0203J22010600005","2024-08-26T06:00:00",26.6,26.00576,0.181],
    [30561,"urn:WaterMeter:MC0203J22010600005","2024-08-26T06:15:00",26.6,26.00766,0.183],
    [30562,"urn:WaterMeter:MC0203J22010600005","2024-08-26T06:30:00",26.6,27.347893,0.211],
    [30563,"urn:WaterMeter:MC0203J22010600005","2024-08-26T06:45:00",26.6,29.198137,0.257],
    [30564,"urn:WaterMeter:MC0203J22010600005","2024-08-26T07:00:00",26.6,30.456486,0.245],
    [30565,"urn:WaterMeter:MC0203J22010600005","2024-08-26T07:15:00",26.7,31.232285,0.281],
    [30566,"urn:WaterMeter:MC0203J22010600005","2024-08-26T07:30:00",26.799,31.59501,0.259],
    [30567,"urn:WaterMeter:MC0203J22010600005","2024-08-26T07:45:00",26.799,31.832405,0.274],
    [30568,"urn:WaterMeter:MC0203J22010600005","2024-08-26T08:00:00",26.899,32.07752,0.268],
    [30569,"urn:WaterMeter:MC0203J22010600005","2024-08-26T08:15:00",26.899,31.821545,0.256],
    [30570,"urn:WaterMeter:MC0203J22010600005","2024-08-26T08:30:00",27,31.65397,0.264],
    [30571,"urn:WaterMeter:MC0203J22010600005","2024-08-26T08:45:00",27.1,31.58217,0.238],
    [30572,"urn:WaterMeter:MC0203J22010600005","2024-08-26T09:00:00",27.1,31.532171,0.263],
    [30573,"urn:WaterMeter:MC0203J22010600005","2024-08-26T09:15:00",27.1,31.47127,0.238],
    [30574,"urn:WaterMeter:MC0203J22010600005","2024-08-26T09:30:00",27.299,31.387833,0.249],
    [30575,"urn:WaterMeter:MC0203J22010600005","2024-08-26T09:45:00",27.299,31.331976,0.245],
    [30576,"urn:WaterMeter:MC0203J22010600005","2024-08-26T10:00:00",27.399,31.297491,0.247],
    [30577,"urn:WaterMeter:MC0203J22010600005","2024-08-26T10:15:00",27.5,31.27185,0.262],
    [30578,"urn:WaterMeter:MC0203J22010600005","2024-08-26T10:30:00",27.6,31.194271,0.248],
    [30579,"urn:WaterMeter:MC0203J22010600005","2024-08-26T10:45:00",27.7,31.15009,0.251],
    [30580,"urn:WaterMeter:MC0203J22010600005","2024-08-26T11:00:00",27.899,31.082983,0.261],
    [30581,"urn:WaterMeter:MC0203J22010600005","2024-08-26T11:15:00",28,31.07212,0.253],
    [30582,"urn:WaterMeter:MC0203J22010600005","2024-08-26T11:30:00",28.2,30.99648,0.251],
    [30583,"urn:WaterMeter:MC0203J22010600005","2024-08-26T11:45:00",28.399,30.958078,0.254],
    [30584,"urn:WaterMeter:MC0203J22010600005","2024-08-26T12:00:00",28.5,30.86188,0.237],
    [30585,"urn:WaterMeter:MC0203J22010600005","2024-08-26T12:15:00",28.6,30.859163,0.245],
    [30586,"urn:WaterMeter:MC0203J22010600005","2024-08-26T12:30:00",28.7,30.829683,0.252],
    [30587,"urn:WaterMeter:MC0203J22010600005","2024-08-26T12:45:00",28.799,30.770723,0.254],
    [30588,"urn:WaterMeter:MC0203J22010600005","2024-08-26T13:00:00",28.899,30.715254,0.241],
    [30589,"urn:WaterMeter:MC0203J22010600005","2024-08-26T13:15:00",29,30.670218,0.245],
    [30590,"urn:WaterMeter:MC0203J22010600005","2024-08-26T13:30:00",29.1,30.565485,0.251],
    [30591,"urn:WaterMeter:MC0203J22010600005","2024-08-26T13:45:00",29.1,30.555788,0.252],
    [30592,"urn:WaterMeter:MC0203J22010600005","2024-08-26T14:00:00",29,30.528286,0.238],
    [30593,"urn:WaterMeter:MC0203J22010600005","2024-08-26T14:15:00",29,30.461567,0.242],
    [30594,"urn:WaterMeter:MC0203J22010600005","2024-08-26T14:30:00",29.1,30.433638,0.235],
    [30595,"urn:WaterMeter:MC0203J22010600005","2024-08-26T14:45:00",29,30.38515,0.236],
    [30596,"urn:WaterMeter:MC0203J22010600005","2024-08-26T15:00:00",29,30.35951,0.237],
    [30597,"urn:WaterMeter:MC0203J22010600005","2024-08-26T15:15:00",29,30.332357,0.234],
    [30598,"urn:WaterMeter:MC0203J22010600005","2024-08-26T15:30:00",28.899,30.283094,0.237],
    [30599,"urn:WaterMeter:MC0203J22010600005","2024-08-26T15:45:00",28.799,30.24124,0.242],
    [30600,"urn:WaterMeter:MC0203J22010600005","2024-08-26T16:00:00",28.7,30.253653,0.235],
    [30601,"urn:WaterMeter:MC0203J22010600005","2024-08-26T16:15:00",28.6,30.234646,0.237],
    [30602,"urn:WaterMeter:MC0203J22010600005","2024-08-26T16:30:00",28.6,30.217577,0.254],
    [30603,"urn:WaterMeter:MC0203J22010600005","2024-08-26T16:45:00",28.5,30.160944,0.249],
    [30604,"urn:WaterMeter:MC0203J22010600005","2024-08-26T17:00:00",28.399,30.150858,0.249],
    [30605,"urn:WaterMeter:MC0203J22010600005","2024-08-26T17:15:00",28.399,30.127546,0.234],
    [30606,"urn:WaterMeter:MC0203J22010600005","2024-08-26T17:30:00",28.299,30.072891,0.258],
    [30607,"urn:WaterMeter:MC0203J22010600005","2024-08-26T17:45:00",28.2,30.122541,0.235],
    [30608,"urn:WaterMeter:MC0203J22010600005","2024-08-26T18:00:00",28.1,30.044575,0.231],
    [30609,"urn:WaterMeter:MC0203J22010600005","2024-08-26T18:15:00",28,30.054659,0.23],
    [30610,"urn:WaterMeter:MC0203J22010600005","2024-08-26T18:30:00",27.899,30.025179,0.229],
    [30611,"urn:WaterMeter:MC0203J22010600005","2024-08-26T18:45:00",27.899,30.025179,0.235],
    [30612,"urn:WaterMeter:MC0203J22010600005","2024-08-26T19:00:00",27.799,30.01234,0.257],
    [30613,"urn:WaterMeter:MC0203J22010600005","2024-08-26T19:15:00",27.7,29.996086,0.23],
    [30614,"urn:WaterMeter:MC0203J22010600005","2024-08-26T19:30:00",27.6,30.001516,0.232],
    [30615,"urn:WaterMeter:MC0203J22010600005","2024-08-26T19:45:00",27.6,29.981346,0.251],
    [30616,"urn:WaterMeter:MC0203J22010600005","2024-08-26T20:00:00",27.5,29.966606,0.222],
    [30617,"urn:WaterMeter:MC0203J22010600005","2024-08-26T20:15:00",27.399,29.98057,0.231],
    [30618,"urn:WaterMeter:MC0203J22010600005","2024-08-26T20:30:00",27.399,29.944069,0.233],
    [30619,"urn:WaterMeter:MC0203J22010600005","2024-08-26T20:45:00",27.399,29.95691,0.238],
    [30620,"urn:WaterMeter:MC0203J22010600005","2024-08-26T21:00:00",27.299,29.957684,0.239],
    [30621,"urn:WaterMeter:MC0203J22010600005","2024-08-26T21:15:00",27.299,29.893642,0.246],
    [30622,"urn:WaterMeter:MC0203J22010600005","2024-08-26T21:30:00",27.299,29.911524,0.256],
    [30623,"urn:WaterMeter:MC0203J22010600005","2024-08-26T21:45:00",27.2,29.883207,0.238],
    [30624,"urn:WaterMeter:MC0203J22010600005","2024-08-26T22:00:00",27.2,29.873898,0.243],
    [30625,"urn:WaterMeter:MC0203J22010600005","2024-08-26T22:15:00",27.2,29.881268,0.239],
    [30626,"urn:WaterMeter:MC0203J22010600005","2024-08-26T22:30:00",27.1,29.843641,0.247],
    [30627,"urn:WaterMeter:MC0203J22010600005","2024-08-26T22:45:00",27.1,29.878164,0.23],
    [30628,"urn:WaterMeter:MC0203J22010600005","2024-08-26T23:00:00",27.1,29.882044,0.219],
    [30629,"urn:WaterMeter:MC0203J22010600005","2024-08-26T23:15:00",27.1,29.835846,0.227],
    [30630,"urn:WaterMeter:MC0203J22010600005","2024-08-26T23:30:00",27,29.828476,0.23],
    [30631,"urn:WaterMeter:MC0203J22010600005","2024-08-26T23:45:00",27,29.799383,0.244],
    [30632,"urn:WaterMeter:MC0203J22010600005","2024-08-27T00:00:00",27,29.822308,0.233],
    [30633,"urn:WaterMeter:MC0203J22010600005","2024-08-27T00:15:00",26.899,29.838173,0.225],
    [30634,"urn:WaterMeter:MC0203J22010600005","2024-08-27T00:30:00",26.899,29.800972,0.241],
    [30635,"urn:WaterMeter:MC0203J22010600005","2024-08-27T00:45:00",26.799,29.770678,0.232],
    [30636,"urn:WaterMeter:MC0203J22010600005","2024-08-27T01:00:00",26.799,29.780764,0.24],
    [30637,"urn:WaterMeter:MC0203J22010600005","2024-08-27T01:15:00",26.7,29.804852,0.228],
    [30638,"urn:WaterMeter:MC0203J22010600005","2024-08-27T01:30:00",26.7,29.793602,0.217],
    [30639,"urn:WaterMeter:MC0203J22010600005","2024-08-27T01:45:00",26.6,29.782742,0.239],
    [30640,"urn:WaterMeter:MC0203J22010600005","2024-08-27T02:00:00",26.6,29.728048,0.227],
    [30641,"urn:WaterMeter:MC0203J22010600005","2024-08-27T02:15:00",26.6,29.738482,0.235],
    [30642,"urn:WaterMeter:MC0203J22010600005","2024-08-27T02:30:00",26.5,29.751284,0.226],
    [30643,"urn:WaterMeter:MC0203J22010600005","2024-08-27T02:45:00",26.5,29.717575,0.235],
    [30644,"urn:WaterMeter:MC0203J22010600005","2024-08-27T03:00:00",26.399,29.748219,0.236],
    [30645,"urn:WaterMeter:MC0203J22010600005","2024-08-27T03:15:00",26.399,29.717575,0.24],
    [30646,"urn:WaterMeter:MC0203J22010600005","2024-08-27T03:30:00",26.299,29.735806,0.234],
    [30647,"urn:WaterMeter:MC0203J22010600005","2024-08-27T03:45:00",26.2,29.729988,0.248],
    [30648,"urn:WaterMeter:MC0203J22010600005","2024-08-27T04:00:00",26.2,29.746279,0.231],
    [30649,"urn:WaterMeter:MC0203J22010600005","2024-08-27T04:15:00",26.1,29.702408,0.228],
    [30650,"urn:WaterMeter:MC0203J22010600005","2024-08-27T04:30:00",26,29.704773,0.227],
    [30651,"urn:WaterMeter:MC0203J22010600005","2024-08-27T04:45:00",26,29.712105,0.239],
    [30652,"urn:WaterMeter:MC0203J22010600005","2024-08-27T05:00:00",25.899,29.707102,0.235],
    [30653,"urn:WaterMeter:MC0203J22010600005","2024-08-27T05:15:00",25.899,29.719475,0.241],
    [30654,"urn:WaterMeter:MC0203J22010600005","2024-08-27T05:30:00",25.899,29.818777,0.235],
    [30655,"urn:WaterMeter:MC0203J22010600005","2024-08-27T05:45:00",26,30.271883,0.248],
    [30656,"urn:WaterMeter:MC0203J22010600005","2024-08-27T06:00:00",26,30.927435,0.252],
    [30657,"urn:WaterMeter:MC0203J22010600005","2024-08-27T06:15:00",26,31.546911,0.266],
    [30658,"urn:WaterMeter:MC0203J22010600005","2024-08-27T06:30:00",26.1,31.920458,0.267],
    [30659,"urn:WaterMeter:MC0203J22010600005","2024-08-27T06:45:00",26.1,32.16057,0.266],
    [30660,"urn:WaterMeter:MC0203J22010600005","2024-08-27T07:00:00",26.1,32.384773,0.289],
    [30661,"urn:WaterMeter:MC0203J22010600005","2024-08-27T07:15:00",26.2,32.52399,0.27],
    [30662,"urn:WaterMeter:MC0203J22010600005","2024-08-27T07:30:00",26.2,32.666004,0.274],
    [30663,"urn:WaterMeter:MC0203J22010600005","2024-08-27T07:45:00",26.299,32.770737,0.271],
    [30664,"urn:WaterMeter:MC0203J22010600005","2024-08-27T08:00:00",26.299,32.87159,0.27],
    [30665,"urn:WaterMeter:MC0203J22010600005","2024-08-27T08:15:00",26.299,32.582176,0.269],
    [30666,"urn:WaterMeter:MC0203J22010600005","2024-08-27T08:30:00",26.299,32.25285,0.271],
    [30667,"urn:WaterMeter:MC0203J22010600005","2024-08-27T08:45:00",26.299,32.12178,0.282],
    [30668,"urn:WaterMeter:MC0203J22010600005","2024-08-27T09:00:00",26.299,32.035664,0.281],
    [30669,"urn:WaterMeter:MC0203J22010600005","2024-08-27T09:15:00",26.299,31.950289,0.264],
    [30670,"urn:WaterMeter:MC0203J22010600005","2024-08-27T09:30:00",26.399,31.903353,0.267],
    [30671,"urn:WaterMeter:MC0203J22010600005","2024-08-27T09:45:00",26.399,31.867704,0.258],
    [30672,"urn:WaterMeter:MC0203J22010600005","2024-08-27T10:00:00",26.5,31.802925,0.274],
    [30673,"urn:WaterMeter:MC0203J22010600005","2024-08-27T10:15:00",26.5,31.784306,0.256],
    [30674,"urn:WaterMeter:MC0203J22010600005","2024-08-27T10:30:00",26.6,31.750946,0.262],
    [30675,"urn:WaterMeter:MC0203J22010600005","2024-08-27T10:45:00",26.6,31.686943,0.263],
    [30676,"urn:WaterMeter:MC0203J22010600005","2024-08-27T11:00:00",26.7,31.643887,0.245],
    [30677,"urn:WaterMeter:MC0203J22010600005","2024-08-27T11:15:00",26.799,31.603893,0.255],
    [30678,"urn:WaterMeter:MC0203J22010600005","2024-08-27T11:30:00",26.899,31.545708,0.255],
    [30679,"urn:WaterMeter:MC0203J22010600005","2024-08-27T11:45:00",27,31.479805,0.245],
    [30680,"urn:WaterMeter:MC0203J22010600005","2024-08-27T12:00:00",27.2,31.38244,0.249],
    [30681,"urn:WaterMeter:MC0203J22010600005","2024-08-27T12:15:00",27.299,31.390976,0.247],
    [30682,"urn:WaterMeter:MC0203J22010600005","2024-08-27T12:30:00",27.399,31.33473,0.252],
    [30683,"urn:WaterMeter:MC0203J22010600005","2024-08-27T12:45:00",27.6,31.268398,0.266],
    [30684,"urn:WaterMeter:MC0203J22010600005","2024-08-27T13:00:00",27.799,31.207886,0.238],
    [30685,"urn:WaterMeter:MC0203J22010600005","2024-08-27T13:15:00",27.899,31.141943,0.26],
    [30686,"urn:WaterMeter:MC0203J22010600005","2024-08-27T13:30:00",28.1,31.106256,0.237],
    [30687,"urn:WaterMeter:MC0203J22010600005","2024-08-27T13:45:00",28.1,31.072897,0.257],
    [30688,"urn:WaterMeter:MC0203J22010600005","2024-08-27T14:00:00",28.2,31.015875,0.24],
    [30689,"urn:WaterMeter:MC0203J22010600005","2024-08-27T14:15:00",28.299,31.009281,0.26],
    [30690,"urn:WaterMeter:MC0203J22010600005","2024-08-27T14:30:00",28.399,30.947605,0.257],
    [30691,"urn:WaterMeter:MC0203J22010600005","2024-08-27T14:45:00",28.5,30.91347,0.238],
    [30692,"urn:WaterMeter:MC0203J22010600005","2024-08-27T15:00:00",28.5,30.811064,0.249],
    [30693,"urn:WaterMeter:MC0203J22010600005","2024-08-27T15:15:00",28.5,30.838606,0.243],
    [30694,"urn:WaterMeter:MC0203J22010600005","2024-08-27T15:30:00",28.5,30.779606,0.263],
    [30695,"urn:WaterMeter:MC0203J22010600005","2024-08-27T15:45:00",28.5,30.7362,0.252],
    [30696,"urn:WaterMeter:MC0203J22010600005","2024-08-27T16:00:00",28.5,30.715254,0.249],
    [30697,"urn:WaterMeter:MC0203J22010600005","2024-08-27T16:15:00",28.5,30.655128,0.244],
    [30698,"urn:WaterMeter:MC0203J22010600005","2024-08-27T16:30:00",28.5,30.622894,0.241],
    [30699,"urn:WaterMeter:MC0203J22010600005","2024-08-27T16:45:00",28.5,30.586082,0.246],
    [30700,"urn:WaterMeter:MC0203J22010600005","2024-08-27T17:00:00",28.5,30.543802,0.226],
    [30701,"urn:WaterMeter:MC0203J22010600005","2024-08-27T17:15:00",28.399,30.525183,0.242],
    [30702,"urn:WaterMeter:MC0203J22010600005","2024-08-27T17:30:00",28.399,30.515059,0.233],
    [30703,"urn:WaterMeter:MC0203J22010600005","2024-08-27T17:45:00",28.299,30.515446,0.241],
    [30704,"urn:WaterMeter:MC0203J22010600005","2024-08-27T18:00:00",28.299,30.45342,0.241],
    [30705,"urn:WaterMeter:MC0203J22010600005","2024-08-27T18:15:00",28.2,30.454584,0.244],
    [30706,"urn:WaterMeter:MC0203J22010600005","2024-08-27T18:30:00",28.1,30.405321,0.237],
    [30707,"urn:WaterMeter:MC0203J22010600005","2024-08-27T18:45:00",28.1,30.430107,0.245],
    [30708,"urn:WaterMeter:MC0203J22010600005","2024-08-27T19:00:00",28,30.374678,0.254],
    [30709,"urn:WaterMeter:MC0203J22010600005","2024-08-27T19:15:00",27.899,30.373514,0.239],
    [30710,"urn:WaterMeter:MC0203J22010600005","2024-08-27T19:30:00",27.799,30.40183,0.253],
    [30711,"urn:WaterMeter:MC0203J22010600005","2024-08-27T19:45:00",27.7,30.355669,0.237],
    [30712,"urn:WaterMeter:MC0203J22010600005","2024-08-27T20:00:00",27.7,30.349464,0.24],
    [30713,"urn:WaterMeter:MC0203J22010600005","2024-08-27T20:15:00",27.6,30.322271,0.235],
    [30714,"urn:WaterMeter:MC0203J22010600005","2024-08-27T20:30:00",27.5,30.335888,0.252],
    [30715,"urn:WaterMeter:MC0203J22010600005","2024-08-27T20:45:00",27.5,30.345972,0.249],
    [30716,"urn:WaterMeter:MC0203J22010600005","2024-08-27T21:00:00",27.399,30.307959,0.243],
    [30717,"urn:WaterMeter:MC0203J22010600005","2024-08-27T21:15:00",27.399,30.334723,0.256],
    [30718,"urn:WaterMeter:MC0203J22010600005","2024-08-27T21:30:00",27.299,30.282705,0.247],
    [30719,"urn:WaterMeter:MC0203J22010600005","2024-08-27T21:45:00",27.2,30.31335,0.235],
    [30720,"urn:WaterMeter:MC0203J22010600005","2024-08-27T22:00:00",27.1,30.319595,0.251],
    [30721,"urn:WaterMeter:MC0203J22010600005","2024-08-27T22:15:00",27,30.31494,0.236],
    [30722,"urn:WaterMeter:MC0203J22010600005","2024-08-27T22:30:00",27,30.293955,0.232],
    [30723,"urn:WaterMeter:MC0203J22010600005","2024-08-27T22:45:00",26.899,30.254778,0.239],
    [30724,"urn:WaterMeter:MC0203J22010600005","2024-08-27T23:00:00",26.799,30.263699,0.254],
    [30725,"urn:WaterMeter:MC0203J22010600005","2024-08-27T23:15:00",26.799,30.256756,0.246],
    [30726,"urn:WaterMeter:MC0203J22010600005","2024-08-27T23:30:00",26.7,30.289726,0.236],
    [30727,"urn:WaterMeter:MC0203J22010600005","2024-08-27T23:45:00",26.7,30.252876,0.249],
    [30728,"urn:WaterMeter:MC0203J22010600005","2024-08-28T00:00:00",26.6,30.257532,0.235],
    [30729,"urn:WaterMeter:MC0203J22010600005","2024-08-28T00:15:00",26.6,30.226072,0.238],
    [30730,"urn:WaterMeter:MC0203J22010600005","2024-08-28T00:30:00",26.5,30.24667,0.247],
    [30731,"urn:WaterMeter:MC0203J22010600005","2024-08-28T00:45:00",26.399,30.220293,0.247],
    [30732,"urn:WaterMeter:MC0203J22010600005","2024-08-28T01:00:00",26.399,30.258696,0.242],
    [30733,"urn:WaterMeter:MC0203J22010600005","2024-08-28T01:15:00",26.299,30.226072,0.232],
    [30734,"urn:WaterMeter:MC0203J22010600005","2024-08-28T01:30:00",26.2,30.210207,0.233],
    [30735,"urn:WaterMeter:MC0203J22010600005","2024-08-28T01:45:00",26.2,30.240076,0.252],
    [30736,"urn:WaterMeter:MC0203J22010600005","2024-08-28T02:00:00",26.1,30.232317,0.233],
    [30737,"urn:WaterMeter:MC0203J22010600005","2024-08-28T02:15:00",26,30.191587,0.237],
    [30738,"urn:WaterMeter:MC0203J22010600005","2024-08-28T02:30:00",26,30.20051,0.23],
    [30739,"urn:WaterMeter:MC0203J22010600005","2024-08-28T02:45:00",25.899,30.179176,0.24],
    [30740,"urn:WaterMeter:MC0203J22010600005","2024-08-28T03:00:00",25.799,30.184566,0.255],
    [30741,"urn:WaterMeter:MC0203J22010600005","2024-08-28T03:15:00",25.799,30.17452,0.237],
    [30742,"urn:WaterMeter:MC0203J22010600005","2024-08-28T03:30:00",25.7,30.169867,0.246],
    [30743,"urn:WaterMeter:MC0203J22010600005","2024-08-28T03:45:00",25.7,30.183443,0.237],
    [30744,"urn:WaterMeter:MC0203J22010600005","2024-08-28T04:00:00",25.7,30.18926,0.243],
    [30745,"urn:WaterMeter:MC0203J22010600005","2024-08-28T04:15:00",25.7,30.17103,0.239],
    [30746,"urn:WaterMeter:MC0203J22010600005","2024-08-28T04:30:00",25.7,30.157413,0.252],
    [30747,"urn:WaterMeter:MC0203J22010600005","2024-08-28T04:45:00",25.6,30.174133,0.234],
    [30748,"urn:WaterMeter:MC0203J22010600005","2024-08-28T05:00:00",25.7,30.144264,0.225],
    [30749,"urn:WaterMeter:MC0203J22010600005","2024-08-28T05:15:00",25.799,30.152798,0.252],
    [30750,"urn:WaterMeter:MC0203J22010600005","2024-08-28T05:30:00",25.899,30.260633,0.236],
    [30751,"urn:WaterMeter:MC0203J22010600005","2024-08-28T05:45:00",25.899,30.705555,0.259],
    [30752,"urn:WaterMeter:MC0203J22010600005","2024-08-28T06:00:00",25.899,31.410757,0.259],
    [30753,"urn:WaterMeter:MC0203J22010600005","2024-08-28T06:15:00",25.899,31.903353,0.263],
    [30754,"urn:WaterMeter:MC0203J22010600005","2024-08-28T06:30:00",25.899,32.183804,0.269],
    [30755,"urn:WaterMeter:MC0203J22010600005","2024-08-28T06:45:00",26,32.440243,0.266],
    [30756,"urn:WaterMeter:MC0203J22010600005","2024-08-28T07:00:00",26,32.61829,0.291],
    [30757,"urn:WaterMeter:MC0203J22010600005","2024-08-28T07:15:00",26.1,32.773838,0.289],
    [30758,"urn:WaterMeter:MC0203J22010600005","2024-08-28T07:30:00",26.2,32.88439,0.28],
    [30759,"urn:WaterMeter:MC0203J22010600005","2024-08-28T07:45:00",26.2,33.03412,0.269],
    [30760,"urn:WaterMeter:MC0203J22010600005","2024-08-28T08:00:00",26.299,33.117905,0.277],
    [30761,"urn:WaterMeter:MC0203J22010600005","2024-08-28T08:15:00",26.399,32.76065,0.273],
    [30762,"urn:WaterMeter:MC0203J22010600005","2024-08-28T08:30:00",26.399,32.410763,0.27],
    [30763,"urn:WaterMeter:MC0203J22010600005","2024-08-28T08:45:00",26.5,32.256767,0.269],
    [30764,"urn:WaterMeter:MC0203J22010600005","2024-08-28T09:00:00",26.5,32.159405,0.271],
    [30765,"urn:WaterMeter:MC0203J22010600005","2024-08-28T09:15:00",26.6,32.09579,0.271],
    [30766,"urn:WaterMeter:MC0203J22010600005","2024-08-28T09:30:00",26.7,32.02011,0.26],
    [30767,"urn:WaterMeter:MC0203J22010600005","2024-08-28T09:45:00",26.7,31.968906,0.259],
    [30768,"urn:WaterMeter:MC0203J22010600005","2024-08-28T10:00:00",26.799,31.891327,0.259],
    [30769,"urn:WaterMeter:MC0203J22010600005","2024-08-28T10:15:00",26.899,31.879728,0.267],
    [30770,"urn:WaterMeter:MC0203J22010600005","2024-08-28T10:30:00",27,31.804089,0.253],
    [30771,"urn:WaterMeter:MC0203J22010600005","2024-08-28T10:45:00",27.1,31.761032,0.26],
    [30772,"urn:WaterMeter:MC0203J22010600005","2024-08-28T11:00:00",27.2,31.667547,0.256],
    [30773,"urn:WaterMeter:MC0203J22010600005","2024-08-28T11:15:00",27.399,31.629145,0.272],
    [30774,"urn:WaterMeter:MC0203J22010600005","2024-08-28T11:30:00",27.5,31.564716,0.27],
    [30775,"urn:WaterMeter:MC0203J22010600005","2024-08-28T11:45:00",27.7,31.48252,0.273],
    [30776,"urn:WaterMeter:MC0203J22010600005","2024-08-28T12:00:00",27.799,31.427011,0.251],
    [30777,"urn:WaterMeter:MC0203J22010600005","2024-08-28T12:15:00",28,31.376234,0.254],
    [30778,"urn:WaterMeter:MC0203J22010600005","2024-08-28T12:30:00",28.1,31.31611,0.244],
    [30779,"urn:WaterMeter:MC0203J22010600005","2024-08-28T12:45:00",28.2,31.269562,0.251],
    [30780,"urn:WaterMeter:MC0203J22010600005","2024-08-28T13:00:00",28.2,31.205908,0.264],
    [30781,"urn:WaterMeter:MC0203J22010600005","2024-08-28T13:15:00",28.299,31.169096,0.249],
    [30782,"urn:WaterMeter:MC0203J22010600005","2024-08-28T13:30:00",28.399,31.15164,0.249],
    [30783,"urn:WaterMeter:MC0203J22010600005","2024-08-28T13:45:00",28.399,31.074837,0.242],
    [30784,"urn:WaterMeter:MC0203J22010600005","2024-08-28T14:00:00",28.5,31.052727,0.24],
    [30785,"urn:WaterMeter:MC0203J22010600005","2024-08-28T14:15:00",28.5,30.975922,0.244],
    [30786,"urn:WaterMeter:MC0203J22010600005","2024-08-28T14:30:00",28.6,30.946442,0.269],
    [30787,"urn:WaterMeter:MC0203J22010600005","2024-08-28T14:45:00",28.6,30.875029,0.255],
    [30788,"urn:WaterMeter:MC0203J22010600005","2024-08-28T15:00:00",28.6,30.818008,0.255],
    [30789,"urn:WaterMeter:MC0203J22010600005","2024-08-28T15:15:00",28.5,30.806759,0.242],
    [30790,"urn:WaterMeter:MC0203J22010600005","2024-08-28T15:30:00",28.5,30.76021,0.245],
    [30791,"urn:WaterMeter:MC0203J22010600005","2024-08-28T15:45:00",28.399,30.717968,0.25],
    [30792,"urn:WaterMeter:MC0203J22010600005","2024-08-28T16:00:00",28.399,30.707108,0.251],
    [30793,"urn:WaterMeter:MC0203J22010600005","2024-08-28T16:15:00",28.399,30.652374,0.249],
    [30794,"urn:WaterMeter:MC0203J22010600005","2024-08-28T16:30:00",28.299,30.609745,0.245],
    [30795,"urn:WaterMeter:MC0203J22010600005","2024-08-28T16:45:00",28.2,30.563583,0.239],
    [30796,"urn:WaterMeter:MC0203J22010600005","2024-08-28T17:00:00",28.1,30.583366,0.246],
    [30797,"urn:WaterMeter:MC0203J22010600005","2024-08-28T17:15:00",28,30.56087,0.239],
    [30798,"urn:WaterMeter:MC0203J22010600005","2024-08-28T17:30:00",27.899,30.519753,0.261],
    [30799,"urn:WaterMeter:MC0203J22010600005","2024-08-28T17:45:00",27.899,30.452644,0.254],
    [30800,"urn:WaterMeter:MC0203J22010600005","2024-08-28T18:00:00",27.799,30.48484,0.248],
    [30801,"urn:WaterMeter:MC0203J22010600005","2024-08-28T18:15:00",27.7,30.448727,0.244],
    [30802,"urn:WaterMeter:MC0203J22010600005","2024-08-28T18:30:00",27.5,30.444498,0.238],
    [30803,"urn:WaterMeter:MC0203J22010600005","2024-08-28T18:45:00",27.399,30.45148,0.246],
    [30804,"urn:WaterMeter:MC0203J22010600005","2024-08-28T19:00:00",27.299,30.385538,0.242],
    [30805,"urn:WaterMeter:MC0203J22010600005","2024-08-28T19:15:00",27.2,30.404545,0.233],
    [30806,"urn:WaterMeter:MC0203J22010600005","2024-08-28T19:30:00",27.1,30.40024,0.246],
    [30807,"urn:WaterMeter:MC0203J22010600005","2024-08-28T19:45:00",27,30.423552,0.244],
    [30808,"urn:WaterMeter:MC0203J22010600005","2024-08-28T20:00:00",26.899,30.402218,0.239],
    [30809,"urn:WaterMeter:MC0203J22010600005","2024-08-28T20:15:00",26.799,30.410324,0.241],
    [30810,"urn:WaterMeter:MC0203J22010600005","2024-08-28T20:30:00",26.7,30.385538,0.245],
    [30811,"urn:WaterMeter:MC0203J22010600005","2024-08-28T20:45:00",26.7,30.400627,0.242],
    [30812,"urn:WaterMeter:MC0203J22010600005","2024-08-28T21:00:00",26.6,30.369635,0.234],
    [30813,"urn:WaterMeter:MC0203J22010600005","2024-08-28T21:15:00",26.5,30.351364,0.247],
    [30814,"urn:WaterMeter:MC0203J22010600005","2024-08-28T21:30:00",26.5,30.354506,0.233],
    [30815,"urn:WaterMeter:MC0203J22010600005","2024-08-28T21:45:00",26.399,30.359898,0.246],
    [30816,"urn:WaterMeter:MC0203J22010600005","2024-08-28T22:00:00",26.399,30.300589,0.238],
    [30817,"urn:WaterMeter:MC0203J22010600005","2024-08-28T22:15:00",26.299,30.301325,0.242],
    [30818,"urn:WaterMeter:MC0203J22010600005","2024-08-28T22:30:00",26.299,30.316105,0.242],
    [30819,"urn:WaterMeter:MC0203J22010600005","2024-08-28T22:45:00",26.2,30.292055,0.236],
    [30820,"urn:WaterMeter:MC0203J22010600005","2024-08-28T23:00:00",26.2,30.321108,0.24],
    [30821,"urn:WaterMeter:MC0203J22010600005","2024-08-28T23:15:00",26.1,30.283094,0.235],
    [30822,"urn:WaterMeter:MC0203J22010600005","2024-08-28T23:30:00",26,30.293568,0.246],
    [30823,"urn:WaterMeter:MC0203J22010600005","2024-08-28T23:45:00",25.899,30.309898,0.236],
    [30824,"urn:WaterMeter:MC0203J22010600005","2024-08-29T00:00:00",25.899,30.31335,0.257],
    [30825,"urn:WaterMeter:MC0203J22010600005","2024-08-29T00:15:00",25.799,30.283094,0.231],
    [30826,"urn:WaterMeter:MC0203J22010600005","2024-08-29T00:30:00",25.799,30.29283,0.239],
    [30827,"urn:WaterMeter:MC0203J22010600005","2024-08-29T00:45:00",25.7,30.274172,0.252],
    [30828,"urn:WaterMeter:MC0203J22010600005","2024-08-29T01:00:00",25.7,30.266453,0.24],
    [30829,"urn:WaterMeter:MC0203J22010600005","2024-08-29T01:15:00",25.7,30.238523,0.233],
    [30830,"urn:WaterMeter:MC0203J22010600005","2024-08-29T01:30:00",25.6,30.201674,0.234],
    [30831,"urn:WaterMeter:MC0203J22010600005","2024-08-29T01:45:00",25.6,30.225296,0.251],
    [30832,"urn:WaterMeter:MC0203J22010600005","2024-08-29T02:00:00",25.6,30.24124,0.244],
    [30833,"urn:WaterMeter:MC0203J22010600005","2024-08-29T02:15:00",25.6,30.225296,0.255],
    [30834,"urn:WaterMeter:MC0203J22010600005","2024-08-29T02:30:00",25.5,30.245468,0.234],
    [30835,"urn:WaterMeter:MC0203J22010600005","2024-08-29T02:45:00",25.5,30.198183,0.25],
    [30836,"urn:WaterMeter:MC0203J22010600005","2024-08-29T03:00:00",25.5,30.181114,0.235],
    [30837,"urn:WaterMeter:MC0203J22010600005","2024-08-29T03:15:00",25.5,30.17297,0.237],
    [30838,"urn:WaterMeter:MC0203J22010600005","2024-08-29T03:30:00",25.399,30.167112,0.232],
    [30839,"urn:WaterMeter:MC0203J22010600005","2024-08-29T03:45:00",25.399,30.206678,0.243],
    [30840,"urn:WaterMeter:MC0203J22010600005","2024-08-29T04:00:00",25.299,30.158577,0.235],
    [30841,"urn:WaterMeter:MC0203J22010600005","2024-08-29T04:15:00",25.299,30.146166,0.235],
    [30842,"urn:WaterMeter:MC0203J22010600005","2024-08-29T04:30:00",25.299,30.146553,0.248],
    [30843,"urn:WaterMeter:MC0203J22010600005","2024-08-29T04:45:00",25.2,30.11556,0.235],
    [30844,"urn:WaterMeter:MC0203J22010600005","2024-08-29T05:00:00",25.2,30.121767,0.233],
    [30845,"urn:WaterMeter:MC0203J22010600005","2024-08-29T05:15:00",25.2,30.166336,0.227],
    [30846,"urn:WaterMeter:MC0203J22010600005","2024-08-29T05:30:00",25.299,30.23348,0.237],
    [30847,"urn:WaterMeter:MC0203J22010600005","2024-08-29T05:45:00",25.299,30.537983,0.26],
    [30848,"urn:WaterMeter:MC0203J22010600005","2024-08-29T06:00:00",25.299,31.30137,0.268],
    [30849,"urn:WaterMeter:MC0203J22010600005","2024-08-29T06:15:00",25.299,31.832792,0.271],
    [30850,"urn:WaterMeter:MC0203J22010600005","2024-08-29T06:30:00",25.299,32.20983,0.267],
    [30851,"urn:WaterMeter:MC0203J22010600005","2024-08-29T06:45:00",25.299,32.436714,0.269],
    [30852,"urn:WaterMeter:MC0203J22010600005","2024-08-29T07:00:00",25.299,32.561657,0.264],
    [30853,"urn:WaterMeter:MC0203J22010600005","2024-08-29T07:15:00",25.399,32.792458,0.285],
    [30854,"urn:WaterMeter:MC0203J22010600005","2024-08-29T07:30:00",25.399,32.85332,0.268],
    [30855,"urn:WaterMeter:MC0203J22010600005","2024-08-29T07:45:00",25.5,33.012783,0.271],
    [30856,"urn:WaterMeter:MC0203J22010600005","2024-08-29T08:00:00",25.6,33.103943,0.266],
    [30857,"urn:WaterMeter:MC0203J22010600005","2024-08-29T08:15:00",25.7,32.85258,0.262],
    [30858,"urn:WaterMeter:MC0203J22010600005","2024-08-29T08:30:00",25.7,32.53528,0.267],
    [30859,"urn:WaterMeter:MC0203J22010600005","2024-08-29T08:45:00",25.799,32.331207,0.271],
    [30860,"urn:WaterMeter:MC0203J22010600005","2024-08-29T09:00:00",25.899,32.26216,0.267],
    [30861,"urn:WaterMeter:MC0203J22010600005","2024-08-29T09:15:00",26.1,32.170265,0.256],
    [30862,"urn:WaterMeter:MC0203J22010600005","2024-08-29T09:30:00",26.2,32.120613,0.284],
    [30863,"urn:WaterMeter:MC0203J22010600005","2024-08-29T09:45:00",26.2,32.089584,0.273],
    [30864,"urn:WaterMeter:MC0203J22010600005","2024-08-29T10:00:00",26.399,31.99804,0.271],
    [30865,"urn:WaterMeter:MC0203J22010600005","2024-08-29T10:15:00",26.5,31.949512,0.251],
    [30866,"urn:WaterMeter:MC0203J22010600005","2024-08-29T10:30:00",26.6,31.858395,0.272],
    [30867,"urn:WaterMeter:MC0203J22010600005","2024-08-29T10:45:00",26.7,31.818052,0.252],
    [30868,"urn:WaterMeter:MC0203J22010600005","2024-08-29T11:00:00",26.7,31.799822,0.256],
    [30869,"urn:WaterMeter:MC0203J22010600005","2024-08-29T11:15:00",26.799,31.727283,0.259],
    [30870,"urn:WaterMeter:MC0203J22010600005","2024-08-29T11:30:00",26.899,31.645824,0.269],
    [30871,"urn:WaterMeter:MC0203J22010600005","2024-08-29T11:45:00",27.1,31.599665,0.255],
    [30872,"urn:WaterMeter:MC0203J22010600005","2024-08-29T12:00:00",27.2,31.565918,0.254],
    [30873,"urn:WaterMeter:MC0203J22010600005","2024-08-29T12:15:00",27.399,31.535624,0.251],
    [30874,"urn:WaterMeter:MC0203J22010600005","2024-08-29T12:30:00",27.5,31.447569,0.249],
    [30875,"urn:WaterMeter:MC0203J22010600005","2024-08-29T12:45:00",27.6,31.43826,0.274],
    [30876,"urn:WaterMeter:MC0203J22010600005","2024-08-29T13:00:00",27.6,31.383993,0.268],
    [30877,"urn:WaterMeter:MC0203J22010600005","2024-08-29T13:15:00",27.6,31.30137,0.25],
    [30878,"urn:WaterMeter:MC0203J22010600005","2024-08-29T13:30:00",27.6,31.298267,0.256],
    [30879,"urn:WaterMeter:MC0203J22010600005","2024-08-29T13:45:00",27.5,31.261028,0.242],
    [30880,"urn:WaterMeter:MC0203J22010600005","2024-08-29T14:00:00",27.5,31.217196,0.264],
    [30881,"urn:WaterMeter:MC0203J22010600005","2024-08-29T14:15:00",27.6,31.196598,0.271],
    [30882,"urn:WaterMeter:MC0203J22010600005","2024-08-29T14:30:00",27.6,31.160175,0.256],
    [30883,"urn:WaterMeter:MC0203J22010600005","2024-08-29T14:45:00",27.6,31.079065,0.241],
    [30884,"urn:WaterMeter:MC0203J22010600005","2024-08-29T15:00:00",27.5,31.002647,0.252],
    [30885,"urn:WaterMeter:MC0203J22010600005","2024-08-29T15:15:00",27.5,30.998808,0.256],
    [30886,"urn:WaterMeter:MC0203J22010600005","2024-08-29T15:30:00",27.399,30.98911,0.247],
    [30887,"urn:WaterMeter:MC0203J22010600005","2024-08-29T15:45:00",27.299,30.918125,0.249],
    [30888,"urn:WaterMeter:MC0203J22010600005","2024-08-29T16:00:00",27.299,30.90257,0.249],
    [30889,"urn:WaterMeter:MC0203J22010600005","2024-08-29T16:15:00",27.2,30.906876,0.239],
    [30890,"urn:WaterMeter:MC0203J22010600005","2024-08-29T16:30:00",27.2,30.889809,0.24],
    [30891,"urn:WaterMeter:MC0203J22010600005","2024-08-29T16:45:00",27.1,30.83938,0.238],
    [30892,"urn:WaterMeter:MC0203J22010600005","2024-08-29T17:00:00",27.1,30.824253,0.249],
    [30893,"urn:WaterMeter:MC0203J22010600005","2024-08-29T17:15:00",27,30.823866,0.239],
    [30894,"urn:WaterMeter:MC0203J22010600005","2024-08-29T17:30:00",27,30.780033,0.247],
    [30895,"urn:WaterMeter:MC0203J22010600005","2024-08-29T17:45:00",26.899,30.774601,0.243],
    [30896,"urn:WaterMeter:MC0203J22010600005","2024-08-29T18:00:00",26.799,30.761024,0.249],
    [30897,"urn:WaterMeter:MC0203J22010600005","2024-08-29T18:15:00",26.799,30.750126,0.253],
    [30898,"urn:WaterMeter:MC0203J22010600005","2024-08-29T18:30:00",26.7,30.740816,0.257],
    [30899,"urn:WaterMeter:MC0203J22010600005","2024-08-29T18:45:00",26.6,30.711723,0.242],
    [30900,"urn:WaterMeter:MC0203J22010600005","2024-08-29T19:00:00",26.5,30.714865,0.232],
    [30901,"urn:WaterMeter:MC0203J22010600005","2024-08-29T19:15:00",26.5,30.688488,0.249],
    [30902,"urn:WaterMeter:MC0203J22010600005","2024-08-29T19:30:00",26.399,30.69039,0.245],
    [30903,"urn:WaterMeter:MC0203J22010600005","2024-08-29T19:45:00",26.299,30.682243,0.254],
    [30904,"urn:WaterMeter:MC0203J22010600005","2024-08-29T20:00:00",26.299,30.685772,0.251],
    [30905,"urn:WaterMeter:MC0203J22010600005","2024-08-29T20:15:00",26.2,30.659395,0.236],
    [30906,"urn:WaterMeter:MC0203J22010600005","2024-08-29T20:30:00",26.2,30.640388,0.243],
    [30907,"urn:WaterMeter:MC0203J22010600005","2024-08-29T20:45:00",26.2,30.689613,0.24],
    [30908,"urn:WaterMeter:MC0203J22010600005","2024-08-29T21:00:00",26.2,30.663662,0.238],
    [30909,"urn:WaterMeter:MC0203J22010600005","2024-08-29T21:15:00",26.1,30.64384,0.243],
    [30910,"urn:WaterMeter:MC0203J22010600005","2024-08-29T21:30:00",26.1,30.624445,0.253],
    [30911,"urn:WaterMeter:MC0203J22010600005","2024-08-29T21:45:00",26,30.604664,0.255],
    [30912,"urn:WaterMeter:MC0203J22010600005","2024-08-29T22:00:00",26,30.596556,0.244],
    [30913,"urn:WaterMeter:MC0203J22010600005","2024-08-29T22:15:00",25.899,30.615175,0.237],
    [30914,"urn:WaterMeter:MC0203J22010600005","2024-08-29T22:30:00",25.899,30.612808,0.24],
    [30915,"urn:WaterMeter:MC0203J22010600005","2024-08-29T22:45:00",25.799,30.552723,0.232],
    [30916,"urn:WaterMeter:MC0203J22010600005","2024-08-29T23:00:00",25.799,30.544966,0.235],
    [30917,"urn:WaterMeter:MC0203J22010600005","2024-08-29T23:15:00",25.7,30.539146,0.249],
    [30918,"urn:WaterMeter:MC0203J22010600005","2024-08-29T23:30:00",25.6,30.546865,0.232],
    [30919,"urn:WaterMeter:MC0203J22010600005","2024-08-29T23:45:00",25.6,30.555012,0.242],
    [30920,"urn:WaterMeter:MC0203J22010600005","2024-08-30T00:00:00",25.5,30.536781,0.241],
    [30921,"urn:WaterMeter:MC0203J22010600005","2024-08-30T00:15:00",25.399,30.528673,0.237],
    [30922,"urn:WaterMeter:MC0203J22010600005","2024-08-30T00:30:00",25.399,30.534452,0.241],
    [30923,"urn:WaterMeter:MC0203J22010600005","2024-08-30T00:45:00",25.299,30.541862,0.251],
    [30924,"urn:WaterMeter:MC0203J22010600005","2024-08-30T01:00:00",25.2,30.495663,0.241],
    [30925,"urn:WaterMeter:MC0203J22010600005","2024-08-30T01:15:00",25.2,30.5054,0.248],
    [30926,"urn:WaterMeter:MC0203J22010600005","2024-08-30T01:30:00",25.1,30.530226,0.244],
    [30927,"urn:WaterMeter:MC0203J22010600005","2024-08-30T01:45:00",25.1,30.507689,0.235],
    [30928,"urn:WaterMeter:MC0203J22010600005","2024-08-30T02:00:00",25,30.48713,0.241],
    [30929,"urn:WaterMeter:MC0203J22010600005","2024-08-30T02:15:00",25,30.486004,0.238],
    [30930,"urn:WaterMeter:MC0203J22010600005","2024-08-30T02:30:00",24.899,30.460014,0.237],
    [30931,"urn:WaterMeter:MC0203J22010600005","2024-08-30T02:45:00",24.899,30.479797,0.241],
    [30932,"urn:WaterMeter:MC0203J22010600005","2024-08-30T03:00:00",24.7,30.451094,0.237],
    [30933,"urn:WaterMeter:MC0203J22010600005","2024-08-30T03:15:00",24.7,30.473204,0.246],
    [30934,"urn:WaterMeter:MC0203J22010600005","2024-08-30T03:30:00",24.7,30.460403,0.236],
    [30935,"urn:WaterMeter:MC0203J22010600005","2024-08-30T03:45:00",24.7,30.426268,0.258],
    [30936,"urn:WaterMeter:MC0203J22010600005","2024-08-30T04:00:00",24.7,30.43709,0.245],
    [30937,"urn:WaterMeter:MC0203J22010600005","2024-08-30T04:15:00",24.7,30.419247,0.265],
    [30938,"urn:WaterMeter:MC0203J22010600005","2024-08-30T04:30:00",24.7,30.445274,0.238],
    [30939,"urn:WaterMeter:MC0203J22010600005","2024-08-30T04:45:00",24.7,30.45148,0.231],
    [30940,"urn:WaterMeter:MC0203J22010600005","2024-08-30T05:00:00",24.7,30.432474,0.23],
    [30941,"urn:WaterMeter:MC0203J22010600005","2024-08-30T05:15:00",24.799,30.442947,0.23],
    [30942,"urn:WaterMeter:MC0203J22010600005","2024-08-30T05:30:00",24.899,30.555788,0.236],
    [30943,"urn:WaterMeter:MC0203J22010600005","2024-08-30T05:45:00",25,30.868862,0.247],
    [30944,"urn:WaterMeter:MC0203J22010600005","2024-08-30T06:00:00",25,31.496058,0.258],
    [30945,"urn:WaterMeter:MC0203J22010600005","2024-08-30T06:15:00",25.1,32.019722,0.278],
    [30946,"urn:WaterMeter:MC0203J22010600005","2024-08-30T06:30:00",25.1,32.34676,0.266],
    [30947,"urn:WaterMeter:MC0203J22010600005","2024-08-30T06:45:00",25.1,32.604324,0.26],
    [30948,"urn:WaterMeter:MC0203J22010600005","2024-08-30T07:00:00",25.2,32.823452,0.289],
    [30949,"urn:WaterMeter:MC0203J22010600005","2024-08-30T07:15:00",25.299,32.960766,0.293],
    [30950,"urn:WaterMeter:MC0203J22010600005","2024-08-30T07:30:00",25.299,33.1276,0.299],
    [30951,"urn:WaterMeter:MC0203J22010600005","2024-08-30T07:45:00",25.399,33.20945,0.294],
    [30952,"urn:WaterMeter:MC0203J22010600005","2024-08-30T08:00:00",25.5,33.349056,0.278],
    [30953,"urn:WaterMeter:MC0203J22010600005","2024-08-30T08:15:00",25.5,33.117905,0.273],
    [30954,"urn:WaterMeter:MC0203J22010600005","2024-08-30T08:30:00",25.6,32.69238,0.254],
    [30955,"urn:WaterMeter:MC0203J22010600005","2024-08-30T08:45:00",25.6,32.54265,0.263],
    [30956,"urn:WaterMeter:MC0203J22010600005","2024-08-30T09:00:00",25.6,32.455723,0.257],
    [30957,"urn:WaterMeter:MC0203J22010600005","2024-08-30T09:15:00",25.6,32.36732,0.25],
    [30958,"urn:WaterMeter:MC0203J22010600005","2024-08-30T09:30:00",25.6,32.349827,0.267],
    [30959,"urn:WaterMeter:MC0203J22010600005","2024-08-30T09:45:00",25.6,32.229614,0.239],
    [30960,"urn:WaterMeter:MC0203J22010600005","2024-08-30T10:00:00",25.6,32.189274,0.255],
    [30961,"urn:WaterMeter:MC0203J22010600005","2024-08-30T10:15:00",25.7,32.141174,0.255],
    [30962,"urn:WaterMeter:MC0203J22010600005","2024-08-30T10:30:00",25.799,32.131863,0.266],
    [30963,"urn:WaterMeter:MC0203J22010600005","2024-08-30T10:45:00",25.799,32.08454,0.277],
    [30964,"urn:WaterMeter:MC0203J22010600005","2024-08-30T11:00:00",25.899,32.031784,0.275],
    [30965,"urn:WaterMeter:MC0203J22010600005","2024-08-30T11:15:00",26,31.995323,0.257],
    [30966,"urn:WaterMeter:MC0203J22010600005","2024-08-30T11:30:00",26,31.932056,0.253],
    [30967,"urn:WaterMeter:MC0203J22010600005","2024-08-30T11:45:00",26.1,31.852188,0.253],
    [30968,"urn:WaterMeter:MC0203J22010600005","2024-08-30T12:00:00",26.2,31.777285,0.265],
    [30969,"urn:WaterMeter:MC0203J22010600005","2024-08-30T12:15:00",26.299,31.731163,0.256],
    [30970,"urn:WaterMeter:MC0203J22010600005","2024-08-30T12:30:00",26.5,31.672203,0.249],
    [30971,"urn:WaterMeter:MC0203J22010600005","2024-08-30T12:45:00",26.5,31.619797,0.246],
    [30972,"urn:WaterMeter:MC0203J22010600005","2024-08-30T13:00:00",26.6,31.589191,0.262],
    [30973,"urn:WaterMeter:MC0203J22010600005","2024-08-30T13:15:00",26.7,31.533335,0.255],
    [30974,"urn:WaterMeter:MC0203J22010600005","2024-08-30T13:30:00",26.799,31.523598,0.26],
    [30975,"urn:WaterMeter:MC0203J22010600005","2024-08-30T13:45:00",26.899,31.435972,0.245],
    [30976,"urn:WaterMeter:MC0203J22010600005","2024-08-30T14:00:00",26.899,31.393303,0.241],
    [30977,"urn:WaterMeter:MC0203J22010600005","2024-08-30T14:15:00",26.899,31.358004,0.257],
    [30978,"urn:WaterMeter:MC0203J22010600005","2024-08-30T14:30:00",26.899,31.320377,0.239],
    [30979,"urn:WaterMeter:MC0203J22010600005","2024-08-30T14:45:00",27,31.281199,0.25],
    [30980,"urn:WaterMeter:MC0203J22010600005","2024-08-30T15:00:00",26.899,31.212502,0.247],
    [30981,"urn:WaterMeter:MC0203J22010600005","2024-08-30T15:15:00",27,31.20552,0.254],
    [30982,"urn:WaterMeter:MC0203J22010600005","2024-08-30T15:30:00",26.899,31.16095,0.245],
    [30983,"urn:WaterMeter:MC0203J22010600005","2024-08-30T15:45:00",26.799,31.1113,0.232],
    [30984,"urn:WaterMeter:MC0203J22010600005","2024-08-30T16:00:00",26.799,31.11091,0.242],
    [30985,"urn:WaterMeter:MC0203J22010600005","2024-08-30T16:15:00",26.7,31.09462,0.242],
    [30986,"urn:WaterMeter:MC0203J22010600005","2024-08-30T16:30:00",26.7,31.04846,0.262],
    [30987,"urn:WaterMeter:MC0203J22010600005","2024-08-30T16:45:00",26.6,31.045357,0.24],
    [30988,"urn:WaterMeter:MC0203J22010600005","2024-08-30T17:00:00",26.6,31.040663,0.239],
    [30989,"urn:WaterMeter:MC0203J22010600005","2024-08-30T17:15:00",26.5,30.988722,0.251],
    [30990,"urn:WaterMeter:MC0203J22010600005","2024-08-30T17:30:00",26.399,30.952997,0.237],
    [30991,"urn:WaterMeter:MC0203J22010600005","2024-08-30T17:45:00",26.299,30.968552,0.246],
    [30992,"urn:WaterMeter:MC0203J22010600005","2024-08-30T18:00:00",26.2,30.955751,0.253],
    [30993,"urn:WaterMeter:MC0203J22010600005","2024-08-30T18:15:00",26.2,30.949932,0.237],
    [30994,"urn:WaterMeter:MC0203J22010600005","2024-08-30T18:30:00",26.2,30.908815,0.244],
    [30995,"urn:WaterMeter:MC0203J22010600005","2024-08-30T18:45:00",26.2,30.884727,0.256],
    [30996,"urn:WaterMeter:MC0203J22010600005","2024-08-30T19:00:00",26.2,30.890585,0.249],
    [30997,"urn:WaterMeter:MC0203J22010600005","2024-08-30T19:15:00",26.1,30.866884,0.238],
    [30998,"urn:WaterMeter:MC0203J22010600005","2024-08-30T19:30:00",26,30.866495,0.241],
    [30999,"urn:WaterMeter:MC0203J22010600005","2024-08-30T19:45:00",26,30.894424,0.238],
    [31000,"urn:WaterMeter:MC0203J22010600005","2024-08-30T20:00:00",25.899,30.845161,0.26],
    [31001,"urn:WaterMeter:MC0203J22010600005","2024-08-30T20:15:00",25.899,30.822313,0.234],
    [31002,"urn:WaterMeter:MC0203J22010600005","2024-08-30T20:30:00",25.899,30.83434,0.247],
    [31003,"urn:WaterMeter:MC0203J22010600005","2024-08-30T20:45:00",25.799,30.814167,0.241],
    [31004,"urn:WaterMeter:MC0203J22010600005","2024-08-30T21:00:00",25.799,30.78814,0.246],
    [31005,"urn:WaterMeter:MC0203J22010600005","2024-08-30T21:15:00",25.7,30.840157,0.24],
    [31006,"urn:WaterMeter:MC0203J22010600005","2024-08-30T21:30:00",25.7,30.79745,0.231],
    [31007,"urn:WaterMeter:MC0203J22010600005","2024-08-30T21:45:00",25.7,30.799002,0.242],
    [31008,"urn:WaterMeter:MC0203J22010600005","2024-08-30T22:00:00",25.6,30.778053,0.249],
    [31009,"urn:WaterMeter:MC0203J22010600005","2024-08-30T22:15:00",25.6,30.78814,0.257],
    [31010,"urn:WaterMeter:MC0203J22010600005","2024-08-30T22:30:00",25.6,30.796324,0.236],
    [31011,"urn:WaterMeter:MC0203J22010600005","2024-08-30T22:45:00",25.5,30.794773,0.235],
    [31012,"urn:WaterMeter:MC0203J22010600005","2024-08-30T23:00:00",25.5,30.797836,0.234],
    [31013,"urn:WaterMeter:MC0203J22010600005","2024-08-30T23:15:00",25.5,30.76374,0.24],
    [31014,"urn:WaterMeter:MC0203J22010600005","2024-08-30T23:30:00",25.5,30.740427,0.25],
    [31015,"urn:WaterMeter:MC0203J22010600005","2024-08-30T23:45:00",25.399,30.71987,0.236],
    [31016,"urn:WaterMeter:MC0203J22010600005","2024-08-31T00:00:00",25.299,30.72142,0.243],
    [31017,"urn:WaterMeter:MC0203J22010600005","2024-08-31T00:15:00",25.299,30.742018,0.247],
    [31018,"urn:WaterMeter:MC0203J22010600005","2024-08-31T00:30:00",25.299,30.677628,0.226],
    [31019,"urn:WaterMeter:MC0203J22010600005","2024-08-31T00:45:00",25.299,30.71056,0.233],
    [31020,"urn:WaterMeter:MC0203J22010600005","2024-08-31T01:00:00",25.299,30.695082,0.234],
    [31021,"urn:WaterMeter:MC0203J22010600005","2024-08-31T01:15:00",25.2,30.72918,0.236],
    [31022,"urn:WaterMeter:MC0203J22010600005","2024-08-31T01:30:00",25.2,30.71987,0.245],
    [31023,"urn:WaterMeter:MC0203J22010600005","2024-08-31T01:45:00",25.1,30.680342,0.253],
    [31024,"urn:WaterMeter:MC0203J22010600005","2024-08-31T02:00:00",25.1,30.664438,0.232],
    [31025,"urn:WaterMeter:MC0203J22010600005","2024-08-31T02:15:00",25.1,30.688488,0.234],
    [31026,"urn:WaterMeter:MC0203J22010600005","2024-08-31T02:30:00",25,30.64229,0.235],
    [31027,"urn:WaterMeter:MC0203J22010600005","2024-08-31T02:45:00",25,30.641165,0.234],
    [31028,"urn:WaterMeter:MC0203J22010600005","2024-08-31T03:00:00",24.899,30.657455,0.244],
    [31029,"urn:WaterMeter:MC0203J22010600005","2024-08-31T03:15:00",24.799,30.687712,0.232],
    [31030,"urn:WaterMeter:MC0203J22010600005","2024-08-31T03:30:00",24.799,30.664825,0.241],
    [31031,"urn:WaterMeter:MC0203J22010600005","2024-08-31T03:45:00",24.799,30.640388,0.232],
    [31032,"urn:WaterMeter:MC0203J22010600005","2024-08-31T04:00:00",24.7,30.602762,0.238],
    [31033,"urn:WaterMeter:MC0203J22010600005","2024-08-31T04:15:00",24.7,30.639225,0.242],
    [31034,"urn:WaterMeter:MC0203J22010600005","2024-08-31T04:30:00",24.7,30.624872,0.23],
    [31035,"urn:WaterMeter:MC0203J22010600005","2024-08-31T04:45:00",24.6,30.631428,0.231],
    [31036,"urn:WaterMeter:MC0203J22010600005","2024-08-31T05:00:00",24.5,30.620605,0.234],
    [31037,"urn:WaterMeter:MC0203J22010600005","2024-08-31T05:15:00",24.5,30.585655,0.238],
    [31038,"urn:WaterMeter:MC0203J22010600005","2024-08-31T05:30:00",24.399,30.563972,0.245],
    [31039,"urn:WaterMeter:MC0203J22010600005","2024-08-31T05:45:00",24.299,30.59225,0.266],
    [31040,"urn:WaterMeter:MC0203J22010600005","2024-08-31T06:00:00",24.299,30.555788,0.247],
    [31041,"urn:WaterMeter:MC0203J22010600005","2024-08-31T06:15:00",24.2,30.569016,0.247],
    [31042,"urn:WaterMeter:MC0203J22010600005","2024-08-31T06:30:00",24.1,30.564709,0.229],
    [31043,"urn:WaterMeter:MC0203J22010600005","2024-08-31T06:45:00",24,30.554625,0.234],
    [31044,"urn:WaterMeter:MC0203J22010600005","2024-08-31T07:00:00",24.1,30.546478,0.241],
    [31045,"urn:WaterMeter:MC0203J22010600005","2024-08-31T07:15:00",24.1,30.54031,0.243],
    [31046,"urn:WaterMeter:MC0203J22010600005","2024-08-31T07:30:00",24.1,30.495663,0.24],
    [31047,"urn:WaterMeter:MC0203J22010600005","2024-08-31T07:45:00",24.2,30.505787,0.234],
    [31048,"urn:WaterMeter:MC0203J22010600005","2024-08-31T08:00:00",24.299,30.437866,0.232],
    [31049,"urn:WaterMeter:MC0203J22010600005","2024-08-31T08:15:00",24.5,30.470488,0.226],
    [31050,"urn:WaterMeter:MC0203J22010600005","2024-08-31T08:30:00",24.6,30.398687,0.227],
    [31051,"urn:WaterMeter:MC0203J22010600005","2024-08-31T08:45:00",24.799,30.317656,0.228],
    [31052,"urn:WaterMeter:MC0203J22010600005","2024-08-31T09:00:00",24.899,30.341278,0.227],
    [31053,"urn:WaterMeter:MC0203J22010600005","2024-08-31T09:15:00",25,30.290115,0.223],
    [31054,"urn:WaterMeter:MC0203J22010600005","2024-08-31T09:30:00",25.1,30.243528,0.224],
    [31055,"urn:WaterMeter:MC0203J22010600005","2024-08-31T09:45:00",25.299,30.201674,0.235],
    [31056,"urn:WaterMeter:MC0203J22010600005","2024-08-31T10:00:00",25.399,30.171417,0.228],
    [31057,"urn:WaterMeter:MC0203J22010600005","2024-08-31T10:15:00",25.6,30.160168,0.231],
    [31058,"urn:WaterMeter:MC0203J22010600005","2024-08-31T10:30:00",25.7,30.105087,0.244],
    [31059,"urn:WaterMeter:MC0203J22010600005","2024-08-31T10:45:00",25.799,30.083364,0.231],
    [31060,"urn:WaterMeter:MC0203J22010600005","2024-08-31T11:00:00",25.899,30.030958,0.227],
    [31061,"urn:WaterMeter:MC0203J22010600005","2024-08-31T11:15:00",26,29.981735,0.219],
    [31062,"urn:WaterMeter:MC0203J22010600005","2024-08-31T11:30:00",26.1,29.956133,0.225],
    [31063,"urn:WaterMeter:MC0203J22010600005","2024-08-31T11:45:00",26.2,29.941393,0.235],
    [31064,"urn:WaterMeter:MC0203J22010600005","2024-08-31T12:00:00",26.299,29.859547,0.234],
    [31065,"urn:WaterMeter:MC0203J22010600005","2024-08-31T12:15:00",26.299,29.822308,0.225],
    [31066,"urn:WaterMeter:MC0203J22010600005","2024-08-31T12:30:00",26.399,29.761795,0.212],
    [31067,"urn:WaterMeter:MC0203J22010600005","2024-08-31T12:45:00",26.399,29.746666,0.231],
    [31068,"urn:WaterMeter:MC0203J22010600005","2024-08-31T13:00:00",26.5,29.715246,0.222],
    [31069,"urn:WaterMeter:MC0203J22010600005","2024-08-31T13:15:00",26.7,29.617496,0.218],
    [31070,"urn:WaterMeter:MC0203J22010600005","2024-08-31T13:30:00",26.799,29.624052,0.248],
    [31071,"urn:WaterMeter:MC0203J22010600005","2024-08-31T13:45:00",26.899,29.538752,0.22],
    [31072,"urn:WaterMeter:MC0203J22010600005","2024-08-31T14:00:00",26.899,29.508846,0.219],
    [31073,"urn:WaterMeter:MC0203J22010600005","2024-08-31T14:15:00",27,29.468117,0.233],
    [31074,"urn:WaterMeter:MC0203J22010600005","2024-08-31T14:30:00",27,29.420404,0.225],
    [31075,"urn:WaterMeter:MC0203J22010600005","2024-08-31T14:45:00",27.1,29.364973,0.221],
    [31076,"urn:WaterMeter:MC0203J22010600005","2024-08-31T15:00:00",27.1,29.287394,0.209],
    [31077,"urn:WaterMeter:MC0203J22010600005","2024-08-31T15:15:00",27,29.253996,0.209],
    [31078,"urn:WaterMeter:MC0203J22010600005","2024-08-31T15:30:00",27,29.204771,0.221],
    [31079,"urn:WaterMeter:MC0203J22010600005","2024-08-31T15:45:00",27,29.171412,0.216],
    [31080,"urn:WaterMeter:MC0203J22010600005","2024-08-31T16:00:00",26.899,29.142706,0.218],
    [31081,"urn:WaterMeter:MC0203J22010600005","2024-08-31T16:15:00",26.899,29.096159,0.215],
    [31082,"urn:WaterMeter:MC0203J22010600005","2024-08-31T16:30:00",26.899,29.085297,0.214],
    [31083,"urn:WaterMeter:MC0203J22010600005","2024-08-31T16:45:00",26.799,29.067453,0.223],
    [31084,"urn:WaterMeter:MC0203J22010600005","2024-08-31T17:00:00",26.799,29.05504,0.214],
    [31085,"urn:WaterMeter:MC0203J22010600005","2024-08-31T17:15:00",26.7,29.023582,0.208],
    [31086,"urn:WaterMeter:MC0203J22010600005","2024-08-31T17:30:00",26.6,29.012373,0.222],
    [31087,"urn:WaterMeter:MC0203J22010600005","2024-08-31T17:45:00",26.5,28.985994,0.224],
    [31088,"urn:WaterMeter:MC0203J22010600005","2024-08-31T18:00:00",26.5,28.953024,0.204],
    [31089,"urn:WaterMeter:MC0203J22010600005","2024-08-31T18:15:00",26.399,28.947594,0.203],
    [31090,"urn:WaterMeter:MC0203J22010600005","2024-08-31T18:30:00",26.399,28.959618,0.211],
    [31091,"urn:WaterMeter:MC0203J22010600005","2024-08-31T18:45:00",26.299,28.907213,0.21],
    [31092,"urn:WaterMeter:MC0203J22010600005","2024-08-31T19:00:00",26.2,28.902597,0.217],
    [31093,"urn:WaterMeter:MC0203J22010600005","2024-08-31T19:15:00",26.2,28.91691,0.239],
    [31094,"urn:WaterMeter:MC0203J22010600005","2024-08-31T19:30:00",26.1,28.899881,0.216],
    [31095,"urn:WaterMeter:MC0203J22010600005","2024-08-31T19:45:00",26.1,28.901432,0.2],
    [31096,"urn:WaterMeter:MC0203J22010600005","2024-08-31T20:00:00",26.1,28.89674,0.206],
    [31097,"urn:WaterMeter:MC0203J22010600005","2024-08-31T20:15:00",26.1,28.887041,0.209],
    [31098,"urn:WaterMeter:MC0203J22010600005","2024-08-31T20:30:00",26,28.85023,0.221],
    [31099,"urn:WaterMeter:MC0203J22010600005","2024-08-31T20:45:00",26,28.865358,0.21],
    [31100,"urn:WaterMeter:MC0203J22010600005","2024-08-31T21:00:00",26,28.847864,0.204],
    [31101,"urn:WaterMeter:MC0203J22010600005","2024-08-31T21:15:00",25.899,28.828081,0.217],
    [31102,"urn:WaterMeter:MC0203J22010600005","2024-08-31T21:30:00",25.899,28.796312,0.204],
    [31103,"urn:WaterMeter:MC0203J22010600005","2024-08-31T21:45:00",25.799,28.83933,0.206],
    [31104,"urn:WaterMeter:MC0203J22010600005","2024-08-31T22:00:00",25.799,28.791231,0.204],
    [31105,"urn:WaterMeter:MC0203J22010600005","2024-08-31T22:15:00",25.7,28.786613,0.205],
    [31106,"urn:WaterMeter:MC0203J22010600005","2024-08-31T22:30:00",25.7,28.779633,0.209],
    [31107,"urn:WaterMeter:MC0203J22010600005","2024-08-31T22:45:00",25.6,28.749725,0.21],
    [31108,"urn:WaterMeter:MC0203J22010600005","2024-08-31T23:00:00",25.6,28.797476,0.205],
    [31109,"urn:WaterMeter:MC0203J22010600005","2024-08-31T23:15:00",25.5,28.750889,0.21],
    [31110,"urn:WaterMeter:MC0203J22010600005","2024-08-31T23:30:00",25.399,28.75244,0.217],
    [31111,"urn:WaterMeter:MC0203J22010600005","2024-08-31T23:45:00",25.299,28.731493,0.206],
    [31112,"urn:WaterMeter:MC0203J22010600005","2024-09-01T00:00:00",25.299,28.721834,0.221],
    [31113,"urn:WaterMeter:MC0203J22010600005","2024-09-01T00:15:00",25.2,28.757133,0.212],
    [31114,"urn:WaterMeter:MC0203J22010600005","2024-09-01T00:30:00",25.1,28.74705,0.211],
    [31115,"urn:WaterMeter:MC0203J22010600005","2024-09-01T00:45:00",25,28.71171,0.203],
    [31116,"urn:WaterMeter:MC0203J22010600005","2024-09-01T01:00:00",25,28.746273,0.215],
    [31117,"urn:WaterMeter:MC0203J22010600005","2024-09-01T01:15:00",24.899,28.756746,0.22],
    [31118,"urn:WaterMeter:MC0203J22010600005","2024-09-01T01:30:00",24.799,28.70632,0.221],
    [31119,"urn:WaterMeter:MC0203J22010600005","2024-09-01T01:45:00",24.799,28.722572,0.221],
    [31120,"urn:WaterMeter:MC0203J22010600005","2024-09-01T02:00:00",24.7,28.691929,0.237],
    [31121,"urn:WaterMeter:MC0203J22010600005","2024-09-01T02:15:00",24.6,28.727266,0.226],
    [31122,"urn:WaterMeter:MC0203J22010600005","2024-09-01T02:30:00",24.6,28.69662,0.21],
    [31123,"urn:WaterMeter:MC0203J22010600005","2024-09-01T02:45:00",24.5,28.664387,0.209],
    [31124,"urn:WaterMeter:MC0203J22010600005","2024-09-01T03:00:00",24.399,28.705544,0.199],
    [31125,"urn:WaterMeter:MC0203J22010600005","2024-09-01T03:15:00",24.399,28.70434,0.202],
    [31126,"urn:WaterMeter:MC0203J22010600005","2024-09-01T03:30:00",24.299,28.700113,0.208],
    [31127,"urn:WaterMeter:MC0203J22010600005","2024-09-01T03:45:00",24.299,28.68417,0.215],
    [31128,"urn:WaterMeter:MC0203J22010600005","2024-09-01T04:00:00",24.2,28.65628,0.207],
    [31129,"urn:WaterMeter:MC0203J22010600005","2024-09-01T04:15:00",24.2,28.71718,0.208],
    [31130,"urn:WaterMeter:MC0203J22010600005","2024-09-01T04:30:00",24.1,28.641151,0.206],
    [31131,"urn:WaterMeter:MC0203J22010600005","2024-09-01T04:45:00",24.1,28.665163,0.209],
    [31132,"urn:WaterMeter:MC0203J22010600005","2024-09-01T05:00:00",24,28.624472,0.215],
    [31133,"urn:WaterMeter:MC0203J22010600005","2024-09-01T05:15:00",24,28.626373,0.214],
    [31134,"urn:WaterMeter:MC0203J22010600005","2024-09-01T05:30:00",24,28.61551,0.224],
    [31135,"urn:WaterMeter:MC0203J22010600005","2024-09-01T05:45:00",23.899,28.671757,0.209],
    [31136,"urn:WaterMeter:MC0203J22010600005","2024-09-01T06:00:00",23.899,28.638824,0.208],
    [31137,"urn:WaterMeter:MC0203J22010600005","2024-09-01T06:15:00",23.899,28.616287,0.212],
    [31138,"urn:WaterMeter:MC0203J22010600005","2024-09-01T06:30:00",23.899,28.598095,0.207],
    [31139,"urn:WaterMeter:MC0203J22010600005","2024-09-01T06:45:00",23.899,28.607367,0.215],
    [31140,"urn:WaterMeter:MC0203J22010600005","2024-09-01T07:00:00",24,28.622145,0.226],
    [31141,"urn:WaterMeter:MC0203J22010600005","2024-09-01T07:15:00",24,28.549995,0.201],
    [31142,"urn:WaterMeter:MC0203J22010600005","2024-09-01T07:30:00",24.1,28.53448,0.204],
    [31143,"urn:WaterMeter:MC0203J22010600005","2024-09-01T07:45:00",24.2,28.544952,0.206],
    [31144,"urn:WaterMeter:MC0203J22010600005","2024-09-01T08:00:00",24.299,28.497591,0.211],
    [31145,"urn:WaterMeter:MC0203J22010600005","2024-09-01T08:15:00",24.399,28.483664,0.199],
    [31146,"urn:WaterMeter:MC0203J22010600005","2024-09-01T08:30:00",24.6,28.463106,0.212],
    [31147,"urn:WaterMeter:MC0203J22010600005","2024-09-01T08:45:00",24.7,28.4344,0.195],
    [31148,"urn:WaterMeter:MC0203J22010600005","2024-09-01T09:00:00",24.799,28.39018,0.202],
    [31149,"urn:WaterMeter:MC0203J22010600005","2024-09-01T09:15:00",25,28.366907,0.211],
    [31150,"urn:WaterMeter:MC0203J22010600005","2024-09-01T09:30:00",25.2,28.319582,0.21],
    [31151,"urn:WaterMeter:MC0203J22010600005","2024-09-01T09:45:00",25.299,28.260235,0.2],
    [31152,"urn:WaterMeter:MC0203J22010600005","2024-09-01T10:00:00",25.5,28.23696,0.206],
    [31153,"urn:WaterMeter:MC0203J22010600005","2024-09-01T10:15:00",25.7,28.139986,0.205],
    [31154,"urn:WaterMeter:MC0203J22010600005","2024-09-01T10:30:00",25.799,28.0818,0.198],
    [31155,"urn:WaterMeter:MC0203J22010600005","2024-09-01T10:45:00",26,28.036028,0.197],
    [31156,"urn:WaterMeter:MC0203J22010600005","2024-09-01T11:00:00",26.2,27.973925,0.197],
    [31157,"urn:WaterMeter:MC0203J22010600005","2024-09-01T11:15:00",26.399,27.922762,0.197],
    [31158,"urn:WaterMeter:MC0203J22010600005","2024-09-01T11:30:00",26.6,27.83079,0.194],
    [31159,"urn:WaterMeter:MC0203J22010600005","2024-09-01T11:45:00",26.7,27.81954,0.199],
    [31160,"urn:WaterMeter:MC0203J22010600005","2024-09-01T12:00:00",26.899,27.7548,0.186],
    [31161,"urn:WaterMeter:MC0203J22010600005","2024-09-01T12:15:00",27.1,27.639206,0.189],
    [31162,"urn:WaterMeter:MC0203J22010600005","2024-09-01T12:30:00",27.299,27.643473,0.19],
    [31163,"urn:WaterMeter:MC0203J22010600005","2024-09-01T12:45:00",27.5,27.55697,0.182],
    [31164,"urn:WaterMeter:MC0203J22010600005","2024-09-01T13:00:00",27.6,27.47978,0.193],
    [31165,"urn:WaterMeter:MC0203J22010600005","2024-09-01T13:15:00",27.7,27.427412,0.185],
    [31166,"urn:WaterMeter:MC0203J22010600005","2024-09-01T13:30:00",27.799,27.386295,0.195],
    [31167,"urn:WaterMeter:MC0203J22010600005","2024-09-01T13:45:00",27.899,27.303286,0.186],
    [31168,"urn:WaterMeter:MC0203J22010600005","2024-09-01T14:00:00",28,27.217909,0.204],
    [31169,"urn:WaterMeter:MC0203J22010600005","2024-09-01T14:15:00",28,27.20631,0.198],
    [31170,"urn:WaterMeter:MC0203J22010600005","2024-09-01T14:30:00",28.1,27.1361,0.191],
    [31171,"urn:WaterMeter:MC0203J22010600005","2024-09-01T14:45:00",28,27.036371,0.191],
    [31172,"urn:WaterMeter:MC0203J22010600005","2024-09-01T15:00:00",28,27.013523,0.184],
    [31173,"urn:WaterMeter:MC0203J22010600005","2024-09-01T15:15:00",27.899,26.977798,0.207],
    [31174,"urn:WaterMeter:MC0203J22010600005","2024-09-01T15:30:00",27.799,26.948317,0.191],
    [31175,"urn:WaterMeter:MC0203J22010600005","2024-09-01T15:45:00",27.799,26.901808,0.186],
    [31176,"urn:WaterMeter:MC0203J22010600005","2024-09-01T16:00:00",27.7,26.875818,0.18],
    [31177,"urn:WaterMeter:MC0203J22010600005","2024-09-01T16:15:00",27.6,26.850954,0.187],
    [31178,"urn:WaterMeter:MC0203J22010600005","2024-09-01T16:30:00",27.5,26.820349,0.188],
    [31179,"urn:WaterMeter:MC0203J22010600005","2024-09-01T16:45:00",27.399,26.818022,0.187],
    [31180,"urn:WaterMeter:MC0203J22010600005","2024-09-01T17:00:00",27.299,26.812553,0.187],
    [31181,"urn:WaterMeter:MC0203J22010600005","2024-09-01T17:15:00",27.299,26.787766,0.183],
    [31182,"urn:WaterMeter:MC0203J22010600005","2024-09-01T17:30:00",27.2,26.779232,0.197],
    [31183,"urn:WaterMeter:MC0203J22010600005","2024-09-01T17:45:00",27.2,26.7482,0.188],
    [31184,"urn:WaterMeter:MC0203J22010600005","2024-09-01T18:00:00",27.2,26.712862,0.176],
    [31185,"urn:WaterMeter:MC0203J22010600005","2024-09-01T18:15:00",27.1,26.690016,0.179],
    [31186,"urn:WaterMeter:MC0203J22010600005","2024-09-01T18:30:00",27.1,26.68148,0.19],
    [31187,"urn:WaterMeter:MC0203J22010600005","2024-09-01T18:45:00",27,26.640364,0.182],
    [31188,"urn:WaterMeter:MC0203J22010600005","2024-09-01T19:00:00",26.899,26.689627,0.182],
    [31189,"urn:WaterMeter:MC0203J22010600005","2024-09-01T19:15:00",26.899,26.656229,0.184],
    [31190,"urn:WaterMeter:MC0203J22010600005","2024-09-01T19:30:00",26.799,26.599207,0.181],
    [31191,"urn:WaterMeter:MC0203J22010600005","2024-09-01T19:45:00",26.7,26.64847,0.204],
    [31192,"urn:WaterMeter:MC0203J22010600005","2024-09-01T20:00:00",26.7,26.64692,0.193],
    [31193,"urn:WaterMeter:MC0203J22010600005","2024-09-01T20:15:00",26.6,26.6392,0.193],
    [31194,"urn:WaterMeter:MC0203J22010600005","2024-09-01T20:30:00",26.6,26.614761,0.185],
    [31195,"urn:WaterMeter:MC0203J22010600005","2024-09-01T20:45:00",26.5,26.612823,0.18],
    [31196,"urn:WaterMeter:MC0203J22010600005","2024-09-01T21:00:00",26.5,26.622133,0.178],
    [31197,"urn:WaterMeter:MC0203J22010600005","2024-09-01T21:15:00",26.399,26.584118,0.179],
    [31198,"urn:WaterMeter:MC0203J22010600005","2024-09-01T21:30:00",26.399,26.612047,0.189],
    [31199,"urn:WaterMeter:MC0203J22010600005","2024-09-01T21:45:00",26.299,26.600798,0.19],
    [31200,"urn:WaterMeter:MC0203J22010600005","2024-09-01T22:00:00",26.2,26.589123,0.195],
    [31201,"urn:WaterMeter:MC0203J22010600005","2024-09-01T22:15:00",26.2,26.601574,0.177],
    [31202,"urn:WaterMeter:MC0203J22010600005","2024-09-01T22:30:00",26.2,26.592651,0.188],
    [31203,"urn:WaterMeter:MC0203J22010600005","2024-09-01T22:45:00",26.1,26.579813,0.177],
    [31204,"urn:WaterMeter:MC0203J22010600005","2024-09-01T23:00:00",26.1,26.600798,0.181],
    [31205,"urn:WaterMeter:MC0203J22010600005","2024-09-01T23:15:00",26,26.576748,0.182],
    [31206,"urn:WaterMeter:MC0203J22010600005","2024-09-01T23:30:00",26,26.553474,0.174],
    [31207,"urn:WaterMeter:MC0203J22010600005","2024-09-01T23:45:00",26,26.551497,0.176],
    [31208,"urn:WaterMeter:MC0203J22010600005","2024-09-02T00:00:00",25.899,26.57826,0.184],
    [31209,"urn:WaterMeter:MC0203J22010600005","2024-09-02T00:15:00",25.899,26.542225,0.183],
    [31210,"urn:WaterMeter:MC0203J22010600005","2024-09-02T00:30:00",25.899,26.562008,0.188],
    [31211,"urn:WaterMeter:MC0203J22010600005","2024-09-02T00:45:00",25.899,26.539858,0.192],
    [31212,"urn:WaterMeter:MC0203J22010600005","2024-09-02T01:00:00",25.899,26.571318,0.178],
    [31213,"urn:WaterMeter:MC0203J22010600005","2024-09-02T01:15:00",25.799,26.517399,0.172],
    [31214,"urn:WaterMeter:MC0203J22010600005","2024-09-02T01:30:00",25.7,26.541798,0.18],
    [31215,"urn:WaterMeter:MC0203J22010600005","2024-09-02T01:45:00",25.7,26.56003,0.19],
    [31216,"urn:WaterMeter:MC0203J22010600005","2024-09-02T02:00:00",25.6,26.53757,0.186],
    [31217,"urn:WaterMeter:MC0203J22010600005","2024-09-02T02:15:00",25.5,26.503435,0.181],
    [31218,"urn:WaterMeter:MC0203J22010600005","2024-09-02T02:30:00",25.5,26.547655,0.188],
    [31219,"urn:WaterMeter:MC0203J22010600005","2024-09-02T02:45:00",25.399,26.530937,0.183],
    [31220,"urn:WaterMeter:MC0203J22010600005","2024-09-02T03:00:00",25.299,26.549595,0.179],
    [31221,"urn:WaterMeter:MC0203J22010600005","2024-09-02T03:15:00",25.299,26.540247,0.186],
    [31222,"urn:WaterMeter:MC0203J22010600005","2024-09-02T03:30:00",25.2,26.508478,0.186],
    [31223,"urn:WaterMeter:MC0203J22010600005","2024-09-02T03:45:00",25.2,26.476282,0.186],
    [31224,"urn:WaterMeter:MC0203J22010600005","2024-09-02T04:00:00",25.1,26.501068,0.182],
    [31225,"urn:WaterMeter:MC0203J22010600005","2024-09-02T04:15:00",25.1,26.525158,0.191],
    [31226,"urn:WaterMeter:MC0203J22010600005","2024-09-02T04:30:00",25.1,26.524769,0.179],
    [31227,"urn:WaterMeter:MC0203J22010600005","2024-09-02T04:45:00",25.1,26.462667,0.183],
    [31228,"urn:WaterMeter:MC0203J22010600005","2024-09-02T05:00:00",25,26.47124,0.19],
    [31229,"urn:WaterMeter:MC0203J22010600005","2024-09-02T05:15:00",25.1,26.513908,0.188],
    [31230,"urn:WaterMeter:MC0203J22010600005","2024-09-02T05:30:00",25.2,26.47473,0.187],
    [31231,"urn:WaterMeter:MC0203J22010600005","2024-09-02T05:45:00",25.2,26.492147,0.181],
    [31232,"urn:WaterMeter:MC0203J22010600005","2024-09-02T06:00:00",25.2,26.556965,0.203],
    [31233,"urn:WaterMeter:MC0203J22010600005","2024-09-02T06:15:00",25.299,28.04844,0.196],
    [31234,"urn:WaterMeter:MC0203J22010600005","2024-09-02T06:30:00",25.299,30.08061,0.229],
    [31235,"urn:WaterMeter:MC0203J22010600005","2024-09-02T06:45:00",25.299,31.435583,0.237],
    [31236,"urn:WaterMeter:MC0203J22010600005","2024-09-02T07:00:00",25.399,32.062042,0.245],
    [31237,"urn:WaterMeter:MC0203J22010600005","2024-09-02T07:15:00",25.399,32.458477,0.255],
    [31238,"urn:WaterMeter:MC0203J22010600005","2024-09-02T07:30:00",25.5,32.695095,0.257],
    [31239,"urn:WaterMeter:MC0203J22010600005","2024-09-02T07:45:00",25.6,33.009644,0.257],
    [31240,"urn:WaterMeter:MC0203J22010600005","2024-09-02T08:00:00",25.6,33.189667,0.256],
    [31241,"urn:WaterMeter:MC0203J22010600005","2024-09-02T08:15:00",25.7,32.7257,0.255],
    [31242,"urn:WaterMeter:MC0203J22010600005","2024-09-02T08:30:00",25.799,32.393696,0.262],
    [31243,"urn:WaterMeter:MC0203J22010600005","2024-09-02T08:45:00",25.899,32.21061,0.254],
    [31244,"urn:WaterMeter:MC0203J22010600005","2024-09-02T09:00:00",25.899,32.15863,0.248],
    [31245,"urn:WaterMeter:MC0203J22010600005","2024-09-02T09:15:00",25.899,32.039894,0.255],
    [31246,"urn:WaterMeter:MC0203J22010600005","2024-09-02T09:30:00",26,32.01317,0.256],
    [31247,"urn:WaterMeter:MC0203J22010600005","2024-09-02T09:45:00",26.1,31.928604,0.24],
    [31248,"urn:WaterMeter:MC0203J22010600005","2024-09-02T10:00:00",26.1,31.84443,0.241],
    [31249,"urn:WaterMeter:MC0203J22010600005","2024-09-02T10:15:00",26.2,31.835081,0.264],
    [31250,"urn:WaterMeter:MC0203J22010600005","2024-09-02T10:30:00",26.299,31.783918,0.238],
    [31251,"urn:WaterMeter:MC0203J22010600005","2024-09-02T10:45:00",26.299,31.704786,0.244],
    [31252,"urn:WaterMeter:MC0203J22010600005","2024-09-02T11:00:00",26.299,31.697027,0.244],
    [31253,"urn:WaterMeter:MC0203J22010600005","2024-09-02T11:15:00",26.399,31.632986,0.239],
    [31254,"urn:WaterMeter:MC0203J22010600005","2024-09-02T11:30:00",26.5,31.584497,0.231],
    [31255,"urn:WaterMeter:MC0203J22010600005","2024-09-02T11:45:00",26.6,31.539541,0.243],
    [31256,"urn:WaterMeter:MC0203J22010600005","2024-09-02T12:00:00",26.7,31.494932,0.256],
    [31257,"urn:WaterMeter:MC0203J22010600005","2024-09-02T12:15:00",26.899,31.437136,0.239],
    [31258,"urn:WaterMeter:MC0203J22010600005","2024-09-02T12:30:00",27.1,31.39175,0.242],
    [31259,"urn:WaterMeter:MC0203J22010600005","2024-09-02T12:45:00",27.299,31.346754,0.23],
    [31260,"urn:WaterMeter:MC0203J22010600005","2024-09-02T13:00:00",27.399,31.26258,0.242],
    [31261,"urn:WaterMeter:MC0203J22010600005","2024-09-02T13:15:00",27.399,31.229996,0.235],
    [31262,"urn:WaterMeter:MC0203J22010600005","2024-09-02T13:30:00",27.399,31.169872,0.231],
    [31263,"urn:WaterMeter:MC0203J22010600005","2024-09-02T13:45:00",27.399,31.161726,0.236],
    [31264,"urn:WaterMeter:MC0203J22010600005","2024-09-02T14:00:00",27.299,31.091904,0.23],
    [31265,"urn:WaterMeter:MC0203J22010600005","2024-09-02T14:15:00",27.299,31.084534,0.224],
    [31266,"urn:WaterMeter:MC0203J22010600005","2024-09-02T14:30:00",27.2,31.073673,0.232],
    [31267,"urn:WaterMeter:MC0203J22010600005","2024-09-02T14:45:00",27.2,31.07984,0.229],
    [31268,"urn:WaterMeter:MC0203J22010600005","2024-09-02T15:00:00",27.1,31.028288,0.238],
    [31269,"urn:WaterMeter:MC0203J22010600005","2024-09-02T15:15:00",27.1,30.978638,0.236],
    [31270,"urn:WaterMeter:MC0203J22010600005","2024-09-02T15:30:00",27.1,30.970879,0.229],
    [31271,"urn:WaterMeter:MC0203J22010600005","2024-09-02T15:45:00",27.2,30.927435,0.225],
    [31272,"urn:WaterMeter:MC0203J22010600005","2024-09-02T16:00:00",27.299,30.89679,0.228],
    [31273,"urn:WaterMeter:MC0203J22010600005","2024-09-02T16:15:00",27.299,30.85063,0.239],
    [31274,"urn:WaterMeter:MC0203J22010600005","2024-09-02T16:30:00",27.299,30.845936,0.218],
    [31275,"urn:WaterMeter:MC0203J22010600005","2024-09-02T16:45:00",27.2,30.80292,0.221],
    [31276,"urn:WaterMeter:MC0203J22010600005","2024-09-02T17:00:00",27.2,30.783136,0.233],
    [31277,"urn:WaterMeter:MC0203J22010600005","2024-09-02T17:15:00",27.2,30.785076,0.243],
    [31278,"urn:WaterMeter:MC0203J22010600005","2024-09-02T17:30:00",27.1,30.755594,0.226],
    [31279,"urn:WaterMeter:MC0203J22010600005","2024-09-02T17:45:00",27.1,30.747799,0.233],
    [31280,"urn:WaterMeter:MC0203J22010600005","2024-09-02T18:00:00",27.1,30.722624,0.229],
    [31281,"urn:WaterMeter:MC0203J22010600005","2024-09-02T18:15:00",27,30.71056,0.244],
    [31282,"urn:WaterMeter:MC0203J22010600005","2024-09-02T18:30:00",26.899,30.675688,0.238],
    [31283,"urn:WaterMeter:MC0203J22010600005","2024-09-02T18:45:00",26.799,30.721033,0.231],
    [31284,"urn:WaterMeter:MC0203J22010600005","2024-09-02T19:00:00",26.799,30.615952,0.228],
    [31285,"urn:WaterMeter:MC0203J22010600005","2024-09-02T19:15:00",26.7,30.664438,0.225],
    [31286,"urn:WaterMeter:MC0203J22010600005","2024-09-02T19:30:00",26.7,30.659395,0.226],
    [31287,"urn:WaterMeter:MC0203J22010600005","2024-09-02T19:45:00",26.6,30.619055,0.227],
    [31288,"urn:WaterMeter:MC0203J22010600005","2024-09-02T20:00:00",26.6,30.639612,0.241],
    [31289,"urn:WaterMeter:MC0203J22010600005","2024-09-02T20:15:00",26.5,30.612034,0.244],
    [31290,"urn:WaterMeter:MC0203J22010600005","2024-09-02T20:30:00",26.5,30.590736,0.258],
    [31291,"urn:WaterMeter:MC0203J22010600005","2024-09-02T20:45:00",26.399,30.563196,0.221],
    [31292,"urn:WaterMeter:MC0203J22010600005","2024-09-02T21:00:00",26.399,30.559317,0.225],
    [31293,"urn:WaterMeter:MC0203J22010600005","2024-09-02T21:15:00",26.399,30.600435,0.226],
    [31294,"urn:WaterMeter:MC0203J22010600005","2024-09-02T21:30:00",26.299,30.567076,0.223],
    [31295,"urn:WaterMeter:MC0203J22010600005","2024-09-02T21:45:00",26.299,30.56824,0.229],
    [31296,"urn:WaterMeter:MC0203J22010600005","2024-09-02T22:00:00",26.2,30.570566,0.236],
    [31297,"urn:WaterMeter:MC0203J22010600005","2024-09-02T22:15:00",26.2,30.548069,0.225],
    [31298,"urn:WaterMeter:MC0203J22010600005","2024-09-02T22:30:00",26.2,30.51083,0.221],
    [31299,"urn:WaterMeter:MC0203J22010600005","2024-09-02T22:45:00",26.2,30.52169,0.228],
    [31300,"urn:WaterMeter:MC0203J22010600005","2024-09-02T23:00:00",26.1,30.530226,0.226],
    [31301,"urn:WaterMeter:MC0203J22010600005","2024-09-02T23:15:00",26.1,30.544966,0.234],
    [31302,"urn:WaterMeter:MC0203J22010600005","2024-09-02T23:30:00",26.1,30.545315,0.236],
    [31303,"urn:WaterMeter:MC0203J22010600005","2024-09-02T23:45:00",26,30.5182,0.221],
    [31304,"urn:WaterMeter:MC0203J22010600005","2024-09-03T00:00:00",26,30.491823,0.23],
    [31305,"urn:WaterMeter:MC0203J22010600005","2024-09-03T00:15:00",25.899,30.527472,0.229],
    [31306,"urn:WaterMeter:MC0203J22010600005","2024-09-03T00:30:00",25.899,30.473204,0.224],
    [31307,"urn:WaterMeter:MC0203J22010600005","2024-09-03T00:45:00",25.799,30.522467,0.225],
    [31308,"urn:WaterMeter:MC0203J22010600005","2024-09-03T01:00:00",25.7,30.468899,0.233],
    [31309,"urn:WaterMeter:MC0203J22010600005","2024-09-03T01:15:00",25.7,30.491434,0.236],
    [31310,"urn:WaterMeter:MC0203J22010600005","2024-09-03T01:30:00",25.6,30.488293,0.228],
    [31311,"urn:WaterMeter:MC0203J22010600005","2024-09-03T01:45:00",25.6,30.504236,0.22],
    [31312,"urn:WaterMeter:MC0203J22010600005","2024-09-03T02:00:00",25.5,30.508503,0.225],
    [31313,"urn:WaterMeter:MC0203J22010600005","2024-09-03T02:15:00",25.5,30.488293,0.228],
    [31314,"urn:WaterMeter:MC0203J22010600005","2024-09-03T02:30:00",25.399,30.45726,0.224],
    [31315,"urn:WaterMeter:MC0203J22010600005","2024-09-03T02:45:00",25.399,30.461567,0.22],
    [31316,"urn:WaterMeter:MC0203J22010600005","2024-09-03T03:00:00",25.399,30.4701,0.224],
    [31317,"urn:WaterMeter:MC0203J22010600005","2024-09-03T03:15:00",25.399,30.468122,0.232],
    [31318,"urn:WaterMeter:MC0203J22010600005","2024-09-03T03:30:00",25.399,30.46622,0.23],
    [31319,"urn:WaterMeter:MC0203J22010600005","2024-09-03T03:45:00",25.299,30.424328,0.229],
    [31320,"urn:WaterMeter:MC0203J22010600005","2024-09-03T04:00:00",25.299,30.441784,0.226],
    [31321,"urn:WaterMeter:MC0203J22010600005","2024-09-03T04:15:00",25.299,30.411528,0.227],
    [31322,"urn:WaterMeter:MC0203J22010600005","2024-09-03T04:30:00",25.299,30.430922,0.217],
    [31323,"urn:WaterMeter:MC0203J22010600005","2024-09-03T04:45:00",25.299,30.436354,0.233],
    [31324,"urn:WaterMeter:MC0203J22010600005","2024-09-03T05:00:00",25.299,30.40024,0.229],
    [31325,"urn:WaterMeter:MC0203J22010600005","2024-09-03T05:15:00",25.399,30.420023,0.236],
    [31326,"urn:WaterMeter:MC0203J22010600005","2024-09-03T05:30:00",25.5,30.492987,0.225],
    [31327,"urn:WaterMeter:MC0203J22010600005","2024-09-03T05:45:00",25.5,30.882439,0.236],
    [31328,"urn:WaterMeter:MC0203J22010600005","2024-09-03T06:00:00",25.5,31.496058,0.26],
    [31329,"urn:WaterMeter:MC0203J22010600005","2024-09-03T06:15:00",25.5,32.07523,0.247],
    [31330,"urn:WaterMeter:MC0203J22010600005","2024-09-03T06:30:00",25.5,32.382835,0.254],
    [31331,"urn:WaterMeter:MC0203J22010600005","2024-09-03T06:45:00",25.6,32.626823,0.25],
    [31332,"urn:WaterMeter:MC0203J22010600005","2024-09-03T07:00:00",25.6,32.775738,0.265],
    [31333,"urn:WaterMeter:MC0203J22010600005","2024-09-03T07:15:00",25.7,32.931675,0.255],
    [31334,"urn:WaterMeter:MC0203J22010600005","2024-09-03T07:30:00",25.7,33.044205,0.293],
    [31335,"urn:WaterMeter:MC0203J22010600005","2024-09-03T07:45:00",25.799,33.182297,0.265],
    [31336,"urn:WaterMeter:MC0203J22010600005","2024-09-03T08:00:00",25.899,33.217598,0.263],
    [31337,"urn:WaterMeter:MC0203J22010600005","2024-09-03T08:15:00",26,32.93016,0.284],
    [31338,"urn:WaterMeter:MC0203J22010600005","2024-09-03T08:30:00",26.1,32.641953,0.254],
    [31339,"urn:WaterMeter:MC0203J22010600005","2024-09-03T08:45:00",26.1,32.453045,0.251],
    [31340,"urn:WaterMeter:MC0203J22010600005","2024-09-03T09:00:00",26.2,32.45456,0.265],
    [31341,"urn:WaterMeter:MC0203J22010600005","2024-09-03T09:15:00",26.2,32.32426,0.258],
    [31342,"urn:WaterMeter:MC0203J22010600005","2024-09-03T09:30:00",26.2,32.290863,0.262],
    [31343,"urn:WaterMeter:MC0203J22010600005","2024-09-03T09:45:00",26.299,32.227287,0.261],
    [31344,"urn:WaterMeter:MC0203J22010600005","2024-09-03T10:00:00",26.399,32.170265,0.246],
    [31345,"urn:WaterMeter:MC0203J22010600005","2024-09-03T10:15:00",26.399,32.104324,0.256],
    [31346,"urn:WaterMeter:MC0203J22010600005","2024-09-03T10:30:00",26.5,32.04575,0.251],
    [31347,"urn:WaterMeter:MC0203J22010600005","2024-09-03T10:45:00",26.5,31.99959,0.254],
    [31348,"urn:WaterMeter:MC0203J22010600005","2024-09-03T11:00:00",26.6,31.967007,0.244],
    [31349,"urn:WaterMeter:MC0203J22010600005","2024-09-03T11:15:00",26.7,31.889038,0.251],
    [31350,"urn:WaterMeter:MC0203J22010600005","2024-09-03T11:30:00",26.799,31.878954,0.245],
    [31351,"urn:WaterMeter:MC0203J22010600005","2024-09-03T11:45:00",26.899,31.811846,0.249],
    [31352,"urn:WaterMeter:MC0203J22010600005","2024-09-03T12:00:00",27.1,31.76491,0.242],
    [31353,"urn:WaterMeter:MC0203J22010600005","2024-09-03T12:15:00",27.2,31.725733,0.244],
    [31354,"urn:WaterMeter:MC0203J22010600005","2024-09-03T12:30:00",27.299,31.674143,0.255],
    [31355,"urn:WaterMeter:MC0203J22010600005","2024-09-03T12:45:00",27.399,31.604708,0.245],
    [31356,"urn:WaterMeter:MC0203J22010600005","2024-09-03T13:00:00",27.5,31.551565,0.24],
    [31357,"urn:WaterMeter:MC0203J22010600005","2024-09-03T13:15:00",27.6,31.503078,0.235],
    [31358,"urn:WaterMeter:MC0203J22010600005","2024-09-03T13:30:00",27.7,31.497221,0.238],
    [31359,"urn:WaterMeter:MC0203J22010600005","2024-09-03T13:45:00",27.799,31.39718,0.241],
    [31360,"urn:WaterMeter:MC0203J22010600005","2024-09-03T14:00:00",27.7,31.36421,0.238],
    [31361,"urn:WaterMeter:MC0203J22010600005","2024-09-03T14:15:00",27.7,31.34943,0.233],
    [31362,"urn:WaterMeter:MC0203J22010600005","2024-09-03T14:30:00",27.7,31.297104,0.238],
    [31363,"urn:WaterMeter:MC0203J22010600005","2024-09-03T14:45:00",27.7,31.288568,0.234],
    [31364,"urn:WaterMeter:MC0203J22010600005","2024-09-03T15:00:00",27.7,31.206722,0.242],
    [31365,"urn:WaterMeter:MC0203J22010600005","2024-09-03T15:15:00",27.7,31.177204,0.251],
    [31366,"urn:WaterMeter:MC0203J22010600005","2024-09-03T15:30:00",27.799,31.141943,0.235],
    [31367,"urn:WaterMeter:MC0203J22010600005","2024-09-03T15:45:00",27.799,31.045357,0.235],
    [31368,"urn:WaterMeter:MC0203J22010600005","2024-09-03T16:00:00",27.899,31.05583,0.239],
    [31369,"urn:WaterMeter:MC0203J22010600005","2024-09-03T16:15:00",27.799,30.99842,0.253],
    [31370,"urn:WaterMeter:MC0203J22010600005","2024-09-03T16:30:00",27.799,30.975534,0.243],
    [31371,"urn:WaterMeter:MC0203J22010600005","2024-09-03T16:45:00",27.7,30.951485,0.238],
    [31372,"urn:WaterMeter:MC0203J22010600005","2024-09-03T17:00:00",27.6,30.902958,0.233],
    [31373,"urn:WaterMeter:MC0203J22010600005","2024-09-03T17:15:00",27.6,30.866495,0.221],
    [31374,"urn:WaterMeter:MC0203J22010600005","2024-09-03T17:30:00",27.5,30.884338,0.246],
    [31375,"urn:WaterMeter:MC0203J22010600005","2024-09-03T17:45:00",27.399,30.860329,0.236],
    [31376,"urn:WaterMeter:MC0203J22010600005","2024-09-03T18:00:00",27.299,30.833563,0.252],
    [31377,"urn:WaterMeter:MC0203J22010600005","2024-09-03T18:15:00",27.2,30.825766,0.223],
    [31378,"urn:WaterMeter:MC0203J22010600005","2024-09-03T18:30:00",27.1,30.817232,0.251],
    [31379,"urn:WaterMeter:MC0203J22010600005","2024-09-03T18:45:00",27,30.78236,0.235],
    [31380,"urn:WaterMeter:MC0203J22010600005","2024-09-03T19:00:00",26.899,30.762577,0.227],
    [31381,"urn:WaterMeter:MC0203J22010600005","2024-09-03T19:15:00",26.799,30.779219,0.233],
    [31382,"urn:WaterMeter:MC0203J22010600005","2024-09-03T19:30:00",26.7,30.748186,0.226],
    [31383,"urn:WaterMeter:MC0203J22010600005","2024-09-03T19:45:00",26.6,30.78973,0.233],
    [31384,"urn:WaterMeter:MC0203J22010600005","2024-09-03T20:00:00",26.5,30.742794,0.237],
    [31385,"urn:WaterMeter:MC0203J22010600005","2024-09-03T20:15:00",26.399,30.759047,0.233],
    [31386,"urn:WaterMeter:MC0203J22010600005","2024-09-03T20:30:00",26.399,30.735037,0.235],
    [31387,"urn:WaterMeter:MC0203J22010600005","2024-09-03T20:45:00",26.299,30.757534,0.238],
    [31388,"urn:WaterMeter:MC0203J22010600005","2024-09-03T21:00:00",26.2,30.71409,0.227],
    [31389,"urn:WaterMeter:MC0203J22010600005","2024-09-03T21:15:00",26.2,30.739653,0.224],
    [31390,"urn:WaterMeter:MC0203J22010600005","2024-09-03T21:30:00",26.2,30.713314,0.227],
    [31391,"urn:WaterMeter:MC0203J22010600005","2024-09-03T21:45:00",26.1,30.713701,0.226],
    [31392,"urn:WaterMeter:MC0203J22010600005","2024-09-03T22:00:00",26.1,30.713701,0.229],
    [31393,"urn:WaterMeter:MC0203J22010600005","2024-09-03T22:15:00",26,30.687325,0.225],
    [31394,"urn:WaterMeter:MC0203J22010600005","2024-09-03T22:30:00",26,30.702026,0.231],
    [31395,"urn:WaterMeter:MC0203J22010600005","2024-09-03T22:45:00",25.899,30.689224,0.229],
    [31396,"urn:WaterMeter:MC0203J22010600005","2024-09-03T23:00:00",25.799,30.67177,0.235],
    [31397,"urn:WaterMeter:MC0203J22010600005","2024-09-03T23:15:00",25.7,30.658619,0.224],
    [31398,"urn:WaterMeter:MC0203J22010600005","2024-09-03T23:30:00",25.7,30.648922,0.232],
    [31399,"urn:WaterMeter:MC0203J22010600005","2024-09-03T23:45:00",25.7,30.671381,0.214],
    [31400,"urn:WaterMeter:MC0203J22010600005","2024-09-04T00:00:00",25.7,30.643064,0.247],
    [31401,"urn:WaterMeter:MC0203J22010600005","2024-09-04T00:15:00",25.7,30.651987,0.235],
    [31402,"urn:WaterMeter:MC0203J22010600005","2024-09-04T00:30:00",25.6,30.620218,0.229],
    [31403,"urn:WaterMeter:MC0203J22010600005","2024-09-04T00:45:00",25.6,30.606253,0.228],
    [31404,"urn:WaterMeter:MC0203J22010600005","2024-09-04T01:00:00",25.5,30.650047,0.231],
    [31405,"urn:WaterMeter:MC0203J22010600005","2024-09-04T01:15:00",25.5,30.629915,0.225],
    [31406,"urn:WaterMeter:MC0203J22010600005","2024-09-04T01:30:00",25.5,30.622894,0.238],
    [31407,"urn:WaterMeter:MC0203J22010600005","2024-09-04T01:45:00",25.5,30.610909,0.23],
    [31408,"urn:WaterMeter:MC0203J22010600005","2024-09-04T02:00:00",25.5,30.591125,0.231],
    [31409,"urn:WaterMeter:MC0203J22010600005","2024-09-04T02:15:00",25.5,30.628752,0.228],
    [31410,"urn:WaterMeter:MC0203J22010600005","2024-09-04T02:30:00",25.5,30.575182,0.22],
    [31411,"urn:WaterMeter:MC0203J22010600005","2024-09-04T02:45:00",25.5,30.608192,0.241],
    [31412,"urn:WaterMeter:MC0203J22010600005","2024-09-04T03:00:00",25.5,30.607416,0.227],
    [31413,"urn:WaterMeter:MC0203J22010600005","2024-09-04T03:15:00",25.5,30.593025,0.224],
    [31414,"urn:WaterMeter:MC0203J22010600005","2024-09-04T03:30:00",25.5,30.609745,0.22],
    [31415,"urn:WaterMeter:MC0203J22010600005","2024-09-04T03:45:00",25.5,30.56824,0.225],
    [31416,"urn:WaterMeter:MC0203J22010600005","2024-09-04T04:00:00",25.399,30.608582,0.229],
    [31417,"urn:WaterMeter:MC0203J22010600005","2024-09-04T04:15:00",25.399,30.600046,0.231],
    [31418,"urn:WaterMeter:MC0203J22010600005","2024-09-04T04:30:00",25.399,30.561256,0.229],
    [31419,"urn:WaterMeter:MC0203J22010600005","2024-09-04T04:45:00",25.299,30.585655,0.222],
    [31420,"urn:WaterMeter:MC0203J22010600005","2024-09-04T05:00:00",25.299,30.58647,0.219],
    [31421,"urn:WaterMeter:MC0203J22010600005","2024-09-04T05:15:00",25.399,30.600435,0.224],
    [31422,"urn:WaterMeter:MC0203J22010600005","2024-09-04T05:30:00",25.5,30.725727,0.229],
    [31423,"urn:WaterMeter:MC0203J22010600005","2024-09-04T05:45:00",25.5,31.040663,0.236],
    [31424,"urn:WaterMeter:MC0203J22010600005","2024-09-04T06:00:00",25.5,31.607424,0.245],
    [31425,"urn:WaterMeter:MC0203J22010600005","2024-09-04T06:15:00",25.5,32.12139,0.271],
    [31426,"urn:WaterMeter:MC0203J22010600005","2024-09-04T06:30:00",25.5,32.44296,0.252],
    [31427,"urn:WaterMeter:MC0203J22010600005","2024-09-04T06:45:00",25.5,32.69587,0.258],
    [31428,"urn:WaterMeter:MC0203J22010600005","2024-09-04T07:00:00",25.5,32.835903,0.264],
    [31429,"urn:WaterMeter:MC0203J22010600005","2024-09-04T07:15:00",25.6,32.9643,0.281],
    [31430,"urn:WaterMeter:MC0203J22010600005","2024-09-04T07:30:00",25.6,33.071747,0.26],
    [31431,"urn:WaterMeter:MC0203J22010600005","2024-09-04T07:45:00",25.6,33.229584,0.264],
    [31432,"urn:WaterMeter:MC0203J22010600005","2024-09-04T08:00:00",25.7,33.34673,0.264],
    [31433,"urn:WaterMeter:MC0203J22010600005","2024-09-04T08:15:00",25.7,33.020157,0.274],
    [31434,"urn:WaterMeter:MC0203J22010600005","2024-09-04T08:30:00",25.7,32.730392,0.261],
    [31435,"urn:WaterMeter:MC0203J22010600005","2024-09-04T08:45:00",25.799,32.575233,0.255],
    [31436,"urn:WaterMeter:MC0203J22010600005","2024-09-04T09:00:00",25.899,32.50696,0.278],
    [31437,"urn:WaterMeter:MC0203J22010600005","2024-09-04T09:15:00",25.899,32.456497,0.252],
    [31438,"urn:WaterMeter:MC0203J22010600005","2024-09-04T09:30:00",26,32.344433,0.249],
    [31439,"urn:WaterMeter:MC0203J22010600005","2024-09-04T09:45:00",26.1,32.30952,0.251],
    [31440,"urn:WaterMeter:MC0203J22010600005","2024-09-04T10:00:00",26.2,32.248623,0.251],
    [31441,"urn:WaterMeter:MC0203J22010600005","2024-09-04T10:15:00",26.2,32.194664,0.252],
    [31442,"urn:WaterMeter:MC0203J22010600005","2024-09-04T10:30:00",26.299,32.12756,0.249],
    [31443,"urn:WaterMeter:MC0203J22010600005","2024-09-04T10:45:00",26.399,32.070187,0.248],
    [31444,"urn:WaterMeter:MC0203J22010600005","2024-09-04T11:00:00",26.6,32.052345,0.257],
    [31445,"urn:WaterMeter:MC0203J22010600005","2024-09-04T11:15:00",26.7,31.9499,0.254],
    [31446,"urn:WaterMeter:MC0203J22010600005","2024-09-04T11:30:00",26.899,31.92744,0.261],
    [31447,"urn:WaterMeter:MC0203J22010600005","2024-09-04T11:45:00",27,31.828138,0.259],
    [31448,"urn:WaterMeter:MC0203J22010600005","2024-09-04T12:00:00",27.1,31.80564,0.247],
    [31449,"urn:WaterMeter:MC0203J22010600005","2024-09-04T12:15:00",27.1,31.75211,0.246],
    [31450,"urn:WaterMeter:MC0203J22010600005","2024-09-04T12:30:00",27.1,31.698153,0.245],
    [31451,"urn:WaterMeter:MC0203J22010600005","2024-09-04T12:45:00",27.2,31.631823,0.254],
    [31452,"urn:WaterMeter:MC0203J22010600005","2024-09-04T13:00:00",27.2,31.597338,0.237],
    [31453,"urn:WaterMeter:MC0203J22010600005","2024-09-04T13:15:00",27.2,31.508121,0.24],
    [31454,"urn:WaterMeter:MC0203J22010600005","2024-09-04T13:30:00",27.2,31.479805,0.232],
    [31455,"urn:WaterMeter:MC0203J22010600005","2024-09-04T13:45:00",27.2,31.474373,0.23],
    [31456,"urn:WaterMeter:MC0203J22010600005","2024-09-04T14:00:00",27.299,31.36227,0.236],
    [31457,"urn:WaterMeter:MC0203J22010600005","2024-09-04T14:15:00",27.299,31.31103,0.247],
    [31458,"urn:WaterMeter:MC0203J22010600005","2024-09-04T14:30:00",27.2,31.297104,0.285],
    [31459,"urn:WaterMeter:MC0203J22010600005","2024-09-04T14:45:00",27.2,31.247065,0.239],
    [31460,"urn:WaterMeter:MC0203J22010600005","2024-09-04T15:00:00",27.299,31.196598,0.227],
    [31461,"urn:WaterMeter:MC0203J22010600005","2024-09-04T15:15:00",27.2,31.194658,0.236],
    [31462,"urn:WaterMeter:MC0203J22010600005","2024-09-04T15:30:00",27.1,31.110136,0.232],
    [31463,"urn:WaterMeter:MC0203J22010600005","2024-09-04T15:45:00",27,31.082983,0.258],
    [31464,"urn:WaterMeter:MC0203J22010600005","2024-09-04T16:00:00",26.899,31.073284,0.233],
    [31465,"urn:WaterMeter:MC0203J22010600005","2024-09-04T16:15:00",26.7,31.020103,0.233],
    [31466,"urn:WaterMeter:MC0203J22010600005","2024-09-04T16:30:00",26.6,31.01157,0.245],
    [31467,"urn:WaterMeter:MC0203J22010600005","2024-09-04T16:45:00",26.5,31.04652,0.231],
    [31468,"urn:WaterMeter:MC0203J22010600005","2024-09-04T17:00:00",26.399,30.960754,0.237],
    [31469,"urn:WaterMeter:MC0203J22010600005","2024-09-04T17:15:00",26.299,31.003464,0.229],
    [31470,"urn:WaterMeter:MC0203J22010600005","2024-09-04T17:30:00",26.299,30.976698,0.23],
    [31471,"urn:WaterMeter:MC0203J22010600005","2024-09-04T17:45:00",26.2,30.936745,0.233],
    [31472,"urn:WaterMeter:MC0203J22010600005","2024-09-04T18:00:00",26.1,30.892523,0.243],
    [31473,"urn:WaterMeter:MC0203J22010600005","2024-09-04T18:15:00",26,30.918512,0.23],
    [31474,"urn:WaterMeter:MC0203J22010600005","2024-09-04T18:30:00",25.899,30.884338,0.235],
    [31475,"urn:WaterMeter:MC0203J22010600005","2024-09-04T18:45:00",25.899,30.870413,0.242],
    [31476,"urn:WaterMeter:MC0203J22010600005","2024-09-04T19:00:00",25.799,30.887869,0.242],
    [31477,"urn:WaterMeter:MC0203J22010600005","2024-09-04T19:15:00",25.7,30.844772,0.25],
    [31478,"urn:WaterMeter:MC0203J22010600005","2024-09-04T19:30:00",25.7,30.81762,0.244],
    [31479,"urn:WaterMeter:MC0203J22010600005","2024-09-04T19:45:00",25.6,30.836239,0.228],
    [31480,"urn:WaterMeter:MC0203J22010600005","2024-09-04T20:00:00",25.6,30.80831,0.224],
    [31481,"urn:WaterMeter:MC0203J22010600005","2024-09-04T20:15:00",25.6,30.81378,0.236],
    [31482,"urn:WaterMeter:MC0203J22010600005","2024-09-04T20:30:00",25.5,30.816496,0.231],
    [31483,"urn:WaterMeter:MC0203J22010600005","2024-09-04T20:45:00",25.5,30.76758,0.237],
    [31484,"urn:WaterMeter:MC0203J22010600005","2024-09-04T21:00:00",25.5,30.792057,0.245],
    [31485,"urn:WaterMeter:MC0203J22010600005","2024-09-04T21:15:00",25.5,30.736975,0.239],
    [31486,"urn:WaterMeter:MC0203J22010600005","2024-09-04T21:30:00",25.399,30.7862,0.237],
    [31487,"urn:WaterMeter:MC0203J22010600005","2024-09-04T21:45:00",25.399,30.724174,0.254],
    [31488,"urn:WaterMeter:MC0203J22010600005","2024-09-04T22:00:00",25.399,30.730343,0.238],
    [31489,"urn:WaterMeter:MC0203J22010600005","2024-09-04T22:15:00",25.299,30.742018,0.229],
    [31490,"urn:WaterMeter:MC0203J22010600005","2024-09-04T22:30:00",25.299,30.710947,0.247],
    [31491,"urn:WaterMeter:MC0203J22010600005","2024-09-04T22:45:00",25.299,30.695858,0.23],
    [31492,"urn:WaterMeter:MC0203J22010600005","2024-09-04T23:00:00",25.299,30.700125,0.242],
    [31493,"urn:WaterMeter:MC0203J22010600005","2024-09-04T23:15:00",25.2,30.709784,0.23],
    [31494,"urn:WaterMeter:MC0203J22010600005","2024-09-04T23:30:00",25.2,30.68108,0.229],
    [31495,"urn:WaterMeter:MC0203J22010600005","2024-09-04T23:45:00",25.2,30.678402,0.223],
    [31496,"urn:WaterMeter:MC0203J22010600005","2024-09-05T00:00:00",25.2,30.662071,0.236],
    [31497,"urn:WaterMeter:MC0203J22010600005","2024-09-05T00:15:00",25.1,30.696245,0.241],
    [31498,"urn:WaterMeter:MC0203J22010600005","2024-09-05T00:30:00",25.1,30.638838,0.234],
    [31499,"urn:WaterMeter:MC0203J22010600005","2024-09-05T00:45:00",25.1,30.66246,0.239],
    [31500,"urn:WaterMeter:MC0203J22010600005","2024-09-05T01:00:00",25,30.649311,0.232],
    [31501,"urn:WaterMeter:MC0203J22010600005","2024-09-05T01:15:00",25,30.640776,0.247],
    [31502,"urn:WaterMeter:MC0203J22010600005","2024-09-05T01:30:00",25,30.640001,0.215],
    [31503,"urn:WaterMeter:MC0203J22010600005","2024-09-05T01:45:00",25,30.665215,0.246],
    [31504,"urn:WaterMeter:MC0203J22010600005","2024-09-05T02:00:00",24.899,30.615562,0.226],
    [31505,"urn:WaterMeter:MC0203J22010600005","2024-09-05T02:15:00",24.899,30.614748,0.249],
    [31506,"urn:WaterMeter:MC0203J22010600005","2024-09-05T02:30:00",24.899,30.591125,0.231],
    [31507,"urn:WaterMeter:MC0203J22010600005","2024-09-05T02:45:00",24.899,30.578325,0.231],
    [31508,"urn:WaterMeter:MC0203J22010600005","2024-09-05T03:00:00",24.899,30.574408,0.234],
    [31509,"urn:WaterMeter:MC0203J22010600005","2024-09-05T03:15:00",24.899,30.607805,0.227],
    [31510,"urn:WaterMeter:MC0203J22010600005","2024-09-05T03:30:00",24.799,30.587246,0.222],
    [31511,"urn:WaterMeter:MC0203J22010600005","2024-09-05T03:45:00",24.799,30.570179,0.25],
    [31512,"urn:WaterMeter:MC0203J22010600005","2024-09-05T04:00:00",24.799,30.543026,0.221],
    [31513,"urn:WaterMeter:MC0203J22010600005","2024-09-05T04:15:00",24.799,30.524794,0.226],
    [31514,"urn:WaterMeter:MC0203J22010600005","2024-09-05T04:30:00",24.7,30.522467,0.231],
    [31515,"urn:WaterMeter:MC0203J22010600005","2024-09-05T04:45:00",24.7,30.51661,0.225],
    [31516,"urn:WaterMeter:MC0203J22010600005","2024-09-05T05:00:00",24.7,30.548069,0.234],
    [31517,"urn:WaterMeter:MC0203J22010600005","2024-09-05T05:15:00",24.799,30.532553,0.223],
    [31518,"urn:WaterMeter:MC0203J22010600005","2024-09-05T05:30:00",24.799,30.656681,0.236],
    [31519,"urn:WaterMeter:MC0203J22010600005","2024-09-05T05:45:00",24.899,30.959242,0.245],
    [31520,"urn:WaterMeter:MC0203J22010600005","2024-09-05T06:00:00",24.899,31.628757,0.253],
    [31521,"urn:WaterMeter:MC0203J22010600005","2024-09-05T06:15:00",24.899,32.201298,0.276],
    [31522,"urn:WaterMeter:MC0203J22010600005","2024-09-05T06:30:00",24.899,32.53683,0.267],
    [31523,"urn:WaterMeter:MC0203J22010600005","2024-09-05T06:45:00",24.899,32.787415,0.26],
    [31524,"urn:WaterMeter:MC0203J22010600005","2024-09-05T07:00:00",25,32.89758,0.253],
    [31525,"urn:WaterMeter:MC0203J22010600005","2024-09-05T07:15:00",25,33.072132,0.254],
    [31526,"urn:WaterMeter:MC0203J22010600005","2024-09-05T07:30:00",25,33.140015,0.265],
    [31527,"urn:WaterMeter:MC0203J22010600005","2024-09-05T07:45:00",25,33.29479,0.279],
    [31528,"urn:WaterMeter:MC0203J22010600005","2024-09-05T08:00:00",25,33.376637,0.267],
    [31529,"urn:WaterMeter:MC0203J22010600005","2024-09-05T08:15:00",25.1,33.110924,0.263],
    [31530,"urn:WaterMeter:MC0203J22010600005","2024-09-05T08:30:00",25.1,32.76841,0.264],
    [31531,"urn:WaterMeter:MC0203J22010600005","2024-09-05T08:45:00",25.1,32.61519,0.264],
    [31532,"urn:WaterMeter:MC0203J22010600005","2024-09-05T09:00:00",25.1,32.569416,0.255],
    [31533,"urn:WaterMeter:MC0203J22010600005","2024-09-05T09:15:00",25.2,32.51507,0.245],
    [31534,"urn:WaterMeter:MC0203J22010600005","2024-09-05T09:30:00",25.299,32.43947,0.269],
    [31535,"urn:WaterMeter:MC0203J22010600005","2024-09-05T09:45:00",25.399,32.323486,0.265],
    [31536,"urn:WaterMeter:MC0203J22010600005","2024-09-05T10:00:00",25.399,32.30642,0.247],
    [31537,"urn:WaterMeter:MC0203J22010600005","2024-09-05T10:15:00",25.6,32.245907,0.252],
    [31538,"urn:WaterMeter:MC0203J22010600005","2024-09-05T10:30:00",25.7,32.2172,0.247],
    [31539,"urn:WaterMeter:MC0203J22010600005","2024-09-05T10:45:00",25.799,32.120228,0.266],
    [31540,"urn:WaterMeter:MC0203J22010600005","2024-09-05T11:00:00",25.899,32.09036,0.244],
    [31541,"urn:WaterMeter:MC0203J22010600005","2024-09-05T11:15:00",26,32.015495,0.241],
    [31542,"urn:WaterMeter:MC0203J22010600005","2024-09-05T11:30:00",26.2,31.97748,0.253],
    [31543,"urn:WaterMeter:MC0203J22010600005","2024-09-05T11:45:00",26.299,31.93128,0.248],
    [31544,"urn:WaterMeter:MC0203J22010600005","2024-09-05T12:00:00",26.5,31.86654,0.247],
    [31545,"urn:WaterMeter:MC0203J22010600005","2024-09-05T12:15:00",26.5,31.799822,0.248],
    [31546,"urn:WaterMeter:MC0203J22010600005","2024-09-05T12:30:00",26.6,31.750559,0.24],
    [31547,"urn:WaterMeter:MC0203J22010600005","2024-09-05T12:45:00",26.7,31.68578,0.243],
    [31548,"urn:WaterMeter:MC0203J22010600005","2024-09-05T13:00:00",26.799,31.638844,0.24],
    [31549,"urn:WaterMeter:MC0203J22010600005","2024-09-05T13:15:00",26.799,31.608198,0.236],
    [31550,"urn:WaterMeter:MC0203J22010600005","2024-09-05T13:30:00",26.799,31.563164,0.245],
    [31551,"urn:WaterMeter:MC0203J22010600005","2024-09-05T13:45:00",26.7,31.523987,0.236],
    [31552,"urn:WaterMeter:MC0203J22010600005","2024-09-05T14:00:00",26.799,31.453426,0.246],
    [31553,"urn:WaterMeter:MC0203J22010600005","2024-09-05T14:15:00",26.799,31.446018,0.236],
    [31554,"urn:WaterMeter:MC0203J22010600005","2024-09-05T14:30:00",26.799,31.36615,0.235],
    [31555,"urn:WaterMeter:MC0203J22010600005","2024-09-05T14:45:00",26.799,31.320377,0.236],
    [31556,"urn:WaterMeter:MC0203J22010600005","2024-09-05T15:00:00",26.799,31.31103,0.231],
    [31557,"urn:WaterMeter:MC0203J22010600005","2024-09-05T15:15:00",26.799,31.240858,0.236],
    [31558,"urn:WaterMeter:MC0203J22010600005","2024-09-05T15:30:00",26.7,31.213278,0.23],
    [31559,"urn:WaterMeter:MC0203J22010600005","2024-09-05T15:45:00",26.6,31.183449,0.239],
    [31560,"urn:WaterMeter:MC0203J22010600005","2024-09-05T16:00:00",26.5,31.166342,0.239],
    [31561,"urn:WaterMeter:MC0203J22010600005","2024-09-05T16:15:00",26.399,31.124487,0.241],
    [31562,"urn:WaterMeter:MC0203J22010600005","2024-09-05T16:30:00",26.299,31.155481,0.249],
    [31563,"urn:WaterMeter:MC0203J22010600005","2024-09-05T16:45:00",26.299,31.084146,0.246],
    [31564,"urn:WaterMeter:MC0203J22010600005","2024-09-05T17:00:00",26.2,31.047684,0.254],
    [31565,"urn:WaterMeter:MC0203J22010600005","2024-09-05T17:15:00",26.1,31.036434,0.231],
    [31566,"urn:WaterMeter:MC0203J22010600005","2024-09-05T17:30:00",26.1,31.018204,0.239],
    [31567,"urn:WaterMeter:MC0203J22010600005","2024-09-05T17:45:00",26,30.973982,0.249],
    [31568,"urn:WaterMeter:MC0203J22010600005","2024-09-05T18:00:00",26,30.972393,0.232],
    [31569,"urn:WaterMeter:MC0203J22010600005","2024-09-05T18:15:00",25.899,30.961143,0.243],
    [31570,"urn:WaterMeter:MC0203J22010600005","2024-09-05T18:30:00",25.799,30.958078,0.243],
    [31571,"urn:WaterMeter:MC0203J22010600005","2024-09-05T18:45:00",25.799,30.913082,0.244],
    [31572,"urn:WaterMeter:MC0203J22010600005","2024-09-05T19:00:00",25.7,30.935968,0.23],
    [31573,"urn:WaterMeter:MC0203J22010600005","2024-09-05T19:15:00",25.7,30.87119,0.237],
    [31574,"urn:WaterMeter:MC0203J22010600005","2024-09-05T19:30:00",25.7,30.939848,0.236],
    [31575,"urn:WaterMeter:MC0203J22010600005","2024-09-05T19:45:00",25.6,30.884727,0.24],
    [31576,"urn:WaterMeter:MC0203J22010600005","2024-09-05T20:00:00",25.6,30.888645,0.228],
    [31577,"urn:WaterMeter:MC0203J22010600005","2024-09-05T20:15:00",25.5,30.864944,0.23],
    [31578,"urn:WaterMeter:MC0203J22010600005","2024-09-05T20:30:00",25.5,30.891748,0.231],
    [31579,"urn:WaterMeter:MC0203J22010600005","2024-09-05T20:45:00",25.5,30.87274,0.239],
    [31580,"urn:WaterMeter:MC0203J22010600005","2024-09-05T21:00:00",25.399,30.858776,0.236],
    [31581,"urn:WaterMeter:MC0203J22010600005","2024-09-05T21:15:00",25.399,30.859163,0.234],
    [31582,"urn:WaterMeter:MC0203J22010600005","2024-09-05T21:30:00",25.399,30.812227,0.234],
    [31583,"urn:WaterMeter:MC0203J22010600005","2024-09-05T21:45:00",25.399,30.838606,0.25],
    [31584,"urn:WaterMeter:MC0203J22010600005","2024-09-05T22:00:00",25.299,30.79516,0.227],
    [31585,"urn:WaterMeter:MC0203J22010600005","2024-09-05T22:15:00",25.299,30.801754,0.224],
    [31586,"urn:WaterMeter:MC0203J22010600005","2024-09-05T22:30:00",25.299,30.829296,0.251],
    [31587,"urn:WaterMeter:MC0203J22010600005","2024-09-05T22:45:00",25.299,30.810677,0.241],
    [31588,"urn:WaterMeter:MC0203J22010600005","2024-09-05T23:00:00",25.2,30.75637,0.242],
    [31589,"urn:WaterMeter:MC0203J22010600005","2024-09-05T23:15:00",25.2,30.76797,0.241],
    [31590,"urn:WaterMeter:MC0203J22010600005","2024-09-05T23:30:00",25.2,30.743958,0.243],
    [31591,"urn:WaterMeter:MC0203J22010600005","2024-09-05T23:45:00",25.1,30.71987,0.232],
    [31592,"urn:WaterMeter:MC0203J22010600005","2024-09-06T00:00:00",25.1,30.739653,0.238],
    [31593,"urn:WaterMeter:MC0203J22010600005","2024-09-06T00:15:00",25.1,30.75831,0.235],
    [31594,"urn:WaterMeter:MC0203J22010600005","2024-09-06T00:30:00",25,30.723398,0.241],
    [31595,"urn:WaterMeter:MC0203J22010600005","2024-09-06T00:45:00",25,30.669443,0.228],
    [31596,"urn:WaterMeter:MC0203J22010600005","2024-09-06T01:00:00",24.899,30.700474,0.241],
    [31597,"urn:WaterMeter:MC0203J22010600005","2024-09-06T01:15:00",24.799,30.713701,0.232],
    [31598,"urn:WaterMeter:MC0203J22010600005","2024-09-06T01:30:00",24.799,30.709784,0.229],
    [31599,"urn:WaterMeter:MC0203J22010600005","2024-09-06T01:45:00",24.7,30.704391,0.234],
    [31600,"urn:WaterMeter:MC0203J22010600005","2024-09-06T02:00:00",24.7,30.70478,0.228],
    [31601,"urn:WaterMeter:MC0203J22010600005","2024-09-06T02:15:00",24.6,30.677628,0.224],
    [31602,"urn:WaterMeter:MC0203J22010600005","2024-09-06T02:30:00",24.6,30.676851,0.238],
    [31603,"urn:WaterMeter:MC0203J22010600005","2024-09-06T02:45:00",24.5,30.665215,0.23],
    [31604,"urn:WaterMeter:MC0203J22010600005","2024-09-06T03:00:00",24.5,30.677628,0.239],
    [31605,"urn:WaterMeter:MC0203J22010600005","2024-09-06T03:15:00",24.5,30.655905,0.235],
    [31606,"urn:WaterMeter:MC0203J22010600005","2024-09-06T03:30:00",24.5,30.638449,0.228],
    [31607,"urn:WaterMeter:MC0203J22010600005","2024-09-06T03:45:00",24.399,30.647371,0.23],
    [31608,"urn:WaterMeter:MC0203J22010600005","2024-09-06T04:00:00",24.399,30.629915,0.228],
    [31609,"urn:WaterMeter:MC0203J22010600005","2024-09-06T04:15:00",24.299,30.662848,0.23],
    [31610,"urn:WaterMeter:MC0203J22010600005","2024-09-06T04:30:00",24.299,30.624058,0.229],
    [31611,"urn:WaterMeter:MC0203J22010600005","2024-09-06T04:45:00",24.299,30.64384,0.23],
    [31612,"urn:WaterMeter:MC0203J22010600005","2024-09-06T05:00:00",24.2,30.624872,0.236],
    [31613,"urn:WaterMeter:MC0203J22010600005","2024-09-06T05:15:00",24.299,30.656681,0.227],
    [31614,"urn:WaterMeter:MC0203J22010600005","2024-09-06T05:30:00",24.399,30.73426,0.234],
    [31615,"urn:WaterMeter:MC0203J22010600005","2024-09-06T05:45:00",24.399,31.127552,0.245],
    [31616,"urn:WaterMeter:MC0203J22010600005","2024-09-06T06:00:00",24.399,31.742413,0.26],
    [31617,"urn:WaterMeter:MC0203J22010600005","2024-09-06T06:15:00",24.399,32.322323,0.262],
    [31618,"urn:WaterMeter:MC0203J22010600005","2024-09-06T06:30:00",24.399,32.62256,0.26],
    [31619,"urn:WaterMeter:MC0203J22010600005","2024-09-06T06:45:00",24.399,32.890984,0.263],
    [31620,"urn:WaterMeter:MC0203J22010600005","2024-09-06T07:00:00",24.5,33.0155,0.262],
    [31621,"urn:WaterMeter:MC0203J22010600005","2024-09-06T07:15:00",24.6,33.15049,0.261],
    [31622,"urn:WaterMeter:MC0203J22010600005","2024-09-06T07:30:00",24.6,33.299057,0.264],
    [31623,"urn:WaterMeter:MC0203J22010600005","2024-09-06T07:45:00",24.7,33.427837,0.269],
    [31624,"urn:WaterMeter:MC0203J22010600005","2024-09-06T08:00:00",24.799,33.49766,0.268],
    [31625,"urn:WaterMeter:MC0203J22010600005","2024-09-06T08:15:00",24.899,33.25716,0.274],
    [31626,"urn:WaterMeter:MC0203J22010600005","2024-09-06T08:30:00",24.899,32.911503,0.261],
    [31627,"urn:WaterMeter:MC0203J22010600005","2024-09-06T08:45:00",24.899,32.714104,0.276],
    [31628,"urn:WaterMeter:MC0203J22010600005","2024-09-06T09:00:00",25,32.666004,0.277],
    [31629,"urn:WaterMeter:MC0203J22010600005","2024-09-06T09:15:00",25.1,32.574844,0.253],
    [31630,"urn:WaterMeter:MC0203J22010600005","2024-09-06T09:30:00",25.2,32.48912,0.264],
    [31631,"urn:WaterMeter:MC0203J22010600005","2024-09-06T09:45:00",25.299,32.428997,0.266],
    [31632,"urn:WaterMeter:MC0203J22010600005","2024-09-06T10:00:00",25.399,32.39715,0.244],
    [31633,"urn:WaterMeter:MC0203J22010600005","2024-09-06T10:15:00",25.5,32.312237,0.269],
    [31634,"urn:WaterMeter:MC0203J22010600005","2024-09-06T10:30:00",25.6,32.2416,0.248],
    [31635,"urn:WaterMeter:MC0203J22010600005","2024-09-06T10:45:00",25.7,32.198196,0.257],
    [31636,"urn:WaterMeter:MC0203J22010600005","2024-09-06T11:00:00",25.899,32.125233,0.268],
    [31637,"urn:WaterMeter:MC0203J22010600005","2024-09-06T11:15:00",26.1,32.06088,0.25],
    [31638,"urn:WaterMeter:MC0203J22010600005","2024-09-06T11:30:00",26.299,32.04765,0.249],
    [31639,"urn:WaterMeter:MC0203J22010600005","2024-09-06T11:45:00",26.5,31.969296,0.24],
    [31640,"urn:WaterMeter:MC0203J22010600005","2024-09-06T12:00:00",26.6,31.882444,0.249],
    [31641,"urn:WaterMeter:MC0203J22010600005","2024-09-06T12:15:00",26.799,31.835857,0.251],
    [31642,"urn:WaterMeter:MC0203J22010600005","2024-09-06T12:30:00",26.799,31.773832,0.24],
    [31643,"urn:WaterMeter:MC0203J22010600005","2024-09-06T12:45:00",26.899,31.72418,0.247],
    [31644,"urn:WaterMeter:MC0203J22010600005","2024-09-06T13:00:00",27.1,31.67453,0.248],
    [31645,"urn:WaterMeter:MC0203J22010600005","2024-09-06T13:15:00",27.1,31.60273,0.239],
    [31646,"urn:WaterMeter:MC0203J22010600005","2024-09-06T13:30:00",27.2,31.583723,0.261],
    [31647,"urn:WaterMeter:MC0203J22010600005","2024-09-06T13:45:00",27.299,31.47515,0.245],
    [31648,"urn:WaterMeter:MC0203J22010600005","2024-09-06T14:00:00",27.399,31.458431,0.232],
    [31649,"urn:WaterMeter:MC0203J22010600005","2024-09-06T14:15:00",27.399,31.361456,0.23],
    [31650,"urn:WaterMeter:MC0203J22010600005","2024-09-06T14:30:00",27.399,31.327747,0.233],
    [31651,"urn:WaterMeter:MC0203J22010600005","2024-09-06T14:45:00",27.399,31.27379,0.241],
    [31652,"urn:WaterMeter:MC0203J22010600005","2024-09-06T15:00:00",27.5,31.248615,0.227],
    [31653,"urn:WaterMeter:MC0203J22010600005","2024-09-06T15:15:00",27.399,31.184612,0.253],
    [31654,"urn:WaterMeter:MC0203J22010600005","2024-09-06T15:30:00",27.399,31.144659,0.241],
    [31655,"urn:WaterMeter:MC0203J22010600005","2024-09-06T15:45:00",27.399,31.09074,0.248],
    [31656,"urn:WaterMeter:MC0203J22010600005","2024-09-06T16:00:00",27.299,31.060446,0.238],
    [31657,"urn:WaterMeter:MC0203J22010600005","2024-09-06T16:15:00",27.2,30.975534,0.24],
    [31658,"urn:WaterMeter:MC0203J22010600005","2024-09-06T16:30:00",27.1,30.994928,0.235],
    [31659,"urn:WaterMeter:MC0203J22010600005","2024-09-06T16:45:00",27,30.928211,0.237],
    [31660,"urn:WaterMeter:MC0203J22010600005","2024-09-06T17:00:00",26.899,30.940971,0.245],
    [31661,"urn:WaterMeter:MC0203J22010600005","2024-09-06T17:15:00",26.799,30.886705,0.234],
    [31662,"urn:WaterMeter:MC0203J22010600005","2024-09-06T17:30:00",26.7,30.895588,0.234],
    [31663,"urn:WaterMeter:MC0203J22010600005","2024-09-06T17:45:00",26.7,30.843649,0.251],
    [31664,"urn:WaterMeter:MC0203J22010600005","2024-09-06T18:00:00",26.6,30.816107,0.227],
    [31665,"urn:WaterMeter:MC0203J22010600005","2024-09-06T18:15:00",26.5,30.817232,0.24],
    [31666,"urn:WaterMeter:MC0203J22010600005","2024-09-06T18:30:00",26.399,30.821926,0.238],
    [31667,"urn:WaterMeter:MC0203J22010600005","2024-09-06T18:45:00",26.299,30.78973,0.236],
    [31668,"urn:WaterMeter:MC0203J22010600005","2024-09-06T19:00:00",26.2,30.74551,0.239],
    [31669,"urn:WaterMeter:MC0203J22010600005","2024-09-06T19:15:00",26.1,30.75094,0.237],
    [31670,"urn:WaterMeter:MC0203J22010600005","2024-09-06T19:30:00",26,30.75443,0.233],
    [31671,"urn:WaterMeter:MC0203J22010600005","2024-09-06T19:45:00",25.899,30.7618,0.251],
    [31672,"urn:WaterMeter:MC0203J22010600005","2024-09-06T20:00:00",25.899,30.748573,0.254],
    [31673,"urn:WaterMeter:MC0203J22010600005","2024-09-06T20:15:00",25.799,30.745897,0.233],
    [31674,"urn:WaterMeter:MC0203J22010600005","2024-09-06T20:30:00",25.7,30.688488,0.236],
    [31675,"urn:WaterMeter:MC0203J22010600005","2024-09-06T20:45:00",25.7,30.701637,0.241],
    [31676,"urn:WaterMeter:MC0203J22010600005","2024-09-06T21:00:00",25.6,30.727627,0.253],
    [31677,"urn:WaterMeter:MC0203J22010600005","2024-09-06T21:15:00",25.6,30.725338,0.235],
    [31678,"urn:WaterMeter:MC0203J22010600005","2024-09-06T21:30:00",25.5,30.710947,0.245],
    [31679,"urn:WaterMeter:MC0203J22010600005","2024-09-06T21:45:00",25.5,30.715254,0.249],
    [31680,"urn:WaterMeter:MC0203J22010600005","2024-09-06T22:00:00",25.399,30.691164,0.234],
    [31681,"urn:WaterMeter:MC0203J22010600005","2024-09-06T22:15:00",25.399,30.683834,0.228],
    [31682,"urn:WaterMeter:MC0203J22010600005","2024-09-06T22:30:00",25.399,30.683445,0.24],
    [31683,"urn:WaterMeter:MC0203J22010600005","2024-09-06T22:45:00",25.299,30.71409,0.233],
    [31684,"urn:WaterMeter:MC0203J22010600005","2024-09-06T23:00:00",25.299,30.699348,0.232],
    [31685,"urn:WaterMeter:MC0203J22010600005","2024-09-06T23:15:00",25.299,30.673748,0.232],
    [31686,"urn:WaterMeter:MC0203J22010600005","2024-09-06T23:30:00",25.2,30.640388,0.253],
    [31687,"urn:WaterMeter:MC0203J22010600005","2024-09-06T23:45:00",25.2,30.648922,0.232],
    [31688,"urn:WaterMeter:MC0203J22010600005","2024-09-07T00:00:00",25.2,30.671381,0.229],
    [31689,"urn:WaterMeter:MC0203J22010600005","2024-09-07T00:15:00",25.2,30.662071,0.234],
    [31690,"urn:WaterMeter:MC0203J22010600005","2024-09-07T00:30:00",25.1,30.621769,0.23],
    [31691,"urn:WaterMeter:MC0203J22010600005","2024-09-07T00:45:00",25.1,30.594965,0.25],
    [31692,"urn:WaterMeter:MC0203J22010600005","2024-09-07T01:00:00",25.1,30.637672,0.246],
    [31693,"urn:WaterMeter:MC0203J22010600005","2024-09-07T01:15:00",25.1,30.618666,0.242],
    [31694,"urn:WaterMeter:MC0203J22010600005","2024-09-07T01:30:00",25,30.630651,0.232],
    [31695,"urn:WaterMeter:MC0203J22010600005","2024-09-07T01:45:00",25,30.596169,0.241],
    [31696,"urn:WaterMeter:MC0203J22010600005","2024-09-07T02:00:00",24.899,30.577936,0.234],
    [31697,"urn:WaterMeter:MC0203J22010600005","2024-09-07T02:15:00",24.799,30.58488,0.233],
    [31698,"urn:WaterMeter:MC0203J22010600005","2024-09-07T02:30:00",24.799,30.619442,0.234],
    [31699,"urn:WaterMeter:MC0203J22010600005","2024-09-07T02:45:00",24.7,30.591125,0.225],
    [31700,"urn:WaterMeter:MC0203J22010600005","2024-09-07T03:00:00",24.6,30.585268,0.23],
    [31701,"urn:WaterMeter:MC0203J22010600005","2024-09-07T03:15:00",24.5,30.56436,0.234],
    [31702,"urn:WaterMeter:MC0203J22010600005","2024-09-07T03:30:00",24.399,30.579489,0.23],
    [31703,"urn:WaterMeter:MC0203J22010600005","2024-09-07T03:45:00",24.299,30.578712,0.225],
    [31704,"urn:WaterMeter:MC0203J22010600005","2024-09-07T04:00:00",24.2,30.555788,0.225],
    [31705,"urn:WaterMeter:MC0203J22010600005","2024-09-07T04:15:00",24.2,30.539146,0.227],
    [31706,"urn:WaterMeter:MC0203J22010600005","2024-09-07T04:30:00",24.1,30.513157,0.232],
    [31707,"urn:WaterMeter:MC0203J22010600005","2024-09-07T04:45:00",24,30.552336,0.239],
    [31708,"urn:WaterMeter:MC0203J22010600005","2024-09-07T05:00:00",23.899,30.54609,0.235],
    [31709,"urn:WaterMeter:MC0203J22010600005","2024-09-07T05:15:00",23.799,30.55893,0.226],
    [31710,"urn:WaterMeter:MC0203J22010600005","2024-09-07T05:30:00",23.7,30.569403,0.23],
    [31711,"urn:WaterMeter:MC0203J22010600005","2024-09-07T05:45:00",23.7,30.545315,0.23],
    [31712,"urn:WaterMeter:MC0203J22010600005","2024-09-07T06:00:00",23.6,30.526695,0.232],
    [31713,"urn:WaterMeter:MC0203J22010600005","2024-09-07T06:15:00",23.6,30.540699,0.248],
    [31714,"urn:WaterMeter:MC0203J22010600005","2024-09-07T06:30:00",23.5,30.50889,0.226],
    [31715,"urn:WaterMeter:MC0203J22010600005","2024-09-07T06:45:00",23.5,30.509666,0.234],
    [31716,"urn:WaterMeter:MC0203J22010600005","2024-09-07T07:00:00",23.5,30.506525,0.23],
    [31717,"urn:WaterMeter:MC0203J22010600005","2024-09-07T07:15:00",23.6,30.530613,0.232],
    [31718,"urn:WaterMeter:MC0203J22010600005","2024-09-07T07:30:00",23.6,30.502684,0.236],
    [31719,"urn:WaterMeter:MC0203J22010600005","2024-09-07T07:45:00",23.7,30.449116,0.224],
    [31720,"urn:WaterMeter:MC0203J22010600005","2024-09-07T08:00:00",23.7,30.461567,0.224],
    [31721,"urn:WaterMeter:MC0203J22010600005","2024-09-07T08:15:00",23.799,30.460014,0.247],
    [31722,"urn:WaterMeter:MC0203J22010600005","2024-09-07T08:30:00",24,30.419634,0.224],
    [31723,"urn:WaterMeter:MC0203J22010600005","2024-09-07T08:45:00",24.1,30.373514,0.223],
    [31724,"urn:WaterMeter:MC0203J22010600005","2024-09-07T09:00:00",24.2,30.306406,0.233],
    [31725,"urn:WaterMeter:MC0203J22010600005","2024-09-07T09:15:00",24.399,30.331232,0.219],
    [31726,"urn:WaterMeter:MC0203J22010600005","2024-09-07T09:30:00",24.5,30.304855,0.22],
    [31727,"urn:WaterMeter:MC0203J22010600005","2024-09-07T09:45:00",24.5,30.272272,0.22],
    [31728,"urn:WaterMeter:MC0203J22010600005","2024-09-07T10:00:00",24.6,30.240076,0.218],
    [31729,"urn:WaterMeter:MC0203J22010600005","2024-09-07T10:15:00",24.7,30.1303,0.22],
    [31730,"urn:WaterMeter:MC0203J22010600005","2024-09-07T10:30:00",24.899,30.105474,0.23],
    [31731,"urn:WaterMeter:MC0203J22010600005","2024-09-07T10:45:00",25,30.092285,0.231],
    [31732,"urn:WaterMeter:MC0203J22010600005","2024-09-07T11:00:00",25.1,30.000353,0.216],
    [31733,"urn:WaterMeter:MC0203J22010600005","2024-09-07T11:15:00",25.2,30.010012,0.224],
    [31734,"urn:WaterMeter:MC0203J22010600005","2024-09-07T11:30:00",25.299,29.95691,0.224],
    [31735,"urn:WaterMeter:MC0203J22010600005","2024-09-07T11:45:00",25.5,29.902214,0.227],
    [31736,"urn:WaterMeter:MC0203J22010600005","2024-09-07T12:00:00",25.5,29.81261,0.219],
    [31737,"urn:WaterMeter:MC0203J22010600005","2024-09-07T12:15:00",25.6,29.821531,0.22],
    [31738,"urn:WaterMeter:MC0203J22010600005","2024-09-07T12:30:00",25.7,29.736193,0.214],
    [31739,"urn:WaterMeter:MC0203J22010600005","2024-09-07T12:45:00",25.799,29.676456,0.235],
    [31740,"urn:WaterMeter:MC0203J22010600005","2024-09-07T13:00:00",25.899,29.61323,0.211],
    [31741,"urn:WaterMeter:MC0203J22010600005","2024-09-07T13:15:00",26,29.57634,0.214],
    [31742,"urn:WaterMeter:MC0203J22010600005","2024-09-07T13:30:00",26,29.554268,0.236],
    [31743,"urn:WaterMeter:MC0203J22010600005","2024-09-07T13:45:00",26,29.466951,0.223],
    [31744,"urn:WaterMeter:MC0203J22010600005","2024-09-07T14:00:00",26.1,29.447208,0.213],
    [31745,"urn:WaterMeter:MC0203J22010600005","2024-09-07T14:15:00",26.1,29.371141,0.218],
    [31746,"urn:WaterMeter:MC0203J22010600005","2024-09-07T14:30:00",26.2,29.313732,0.226],
    [31747,"urn:WaterMeter:MC0203J22010600005","2024-09-07T14:45:00",26.2,29.255547,0.211],
    [31748,"urn:WaterMeter:MC0203J22010600005","2024-09-07T15:00:00",26.299,29.22723,0.212],
    [31749,"urn:WaterMeter:MC0203J22010600005","2024-09-07T15:15:00",26.299,29.159735,0.208],
    [31750,"urn:WaterMeter:MC0203J22010600005","2024-09-07T15:30:00",26.399,29.124475,0.207],
    [31751,"urn:WaterMeter:MC0203J22010600005","2024-09-07T15:45:00",26.399,29.056206,0.174],
    [31752,"urn:WaterMeter:MC0203J22010600005","2024-09-07T16:00:00",26.399,29.010044,0.209],
    [31753,"urn:WaterMeter:MC0203J22010600005","2024-09-07T16:15:00",26.399,28.960394,0.206],
    [31754,"urn:WaterMeter:MC0203J22010600005","2024-09-07T16:30:00",26.399,28.95186,0.205],
    [31755,"urn:WaterMeter:MC0203J22010600005","2024-09-07T16:45:00",26.399,28.92583,0.204],
    [31756,"urn:WaterMeter:MC0203J22010600005","2024-09-07T17:00:00",26.399,28.894062,0.208],
    [31757,"urn:WaterMeter:MC0203J22010600005","2024-09-07T17:15:00",26.399,28.851782,0.211],
    [31758,"urn:WaterMeter:MC0203J22010600005","2024-09-07T17:30:00",26.399,28.810238,0.209],
    [31759,"urn:WaterMeter:MC0203J22010600005","2024-09-07T17:45:00",26.299,28.813766,0.218],
    [31760,"urn:WaterMeter:MC0203J22010600005","2024-09-07T18:00:00",26.299,28.800152,0.22],
    [31761,"urn:WaterMeter:MC0203J22010600005","2024-09-07T18:15:00",26.2,28.786613,0.197],
    [31762,"urn:WaterMeter:MC0203J22010600005","2024-09-07T18:30:00",26.2,28.76722,0.207],
    [31763,"urn:WaterMeter:MC0203J22010600005","2024-09-07T18:45:00",26.1,28.803682,0.204],
    [31764,"urn:WaterMeter:MC0203J22010600005","2024-09-07T19:00:00",26,28.760237,0.201],
    [31765,"urn:WaterMeter:MC0203J22010600005","2024-09-07T19:15:00",26,28.702053,0.217],
    [31766,"urn:WaterMeter:MC0203J22010600005","2024-09-07T19:30:00",25.899,28.736187,0.213],
    [31767,"urn:WaterMeter:MC0203J22010600005","2024-09-07T19:45:00",25.799,28.73386,0.202],
    [31768,"urn:WaterMeter:MC0203J22010600005","2024-09-07T20:00:00",25.7,28.741966,0.226],
    [31769,"urn:WaterMeter:MC0203J22010600005","2024-09-07T20:15:00",25.7,28.695457,0.202],
    [31770,"urn:WaterMeter:MC0203J22010600005","2024-09-07T20:30:00",25.6,28.67486,0.21],
    [31771,"urn:WaterMeter:MC0203J22010600005","2024-09-07T20:45:00",25.5,28.680717,0.21],
    [31772,"urn:WaterMeter:MC0203J22010600005","2024-09-07T21:00:00",25.5,28.677227,0.198],
    [31773,"urn:WaterMeter:MC0203J22010600005","2024-09-07T21:15:00",25.399,28.67102,0.208],
    [31774,"urn:WaterMeter:MC0203J22010600005","2024-09-07T21:30:00",25.399,28.658607,0.209],
    [31775,"urn:WaterMeter:MC0203J22010600005","2024-09-07T21:45:00",25.299,28.650461,0.213],
    [31776,"urn:WaterMeter:MC0203J22010600005","2024-09-07T22:00:00",25.299,28.644993,0.206],
    [31777,"urn:WaterMeter:MC0203J22010600005","2024-09-07T22:15:00",25.299,28.631454,0.224],
    [31778,"urn:WaterMeter:MC0203J22010600005","2024-09-07T22:30:00",25.2,28.647747,0.21],
    [31779,"urn:WaterMeter:MC0203J22010600005","2024-09-07T22:45:00",25.2,28.627575,0.214],
    [31780,"urn:WaterMeter:MC0203J22010600005","2024-09-07T23:00:00",25.1,28.581802,0.202],
    [31781,"urn:WaterMeter:MC0203J22010600005","2024-09-07T23:15:00",25.1,28.59728,0.201],
    [31782,"urn:WaterMeter:MC0203J22010600005","2024-09-07T23:30:00",25.1,28.582191,0.2],
    [31783,"urn:WaterMeter:MC0203J22010600005","2024-09-07T23:45:00",25,28.572495,0.203],
    [31784,"urn:WaterMeter:MC0203J22010600005","2024-09-08T00:00:00",25,28.548018,0.209],
    [31785,"urn:WaterMeter:MC0203J22010600005","2024-09-08T00:15:00",24.799,28.53254,0.2],
    [31786,"urn:WaterMeter:MC0203J22010600005","2024-09-08T00:30:00",24.7,28.51237,0.199],
    [31787,"urn:WaterMeter:MC0203J22010600005","2024-09-08T00:45:00",24.7,28.570555,0.199],
    [31788,"urn:WaterMeter:MC0203J22010600005","2024-09-08T01:00:00",24.6,28.505,0.214],
    [31789,"urn:WaterMeter:MC0203J22010600005","2024-09-08T01:15:00",24.6,28.52711,0.198],
    [31790,"urn:WaterMeter:MC0203J22010600005","2024-09-08T01:30:00",24.6,28.50849,0.194],
    [31791,"urn:WaterMeter:MC0203J22010600005","2024-09-08T01:45:00",24.6,28.496077,0.2],
    [31792,"urn:WaterMeter:MC0203J22010600005","2024-09-08T02:00:00",24.5,28.510817,0.204],
    [31793,"urn:WaterMeter:MC0203J22010600005","2024-09-08T02:15:00",24.399,28.49569,0.196],
    [31794,"urn:WaterMeter:MC0203J22010600005","2024-09-08T02:30:00",24.399,28.484829,0.201],
    [31795,"urn:WaterMeter:MC0203J22010600005","2024-09-08T02:45:00",24.299,28.504612,0.197],
    [31796,"urn:WaterMeter:MC0203J22010600005","2024-09-08T03:00:00",24.299,28.491423,0.212],
    [31797,"urn:WaterMeter:MC0203J22010600005","2024-09-08T03:15:00",24.299,28.480135,0.199],
    [31798,"urn:WaterMeter:MC0203J22010600005","2024-09-08T03:30:00",24.299,28.465433,0.199],
    [31799,"urn:WaterMeter:MC0203J22010600005","2024-09-08T03:45:00",24.299,28.506939,0.196],
    [31800,"urn:WaterMeter:MC0203J22010600005","2024-09-08T04:00:00",24.2,28.449917,0.219],
    [31801,"urn:WaterMeter:MC0203J22010600005","2024-09-08T04:15:00",24.2,28.47319,0.203],
    [31802,"urn:WaterMeter:MC0203J22010600005","2024-09-08T04:30:00",24.2,28.472027,0.206],
    [31803,"urn:WaterMeter:MC0203J22010600005","2024-09-08T04:45:00",24.1,28.466986,0.219],
    [31804,"urn:WaterMeter:MC0203J22010600005","2024-09-08T05:00:00",24.1,28.44953,0.208],
    [31805,"urn:WaterMeter:MC0203J22010600005","2024-09-08T05:15:00",24.1,28.476294,0.207],
    [31806,"urn:WaterMeter:MC0203J22010600005","2024-09-08T05:30:00",24.1,28.446426,0.197],
    [31807,"urn:WaterMeter:MC0203J22010600005","2024-09-08T05:45:00",24.1,28.406473,0.211],
    [31808,"urn:WaterMeter:MC0203J22010600005","2024-09-08T06:00:00",24.1,28.41423,0.2],
    [31809,"urn:WaterMeter:MC0203J22010600005","2024-09-08T06:15:00",24,28.472027,0.213],
    [31810,"urn:WaterMeter:MC0203J22010600005","2024-09-08T06:30:00",24,28.43479,0.193],
    [31811,"urn:WaterMeter:MC0203J22010600005","2024-09-08T06:45:00",24,28.461515,0.213],
    [31812,"urn:WaterMeter:MC0203J22010600005","2024-09-08T07:00:00",24,28.478582,0.212],
    [31813,"urn:WaterMeter:MC0203J22010600005","2024-09-08T07:15:00",23.899,28.432423,0.199],
    [31814,"urn:WaterMeter:MC0203J22010600005","2024-09-08T07:30:00",23.899,28.409576,0.201],
    [31815,"urn:WaterMeter:MC0203J22010600005","2024-09-08T07:45:00",24,28.40333,0.197],
    [31816,"urn:WaterMeter:MC0203J22010600005","2024-09-08T08:00:00",24,28.407637,0.209],
    [31817,"urn:WaterMeter:MC0203J22010600005","2024-09-08T08:15:00",24,28.408024,0.213],
    [31818,"urn:WaterMeter:MC0203J22010600005","2024-09-08T08:30:00",24,28.41423,0.194],
    [31819,"urn:WaterMeter:MC0203J22010600005","2024-09-08T08:45:00",24.1,28.38475,0.205],
    [31820,"urn:WaterMeter:MC0203J22010600005","2024-09-08T09:00:00",24.1,28.383936,0.2],
    [31821,"urn:WaterMeter:MC0203J22010600005","2024-09-08T09:15:00",24.2,28.332384,0.212],
    [31822,"urn:WaterMeter:MC0203J22010600005","2024-09-08T09:30:00",24.299,28.307558,0.199],
    [31823,"urn:WaterMeter:MC0203J22010600005","2024-09-08T09:45:00",24.399,28.283508,0.198],
    [31824,"urn:WaterMeter:MC0203J22010600005","2024-09-08T10:00:00",24.6,28.22028,0.19],
    [31825,"urn:WaterMeter:MC0203J22010600005","2024-09-08T10:15:00",24.7,28.211746,0.197],
    [31826,"urn:WaterMeter:MC0203J22010600005","2024-09-08T10:30:00",24.799,28.177223,0.194],
    [31827,"urn:WaterMeter:MC0203J22010600005","2024-09-08T10:45:00",24.899,28.095764,0.194],
    [31828,"urn:WaterMeter:MC0203J22010600005","2024-09-08T11:00:00",25.1,28.05581,0.208],
    [31829,"urn:WaterMeter:MC0203J22010600005","2024-09-08T11:15:00",25.2,27.963879,0.202],
    [31830,"urn:WaterMeter:MC0203J22010600005","2024-09-08T11:30:00",25.299,27.913063,0.187],
    [31831,"urn:WaterMeter:MC0203J22010600005","2024-09-08T11:45:00",25.5,27.885523,0.193],
    [31832,"urn:WaterMeter:MC0203J22010600005","2024-09-08T12:00:00",25.799,27.793203,0.196],
    [31833,"urn:WaterMeter:MC0203J22010600005","2024-09-08T12:15:00",25.899,27.74937,0.196],
    [31834,"urn:WaterMeter:MC0203J22010600005","2024-09-08T12:30:00",25.899,27.709415,0.198],
    [31835,"urn:WaterMeter:MC0203J22010600005","2024-09-08T12:45:00",26,27.631836,0.203],
    [31836,"urn:WaterMeter:MC0203J22010600005","2024-09-08T13:00:00",26.1,27.615156,0.186],
    [31837,"urn:WaterMeter:MC0203J22010600005","2024-09-08T13:15:00",26.2,27.496458,0.195],
    [31838,"urn:WaterMeter:MC0203J22010600005","2024-09-08T13:30:00",26.2,27.478228,0.186],
    [31839,"urn:WaterMeter:MC0203J22010600005","2024-09-08T13:45:00",26.2,27.408794,0.188],
    [31840,"urn:WaterMeter:MC0203J22010600005","2024-09-08T14:00:00",26.2,27.359142,0.186],
    [31841,"urn:WaterMeter:MC0203J22010600005","2024-09-08T14:15:00",26.299,27.25441,0.182],
    [31842,"urn:WaterMeter:MC0203J22010600005","2024-09-08T14:30:00",26.5,27.1989,0.198],
    [31843,"urn:WaterMeter:MC0203J22010600005","2024-09-08T14:45:00",26.6,27.118256,0.208],
    [31844,"urn:WaterMeter:MC0203J22010600005","2024-09-08T15:00:00",26.7,27.051538,0.194],
    [31845,"urn:WaterMeter:MC0203J22010600005","2024-09-08T15:15:00",26.7,26.95724,0.181],
    [31846,"urn:WaterMeter:MC0203J22010600005","2024-09-08T15:30:00",26.7,26.888193,0.177],
    [31847,"urn:WaterMeter:MC0203J22010600005","2024-09-08T15:45:00",26.799,26.787766,0.183],
    [31848,"urn:WaterMeter:MC0203J22010600005","2024-09-08T16:00:00",26.799,26.735361,0.184],
    [31849,"urn:WaterMeter:MC0203J22010600005","2024-09-08T16:15:00",26.799,26.69855,0.177],
    [31850,"urn:WaterMeter:MC0203J22010600005","2024-09-08T16:30:00",26.799,26.678377,0.177],
    [31851,"urn:WaterMeter:MC0203J22010600005","2024-09-08T16:45:00",26.799,26.603514,0.182],
    [31852,"urn:WaterMeter:MC0203J22010600005","2024-09-08T17:00:00",26.799,26.526709,0.18],
    [31853,"urn:WaterMeter:MC0203J22010600005","2024-09-08T17:15:00",26.799,26.517788,0.179],
    [31854,"urn:WaterMeter:MC0203J22010600005","2024-09-08T17:30:00",26.7,26.486368,0.188],
    [31855,"urn:WaterMeter:MC0203J22010600005","2024-09-08T17:45:00",26.7,26.47861,0.173],
    [31856,"urn:WaterMeter:MC0203J22010600005","2024-09-08T18:00:00",26.6,26.405258,0.194],
    [31857,"urn:WaterMeter:MC0203J22010600005","2024-09-08T18:15:00",26.5,26.373877,0.181],
    [31858,"urn:WaterMeter:MC0203J22010600005","2024-09-08T18:30:00",26.399,26.409176,0.183],
    [31859,"urn:WaterMeter:MC0203J22010600005","2024-09-08T18:45:00",26.299,26.414568,0.177],
    [31860,"urn:WaterMeter:MC0203J22010600005","2024-09-08T19:00:00",26.299,26.394785,0.182],
    [31861,"urn:WaterMeter:MC0203J22010600005","2024-09-08T19:15:00",26.2,26.372713,0.173],
    [31862,"urn:WaterMeter:MC0203J22010600005","2024-09-08T19:30:00",26.1,26.366468,0.178],
    [31863,"urn:WaterMeter:MC0203J22010600005","2024-09-08T19:45:00",25.899,26.354094,0.185],
    [31864,"urn:WaterMeter:MC0203J22010600005","2024-09-08T20:00:00",25.799,26.36224,0.171],
    [31865,"urn:WaterMeter:MC0203J22010600005","2024-09-08T20:15:00",25.6,26.353706,0.179],
    [31866,"urn:WaterMeter:MC0203J22010600005","2024-09-08T20:30:00",25.5,26.38047,0.178],
    [31867,"urn:WaterMeter:MC0203J22010600005","2024-09-08T20:45:00",25.399,26.355644,0.189],
    [31868,"urn:WaterMeter:MC0203J22010600005","2024-09-08T21:00:00",25.399,26.341293,0.178],
    [31869,"urn:WaterMeter:MC0203J22010600005","2024-09-08T21:15:00",25.2,26.363403,0.175],
    [31870,"urn:WaterMeter:MC0203J22010600005","2024-09-08T21:30:00",25.1,26.355257,0.182],
    [31871,"urn:WaterMeter:MC0203J22010600005","2024-09-08T21:45:00",24.899,26.333147,0.179],
    [31872,"urn:WaterMeter:MC0203J22010600005","2024-09-08T22:00:00",24.799,26.333147,0.174],
    [31873,"urn:WaterMeter:MC0203J22010600005","2024-09-08T22:15:00",24.7,26.370773,0.177],
    [31874,"urn:WaterMeter:MC0203J22010600005","2024-09-08T22:30:00",24.6,26.329657,0.18],
    [31875,"urn:WaterMeter:MC0203J22010600005","2024-09-08T22:45:00",24.5,26.33237,0.188],
    [31876,"urn:WaterMeter:MC0203J22010600005","2024-09-08T23:00:00",24.399,26.325739,0.179],
    [31877,"urn:WaterMeter:MC0203J22010600005","2024-09-08T23:15:00",24.299,26.342068,0.177],
    [31878,"urn:WaterMeter:MC0203J22010600005","2024-09-08T23:30:00",24.2,26.33276,0.175],
    [31879,"urn:WaterMeter:MC0203J22010600005","2024-09-08T23:45:00",24.1,26.2885,0.187],
    [31880,"urn:WaterMeter:MC0203J22010600005","2024-09-09T00:00:00",23.899,26.322287,0.192],
    [31881,"urn:WaterMeter:MC0203J22010600005","2024-09-09T00:15:00",23.799,26.303667,0.176],
    [31882,"urn:WaterMeter:MC0203J22010600005","2024-09-09T00:30:00",23.6,26.33431,0.188],
    [31883,"urn:WaterMeter:MC0203J22010600005","2024-09-09T00:45:00",23.5,26.348663,0.178],
    [31884,"urn:WaterMeter:MC0203J22010600005","2024-09-09T01:00:00",23.399,26.326902,0.182],
    [31885,"urn:WaterMeter:MC0203J22010600005","2024-09-09T01:15:00",23.299,26.295134,0.185],
    [31886,"urn:WaterMeter:MC0203J22010600005","2024-09-09T01:30:00",23.1,26.355993,0.171],
    [31887,"urn:WaterMeter:MC0203J22010600005","2024-09-09T01:45:00",23,26.324614,0.174],
    [31888,"urn:WaterMeter:MC0203J22010600005","2024-09-09T02:00:00",22.899,26.30906,0.173],
    [31889,"urn:WaterMeter:MC0203J22010600005","2024-09-09T02:15:00",22.899,26.32345,0.177],
    [31890,"urn:WaterMeter:MC0203J22010600005","2024-09-09T02:30:00",22.799,26.322674,0.176],
    [31891,"urn:WaterMeter:MC0203J22010600005","2024-09-09T02:45:00",22.799,26.33431,0.185],
    [31892,"urn:WaterMeter:MC0203J22010600005","2024-09-09T03:00:00",22.7,26.302114,0.177],
    [31893,"urn:WaterMeter:MC0203J22010600005","2024-09-09T03:15:00",22.6,26.295134,0.177],
    [31894,"urn:WaterMeter:MC0203J22010600005","2024-09-09T03:30:00",22.5,26.289663,0.171],
    [31895,"urn:WaterMeter:MC0203J22010600005","2024-09-09T03:45:00",22.399,26.31026,0.175],
    [31896,"urn:WaterMeter:MC0203J22010600005","2024-09-09T04:00:00",22.299,26.31608,0.177],
    [31897,"urn:WaterMeter:MC0203J22010600005","2024-09-09T04:15:00",22.2,26.283108,0.181],
    [31898,"urn:WaterMeter:MC0203J22010600005","2024-09-09T04:30:00",22.1,26.31608,0.179],
    [31899,"urn:WaterMeter:MC0203J22010600005","2024-09-09T04:45:00",22,26.297071,0.171],
    [31900,"urn:WaterMeter:MC0203J22010600005","2024-09-09T05:00:00",21.899,26.278414,0.181],
    [31901,"urn:WaterMeter:MC0203J22010600005","2024-09-09T05:15:00",22,26.250484,0.174],
    [31902,"urn:WaterMeter:MC0203J22010600005","2024-09-09T05:30:00",22.2,26.254015,0.17],
    [31903,"urn:WaterMeter:MC0203J22010600005","2024-09-09T05:45:00",22.2,26.326513,0.171],
    [31904,"urn:WaterMeter:MC0203J22010600005","2024-09-09T06:00:00",22.299,26.283108,0.18],
    [31905,"urn:WaterMeter:MC0203J22010600005","2024-09-09T06:15:00",22.399,26.27919,0.167],
    [31906,"urn:WaterMeter:MC0203J22010600005","2024-09-09T06:30:00",22.399,26.25902,0.173],
    [31907,"urn:WaterMeter:MC0203J22010600005","2024-09-09T06:45:00",22.5,26.458826,0.185],
    [31908,"urn:WaterMeter:MC0203J22010600005","2024-09-09T07:00:00",22.6,27.675241,0.21],
    [31909,"urn:WaterMeter:MC0203J22010600005","2024-09-09T07:15:00",22.7,29.28619,0.221],
    [31910,"urn:WaterMeter:MC0203J22010600005","2024-09-09T07:30:00",22.799,30.376228,0.24],
    [31911,"urn:WaterMeter:MC0203J22010600005","2024-09-09T07:45:00",23,31.270687,0.24],
    [31912,"urn:WaterMeter:MC0203J22010600005","2024-09-09T08:00:00",23.1,31.762972,0.245],
    [31913,"urn:WaterMeter:MC0203J22010600005","2024-09-09T08:15:00",23.1,31.802536,0.249],
    [31914,"urn:WaterMeter:MC0203J22010600005","2024-09-09T08:30:00",23.2,31.750946,0.235],
    [31915,"urn:WaterMeter:MC0203J22010600005","2024-09-09T08:45:00",23.299,31.72651,0.231],
    [31916,"urn:WaterMeter:MC0203J22010600005","2024-09-09T09:00:00",23.399,31.685003,0.257],
    [31917,"urn:WaterMeter:MC0203J22010600005","2024-09-09T09:15:00",23.6,31.644274,0.228],
    [31918,"urn:WaterMeter:MC0203J22010600005","2024-09-09T09:30:00",23.7,31.645437,0.244],
    [31919,"urn:WaterMeter:MC0203J22010600005","2024-09-09T09:45:00",23.899,31.541868,0.236],
    [31920,"urn:WaterMeter:MC0203J22010600005","2024-09-09T10:00:00",24.1,31.530619,0.241],
    [31921,"urn:WaterMeter:MC0203J22010600005","2024-09-09T10:15:00",24.299,31.450712,0.229],
    [31922,"urn:WaterMeter:MC0203J22010600005","2024-09-09T10:30:00",24.399,31.405716,0.231],
    [31923,"urn:WaterMeter:MC0203J22010600005","2024-09-09T10:45:00",24.6,31.341286,0.247],
    [31924,"urn:WaterMeter:MC0203J22010600005","2024-09-09T11:00:00",24.7,31.280035,0.236],
    [31925,"urn:WaterMeter:MC0203J22010600005","2024-09-09T11:15:00",24.899,31.230385,0.23],
    [31926,"urn:WaterMeter:MC0203J22010600005","2024-09-09T11:30:00",25.1,31.218748,0.226],
    [31927,"urn:WaterMeter:MC0203J22010600005","2024-09-09T11:45:00",25.299,31.174875,0.248],
    [31928,"urn:WaterMeter:MC0203J22010600005","2024-09-09T12:00:00",25.5,31.137638,0.22],
    [31929,"urn:WaterMeter:MC0203J22010600005","2024-09-09T12:15:00",25.6,31.043028,0.215],
    [31930,"urn:WaterMeter:MC0203J22010600005","2024-09-09T12:30:00",25.799,30.946054,0.229],
    [31931,"urn:WaterMeter:MC0203J22010600005","2024-09-09T12:45:00",25.899,30.93399,0.236],
    [31932,"urn:WaterMeter:MC0203J22010600005","2024-09-09T13:00:00",26,30.879723,0.23],
    [31933,"urn:WaterMeter:MC0203J22010600005","2024-09-09T13:15:00",26.1,30.817232,0.231],
    [31934,"urn:WaterMeter:MC0203J22010600005","2024-09-09T13:30:00",26.1,30.757534,0.221],
    [31935,"urn:WaterMeter:MC0203J22010600005","2024-09-09T13:45:00",26.2,30.702026,0.237],
    [31936,"urn:WaterMeter:MC0203J22010600005","2024-09-09T14:00:00",26.2,30.663662,0.231],
    [31937,"urn:WaterMeter:MC0203J22010600005","2024-09-09T14:15:00",26.299,30.625648,0.224],
    [31938,"urn:WaterMeter:MC0203J22010600005","2024-09-09T14:30:00",26.299,30.562809,0.234],
    [31939,"urn:WaterMeter:MC0203J22010600005","2024-09-09T14:45:00",26.399,30.525919,0.214],
    [31940,"urn:WaterMeter:MC0203J22010600005","2024-09-09T15:00:00",26.399,30.441784,0.214],
    [31941,"urn:WaterMeter:MC0203J22010600005","2024-09-09T15:15:00",26.399,30.422,0.22],
    [31942,"urn:WaterMeter:MC0203J22010600005","2024-09-09T15:30:00",26.399,30.385538,0.228],
    [31943,"urn:WaterMeter:MC0203J22010600005","2024-09-09T15:45:00",26.5,30.304855,0.217],
    [31944,"urn:WaterMeter:MC0203J22010600005","2024-09-09T16:00:00",26.5,30.259083,0.231],
    [31945,"urn:WaterMeter:MC0203J22010600005","2024-09-09T16:15:00",26.399,30.23387,0.212],
    [31946,"urn:WaterMeter:MC0203J22010600005","2024-09-09T16:30:00",26.299,30.203962,0.215],
    [31947,"urn:WaterMeter:MC0203J22010600005","2024-09-09T16:45:00",26.299,30.173357,0.214],
    [31948,"urn:WaterMeter:MC0203J22010600005","2024-09-09T17:00:00",26.2,30.162884,0.217],
    [31949,"urn:WaterMeter:MC0203J22010600005","2024-09-09T17:15:00",26.1,30.140385,0.223],
    [31950,"urn:WaterMeter:MC0203J22010600005","2024-09-09T17:30:00",26.1,30.119013,0.227],
    [31951,"urn:WaterMeter:MC0203J22010600005","2024-09-09T17:45:00",26,30.079834,0.222],
    [31952,"urn:WaterMeter:MC0203J22010600005","2024-09-09T18:00:00",25.899,30.091084,0.214],
    [31953,"urn:WaterMeter:MC0203J22010600005","2024-09-09T18:15:00",25.799,30.082975,0.212],
    [31954,"urn:WaterMeter:MC0203J22010600005","2024-09-09T18:30:00",25.7,30.03251,0.212],
    [31955,"urn:WaterMeter:MC0203J22010600005","2024-09-09T18:45:00",25.6,30.039919,0.22],
    [31956,"urn:WaterMeter:MC0203J22010600005","2024-09-09T19:00:00",25.5,30.019749,0.216],
    [31957,"urn:WaterMeter:MC0203J22010600005","2024-09-09T19:15:00",25.399,30.001516,0.218],
    [31958,"urn:WaterMeter:MC0203J22010600005","2024-09-09T19:30:00",25.299,29.96971,0.22],
    [31959,"urn:WaterMeter:MC0203J22010600005","2024-09-09T19:45:00",25.2,30.013504,0.22],
    [31960,"urn:WaterMeter:MC0203J22010600005","2024-09-09T20:00:00",25.2,29.974712,0.216],
    [31961,"urn:WaterMeter:MC0203J22010600005","2024-09-09T20:15:00",25.2,29.969322,0.212],
    [31962,"urn:WaterMeter:MC0203J22010600005","2024-09-09T20:30:00",25.1,29.962727,0.22],
    [31963,"urn:WaterMeter:MC0203J22010600005","2024-09-09T20:45:00",25,29.976303,0.214],
    [31964,"urn:WaterMeter:MC0203J22010600005","2024-09-09T21:00:00",24.899,29.930143,0.248],
    [31965,"urn:WaterMeter:MC0203J22010600005","2024-09-09T21:15:00",24.799,29.953379,0.218],
    [31966,"urn:WaterMeter:MC0203J22010600005","2024-09-09T21:30:00",24.7,29.932432,0.219],
    [31967,"urn:WaterMeter:MC0203J22010600005","2024-09-09T21:45:00",24.5,29.944458,0.231],
    [31968,"urn:WaterMeter:MC0203J22010600005","2024-09-09T22:00:00",24.399,29.92545,0.225],
    [31969,"urn:WaterMeter:MC0203J22010600005","2024-09-09T22:15:00",24.299,29.900276,0.216],
    [31970,"urn:WaterMeter:MC0203J22010600005","2024-09-09T22:30:00",24.299,29.91773,0.222],
    [31971,"urn:WaterMeter:MC0203J22010600005","2024-09-09T22:45:00",24.2,29.929367,0.209],
    [31972,"urn:WaterMeter:MC0203J22010600005","2024-09-09T23:00:00",24.1,29.950314,0.223],
    [31973,"urn:WaterMeter:MC0203J22010600005","2024-09-09T23:15:00",24,29.9123,0.218],
    [31974,"urn:WaterMeter:MC0203J22010600005","2024-09-09T23:30:00",23.899,29.890966,0.216],
    [31975,"urn:WaterMeter:MC0203J22010600005","2024-09-09T23:45:00",23.799,29.90144,0.215],
    [31976,"urn:WaterMeter:MC0203J22010600005","2024-09-10T00:00:00",23.7,29.885147,0.22],
    [31977,"urn:WaterMeter:MC0203J22010600005","2024-09-10T00:15:00",23.6,29.86614,0.217],
    [31978,"urn:WaterMeter:MC0203J22010600005","2024-09-10T00:30:00",23.5,29.895582,0.21],
    [31979,"urn:WaterMeter:MC0203J22010600005","2024-09-10T00:45:00",23.399,29.901827,0.218],
    [31980,"urn:WaterMeter:MC0203J22010600005","2024-09-10T01:00:00",23.299,29.891354,0.229],
    [31981,"urn:WaterMeter:MC0203J22010600005","2024-09-10T01:15:00",23.2,29.8995,0.216],
    [31982,"urn:WaterMeter:MC0203J22010600005","2024-09-10T01:30:00",23.1,29.85524,0.222],
    [31983,"urn:WaterMeter:MC0203J22010600005","2024-09-10T01:45:00",23,29.8277,0.22],
    [31984,"urn:WaterMeter:MC0203J22010600005","2024-09-10T02:00:00",22.899,29.846745,0.222],
    [31985,"urn:WaterMeter:MC0203J22010600005","2024-09-10T02:15:00",22.799,29.887436,0.211],
    [31986,"urn:WaterMeter:MC0203J22010600005","2024-09-10T02:30:00",22.7,29.839764,0.23],
    [31987,"urn:WaterMeter:MC0203J22010600005","2024-09-10T02:45:00",22.6,29.86071,0.212],
    [31988,"urn:WaterMeter:MC0203J22010600005","2024-09-10T03:00:00",22.6,29.855627,0.209],
    [31989,"urn:WaterMeter:MC0203J22010600005","2024-09-10T03:15:00",22.5,29.84015,0.224],
    [31990,"urn:WaterMeter:MC0203J22010600005","2024-09-10T03:30:00",22.399,29.833944,0.21],
    [31991,"urn:WaterMeter:MC0203J22010600005","2024-09-10T03:45:00",22.299,29.84209,0.224],
    [31992,"urn:WaterMeter:MC0203J22010600005","2024-09-10T04:00:00",22.299,29.837397,0.219],
    [31993,"urn:WaterMeter:MC0203J22010600005","2024-09-10T04:15:00",22.2,29.86804,0.213],
    [31994,"urn:WaterMeter:MC0203J22010600005","2024-09-10T04:30:00",22.1,29.81839,0.22],
    [31995,"urn:WaterMeter:MC0203J22010600005","2024-09-10T04:45:00",22.1,29.822308,0.211],
    [31996,"urn:WaterMeter:MC0203J22010600005","2024-09-10T05:00:00",22,29.798994,0.211],
    [31997,"urn:WaterMeter:MC0203J22010600005","2024-09-10T05:15:00",22.1,29.84015,0.216],
    [31998,"urn:WaterMeter:MC0203J22010600005","2024-09-10T05:30:00",22.2,29.838173,0.21],
    [31999,"urn:WaterMeter:MC0203J22010600005","2024-09-10T05:45:00",22.2,29.992168,0.215],
    [32000,"urn:WaterMeter:MC0203J22010600005","2024-09-10T06:00:00",22.2,30.555012,0.243],
    [32001,"urn:WaterMeter:MC0203J22010600005","2024-09-10T06:15:00",22.2,31.404163,0.235],
    [32002,"urn:WaterMeter:MC0203J22010600005","2024-09-10T06:30:00",22.2,31.960024,0.24],
    [32003,"urn:WaterMeter:MC0203J22010600005","2024-09-10T06:45:00",22.2,32.305645,0.252],
    [32004,"urn:WaterMeter:MC0203J22010600005","2024-09-10T07:00:00",22.2,32.491447,0.249],
    [32005,"urn:WaterMeter:MC0203J22010600005","2024-09-10T07:15:00",22.299,32.7013,0.253],
    [32006,"urn:WaterMeter:MC0203J22010600005","2024-09-10T07:30:00",22.399,32.86073,0.262],
    [32007,"urn:WaterMeter:MC0203J22010600005","2024-09-10T07:45:00",22.5,32.94021,0.257],
    [32008,"urn:WaterMeter:MC0203J22010600005","2024-09-10T08:00:00",22.6,33.04882,0.262],
    [32009,"urn:WaterMeter:MC0203J22010600005","2024-09-10T08:15:00",22.7,32.818058,0.244],
    [32010,"urn:WaterMeter:MC0203J22010600005","2024-09-10T08:30:00",22.799,32.57248,0.258],
    [32011,"urn:WaterMeter:MC0203J22010600005","2024-09-10T08:45:00",22.899,32.451492,0.253],
    [32012,"urn:WaterMeter:MC0203J22010600005","2024-09-10T09:00:00",23.1,32.369606,0.25],
    [32013,"urn:WaterMeter:MC0203J22010600005","2024-09-10T09:15:00",23.2,32.310646,0.24],
    [32014,"urn:WaterMeter:MC0203J22010600005","2024-09-10T09:30:00",23.399,32.234657,0.257],
    [32015,"urn:WaterMeter:MC0203J22010600005","2024-09-10T09:45:00",23.5,32.176044,0.249],
    [32016,"urn:WaterMeter:MC0203J22010600005","2024-09-10T10:00:00",23.7,32.054672,0.258],
    [32017,"urn:WaterMeter:MC0203J22010600005","2024-09-10T10:15:00",23.899,32.060104,0.237],
    [32018,"urn:WaterMeter:MC0203J22010600005","2024-09-10T10:30:00",24,31.948387,0.236],
    [32019,"urn:WaterMeter:MC0203J22010600005","2024-09-10T10:45:00",24.2,31.916967,0.241],
    [32020,"urn:WaterMeter:MC0203J22010600005","2024-09-10T11:00:00",24.5,31.884344,0.233],
    [32021,"urn:WaterMeter:MC0203J22010600005","2024-09-10T11:15:00",24.7,31.795128,0.234],
    [32022,"urn:WaterMeter:MC0203J22010600005","2024-09-10T11:30:00",24.899,31.736555,0.226],
    [32023,"urn:WaterMeter:MC0203J22010600005","2024-09-10T11:45:00",25,31.728798,0.23],
    [32024,"urn:WaterMeter:MC0203J22010600005","2024-09-10T12:00:00",25.2,31.630697,0.23],
    [32025,"urn:WaterMeter:MC0203J22010600005","2024-09-10T12:15:00",25.299,31.610138,0.242],
    [32026,"urn:WaterMeter:MC0203J22010600005","2024-09-10T12:30:00",25.6,31.522472,0.247],
    [32027,"urn:WaterMeter:MC0203J22010600005","2024-09-10T12:45:00",25.7,31.480192,0.238],
    [32028,"urn:WaterMeter:MC0203J22010600005","2024-09-10T13:00:00",25.899,31.427399,0.241],
    [32029,"urn:WaterMeter:MC0203J22010600005","2024-09-10T13:15:00",26.1,31.367313,0.243],
    [32030,"urn:WaterMeter:MC0203J22010600005","2024-09-10T13:30:00",26.2,31.279648,0.245],
    [32031,"urn:WaterMeter:MC0203J22010600005","2024-09-10T13:45:00",26.299,31.256762,0.233],
    [32032,"urn:WaterMeter:MC0203J22010600005","2024-09-10T14:00:00",26.299,31.242022,0.236],
    [32033,"urn:WaterMeter:MC0203J22010600005","2024-09-10T14:15:00",26.399,31.13147,0.227],
    [32034,"urn:WaterMeter:MC0203J22010600005","2024-09-10T14:30:00",26.399,31.15164,0.222],
    [32035,"urn:WaterMeter:MC0203J22010600005","2024-09-10T14:45:00",26.5,31.080229,0.225],
    [32036,"urn:WaterMeter:MC0203J22010600005","2024-09-10T15:00:00",26.5,30.99105,0.221],
    [32037,"urn:WaterMeter:MC0203J22010600005","2024-09-10T15:15:00",26.5,30.955751,0.226],
    [32038,"urn:WaterMeter:MC0203J22010600005","2024-09-10T15:30:00",26.5,30.900282,0.229],
    [32039,"urn:WaterMeter:MC0203J22010600005","2024-09-10T15:45:00",26.6,30.873516,0.226],
    [32040,"urn:WaterMeter:MC0203J22010600005","2024-09-10T16:00:00",26.5,30.795937,0.226],
    [32041,"urn:WaterMeter:MC0203J22010600005","2024-09-10T16:15:00",26.399,30.794773,0.24],
    [32042,"urn:WaterMeter:MC0203J22010600005","2024-09-10T16:30:00",26.299,30.726501,0.234],
    [32043,"urn:WaterMeter:MC0203J22010600005","2024-09-10T16:45:00",26.2,30.739264,0.224],
    [32044,"urn:WaterMeter:MC0203J22010600005","2024-09-10T17:00:00",26.1,30.693918,0.233],
    [32045,"urn:WaterMeter:MC0203J22010600005","2024-09-10T17:15:00",26.1,30.657845,0.24],
    [32046,"urn:WaterMeter:MC0203J22010600005","2024-09-10T17:30:00",26.1,30.645042,0.224],
    [32047,"urn:WaterMeter:MC0203J22010600005","2024-09-10T17:45:00",26,30.589573,0.224],
    [32048,"urn:WaterMeter:MC0203J22010600005","2024-09-10T18:00:00",26,30.605865,0.226],
    [32049,"urn:WaterMeter:MC0203J22010600005","2024-09-10T18:15:00",25.899,30.586859,0.226],
    [32050,"urn:WaterMeter:MC0203J22010600005","2024-09-10T18:30:00",25.799,30.555012,0.223],
    [32051,"urn:WaterMeter:MC0203J22010600005","2024-09-10T18:45:00",25.7,30.569403,0.222],
    [32052,"urn:WaterMeter:MC0203J22010600005","2024-09-10T19:00:00",25.6,30.545702,0.23],
    [32053,"urn:WaterMeter:MC0203J22010600005","2024-09-10T19:15:00",25.399,30.526308,0.237],
    [32054,"urn:WaterMeter:MC0203J22010600005","2024-09-10T19:30:00",25.299,30.497215,0.226],
    [32055,"urn:WaterMeter:MC0203J22010600005","2024-09-10T19:45:00",25.299,30.514282,0.241],
    [32056,"urn:WaterMeter:MC0203J22010600005","2024-09-10T20:00:00",25.299,30.49997,0.234],
    [32057,"urn:WaterMeter:MC0203J22010600005","2024-09-10T20:15:00",25.2,30.520527,0.24],
    [32058,"urn:WaterMeter:MC0203J22010600005","2024-09-10T20:30:00",25.2,30.511606,0.248],
    [32059,"urn:WaterMeter:MC0203J22010600005","2024-09-10T20:45:00",25.1,30.522854,0.229],
    [32060,"urn:WaterMeter:MC0203J22010600005","2024-09-10T21:00:00",25,30.495663,0.23],
    [32061,"urn:WaterMeter:MC0203J22010600005","2024-09-10T21:15:00",25,30.507689,0.221],
    [32062,"urn:WaterMeter:MC0203J22010600005","2024-09-10T21:30:00",24.899,30.482126,0.233],
    [32063,"urn:WaterMeter:MC0203J22010600005","2024-09-10T21:45:00",24.899,30.470877,0.222],
    [32064,"urn:WaterMeter:MC0203J22010600005","2024-09-10T22:00:00",24.799,30.4829,0.224],
    [32065,"urn:WaterMeter:MC0203J22010600005","2024-09-10T22:15:00",24.799,30.442947,0.224],
    [32066,"urn:WaterMeter:MC0203J22010600005","2024-09-10T22:30:00",24.7,30.489107,0.219],
    [32067,"urn:WaterMeter:MC0203J22010600005","2024-09-10T22:45:00",24.6,30.474754,0.222],
    [32068,"urn:WaterMeter:MC0203J22010600005","2024-09-10T23:00:00",24.5,30.436703,0.23],
    [32069,"urn:WaterMeter:MC0203J22010600005","2024-09-10T23:15:00",24.5,30.461567,0.231],
    [32070,"urn:WaterMeter:MC0203J22010600005","2024-09-10T23:30:00",24.399,30.439806,0.225],
    [32071,"urn:WaterMeter:MC0203J22010600005","2024-09-10T23:45:00",24.299,30.469286,0.24],
    [32072,"urn:WaterMeter:MC0203J22010600005","2024-09-11T00:00:00",24.2,30.419247,0.229],
    [32073,"urn:WaterMeter:MC0203J22010600005","2024-09-11T00:15:00",24.1,30.406872,0.221],
    [32074,"urn:WaterMeter:MC0203J22010600005","2024-09-11T00:30:00",24,30.436354,0.228],
    [32075,"urn:WaterMeter:MC0203J22010600005","2024-09-11T00:45:00",23.899,30.438253,0.222],
    [32076,"urn:WaterMeter:MC0203J22010600005","2024-09-11T01:00:00",23.899,30.385925,0.224],
    [32077,"urn:WaterMeter:MC0203J22010600005","2024-09-11T01:15:00",23.799,30.390154,0.226],
    [32078,"urn:WaterMeter:MC0203J22010600005","2024-09-11T01:30:00",23.799,30.390154,0.222],
    [32079,"urn:WaterMeter:MC0203J22010600005","2024-09-11T01:45:00",23.7,30.38515,0.228],
    [32080,"urn:WaterMeter:MC0203J22010600005","2024-09-11T02:00:00",23.7,30.39252,0.222],
    [32081,"urn:WaterMeter:MC0203J22010600005","2024-09-11T02:15:00",23.7,30.40955,0.228],
    [32082,"urn:WaterMeter:MC0203J22010600005","2024-09-11T02:30:00",23.7,30.342054,0.244],
    [32083,"urn:WaterMeter:MC0203J22010600005","2024-09-11T02:45:00",23.7,30.370022,0.22],
    [32084,"urn:WaterMeter:MC0203J22010600005","2024-09-11T03:00:00",23.6,30.350239,0.223],
    [32085,"urn:WaterMeter:MC0203J22010600005","2024-09-11T03:15:00",23.6,30.358385,0.235],
    [32086,"urn:WaterMeter:MC0203J22010600005","2024-09-11T03:30:00",23.6,30.344421,0.227],
    [32087,"urn:WaterMeter:MC0203J22010600005","2024-09-11T03:45:00",23.6,30.325413,0.225],
    [32088,"urn:WaterMeter:MC0203J22010600005","2024-09-11T04:00:00",23.5,30.342442,0.219],
    [32089,"urn:WaterMeter:MC0203J22010600005","2024-09-11T04:15:00",23.5,30.33352,0.225],
    [32090,"urn:WaterMeter:MC0203J22010600005","2024-09-11T04:30:00",23.399,30.330456,0.22],
    [32091,"urn:WaterMeter:MC0203J22010600005","2024-09-11T04:45:00",23.399,30.348299,0.217],
    [32092,"urn:WaterMeter:MC0203J22010600005","2024-09-11T05:00:00",23.399,30.299812,0.216],
    [32093,"urn:WaterMeter:MC0203J22010600005","2024-09-11T05:15:00",23.5,30.323048,0.226],
    [32094,"urn:WaterMeter:MC0203J22010600005","2024-09-11T05:30:00",23.6,30.378168,0.231],
    [32095,"urn:WaterMeter:MC0203J22010600005","2024-09-11T05:45:00",23.6,30.600046,0.227],
    [32096,"urn:WaterMeter:MC0203J22010600005","2024-09-11T06:00:00",23.6,31.185,0.235],
    [32097,"urn:WaterMeter:MC0203J22010600005","2024-09-11T06:15:00",23.6,31.839775,0.254],
    [32098,"urn:WaterMeter:MC0203J22010600005","2024-09-11T06:30:00",23.6,32.29901,0.266],
    [32099,"urn:WaterMeter:MC0203J22010600005","2024-09-11T06:45:00",23.6,32.5217,0.253],
    [32100,"urn:WaterMeter:MC0203J22010600005","2024-09-11T07:00:00",23.7,32.76449,0.273],
    [32101,"urn:WaterMeter:MC0203J22010600005","2024-09-11T07:15:00",23.7,32.881638,0.264],
    [32102,"urn:WaterMeter:MC0203J22010600005","2024-09-11T07:30:00",23.799,33.084545,0.254],
    [32103,"urn:WaterMeter:MC0203J22010600005","2024-09-11T07:45:00",23.799,33.177254,0.26],
    [32104,"urn:WaterMeter:MC0203J22010600005","2024-09-11T08:00:00",23.899,33.344826,0.277],
    [32105,"urn:WaterMeter:MC0203J22010600005","2024-09-11T08:15:00",24.1,33.070583,0.261],
    [32106,"urn:WaterMeter:MC0203J22010600005","2024-09-11T08:30:00",24.2,32.73078,0.253],
    [32107,"urn:WaterMeter:MC0203J22010600005","2024-09-11T08:45:00",24.2,32.619843,0.255],
    [32108,"urn:WaterMeter:MC0203J22010600005","2024-09-11T09:00:00",24.299,32.472054,0.257],
    [32109,"urn:WaterMeter:MC0203J22010600005","2024-09-11T09:15:00",24.399,32.384388,0.253],
    [32110,"urn:WaterMeter:MC0203J22010600005","2024-09-11T09:30:00",24.5,32.374302,0.255],
    [32111,"urn:WaterMeter:MC0203J22010600005","2024-09-11T09:45:00",24.6,32.30254,0.254],
    [32112,"urn:WaterMeter:MC0203J22010600005","2024-09-11T10:00:00",24.7,32.231167,0.245],
    [32113,"urn:WaterMeter:MC0203J22010600005","2024-09-11T10:15:00",24.799,32.221043,0.252],
    [32114,"urn:WaterMeter:MC0203J22010600005","2024-09-11T10:30:00",24.899,32.166775,0.245],
    [32115,"urn:WaterMeter:MC0203J22010600005","2024-09-11T10:45:00",25.1,32.080273,0.242],
    [32116,"urn:WaterMeter:MC0203J22010600005","2024-09-11T11:00:00",25.2,32.024414,0.247],
    [32117,"urn:WaterMeter:MC0203J22010600005","2024-09-11T11:15:00",25.299,31.952227,0.246],
    [32118,"urn:WaterMeter:MC0203J22010600005","2024-09-11T11:30:00",25.5,31.93869,0.244],
    [32119,"urn:WaterMeter:MC0203J22010600005","2024-09-11T11:45:00",25.6,31.819216,0.254],
    [32120,"urn:WaterMeter:MC0203J22010600005","2024-09-11T12:00:00",25.7,31.814135,0.241],
    [32121,"urn:WaterMeter:MC0203J22010600005","2024-09-11T12:15:00",25.799,31.755562,0.236],
    [32122,"urn:WaterMeter:MC0203J22010600005","2024-09-11T12:30:00",26,31.71526,0.249],
    [32123,"urn:WaterMeter:MC0203J22010600005","2024-09-11T12:45:00",26.2,31.66169,0.267],
    [32124,"urn:WaterMeter:MC0203J22010600005","2024-09-11T13:00:00",26.299,31.591908,0.233],
    [32125,"urn:WaterMeter:MC0203J22010600005","2024-09-11T13:15:00",26.299,31.568245,0.243],
    [32126,"urn:WaterMeter:MC0203J22010600005","2024-09-11T13:30:00",26.399,31.520922,0.244],
    [32127,"urn:WaterMeter:MC0203J22010600005","2024-09-11T13:45:00",26.399,31.42511,0.24],
    [32128,"urn:WaterMeter:MC0203J22010600005","2024-09-11T14:00:00",26.5,31.383217,0.246],
    [32129,"urn:WaterMeter:MC0203J22010600005","2024-09-11T14:15:00",26.6,31.330812,0.239],
    [32130,"urn:WaterMeter:MC0203J22010600005","2024-09-11T14:30:00",26.5,31.30327,0.237],
    [32131,"urn:WaterMeter:MC0203J22010600005","2024-09-11T14:45:00",26.6,31.254007,0.243],
    [32132,"urn:WaterMeter:MC0203J22010600005","2024-09-11T15:00:00",26.6,31.221075,0.239],
    [32133,"urn:WaterMeter:MC0203J22010600005","2024-09-11T15:15:00",26.6,31.136086,0.229],
    [32134,"urn:WaterMeter:MC0203J22010600005","2024-09-11T15:30:00",26.6,31.111687,0.237],
    [32135,"urn:WaterMeter:MC0203J22010600005","2024-09-11T15:45:00",26.7,31.046131,0.249],
    [32136,"urn:WaterMeter:MC0203J22010600005","2024-09-11T16:00:00",26.7,31.05389,0.227],
    [32137,"urn:WaterMeter:MC0203J22010600005","2024-09-11T16:15:00",26.6,30.97278,0.236],
    [32138,"urn:WaterMeter:MC0203J22010600005","2024-09-11T16:30:00",26.6,30.951096,0.235],
    [32139,"urn:WaterMeter:MC0203J22010600005","2024-09-11T16:45:00",26.5,30.947218,0.243],
    [32140,"urn:WaterMeter:MC0203J22010600005","2024-09-11T17:00:00",26.399,30.933601,0.256],
    [32141,"urn:WaterMeter:MC0203J22010600005","2024-09-11T17:15:00",26.299,30.869637,0.235],
    [32142,"urn:WaterMeter:MC0203J22010600005","2024-09-11T17:30:00",26.2,30.877008,0.236],
    [32143,"urn:WaterMeter:MC0203J22010600005","2024-09-11T17:45:00",26.1,30.838606,0.247],
    [32144,"urn:WaterMeter:MC0203J22010600005","2024-09-11T18:00:00",25.899,30.821537,0.243],
    [32145,"urn:WaterMeter:MC0203J22010600005","2024-09-11T18:15:00",25.799,30.84132,0.239],
    [32146,"urn:WaterMeter:MC0203J22010600005","2024-09-11T18:30:00",25.7,30.812227,0.232],
    [32147,"urn:WaterMeter:MC0203J22010600005","2024-09-11T18:45:00",25.6,30.819986,0.227],
    [32148,"urn:WaterMeter:MC0203J22010600005","2024-09-11T19:00:00",25.5,30.829296,0.24],
    [32149,"urn:WaterMeter:MC0203J22010600005","2024-09-11T19:15:00",25.399,30.785812,0.231],
    [32150,"urn:WaterMeter:MC0203J22010600005","2024-09-11T19:30:00",25.299,30.7862,0.253],
    [32151,"urn:WaterMeter:MC0203J22010600005","2024-09-11T19:45:00",25.299,30.793997,0.247],
    [32152,"urn:WaterMeter:MC0203J22010600005","2024-09-11T20:00:00",25.2,30.760637,0.231],
    [32153,"urn:WaterMeter:MC0203J22010600005","2024-09-11T20:15:00",25.2,30.753267,0.24],
    [32154,"urn:WaterMeter:MC0203J22010600005","2024-09-11T20:30:00",25.1,30.736588,0.231],
    [32155,"urn:WaterMeter:MC0203J22010600005","2024-09-11T20:45:00",25.1,30.69547,0.233],
    [32156,"urn:WaterMeter:MC0203J22010600005","2024-09-11T21:00:00",25,30.71758,0.228],
    [32157,"urn:WaterMeter:MC0203J22010600005","2024-09-11T21:15:00",24.899,30.703617,0.229],
    [32158,"urn:WaterMeter:MC0203J22010600005","2024-09-11T21:30:00",24.799,30.723011,0.242],
    [32159,"urn:WaterMeter:MC0203J22010600005","2024-09-11T21:45:00",24.7,30.707108,0.231],
    [32160,"urn:WaterMeter:MC0203J22010600005","2024-09-11T22:00:00",24.6,30.72495,0.242],
    [32161,"urn:WaterMeter:MC0203J22010600005","2024-09-11T22:15:00",24.6,30.720257,0.236],
    [32162,"urn:WaterMeter:MC0203J22010600005","2024-09-11T22:30:00",24.5,30.663237,0.233],
    [32163,"urn:WaterMeter:MC0203J22010600005","2024-09-11T22:45:00",24.399,30.662848,0.234],
    [32164,"urn:WaterMeter:MC0203J22010600005","2024-09-11T23:00:00",24.299,30.703617,0.233],
    [32165,"urn:WaterMeter:MC0203J22010600005","2024-09-11T23:15:00",24.2,30.678402,0.239],
    [32166,"urn:WaterMeter:MC0203J22010600005","2024-09-11T23:30:00",24.1,30.667929,0.232],
    [32167,"urn:WaterMeter:MC0203J22010600005","2024-09-11T23:45:00",24,30.648922,0.234],
    [32168,"urn:WaterMeter:MC0203J22010600005","2024-09-12T00:00:00",23.899,30.632591,0.233],
    [32169,"urn:WaterMeter:MC0203J22010600005","2024-09-12T00:15:00",23.799,30.65121,0.237],
    [32170,"urn:WaterMeter:MC0203J22010600005","2024-09-12T00:30:00",23.7,30.668705,0.233],
    [32171,"urn:WaterMeter:MC0203J22010600005","2024-09-12T00:45:00",23.6,30.64194,0.23],
    [32172,"urn:WaterMeter:MC0203J22010600005","2024-09-12T01:00:00",23.5,30.608969,0.23],
    [32173,"urn:WaterMeter:MC0203J22010600005","2024-09-12T01:15:00",23.399,30.627588,0.242],
    [32174,"urn:WaterMeter:MC0203J22010600005","2024-09-12T01:30:00",23.299,30.653965,0.23],
    [32175,"urn:WaterMeter:MC0203J22010600005","2024-09-12T01:45:00",23.2,30.653538,0.235],
    [32176,"urn:WaterMeter:MC0203J22010600005","2024-09-12T02:00:00",23.2,30.633755,0.224],
    [32177,"urn:WaterMeter:MC0203J22010600005","2024-09-12T02:15:00",23.1,30.652763,0.227],
    [32178,"urn:WaterMeter:MC0203J22010600005","2024-09-12T02:30:00",23,30.64229,0.226],
    [32179,"urn:WaterMeter:MC0203J22010600005","2024-09-12T02:45:00",22.899,30.653965,0.235],
    [32180,"urn:WaterMeter:MC0203J22010600005","2024-09-12T03:00:00",22.799,30.633368,0.232],
    [32181,"urn:WaterMeter:MC0203J22010600005","2024-09-12T03:15:00",22.7,30.59772,0.231],
    [32182,"urn:WaterMeter:MC0203J22010600005","2024-09-12T03:30:00",22.6,30.611258,0.241],
    [32183,"urn:WaterMeter:MC0203J22010600005","2024-09-12T03:45:00",22.5,30.622158,0.247],
    [32184,"urn:WaterMeter:MC0203J22010600005","2024-09-12T04:00:00",22.399,30.603498,0.236],
    [32185,"urn:WaterMeter:MC0203J22010600005","2024-09-12T04:15:00",22.399,30.586859,0.227],
    [32186,"urn:WaterMeter:MC0203J22010600005","2024-09-12T04:30:00",22.299,30.644268,0.247],
    [32187,"urn:WaterMeter:MC0203J22010600005","2024-09-12T04:45:00",22.2,30.60315,0.235],
    [32188,"urn:WaterMeter:MC0203J22010600005","2024-09-12T05:00:00",22.1,30.605865,0.232],
    [32189,"urn:WaterMeter:MC0203J22010600005","2024-09-12T05:15:00",22.2,30.635345,0.226],
    [32190,"urn:WaterMeter:MC0203J22010600005","2024-09-12T05:30:00",22.299,30.686161,0.223],
    [32191,"urn:WaterMeter:MC0203J22010600005","2024-09-12T05:45:00",22.299,30.937132,0.237],
    [32192,"urn:WaterMeter:MC0203J22010600005","2024-09-12T06:00:00",22.399,31.402224,0.252],
    [32193,"urn:WaterMeter:MC0203J22010600005","2024-09-12T06:15:00",22.399,31.949512,0.246],
    [32194,"urn:WaterMeter:MC0203J22010600005","2024-09-12T06:30:00",22.399,32.3506,0.257],
    [32195,"urn:WaterMeter:MC0203J22010600005","2024-09-12T06:45:00",22.399,32.62605,0.258],
    [32196,"urn:WaterMeter:MC0203J22010600005","2024-09-12T07:00:00",22.5,32.85607,0.287],
    [32197,"urn:WaterMeter:MC0203J22010600005","2024-09-12T07:15:00",22.6,32.95844,0.26],
    [32198,"urn:WaterMeter:MC0203J22010600005","2024-09-12T07:30:00",22.7,33.077915,0.272],
    [32199,"urn:WaterMeter:MC0203J22010600005","2024-09-12T07:45:00",22.799,33.159798,0.274],
    [32200,"urn:WaterMeter:MC0203J22010600005","2024-09-12T08:00:00",22.899,33.2335,0.258],
    [32201,"urn:WaterMeter:MC0203J22010600005","2024-09-12T08:15:00",23.1,33.007744,0.26],
    [32202,"urn:WaterMeter:MC0203J22010600005","2024-09-12T08:30:00",23.2,32.722248,0.256],
    [32203,"urn:WaterMeter:MC0203J22010600005","2024-09-12T08:45:00",23.2,32.59618,0.251],
    [32204,"urn:WaterMeter:MC0203J22010600005","2024-09-12T09:00:00",23.299,32.53528,0.273],
    [32205,"urn:WaterMeter:MC0203J22010600005","2024-09-12T09:15:00",23.5,32.450718,0.281],
    [32206,"urn:WaterMeter:MC0203J22010600005","2024-09-12T09:30:00",23.6,32.432873,0.262],
    [32207,"urn:WaterMeter:MC0203J22010600005","2024-09-12T09:45:00",23.799,32.352192,0.256],
    [32208,"urn:WaterMeter:MC0203J22010600005","2024-09-12T10:00:00",24,32.278492,0.252],
    [32209,"urn:WaterMeter:MC0203J22010600005","2024-09-12T10:15:00",24.1,32.19897,0.245],
    [32210,"urn:WaterMeter:MC0203J22010600005","2024-09-12T10:30:00",24.2,32.15436,0.249],
    [32211,"urn:WaterMeter:MC0203J22010600005","2024-09-12T10:45:00",24.299,32.100834,0.253],
    [32212,"urn:WaterMeter:MC0203J22010600005","2024-09-12T11:00:00",24.5,32.039116,0.248],
    [32213,"urn:WaterMeter:MC0203J22010600005","2024-09-12T11:15:00",24.7,31.998426,0.242],
    [32214,"urn:WaterMeter:MC0203J22010600005","2024-09-12T11:30:00",24.899,31.967783,0.268],
    [32215,"urn:WaterMeter:MC0203J22010600005","2024-09-12T11:45:00",25.1,31.877014,0.242],
    [32216,"urn:WaterMeter:MC0203J22010600005","2024-09-12T12:00:00",25.299,31.840162,0.231],
    [32217,"urn:WaterMeter:MC0203J22010600005","2024-09-12T12:15:00",25.399,31.748192,0.236],
    [32218,"urn:WaterMeter:MC0203J22010600005","2024-09-12T12:30:00",25.6,31.721466,0.235],
    [32219,"urn:WaterMeter:MC0203J22010600005","2024-09-12T12:45:00",25.7,31.691597,0.237],
    [32220,"urn:WaterMeter:MC0203J22010600005","2024-09-12T13:00:00",25.799,31.627981,0.232],
    [32221,"urn:WaterMeter:MC0203J22010600005","2024-09-12T13:15:00",26,31.573637,0.236],
    [32222,"urn:WaterMeter:MC0203J22010600005","2024-09-12T13:30:00",26.1,31.528292,0.251],
    [32223,"urn:WaterMeter:MC0203J22010600005","2024-09-12T13:45:00",26.1,31.455755,0.232],
    [32224,"urn:WaterMeter:MC0203J22010600005","2024-09-12T14:00:00",26.2,31.38283,0.246],
    [32225,"urn:WaterMeter:MC0203J22010600005","2024-09-12T14:15:00",26.2,31.330812,0.245],
    [32226,"urn:WaterMeter:MC0203J22010600005","2024-09-12T14:30:00",26.299,31.293573,0.237],
    [32227,"urn:WaterMeter:MC0203J22010600005","2024-09-12T14:45:00",26.299,31.231161,0.243],
    [32228,"urn:WaterMeter:MC0203J22010600005","2024-09-12T15:00:00",26.399,31.221851,0.253],
    [32229,"urn:WaterMeter:MC0203J22010600005","2024-09-12T15:15:00",26.399,31.176428,0.238],
    [32230,"urn:WaterMeter:MC0203J22010600005","2024-09-12T15:30:00",26.399,31.129143,0.226],
    [32231,"urn:WaterMeter:MC0203J22010600005","2024-09-12T15:45:00",26.399,31.06669,0.247],
    [32232,"urn:WaterMeter:MC0203J22010600005","2024-09-12T16:00:00",26.399,31.00071,0.234],
    [32233,"urn:WaterMeter:MC0203J22010600005","2024-09-12T16:15:00",26.2,30.990662,0.237],
    [32234,"urn:WaterMeter:MC0203J22010600005","2024-09-12T16:30:00",26.2,30.955364,0.236],
    [32235,"urn:WaterMeter:MC0203J22010600005","2024-09-12T16:45:00",26.1,30.929375,0.247],
    [32236,"urn:WaterMeter:MC0203J22010600005","2024-09-12T17:00:00",26,30.903345,0.237],
    [32237,"urn:WaterMeter:MC0203J22010600005","2024-09-12T17:15:00",26,30.871965,0.244],
    [32238,"urn:WaterMeter:MC0203J22010600005","2024-09-12T17:30:00",25.899,30.87119,0.231],
    [32239,"urn:WaterMeter:MC0203J22010600005","2024-09-12T17:45:00",25.899,30.807535,0.228],
    [32240,"urn:WaterMeter:MC0203J22010600005","2024-09-12T18:00:00",25.799,30.79167,0.246],
    [32241,"urn:WaterMeter:MC0203J22010600005","2024-09-12T18:15:00",25.7,30.799002,0.235],
    [32242,"urn:WaterMeter:MC0203J22010600005","2024-09-12T18:30:00",25.6,30.790117,0.243],
    [32243,"urn:WaterMeter:MC0203J22010600005","2024-09-12T18:45:00",25.5,30.761024,0.233],
    [32244,"urn:WaterMeter:MC0203J22010600005","2024-09-12T19:00:00",25.5,30.785812,0.235],
    [32245,"urn:WaterMeter:MC0203J22010600005","2024-09-12T19:15:00",25.399,30.733097,0.235],
    [32246,"urn:WaterMeter:MC0203J22010600005","2024-09-12T19:30:00",25.299,30.762577,0.24],
    [32247,"urn:WaterMeter:MC0203J22010600005","2024-09-12T19:45:00",25.2,30.71056,0.238],
    [32248,"urn:WaterMeter:MC0203J22010600005","2024-09-12T20:00:00",25.1,30.733484,0.241],
    [32249,"urn:WaterMeter:MC0203J22010600005","2024-09-12T20:15:00",25,30.755594,0.244],
    [32250,"urn:WaterMeter:MC0203J22010600005","2024-09-12T20:30:00",24.899,30.743181,0.255],
    [32251,"urn:WaterMeter:MC0203J22010600005","2024-09-12T20:45:00",24.799,30.711723,0.23],
    [32252,"urn:WaterMeter:MC0203J22010600005","2024-09-12T21:00:00",24.7,30.731544,0.235],
    [32253,"urn:WaterMeter:MC0203J22010600005","2024-09-12T21:15:00",24.5,30.729567,0.231],
    [32254,"urn:WaterMeter:MC0203J22010600005","2024-09-12T21:30:00",24.399,30.689613,0.238],
    [32255,"urn:WaterMeter:MC0203J22010600005","2024-09-12T21:45:00",24.299,30.676851,0.247],
    [32256,"urn:WaterMeter:MC0203J22010600005","2024-09-12T22:00:00",24.1,30.698185,0.234],
    [32257,"urn:WaterMeter:MC0203J22010600005","2024-09-12T22:15:00",24,30.676075,0.231],
    [32258,"urn:WaterMeter:MC0203J22010600005","2024-09-12T22:30:00",23.899,30.672157,0.231],
    [32259,"urn:WaterMeter:MC0203J22010600005","2024-09-12T22:45:00",23.799,30.698185,0.238],
    [32260,"urn:WaterMeter:MC0203J22010600005","2024-09-12T23:00:00",23.7,30.685385,0.232],
    [32261,"urn:WaterMeter:MC0203J22010600005","2024-09-12T23:15:00",23.6,30.716417,0.231],
    [32262,"urn:WaterMeter:MC0203J22010600005","2024-09-12T23:30:00",23.6,30.705944,0.23],
    [32263,"urn:WaterMeter:MC0203J22010600005","2024-09-12T23:45:00",23.6,30.668318,0.237],
    [32264,"urn:WaterMeter:MC0203J22010600005","2024-09-13T00:00:00",23.5,30.678402,0.226],
    [32265,"urn:WaterMeter:MC0203J22010600005","2024-09-13T00:15:00",23.5,30.67177,0.246],
    [32266,"urn:WaterMeter:MC0203J22010600005","2024-09-13T00:30:00",23.5,30.71215,0.234],
    [32267,"urn:WaterMeter:MC0203J22010600005","2024-09-13T00:45:00",23.399,30.667154,0.238],
    [32268,"urn:WaterMeter:MC0203J22010600005","2024-09-13T01:00:00",23.399,30.683058,0.231],
    [32269,"urn:WaterMeter:MC0203J22010600005","2024-09-13T01:15:00",23.399,30.654741,0.226],
    [32270,"urn:WaterMeter:MC0203J22010600005","2024-09-13T01:30:00",23.299,30.673748,0.228],
    [32271,"urn:WaterMeter:MC0203J22010600005","2024-09-13T01:45:00",23.299,30.627588,0.23],
    [32272,"urn:WaterMeter:MC0203J22010600005","2024-09-13T02:00:00",23.299,30.638062,0.237],
    [32273,"urn:WaterMeter:MC0203J22010600005","2024-09-13T02:15:00",23.299,30.63457,0.241],
    [32274,"urn:WaterMeter:MC0203J22010600005","2024-09-13T02:30:00",23.399,30.659395,0.231],
    [32275,"urn:WaterMeter:MC0203J22010600005","2024-09-13T02:45:00",23.5,30.616726,0.235],
    [32276,"urn:WaterMeter:MC0203J22010600005","2024-09-13T03:00:00",23.5,30.591513,0.234],
    [32277,"urn:WaterMeter:MC0203J22010600005","2024-09-13T03:15:00",23.5,30.617502,0.226],
    [32278,"urn:WaterMeter:MC0203J22010600005","2024-09-13T03:30:00",23.6,30.605865,0.228],
    [32279,"urn:WaterMeter:MC0203J22010600005","2024-09-13T03:45:00",23.6,30.593025,0.23],
    [32280,"urn:WaterMeter:MC0203J22010600005","2024-09-13T04:00:00",23.5,30.577936,0.241],
    [32281,"urn:WaterMeter:MC0203J22010600005","2024-09-13T04:15:00",23.5,30.567076,0.221],
    [32282,"urn:WaterMeter:MC0203J22010600005","2024-09-13T04:30:00",23.399,30.600822,0.232],
    [32283,"urn:WaterMeter:MC0203J22010600005","2024-09-13T04:45:00",23.399,30.558153,0.224],
    [32284,"urn:WaterMeter:MC0203J22010600005","2024-09-13T05:00:00",23.399,30.559317,0.229],
    [32285,"urn:WaterMeter:MC0203J22010600005","2024-09-13T05:15:00",23.399,30.58647,0.225],
    [32286,"urn:WaterMeter:MC0203J22010600005","2024-09-13T05:30:00",23.5,30.676851,0.225],
    [32287,"urn:WaterMeter:MC0203J22010600005","2024-09-13T05:45:00",23.5,30.936356,0.245],
    [32288,"urn:WaterMeter:MC0203J22010600005","2024-09-13T06:00:00",23.5,31.37701,0.241],
    [32289,"urn:WaterMeter:MC0203J22010600005","2024-09-13T06:15:00",23.5,31.902227,0.257],
    [32290,"urn:WaterMeter:MC0203J22010600005","2024-09-13T06:30:00",23.6,32.357197,0.251],
    [32291,"urn:WaterMeter:MC0203J22010600005","2024-09-13T06:45:00",23.6,32.57407,0.251],
    [32292,"urn:WaterMeter:MC0203J22010600005","2024-09-13T07:00:00",23.6,32.805996,0.255],
    [32293,"urn:WaterMeter:MC0203J22010600005","2024-09-13T07:15:00",23.7,32.932877,0.277],
    [32294,"urn:WaterMeter:MC0203J22010600005","2024-09-13T07:30:00",23.7,33.08222,0.257],
    [32295,"urn:WaterMeter:MC0203J22010600005","2024-09-13T07:45:00",23.7,33.167168,0.262],
    [32296,"urn:WaterMeter:MC0203J22010600005","2024-09-13T08:00:00",23.7,33.255997,0.26],
    [32297,"urn:WaterMeter:MC0203J22010600005","2024-09-13T08:15:00",23.7,33.014336,0.26],
    [32298,"urn:WaterMeter:MC0203J22010600005","2024-09-13T08:30:00",23.7,32.734272,0.245],
    [32299,"urn:WaterMeter:MC0203J22010600005","2024-09-13T08:45:00",23.6,32.613247,0.273],
    [32300,"urn:WaterMeter:MC0203J22010600005","2024-09-13T09:00:00",23.6,32.561268,0.266],
    [32301,"urn:WaterMeter:MC0203J22010600005","2024-09-13T09:15:00",23.6,32.50192,0.267],
    [32302,"urn:WaterMeter:MC0203J22010600005","2024-09-13T09:30:00",23.6,32.466583,0.261],
    [32303,"urn:WaterMeter:MC0203J22010600005","2024-09-13T09:45:00",23.7,32.391758,0.25],
    [32304,"urn:WaterMeter:MC0203J22010600005","2024-09-13T10:00:00",23.899,32.293617,0.269],
    [32305,"urn:WaterMeter:MC0203J22010600005","2024-09-13T10:15:00",24,32.264915,0.239],
    [32306,"urn:WaterMeter:MC0203J22010600005","2024-09-13T10:30:00",24.1,32.236595,0.223],
    [32307,"urn:WaterMeter:MC0203J22010600005","2024-09-13T10:45:00",24.1,32.198196,0.252],
    [32308,"urn:WaterMeter:MC0203J22010600005","2024-09-13T11:00:00",24.2,32.128372,0.267],
    [32309,"urn:WaterMeter:MC0203J22010600005","2024-09-13T11:15:00",24.299,32.12372,0.245],
    [32310,"urn:WaterMeter:MC0203J22010600005","2024-09-13T11:30:00",24.299,32.024414,0.246],
    [32311,"urn:WaterMeter:MC0203J22010600005","2024-09-13T11:45:00",24.399,32.017822,0.248],
    [32312,"urn:WaterMeter:MC0203J22010600005","2024-09-13T12:00:00",24.399,31.944508,0.256],
    [32313,"urn:WaterMeter:MC0203J22010600005","2024-09-13T12:15:00",24.5,31.913826,0.252],
    [32314,"urn:WaterMeter:MC0203J22010600005","2024-09-13T12:30:00",24.5,31.90921,0.243],
    [32315,"urn:WaterMeter:MC0203J22010600005","2024-09-13T12:45:00",24.6,31.805252,0.251],
    [32316,"urn:WaterMeter:MC0203J22010600005","2024-09-13T13:00:00",24.6,31.818052,0.248],
    [32317,"urn:WaterMeter:MC0203J22010600005","2024-09-13T13:15:00",24.6,31.76142,0.238],
    [32318,"urn:WaterMeter:MC0203J22010600005","2024-09-13T13:30:00",24.7,31.72457,0.24],
    [32319,"urn:WaterMeter:MC0203J22010600005","2024-09-13T13:45:00",24.7,31.61906,0.246],
    [32320,"urn:WaterMeter:MC0203J22010600005","2024-09-13T14:00:00",24.799,31.581007,0.237],
    [32321,"urn:WaterMeter:MC0203J22010600005","2024-09-13T14:15:00",24.799,31.569021,0.262],
    [32322,"urn:WaterMeter:MC0203J22010600005","2024-09-13T14:30:00",24.799,31.492992,0.239],
    [32323,"urn:WaterMeter:MC0203J22010600005","2024-09-13T14:45:00",24.6,31.501526,0.245],
    [32324,"urn:WaterMeter:MC0203J22010600005","2024-09-13T15:00:00",24.5,31.494545,0.209],
    [32325,"urn:WaterMeter:MC0203J22010600005","2024-09-13T15:15:00",24.399,31.449549,0.241],
    [32326,"urn:WaterMeter:MC0203J22010600005","2024-09-13T15:30:00",24.399,31.403,0.235],
    [32327,"urn:WaterMeter:MC0203J22010600005","2024-09-13T15:45:00",24.299,31.372356,0.253],
    [32328,"urn:WaterMeter:MC0203J22010600005","2024-09-13T16:00:00",24.299,31.363823,0.241],
    [32329,"urn:WaterMeter:MC0203J22010600005","2024-09-13T16:15:00",24.2,31.338608,0.232],
    [32330,"urn:WaterMeter:MC0203J22010600005","2024-09-13T16:30:00",24.1,31.285854,0.249],
    [32331,"urn:WaterMeter:MC0203J22010600005","2024-09-13T16:45:00",24,31.263704,0.245],
    [32332,"urn:WaterMeter:MC0203J22010600005","2024-09-13T17:00:00",23.899,31.25168,0.249],
    [32333,"urn:WaterMeter:MC0203J22010600005","2024-09-13T17:15:00",23.799,31.266459,0.259],
    [32334,"urn:WaterMeter:MC0203J22010600005","2024-09-13T17:30:00",23.7,31.233837,0.253],
    [32335,"urn:WaterMeter:MC0203J22010600005","2024-09-13T17:45:00",23.7,31.199352,0.235],
    [32336,"urn:WaterMeter:MC0203J22010600005","2024-09-13T18:00:00",23.6,31.232285,0.235],
    [32337,"urn:WaterMeter:MC0203J22010600005","2024-09-13T18:15:00",23.5,31.206722,0.239],
    [32338,"urn:WaterMeter:MC0203J22010600005","2024-09-13T18:30:00",23.399,31.172586,0.236],
    [32339,"urn:WaterMeter:MC0203J22010600005","2024-09-13T18:45:00",23.299,31.175652,0.244],
    [32340,"urn:WaterMeter:MC0203J22010600005","2024-09-13T19:00:00",23.299,31.16289,0.24],
    [32341,"urn:WaterMeter:MC0203J22010600005","2024-09-13T19:15:00",23.2,31.169872,0.248],
    [32342,"urn:WaterMeter:MC0203J22010600005","2024-09-13T19:30:00",23.1,31.121773,0.234],
    [32343,"urn:WaterMeter:MC0203J22010600005","2024-09-13T19:45:00",23.1,31.14272,0.243],
    [32344,"urn:WaterMeter:MC0203J22010600005","2024-09-13T20:00:00",23,31.14078,0.239],
    [32345,"urn:WaterMeter:MC0203J22010600005","2024-09-13T20:15:00",23,31.186901,0.229],
    [32346,"urn:WaterMeter:MC0203J22010600005","2024-09-13T20:30:00",22.899,31.137638,0.233],
    [32347,"urn:WaterMeter:MC0203J22010600005","2024-09-13T20:45:00",22.899,31.14621,0.237],
    [32348,"urn:WaterMeter:MC0203J22010600005","2024-09-13T21:00:00",22.899,31.10587,0.236],
    [32349,"urn:WaterMeter:MC0203J22010600005","2024-09-13T21:15:00",22.899,31.151253,0.241],
    [32350,"urn:WaterMeter:MC0203J22010600005","2024-09-13T21:30:00",22.899,31.125652,0.236],
    [32351,"urn:WaterMeter:MC0203J22010600005","2024-09-13T21:45:00",22.799,31.088026,0.229],
    [32352,"urn:WaterMeter:MC0203J22010600005","2024-09-13T22:00:00",22.799,31.093067,0.23],
    [32353,"urn:WaterMeter:MC0203J22010600005","2024-09-13T22:15:00",22.7,31.11479,0.239],
    [32354,"urn:WaterMeter:MC0203J22010600005","2024-09-13T22:30:00",22.7,31.101213,0.242],
    [32355,"urn:WaterMeter:MC0203J22010600005","2024-09-13T22:45:00",22.799,31.080229,0.237],
    [32356,"urn:WaterMeter:MC0203J22010600005","2024-09-13T23:00:00",22.7,31.069756,0.232],
    [32357,"urn:WaterMeter:MC0203J22010600005","2024-09-13T23:15:00",22.7,31.071733,0.246],
    [32358,"urn:WaterMeter:MC0203J22010600005","2024-09-13T23:30:00",22.6,31.058893,0.249],
    [32359,"urn:WaterMeter:MC0203J22010600005","2024-09-13T23:45:00",22.6,31.065527,0.228],
    [32360,"urn:WaterMeter:MC0203J22010600005","2024-09-14T00:00:00",22.6,30.997644,0.234],
    [32361,"urn:WaterMeter:MC0203J22010600005","2024-09-14T00:15:00",22.6,31.025574,0.231],
    [32362,"urn:WaterMeter:MC0203J22010600005","2024-09-14T00:30:00",22.6,31.013548,0.23],
    [32363,"urn:WaterMeter:MC0203J22010600005","2024-09-14T00:45:00",22.6,31.029064,0.238],
    [32364,"urn:WaterMeter:MC0203J22010600005","2024-09-14T01:00:00",22.6,30.99648,0.238],
    [32365,"urn:WaterMeter:MC0203J22010600005","2024-09-14T01:15:00",22.6,30.989887,0.235],
    [32366,"urn:WaterMeter:MC0203J22010600005","2024-09-14T01:30:00",22.6,31.008118,0.234],
    [32367,"urn:WaterMeter:MC0203J22010600005","2024-09-14T01:45:00",22.6,31.001097,0.236],
    [32368,"urn:WaterMeter:MC0203J22010600005","2024-09-14T02:00:00",22.5,31.01704,0.242],
    [32369,"urn:WaterMeter:MC0203J22010600005","2024-09-14T02:15:00",22.5,30.994154,0.228],
    [32370,"urn:WaterMeter:MC0203J22010600005","2024-09-14T02:30:00",22.399,31.007341,0.235],
    [32371,"urn:WaterMeter:MC0203J22010600005","2024-09-14T02:45:00",22.399,30.98368,0.231],
    [32372,"urn:WaterMeter:MC0203J22010600005","2024-09-14T03:00:00",22.399,30.987947,0.231],
    [32373,"urn:WaterMeter:MC0203J22010600005","2024-09-14T03:15:00",22.399,30.947992,0.241],
    [32374,"urn:WaterMeter:MC0203J22010600005","2024-09-14T03:30:00",22.399,30.994541,0.236],
    [32375,"urn:WaterMeter:MC0203J22010600005","2024-09-14T03:45:00",22.399,30.984844,0.237],
    [32376,"urn:WaterMeter:MC0203J22010600005","2024-09-14T04:00:00",22.399,30.9061,0.247],
    [32377,"urn:WaterMeter:MC0203J22010600005","2024-09-14T04:15:00",22.299,30.966612,0.244],
    [32378,"urn:WaterMeter:MC0203J22010600005","2024-09-14T04:30:00",22.299,30.919289,0.241],
    [32379,"urn:WaterMeter:MC0203J22010600005","2024-09-14T04:45:00",22.299,30.935968,0.232],
    [32380,"urn:WaterMeter:MC0203J22010600005","2024-09-14T05:00:00",22.299,30.897179,0.228],
    [32381,"urn:WaterMeter:MC0203J22010600005","2024-09-14T05:15:00",22.299,30.888256,0.231],
    [32382,"urn:WaterMeter:MC0203J22010600005","2024-09-14T05:30:00",22.299,30.904121,0.236],
    [32383,"urn:WaterMeter:MC0203J22010600005","2024-09-14T05:45:00",22.299,30.911919,0.227],
    [32384,"urn:WaterMeter:MC0203J22010600005","2024-09-14T06:00:00",22.299,30.925495,0.25],
    [32385,"urn:WaterMeter:MC0203J22010600005","2024-09-14T06:15:00",22.299,30.904898,0.228],
    [32386,"urn:WaterMeter:MC0203J22010600005","2024-09-14T06:30:00",22.299,30.916573,0.233],
    [32387,"urn:WaterMeter:MC0203J22010600005","2024-09-14T06:45:00",22.299,30.90257,0.227],
    [32388,"urn:WaterMeter:MC0203J22010600005","2024-09-14T07:00:00",22.299,30.879335,0.226],
    [32389,"urn:WaterMeter:MC0203J22010600005","2024-09-14T07:15:00",22.299,30.903345,0.248],
    [32390,"urn:WaterMeter:MC0203J22010600005","2024-09-14T07:30:00",22.299,30.868862,0.236],
    [32391,"urn:WaterMeter:MC0203J22010600005","2024-09-14T07:45:00",22.299,30.854122,0.228],
    [32392,"urn:WaterMeter:MC0203J22010600005","2024-09-14T08:00:00",22.299,30.81378,0.227],
    [32393,"urn:WaterMeter:MC0203J22010600005","2024-09-14T08:15:00",22.399,30.78973,0.227],
    [32394,"urn:WaterMeter:MC0203J22010600005","2024-09-14T08:30:00",22.399,30.793997,0.232],
    [32395,"urn:WaterMeter:MC0203J22010600005","2024-09-14T08:45:00",22.399,30.807535,0.238],
    [32396,"urn:WaterMeter:MC0203J22010600005","2024-09-14T09:00:00",22.399,30.772274,0.225],
    [32397,"urn:WaterMeter:MC0203J22010600005","2024-09-14T09:15:00",22.399,30.74741,0.232],
    [32398,"urn:WaterMeter:MC0203J22010600005","2024-09-14T09:30:00",22.399,30.780033,0.237],
    [32399,"urn:WaterMeter:MC0203J22010600005","2024-09-14T09:45:00",22.399,30.707495,0.231],
    [32400,"urn:WaterMeter:MC0203J22010600005","2024-09-14T10:00:00",22.399,30.714478,0.229],
    [32401,"urn:WaterMeter:MC0203J22010600005","2024-09-14T10:15:00",22.399,30.694307,0.221],
    [32402,"urn:WaterMeter:MC0203J22010600005","2024-09-14T10:30:00",22.399,30.664438,0.222],
    [32403,"urn:WaterMeter:MC0203J22010600005","2024-09-14T10:45:00",22.399,30.608192,0.227],
    [32404,"urn:WaterMeter:MC0203J22010600005","2024-09-14T11:00:00",22.5,30.590736,0.233],
    [32405,"urn:WaterMeter:MC0203J22010600005","2024-09-14T11:15:00",22.5,30.5791,0.221],
    [32406,"urn:WaterMeter:MC0203J22010600005","2024-09-14T11:30:00",22.6,30.54609,0.238],
    [32407,"urn:WaterMeter:MC0203J22010600005","2024-09-14T11:45:00",22.7,30.49997,0.226],
    [32408,"urn:WaterMeter:MC0203J22010600005","2024-09-14T12:00:00",22.7,30.498804,0.231],
    [32409,"urn:WaterMeter:MC0203J22010600005","2024-09-14T12:15:00",22.899,30.453033,0.222],
    [32410,"urn:WaterMeter:MC0203J22010600005","2024-09-14T12:30:00",23,30.416958,0.236],
    [32411,"urn:WaterMeter:MC0203J22010600005","2024-09-14T12:45:00",23.1,30.360674,0.216],
    [32412,"urn:WaterMeter:MC0203J22010600005","2024-09-14T13:00:00",23.299,30.343645,0.224],
    [32413,"urn:WaterMeter:MC0203J22010600005","2024-09-14T13:15:00",23.5,30.269556,0.234],
    [32414,"urn:WaterMeter:MC0203J22010600005","2024-09-14T13:30:00",23.6,30.1912,0.226],
    [32415,"urn:WaterMeter:MC0203J22010600005","2024-09-14T13:45:00",23.7,30.180727,0.221],
    [32416,"urn:WaterMeter:MC0203J22010600005","2024-09-14T14:00:00",23.6,30.101595,0.219],
    [32417,"urn:WaterMeter:MC0203J22010600005","2024-09-14T14:15:00",23.6,30.090307,0.215],
    [32418,"urn:WaterMeter:MC0203J22010600005","2024-09-14T14:30:00",23.6,30.04535,0.239],
    [32419,"urn:WaterMeter:MC0203J22010600005","2024-09-14T14:45:00",23.6,30.044186,0.219],
    [32420,"urn:WaterMeter:MC0203J22010600005","2024-09-14T15:00:00",23.6,30.010012,0.244],
    [32421,"urn:WaterMeter:MC0203J22010600005","2024-09-14T15:15:00",23.6,29.991392,0.224],
    [32422,"urn:WaterMeter:MC0203J22010600005","2024-09-14T15:30:00",23.6,29.961176,0.231],
    [32423,"urn:WaterMeter:MC0203J22010600005","2024-09-14T15:45:00",23.6,29.9476,0.219],
    [32424,"urn:WaterMeter:MC0203J22010600005","2024-09-14T16:00:00",23.6,29.8995,0.211],
    [32425,"urn:WaterMeter:MC0203J22010600005","2024-09-14T16:15:00",23.5,29.849848,0.211],
    [32426,"urn:WaterMeter:MC0203J22010600005","2024-09-14T16:30:00",23.5,29.839764,0.215],
    [32427,"urn:WaterMeter:MC0203J22010600005","2024-09-14T16:45:00",23.399,29.771492,0.215],
    [32428,"urn:WaterMeter:MC0203J22010600005","2024-09-14T17:00:00",23.299,29.79046,0.219],
    [32429,"urn:WaterMeter:MC0203J22010600005","2024-09-14T17:15:00",23.299,29.795155,0.227],
    [32430,"urn:WaterMeter:MC0203J22010600005","2024-09-14T17:30:00",23.299,29.763735,0.214],
    [32431,"urn:WaterMeter:MC0203J22010600005","2024-09-14T17:45:00",23.2,29.730724,0.22],
    [32432,"urn:WaterMeter:MC0203J22010600005","2024-09-14T18:00:00",23.1,29.731888,0.217],
    [32433,"urn:WaterMeter:MC0203J22010600005","2024-09-14T18:15:00",23,29.740421,0.216],
    [32434,"urn:WaterMeter:MC0203J22010600005","2024-09-14T18:30:00",23,29.721027,0.21],
    [32435,"urn:WaterMeter:MC0203J22010600005","2024-09-14T18:45:00",22.899,29.748219,0.216],
    [32436,"urn:WaterMeter:MC0203J22010600005","2024-09-14T19:00:00",22.799,29.752485,0.218],
    [32437,"urn:WaterMeter:MC0203J22010600005","2024-09-14T19:15:00",22.7,29.689259,0.21],
    [32438,"urn:WaterMeter:MC0203J22010600005","2024-09-14T19:30:00",22.6,29.704386,0.219],
    [32439,"urn:WaterMeter:MC0203J22010600005","2024-09-14T19:45:00",22.5,29.700855,0.22],
    [32440,"urn:WaterMeter:MC0203J22010600005","2024-09-14T20:00:00",22.399,29.70361,0.212],
    [32441,"urn:WaterMeter:MC0203J22010600005","2024-09-14T20:15:00",22.399,29.65745,0.22],
    [32442,"urn:WaterMeter:MC0203J22010600005","2024-09-14T20:30:00",22.299,29.689259,0.215],
    [32443,"urn:WaterMeter:MC0203J22010600005","2024-09-14T20:45:00",22.2,29.68499,0.215],
    [32444,"urn:WaterMeter:MC0203J22010600005","2024-09-14T21:00:00",22.1,29.677233,0.211],
    [32445,"urn:WaterMeter:MC0203J22010600005","2024-09-14T21:15:00",22,29.633013,0.213],
    [32446,"urn:WaterMeter:MC0203J22010600005","2024-09-14T21:30:00",21.899,29.693485,0.214],
    [32447,"urn:WaterMeter:MC0203J22010600005","2024-09-14T21:45:00",21.799,29.67607,0.211],
    [32448,"urn:WaterMeter:MC0203J22010600005","2024-09-14T22:00:00",21.7,29.643059,0.215],
    [32449,"urn:WaterMeter:MC0203J22010600005","2024-09-14T22:15:00",21.6,29.633013,0.214],
    [32450,"urn:WaterMeter:MC0203J22010600005","2024-09-14T22:30:00",21.5,29.628357,0.211],
    [32451,"urn:WaterMeter:MC0203J22010600005","2024-09-14T22:45:00",21.399,29.633013,0.218],
    [32452,"urn:WaterMeter:MC0203J22010600005","2024-09-14T23:00:00",21.299,29.619823,0.211],
    [32453,"urn:WaterMeter:MC0203J22010600005","2024-09-14T23:15:00",21.2,29.628746,0.216],
    [32454,"urn:WaterMeter:MC0203J22010600005","2024-09-14T23:30:00",21.1,29.6334,0.211],
    [32455,"urn:WaterMeter:MC0203J22010600005","2024-09-14T23:45:00",21,29.6206,0.231],
    [32456,"urn:WaterMeter:MC0203J22010600005","2024-09-15T00:00:00",20.899,29.608963,0.23],
    [32457,"urn:WaterMeter:MC0203J22010600005","2024-09-15T00:15:00",20.799,29.640383,0.221],
    [32458,"urn:WaterMeter:MC0203J22010600005","2024-09-15T00:30:00",20.7,29.61284,0.209],
    [32459,"urn:WaterMeter:MC0203J22010600005","2024-09-15T00:45:00",20.6,29.65939,0.21],
    [32460,"urn:WaterMeter:MC0203J22010600005","2024-09-15T01:00:00",20.5,29.639606,0.212],
    [32461,"urn:WaterMeter:MC0203J22010600005","2024-09-15T01:15:00",20.5,29.632236,0.231],
    [32462,"urn:WaterMeter:MC0203J22010600005","2024-09-15T01:30:00",20.399,29.610514,0.226],
    [32463,"urn:WaterMeter:MC0203J22010600005","2024-09-15T01:45:00",20.299,29.640383,0.222],
    [32464,"urn:WaterMeter:MC0203J22010600005","2024-09-15T02:00:00",20.2,29.57444,0.223],
    [32465,"urn:WaterMeter:MC0203J22010600005","2024-09-15T02:15:00",20.1,29.619047,0.212],
    [32466,"urn:WaterMeter:MC0203J22010600005","2024-09-15T02:30:00",20,29.624052,0.216],
    [32467,"urn:WaterMeter:MC0203J22010600005","2024-09-15T02:45:00",19.899,29.610514,0.212],
    [32468,"urn:WaterMeter:MC0203J22010600005","2024-09-15T03:00:00",19.799,29.59849,0.215],
    [32469,"urn:WaterMeter:MC0203J22010600005","2024-09-15T03:15:00",19.7,29.603493,0.217],
    [32470,"urn:WaterMeter:MC0203J22010600005","2024-09-15T03:30:00",19.6,29.59073,0.209],
    [32471,"urn:WaterMeter:MC0203J22010600005","2024-09-15T03:45:00",19.5,29.6206,0.22],
    [32472,"urn:WaterMeter:MC0203J22010600005","2024-09-15T04:00:00",19.5,29.586037,0.217],
    [32473,"urn:WaterMeter:MC0203J22010600005","2024-09-15T04:15:00",19.399,29.62603,0.209],
    [32474,"urn:WaterMeter:MC0203J22010600005","2024-09-15T04:30:00",19.299,29.614355,0.212],
    [32475,"urn:WaterMeter:MC0203J22010600005","2024-09-15T04:45:00",19.2,29.593834,0.212],
    [32476,"urn:WaterMeter:MC0203J22010600005","2024-09-15T05:00:00",19.1,29.5981,0.226],
    [32477,"urn:WaterMeter:MC0203J22010600005","2024-09-15T05:15:00",19,29.60582,0.212],
    [32478,"urn:WaterMeter:MC0203J22010600005","2024-09-15T05:30:00",19,29.631073,0.22],
    [32479,"urn:WaterMeter:MC0203J22010600005","2024-09-15T05:45:00",18.899,29.595736,0.217],
    [32480,"urn:WaterMeter:MC0203J22010600005","2024-09-15T06:00:00",18.799,29.617496,0.24],
    [32481,"urn:WaterMeter:MC0203J22010600005","2024-09-15T06:15:00",18.799,29.614742,0.214],
    [32482,"urn:WaterMeter:MC0203J22010600005","2024-09-15T06:30:00",18.7,29.57634,0.237],
    [32483,"urn:WaterMeter:MC0203J22010600005","2024-09-15T06:45:00",18.7,29.58371,0.222],
    [32484,"urn:WaterMeter:MC0203J22010600005","2024-09-15T07:00:00",18.7,29.560863,0.208],
    [32485,"urn:WaterMeter:MC0203J22010600005","2024-09-15T07:15:00",18.799,29.556946,0.213],
    [32486,"urn:WaterMeter:MC0203J22010600005","2024-09-15T07:30:00",18.899,29.54302,0.202],
    [32487,"urn:WaterMeter:MC0203J22010600005","2024-09-15T07:45:00",19,29.547636,0.216],
    [32488,"urn:WaterMeter:MC0203J22010600005","2024-09-15T08:00:00",19.2,29.494532,0.201],
    [32489,"urn:WaterMeter:MC0203J22010600005","2024-09-15T08:15:00",19.299,29.456518,0.219],
    [32490,"urn:WaterMeter:MC0203J22010600005","2024-09-15T08:30:00",19.5,29.488287,0.204],
    [32491,"urn:WaterMeter:MC0203J22010600005","2024-09-15T08:45:00",19.7,29.46928,0.203],
    [32492,"urn:WaterMeter:MC0203J22010600005","2024-09-15T09:00:00",19.899,29.420404,0.201],
    [32493,"urn:WaterMeter:MC0203J22010600005","2024-09-15T09:15:00",20.1,29.355276,0.2],
    [32494,"urn:WaterMeter:MC0203J22010600005","2024-09-15T09:30:00",20.299,29.306013,0.21],
    [32495,"urn:WaterMeter:MC0203J22010600005","2024-09-15T09:45:00",20.5,29.300194,0.203],
    [32496,"urn:WaterMeter:MC0203J22010600005","2024-09-15T10:00:00",20.7,29.226454,0.207],
    [32497,"urn:WaterMeter:MC0203J22010600005","2024-09-15T10:15:00",20.899,29.146198,0.199],
    [32498,"urn:WaterMeter:MC0203J22010600005","2024-09-15T10:30:00",21,29.163265,0.218],
    [32499,"urn:WaterMeter:MC0203J22010600005","2024-09-15T10:45:00",21.2,29.033669,0.206],
    [32500,"urn:WaterMeter:MC0203J22010600005","2024-09-15T11:00:00",21.399,29.019743,0.197],
    [32501,"urn:WaterMeter:MC0203J22010600005","2024-09-15T11:15:00",21.6,28.928974,0.202],
    [32502,"urn:WaterMeter:MC0203J22010600005","2024-09-15T11:30:00",21.899,28.919275,0.191],
    [32503,"urn:WaterMeter:MC0203J22010600005","2024-09-15T11:45:00",22.1,28.845575,0.207],
    [32504,"urn:WaterMeter:MC0203J22010600005","2024-09-15T12:00:00",22.399,28.79282,0.198],
    [32505,"urn:WaterMeter:MC0203J22010600005","2024-09-15T12:15:00",22.7,28.70981,0.2],
    [32506,"urn:WaterMeter:MC0203J22010600005","2024-09-15T12:30:00",22.899,28.652363,0.189],
    [32507,"urn:WaterMeter:MC0203J22010600005","2024-09-15T12:45:00",23.1,28.579088,0.199],
    [32508,"urn:WaterMeter:MC0203J22010600005","2024-09-15T13:00:00",23.299,28.528234,0.203],
    [32509,"urn:WaterMeter:MC0203J22010600005","2024-09-15T13:15:00",23.399,28.44212,0.196],
    [32510,"urn:WaterMeter:MC0203J22010600005","2024-09-15T13:30:00",23.6,28.41423,0.191],
    [32511,"urn:WaterMeter:MC0203J22010600005","2024-09-15T13:45:00",23.7,28.330444,0.188],
    [32512,"urn:WaterMeter:MC0203J22010600005","2024-09-15T14:00:00",23.799,28.297861,0.189],
    [32513,"urn:WaterMeter:MC0203J22010600005","2024-09-15T14:15:00",23.899,28.208605,0.191],
    [32514,"urn:WaterMeter:MC0203J22010600005","2024-09-15T14:30:00",23.899,28.143864,0.198],
    [32515,"urn:WaterMeter:MC0203J22010600005","2024-09-15T14:45:00",24,28.088394,0.2],
    [32516,"urn:WaterMeter:MC0203J22010600005","2024-09-15T15:00:00",24,28.023615,0.196],
    [32517,"urn:WaterMeter:MC0203J22010600005","2024-09-15T15:15:00",24.1,28.013103,0.184],
    [32518,"urn:WaterMeter:MC0203J22010600005","2024-09-15T15:30:00",24.2,27.922762,0.2],
    [32519,"urn:WaterMeter:MC0203J22010600005","2024-09-15T15:45:00",24.299,27.880867,0.182],
    [32520,"urn:WaterMeter:MC0203J22010600005","2024-09-15T16:00:00",24.2,27.824623,0.194],
    [32521,"urn:WaterMeter:MC0203J22010600005","2024-09-15T16:15:00",24.2,27.77148,0.206],
    [32522,"urn:WaterMeter:MC0203J22010600005","2024-09-15T16:30:00",24.1,27.736958,0.192],
    [32523,"urn:WaterMeter:MC0203J22010600005","2024-09-15T16:45:00",24,27.751698,0.184],
    [32524,"urn:WaterMeter:MC0203J22010600005","2024-09-15T17:00:00",24,27.709028,0.187],
    [32525,"urn:WaterMeter:MC0203J22010600005","2024-09-15T17:15:00",23.899,27.690409,0.18],
    [32526,"urn:WaterMeter:MC0203J22010600005","2024-09-15T17:30:00",23.899,27.646149,0.199],
    [32527,"urn:WaterMeter:MC0203J22010600005","2024-09-15T17:45:00",23.799,27.651619,0.185],
    [32528,"urn:WaterMeter:MC0203J22010600005","2024-09-15T18:00:00",23.799,27.63684,0.186],
    [32529,"urn:WaterMeter:MC0203J22010600005","2024-09-15T18:15:00",23.7,27.606195,0.183],
    [32530,"urn:WaterMeter:MC0203J22010600005","2024-09-15T18:30:00",23.6,27.616669,0.201],
    [32531,"urn:WaterMeter:MC0203J22010600005","2024-09-15T18:45:00",23.5,27.602356,0.209],
    [32532,"urn:WaterMeter:MC0203J22010600005","2024-09-15T19:00:00",23.399,27.578655,0.197],
    [32533,"urn:WaterMeter:MC0203J22010600005","2024-09-15T19:15:00",23.299,27.625591,0.195],
    [32534,"urn:WaterMeter:MC0203J22010600005","2024-09-15T19:30:00",23.2,27.61089,0.204],
    [32535,"urn:WaterMeter:MC0203J22010600005","2024-09-15T19:45:00",23.1,27.638042,0.19],
    [32536,"urn:WaterMeter:MC0203J22010600005","2024-09-15T20:00:00",23,27.645374,0.21],
    [32537,"urn:WaterMeter:MC0203J22010600005","2024-09-15T20:15:00",22.799,27.62175,0.202],
    [32538,"urn:WaterMeter:MC0203J22010600005","2024-09-15T20:30:00",22.7,27.644598,0.19],
    [32539,"urn:WaterMeter:MC0203J22010600005","2024-09-15T20:45:00",22.6,27.66248,0.21],
    [32540,"urn:WaterMeter:MC0203J22010600005","2024-09-15T21:00:00",22.5,27.641146,0.19],
    [32541,"urn:WaterMeter:MC0203J22010600005","2024-09-15T21:15:00",22.5,27.661705,0.192],
    [32542,"urn:WaterMeter:MC0203J22010600005","2024-09-15T21:30:00",22.399,27.611666,0.184],
    [32543,"urn:WaterMeter:MC0203J22010600005","2024-09-15T21:45:00",22.299,27.67563,0.197],
    [32544,"urn:WaterMeter:MC0203J22010600005","2024-09-15T22:00:00",22.2,27.6202,0.194],
    [32545,"urn:WaterMeter:MC0203J22010600005","2024-09-15T22:15:00",22.1,27.674854,0.189],
    [32546,"urn:WaterMeter:MC0203J22010600005","2024-09-15T22:30:00",22,27.658602,0.188],
    [32547,"urn:WaterMeter:MC0203J22010600005","2024-09-15T22:45:00",21.899,27.641533,0.191],
    [32548,"urn:WaterMeter:MC0203J22010600005","2024-09-15T23:00:00",21.799,27.668299,0.19],
    [32549,"urn:WaterMeter:MC0203J22010600005","2024-09-15T23:15:00",21.799,27.638042,0.194],
    [32550,"urn:WaterMeter:MC0203J22010600005","2024-09-15T23:30:00",21.7,27.637228,0.186],
    [32551,"urn:WaterMeter:MC0203J22010600005","2024-09-15T23:45:00",21.6,27.654722,0.185],
    [32552,"urn:WaterMeter:MC0203J22010600005","2024-09-16T00:00:00",21.5,27.647314,0.204],
    [32553,"urn:WaterMeter:MC0203J22010600005","2024-09-16T00:15:00",21.399,27.641146,0.191],
    [32554,"urn:WaterMeter:MC0203J22010600005","2024-09-16T00:30:00",21.299,27.628733,0.199],
    [32555,"urn:WaterMeter:MC0203J22010600005","2024-09-16T00:45:00",21.2,27.66632,0.186],
    [32556,"urn:WaterMeter:MC0203J22010600005","2024-09-16T01:00:00",21.1,27.641922,0.204],
    [32557,"urn:WaterMeter:MC0203J22010600005","2024-09-16T01:15:00",21,27.638819,0.189],
    [32558,"urn:WaterMeter:MC0203J22010600005","2024-09-16T01:30:00",20.899,27.669075,0.187],
    [32559,"urn:WaterMeter:MC0203J22010600005","2024-09-16T01:45:00",20.899,27.677221,0.186],
    [32560,"urn:WaterMeter:MC0203J22010600005","2024-09-16T02:00:00",20.799,27.654335,0.213],
    [32561,"urn:WaterMeter:MC0203J22010600005","2024-09-16T02:15:00",20.7,27.640759,0.196],
    [32562,"urn:WaterMeter:MC0203J22010600005","2024-09-16T02:30:00",20.6,27.665932,0.197],
    [32563,"urn:WaterMeter:MC0203J22010600005","2024-09-16T02:45:00",20.5,27.67916,0.178],
    [32564,"urn:WaterMeter:MC0203J22010600005","2024-09-16T03:00:00",20.399,27.692348,0.197],
    [32565,"urn:WaterMeter:MC0203J22010600005","2024-09-16T03:15:00",20.399,27.659376,0.197],
    [32566,"urn:WaterMeter:MC0203J22010600005","2024-09-16T03:30:00",20.299,27.663605,0.187],
    [32567,"urn:WaterMeter:MC0203J22010600005","2024-09-16T03:45:00",20.2,27.641146,0.185],
    [32568,"urn:WaterMeter:MC0203J22010600005","2024-09-16T04:00:00",20.1,27.63684,0.187],
    [32569,"urn:WaterMeter:MC0203J22010600005","2024-09-16T04:15:00",20.1,27.677608,0.189],
    [32570,"urn:WaterMeter:MC0203J22010600005","2024-09-16T04:30:00",20,27.688858,0.187],
    [32571,"urn:WaterMeter:MC0203J22010600005","2024-09-16T04:45:00",19.899,27.682262,0.195],
    [32572,"urn:WaterMeter:MC0203J22010600005","2024-09-16T05:00:00",19.899,27.64231,0.191],
    [32573,"urn:WaterMeter:MC0203J22010600005","2024-09-16T05:15:00",20.1,27.676832,0.181],
    [32574,"urn:WaterMeter:MC0203J22010600005","2024-09-16T05:30:00",20.2,27.655458,0.182],
    [32575,"urn:WaterMeter:MC0203J22010600005","2024-09-16T05:45:00",20.299,27.62369,0.187],
    [32576,"urn:WaterMeter:MC0203J22010600005","2024-09-16T06:00:00",20.299,27.625202,0.188],
    [32577,"urn:WaterMeter:MC0203J22010600005","2024-09-16T06:15:00",20.299,27.61438,0.193],
    [32578,"urn:WaterMeter:MC0203J22010600005","2024-09-16T06:30:00",20.399,27.78075,0.197],
    [32579,"urn:WaterMeter:MC0203J22010600005","2024-09-16T06:45:00",20.399,28.610895,0.211],
    [32580,"urn:WaterMeter:MC0203J22010600005","2024-09-16T07:00:00",20.399,29.885147,0.224],
    [32581,"urn:WaterMeter:MC0203J22010600005","2024-09-16T07:15:00",20.5,30.84869,0.232],
    [32582,"urn:WaterMeter:MC0203J22010600005","2024-09-16T07:30:00",20.6,31.558935,0.235],
    [32583,"urn:WaterMeter:MC0203J22010600005","2024-09-16T07:45:00",20.7,32.013554,0.239],
    [32584,"urn:WaterMeter:MC0203J22010600005","2024-09-16T08:00:00",20.899,32.26061,0.253],
    [32585,"urn:WaterMeter:MC0203J22010600005","2024-09-16T08:15:00",21,32.18264,0.244],
    [32586,"urn:WaterMeter:MC0203J22010600005","2024-09-16T08:30:00",21.2,32.082214,0.237],
    [32587,"urn:WaterMeter:MC0203J22010600005","2024-09-16T08:45:00",21.2,32.044975,0.24],
    [32588,"urn:WaterMeter:MC0203J22010600005","2024-09-16T09:00:00",21.399,32.05506,0.235],
    [32589,"urn:WaterMeter:MC0203J22010600005","2024-09-16T09:15:00",21.5,31.996487,0.239],
    [32590,"urn:WaterMeter:MC0203J22010600005","2024-09-16T09:30:00",21.7,31.90184,0.245],
    [32591,"urn:WaterMeter:MC0203J22010600005","2024-09-16T09:45:00",21.899,31.903353,0.242],
    [32592,"urn:WaterMeter:MC0203J22010600005","2024-09-16T10:00:00",22,31.853313,0.246],
    [32593,"urn:WaterMeter:MC0203J22010600005","2024-09-16T10:15:00",22.2,31.826548,0.253],
    [32594,"urn:WaterMeter:MC0203J22010600005","2024-09-16T10:30:00",22.2,31.785082,0.229],
    [32595,"urn:WaterMeter:MC0203J22010600005","2024-09-16T10:45:00",22.399,31.74125,0.234],
    [32596,"urn:WaterMeter:MC0203J22010600005","2024-09-16T11:00:00",22.5,31.682287,0.239],
    [32597,"urn:WaterMeter:MC0203J22010600005","2024-09-16T11:15:00",22.6,31.626043,0.232],
    [32598,"urn:WaterMeter:MC0203J22010600005","2024-09-16T11:30:00",22.899,31.605484,0.252],
    [32599,"urn:WaterMeter:MC0203J22010600005","2024-09-16T11:45:00",23.1,31.483295,0.226],
    [32600,"urn:WaterMeter:MC0203J22010600005","2024-09-16T12:00:00",23.299,31.47127,0.214],
    [32601,"urn:WaterMeter:MC0203J22010600005","2024-09-16T12:15:00",23.5,31.429338,0.244],
    [32602,"urn:WaterMeter:MC0203J22010600005","2024-09-16T12:30:00",23.7,31.447958,0.23],
    [32603,"urn:WaterMeter:MC0203J22010600005","2024-09-16T12:45:00",23.799,31.361069,0.25],
    [32604,"urn:WaterMeter:MC0203J22010600005","2024-09-16T13:00:00",24,31.29943,0.232],
    [32605,"urn:WaterMeter:MC0203J22010600005","2024-09-16T13:15:00",24.1,31.238142,0.234],
    [32606,"urn:WaterMeter:MC0203J22010600005","2024-09-16T13:30:00",24.2,31.189655,0.24],
    [32607,"urn:WaterMeter:MC0203J22010600005","2024-09-16T13:45:00",24.299,31.176815,0.219],
    [32608,"urn:WaterMeter:MC0203J22010600005","2024-09-16T14:00:00",24.399,31.106644,0.23],
    [32609,"urn:WaterMeter:MC0203J22010600005","2024-09-16T14:15:00",24.5,31.110136,0.239],
    [32610,"urn:WaterMeter:MC0203J22010600005","2024-09-16T14:30:00",24.5,31.037598,0.224],
    [32611,"urn:WaterMeter:MC0203J22010600005","2024-09-16T14:45:00",24.5,30.995705,0.238],
    [32612,"urn:WaterMeter:MC0203J22010600005","2024-09-16T15:00:00",24.6,30.940971,0.243],
    [32613,"urn:WaterMeter:MC0203J22010600005","2024-09-16T15:15:00",24.6,30.893686,0.228],
    [32614,"urn:WaterMeter:MC0203J22010600005","2024-09-16T15:30:00",24.6,30.851793,0.237],
    [32615,"urn:WaterMeter:MC0203J22010600005","2024-09-16T15:45:00",24.6,30.851793,0.23],
    [32616,"urn:WaterMeter:MC0203J22010600005","2024-09-16T16:00:00",24.6,30.792057,0.217],
    [32617,"urn:WaterMeter:MC0203J22010600005","2024-09-16T16:15:00",24.5,30.790506,0.22],
    [32618,"urn:WaterMeter:MC0203J22010600005","2024-09-16T16:30:00",24.5,30.75094,0.242],
    [32619,"urn:WaterMeter:MC0203J22010600005","2024-09-16T16:45:00",24.399,30.705555,0.227],
    [32620,"urn:WaterMeter:MC0203J22010600005","2024-09-16T17:00:00",24.399,30.752104,0.222],
    [32621,"urn:WaterMeter:MC0203J22010600005","2024-09-16T17:15:00",24.299,30.707884,0.24],
    [32622,"urn:WaterMeter:MC0203J22010600005","2024-09-16T17:30:00",24.299,30.683445,0.224],
    [32623,"urn:WaterMeter:MC0203J22010600005","2024-09-16T17:45:00",24.2,30.678015,0.223],
    [32624,"urn:WaterMeter:MC0203J22010600005","2024-09-16T18:00:00",24.1,30.638838,0.257],
    [32625,"urn:WaterMeter:MC0203J22010600005","2024-09-16T18:15:00",24,30.658232,0.221],
    [32626,"urn:WaterMeter:MC0203J22010600005","2024-09-16T18:30:00",23.899,30.668318,0.235],
    [32627,"urn:WaterMeter:MC0203J22010600005","2024-09-16T18:45:00",23.799,30.655128,0.229],
    [32628,"urn:WaterMeter:MC0203J22010600005","2024-09-16T19:00:00",23.7,30.59578,0.224],
    [32629,"urn:WaterMeter:MC0203J22010600005","2024-09-16T19:15:00",23.6,30.591513,0.229],
    [32630,"urn:WaterMeter:MC0203J22010600005","2024-09-16T19:30:00",23.5,30.627588,0.228],
    [32631,"urn:WaterMeter:MC0203J22010600005","2024-09-16T19:45:00",23.399,30.618666,0.217],
    [32632,"urn:WaterMeter:MC0203J22010600005","2024-09-16T20:00:00",23.399,30.60315,0.239],
    [32633,"urn:WaterMeter:MC0203J22010600005","2024-09-16T20:15:00",23.299,30.626812,0.228],
    [32634,"urn:WaterMeter:MC0203J22010600005","2024-09-16T20:30:00",23.2,30.609745,0.232],
    [32635,"urn:WaterMeter:MC0203J22010600005","2024-09-16T20:45:00",23.1,30.585655,0.239],
    [32636,"urn:WaterMeter:MC0203J22010600005","2024-09-16T21:00:00",23,30.591862,0.23],
    [32637,"urn:WaterMeter:MC0203J22010600005","2024-09-16T21:15:00",22.899,30.584492,0.235],
    [32638,"urn:WaterMeter:MC0203J22010600005","2024-09-16T21:30:00",22.899,30.570955,0.231],
    [32639,"urn:WaterMeter:MC0203J22010600005","2024-09-16T21:45:00",22.799,30.552336,0.225],
    [32640,"urn:WaterMeter:MC0203J22010600005","2024-09-16T22:00:00",22.7,30.558153,0.217],
    [32641,"urn:WaterMeter:MC0203J22010600005","2024-09-16T22:15:00",22.6,30.536005,0.22],
    [32642,"urn:WaterMeter:MC0203J22010600005","2024-09-16T22:30:00",22.6,30.531776,0.228],
    [32643,"urn:WaterMeter:MC0203J22010600005","2024-09-16T22:45:00",22.5,30.554625,0.225],
    [32644,"urn:WaterMeter:MC0203J22010600005","2024-09-16T23:00:00",22.399,30.527082,0.22],
    [32645,"urn:WaterMeter:MC0203J22010600005","2024-09-16T23:15:00",22.299,30.526308,0.229],
    [32646,"urn:WaterMeter:MC0203J22010600005","2024-09-16T23:30:00",22.2,30.552336,0.238],
    [32647,"urn:WaterMeter:MC0203J22010600005","2024-09-16T23:45:00",22.1,30.518976,0.235],
    [32648,"urn:WaterMeter:MC0203J22010600005","2024-09-17T00:00:00",22.1,30.533329,0.227],
    [32649,"urn:WaterMeter:MC0203J22010600005","2024-09-17T00:15:00",22,30.548456,0.221],
    [32650,"urn:WaterMeter:MC0203J22010600005","2024-09-17T00:30:00",21.899,30.51238,0.236],
    [32651,"urn:WaterMeter:MC0203J22010600005","2024-09-17T00:45:00",21.799,30.546865,0.224],
    [32652,"urn:WaterMeter:MC0203J22010600005","2024-09-17T01:00:00",21.7,30.522467,0.239],
    [32653,"urn:WaterMeter:MC0203J22010600005","2024-09-17T01:15:00",21.7,30.535616,0.221],
    [32654,"urn:WaterMeter:MC0203J22010600005","2024-09-17T01:30:00",21.6,30.534065,0.234],
    [32655,"urn:WaterMeter:MC0203J22010600005","2024-09-17T01:45:00",21.5,30.501133,0.224],
    [32656,"urn:WaterMeter:MC0203J22010600005","2024-09-17T02:00:00",21.399,30.541473,0.221],
    [32657,"urn:WaterMeter:MC0203J22010600005","2024-09-17T02:15:00",21.299,30.49799,0.224],
    [32658,"urn:WaterMeter:MC0203J22010600005","2024-09-17T02:30:00",21.2,30.47398,0.218],
    [32659,"urn:WaterMeter:MC0203J22010600005","2024-09-17T02:45:00",21.2,30.508076,0.227],
    [32660,"urn:WaterMeter:MC0203J22010600005","2024-09-17T03:00:00",21.1,30.488293,0.22],
    [32661,"urn:WaterMeter:MC0203J22010600005","2024-09-17T03:15:00",21,30.54419,0.234],
    [32662,"urn:WaterMeter:MC0203J22010600005","2024-09-17T03:30:00",20.899,30.51083,0.225],
    [32663,"urn:WaterMeter:MC0203J22010600005","2024-09-17T03:45:00",20.899,30.523243,0.222],
    [32664,"urn:WaterMeter:MC0203J22010600005","2024-09-17T04:00:00",20.799,30.489883,0.229],
    [32665,"urn:WaterMeter:MC0203J22010600005","2024-09-17T04:15:00",20.799,30.469713,0.223],
    [32666,"urn:WaterMeter:MC0203J22010600005","2024-09-17T04:30:00",20.7,30.518976,0.239],
    [32667,"urn:WaterMeter:MC0203J22010600005","2024-09-17T04:45:00",20.7,30.461178,0.229],
    [32668,"urn:WaterMeter:MC0203J22010600005","2024-09-17T05:00:00",20.6,30.504236,0.24],
    [32669,"urn:WaterMeter:MC0203J22010600005","2024-09-17T05:15:00",20.7,30.467384,0.222],
    [32670,"urn:WaterMeter:MC0203J22010600005","2024-09-17T05:30:00",20.799,30.513546,0.221],
    [32671,"urn:WaterMeter:MC0203J22010600005","2024-09-17T05:45:00",20.899,30.80253,0.231],
    [32672,"urn:WaterMeter:MC0203J22010600005","2024-09-17T06:00:00",20.899,31.26448,0.259],
    [32673,"urn:WaterMeter:MC0203J22010600005","2024-09-17T06:15:00",20.899,31.93167,0.243],
    [32674,"urn:WaterMeter:MC0203J22010600005","2024-09-17T06:30:00",20.899,32.35103,0.253],
    [32675,"urn:WaterMeter:MC0203J22010600005","2024-09-17T06:45:00",20.899,32.64234,0.264],
    [32676,"urn:WaterMeter:MC0203J22010600005","2024-09-17T07:00:00",20.899,32.817284,0.265],
    [32677,"urn:WaterMeter:MC0203J22010600005","2024-09-17T07:15:00",21,32.97283,0.256],
    [32678,"urn:WaterMeter:MC0203J22010600005","2024-09-17T07:30:00",21.1,33.113987,0.257],
    [32679,"urn:WaterMeter:MC0203J22010600005","2024-09-17T07:45:00",21.2,33.247078,0.254],
    [32680,"urn:WaterMeter:MC0203J22010600005","2024-09-17T08:00:00",21.299,33.32543,0.254],
    [32681,"urn:WaterMeter:MC0203J22010600005","2024-09-17T08:15:00",21.399,33.117905,0.261],
    [32682,"urn:WaterMeter:MC0203J22010600005","2024-09-17T08:30:00",21.6,32.764877,0.257],
    [32683,"urn:WaterMeter:MC0203J22010600005","2024-09-17T08:45:00",21.6,32.711,0.248],
    [32684,"urn:WaterMeter:MC0203J22010600005","2024-09-17T09:00:00",21.799,32.646996,0.257],
    [32685,"urn:WaterMeter:MC0203J22010600005","2024-09-17T09:15:00",21.799,32.533302,0.247],
    [32686,"urn:WaterMeter:MC0203J22010600005","2024-09-17T09:30:00",21.899,32.47748,0.251],
    [32687,"urn:WaterMeter:MC0203J22010600005","2024-09-17T09:45:00",22,32.446026,0.268],
    [32688,"urn:WaterMeter:MC0203J22010600005","2024-09-17T10:00:00",22.1,32.37081,0.253],
    [32689,"urn:WaterMeter:MC0203J22010600005","2024-09-17T10:15:00",22.2,32.345207,0.246],
    [32690,"urn:WaterMeter:MC0203J22010600005","2024-09-17T10:30:00",22.299,32.31379,0.255],
    [32691,"urn:WaterMeter:MC0203J22010600005","2024-09-17T10:45:00",22.399,32.27923,0.242],
    [32692,"urn:WaterMeter:MC0203J22010600005","2024-09-17T11:00:00",22.5,32.2172,0.243],
    [32693,"urn:WaterMeter:MC0203J22010600005","2024-09-17T11:15:00",22.6,32.166348,0.258],
    [32694,"urn:WaterMeter:MC0203J22010600005","2024-09-17T11:30:00",22.7,32.085667,0.241],
    [32695,"urn:WaterMeter:MC0203J22010600005","2024-09-17T11:45:00",22.899,32.0795,0.252],
    [32696,"urn:WaterMeter:MC0203J22010600005","2024-09-17T12:00:00",23,32.03489,0.244],
    [32697,"urn:WaterMeter:MC0203J22010600005","2024-09-17T12:15:00",23.1,31.982096,0.241],
    [32698,"urn:WaterMeter:MC0203J22010600005","2024-09-17T12:30:00",23.2,31.939077,0.235],
    [32699,"urn:WaterMeter:MC0203J22010600005","2024-09-17T12:45:00",23.299,31.864563,0.234],
    [32700,"urn:WaterMeter:MC0203J22010600005","2024-09-17T13:00:00",23.399,31.84478,0.238],
    [32701,"urn:WaterMeter:MC0203J22010600005","2024-09-17T13:15:00",23.5,31.779263,0.239],
    [32702,"urn:WaterMeter:MC0203J22010600005","2024-09-17T13:30:00",23.6,31.710178,0.242],
    [32703,"urn:WaterMeter:MC0203J22010600005","2024-09-17T13:45:00",23.7,31.679922,0.253],
    [32704,"urn:WaterMeter:MC0203J22010600005","2024-09-17T14:00:00",23.7,31.62449,0.237],
    [32705,"urn:WaterMeter:MC0203J22010600005","2024-09-17T14:15:00",23.799,31.569408,0.232],
    [32706,"urn:WaterMeter:MC0203J22010600005","2024-09-17T14:30:00",23.799,31.555017,0.236],
    [32707,"urn:WaterMeter:MC0203J22010600005","2024-09-17T14:45:00",23.899,31.529068,0.244],
    [32708,"urn:WaterMeter:MC0203J22010600005","2024-09-17T15:00:00",23.799,31.462349,0.239],
    [32709,"urn:WaterMeter:MC0203J22010600005","2024-09-17T15:15:00",23.799,31.418865,0.246],
    [32710,"urn:WaterMeter:MC0203J22010600005","2024-09-17T15:30:00",23.7,31.403,0.226],
    [32711,"urn:WaterMeter:MC0203J22010600005","2024-09-17T15:45:00",23.7,31.373907,0.239],
    [32712,"urn:WaterMeter:MC0203J22010600005","2024-09-17T16:00:00",23.7,31.355677,0.233],
    [32713,"urn:WaterMeter:MC0203J22010600005","2024-09-17T16:15:00",23.6,31.309477,0.229],
    [32714,"urn:WaterMeter:MC0203J22010600005","2024-09-17T16:30:00",23.6,31.292797,0.232],
    [32715,"urn:WaterMeter:MC0203J22010600005","2024-09-17T16:45:00",23.6,31.230385,0.23],
    [32716,"urn:WaterMeter:MC0203J22010600005","2024-09-17T17:00:00",23.5,31.274992,0.243],
    [32717,"urn:WaterMeter:MC0203J22010600005","2024-09-17T17:15:00",23.399,31.239695,0.238],
    [32718,"urn:WaterMeter:MC0203J22010600005","2024-09-17T17:30:00",23.399,31.204008,0.231],
    [32719,"urn:WaterMeter:MC0203J22010600005","2024-09-17T17:45:00",23.299,31.209438,0.238],
    [32720,"urn:WaterMeter:MC0203J22010600005","2024-09-17T18:00:00",23.2,31.164442,0.236],
    [32721,"urn:WaterMeter:MC0203J22010600005","2024-09-17T18:15:00",23.1,31.210602,0.23],
    [32722,"urn:WaterMeter:MC0203J22010600005","2024-09-17T18:30:00",23.1,31.169872,0.237],
    [32723,"urn:WaterMeter:MC0203J22010600005","2024-09-17T18:45:00",23,31.151253,0.233],
    [32724,"urn:WaterMeter:MC0203J22010600005","2024-09-17T19:00:00",23,31.180733,0.237],
    [32725,"urn:WaterMeter:MC0203J22010600005","2024-09-17T19:15:00",22.899,31.152416,0.23],
    [32726,"urn:WaterMeter:MC0203J22010600005","2024-09-17T19:30:00",22.799,31.114014,0.231],
    [32727,"urn:WaterMeter:MC0203J22010600005","2024-09-17T19:45:00",22.799,31.124876,0.227],
    [32728,"urn:WaterMeter:MC0203J22010600005","2024-09-17T20:00:00",22.7,31.1016,0.229],
    [32729,"urn:WaterMeter:MC0203J22010600005","2024-09-17T20:15:00",22.7,31.157032,0.236],
    [32730,"urn:WaterMeter:MC0203J22010600005","2024-09-17T20:30:00",22.7,31.099623,0.236],
    [32731,"urn:WaterMeter:MC0203J22010600005","2024-09-17T20:45:00",22.7,31.071346,0.255],
    [32732,"urn:WaterMeter:MC0203J22010600005","2024-09-17T21:00:00",22.7,31.07445,0.236],
    [32733,"urn:WaterMeter:MC0203J22010600005","2024-09-17T21:15:00",22.6,31.097296,0.232],
    [32734,"urn:WaterMeter:MC0203J22010600005","2024-09-17T21:30:00",22.6,31.06863,0.232],
    [32735,"urn:WaterMeter:MC0203J22010600005","2024-09-17T21:45:00",22.5,31.110523,0.227],
    [32736,"urn:WaterMeter:MC0203J22010600005","2024-09-17T22:00:00",22.399,31.112076,0.243],
    [32737,"urn:WaterMeter:MC0203J22010600005","2024-09-17T22:15:00",22.399,31.07251,0.248],
    [32738,"urn:WaterMeter:MC0203J22010600005","2024-09-17T22:30:00",22.299,31.06863,0.228],
    [32739,"urn:WaterMeter:MC0203J22010600005","2024-09-17T22:45:00",22.299,31.06898,0.232],
    [32740,"urn:WaterMeter:MC0203J22010600005","2024-09-17T23:00:00",22.2,31.05773,0.231],
    [32741,"urn:WaterMeter:MC0203J22010600005","2024-09-17T23:15:00",22.2,31.046907,0.231],
    [32742,"urn:WaterMeter:MC0203J22010600005","2024-09-17T23:30:00",22.1,31.026348,0.229],
    [32743,"urn:WaterMeter:MC0203J22010600005","2024-09-17T23:45:00",22,31.06514,0.247],
    [32744,"urn:WaterMeter:MC0203J22010600005","2024-09-18T00:00:00",21.899,31.008894,0.247],
    [32745,"urn:WaterMeter:MC0203J22010600005","2024-09-18T00:15:00",21.799,30.99648,0.228],
    [32746,"urn:WaterMeter:MC0203J22010600005","2024-09-18T00:30:00",21.799,31.031353,0.23],
    [32747,"urn:WaterMeter:MC0203J22010600005","2024-09-18T00:45:00",21.7,31.029451,0.238],
    [32748,"urn:WaterMeter:MC0203J22010600005","2024-09-18T01:00:00",21.7,30.992563,0.257],
    [32749,"urn:WaterMeter:MC0203J22010600005","2024-09-18T01:15:00",21.6,30.999933,0.238],
    [32750,"urn:WaterMeter:MC0203J22010600005","2024-09-18T01:30:00",21.5,30.995317,0.237],
    [32751,"urn:WaterMeter:MC0203J22010600005","2024-09-18T01:45:00",21.5,30.999933,0.235],
    [32752,"urn:WaterMeter:MC0203J22010600005","2024-09-18T02:00:00",21.399,30.968552,0.236],
    [32753,"urn:WaterMeter:MC0203J22010600005","2024-09-18T02:15:00",21.299,30.999546,0.233],
    [32754,"urn:WaterMeter:MC0203J22010600005","2024-09-18T02:30:00",21.2,30.953384,0.237],
    [32755,"urn:WaterMeter:MC0203J22010600005","2024-09-18T02:45:00",21.2,30.993378,0.235],
    [32756,"urn:WaterMeter:MC0203J22010600005","2024-09-18T03:00:00",21.1,30.964672,0.236],
    [32757,"urn:WaterMeter:MC0203J22010600005","2024-09-18T03:15:00",21.1,30.94489,0.238],
    [32758,"urn:WaterMeter:MC0203J22010600005","2024-09-18T03:30:00",21,31.008894,0.249],
    [32759,"urn:WaterMeter:MC0203J22010600005","2024-09-18T03:45:00",21,30.973557,0.23],
    [32760,"urn:WaterMeter:MC0203J22010600005","2024-09-18T04:00:00",20.899,30.933214,0.226],
    [32761,"urn:WaterMeter:MC0203J22010600005","2024-09-18T04:15:00",20.799,30.925068,0.232],
    [32762,"urn:WaterMeter:MC0203J22010600005","2024-09-18T04:30:00",20.799,30.92468,0.245],
    [32763,"urn:WaterMeter:MC0203J22010600005","2024-09-18T04:45:00",20.7,30.90451,0.229],
    [32764,"urn:WaterMeter:MC0203J22010600005","2024-09-18T05:00:00",20.6,30.91537,0.228],
    [32765,"urn:WaterMeter:MC0203J22010600005","2024-09-18T05:15:00",20.799,30.955364,0.235],
    [32766,"urn:WaterMeter:MC0203J22010600005","2024-09-18T05:30:00",20.899,31.047297,0.233],
    [32767,"urn:WaterMeter:MC0203J22010600005","2024-09-18T05:45:00",20.899,31.383993,0.26],
    [32768,"urn:WaterMeter:MC0203J22010600005","2024-09-18T06:00:00",20.899,31.90374,0.27],
    [32769,"urn:WaterMeter:MC0203J22010600005","2024-09-18T06:15:00",20.899,32.46581,0.25],
    [32770,"urn:WaterMeter:MC0203J22010600005","2024-09-18T06:30:00",21,32.79552,0.256],
    [32771,"urn:WaterMeter:MC0203J22010600005","2024-09-18T06:45:00",21,33.010033,0.273],
    [32772,"urn:WaterMeter:MC0203J22010600005","2024-09-18T07:00:00",21,33.149326,0.267],
    [32773,"urn:WaterMeter:MC0203J22010600005","2024-09-18T07:15:00",21.1,33.295177,0.255],
    [32774,"urn:WaterMeter:MC0203J22010600005","2024-09-18T07:30:00",21.2,33.48796,0.26],
    [32775,"urn:WaterMeter:MC0203J22010600005","2024-09-18T07:45:00",21.2,33.59964,0.275],
    [32776,"urn:WaterMeter:MC0203J22010600005","2024-09-18T08:00:00",21.299,33.68191,0.265],
    [32777,"urn:WaterMeter:MC0203J22010600005","2024-09-18T08:15:00",21.399,33.417324,0.264],
    [32778,"urn:WaterMeter:MC0203J22010600005","2024-09-18T08:30:00",21.5,33.0539,0.258],
    [32779,"urn:WaterMeter:MC0203J22010600005","2024-09-18T08:45:00",21.6,32.87857,0.246],
    [32780,"urn:WaterMeter:MC0203J22010600005","2024-09-18T09:00:00",21.6,32.816895,0.26],
    [32781,"urn:WaterMeter:MC0203J22010600005","2024-09-18T09:15:00",21.7,32.71794,0.25],
    [32782,"urn:WaterMeter:MC0203J22010600005","2024-09-18T09:30:00",21.799,32.653976,0.254],
    [32783,"urn:WaterMeter:MC0203J22010600005","2024-09-18T09:45:00",21.899,32.6148,0.249],
    [32784,"urn:WaterMeter:MC0203J22010600005","2024-09-18T10:00:00",22.1,32.570927,0.247],
    [32785,"urn:WaterMeter:MC0203J22010600005","2024-09-18T10:15:00",22.2,32.526745,0.269],
    [32786,"urn:WaterMeter:MC0203J22010600005","2024-09-18T10:30:00",22.299,32.45188,0.248],
    [32787,"urn:WaterMeter:MC0203J22010600005","2024-09-18T10:45:00",22.399,32.431324,0.269],
    [32788,"urn:WaterMeter:MC0203J22010600005","2024-09-18T11:00:00",22.5,32.352192,0.247],
    [32789,"urn:WaterMeter:MC0203J22010600005","2024-09-18T11:15:00",22.7,32.28431,0.276],
    [32790,"urn:WaterMeter:MC0203J22010600005","2024-09-18T11:30:00",22.799,32.2269,0.246],
    [32791,"urn:WaterMeter:MC0203J22010600005","2024-09-18T11:45:00",22.799,32.215263,0.247],
    [32792,"urn:WaterMeter:MC0203J22010600005","2024-09-18T12:00:00",22.899,32.15863,0.242],
    [32793,"urn:WaterMeter:MC0203J22010600005","2024-09-18T12:15:00",23,32.098465,0.249],
    [32794,"urn:WaterMeter:MC0203J22010600005","2024-09-18T12:30:00",23,32.07135,0.24],
    [32795,"urn:WaterMeter:MC0203J22010600005","2024-09-18T12:45:00",23.1,32.024803,0.239],
    [32796,"urn:WaterMeter:MC0203J22010600005","2024-09-18T13:00:00",23.2,31.965067,0.229],
    [32797,"urn:WaterMeter:MC0203J22010600005","2024-09-18T13:15:00",23.299,31.895634,0.24],
    [32798,"urn:WaterMeter:MC0203J22010600005","2024-09-18T13:30:00",23.299,31.92201,0.243],
    [32799,"urn:WaterMeter:MC0203J22010600005","2024-09-18T13:45:00",23.299,31.855253,0.241],
    [32800,"urn:WaterMeter:MC0203J22010600005","2024-09-18T14:00:00",23.2,31.846758,0.246],
    [32801,"urn:WaterMeter:MC0203J22010600005","2024-09-18T14:15:00",23.2,31.806377,0.254],
    [32802,"urn:WaterMeter:MC0203J22010600005","2024-09-18T14:30:00",23.2,31.745516,0.235],
    [32803,"urn:WaterMeter:MC0203J22010600005","2024-09-18T14:45:00",23.1,31.748192,0.254],
    [32804,"urn:WaterMeter:MC0203J22010600005","2024-09-18T15:00:00",23.1,31.729185,0.245],
    [32805,"urn:WaterMeter:MC0203J22010600005","2024-09-18T15:15:00",23,31.70207,0.256],
    [32806,"urn:WaterMeter:MC0203J22010600005","2024-09-18T15:30:00",23,31.681086,0.269],
    [32807,"urn:WaterMeter:MC0203J22010600005","2024-09-18T15:45:00",22.899,31.658587,0.235],
    [32808,"urn:WaterMeter:MC0203J22010600005","2024-09-18T16:00:00",22.899,31.649317,0.252],
    [32809,"urn:WaterMeter:MC0203J22010600005","2024-09-18T16:15:00",22.899,31.59695,0.253],
    [32810,"urn:WaterMeter:MC0203J22010600005","2024-09-18T16:30:00",22.799,31.592295,0.237],
    [32811,"urn:WaterMeter:MC0203J22010600005","2024-09-18T16:45:00",22.799,31.615181,0.239],
    [32812,"urn:WaterMeter:MC0203J22010600005","2024-09-18T17:00:00",22.7,31.527128,0.248],
    [32813,"urn:WaterMeter:MC0203J22010600005","2024-09-18T17:15:00",22.7,31.553505,0.236],
    [32814,"urn:WaterMeter:MC0203J22010600005","2024-09-18T17:30:00",22.6,31.561264,0.235],
    [32815,"urn:WaterMeter:MC0203J22010600005","2024-09-18T17:45:00",22.6,31.557772,0.234],
    [32816,"urn:WaterMeter:MC0203J22010600005","2024-09-18T18:00:00",22.5,31.496445,0.237],
    [32817,"urn:WaterMeter:MC0203J22010600005","2024-09-18T18:15:00",22.399,31.476662,0.242],
    [32818,"urn:WaterMeter:MC0203J22010600005","2024-09-18T18:30:00",22.399,31.499586,0.253],
    [32819,"urn:WaterMeter:MC0203J22010600005","2024-09-18T18:45:00",22.399,31.518206,0.24],
    [32820,"urn:WaterMeter:MC0203J22010600005","2024-09-18T19:00:00",22.299,31.46041,0.264],
    [32821,"urn:WaterMeter:MC0203J22010600005","2024-09-18T19:15:00",22.299,31.434807,0.249],
    [32822,"urn:WaterMeter:MC0203J22010600005","2024-09-18T19:30:00",22.2,31.479805,0.247],
    [32823,"urn:WaterMeter:MC0203J22010600005","2024-09-18T19:45:00",22.2,31.48058,0.236],
    [32824,"urn:WaterMeter:MC0203J22010600005","2024-09-18T20:00:00",22.2,31.43248,0.244],
    [32825,"urn:WaterMeter:MC0203J22010600005","2024-09-18T20:15:00",22.1,31.436747,0.236],
    [32826,"urn:WaterMeter:MC0203J22010600005","2024-09-18T20:30:00",22.1,31.43826,0.235],
    [32827,"urn:WaterMeter:MC0203J22010600005","2024-09-18T20:45:00",22.1,31.40106,0.243],
    [32828,"urn:WaterMeter:MC0203J22010600005","2024-09-18T21:00:00",22.1,31.416576,0.253],
    [32829,"urn:WaterMeter:MC0203J22010600005","2024-09-18T21:15:00",22.1,31.362658,0.237],
    [32830,"urn:WaterMeter:MC0203J22010600005","2024-09-18T21:30:00",22.1,31.399082,0.236],
    [32831,"urn:WaterMeter:MC0203J22010600005","2024-09-18T21:45:00",22,31.398346,0.239],
    [32832,"urn:WaterMeter:MC0203J22010600005","2024-09-18T22:00:00",22,31.350595,0.24],
    [32833,"urn:WaterMeter:MC0203J22010600005","2024-09-18T22:15:00",22,31.363434,0.243],
    [32834,"urn:WaterMeter:MC0203J22010600005","2024-09-18T22:30:00",22,31.350595,0.247],
    [32835,"urn:WaterMeter:MC0203J22010600005","2024-09-18T22:45:00",22,31.367662,0.257],
    [32836,"urn:WaterMeter:MC0203J22010600005","2024-09-18T23:00:00",21.899,31.352573,0.239],
    [32837,"urn:WaterMeter:MC0203J22010600005","2024-09-18T23:15:00",21.899,31.324257,0.237],
    [32838,"urn:WaterMeter:MC0203J22010600005","2024-09-18T23:30:00",21.899,31.298655,0.237],
    [32839,"urn:WaterMeter:MC0203J22010600005","2024-09-18T23:45:00",21.899,31.284302,0.24],
    [32840,"urn:WaterMeter:MC0203J22010600005","2024-09-19T00:00:00",21.899,31.328524,0.233],
    [32841,"urn:WaterMeter:MC0203J22010600005","2024-09-19T00:15:00",21.899,31.302496,0.237],
    [32842,"urn:WaterMeter:MC0203J22010600005","2024-09-19T00:30:00",21.799,31.282713,0.245],
    [32843,"urn:WaterMeter:MC0203J22010600005","2024-09-19T00:45:00",21.799,31.260641,0.243],
    [32844,"urn:WaterMeter:MC0203J22010600005","2024-09-19T01:00:00",21.799,31.254784,0.239],
    [32845,"urn:WaterMeter:MC0203J22010600005","2024-09-19T01:15:00",21.7,31.249004,0.238],
    [32846,"urn:WaterMeter:MC0203J22010600005","2024-09-19T01:30:00",21.7,31.284302,0.234],
    [32847,"urn:WaterMeter:MC0203J22010600005","2024-09-19T01:45:00",21.7,31.212502,0.233],
    [32848,"urn:WaterMeter:MC0203J22010600005","2024-09-19T02:00:00",21.7,31.212152,0.236],
    [32849,"urn:WaterMeter:MC0203J22010600005","2024-09-19T02:15:00",21.7,31.269562,0.23],
    [32850,"urn:WaterMeter:MC0203J22010600005","2024-09-19T02:30:00",21.7,31.25168,0.243],
    [32851,"urn:WaterMeter:MC0203J22010600005","2024-09-19T02:45:00",21.7,31.184612,0.23],
    [32852,"urn:WaterMeter:MC0203J22010600005","2024-09-19T03:00:00",21.7,31.223015,0.239],
    [32853,"urn:WaterMeter:MC0203J22010600005","2024-09-19T03:15:00",21.7,31.185738,0.247],
    [32854,"urn:WaterMeter:MC0203J22010600005","2024-09-19T03:30:00",21.7,31.182673,0.232],
    [32855,"urn:WaterMeter:MC0203J22010600005","2024-09-19T03:45:00",21.7,31.204744,0.232],
    [32856,"urn:WaterMeter:MC0203J22010600005","2024-09-19T04:00:00",21.7,31.153969,0.228],
    [32857,"urn:WaterMeter:MC0203J22010600005","2024-09-19T04:15:00",21.7,31.129143,0.239],
    [32858,"urn:WaterMeter:MC0203J22010600005","2024-09-19T04:30:00",21.7,31.1741,0.236],
    [32859,"urn:WaterMeter:MC0203J22010600005","2024-09-19T04:45:00",21.6,31.1722,0.233],
    [32860,"urn:WaterMeter:MC0203J22010600005","2024-09-19T05:00:00",21.6,31.130306,0.238],
    [32861,"urn:WaterMeter:MC0203J22010600005","2024-09-19T05:15:00",21.799,31.17957,0.231],
    [32862,"urn:WaterMeter:MC0203J22010600005","2024-09-19T05:30:00",21.899,31.28469,0.238],
    [32863,"urn:WaterMeter:MC0203J22010600005","2024-09-19T05:45:00",21.899,31.603893,0.238],
    [32864,"urn:WaterMeter:MC0203J22010600005","2024-09-19T06:00:00",22,32.152035,0.248],
    [32865,"urn:WaterMeter:MC0203J22010600005","2024-09-19T06:15:00",22,32.654366,0.256],
    [32866,"urn:WaterMeter:MC0203J22010600005","2024-09-19T06:30:00",22,32.953823,0.26],
    [32867,"urn:WaterMeter:MC0203J22010600005","2024-09-19T06:45:00",22,33.079502,0.266],
    [32868,"urn:WaterMeter:MC0203J22010600005","2024-09-19T07:00:00",22.1,33.31108,0.275],
    [32869,"urn:WaterMeter:MC0203J22010600005","2024-09-19T07:15:00",22.1,33.395256,0.274],
    [32870,"urn:WaterMeter:MC0203J22010600005","2024-09-19T07:30:00",22.1,33.533695,0.273],
    [32871,"urn:WaterMeter:MC0203J22010600005","2024-09-19T07:45:00",22.2,33.665234,0.263],
    [32872,"urn:WaterMeter:MC0203J22010600005","2024-09-19T08:00:00",22.2,33.76725,0.311],
    [32873,"urn:WaterMeter:MC0203J22010600005","2024-09-19T08:15:00",22.2,33.438313,0.277],
    [32874,"urn:WaterMeter:MC0203J22010600005","2024-09-19T08:30:00",22.299,33.172173,0.264],
    [32875,"urn:WaterMeter:MC0203J22010600005","2024-09-19T08:45:00",22.2,32.972054,0.277],
    [32876,"urn:WaterMeter:MC0203J22010600005","2024-09-19T09:00:00",22.299,32.870815,0.254],
    [32877,"urn:WaterMeter:MC0203J22010600005","2024-09-19T09:15:00",22.399,32.778492,0.257],
    [32878,"urn:WaterMeter:MC0203J22010600005","2024-09-19T09:30:00",22.299,32.737724,0.253],
    [32879,"urn:WaterMeter:MC0203J22010600005","2024-09-19T09:45:00",22.2,32.665226,0.254],
    [32880,"urn:WaterMeter:MC0203J22010600005","2024-09-19T10:00:00",22.2,32.68152,0.25],
    [32881,"urn:WaterMeter:MC0203J22010600005","2024-09-19T10:15:00",22.1,32.67182,0.248],
    [32882,"urn:WaterMeter:MC0203J22010600005","2024-09-19T10:30:00",22.1,32.57446,0.287],
    [32883,"urn:WaterMeter:MC0203J22010600005","2024-09-19T10:45:00",22.1,32.59618,0.252],
    [32884,"urn:WaterMeter:MC0203J22010600005","2024-09-19T11:00:00",22.2,32.551533,0.248],
    [32885,"urn:WaterMeter:MC0203J22010600005","2024-09-19T11:15:00",22.2,32.48912,0.246],
    [32886,"urn:WaterMeter:MC0203J22010600005","2024-09-19T11:30:00",22.299,32.447575,0.263],
    [32887,"urn:WaterMeter:MC0203J22010600005","2024-09-19T11:45:00",22.299,32.419296,0.253],
    [32888,"urn:WaterMeter:MC0203J22010600005","2024-09-19T12:00:00",22.299,32.419685,0.256],
    [32889,"urn:WaterMeter:MC0203J22010600005","2024-09-19T12:15:00",22.299,32.388615,0.249],
    [32890,"urn:WaterMeter:MC0203J22010600005","2024-09-19T12:30:00",22.399,32.34715,0.261],
    [32891,"urn:WaterMeter:MC0203J22010600005","2024-09-19T12:45:00",22.399,32.278877,0.25],
    [32892,"urn:WaterMeter:MC0203J22010600005","2024-09-19T13:00:00",22.5,32.280003,0.245],
    [32893,"urn:WaterMeter:MC0203J22010600005","2024-09-19T13:15:00",22.5,32.243927,0.266],
    [32894,"urn:WaterMeter:MC0203J22010600005","2024-09-19T13:30:00",22.6,32.230003,0.25],
    [32895,"urn:WaterMeter:MC0203J22010600005","2024-09-19T13:45:00",22.6,32.12717,0.243],
    [32896,"urn:WaterMeter:MC0203J22010600005","2024-09-19T14:00:00",22.6,32.12178,0.257],
    [32897,"urn:WaterMeter:MC0203J22010600005","2024-09-19T14:15:00",22.6,32.079884,0.259],
    [32898,"urn:WaterMeter:MC0203J22010600005","2024-09-19T14:30:00",22.6,32.091522,0.252],
    [32899,"urn:WaterMeter:MC0203J22010600005","2024-09-19T14:45:00",22.5,32.039116,0.242],
    [32900,"urn:WaterMeter:MC0203J22010600005","2024-09-19T15:00:00",22.5,32.0314,0.26],
    [32901,"urn:WaterMeter:MC0203J22010600005","2024-09-19T15:15:00",22.399,31.989079,0.279],
    [32902,"urn:WaterMeter:MC0203J22010600005","2024-09-19T15:30:00",22.5,41.23937,0.38],
    [32903,"urn:WaterMeter:MC0203J22010600005","2024-09-19T15:45:00",22.799,41.35108,0.362],
    [32904,"urn:WaterMeter:MC0203J22010600005","2024-09-19T16:00:00",23,41.330914,0.378],
    [32905,"urn:WaterMeter:MC0203J22010600005","2024-09-19T16:15:00",22.899,41.38095,0.384],
    [32906,"urn:WaterMeter:MC0203J22010600005","2024-09-19T16:30:00",22.799,41.53805,0.349],
    [32907,"urn:WaterMeter:MC0203J22010600005","2024-09-19T16:45:00",22.899,41.72269,0.375],
    [32908,"urn:WaterMeter:MC0203J22010600005","2024-09-19T17:00:00",22.799,40.013603,0.299],
    [32909,"urn:WaterMeter:MC0203J22010600005","2024-09-19T17:15:00",22.7,39.370815,0.284],
    [32910,"urn:WaterMeter:MC0203J22010600005","2024-09-19T17:30:00",22.7,38.857624,0.287],
    [32911,"urn:WaterMeter:MC0203J22010600005","2024-09-19T17:45:00",22.6,37.697063,0.286],
    [32912,"urn:WaterMeter:MC0203J22010600005","2024-09-19T18:00:00",22.299,36.381695,0.262],
    [32913,"urn:WaterMeter:MC0203J22010600005","2024-09-19T18:15:00",22.1,35.589176,0.262],
    [32914,"urn:WaterMeter:MC0203J22010600005","2024-09-19T18:30:00",21.899,35.190804,0.268],
    [32915,"urn:WaterMeter:MC0203J22010600005","2024-09-19T18:45:00",21.7,35.10085,0.284],
    [32916,"urn:WaterMeter:MC0203J22010600005","2024-09-19T19:00:00",21.6,34.9422,0.26],
    [32917,"urn:WaterMeter:MC0203J22010600005","2024-09-19T19:15:00",21.399,34.7742,0.257],
    [32918,"urn:WaterMeter:MC0203J22010600005","2024-09-19T19:30:00",21.299,34.44879,0.257],
    [32919,"urn:WaterMeter:MC0203J22010600005","2024-09-19T19:45:00",21.299,34.299023,0.257],
    [32920,"urn:WaterMeter:MC0203J22010600005","2024-09-19T20:00:00",21.2,34.2195,0.251],
    [32921,"urn:WaterMeter:MC0203J22010600005","2024-09-19T20:15:00",21.1,34.156315,0.257],
    [32922,"urn:WaterMeter:MC0203J22010600005","2024-09-19T20:30:00",21.1,34.06167,0.258],
    [32923,"urn:WaterMeter:MC0203J22010600005","2024-09-19T20:45:00",21,33.965466,0.252],
    [32924,"urn:WaterMeter:MC0203J22010600005","2024-09-19T21:00:00",21,33.842113,0.252],
    [32925,"urn:WaterMeter:MC0203J22010600005","2024-09-19T21:15:00",20.899,33.8491,0.256],
    [32926,"urn:WaterMeter:MC0203J22010600005","2024-09-19T21:30:00",20.799,33.736954,0.282],
    [32927,"urn:WaterMeter:MC0203J22010600005","2024-09-19T21:45:00",20.7,33.701694,0.252],
    [32928,"urn:WaterMeter:MC0203J22010600005","2024-09-19T22:00:00",20.7,33.58998,0.252],
    [32929,"urn:WaterMeter:MC0203J22010600005","2024-09-19T22:15:00",20.6,33.567093,0.269],
    [32930,"urn:WaterMeter:MC0203J22010600005","2024-09-19T22:30:00",20.6,33.44801,0.253],
    [32931,"urn:WaterMeter:MC0203J22010600005","2024-09-19T22:45:00",20.5,33.348667,0.252],
    [32932,"urn:WaterMeter:MC0203J22010600005","2024-09-19T23:00:00",20.399,33.363445,0.252],
    [32933,"urn:WaterMeter:MC0203J22010600005","2024-09-19T23:15:00",20.399,33.315735,0.266],
    [32934,"urn:WaterMeter:MC0203J22010600005","2024-09-19T23:30:00",20.299,33.28315,0.267],
    [32935,"urn:WaterMeter:MC0203J22010600005","2024-09-19T23:45:00",20.299,33.21721,0.247],
    [32936,"urn:WaterMeter:MC0203J22010600005","2024-09-20T00:00:00",20.2,33.186176,0.245],
    [32937,"urn:WaterMeter:MC0203J22010600005","2024-09-20T00:15:00",20.2,33.135323,0.255],
    [32938,"urn:WaterMeter:MC0203J22010600005","2024-09-20T00:30:00",20.1,33.124847,0.265],
    [32939,"urn:WaterMeter:MC0203J22010600005","2024-09-20T00:45:00",20.1,33.036797,0.256],
    [32940,"urn:WaterMeter:MC0203J22010600005","2024-09-20T01:00:00",20.1,33.07989,0.249],
    [32941,"urn:WaterMeter:MC0203J22010600005","2024-09-20T01:15:00",20,32.998783,0.266],
    [32942,"urn:WaterMeter:MC0203J22010600005","2024-09-20T01:30:00",20,32.999557,0.251],
    [32943,"urn:WaterMeter:MC0203J22010600005","2024-09-20T01:45:00",19.899,32.98253,0.256],
    [32944,"urn:WaterMeter:MC0203J22010600005","2024-09-20T02:00:00",19.899,32.912666,0.246],
    [32945,"urn:WaterMeter:MC0203J22010600005","2024-09-20T02:15:00",19.799,32.872364,0.248],
    [32946,"urn:WaterMeter:MC0203J22010600005","2024-09-20T02:30:00",19.799,32.891373,0.248],
    [32947,"urn:WaterMeter:MC0203J22010600005","2024-09-20T02:45:00",19.799,32.89366,0.25],
    [32948,"urn:WaterMeter:MC0203J22010600005","2024-09-20T03:00:00",19.7,32.756733,0.284],
    [32949,"urn:WaterMeter:MC0203J22010600005","2024-09-20T03:15:00",19.7,32.79013,0.258],
    [32950,"urn:WaterMeter:MC0203J22010600005","2024-09-20T03:30:00",19.7,32.743584,0.255],
    [32951,"urn:WaterMeter:MC0203J22010600005","2024-09-20T03:45:00",19.6,32.752502,0.258],
    [32952,"urn:WaterMeter:MC0203J22010600005","2024-09-20T04:00:00",19.6,32.744358,0.257],
    [32953,"urn:WaterMeter:MC0203J22010600005","2024-09-20T04:15:00",19.6,32.722637,0.278],
    [32954,"urn:WaterMeter:MC0203J22010600005","2024-09-20T04:30:00",19.6,32.66984,0.243],
    [32955,"urn:WaterMeter:MC0203J22010600005","2024-09-20T04:45:00",19.5,32.688072,0.259],
    [32956,"urn:WaterMeter:MC0203J22010600005","2024-09-20T05:00:00",19.5,32.667904,0.249],
    [32957,"urn:WaterMeter:MC0203J22010600005","2024-09-20T05:15:00",19.799,32.74781,0.271],
    [32958,"urn:WaterMeter:MC0203J22010600005","2024-09-20T05:30:00",19.899,32.970078,0.282],
    [32959,"urn:WaterMeter:MC0203J22010600005","2024-09-20T05:45:00",20,33.48874,0.267],
    [32960,"urn:WaterMeter:MC0203J22010600005","2024-09-20T06:00:00",20,34.226524,0.274],
    [32961,"urn:WaterMeter:MC0203J22010600005","2024-09-20T06:15:00",20,34.65166,0.281],
    [32962,"urn:WaterMeter:MC0203J22010600005","2024-09-20T06:30:00",20.1,34.962757,0.287],
    [32963,"urn:WaterMeter:MC0203J22010600005","2024-09-20T06:45:00",20.1,35.20209,0.292],
    [32964,"urn:WaterMeter:MC0203J22010600005","2024-09-20T07:00:00",20.2,35.38867,0.284],
    [32965,"urn:WaterMeter:MC0203J22010600005","2024-09-20T07:15:00",20.2,35.508533,0.3],
    [32966,"urn:WaterMeter:MC0203J22010600005","2024-09-20T07:30:00",20.299,35.60396,0.288],
    [32967,"urn:WaterMeter:MC0203J22010600005","2024-09-20T07:45:00",20.299,35.676456,0.288],
    [32968,"urn:WaterMeter:MC0203J22010600005","2024-09-20T08:00:00",20.399,35.71447,0.29],
    [32969,"urn:WaterMeter:MC0203J22010600005","2024-09-20T08:15:00",20.5,35.295963,0.308],
    [32970,"urn:WaterMeter:MC0203J22010600005","2024-09-20T08:30:00",20.399,34.946465,0.309],
    [32971,"urn:WaterMeter:MC0203J22010600005","2024-09-20T08:45:00",20.399,34.71101,0.276],
    [32972,"urn:WaterMeter:MC0203J22010600005","2024-09-20T09:00:00",20.5,34.458878,0.284],
    [32973,"urn:WaterMeter:MC0203J22010600005","2024-09-20T09:15:00",20.6,34.285484,0.276],
    [32974,"urn:WaterMeter:MC0203J22010600005","2024-09-20T09:30:00",20.7,34.180325,0.273],
    [32975,"urn:WaterMeter:MC0203J22010600005","2024-09-20T09:45:00",20.799,34.046112,0.288],
    [32976,"urn:WaterMeter:MC0203J22010600005","2024-09-20T10:00:00",20.899,33.879353,0.282],
    [32977,"urn:WaterMeter:MC0203J22010600005","2024-09-20T10:15:00",21,33.76527,0.272],
    [32978,"urn:WaterMeter:MC0203J22010600005","2024-09-20T10:30:00",21.1,33.697002,0.269],
    [32979,"urn:WaterMeter:MC0203J22010600005","2024-09-20T10:45:00",21.2,33.650066,0.287],
    [32980,"urn:WaterMeter:MC0203J22010600005","2024-09-20T11:00:00",21.2,33.517056,0.271],
    [32981,"urn:WaterMeter:MC0203J22010600005","2024-09-20T11:15:00",21.399,33.407627,0.262],
    [32982,"urn:WaterMeter:MC0203J22010600005","2024-09-20T11:30:00",21.399,33.386295,0.263],
    [32983,"urn:WaterMeter:MC0203J22010600005","2024-09-20T11:45:00",21.5,33.26915,0.268],
    [32984,"urn:WaterMeter:MC0203J22010600005","2024-09-20T12:00:00",21.6,33.20014,0.28],
    [32985,"urn:WaterMeter:MC0203J22010600005","2024-09-20T12:15:00",21.799,33.159412,0.265],
    [32986,"urn:WaterMeter:MC0203J22010600005","2024-09-20T12:30:00",21.899,33.044205,0.26],
    [32987,"urn:WaterMeter:MC0203J22010600005","2024-09-20T12:45:00",22,32.982918,0.256],
    [32988,"urn:WaterMeter:MC0203J22010600005","2024-09-20T13:00:00",22.2,32.8731,0.269],
    [32989,"urn:WaterMeter:MC0203J22010600005","2024-09-20T13:15:00",22.2,32.831635,0.262],
    [32990,"urn:WaterMeter:MC0203J22010600005","2024-09-20T13:30:00",22.299,32.7288,0.263],
    [32991,"urn:WaterMeter:MC0203J22010600005","2024-09-20T13:45:00",22.399,32.735435,0.264],
    [32992,"urn:WaterMeter:MC0203J22010600005","2024-09-20T14:00:00",22.5,32.619453,0.275],
    [32993,"urn:WaterMeter:MC0203J22010600005","2024-09-20T14:15:00",22.5,32.56631,0.251],
    [32994,"urn:WaterMeter:MC0203J22010600005","2024-09-20T14:30:00",22.5,32.526745,0.269],
    [32995,"urn:WaterMeter:MC0203J22010600005","2024-09-20T14:45:00",22.5,32.454945,0.254],
    [32996,"urn:WaterMeter:MC0203J22010600005","2024-09-20T15:00:00",22.5,32.40262,0.243],
    [32997,"urn:WaterMeter:MC0203J22010600005","2024-09-20T15:15:00",22.5,32.34366,0.258],
    [32998,"urn:WaterMeter:MC0203J22010600005","2024-09-20T15:30:00",22.5,32.371975,0.255],
    [32999,"urn:WaterMeter:MC0203J22010600005","2024-09-20T15:45:00",22.5,32.281555,0.251],
    [33000,"urn:WaterMeter:MC0203J22010600005","2024-09-20T16:00:00",22.5,32.23233,0.247],
    [33001,"urn:WaterMeter:MC0203J22010600005","2024-09-20T16:15:00",22.399,32.219143,0.248],
    [33002,"urn:WaterMeter:MC0203J22010600005","2024-09-20T16:30:00",22.299,32.196644,0.254],
    [33003,"urn:WaterMeter:MC0203J22010600005","2024-09-20T16:45:00",22.299,32.12178,0.245],
    [33004,"urn:WaterMeter:MC0203J22010600005","2024-09-20T17:00:00",22.299,32.13264,0.255],
    [33005,"urn:WaterMeter:MC0203J22010600005","2024-09-20T17:15:00",22.2,32.087605,0.256],
    [33006,"urn:WaterMeter:MC0203J22010600005","2024-09-20T17:30:00",22.1,32.08644,0.263],
    [33007,"urn:WaterMeter:MC0203J22010600005","2024-09-20T17:45:00",22.1,32.039894,0.253],
    [33008,"urn:WaterMeter:MC0203J22010600005","2024-09-20T18:00:00",22,32.081825,0.245],
    [33009,"urn:WaterMeter:MC0203J22010600005","2024-09-20T18:15:00",22,32.048813,0.243],
    [33010,"urn:WaterMeter:MC0203J22010600005","2024-09-20T18:30:00",22,32.02364,0.249],
    [33011,"urn:WaterMeter:MC0203J22010600005","2024-09-20T18:45:00",21.899,31.998814,0.248],
    [33012,"urn:WaterMeter:MC0203J22010600005","2024-09-20T19:00:00",21.899,31.930506,0.252],
    [33013,"urn:WaterMeter:MC0203J22010600005","2024-09-20T19:15:00",21.899,31.957697,0.244],
    [33014,"urn:WaterMeter:MC0203J22010600005","2024-09-20T19:30:00",21.899,31.991793,0.243],
    [33015,"urn:WaterMeter:MC0203J22010600005","2024-09-20T19:45:00",21.899,31.919294,0.255],
    [33016,"urn:WaterMeter:MC0203J22010600005","2024-09-20T20:00:00",21.899,31.960413,0.24],
    [33017,"urn:WaterMeter:MC0203J22010600005","2024-09-20T20:15:00",21.799,31.89288,0.245],
    [33018,"urn:WaterMeter:MC0203J22010600005","2024-09-20T20:30:00",21.799,31.911497,0.267],
    [33019,"urn:WaterMeter:MC0203J22010600005","2024-09-20T20:45:00",21.799,31.91658,0.252],
    [33020,"urn:WaterMeter:MC0203J22010600005","2024-09-20T21:00:00",21.799,31.870031,0.246],
    [33021,"urn:WaterMeter:MC0203J22010600005","2024-09-20T21:15:00",21.799,31.880505,0.263],
    [33022,"urn:WaterMeter:MC0203J22010600005","2024-09-20T21:30:00",21.799,31.857231,0.248],
    [33023,"urn:WaterMeter:MC0203J22010600005","2024-09-20T21:45:00",21.799,31.89249,0.242],
    [33024,"urn:WaterMeter:MC0203J22010600005","2024-09-20T22:00:00",21.799,31.85917,0.254],
    [33025,"urn:WaterMeter:MC0203J22010600005","2024-09-20T22:15:00",21.799,31.823484,0.241],
    [33026,"urn:WaterMeter:MC0203J22010600005","2024-09-20T22:30:00",21.799,31.819605,0.255],
    [33027,"urn:WaterMeter:MC0203J22010600005","2024-09-20T22:45:00",21.799,31.782366,0.24],
    [33028,"urn:WaterMeter:MC0203J22010600005","2024-09-20T23:00:00",21.799,31.768362,0.246],
    [33029,"urn:WaterMeter:MC0203J22010600005","2024-09-20T23:15:00",21.799,31.760643,0.264],
    [33030,"urn:WaterMeter:MC0203J22010600005","2024-09-20T23:30:00",21.799,31.756725,0.244],
    [33031,"urn:WaterMeter:MC0203J22010600005","2024-09-20T23:45:00",21.799,31.773056,0.242],
    [33032,"urn:WaterMeter:MC0203J22010600005","2024-09-21T00:00:00",21.7,31.714483,0.242],
    [33033,"urn:WaterMeter:MC0203J22010600005","2024-09-21T00:15:00",21.7,31.749783,0.241],
    [33034,"urn:WaterMeter:MC0203J22010600005","2024-09-21T00:30:00",21.7,31.728409,0.239],
    [33035,"urn:WaterMeter:MC0203J22010600005","2024-09-21T00:45:00",21.7,31.690006,0.254],
    [33036,"urn:WaterMeter:MC0203J22010600005","2024-09-21T01:00:00",21.7,31.710993,0.251],
    [33037,"urn:WaterMeter:MC0203J22010600005","2024-09-21T01:15:00",21.6,31.675306,0.246],
    [33038,"urn:WaterMeter:MC0203J22010600005","2024-09-21T01:30:00",21.6,31.712933,0.246],
    [33039,"urn:WaterMeter:MC0203J22010600005","2024-09-21T01:45:00",21.6,31.669874,0.246],
    [33040,"urn:WaterMeter:MC0203J22010600005","2024-09-21T02:00:00",21.5,31.651993,0.252],
    [33041,"urn:WaterMeter:MC0203J22010600005","2024-09-21T02:15:00",21.5,31.64505,0.254],
    [33042,"urn:WaterMeter:MC0203J22010600005","2024-09-21T02:30:00",21.399,31.63768,0.258],
    [33043,"urn:WaterMeter:MC0203J22010600005","2024-09-21T02:45:00",21.399,31.69509,0.244],
    [33044,"urn:WaterMeter:MC0203J22010600005","2024-09-21T03:00:00",21.299,31.631084,0.245],
    [33045,"urn:WaterMeter:MC0203J22010600005","2024-09-21T03:15:00",21.299,31.651993,0.241],
    [33046,"urn:WaterMeter:MC0203J22010600005","2024-09-21T03:30:00",21.299,31.637291,0.241],
    [33047,"urn:WaterMeter:MC0203J22010600005","2024-09-21T03:45:00",21.2,31.65975,0.275],
    [33048,"urn:WaterMeter:MC0203J22010600005","2024-09-21T04:00:00",21.2,31.610914,0.244],
    [33049,"urn:WaterMeter:MC0203J22010600005","2024-09-21T04:15:00",21.2,31.618671,0.252],
    [33050,"urn:WaterMeter:MC0203J22010600005","2024-09-21T04:30:00",21.2,31.617897,0.235],
    [33051,"urn:WaterMeter:MC0203J22010600005","2024-09-21T04:45:00",21.2,31.598501,0.241],
    [33052,"urn:WaterMeter:MC0203J22010600005","2024-09-21T05:00:00",21.2,31.62096,0.242],
    [33053,"urn:WaterMeter:MC0203J22010600005","2024-09-21T05:15:00",21.2,31.604708,0.24],
    [33054,"urn:WaterMeter:MC0203J22010600005","2024-09-21T05:30:00",21.2,31.571348,0.244],
    [33055,"urn:WaterMeter:MC0203J22010600005","2024-09-21T05:45:00",21.2,31.562,0.265],
    [33056,"urn:WaterMeter:MC0203J22010600005","2024-09-21T06:00:00",21.1,31.782755,0.271],
    [33057,"urn:WaterMeter:MC0203J22010600005","2024-09-21T06:15:00",20.899,39.93835,0.334],
    [33058,"urn:WaterMeter:MC0203J22010600005","2024-09-21T06:30:00",20.899,39.90577,0.332],
    [33059,"urn:WaterMeter:MC0203J22010600005","2024-09-21T06:45:00",20.799,39.944557,0.359],
    [33060,"urn:WaterMeter:MC0203J22010600005","2024-09-21T07:00:00",20.799,39.993435,0.351],
    [33061,"urn:WaterMeter:MC0203J22010600005","2024-09-21T07:15:00",20.799,40.077957,0.332],
    [33062,"urn:WaterMeter:MC0203J22010600005","2024-09-21T07:30:00",20.899,40.15868,0.326],
    [33063,"urn:WaterMeter:MC0203J22010600005","2024-09-21T07:45:00",20.899,40.182728,0.315],
    [33064,"urn:WaterMeter:MC0203J22010600005","2024-09-21T08:00:00",20.899,40.286297,0.342],
    [33065,"urn:WaterMeter:MC0203J22010600005","2024-09-21T08:15:00",20.899,40.375904,0.319],
    [33066,"urn:WaterMeter:MC0203J22010600005","2024-09-21T08:30:00",20.899,39.17962,0.302],
    [33067,"urn:WaterMeter:MC0203J22010600005","2024-09-21T08:45:00",21,38.10436,0.284],
    [33068,"urn:WaterMeter:MC0203J22010600005","2024-09-21T09:00:00",21.1,37.90533,0.277],
    [33069,"urn:WaterMeter:MC0203J22010600005","2024-09-21T09:15:00",21.1,37.285854,0.273],
    [33070,"urn:WaterMeter:MC0203J22010600005","2024-09-21T09:30:00",21.2,36.742794,0.288],
    [33071,"urn:WaterMeter:MC0203J22010600005","2024-09-21T09:45:00",21.299,36.006985,0.284],
    [33072,"urn:WaterMeter:MC0203J22010600005","2024-09-21T10:00:00",21.399,35.564777,0.269],
    [33073,"urn:WaterMeter:MC0203J22010600005","2024-09-21T10:15:00",21.5,35.03995,0.268],
    [33074,"urn:WaterMeter:MC0203J22010600005","2024-09-21T10:30:00",21.6,34.836304,0.249],
    [33075,"urn:WaterMeter:MC0203J22010600005","2024-09-21T10:45:00",21.7,34.67028,0.254],
    [33076,"urn:WaterMeter:MC0203J22010600005","2024-09-21T11:00:00",21.799,34.53215,0.257],
    [33077,"urn:WaterMeter:MC0203J22010600005","2024-09-21T11:15:00",22,34.328503,0.255],
    [33078,"urn:WaterMeter:MC0203J22010600005","2024-09-21T11:30:00",22.1,34.186184,0.256],
    [33079,"urn:WaterMeter:MC0203J22010600005","2024-09-21T11:45:00",22.299,34.0562,0.247],
    [33080,"urn:WaterMeter:MC0203J22010600005","2024-09-21T12:00:00",22.399,33.984474,0.267],
    [33081,"urn:WaterMeter:MC0203J22010600005","2024-09-21T12:15:00",22.399,33.78583,0.248],
    [33082,"urn:WaterMeter:MC0203J22010600005","2024-09-21T12:30:00",22.5,33.64506,0.267],
    [33083,"urn:WaterMeter:MC0203J22010600005","2024-09-21T12:45:00",22.5,33.553905,0.263],
    [33084,"urn:WaterMeter:MC0203J22010600005","2024-09-21T13:00:00",22.6,33.457317,0.261],
    [33085,"urn:WaterMeter:MC0203J22010600005","2024-09-21T13:15:00",22.7,33.386295,0.27],
    [33086,"urn:WaterMeter:MC0203J22010600005","2024-09-21T13:30:00",22.799,33.27268,0.245],
    [33087,"urn:WaterMeter:MC0203J22010600005","2024-09-21T13:45:00",23,33.212128,0.242],
    [33088,"urn:WaterMeter:MC0203J22010600005","2024-09-21T14:00:00",23.1,33.09692,0.245],
    [33089,"urn:WaterMeter:MC0203J22010600005","2024-09-21T14:15:00",23.1,33.11015,0.247],
    [33090,"urn:WaterMeter:MC0203J22010600005","2024-09-21T14:30:00",23.2,33.01162,0.242],
    [33091,"urn:WaterMeter:MC0203J22010600005","2024-09-21T14:45:00",23.2,32.882412,0.25],
    [33092,"urn:WaterMeter:MC0203J22010600005","2024-09-21T15:00:00",23.299,32.879734,0.254],
    [33093,"urn:WaterMeter:MC0203J22010600005","2024-09-21T15:15:00",23.2,32.807972,0.247],
    [33094,"urn:WaterMeter:MC0203J22010600005","2024-09-21T15:30:00",23.2,32.77151,0.243],
    [33095,"urn:WaterMeter:MC0203J22010600005","2024-09-21T15:45:00",23.1,32.75289,0.237],
    [33096,"urn:WaterMeter:MC0203J22010600005","2024-09-21T16:00:00",23.1,32.719105,0.237],
    [33097,"urn:WaterMeter:MC0203J22010600005","2024-09-21T16:15:00",23,32.617126,0.256],
    [33098,"urn:WaterMeter:MC0203J22010600005","2024-09-21T16:30:00",22.899,32.605877,0.247],
    [33099,"urn:WaterMeter:MC0203J22010600005","2024-09-21T16:45:00",22.899,32.576397,0.238],
    [33100,"urn:WaterMeter:MC0203J22010600005","2024-09-21T17:00:00",22.799,32.57287,0.258],
    [33101,"urn:WaterMeter:MC0203J22010600005","2024-09-21T17:15:00",22.899,32.51162,0.235],
    [33102,"urn:WaterMeter:MC0203J22010600005","2024-09-21T17:30:00",22.799,32.477097,0.254],
    [33103,"urn:WaterMeter:MC0203J22010600005","2024-09-21T17:45:00",22.799,32.423176,0.24],
    [33104,"urn:WaterMeter:MC0203J22010600005","2024-09-21T18:00:00",22.7,32.401066,0.255],
    [33105,"urn:WaterMeter:MC0203J22010600005","2024-09-21T18:15:00",22.7,32.418095,0.243],
    [33106,"urn:WaterMeter:MC0203J22010600005","2024-09-21T18:30:00",22.6,32.390594,0.242],
    [33107,"urn:WaterMeter:MC0203J22010600005","2024-09-21T18:45:00",22.5,32.399513,0.246],
    [33108,"urn:WaterMeter:MC0203J22010600005","2024-09-21T19:00:00",22.5,32.371197,0.238],
    [33109,"urn:WaterMeter:MC0203J22010600005","2024-09-21T19:15:00",22.399,32.325813,0.243],
    [33110,"urn:WaterMeter:MC0203J22010600005","2024-09-21T19:30:00",22.399,32.341717,0.243],
    [33111,"urn:WaterMeter:MC0203J22010600005","2024-09-21T19:45:00",22.299,32.307194,0.242],
    [33112,"urn:WaterMeter:MC0203J22010600005","2024-09-21T20:00:00",22.299,32.30681,0.24],
    [33113,"urn:WaterMeter:MC0203J22010600005","2024-09-21T20:15:00",22.299,32.270733,0.239],
    [33114,"urn:WaterMeter:MC0203J22010600005","2024-09-21T20:30:00",22.299,32.292027,0.24],
    [33115,"urn:WaterMeter:MC0203J22010600005","2024-09-21T20:45:00",22.299,32.22806,0.256],
    [33116,"urn:WaterMeter:MC0203J22010600005","2024-09-21T21:00:00",22.299,32.28039,0.24],
    [33117,"urn:WaterMeter:MC0203J22010600005","2024-09-21T21:15:00",22.299,32.188496,0.236],
    [33118,"urn:WaterMeter:MC0203J22010600005","2024-09-21T21:30:00",22.299,32.17725,0.233],
    [33119,"urn:WaterMeter:MC0203J22010600005","2024-09-21T21:45:00",22.299,32.20514,0.247],
    [33120,"urn:WaterMeter:MC0203J22010600005","2024-09-21T22:00:00",22.2,32.13109,0.247],
    [33121,"urn:WaterMeter:MC0203J22010600005","2024-09-21T22:15:00",22.2,32.17488,0.24],
    [33122,"urn:WaterMeter:MC0203J22010600005","2024-09-21T22:30:00",22.2,32.126007,0.256],
    [33123,"urn:WaterMeter:MC0203J22010600005","2024-09-21T22:45:00",22.2,32.10506,0.262],
    [33124,"urn:WaterMeter:MC0203J22010600005","2024-09-21T23:00:00",22.2,32.062817,0.248],
    [33125,"urn:WaterMeter:MC0203J22010600005","2024-09-21T23:15:00",22.2,32.114796,0.234],
    [33126,"urn:WaterMeter:MC0203J22010600005","2024-09-21T23:30:00",22.2,32.057,0.229],
    [33127,"urn:WaterMeter:MC0203J22010600005","2024-09-21T23:45:00",22.2,32.0954,0.236],
    [33128,"urn:WaterMeter:MC0203J22010600005","2024-09-22T00:00:00",22.2,32.041096,0.243],
    [33129,"urn:WaterMeter:MC0203J22010600005","2024-09-22T00:15:00",22.2,32.085667,0.234],
    [33130,"urn:WaterMeter:MC0203J22010600005","2024-09-22T00:30:00",22.2,32.048428,0.245],
    [33131,"urn:WaterMeter:MC0203J22010600005","2024-09-22T00:45:00",22.2,31.994547,0.233],
    [33132,"urn:WaterMeter:MC0203J22010600005","2024-09-22T01:00:00",22.1,32.046486,0.234],
    [33133,"urn:WaterMeter:MC0203J22010600005","2024-09-22T01:15:00",22.1,32.022087,0.241],
    [33134,"urn:WaterMeter:MC0203J22010600005","2024-09-22T01:30:00",22.1,31.979807,0.246],
    [33135,"urn:WaterMeter:MC0203J22010600005","2024-09-22T01:45:00",22.1,31.9961,0.247],
    [33136,"urn:WaterMeter:MC0203J22010600005","2024-09-22T02:00:00",22,32.007347,0.249],
    [33137,"urn:WaterMeter:MC0203J22010600005","2024-09-22T02:15:00",22,31.970846,0.233],
    [33138,"urn:WaterMeter:MC0203J22010600005","2024-09-22T02:30:00",22,31.996487,0.237],
    [33139,"urn:WaterMeter:MC0203J22010600005","2024-09-22T02:45:00",21.899,31.92201,0.233],
    [33140,"urn:WaterMeter:MC0203J22010600005","2024-09-22T03:00:00",21.899,31.958473,0.248],
    [33141,"urn:WaterMeter:MC0203J22010600005","2024-09-22T03:15:00",21.799,31.915804,0.265],
    [33142,"urn:WaterMeter:MC0203J22010600005","2024-09-22T03:30:00",21.7,31.923523,0.237],
    [33143,"urn:WaterMeter:MC0203J22010600005","2024-09-22T03:45:00",21.7,31.949512,0.236],
    [33144,"urn:WaterMeter:MC0203J22010600005","2024-09-22T04:00:00",21.6,31.889814,0.259],
    [33145,"urn:WaterMeter:MC0203J22010600005","2024-09-22T04:15:00",21.6,31.919294,0.249],
    [33146,"urn:WaterMeter:MC0203J22010600005","2024-09-22T04:30:00",21.5,31.929768,0.239],
    [33147,"urn:WaterMeter:MC0203J22010600005","2024-09-22T04:45:00",21.399,31.906107,0.234],
    [33148,"urn:WaterMeter:MC0203J22010600005","2024-09-22T05:00:00",21.399,31.895634,0.253],
    [33149,"urn:WaterMeter:MC0203J22010600005","2024-09-22T05:15:00",21.299,31.857618,0.241],
    [33150,"urn:WaterMeter:MC0203J22010600005","2024-09-22T05:30:00",21.299,31.89443,0.238],
    [33151,"urn:WaterMeter:MC0203J22010600005","2024-09-22T05:45:00",21.2,31.908434,0.235],
    [33152,"urn:WaterMeter:MC0203J22010600005","2024-09-22T06:00:00",21.2,31.907658,0.24],
    [33153,"urn:WaterMeter:MC0203J22010600005","2024-09-22T06:15:00",21.1,31.88512,0.235],
    [33154,"urn:WaterMeter:MC0203J22010600005","2024-09-22T06:30:00",21.1,31.865726,0.239],
    [33155,"urn:WaterMeter:MC0203J22010600005","2024-09-22T06:45:00",21,31.845943,0.246],
    [33156,"urn:WaterMeter:MC0203J22010600005","2024-09-22T07:00:00",21,31.835857,0.235],
    [33157,"urn:WaterMeter:MC0203J22010600005","2024-09-22T07:15:00",21,31.895245,0.245],
    [33158,"urn:WaterMeter:MC0203J22010600005","2024-09-22T07:30:00",21,31.90533,0.235],
    [33159,"urn:WaterMeter:MC0203J22010600005","2024-09-22T07:45:00",21,31.848309,0.25],
    [33160,"urn:WaterMeter:MC0203J22010600005","2024-09-22T08:00:00",21.1,31.863049,0.245],
    [33161,"urn:WaterMeter:MC0203J22010600005","2024-09-22T08:15:00",21.2,31.800598,0.243],
    [33162,"urn:WaterMeter:MC0203J22010600005","2024-09-22T08:30:00",21.299,31.811071,0.241],
    [33163,"urn:WaterMeter:MC0203J22010600005","2024-09-22T08:45:00",21.399,31.792063,0.236],
    [33164,"urn:WaterMeter:MC0203J22010600005","2024-09-22T09:00:00",21.5,31.75948,0.233],
    [33165,"urn:WaterMeter:MC0203J22010600005","2024-09-22T09:15:00",21.6,31.720263,0.247],
    [33166,"urn:WaterMeter:MC0203J22010600005","2024-09-22T09:30:00",21.7,31.640743,0.241],
    [33167,"urn:WaterMeter:MC0203J22010600005","2024-09-22T09:45:00",21.899,31.61169,0.244],
    [33168,"urn:WaterMeter:MC0203J22010600005","2024-09-22T10:00:00",22,31.551178,0.245],
    [33169,"urn:WaterMeter:MC0203J22010600005","2024-09-22T10:15:00",22.1,31.496834,0.236],
    [33170,"urn:WaterMeter:MC0203J22010600005","2024-09-22T10:30:00",22.299,31.51006,0.233],
    [33171,"urn:WaterMeter:MC0203J22010600005","2024-09-22T10:45:00",22.5,31.418865,0.241],
    [33172,"urn:WaterMeter:MC0203J22010600005","2024-09-22T11:00:00",22.7,31.345203,0.235],
    [33173,"urn:WaterMeter:MC0203J22010600005","2024-09-22T11:15:00",22.799,31.33667,0.226],
    [33174,"urn:WaterMeter:MC0203J22010600005","2024-09-22T11:30:00",22.899,31.268787,0.235],
    [33175,"urn:WaterMeter:MC0203J22010600005","2024-09-22T11:45:00",23,31.242798,0.227],
    [33176,"urn:WaterMeter:MC0203J22010600005","2024-09-22T12:00:00",23.1,31.177204,0.224],
    [33177,"urn:WaterMeter:MC0203J22010600005","2024-09-22T12:15:00",23.2,31.12255,0.237],
    [33178,"urn:WaterMeter:MC0203J22010600005","2024-09-22T12:30:00",23.2,31.099236,0.242],
    [33179,"urn:WaterMeter:MC0203J22010600005","2024-09-22T12:45:00",23.399,31.02984,0.237],
    [33180,"urn:WaterMeter:MC0203J22010600005","2024-09-22T13:00:00",23.399,30.950708,0.227],
    [33181,"urn:WaterMeter:MC0203J22010600005","2024-09-22T13:15:00",23.299,30.923904,0.238],
    [33182,"urn:WaterMeter:MC0203J22010600005","2024-09-22T13:30:00",23.399,30.870026,0.226],
    [33183,"urn:WaterMeter:MC0203J22010600005","2024-09-22T13:45:00",23.5,30.858776,0.223],
    [33184,"urn:WaterMeter:MC0203J22010600005","2024-09-22T14:00:00",23.6,30.780033,0.224],
    [33185,"urn:WaterMeter:MC0203J22010600005","2024-09-22T14:15:00",23.5,30.725727,0.236],
    [33186,"urn:WaterMeter:MC0203J22010600005","2024-09-22T14:30:00",23.5,30.699738,0.24],
    [33187,"urn:WaterMeter:MC0203J22010600005","2024-09-22T14:45:00",23.5,30.670218,0.225],
    [33188,"urn:WaterMeter:MC0203J22010600005","2024-09-22T15:00:00",23.6,30.591862,0.227],
    [33189,"urn:WaterMeter:MC0203J22010600005","2024-09-22T15:15:00",23.6,30.56824,0.219],
    [33190,"urn:WaterMeter:MC0203J22010600005","2024-09-22T15:30:00",23.6,30.52906,0.224],
    [33191,"urn:WaterMeter:MC0203J22010600005","2024-09-22T15:45:00",23.5,30.456486,0.24],
    [33192,"urn:WaterMeter:MC0203J22010600005","2024-09-22T16:00:00",23.399,30.487516,0.221],
    [33193,"urn:WaterMeter:MC0203J22010600005","2024-09-22T16:15:00",23.299,30.454197,0.245],
    [33194,"urn:WaterMeter:MC0203J22010600005","2024-09-22T16:30:00",23.2,30.432087,0.221],
    [33195,"urn:WaterMeter:MC0203J22010600005","2024-09-22T16:45:00",23.1,30.369246,0.227],
    [33196,"urn:WaterMeter:MC0203J22010600005","2024-09-22T17:00:00",23,30.390543,0.242],
    [33197,"urn:WaterMeter:MC0203J22010600005","2024-09-22T17:15:00",23,30.38515,0.229],
    [33198,"urn:WaterMeter:MC0203J22010600005","2024-09-22T17:30:00",22.899,30.339727,0.238],
    [33199,"urn:WaterMeter:MC0203J22010600005","2024-09-22T17:45:00",22.799,30.357998,0.241],
    [33200,"urn:WaterMeter:MC0203J22010600005","2024-09-22T18:00:00",22.7,30.343645,0.226],
    [33201,"urn:WaterMeter:MC0203J22010600005","2024-09-22T18:15:00",22.7,30.355282,0.237],
    [33202,"urn:WaterMeter:MC0203J22010600005","2024-09-22T18:30:00",22.7,30.292442,0.224],
    [33203,"urn:WaterMeter:MC0203J22010600005","2024-09-22T18:45:00",22.7,30.289726,0.223],
    [33204,"urn:WaterMeter:MC0203J22010600005","2024-09-22T19:00:00",22.7,30.304428,0.219],
    [33205,"urn:WaterMeter:MC0203J22010600005","2024-09-22T19:15:00",22.6,30.308346,0.217],
    [33206,"urn:WaterMeter:MC0203J22010600005","2024-09-22T19:30:00",22.6,30.264862,0.227],
    [33207,"urn:WaterMeter:MC0203J22010600005","2024-09-22T19:45:00",22.6,30.295546,0.221],
    [33208,"urn:WaterMeter:MC0203J22010600005","2024-09-22T20:00:00",22.5,30.290115,0.218],
    [33209,"urn:WaterMeter:MC0203J22010600005","2024-09-22T20:15:00",22.5,30.268005,0.219],
    [33210,"urn:WaterMeter:MC0203J22010600005","2024-09-22T20:30:00",22.399,30.283869,0.238],
    [33211,"urn:WaterMeter:MC0203J22010600005","2024-09-22T20:45:00",22.399,30.292055,0.225],
    [33212,"urn:WaterMeter:MC0203J22010600005","2024-09-22T21:00:00",22.299,30.236546,0.232],
    [33213,"urn:WaterMeter:MC0203J22010600005","2024-09-22T21:15:00",22.299,30.271496,0.218],
    [33214,"urn:WaterMeter:MC0203J22010600005","2024-09-22T21:30:00",22.2,30.250937,0.218],
    [33215,"urn:WaterMeter:MC0203J22010600005","2024-09-22T21:45:00",22.2,30.248222,0.223],
    [33216,"urn:WaterMeter:MC0203J22010600005","2024-09-22T22:00:00",22.2,30.244305,0.238],
    [33217,"urn:WaterMeter:MC0203J22010600005","2024-09-22T22:15:00",22.1,30.240076,0.231],
    [33218,"urn:WaterMeter:MC0203J22010600005","2024-09-22T22:30:00",22.1,30.242752,0.236],
    [33219,"urn:WaterMeter:MC0203J22010600005","2024-09-22T22:45:00",22,30.257532,0.23],
    [33220,"urn:WaterMeter:MC0203J22010600005","2024-09-22T23:00:00",21.899,30.226849,0.228],
    [33221,"urn:WaterMeter:MC0203J22010600005","2024-09-22T23:15:00",21.799,30.255552,0.219],
    [33222,"urn:WaterMeter:MC0203J22010600005","2024-09-22T23:30:00",21.799,30.22805,0.217],
    [33223,"urn:WaterMeter:MC0203J22010600005","2024-09-22T23:45:00",21.7,30.254778,0.227],
    [33224,"urn:WaterMeter:MC0203J22010600005","2024-09-23T00:00:00",21.7,30.22646,0.22],
    [33225,"urn:WaterMeter:MC0203J22010600005","2024-09-23T00:15:00",21.6,30.248222,0.222],
    [33226,"urn:WaterMeter:MC0203J22010600005","2024-09-23T00:30:00",21.5,30.227276,0.218],
    [33227,"urn:WaterMeter:MC0203J22010600005","2024-09-23T00:45:00",21.399,30.223745,0.226],
    [33228,"urn:WaterMeter:MC0203J22010600005","2024-09-23T01:00:00",21.299,30.212534,0.219],
    [33229,"urn:WaterMeter:MC0203J22010600005","2024-09-23T01:15:00",21.299,30.21874,0.216],
    [33230,"urn:WaterMeter:MC0203J22010600005","2024-09-23T01:30:00",21.2,30.224909,0.217],
    [33231,"urn:WaterMeter:MC0203J22010600005","2024-09-23T01:45:00",21.1,30.273046,0.214],
    [33232,"urn:WaterMeter:MC0203J22010600005","2024-09-23T02:00:00",21,30.25404,0.221],
    [33233,"urn:WaterMeter:MC0203J22010600005","2024-09-23T02:15:00",20.899,30.238913,0.23],
    [33234,"urn:WaterMeter:MC0203J22010600005","2024-09-23T02:30:00",20.799,30.249773,0.22],
    [33235,"urn:WaterMeter:MC0203J22010600005","2024-09-23T02:45:00",20.799,30.233093,0.221],
    [33236,"urn:WaterMeter:MC0203J22010600005","2024-09-23T03:00:00",20.7,30.2393,0.235],
    [33237,"urn:WaterMeter:MC0203J22010600005","2024-09-23T03:15:00",20.7,30.22844,0.213],
    [33238,"urn:WaterMeter:MC0203J22010600005","2024-09-23T03:30:00",20.6,30.247057,0.238],
    [33239,"urn:WaterMeter:MC0203J22010600005","2024-09-23T03:45:00",20.5,30.23348,0.226],
    [33240,"urn:WaterMeter:MC0203J22010600005","2024-09-23T04:00:00",20.5,30.259083,0.235],
    [33241,"urn:WaterMeter:MC0203J22010600005","2024-09-23T04:15:00",20.5,30.231543,0.226],
    [33242,"urn:WaterMeter:MC0203J22010600005","2024-09-23T04:30:00",20.399,30.223007,0.232],
    [33243,"urn:WaterMeter:MC0203J22010600005","2024-09-23T04:45:00",20.399,30.262922,0.229],
    [33244,"urn:WaterMeter:MC0203J22010600005","2024-09-23T05:00:00",20.299,30.247057,0.232],
    [33245,"urn:WaterMeter:MC0203J22010600005","2024-09-23T05:15:00",20.5,30.269169,0.223],
    [33246,"urn:WaterMeter:MC0203J22010600005","2024-09-23T05:30:00",20.6,30.248997,0.218],
    [33247,"urn:WaterMeter:MC0203J22010600005","2024-09-23T05:45:00",20.6,30.345972,0.22],
    [33248,"urn:WaterMeter:MC0203J22010600005","2024-09-23T06:00:00",20.6,30.607029,0.229],
    [33249,"urn:WaterMeter:MC0203J22010600005","2024-09-23T06:15:00",20.6,31.289345,0.25],
    [33250,"urn:WaterMeter:MC0203J22010600005","2024-09-23T06:30:00",20.6,32.133804,0.252],
    [33251,"urn:WaterMeter:MC0203J22010600005","2024-09-23T06:45:00",20.7,32.85332,0.25],
    [33252,"urn:WaterMeter:MC0203J22010600005","2024-09-23T07:00:00",20.6,33.376247,0.252],
    [33253,"urn:WaterMeter:MC0203J22010600005","2024-09-23T07:15:00",20.6,33.699757,0.261],
    [33254,"urn:WaterMeter:MC0203J22010600005","2024-09-23T07:30:00",20.7,33.98948,0.276],
    [33255,"urn:WaterMeter:MC0203J22010600005","2024-09-23T07:45:00",20.7,34.163258,0.267],
    [33256,"urn:WaterMeter:MC0203J22010600005","2024-09-23T08:00:00",20.7,34.248634,0.291],
    [33257,"urn:WaterMeter:MC0203J22010600005","2024-09-23T08:15:00",20.799,34.006157,0.266],
    [33258,"urn:WaterMeter:MC0203J22010600005","2024-09-23T08:30:00",20.799,33.6823,0.267],
    [33259,"urn:WaterMeter:MC0203J22010600005","2024-09-23T08:45:00",20.799,33.522835,0.256],
    [33260,"urn:WaterMeter:MC0203J22010600005","2024-09-23T09:00:00",20.899,33.3809,0.26],
    [33261,"urn:WaterMeter:MC0203J22010600005","2024-09-23T09:15:00",20.899,33.26178,0.269],
    [33262,"urn:WaterMeter:MC0203J22010600005","2024-09-23T09:30:00",21,33.129154,0.251],
    [33263,"urn:WaterMeter:MC0203J22010600005","2024-09-23T09:45:00",21.1,33.090366,0.279],
    [33264,"urn:WaterMeter:MC0203J22010600005","2024-09-23T10:00:00",21.2,33.020157,0.249],
    [33265,"urn:WaterMeter:MC0203J22010600005","2024-09-23T10:15:00",21.299,32.918526,0.254],
    [33266,"urn:WaterMeter:MC0203J22010600005","2024-09-23T10:30:00",21.5,32.85995,0.261],
    [33267,"urn:WaterMeter:MC0203J22010600005","2024-09-23T10:45:00",21.7,32.805607,0.262],
    [33268,"urn:WaterMeter:MC0203J22010600005","2024-09-23T11:00:00",21.799,32.682682,0.283],
    [33269,"urn:WaterMeter:MC0203J22010600005","2024-09-23T11:15:00",22,32.683846,0.257],
    [33270,"urn:WaterMeter:MC0203J22010600005","2024-09-23T11:30:00",22.2,32.586094,0.246],
    [33271,"urn:WaterMeter:MC0203J22010600005","2024-09-23T11:45:00",22.299,32.493347,0.263],
    [33272,"urn:WaterMeter:MC0203J22010600005","2024-09-23T12:00:00",22.399,32.427406,0.263],
    [33273,"urn:WaterMeter:MC0203J22010600005","2024-09-23T12:15:00",22.5,32.35452,0.276],
    [33274,"urn:WaterMeter:MC0203J22010600005","2024-09-23T12:30:00",22.6,32.285084,0.245],
    [33275,"urn:WaterMeter:MC0203J22010600005","2024-09-23T12:45:00",22.7,32.245907,0.272],
    [33276,"urn:WaterMeter:MC0203J22010600005","2024-09-23T13:00:00",22.7,32.17337,0.261],
    [33277,"urn:WaterMeter:MC0203J22010600005","2024-09-23T13:15:00",22.799,32.092297,0.24],
    [33278,"urn:WaterMeter:MC0203J22010600005","2024-09-23T13:30:00",22.899,32.03528,0.259],
    [33279,"urn:WaterMeter:MC0203J22010600005","2024-09-23T13:45:00",22.899,31.9961,0.26],
    [33280,"urn:WaterMeter:MC0203J22010600005","2024-09-23T14:00:00",23,31.942919,0.246],
    [33281,"urn:WaterMeter:MC0203J22010600005","2024-09-23T14:15:00",23,31.899124,0.249],
    [33282,"urn:WaterMeter:MC0203J22010600005","2024-09-23T14:30:00",23.1,31.88512,0.237],
    [33283,"urn:WaterMeter:MC0203J22010600005","2024-09-23T14:45:00",23.1,31.783142,0.242],
    [33284,"urn:WaterMeter:MC0203J22010600005","2024-09-23T15:00:00",23,31.73543,0.242],
    [33285,"urn:WaterMeter:MC0203J22010600005","2024-09-23T15:15:00",23,31.732716,0.239],
    [33286,"urn:WaterMeter:MC0203J22010600005","2024-09-23T15:30:00",23,31.686554,0.235],
    [33287,"urn:WaterMeter:MC0203J22010600005","2024-09-23T15:45:00",23,31.680698,0.239],
    [33288,"urn:WaterMeter:MC0203J22010600005","2024-09-23T16:00:00",22.899,31.62837,0.246],
    [33289,"urn:WaterMeter:MC0203J22010600005","2024-09-23T16:15:00",22.899,31.601566,0.226],
    [33290,"urn:WaterMeter:MC0203J22010600005","2024-09-23T16:30:00",22.899,31.551565,0.24],
    [33291,"urn:WaterMeter:MC0203J22010600005","2024-09-23T16:45:00",22.799,31.537212,0.241],
    [33292,"urn:WaterMeter:MC0203J22010600005","2024-09-23T17:00:00",22.7,31.541481,0.242],
    [33293,"urn:WaterMeter:MC0203J22010600005","2024-09-23T17:15:00",22.6,31.499975,0.223],
    [33294,"urn:WaterMeter:MC0203J22010600005","2024-09-23T17:30:00",22.399,31.517431,0.246],
    [33295,"urn:WaterMeter:MC0203J22010600005","2024-09-23T17:45:00",22.299,31.496445,0.241],
    [33296,"urn:WaterMeter:MC0203J22010600005","2024-09-23T18:00:00",22.2,31.470882,0.239],
    [33297,"urn:WaterMeter:MC0203J22010600005","2024-09-23T18:15:00",22.2,31.483295,0.234],
    [33298,"urn:WaterMeter:MC0203J22010600005","2024-09-23T18:30:00",22.2,31.472433,0.235],
    [33299,"urn:WaterMeter:MC0203J22010600005","2024-09-23T18:45:00",22.2,31.424334,0.238],
    [33300,"urn:WaterMeter:MC0203J22010600005","2024-09-23T19:00:00",22.2,31.407228,0.264],
    [33301,"urn:WaterMeter:MC0203J22010600005","2024-09-23T19:15:00",22.1,31.445631,0.249],
    [33302,"urn:WaterMeter:MC0203J22010600005","2024-09-23T19:30:00",22.1,31.38632,0.241],
    [33303,"urn:WaterMeter:MC0203J22010600005","2024-09-23T19:45:00",22,31.423946,0.238],
    [33304,"urn:WaterMeter:MC0203J22010600005","2024-09-23T20:00:00",21.899,31.416576,0.237],
    [33305,"urn:WaterMeter:MC0203J22010600005","2024-09-23T20:15:00",21.799,31.416576,0.233],
    [33306,"urn:WaterMeter:MC0203J22010600005","2024-09-23T20:30:00",21.799,31.444117,0.238],
    [33307,"urn:WaterMeter:MC0203J22010600005","2024-09-23T20:45:00",21.7,31.39757,0.245],
    [33308,"urn:WaterMeter:MC0203J22010600005","2024-09-23T21:00:00",21.7,31.406103,0.24],
    [33309,"urn:WaterMeter:MC0203J22010600005","2024-09-23T21:15:00",21.7,31.363434,0.245],
    [33310,"urn:WaterMeter:MC0203J22010600005","2024-09-23T21:30:00",21.6,31.387056,0.252],
    [33311,"urn:WaterMeter:MC0203J22010600005","2024-09-23T21:45:00",21.6,31.400673,0.249],
    [33312,"urn:WaterMeter:MC0203J22010600005","2024-09-23T22:00:00",21.5,31.387833,0.234],
    [33313,"urn:WaterMeter:MC0203J22010600005","2024-09-23T22:15:00",21.5,31.388996,0.243],
    [33314,"urn:WaterMeter:MC0203J22010600005","2024-09-23T22:30:00",21.5,31.32189,0.234],
    [33315,"urn:WaterMeter:MC0203J22010600005","2024-09-23T22:45:00",21.399,31.376623,0.251],
    [33316,"urn:WaterMeter:MC0203J22010600005","2024-09-23T23:00:00",21.399,31.333954,0.241],
    [33317,"urn:WaterMeter:MC0203J22010600005","2024-09-23T23:15:00",21.399,31.35296,0.24],
    [33318,"urn:WaterMeter:MC0203J22010600005","2024-09-23T23:30:00",21.299,31.306414,0.235],
    [33319,"urn:WaterMeter:MC0203J22010600005","2024-09-23T23:45:00",21.299,31.337833,0.237],
    [33320,"urn:WaterMeter:MC0203J22010600005","2024-09-24T00:00:00",21.2,31.330423,0.242],
    [33321,"urn:WaterMeter:MC0203J22010600005","2024-09-24T00:15:00",21.1,31.35137,0.244],
    [33322,"urn:WaterMeter:MC0203J22010600005","2024-09-24T00:30:00",21,31.331587,0.256],
    [33323,"urn:WaterMeter:MC0203J22010600005","2024-09-24T00:45:00",21,31.276932,0.236],
    [33324,"urn:WaterMeter:MC0203J22010600005","2024-09-24T01:00:00",20.899,31.314558,0.251],
    [33325,"urn:WaterMeter:MC0203J22010600005","2024-09-24T01:15:00",20.799,31.313784,0.244],
    [33326,"urn:WaterMeter:MC0203J22010600005","2024-09-24T01:30:00",20.7,31.247065,0.23],
    [33327,"urn:WaterMeter:MC0203J22010600005","2024-09-24T01:45:00",20.7,31.280035,0.249],
    [33328,"urn:WaterMeter:MC0203J22010600005","2024-09-24T02:00:00",20.6,31.315722,0.23],
    [33329,"urn:WaterMeter:MC0203J22010600005","2024-09-24T02:15:00",20.5,31.296328,0.242],
    [33330,"urn:WaterMeter:MC0203J22010600005","2024-09-24T02:30:00",20.399,31.32348,0.249],
    [33331,"urn:WaterMeter:MC0203J22010600005","2024-09-24T02:45:00",20.299,31.277708,0.246],
    [33332,"urn:WaterMeter:MC0203J22010600005","2024-09-24T03:00:00",20.2,31.311417,0.251],
    [33333,"urn:WaterMeter:MC0203J22010600005","2024-09-24T03:15:00",20.1,31.297104,0.247],
    [33334,"urn:WaterMeter:MC0203J22010600005","2024-09-24T03:30:00",20,31.337444,0.243],
    [33335,"urn:WaterMeter:MC0203J22010600005","2024-09-24T03:45:00",19.899,31.321114,0.249],
    [33336,"urn:WaterMeter:MC0203J22010600005","2024-09-24T04:00:00",19.899,31.259865,0.247],
    [33337,"urn:WaterMeter:MC0203J22010600005","2024-09-24T04:15:00",19.799,31.289345,0.229],
    [33338,"urn:WaterMeter:MC0203J22010600005","2024-09-24T04:30:00",19.7,31.307188,0.237],
    [33339,"urn:WaterMeter:MC0203J22010600005","2024-09-24T04:45:00",19.7,31.280424,0.242],
    [33340,"urn:WaterMeter:MC0203J22010600005","2024-09-24T05:00:00",19.6,31.28469,0.254],
    [33341,"urn:WaterMeter:MC0203J22010600005","2024-09-24T05:15:00",19.7,31.28663,0.244],
    [33342,"urn:WaterMeter:MC0203J22010600005","2024-09-24T05:30:00",19.799,31.37313,0.241],
    [33343,"urn:WaterMeter:MC0203J22010600005","2024-09-24T05:45:00",19.799,31.625267,0.249],
    [33344,"urn:WaterMeter:MC0203J22010600005","2024-09-24T06:00:00",19.7,32.31728,0.268],
    [33345,"urn:WaterMeter:MC0203J22010600005","2024-09-24T06:15:00",19.799,33.13148,0.284],
    [33346,"urn:WaterMeter:MC0203J22010600005","2024-09-24T06:30:00",19.799,33.728848,0.276],
    [33347,"urn:WaterMeter:MC0203J22010600005","2024-09-24T06:45:00",19.799,34.118687,0.286],
    [33348,"urn:WaterMeter:MC0203J22010600005","2024-09-24T07:00:00",19.799,34.420086,0.276],
    [33349,"urn:WaterMeter:MC0203J22010600005","2024-09-24T07:15:00",19.899,34.66714,0.28],
    [33350,"urn:WaterMeter:MC0203J22010600005","2024-09-24T07:30:00",20,34.813766,0.288],
    [33351,"urn:WaterMeter:MC0203J22010600005","2024-09-24T07:45:00",20.1,34.91233,0.299],
    [33352,"urn:WaterMeter:MC0203J22010600005","2024-09-24T08:00:00",20.2,34.98832,0.285],
    [33353,"urn:WaterMeter:MC0203J22010600005","2024-09-24T08:15:00",20.299,34.51512,0.285],
    [33354,"urn:WaterMeter:MC0203J22010600005","2024-09-24T08:30:00",20.399,34.081062,0.273],
    [33355,"urn:WaterMeter:MC0203J22010600005","2024-09-24T08:45:00",20.5,33.97594,0.267],
    [33356,"urn:WaterMeter:MC0203J22010600005","2024-09-24T09:00:00",20.5,33.86384,0.281],
    [33357,"urn:WaterMeter:MC0203J22010600005","2024-09-24T09:15:00",20.7,33.74514,0.267],
    [33358,"urn:WaterMeter:MC0203J22010600005","2024-09-24T09:30:00",20.799,33.630283,0.264],
    [33359,"urn:WaterMeter:MC0203J22010600005","2024-09-24T09:45:00",20.899,33.541065,0.286],
    [33360,"urn:WaterMeter:MC0203J22010600005","2024-09-24T10:00:00",20.899,33.526752,0.261],
    [33361,"urn:WaterMeter:MC0203J22010600005","2024-09-24T10:15:00",21,33.27772,0.273],
    [33362,"urn:WaterMeter:MC0203J22010600005","2024-09-24T10:30:00",21.1,33.252895,0.266],
    [33363,"urn:WaterMeter:MC0203J22010600005","2024-09-24T10:45:00",21.2,33.13924,0.289],
    [33364,"urn:WaterMeter:MC0203J22010600005","2024-09-24T11:00:00",21.399,33.039936,0.267],
    [33365,"urn:WaterMeter:MC0203J22010600005","2024-09-24T11:15:00",21.6,33.00231,0.263],
    [33366,"urn:WaterMeter:MC0203J22010600005","2024-09-24T11:30:00",21.7,32.87896,0.236],
    [33367,"urn:WaterMeter:MC0203J22010600005","2024-09-24T11:45:00",21.7,32.854095,0.263],
    [33368,"urn:WaterMeter:MC0203J22010600005","2024-09-24T12:00:00",21.799,32.81651,0.28],
    [33369,"urn:WaterMeter:MC0203J22010600005","2024-09-24T12:15:00",21.899,32.719532,0.256],
    [33370,"urn:WaterMeter:MC0203J22010600005","2024-09-24T12:30:00",21.899,32.648506,0.252],
    [33371,"urn:WaterMeter:MC0203J22010600005","2024-09-24T12:45:00",21.899,32.598507,0.253],
    [33372,"urn:WaterMeter:MC0203J22010600005","2024-09-24T13:00:00",22,32.570927,0.256],
    [33373,"urn:WaterMeter:MC0203J22010600005","2024-09-24T13:15:00",22,32.526745,0.264],
    [33374,"urn:WaterMeter:MC0203J22010600005","2024-09-24T13:30:00",22,32.450718,0.258],
    [33375,"urn:WaterMeter:MC0203J22010600005","2024-09-24T13:45:00",21.899,32.44296,0.251],
    [33376,"urn:WaterMeter:MC0203J22010600005","2024-09-24T14:00:00",21.899,32.352192,0.271],
    [33377,"urn:WaterMeter:MC0203J22010600005","2024-09-24T14:15:00",21.899,32.322323,0.249],
    [33378,"urn:WaterMeter:MC0203J22010600005","2024-09-24T14:30:00",21.899,32.325813,0.256],
    [33379,"urn:WaterMeter:MC0203J22010600005","2024-09-24T14:45:00",21.899,32.268017,0.251],
    [33380,"urn:WaterMeter:MC0203J22010600005","2024-09-24T15:00:00",22,32.212936,0.26],
    [33381,"urn:WaterMeter:MC0203J22010600005","2024-09-24T15:15:00",22,32.178024,0.252],
    [33382,"urn:WaterMeter:MC0203J22010600005","2024-09-24T15:30:00",22,32.18772,0.236],
    [33383,"urn:WaterMeter:MC0203J22010600005","2024-09-24T15:45:00",22,32.12139,0.252],
    [33384,"urn:WaterMeter:MC0203J22010600005","2024-09-24T16:00:00",22,32.105835,0.266],
    [33385,"urn:WaterMeter:MC0203J22010600005","2024-09-24T16:15:00",22,32.065884,0.247],
    [33386,"urn:WaterMeter:MC0203J22010600005","2024-09-24T16:30:00",22,32.034115,0.245],
    [33387,"urn:WaterMeter:MC0203J22010600005","2024-09-24T16:45:00",22,32.030197,0.245],
    [33388,"urn:WaterMeter:MC0203J22010600005","2024-09-24T17:00:00",22,32.00925,0.258],
    [33389,"urn:WaterMeter:MC0203J22010600005","2024-09-24T17:15:00",22,31.948774,0.245],
    [33390,"urn:WaterMeter:MC0203J22010600005","2024-09-24T17:30:00",21.899,31.99765,0.253],
    [33391,"urn:WaterMeter:MC0203J22010600005","2024-09-24T17:45:00",21.799,31.915417,0.243],
    [33392,"urn:WaterMeter:MC0203J22010600005","2024-09-24T18:00:00",21.799,31.920458,0.27],
    [33393,"urn:WaterMeter:MC0203J22010600005","2024-09-24T18:15:00",21.799,31.967783,0.27],
    [33394,"urn:WaterMeter:MC0203J22010600005","2024-09-24T18:30:00",21.799,31.902227,0.255],
    [33395,"urn:WaterMeter:MC0203J22010600005","2024-09-24T18:45:00",21.7,31.897184,0.252],
    [33396,"urn:WaterMeter:MC0203J22010600005","2024-09-24T19:00:00",21.7,31.901064,0.244],
    [33397,"urn:WaterMeter:MC0203J22010600005","2024-09-24T19:15:00",21.7,31.846758,0.259],
    [33398,"urn:WaterMeter:MC0203J22010600005","2024-09-24T19:30:00",21.6,31.86848,0.26],
    [33399,"urn:WaterMeter:MC0203J22010600005","2024-09-24T19:45:00",21.5,31.812235,0.247],
    [33400,"urn:WaterMeter:MC0203J22010600005","2024-09-24T20:00:00",21.5,31.861885,0.27],
    [33401,"urn:WaterMeter:MC0203J22010600005","2024-09-24T20:15:00",21.399,31.852188,0.268],
    [33402,"urn:WaterMeter:MC0203J22010600005","2024-09-24T20:30:00",21.399,31.800985,0.245],
    [33403,"urn:WaterMeter:MC0203J22010600005","2024-09-24T20:45:00",21.299,31.799433,0.239],
    [33404,"urn:WaterMeter:MC0203J22010600005","2024-09-24T21:00:00",21.299,31.800985,0.246],
    [33405,"urn:WaterMeter:MC0203J22010600005","2024-09-24T21:15:00",21.2,31.799433,0.25],
    [33406,"urn:WaterMeter:MC0203J22010600005","2024-09-24T21:30:00",21.2,31.808743,0.241],
    [33407,"urn:WaterMeter:MC0203J22010600005","2024-09-24T21:45:00",21.1,31.767975,0.258],
    [33408,"urn:WaterMeter:MC0203J22010600005","2024-09-24T22:00:00",21,31.749783,0.26],
    [33409,"urn:WaterMeter:MC0203J22010600005","2024-09-24T22:15:00",21,31.780039,0.249],
    [33410,"urn:WaterMeter:MC0203J22010600005","2024-09-24T22:30:00",20.899,31.757502,0.245],
    [33411,"urn:WaterMeter:MC0203J22010600005","2024-09-24T22:45:00",20.799,31.76336,0.256],
    [33412,"urn:WaterMeter:MC0203J22010600005","2024-09-24T23:00:00",20.7,31.780039,0.24],
    [33413,"urn:WaterMeter:MC0203J22010600005","2024-09-24T23:15:00",20.5,31.70979,0.263],
    [33414,"urn:WaterMeter:MC0203J22010600005","2024-09-24T23:30:00",20.399,31.72806,0.252],
    [33415,"urn:WaterMeter:MC0203J22010600005","2024-09-24T23:45:00",20.2,31.732716,0.256],
    [33416,"urn:WaterMeter:MC0203J22010600005","2024-09-25T00:00:00",20,31.719099,0.24],
    [33417,"urn:WaterMeter:MC0203J22010600005","2024-09-25T00:15:00",19.799,31.704786,0.24],
    [33418,"urn:WaterMeter:MC0203J22010600005","2024-09-25T00:30:00",19.7,31.7428,0.249],
    [33419,"urn:WaterMeter:MC0203J22010600005","2024-09-25T00:45:00",19.7,31.745903,0.246],
    [33420,"urn:WaterMeter:MC0203J22010600005","2024-09-25T01:00:00",19.7,31.756725,0.256],
    [33421,"urn:WaterMeter:MC0203J22010600005","2024-09-25T01:15:00",19.6,31.68962,0.254],
    [33422,"urn:WaterMeter:MC0203J22010600005","2024-09-25T01:30:00",19.6,31.714872,0.248],
    [33423,"urn:WaterMeter:MC0203J22010600005","2024-09-25T01:45:00",19.6,31.754436,0.251],
    [33424,"urn:WaterMeter:MC0203J22010600005","2024-09-25T02:00:00",19.5,31.72457,0.24],
    [33425,"urn:WaterMeter:MC0203J22010600005","2024-09-25T02:15:00",19.299,31.716036,0.24],
    [33426,"urn:WaterMeter:MC0203J22010600005","2024-09-25T02:30:00",19.2,31.716036,0.255],
    [33427,"urn:WaterMeter:MC0203J22010600005","2024-09-25T02:45:00",19.1,31.698929,0.243],
    [33428,"urn:WaterMeter:MC0203J22010600005","2024-09-25T03:00:00",18.899,31.65785,0.253],
    [33429,"urn:WaterMeter:MC0203J22010600005","2024-09-25T03:15:00",18.799,31.695864,0.25],
    [33430,"urn:WaterMeter:MC0203J22010600005","2024-09-25T03:30:00",18.799,31.688107,0.244],
    [33431,"urn:WaterMeter:MC0203J22010600005","2024-09-25T03:45:00",18.7,31.65975,0.245],
    [33432,"urn:WaterMeter:MC0203J22010600005","2024-09-25T04:00:00",18.6,31.667936,0.237],
    [33433,"urn:WaterMeter:MC0203J22010600005","2024-09-25T04:15:00",18.6,31.615181,0.245],
    [33434,"urn:WaterMeter:MC0203J22010600005","2024-09-25T04:30:00",18.6,31.615568,0.264],
    [33435,"urn:WaterMeter:MC0203J22010600005","2024-09-25T04:45:00",18.5,31.615957,0.243],
    [33436,"urn:WaterMeter:MC0203J22010600005","2024-09-25T05:00:00",18.5,31.614794,0.25],
    [33437,"urn:WaterMeter:MC0203J22010600005","2024-09-25T05:15:00",18.6,31.638844,0.243],
    [33438,"urn:WaterMeter:MC0203J22010600005","2024-09-25T05:30:00",18.7,31.804476,0.269],
    [33439,"urn:WaterMeter:MC0203J22010600005","2024-09-25T05:45:00",18.799,32.202423,0.251],
    [33440,"urn:WaterMeter:MC0203J22010600005","2024-09-25T06:00:00",18.799,32.86732,0.254],
    [33441,"urn:WaterMeter:MC0203J22010600005","2024-09-25T06:15:00",18.799,33.61248,0.275],
    [33442,"urn:WaterMeter:MC0203J22010600005","2024-09-25T06:30:00",18.799,34.136143,0.289],
    [33443,"urn:WaterMeter:MC0203J22010600005","2024-09-25T06:45:00",18.799,34.429783,0.288],
    [33444,"urn:WaterMeter:MC0203J22010600005","2024-09-25T07:00:00",18.799,34.62218,0.289],
    [33445,"urn:WaterMeter:MC0203J22010600005","2024-09-25T07:15:00",18.899,34.72963,0.281],
    [33446,"urn:WaterMeter:MC0203J22010600005","2024-09-25T07:30:00",19.1,34.891773,0.293],
    [33447,"urn:WaterMeter:MC0203J22010600005","2024-09-25T07:45:00",19.2,35.025948,0.286],
    [33448,"urn:WaterMeter:MC0203J22010600005","2024-09-25T08:00:00",19.399,35.060898,0.297],
    [33449,"urn:WaterMeter:MC0203J22010600005","2024-09-25T08:15:00",19.5,34.59619,0.298],
    [33450,"urn:WaterMeter:MC0203J22010600005","2024-09-25T08:30:00",19.5,34.25678,0.272],
    [33451,"urn:WaterMeter:MC0203J22010600005","2024-09-25T08:45:00",19.5,34.01857,0.297],
    [33452,"urn:WaterMeter:MC0203J22010600005","2024-09-25T09:00:00",19.6,33.88901,0.266],
    [33453,"urn:WaterMeter:MC0203J22010600005","2024-09-25T09:15:00",19.7,33.78975,0.272],
    [33454,"urn:WaterMeter:MC0203J22010600005","2024-09-25T09:30:00",19.799,33.7335,0.264],
    [33455,"urn:WaterMeter:MC0203J22010600005","2024-09-25T09:45:00",19.899,33.685402,0.263],
    [33456,"urn:WaterMeter:MC0203J22010600005","2024-09-25T10:00:00",20.1,33.505417,0.266],
    [33457,"urn:WaterMeter:MC0203J22010600005","2024-09-25T10:15:00",20.2,33.402626,0.264],
    [33458,"urn:WaterMeter:MC0203J22010600005","2024-09-25T10:30:00",20.299,33.271088,0.274],
    [33459,"urn:WaterMeter:MC0203J22010600005","2024-09-25T10:45:00",20.5,33.226517,0.265],
    [33460,"urn:WaterMeter:MC0203J22010600005","2024-09-25T11:00:00",20.7,33.108986,0.273],
    [33461,"urn:WaterMeter:MC0203J22010600005","2024-09-25T11:15:00",20.899,33.0636,0.257],
    [33462,"urn:WaterMeter:MC0203J22010600005","2024-09-25T11:30:00",21.1,32.99025,0.281],
    [33463,"urn:WaterMeter:MC0203J22010600005","2024-09-25T11:45:00",21.399,32.8828,0.252],
    [33464,"urn:WaterMeter:MC0203J22010600005","2024-09-25T12:00:00",21.7,32.804443,0.268],
    [33465,"urn:WaterMeter:MC0203J22010600005","2024-09-25T12:15:00",21.899,32.72764,0.258],
    [33466,"urn:WaterMeter:MC0203J22010600005","2024-09-25T12:30:00",22,32.666004,0.272],
    [33467,"urn:WaterMeter:MC0203J22010600005","2024-09-25T12:45:00",22.1,32.601185,0.268],
    [33468,"urn:WaterMeter:MC0203J22010600005","2024-09-25T13:00:00",22.1,32.52438,0.271],
    [33469,"urn:WaterMeter:MC0203J22010600005","2024-09-25T13:15:00",22.2,32.452656,0.26],
    [33470,"urn:WaterMeter:MC0203J22010600005","2024-09-25T13:30:00",22.2,32.39292,0.263],
    [33471,"urn:WaterMeter:MC0203J22010600005","2024-09-25T13:45:00",22.299,32.27923,0.262],
    [33472,"urn:WaterMeter:MC0203J22010600005","2024-09-25T14:00:00",22.299,32.256767,0.259],
    [33473,"urn:WaterMeter:MC0203J22010600005","2024-09-25T14:15:00",22.299,32.151646,0.254],
    [33474,"urn:WaterMeter:MC0203J22010600005","2024-09-25T14:30:00",22.299,32.11631,0.264],
    [33475,"urn:WaterMeter:MC0203J22010600005","2024-09-25T14:45:00",22.299,32.05312,0.249],
    [33476,"urn:WaterMeter:MC0203J22010600005","2024-09-25T15:00:00",22.399,32.0058,0.252],
    [33477,"urn:WaterMeter:MC0203J22010600005","2024-09-25T15:15:00",22.399,31.96817,0.249],
    [33478,"urn:WaterMeter:MC0203J22010600005","2024-09-25T15:30:00",22.399,31.950676,0.248],
    [33479,"urn:WaterMeter:MC0203J22010600005","2024-09-25T15:45:00",22.399,31.88357,0.252],
    [33480,"urn:WaterMeter:MC0203J22010600005","2024-09-25T16:00:00",22.399,31.829689,0.247],
    [33481,"urn:WaterMeter:MC0203J22010600005","2024-09-25T16:15:00",22.299,31.785856,0.254],
    [33482,"urn:WaterMeter:MC0203J22010600005","2024-09-25T16:30:00",22.299,31.816074,0.251],
    [33483,"urn:WaterMeter:MC0203J22010600005","2024-09-25T16:45:00",22.2,31.775345,0.254],
    [33484,"urn:WaterMeter:MC0203J22010600005","2024-09-25T17:00:00",22.1,31.752499,0.251],
    [33485,"urn:WaterMeter:MC0203J22010600005","2024-09-25T17:15:00",22.1,31.691172,0.256],
    [33486,"urn:WaterMeter:MC0203J22010600005","2024-09-25T17:30:00",22,31.719488,0.25],
    [33487,"urn:WaterMeter:MC0203J22010600005","2024-09-25T17:45:00",21.899,31.708277,0.248],
    [33488,"urn:WaterMeter:MC0203J22010600005","2024-09-25T18:00:00",21.799,31.68927,0.255],
    [33489,"urn:WaterMeter:MC0203J22010600005","2024-09-25T18:15:00",21.7,31.67259,0.259],
    [33490,"urn:WaterMeter:MC0203J22010600005","2024-09-25T18:30:00",21.6,31.684616,0.257],
    [33491,"urn:WaterMeter:MC0203J22010600005","2024-09-25T18:45:00",21.5,31.626818,0.259],
    [33492,"urn:WaterMeter:MC0203J22010600005","2024-09-25T19:00:00",21.5,31.605871,0.26],
    [33493,"urn:WaterMeter:MC0203J22010600005","2024-09-25T19:15:00",21.5,31.65975,0.247],
    [33494,"urn:WaterMeter:MC0203J22010600005","2024-09-25T19:30:00",21.5,31.610138,0.244],
    [33495,"urn:WaterMeter:MC0203J22010600005","2024-09-25T19:45:00",21.399,31.63958,0.259],
    [33496,"urn:WaterMeter:MC0203J22010600005","2024-09-25T20:00:00",21.399,31.601566,0.255],
    [33497,"urn:WaterMeter:MC0203J22010600005","2024-09-25T20:15:00",21.399,31.626818,0.259],
    [33498,"urn:WaterMeter:MC0203J22010600005","2024-09-25T20:30:00",21.399,31.624878,0.242],
    [33499,"urn:WaterMeter:MC0203J22010600005","2024-09-25T20:45:00",21.299,31.626818,0.26],
    [33500,"urn:WaterMeter:MC0203J22010600005","2024-09-25T21:00:00",21.2,31.569021,0.25],
    [33501,"urn:WaterMeter:MC0203J22010600005","2024-09-25T21:15:00",21.2,31.597338,0.248],
    [33502,"urn:WaterMeter:MC0203J22010600005","2024-09-25T21:30:00",21.1,31.53601,0.268],
    [33503,"urn:WaterMeter:MC0203J22010600005","2024-09-25T21:45:00",21,31.549238,0.241],
    [33504,"urn:WaterMeter:MC0203J22010600005","2024-09-25T22:00:00",20.899,31.566694,0.253],
    [33505,"urn:WaterMeter:MC0203J22010600005","2024-09-25T22:15:00",20.899,31.589191,0.256],
    [33506,"urn:WaterMeter:MC0203J22010600005","2024-09-25T22:30:00",20.799,31.560488,0.248],
    [33507,"urn:WaterMeter:MC0203J22010600005","2024-09-25T22:45:00",20.7,31.534111,0.248],
    [33508,"urn:WaterMeter:MC0203J22010600005","2024-09-25T23:00:00",20.6,31.576391,0.259],
    [33509,"urn:WaterMeter:MC0203J22010600005","2024-09-25T23:15:00",20.6,31.513552,0.263],
    [33510,"urn:WaterMeter:MC0203J22010600005","2024-09-25T23:30:00",20.5,31.482908,0.256],
    [33511,"urn:WaterMeter:MC0203J22010600005","2024-09-25T23:45:00",20.399,31.518982,0.244],
    [33512,"urn:WaterMeter:MC0203J22010600005","2024-09-26T00:00:00",20.299,31.539152,0.25],
    [33513,"urn:WaterMeter:MC0203J22010600005","2024-09-26T00:15:00",20.299,31.532558,0.248],
    [33514,"urn:WaterMeter:MC0203J22010600005","2024-09-26T00:30:00",20.299,31.523987,0.245],
    [33515,"urn:WaterMeter:MC0203J22010600005","2024-09-26T00:45:00",20.2,31.494932,0.27],
    [33516,"urn:WaterMeter:MC0203J22010600005","2024-09-26T01:00:00",20.2,31.498035,0.252],
    [33517,"urn:WaterMeter:MC0203J22010600005","2024-09-26T01:15:00",20.1,31.483683,0.251],
    [33518,"urn:WaterMeter:MC0203J22010600005","2024-09-26T01:30:00",20,31.479029,0.238],
    [33519,"urn:WaterMeter:MC0203J22010600005","2024-09-26T01:45:00",20,31.475925,0.251],
    [33520,"urn:WaterMeter:MC0203J22010600005","2024-09-26T02:00:00",19.899,31.473598,0.258],
    [33521,"urn:WaterMeter:MC0203J22010600005","2024-09-26T02:15:00",19.799,31.477438,0.239],
    [33522,"urn:WaterMeter:MC0203J22010600005","2024-09-26T02:30:00",19.799,31.479416,0.247],
    [33523,"urn:WaterMeter:MC0203J22010600005","2024-09-26T02:45:00",19.7,31.455755,0.24],
    [33524,"urn:WaterMeter:MC0203J22010600005","2024-09-26T03:00:00",19.7,31.481356,0.256],
    [33525,"urn:WaterMeter:MC0203J22010600005","2024-09-26T03:15:00",19.6,31.477438,0.234],
    [33526,"urn:WaterMeter:MC0203J22010600005","2024-09-26T03:30:00",19.5,31.476662,0.239],
    [33527,"urn:WaterMeter:MC0203J22010600005","2024-09-26T03:45:00",19.5,31.488726,0.263],
    [33528,"urn:WaterMeter:MC0203J22010600005","2024-09-26T04:00:00",19.399,31.450323,0.245],
    [33529,"urn:WaterMeter:MC0203J22010600005","2024-09-26T04:15:00",19.399,31.480192,0.238],
    [33530,"urn:WaterMeter:MC0203J22010600005","2024-09-26T04:30:00",19.299,31.478252,0.251],
    [33531,"urn:WaterMeter:MC0203J22010600005","2024-09-26T04:45:00",19.299,31.457655,0.247],
    [33532,"urn:WaterMeter:MC0203J22010600005","2024-09-26T05:00:00",19.2,31.424723,0.243],
    [33533,"urn:WaterMeter:MC0203J22010600005","2024-09-26T05:15:00",19.399,31.413086,0.238],
    [33534,"urn:WaterMeter:MC0203J22010600005","2024-09-26T05:30:00",19.5,31.544157,0.238],
    [33535,"urn:WaterMeter:MC0203J22010600005","2024-09-26T05:45:00",19.5,31.802925,0.255],
    [33536,"urn:WaterMeter:MC0203J22010600005","2024-09-26T06:00:00",19.5,32.454945,0.27],
    [33537,"urn:WaterMeter:MC0203J22010600005","2024-09-26T06:15:00",19.5,33.21174,0.266],
    [33538,"urn:WaterMeter:MC0203J22010600005","2024-09-26T06:30:00",19.6,33.788197,0.293],
    [33539,"urn:WaterMeter:MC0203J22010600005","2024-09-26T06:45:00",19.6,34.188896,0.283],
    [33540,"urn:WaterMeter:MC0203J22010600005","2024-09-26T07:00:00",19.6,34.47319,0.285],
    [33541,"urn:WaterMeter:MC0203J22010600005","2024-09-26T07:15:00",19.6,34.65554,0.3],
    [33542,"urn:WaterMeter:MC0203J22010600005","2024-09-26T07:30:00",19.799,34.75213,0.289],
    [33543,"urn:WaterMeter:MC0203J22010600005","2024-09-26T07:45:00",19.899,34.866558,0.294],
    [33544,"urn:WaterMeter:MC0203J22010600005","2024-09-26T08:00:00",20.1,34.99802,0.297],
    [33545,"urn:WaterMeter:MC0203J22010600005","2024-09-26T08:15:00",20.2,34.631493,0.289],
    [33546,"urn:WaterMeter:MC0203J22010600005","2024-09-26T08:30:00",20.399,34.190838,0.279],
    [33547,"urn:WaterMeter:MC0203J22010600005","2024-09-26T08:45:00",20.5,33.999176,0.27],
    [33548,"urn:WaterMeter:MC0203J22010600005","2024-09-26T09:00:00",20.7,33.796345,0.272],
    [33549,"urn:WaterMeter:MC0203J22010600005","2024-09-26T09:15:00",20.799,33.685017,0.284],
    [33550,"urn:WaterMeter:MC0203J22010600005","2024-09-26T09:30:00",21,33.61981,0.279],
    [33551,"urn:WaterMeter:MC0203J22010600005","2024-09-26T09:45:00",21.2,33.393314,0.294],
    [33552,"urn:WaterMeter:MC0203J22010600005","2024-09-26T10:00:00",21.399,33.3169,0.265],
    [33553,"urn:WaterMeter:MC0203J22010600005","2024-09-26T10:15:00",21.6,33.271088,0.251],
    [33554,"urn:WaterMeter:MC0203J22010600005","2024-09-26T10:30:00",21.7,33.184196,0.267],
    [33555,"urn:WaterMeter:MC0203J22010600005","2024-09-26T10:45:00",21.899,33.029854,0.268],
    [33556,"urn:WaterMeter:MC0203J22010600005","2024-09-26T11:00:00",22.2,32.97124,0.273],
    [33557,"urn:WaterMeter:MC0203J22010600005","2024-09-26T11:15:00",22.399,32.87896,0.262],
    [33558,"urn:WaterMeter:MC0203J22010600005","2024-09-26T11:30:00",22.6,32.82659,0.263],
    [33559,"urn:WaterMeter:MC0203J22010600005","2024-09-26T11:45:00",22.899,32.720695,0.263],
    [33560,"urn:WaterMeter:MC0203J22010600005","2024-09-26T12:00:00",23.2,32.679153,0.258],
    [33561,"urn:WaterMeter:MC0203J22010600005","2024-09-26T12:15:00",23.399,32.606266,0.274],
    [33562,"urn:WaterMeter:MC0203J22010600005","2024-09-26T12:30:00",23.6,32.51123,0.259],
    [33563,"urn:WaterMeter:MC0203J22010600005","2024-09-26T12:45:00",23.7,32.436325,0.266],
    [33564,"urn:WaterMeter:MC0203J22010600005","2024-09-26T13:00:00",23.7,32.349438,0.263],
    [33565,"urn:WaterMeter:MC0203J22010600005","2024-09-26T13:15:00",23.799,32.32426,0.251],
    [33566,"urn:WaterMeter:MC0203J22010600005","2024-09-26T13:30:00",23.799,32.203197,0.263],
    [33567,"urn:WaterMeter:MC0203J22010600005","2024-09-26T13:45:00",23.899,32.133804,0.256],
    [33568,"urn:WaterMeter:MC0203J22010600005","2024-09-26T14:00:00",24,32.080273,0.268],
    [33569,"urn:WaterMeter:MC0203J22010600005","2024-09-26T14:15:00",24.1,31.99765,0.249],
    [33570,"urn:WaterMeter:MC0203J22010600005","2024-09-26T14:30:00",24.1,31.951452,0.252],
    [33571,"urn:WaterMeter:MC0203J22010600005","2024-09-26T14:45:00",24.2,31.92236,0.25],
    [33572,"urn:WaterMeter:MC0203J22010600005","2024-09-26T15:00:00",24.2,31.843266,0.244],
    [33573,"urn:WaterMeter:MC0203J22010600005","2024-09-26T15:15:00",24.299,31.802536,0.247],
    [33574,"urn:WaterMeter:MC0203J22010600005","2024-09-26T15:30:00",24.399,31.754436,0.266],
    [33575,"urn:WaterMeter:MC0203J22010600005","2024-09-26T15:45:00",24.299,31.706726,0.241],
    [33576,"urn:WaterMeter:MC0203J22010600005","2024-09-26T16:00:00",24.299,31.63768,0.252],
    [33577,"urn:WaterMeter:MC0203J22010600005","2024-09-26T16:15:00",24.2,31.641132,0.274],
    [33578,"urn:WaterMeter:MC0203J22010600005","2024-09-26T16:30:00",24.2,31.620573,0.263],
    [33579,"urn:WaterMeter:MC0203J22010600005","2024-09-26T16:45:00",24.2,31.578331,0.241],
    [33580,"urn:WaterMeter:MC0203J22010600005","2024-09-26T17:00:00",24.1,31.584497,0.243],
    [33581,"urn:WaterMeter:MC0203J22010600005","2024-09-26T17:15:00",24.1,31.560875,0.254],
    [33582,"urn:WaterMeter:MC0203J22010600005","2024-09-26T17:30:00",24,31.530231,0.247],
    [33583,"urn:WaterMeter:MC0203J22010600005","2024-09-26T17:45:00",23.899,31.496445,0.259],
    [33584,"urn:WaterMeter:MC0203J22010600005","2024-09-26T18:00:00",23.7,31.483683,0.264],
    [33585,"urn:WaterMeter:MC0203J22010600005","2024-09-26T18:15:00",23.6,31.472822,0.256],
    [33586,"urn:WaterMeter:MC0203J22010600005","2024-09-26T18:30:00",23.5,31.473986,0.262],
    [33587,"urn:WaterMeter:MC0203J22010600005","2024-09-26T18:45:00",23.299,31.447182,0.262],
    [33588,"urn:WaterMeter:MC0203J22010600005","2024-09-26T19:00:00",23.2,31.466188,0.271],
    [33589,"urn:WaterMeter:MC0203J22010600005","2024-09-26T19:15:00",23,31.441013,0.26],
    [33590,"urn:WaterMeter:MC0203J22010600005","2024-09-26T19:30:00",22.899,31.449936,0.244],
    [33591,"urn:WaterMeter:MC0203J22010600005","2024-09-26T19:45:00",22.799,31.40878,0.247],
    [33592,"urn:WaterMeter:MC0203J22010600005","2024-09-26T20:00:00",22.7,31.441013,0.259],
    [33593,"urn:WaterMeter:MC0203J22010600005","2024-09-26T20:15:00",22.6,31.403387,0.245],
    [33594,"urn:WaterMeter:MC0203J22010600005","2024-09-26T20:30:00",22.5,31.458042,0.267],
    [33595,"urn:WaterMeter:MC0203J22010600005","2024-09-26T20:45:00",22.399,31.412697,0.241],
    [33596,"urn:WaterMeter:MC0203J22010600005","2024-09-26T21:00:00",22.399,31.412697,0.249],
    [33597,"urn:WaterMeter:MC0203J22010600005","2024-09-26T21:15:00",22.299,31.433256,0.261],
    [33598,"urn:WaterMeter:MC0203J22010600005","2024-09-26T21:30:00",22.299,31.403387,0.249],
    [33599,"urn:WaterMeter:MC0203J22010600005","2024-09-26T21:45:00",22.2,31.399082,0.243],
    [33600,"urn:WaterMeter:MC0203J22010600005","2024-09-26T22:00:00",22.2,31.35296,0.245],
    [33601,"urn:WaterMeter:MC0203J22010600005","2024-09-26T22:15:00",22.1,31.387056,0.244],
    [33602,"urn:WaterMeter:MC0203J22010600005","2024-09-26T22:30:00",22,31.398695,0.265],
    [33603,"urn:WaterMeter:MC0203J22010600005","2024-09-26T22:45:00",21.899,31.388609,0.246],
    [33604,"urn:WaterMeter:MC0203J22010600005","2024-09-26T23:00:00",21.899,31.358004,0.249],
    [33605,"urn:WaterMeter:MC0203J22010600005","2024-09-26T23:15:00",21.799,31.369602,0.249],
    [33606,"urn:WaterMeter:MC0203J22010600005","2024-09-26T23:30:00",21.799,31.328135,0.253],
    [33607,"urn:WaterMeter:MC0203J22010600005","2024-09-26T23:45:00",21.7,31.35296,0.249],
    [33608,"urn:WaterMeter:MC0203J22010600005","2024-09-27T00:00:00",21.7,31.323868,0.248],
    [33609,"urn:WaterMeter:MC0203J22010600005","2024-09-27T00:15:00",21.7,31.353348,0.255],
    [33610,"urn:WaterMeter:MC0203J22010600005","2024-09-27T00:30:00",21.6,31.315722,0.259],
    [33611,"urn:WaterMeter:MC0203J22010600005","2024-09-27T00:45:00",21.6,31.354513,0.253],
    [33612,"urn:WaterMeter:MC0203J22010600005","2024-09-27T01:00:00",21.6,31.338608,0.243],
    [33613,"urn:WaterMeter:MC0203J22010600005","2024-09-27T01:15:00",21.6,31.289345,0.248],
    [33614,"urn:WaterMeter:MC0203J22010600005","2024-09-27T01:30:00",21.5,31.314558,0.258],
    [33615,"urn:WaterMeter:MC0203J22010600005","2024-09-27T01:45:00",21.5,31.288568,0.272],
    [33616,"urn:WaterMeter:MC0203J22010600005","2024-09-27T02:00:00",21.5,31.254007,0.251],
    [33617,"urn:WaterMeter:MC0203J22010600005","2024-09-27T02:15:00",21.399,31.276932,0.265],
    [33618,"urn:WaterMeter:MC0203J22010600005","2024-09-27T02:30:00",21.399,31.306414,0.25],
    [33619,"urn:WaterMeter:MC0203J22010600005","2024-09-27T02:45:00",21.399,31.289345,0.255],
    [33620,"urn:WaterMeter:MC0203J22010600005","2024-09-27T03:00:00",21.399,31.239305,0.25],
    [33621,"urn:WaterMeter:MC0203J22010600005","2024-09-27T03:15:00",21.399,31.248228,0.247],
    [33622,"urn:WaterMeter:MC0203J22010600005","2024-09-27T03:30:00",21.399,31.276545,0.238],
    [33623,"urn:WaterMeter:MC0203J22010600005","2024-09-27T03:45:00",21.299,31.254007,0.254],
    [33624,"urn:WaterMeter:MC0203J22010600005","2024-09-27T04:00:00",21.299,31.267235,0.242],
    [33625,"urn:WaterMeter:MC0203J22010600005","2024-09-27T04:15:00",21.2,31.275381,0.262],
    [33626,"urn:WaterMeter:MC0203J22010600005","2024-09-27T04:30:00",21.2,31.228058,0.241],
    [33627,"urn:WaterMeter:MC0203J22010600005","2024-09-27T04:45:00",21.2,31.252068,0.241],
    [33628,"urn:WaterMeter:MC0203J22010600005","2024-09-27T05:00:00",21.1,31.20552,0.252],
    [33629,"urn:WaterMeter:MC0203J22010600005","2024-09-27T05:15:00",21.2,31.250168,0.244],
    [33630,"urn:WaterMeter:MC0203J22010600005","2024-09-27T05:30:00",21.2,31.33473,0.247],
    [33631,"urn:WaterMeter:MC0203J22010600005","2024-09-27T05:45:00",21.2,31.665997,0.251],
    [33632,"urn:WaterMeter:MC0203J22010600005","2024-09-27T06:00:00",21.299,32.35797,0.262],
    [33633,"urn:WaterMeter:MC0203J22010600005","2024-09-27T06:15:00",21.299,33.184196,0.28],
    [33634,"urn:WaterMeter:MC0203J22010600005","2024-09-27T06:30:00",21.299,33.703636,0.312],
    [33635,"urn:WaterMeter:MC0203J22010600005","2024-09-27T06:45:00",21.299,34.052357,0.292],
    [33636,"urn:WaterMeter:MC0203J22010600005","2024-09-27T07:00:00",21.299,34.29557,0.289],
    [33637,"urn:WaterMeter:MC0203J22010600005","2024-09-27T07:15:00",21.399,34.510815,0.288],
    [33638,"urn:WaterMeter:MC0203J22010600005","2024-09-27T07:30:00",21.5,34.668304,0.29],
    [33639,"urn:WaterMeter:MC0203J22010600005","2024-09-27T07:45:00",21.6,34.777344,0.29],
    [33640,"urn:WaterMeter:MC0203J22010600005","2024-09-27T08:00:00",21.6,34.869663,0.297],
    [33641,"urn:WaterMeter:MC0203J22010600005","2024-09-27T08:15:00",21.7,34.352203,0.286],
    [33642,"urn:WaterMeter:MC0203J22010600005","2024-09-27T08:30:00",21.7,34.023266,0.292],
    [33643,"urn:WaterMeter:MC0203J22010600005","2024-09-27T08:45:00",21.799,33.790524,0.28],
    [33644,"urn:WaterMeter:MC0203J22010600005","2024-09-27T09:00:00",21.899,33.680748,0.268],
    [33645,"urn:WaterMeter:MC0203J22010600005","2024-09-27T09:15:00",22,33.579857,0.269],
    [33646,"urn:WaterMeter:MC0203J22010600005","2024-09-27T09:30:00",22.1,33.509686,0.283],
    [33647,"urn:WaterMeter:MC0203J22010600005","2024-09-27T09:45:00",22.2,33.43327,0.272],
    [33648,"urn:WaterMeter:MC0203J22010600005","2024-09-27T10:00:00",22.299,33.2707,0.283],
    [33649,"urn:WaterMeter:MC0203J22010600005","2024-09-27T10:15:00",22.299,33.17997,0.269],
    [33650,"urn:WaterMeter:MC0203J22010600005","2024-09-27T10:30:00",22.299,33.119457,0.262],
    [33651,"urn:WaterMeter:MC0203J22010600005","2024-09-27T10:45:00",22.399,33.027874,0.272],
    [33652,"urn:WaterMeter:MC0203J22010600005","2024-09-27T11:00:00",22.5,32.98947,0.269],
    [33653,"urn:WaterMeter:MC0203J22010600005","2024-09-27T11:15:00",22.6,32.928223,0.274],
    [33654,"urn:WaterMeter:MC0203J22010600005","2024-09-27T11:30:00",22.799,32.859177,0.281],
    [33655,"urn:WaterMeter:MC0203J22010600005","2024-09-27T11:45:00",23.1,32.771122,0.271],
    [33656,"urn:WaterMeter:MC0203J22010600005","2024-09-27T12:00:00",23.299,32.6854,0.26],
    [33657,"urn:WaterMeter:MC0203J22010600005","2024-09-27T12:15:00",23.5,32.604713,0.262],
    [33658,"urn:WaterMeter:MC0203J22010600005","2024-09-27T12:30:00",23.5,32.53024,0.265],
    [33659,"urn:WaterMeter:MC0203J22010600005","2024-09-27T12:45:00",23.5,32.479034,0.268],
    [33660,"urn:WaterMeter:MC0203J22010600005","2024-09-27T13:00:00",23.6,32.399513,0.257],
    [33661,"urn:WaterMeter:MC0203J22010600005","2024-09-27T13:15:00",23.6,32.33629,0.258],
    [33662,"urn:WaterMeter:MC0203J22010600005","2024-09-27T13:30:00",23.6,32.24238,0.27],
    [33663,"urn:WaterMeter:MC0203J22010600005","2024-09-27T13:45:00",23.6,32.194664,0.253],
    [33664,"urn:WaterMeter:MC0203J22010600005","2024-09-27T14:00:00",23.6,32.129925,0.253],
    [33665,"urn:WaterMeter:MC0203J22010600005","2024-09-27T14:15:00",23.5,32.092686,0.265],
    [33666,"urn:WaterMeter:MC0203J22010600005","2024-09-27T14:30:00",23.5,32.003082,0.27],
    [33667,"urn:WaterMeter:MC0203J22010600005","2024-09-27T14:45:00",23.5,31.978643,0.251],
    [33668,"urn:WaterMeter:MC0203J22010600005","2024-09-27T15:00:00",23.5,31.913826,0.253],
    [33669,"urn:WaterMeter:MC0203J22010600005","2024-09-27T15:15:00",23.399,31.878954,0.26],
    [33670,"urn:WaterMeter:MC0203J22010600005","2024-09-27T15:30:00",23.399,31.830465,0.253],
    [33671,"urn:WaterMeter:MC0203J22010600005","2024-09-27T15:45:00",23.299,31.778448,0.262],
    [33672,"urn:WaterMeter:MC0203J22010600005","2024-09-27T16:00:00",23.2,31.720263,0.254],
    [33673,"urn:WaterMeter:MC0203J22010600005","2024-09-27T16:15:00",23,31.715647,0.259],
    [33674,"urn:WaterMeter:MC0203J22010600005","2024-09-27T16:30:00",23,31.688494,0.26],
    [33675,"urn:WaterMeter:MC0203J22010600005","2024-09-27T16:45:00",22.899,31.673754,0.253],
    [33676,"urn:WaterMeter:MC0203J22010600005","2024-09-27T17:00:00",22.799,31.65591,0.264],
    [33677,"urn:WaterMeter:MC0203J22010600005","2024-09-27T17:15:00",22.799,31.640356,0.25],
    [33678,"urn:WaterMeter:MC0203J22010600005","2024-09-27T17:30:00",22.799,31.552341,0.257],
    [33679,"urn:WaterMeter:MC0203J22010600005","2024-09-27T17:45:00",22.7,31.575228,0.25],
    [33680,"urn:WaterMeter:MC0203J22010600005","2024-09-27T18:00:00",22.6,31.576391,0.253],
    [33681,"urn:WaterMeter:MC0203J22010600005","2024-09-27T18:15:00",22.299,31.56394,0.271],
    [33682,"urn:WaterMeter:MC0203J22010600005","2024-09-27T18:30:00",22.2,31.510448,0.266],
    [33683,"urn:WaterMeter:MC0203J22010600005","2024-09-27T18:45:00",22.1,31.53446,0.261],
    [33684,"urn:WaterMeter:MC0203J22010600005","2024-09-27T19:00:00",22.1,31.523598,0.247],
    [33685,"urn:WaterMeter:MC0203J22010600005","2024-09-27T19:15:00",22,31.531008,0.253],
    [33686,"urn:WaterMeter:MC0203J22010600005","2024-09-27T19:30:00",21.899,31.511225,0.261],
    [33687,"urn:WaterMeter:MC0203J22010600005","2024-09-27T19:45:00",21.899,31.532171,0.251],
    [33688,"urn:WaterMeter:MC0203J22010600005","2024-09-27T20:00:00",21.799,31.498812,0.26],
    [33689,"urn:WaterMeter:MC0203J22010600005","2024-09-27T20:15:00",21.7,31.499586,0.251],
    [33690,"urn:WaterMeter:MC0203J22010600005","2024-09-27T20:30:00",21.6,31.455755,0.257],
    [33691,"urn:WaterMeter:MC0203J22010600005","2024-09-27T20:45:00",21.6,31.483683,0.259],
    [33692,"urn:WaterMeter:MC0203J22010600005","2024-09-27T21:00:00",21.5,31.457655,0.259],
    [33693,"urn:WaterMeter:MC0203J22010600005","2024-09-27T21:15:00",21.5,31.473986,0.243],
    [33694,"urn:WaterMeter:MC0203J22010600005","2024-09-27T21:30:00",21.399,31.428175,0.243],
    [33695,"urn:WaterMeter:MC0203J22010600005","2024-09-27T21:45:00",21.399,31.457268,0.269],
    [33696,"urn:WaterMeter:MC0203J22010600005","2024-09-27T22:00:00",21.299,31.45653,0.248],
    [33697,"urn:WaterMeter:MC0203J22010600005","2024-09-27T22:15:00",21.299,31.417353,0.25],
    [33698,"urn:WaterMeter:MC0203J22010600005","2024-09-27T22:30:00",21.2,31.390976,0.249],
    [33699,"urn:WaterMeter:MC0203J22010600005","2024-09-27T22:45:00",21.2,31.383993,0.256],
    [33700,"urn:WaterMeter:MC0203J22010600005","2024-09-27T23:00:00",21.1,31.430153,0.25],
    [33701,"urn:WaterMeter:MC0203J22010600005","2024-09-27T23:15:00",21.1,31.390549,0.254],
    [33702,"urn:WaterMeter:MC0203J22010600005","2024-09-27T23:30:00",21,31.34016,0.248],
    [33703,"urn:WaterMeter:MC0203J22010600005","2024-09-27T23:45:00",20.899,31.372744,0.244],
    [33704,"urn:WaterMeter:MC0203J22010600005","2024-09-28T00:00:00",20.799,31.360292,0.245],
    [33705,"urn:WaterMeter:MC0203J22010600005","2024-09-28T00:15:00",20.799,31.315722,0.246],
    [33706,"urn:WaterMeter:MC0203J22010600005","2024-09-28T00:30:00",20.7,31.368826,0.246],
    [33707,"urn:WaterMeter:MC0203J22010600005","2024-09-28T00:45:00",20.6,31.38477,0.254],
    [33708,"urn:WaterMeter:MC0203J22010600005","2024-09-28T01:00:00",20.5,31.378174,0.258],
    [33709,"urn:WaterMeter:MC0203J22010600005","2024-09-28T01:15:00",20.399,31.323868,0.247],
    [33710,"urn:WaterMeter:MC0203J22010600005","2024-09-28T01:30:00",20.399,31.350595,0.264],
    [33711,"urn:WaterMeter:MC0203J22010600005","2024-09-28T01:45:00",20.299,31.31805,0.257],
    [33712,"urn:WaterMeter:MC0203J22010600005","2024-09-28T02:00:00",20.2,31.34404,0.244],
    [33713,"urn:WaterMeter:MC0203J22010600005","2024-09-28T02:15:00",20.1,31.353348,0.244],
    [33714,"urn:WaterMeter:MC0203J22010600005","2024-09-28T02:30:00",20,31.27732,0.249],
    [33715,"urn:WaterMeter:MC0203J22010600005","2024-09-28T02:45:00",19.899,31.287794,0.24],
    [33716,"urn:WaterMeter:MC0203J22010600005","2024-09-28T03:00:00",19.799,31.333178,0.25],
    [33717,"urn:WaterMeter:MC0203J22010600005","2024-09-28T03:15:00",19.799,31.333178,0.254],
    [33718,"urn:WaterMeter:MC0203J22010600005","2024-09-28T03:30:00",19.7,31.281975,0.241],
    [33719,"urn:WaterMeter:MC0203J22010600005","2024-09-28T03:45:00",19.7,31.276157,0.239],
    [33720,"urn:WaterMeter:MC0203J22010600005","2024-09-28T04:00:00",19.7,31.3068,0.251],
    [33721,"urn:WaterMeter:MC0203J22010600005","2024-09-28T04:15:00",19.6,31.255985,0.24],
    [33722,"urn:WaterMeter:MC0203J22010600005","2024-09-28T04:30:00",19.6,31.238531,0.248],
    [33723,"urn:WaterMeter:MC0203J22010600005","2024-09-28T04:45:00",19.399,31.258314,0.259],
    [33724,"urn:WaterMeter:MC0203J22010600005","2024-09-28T05:00:00",19.299,31.280424,0.245],
    [33725,"urn:WaterMeter:MC0203J22010600005","2024-09-28T05:15:00",19.2,31.205908,0.242],
    [33726,"urn:WaterMeter:MC0203J22010600005","2024-09-28T05:30:00",19,31.283876,0.239],
    [33727,"urn:WaterMeter:MC0203J22010600005","2024-09-28T05:45:00",18.899,31.231161,0.244],
    [33728,"urn:WaterMeter:MC0203J22010600005","2024-09-28T06:00:00",18.799,31.229221,0.236],
    [33729,"urn:WaterMeter:MC0203J22010600005","2024-09-28T06:15:00",18.6,31.26293,0.247],
    [33730,"urn:WaterMeter:MC0203J22010600005","2024-09-28T06:30:00",18.5,31.242798,0.253],
    [33731,"urn:WaterMeter:MC0203J22010600005","2024-09-28T06:45:00",18.399,31.247452,0.246],
    [33732,"urn:WaterMeter:MC0203J22010600005","2024-09-28T07:00:00",18.399,31.20711,0.249],
    [33733,"urn:WaterMeter:MC0203J22010600005","2024-09-28T07:15:00",18.5,31.198965,0.257],
    [33734,"urn:WaterMeter:MC0203J22010600005","2024-09-28T07:30:00",18.5,31.20711,0.254],
    [33735,"urn:WaterMeter:MC0203J22010600005","2024-09-28T07:45:00",18.6,31.171812,0.242],
    [33736,"urn:WaterMeter:MC0203J22010600005","2024-09-28T08:00:00",18.6,31.10393,0.265],
    [33737,"urn:WaterMeter:MC0203J22010600005","2024-09-28T08:15:00",18.6,31.041864,0.237],
    [33738,"urn:WaterMeter:MC0203J22010600005","2024-09-28T08:30:00",18.7,31.066303,0.245],
    [33739,"urn:WaterMeter:MC0203J22010600005","2024-09-28T08:45:00",18.899,31.038336,0.252],
    [33740,"urn:WaterMeter:MC0203J22010600005","2024-09-28T09:00:00",19,30.98015,0.232],
    [33741,"urn:WaterMeter:MC0203J22010600005","2024-09-28T09:15:00",19.2,30.96347,0.253],
    [33742,"urn:WaterMeter:MC0203J22010600005","2024-09-28T09:30:00",19.399,30.927435,0.239],
    [33743,"urn:WaterMeter:MC0203J22010600005","2024-09-28T09:45:00",19.6,30.865332,0.252],
    [33744,"urn:WaterMeter:MC0203J22010600005","2024-09-28T10:00:00",19.7,30.794773,0.231],
    [33745,"urn:WaterMeter:MC0203J22010600005","2024-09-28T10:15:00",19.899,30.766806,0.233],
    [33746,"urn:WaterMeter:MC0203J22010600005","2024-09-28T10:30:00",20,30.710947,0.237],
    [33747,"urn:WaterMeter:MC0203J22010600005","2024-09-28T10:45:00",20.2,30.706331,0.254],
    [33748,"urn:WaterMeter:MC0203J22010600005","2024-09-28T11:00:00",20.399,30.661335,0.237],
    [33749,"urn:WaterMeter:MC0203J22010600005","2024-09-28T11:15:00",20.6,30.583366,0.255],
    [33750,"urn:WaterMeter:MC0203J22010600005","2024-09-28T11:30:00",20.799,30.536005,0.226],
    [33751,"urn:WaterMeter:MC0203J22010600005","2024-09-28T11:45:00",21,30.450317,0.233],
    [33752,"urn:WaterMeter:MC0203J22010600005","2024-09-28T12:00:00",21.299,30.442171,0.225],
    [33753,"urn:WaterMeter:MC0203J22010600005","2024-09-28T12:15:00",21.399,30.399464,0.239],
    [33754,"urn:WaterMeter:MC0203J22010600005","2024-09-28T12:30:00",21.5,30.272272,0.223],
    [33755,"urn:WaterMeter:MC0203J22010600005","2024-09-28T12:45:00",21.5,30.263699,0.244],
    [33756,"urn:WaterMeter:MC0203J22010600005","2024-09-28T13:00:00",21.6,30.172194,0.225],
    [33757,"urn:WaterMeter:MC0203J22010600005","2024-09-28T13:15:00",21.6,30.14733,0.232],
    [33758,"urn:WaterMeter:MC0203J22010600005","2024-09-28T13:30:00",21.7,30.096165,0.225],
    [33759,"urn:WaterMeter:MC0203J22010600005","2024-09-28T13:45:00",21.6,30.041431,0.227],
    [33760,"urn:WaterMeter:MC0203J22010600005","2024-09-28T14:00:00",21.6,30.017422,0.22],
    [33761,"urn:WaterMeter:MC0203J22010600005","2024-09-28T14:15:00",21.6,29.963852,0.221],
    [33762,"urn:WaterMeter:MC0203J22010600005","2024-09-28T14:30:00",21.7,29.915752,0.221],
    [33763,"urn:WaterMeter:MC0203J22010600005","2024-09-28T14:45:00",21.7,29.854504,0.221],
    [33764,"urn:WaterMeter:MC0203J22010600005","2024-09-28T15:00:00",21.799,29.81998,0.218],
    [33765,"urn:WaterMeter:MC0203J22010600005","2024-09-28T15:15:00",21.799,29.792051,0.224],
    [33766,"urn:WaterMeter:MC0203J22010600005","2024-09-28T15:30:00",21.799,29.720638,0.24],
    [33767,"urn:WaterMeter:MC0203J22010600005","2024-09-28T15:45:00",21.7,29.695463,0.225],
    [33768,"urn:WaterMeter:MC0203J22010600005","2024-09-28T16:00:00",21.6,29.686543,0.232],
    [33769,"urn:WaterMeter:MC0203J22010600005","2024-09-28T16:15:00",21.5,29.654308,0.226],
    [33770,"urn:WaterMeter:MC0203J22010600005","2024-09-28T16:30:00",21.399,29.634525,0.232],
    [33771,"urn:WaterMeter:MC0203J22010600005","2024-09-28T16:45:00",21.299,29.614006,0.225],
    [33772,"urn:WaterMeter:MC0203J22010600005","2024-09-28T17:00:00",21.2,29.57405,0.221],
    [33773,"urn:WaterMeter:MC0203J22010600005","2024-09-28T17:15:00",21.1,29.575953,0.226],
    [33774,"urn:WaterMeter:MC0203J22010600005","2024-09-28T17:30:00",21,29.53565,0.231],
    [33775,"urn:WaterMeter:MC0203J22010600005","2024-09-28T17:45:00",20.899,29.553493,0.237],
    [33776,"urn:WaterMeter:MC0203J22010600005","2024-09-28T18:00:00",20.7,29.593058,0.215],
    [33777,"urn:WaterMeter:MC0203J22010600005","2024-09-28T18:15:00",20.6,29.590343,0.227],
    [33778,"urn:WaterMeter:MC0203J22010600005","2024-09-28T18:30:00",20.6,29.539528,0.232],
    [33779,"urn:WaterMeter:MC0203J22010600005","2024-09-28T18:45:00",20.5,29.546473,0.237],
    [33780,"urn:WaterMeter:MC0203J22010600005","2024-09-28T19:00:00",20.399,29.574827,0.223],
    [33781,"urn:WaterMeter:MC0203J22010600005","2024-09-28T19:15:00",20.399,29.523624,0.236],
    [33782,"urn:WaterMeter:MC0203J22010600005","2024-09-28T19:30:00",20.299,29.536425,0.219],
    [33783,"urn:WaterMeter:MC0203J22010600005","2024-09-28T19:45:00",20.299,29.551165,0.235],
    [33784,"urn:WaterMeter:MC0203J22010600005","2024-09-28T20:00:00",20.299,29.511599,0.214],
    [33785,"urn:WaterMeter:MC0203J22010600005","2024-09-28T20:15:00",20.2,29.55194,0.215],
    [33786,"urn:WaterMeter:MC0203J22010600005","2024-09-28T20:30:00",20.1,29.51738,0.199],
    [33787,"urn:WaterMeter:MC0203J22010600005","2024-09-28T20:45:00",20,29.512764,0.225],
    [33788,"urn:WaterMeter:MC0203J22010600005","2024-09-28T21:00:00",20,29.55617,0.229],
    [33789,"urn:WaterMeter:MC0203J22010600005","2024-09-28T21:15:00",19.899,29.53371,0.218],
    [33790,"urn:WaterMeter:MC0203J22010600005","2024-09-28T21:30:00",19.899,29.553104,0.218],
    [33791,"urn:WaterMeter:MC0203J22010600005","2024-09-28T21:45:00",19.799,29.547636,0.219],
    [33792,"urn:WaterMeter:MC0203J22010600005","2024-09-28T22:00:00",19.7,29.527077,0.229],
    [33793,"urn:WaterMeter:MC0203J22010600005","2024-09-28T22:15:00",19.7,29.550777,0.219],
    [33794,"urn:WaterMeter:MC0203J22010600005","2024-09-28T22:30:00",19.6,29.521685,0.231],
    [33795,"urn:WaterMeter:MC0203J22010600005","2024-09-28T22:45:00",19.5,29.5244,0.226],
    [33796,"urn:WaterMeter:MC0203J22010600005","2024-09-28T23:00:00",19.399,29.487123,0.217],
    [33797,"urn:WaterMeter:MC0203J22010600005","2024-09-28T23:15:00",19.299,29.520134,0.215],
    [33798,"urn:WaterMeter:MC0203J22010600005","2024-09-28T23:30:00",19.299,29.514702,0.215],
    [33799,"urn:WaterMeter:MC0203J22010600005","2024-09-28T23:45:00",19.2,29.520134,0.225],
    [33800,"urn:WaterMeter:MC0203J22010600005","2024-09-29T00:00:00",19.1,29.543407,0.214],
    [33801,"urn:WaterMeter:MC0203J22010600005","2024-09-29T00:15:00",19.1,29.524788,0.217],
    [33802,"urn:WaterMeter:MC0203J22010600005","2024-09-29T00:30:00",19,29.506907,0.229],
    [33803,"urn:WaterMeter:MC0203J22010600005","2024-09-29T00:45:00",19,29.462725,0.225],
    [33804,"urn:WaterMeter:MC0203J22010600005","2024-09-29T01:00:00",18.899,29.539528,0.217],
    [33805,"urn:WaterMeter:MC0203J22010600005","2024-09-29T01:15:00",18.899,29.484835,0.224],
    [33806,"urn:WaterMeter:MC0203J22010600005","2024-09-29T01:30:00",18.799,29.496859,0.224],
    [33807,"urn:WaterMeter:MC0203J22010600005","2024-09-29T01:45:00",18.799,29.501902,0.217],
    [33808,"urn:WaterMeter:MC0203J22010600005","2024-09-29T02:00:00",18.7,29.478977,0.22],
    [33809,"urn:WaterMeter:MC0203J22010600005","2024-09-29T02:15:00",18.7,29.510824,0.22],
    [33810,"urn:WaterMeter:MC0203J22010600005","2024-09-29T02:30:00",18.7,29.513538,0.207],
    [33811,"urn:WaterMeter:MC0203J22010600005","2024-09-29T02:45:00",18.7,29.457682,0.211],
    [33812,"urn:WaterMeter:MC0203J22010600005","2024-09-29T03:00:00",18.7,29.424322,0.214],
    [33813,"urn:WaterMeter:MC0203J22010600005","2024-09-29T03:15:00",18.7,29.480568,0.224],
    [33814,"urn:WaterMeter:MC0203J22010600005","2024-09-29T03:30:00",18.6,29.472809,0.222],
    [33815,"urn:WaterMeter:MC0203J22010600005","2024-09-29T03:45:00",18.6,29.477076,0.224],
    [33816,"urn:WaterMeter:MC0203J22010600005","2024-09-29T04:00:00",18.5,29.452639,0.221],
    [33817,"urn:WaterMeter:MC0203J22010600005","2024-09-29T04:15:00",18.5,29.455742,0.217],
    [33818,"urn:WaterMeter:MC0203J22010600005","2024-09-29T04:30:00",18.5,29.462336,0.214],
    [33819,"urn:WaterMeter:MC0203J22010600005","2024-09-29T04:45:00",18.5,29.444881,0.221],
    [33820,"urn:WaterMeter:MC0203J22010600005","2024-09-29T05:00:00",18.399,29.461172,0.227],
    [33821,"urn:WaterMeter:MC0203J22010600005","2024-09-29T05:15:00",18.399,29.437899,0.228],
    [33822,"urn:WaterMeter:MC0203J22010600005","2024-09-29T05:30:00",18.399,29.452639,0.214],
    [33823,"urn:WaterMeter:MC0203J22010600005","2024-09-29T05:45:00",18.399,29.476688,0.21],
    [33824,"urn:WaterMeter:MC0203J22010600005","2024-09-29T06:00:00",18.299,29.455355,0.215],
    [33825,"urn:WaterMeter:MC0203J22010600005","2024-09-29T06:15:00",18.299,29.456518,0.214],
    [33826,"urn:WaterMeter:MC0203J22010600005","2024-09-29T06:30:00",18.299,29.385143,0.217],
    [33827,"urn:WaterMeter:MC0203J22010600005","2024-09-29T06:45:00",18.299,29.408419,0.211],
    [33828,"urn:WaterMeter:MC0203J22010600005","2024-09-29T07:00:00",18.299,29.373896,0.222],
    [33829,"urn:WaterMeter:MC0203J22010600005","2024-09-29T07:15:00",18.299,29.382778,0.216],
    [33830,"urn:WaterMeter:MC0203J22010600005","2024-09-29T07:30:00",18.299,29.403763,0.216],
    [33831,"urn:WaterMeter:MC0203J22010600005","2024-09-29T07:45:00",18.399,29.346354,0.225],
    [33832,"urn:WaterMeter:MC0203J22010600005","2024-09-29T08:00:00",18.5,29.32657,0.238],
    [33833,"urn:WaterMeter:MC0203J22010600005","2024-09-29T08:15:00",18.5,29.307953,0.225],
    [33834,"urn:WaterMeter:MC0203J22010600005","2024-09-29T08:30:00",18.7,29.304033,0.215],
    [33835,"urn:WaterMeter:MC0203J22010600005","2024-09-29T08:45:00",18.799,29.257524,0.22],
    [33836,"urn:WaterMeter:MC0203J22010600005","2024-09-29T09:00:00",18.899,29.226105,0.208],
    [33837,"urn:WaterMeter:MC0203J22010600005","2024-09-29T09:15:00",19.1,29.209814,0.218],
    [33838,"urn:WaterMeter:MC0203J22010600005","2024-09-29T09:30:00",19.399,29.173351,0.216],
    [33839,"urn:WaterMeter:MC0203J22010600005","2024-09-29T09:45:00",19.5,29.10702,0.211],
    [33840,"urn:WaterMeter:MC0203J22010600005","2024-09-29T10:00:00",19.7,29.05698,0.212],
    [33841,"urn:WaterMeter:MC0203J22010600005","2024-09-29T10:15:00",19.799,29.039137,0.224],
    [33842,"urn:WaterMeter:MC0203J22010600005","2024-09-29T10:30:00",20,28.9922,0.203],
    [33843,"urn:WaterMeter:MC0203J22010600005","2024-09-29T10:45:00",20.1,28.914621,0.201],
    [33844,"urn:WaterMeter:MC0203J22010600005","2024-09-29T11:00:00",20.299,28.83002,0.204],
    [33845,"urn:WaterMeter:MC0203J22010600005","2024-09-29T11:15:00",20.5,28.79321,0.209],
    [33846,"urn:WaterMeter:MC0203J22010600005","2024-09-29T11:30:00",20.6,28.771835,0.226],
    [33847,"urn:WaterMeter:MC0203J22010600005","2024-09-29T11:45:00",20.899,28.70787,0.201],
    [33848,"urn:WaterMeter:MC0203J22010600005","2024-09-29T12:00:00",21.2,28.648134,0.207],
    [33849,"urn:WaterMeter:MC0203J22010600005","2024-09-29T12:15:00",21.399,28.591112,0.22],
    [33850,"urn:WaterMeter:MC0203J22010600005","2024-09-29T12:30:00",21.5,28.485603,0.202],
    [33851,"urn:WaterMeter:MC0203J22010600005","2024-09-29T12:45:00",21.6,28.46815,0.205],
    [33852,"urn:WaterMeter:MC0203J22010600005","2024-09-29T13:00:00",21.7,28.376991,0.216],
    [33853,"urn:WaterMeter:MC0203J22010600005","2024-09-29T13:15:00",21.799,28.306744,0.195],
    [33854,"urn:WaterMeter:MC0203J22010600005","2024-09-29T13:30:00",21.899,28.234245,0.212],
    [33855,"urn:WaterMeter:MC0203J22010600005","2024-09-29T13:45:00",21.899,28.207441,0.225],
    [33856,"urn:WaterMeter:MC0203J22010600005","2024-09-29T14:00:00",22,28.17218,0.2],
    [33857,"urn:WaterMeter:MC0203J22010600005","2024-09-29T14:15:00",22,28.07284,0.21],
    [33858,"urn:WaterMeter:MC0203J22010600005","2024-09-29T14:30:00",21.899,28.055424,0.207],
    [33859,"urn:WaterMeter:MC0203J22010600005","2024-09-29T14:45:00",21.899,27.939829,0.211],
    [33860,"urn:WaterMeter:MC0203J22010600005","2024-09-29T15:00:00",22,27.948362,0.197],
    [33861,"urn:WaterMeter:MC0203J22010600005","2024-09-29T15:15:00",22,27.895609,0.2],
    [33862,"urn:WaterMeter:MC0203J22010600005","2024-09-29T15:30:00",22,27.862637,0.201],
    [33863,"urn:WaterMeter:MC0203J22010600005","2024-09-29T15:45:00",22,27.811396,0.201],
    [33864,"urn:WaterMeter:MC0203J22010600005","2024-09-29T16:00:00",21.899,27.830013,0.206],
    [33865,"urn:WaterMeter:MC0203J22010600005","2024-09-29T16:15:00",21.899,27.77691,0.192],
    [33866,"urn:WaterMeter:MC0203J22010600005","2024-09-29T16:30:00",21.799,27.75321,0.214],
    [33867,"urn:WaterMeter:MC0203J22010600005","2024-09-29T16:45:00",21.799,27.730751,0.209],
    [33868,"urn:WaterMeter:MC0203J22010600005","2024-09-29T17:00:00",21.7,27.702007,0.193],
    [33869,"urn:WaterMeter:MC0203J22010600005","2024-09-29T17:15:00",21.7,27.727648,0.199],
    [33870,"urn:WaterMeter:MC0203J22010600005","2024-09-29T17:30:00",21.6,27.683388,0.196],
    [33871,"urn:WaterMeter:MC0203J22010600005","2024-09-29T17:45:00",21.6,27.691572,0.199],
    [33872,"urn:WaterMeter:MC0203J22010600005","2024-09-29T18:00:00",21.5,27.699718,0.195],
    [33873,"urn:WaterMeter:MC0203J22010600005","2024-09-29T18:15:00",21.399,27.709415,0.195],
    [33874,"urn:WaterMeter:MC0203J22010600005","2024-09-29T18:30:00",21.399,27.688082,0.213],
    [33875,"urn:WaterMeter:MC0203J22010600005","2024-09-29T18:45:00",21.299,27.712908,0.203],
    [33876,"urn:WaterMeter:MC0203J22010600005","2024-09-29T19:00:00",21.2,27.648129,0.2],
    [33877,"urn:WaterMeter:MC0203J22010600005","2024-09-29T19:15:00",21.2,27.724894,0.192],
    [33878,"urn:WaterMeter:MC0203J22010600005","2024-09-29T19:30:00",21.1,27.651232,0.197],
    [33879,"urn:WaterMeter:MC0203J22010600005","2024-09-29T19:45:00",21,27.660152,0.203],
    [33880,"urn:WaterMeter:MC0203J22010600005","2024-09-29T20:00:00",21,27.697002,0.198],
    [33881,"urn:WaterMeter:MC0203J22010600005","2024-09-29T20:15:00",20.899,27.667522,0.198],
    [33882,"urn:WaterMeter:MC0203J22010600005","2024-09-29T20:30:00",20.799,27.676405,0.196],
    [33883,"urn:WaterMeter:MC0203J22010600005","2024-09-29T20:45:00",20.7,27.710579,0.198],
    [33884,"urn:WaterMeter:MC0203J22010600005","2024-09-29T21:00:00",20.7,27.71442,0.2],
    [33885,"urn:WaterMeter:MC0203J22010600005","2024-09-29T21:15:00",20.6,27.713295,0.195],
    [33886,"urn:WaterMeter:MC0203J22010600005","2024-09-29T21:30:00",20.5,27.717562,0.201],
    [33887,"urn:WaterMeter:MC0203J22010600005","2024-09-29T21:45:00",20.399,27.743124,0.194],
    [33888,"urn:WaterMeter:MC0203J22010600005","2024-09-29T22:00:00",20.399,27.716398,0.201],
    [33889,"urn:WaterMeter:MC0203J22010600005","2024-09-29T22:15:00",20.299,27.721052,0.195],
    [33890,"urn:WaterMeter:MC0203J22010600005","2024-09-29T22:30:00",20.2,27.719501,0.207],
    [33891,"urn:WaterMeter:MC0203J22010600005","2024-09-29T22:45:00",20.1,27.737732,0.192],
    [33892,"urn:WaterMeter:MC0203J22010600005","2024-09-29T23:00:00",20,27.715622,0.21],
    [33893,"urn:WaterMeter:MC0203J22010600005","2024-09-29T23:15:00",19.899,27.75674,0.2],
    [33894,"urn:WaterMeter:MC0203J22010600005","2024-09-29T23:30:00",19.899,27.746267,0.206],
    [33895,"urn:WaterMeter:MC0203J22010600005","2024-09-29T23:45:00",19.799,27.718725,0.209],
    [33896,"urn:WaterMeter:MC0203J22010600005","2024-09-30T00:00:00",19.7,27.716011,0.206],
    [33897,"urn:WaterMeter:MC0203J22010600005","2024-09-30T00:15:00",19.6,27.704723,0.206],
    [33898,"urn:WaterMeter:MC0203J22010600005","2024-09-30T00:30:00",19.6,27.759844,0.197],
    [33899,"urn:WaterMeter:MC0203J22010600005","2024-09-30T00:45:00",19.5,27.710579,0.204],
    [33900,"urn:WaterMeter:MC0203J22010600005","2024-09-30T01:00:00",19.399,27.701271,0.199],
    [33901,"urn:WaterMeter:MC0203J22010600005","2024-09-30T01:15:00",19.299,27.688858,0.209],
    [33902,"urn:WaterMeter:MC0203J22010600005","2024-09-30T01:30:00",19.299,27.743513,0.205],
    [33903,"urn:WaterMeter:MC0203J22010600005","2024-09-30T01:45:00",19.2,27.729588,0.202],
    [33904,"urn:WaterMeter:MC0203J22010600005","2024-09-30T02:00:00",19.1,27.750534,0.206],
    [33905,"urn:WaterMeter:MC0203J22010600005","2024-09-30T02:15:00",19.1,27.712519,0.209],
    [33906,"urn:WaterMeter:MC0203J22010600005","2024-09-30T02:30:00",19,27.712132,0.193],
    [33907,"urn:WaterMeter:MC0203J22010600005","2024-09-30T02:45:00",18.899,27.731527,0.193],
    [33908,"urn:WaterMeter:MC0203J22010600005","2024-09-30T03:00:00",18.799,27.711744,0.194],
    [33909,"urn:WaterMeter:MC0203J22010600005","2024-09-30T03:15:00",18.799,27.731527,0.198],
    [33910,"urn:WaterMeter:MC0203J22010600005","2024-09-30T03:30:00",18.7,27.776524,0.204],
    [33911,"urn:WaterMeter:MC0203J22010600005","2024-09-30T03:45:00",18.6,27.750145,0.204],
    [33912,"urn:WaterMeter:MC0203J22010600005","2024-09-30T04:00:00",18.6,27.76954,0.203],
    [33913,"urn:WaterMeter:MC0203J22010600005","2024-09-30T04:15:00",18.5,27.72373,0.201],
    [33914,"urn:WaterMeter:MC0203J22010600005","2024-09-30T04:30:00",18.399,27.705925,0.207],
    [33915,"urn:WaterMeter:MC0203J22010600005","2024-09-30T04:45:00",18.399,27.753986,0.206],
    [33916,"urn:WaterMeter:MC0203J22010600005","2024-09-30T05:00:00",18.299,27.788548,0.202],
    [33917,"urn:WaterMeter:MC0203J22010600005","2024-09-30T05:15:00",18.399,27.734203,0.197],
    [33918,"urn:WaterMeter:MC0203J22010600005","2024-09-30T05:30:00",18.6,27.740797,0.191],
    [33919,"urn:WaterMeter:MC0203J22010600005","2024-09-30T05:45:00",18.6,27.757128,0.19],
    [33920,"urn:WaterMeter:MC0203J22010600005","2024-09-30T06:00:00",18.6,27.705925,0.191],
    [33921,"urn:WaterMeter:MC0203J22010600005","2024-09-30T06:15:00",18.6,27.848284,0.194],
    [33922,"urn:WaterMeter:MC0203J22010600005","2024-09-30T06:30:00",18.6,28.374626,0.213],
    [33923,"urn:WaterMeter:MC0203J22010600005","2024-09-30T06:45:00",18.6,29.680298,0.23],
    [33924,"urn:WaterMeter:MC0203J22010600005","2024-09-30T07:00:00",18.7,30.861492,0.252],
    [33925,"urn:WaterMeter:MC0203J22010600005","2024-09-30T07:15:00",18.799,31.819216,0.25],
    [33926,"urn:WaterMeter:MC0203J22010600005","2024-09-30T07:30:00",18.899,32.61088,0.265],
    [33927,"urn:WaterMeter:MC0203J22010600005","2024-09-30T07:45:00",19,33.082996,0.263],
    [33928,"urn:WaterMeter:MC0203J22010600005","2024-09-30T08:00:00",19.2,33.380127,0.283],
    [33929,"urn:WaterMeter:MC0203J22010600005","2024-09-30T08:15:00",19.2,33.20596,0.261],
    [33930,"urn:WaterMeter:MC0203J22010600005","2024-09-30T08:30:00",19.299,33.00619,0.256],
    [33931,"urn:WaterMeter:MC0203J22010600005","2024-09-30T08:45:00",19.399,32.807198,0.269],
    [33932,"urn:WaterMeter:MC0203J22010600005","2024-09-30T09:00:00",19.5,32.767204,0.254],
    [33933,"urn:WaterMeter:MC0203J22010600005","2024-09-30T09:15:00",19.6,32.669456,0.278],
    [33934,"urn:WaterMeter:MC0203J22010600005","2024-09-30T09:30:00",19.799,32.634193,0.27],
    [33935,"urn:WaterMeter:MC0203J22010600005","2024-09-30T09:45:00",20,32.521317,0.269],
    [33936,"urn:WaterMeter:MC0203J22010600005","2024-09-30T10:00:00",20.1,32.47981,0.238],
    [33937,"urn:WaterMeter:MC0203J22010600005","2024-09-30T10:15:00",20.2,32.437103,0.251],
    [33938,"urn:WaterMeter:MC0203J22010600005","2024-09-30T10:30:00",20.399,32.366543,0.253],
    [33939,"urn:WaterMeter:MC0203J22010600005","2024-09-30T10:45:00",20.6,32.31767,0.247],
    [33940,"urn:WaterMeter:MC0203J22010600005","2024-09-30T11:00:00",20.7,32.2172,0.268],
    [33941,"urn:WaterMeter:MC0203J22010600005","2024-09-30T11:15:00",20.899,32.157467,0.261],
    [33942,"urn:WaterMeter:MC0203J22010600005","2024-09-30T11:30:00",21.1,32.143463,0.254],
    [33943,"urn:WaterMeter:MC0203J22010600005","2024-09-30T11:45:00",21.399,32.077908,0.262],
    [33944,"urn:WaterMeter:MC0203J22010600005","2024-09-30T12:00:00",21.7,32.048813,0.27],
    [33945,"urn:WaterMeter:MC0203J22010600005","2024-09-30T12:15:00",21.899,31.95537,0.243],
    [33946,"urn:WaterMeter:MC0203J22010600005","2024-09-30T12:30:00",21.899,31.90921,0.248],
    [33947,"urn:WaterMeter:MC0203J22010600005","2024-09-30T12:45:00",21.899,31.833141,0.265],
    [33948,"urn:WaterMeter:MC0203J22010600005","2024-09-30T13:00:00",22,31.808743,0.246],
    [33949,"urn:WaterMeter:MC0203J22010600005","2024-09-30T13:15:00",22,31.738106,0.272],
    [33950,"urn:WaterMeter:MC0203J22010600005","2024-09-30T13:30:00",22.1,31.716772,0.264],
    [33951,"urn:WaterMeter:MC0203J22010600005","2024-09-30T13:45:00",22.2,31.629534,0.247],
    [33952,"urn:WaterMeter:MC0203J22010600005","2024-09-30T14:00:00",22.2,31.581783,0.247],
    [33953,"urn:WaterMeter:MC0203J22010600005","2024-09-30T14:15:00",22.2,31.570572,0.245],
    [33954,"urn:WaterMeter:MC0203J22010600005","2024-09-30T14:30:00",22.2,31.547298,0.244],
    [33955,"urn:WaterMeter:MC0203J22010600005","2024-09-30T14:45:00",22.299,31.50269,0.251],
    [33956,"urn:WaterMeter:MC0203J22010600005","2024-09-30T15:00:00",22.299,31.42162,0.243],
    [33957,"urn:WaterMeter:MC0203J22010600005","2024-09-30T15:15:00",22.299,31.399858,0.247],
    [33958,"urn:WaterMeter:MC0203J22010600005","2024-09-30T15:30:00",22.299,31.348267,0.245],
    [33959,"urn:WaterMeter:MC0203J22010600005","2024-09-30T15:45:00",22.299,31.276932,0.247],
    [33960,"urn:WaterMeter:MC0203J22010600005","2024-09-30T16:00:00",22.299,31.291246,0.257],
    [33961,"urn:WaterMeter:MC0203J22010600005","2024-09-30T16:15:00",22.299,31.269175,0.242],
    [33962,"urn:WaterMeter:MC0203J22010600005","2024-09-30T16:30:00",22.2,31.235388,0.251],
    [33963,"urn:WaterMeter:MC0203J22010600005","2024-09-30T16:45:00",22.2,31.239305,0.24],
    [33964,"urn:WaterMeter:MC0203J22010600005","2024-09-30T17:00:00",22.1,31.238531,0.241],
    [33965,"urn:WaterMeter:MC0203J22010600005","2024-09-30T17:15:00",22.1,31.185738,0.239],
    [33966,"urn:WaterMeter:MC0203J22010600005","2024-09-30T17:30:00",22,31.175264,0.24],
    [33967,"urn:WaterMeter:MC0203J22010600005","2024-09-30T17:45:00",21.899,31.198576,0.242],
    [33968,"urn:WaterMeter:MC0203J22010600005","2024-09-30T18:00:00",21.799,31.19237,0.254],
    [33969,"urn:WaterMeter:MC0203J22010600005","2024-09-30T18:15:00",21.7,31.184612,0.238],
    [33970,"urn:WaterMeter:MC0203J22010600005","2024-09-30T18:30:00",21.7,31.136475,0.24],
    [33971,"urn:WaterMeter:MC0203J22010600005","2024-09-30T18:45:00",21.6,31.185738,0.238],
    [33972,"urn:WaterMeter:MC0203J22010600005","2024-09-30T19:00:00",21.5,31.10005,0.248],
    [33973,"urn:WaterMeter:MC0203J22010600005","2024-09-30T19:15:00",21.399,31.083757,0.25],
    [33974,"urn:WaterMeter:MC0203J22010600005","2024-09-30T19:30:00",21.299,31.12216,0.255],
    [33975,"urn:WaterMeter:MC0203J22010600005","2024-09-30T19:45:00",21.299,31.116692,0.237],
    [33976,"urn:WaterMeter:MC0203J22010600005","2024-09-30T20:00:00",21.2,31.09423,0.253],
    [33977,"urn:WaterMeter:MC0203J22010600005","2024-09-30T20:15:00",21.1,31.100437,0.247],
    [33978,"urn:WaterMeter:MC0203J22010600005","2024-09-30T20:30:00",21,31.10199,0.244],
    [33979,"urn:WaterMeter:MC0203J22010600005","2024-09-30T20:45:00",21,31.128328,0.243],
    [33980,"urn:WaterMeter:MC0203J22010600005","2024-09-30T21:00:00",20.899,31.102377,0.255],
    [33981,"urn:WaterMeter:MC0203J22010600005","2024-09-30T21:15:00",20.799,31.084146,0.244],
    [33982,"urn:WaterMeter:MC0203J22010600005","2024-09-30T21:30:00",20.7,31.09462,0.235],
    [33983,"urn:WaterMeter:MC0203J22010600005","2024-09-30T21:45:00",20.7,31.090353,0.239],
    [33984,"urn:WaterMeter:MC0203J22010600005","2024-09-30T22:00:00",20.6,31.1016,0.265],
    [33985,"urn:WaterMeter:MC0203J22010600005","2024-09-30T22:15:00",20.5,31.102766,0.248],
    [33986,"urn:WaterMeter:MC0203J22010600005","2024-09-30T22:30:00",20.299,31.07212,0.243],
    [33987,"urn:WaterMeter:MC0203J22010600005","2024-09-30T22:45:00",20.299,31.11091,0.242],
    [33988,"urn:WaterMeter:MC0203J22010600005","2024-09-30T23:00:00",20.2,31.091516,0.251],
    [33989,"urn:WaterMeter:MC0203J22010600005","2024-09-30T23:15:00",20.1,31.081043,0.254],
    [33990,"urn:WaterMeter:MC0203J22010600005","2024-09-30T23:30:00",20,31.095783,0.258],
    [33991,"urn:WaterMeter:MC0203J22010600005","2024-09-30T23:45:00",19.899,31.087637,0.239],
    [33992,"urn:WaterMeter:MC0203J22010600005","2024-10-01T00:00:00",19.799,31.085697,0.236],
    [33993,"urn:WaterMeter:MC0203J22010600005","2024-10-01T00:15:00",19.799,31.053501,0.253],
    [33994,"urn:WaterMeter:MC0203J22010600005","2024-10-01T00:30:00",19.7,31.070143,0.253],
    [33995,"urn:WaterMeter:MC0203J22010600005","2024-10-01T00:45:00",19.6,31.09846,0.248],
    [33996,"urn:WaterMeter:MC0203J22010600005","2024-10-01T01:00:00",19.6,31.034883,0.255],
    [33997,"urn:WaterMeter:MC0203J22010600005","2024-10-01T01:15:00",19.5,31.050749,0.241],
    [33998,"urn:WaterMeter:MC0203J22010600005","2024-10-01T01:30:00",19.399,31.045744,0.235],
    [33999,"urn:WaterMeter:MC0203J22010600005","2024-10-01T01:45:00",19.299,31.092293,0.241],
    [34000,"urn:WaterMeter:MC0203J22010600005","2024-10-01T02:00:00",19.299,31.08337,0.253],
    [34001,"urn:WaterMeter:MC0203J22010600005","2024-10-01T02:15:00",19.2,31.082983,0.239],
    [34002,"urn:WaterMeter:MC0203J22010600005","2024-10-01T02:30:00",19.2,31.029064,0.24],
    [34003,"urn:WaterMeter:MC0203J22010600005","2024-10-01T02:45:00",19.1,31.090353,0.238],
    [34004,"urn:WaterMeter:MC0203J22010600005","2024-10-01T03:00:00",19,31.083757,0.247],
    [34005,"urn:WaterMeter:MC0203J22010600005","2024-10-01T03:15:00",19,31.069756,0.247],
    [34006,"urn:WaterMeter:MC0203J22010600005","2024-10-01T03:30:00",18.899,31.060446,0.235],
    [34007,"urn:WaterMeter:MC0203J22010600005","2024-10-01T03:45:00",18.799,31.01316,0.24],
    [34008,"urn:WaterMeter:MC0203J22010600005","2024-10-01T04:00:00",18.799,31.04105,0.237],
    [34009,"urn:WaterMeter:MC0203J22010600005","2024-10-01T04:15:00",18.7,31.034883,0.236],
    [34010,"urn:WaterMeter:MC0203J22010600005","2024-10-01T04:30:00",18.7,31.050749,0.237],
    [34011,"urn:WaterMeter:MC0203J22010600005","2024-10-01T04:45:00",18.6,31.053501,0.233],
    [34012,"urn:WaterMeter:MC0203J22010600005","2024-10-01T05:00:00",18.5,31.049973,0.236],
    [34013,"urn:WaterMeter:MC0203J22010600005","2024-10-01T05:15:00",18.7,31.02247,0.235],
    [34014,"urn:WaterMeter:MC0203J22010600005","2024-10-01T05:30:00",18.799,31.117855,0.232],
    [34015,"urn:WaterMeter:MC0203J22010600005","2024-10-01T05:45:00",18.799,31.476662,0.244],
    [34016,"urn:WaterMeter:MC0203J22010600005","2024-10-01T06:00:00",18.799,32.141174,0.268],
    [34017,"urn:WaterMeter:MC0203J22010600005","2024-10-01T06:15:00",18.799,32.96391,0.285],
    [34018,"urn:WaterMeter:MC0203J22010600005","2024-10-01T06:30:00",18.799,33.468567,0.267],
    [34019,"urn:WaterMeter:MC0203J22010600005","2024-10-01T06:45:00",18.799,33.839012,0.279],
    [34020,"urn:WaterMeter:MC0203J22010600005","2024-10-01T07:00:00",18.899,34.15356,0.28],
    [34021,"urn:WaterMeter:MC0203J22010600005","2024-10-01T07:15:00",18.899,34.38828,0.287],
    [34022,"urn:WaterMeter:MC0203J22010600005","2024-10-01T07:30:00",19,34.525208,0.299],
    [34023,"urn:WaterMeter:MC0203J22010600005","2024-10-01T07:45:00",19.1,34.672222,0.292],
    [34024,"urn:WaterMeter:MC0203J22010600005","2024-10-01T08:00:00",19.2,34.754807,0.299],
    [34025,"urn:WaterMeter:MC0203J22010600005","2024-10-01T08:15:00",19.299,34.444485,0.274],
    [34026,"urn:WaterMeter:MC0203J22010600005","2024-10-01T08:30:00",19.299,33.970085,0.283],
    [34027,"urn:WaterMeter:MC0203J22010600005","2024-10-01T08:45:00",19.399,33.830826,0.276],
    [34028,"urn:WaterMeter:MC0203J22010600005","2024-10-01T09:00:00",19.6,33.691223,0.284],
    [34029,"urn:WaterMeter:MC0203J22010600005","2024-10-01T09:15:00",19.7,33.54223,0.269],
    [34030,"urn:WaterMeter:MC0203J22010600005","2024-10-01T09:30:00",19.799,33.33319,0.283],
    [34031,"urn:WaterMeter:MC0203J22010600005","2024-10-01T09:45:00",20,33.21174,0.295],
    [34032,"urn:WaterMeter:MC0203J22010600005","2024-10-01T10:00:00",20.1,33.215267,0.264],
    [34033,"urn:WaterMeter:MC0203J22010600005","2024-10-01T10:15:00",20.2,33.154716,0.264],
    [34034,"urn:WaterMeter:MC0203J22010600005","2024-10-01T10:30:00",20.399,33.005802,0.265],
    [34035,"urn:WaterMeter:MC0203J22010600005","2024-10-01T10:45:00",20.5,32.921204,0.257],
    [34036,"urn:WaterMeter:MC0203J22010600005","2024-10-01T11:00:00",20.7,32.855297,0.265],
    [34037,"urn:WaterMeter:MC0203J22010600005","2024-10-01T11:15:00",20.899,32.858788,0.276],
    [34038,"urn:WaterMeter:MC0203J22010600005","2024-10-01T11:30:00",21.1,32.71643,0.258],
    [34039,"urn:WaterMeter:MC0203J22010600005","2024-10-01T11:45:00",21.399,32.680317,0.266],
    [34040,"urn:WaterMeter:MC0203J22010600005","2024-10-01T12:00:00",21.7,32.58334,0.259],
    [34041,"urn:WaterMeter:MC0203J22010600005","2024-10-01T12:15:00",21.899,32.567474,0.271],
    [34042,"urn:WaterMeter:MC0203J22010600005","2024-10-01T12:30:00",22.1,32.483303,0.267],
    [34043,"urn:WaterMeter:MC0203J22010600005","2024-10-01T12:45:00",22.2,32.392143,0.256],
    [34044,"urn:WaterMeter:MC0203J22010600005","2024-10-01T13:00:00",22.299,32.27345,0.282],
    [34045,"urn:WaterMeter:MC0203J22010600005","2024-10-01T13:15:00",22.399,32.27694,0.273],
    [34046,"urn:WaterMeter:MC0203J22010600005","2024-10-01T13:30:00",22.5,32.159016,0.253],
    [34047,"urn:WaterMeter:MC0203J22010600005","2024-10-01T13:45:00",22.6,32.091133,0.266],
    [34048,"urn:WaterMeter:MC0203J22010600005","2024-10-01T14:00:00",22.7,32.06627,0.254],
    [34049,"urn:WaterMeter:MC0203J22010600005","2024-10-01T14:15:00",22.7,32.00463,0.259],
    [34050,"urn:WaterMeter:MC0203J22010600005","2024-10-01T14:30:00",22.799,31.944508,0.259],
    [34051,"urn:WaterMeter:MC0203J22010600005","2024-10-01T14:45:00",22.899,31.90374,0.248],
    [34052,"urn:WaterMeter:MC0203J22010600005","2024-10-01T15:00:00",23,31.826937,0.281],
    [34053,"urn:WaterMeter:MC0203J22010600005","2024-10-01T15:15:00",23,31.789349,0.246],
    [34054,"urn:WaterMeter:MC0203J22010600005","2024-10-01T15:30:00",23,31.799822,0.252],
    [34055,"urn:WaterMeter:MC0203J22010600005","2024-10-01T15:45:00",22.899,31.71716,0.263],
    [34056,"urn:WaterMeter:MC0203J22010600005","2024-10-01T16:00:00",22.899,31.686943,0.25],
    [34057,"urn:WaterMeter:MC0203J22010600005","2024-10-01T16:15:00",22.899,31.672977,0.262],
    [34058,"urn:WaterMeter:MC0203J22010600005","2024-10-01T16:30:00",22.899,31.630697,0.252],
    [34059,"urn:WaterMeter:MC0203J22010600005","2024-10-01T16:45:00",22.899,31.598501,0.253],
    [34060,"urn:WaterMeter:MC0203J22010600005","2024-10-01T17:00:00",22.799,31.577555,0.268],
    [34061,"urn:WaterMeter:MC0203J22010600005","2024-10-01T17:15:00",22.799,31.58411,0.262],
    [34062,"urn:WaterMeter:MC0203J22010600005","2024-10-01T17:30:00",22.799,31.566305,0.261],
    [34063,"urn:WaterMeter:MC0203J22010600005","2024-10-01T17:45:00",22.7,31.511612,0.256],
    [34064,"urn:WaterMeter:MC0203J22010600005","2024-10-01T18:00:00",22.7,31.562387,0.25],
    [34065,"urn:WaterMeter:MC0203J22010600005","2024-10-01T18:15:00",22.6,31.517042,0.248],
    [34066,"urn:WaterMeter:MC0203J22010600005","2024-10-01T18:30:00",22.6,31.494156,0.25],
    [34067,"urn:WaterMeter:MC0203J22010600005","2024-10-01T18:45:00",22.5,31.511225,0.252],
    [34068,"urn:WaterMeter:MC0203J22010600005","2024-10-01T19:00:00",22.399,31.480968,0.256],
    [34069,"urn:WaterMeter:MC0203J22010600005","2024-10-01T19:15:00",22.299,31.487524,0.267],
    [34070,"urn:WaterMeter:MC0203J22010600005","2024-10-01T19:30:00",22.299,31.48989,0.248],
    [34071,"urn:WaterMeter:MC0203J22010600005","2024-10-01T19:45:00",22.2,31.497648,0.267],
    [34072,"urn:WaterMeter:MC0203J22010600005","2024-10-01T20:00:00",22.1,31.42123,0.261],
    [34073,"urn:WaterMeter:MC0203J22010600005","2024-10-01T20:15:00",22,31.508121,0.255],
    [34074,"urn:WaterMeter:MC0203J22010600005","2024-10-01T20:30:00",21.899,31.473986,0.253],
    [34075,"urn:WaterMeter:MC0203J22010600005","2024-10-01T20:45:00",21.799,31.409943,0.259],
    [34076,"urn:WaterMeter:MC0203J22010600005","2024-10-01T21:00:00",21.7,31.440239,0.248],
    [34077,"urn:WaterMeter:MC0203J22010600005","2024-10-01T21:15:00",21.6,31.460796,0.251],
    [34078,"urn:WaterMeter:MC0203J22010600005","2024-10-01T21:30:00",21.5,31.460796,0.27],
    [34079,"urn:WaterMeter:MC0203J22010600005","2024-10-01T21:45:00",21.399,31.407616,0.258],
    [34080,"urn:WaterMeter:MC0203J22010600005","2024-10-01T22:00:00",21.2,31.427011,0.247],
    [34081,"urn:WaterMeter:MC0203J22010600005","2024-10-01T22:15:00",21.1,31.437136,0.266],
    [34082,"urn:WaterMeter:MC0203J22010600005","2024-10-01T22:30:00",21,31.427399,0.252],
    [34083,"urn:WaterMeter:MC0203J22010600005","2024-10-01T22:45:00",21,31.381277,0.254],
    [34084,"urn:WaterMeter:MC0203J22010600005","2024-10-01T23:00:00",20.799,31.41386,0.254],
    [34085,"urn:WaterMeter:MC0203J22010600005","2024-10-01T23:15:00",20.7,31.42162,0.255],
    [34086,"urn:WaterMeter:MC0203J22010600005","2024-10-01T23:30:00",20.6,31.389385,0.246],
    [34087,"urn:WaterMeter:MC0203J22010600005","2024-10-01T23:45:00",20.5,31.423946,0.273],
    [34088,"urn:WaterMeter:MC0203J22010600005","2024-10-02T00:00:00",20.5,31.447182,0.258],
    [34089,"urn:WaterMeter:MC0203J22010600005","2024-10-02T00:15:00",20.399,31.402613,0.242],
    [34090,"urn:WaterMeter:MC0203J22010600005","2024-10-02T00:30:00",20.299,31.404163,0.255],
    [34091,"urn:WaterMeter:MC0203J22010600005","2024-10-02T00:45:00",20.1,31.40455,0.251],
    [34092,"urn:WaterMeter:MC0203J22010600005","2024-10-02T01:00:00",20,31.368826,0.246],
    [34093,"urn:WaterMeter:MC0203J22010600005","2024-10-02T01:15:00",20,31.422007,0.274],
    [34094,"urn:WaterMeter:MC0203J22010600005","2024-10-02T01:30:00",19.899,31.411146,0.252],
    [34095,"urn:WaterMeter:MC0203J22010600005","2024-10-02T01:45:00",19.799,31.408392,0.248],
    [34096,"urn:WaterMeter:MC0203J22010600005","2024-10-02T02:00:00",19.7,31.41231,0.262],
    [34097,"urn:WaterMeter:MC0203J22010600005","2024-10-02T02:15:00",19.6,31.39718,0.25],
    [34098,"urn:WaterMeter:MC0203J22010600005","2024-10-02T02:30:00",19.5,31.400246,0.25],
    [34099,"urn:WaterMeter:MC0203J22010600005","2024-10-02T02:45:00",19.399,31.41619,0.244],
    [34100,"urn:WaterMeter:MC0203J22010600005","2024-10-02T03:00:00",19.299,31.36227,0.251],
    [34101,"urn:WaterMeter:MC0203J22010600005","2024-10-02T03:15:00",19.299,31.3793,0.243],
    [34102,"urn:WaterMeter:MC0203J22010600005","2024-10-02T03:30:00",19.299,31.324257,0.25],
    [34103,"urn:WaterMeter:MC0203J22010600005","2024-10-02T03:45:00",19.2,31.328873,0.249],
    [34104,"urn:WaterMeter:MC0203J22010600005","2024-10-02T04:00:00",19.1,31.334341,0.241],
    [34105,"urn:WaterMeter:MC0203J22010600005","2024-10-02T04:15:00",19.1,31.388996,0.253],
    [34106,"urn:WaterMeter:MC0203J22010600005","2024-10-02T04:30:00",19,31.361456,0.264],
    [34107,"urn:WaterMeter:MC0203J22010600005","2024-10-02T04:45:00",18.899,31.326971,0.255],
    [34108,"urn:WaterMeter:MC0203J22010600005","2024-10-02T05:00:00",18.899,31.339384,0.26],
    [34109,"urn:WaterMeter:MC0203J22010600005","2024-10-02T05:15:00",19,31.305637,0.252],
    [34110,"urn:WaterMeter:MC0203J22010600005","2024-10-02T05:30:00",19.1,31.450323,0.258],
    [34111,"urn:WaterMeter:MC0203J22010600005","2024-10-02T05:45:00",19.1,31.830465,0.25],
    [34112,"urn:WaterMeter:MC0203J22010600005","2024-10-02T06:00:00",19.2,32.579887,0.284],
    [34113,"urn:WaterMeter:MC0203J22010600005","2024-10-02T06:15:00",19.2,33.296726,0.281],
    [34114,"urn:WaterMeter:MC0203J22010600005","2024-10-02T06:30:00",19.2,33.761044,0.276],
    [34115,"urn:WaterMeter:MC0203J22010600005","2024-10-02T06:45:00",19.2,34.058952,0.308],
    [34116,"urn:WaterMeter:MC0203J22010600005","2024-10-02T07:00:00",19.299,34.271908,0.301],
    [34117,"urn:WaterMeter:MC0203J22010600005","2024-10-02T07:15:00",19.299,34.49336,0.29],
    [34118,"urn:WaterMeter:MC0203J22010600005","2024-10-02T07:30:00",19.399,34.565548,0.291],
    [34119,"urn:WaterMeter:MC0203J22010600005","2024-10-02T07:45:00",19.5,34.648907,0.295],
    [34120,"urn:WaterMeter:MC0203J22010600005","2024-10-02T08:00:00",19.7,34.810314,0.307],
    [34121,"urn:WaterMeter:MC0203J22010600005","2024-10-02T08:15:00",19.799,34.320007,0.33],
    [34122,"urn:WaterMeter:MC0203J22010600005","2024-10-02T08:30:00",19.899,33.844444,0.295],
    [34123,"urn:WaterMeter:MC0203J22010600005","2024-10-02T08:45:00",20,33.68424,0.27],
    [34124,"urn:WaterMeter:MC0203J22010600005","2024-10-02T09:00:00",20.2,33.5015,0.286],
    [34125,"urn:WaterMeter:MC0203J22010600005","2024-10-02T09:15:00",20.399,33.408054,0.279],
    [34126,"urn:WaterMeter:MC0203J22010600005","2024-10-02T09:30:00",20.6,33.33164,0.274],
    [34127,"urn:WaterMeter:MC0203J22010600005","2024-10-02T09:45:00",20.799,33.212128,0.273],
    [34128,"urn:WaterMeter:MC0203J22010600005","2024-10-02T10:00:00",21,33.0539,0.299],
    [34129,"urn:WaterMeter:MC0203J22010600005","2024-10-02T10:15:00",21.1,32.91965,0.272],
    [34130,"urn:WaterMeter:MC0203J22010600005","2024-10-02T10:30:00",21.299,32.82578,0.267],
    [34131,"urn:WaterMeter:MC0203J22010600005","2024-10-02T10:45:00",21.5,32.772285,0.294],
    [34132,"urn:WaterMeter:MC0203J22010600005","2024-10-02T11:00:00",21.7,32.71604,0.266],
    [34133,"urn:WaterMeter:MC0203J22010600005","2024-10-02T11:15:00",21.899,32.586094,0.262],
    [34134,"urn:WaterMeter:MC0203J22010600005","2024-10-02T11:30:00",22.2,32.498043,0.262],
    [34135,"urn:WaterMeter:MC0203J22010600005","2024-10-02T11:45:00",22.5,32.430935,0.273],
    [34136,"urn:WaterMeter:MC0203J22010600005","2024-10-02T12:00:00",22.7,32.32659,0.267],
    [34137,"urn:WaterMeter:MC0203J22010600005","2024-10-02T12:15:00",22.799,32.24707,0.273],
    [34138,"urn:WaterMeter:MC0203J22010600005","2024-10-02T12:30:00",22.899,32.165573,0.262],
    [34139,"urn:WaterMeter:MC0203J22010600005","2024-10-02T12:45:00",23,32.03489,0.265],
    [34140,"urn:WaterMeter:MC0203J22010600005","2024-10-02T13:00:00",23.1,32.046875,0.265],
    [34141,"urn:WaterMeter:MC0203J22010600005","2024-10-02T13:15:00",23.2,31.97554,0.262],
    [34142,"urn:WaterMeter:MC0203J22010600005","2024-10-02T13:30:00",23.299,31.991793,0.278],
    [34143,"urn:WaterMeter:MC0203J22010600005","2024-10-02T13:45:00",23.399,31.870031,0.238],
    [34144,"urn:WaterMeter:MC0203J22010600005","2024-10-02T14:00:00",23.5,31.793615,0.262],
    [34145,"urn:WaterMeter:MC0203J22010600005","2024-10-02T14:15:00",23.5,31.714096,0.261],
    [34146,"urn:WaterMeter:MC0203J22010600005","2024-10-02T14:30:00",23.5,31.72651,0.258],
    [34147,"urn:WaterMeter:MC0203J22010600005","2024-10-02T14:45:00",23.6,31.648153,0.257],
    [34148,"urn:WaterMeter:MC0203J22010600005","2024-10-02T15:00:00",23.6,31.622513,0.257],
    [34149,"urn:WaterMeter:MC0203J22010600005","2024-10-02T15:15:00",23.6,31.536825,0.253],
    [34150,"urn:WaterMeter:MC0203J22010600005","2024-10-02T15:30:00",23.5,31.545708,0.248],
    [34151,"urn:WaterMeter:MC0203J22010600005","2024-10-02T15:45:00",23.399,31.489113,0.264],
    [34152,"urn:WaterMeter:MC0203J22010600005","2024-10-02T16:00:00",23.399,31.457268,0.265],
    [34153,"urn:WaterMeter:MC0203J22010600005","2024-10-02T16:15:00",23.299,31.450712,0.251],
    [34154,"urn:WaterMeter:MC0203J22010600005","2024-10-02T16:30:00",23.299,31.430153,0.255],
    [34155,"urn:WaterMeter:MC0203J22010600005","2024-10-02T16:45:00",23.299,31.38283,0.252],
    [34156,"urn:WaterMeter:MC0203J22010600005","2024-10-02T17:00:00",23.2,31.33667,0.273],
    [34157,"urn:WaterMeter:MC0203J22010600005","2024-10-02T17:15:00",23.2,31.3793,0.258],
    [34158,"urn:WaterMeter:MC0203J22010600005","2024-10-02T17:30:00",23.1,31.342487,0.271],
    [34159,"urn:WaterMeter:MC0203J22010600005","2024-10-02T17:45:00",23,31.361883,0.26],
    [34160,"urn:WaterMeter:MC0203J22010600005","2024-10-02T18:00:00",22.899,31.304861,0.269],
    [34161,"urn:WaterMeter:MC0203J22010600005","2024-10-02T18:15:00",22.799,31.36576,0.258],
    [34162,"urn:WaterMeter:MC0203J22010600005","2024-10-02T18:30:00",22.7,31.362658,0.251],
    [34163,"urn:WaterMeter:MC0203J22010600005","2024-10-02T18:45:00",22.6,31.356451,0.26],
    [34164,"urn:WaterMeter:MC0203J22010600005","2024-10-02T19:00:00",22.5,31.378563,0.252],
    [34165,"urn:WaterMeter:MC0203J22010600005","2024-10-02T19:15:00",22.399,31.3549,0.255],
    [34166,"urn:WaterMeter:MC0203J22010600005","2024-10-02T19:30:00",22.399,31.388609,0.261],
    [34167,"urn:WaterMeter:MC0203J22010600005","2024-10-02T19:45:00",22.299,31.347918,0.274],
    [34168,"urn:WaterMeter:MC0203J22010600005","2024-10-02T20:00:00",22.2,31.307188,0.253],
    [34169,"urn:WaterMeter:MC0203J22010600005","2024-10-02T20:15:00",22.2,31.332363,0.255],
    [34170,"urn:WaterMeter:MC0203J22010600005","2024-10-02T20:30:00",22.2,31.331976,0.25],
    [34171,"urn:WaterMeter:MC0203J22010600005","2024-10-02T20:45:00",22.1,31.278095,0.251],
    [34172,"urn:WaterMeter:MC0203J22010600005","2024-10-02T21:00:00",22.2,31.256374,0.272],
    [34173,"urn:WaterMeter:MC0203J22010600005","2024-10-02T21:15:00",22.2,31.26258,0.253],
    [34174,"urn:WaterMeter:MC0203J22010600005","2024-10-02T21:30:00",22.2,31.255985,0.249],
    [34175,"urn:WaterMeter:MC0203J22010600005","2024-10-02T21:45:00",22.2,31.291246,0.255],
    [34176,"urn:WaterMeter:MC0203J22010600005","2024-10-02T22:00:00",22.2,31.229221,0.272],
    [34177,"urn:WaterMeter:MC0203J22010600005","2024-10-02T22:15:00",22.2,31.19974,0.253],
    [34178,"urn:WaterMeter:MC0203J22010600005","2024-10-02T22:30:00",22.2,31.242798,0.253],
    [34179,"urn:WaterMeter:MC0203J22010600005","2024-10-02T22:45:00",22.1,31.27379,0.251],
    [34180,"urn:WaterMeter:MC0203J22010600005","2024-10-02T23:00:00",22.1,31.28663,0.25],
    [34181,"urn:WaterMeter:MC0203J22010600005","2024-10-02T23:15:00",22.1,31.247065,0.274],
    [34182,"urn:WaterMeter:MC0203J22010600005","2024-10-02T23:30:00",22,31.258701,0.251],
    [34183,"urn:WaterMeter:MC0203J22010600005","2024-10-02T23:45:00",22,31.245512,0.253],
    [34184,"urn:WaterMeter:MC0203J22010600005","2024-10-03T00:00:00",22,31.248228,0.269],
    [34185,"urn:WaterMeter:MC0203J22010600005","2024-10-03T00:15:00",22,31.273014,0.272],
    [34186,"urn:WaterMeter:MC0203J22010600005","2024-10-03T00:30:00",22,31.256374,0.261],
    [34187,"urn:WaterMeter:MC0203J22010600005","2024-10-03T00:45:00",22,31.226505,0.26],
    [34188,"urn:WaterMeter:MC0203J22010600005","2024-10-03T01:00:00",22,31.212502,0.279],
    [34189,"urn:WaterMeter:MC0203J22010600005","2024-10-03T01:15:00",22,31.202843,0.258],
    [34190,"urn:WaterMeter:MC0203J22010600005","2024-10-03T01:30:00",22,31.231897,0.249],
    [34191,"urn:WaterMeter:MC0203J22010600005","2024-10-03T01:45:00",22,31.1741,0.263],
    [34192,"urn:WaterMeter:MC0203J22010600005","2024-10-03T02:00:00",22,31.127165,0.246],
    [34193,"urn:WaterMeter:MC0203J22010600005","2024-10-03T02:15:00",22,31.124487,0.249],
    [34194,"urn:WaterMeter:MC0203J22010600005","2024-10-03T02:30:00",22,31.167933,0.261],
    [34195,"urn:WaterMeter:MC0203J22010600005","2024-10-03T02:45:00",22,31.120996,0.249],
    [34196,"urn:WaterMeter:MC0203J22010600005","2024-10-03T03:00:00",22,31.076736,0.251],
    [34197,"urn:WaterMeter:MC0203J22010600005","2024-10-03T03:15:00",21.899,31.11479,0.265],
    [34198,"urn:WaterMeter:MC0203J22010600005","2024-10-03T03:30:00",21.899,31.10548,0.254],
    [34199,"urn:WaterMeter:MC0203J22010600005","2024-10-03T03:45:00",21.899,31.075224,0.241],
    [34200,"urn:WaterMeter:MC0203J22010600005","2024-10-03T04:00:00",21.799,31.026737,0.26],
    [34201,"urn:WaterMeter:MC0203J22010600005","2024-10-03T04:15:00",21.799,31.017815,0.263],
    [34202,"urn:WaterMeter:MC0203J22010600005","2024-10-03T04:30:00",21.799,31.03333,0.255],
    [34203,"urn:WaterMeter:MC0203J22010600005","2024-10-03T04:45:00",21.799,31.012346,0.245],
    [34204,"urn:WaterMeter:MC0203J22010600005","2024-10-03T05:00:00",21.7,30.993765,0.262],
    [34205,"urn:WaterMeter:MC0203J22010600005","2024-10-03T05:15:00",21.799,30.970491,0.254],
    [34206,"urn:WaterMeter:MC0203J22010600005","2024-10-03T05:30:00",21.799,31.062037,0.248],
    [34207,"urn:WaterMeter:MC0203J22010600005","2024-10-03T05:45:00",21.799,31.351759,0.264],
    [34208,"urn:WaterMeter:MC0203J22010600005","2024-10-03T06:00:00",21.799,32.139233,0.264],
    [34209,"urn:WaterMeter:MC0203J22010600005","2024-10-03T06:15:00",21.7,32.99533,0.29],
    [34210,"urn:WaterMeter:MC0203J22010600005","2024-10-03T06:30:00",21.7,33.576015,0.28],
    [34211,"urn:WaterMeter:MC0203J22010600005","2024-10-03T06:45:00",21.6,33.942192,0.303],
    [34212,"urn:WaterMeter:MC0203J22010600005","2024-10-03T07:00:00",21.6,34.246696,0.311],
    [34213,"urn:WaterMeter:MC0203J22010600005","2024-10-03T07:15:00",21.6,34.49495,0.304],
    [34214,"urn:WaterMeter:MC0203J22010600005","2024-10-03T07:30:00",21.6,34.75174,0.312],
    [34215,"urn:WaterMeter:MC0203J22010600005","2024-10-03T07:45:00",21.6,34.839367,0.308],
    [34216,"urn:WaterMeter:MC0203J22010600005","2024-10-03T08:00:00",21.6,34.98099,0.309],
    [34217,"urn:WaterMeter:MC0203J22010600005","2024-10-03T08:15:00",21.6,34.513958,0.315],
    [34218,"urn:WaterMeter:MC0203J22010600005","2024-10-03T08:30:00",21.6,34.034515,0.296],
    [34219,"urn:WaterMeter:MC0203J22010600005","2024-10-03T08:45:00",21.6,33.857243,0.281],
    [34220,"urn:WaterMeter:MC0203J22010600005","2024-10-03T09:00:00",21.7,33.733116,0.284],
    [34221,"urn:WaterMeter:MC0203J22010600005","2024-10-03T09:15:00",21.799,33.670662,0.294],
    [34222,"urn:WaterMeter:MC0203J22010600005","2024-10-03T09:30:00",21.799,33.62912,0.287],
    [34223,"urn:WaterMeter:MC0203J22010600005","2024-10-03T09:45:00",22,33.491455,0.3],
    [34224,"urn:WaterMeter:MC0203J22010600005","2024-10-03T10:00:00",22,33.29789,0.284],
    [34225,"urn:WaterMeter:MC0203J22010600005","2024-10-03T10:15:00",22.2,33.26876,0.273],
    [34226,"urn:WaterMeter:MC0203J22010600005","2024-10-03T10:30:00",22.2,33.185013,0.278],
    [34227,"urn:WaterMeter:MC0203J22010600005","2024-10-03T10:45:00",22.299,33.166004,0.299],
    [34228,"urn:WaterMeter:MC0203J22010600005","2024-10-03T11:00:00",22.5,33.036407,0.287],
    [34229,"urn:WaterMeter:MC0203J22010600005","2024-10-03T11:15:00",22.6,32.916973,0.307],
    [34230,"urn:WaterMeter:MC0203J22010600005","2024-10-03T11:30:00",22.7,32.85685,0.298],
    [34231,"urn:WaterMeter:MC0203J22010600005","2024-10-03T11:45:00",22.899,32.75522,0.28],
    [34232,"urn:WaterMeter:MC0203J22010600005","2024-10-03T12:00:00",23.1,32.687298,0.269],
    [34233,"urn:WaterMeter:MC0203J22010600005","2024-10-03T12:15:00",23.2,32.60933,0.271],
    [34234,"urn:WaterMeter:MC0203J22010600005","2024-10-03T12:30:00",23.299,32.569027,0.269],
    [34235,"urn:WaterMeter:MC0203J22010600005","2024-10-03T12:45:00",23.299,32.520927,0.277],
    [34236,"urn:WaterMeter:MC0203J22010600005","2024-10-03T13:00:00",23.399,32.434036,0.267],
    [34237,"urn:WaterMeter:MC0203J22010600005","2024-10-03T13:15:00",23.399,32.370422,0.279],
    [34238,"urn:WaterMeter:MC0203J22010600005","2024-10-03T13:30:00",23.5,32.296722,0.278],
    [34239,"urn:WaterMeter:MC0203J22010600005","2024-10-03T13:45:00",23.5,32.224533,0.274],
    [34240,"urn:WaterMeter:MC0203J22010600005","2024-10-03T14:00:00",23.5,32.172207,0.264],
    [34241,"urn:WaterMeter:MC0203J22010600005","2024-10-03T14:15:00",23.5,32.178024,0.267],
    [34242,"urn:WaterMeter:MC0203J22010600005","2024-10-03T14:30:00",23.5,32.089584,0.263],
    [34243,"urn:WaterMeter:MC0203J22010600005","2024-10-03T14:45:00",23.6,32.066658,0.27],
    [34244,"urn:WaterMeter:MC0203J22010600005","2024-10-03T15:00:00",23.6,31.9255,0.265],
    [34245,"urn:WaterMeter:MC0203J22010600005","2024-10-03T15:15:00",23.6,31.97748,0.266],
    [34246,"urn:WaterMeter:MC0203J22010600005","2024-10-03T15:30:00",23.5,31.900675,0.27],
    [34247,"urn:WaterMeter:MC0203J22010600005","2024-10-03T15:45:00",23.5,31.78353,0.263],
    [34248,"urn:WaterMeter:MC0203J22010600005","2024-10-03T16:00:00",23.399,31.785856,0.288],
    [34249,"urn:WaterMeter:MC0203J22010600005","2024-10-03T16:15:00",23.299,31.765686,0.256],
    [34250,"urn:WaterMeter:MC0203J22010600005","2024-10-03T16:30:00",23.2,31.699705,0.259],
    [34251,"urn:WaterMeter:MC0203J22010600005","2024-10-03T16:45:00",23.2,31.709015,0.257],
    [34252,"urn:WaterMeter:MC0203J22010600005","2024-10-03T17:00:00",23.1,31.667547,0.256],
    [34253,"urn:WaterMeter:MC0203J22010600005","2024-10-03T17:15:00",23.1,31.657463,0.269],
    [34254,"urn:WaterMeter:MC0203J22010600005","2024-10-03T17:30:00",23,31.620573,0.258],
    [34255,"urn:WaterMeter:MC0203J22010600005","2024-10-03T17:45:00",23,31.604708,0.276],
    [34256,"urn:WaterMeter:MC0203J22010600005","2024-10-03T18:00:00",22.899,31.62135,0.259],
    [34257,"urn:WaterMeter:MC0203J22010600005","2024-10-03T18:15:00",22.799,31.59501,0.262],
    [34258,"urn:WaterMeter:MC0203J22010600005","2024-10-03T18:30:00",22.7,31.586477,0.261],
    [34259,"urn:WaterMeter:MC0203J22010600005","2024-10-03T18:45:00",22.6,31.582947,0.259],
    [34260,"urn:WaterMeter:MC0203J22010600005","2024-10-03T19:00:00",22.5,31.587252,0.282],
    [34261,"urn:WaterMeter:MC0203J22010600005","2024-10-03T19:15:00",22.399,31.584925,0.257],
    [34262,"urn:WaterMeter:MC0203J22010600005","2024-10-03T19:30:00",22.299,31.562387,0.257],
    [34263,"urn:WaterMeter:MC0203J22010600005","2024-10-03T19:45:00",22.299,31.554241,0.268],
    [34264,"urn:WaterMeter:MC0203J22010600005","2024-10-03T20:00:00",22.2,31.544544,0.261],
    [34265,"urn:WaterMeter:MC0203J22010600005","2024-10-03T20:15:00",22.2,31.546911,0.258],
    [34266,"urn:WaterMeter:MC0203J22010600005","2024-10-03T20:30:00",22.1,31.531008,0.283],
    [34267,"urn:WaterMeter:MC0203J22010600005","2024-10-03T20:45:00",22.1,31.541481,0.256],
    [34268,"urn:WaterMeter:MC0203J22010600005","2024-10-03T21:00:00",22.1,31.575615,0.26],
    [34269,"urn:WaterMeter:MC0203J22010600005","2024-10-03T21:15:00",22,31.559324,0.269],
    [34270,"urn:WaterMeter:MC0203J22010600005","2024-10-03T21:30:00",22,31.567858,0.259],
    [34271,"urn:WaterMeter:MC0203J22010600005","2024-10-03T21:45:00",22,31.556221,0.264],
    [34272,"urn:WaterMeter:MC0203J22010600005","2024-10-03T22:00:00",22,31.532946,0.253],
    [34273,"urn:WaterMeter:MC0203J22010600005","2024-10-03T22:15:00",22,31.575615,0.267],
    [34274,"urn:WaterMeter:MC0203J22010600005","2024-10-03T22:30:00",21.899,31.559324,0.277],
    [34275,"urn:WaterMeter:MC0203J22010600005","2024-10-03T22:45:00",21.899,31.542604,0.252],
    [34276,"urn:WaterMeter:MC0203J22010600005","2024-10-03T23:00:00",21.899,31.539928,0.252],
    [34277,"urn:WaterMeter:MC0203J22010600005","2024-10-03T23:15:00",21.899,31.59501,0.275],
    [34278,"urn:WaterMeter:MC0203J22010600005","2024-10-03T23:30:00",21.899,31.540705,0.26],
    [34279,"urn:WaterMeter:MC0203J22010600005","2024-10-03T23:45:00",21.899,31.577555,0.245],
    [34280,"urn:WaterMeter:MC0203J22010600005","2024-10-04T00:00:00",21.799,31.559711,0.262],
    [34281,"urn:WaterMeter:MC0203J22010600005","2024-10-04T00:15:00",21.799,31.562777,0.257],
    [34282,"urn:WaterMeter:MC0203J22010600005","2024-10-04T00:30:00",21.799,31.545708,0.249],
    [34283,"urn:WaterMeter:MC0203J22010600005","2024-10-04T00:45:00",21.7,31.546911,0.249],
    [34284,"urn:WaterMeter:MC0203J22010600005","2024-10-04T01:00:00",21.7,31.552729,0.252],
    [34285,"urn:WaterMeter:MC0203J22010600005","2024-10-04T01:15:00",21.6,31.508509,0.251],
    [34286,"urn:WaterMeter:MC0203J22010600005","2024-10-04T01:30:00",21.6,31.540316,0.252],
    [34287,"urn:WaterMeter:MC0203J22010600005","2024-10-04T01:45:00",21.5,31.56553,0.255],
    [34288,"urn:WaterMeter:MC0203J22010600005","2024-10-04T02:00:00",21.5,31.59342,0.253],
    [34289,"urn:WaterMeter:MC0203J22010600005","2024-10-04T02:15:00",21.399,31.527905,0.253],
    [34290,"urn:WaterMeter:MC0203J22010600005","2024-10-04T02:30:00",21.299,31.600403,0.253],
    [34291,"urn:WaterMeter:MC0203J22010600005","2024-10-04T02:45:00",21.2,31.509672,0.249],
    [34292,"urn:WaterMeter:MC0203J22010600005","2024-10-04T03:00:00",21.2,31.512,0.254],
    [34293,"urn:WaterMeter:MC0203J22010600005","2024-10-04T03:15:00",21.1,31.529068,0.254],
    [34294,"urn:WaterMeter:MC0203J22010600005","2024-10-04T03:30:00",21,31.514715,0.255],
    [34295,"urn:WaterMeter:MC0203J22010600005","2024-10-04T03:45:00",20.899,31.531395,0.251],
    [34296,"urn:WaterMeter:MC0203J22010600005","2024-10-04T04:00:00",20.899,31.539928,0.25],
    [34297,"urn:WaterMeter:MC0203J22010600005","2024-10-04T04:15:00",20.799,31.562,0.257],
    [34298,"urn:WaterMeter:MC0203J22010600005","2024-10-04T04:30:00",20.799,31.537989,0.251],
    [34299,"urn:WaterMeter:MC0203J22010600005","2024-10-04T04:45:00",20.7,31.539152,0.254],
    [34300,"urn:WaterMeter:MC0203J22010600005","2024-10-04T05:00:00",20.7,31.539541,0.25],
    [34301,"urn:WaterMeter:MC0203J22010600005","2024-10-04T05:15:00",20.799,31.54338,0.261],
    [34302,"urn:WaterMeter:MC0203J22010600005","2024-10-04T05:30:00",20.899,31.739271,0.268],
    [34303,"urn:WaterMeter:MC0203J22010600005","2024-10-04T05:45:00",20.899,32.131863,0.27],
    [34304,"urn:WaterMeter:MC0203J22010600005","2024-10-04T06:00:00",20.899,32.88086,0.278],
    [34305,"urn:WaterMeter:MC0203J22010600005","2024-10-04T06:15:00",20.799,33.570583,0.284],
    [34306,"urn:WaterMeter:MC0203J22010600005","2024-10-04T06:30:00",20.799,33.917755,0.287],
    [34307,"urn:WaterMeter:MC0203J22010600005","2024-10-04T06:45:00",20.799,34.30255,0.289],
    [34308,"urn:WaterMeter:MC0203J22010600005","2024-10-04T07:00:00",20.799,34.492973,0.307],
    [34309,"urn:WaterMeter:MC0203J22010600005","2024-10-04T07:15:00",20.7,34.72226,0.302],
    [34310,"urn:WaterMeter:MC0203J22010600005","2024-10-04T07:30:00",20.799,34.7723,0.296],
    [34311,"urn:WaterMeter:MC0203J22010600005","2024-10-04T07:45:00",20.7,34.95384,0.298],
    [34312,"urn:WaterMeter:MC0203J22010600005","2024-10-04T08:00:00",20.6,35.015472,0.31],
    [34313,"urn:WaterMeter:MC0203J22010600005","2024-10-04T08:15:00",20.399,34.658607,0.296],
    [34314,"urn:WaterMeter:MC0203J22010600005","2024-10-04T08:30:00",20.299,34.318806,0.31],
    [34315,"urn:WaterMeter:MC0203J22010600005","2024-10-04T08:45:00",20.299,34.063217,0.282],
    [34316,"urn:WaterMeter:MC0203J22010600005","2024-10-04T09:00:00",20.299,33.98909,0.279],
    [34317,"urn:WaterMeter:MC0203J22010600005","2024-10-04T09:15:00",20.399,33.87117,0.28],
    [34318,"urn:WaterMeter:MC0203J22010600005","2024-10-04T09:30:00",20.5,33.84832,0.302],
    [34319,"urn:WaterMeter:MC0203J22010600005","2024-10-04T09:45:00",20.7,33.744366,0.286],
    [34320,"urn:WaterMeter:MC0203J22010600005","2024-10-04T10:00:00",20.899,33.64929,0.291],
    [34321,"urn:WaterMeter:MC0203J22010600005","2024-10-04T10:15:00",21,33.463097,0.287],
    [34322,"urn:WaterMeter:MC0203J22010600005","2024-10-04T10:30:00",21.1,33.412323,0.286],
    [34323,"urn:WaterMeter:MC0203J22010600005","2024-10-04T10:45:00",21.2,33.27966,0.274],
    [34324,"urn:WaterMeter:MC0203J22010600005","2024-10-04T11:00:00",21.399,33.217598,0.27],
    [34325,"urn:WaterMeter:MC0203J22010600005","2024-10-04T11:15:00",21.5,33.15786,0.277],
    [34326,"urn:WaterMeter:MC0203J22010600005","2024-10-04T11:30:00",21.7,33.134933,0.277],
    [34327,"urn:WaterMeter:MC0203J22010600005","2024-10-04T11:45:00",21.899,33.047268,0.276],
    [34328,"urn:WaterMeter:MC0203J22010600005","2024-10-04T12:00:00",22,32.973606,0.283],
    [34329,"urn:WaterMeter:MC0203J22010600005","2024-10-04T12:15:00",22.2,32.798275,0.271],
    [34330,"urn:WaterMeter:MC0203J22010600005","2024-10-04T12:30:00",22.399,32.762978,0.273],
    [34331,"urn:WaterMeter:MC0203J22010600005","2024-10-04T12:45:00",22.5,32.787415,0.268],
    [34332,"urn:WaterMeter:MC0203J22010600005","2024-10-04T13:00:00",22.5,32.61519,0.269],
    [34333,"urn:WaterMeter:MC0203J22010600005","2024-10-04T13:15:00",22.6,32.534077,0.286],
    [34334,"urn:WaterMeter:MC0203J22010600005","2024-10-04T13:30:00",22.6,32.50735,0.282],
    [34335,"urn:WaterMeter:MC0203J22010600005","2024-10-04T13:45:00",22.6,32.474728,0.269],
    [34336,"urn:WaterMeter:MC0203J22010600005","2024-10-04T14:00:00",22.6,32.414642,0.267],
    [34337,"urn:WaterMeter:MC0203J22010600005","2024-10-04T14:15:00",22.6,32.360725,0.265],
    [34338,"urn:WaterMeter:MC0203J22010600005","2024-10-04T14:30:00",22.6,32.308357,0.27],
    [34339,"urn:WaterMeter:MC0203J22010600005","2024-10-04T14:45:00",22.6,32.283146,0.273],
    [34340,"urn:WaterMeter:MC0203J22010600005","2024-10-04T15:00:00",22.6,32.231167,0.282],
    [34341,"urn:WaterMeter:MC0203J22010600005","2024-10-04T15:15:00",22.6,32.183414,0.258],
    [34342,"urn:WaterMeter:MC0203J22010600005","2024-10-04T15:30:00",22.6,32.133804,0.268],
    [34343,"urn:WaterMeter:MC0203J22010600005","2024-10-04T15:45:00",22.6,32.067432,0.265],
    [34344,"urn:WaterMeter:MC0203J22010600005","2024-10-04T16:00:00",22.6,32.06398,0.269],
    [34345,"urn:WaterMeter:MC0203J22010600005","2024-10-04T16:15:00",22.6,32.025578,0.282],
    [34346,"urn:WaterMeter:MC0203J22010600005","2024-10-04T16:30:00",22.6,32.00502,0.298],
    [34347,"urn:WaterMeter:MC0203J22010600005","2024-10-04T16:45:00",22.6,31.942919,0.263],
    [34348,"urn:WaterMeter:MC0203J22010600005","2024-10-04T17:00:00",22.5,31.936363,0.276],
    [34349,"urn:WaterMeter:MC0203J22010600005","2024-10-04T17:15:00",22.5,31.960024,0.263],
    [34350,"urn:WaterMeter:MC0203J22010600005","2024-10-04T17:30:00",22.5,31.935198,0.28],
    [34351,"urn:WaterMeter:MC0203J22010600005","2024-10-04T17:45:00",22.5,31.933609,0.255],
    [34352,"urn:WaterMeter:MC0203J22010600005","2024-10-04T18:00:00",22.399,31.908821,0.277],
    [34353,"urn:WaterMeter:MC0203J22010600005","2024-10-04T18:15:00",22.299,31.926277,0.266],
    [34354,"urn:WaterMeter:MC0203J22010600005","2024-10-04T18:30:00",22.2,31.924337,0.27],
    [34355,"urn:WaterMeter:MC0203J22010600005","2024-10-04T18:45:00",22.2,31.930506,0.262],
    [34356,"urn:WaterMeter:MC0203J22010600005","2024-10-04T19:00:00",22.1,31.867315,0.26],
    [34357,"urn:WaterMeter:MC0203J22010600005","2024-10-04T19:15:00",22,31.891716,0.265],
    [34358,"urn:WaterMeter:MC0203J22010600005","2024-10-04T19:30:00",21.899,31.865337,0.264],
    [34359,"urn:WaterMeter:MC0203J22010600005","2024-10-04T19:45:00",21.899,31.904516,0.268],
    [34360,"urn:WaterMeter:MC0203J22010600005","2024-10-04T20:00:00",21.799,31.880117,0.259],
    [34361,"urn:WaterMeter:MC0203J22010600005","2024-10-04T20:15:00",21.7,31.885548,0.267],
    [34362,"urn:WaterMeter:MC0203J22010600005","2024-10-04T20:30:00",21.7,31.810682,0.262],
    [34363,"urn:WaterMeter:MC0203J22010600005","2024-10-04T20:45:00",21.6,31.87585,0.272],
    [34364,"urn:WaterMeter:MC0203J22010600005","2024-10-04T21:00:00",21.6,31.885548,0.266],
    [34365,"urn:WaterMeter:MC0203J22010600005","2024-10-04T21:15:00",21.5,31.865726,0.277],
    [34366,"urn:WaterMeter:MC0203J22010600005","2024-10-04T21:30:00",21.399,31.855253,0.258],
    [34367,"urn:WaterMeter:MC0203J22010600005","2024-10-04T21:45:00",21.399,31.777285,0.267],
    [34368,"urn:WaterMeter:MC0203J22010600005","2024-10-04T22:00:00",21.299,31.820768,0.271],
    [34369,"urn:WaterMeter:MC0203J22010600005","2024-10-04T22:15:00",21.299,31.795515,0.258],
    [34370,"urn:WaterMeter:MC0203J22010600005","2024-10-04T22:30:00",21.2,31.793228,0.268],
    [34371,"urn:WaterMeter:MC0203J22010600005","2024-10-04T22:45:00",21.2,31.789349,0.268],
    [34372,"urn:WaterMeter:MC0203J22010600005","2024-10-04T23:00:00",21.1,31.748192,0.26],
    [34373,"urn:WaterMeter:MC0203J22010600005","2024-10-04T23:15:00",21,31.786982,0.259],
    [34374,"urn:WaterMeter:MC0203J22010600005","2024-10-04T23:30:00",20.899,31.765299,0.276],
    [34375,"urn:WaterMeter:MC0203J22010600005","2024-10-04T23:45:00",20.899,31.776121,0.271],
    [34376,"urn:WaterMeter:MC0203J22010600005","2024-10-05T00:00:00",20.799,31.835857,0.259],
    [34377,"urn:WaterMeter:MC0203J22010600005","2024-10-05T00:15:00",20.7,31.776897,0.269],
    [34378,"urn:WaterMeter:MC0203J22010600005","2024-10-05T00:30:00",20.7,31.780039,0.254],
    [34379,"urn:WaterMeter:MC0203J22010600005","2024-10-05T00:45:00",20.6,31.760256,0.269],
    [34380,"urn:WaterMeter:MC0203J22010600005","2024-10-05T01:00:00",20.5,31.765299,0.27],
    [34381,"urn:WaterMeter:MC0203J22010600005","2024-10-05T01:15:00",20.399,31.791676,0.267],
    [34382,"urn:WaterMeter:MC0203J22010600005","2024-10-05T01:30:00",20.399,31.758665,0.262],
    [34383,"urn:WaterMeter:MC0203J22010600005","2024-10-05T01:45:00",20.299,31.79827,0.266],
    [34384,"urn:WaterMeter:MC0203J22010600005","2024-10-05T02:00:00",20.2,31.79827,0.255],
    [34385,"urn:WaterMeter:MC0203J22010600005","2024-10-05T02:15:00",20.1,31.738882,0.266],
    [34386,"urn:WaterMeter:MC0203J22010600005","2024-10-05T02:30:00",20.1,31.772282,0.268],
    [34387,"urn:WaterMeter:MC0203J22010600005","2024-10-05T02:45:00",20,31.780039,0.267],
    [34388,"urn:WaterMeter:MC0203J22010600005","2024-10-05T03:00:00",19.899,31.788572,0.283],
    [34389,"urn:WaterMeter:MC0203J22010600005","2024-10-05T03:15:00",19.899,31.756725,0.256],
    [34390,"urn:WaterMeter:MC0203J22010600005","2024-10-05T03:30:00",19.799,31.764135,0.265],
    [34391,"urn:WaterMeter:MC0203J22010600005","2024-10-05T03:45:00",19.799,31.743189,0.255],
    [34392,"urn:WaterMeter:MC0203J22010600005","2024-10-05T04:00:00",19.7,31.740086,0.257],
    [34393,"urn:WaterMeter:MC0203J22010600005","2024-10-05T04:15:00",19.6,31.776508,0.257],
    [34394,"urn:WaterMeter:MC0203J22010600005","2024-10-05T04:30:00",19.6,31.75405,0.253],
    [34395,"urn:WaterMeter:MC0203J22010600005","2024-10-05T04:45:00",19.5,31.76336,0.253],
    [34396,"urn:WaterMeter:MC0203J22010600005","2024-10-05T05:00:00",19.399,31.750559,0.257],
    [34397,"urn:WaterMeter:MC0203J22010600005","2024-10-05T05:15:00",19.299,31.751722,0.262],
    [34398,"urn:WaterMeter:MC0203J22010600005","2024-10-05T05:30:00",19.2,31.745903,0.258],
    [34399,"urn:WaterMeter:MC0203J22010600005","2024-10-05T05:45:00",19.2,31.723017,0.267],
    [34400,"urn:WaterMeter:MC0203J22010600005","2024-10-05T06:00:00",19.1,31.757889,0.262],
    [34401,"urn:WaterMeter:MC0203J22010600005","2024-10-05T06:15:00",19,31.707113,0.264],
    [34402,"urn:WaterMeter:MC0203J22010600005","2024-10-05T06:30:00",19,31.738495,0.268],
    [34403,"urn:WaterMeter:MC0203J22010600005","2024-10-05T06:45:00",18.899,31.789349,0.262],
    [34404,"urn:WaterMeter:MC0203J22010600005","2024-10-05T07:00:00",18.899,31.721853,0.259],
    [34405,"urn:WaterMeter:MC0203J22010600005","2024-10-05T07:15:00",18.899,31.742413,0.248],
    [34406,"urn:WaterMeter:MC0203J22010600005","2024-10-05T07:30:00",19,31.697027,0.261],
    [34407,"urn:WaterMeter:MC0203J22010600005","2024-10-05T07:45:00",19,31.693924,0.248],
    [34408,"urn:WaterMeter:MC0203J22010600005","2024-10-05T08:00:00",19.1,31.700092,0.249],
    [34409,"urn:WaterMeter:MC0203J22010600005","2024-10-05T08:15:00",19.2,31.696253,0.26],
    [34410,"urn:WaterMeter:MC0203J22010600005","2024-10-05T08:30:00",19.299,31.699316,0.252],
    [34411,"urn:WaterMeter:MC0203J22010600005","2024-10-05T08:45:00",19.5,31.647377,0.256],
    [34412,"urn:WaterMeter:MC0203J22010600005","2024-10-05T09:00:00",19.6,31.627594,0.253],
    [34413,"urn:WaterMeter:MC0203J22010600005","2024-10-05T09:15:00",19.799,31.58958,0.245],
    [34414,"urn:WaterMeter:MC0203J22010600005","2024-10-05T09:30:00",20,31.534847,0.268],
    [34415,"urn:WaterMeter:MC0203J22010600005","2024-10-05T09:45:00",20.2,31.460796,0.251],
    [34416,"urn:WaterMeter:MC0203J22010600005","2024-10-05T10:00:00",20.299,31.467741,0.246],
    [34417,"urn:WaterMeter:MC0203J22010600005","2024-10-05T10:15:00",20.5,31.442566,0.274],
    [34418,"urn:WaterMeter:MC0203J22010600005","2024-10-05T10:30:00",20.6,31.339384,0.246],
    [34419,"urn:WaterMeter:MC0203J22010600005","2024-10-05T10:45:00",20.799,31.34753,0.263],
    [34420,"urn:WaterMeter:MC0203J22010600005","2024-10-05T11:00:00",21.1,31.265684,0.244],
    [34421,"urn:WaterMeter:MC0203J22010600005","2024-10-05T11:15:00",21.299,31.218748,0.26],
    [34422,"urn:WaterMeter:MC0203J22010600005","2024-10-05T11:30:00",21.6,31.159399,0.247],
    [34423,"urn:WaterMeter:MC0203J22010600005","2024-10-05T11:45:00",21.799,31.12992,0.261],
    [34424,"urn:WaterMeter:MC0203J22010600005","2024-10-05T12:00:00",22,31.065914,0.248],
    [34425,"urn:WaterMeter:MC0203J22010600005","2024-10-05T12:15:00",22.2,30.97278,0.239],
    [34426,"urn:WaterMeter:MC0203J22010600005","2024-10-05T12:30:00",22.399,30.906876,0.253],
    [34427,"urn:WaterMeter:MC0203J22010600005","2024-10-05T12:45:00",22.399,30.870802,0.243],
    [34428,"urn:WaterMeter:MC0203J22010600005","2024-10-05T13:00:00",22.5,30.85063,0.236],
    [34429,"urn:WaterMeter:MC0203J22010600005","2024-10-05T13:15:00",22.6,30.739653,0.244],
    [34430,"urn:WaterMeter:MC0203J22010600005","2024-10-05T13:30:00",22.6,30.742794,0.26],
    [34431,"urn:WaterMeter:MC0203J22010600005","2024-10-05T13:45:00",22.7,30.715254,0.256],
    [34432,"urn:WaterMeter:MC0203J22010600005","2024-10-05T14:00:00",22.7,30.589186,0.234],
    [34433,"urn:WaterMeter:MC0203J22010600005","2024-10-05T14:15:00",22.799,30.510054,0.232],
    [34434,"urn:WaterMeter:MC0203J22010600005","2024-10-05T14:30:00",22.799,30.488293,0.25],
    [34435,"urn:WaterMeter:MC0203J22010600005","2024-10-05T14:45:00",22.899,30.454584,0.245],
    [34436,"urn:WaterMeter:MC0203J22010600005","2024-10-05T15:00:00",23,30.430496,0.242],
    [34437,"urn:WaterMeter:MC0203J22010600005","2024-10-05T15:15:00",23,30.347136,0.23],
    [34438,"urn:WaterMeter:MC0203J22010600005","2024-10-05T15:30:00",23.1,30.285849,0.253],
    [34439,"urn:WaterMeter:MC0203J22010600005","2024-10-05T15:45:00",23,30.266066,0.235],
    [34440,"urn:WaterMeter:MC0203J22010600005","2024-10-05T16:00:00",23,30.2521,0.234],
    [34441,"urn:WaterMeter:MC0203J22010600005","2024-10-05T16:15:00",23,30.23348,0.23],
    [34442,"urn:WaterMeter:MC0203J22010600005","2024-10-05T16:30:00",22.899,30.217152,0.24],
    [34443,"urn:WaterMeter:MC0203J22010600005","2024-10-05T16:45:00",22.799,30.2137,0.238],
    [34444,"urn:WaterMeter:MC0203J22010600005","2024-10-05T17:00:00",22.799,30.144651,0.239],
    [34445,"urn:WaterMeter:MC0203J22010600005","2024-10-05T17:15:00",22.7,30.144264,0.236],
    [34446,"urn:WaterMeter:MC0203J22010600005","2024-10-05T17:30:00",22.6,30.14694,0.234],
    [34447,"urn:WaterMeter:MC0203J22010600005","2024-10-05T17:45:00",22.5,30.127934,0.226],
    [34448,"urn:WaterMeter:MC0203J22010600005","2024-10-05T18:00:00",22.5,30.134954,0.248],
    [34449,"urn:WaterMeter:MC0203J22010600005","2024-10-05T18:15:00",22.399,30.125645,0.235],
    [34450,"urn:WaterMeter:MC0203J22010600005","2024-10-05T18:30:00",22.299,30.050354,0.229],
    [34451,"urn:WaterMeter:MC0203J22010600005","2024-10-05T18:45:00",22.299,30.048801,0.244],
    [34452,"urn:WaterMeter:MC0203J22010600005","2024-10-05T19:00:00",22.299,30.041044,0.238],
    [34453,"urn:WaterMeter:MC0203J22010600005","2024-10-05T19:15:00",22.2,30.035265,0.246],
    [34454,"urn:WaterMeter:MC0203J22010600005","2024-10-05T19:30:00",22.2,30.041044,0.229],
    [34455,"urn:WaterMeter:MC0203J22010600005","2024-10-05T19:45:00",22.2,29.99919,0.251],
    [34456,"urn:WaterMeter:MC0203J22010600005","2024-10-05T20:00:00",22.1,29.983635,0.233],
    [34457,"urn:WaterMeter:MC0203J22010600005","2024-10-05T20:15:00",22.1,29.986776,0.232],
    [34458,"urn:WaterMeter:MC0203J22010600005","2024-10-05T20:30:00",22,29.93282,0.229],
    [34459,"urn:WaterMeter:MC0203J22010600005","2024-10-05T20:45:00",21.899,29.943333,0.232],
    [34460,"urn:WaterMeter:MC0203J22010600005","2024-10-05T21:00:00",21.899,29.900276,0.239],
    [34461,"urn:WaterMeter:MC0203J22010600005","2024-10-05T21:15:00",21.799,29.935148,0.252],
    [34462,"urn:WaterMeter:MC0203J22010600005","2024-10-05T21:30:00",21.7,29.939066,0.246],
    [34463,"urn:WaterMeter:MC0203J22010600005","2024-10-05T21:45:00",21.6,29.91967,0.231],
    [34464,"urn:WaterMeter:MC0203J22010600005","2024-10-05T22:00:00",21.6,29.93282,0.229],
    [34465,"urn:WaterMeter:MC0203J22010600005","2024-10-05T22:15:00",21.5,29.934372,0.243],
    [34466,"urn:WaterMeter:MC0203J22010600005","2024-10-05T22:30:00",21.399,29.96583,0.232],
    [34467,"urn:WaterMeter:MC0203J22010600005","2024-10-05T22:45:00",21.299,29.984411,0.242],
    [34468,"urn:WaterMeter:MC0203J22010600005","2024-10-05T23:00:00",21.299,29.948376,0.249],
    [34469,"urn:WaterMeter:MC0203J22010600005","2024-10-05T23:15:00",21.2,29.94954,0.231],
    [34470,"urn:WaterMeter:MC0203J22010600005","2024-10-05T23:30:00",21.1,29.961563,0.238],
    [34471,"urn:WaterMeter:MC0203J22010600005","2024-10-05T23:45:00",21,29.915365,0.236],
    [34472,"urn:WaterMeter:MC0203J22010600005","2024-10-06T00:00:00",21,29.940617,0.241],
    [34473,"urn:WaterMeter:MC0203J22010600005","2024-10-06T00:15:00",20.899,29.967382,0.231],
    [34474,"urn:WaterMeter:MC0203J22010600005","2024-10-06T00:30:00",20.799,29.963116,0.231],
    [34475,"urn:WaterMeter:MC0203J22010600005","2024-10-06T00:45:00",20.799,29.921223,0.229],
    [34476,"urn:WaterMeter:MC0203J22010600005","2024-10-06T01:00:00",20.7,29.939453,0.238],
    [34477,"urn:WaterMeter:MC0203J22010600005","2024-10-06T01:15:00",20.6,29.892517,0.231],
    [34478,"urn:WaterMeter:MC0203J22010600005","2024-10-06T01:30:00",20.6,29.917343,0.229],
    [34479,"urn:WaterMeter:MC0203J22010600005","2024-10-06T01:45:00",20.5,29.967382,0.243],
    [34480,"urn:WaterMeter:MC0203J22010600005","2024-10-06T02:00:00",20.399,29.926226,0.226],
    [34481,"urn:WaterMeter:MC0203J22010600005","2024-10-06T02:15:00",20.399,29.925838,0.247],
    [34482,"urn:WaterMeter:MC0203J22010600005","2024-10-06T02:30:00",20.299,29.977467,0.229],
    [34483,"urn:WaterMeter:MC0203J22010600005","2024-10-06T02:45:00",20.299,29.900663,0.245],
    [34484,"urn:WaterMeter:MC0203J22010600005","2024-10-06T03:00:00",20.1,29.890577,0.235],
    [34485,"urn:WaterMeter:MC0203J22010600005","2024-10-06T03:15:00",20.1,29.94954,0.233],
    [34486,"urn:WaterMeter:MC0203J22010600005","2024-10-06T03:30:00",20.1,29.91967,0.236],
    [34487,"urn:WaterMeter:MC0203J22010600005","2024-10-06T03:45:00",20.1,29.964628,0.23],
    [34488,"urn:WaterMeter:MC0203J22010600005","2024-10-06T04:00:00",20,29.928204,0.228],
    [34489,"urn:WaterMeter:MC0203J22010600005","2024-10-06T04:15:00",20,29.873898,0.229],
    [34490,"urn:WaterMeter:MC0203J22010600005","2024-10-06T04:30:00",19.899,29.92316,0.227],
    [34491,"urn:WaterMeter:MC0203J22010600005","2024-10-06T04:45:00",19.899,29.885147,0.235],
    [34492,"urn:WaterMeter:MC0203J22010600005","2024-10-06T05:00:00",19.799,29.88825,0.226],
    [34493,"urn:WaterMeter:MC0203J22010600005","2024-10-06T05:15:00",19.7,29.879328,0.226],
    [34494,"urn:WaterMeter:MC0203J22010600005","2024-10-06T05:30:00",19.6,29.880104,0.226],
    [34495,"urn:WaterMeter:MC0203J22010600005","2024-10-06T05:45:00",19.7,29.8758,0.248],
    [34496,"urn:WaterMeter:MC0203J22010600005","2024-10-06T06:00:00",19.7,29.902214,0.246],
    [34497,"urn:WaterMeter:MC0203J22010600005","2024-10-06T06:15:00",19.6,29.902603,0.234],
    [34498,"urn:WaterMeter:MC0203J22010600005","2024-10-06T06:30:00",19.6,29.895193,0.238],
    [34499,"urn:WaterMeter:MC0203J22010600005","2024-10-06T06:45:00",19.6,29.92161,0.241],
    [34500,"urn:WaterMeter:MC0203J22010600005","2024-10-06T07:00:00",19.6,29.864977,0.23],
    [34501,"urn:WaterMeter:MC0203J22010600005","2024-10-06T07:15:00",19.6,29.880104,0.236],
    [34502,"urn:WaterMeter:MC0203J22010600005","2024-10-06T07:30:00",19.7,29.860321,0.238],
    [34503,"urn:WaterMeter:MC0203J22010600005","2024-10-06T07:45:00",19.799,29.841702,0.223],
    [34504,"urn:WaterMeter:MC0203J22010600005","2024-10-06T08:00:00",19.899,29.802525,0.241],
    [34505,"urn:WaterMeter:MC0203J22010600005","2024-10-06T08:15:00",20,29.762571,0.236],
    [34506,"urn:WaterMeter:MC0203J22010600005","2024-10-06T08:30:00",20.2,29.752098,0.23],
    [34507,"urn:WaterMeter:MC0203J22010600005","2024-10-06T08:45:00",20.399,29.699343,0.224],
    [34508,"urn:WaterMeter:MC0203J22010600005","2024-10-06T09:00:00",20.6,29.6462,0.222],
    [34509,"urn:WaterMeter:MC0203J22010600005","2024-10-06T09:15:00",20.899,29.59267,0.22],
    [34510,"urn:WaterMeter:MC0203J22010600005","2024-10-06T09:30:00",21.1,29.575563,0.222],
    [34511,"urn:WaterMeter:MC0203J22010600005","2024-10-06T09:45:00",21.299,29.53565,0.225],
    [34512,"urn:WaterMeter:MC0203J22010600005","2024-10-06T10:00:00",21.5,29.477076,0.205],
    [34513,"urn:WaterMeter:MC0203J22010600005","2024-10-06T10:15:00",21.7,29.395617,0.22],
    [34514,"urn:WaterMeter:MC0203J22010600005","2024-10-06T10:30:00",21.799,29.340147,0.22],
    [34515,"urn:WaterMeter:MC0203J22010600005","2024-10-06T10:45:00",22,29.282738,0.24],
    [34516,"urn:WaterMeter:MC0203J22010600005","2024-10-06T11:00:00",22.2,29.22145,0.215],
    [34517,"urn:WaterMeter:MC0203J22010600005","2024-10-06T11:15:00",22.399,29.128742,0.222],
    [34518,"urn:WaterMeter:MC0203J22010600005","2024-10-06T11:30:00",22.6,29.08491,0.23],
    [34519,"urn:WaterMeter:MC0203J22010600005","2024-10-06T11:45:00",22.899,28.982077,0.225],
    [34520,"urn:WaterMeter:MC0203J22010600005","2024-10-06T12:00:00",23.1,28.891348,0.221],
    [34521,"urn:WaterMeter:MC0203J22010600005","2024-10-06T12:15:00",23.299,28.8467,0.211],
    [34522,"urn:WaterMeter:MC0203J22010600005","2024-10-06T12:30:00",23.399,28.797863,0.234],
    [34523,"urn:WaterMeter:MC0203J22010600005","2024-10-06T12:45:00",23.6,28.656668,0.224],
    [34524,"urn:WaterMeter:MC0203J22010600005","2024-10-06T13:00:00",23.7,28.584518,0.218],
    [34525,"urn:WaterMeter:MC0203J22010600005","2024-10-06T13:15:00",23.899,28.55849,0.215],
    [34526,"urn:WaterMeter:MC0203J22010600005","2024-10-06T13:30:00",24,28.446037,0.21],
    [34527,"urn:WaterMeter:MC0203J22010600005","2024-10-06T13:45:00",24.2,28.413416,0.22],
    [34528,"urn:WaterMeter:MC0203J22010600005","2024-10-06T14:00:00",24.299,28.311825,0.209],
    [34529,"urn:WaterMeter:MC0203J22010600005","2024-10-06T14:15:00",24.299,28.229979,0.208],
    [34530,"urn:WaterMeter:MC0203J22010600005","2024-10-06T14:30:00",24.2,28.165586,0.214],
    [34531,"urn:WaterMeter:MC0203J22010600005","2024-10-06T14:45:00",24.2,28.186882,0.204],
    [34532,"urn:WaterMeter:MC0203J22010600005","2024-10-06T15:00:00",24,28.152786,0.21],
    [34533,"urn:WaterMeter:MC0203J22010600005","2024-10-06T15:15:00",24,28.08723,0.213],
    [34534,"urn:WaterMeter:MC0203J22010600005","2024-10-06T15:30:00",23.899,28.045338,0.205],
    [34535,"urn:WaterMeter:MC0203J22010600005","2024-10-06T15:45:00",23.899,28.069387,0.207],
    [34536,"urn:WaterMeter:MC0203J22010600005","2024-10-06T16:00:00",23.899,27.987928,0.206],
    [34537,"urn:WaterMeter:MC0203J22010600005","2024-10-06T16:15:00",23.799,27.946772,0.214],
    [34538,"urn:WaterMeter:MC0203J22010600005","2024-10-06T16:30:00",23.799,27.925476,0.218],
    [34539,"urn:WaterMeter:MC0203J22010600005","2024-10-06T16:45:00",23.7,27.864576,0.208],
    [34540,"urn:WaterMeter:MC0203J22010600005","2024-10-06T17:00:00",23.7,27.884747,0.221],
    [34541,"urn:WaterMeter:MC0203J22010600005","2024-10-06T17:15:00",23.6,27.86186,0.221],
    [34542,"urn:WaterMeter:MC0203J22010600005","2024-10-06T17:30:00",23.6,27.816477,0.208],
    [34543,"urn:WaterMeter:MC0203J22010600005","2024-10-06T17:45:00",23.5,27.818027,0.208],
    [34544,"urn:WaterMeter:MC0203J22010600005","2024-10-06T18:00:00",23.399,27.866903,0.219],
    [34545,"urn:WaterMeter:MC0203J22010600005","2024-10-06T18:15:00",23.299,27.857166,0.222],
    [34546,"urn:WaterMeter:MC0203J22010600005","2024-10-06T18:30:00",23.299,27.871946,0.209],
    [34547,"urn:WaterMeter:MC0203J22010600005","2024-10-06T18:45:00",23.2,27.87156,0.21],
    [34548,"urn:WaterMeter:MC0203J22010600005","2024-10-06T19:00:00",23.1,27.855267,0.211],
    [34549,"urn:WaterMeter:MC0203J22010600005","2024-10-06T19:15:00",23,27.848284,0.213],
    [34550,"urn:WaterMeter:MC0203J22010600005","2024-10-06T19:30:00",22.899,27.873497,0.206],
    [34551,"urn:WaterMeter:MC0203J22010600005","2024-10-06T19:45:00",22.799,27.877338,0.221],
    [34552,"urn:WaterMeter:MC0203J22010600005","2024-10-06T20:00:00",22.7,27.846344,0.204],
    [34553,"urn:WaterMeter:MC0203J22010600005","2024-10-06T20:15:00",22.6,27.87695,0.207],
    [34554,"urn:WaterMeter:MC0203J22010600005","2024-10-06T20:30:00",22.5,27.88048,0.208],
    [34555,"urn:WaterMeter:MC0203J22010600005","2024-10-06T20:45:00",22.399,27.84941,0.209],
    [34556,"urn:WaterMeter:MC0203J22010600005","2024-10-06T21:00:00",22.299,27.88397,0.212],
    [34557,"urn:WaterMeter:MC0203J22010600005","2024-10-06T21:15:00",22.2,27.87156,0.206],
    [34558,"urn:WaterMeter:MC0203J22010600005","2024-10-06T21:30:00",22.1,27.879278,0.21],
    [34559,"urn:WaterMeter:MC0203J22010600005","2024-10-06T21:45:00",22,27.912289,0.208],
    [34560,"urn:WaterMeter:MC0203J22010600005","2024-10-06T22:00:00",21.899,27.913063,0.218],
    [34561,"urn:WaterMeter:MC0203J22010600005","2024-10-06T22:15:00",21.799,27.853714,0.205],
    [34562,"urn:WaterMeter:MC0203J22010600005","2024-10-06T22:30:00",21.7,27.896345,0.206],
    [34563,"urn:WaterMeter:MC0203J22010600005","2024-10-06T22:45:00",21.6,27.905693,0.211],
    [34564,"urn:WaterMeter:MC0203J22010600005","2024-10-06T23:00:00",21.5,27.907246,0.204],
    [34565,"urn:WaterMeter:MC0203J22010600005","2024-10-06T23:15:00",21.5,27.951466,0.211],
    [34566,"urn:WaterMeter:MC0203J22010600005","2024-10-06T23:30:00",21.399,27.932459,0.207],
    [34567,"urn:WaterMeter:MC0203J22010600005","2024-10-06T23:45:00",21.299,27.92664,0.211],
    [34568,"urn:WaterMeter:MC0203J22010600005","2024-10-07T00:00:00",21.2,27.929356,0.2],
    [34569,"urn:WaterMeter:MC0203J22010600005","2024-10-07T00:15:00",21.1,27.896345,0.221],
    [34570,"urn:WaterMeter:MC0203J22010600005","2024-10-07T00:30:00",21,27.947548,0.218],
    [34571,"urn:WaterMeter:MC0203J22010600005","2024-10-07T00:45:00",21,27.943708,0.211],
    [34572,"urn:WaterMeter:MC0203J22010600005","2024-10-07T01:00:00",20.899,27.935911,0.213],
    [34573,"urn:WaterMeter:MC0203J22010600005","2024-10-07T01:15:00",20.799,27.924313,0.21],
    [34574,"urn:WaterMeter:MC0203J22010600005","2024-10-07T01:30:00",20.7,27.901815,0.208],
    [34575,"urn:WaterMeter:MC0203J22010600005","2024-10-07T01:45:00",20.6,27.934748,0.206],
    [34576,"urn:WaterMeter:MC0203J22010600005","2024-10-07T02:00:00",20.5,27.916904,0.208],
    [34577,"urn:WaterMeter:MC0203J22010600005","2024-10-07T02:15:00",20.5,27.94138,0.218],
    [34578,"urn:WaterMeter:MC0203J22010600005","2024-10-07T02:30:00",20.399,27.953793,0.215],
    [34579,"urn:WaterMeter:MC0203J22010600005","2024-10-07T02:45:00",20.299,27.942156,0.222],
    [34580,"urn:WaterMeter:MC0203J22010600005","2024-10-07T03:00:00",20.2,27.88048,0.212],
    [34581,"urn:WaterMeter:MC0203J22010600005","2024-10-07T03:15:00",20.2,27.924313,0.22],
    [34582,"urn:WaterMeter:MC0203J22010600005","2024-10-07T03:30:00",20.1,27.896345,0.217],
    [34583,"urn:WaterMeter:MC0203J22010600005","2024-10-07T03:45:00",20,27.921986,0.211],
    [34584,"urn:WaterMeter:MC0203J22010600005","2024-10-07T04:00:00",20,27.951853,0.205],
    [34585,"urn:WaterMeter:MC0203J22010600005","2024-10-07T04:15:00",19.899,27.930132,0.215],
    [34586,"urn:WaterMeter:MC0203J22010600005","2024-10-07T04:30:00",19.899,27.922373,0.223],
    [34587,"urn:WaterMeter:MC0203J22010600005","2024-10-07T04:45:00",19.799,27.892506,0.217],
    [34588,"urn:WaterMeter:MC0203J22010600005","2024-10-07T05:00:00",19.799,27.937462,0.216],
    [34589,"urn:WaterMeter:MC0203J22010600005","2024-10-07T05:15:00",19.899,27.906082,0.207],
    [34590,"urn:WaterMeter:MC0203J22010600005","2024-10-07T05:30:00",20,27.946035,0.206],
    [34591,"urn:WaterMeter:MC0203J22010600005","2024-10-07T05:45:00",20,27.926252,0.211],
    [34592,"urn:WaterMeter:MC0203J22010600005","2024-10-07T06:00:00",20,27.939053,0.203],
    [34593,"urn:WaterMeter:MC0203J22010600005","2024-10-07T06:15:00",20,27.921597,0.219],
    [34594,"urn:WaterMeter:MC0203J22010600005","2024-10-07T06:30:00",20,28.598482,0.254],
    [34595,"urn:WaterMeter:MC0203J22010600005","2024-10-07T06:45:00",20.1,30.064358,0.256],
    [34596,"urn:WaterMeter:MC0203J22010600005","2024-10-07T07:00:00",20.1,31.249004,0.267],
    [34597,"urn:WaterMeter:MC0203J22010600005","2024-10-07T07:15:00",20.2,32.336674,0.265],
    [34598,"urn:WaterMeter:MC0203J22010600005","2024-10-07T07:30:00",20.299,33.007355,0.29],
    [34599,"urn:WaterMeter:MC0203J22010600005","2024-10-07T07:45:00",20.399,33.385517,0.283],
    [34600,"urn:WaterMeter:MC0203J22010600005","2024-10-07T08:00:00",20.5,33.616356,0.291],
    [34601,"urn:WaterMeter:MC0203J22010600005","2024-10-07T08:15:00",20.6,33.43715,0.28],
    [34602,"urn:WaterMeter:MC0203J22010600005","2024-10-07T08:30:00",20.799,33.14622,0.269],
    [34603,"urn:WaterMeter:MC0203J22010600005","2024-10-07T08:45:00",20.799,33.03179,0.28],
    [34604,"urn:WaterMeter:MC0203J22010600005","2024-10-07T09:00:00",21,32.98757,0.269],
    [34605,"urn:WaterMeter:MC0203J22010600005","2024-10-07T09:15:00",21.1,32.900253,0.292],
    [34606,"urn:WaterMeter:MC0203J22010600005","2024-10-07T09:30:00",21.1,32.772285,0.269],
    [34607,"urn:WaterMeter:MC0203J22010600005","2024-10-07T09:45:00",21.2,32.753666,0.282],
    [34608,"urn:WaterMeter:MC0203J22010600005","2024-10-07T10:00:00",21.299,32.755608,0.273],
    [34609,"urn:WaterMeter:MC0203J22010600005","2024-10-07T10:15:00",21.399,32.649673,0.274],
    [34610,"urn:WaterMeter:MC0203J22010600005","2024-10-07T10:30:00",21.6,32.575623,0.265],
    [34611,"urn:WaterMeter:MC0203J22010600005","2024-10-07T10:45:00",21.6,32.541874,0.275],
    [34612,"urn:WaterMeter:MC0203J22010600005","2024-10-07T11:00:00",21.7,32.504208,0.283],
    [34613,"urn:WaterMeter:MC0203J22010600005","2024-10-07T11:15:00",21.899,32.40572,0.262],
    [34614,"urn:WaterMeter:MC0203J22010600005","2024-10-07T11:30:00",22.1,32.337063,0.265],
    [34615,"urn:WaterMeter:MC0203J22010600005","2024-10-07T11:45:00",22.2,32.318405,0.267],
    [34616,"urn:WaterMeter:MC0203J22010600005","2024-10-07T12:00:00",22.399,32.278492,0.264],
    [34617,"urn:WaterMeter:MC0203J22010600005","2024-10-07T12:15:00",22.5,32.212547,0.285],
    [34618,"urn:WaterMeter:MC0203J22010600005","2024-10-07T12:30:00",22.5,32.153973,0.264],
    [34619,"urn:WaterMeter:MC0203J22010600005","2024-10-07T12:45:00",22.6,32.096176,0.269],
    [34620,"urn:WaterMeter:MC0203J22010600005","2024-10-07T13:00:00",22.6,32.062042,0.264],
    [34621,"urn:WaterMeter:MC0203J22010600005","2024-10-07T13:15:00",22.6,32.026356,0.263],
    [34622,"urn:WaterMeter:MC0203J22010600005","2024-10-07T13:30:00",22.6,32.019722,0.263],
    [34623,"urn:WaterMeter:MC0203J22010600005","2024-10-07T13:45:00",22.7,31.9608,0.263],
    [34624,"urn:WaterMeter:MC0203J22010600005","2024-10-07T14:00:00",22.7,31.894043,0.26],
    [34625,"urn:WaterMeter:MC0203J22010600005","2024-10-07T14:15:00",22.799,31.905718,0.256],
    [34626,"urn:WaterMeter:MC0203J22010600005","2024-10-07T14:30:00",22.899,31.832792,0.272],
    [34627,"urn:WaterMeter:MC0203J22010600005","2024-10-07T14:45:00",23,31.773832,0.289],
    [34628,"urn:WaterMeter:MC0203J22010600005","2024-10-07T15:00:00",23.1,31.7428,0.261],
    [34629,"urn:WaterMeter:MC0203J22010600005","2024-10-07T15:15:00",23.1,31.691597,0.258],
    [34630,"urn:WaterMeter:MC0203J22010600005","2024-10-07T15:30:00",23.1,31.697378,0.254],
    [34631,"urn:WaterMeter:MC0203J22010600005","2024-10-07T15:45:00",23.1,31.629145,0.252],
    [34632,"urn:WaterMeter:MC0203J22010600005","2024-10-07T16:00:00",23.1,31.601954,0.272],
    [34633,"urn:WaterMeter:MC0203J22010600005","2024-10-07T16:15:00",23.1,31.591908,0.259],
    [34634,"urn:WaterMeter:MC0203J22010600005","2024-10-07T16:30:00",23,31.565918,0.26],
    [34635,"urn:WaterMeter:MC0203J22010600005","2024-10-07T16:45:00",23,31.553118,0.255],
    [34636,"urn:WaterMeter:MC0203J22010600005","2024-10-07T17:00:00",23,31.589191,0.251],
    [34637,"urn:WaterMeter:MC0203J22010600005","2024-10-07T17:15:00",22.899,31.524761,0.256],
    [34638,"urn:WaterMeter:MC0203J22010600005","2024-10-07T17:30:00",22.899,31.533335,0.257],
    [34639,"urn:WaterMeter:MC0203J22010600005","2024-10-07T17:45:00",22.799,31.528679,0.261],
    [34640,"urn:WaterMeter:MC0203J22010600005","2024-10-07T18:00:00",22.7,31.529455,0.27],
    [34641,"urn:WaterMeter:MC0203J22010600005","2024-10-07T18:15:00",22.7,31.510448,0.25],
    [34642,"urn:WaterMeter:MC0203J22010600005","2024-10-07T18:30:00",22.6,31.520922,0.255],
    [34643,"urn:WaterMeter:MC0203J22010600005","2024-10-07T18:45:00",22.6,31.46041,0.246],
    [34644,"urn:WaterMeter:MC0203J22010600005","2024-10-07T19:00:00",22.6,31.518982,0.252],
    [34645,"urn:WaterMeter:MC0203J22010600005","2024-10-07T19:15:00",22.6,31.493769,0.252],
    [34646,"urn:WaterMeter:MC0203J22010600005","2024-10-07T19:30:00",22.5,31.513939,0.263],
    [34647,"urn:WaterMeter:MC0203J22010600005","2024-10-07T19:45:00",22.5,31.481743,0.262],
    [34648,"urn:WaterMeter:MC0203J22010600005","2024-10-07T20:00:00",22.399,31.491829,0.254],
    [34649,"urn:WaterMeter:MC0203J22010600005","2024-10-07T20:15:00",22.399,31.441013,0.258],
    [34650,"urn:WaterMeter:MC0203J22010600005","2024-10-07T20:30:00",22.299,31.487524,0.257],
    [34651,"urn:WaterMeter:MC0203J22010600005","2024-10-07T20:45:00",22.2,31.44179,0.262],
    [34652,"urn:WaterMeter:MC0203J22010600005","2024-10-07T21:00:00",22.2,31.466188,0.248],
    [34653,"urn:WaterMeter:MC0203J22010600005","2024-10-07T21:15:00",22.2,31.473986,0.258],
    [34654,"urn:WaterMeter:MC0203J22010600005","2024-10-07T21:30:00",22.1,31.439035,0.251],
    [34655,"urn:WaterMeter:MC0203J22010600005","2024-10-07T21:45:00",22,31.453426,0.254],
    [34656,"urn:WaterMeter:MC0203J22010600005","2024-10-07T22:00:00",21.799,31.440626,0.253],
    [34657,"urn:WaterMeter:MC0203J22010600005","2024-10-07T22:15:00",21.7,31.454979,0.265],
    [34658,"urn:WaterMeter:MC0203J22010600005","2024-10-07T22:30:00",21.6,31.412697,0.273],
    [34659,"urn:WaterMeter:MC0203J22010600005","2024-10-07T22:45:00",21.5,31.370377,0.27],
    [34660,"urn:WaterMeter:MC0203J22010600005","2024-10-07T23:00:00",21.5,31.413473,0.254],
    [34661,"urn:WaterMeter:MC0203J22010600005","2024-10-07T23:15:00",21.5,31.430153,0.266],
    [34662,"urn:WaterMeter:MC0203J22010600005","2024-10-07T23:30:00",21.399,31.341673,0.264],
    [34663,"urn:WaterMeter:MC0203J22010600005","2024-10-07T23:45:00",21.299,31.39563,0.261],
    [34664,"urn:WaterMeter:MC0203J22010600005","2024-10-08T00:00:00",21.2,31.37313,0.259],
    [34665,"urn:WaterMeter:MC0203J22010600005","2024-10-08T00:15:00",21.1,31.368439,0.259],
    [34666,"urn:WaterMeter:MC0203J22010600005","2024-10-08T00:30:00",21.1,31.312193,0.258],
    [34667,"urn:WaterMeter:MC0203J22010600005","2024-10-08T00:45:00",21,31.330423,0.253],
    [34668,"urn:WaterMeter:MC0203J22010600005","2024-10-08T01:00:00",21,31.289345,0.252],
    [34669,"urn:WaterMeter:MC0203J22010600005","2024-10-08T01:15:00",20.899,31.274605,0.254],
    [34670,"urn:WaterMeter:MC0203J22010600005","2024-10-08T01:30:00",20.799,31.31297,0.261],
    [34671,"urn:WaterMeter:MC0203J22010600005","2024-10-08T01:45:00",20.799,31.302883,0.232],
    [34672,"urn:WaterMeter:MC0203J22010600005","2024-10-08T02:00:00",20.799,31.314558,0.253],
    [34673,"urn:WaterMeter:MC0203J22010600005","2024-10-08T02:15:00",20.7,31.267622,0.255],
    [34674,"urn:WaterMeter:MC0203J22010600005","2024-10-08T02:30:00",20.6,31.270338,0.255],
    [34675,"urn:WaterMeter:MC0203J22010600005","2024-10-08T02:45:00",20.6,31.276157,0.261],
    [34676,"urn:WaterMeter:MC0203J22010600005","2024-10-08T03:00:00",20.5,31.219912,0.254],
    [34677,"urn:WaterMeter:MC0203J22010600005","2024-10-08T03:15:00",20.399,31.226892,0.249],
    [34678,"urn:WaterMeter:MC0203J22010600005","2024-10-08T03:30:00",20.399,31.252457,0.266],
    [34679,"urn:WaterMeter:MC0203J22010600005","2024-10-08T03:45:00",20.299,31.265684,0.251],
    [34680,"urn:WaterMeter:MC0203J22010600005","2024-10-08T04:00:00",20.2,31.264093,0.261],
    [34681,"urn:WaterMeter:MC0203J22010600005","2024-10-08T04:15:00",20.1,31.235388,0.25],
    [34682,"urn:WaterMeter:MC0203J22010600005","2024-10-08T04:30:00",20.1,31.211765,0.253],
    [34683,"urn:WaterMeter:MC0203J22010600005","2024-10-08T04:45:00",20,31.217972,0.246],
    [34684,"urn:WaterMeter:MC0203J22010600005","2024-10-08T05:00:00",19.899,31.252844,0.268],
    [34685,"urn:WaterMeter:MC0203J22010600005","2024-10-08T05:15:00",19.899,31.272627,0.256],
    [34686,"urn:WaterMeter:MC0203J22010600005","2024-10-08T05:30:00",19.899,31.427011,0.256],
    [34687,"urn:WaterMeter:MC0203J22010600005","2024-10-08T05:45:00",19.899,31.801373,0.262],
    [34688,"urn:WaterMeter:MC0203J22010600005","2024-10-08T06:00:00",19.899,32.659756,0.271],
    [34689,"urn:WaterMeter:MC0203J22010600005","2024-10-08T06:15:00",19.899,33.41616,0.256],
    [34690,"urn:WaterMeter:MC0203J22010600005","2024-10-08T06:30:00",19.799,33.867718,0.308],
    [34691,"urn:WaterMeter:MC0203J22010600005","2024-10-08T06:45:00",19.799,34.235447,0.286],
    [34692,"urn:WaterMeter:MC0203J22010600005","2024-10-08T07:00:00",19.799,34.466248,0.297],
    [34693,"urn:WaterMeter:MC0203J22010600005","2024-10-08T07:15:00",19.799,34.631493,0.293],
    [34694,"urn:WaterMeter:MC0203J22010600005","2024-10-08T07:30:00",19.799,34.74088,0.313],
    [34695,"urn:WaterMeter:MC0203J22010600005","2024-10-08T07:45:00",19.799,34.917336,0.299],
    [34696,"urn:WaterMeter:MC0203J22010600005","2024-10-08T08:00:00",19.899,35.024048,0.299],
    [34697,"urn:WaterMeter:MC0203J22010600005","2024-10-08T08:15:00",20,34.72769,0.294],
    [34698,"urn:WaterMeter:MC0203J22010600005","2024-10-08T08:30:00",20,34.300613,0.302],
    [34699,"urn:WaterMeter:MC0203J22010600005","2024-10-08T08:45:00",20.1,34.11287,0.284],
    [34700,"urn:WaterMeter:MC0203J22010600005","2024-10-08T09:00:00",20.1,33.871555,0.313],
    [34701,"urn:WaterMeter:MC0203J22010600005","2024-10-08T09:15:00",20.1,33.850224,0.296],
    [34702,"urn:WaterMeter:MC0203J22010600005","2024-10-08T09:30:00",20.2,33.707863,0.285],
    [34703,"urn:WaterMeter:MC0203J22010600005","2024-10-08T09:45:00",20.299,33.60472,0.279],
    [34704,"urn:WaterMeter:MC0203J22010600005","2024-10-08T10:00:00",20.399,33.51783,0.295],
    [34705,"urn:WaterMeter:MC0203J22010600005","2024-10-08T10:15:00",20.5,33.493004,0.277],
    [34706,"urn:WaterMeter:MC0203J22010600005","2024-10-08T10:30:00",20.6,33.387844,0.281],
    [34707,"urn:WaterMeter:MC0203J22010600005","2024-10-08T10:45:00",20.799,33.36884,0.297],
    [34708,"urn:WaterMeter:MC0203J22010600005","2024-10-08T11:00:00",20.899,33.268024,0.292],
    [34709,"urn:WaterMeter:MC0203J22010600005","2024-10-08T11:15:00",21.1,33.195484,0.298],
    [34710,"urn:WaterMeter:MC0203J22010600005","2024-10-08T11:30:00",21.299,33.09114,0.28],
    [34711,"urn:WaterMeter:MC0203J22010600005","2024-10-08T11:45:00",21.5,33.009644,0.304],
    [34712,"urn:WaterMeter:MC0203J22010600005","2024-10-08T12:00:00",21.6,32.95305,0.272],
    [34713,"urn:WaterMeter:MC0203J22010600005","2024-10-08T12:15:00",21.7,32.902584,0.276],
    [34714,"urn:WaterMeter:MC0203J22010600005","2024-10-08T12:30:00",21.799,32.787415,0.272],
    [34715,"urn:WaterMeter:MC0203J22010600005","2024-10-08T12:45:00",21.799,32.77729,0.29],
    [34716,"urn:WaterMeter:MC0203J22010600005","2024-10-08T13:00:00",21.899,32.71992,0.274],
    [34717,"urn:WaterMeter:MC0203J22010600005","2024-10-08T13:15:00",22,32.615574,0.266],
    [34718,"urn:WaterMeter:MC0203J22010600005","2024-10-08T13:30:00",22,32.552696,0.275],
    [34719,"urn:WaterMeter:MC0203J22010600005","2024-10-08T13:45:00",22,32.49998,0.267],
    [34720,"urn:WaterMeter:MC0203J22010600005","2024-10-08T14:00:00",22.1,32.44878,0.267],
    [34721,"urn:WaterMeter:MC0203J22010600005","2024-10-08T14:15:00",22.1,32.436325,0.264],
    [34722,"urn:WaterMeter:MC0203J22010600005","2024-10-08T14:30:00",22.1,32.389816,0.263],
    [34723,"urn:WaterMeter:MC0203J22010600005","2024-10-08T14:45:00",22.1,32.2847,0.262],
    [34724,"urn:WaterMeter:MC0203J22010600005","2024-10-08T15:00:00",22.1,32.255604,0.265],
    [34725,"urn:WaterMeter:MC0203J22010600005","2024-10-08T15:15:00",22.1,32.22845,0.289],
    [34726,"urn:WaterMeter:MC0203J22010600005","2024-10-08T15:30:00",22,32.18074,0.262],
    [34727,"urn:WaterMeter:MC0203J22010600005","2024-10-08T15:45:00",22,32.10545,0.278],
    [34728,"urn:WaterMeter:MC0203J22010600005","2024-10-08T16:00:00",21.899,32.10122,0.261],
    [34729,"urn:WaterMeter:MC0203J22010600005","2024-10-08T16:15:00",21.899,32.082214,0.262],
    [34730,"urn:WaterMeter:MC0203J22010600005","2024-10-08T16:30:00",21.799,32.033726,0.281],
    [34731,"urn:WaterMeter:MC0203J22010600005","2024-10-08T16:45:00",21.799,32.033726,0.263],
    [34732,"urn:WaterMeter:MC0203J22010600005","2024-10-08T17:00:00",21.7,32.04028,0.265],
    [34733,"urn:WaterMeter:MC0203J22010600005","2024-10-08T17:15:00",21.6,32.010414,0.26],
    [34734,"urn:WaterMeter:MC0203J22010600005","2024-10-08T17:30:00",21.5,32.002304,0.277],
    [34735,"urn:WaterMeter:MC0203J22010600005","2024-10-08T17:45:00",21.399,31.948,0.272],
    [34736,"urn:WaterMeter:MC0203J22010600005","2024-10-08T18:00:00",21.299,31.939466,0.278],
    [34737,"urn:WaterMeter:MC0203J22010600005","2024-10-08T18:15:00",21.2,31.94412,0.292],
    [34738,"urn:WaterMeter:MC0203J22010600005","2024-10-08T18:30:00",21.1,31.970072,0.257],
    [34739,"urn:WaterMeter:MC0203J22010600005","2024-10-08T18:45:00",21,31.9499,0.261],
    [34740,"urn:WaterMeter:MC0203J22010600005","2024-10-08T19:00:00",20.899,31.95184,0.265],
    [34741,"urn:WaterMeter:MC0203J22010600005","2024-10-08T19:15:00",20.799,31.963516,0.264],
    [34742,"urn:WaterMeter:MC0203J22010600005","2024-10-08T19:30:00",20.7,31.961536,0.267],
    [34743,"urn:WaterMeter:MC0203J22010600005","2024-10-08T19:45:00",20.6,31.9255,0.259],
    [34744,"urn:WaterMeter:MC0203J22010600005","2024-10-08T20:00:00",20.5,31.914213,0.269],
    [34745,"urn:WaterMeter:MC0203J22010600005","2024-10-08T20:15:00",20.5,31.895634,0.272],
    [34746,"urn:WaterMeter:MC0203J22010600005","2024-10-08T20:30:00",20.399,31.920458,0.263],
    [34747,"urn:WaterMeter:MC0203J22010600005","2024-10-08T20:45:00",20.299,31.939854,0.26],
    [34748,"urn:WaterMeter:MC0203J22010600005","2024-10-08T21:00:00",20.2,31.95184,0.261],
    [34749,"urn:WaterMeter:MC0203J22010600005","2024-10-08T21:15:00",20.2,31.907658,0.27],
    [34750,"urn:WaterMeter:MC0203J22010600005","2024-10-08T21:30:00",20.1,31.89602,0.261],
    [34751,"urn:WaterMeter:MC0203J22010600005","2024-10-08T21:45:00",20,31.913826,0.261],
    [34752,"urn:WaterMeter:MC0203J22010600005","2024-10-08T22:00:00",19.899,31.911497,0.271],
    [34753,"urn:WaterMeter:MC0203J22010600005","2024-10-08T22:15:00",19.799,31.906494,0.255],
    [34754,"urn:WaterMeter:MC0203J22010600005","2024-10-08T22:30:00",19.7,31.89796,0.281],
    [34755,"urn:WaterMeter:MC0203J22010600005","2024-10-08T22:45:00",19.6,31.915417,0.273],
    [34756,"urn:WaterMeter:MC0203J22010600005","2024-10-08T23:00:00",19.5,31.95692,0.276],
    [34757,"urn:WaterMeter:MC0203J22010600005","2024-10-08T23:15:00",19.5,31.882832,0.262],
    [34758,"urn:WaterMeter:MC0203J22010600005","2024-10-08T23:30:00",19.299,31.920458,0.269],
    [34759,"urn:WaterMeter:MC0203J22010600005","2024-10-08T23:45:00",19.2,31.89249,0.272],
    [34760,"urn:WaterMeter:MC0203J22010600005","2024-10-09T00:00:00",19.1,31.87232,0.268],
    [34761,"urn:WaterMeter:MC0203J22010600005","2024-10-09T00:15:00",19.1,31.882444,0.265],
    [34762,"urn:WaterMeter:MC0203J22010600005","2024-10-09T00:30:00",19,31.930117,0.256],
    [34763,"urn:WaterMeter:MC0203J22010600005","2024-10-09T00:45:00",18.899,31.90374,0.263],
    [34764,"urn:WaterMeter:MC0203J22010600005","2024-10-09T01:00:00",18.899,31.871584,0.259],
    [34765,"urn:WaterMeter:MC0203J22010600005","2024-10-09T01:15:00",18.799,31.871584,0.261],
    [34766,"urn:WaterMeter:MC0203J22010600005","2024-10-09T01:30:00",18.799,31.851025,0.251],
    [34767,"urn:WaterMeter:MC0203J22010600005","2024-10-09T01:45:00",18.7,31.900675,0.248],
    [34768,"urn:WaterMeter:MC0203J22010600005","2024-10-09T02:00:00",18.6,31.89249,0.264],
    [34769,"urn:WaterMeter:MC0203J22010600005","2024-10-09T02:15:00",18.6,31.889814,0.263],
    [34770,"urn:WaterMeter:MC0203J22010600005","2024-10-09T02:30:00",18.5,31.869644,0.259],
    [34771,"urn:WaterMeter:MC0203J22010600005","2024-10-09T02:45:00",18.5,31.854864,0.251],
    [34772,"urn:WaterMeter:MC0203J22010600005","2024-10-09T03:00:00",18.399,31.897572,0.258],
    [34773,"urn:WaterMeter:MC0203J22010600005","2024-10-09T03:15:00",18.299,31.876625,0.256],
    [34774,"urn:WaterMeter:MC0203J22010600005","2024-10-09T03:30:00",18.299,31.836245,0.261],
    [34775,"urn:WaterMeter:MC0203J22010600005","2024-10-09T03:45:00",18.2,31.837448,0.271],
    [34776,"urn:WaterMeter:MC0203J22010600005","2024-10-09T04:00:00",18.1,31.842491,0.273],
    [34777,"urn:WaterMeter:MC0203J22010600005","2024-10-09T04:15:00",18.1,31.849472,0.257],
    [34778,"urn:WaterMeter:MC0203J22010600005","2024-10-09T04:30:00",18,31.817665,0.261],
    [34779,"urn:WaterMeter:MC0203J22010600005","2024-10-09T04:45:00",18,31.823095,0.261],
    [34780,"urn:WaterMeter:MC0203J22010600005","2024-10-09T05:00:00",18,31.843266,0.257],
    [34781,"urn:WaterMeter:MC0203J22010600005","2024-10-09T05:15:00",18.1,31.799433,0.256],
    [34782,"urn:WaterMeter:MC0203J22010600005","2024-10-09T05:30:00",18.299,31.961536,0.266],
    [34783,"urn:WaterMeter:MC0203J22010600005","2024-10-09T05:45:00",18.299,32.53175,0.27],
    [34784,"urn:WaterMeter:MC0203J22010600005","2024-10-09T06:00:00",18.399,33.457317,0.273],
    [34785,"urn:WaterMeter:MC0203J22010600005","2024-10-09T06:15:00",18.399,34.015896,0.307],
    [34786,"urn:WaterMeter:MC0203J22010600005","2024-10-09T06:30:00",18.399,34.423576,0.303],
    [34787,"urn:WaterMeter:MC0203J22010600005","2024-10-09T06:45:00",18.5,34.703255,0.299],
    [34788,"urn:WaterMeter:MC0203J22010600005","2024-10-09T07:00:00",18.5,34.946854,0.299],
    [34789,"urn:WaterMeter:MC0203J22010600005","2024-10-09T07:15:00",18.6,35.121796,0.308],
    [34790,"urn:WaterMeter:MC0203J22010600005","2024-10-09T07:30:00",18.6,35.27618,0.324],
    [34791,"urn:WaterMeter:MC0203J22010600005","2024-10-09T07:45:00",18.7,35.419704,0.304],
    [34792,"urn:WaterMeter:MC0203J22010600005","2024-10-09T08:00:00",18.799,35.63848,0.311],
    [34793,"urn:WaterMeter:MC0203J22010600005","2024-10-09T08:15:00",18.899,35.181496,0.315],
    [34794,"urn:WaterMeter:MC0203J22010600005","2024-10-09T08:30:00",19,34.83824,0.305],
    [34795,"urn:WaterMeter:MC0203J22010600005","2024-10-09T08:45:00",19,34.5446,0.301],
    [34796,"urn:WaterMeter:MC0203J22010600005","2024-10-09T09:00:00",19,34.437153,0.299],
    [34797,"urn:WaterMeter:MC0203J22010600005","2024-10-09T09:15:00",19.1,34.35104,0.298],
    [34798,"urn:WaterMeter:MC0203J22010600005","2024-10-09T09:30:00",19.2,34.352978,0.313],
    [34799,"urn:WaterMeter:MC0203J22010600005","2024-10-09T09:45:00",19.299,34.207905,0.28],
    [34800,"urn:WaterMeter:MC0203J22010600005","2024-10-09T10:00:00",19.399,34.20127,0.272],
    [34801,"urn:WaterMeter:MC0203J22010600005","2024-10-09T10:15:00",19.6,34.096966,0.301],
    [34802,"urn:WaterMeter:MC0203J22010600005","2024-10-09T10:30:00",19.799,33.799057,0.288],
    [34803,"urn:WaterMeter:MC0203J22010600005","2024-10-09T10:45:00",19.899,33.677994,0.274],
    [34804,"urn:WaterMeter:MC0203J22010600005","2024-10-09T11:00:00",20.1,33.62489,0.275],
    [34805,"urn:WaterMeter:MC0203J22010600005","2024-10-09T11:15:00",20.1,33.555843,0.274],
    [34806,"urn:WaterMeter:MC0203J22010600005","2024-10-09T11:30:00",20.2,33.467793,0.282],
    [34807,"urn:WaterMeter:MC0203J22010600005","2024-10-09T11:45:00",20.299,33.389435,0.278],
    [34808,"urn:WaterMeter:MC0203J22010600005","2024-10-09T12:00:00",20.399,33.320778,0.285],
    [34809,"urn:WaterMeter:MC0203J22010600005","2024-10-09T12:15:00",20.5,33.20014,0.28],
    [34810,"urn:WaterMeter:MC0203J22010600005","2024-10-09T12:30:00",20.5,33.200527,0.27],
    [34811,"urn:WaterMeter:MC0203J22010600005","2024-10-09T12:45:00",20.6,33.131096,0.283],
    [34812,"urn:WaterMeter:MC0203J22010600005","2024-10-09T13:00:00",20.6,33.128765,0.298],
    [34813,"urn:WaterMeter:MC0203J22010600005","2024-10-09T13:15:00",20.6,33.051964,0.271],
    [34814,"urn:WaterMeter:MC0203J22010600005","2024-10-09T13:30:00",20.7,33.007744,0.279],
    [34815,"urn:WaterMeter:MC0203J22010600005","2024-10-09T13:45:00",20.7,32.99339,0.273],
    [34816,"urn:WaterMeter:MC0203J22010600005","2024-10-09T14:00:00",20.7,32.90103,0.267],
    [34817,"urn:WaterMeter:MC0203J22010600005","2024-10-09T14:15:00",20.7,32.88439,0.267],
    [34818,"urn:WaterMeter:MC0203J22010600005","2024-10-09T14:30:00",20.7,32.832024,0.271],
    [34819,"urn:WaterMeter:MC0203J22010600005","2024-10-09T14:45:00",20.7,32.786987,0.286],
    [34820,"urn:WaterMeter:MC0203J22010600005","2024-10-09T15:00:00",20.7,32.77151,0.282],
    [34821,"urn:WaterMeter:MC0203J22010600005","2024-10-09T15:15:00",20.799,32.759872,0.269],
    [34822,"urn:WaterMeter:MC0203J22010600005","2024-10-09T15:30:00",20.799,32.66984,0.278],
    [34823,"urn:WaterMeter:MC0203J22010600005","2024-10-09T15:45:00",20.799,32.687298,0.275],
    [34824,"urn:WaterMeter:MC0203J22010600005","2024-10-09T16:00:00",20.799,32.625275,0.277],
    [34825,"urn:WaterMeter:MC0203J22010600005","2024-10-09T16:15:00",20.799,32.592262,0.281],
    [34826,"urn:WaterMeter:MC0203J22010600005","2024-10-09T16:30:00",20.799,32.60743,0.294],
    [34827,"urn:WaterMeter:MC0203J22010600005","2024-10-09T16:45:00",20.799,32.587257,0.291],
    [34828,"urn:WaterMeter:MC0203J22010600005","2024-10-09T17:00:00",20.7,32.52946,0.274],
    [34829,"urn:WaterMeter:MC0203J22010600005","2024-10-09T17:15:00",20.7,32.53683,0.268],
    [34830,"urn:WaterMeter:MC0203J22010600005","2024-10-09T17:30:00",20.6,32.554676,0.267],
    [34831,"urn:WaterMeter:MC0203J22010600005","2024-10-09T17:45:00",20.6,32.521317,0.281],
    [34832,"urn:WaterMeter:MC0203J22010600005","2024-10-09T18:00:00",20.5,32.455334,0.274],
    [34833,"urn:WaterMeter:MC0203J22010600005","2024-10-09T18:15:00",20.5,32.49529,0.275],
    [34834,"urn:WaterMeter:MC0203J22010600005","2024-10-09T18:30:00",20.5,32.514683,0.28],
    [34835,"urn:WaterMeter:MC0203J22010600005","2024-10-09T18:45:00",20.399,32.491837,0.266],
    [34836,"urn:WaterMeter:MC0203J22010600005","2024-10-09T19:00:00",20.399,32.405334,0.266],
    [34837,"urn:WaterMeter:MC0203J22010600005","2024-10-09T19:15:00",20.399,32.4096,0.262],
    [34838,"urn:WaterMeter:MC0203J22010600005","2024-10-09T19:30:00",20.399,32.413868,0.28],
    [34839,"urn:WaterMeter:MC0203J22010600005","2024-10-09T19:45:00",20.399,32.42977,0.263],
    [34840,"urn:WaterMeter:MC0203J22010600005","2024-10-09T20:00:00",20.399,32.432873,0.284],
    [34841,"urn:WaterMeter:MC0203J22010600005","2024-10-09T20:15:00",20.399,32.401455,0.26],
    [34842,"urn:WaterMeter:MC0203J22010600005","2024-10-09T20:30:00",20.5,32.333572,0.268],
    [34843,"urn:WaterMeter:MC0203J22010600005","2024-10-09T20:45:00",20.6,32.321507,0.26],
    [34844,"urn:WaterMeter:MC0203J22010600005","2024-10-09T21:00:00",20.6,32.30293,0.267],
    [34845,"urn:WaterMeter:MC0203J22010600005","2024-10-09T21:15:00",20.7,32.31918,0.268],
    [34846,"urn:WaterMeter:MC0203J22010600005","2024-10-09T21:30:00",20.7,32.290863,0.277],
    [34847,"urn:WaterMeter:MC0203J22010600005","2024-10-09T21:45:00",20.7,32.229614,0.264],
    [34848,"urn:WaterMeter:MC0203J22010600005","2024-10-09T22:00:00",20.799,32.23423,0.26],
    [34849,"urn:WaterMeter:MC0203J22010600005","2024-10-09T22:15:00",20.799,32.21759,0.267],
    [34850,"urn:WaterMeter:MC0203J22010600005","2024-10-09T22:30:00",20.799,32.25017,0.259],
    [34851,"urn:WaterMeter:MC0203J22010600005","2024-10-09T22:45:00",20.799,32.20634,0.263],
    [34852,"urn:WaterMeter:MC0203J22010600005","2024-10-09T23:00:00",20.799,32.166348,0.26],
    [34853,"urn:WaterMeter:MC0203J22010600005","2024-10-09T23:15:00",20.799,32.17527,0.259],
    [34854,"urn:WaterMeter:MC0203J22010600005","2024-10-09T23:30:00",20.799,32.15665,0.267],
    [34855,"urn:WaterMeter:MC0203J22010600005","2024-10-09T23:45:00",20.799,32.099667,0.261],
    [34856,"urn:WaterMeter:MC0203J22010600005","2024-10-10T00:00:00",20.799,32.15281,0.263],
    [34857,"urn:WaterMeter:MC0203J22010600005","2024-10-10T00:15:00",20.799,32.118675,0.267],
    [34858,"urn:WaterMeter:MC0203J22010600005","2024-10-10T00:30:00",20.799,32.0826,0.264],
    [34859,"urn:WaterMeter:MC0203J22010600005","2024-10-10T00:45:00",20.799,32.051956,0.258],
    [34860,"urn:WaterMeter:MC0203J22010600005","2024-10-10T01:00:00",20.7,32.07329,0.267],
    [34861,"urn:WaterMeter:MC0203J22010600005","2024-10-10T01:15:00",20.7,32.06049,0.258],
    [34862,"urn:WaterMeter:MC0203J22010600005","2024-10-10T01:30:00",20.6,32.000328,0.297],
    [34863,"urn:WaterMeter:MC0203J22010600005","2024-10-10T01:45:00",20.5,32.022087,0.266],
    [34864,"urn:WaterMeter:MC0203J22010600005","2024-10-10T02:00:00",20.399,32.0589,0.288],
    [34865,"urn:WaterMeter:MC0203J22010600005","2024-10-10T02:15:00",20.299,32.077908,0.258],
    [34866,"urn:WaterMeter:MC0203J22010600005","2024-10-10T02:30:00",20.2,32.05661,0.258],
    [34867,"urn:WaterMeter:MC0203J22010600005","2024-10-10T02:45:00",20.1,31.991405,0.268],
    [34868,"urn:WaterMeter:MC0203J22010600005","2024-10-10T03:00:00",20,32.05312,0.257],
    [34869,"urn:WaterMeter:MC0203J22010600005","2024-10-10T03:15:00",19.899,32.049202,0.257],
    [34870,"urn:WaterMeter:MC0203J22010600005","2024-10-10T03:30:00",19.899,32.03528,0.279],
    [34871,"urn:WaterMeter:MC0203J22010600005","2024-10-10T03:45:00",19.799,31.993383,0.258],
    [34872,"urn:WaterMeter:MC0203J22010600005","2024-10-10T04:00:00",19.799,31.991018,0.269],
    [34873,"urn:WaterMeter:MC0203J22010600005","2024-10-10T04:15:00",19.7,32.020496,0.265],
    [34874,"urn:WaterMeter:MC0203J22010600005","2024-10-10T04:30:00",19.7,32.006184,0.257],
    [34875,"urn:WaterMeter:MC0203J22010600005","2024-10-10T04:45:00",19.6,32.02942,0.259],
    [34876,"urn:WaterMeter:MC0203J22010600005","2024-10-10T05:00:00",19.6,31.978643,0.257],
    [34877,"urn:WaterMeter:MC0203J22010600005","2024-10-10T05:15:00",19.7,32.022087,0.26],
    [34878,"urn:WaterMeter:MC0203J22010600005","2024-10-10T05:30:00",19.799,32.279613,0.264],
    [34879,"urn:WaterMeter:MC0203J22010600005","2024-10-10T05:45:00",19.799,32.98055,0.272],
    [34880,"urn:WaterMeter:MC0203J22010600005","2024-10-10T06:00:00",19.799,33.823456,0.28],
    [34881,"urn:WaterMeter:MC0203J22010600005","2024-10-10T06:15:00",19.799,34.26415,0.294],
    [34882,"urn:WaterMeter:MC0203J22010600005","2024-10-10T06:30:00",19.799,34.54538,0.316],
    [34883,"urn:WaterMeter:MC0203J22010600005","2024-10-10T06:45:00",19.7,34.74278,0.337],
    [34884,"urn:WaterMeter:MC0203J22010600005","2024-10-10T07:00:00",19.799,34.956512,0.305],
    [34885,"urn:WaterMeter:MC0203J22010600005","2024-10-10T07:15:00",19.799,35.10861,0.328],
    [34886,"urn:WaterMeter:MC0203J22010600005","2024-10-10T07:30:00",19.899,35.159813,0.319],
    [34887,"urn:WaterMeter:MC0203J22010600005","2024-10-10T07:45:00",19.899,35.277344,0.328],
    [34888,"urn:WaterMeter:MC0203J22010600005","2024-10-10T08:00:00",20,35.35415,0.307],
    [34889,"urn:WaterMeter:MC0203J22010600005","2024-10-10T08:15:00",19.899,35.02172,0.299],
    [34890,"urn:WaterMeter:MC0203J22010600005","2024-10-10T08:30:00",19.899,34.59658,0.332],
    [34891,"urn:WaterMeter:MC0203J22010600005","2024-10-10T08:45:00",19.899,34.459652,0.313],
    [34892,"urn:WaterMeter:MC0203J22010600005","2024-10-10T09:00:00",19.899,34.311474,0.291],
    [34893,"urn:WaterMeter:MC0203J22010600005","2024-10-10T09:15:00",19.899,34.19394,0.291],
    [34894,"urn:WaterMeter:MC0203J22010600005","2024-10-10T09:30:00",19.899,34.10162,0.291],
    [34895,"urn:WaterMeter:MC0203J22010600005","2024-10-10T09:45:00",19.899,34.063953,0.285],
    [34896,"urn:WaterMeter:MC0203J22010600005","2024-10-10T10:00:00",20,34.00771,0.285],
    [34897,"urn:WaterMeter:MC0203J22010600005","2024-10-10T10:15:00",20.1,33.849873,0.282],
    [34898,"urn:WaterMeter:MC0203J22010600005","2024-10-10T10:30:00",20.2,33.78936,0.282],
    [34899,"urn:WaterMeter:MC0203J22010600005","2024-10-10T10:45:00",20.299,33.667908,0.279],
    [34900,"urn:WaterMeter:MC0203J22010600005","2024-10-10T11:00:00",20.399,33.627995,0.284],
    [34901,"urn:WaterMeter:MC0203J22010600005","2024-10-10T11:15:00",20.299,33.553516,0.281],
    [34902,"urn:WaterMeter:MC0203J22010600005","2024-10-10T11:30:00",20.299,33.422794,0.289],
    [34903,"urn:WaterMeter:MC0203J22010600005","2024-10-10T11:45:00",20.399,33.426247,0.301],
    [34904,"urn:WaterMeter:MC0203J22010600005","2024-10-10T12:00:00",20.6,33.352974,0.284],
    [34905,"urn:WaterMeter:MC0203J22010600005","2024-10-10T12:15:00",20.7,33.229584,0.272],
    [34906,"urn:WaterMeter:MC0203J22010600005","2024-10-10T12:30:00",20.899,33.20208,0.274],
    [34907,"urn:WaterMeter:MC0203J22010600005","2024-10-10T12:45:00",21.1,33.101616,0.277],
    [34908,"urn:WaterMeter:MC0203J22010600005","2024-10-10T13:00:00",21.2,33.06515,0.291],
    [34909,"urn:WaterMeter:MC0203J22010600005","2024-10-10T13:15:00",21.2,33.022095,0.278],
    [34910,"urn:WaterMeter:MC0203J22010600005","2024-10-10T13:30:00",21.299,32.918137,0.278],
    [34911,"urn:WaterMeter:MC0203J22010600005","2024-10-10T13:45:00",21.2,32.870815,0.285],
    [34912,"urn:WaterMeter:MC0203J22010600005","2024-10-10T14:00:00",21.1,32.835087,0.281],
    [34913,"urn:WaterMeter:MC0203J22010600005","2024-10-10T14:15:00",21.1,32.82155,0.272],
    [34914,"urn:WaterMeter:MC0203J22010600005","2024-10-10T14:30:00",21,32.728027,0.301],
    [34915,"urn:WaterMeter:MC0203J22010600005","2024-10-10T14:45:00",20.899,32.71255,0.269],
    [34916,"urn:WaterMeter:MC0203J22010600005","2024-10-10T15:00:00",20.899,32.664062,0.281],
    [34917,"urn:WaterMeter:MC0203J22010600005","2024-10-10T15:15:00",20.799,32.664062,0.27],
    [34918,"urn:WaterMeter:MC0203J22010600005","2024-10-10T15:30:00",20.799,32.60549,0.269],
    [34919,"urn:WaterMeter:MC0203J22010600005","2024-10-10T15:45:00",20.7,32.60196,0.266],
    [34920,"urn:WaterMeter:MC0203J22010600005","2024-10-10T16:00:00",20.7,32.54808,0.269],
    [34921,"urn:WaterMeter:MC0203J22010600005","2024-10-10T16:15:00",20.7,32.55002,0.275],
    [34922,"urn:WaterMeter:MC0203J22010600005","2024-10-10T16:30:00",20.6,32.533302,0.281],
    [34923,"urn:WaterMeter:MC0203J22010600005","2024-10-10T16:45:00",20.6,32.472054,0.267],
    [34924,"urn:WaterMeter:MC0203J22010600005","2024-10-10T17:00:00",20.6,32.479424,0.27],
    [34925,"urn:WaterMeter:MC0203J22010600005","2024-10-10T17:15:00",20.6,32.474342,0.285],
    [34926,"urn:WaterMeter:MC0203J22010600005","2024-10-10T17:30:00",20.5,32.4577,0.271],
    [34927,"urn:WaterMeter:MC0203J22010600005","2024-10-10T17:45:00",20.399,32.41693,0.268],
    [34928,"urn:WaterMeter:MC0203J22010600005","2024-10-10T18:00:00",20.2,32.3987,0.268],
    [34929,"urn:WaterMeter:MC0203J22010600005","2024-10-10T18:15:00",20.1,32.375076,0.296],
    [34930,"urn:WaterMeter:MC0203J22010600005","2024-10-10T18:30:00",20,32.401844,0.281],
    [34931,"urn:WaterMeter:MC0203J22010600005","2024-10-10T18:45:00",20,32.352577,0.278],
    [34932,"urn:WaterMeter:MC0203J22010600005","2024-10-10T19:00:00",19.899,32.359135,0.263],
    [34933,"urn:WaterMeter:MC0203J22010600005","2024-10-10T19:15:00",19.799,32.377754,0.267],
    [34934,"urn:WaterMeter:MC0203J22010600005","2024-10-10T19:30:00",19.7,32.403008,0.264],
    [34935,"urn:WaterMeter:MC0203J22010600005","2024-10-10T19:45:00",19.6,32.369995,0.27],
    [34936,"urn:WaterMeter:MC0203J22010600005","2024-10-10T20:00:00",19.6,32.32814,0.278],
    [34937,"urn:WaterMeter:MC0203J22010600005","2024-10-10T20:15:00",19.5,32.307972,0.28],
    [34938,"urn:WaterMeter:MC0203J22010600005","2024-10-10T20:30:00",19.299,32.32426,0.269],
    [34939,"urn:WaterMeter:MC0203J22010600005","2024-10-10T20:45:00",19.2,32.33974,0.273],
    [34940,"urn:WaterMeter:MC0203J22010600005","2024-10-10T21:00:00",19.1,32.318794,0.276],
    [34941,"urn:WaterMeter:MC0203J22010600005","2024-10-10T21:15:00",19,32.33551,0.266],
    [34942,"urn:WaterMeter:MC0203J22010600005","2024-10-10T21:30:00",18.899,32.3359,0.269],
    [34943,"urn:WaterMeter:MC0203J22010600005","2024-10-10T21:45:00",18.799,32.3134,0.273],
    [34944,"urn:WaterMeter:MC0203J22010600005","2024-10-10T22:00:00",18.7,32.299786,0.283],
    [34945,"urn:WaterMeter:MC0203J22010600005","2024-10-10T22:15:00",18.6,32.27345,0.271],
    [34946,"urn:WaterMeter:MC0203J22010600005","2024-10-10T22:30:00",18.5,32.25871,0.289],
    [34947,"urn:WaterMeter:MC0203J22010600005","2024-10-10T22:45:00",18.399,32.27616,0.262],
    [34948,"urn:WaterMeter:MC0203J22010600005","2024-10-10T23:00:00",18.299,32.30095,0.263],
    [34949,"urn:WaterMeter:MC0203J22010600005","2024-10-10T23:15:00",18.299,32.23931,0.266],
    [34950,"urn:WaterMeter:MC0203J22010600005","2024-10-10T23:30:00",18.2,32.274223,0.27],
    [34951,"urn:WaterMeter:MC0203J22010600005","2024-10-10T23:45:00",18.1,32.27345,0.277],
    [34952,"urn:WaterMeter:MC0203J22010600005","2024-10-11T00:00:00",18,32.26569,0.275],
    [34953,"urn:WaterMeter:MC0203J22010600005","2024-10-11T00:15:00",17.899,32.30681,0.284],
    [34954,"urn:WaterMeter:MC0203J22010600005","2024-10-11T00:30:00",17.899,32.280777,0.276],
    [34955,"urn:WaterMeter:MC0203J22010600005","2024-10-11T00:45:00",17.799,32.273834,0.279],
    [34956,"urn:WaterMeter:MC0203J22010600005","2024-10-11T01:00:00",17.7,32.27694,0.278],
    [34957,"urn:WaterMeter:MC0203J22010600005","2024-10-11T01:15:00",17.6,32.240437,0.267],
    [34958,"urn:WaterMeter:MC0203J22010600005","2024-10-11T01:30:00",17.5,32.22806,0.27],
    [34959,"urn:WaterMeter:MC0203J22010600005","2024-10-11T01:45:00",17.5,32.218365,0.26],
    [34960,"urn:WaterMeter:MC0203J22010600005","2024-10-11T02:00:00",17.399,32.23233,0.267],
    [34961,"urn:WaterMeter:MC0203J22010600005","2024-10-11T02:15:00",17.299,32.216038,0.276],
    [34962,"urn:WaterMeter:MC0203J22010600005","2024-10-11T02:30:00",17.2,32.23423,0.257],
    [34963,"urn:WaterMeter:MC0203J22010600005","2024-10-11T02:45:00",17.1,32.237762,0.273],
    [34964,"urn:WaterMeter:MC0203J22010600005","2024-10-11T03:00:00",17.1,32.21759,0.268],
    [34965,"urn:WaterMeter:MC0203J22010600005","2024-10-11T03:15:00",17,32.184193,0.261],
    [34966,"urn:WaterMeter:MC0203J22010600005","2024-10-11T03:30:00",16.899,32.237373,0.265],
    [34967,"urn:WaterMeter:MC0203J22010600005","2024-10-11T03:45:00",16.899,32.199745,0.267],
    [34968,"urn:WaterMeter:MC0203J22010600005","2024-10-11T04:00:00",16.899,32.23931,0.275],
    [34969,"urn:WaterMeter:MC0203J22010600005","2024-10-11T04:15:00",16.799,32.229614,0.262],
    [34970,"urn:WaterMeter:MC0203J22010600005","2024-10-11T04:30:00",16.799,32.22298,0.26],
    [34971,"urn:WaterMeter:MC0203J22010600005","2024-10-11T04:45:00",16.799,32.207504,0.266],
    [34972,"urn:WaterMeter:MC0203J22010600005","2024-10-11T05:00:00",16.799,32.207893,0.27],
    [34973,"urn:WaterMeter:MC0203J22010600005","2024-10-11T05:15:00",17,32.190437,0.258],
    [34974,"urn:WaterMeter:MC0203J22010600005","2024-10-11T05:30:00",17.1,32.39831,0.266],
    [34975,"urn:WaterMeter:MC0203J22010600005","2024-10-11T05:45:00",17.2,33.127216,0.282],
    [34976,"urn:WaterMeter:MC0203J22010600005","2024-10-11T06:00:00",17.299,34.029083,0.29],
    [34977,"urn:WaterMeter:MC0203J22010600005","2024-10-11T06:15:00",17.299,34.518227,0.31],
    [34978,"urn:WaterMeter:MC0203J22010600005","2024-10-11T06:30:00",17.399,34.82269,0.306],
    [34979,"urn:WaterMeter:MC0203J22010600005","2024-10-11T06:45:00",17.399,35.09736,0.305],
    [34980,"urn:WaterMeter:MC0203J22010600005","2024-10-11T07:00:00",17.5,35.24705,0.312],
    [34981,"urn:WaterMeter:MC0203J22010600005","2024-10-11T07:15:00",17.5,35.355663,0.303],
    [34982,"urn:WaterMeter:MC0203J22010600005","2024-10-11T07:30:00",17.6,35.465088,0.318],
    [34983,"urn:WaterMeter:MC0203J22010600005","2024-10-11T07:45:00",17.7,35.61827,0.32],
    [34984,"urn:WaterMeter:MC0203J22010600005","2024-10-11T08:00:00",17.799,35.753258,0.308],
    [34985,"urn:WaterMeter:MC0203J22010600005","2024-10-11T08:15:00",17.899,35.3448,0.312],
    [34986,"urn:WaterMeter:MC0203J22010600005","2024-10-11T08:30:00",18,34.925133,0.296],
    [34987,"urn:WaterMeter:MC0203J22010600005","2024-10-11T08:45:00",18,34.612095,0.308],
    [34988,"urn:WaterMeter:MC0203J22010600005","2024-10-11T09:00:00",18.1,34.486805,0.296],
    [34989,"urn:WaterMeter:MC0203J22010600005","2024-10-11T09:15:00",18.299,34.434788,0.31],
    [34990,"urn:WaterMeter:MC0203J22010600005","2024-10-11T09:30:00",18.399,34.35143,0.29],
    [34991,"urn:WaterMeter:MC0203J22010600005","2024-10-11T09:45:00",18.6,34.296696,0.291],
    [34992,"urn:WaterMeter:MC0203J22010600005","2024-10-11T10:00:00",18.7,34.152782,0.302],
    [34993,"urn:WaterMeter:MC0203J22010600005","2024-10-11T10:15:00",18.899,34.10938,0.279],
    [34994,"urn:WaterMeter:MC0203J22010600005","2024-10-11T10:30:00",19,33.90418,0.294],
    [34995,"urn:WaterMeter:MC0203J22010600005","2024-10-11T10:45:00",19.1,33.870007,0.306],
    [34996,"urn:WaterMeter:MC0203J22010600005","2024-10-11T11:00:00",19.2,33.7785,0.276],
    [34997,"urn:WaterMeter:MC0203J22010600005","2024-10-11T11:15:00",19.399,33.65282,0.276],
    [34998,"urn:WaterMeter:MC0203J22010600005","2024-10-11T11:30:00",19.5,33.61787,0.286],
    [34999,"urn:WaterMeter:MC0203J22010600005","2024-10-11T11:45:00",19.6,33.594246,0.296],
    [35000,"urn:WaterMeter:MC0203J22010600005","2024-10-11T12:00:00",19.7,33.42431,0.274],
    [35001,"urn:WaterMeter:MC0203J22010600005","2024-10-11T12:15:00",19.799,33.430553,0.29],
    [35002,"urn:WaterMeter:MC0203J22010600005","2024-10-11T12:30:00",19.799,33.372368,0.292],
    [35003,"urn:WaterMeter:MC0203J22010600005","2024-10-11T12:45:00",19.899,33.26531,0.293],
    [35004,"urn:WaterMeter:MC0203J22010600005","2024-10-11T13:00:00",20,33.18773,0.287],
    [35005,"urn:WaterMeter:MC0203J22010600005","2024-10-11T13:15:00",20,33.183422,0.275],
    [35006,"urn:WaterMeter:MC0203J22010600005","2024-10-11T13:30:00",20.1,33.06705,0.286],
    [35007,"urn:WaterMeter:MC0203J22010600005","2024-10-11T13:45:00",20.1,33.025585,0.273],
    [35008,"urn:WaterMeter:MC0203J22010600005","2024-10-11T14:00:00",20.1,32.982918,0.298],
    [35009,"urn:WaterMeter:MC0203J22010600005","2024-10-11T14:15:00",20.1,32.942574,0.268],
    [35010,"urn:WaterMeter:MC0203J22010600005","2024-10-11T14:30:00",20.1,32.95266,0.275],
    [35011,"urn:WaterMeter:MC0203J22010600005","2024-10-11T14:45:00",20.1,32.89758,0.276],
    [35012,"urn:WaterMeter:MC0203J22010600005","2024-10-11T15:00:00",20.1,32.870815,0.274],
    [35013,"urn:WaterMeter:MC0203J22010600005","2024-10-11T15:15:00",20.1,32.795135,0.267],
    [35014,"urn:WaterMeter:MC0203J22010600005","2024-10-11T15:30:00",20,32.791294,0.269],
    [35015,"urn:WaterMeter:MC0203J22010600005","2024-10-11T15:45:00",20,32.7238,0.272],
    [35016,"urn:WaterMeter:MC0203J22010600005","2024-10-11T16:00:00",20,32.74203,0.27],
    [35017,"urn:WaterMeter:MC0203J22010600005","2024-10-11T16:15:00",20,32.71833,0.279],
    [35018,"urn:WaterMeter:MC0203J22010600005","2024-10-11T16:30:00",20,32.660534,0.28],
    [35019,"urn:WaterMeter:MC0203J22010600005","2024-10-11T16:45:00",20,32.65006,0.27],
    [35020,"urn:WaterMeter:MC0203J22010600005","2024-10-11T17:00:00",20,32.602737,0.27],
    [35021,"urn:WaterMeter:MC0203J22010600005","2024-10-11T17:15:00",19.899,32.58842,0.272],
    [35022,"urn:WaterMeter:MC0203J22010600005","2024-10-11T17:30:00",19.899,32.573643,0.28],
    [35023,"urn:WaterMeter:MC0203J22010600005","2024-10-11T17:45:00",19.899,32.58842,0.265],
    [35024,"urn:WaterMeter:MC0203J22010600005","2024-10-11T18:00:00",19.799,32.552696,0.265],
    [35025,"urn:WaterMeter:MC0203J22010600005","2024-10-11T18:15:00",19.7,32.556614,0.283],
    [35026,"urn:WaterMeter:MC0203J22010600005","2024-10-11T18:30:00",19.6,32.549244,0.266],
    [35027,"urn:WaterMeter:MC0203J22010600005","2024-10-11T18:45:00",19.5,32.546917,0.265],
    [35028,"urn:WaterMeter:MC0203J22010600005","2024-10-11T19:00:00",19.399,32.557003,0.279],
    [35029,"urn:WaterMeter:MC0203J22010600005","2024-10-11T19:15:00",19.399,32.51313,0.27],
    [35030,"urn:WaterMeter:MC0203J22010600005","2024-10-11T19:30:00",19.299,32.52907,0.269],
    [35031,"urn:WaterMeter:MC0203J22010600005","2024-10-11T19:45:00",19.2,32.502308,0.269],
    [35032,"urn:WaterMeter:MC0203J22010600005","2024-10-11T20:00:00",19.1,32.458477,0.267],
    [35033,"urn:WaterMeter:MC0203J22010600005","2024-10-11T20:15:00",19.1,32.490673,0.277],
    [35034,"urn:WaterMeter:MC0203J22010600005","2024-10-11T20:30:00",19,32.48718,0.278],
    [35035,"urn:WaterMeter:MC0203J22010600005","2024-10-11T20:45:00",18.899,32.466583,0.267],
    [35036,"urn:WaterMeter:MC0203J22010600005","2024-10-11T21:00:00",18.899,32.452656,0.263],
    [35037,"urn:WaterMeter:MC0203J22010600005","2024-10-11T21:15:00",18.799,32.429382,0.281],
    [35038,"urn:WaterMeter:MC0203J22010600005","2024-10-11T21:30:00",18.799,32.482525,0.286],
    [35039,"urn:WaterMeter:MC0203J22010600005","2024-10-11T21:45:00",18.799,32.414642,0.26],
    [35040,"urn:WaterMeter:MC0203J22010600005","2024-10-11T22:00:00",18.799,32.436714,0.273],
    [35041,"urn:WaterMeter:MC0203J22010600005","2024-10-11T22:15:00",18.7,32.3762,0.265],
    [35042,"urn:WaterMeter:MC0203J22010600005","2024-10-11T22:30:00",18.6,32.38784,0.269],
    [35043,"urn:WaterMeter:MC0203J22010600005","2024-10-11T22:45:00",18.6,32.391758,0.264],
    [35044,"urn:WaterMeter:MC0203J22010600005","2024-10-11T23:00:00",18.5,32.419685,0.258],
    [35045,"urn:WaterMeter:MC0203J22010600005","2024-10-11T23:15:00",18.399,32.39525,0.278],
    [35046,"urn:WaterMeter:MC0203J22010600005","2024-10-11T23:30:00",18.299,32.41115,0.279],
    [35047,"urn:WaterMeter:MC0203J22010600005","2024-10-11T23:45:00",18.299,32.42046,0.265],
    [35048,"urn:WaterMeter:MC0203J22010600005","2024-10-12T00:00:00",18.2,32.42977,0.267],
    [35049,"urn:WaterMeter:MC0203J22010600005","2024-10-12T00:15:00",18.1,32.3506,0.277],
    [35050,"urn:WaterMeter:MC0203J22010600005","2024-10-12T00:30:00",18.1,32.337414,0.281],
    [35051,"urn:WaterMeter:MC0203J22010600005","2024-10-12T00:45:00",18,32.381283,0.278],
    [35052,"urn:WaterMeter:MC0203J22010600005","2024-10-12T01:00:00",17.899,32.33396,0.265],
    [35053,"urn:WaterMeter:MC0203J22010600005","2024-10-12T01:15:00",17.899,32.344433,0.277],
    [35054,"urn:WaterMeter:MC0203J22010600005","2024-10-12T01:30:00",17.799,32.382835,0.278],
    [35055,"urn:WaterMeter:MC0203J22010600005","2024-10-12T01:45:00",17.7,32.356808,0.275],
    [35056,"urn:WaterMeter:MC0203J22010600005","2024-10-12T02:00:00",17.7,32.334736,0.264],
    [35057,"urn:WaterMeter:MC0203J22010600005","2024-10-12T02:15:00",17.7,32.335125,0.277],
    [35058,"urn:WaterMeter:MC0203J22010600005","2024-10-12T02:30:00",17.7,32.32659,0.261],
    [35059,"urn:WaterMeter:MC0203J22010600005","2024-10-12T02:45:00",17.6,32.35452,0.273],
    [35060,"urn:WaterMeter:MC0203J22010600005","2024-10-12T03:00:00",17.6,32.308357,0.265],
    [35061,"urn:WaterMeter:MC0203J22010600005","2024-10-12T03:15:00",17.5,32.30991,0.268],
    [35062,"urn:WaterMeter:MC0203J22010600005","2024-10-12T03:30:00",17.5,32.27345,0.265],
    [35063,"urn:WaterMeter:MC0203J22010600005","2024-10-12T03:45:00",17.399,32.3359,0.27],
    [35064,"urn:WaterMeter:MC0203J22010600005","2024-10-12T04:00:00",17.299,32.301727,0.283],
    [35065,"urn:WaterMeter:MC0203J22010600005","2024-10-12T04:15:00",17.299,32.292843,0.254],
    [35066,"urn:WaterMeter:MC0203J22010600005","2024-10-12T04:30:00",17.2,32.309135,0.265],
    [35067,"urn:WaterMeter:MC0203J22010600005","2024-10-12T04:45:00",17.1,32.298275,0.279],
    [35068,"urn:WaterMeter:MC0203J22010600005","2024-10-12T05:00:00",17.1,32.25405,0.259],
    [35069,"urn:WaterMeter:MC0203J22010600005","2024-10-12T05:15:00",17,32.28431,0.262],
    [35070,"urn:WaterMeter:MC0203J22010600005","2024-10-12T05:30:00",16.899,32.26022,0.266],
    [35071,"urn:WaterMeter:MC0203J22010600005","2024-10-12T05:45:00",16.899,32.247845,0.27],
    [35072,"urn:WaterMeter:MC0203J22010600005","2024-10-12T06:00:00",16.799,32.238537,0.292],
    [35073,"urn:WaterMeter:MC0203J22010600005","2024-10-12T06:15:00",16.7,32.244743,0.258],
    [35074,"urn:WaterMeter:MC0203J22010600005","2024-10-12T06:30:00",16.7,32.209057,0.259],
    [35075,"urn:WaterMeter:MC0203J22010600005","2024-10-12T06:45:00",16.7,32.245132,0.259],
    [35076,"urn:WaterMeter:MC0203J22010600005","2024-10-12T07:00:00",16.6,32.261772,0.266],
    [35077,"urn:WaterMeter:MC0203J22010600005","2024-10-12T07:15:00",16.7,32.26879,0.263],
    [35078,"urn:WaterMeter:MC0203J22010600005","2024-10-12T07:30:00",16.7,32.207893,0.256],
    [35079,"urn:WaterMeter:MC0203J22010600005","2024-10-12T07:45:00",16.7,32.216816,0.293],
    [35080,"urn:WaterMeter:MC0203J22010600005","2024-10-12T08:00:00",16.799,32.221043,0.282],
    [35081,"urn:WaterMeter:MC0203J22010600005","2024-10-12T08:15:00",16.899,32.201298,0.252],
    [35082,"urn:WaterMeter:MC0203J22010600005","2024-10-12T08:30:00",17,32.189274,0.263],
    [35083,"urn:WaterMeter:MC0203J22010600005","2024-10-12T08:45:00",17.2,32.13419,0.254],
    [35084,"urn:WaterMeter:MC0203J22010600005","2024-10-12T09:00:00",17.399,32.12178,0.271],
    [35085,"urn:WaterMeter:MC0203J22010600005","2024-10-12T09:15:00",17.6,32.100445,0.259],
    [35086,"urn:WaterMeter:MC0203J22010600005","2024-10-12T09:30:00",17.799,32.054672,0.265],
    [35087,"urn:WaterMeter:MC0203J22010600005","2024-10-12T09:45:00",18,32.04536,0.247],
    [35088,"urn:WaterMeter:MC0203J22010600005","2024-10-12T10:00:00",18.2,31.958473,0.254],
    [35089,"urn:WaterMeter:MC0203J22010600005","2024-10-12T10:15:00",18.299,31.941404,0.267],
    [35090,"urn:WaterMeter:MC0203J22010600005","2024-10-12T10:30:00",18.5,31.93481,0.258],
    [35091,"urn:WaterMeter:MC0203J22010600005","2024-10-12T10:45:00",18.7,31.846758,0.265],
    [35092,"urn:WaterMeter:MC0203J22010600005","2024-10-12T11:00:00",18.799,31.824648,0.26],
    [35093,"urn:WaterMeter:MC0203J22010600005","2024-10-12T11:15:00",19,31.84443,0.267],
    [35094,"urn:WaterMeter:MC0203J22010600005","2024-10-12T11:30:00",19.2,31.768362,0.264],
    [35095,"urn:WaterMeter:MC0203J22010600005","2024-10-12T11:45:00",19.399,31.68384,0.269],
    [35096,"urn:WaterMeter:MC0203J22010600005","2024-10-12T12:00:00",19.7,31.622513,0.257],
    [35097,"urn:WaterMeter:MC0203J22010600005","2024-10-12T12:15:00",19.899,31.578718,0.249],
    [35098,"urn:WaterMeter:MC0203J22010600005","2024-10-12T12:30:00",20.1,31.572512,0.273],
    [35099,"urn:WaterMeter:MC0203J22010600005","2024-10-12T12:45:00",20.2,31.478252,0.257],
    [35100,"urn:WaterMeter:MC0203J22010600005","2024-10-12T13:00:00",20.299,31.478252,0.248],
    [35101,"urn:WaterMeter:MC0203J22010600005","2024-10-12T13:15:00",20.299,31.43054,0.25],
    [35102,"urn:WaterMeter:MC0203J22010600005","2024-10-12T13:30:00",20.399,31.352184,0.246],
    [35103,"urn:WaterMeter:MC0203J22010600005","2024-10-12T13:45:00",20.399,31.338997,0.244],
    [35104,"urn:WaterMeter:MC0203J22010600005","2024-10-12T14:00:00",20.399,31.34365,0.26],
    [35105,"urn:WaterMeter:MC0203J22010600005","2024-10-12T14:15:00",20.399,31.282713,0.243],
    [35106,"urn:WaterMeter:MC0203J22010600005","2024-10-12T14:30:00",20.5,31.290083,0.279],
    [35107,"urn:WaterMeter:MC0203J22010600005","2024-10-12T14:45:00",20.5,31.235815,0.258],
    [35108,"urn:WaterMeter:MC0203J22010600005","2024-10-12T15:00:00",20.6,31.216808,0.233],
    [35109,"urn:WaterMeter:MC0203J22010600005","2024-10-12T15:15:00",20.6,31.156645,0.242],
    [35110,"urn:WaterMeter:MC0203J22010600005","2024-10-12T15:30:00",20.7,31.144659,0.24],
    [35111,"urn:WaterMeter:MC0203J22010600005","2024-10-12T15:45:00",20.799,31.11324,0.245],
    [35112,"urn:WaterMeter:MC0203J22010600005","2024-10-12T16:00:00",20.799,31.097683,0.246],
    [35113,"urn:WaterMeter:MC0203J22010600005","2024-10-12T16:15:00",20.799,31.0632,0.243],
    [35114,"urn:WaterMeter:MC0203J22010600005","2024-10-12T16:30:00",20.799,31.05195,0.245],
    [35115,"urn:WaterMeter:MC0203J22010600005","2024-10-12T16:45:00",20.799,31.00385,0.256],
    [35116,"urn:WaterMeter:MC0203J22010600005","2024-10-12T17:00:00",20.799,31.034494,0.248],
    [35117,"urn:WaterMeter:MC0203J22010600005","2024-10-12T17:15:00",20.799,31.022858,0.264],
    [35118,"urn:WaterMeter:MC0203J22010600005","2024-10-12T17:30:00",20.7,31.00226,0.246],
    [35119,"urn:WaterMeter:MC0203J22010600005","2024-10-12T17:45:00",20.7,30.98911,0.242],
    [35120,"urn:WaterMeter:MC0203J22010600005","2024-10-12T18:00:00",20.399,41.288242,0.339],
    [35121,"urn:WaterMeter:MC0203J22010600005","2024-10-12T18:15:00",20.799,40.975597,0.345],
    [35122,"urn:WaterMeter:MC0203J22010600005","2024-10-12T18:30:00",20.6,40.959694,0.374],
    [35123,"urn:WaterMeter:MC0203J22010600005","2024-10-12T18:45:00",20.399,41.045418,0.359],
    [35124,"urn:WaterMeter:MC0203J22010600005","2024-10-12T19:00:00",20.299,41.24127,0.341],
    [35125,"urn:WaterMeter:MC0203J22010600005","2024-10-12T19:15:00",20.2,40.989132,0.324],
    [35126,"urn:WaterMeter:MC0203J22010600005","2024-10-12T19:30:00",20.2,38.92473,0.298],
    [35127,"urn:WaterMeter:MC0203J22010600005","2024-10-12T19:45:00",20.1,38.356495,0.315],
    [35128,"urn:WaterMeter:MC0203J22010600005","2024-10-12T20:00:00",20.1,38.13962,0.29],
    [35129,"urn:WaterMeter:MC0203J22010600005","2024-10-12T20:15:00",20,37.394505,0.29],
    [35130,"urn:WaterMeter:MC0203J22010600005","2024-10-12T20:30:00",20,36.97945,0.276],
    [35131,"urn:WaterMeter:MC0203J22010600005","2024-10-12T20:45:00",19.899,36.749813,0.27],
    [35132,"urn:WaterMeter:MC0203J22010600005","2024-10-12T21:00:00",19.899,36.300625,0.272],
    [35133,"urn:WaterMeter:MC0203J22010600005","2024-10-12T21:15:00",19.899,35.650894,0.304],
    [35134,"urn:WaterMeter:MC0203J22010600005","2024-10-12T21:30:00",19.899,35.476727,0.273],
    [35135,"urn:WaterMeter:MC0203J22010600005","2024-10-12T21:45:00",19.799,35.427074,0.292],
    [35136,"urn:WaterMeter:MC0203J22010600005","2024-10-12T22:00:00",19.799,35.003876,0.264],
    [35137,"urn:WaterMeter:MC0203J22010600005","2024-10-12T22:15:00",19.799,34.96082,0.261],
    [35138,"urn:WaterMeter:MC0203J22010600005","2024-10-12T22:30:00",19.799,34.785877,0.257],
    [35139,"urn:WaterMeter:MC0203J22010600005","2024-10-12T22:45:00",19.799,34.693554,0.262],
    [35140,"urn:WaterMeter:MC0203J22010600005","2024-10-12T23:00:00",19.799,34.46388,0.255],
    [35141,"urn:WaterMeter:MC0203J22010600005","2024-10-12T23:15:00",19.799,34.3875,0.275],
    [35142,"urn:WaterMeter:MC0203J22010600005","2024-10-12T23:30:00",19.7,34.28781,0.265],
    [35143,"urn:WaterMeter:MC0203J22010600005","2024-10-12T23:45:00",19.7,34.27924,0.272],
    [35144,"urn:WaterMeter:MC0203J22010600005","2024-10-13T00:00:00",19.7,34.224197,0.255],
    [35145,"urn:WaterMeter:MC0203J22010600005","2024-10-13T00:15:00",19.7,34.155926,0.273],
    [35146,"urn:WaterMeter:MC0203J22010600005","2024-10-13T00:30:00",19.7,34.056973,0.273],
    [35147,"urn:WaterMeter:MC0203J22010600005","2024-10-13T00:45:00",19.7,34.08727,0.263],
    [35148,"urn:WaterMeter:MC0203J22010600005","2024-10-13T01:00:00",19.6,34.043434,0.271],
    [35149,"urn:WaterMeter:MC0203J22010600005","2024-10-13T01:15:00",19.6,33.998787,0.256],
    [35150,"urn:WaterMeter:MC0203J22010600005","2024-10-13T01:30:00",19.6,33.921597,0.258],
    [35151,"urn:WaterMeter:MC0203J22010600005","2024-10-13T01:45:00",19.6,33.88556,0.269],
    [35152,"urn:WaterMeter:MC0203J22010600005","2024-10-13T02:00:00",19.6,33.82462,0.259],
    [35153,"urn:WaterMeter:MC0203J22010600005","2024-10-13T02:15:00",19.6,33.783154,0.273],
    [35154,"urn:WaterMeter:MC0203J22010600005","2024-10-13T02:30:00",19.6,33.80061,0.255],
    [35155,"urn:WaterMeter:MC0203J22010600005","2024-10-13T02:45:00",19.5,33.719925,0.254],
    [35156,"urn:WaterMeter:MC0203J22010600005","2024-10-13T03:00:00",19.5,33.698166,0.268],
    [35157,"urn:WaterMeter:MC0203J22010600005","2024-10-13T03:15:00",19.5,33.585712,0.265],
    [35158,"urn:WaterMeter:MC0203J22010600005","2024-10-13T03:30:00",19.399,33.578693,0.264],
    [35159,"urn:WaterMeter:MC0203J22010600005","2024-10-13T03:45:00",19.399,33.58455,0.276],
    [35160,"urn:WaterMeter:MC0203J22010600005","2024-10-13T04:00:00",19.399,33.527916,0.269],
    [35161,"urn:WaterMeter:MC0203J22010600005","2024-10-13T04:15:00",19.399,33.45189,0.253],
    [35162,"urn:WaterMeter:MC0203J22010600005","2024-10-13T04:30:00",19.399,33.512012,0.262],
    [35163,"urn:WaterMeter:MC0203J22010600005","2024-10-13T04:45:00",19.299,33.441414,0.255],
    [35164,"urn:WaterMeter:MC0203J22010600005","2024-10-13T05:00:00",19.299,33.460033,0.282],
    [35165,"urn:WaterMeter:MC0203J22010600005","2024-10-13T05:15:00",19.299,33.376984,0.275],
    [35166,"urn:WaterMeter:MC0203J22010600005","2024-10-13T05:30:00",19.2,33.428226,0.263],
    [35167,"urn:WaterMeter:MC0203J22010600005","2024-10-13T05:45:00",19.2,33.40301,0.265],
    [35168,"urn:WaterMeter:MC0203J22010600005","2024-10-13T06:00:00",19.1,33.301384,0.267],
    [35169,"urn:WaterMeter:MC0203J22010600005","2024-10-13T06:15:00",19.1,33.34017,0.254],
    [35170,"urn:WaterMeter:MC0203J22010600005","2024-10-13T06:30:00",19.1,33.329273,0.275],
    [35171,"urn:WaterMeter:MC0203J22010600005","2024-10-13T06:45:00",19,33.254448,0.269],
    [35172,"urn:WaterMeter:MC0203J22010600005","2024-10-13T07:00:00",19,33.278885,0.252],
    [35173,"urn:WaterMeter:MC0203J22010600005","2024-10-13T07:15:00",19,33.262165,0.27],
    [35174,"urn:WaterMeter:MC0203J22010600005","2024-10-13T07:30:00",19,33.25053,0.253],
    [35175,"urn:WaterMeter:MC0203J22010600005","2024-10-13T07:45:00",19,33.25794,0.26],
    [35176,"urn:WaterMeter:MC0203J22010600005","2024-10-13T08:00:00",19,33.245525,0.26],
    [35177,"urn:WaterMeter:MC0203J22010600005","2024-10-13T08:15:00",19,33.24669,0.256],
    [35178,"urn:WaterMeter:MC0203J22010600005","2024-10-13T08:30:00",19.1,33.188892,0.254],
    [35179,"urn:WaterMeter:MC0203J22010600005","2024-10-13T08:45:00",19.2,33.140793,0.253],
    [35180,"urn:WaterMeter:MC0203J22010600005","2024-10-13T09:00:00",19.399,33.17489,0.264],
    [35181,"urn:WaterMeter:MC0203J22010600005","2024-10-13T09:15:00",19.5,33.09731,0.268],
    [35182,"urn:WaterMeter:MC0203J22010600005","2024-10-13T09:30:00",19.6,33.064377,0.249],
    [35183,"urn:WaterMeter:MC0203J22010600005","2024-10-13T09:45:00",19.7,33.039124,0.278],
    [35184,"urn:WaterMeter:MC0203J22010600005","2024-10-13T10:00:00",19.7,33.011234,0.25],
    [35185,"urn:WaterMeter:MC0203J22010600005","2024-10-13T10:15:00",19.799,33.001923,0.255],
    [35186,"urn:WaterMeter:MC0203J22010600005","2024-10-13T10:30:00",19.899,32.95999,0.262],
    [35187,"urn:WaterMeter:MC0203J22010600005","2024-10-13T10:45:00",20,32.902195,0.257],
    [35188,"urn:WaterMeter:MC0203J22010600005","2024-10-13T11:00:00",20.2,32.823063,0.247],
    [35189,"urn:WaterMeter:MC0203J22010600005","2024-10-13T11:15:00",20.299,32.785824,0.262],
    [35190,"urn:WaterMeter:MC0203J22010600005","2024-10-13T11:30:00",20.399,32.802544,0.271],
    [35191,"urn:WaterMeter:MC0203J22010600005","2024-10-13T11:45:00",20.6,32.672985,0.243],
    [35192,"urn:WaterMeter:MC0203J22010600005","2024-10-13T12:00:00",20.799,32.678413,0.257],
    [35193,"urn:WaterMeter:MC0203J22010600005","2024-10-13T12:15:00",21,32.58493,0.266],
    [35194,"urn:WaterMeter:MC0203J22010600005","2024-10-13T12:30:00",21.1,32.57287,0.27],
    [35195,"urn:WaterMeter:MC0203J22010600005","2024-10-13T12:45:00",21.2,32.503086,0.25],
    [35196,"urn:WaterMeter:MC0203J22010600005","2024-10-13T13:00:00",21.2,32.466972,0.246],
    [35197,"urn:WaterMeter:MC0203J22010600005","2024-10-13T13:15:00",21.2,32.45227,0.256],
    [35198,"urn:WaterMeter:MC0203J22010600005","2024-10-13T13:30:00",21.2,32.42279,0.285],
    [35199,"urn:WaterMeter:MC0203J22010600005","2024-10-13T13:45:00",21.2,32.333572,0.244],
    [35200,"urn:WaterMeter:MC0203J22010600005","2024-10-13T14:00:00",21.299,32.342495,0.259],
    [35201,"urn:WaterMeter:MC0203J22010600005","2024-10-13T14:15:00",21.2,32.251724,0.263],
    [35202,"urn:WaterMeter:MC0203J22010600005","2024-10-13T14:30:00",21.2,32.273834,0.25],
    [35203,"urn:WaterMeter:MC0203J22010600005","2024-10-13T14:45:00",21.2,32.267628,0.252],
    [35204,"urn:WaterMeter:MC0203J22010600005","2024-10-13T15:00:00",21.2,32.184578,0.279],
    [35205,"urn:WaterMeter:MC0203J22010600005","2024-10-13T15:15:00",21.2,32.162857,0.243],
    [35206,"urn:WaterMeter:MC0203J22010600005","2024-10-13T15:30:00",21.2,32.129536,0.246],
    [35207,"urn:WaterMeter:MC0203J22010600005","2024-10-13T15:45:00",21.2,32.09036,0.249],
    [35208,"urn:WaterMeter:MC0203J22010600005","2024-10-13T16:00:00",21.2,32.07907,0.258],
    [35209,"urn:WaterMeter:MC0203J22010600005","2024-10-13T16:15:00",21.2,32.08838,0.264],
    [35210,"urn:WaterMeter:MC0203J22010600005","2024-10-13T16:30:00",21.2,32.017044,0.272],
    [35211,"urn:WaterMeter:MC0203J22010600005","2024-10-13T16:45:00",21.1,32.072903,0.245],
    [35212,"urn:WaterMeter:MC0203J22010600005","2024-10-13T17:00:00",21.1,32.039894,0.246],
    [35213,"urn:WaterMeter:MC0203J22010600005","2024-10-13T17:15:00",21.1,32.060104,0.246],
    [35214,"urn:WaterMeter:MC0203J22010600005","2024-10-13T17:30:00",21,32.017044,0.267],
    [35215,"urn:WaterMeter:MC0203J22010600005","2024-10-13T17:45:00",21,32.05118,0.247],
    [35216,"urn:WaterMeter:MC0203J22010600005","2024-10-13T18:00:00",21,31.982523,0.244],
    [35217,"urn:WaterMeter:MC0203J22010600005","2024-10-13T18:15:00",20.899,31.997263,0.244],
    [35218,"urn:WaterMeter:MC0203J22010600005","2024-10-13T18:30:00",20.899,31.941404,0.242],
    [35219,"urn:WaterMeter:MC0203J22010600005","2024-10-13T18:45:00",20.899,31.969296,0.256],
    [35220,"urn:WaterMeter:MC0203J22010600005","2024-10-13T19:00:00",20.899,31.959637,0.241],
    [35221,"urn:WaterMeter:MC0203J22010600005","2024-10-13T19:15:00",20.899,31.969683,0.255],
    [35222,"urn:WaterMeter:MC0203J22010600005","2024-10-13T19:30:00",20.899,31.967394,0.255],
    [35223,"urn:WaterMeter:MC0203J22010600005","2024-10-13T19:45:00",20.899,31.917744,0.244],
    [35224,"urn:WaterMeter:MC0203J22010600005","2024-10-13T20:00:00",20.899,31.943733,0.263],
    [35225,"urn:WaterMeter:MC0203J22010600005","2024-10-13T20:15:00",20.899,31.895245,0.259],
    [35226,"urn:WaterMeter:MC0203J22010600005","2024-10-13T20:30:00",20.899,31.92236,0.241],
    [35227,"urn:WaterMeter:MC0203J22010600005","2024-10-13T20:45:00",20.899,31.908821,0.245],
    [35228,"urn:WaterMeter:MC0203J22010600005","2024-10-13T21:00:00",20.899,31.89796,0.264],
    [35229,"urn:WaterMeter:MC0203J22010600005","2024-10-13T21:15:00",20.899,31.899124,0.24],
    [35230,"urn:WaterMeter:MC0203J22010600005","2024-10-13T21:30:00",20.899,31.892103,0.246],
    [35231,"urn:WaterMeter:MC0203J22010600005","2024-10-13T21:45:00",20.899,31.916967,0.253],
    [35232,"urn:WaterMeter:MC0203J22010600005","2024-10-13T22:00:00",20.899,31.883957,0.248],
    [35233,"urn:WaterMeter:MC0203J22010600005","2024-10-13T22:15:00",20.899,31.859945,0.26],
    [35234,"urn:WaterMeter:MC0203J22010600005","2024-10-13T22:30:00",20.799,31.91658,0.245],
    [35235,"urn:WaterMeter:MC0203J22010600005","2024-10-13T22:45:00",20.799,31.865726,0.248],
    [35236,"urn:WaterMeter:MC0203J22010600005","2024-10-13T23:00:00",20.799,31.890202,0.24],
    [35237,"urn:WaterMeter:MC0203J22010600005","2024-10-13T23:15:00",20.799,31.865337,0.253],
    [35238,"urn:WaterMeter:MC0203J22010600005","2024-10-13T23:30:00",20.7,31.8518,0.234],
    [35239,"urn:WaterMeter:MC0203J22010600005","2024-10-13T23:45:00",20.7,31.809132,0.254],
    [35240,"urn:WaterMeter:MC0203J22010600005","2024-10-14T00:00:00",20.7,31.847921,0.245],
    [35241,"urn:WaterMeter:MC0203J22010600005","2024-10-14T00:15:00",20.6,31.868092,0.261],
    [35242,"urn:WaterMeter:MC0203J22010600005","2024-10-14T00:30:00",20.6,31.828138,0.258],
    [35243,"urn:WaterMeter:MC0203J22010600005","2024-10-14T00:45:00",20.6,31.840162,0.249],
    [35244,"urn:WaterMeter:MC0203J22010600005","2024-10-14T01:00:00",20.5,31.813747,0.267],
    [35245,"urn:WaterMeter:MC0203J22010600005","2024-10-14T01:15:00",20.5,31.818052,0.243],
    [35246,"urn:WaterMeter:MC0203J22010600005","2024-10-14T01:30:00",20.399,31.876238,0.242],
    [35247,"urn:WaterMeter:MC0203J22010600005","2024-10-14T01:45:00",20.399,31.81491,0.251],
    [35248,"urn:WaterMeter:MC0203J22010600005","2024-10-14T02:00:00",20.299,31.882832,0.253],
    [35249,"urn:WaterMeter:MC0203J22010600005","2024-10-14T02:15:00",20.299,31.808743,0.248],
    [35250,"urn:WaterMeter:MC0203J22010600005","2024-10-14T02:30:00",20.299,31.83547,0.238],
    [35251,"urn:WaterMeter:MC0203J22010600005","2024-10-14T02:45:00",20.299,31.782366,0.245],
    [35252,"urn:WaterMeter:MC0203J22010600005","2024-10-14T03:00:00",20.299,31.835857,0.243],
    [35253,"urn:WaterMeter:MC0203J22010600005","2024-10-14T03:15:00",20.2,31.75211,0.252],
    [35254,"urn:WaterMeter:MC0203J22010600005","2024-10-14T03:30:00",20.2,31.817238,0.248],
    [35255,"urn:WaterMeter:MC0203J22010600005","2024-10-14T03:45:00",20.2,31.81491,0.256],
    [35256,"urn:WaterMeter:MC0203J22010600005","2024-10-14T04:00:00",20.2,31.781202,0.24],
    [35257,"urn:WaterMeter:MC0203J22010600005","2024-10-14T04:15:00",20.2,31.809519,0.237],
    [35258,"urn:WaterMeter:MC0203J22010600005","2024-10-14T04:30:00",20.2,31.793228,0.241],
    [35259,"urn:WaterMeter:MC0203J22010600005","2024-10-14T04:45:00",20.1,31.81491,0.268],
    [35260,"urn:WaterMeter:MC0203J22010600005","2024-10-14T05:00:00",20.1,31.747066,0.237],
    [35261,"urn:WaterMeter:MC0203J22010600005","2024-10-14T05:15:00",20.299,31.800985,0.242],
    [35262,"urn:WaterMeter:MC0203J22010600005","2024-10-14T05:30:00",20.399,31.859558,0.242],
    [35263,"urn:WaterMeter:MC0203J22010600005","2024-10-14T05:45:00",20.399,32.345207,0.266],
    [35264,"urn:WaterMeter:MC0203J22010600005","2024-10-14T06:00:00",20.399,33.35142,0.262],
    [35265,"urn:WaterMeter:MC0203J22010600005","2024-10-14T06:15:00",20.399,34.16795,0.275],
    [35266,"urn:WaterMeter:MC0203J22010600005","2024-10-14T06:30:00",20.399,34.598133,0.297],
    [35267,"urn:WaterMeter:MC0203J22010600005","2024-10-14T06:45:00",20.399,34.889057,0.295],
    [35268,"urn:WaterMeter:MC0203J22010600005","2024-10-14T07:00:00",20.5,35.07913,0.289],
    [35269,"urn:WaterMeter:MC0203J22010600005","2024-10-14T07:15:00",20.5,35.24282,0.295],
    [35270,"urn:WaterMeter:MC0203J22010600005","2024-10-14T07:30:00",20.5,35.262993,0.29],
    [35271,"urn:WaterMeter:MC0203J22010600005","2024-10-14T07:45:00",20.5,35.391,0.295],
    [35272,"urn:WaterMeter:MC0203J22010600005","2024-10-14T08:00:00",20.5,35.37277,0.307],
    [35273,"urn:WaterMeter:MC0203J22010600005","2024-10-14T08:15:00",20.6,35.253685,0.288],
    [35274,"urn:WaterMeter:MC0203J22010600005","2024-10-14T08:30:00",20.6,35.013924,0.286],
    [35275,"urn:WaterMeter:MC0203J22010600005","2024-10-14T08:45:00",20.7,34.761436,0.287],
    [35276,"urn:WaterMeter:MC0203J22010600005","2024-10-14T09:00:00",20.7,34.662525,0.289],
    [35277,"urn:WaterMeter:MC0203J22010600005","2024-10-14T09:15:00",20.799,34.55934,0.31],
    [35278,"urn:WaterMeter:MC0203J22010600005","2024-10-14T09:30:00",20.799,34.444485,0.291],
    [35279,"urn:WaterMeter:MC0203J22010600005","2024-10-14T09:45:00",21,34.328114,0.28],
    [35280,"urn:WaterMeter:MC0203J22010600005","2024-10-14T10:00:00",21.1,34.32773,0.302],
    [35281,"urn:WaterMeter:MC0203J22010600005","2024-10-14T10:15:00",21.1,34.18265,0.28],
    [35282,"urn:WaterMeter:MC0203J22010600005","2024-10-14T10:30:00",21.2,34.110542,0.274],
    [35283,"urn:WaterMeter:MC0203J22010600005","2024-10-14T10:45:00",21.299,34.00387,0.284],
    [35284,"urn:WaterMeter:MC0203J22010600005","2024-10-14T11:00:00",21.399,34.025166,0.28],
    [35285,"urn:WaterMeter:MC0203J22010600005","2024-10-14T11:15:00",21.5,33.927803,0.273],
    [35286,"urn:WaterMeter:MC0203J22010600005","2024-10-14T11:30:00",21.6,33.885174,0.271],
    [35287,"urn:WaterMeter:MC0203J22010600005","2024-10-14T11:45:00",21.7,33.76725,0.281],
    [35288,"urn:WaterMeter:MC0203J22010600005","2024-10-14T12:00:00",21.799,33.76566,0.276],
    [35289,"urn:WaterMeter:MC0203J22010600005","2024-10-14T12:15:00",21.899,33.65476,0.286],
    [35290,"urn:WaterMeter:MC0203J22010600005","2024-10-14T12:30:00",22,33.58843,0.275],
    [35291,"urn:WaterMeter:MC0203J22010600005","2024-10-14T12:45:00",22.1,33.422794,0.282],
    [35292,"urn:WaterMeter:MC0203J22010600005","2024-10-14T13:00:00",22.2,33.39564,0.267],
    [35293,"urn:WaterMeter:MC0203J22010600005","2024-10-14T13:15:00",22.2,33.363445,0.279],
    [35294,"urn:WaterMeter:MC0203J22010600005","2024-10-14T13:30:00",22.299,33.275394,0.287],
    [35295,"urn:WaterMeter:MC0203J22010600005","2024-10-14T13:45:00",22.299,33.145794,0.264],
    [35296,"urn:WaterMeter:MC0203J22010600005","2024-10-14T14:00:00",22.399,33.15786,0.264],
    [35297,"urn:WaterMeter:MC0203J22010600005","2024-10-14T14:15:00",22.399,33.088425,0.261],
    [35298,"urn:WaterMeter:MC0203J22010600005","2024-10-14T14:30:00",22.5,33.01973,0.261],
    [35299,"urn:WaterMeter:MC0203J22010600005","2024-10-14T14:45:00",22.5,32.96585,0.261],
    [35300,"urn:WaterMeter:MC0203J22010600005","2024-10-14T15:00:00",22.6,32.965073,0.284],
    [35301,"urn:WaterMeter:MC0203J22010600005","2024-10-14T15:15:00",22.5,32.92357,0.263],
    [35302,"urn:WaterMeter:MC0203J22010600005","2024-10-14T15:30:00",22.5,32.868874,0.278],
    [35303,"urn:WaterMeter:MC0203J22010600005","2024-10-14T15:45:00",22.399,32.859177,0.275],
    [35304,"urn:WaterMeter:MC0203J22010600005","2024-10-14T16:00:00",22.399,32.824226,0.269],
    [35305,"urn:WaterMeter:MC0203J22010600005","2024-10-14T16:15:00",22.299,32.826206,0.269],
    [35306,"urn:WaterMeter:MC0203J22010600005","2024-10-14T16:30:00",22.299,32.79944,0.258],
    [35307,"urn:WaterMeter:MC0203J22010600005","2024-10-14T16:45:00",22.2,32.713326,0.273],
    [35308,"urn:WaterMeter:MC0203J22010600005","2024-10-14T17:00:00",22.2,32.71872,0.263],
    [35309,"urn:WaterMeter:MC0203J22010600005","2024-10-14T17:15:00",22.1,32.705566,0.283],
    [35310,"urn:WaterMeter:MC0203J22010600005","2024-10-14T17:30:00",22,32.754444,0.262],
    [35311,"urn:WaterMeter:MC0203J22010600005","2024-10-14T17:45:00",22,32.66639,0.277],
    [35312,"urn:WaterMeter:MC0203J22010600005","2024-10-14T18:00:00",21.899,32.648506,0.268],
    [35313,"urn:WaterMeter:MC0203J22010600005","2024-10-14T18:15:00",21.899,32.65553,0.269],
    [35314,"urn:WaterMeter:MC0203J22010600005","2024-10-14T18:30:00",21.899,32.691605,0.266],
    [35315,"urn:WaterMeter:MC0203J22010600005","2024-10-14T18:45:00",21.799,32.66829,0.264],
    [35316,"urn:WaterMeter:MC0203J22010600005","2024-10-14T19:00:00",21.799,32.646606,0.265],
    [35317,"urn:WaterMeter:MC0203J22010600005","2024-10-14T19:15:00",21.799,32.646606,0.257],
    [35318,"urn:WaterMeter:MC0203J22010600005","2024-10-14T19:30:00",21.799,32.646606,0.277],
    [35319,"urn:WaterMeter:MC0203J22010600005","2024-10-14T19:45:00",21.7,32.594627,0.274],
    [35320,"urn:WaterMeter:MC0203J22010600005","2024-10-14T20:00:00",21.7,32.621742,0.26],
    [35321,"urn:WaterMeter:MC0203J22010600005","2024-10-14T20:15:00",21.7,32.652428,0.265],
    [35322,"urn:WaterMeter:MC0203J22010600005","2024-10-14T20:30:00",21.6,32.63342,0.256],
    [35323,"urn:WaterMeter:MC0203J22010600005","2024-10-14T20:45:00",21.6,32.594627,0.268],
    [35324,"urn:WaterMeter:MC0203J22010600005","2024-10-14T21:00:00",21.6,32.617126,0.262],
    [35325,"urn:WaterMeter:MC0203J22010600005","2024-10-14T21:15:00",21.6,35.02133,0.304],
    [35326,"urn:WaterMeter:MC0203J22010600005","2024-10-14T21:30:00",21.6,36.14663,0.313],
    [35327,"urn:WaterMeter:MC0203J22010600005","2024-10-14T21:45:00",21.6,35.983322,0.278],
    [35328,"urn:WaterMeter:MC0203J22010600005","2024-10-14T22:00:00",21.5,35.953453,0.281],
    [35329,"urn:WaterMeter:MC0203J22010600005","2024-10-14T22:15:00",21.5,35.95966,0.286],
    [35330,"urn:WaterMeter:MC0203J22010600005","2024-10-14T22:30:00",21.5,35.827,0.283],
    [35331,"urn:WaterMeter:MC0203J22010600005","2024-10-14T22:45:00",21.5,35.65865,0.277],
    [35332,"urn:WaterMeter:MC0203J22010600005","2024-10-14T23:00:00",21.5,35.50229,0.285],
    [35333,"urn:WaterMeter:MC0203J22010600005","2024-10-14T23:15:00",21.5,35.337044,0.281],
    [35334,"urn:WaterMeter:MC0203J22010600005","2024-10-14T23:30:00",21.5,35.166794,0.275],
    [35335,"urn:WaterMeter:MC0203J22010600005","2024-10-14T23:45:00",21.5,35.059734,0.27],
    [35336,"urn:WaterMeter:MC0203J22010600005","2024-10-15T00:00:00",21.5,34.906902,0.275],
    [35337,"urn:WaterMeter:MC0203J22010600005","2024-10-15T00:15:00",21.5,34.819237,0.267],
    [35338,"urn:WaterMeter:MC0203J22010600005","2024-10-15T00:30:00",21.399,34.783897,0.292],
    [35339,"urn:WaterMeter:MC0203J22010600005","2024-10-15T00:45:00",21.399,34.691616,0.264],
    [35340,"urn:WaterMeter:MC0203J22010600005","2024-10-15T01:00:00",21.399,34.642353,0.289],
    [35341,"urn:WaterMeter:MC0203J22010600005","2024-10-15T01:15:00",21.399,34.61093,0.269],
    [35342,"urn:WaterMeter:MC0203J22010600005","2024-10-15T01:30:00",21.299,34.58064,0.269],
    [35343,"urn:WaterMeter:MC0203J22010600005","2024-10-15T01:45:00",21.299,34.46198,0.263],
    [35344,"urn:WaterMeter:MC0203J22010600005","2024-10-15T02:00:00",21.299,34.374664,0.259],
    [35345,"urn:WaterMeter:MC0203J22010600005","2024-10-15T02:15:00",21.2,34.330093,0.271],
    [35346,"urn:WaterMeter:MC0203J22010600005","2024-10-15T02:30:00",21.2,34.241226,0.272],
    [35347,"urn:WaterMeter:MC0203J22010600005","2024-10-15T02:45:00",21.2,34.19235,0.269],
    [35348,"urn:WaterMeter:MC0203J22010600005","2024-10-15T03:00:00",21.2,34.16093,0.263],
    [35349,"urn:WaterMeter:MC0203J22010600005","2024-10-15T03:15:00",21.2,34.1792,0.269],
    [35350,"urn:WaterMeter:MC0203J22010600005","2024-10-15T03:30:00",21.2,34.0849,0.263],
    [35351,"urn:WaterMeter:MC0203J22010600005","2024-10-15T03:45:00",21.2,34.111317,0.273],
    [35352,"urn:WaterMeter:MC0203J22010600005","2024-10-15T04:00:00",21.1,34.041107,0.265],
    [35353,"urn:WaterMeter:MC0203J22010600005","2024-10-15T04:15:00",21.1,33.92435,0.272],
    [35354,"urn:WaterMeter:MC0203J22010600005","2024-10-15T04:30:00",21.1,33.915817,0.262],
    [35355,"urn:WaterMeter:MC0203J22010600005","2024-10-15T04:45:00",21.1,33.89836,0.266],
    [35356,"urn:WaterMeter:MC0203J22010600005","2024-10-15T05:00:00",21,33.864227,0.281],
    [35357,"urn:WaterMeter:MC0203J22010600005","2024-10-15T05:15:00",21.1,33.984863,0.27],
    [35358,"urn:WaterMeter:MC0203J22010600005","2024-10-15T05:30:00",21.2,34.418148,0.266],
    [35359,"urn:WaterMeter:MC0203J22010600005","2024-10-15T05:45:00",21.299,35.059345,0.288],
    [35360,"urn:WaterMeter:MC0203J22010600005","2024-10-15T06:00:00",21.299,35.38867,0.278],
    [35361,"urn:WaterMeter:MC0203J22010600005","2024-10-15T06:15:00",21.299,35.56594,0.302],
    [35362,"urn:WaterMeter:MC0203J22010600005","2024-10-15T06:30:00",21.299,35.672226,0.296],
    [35363,"urn:WaterMeter:MC0203J22010600005","2024-10-15T06:45:00",21.299,35.681923,0.281],
    [35364,"urn:WaterMeter:MC0203J22010600005","2024-10-15T07:00:00",21.299,35.76804,0.321],
    [35365,"urn:WaterMeter:MC0203J22010600005","2024-10-15T07:15:00",21.399,35.765713,0.288],
    [35366,"urn:WaterMeter:MC0203J22010600005","2024-10-15T07:30:00",21.399,35.82929,0.291],
    [35367,"urn:WaterMeter:MC0203J22010600005","2024-10-15T07:45:00",21.399,35.89682,0.285],
    [35368,"urn:WaterMeter:MC0203J22010600005","2024-10-15T08:00:00",21.5,35.966606,0.294],
    [35369,"urn:WaterMeter:MC0203J22010600005","2024-10-15T08:15:00",21.5,35.75679,0.282],
    [35370,"urn:WaterMeter:MC0203J22010600005","2024-10-15T08:30:00",21.5,35.561676,0.291],
    [35371,"urn:WaterMeter:MC0203J22010600005","2024-10-15T08:45:00",21.5,35.373543,0.31],
    [35372,"urn:WaterMeter:MC0203J22010600005","2024-10-15T09:00:00",21.5,35.06982,0.286],
    [35373,"urn:WaterMeter:MC0203J22010600005","2024-10-15T09:15:00",21.5,34.987934,0.297],
    [35374,"urn:WaterMeter:MC0203J22010600005","2024-10-15T09:30:00",21.6,34.94763,0.28],
    [35375,"urn:WaterMeter:MC0203J22010600005","2024-10-15T09:45:00",21.6,34.819237,0.282],
    [35376,"urn:WaterMeter:MC0203J22010600005","2024-10-15T10:00:00",21.6,34.764114,0.277],
    [35377,"urn:WaterMeter:MC0203J22010600005","2024-10-15T10:15:00",21.7,34.660583,0.291],
    [35378,"urn:WaterMeter:MC0203J22010600005","2024-10-15T10:30:00",21.799,34.626797,0.273],
    [35379,"urn:WaterMeter:MC0203J22010600005","2024-10-15T10:45:00",21.799,34.425865,0.274],
    [35380,"urn:WaterMeter:MC0203J22010600005","2024-10-15T11:00:00",21.799,34.359962,0.285],
    [35381,"urn:WaterMeter:MC0203J22010600005","2024-10-15T11:15:00",21.799,34.256004,0.288],
    [35382,"urn:WaterMeter:MC0203J22010600005","2024-10-15T11:30:00",21.799,34.111706,0.266],
    [35383,"urn:WaterMeter:MC0203J22010600005","2024-10-15T11:45:00",21.799,34.06128,0.289],
    [35384,"urn:WaterMeter:MC0203J22010600005","2024-10-15T12:00:00",21.799,33.964302,0.286],
    [35385,"urn:WaterMeter:MC0203J22010600005","2024-10-15T12:15:00",21.899,33.926678,0.266],
    [35386,"urn:WaterMeter:MC0203J22010600005","2024-10-15T12:30:00",21.899,33.809143,0.272],
    [35387,"urn:WaterMeter:MC0203J22010600005","2024-10-15T12:45:00",21.899,33.784668,0.267],
    [35388,"urn:WaterMeter:MC0203J22010600005","2024-10-15T13:00:00",21.899,33.743587,0.269],
    [35389,"urn:WaterMeter:MC0203J22010600005","2024-10-15T13:15:00",21.899,33.622177,0.27],
    [35390,"urn:WaterMeter:MC0203J22010600005","2024-10-15T13:30:00",22,33.567482,0.268],
    [35391,"urn:WaterMeter:MC0203J22010600005","2024-10-15T13:45:00",22,33.513527,0.29],
    [35392,"urn:WaterMeter:MC0203J22010600005","2024-10-15T14:00:00",22,33.44642,0.263],
    [35393,"urn:WaterMeter:MC0203J22010600005","2024-10-15T14:15:00",21.899,33.390213,0.276],
    [35394,"urn:WaterMeter:MC0203J22010600005","2024-10-15T14:30:00",21.799,33.360733,0.272],
    [35395,"urn:WaterMeter:MC0203J22010600005","2024-10-15T14:45:00",21.799,33.337845,0.276],
    [35396,"urn:WaterMeter:MC0203J22010600005","2024-10-15T15:00:00",21.7,33.323494,0.267],
    [35397,"urn:WaterMeter:MC0203J22010600005","2024-10-15T15:15:00",21.7,33.28509,0.259],
    [35398,"urn:WaterMeter:MC0203J22010600005","2024-10-15T15:30:00",21.7,33.267635,0.267],
    [35399,"urn:WaterMeter:MC0203J22010600005","2024-10-15T15:45:00",21.7,33.237377,0.263],
    [35400,"urn:WaterMeter:MC0203J22010600005","2024-10-15T16:00:00",21.7,33.2463,0.273],
    [35401,"urn:WaterMeter:MC0203J22010600005","2024-10-15T16:15:00",21.7,33.24824,0.268],
    [35402,"urn:WaterMeter:MC0203J22010600005","2024-10-15T16:30:00",21.6,33.201305,0.256],
    [35403,"urn:WaterMeter:MC0203J22010600005","2024-10-15T16:45:00",21.6,33.184586,0.269],
    [35404,"urn:WaterMeter:MC0203J22010600005","2024-10-15T17:00:00",21.5,33.151264,0.27],
    [35405,"urn:WaterMeter:MC0203J22010600005","2024-10-15T17:15:00",21.399,33.196648,0.267],
    [35406,"urn:WaterMeter:MC0203J22010600005","2024-10-15T17:30:00",21.399,33.170662,0.264],
    [35407,"urn:WaterMeter:MC0203J22010600005","2024-10-15T17:45:00",21.299,33.122948,0.29],
    [35408,"urn:WaterMeter:MC0203J22010600005","2024-10-15T18:00:00",21.2,33.08959,0.259],
    [35409,"urn:WaterMeter:MC0203J22010600005","2024-10-15T18:15:00",21.1,33.06205,0.261],
    [35410,"urn:WaterMeter:MC0203J22010600005","2024-10-15T18:30:00",21.1,33.060497,0.259],
    [35411,"urn:WaterMeter:MC0203J22010600005","2024-10-15T18:45:00",21,33.092693,0.273],
    [35412,"urn:WaterMeter:MC0203J22010600005","2024-10-15T19:00:00",20.899,33.05619,0.26],
    [35413,"urn:WaterMeter:MC0203J22010600005","2024-10-15T19:15:00",20.899,33.041878,0.263],
    [35414,"urn:WaterMeter:MC0203J22010600005","2024-10-15T19:30:00",20.799,33.091915,0.27],
    [35415,"urn:WaterMeter:MC0203J22010600005","2024-10-15T19:45:00",20.799,33.022484,0.258],
    [35416,"urn:WaterMeter:MC0203J22010600005","2024-10-15T20:00:00",20.7,33.03024,0.273],
    [35417,"urn:WaterMeter:MC0203J22010600005","2024-10-15T20:15:00",20.7,32.98986,0.282],
    [35418,"urn:WaterMeter:MC0203J22010600005","2024-10-15T20:30:00",20.6,33.055027,0.273],
    [35419,"urn:WaterMeter:MC0203J22010600005","2024-10-15T20:45:00",20.6,33.02636,0.281],
    [35420,"urn:WaterMeter:MC0203J22010600005","2024-10-15T21:00:00",20.5,32.99684,0.287],
    [35421,"urn:WaterMeter:MC0203J22010600005","2024-10-15T21:15:00",20.5,32.999557,0.269],
    [35422,"urn:WaterMeter:MC0203J22010600005","2024-10-15T21:30:00",20.399,33.00115,0.258],
    [35423,"urn:WaterMeter:MC0203J22010600005","2024-10-15T21:45:00",20.399,32.950294,0.26],
    [35424,"urn:WaterMeter:MC0203J22010600005","2024-10-15T22:00:00",20.299,32.933266,0.261],
    [35425,"urn:WaterMeter:MC0203J22010600005","2024-10-15T22:15:00",20.299,32.96352,0.261],
    [35426,"urn:WaterMeter:MC0203J22010600005","2024-10-15T22:30:00",20.2,32.946068,0.279],
    [35427,"urn:WaterMeter:MC0203J22010600005","2024-10-15T22:45:00",20.2,32.88439,0.262],
    [35428,"urn:WaterMeter:MC0203J22010600005","2024-10-15T23:00:00",20.2,32.88672,0.256],
    [35429,"urn:WaterMeter:MC0203J22010600005","2024-10-15T23:15:00",20.1,32.977837,0.27],
    [35430,"urn:WaterMeter:MC0203J22010600005","2024-10-15T23:30:00",20.1,32.910378,0.266],
    [35431,"urn:WaterMeter:MC0203J22010600005","2024-10-15T23:45:00",20,32.84133,0.26],
    [35432,"urn:WaterMeter:MC0203J22010600005","2024-10-16T00:00:00",20,32.90805,0.269],
    [35433,"urn:WaterMeter:MC0203J22010600005","2024-10-16T00:15:00",19.899,32.861076,0.261],
    [35434,"urn:WaterMeter:MC0203J22010600005","2024-10-16T00:30:00",19.899,32.855297,0.254],
    [35435,"urn:WaterMeter:MC0203J22010600005","2024-10-16T00:45:00",19.799,32.877407,0.292],
    [35436,"urn:WaterMeter:MC0203J22010600005","2024-10-16T01:00:00",19.799,32.888657,0.267],
    [35437,"urn:WaterMeter:MC0203J22010600005","2024-10-16T01:15:00",19.7,32.86732,0.257],
    [35438,"urn:WaterMeter:MC0203J22010600005","2024-10-16T01:30:00",19.7,32.859177,0.257],
    [35439,"urn:WaterMeter:MC0203J22010600005","2024-10-16T01:45:00",19.7,32.813015,0.267],
    [35440,"urn:WaterMeter:MC0203J22010600005","2024-10-16T02:00:00",19.6,32.84909,0.289],
    [35441,"urn:WaterMeter:MC0203J22010600005","2024-10-16T02:15:00",19.5,32.832413,0.272],
    [35442,"urn:WaterMeter:MC0203J22010600005","2024-10-16T02:30:00",19.5,32.792458,0.263],
    [35443,"urn:WaterMeter:MC0203J22010600005","2024-10-16T02:45:00",19.399,32.83086,0.265],
    [35444,"urn:WaterMeter:MC0203J22010600005","2024-10-16T03:00:00",19.399,32.824226,0.255],
    [35445,"urn:WaterMeter:MC0203J22010600005","2024-10-16T03:15:00",19.399,32.785824,0.265],
    [35446,"urn:WaterMeter:MC0203J22010600005","2024-10-16T03:30:00",19.299,32.769184,0.253],
    [35447,"urn:WaterMeter:MC0203J22010600005","2024-10-16T03:45:00",19.299,32.756733,0.259],
    [35448,"urn:WaterMeter:MC0203J22010600005","2024-10-16T04:00:00",19.299,32.750565,0.252],
    [35449,"urn:WaterMeter:MC0203J22010600005","2024-10-16T04:15:00",19.2,32.761036,0.258],
    [35450,"urn:WaterMeter:MC0203J22010600005","2024-10-16T04:30:00",19.2,32.7238,0.26],
    [35451,"urn:WaterMeter:MC0203J22010600005","2024-10-16T04:45:00",19.1,32.786213,0.253],
    [35452,"urn:WaterMeter:MC0203J22010600005","2024-10-16T05:00:00",19.1,32.73311,0.259],
    [35453,"urn:WaterMeter:MC0203J22010600005","2024-10-16T05:15:00",19.299,32.818836,0.256],
    [35454,"urn:WaterMeter:MC0203J22010600005","2024-10-16T05:30:00",19.399,33.051186,0.261],
    [35455,"urn:WaterMeter:MC0203J22010600005","2024-10-16T05:45:00",19.399,33.81574,0.263],
    [35456,"urn:WaterMeter:MC0203J22010600005","2024-10-16T06:00:00",19.399,34.545765,0.275],
    [35457,"urn:WaterMeter:MC0203J22010600005","2024-10-16T06:15:00",19.399,34.95884,0.28],
    [35458,"urn:WaterMeter:MC0203J22010600005","2024-10-16T06:30:00",19.399,35.189255,0.307],
    [35459,"urn:WaterMeter:MC0203J22010600005","2024-10-16T06:45:00",19.399,35.355663,0.286],
    [35460,"urn:WaterMeter:MC0203J22010600005","2024-10-16T07:00:00",19.399,35.489914,0.287],
    [35461,"urn:WaterMeter:MC0203J22010600005","2024-10-16T07:15:00",19.399,35.570984,0.29],
    [35462,"urn:WaterMeter:MC0203J22010600005","2024-10-16T07:30:00",19.399,35.65904,0.283],
    [35463,"urn:WaterMeter:MC0203J22010600005","2024-10-16T07:45:00",19.5,35.721878,0.294],
    [35464,"urn:WaterMeter:MC0203J22010600005","2024-10-16T08:00:00",19.6,35.763733,0.289],
    [35465,"urn:WaterMeter:MC0203J22010600005","2024-10-16T08:15:00",19.7,35.52948,0.292],
    [35466,"urn:WaterMeter:MC0203J22010600005","2024-10-16T08:30:00",19.7,35.321953,0.286],
    [35467,"urn:WaterMeter:MC0203J22010600005","2024-10-16T08:45:00",19.799,35.061672,0.298],
    [35468,"urn:WaterMeter:MC0203J22010600005","2024-10-16T09:00:00",19.799,34.891346,0.287],
    [35469,"urn:WaterMeter:MC0203J22010600005","2024-10-16T09:15:00",19.899,34.79247,0.287],
    [35470,"urn:WaterMeter:MC0203J22010600005","2024-10-16T09:30:00",20,34.731182,0.292],
    [35471,"urn:WaterMeter:MC0203J22010600005","2024-10-16T09:45:00",20,34.650497,0.299],
    [35472,"urn:WaterMeter:MC0203J22010600005","2024-10-16T10:00:00",20.1,34.590725,0.286],
    [35473,"urn:WaterMeter:MC0203J22010600005","2024-10-16T10:15:00",20.2,34.467022,0.279],
    [35474,"urn:WaterMeter:MC0203J22010600005","2024-10-16T10:30:00",20.399,34.376602,0.302],
    [35475,"urn:WaterMeter:MC0203J22010600005","2024-10-16T10:45:00",20.5,34.264538,0.296],
    [35476,"urn:WaterMeter:MC0203J22010600005","2024-10-16T11:00:00",20.799,34.18657,0.285],
    [35477,"urn:WaterMeter:MC0203J22010600005","2024-10-16T11:15:00",21,34.148945,0.275],
    [35478,"urn:WaterMeter:MC0203J22010600005","2024-10-16T11:30:00",21.1,34.080284,0.282],
    [35479,"urn:WaterMeter:MC0203J22010600005","2024-10-16T11:45:00",21.299,33.92974,0.274],
    [35480,"urn:WaterMeter:MC0203J22010600005","2024-10-16T12:00:00",21.5,33.814922,0.27],
    [35481,"urn:WaterMeter:MC0203J22010600005","2024-10-16T12:15:00",21.7,33.67722,0.293],
    [35482,"urn:WaterMeter:MC0203J22010600005","2024-10-16T12:30:00",21.899,33.577568,0.265],
    [35483,"urn:WaterMeter:MC0203J22010600005","2024-10-16T12:45:00",22.1,33.584938,0.266],
    [35484,"urn:WaterMeter:MC0203J22010600005","2024-10-16T13:00:00",22.299,33.479427,0.264],
    [35485,"urn:WaterMeter:MC0203J22010600005","2024-10-16T13:15:00",22.399,33.431717,0.272],
    [35486,"urn:WaterMeter:MC0203J22010600005","2024-10-16T13:30:00",22.5,33.329273,0.288],
    [35487,"urn:WaterMeter:MC0203J22010600005","2024-10-16T13:45:00",22.5,33.22846,0.254],
    [35488,"urn:WaterMeter:MC0203J22010600005","2024-10-16T14:00:00",22.6,33.219536,0.263],
    [35489,"urn:WaterMeter:MC0203J22010600005","2024-10-16T14:15:00",22.7,33.15592,0.276],
    [35490,"urn:WaterMeter:MC0203J22010600005","2024-10-16T14:30:00",22.7,33.09382,0.263],
    [35491,"urn:WaterMeter:MC0203J22010600005","2024-10-16T14:45:00",22.7,32.99025,0.26],
    [35492,"urn:WaterMeter:MC0203J22010600005","2024-10-16T15:00:00",22.7,32.94176,0.261],
    [35493,"urn:WaterMeter:MC0203J22010600005","2024-10-16T15:15:00",22.7,32.89409,0.264],
    [35494,"urn:WaterMeter:MC0203J22010600005","2024-10-16T15:30:00",22.7,32.8828,0.263],
    [35495,"urn:WaterMeter:MC0203J22010600005","2024-10-16T15:45:00",22.6,32.85724,0.262],
    [35496,"urn:WaterMeter:MC0203J22010600005","2024-10-16T16:00:00",22.6,32.824615,0.26],
    [35497,"urn:WaterMeter:MC0203J22010600005","2024-10-16T16:15:00",22.5,32.750954,0.261],
    [35498,"urn:WaterMeter:MC0203J22010600005","2024-10-16T16:30:00",22.5,32.77539,0.255],
    [35499,"urn:WaterMeter:MC0203J22010600005","2024-10-16T16:45:00",22.399,32.74742,0.267],
    [35500,"urn:WaterMeter:MC0203J22010600005","2024-10-16T17:00:00",22.399,32.739315,0.262],
    [35501,"urn:WaterMeter:MC0203J22010600005","2024-10-16T17:15:00",22.299,32.671432,0.264],
    [35502,"urn:WaterMeter:MC0203J22010600005","2024-10-16T17:30:00",22.2,32.623722,0.259],
    [35503,"urn:WaterMeter:MC0203J22010600005","2024-10-16T17:45:00",22.1,32.664837,0.257],
    [35504,"urn:WaterMeter:MC0203J22010600005","2024-10-16T18:00:00",22,32.652428,0.258],
    [35505,"urn:WaterMeter:MC0203J22010600005","2024-10-16T18:15:00",21.899,32.64234,0.257],
    [35506,"urn:WaterMeter:MC0203J22010600005","2024-10-16T18:30:00",21.899,32.60782,0.271],
    [35507,"urn:WaterMeter:MC0203J22010600005","2024-10-16T18:45:00",21.799,32.60006,0.263],
    [35508,"urn:WaterMeter:MC0203J22010600005","2024-10-16T19:00:00",21.7,32.60235,0.261],
    [35509,"urn:WaterMeter:MC0203J22010600005","2024-10-16T19:15:00",21.7,32.60006,0.256],
    [35510,"urn:WaterMeter:MC0203J22010600005","2024-10-16T19:30:00",21.6,32.553085,0.261],
    [35511,"urn:WaterMeter:MC0203J22010600005","2024-10-16T19:45:00",21.5,32.57834,0.27],
    [35512,"urn:WaterMeter:MC0203J22010600005","2024-10-16T20:00:00",21.5,32.594242,0.27],
    [35513,"urn:WaterMeter:MC0203J22010600005","2024-10-16T20:15:00",21.399,32.54455,0.258],
    [35514,"urn:WaterMeter:MC0203J22010600005","2024-10-16T20:30:00",21.399,32.552696,0.278],
    [35515,"urn:WaterMeter:MC0203J22010600005","2024-10-16T20:45:00",21.299,32.574844,0.257],
    [35516,"urn:WaterMeter:MC0203J22010600005","2024-10-16T21:00:00",21.299,32.549244,0.254],
    [35517,"urn:WaterMeter:MC0203J22010600005","2024-10-16T21:15:00",21.2,32.532913,0.252],
    [35518,"urn:WaterMeter:MC0203J22010600005","2024-10-16T21:30:00",21.1,32.560493,0.273],
    [35519,"urn:WaterMeter:MC0203J22010600005","2024-10-16T21:45:00",21.1,32.517048,0.273],
    [35520,"urn:WaterMeter:MC0203J22010600005","2024-10-16T22:00:00",21,32.492573,0.26],
    [35521,"urn:WaterMeter:MC0203J22010600005","2024-10-16T22:15:00",20.899,32.471664,0.263],
    [35522,"urn:WaterMeter:MC0203J22010600005","2024-10-16T22:30:00",20.899,32.483303,0.267],
    [35523,"urn:WaterMeter:MC0203J22010600005","2024-10-16T22:45:00",20.799,32.47318,0.26],
    [35524,"urn:WaterMeter:MC0203J22010600005","2024-10-16T23:00:00",20.799,32.464294,0.256],
    [35525,"urn:WaterMeter:MC0203J22010600005","2024-10-16T23:15:00",20.7,32.484467,0.257],
    [35526,"urn:WaterMeter:MC0203J22010600005","2024-10-16T23:30:00",20.6,32.50774,0.259],
    [35527,"urn:WaterMeter:MC0203J22010600005","2024-10-16T23:45:00",20.6,32.474728,0.261],
    [35528,"urn:WaterMeter:MC0203J22010600005","2024-10-17T00:00:00",20.5,32.447575,0.257],
    [35529,"urn:WaterMeter:MC0203J22010600005","2024-10-17T00:15:00",20.5,32.486794,0.253],
    [35530,"urn:WaterMeter:MC0203J22010600005","2024-10-17T00:30:00",20.399,32.467396,0.257],
    [35531,"urn:WaterMeter:MC0203J22010600005","2024-10-17T00:45:00",20.299,32.40223,0.268],
    [35532,"urn:WaterMeter:MC0203J22010600005","2024-10-17T01:00:00",20.299,32.47244,0.253],
    [35533,"urn:WaterMeter:MC0203J22010600005","2024-10-17T01:15:00",20.299,32.41115,0.256],
    [35534,"urn:WaterMeter:MC0203J22010600005","2024-10-17T01:30:00",20.2,32.471275,0.25],
    [35535,"urn:WaterMeter:MC0203J22010600005","2024-10-17T01:45:00",20.1,32.4577,0.255],
    [35536,"urn:WaterMeter:MC0203J22010600005","2024-10-17T02:00:00",20.1,32.44719,0.254],
    [35537,"urn:WaterMeter:MC0203J22010600005","2024-10-17T02:15:00",20,32.428997,0.27],
    [35538,"urn:WaterMeter:MC0203J22010600005","2024-10-17T02:30:00",19.899,32.454945,0.27],
    [35539,"urn:WaterMeter:MC0203J22010600005","2024-10-17T02:45:00",19.899,32.38361,0.259],
    [35540,"urn:WaterMeter:MC0203J22010600005","2024-10-17T03:00:00",19.799,32.37469,0.252],
    [35541,"urn:WaterMeter:MC0203J22010600005","2024-10-17T03:15:00",19.7,32.43555,0.257],
    [35542,"urn:WaterMeter:MC0203J22010600005","2024-10-17T03:30:00",19.6,32.42628,0.252],
    [35543,"urn:WaterMeter:MC0203J22010600005","2024-10-17T03:45:00",19.5,32.38051,0.256],
    [35544,"urn:WaterMeter:MC0203J22010600005","2024-10-17T04:00:00",19.399,32.406498,0.258],
    [35545,"urn:WaterMeter:MC0203J22010600005","2024-10-17T04:15:00",19.299,32.423565,0.259],
    [35546,"urn:WaterMeter:MC0203J22010600005","2024-10-17T04:30:00",19.299,32.384773,0.252],
    [35547,"urn:WaterMeter:MC0203J22010600005","2024-10-17T04:45:00",19.2,32.362278,0.249],
    [35548,"urn:WaterMeter:MC0203J22010600005","2024-10-17T05:00:00",19.1,32.35103,0.275],
    [35549,"urn:WaterMeter:MC0203J22010600005","2024-10-17T05:15:00",19.1,32.40572,0.247],
    [35550,"urn:WaterMeter:MC0203J22010600005","2024-10-17T05:30:00",19.299,32.62605,0.26],
    [35551,"urn:WaterMeter:MC0203J22010600005","2024-10-17T05:45:00",19.2,33.328495,0.313],
    [35552,"urn:WaterMeter:MC0203J22010600005","2024-10-17T06:00:00",19.1,34.239674,0.296],
    [35553,"urn:WaterMeter:MC0203J22010600005","2024-10-17T06:15:00",19.1,34.684982,0.285],
    [35554,"urn:WaterMeter:MC0203J22010600005","2024-10-17T06:30:00",19,35.022884,0.283],
    [35555,"urn:WaterMeter:MC0203J22010600005","2024-10-17T06:45:00",19,35.300232,0.287],
    [35556,"urn:WaterMeter:MC0203J22010600005","2024-10-17T07:00:00",19.1,35.419704,0.292],
    [35557,"urn:WaterMeter:MC0203J22010600005","2024-10-17T07:15:00",19.1,35.510086,0.302],
    [35558,"urn:WaterMeter:MC0203J22010600005","2024-10-17T07:30:00",19.1,35.64042,0.3],
    [35559,"urn:WaterMeter:MC0203J22010600005","2024-10-17T07:45:00",19.1,35.717224,0.299],
    [35560,"urn:WaterMeter:MC0203J22010600005","2024-10-17T08:00:00",19.2,35.785107,0.311],
    [35561,"urn:WaterMeter:MC0203J22010600005","2024-10-17T08:15:00",19.2,35.549225,0.3],
    [35562,"urn:WaterMeter:MC0203J22010600005","2024-10-17T08:30:00",19.1,35.28937,0.311],
    [35563,"urn:WaterMeter:MC0203J22010600005","2024-10-17T08:45:00",19.1,34.957676,0.291],
    [35564,"urn:WaterMeter:MC0203J22010600005","2024-10-17T09:00:00",19.1,34.85686,0.281],
    [35565,"urn:WaterMeter:MC0203J22010600005","2024-10-17T09:15:00",19.2,34.712173,0.308],
    [35566,"urn:WaterMeter:MC0203J22010600005","2024-10-17T09:30:00",19.299,34.640026,0.291],
    [35567,"urn:WaterMeter:MC0203J22010600005","2024-10-17T09:45:00",19.299,34.60356,0.275],
    [35568,"urn:WaterMeter:MC0203J22010600005","2024-10-17T10:00:00",19.399,34.53215,0.282],
    [35569,"urn:WaterMeter:MC0203J22010600005","2024-10-17T10:15:00",19.5,34.412327,0.284],
    [35570,"urn:WaterMeter:MC0203J22010600005","2024-10-17T10:30:00",19.6,34.243202,0.3],
    [35571,"urn:WaterMeter:MC0203J22010600005","2024-10-17T10:45:00",19.7,34.196266,0.28],
    [35572,"urn:WaterMeter:MC0203J22010600005","2024-10-17T11:00:00",19.7,34.12063,0.29],
    [35573,"urn:WaterMeter:MC0203J22010600005","2024-10-17T11:15:00",19.799,33.98021,0.285],
    [35574,"urn:WaterMeter:MC0203J22010600005","2024-10-17T11:30:00",19.799,33.92629,0.276],
    [35575,"urn:WaterMeter:MC0203J22010600005","2024-10-17T11:45:00",19.899,33.776947,0.276],
    [35576,"urn:WaterMeter:MC0203J22010600005","2024-10-17T12:00:00",19.899,33.715622,0.274],
    [35577,"urn:WaterMeter:MC0203J22010600005","2024-10-17T12:15:00",19.799,33.621788,0.282],
    [35578,"urn:WaterMeter:MC0203J22010600005","2024-10-17T12:30:00",19.799,33.600025,0.271],
    [35579,"urn:WaterMeter:MC0203J22010600005","2024-10-17T12:45:00",19.799,33.52908,0.292],
    [35580,"urn:WaterMeter:MC0203J22010600005","2024-10-17T13:00:00",19.7,33.49533,0.268],
    [35581,"urn:WaterMeter:MC0203J22010600005","2024-10-17T13:15:00",19.7,33.430943,0.268],
    [35582,"urn:WaterMeter:MC0203J22010600005","2024-10-17T13:30:00",19.7,33.384743,0.272],
    [35583,"urn:WaterMeter:MC0203J22010600005","2024-10-17T13:45:00",19.7,33.332027,0.287],
    [35584,"urn:WaterMeter:MC0203J22010600005","2024-10-17T14:00:00",19.7,33.229233,0.296],
    [35585,"urn:WaterMeter:MC0203J22010600005","2024-10-17T14:15:00",19.7,33.170662,0.268],
    [35586,"urn:WaterMeter:MC0203J22010600005","2024-10-17T14:30:00",19.799,33.110924,0.264],
    [35587,"urn:WaterMeter:MC0203J22010600005","2024-10-17T14:45:00",19.799,33.095757,0.272],
    [35588,"urn:WaterMeter:MC0203J22010600005","2024-10-17T15:00:00",19.7,33.00425,0.274],
    [35589,"urn:WaterMeter:MC0203J22010600005","2024-10-17T15:15:00",19.6,33.0027,0.266],
    [35590,"urn:WaterMeter:MC0203J22010600005","2024-10-17T15:30:00",19.5,32.967014,0.27],
    [35591,"urn:WaterMeter:MC0203J22010600005","2024-10-17T15:45:00",19.399,32.92512,0.262],
    [35592,"urn:WaterMeter:MC0203J22010600005","2024-10-17T16:00:00",19.399,32.855686,0.272],
    [35593,"urn:WaterMeter:MC0203J22010600005","2024-10-17T16:15:00",19.299,32.86034,0.262],
    [35594,"urn:WaterMeter:MC0203J22010600005","2024-10-17T16:30:00",19.299,32.85258,0.259],
    [35595,"urn:WaterMeter:MC0203J22010600005","2024-10-17T16:45:00",19.2,32.774612,0.263],
    [35596,"urn:WaterMeter:MC0203J22010600005","2024-10-17T17:00:00",19.2,32.81922,0.261],
    [35597,"urn:WaterMeter:MC0203J22010600005","2024-10-17T17:15:00",19.2,32.81961,0.282],
    [35598,"urn:WaterMeter:MC0203J22010600005","2024-10-17T17:30:00",19.1,32.78082,0.274],
    [35599,"urn:WaterMeter:MC0203J22010600005","2024-10-17T17:45:00",19.1,32.737335,0.26],
    [35600,"urn:WaterMeter:MC0203J22010600005","2024-10-17T18:00:00",19.1,32.714878,0.259],
    [35601,"urn:WaterMeter:MC0203J22010600005","2024-10-17T18:15:00",19,32.72923,0.263],
    [35602,"urn:WaterMeter:MC0203J22010600005","2024-10-17T18:30:00",18.899,32.672985,0.265],
    [35603,"urn:WaterMeter:MC0203J22010600005","2024-10-17T18:45:00",18.899,32.694706,0.266],
    [35604,"urn:WaterMeter:MC0203J22010600005","2024-10-17T19:00:00",18.799,32.678764,0.261],
    [35605,"urn:WaterMeter:MC0203J22010600005","2024-10-17T19:15:00",18.799,32.621353,0.267],
    [35606,"urn:WaterMeter:MC0203J22010600005","2024-10-17T19:30:00",18.7,32.69393,0.271],
    [35607,"urn:WaterMeter:MC0203J22010600005","2024-10-17T19:45:00",18.6,32.656693,0.258],
    [35608,"urn:WaterMeter:MC0203J22010600005","2024-10-17T20:00:00",18.5,32.626823,0.272],
    [35609,"urn:WaterMeter:MC0203J22010600005","2024-10-17T20:15:00",18.399,32.661736,0.267],
    [35610,"urn:WaterMeter:MC0203J22010600005","2024-10-17T20:30:00",18.399,32.639973,0.284],
    [35611,"urn:WaterMeter:MC0203J22010600005","2024-10-17T20:45:00",18.299,32.664837,0.269],
    [35612,"urn:WaterMeter:MC0203J22010600005","2024-10-17T21:00:00",18.2,32.665615,0.264],
    [35613,"urn:WaterMeter:MC0203J22010600005","2024-10-17T21:15:00",18.1,32.60933,0.268],
    [35614,"urn:WaterMeter:MC0203J22010600005","2024-10-17T21:30:00",17.899,32.631054,0.259],
    [35615,"urn:WaterMeter:MC0203J22010600005","2024-10-17T21:45:00",17.799,32.58493,0.266],
    [35616,"urn:WaterMeter:MC0203J22010600005","2024-10-17T22:00:00",17.7,32.601574,0.256],
    [35617,"urn:WaterMeter:MC0203J22010600005","2024-10-17T22:15:00",17.6,32.625275,0.258],
    [35618,"urn:WaterMeter:MC0203J22010600005","2024-10-17T22:30:00",17.5,32.597733,0.265],
    [35619,"urn:WaterMeter:MC0203J22010600005","2024-10-17T22:45:00",17.299,32.557003,0.268],
    [35620,"urn:WaterMeter:MC0203J22010600005","2024-10-17T23:00:00",17.1,32.57756,0.261],
    [35621,"urn:WaterMeter:MC0203J22010600005","2024-10-17T23:15:00",17.1,32.598896,0.256],
    [35622,"urn:WaterMeter:MC0203J22010600005","2024-10-17T23:30:00",17,32.564373,0.265],
    [35623,"urn:WaterMeter:MC0203J22010600005","2024-10-17T23:45:00",16.899,32.60972,0.274],
    [35624,"urn:WaterMeter:MC0203J22010600005","2024-10-18T00:00:00",16.799,32.576786,0.273],
    [35625,"urn:WaterMeter:MC0203J22010600005","2024-10-18T00:15:00",16.7,32.564373,0.261],
    [35626,"urn:WaterMeter:MC0203J22010600005","2024-10-18T00:30:00",16.6,32.55972,0.261],
    [35627,"urn:WaterMeter:MC0203J22010600005","2024-10-18T00:45:00",16.5,32.5892,0.274],
    [35628,"urn:WaterMeter:MC0203J22010600005","2024-10-18T01:00:00",16.399,32.527134,0.268],
    [35629,"urn:WaterMeter:MC0203J22010600005","2024-10-18T01:15:00",16.299,32.532913,0.272],
    [35630,"urn:WaterMeter:MC0203J22010600005","2024-10-18T01:30:00",16.2,32.53528,0.268],
    [35631,"urn:WaterMeter:MC0203J22010600005","2024-10-18T01:45:00",16.2,32.579502,0.26],
    [35632,"urn:WaterMeter:MC0203J22010600005","2024-10-18T02:00:00",16.1,32.52558,0.259],
    [35633,"urn:WaterMeter:MC0203J22010600005","2024-10-18T02:15:00",16,32.561268,0.255],
    [35634,"urn:WaterMeter:MC0203J22010600005","2024-10-18T02:30:00",15.899,32.525154,0.259],
    [35635,"urn:WaterMeter:MC0203J22010600005","2024-10-18T02:45:00",15.8,32.534077,0.262],
    [35636,"urn:WaterMeter:MC0203J22010600005","2024-10-18T03:00:00",15.8,32.535667,0.255],
    [35637,"urn:WaterMeter:MC0203J22010600005","2024-10-18T03:15:00",15.699,32.562782,0.26],
    [35638,"urn:WaterMeter:MC0203J22010600005","2024-10-18T03:30:00",15.699,32.497265,0.25],
    [35639,"urn:WaterMeter:MC0203J22010600005","2024-10-18T03:45:00",15.8,32.589935,0.249],
    [35640,"urn:WaterMeter:MC0203J22010600005","2024-10-18T04:00:00",15.8,32.55894,0.25],
    [35641,"urn:WaterMeter:MC0203J22010600005","2024-10-18T04:15:00",15.899,32.523605,0.259],
    [35642,"urn:WaterMeter:MC0203J22010600005","2024-10-18T04:30:00",15.899,32.541874,0.252],
    [35643,"urn:WaterMeter:MC0203J22010600005","2024-10-18T04:45:00",16,32.48912,0.256],
    [35644,"urn:WaterMeter:MC0203J22010600005","2024-10-18T05:00:00",16,32.488342,0.25],
    [35645,"urn:WaterMeter:MC0203J22010600005","2024-10-18T05:15:00",16.2,32.550407,0.25],
    [35646,"urn:WaterMeter:MC0203J22010600005","2024-10-18T05:30:00",16.399,32.85995,0.255],
    [35647,"urn:WaterMeter:MC0203J22010600005","2024-10-18T05:45:00",16.5,33.690445,0.269],
    [35648,"urn:WaterMeter:MC0203J22010600005","2024-10-18T06:00:00",16.5,34.43285,0.274],
    [35649,"urn:WaterMeter:MC0203J22010600005","2024-10-18T06:15:00",16.6,34.869274,0.289],
    [35650,"urn:WaterMeter:MC0203J22010600005","2024-10-18T06:30:00",16.6,35.12529,0.304],
    [35651,"urn:WaterMeter:MC0203J22010600005","2024-10-18T06:45:00",16.7,35.293247,0.288],
    [35652,"urn:WaterMeter:MC0203J22010600005","2024-10-18T07:00:00",16.7,35.4026,0.294],
    [35653,"urn:WaterMeter:MC0203J22010600005","2024-10-18T07:15:00",16.7,35.56245,0.298],
    [35654,"urn:WaterMeter:MC0203J22010600005","2024-10-18T07:30:00",16.799,35.587666,0.297],
    [35655,"urn:WaterMeter:MC0203J22010600005","2024-10-18T07:45:00",16.799,35.613655,0.313],
    [35656,"urn:WaterMeter:MC0203J22010600005","2024-10-18T08:00:00",16.899,35.58301,0.316],
    [35657,"urn:WaterMeter:MC0203J22010600005","2024-10-18T08:15:00",16.899,35.3813,0.291],
    [35658,"urn:WaterMeter:MC0203J22010600005","2024-10-18T08:30:00",16.799,35.00504,0.304],
    [35659,"urn:WaterMeter:MC0203J22010600005","2024-10-18T08:45:00",16.799,34.88673,0.283],
    [35660,"urn:WaterMeter:MC0203J22010600005","2024-10-18T09:00:00",16.799,34.76842,0.3],
    [35661,"urn:WaterMeter:MC0203J22010600005","2024-10-18T09:15:00",16.899,34.731956,0.284],
    [35662,"urn:WaterMeter:MC0203J22010600005","2024-10-18T09:30:00",16.899,34.68731,0.275],
    [35663,"urn:WaterMeter:MC0203J22010600005","2024-10-18T09:45:00",17,34.619816,0.288],
    [35664,"urn:WaterMeter:MC0203J22010600005","2024-10-18T10:00:00",17,34.47633,0.287],
    [35665,"urn:WaterMeter:MC0203J22010600005","2024-10-18T10:15:00",17,34.451466,0.29],
    [35666,"urn:WaterMeter:MC0203J22010600005","2024-10-18T10:30:00",17.1,34.31648,0.286],
    [35667,"urn:WaterMeter:MC0203J22010600005","2024-10-18T10:45:00",17.1,34.184242,0.29],
    [35668,"urn:WaterMeter:MC0203J22010600005","2024-10-18T11:00:00",17.2,34.11675,0.274],
    [35669,"urn:WaterMeter:MC0203J22010600005","2024-10-18T11:15:00",17.299,34.084515,0.271],
    [35670,"urn:WaterMeter:MC0203J22010600005","2024-10-18T11:30:00",17.399,33.97555,0.271],
    [35671,"urn:WaterMeter:MC0203J22010600005","2024-10-18T11:45:00",17.5,33.88595,0.279],
    [35672,"urn:WaterMeter:MC0203J22010600005","2024-10-18T12:00:00",17.6,33.776947,0.274],
    [35673,"urn:WaterMeter:MC0203J22010600005","2024-10-18T12:15:00",17.7,33.732338,0.275],
    [35674,"urn:WaterMeter:MC0203J22010600005","2024-10-18T12:30:00",17.899,33.67299,0.287],
    [35675,"urn:WaterMeter:MC0203J22010600005","2024-10-18T12:45:00",18.1,33.581406,0.264],
    [35676,"urn:WaterMeter:MC0203J22010600005","2024-10-18T13:00:00",18.2,33.58649,0.27],
    [35677,"urn:WaterMeter:MC0203J22010600005","2024-10-18T13:15:00",18.299,33.48137,0.286],
    [35678,"urn:WaterMeter:MC0203J22010600005","2024-10-18T13:30:00",18.299,33.374695,0.265],
    [35679,"urn:WaterMeter:MC0203J22010600005","2024-10-18T13:45:00",18.399,33.335518,0.255],
    [35680,"urn:WaterMeter:MC0203J22010600005","2024-10-18T14:00:00",18.5,33.324657,0.273],
    [35681,"urn:WaterMeter:MC0203J22010600005","2024-10-18T14:15:00",18.6,33.251694,0.267],
    [35682,"urn:WaterMeter:MC0203J22010600005","2024-10-18T14:30:00",18.6,33.178806,0.262],
    [35683,"urn:WaterMeter:MC0203J22010600005","2024-10-18T14:45:00",18.6,33.14661,0.27],
    [35684,"urn:WaterMeter:MC0203J22010600005","2024-10-18T15:00:00",18.6,33.095367,0.261],
    [35685,"urn:WaterMeter:MC0203J22010600005","2024-10-18T15:15:00",18.5,33.015114,0.264],
    [35686,"urn:WaterMeter:MC0203J22010600005","2024-10-18T15:30:00",18.5,33.048046,0.286],
    [35687,"urn:WaterMeter:MC0203J22010600005","2024-10-18T15:45:00",18.399,32.968952,0.262],
    [35688,"urn:WaterMeter:MC0203J22010600005","2024-10-18T16:00:00",18.399,32.961544,0.26],
    [35689,"urn:WaterMeter:MC0203J22010600005","2024-10-18T16:15:00",18.299,32.88633,0.266],
    [35690,"urn:WaterMeter:MC0203J22010600005","2024-10-18T16:30:00",18.2,32.8828,0.266],
    [35691,"urn:WaterMeter:MC0203J22010600005","2024-10-18T16:45:00",18.2,32.842457,0.26],
    [35692,"urn:WaterMeter:MC0203J22010600005","2024-10-18T17:00:00",18.1,32.844784,0.267],
    [35693,"urn:WaterMeter:MC0203J22010600005","2024-10-18T17:15:00",18.1,32.8712,0.279],
    [35694,"urn:WaterMeter:MC0203J22010600005","2024-10-18T17:30:00",18,32.821938,0.26],
    [35695,"urn:WaterMeter:MC0203J22010600005","2024-10-18T17:45:00",17.899,32.847153,0.261],
    [35696,"urn:WaterMeter:MC0203J22010600005","2024-10-18T18:00:00",17.899,32.817284,0.277],
    [35697,"urn:WaterMeter:MC0203J22010600005","2024-10-18T18:15:00",17.799,32.75712,0.275],
    [35698,"urn:WaterMeter:MC0203J22010600005","2024-10-18T18:30:00",17.7,32.79013,0.254],
    [35699,"urn:WaterMeter:MC0203J22010600005","2024-10-18T18:45:00",17.6,32.731945,0.261],
    [35700,"urn:WaterMeter:MC0203J22010600005","2024-10-18T19:00:00",17.6,32.775,0.269],
    [35701,"urn:WaterMeter:MC0203J22010600005","2024-10-18T19:15:00",17.5,32.69393,0.262],
    [35702,"urn:WaterMeter:MC0203J22010600005","2024-10-18T19:30:00",17.399,32.715267,0.253],
    [35703,"urn:WaterMeter:MC0203J22010600005","2024-10-18T19:45:00",17.299,32.710224,0.267],
    [35704,"urn:WaterMeter:MC0203J22010600005","2024-10-18T20:00:00",17.299,32.74397,0.272],
    [35705,"urn:WaterMeter:MC0203J22010600005","2024-10-18T20:15:00",17.299,32.731945,0.261],
    [35706,"urn:WaterMeter:MC0203J22010600005","2024-10-18T20:30:00",17.2,32.711388,0.257],
    [35707,"urn:WaterMeter:MC0203J22010600005","2024-10-18T20:45:00",17.2,32.724186,0.255],
    [35708,"urn:WaterMeter:MC0203J22010600005","2024-10-18T21:00:00",17.1,32.6854,0.265],
    [35709,"urn:WaterMeter:MC0203J22010600005","2024-10-18T21:15:00",17,32.624496,0.255],
    [35710,"urn:WaterMeter:MC0203J22010600005","2024-10-18T21:30:00",17,32.690826,0.262],
    [35711,"urn:WaterMeter:MC0203J22010600005","2024-10-18T21:45:00",16.899,32.683846,0.268],
    [35712,"urn:WaterMeter:MC0203J22010600005","2024-10-18T22:00:00",16.899,32.66329,0.25],
    [35713,"urn:WaterMeter:MC0203J22010600005","2024-10-18T22:15:00",16.899,32.61127,0.268],
    [35714,"urn:WaterMeter:MC0203J22010600005","2024-10-18T22:30:00",16.799,32.601574,0.26],
    [35715,"urn:WaterMeter:MC0203J22010600005","2024-10-18T22:45:00",16.799,32.65708,0.257],
    [35716,"urn:WaterMeter:MC0203J22010600005","2024-10-18T23:00:00",16.799,32.6295,0.258],
    [35717,"urn:WaterMeter:MC0203J22010600005","2024-10-18T23:15:00",16.7,32.575233,0.262],
    [35718,"urn:WaterMeter:MC0203J22010600005","2024-10-18T23:30:00",16.7,32.57054,0.266],
    [35719,"urn:WaterMeter:MC0203J22010600005","2024-10-18T23:45:00",16.6,32.5892,0.251],
    [35720,"urn:WaterMeter:MC0203J22010600005","2024-10-19T00:00:00",16.6,32.646996,0.262],
    [35721,"urn:WaterMeter:MC0203J22010600005","2024-10-19T00:15:00",16.5,32.621353,0.257],
    [35722,"urn:WaterMeter:MC0203J22010600005","2024-10-19T00:30:00",16.399,32.576786,0.257],
    [35723,"urn:WaterMeter:MC0203J22010600005","2024-10-19T00:45:00",16.399,32.59071,0.272],
    [35724,"urn:WaterMeter:MC0203J22010600005","2024-10-19T01:00:00",16.299,32.551533,0.28],
    [35725,"urn:WaterMeter:MC0203J22010600005","2024-10-19T01:15:00",16.299,32.547306,0.259],
    [35726,"urn:WaterMeter:MC0203J22010600005","2024-10-19T01:30:00",16.299,32.547306,0.261],
    [35727,"urn:WaterMeter:MC0203J22010600005","2024-10-19T01:45:00",16.2,32.542263,0.26],
    [35728,"urn:WaterMeter:MC0203J22010600005","2024-10-19T02:00:00",16.1,32.5698,0.266],
    [35729,"urn:WaterMeter:MC0203J22010600005","2024-10-19T02:15:00",15.899,32.51313,0.258],
    [35730,"urn:WaterMeter:MC0203J22010600005","2024-10-19T02:30:00",15.8,32.520927,0.252],
    [35731,"urn:WaterMeter:MC0203J22010600005","2024-10-19T02:45:00",15.699,32.522865,0.259],
    [35732,"urn:WaterMeter:MC0203J22010600005","2024-10-19T03:00:00",15.699,32.509293,0.26],
    [35733,"urn:WaterMeter:MC0203J22010600005","2024-10-19T03:15:00",15.8,32.51821,0.261],
    [35734,"urn:WaterMeter:MC0203J22010600005","2024-10-19T03:30:00",15.8,32.527134,0.257],
    [35735,"urn:WaterMeter:MC0203J22010600005","2024-10-19T03:45:00",15.699,32.50696,0.28],
    [35736,"urn:WaterMeter:MC0203J22010600005","2024-10-19T04:00:00",15.699,32.535667,0.254],
    [35737,"urn:WaterMeter:MC0203J22010600005","2024-10-19T04:15:00",15.6,32.525154,0.25],
    [35738,"urn:WaterMeter:MC0203J22010600005","2024-10-19T04:30:00",15.6,32.50774,0.274],
    [35739,"urn:WaterMeter:MC0203J22010600005","2024-10-19T04:45:00",15.5,32.533302,0.265],
    [35740,"urn:WaterMeter:MC0203J22010600005","2024-10-19T05:00:00",15.5,32.49998,0.277],
    [35741,"urn:WaterMeter:MC0203J22010600005","2024-10-19T05:15:00",15.399,32.480972,0.244],
    [35742,"urn:WaterMeter:MC0203J22010600005","2024-10-19T05:30:00",15.399,32.479034,0.256],
    [35743,"urn:WaterMeter:MC0203J22010600005","2024-10-19T05:45:00",15.399,32.442184,0.253],
    [35744,"urn:WaterMeter:MC0203J22010600005","2024-10-19T06:00:00",15.3,32.480972,0.263],
    [35745,"urn:WaterMeter:MC0203J22010600005","2024-10-19T06:15:00",15.3,32.410763,0.252],
    [35746,"urn:WaterMeter:MC0203J22010600005","2024-10-19T06:30:00",15.399,32.449944,0.26],
    [35747,"urn:WaterMeter:MC0203J22010600005","2024-10-19T06:45:00",15.399,32.47089,0.261],
    [35748,"urn:WaterMeter:MC0203J22010600005","2024-10-19T07:00:00",15.5,32.418095,0.259],
    [35749,"urn:WaterMeter:MC0203J22010600005","2024-10-19T07:15:00",15.5,32.380898,0.251],
    [35750,"urn:WaterMeter:MC0203J22010600005","2024-10-19T07:30:00",15.6,32.366932,0.267],
    [35751,"urn:WaterMeter:MC0203J22010600005","2024-10-19T07:45:00",15.699,32.396374,0.264],
    [35752,"urn:WaterMeter:MC0203J22010600005","2024-10-19T08:00:00",15.8,32.351414,0.287],
    [35753,"urn:WaterMeter:MC0203J22010600005","2024-10-19T08:15:00",15.899,32.345207,0.26],
    [35754,"urn:WaterMeter:MC0203J22010600005","2024-10-19T08:30:00",16,32.309135,0.254],
    [35755,"urn:WaterMeter:MC0203J22010600005","2024-10-19T08:45:00",16.2,32.28039,0.253],
    [35756,"urn:WaterMeter:MC0203J22010600005","2024-10-19T09:00:00",16.299,32.233845,0.246],
    [35757,"urn:WaterMeter:MC0203J22010600005","2024-10-19T09:15:00",16.5,32.197807,0.244],
    [35758,"urn:WaterMeter:MC0203J22010600005","2024-10-19T09:30:00",16.7,32.145016,0.243],
    [35759,"urn:WaterMeter:MC0203J22010600005","2024-10-19T09:45:00",16.899,32.16794,0.254],
    [35760,"urn:WaterMeter:MC0203J22010600005","2024-10-19T10:00:00",17.1,32.1307,0.242],
    [35761,"urn:WaterMeter:MC0203J22010600005","2024-10-19T10:15:00",17.299,32.060104,0.247],
    [35762,"urn:WaterMeter:MC0203J22010600005","2024-10-19T10:30:00",17.5,32.00541,0.245],
    [35763,"urn:WaterMeter:MC0203J22010600005","2024-10-19T10:45:00",17.6,31.96817,0.259],
    [35764,"urn:WaterMeter:MC0203J22010600005","2024-10-19T11:00:00",17.7,31.944508,0.255],
    [35765,"urn:WaterMeter:MC0203J22010600005","2024-10-19T11:15:00",17.899,31.901064,0.251],
    [35766,"urn:WaterMeter:MC0203J22010600005","2024-10-19T11:30:00",18.2,31.838224,0.255],
    [35767,"urn:WaterMeter:MC0203J22010600005","2024-10-19T11:45:00",18.399,31.807154,0.25],
    [35768,"urn:WaterMeter:MC0203J22010600005","2024-10-19T12:00:00",18.7,31.706337,0.24],
    [35769,"urn:WaterMeter:MC0203J22010600005","2024-10-19T12:15:00",18.899,31.710993,0.239],
    [35770,"urn:WaterMeter:MC0203J22010600005","2024-10-19T12:30:00",19.1,31.634964,0.238],
    [35771,"urn:WaterMeter:MC0203J22010600005","2024-10-19T12:45:00",19.2,31.553118,0.237],
    [35772,"urn:WaterMeter:MC0203J22010600005","2024-10-19T13:00:00",19.399,31.491829,0.242],
    [35773,"urn:WaterMeter:MC0203J22010600005","2024-10-19T13:15:00",19.5,31.450323,0.254],
    [35774,"urn:WaterMeter:MC0203J22010600005","2024-10-19T13:30:00",19.6,31.40455,0.251],
    [35775,"urn:WaterMeter:MC0203J22010600005","2024-10-19T13:45:00",19.6,31.367313,0.259],
    [35776,"urn:WaterMeter:MC0203J22010600005","2024-10-19T14:00:00",19.7,31.328135,0.241],
    [35777,"urn:WaterMeter:MC0203J22010600005","2024-10-19T14:15:00",19.7,31.278484,0.236],
    [35778,"urn:WaterMeter:MC0203J22010600005","2024-10-19T14:30:00",19.799,31.266848,0.233],
    [35779,"urn:WaterMeter:MC0203J22010600005","2024-10-19T14:45:00",19.799,31.244698,0.253],
    [35780,"urn:WaterMeter:MC0203J22010600005","2024-10-19T15:00:00",19.899,31.195822,0.243],
    [35781,"urn:WaterMeter:MC0203J22010600005","2024-10-19T15:15:00",19.899,31.163279,0.246],
    [35782,"urn:WaterMeter:MC0203J22010600005","2024-10-19T15:30:00",19.799,31.104704,0.242],
    [35783,"urn:WaterMeter:MC0203J22010600005","2024-10-19T15:45:00",19.799,31.09462,0.239],
    [35784,"urn:WaterMeter:MC0203J22010600005","2024-10-19T16:00:00",19.7,31.059282,0.261],
    [35785,"urn:WaterMeter:MC0203J22010600005","2024-10-19T16:15:00",19.7,31.069756,0.244],
    [35786,"urn:WaterMeter:MC0203J22010600005","2024-10-19T16:30:00",19.7,31.041864,0.242],
    [35787,"urn:WaterMeter:MC0203J22010600005","2024-10-19T16:45:00",19.6,31.020103,0.231],
    [35788,"urn:WaterMeter:MC0203J22010600005","2024-10-19T17:00:00",19.6,31.00071,0.249],
    [35789,"urn:WaterMeter:MC0203J22010600005","2024-10-19T17:15:00",19.5,31.038723,0.233],
    [35790,"urn:WaterMeter:MC0203J22010600005","2024-10-19T17:30:00",19.399,30.987171,0.242],
    [35791,"urn:WaterMeter:MC0203J22010600005","2024-10-19T17:45:00",19.299,31.00385,0.237],
    [35792,"urn:WaterMeter:MC0203J22010600005","2024-10-19T18:00:00",19.2,30.988722,0.236],
    [35793,"urn:WaterMeter:MC0203J22010600005","2024-10-19T18:15:00",19.1,30.930538,0.242],
    [35794,"urn:WaterMeter:MC0203J22010600005","2024-10-19T18:30:00",19,30.970879,0.248],
    [35795,"urn:WaterMeter:MC0203J22010600005","2024-10-19T18:45:00",19,30.941748,0.234],
    [35796,"urn:WaterMeter:MC0203J22010600005","2024-10-19T19:00:00",18.899,30.942137,0.234],
    [35797,"urn:WaterMeter:MC0203J22010600005","2024-10-19T19:15:00",18.799,30.96894,0.237],
    [35798,"urn:WaterMeter:MC0203J22010600005","2024-10-19T19:30:00",18.7,30.93015,0.229],
    [35799,"urn:WaterMeter:MC0203J22010600005","2024-10-19T19:45:00",18.6,30.937132,0.243],
    [35800,"urn:WaterMeter:MC0203J22010600005","2024-10-19T20:00:00",18.6,30.97631,0.226],
    [35801,"urn:WaterMeter:MC0203J22010600005","2024-10-19T20:15:00",18.5,30.935192,0.239],
    [35802,"urn:WaterMeter:MC0203J22010600005","2024-10-19T20:30:00",18.399,30.932865,0.238],
    [35803,"urn:WaterMeter:MC0203J22010600005","2024-10-19T20:45:00",18.299,30.914595,0.248],
    [35804,"urn:WaterMeter:MC0203J22010600005","2024-10-19T21:00:00",18.2,30.922354,0.235],
    [35805,"urn:WaterMeter:MC0203J22010600005","2024-10-19T21:15:00",18.2,30.956139,0.227],
    [35806,"urn:WaterMeter:MC0203J22010600005","2024-10-19T21:30:00",18.1,30.952261,0.25],
    [35807,"urn:WaterMeter:MC0203J22010600005","2024-10-19T21:45:00",18.1,30.941748,0.234],
    [35808,"urn:WaterMeter:MC0203J22010600005","2024-10-19T22:00:00",18,30.901058,0.251],
    [35809,"urn:WaterMeter:MC0203J22010600005","2024-10-19T22:15:00",17.899,30.927435,0.237],
    [35810,"urn:WaterMeter:MC0203J22010600005","2024-10-19T22:30:00",17.799,30.887869,0.234],
    [35811,"urn:WaterMeter:MC0203J22010600005","2024-10-19T22:45:00",17.799,30.876581,0.253],
    [35812,"urn:WaterMeter:MC0203J22010600005","2024-10-19T23:00:00",17.7,30.909592,0.245],
    [35813,"urn:WaterMeter:MC0203J22010600005","2024-10-19T23:15:00",17.7,30.864168,0.235],
    [35814,"urn:WaterMeter:MC0203J22010600005","2024-10-19T23:30:00",17.7,30.890196,0.23],
    [35815,"urn:WaterMeter:MC0203J22010600005","2024-10-19T23:45:00",17.6,30.86925,0.241],
    [35816,"urn:WaterMeter:MC0203J22010600005","2024-10-20T00:00:00",17.6,30.888645,0.237],
    [35817,"urn:WaterMeter:MC0203J22010600005","2024-10-20T00:15:00",17.6,30.852957,0.26],
    [35818,"urn:WaterMeter:MC0203J22010600005","2024-10-20T00:30:00",17.5,30.850243,0.232],
    [35819,"urn:WaterMeter:MC0203J22010600005","2024-10-20T00:45:00",17.5,30.857185,0.25],
    [35820,"urn:WaterMeter:MC0203J22010600005","2024-10-20T01:00:00",17.399,30.874292,0.24],
    [35821,"urn:WaterMeter:MC0203J22010600005","2024-10-20T01:15:00",17.399,30.868473,0.241],
    [35822,"urn:WaterMeter:MC0203J22010600005","2024-10-20T01:30:00",17.399,30.84132,0.236],
    [35823,"urn:WaterMeter:MC0203J22010600005","2024-10-20T01:45:00",17.299,30.879335,0.241],
    [35824,"urn:WaterMeter:MC0203J22010600005","2024-10-20T02:00:00",17.299,30.871965,0.234],
    [35825,"urn:WaterMeter:MC0203J22010600005","2024-10-20T02:15:00",17.299,30.82115,0.229],
    [35826,"urn:WaterMeter:MC0203J22010600005","2024-10-20T02:30:00",17.2,30.831236,0.228],
    [35827,"urn:WaterMeter:MC0203J22010600005","2024-10-20T02:45:00",17.2,30.793997,0.227],
    [35828,"urn:WaterMeter:MC0203J22010600005","2024-10-20T03:00:00",17.2,30.824602,0.24],
    [35829,"urn:WaterMeter:MC0203J22010600005","2024-10-20T03:15:00",17.1,30.84171,0.232],
    [35830,"urn:WaterMeter:MC0203J22010600005","2024-10-20T03:30:00",17.2,30.82852,0.237],
    [35831,"urn:WaterMeter:MC0203J22010600005","2024-10-20T03:45:00",17.2,30.790117,0.24],
    [35832,"urn:WaterMeter:MC0203J22010600005","2024-10-20T04:00:00",17.2,30.768745,0.249],
    [35833,"urn:WaterMeter:MC0203J22010600005","2024-10-20T04:15:00",17.1,30.777317,0.231],
    [35834,"urn:WaterMeter:MC0203J22010600005","2024-10-20T04:30:00",17.1,30.818823,0.238],
    [35835,"urn:WaterMeter:MC0203J22010600005","2024-10-20T04:45:00",17.1,30.777317,0.243],
    [35836,"urn:WaterMeter:MC0203J22010600005","2024-10-20T05:00:00",17,30.777317,0.235],
    [35837,"urn:WaterMeter:MC0203J22010600005","2024-10-20T05:15:00",17,30.798613,0.239],
    [35838,"urn:WaterMeter:MC0203J22010600005","2024-10-20T05:30:00",16.899,30.753654,0.228],
    [35839,"urn:WaterMeter:MC0203J22010600005","2024-10-20T05:45:00",16.899,30.738914,0.241],
    [35840,"urn:WaterMeter:MC0203J22010600005","2024-10-20T06:00:00",16.899,30.777317,0.228],
    [35841,"urn:WaterMeter:MC0203J22010600005","2024-10-20T06:15:00",16.899,30.788916,0.23],
    [35842,"urn:WaterMeter:MC0203J22010600005","2024-10-20T06:30:00",16.899,30.73426,0.231],
    [35843,"urn:WaterMeter:MC0203J22010600005","2024-10-20T06:45:00",16.899,30.759436,0.234],
    [35844,"urn:WaterMeter:MC0203J22010600005","2024-10-20T07:00:00",16.899,30.735424,0.254],
    [35845,"urn:WaterMeter:MC0203J22010600005","2024-10-20T07:15:00",16.899,30.693531,0.242],
    [35846,"urn:WaterMeter:MC0203J22010600005","2024-10-20T07:30:00",16.899,30.735037,0.244],
    [35847,"urn:WaterMeter:MC0203J22010600005","2024-10-20T07:45:00",16.899,30.667929,0.229],
    [35848,"urn:WaterMeter:MC0203J22010600005","2024-10-20T08:00:00",16.899,30.686937,0.238],
    [35849,"urn:WaterMeter:MC0203J22010600005","2024-10-20T08:15:00",17,30.640776,0.236],
    [35850,"urn:WaterMeter:MC0203J22010600005","2024-10-20T08:30:00",17.1,30.618279,0.221],
    [35851,"urn:WaterMeter:MC0203J22010600005","2024-10-20T08:45:00",17.299,30.603498,0.246],
    [35852,"urn:WaterMeter:MC0203J22010600005","2024-10-20T09:00:00",17.399,30.558153,0.231],
    [35853,"urn:WaterMeter:MC0203J22010600005","2024-10-20T09:15:00",17.6,30.52402,0.238],
    [35854,"urn:WaterMeter:MC0203J22010600005","2024-10-20T09:30:00",17.799,30.531,0.222],
    [35855,"urn:WaterMeter:MC0203J22010600005","2024-10-20T09:45:00",18,30.40183,0.222],
    [35856,"urn:WaterMeter:MC0203J22010600005","2024-10-20T10:00:00",18.2,30.353342,0.243],
    [35857,"urn:WaterMeter:MC0203J22010600005","2024-10-20T10:15:00",18.399,30.317268,0.235],
    [35858,"urn:WaterMeter:MC0203J22010600005","2024-10-20T10:30:00",18.6,30.245079,0.227],
    [35859,"urn:WaterMeter:MC0203J22010600005","2024-10-20T10:45:00",18.799,30.23775,0.216],
    [35860,"urn:WaterMeter:MC0203J22010600005","2024-10-20T11:00:00",19,30.151634,0.219],
    [35861,"urn:WaterMeter:MC0203J22010600005","2024-10-20T11:15:00",19.1,30.080221,0.219],
    [35862,"urn:WaterMeter:MC0203J22010600005","2024-10-20T11:30:00",19.299,30.079485,0.215],
    [35863,"urn:WaterMeter:MC0203J22010600005","2024-10-20T11:45:00",19.399,29.998413,0.234],
    [35864,"urn:WaterMeter:MC0203J22010600005","2024-10-20T12:00:00",19.6,29.94178,0.227],
    [35865,"urn:WaterMeter:MC0203J22010600005","2024-10-20T12:15:00",19.7,29.93053,0.233],
    [35866,"urn:WaterMeter:MC0203J22010600005","2024-10-20T12:30:00",19.799,29.879328,0.216],
    [35867,"urn:WaterMeter:MC0203J22010600005","2024-10-20T12:45:00",19.899,29.804075,0.217],
    [35868,"urn:WaterMeter:MC0203J22010600005","2024-10-20T13:00:00",19.899,29.778824,0.22],
    [35869,"urn:WaterMeter:MC0203J22010600005","2024-10-20T13:15:00",19.899,29.688482,0.213],
    [35870,"urn:WaterMeter:MC0203J22010600005","2024-10-20T13:30:00",19.899,29.699343,0.225],
    [35871,"urn:WaterMeter:MC0203J22010600005","2024-10-20T13:45:00",19.899,29.682238,0.222],
    [35872,"urn:WaterMeter:MC0203J22010600005","2024-10-20T14:00:00",19.899,29.66129,0.221],
    [35873,"urn:WaterMeter:MC0203J22010600005","2024-10-20T14:15:00",19.899,29.550777,0.214],
    [35874,"urn:WaterMeter:MC0203J22010600005","2024-10-20T14:30:00",20,29.538326,0.229],
    [35875,"urn:WaterMeter:MC0203J22010600005","2024-10-20T14:45:00",20.1,29.468117,0.213],
    [35876,"urn:WaterMeter:MC0203J22010600005","2024-10-20T15:00:00",20.2,29.479753,0.208],
    [35877,"urn:WaterMeter:MC0203J22010600005","2024-10-20T15:15:00",20.299,29.415789,0.231],
    [35878,"urn:WaterMeter:MC0203J22010600005","2024-10-20T15:30:00",20.299,29.40609,0.225],
    [35879,"urn:WaterMeter:MC0203J22010600005","2024-10-20T15:45:00",20.299,29.36575,0.206],
    [35880,"urn:WaterMeter:MC0203J22010600005","2024-10-20T16:00:00",20.299,29.303684,0.241],
    [35881,"urn:WaterMeter:MC0203J22010600005","2024-10-20T16:15:00",20.299,29.255934,0.212],
    [35882,"urn:WaterMeter:MC0203J22010600005","2024-10-20T16:30:00",20.2,29.292397,0.214],
    [35883,"urn:WaterMeter:MC0203J22010600005","2024-10-20T16:45:00",20.1,29.239294,0.221],
    [35884,"urn:WaterMeter:MC0203J22010600005","2024-10-20T17:00:00",20.1,29.26412,0.216],
    [35885,"urn:WaterMeter:MC0203J22010600005","2024-10-20T17:15:00",20,29.228432,0.237],
    [35886,"urn:WaterMeter:MC0203J22010600005","2024-10-20T17:30:00",19.899,29.198137,0.21],
    [35887,"urn:WaterMeter:MC0203J22010600005","2024-10-20T17:45:00",19.799,29.244337,0.23],
    [35888,"urn:WaterMeter:MC0203J22010600005","2024-10-20T18:00:00",19.7,29.247828,0.215],
    [35889,"urn:WaterMeter:MC0203J22010600005","2024-10-20T18:15:00",19.7,29.207447,0.217],
    [35890,"urn:WaterMeter:MC0203J22010600005","2024-10-20T18:30:00",19.6,29.182272,0.217],
    [35891,"urn:WaterMeter:MC0203J22010600005","2024-10-20T18:45:00",19.5,29.205547,0.223],
    [35892,"urn:WaterMeter:MC0203J22010600005","2024-10-20T19:00:00",19.5,29.212141,0.23],
    [35893,"urn:WaterMeter:MC0203J22010600005","2024-10-20T19:15:00",19.399,29.184599,0.227],
    [35894,"urn:WaterMeter:MC0203J22010600005","2024-10-20T19:30:00",19.299,29.20706,0.211],
    [35895,"urn:WaterMeter:MC0203J22010600005","2024-10-20T19:45:00",19.2,29.250544,0.212],
    [35896,"urn:WaterMeter:MC0203J22010600005","2024-10-20T20:00:00",19.1,29.240845,0.212],
    [35897,"urn:WaterMeter:MC0203J22010600005","2024-10-20T20:15:00",19,29.239294,0.212],
    [35898,"urn:WaterMeter:MC0203J22010600005","2024-10-20T20:30:00",19,29.232311,0.223],
    [35899,"urn:WaterMeter:MC0203J22010600005","2024-10-20T20:45:00",18.899,29.224941,0.215],
    [35900,"urn:WaterMeter:MC0203J22010600005","2024-10-20T21:00:00",18.799,29.20671,0.227],
    [35901,"urn:WaterMeter:MC0203J22010600005","2024-10-20T21:15:00",18.7,29.203218,0.22],
    [35902,"urn:WaterMeter:MC0203J22010600005","2024-10-20T21:30:00",18.7,29.239294,0.219],
    [35903,"urn:WaterMeter:MC0203J22010600005","2024-10-20T21:45:00",18.6,29.21637,0.21],
    [35904,"urn:WaterMeter:MC0203J22010600005","2024-10-20T22:00:00",18.5,29.218307,0.21],
    [35905,"urn:WaterMeter:MC0203J22010600005","2024-10-20T22:15:00",18.399,29.191195,0.221],
    [35906,"urn:WaterMeter:MC0203J22010600005","2024-10-20T22:30:00",18.399,29.202831,0.227],
    [35907,"urn:WaterMeter:MC0203J22010600005","2024-10-20T22:45:00",18.299,29.220675,0.21],
    [35908,"urn:WaterMeter:MC0203J22010600005","2024-10-20T23:00:00",18.299,29.177578,0.211],
    [35909,"urn:WaterMeter:MC0203J22010600005","2024-10-20T23:15:00",18.2,29.217144,0.209],
    [35910,"urn:WaterMeter:MC0203J22010600005","2024-10-20T23:30:00",18.1,29.202055,0.219],
    [35911,"urn:WaterMeter:MC0203J22010600005","2024-10-20T23:45:00",18,29.221838,0.217],
    [35912,"urn:WaterMeter:MC0203J22010600005","2024-10-21T00:00:00",18,29.252481,0.225],
    [35913,"urn:WaterMeter:MC0203J22010600005","2024-10-21T00:15:00",17.899,29.227617,0.218],
    [35914,"urn:WaterMeter:MC0203J22010600005","2024-10-21T00:30:00",17.899,29.191195,0.227],
    [35915,"urn:WaterMeter:MC0203J22010600005","2024-10-21T00:45:00",17.899,29.183048,0.224],
    [35916,"urn:WaterMeter:MC0203J22010600005","2024-10-21T01:00:00",17.899,29.19581,0.222],
    [35917,"urn:WaterMeter:MC0203J22010600005","2024-10-21T01:15:00",17.799,29.202444,0.215],
    [35918,"urn:WaterMeter:MC0203J22010600005","2024-10-21T01:30:00",17.799,29.203995,0.223],
    [35919,"urn:WaterMeter:MC0203J22010600005","2024-10-21T01:45:00",17.7,29.183435,0.209],
    [35920,"urn:WaterMeter:MC0203J22010600005","2024-10-21T02:00:00",17.7,29.180721,0.214],
    [35921,"urn:WaterMeter:MC0203J22010600005","2024-10-21T02:15:00",17.6,29.231535,0.216],
    [35922,"urn:WaterMeter:MC0203J22010600005","2024-10-21T02:30:00",17.5,29.203995,0.236],
    [35923,"urn:WaterMeter:MC0203J22010600005","2024-10-21T02:45:00",17.399,29.196974,0.206],
    [35924,"urn:WaterMeter:MC0203J22010600005","2024-10-21T03:00:00",17.399,29.218735,0.226],
    [35925,"urn:WaterMeter:MC0203J22010600005","2024-10-21T03:15:00",17.299,29.195423,0.22],
    [35926,"urn:WaterMeter:MC0203J22010600005","2024-10-21T03:30:00",17.2,29.172188,0.208],
    [35927,"urn:WaterMeter:MC0203J22010600005","2024-10-21T03:45:00",17.2,29.193909,0.215],
    [35928,"urn:WaterMeter:MC0203J22010600005","2024-10-21T04:00:00",17.1,29.168657,0.221],
    [35929,"urn:WaterMeter:MC0203J22010600005","2024-10-21T04:15:00",17,29.162878,0.219],
    [35930,"urn:WaterMeter:MC0203J22010600005","2024-10-21T04:30:00",16.899,29.149261,0.209],
    [35931,"urn:WaterMeter:MC0203J22010600005","2024-10-21T04:45:00",16.899,29.176027,0.224],
    [35932,"urn:WaterMeter:MC0203J22010600005","2024-10-21T05:00:00",16.799,29.155895,0.21],
    [35933,"urn:WaterMeter:MC0203J22010600005","2024-10-21T05:15:00",16.899,29.19197,0.216],
    [35934,"urn:WaterMeter:MC0203J22010600005","2024-10-21T05:30:00",17.1,29.198137,0.207],
    [35935,"urn:WaterMeter:MC0203J22010600005","2024-10-21T05:45:00",17.1,29.251318,0.228],
    [35936,"urn:WaterMeter:MC0203J22010600005","2024-10-21T06:00:00",17.1,29.516642,0.219],
    [35937,"urn:WaterMeter:MC0203J22010600005","2024-10-21T06:15:00",17.2,30.252876,0.252],
    [35938,"urn:WaterMeter:MC0203J22010600005","2024-10-21T06:30:00",17.2,31.383993,0.241],
    [35939,"urn:WaterMeter:MC0203J22010600005","2024-10-21T06:45:00",17.2,32.35452,0.261],
    [35940,"urn:WaterMeter:MC0203J22010600005","2024-10-21T07:00:00",17.2,33.30565,0.279],
    [35941,"urn:WaterMeter:MC0203J22010600005","2024-10-21T07:15:00",17.2,33.906506,0.3],
    [35942,"urn:WaterMeter:MC0203J22010600005","2024-10-21T07:30:00",17.2,34.32466,0.293],
    [35943,"urn:WaterMeter:MC0203J22010600005","2024-10-21T07:45:00",17.299,34.52168,0.3],
    [35944,"urn:WaterMeter:MC0203J22010600005","2024-10-21T08:00:00",17.399,34.72416,0.281],
    [35945,"urn:WaterMeter:MC0203J22010600005","2024-10-21T08:15:00",17.5,34.534515,0.273],
    [35946,"urn:WaterMeter:MC0203J22010600005","2024-10-21T08:30:00",17.5,34.17373,0.266],
    [35947,"urn:WaterMeter:MC0203J22010600005","2024-10-21T08:45:00",17.6,34.049255,0.271],
    [35948,"urn:WaterMeter:MC0203J22010600005","2024-10-21T09:00:00",17.799,33.961975,0.276],
    [35949,"urn:WaterMeter:MC0203J22010600005","2024-10-21T09:15:00",17.899,33.897198,0.303],
    [35950,"urn:WaterMeter:MC0203J22010600005","2024-10-21T09:30:00",18.1,33.864227,0.281],
    [35951,"urn:WaterMeter:MC0203J22010600005","2024-10-21T09:45:00",18.2,33.672215,0.267],
    [35952,"urn:WaterMeter:MC0203J22010600005","2024-10-21T10:00:00",18.299,33.622177,0.284],
    [35953,"urn:WaterMeter:MC0203J22010600005","2024-10-21T10:15:00",18.399,33.57908,0.267],
    [35954,"urn:WaterMeter:MC0203J22010600005","2024-10-21T10:30:00",18.5,33.47012,0.275],
    [35955,"urn:WaterMeter:MC0203J22010600005","2024-10-21T10:45:00",18.6,33.425472,0.294],
    [35956,"urn:WaterMeter:MC0203J22010600005","2024-10-21T11:00:00",18.799,33.336292,0.261],
    [35957,"urn:WaterMeter:MC0203J22010600005","2024-10-21T11:15:00",18.899,33.306812,0.269],
    [35958,"urn:WaterMeter:MC0203J22010600005","2024-10-21T11:30:00",19.1,33.190445,0.261],
    [35959,"urn:WaterMeter:MC0203J22010600005","2024-10-21T11:45:00",19.399,33.147774,0.269],
    [35960,"urn:WaterMeter:MC0203J22010600005","2024-10-21T12:00:00",19.6,33.084934,0.279],
    [35961,"urn:WaterMeter:MC0203J22010600005","2024-10-21T12:15:00",19.7,32.98055,0.285],
    [35962,"urn:WaterMeter:MC0203J22010600005","2024-10-21T12:30:00",19.899,32.99917,0.256],
    [35963,"urn:WaterMeter:MC0203J22010600005","2024-10-21T12:45:00",20,32.935593,0.275],
    [35964,"urn:WaterMeter:MC0203J22010600005","2024-10-21T13:00:00",20.1,32.85297,0.254],
    [35965,"urn:WaterMeter:MC0203J22010600005","2024-10-21T13:15:00",20.1,32.735825,0.257],
    [35966,"urn:WaterMeter:MC0203J22010600005","2024-10-21T13:30:00",20.1,32.667904,0.262],
    [35967,"urn:WaterMeter:MC0203J22010600005","2024-10-21T13:45:00",20.2,32.652428,0.253],
    [35968,"urn:WaterMeter:MC0203J22010600005","2024-10-21T14:00:00",20.299,32.63691,0.252],
    [35969,"urn:WaterMeter:MC0203J22010600005","2024-10-21T14:15:00",20.299,32.615574,0.273],
    [35970,"urn:WaterMeter:MC0203J22010600005","2024-10-21T14:30:00",20.299,32.53528,0.259],
    [35971,"urn:WaterMeter:MC0203J22010600005","2024-10-21T14:45:00",20.299,32.522865,0.272],
    [35972,"urn:WaterMeter:MC0203J22010600005","2024-10-21T15:00:00",20.299,32.438305,0.258],
    [35973,"urn:WaterMeter:MC0203J22010600005","2024-10-21T15:15:00",20.299,32.37698,0.264],
    [35974,"urn:WaterMeter:MC0203J22010600005","2024-10-21T15:30:00",20.299,32.41538,0.253],
    [35975,"urn:WaterMeter:MC0203J22010600005","2024-10-21T15:45:00",20.299,32.38012,0.273],
    [35976,"urn:WaterMeter:MC0203J22010600005","2024-10-21T16:00:00",20.2,32.307583,0.272],
    [35977,"urn:WaterMeter:MC0203J22010600005","2024-10-21T16:15:00",20.2,32.3603,0.261],
    [35978,"urn:WaterMeter:MC0203J22010600005","2024-10-21T16:30:00",20.1,32.326202,0.263],
    [35979,"urn:WaterMeter:MC0203J22010600005","2024-10-21T16:45:00",20,32.26957,0.249],
    [35980,"urn:WaterMeter:MC0203J22010600005","2024-10-21T17:00:00",20,32.249397,0.25],
    [35981,"urn:WaterMeter:MC0203J22010600005","2024-10-21T17:15:00",19.899,32.244743,0.253],
    [35982,"urn:WaterMeter:MC0203J22010600005","2024-10-21T17:30:00",19.799,32.229614,0.258],
    [35983,"urn:WaterMeter:MC0203J22010600005","2024-10-21T17:45:00",19.799,32.23233,0.25],
    [35984,"urn:WaterMeter:MC0203J22010600005","2024-10-21T18:00:00",19.7,32.2397,0.26],
    [35985,"urn:WaterMeter:MC0203J22010600005","2024-10-21T18:15:00",19.6,32.247845,0.272],
    [35986,"urn:WaterMeter:MC0203J22010600005","2024-10-21T18:30:00",19.6,32.23582,0.246],
    [35987,"urn:WaterMeter:MC0203J22010600005","2024-10-21T18:45:00",19.6,32.259094,0.285],
    [35988,"urn:WaterMeter:MC0203J22010600005","2024-10-21T19:00:00",19.5,32.21565,0.252],
    [35989,"urn:WaterMeter:MC0203J22010600005","2024-10-21T19:15:00",19.5,32.202812,0.249],
    [35990,"urn:WaterMeter:MC0203J22010600005","2024-10-21T19:30:00",19.399,32.172592,0.26],
    [35991,"urn:WaterMeter:MC0203J22010600005","2024-10-21T19:45:00",19.399,32.221817,0.261],
    [35992,"urn:WaterMeter:MC0203J22010600005","2024-10-21T20:00:00",19.299,32.178024,0.249],
    [35993,"urn:WaterMeter:MC0203J22010600005","2024-10-21T20:15:00",19.299,32.20436,0.26],
    [35994,"urn:WaterMeter:MC0203J22010600005","2024-10-21T20:30:00",19.299,32.208668,0.245],
    [35995,"urn:WaterMeter:MC0203J22010600005","2024-10-21T20:45:00",19.2,32.15436,0.249],
    [35996,"urn:WaterMeter:MC0203J22010600005","2024-10-21T21:00:00",19.1,32.194664,0.272],
    [35997,"urn:WaterMeter:MC0203J22010600005","2024-10-21T21:15:00",19.1,32.187332,0.262],
    [35998,"urn:WaterMeter:MC0203J22010600005","2024-10-21T21:30:00",19,32.16988,0.272],
    [35999,"urn:WaterMeter:MC0203J22010600005","2024-10-21T21:45:00",18.899,32.19897,0.267],
    [36000,"urn:WaterMeter:MC0203J22010600005","2024-10-21T22:00:00",18.799,32.155487,0.262],
    [36001,"urn:WaterMeter:MC0203J22010600005","2024-10-21T22:15:00",18.7,32.209057,0.252],
    [36002,"urn:WaterMeter:MC0203J22010600005","2024-10-21T22:30:00",18.7,32.147766,0.255],
    [36003,"urn:WaterMeter:MC0203J22010600005","2024-10-21T22:45:00",18.6,32.165573,0.247],
    [36004,"urn:WaterMeter:MC0203J22010600005","2024-10-21T23:00:00",18.5,32.17527,0.246],
    [36005,"urn:WaterMeter:MC0203J22010600005","2024-10-21T23:15:00",18.399,32.143112,0.25],
    [36006,"urn:WaterMeter:MC0203J22010600005","2024-10-21T23:30:00",18.399,32.159405,0.268],
    [36007,"urn:WaterMeter:MC0203J22010600005","2024-10-21T23:45:00",18.299,32.168327,0.252],
    [36008,"urn:WaterMeter:MC0203J22010600005","2024-10-22T00:00:00",18.299,32.15087,0.248],
    [36009,"urn:WaterMeter:MC0203J22010600005","2024-10-22T00:15:00",18.2,32.14156,0.253],
    [36010,"urn:WaterMeter:MC0203J22010600005","2024-10-22T00:30:00",18.2,32.17143,0.283],
    [36011,"urn:WaterMeter:MC0203J22010600005","2024-10-22T00:45:00",18.1,32.095013,0.264],
    [36012,"urn:WaterMeter:MC0203J22010600005","2024-10-22T01:00:00",18.1,32.133804,0.27],
    [36013,"urn:WaterMeter:MC0203J22010600005","2024-10-22T01:15:00",18.1,32.16018,0.245],
    [36014,"urn:WaterMeter:MC0203J22010600005","2024-10-22T01:30:00",18.1,32.083378,0.265],
    [36015,"urn:WaterMeter:MC0203J22010600005","2024-10-22T01:45:00",18,32.15824,0.249],
    [36016,"urn:WaterMeter:MC0203J22010600005","2024-10-22T02:00:00",18,32.133415,0.247],
    [36017,"urn:WaterMeter:MC0203J22010600005","2024-10-22T02:15:00",17.899,32.090748,0.25],
    [36018,"urn:WaterMeter:MC0203J22010600005","2024-10-22T02:30:00",17.899,32.148933,0.252],
    [36019,"urn:WaterMeter:MC0203J22010600005","2024-10-22T02:45:00",17.799,32.10161,0.259],
    [36020,"urn:WaterMeter:MC0203J22010600005","2024-10-22T03:00:00",17.7,32.084152,0.247],
    [36021,"urn:WaterMeter:MC0203J22010600005","2024-10-22T03:15:00",17.7,32.09191,0.247],
    [36022,"urn:WaterMeter:MC0203J22010600005","2024-10-22T03:30:00",17.6,32.09191,0.248],
    [36023,"urn:WaterMeter:MC0203J22010600005","2024-10-22T03:45:00",17.6,32.15126,0.256],
    [36024,"urn:WaterMeter:MC0203J22010600005","2024-10-22T04:00:00",17.5,32.12756,0.263],
    [36025,"urn:WaterMeter:MC0203J22010600005","2024-10-22T04:15:00",17.5,32.07907,0.259],
    [36026,"urn:WaterMeter:MC0203J22010600005","2024-10-22T04:30:00",17.399,32.126396,0.247],
    [36027,"urn:WaterMeter:MC0203J22010600005","2024-10-22T04:45:00",17.399,32.099667,0.249],
    [36028,"urn:WaterMeter:MC0203J22010600005","2024-10-22T05:00:00",17.299,32.076393,0.253],
    [36029,"urn:WaterMeter:MC0203J22010600005","2024-10-22T05:15:00",17.399,32.114796,0.248],
    [36030,"urn:WaterMeter:MC0203J22010600005","2024-10-22T05:30:00",17.6,32.387104,0.263],
    [36031,"urn:WaterMeter:MC0203J22010600005","2024-10-22T05:45:00",17.6,33.125237,0.276],
    [36032,"urn:WaterMeter:MC0203J22010600005","2024-10-22T06:00:00",17.7,33.94685,0.29],
    [36033,"urn:WaterMeter:MC0203J22010600005","2024-10-22T06:15:00",17.7,34.471638,0.291],
    [36034,"urn:WaterMeter:MC0203J22010600005","2024-10-22T06:30:00",17.7,34.83669,0.286],
    [36035,"urn:WaterMeter:MC0203J22010600005","2024-10-22T06:45:00",17.799,34.988747,0.313],
    [36036,"urn:WaterMeter:MC0203J22010600005","2024-10-22T07:00:00",17.899,35.175327,0.292],
    [36037,"urn:WaterMeter:MC0203J22010600005","2024-10-22T07:15:00",17.899,35.330486,0.306],
    [36038,"urn:WaterMeter:MC0203J22010600005","2024-10-22T07:30:00",18,35.439487,0.295],
    [36039,"urn:WaterMeter:MC0203J22010600005","2024-10-22T07:45:00",18.1,35.521294,0.331],
    [36040,"urn:WaterMeter:MC0203J22010600005","2024-10-22T08:00:00",18.2,35.64003,0.308],
    [36041,"urn:WaterMeter:MC0203J22010600005","2024-10-22T08:15:00",18.299,35.29864,0.309],
    [36042,"urn:WaterMeter:MC0203J22010600005","2024-10-22T08:30:00",18.399,34.973232,0.326],
    [36043,"urn:WaterMeter:MC0203J22010600005","2024-10-22T08:45:00",18.399,34.677612,0.27],
    [36044,"urn:WaterMeter:MC0203J22010600005","2024-10-22T09:00:00",18.5,34.60589,0.288],
    [36045,"urn:WaterMeter:MC0203J22010600005","2024-10-22T09:15:00",18.7,34.48758,0.275],
    [36046,"urn:WaterMeter:MC0203J22010600005","2024-10-22T09:30:00",18.799,34.37699,0.27],
    [36047,"urn:WaterMeter:MC0203J22010600005","2024-10-22T09:45:00",18.899,34.35721,0.282],
    [36048,"urn:WaterMeter:MC0203J22010600005","2024-10-22T10:00:00",19,34.216827,0.287],
    [36049,"urn:WaterMeter:MC0203J22010600005","2024-10-22T10:15:00",19.2,34.19045,0.284],
    [36050,"urn:WaterMeter:MC0203J22010600005","2024-10-22T10:30:00",19.399,34.01318,0.272],
    [36051,"urn:WaterMeter:MC0203J22010600005","2024-10-22T10:45:00",19.5,33.935986,0.3],
    [36052,"urn:WaterMeter:MC0203J22010600005","2024-10-22T11:00:00",19.5,33.842113,0.277],
    [36053,"urn:WaterMeter:MC0203J22010600005","2024-10-22T11:15:00",19.6,33.74475,0.296],
    [36054,"urn:WaterMeter:MC0203J22010600005","2024-10-22T11:30:00",19.7,33.740097,0.268],
    [36055,"urn:WaterMeter:MC0203J22010600005","2024-10-22T11:45:00",19.799,33.61981,0.291],
    [36056,"urn:WaterMeter:MC0203J22010600005","2024-10-22T12:00:00",19.899,33.541065,0.287],
    [36057,"urn:WaterMeter:MC0203J22010600005","2024-10-22T12:15:00",20,33.515114,0.265],
    [36058,"urn:WaterMeter:MC0203J22010600005","2024-10-22T12:30:00",20.1,33.435944,0.263],
    [36059,"urn:WaterMeter:MC0203J22010600005","2024-10-22T12:45:00",20.2,33.372757,0.262],
    [36060,"urn:WaterMeter:MC0203J22010600005","2024-10-22T13:00:00",20.299,33.308327,0.27],
    [36061,"urn:WaterMeter:MC0203J22010600005","2024-10-22T13:15:00",20.299,33.258713,0.279],
    [36062,"urn:WaterMeter:MC0203J22010600005","2024-10-22T13:30:00",20.299,33.25755,0.288],
    [36063,"urn:WaterMeter:MC0203J22010600005","2024-10-22T13:45:00",20.2,33.231133,0.267],
    [36064,"urn:WaterMeter:MC0203J22010600005","2024-10-22T14:00:00",20.1,33.175316,0.272],
    [36065,"urn:WaterMeter:MC0203J22010600005","2024-10-22T14:15:00",20.1,33.151264,0.274],
    [36066,"urn:WaterMeter:MC0203J22010600005","2024-10-22T14:30:00",20.1,33.06864,0.26],
    [36067,"urn:WaterMeter:MC0203J22010600005","2024-10-22T14:45:00",20.1,33.058132,0.277],
    [36068,"urn:WaterMeter:MC0203J22010600005","2024-10-22T15:00:00",20.1,33.014336,0.268],
    [36069,"urn:WaterMeter:MC0203J22010600005","2024-10-22T15:15:00",20.1,32.996105,0.269],
    [36070,"urn:WaterMeter:MC0203J22010600005","2024-10-22T15:30:00",20.1,32.90103,0.279],
    [36071,"urn:WaterMeter:MC0203J22010600005","2024-10-22T15:45:00",20.1,32.90456,0.258],
    [36072,"urn:WaterMeter:MC0203J22010600005","2024-10-22T16:00:00",20.1,32.878185,0.299],
    [36073,"urn:WaterMeter:MC0203J22010600005","2024-10-22T16:15:00",20.1,32.843235,0.265],
    [36074,"urn:WaterMeter:MC0203J22010600005","2024-10-22T16:30:00",20,32.818836,0.264],
    [36075,"urn:WaterMeter:MC0203J22010600005","2024-10-22T16:45:00",19.899,32.830086,0.271],
    [36076,"urn:WaterMeter:MC0203J22010600005","2024-10-22T17:00:00",19.899,32.792458,0.258],
    [36077,"urn:WaterMeter:MC0203J22010600005","2024-10-22T17:15:00",19.799,32.825,0.268],
    [36078,"urn:WaterMeter:MC0203J22010600005","2024-10-22T17:30:00",19.7,32.813015,0.275],
    [36079,"urn:WaterMeter:MC0203J22010600005","2024-10-22T17:45:00",19.7,32.798664,0.267],
    [36080,"urn:WaterMeter:MC0203J22010600005","2024-10-22T18:00:00",19.6,32.774612,0.26],
    [36081,"urn:WaterMeter:MC0203J22010600005","2024-10-22T18:15:00",19.6,32.76026,0.262],
    [36082,"urn:WaterMeter:MC0203J22010600005","2024-10-22T18:30:00",19.6,32.721085,0.275],
    [36083,"urn:WaterMeter:MC0203J22010600005","2024-10-22T18:45:00",19.5,32.712162,0.26],
    [36084,"urn:WaterMeter:MC0203J22010600005","2024-10-22T19:00:00",19.5,32.69238,0.255],
    [36085,"urn:WaterMeter:MC0203J22010600005","2024-10-22T19:15:00",19.5,32.711773,0.284],
    [36086,"urn:WaterMeter:MC0203J22010600005","2024-10-22T19:30:00",19.5,32.71255,0.278],
    [36087,"urn:WaterMeter:MC0203J22010600005","2024-10-22T19:45:00",19.399,32.704403,0.277],
    [36088,"urn:WaterMeter:MC0203J22010600005","2024-10-22T20:00:00",19.399,32.690014,0.257],
    [36089,"urn:WaterMeter:MC0203J22010600005","2024-10-22T20:15:00",19.399,32.608204,0.27],
    [36090,"urn:WaterMeter:MC0203J22010600005","2024-10-22T20:30:00",19.299,32.62023,0.263],
    [36091,"urn:WaterMeter:MC0203J22010600005","2024-10-22T20:45:00",19.299,32.58532,0.284],
    [36092,"urn:WaterMeter:MC0203J22010600005","2024-10-22T21:00:00",19.2,32.64389,0.259],
    [36093,"urn:WaterMeter:MC0203J22010600005","2024-10-22T21:15:00",19.2,32.6179,0.29],
    [36094,"urn:WaterMeter:MC0203J22010600005","2024-10-22T21:30:00",19.1,32.586872,0.272],
    [36095,"urn:WaterMeter:MC0203J22010600005","2024-10-22T21:45:00",19.1,32.578724,0.251],
    [36096,"urn:WaterMeter:MC0203J22010600005","2024-10-22T22:00:00",19,32.576786,0.269],
    [36097,"urn:WaterMeter:MC0203J22010600005","2024-10-22T22:15:00",18.899,32.642727,0.261],
    [36098,"urn:WaterMeter:MC0203J22010600005","2024-10-22T22:30:00",18.799,32.557392,0.274],
    [36099,"urn:WaterMeter:MC0203J22010600005","2024-10-22T22:45:00",18.799,32.568638,0.281],
    [36100,"urn:WaterMeter:MC0203J22010600005","2024-10-22T23:00:00",18.7,32.580666,0.267],
    [36101,"urn:WaterMeter:MC0203J22010600005","2024-10-22T23:15:00",18.7,32.60196,0.27],
    [36102,"urn:WaterMeter:MC0203J22010600005","2024-10-22T23:30:00",18.7,32.551144,0.274],
    [36103,"urn:WaterMeter:MC0203J22010600005","2024-10-22T23:45:00",18.6,32.57209,0.27],
    [36104,"urn:WaterMeter:MC0203J22010600005","2024-10-23T00:00:00",18.6,32.55972,0.259],
    [36105,"urn:WaterMeter:MC0203J22010600005","2024-10-23T00:15:00",18.6,32.52558,0.251],
    [36106,"urn:WaterMeter:MC0203J22010600005","2024-10-23T00:30:00",18.6,32.515884,0.256],
    [36107,"urn:WaterMeter:MC0203J22010600005","2024-10-23T00:45:00",18.6,32.520153,0.27],
    [36108,"urn:WaterMeter:MC0203J22010600005","2024-10-23T01:00:00",18.6,32.50386,0.268],
    [36109,"urn:WaterMeter:MC0203J22010600005","2024-10-23T01:15:00",18.6,32.532524,0.256],
    [36110,"urn:WaterMeter:MC0203J22010600005","2024-10-23T01:30:00",18.6,32.466194,0.273],
    [36111,"urn:WaterMeter:MC0203J22010600005","2024-10-23T01:45:00",18.6,32.502697,0.271],
    [36112,"urn:WaterMeter:MC0203J22010600005","2024-10-23T02:00:00",18.6,32.463905,0.264],
    [36113,"urn:WaterMeter:MC0203J22010600005","2024-10-23T02:15:00",18.6,32.487568,0.259],
    [36114,"urn:WaterMeter:MC0203J22010600005","2024-10-23T02:30:00",18.6,32.46119,0.261],
    [36115,"urn:WaterMeter:MC0203J22010600005","2024-10-23T02:45:00",18.6,32.46158,0.276],
    [36116,"urn:WaterMeter:MC0203J22010600005","2024-10-23T03:00:00",18.6,32.47981,0.258],
    [36117,"urn:WaterMeter:MC0203J22010600005","2024-10-23T03:15:00",18.7,32.427017,0.254],
    [36118,"urn:WaterMeter:MC0203J22010600005","2024-10-23T03:30:00",18.6,32.44451,0.277],
    [36119,"urn:WaterMeter:MC0203J22010600005","2024-10-23T03:45:00",18.6,32.382835,0.259],
    [36120,"urn:WaterMeter:MC0203J22010600005","2024-10-23T04:00:00",18.6,32.416157,0.272],
    [36121,"urn:WaterMeter:MC0203J22010600005","2024-10-23T04:15:00",18.6,32.41891,0.258],
    [36122,"urn:WaterMeter:MC0203J22010600005","2024-10-23T04:30:00",18.6,32.427017,0.28],
    [36123,"urn:WaterMeter:MC0203J22010600005","2024-10-23T04:45:00",18.6,32.373913,0.254],
    [36124,"urn:WaterMeter:MC0203J22010600005","2024-10-23T05:00:00",18.6,32.414642,0.254],
    [36125,"urn:WaterMeter:MC0203J22010600005","2024-10-23T05:15:00",18.7,32.45727,0.261],
    [36126,"urn:WaterMeter:MC0203J22010600005","2024-10-23T05:30:00",18.899,32.85995,0.277],
    [36127,"urn:WaterMeter:MC0203J22010600005","2024-10-23T05:45:00",19,33.902203,0.295],
    [36128,"urn:WaterMeter:MC0203J22010600005","2024-10-23T06:00:00",19,34.985256,0.303],
    [36129,"urn:WaterMeter:MC0203J22010600005","2024-10-23T06:15:00",19.1,38.043034,0.313],
    [36130,"urn:WaterMeter:MC0203J22010600005","2024-10-23T06:30:00",19.2,37.82546,0.31],
    [36131,"urn:WaterMeter:MC0203J22010600005","2024-10-23T06:45:00",19.2,37.392525,0.298],
    [36132,"urn:WaterMeter:MC0203J22010600005","2024-10-23T07:00:00",19.299,37.17379,0.336],
    [36133,"urn:WaterMeter:MC0203J22010600005","2024-10-23T07:15:00",19.299,37.139614,0.315],
    [36134,"urn:WaterMeter:MC0203J22010600005","2024-10-23T07:30:00",19.299,37.08651,0.308],
    [36135,"urn:WaterMeter:MC0203J22010600005","2024-10-23T07:45:00",19.399,37.006992,0.302],
    [36136,"urn:WaterMeter:MC0203J22010600005","2024-10-23T08:00:00",19.399,37.055477,0.325],
    [36137,"urn:WaterMeter:MC0203J22010600005","2024-10-23T08:15:00",19.399,36.798264,0.34],
    [36138,"urn:WaterMeter:MC0203J22010600005","2024-10-23T08:30:00",19.299,36.408463,0.321],
    [36139,"urn:WaterMeter:MC0203J22010600005","2024-10-23T08:45:00",19.2,35.980606,0.312],
    [36140,"urn:WaterMeter:MC0203J22010600005","2024-10-23T09:00:00",19.299,35.80489,0.3],
    [36141,"urn:WaterMeter:MC0203J22010600005","2024-10-23T09:15:00",19.299,35.274242,0.301],
    [36142,"urn:WaterMeter:MC0203J22010600005","2024-10-23T09:30:00",19.299,35.142704,0.292],
    [36143,"urn:WaterMeter:MC0203J22010600005","2024-10-23T09:45:00",19.299,35.04926,0.312],
    [36144,"urn:WaterMeter:MC0203J22010600005","2024-10-23T10:00:00",19.299,34.90496,0.282],
    [36145,"urn:WaterMeter:MC0203J22010600005","2024-10-23T10:15:00",19.299,34.92358,0.28],
    [36146,"urn:WaterMeter:MC0203J22010600005","2024-10-23T10:30:00",19.299,34.81109,0.283],
    [36147,"urn:WaterMeter:MC0203J22010600005","2024-10-23T10:45:00",19.299,34.911167,0.283],
    [36148,"urn:WaterMeter:MC0203J22010600005","2024-10-23T11:00:00",19.299,34.83669,0.283],
    [36149,"urn:WaterMeter:MC0203J22010600005","2024-10-23T11:15:00",19.399,34.793205,0.299],
    [36150,"urn:WaterMeter:MC0203J22010600005","2024-10-23T11:30:00",19.399,34.83126,0.298],
    [36151,"urn:WaterMeter:MC0203J22010600005","2024-10-23T11:45:00",19.399,34.712563,0.29],
    [36152,"urn:WaterMeter:MC0203J22010600005","2024-10-23T12:00:00",19.5,34.662525,0.299],
    [36153,"urn:WaterMeter:MC0203J22010600005","2024-10-23T12:15:00",19.5,34.5927,0.286],
    [36154,"urn:WaterMeter:MC0203J22010600005","2024-10-23T12:30:00",19.6,34.58572,0.284],
    [36155,"urn:WaterMeter:MC0203J22010600005","2024-10-23T12:45:00",19.6,34.41,0.282],
    [36156,"urn:WaterMeter:MC0203J22010600005","2024-10-23T13:00:00",19.7,34.38401,0.285],
    [36157,"urn:WaterMeter:MC0203J22010600005","2024-10-23T13:15:00",19.7,34.34328,0.292],
    [36158,"urn:WaterMeter:MC0203J22010600005","2024-10-23T13:30:00",19.7,34.26803,0.28],
    [36159,"urn:WaterMeter:MC0203J22010600005","2024-10-23T13:45:00",19.7,34.167564,0.304],
    [36160,"urn:WaterMeter:MC0203J22010600005","2024-10-23T14:00:00",19.7,34.13537,0.318],
    [36161,"urn:WaterMeter:MC0203J22010600005","2024-10-23T14:15:00",19.7,34.03529,0.287],
    [36162,"urn:WaterMeter:MC0203J22010600005","2024-10-23T14:30:00",19.7,33.925125,0.3],
    [36163,"urn:WaterMeter:MC0203J22010600005","2024-10-23T14:45:00",19.799,33.902626,0.276],
    [36164,"urn:WaterMeter:MC0203J22010600005","2024-10-23T15:00:00",19.799,33.76605,0.278],
    [36165,"urn:WaterMeter:MC0203J22010600005","2024-10-23T15:15:00",19.799,33.74824,0.275],
    [36166,"urn:WaterMeter:MC0203J22010600005","2024-10-23T15:30:00",19.7,33.673378,0.272],
    [36167,"urn:WaterMeter:MC0203J22010600005","2024-10-23T15:45:00",19.6,33.633038,0.275],
    [36168,"urn:WaterMeter:MC0203J22010600005","2024-10-23T16:00:00",19.6,33.624504,0.291],
    [36169,"urn:WaterMeter:MC0203J22010600005","2024-10-23T16:15:00",19.5,33.59149,0.283],
    [36170,"urn:WaterMeter:MC0203J22010600005","2024-10-23T16:30:00",19.5,33.607048,0.301],
    [36171,"urn:WaterMeter:MC0203J22010600005","2024-10-23T16:45:00",19.5,33.592308,0.274],
    [36172,"urn:WaterMeter:MC0203J22010600005","2024-10-23T17:00:00",19.399,33.505806,0.309],
    [36173,"urn:WaterMeter:MC0203J22010600005","2024-10-23T17:15:00",19.399,33.47322,0.288],
    [36174,"urn:WaterMeter:MC0203J22010600005","2024-10-23T17:30:00",19.299,33.48482,0.265],
    [36175,"urn:WaterMeter:MC0203J22010600005","2024-10-23T17:45:00",19.299,33.429,0.277],
    [36176,"urn:WaterMeter:MC0203J22010600005","2024-10-23T18:00:00",19.2,33.393703,0.286],
    [36177,"urn:WaterMeter:MC0203J22010600005","2024-10-23T18:15:00",19.2,33.367676,0.268],
    [36178,"urn:WaterMeter:MC0203J22010600005","2024-10-23T18:30:00",19.1,33.402237,0.272],
    [36179,"urn:WaterMeter:MC0203J22010600005","2024-10-23T18:45:00",19.1,33.354527,0.286],
    [36180,"urn:WaterMeter:MC0203J22010600005","2024-10-23T19:00:00",19.1,33.34673,0.278],
    [36181,"urn:WaterMeter:MC0203J22010600005","2024-10-23T19:15:00",19,33.35336,0.271],
    [36182,"urn:WaterMeter:MC0203J22010600005","2024-10-23T19:30:00",19,33.354137,0.275],
    [36183,"urn:WaterMeter:MC0203J22010600005","2024-10-23T19:45:00",18.899,33.30177,0.285],
    [36184,"urn:WaterMeter:MC0203J22010600005","2024-10-23T20:00:00",18.899,33.225742,0.285],
    [36185,"urn:WaterMeter:MC0203J22010600005","2024-10-23T20:15:00",18.899,33.281174,0.283],
    [36186,"urn:WaterMeter:MC0203J22010600005","2024-10-23T20:30:00",18.799,33.234276,0.272],
    [36187,"urn:WaterMeter:MC0203J22010600005","2024-10-23T20:45:00",18.7,33.22299,0.274],
    [36188,"urn:WaterMeter:MC0203J22010600005","2024-10-23T21:00:00",18.7,33.213676,0.277],
    [36189,"urn:WaterMeter:MC0203J22010600005","2024-10-23T21:15:00",18.6,33.182297,0.278],
    [36190,"urn:WaterMeter:MC0203J22010600005","2024-10-23T21:30:00",18.6,33.16872,0.266],
    [36191,"urn:WaterMeter:MC0203J22010600005","2024-10-23T21:45:00",18.6,33.166004,0.294],
    [36192,"urn:WaterMeter:MC0203J22010600005","2024-10-23T22:00:00",18.5,33.185787,0.276],
    [36193,"urn:WaterMeter:MC0203J22010600005","2024-10-23T22:15:00",18.5,33.153553,0.271],
    [36194,"urn:WaterMeter:MC0203J22010600005","2024-10-23T22:30:00",18.5,33.15049,0.28],
    [36195,"urn:WaterMeter:MC0203J22010600005","2024-10-23T22:45:00",18.5,33.12062,0.265],
    [36196,"urn:WaterMeter:MC0203J22010600005","2024-10-23T23:00:00",18.5,33.105453,0.273],
    [36197,"urn:WaterMeter:MC0203J22010600005","2024-10-23T23:15:00",18.5,33.064762,0.276],
    [36198,"urn:WaterMeter:MC0203J22010600005","2024-10-23T23:30:00",18.399,33.0752,0.284],
    [36199,"urn:WaterMeter:MC0203J22010600005","2024-10-23T23:45:00",18.399,33.06127,0.279],
    [36200,"urn:WaterMeter:MC0203J22010600005","2024-10-24T00:00:00",18.399,33.02326,0.269],
    [36201,"urn:WaterMeter:MC0203J22010600005","2024-10-24T00:15:00",18.299,33.07252,0.284],
    [36202,"urn:WaterMeter:MC0203J22010600005","2024-10-24T00:30:00",18.299,33.011234,0.284],
    [36203,"urn:WaterMeter:MC0203J22010600005","2024-10-24T00:45:00",18.299,32.999947,0.29],
    [36204,"urn:WaterMeter:MC0203J22010600005","2024-10-24T01:00:00",18.299,32.983303,0.293],
    [36205,"urn:WaterMeter:MC0203J22010600005","2024-10-24T01:15:00",18.399,33.01201,0.263],
    [36206,"urn:WaterMeter:MC0203J22010600005","2024-10-24T01:30:00",18.399,32.97124,0.272],
    [36207,"urn:WaterMeter:MC0203J22010600005","2024-10-24T01:45:00",18.399,32.959602,0.265],
    [36208,"urn:WaterMeter:MC0203J22010600005","2024-10-24T02:00:00",18.399,32.944515,0.273],
    [36209,"urn:WaterMeter:MC0203J22010600005","2024-10-24T02:15:00",18.399,32.935204,0.259],
    [36210,"urn:WaterMeter:MC0203J22010600005","2024-10-24T02:30:00",18.399,32.961544,0.293],
    [36211,"urn:WaterMeter:MC0203J22010600005","2024-10-24T02:45:00",18.399,32.93753,0.273],
    [36212,"urn:WaterMeter:MC0203J22010600005","2024-10-24T03:00:00",18.299,32.95615,0.27],
    [36213,"urn:WaterMeter:MC0203J22010600005","2024-10-24T03:15:00",18.299,32.95844,0.261],
    [36214,"urn:WaterMeter:MC0203J22010600005","2024-10-24T03:30:00",18.2,32.93245,0.253],
    [36215,"urn:WaterMeter:MC0203J22010600005","2024-10-24T03:45:00",18.2,32.922752,0.27],
    [36216,"urn:WaterMeter:MC0203J22010600005","2024-10-24T04:00:00",18.1,32.93055,0.275],
    [36217,"urn:WaterMeter:MC0203J22010600005","2024-10-24T04:15:00",18.1,32.915035,0.273],
    [36218,"urn:WaterMeter:MC0203J22010600005","2024-10-24T04:30:00",18,32.90336,0.28],
    [36219,"urn:WaterMeter:MC0203J22010600005","2024-10-24T04:45:00",17.899,32.987183,0.284],
    [36220,"urn:WaterMeter:MC0203J22010600005","2024-10-24T05:00:00",17.899,32.90534,0.284],
    [36221,"urn:WaterMeter:MC0203J22010600005","2024-10-24T05:15:00",18,33.05041,0.268],
    [36222,"urn:WaterMeter:MC0203J22010600005","2024-10-24T05:30:00",18.2,33.524815,0.27],
    [36223,"urn:WaterMeter:MC0203J22010600005","2024-10-24T05:45:00",18.2,34.353367,0.288],
    [36224,"urn:WaterMeter:MC0203J22010600005","2024-10-24T06:00:00",18.2,34.94181,0.309],
    [36225,"urn:WaterMeter:MC0203J22010600005","2024-10-24T06:15:00",18.2,35.261055,0.317],
    [36226,"urn:WaterMeter:MC0203J22010600005","2024-10-24T06:30:00",18.2,35.397205,0.303],
    [36227,"urn:WaterMeter:MC0203J22010600005","2024-10-24T06:45:00",18.2,35.417377,0.306],
    [36228,"urn:WaterMeter:MC0203J22010600005","2024-10-24T07:00:00",18.2,35.49651,0.304],
    [36229,"urn:WaterMeter:MC0203J22010600005","2024-10-24T07:15:00",18.2,35.580296,0.313],
    [36230,"urn:WaterMeter:MC0203J22010600005","2024-10-24T07:30:00",18.2,35.596935,0.317],
    [36231,"urn:WaterMeter:MC0203J22010600005","2024-10-24T07:45:00",18.2,35.61986,0.313],
    [36232,"urn:WaterMeter:MC0203J22010600005","2024-10-24T08:00:00",18.299,35.686153,0.331],
    [36233,"urn:WaterMeter:MC0203J22010600005","2024-10-24T08:15:00",18.299,35.558533,0.312],
    [36234,"urn:WaterMeter:MC0203J22010600005","2024-10-24T08:30:00",18.299,35.27308,0.304],
    [36235,"urn:WaterMeter:MC0203J22010600005","2024-10-24T08:45:00",18.299,35.097748,0.302],
    [36236,"urn:WaterMeter:MC0203J22010600005","2024-10-24T09:00:00",18.399,34.966248,0.307],
    [36237,"urn:WaterMeter:MC0203J22010600005","2024-10-24T09:15:00",18.6,34.891346,0.31],
    [36238,"urn:WaterMeter:MC0203J22010600005","2024-10-24T09:30:00",18.7,34.79053,0.296],
    [36239,"urn:WaterMeter:MC0203J22010600005","2024-10-24T09:45:00",18.7,34.631878,0.282],
    [36240,"urn:WaterMeter:MC0203J22010600005","2024-10-24T10:00:00",18.799,34.52129,0.292],
    [36241,"urn:WaterMeter:MC0203J22010600005","2024-10-24T10:15:00",18.899,34.463493,0.282],
    [36242,"urn:WaterMeter:MC0203J22010600005","2024-10-24T10:30:00",19,34.405308,0.287],
    [36243,"urn:WaterMeter:MC0203J22010600005","2024-10-24T10:45:00",19.1,34.38479,0.294],
    [36244,"urn:WaterMeter:MC0203J22010600005","2024-10-24T11:00:00",19.1,34.16446,0.289],
    [36245,"urn:WaterMeter:MC0203J22010600005","2024-10-24T11:15:00",19.1,34.18502,0.298],
    [36246,"urn:WaterMeter:MC0203J22010600005","2024-10-24T11:30:00",19.1,34.023266,0.293],
    [36247,"urn:WaterMeter:MC0203J22010600005","2024-10-24T11:45:00",19.2,33.98021,0.284],
    [36248,"urn:WaterMeter:MC0203J22010600005","2024-10-24T12:00:00",19.299,33.859184,0.279],
    [36249,"urn:WaterMeter:MC0203J22010600005","2024-10-24T12:15:00",19.299,33.80022,0.278],
    [36250,"urn:WaterMeter:MC0203J22010600005","2024-10-24T12:30:00",19.399,33.75988,0.28],
    [36251,"urn:WaterMeter:MC0203J22010600005","2024-10-24T12:45:00",19.6,33.739708,0.277],
    [36252,"urn:WaterMeter:MC0203J22010600005","2024-10-24T13:00:00",19.799,33.622562,0.275],
    [36253,"urn:WaterMeter:MC0203J22010600005","2024-10-24T13:15:00",19.899,33.56046,0.287],
    [36254,"urn:WaterMeter:MC0203J22010600005","2024-10-24T13:30:00",20,33.478653,0.295],
    [36255,"urn:WaterMeter:MC0203J22010600005","2024-10-24T13:45:00",20.1,33.494907,0.289],
    [36256,"urn:WaterMeter:MC0203J22010600005","2024-10-24T14:00:00",20.2,33.437923,0.299],
    [36257,"urn:WaterMeter:MC0203J22010600005","2024-10-24T14:15:00",20.399,33.317287,0.284],
    [36258,"urn:WaterMeter:MC0203J22010600005","2024-10-24T14:30:00",20.399,33.3169,0.292],
    [36259,"urn:WaterMeter:MC0203J22010600005","2024-10-24T14:45:00",20.399,33.229233,0.28],
    [36260,"urn:WaterMeter:MC0203J22010600005","2024-10-24T15:00:00",20.399,33.18036,0.296],
    [36261,"urn:WaterMeter:MC0203J22010600005","2024-10-24T15:15:00",20.399,33.11752,0.28],
    [36262,"urn:WaterMeter:MC0203J22010600005","2024-10-24T15:30:00",20.299,33.069805,0.284],
    [36263,"urn:WaterMeter:MC0203J22010600005","2024-10-24T15:45:00",20.299,33.07834,0.293],
    [36264,"urn:WaterMeter:MC0203J22010600005","2024-10-24T16:00:00",20.2,33.03602,0.304],
    [36265,"urn:WaterMeter:MC0203J22010600005","2024-10-24T16:15:00",20.1,33.044594,0.294],
    [36266,"urn:WaterMeter:MC0203J22010600005","2024-10-24T16:30:00",20.1,32.9674,0.312],
    [36267,"urn:WaterMeter:MC0203J22010600005","2024-10-24T16:45:00",20,32.98602,0.304],
    [36268,"urn:WaterMeter:MC0203J22010600005","2024-10-24T17:00:00",19.899,32.99145,0.276],
    [36269,"urn:WaterMeter:MC0203J22010600005","2024-10-24T17:15:00",19.899,32.922367,0.267],
    [36270,"urn:WaterMeter:MC0203J22010600005","2024-10-24T17:30:00",19.799,32.922752,0.294],
    [36271,"urn:WaterMeter:MC0203J22010600005","2024-10-24T17:45:00",19.799,32.88982,0.268],
    [36272,"urn:WaterMeter:MC0203J22010600005","2024-10-24T18:00:00",19.7,32.883575,0.308],
    [36273,"urn:WaterMeter:MC0203J22010600005","2024-10-24T18:15:00",19.7,32.88672,0.265],
    [36274,"urn:WaterMeter:MC0203J22010600005","2024-10-24T18:30:00",19.7,32.882412,0.274],
    [36275,"urn:WaterMeter:MC0203J22010600005","2024-10-24T18:45:00",19.6,32.84362,0.264],
    [36276,"urn:WaterMeter:MC0203J22010600005","2024-10-24T19:00:00",19.6,32.799828,0.272],
    [36277,"urn:WaterMeter:MC0203J22010600005","2024-10-24T19:15:00",19.5,32.84207,0.274],
    [36278,"urn:WaterMeter:MC0203J22010600005","2024-10-24T19:30:00",19.5,32.81651,0.264],
    [36279,"urn:WaterMeter:MC0203J22010600005","2024-10-24T19:45:00",19.5,32.829308,0.275],
    [36280,"urn:WaterMeter:MC0203J22010600005","2024-10-24T20:00:00",19.5,32.793232,0.275],
    [36281,"urn:WaterMeter:MC0203J22010600005","2024-10-24T20:15:00",19.5,32.80875,0.283],
    [36282,"urn:WaterMeter:MC0203J22010600005","2024-10-24T20:30:00",19.399,32.753666,0.27],
    [36283,"urn:WaterMeter:MC0203J22010600005","2024-10-24T20:45:00",19.399,32.836678,0.277],
    [36284,"urn:WaterMeter:MC0203J22010600005","2024-10-24T21:00:00",19.399,32.791683,0.282],
    [36285,"urn:WaterMeter:MC0203J22010600005","2024-10-24T21:15:00",19.399,32.778107,0.271],
    [36286,"urn:WaterMeter:MC0203J22010600005","2024-10-24T21:30:00",19.399,32.774227,0.268],
    [36287,"urn:WaterMeter:MC0203J22010600005","2024-10-24T21:45:00",19.299,32.72764,0.273],
    [36288,"urn:WaterMeter:MC0203J22010600005","2024-10-24T22:00:00",19.299,32.684235,0.28],
    [36289,"urn:WaterMeter:MC0203J22010600005","2024-10-24T22:15:00",19.299,32.689236,0.289],
    [36290,"urn:WaterMeter:MC0203J22010600005","2024-10-24T22:30:00",19.299,32.722248,0.261],
    [36291,"urn:WaterMeter:MC0203J22010600005","2024-10-24T22:45:00",19.299,32.739704,0.286],
    [36292,"urn:WaterMeter:MC0203J22010600005","2024-10-24T23:00:00",19.2,32.65592,0.268],
    [36293,"urn:WaterMeter:MC0203J22010600005","2024-10-24T23:15:00",19.1,32.704403,0.264],
    [36294,"urn:WaterMeter:MC0203J22010600005","2024-10-24T23:30:00",19.1,32.64234,0.285],
    [36295,"urn:WaterMeter:MC0203J22010600005","2024-10-24T23:45:00",19.1,32.648506,0.268],
    [36296,"urn:WaterMeter:MC0203J22010600005","2024-10-25T00:00:00",19,32.686523,0.264],
    [36297,"urn:WaterMeter:MC0203J22010600005","2024-10-25T00:15:00",19,32.682293,0.263],
    [36298,"urn:WaterMeter:MC0203J22010600005","2024-10-25T00:30:00",19,32.62256,0.282],
    [36299,"urn:WaterMeter:MC0203J22010600005","2024-10-25T00:45:00",19,32.65553,0.266],
    [36300,"urn:WaterMeter:MC0203J22010600005","2024-10-25T01:00:00",19,32.64773,0.28],
    [36301,"urn:WaterMeter:MC0203J22010600005","2024-10-25T01:15:00",19,32.57795,0.274],
    [36302,"urn:WaterMeter:MC0203J22010600005","2024-10-25T01:30:00",18.899,32.612434,0.276],
    [36303,"urn:WaterMeter:MC0203J22010600005","2024-10-25T01:45:00",18.899,32.56631,0.269],
    [36304,"urn:WaterMeter:MC0203J22010600005","2024-10-25T02:00:00",18.899,32.596954,0.287],
    [36305,"urn:WaterMeter:MC0203J22010600005","2024-10-25T02:15:00",18.899,32.55933,0.283],
    [36306,"urn:WaterMeter:MC0203J22010600005","2024-10-25T02:30:00",18.899,32.64622,0.264],
    [36307,"urn:WaterMeter:MC0203J22010600005","2024-10-25T02:45:00",18.899,32.548855,0.268],
    [36308,"urn:WaterMeter:MC0203J22010600005","2024-10-25T03:00:00",18.799,32.615574,0.284],
    [36309,"urn:WaterMeter:MC0203J22010600005","2024-10-25T03:15:00",18.7,32.533302,0.275],
    [36310,"urn:WaterMeter:MC0203J22010600005","2024-10-25T03:30:00",18.7,32.58179,0.263],
    [36311,"urn:WaterMeter:MC0203J22010600005","2024-10-25T03:45:00",18.7,32.60006,0.265],
    [36312,"urn:WaterMeter:MC0203J22010600005","2024-10-25T04:00:00",18.7,32.593853,0.279],
    [36313,"urn:WaterMeter:MC0203J22010600005","2024-10-25T04:15:00",18.7,32.55894,0.273],
    [36314,"urn:WaterMeter:MC0203J22010600005","2024-10-25T04:30:00",18.7,32.517048,0.272],
    [36315,"urn:WaterMeter:MC0203J22010600005","2024-10-25T04:45:00",18.7,32.571316,0.257],
    [36316,"urn:WaterMeter:MC0203J22010600005","2024-10-25T05:00:00",18.7,32.549633,0.289],
    [36317,"urn:WaterMeter:MC0203J22010600005","2024-10-25T05:15:00",18.799,32.583767,0.265],
    [36318,"urn:WaterMeter:MC0203J22010600005","2024-10-25T05:30:00",19,32.894863,0.267],
    [36319,"urn:WaterMeter:MC0203J22010600005","2024-10-25T05:45:00",19,33.70635,0.297],
    [36320,"urn:WaterMeter:MC0203J22010600005","2024-10-25T06:00:00",19,34.43599,0.291],
    [36321,"urn:WaterMeter:MC0203J22010600005","2024-10-25T06:15:00",19.1,34.95267,0.295],
    [36322,"urn:WaterMeter:MC0203J22010600005","2024-10-25T06:30:00",19.1,35.199764,0.309],
    [36323,"urn:WaterMeter:MC0203J22010600005","2024-10-25T06:45:00",19.1,35.399147,0.307],
    [36324,"urn:WaterMeter:MC0203J22010600005","2024-10-25T07:00:00",19.1,35.475174,0.3],
    [36325,"urn:WaterMeter:MC0203J22010600005","2024-10-25T07:15:00",19.1,35.5884,0.312],
    [36326,"urn:WaterMeter:MC0203J22010600005","2024-10-25T07:30:00",19.2,35.562065,0.34],
    [36327,"urn:WaterMeter:MC0203J22010600005","2024-10-25T07:45:00",19.2,35.624905,0.32],
    [36328,"urn:WaterMeter:MC0203J22010600005","2024-10-25T08:00:00",19.2,35.7308,0.307],
    [36329,"urn:WaterMeter:MC0203J22010600005","2024-10-25T08:15:00",19.2,35.535686,0.313],
    [36330,"urn:WaterMeter:MC0203J22010600005","2024-10-25T08:30:00",19.1,35.23623,0.31],
    [36331,"urn:WaterMeter:MC0203J22010600005","2024-10-25T08:45:00",19.1,35.05349,0.304],
    [36332,"urn:WaterMeter:MC0203J22010600005","2024-10-25T09:00:00",19,34.85531,0.295],
    [36333,"urn:WaterMeter:MC0203J22010600005","2024-10-25T09:15:00",19,34.768806,0.294],
    [36334,"urn:WaterMeter:MC0203J22010600005","2024-10-25T09:30:00",19,34.60042,0.302],
    [36335,"urn:WaterMeter:MC0203J22010600005","2024-10-25T09:45:00",18.899,34.588783,0.302],
    [36336,"urn:WaterMeter:MC0203J22010600005","2024-10-25T10:00:00",18.899,34.530598,0.311],
    [36337,"urn:WaterMeter:MC0203J22010600005","2024-10-25T10:15:00",18.899,34.494175,0.303],
    [36338,"urn:WaterMeter:MC0203J22010600005","2024-10-25T10:30:00",19,34.3972,0.299],
    [36339,"urn:WaterMeter:MC0203J22010600005","2024-10-25T10:45:00",19.1,34.368885,0.301],
    [36340,"urn:WaterMeter:MC0203J22010600005","2024-10-25T11:00:00",19.1,34.342506,0.314],
    [36341,"urn:WaterMeter:MC0203J22010600005","2024-10-25T11:15:00",19.2,34.235058,0.308],
    [36342,"urn:WaterMeter:MC0203J22010600005","2024-10-25T11:30:00",19.299,34.20325,0.29],
    [36343,"urn:WaterMeter:MC0203J22010600005","2024-10-25T11:45:00",19.299,34.12024,0.303],
    [36344,"urn:WaterMeter:MC0203J22010600005","2024-10-25T12:00:00",19.399,34.10162,0.302],
    [36345,"urn:WaterMeter:MC0203J22010600005","2024-10-25T12:15:00",19.399,33.895256,0.282],
    [36346,"urn:WaterMeter:MC0203J22010600005","2024-10-25T12:30:00",19.399,33.906506,0.281],
    [36347,"urn:WaterMeter:MC0203J22010600005","2024-10-25T12:45:00",19.399,33.8925,0.292],
    [36348,"urn:WaterMeter:MC0203J22010600005","2024-10-25T13:00:00",19.5,33.784668,0.306],
    [36349,"urn:WaterMeter:MC0203J22010600005","2024-10-25T13:15:00",19.6,33.715622,0.295],
    [36350,"urn:WaterMeter:MC0203J22010600005","2024-10-25T13:30:00",19.7,33.67722,0.278],
    [36351,"urn:WaterMeter:MC0203J22010600005","2024-10-25T13:45:00",19.7,33.678383,0.29],
    [36352,"urn:WaterMeter:MC0203J22010600005","2024-10-25T14:00:00",19.7,33.540676,0.275],
    [36353,"urn:WaterMeter:MC0203J22010600005","2024-10-25T14:15:00",19.799,33.53606,0.28],
    [36354,"urn:WaterMeter:MC0203J22010600005","2024-10-25T14:30:00",19.899,33.478264,0.279],
    [36355,"urn:WaterMeter:MC0203J22010600005","2024-10-25T14:45:00",20,33.407627,0.273],
    [36356,"urn:WaterMeter:MC0203J22010600005","2024-10-25T15:00:00",20,33.396767,0.308],
    [36357,"urn:WaterMeter:MC0203J22010600005","2024-10-25T15:15:00",20.1,33.351032,0.292],
    [36358,"urn:WaterMeter:MC0203J22010600005","2024-10-25T15:30:00",20.1,33.28354,0.279],
    [36359,"urn:WaterMeter:MC0203J22010600005","2024-10-25T15:45:00",20,33.27384,0.273],
    [36360,"urn:WaterMeter:MC0203J22010600005","2024-10-25T16:00:00",20,33.27229,0.278],
    [36361,"urn:WaterMeter:MC0203J22010600005","2024-10-25T16:15:00",19.899,33.178417,0.279],
    [36362,"urn:WaterMeter:MC0203J22010600005","2024-10-25T16:30:00",19.899,33.16872,0.277],
    [36363,"urn:WaterMeter:MC0203J22010600005","2024-10-25T16:45:00",19.799,33.172947,0.272],
    [36364,"urn:WaterMeter:MC0203J22010600005","2024-10-25T17:00:00",19.7,33.149715,0.296],
    [36365,"urn:WaterMeter:MC0203J22010600005","2024-10-25T17:15:00",19.6,33.10623,0.279],
    [36366,"urn:WaterMeter:MC0203J22010600005","2024-10-25T17:30:00",19.6,33.082996,0.277],
    [36367,"urn:WaterMeter:MC0203J22010600005","2024-10-25T17:45:00",19.5,33.05041,0.274],
    [36368,"urn:WaterMeter:MC0203J22010600005","2024-10-25T18:00:00",19.5,33.02481,0.287],
    [36369,"urn:WaterMeter:MC0203J22010600005","2024-10-25T18:15:00",19.5,33.06942,0.298],
    [36370,"urn:WaterMeter:MC0203J22010600005","2024-10-25T18:30:00",19.399,33.048046,0.283],
    [36371,"urn:WaterMeter:MC0203J22010600005","2024-10-25T18:45:00",19.399,32.99723,0.272],
    [36372,"urn:WaterMeter:MC0203J22010600005","2024-10-25T19:00:00",19.399,32.954987,0.284],
    [36373,"urn:WaterMeter:MC0203J22010600005","2024-10-25T19:15:00",19.299,33.005802,0.271],
    [36374,"urn:WaterMeter:MC0203J22010600005","2024-10-25T19:30:00",19.299,32.946842,0.27],
    [36375,"urn:WaterMeter:MC0203J22010600005","2024-10-25T19:45:00",19.299,32.973606,0.275],
    [36376,"urn:WaterMeter:MC0203J22010600005","2024-10-25T20:00:00",19.2,32.955376,0.276],
    [36377,"urn:WaterMeter:MC0203J22010600005","2024-10-25T20:15:00",19.2,32.913483,0.268],
    [36378,"urn:WaterMeter:MC0203J22010600005","2024-10-25T20:30:00",19.1,32.905724,0.269],
    [36379,"urn:WaterMeter:MC0203J22010600005","2024-10-25T20:45:00",19.1,32.889046,0.295],
    [36380,"urn:WaterMeter:MC0203J22010600005","2024-10-25T21:00:00",19.1,32.937145,0.282],
    [36381,"urn:WaterMeter:MC0203J22010600005","2024-10-25T21:15:00",19,32.89176,0.282],
    [36382,"urn:WaterMeter:MC0203J22010600005","2024-10-25T21:30:00",19,32.928223,0.273],
    [36383,"urn:WaterMeter:MC0203J22010600005","2024-10-25T21:45:00",19,32.90142,0.3],
    [36384,"urn:WaterMeter:MC0203J22010600005","2024-10-25T22:00:00",19,32.851032,0.3],
    [36385,"urn:WaterMeter:MC0203J22010600005","2024-10-25T22:15:00",19,32.88982,0.267],
    [36386,"urn:WaterMeter:MC0203J22010600005","2024-10-25T22:30:00",19,32.88594,0.282],
    [36387,"urn:WaterMeter:MC0203J22010600005","2024-10-25T22:45:00",18.899,32.865383,0.285],
    [36388,"urn:WaterMeter:MC0203J22010600005","2024-10-25T23:00:00",18.899,32.8456,0.279],
    [36389,"urn:WaterMeter:MC0203J22010600005","2024-10-25T23:15:00",18.899,32.833187,0.266],
    [36390,"urn:WaterMeter:MC0203J22010600005","2024-10-25T23:30:00",18.899,32.851032,0.274],
    [36391,"urn:WaterMeter:MC0203J22010600005","2024-10-25T23:45:00",18.899,32.78544,0.266],
    [36392,"urn:WaterMeter:MC0203J22010600005","2024-10-26T00:00:00",18.899,32.798664,0.286],
    [36393,"urn:WaterMeter:MC0203J22010600005","2024-10-26T00:15:00",18.899,32.85607,0.275],
    [36394,"urn:WaterMeter:MC0203J22010600005","2024-10-26T00:30:00",18.899,32.80367,0.257],
    [36395,"urn:WaterMeter:MC0203J22010600005","2024-10-26T00:45:00",18.899,32.83125,0.283],
    [36396,"urn:WaterMeter:MC0203J22010600005","2024-10-26T01:00:00",18.799,32.770348,0.28],
    [36397,"urn:WaterMeter:MC0203J22010600005","2024-10-26T01:15:00",18.799,32.81961,0.269],
    [36398,"urn:WaterMeter:MC0203J22010600005","2024-10-26T01:30:00",18.7,32.76604,0.269],
    [36399,"urn:WaterMeter:MC0203J22010600005","2024-10-26T01:45:00",18.7,32.817673,0.265],
    [36400,"urn:WaterMeter:MC0203J22010600005","2024-10-26T02:00:00",18.7,32.774612,0.269],
    [36401,"urn:WaterMeter:MC0203J22010600005","2024-10-26T02:15:00",18.7,32.743584,0.294],
    [36402,"urn:WaterMeter:MC0203J22010600005","2024-10-26T02:30:00",18.6,32.78237,0.265],
    [36403,"urn:WaterMeter:MC0203J22010600005","2024-10-26T02:45:00",18.6,32.75134,0.283],
    [36404,"urn:WaterMeter:MC0203J22010600005","2024-10-26T03:00:00",18.6,32.723022,0.276],
    [36405,"urn:WaterMeter:MC0203J22010600005","2024-10-26T03:15:00",18.5,32.749012,0.274],
    [36406,"urn:WaterMeter:MC0203J22010600005","2024-10-26T03:30:00",18.5,32.762978,0.275],
    [36407,"urn:WaterMeter:MC0203J22010600005","2024-10-26T03:45:00",18.399,32.78466,0.28],
    [36408,"urn:WaterMeter:MC0203J22010600005","2024-10-26T04:00:00",18.299,32.755997,0.265],
    [36409,"urn:WaterMeter:MC0203J22010600005","2024-10-26T04:15:00",18.299,32.759098,0.272],
    [36410,"urn:WaterMeter:MC0203J22010600005","2024-10-26T04:30:00",18.2,32.715652,0.275],
    [36411,"urn:WaterMeter:MC0203J22010600005","2024-10-26T04:45:00",18.1,32.716816,0.281],
    [36412,"urn:WaterMeter:MC0203J22010600005","2024-10-26T05:00:00",18.1,32.76841,0.268],
    [36413,"urn:WaterMeter:MC0203J22010600005","2024-10-26T05:15:00",18,32.726864,0.283],
    [36414,"urn:WaterMeter:MC0203J22010600005","2024-10-26T05:30:00",17.899,32.72609,0.276],
    [36415,"urn:WaterMeter:MC0203J22010600005","2024-10-26T05:45:00",17.799,32.711773,0.273],
    [36416,"urn:WaterMeter:MC0203J22010600005","2024-10-26T06:00:00",17.799,32.713715,0.286],
    [36417,"urn:WaterMeter:MC0203J22010600005","2024-10-26T06:15:00",17.7,32.70518,0.27],
    [36418,"urn:WaterMeter:MC0203J22010600005","2024-10-26T06:30:00",17.6,32.722637,0.276],
    [36419,"urn:WaterMeter:MC0203J22010600005","2024-10-26T06:45:00",17.5,32.711,0.267],
    [36420,"urn:WaterMeter:MC0203J22010600005","2024-10-26T07:00:00",17.399,32.72609,0.273],
    [36421,"urn:WaterMeter:MC0203J22010600005","2024-10-26T07:15:00",17.299,32.66329,0.27],
    [36422,"urn:WaterMeter:MC0203J22010600005","2024-10-26T07:30:00",17.2,32.65359,0.277],
    [36423,"urn:WaterMeter:MC0203J22010600005","2024-10-26T07:45:00",17.2,32.69626,0.278],
    [36424,"urn:WaterMeter:MC0203J22010600005","2024-10-26T08:00:00",17.1,32.71255,0.287],
    [36425,"urn:WaterMeter:MC0203J22010600005","2024-10-26T08:15:00",17,32.661736,0.275],
    [36426,"urn:WaterMeter:MC0203J22010600005","2024-10-26T08:30:00",17,32.689625,0.281],
    [36427,"urn:WaterMeter:MC0203J22010600005","2024-10-26T08:45:00",17,32.659756,0.279],
    [36428,"urn:WaterMeter:MC0203J22010600005","2024-10-26T09:00:00",17,32.610107,0.269],
    [36429,"urn:WaterMeter:MC0203J22010600005","2024-10-26T09:15:00",17,32.64036,0.263],
    [36430,"urn:WaterMeter:MC0203J22010600005","2024-10-26T09:30:00",17.1,32.623333,0.271],
    [36431,"urn:WaterMeter:MC0203J22010600005","2024-10-26T09:45:00",17.2,32.542263,0.264],
    [36432,"urn:WaterMeter:MC0203J22010600005","2024-10-26T10:00:00",17.2,32.52558,0.268],
    [36433,"urn:WaterMeter:MC0203J22010600005","2024-10-26T10:15:00",17.2,32.514683,0.279],
    [36434,"urn:WaterMeter:MC0203J22010600005","2024-10-26T10:30:00",17.299,32.514294,0.279],
    [36435,"urn:WaterMeter:MC0203J22010600005","2024-10-26T10:45:00",17.399,32.509678,0.272],
    [36436,"urn:WaterMeter:MC0203J22010600005","2024-10-26T11:00:00",17.5,32.420074,0.277],
    [36437,"urn:WaterMeter:MC0203J22010600005","2024-10-26T11:15:00",17.6,32.384388,0.26],
    [36438,"urn:WaterMeter:MC0203J22010600005","2024-10-26T11:30:00",17.6,32.3487,0.267],
    [36439,"urn:WaterMeter:MC0203J22010600005","2024-10-26T11:45:00",17.7,32.329304,0.266],
    [36440,"urn:WaterMeter:MC0203J22010600005","2024-10-26T12:00:00",17.799,32.294395,0.278],
    [36441,"urn:WaterMeter:MC0203J22010600005","2024-10-26T12:15:00",18,32.278492,0.256],
    [36442,"urn:WaterMeter:MC0203J22010600005","2024-10-26T12:30:00",18.1,32.221043,0.27],
    [36443,"urn:WaterMeter:MC0203J22010600005","2024-10-26T12:45:00",18.1,32.183804,0.258],
    [36444,"urn:WaterMeter:MC0203J22010600005","2024-10-26T13:00:00",18.1,32.120613,0.261],
    [36445,"urn:WaterMeter:MC0203J22010600005","2024-10-26T13:15:00",18.1,32.11402,0.256],
    [36446,"urn:WaterMeter:MC0203J22010600005","2024-10-26T13:30:00",18.2,32.127983,0.256],
    [36447,"urn:WaterMeter:MC0203J22010600005","2024-10-26T13:45:00",18.299,32.04959,0.276],
    [36448,"urn:WaterMeter:MC0203J22010600005","2024-10-26T14:00:00",18.299,31.992607,0.269],
    [36449,"urn:WaterMeter:MC0203J22010600005","2024-10-26T14:15:00",18.2,31.98869,0.277],
    [36450,"urn:WaterMeter:MC0203J22010600005","2024-10-26T14:30:00",18.2,32.013943,0.267],
    [36451,"urn:WaterMeter:MC0203J22010600005","2024-10-26T14:45:00",18.1,31.906881,0.269],
    [36452,"urn:WaterMeter:MC0203J22010600005","2024-10-26T15:00:00",18,31.913826,0.281],
    [36453,"urn:WaterMeter:MC0203J22010600005","2024-10-26T15:15:00",18,31.930117,0.266],
    [36454,"urn:WaterMeter:MC0203J22010600005","2024-10-26T15:30:00",17.899,31.93128,0.264],
    [36455,"urn:WaterMeter:MC0203J22010600005","2024-10-26T15:45:00",17.7,31.906494,0.251],
    [36456,"urn:WaterMeter:MC0203J22010600005","2024-10-26T16:00:00",17.7,31.832792,0.248],
    [36457,"urn:WaterMeter:MC0203J22010600005","2024-10-26T16:15:00",17.6,31.831242,0.27],
    [36458,"urn:WaterMeter:MC0203J22010600005","2024-10-26T16:30:00",17.5,31.811459,0.26],
    [36459,"urn:WaterMeter:MC0203J22010600005","2024-10-26T16:45:00",17.5,31.85564,0.267],
    [36460,"urn:WaterMeter:MC0203J22010600005","2024-10-26T17:00:00",17.399,31.849472,0.256],
    [36461,"urn:WaterMeter:MC0203J22010600005","2024-10-26T17:15:00",17.2,31.806765,0.256],
    [36462,"urn:WaterMeter:MC0203J22010600005","2024-10-26T17:30:00",17.2,31.79474,0.257],
    [36463,"urn:WaterMeter:MC0203J22010600005","2024-10-26T17:45:00",17.1,31.774609,0.254],
    [36464,"urn:WaterMeter:MC0203J22010600005","2024-10-26T18:00:00",17.1,31.825771,0.256],
    [36465,"urn:WaterMeter:MC0203J22010600005","2024-10-26T18:15:00",17.1,31.78547,0.256],
    [36466,"urn:WaterMeter:MC0203J22010600005","2024-10-26T18:30:00",17,31.768362,0.283],
    [36467,"urn:WaterMeter:MC0203J22010600005","2024-10-26T18:45:00",17,31.80754,0.255],
    [36468,"urn:WaterMeter:MC0203J22010600005","2024-10-26T19:00:00",17,31.752886,0.261],
    [36469,"urn:WaterMeter:MC0203J22010600005","2024-10-26T19:15:00",16.899,31.75595,0.283],
    [36470,"urn:WaterMeter:MC0203J22010600005","2024-10-26T19:30:00",16.899,31.726896,0.254],
    [36471,"urn:WaterMeter:MC0203J22010600005","2024-10-26T19:45:00",16.799,31.767199,0.252],
    [36472,"urn:WaterMeter:MC0203J22010600005","2024-10-26T20:00:00",16.799,31.75948,0.254],
    [36473,"urn:WaterMeter:MC0203J22010600005","2024-10-26T20:15:00",16.799,31.739658,0.278],
    [36474,"urn:WaterMeter:MC0203J22010600005","2024-10-26T20:30:00",16.799,31.72069,0.272],
    [36475,"urn:WaterMeter:MC0203J22010600005","2024-10-26T20:45:00",16.799,31.719099,0.249],
    [36476,"urn:WaterMeter:MC0203J22010600005","2024-10-26T21:00:00",16.799,31.727673,0.261],
    [36477,"urn:WaterMeter:MC0203J22010600005","2024-10-26T21:15:00",16.7,31.698542,0.266],
    [36478,"urn:WaterMeter:MC0203J22010600005","2024-10-26T21:30:00",16.7,31.73194,0.265],
    [36479,"urn:WaterMeter:MC0203J22010600005","2024-10-26T21:45:00",16.6,31.712543,0.257],
    [36480,"urn:WaterMeter:MC0203J22010600005","2024-10-26T22:00:00",16.6,31.706726,0.253],
    [36481,"urn:WaterMeter:MC0203J22010600005","2024-10-26T22:15:00",16.6,31.728409,0.263],
    [36482,"urn:WaterMeter:MC0203J22010600005","2024-10-26T22:30:00",16.5,31.712543,0.251],
    [36483,"urn:WaterMeter:MC0203J22010600005","2024-10-26T23:45:00",16.299,31.648928,0.252],
    [36484,"urn:WaterMeter:MC0203J22010600005","2024-10-27T00:00:00",16.299,31.682676,0.266],
    [36485,"urn:WaterMeter:MC0203J22010600005","2024-10-27T00:15:00",16.299,31.691597,0.265],
    [36486,"urn:WaterMeter:MC0203J22010600005","2024-10-27T00:30:00",16.2,31.680698,0.251],
    [36487,"urn:WaterMeter:MC0203J22010600005","2024-10-27T00:45:00",16.2,31.652807,0.259],
    [36488,"urn:WaterMeter:MC0203J22010600005","2024-10-27T01:00:00",16.1,31.688883,0.251],
    [36489,"urn:WaterMeter:MC0203J22010600005","2024-10-27T01:15:00",16,31.698153,0.254],
    [36490,"urn:WaterMeter:MC0203J22010600005","2024-10-27T01:30:00",16,31.701296,0.261],
    [36491,"urn:WaterMeter:MC0203J22010600005","2024-10-27T01:45:00",15.899,31.69276,0.253],
    [36492,"urn:WaterMeter:MC0203J22010600005","2024-10-27T02:00:00",15.899,31.695477,0.251],
    [36493,"urn:WaterMeter:MC0203J22010600005","2024-10-27T02:15:00",15.899,31.666773,0.275],
    [36494,"urn:WaterMeter:MC0203J22010600005","2024-10-27T02:30:00",15.8,31.682676,0.255],
    [36495,"urn:WaterMeter:MC0203J22010600005","2024-10-27T02:45:00",15.8,31.649704,0.27],
    [36496,"urn:WaterMeter:MC0203J22010600005","2024-10-27T03:00:00",15.699,31.64505,0.262],
    [36497,"urn:WaterMeter:MC0203J22010600005","2024-10-27T03:15:00",15.699,31.694313,0.262],
    [36498,"urn:WaterMeter:MC0203J22010600005","2024-10-27T03:30:00",15.6,31.66716,0.256],
    [36499,"urn:WaterMeter:MC0203J22010600005","2024-10-27T03:45:00",15.6,31.68962,0.256],
    [36500,"urn:WaterMeter:MC0203J22010600005","2024-10-27T04:00:00",15.6,31.686167,0.279],
    [36501,"urn:WaterMeter:MC0203J22010600005","2024-10-27T04:15:00",15.5,31.69276,0.263],
    [36502,"urn:WaterMeter:MC0203J22010600005","2024-10-27T04:30:00",15.5,31.646214,0.244],
    [36503,"urn:WaterMeter:MC0203J22010600005","2024-10-27T04:45:00",15.399,31.629534,0.269],
    [36504,"urn:WaterMeter:MC0203J22010600005","2024-10-27T05:00:00",15.399,31.681086,0.248],
    [36505,"urn:WaterMeter:MC0203J22010600005","2024-10-27T05:15:00",15.3,31.678759,0.258],
    [36506,"urn:WaterMeter:MC0203J22010600005","2024-10-27T05:30:00",15.3,31.653196,0.271],
    [36507,"urn:WaterMeter:MC0203J22010600005","2024-10-27T05:45:00",15.199,31.63574,0.25],
    [36508,"urn:WaterMeter:MC0203J22010600005","2024-10-27T06:00:00",15.199,31.675694,0.26],
    [36509,"urn:WaterMeter:MC0203J22010600005","2024-10-27T06:15:00",15.199,31.657463,0.259],
    [36510,"urn:WaterMeter:MC0203J22010600005","2024-10-27T06:30:00",15.1,31.643887,0.252],
    [36511,"urn:WaterMeter:MC0203J22010600005","2024-10-27T06:45:00",15.1,31.662893,0.259],
    [36512,"urn:WaterMeter:MC0203J22010600005","2024-10-27T07:00:00",15,31.645437,0.249],
    [36513,"urn:WaterMeter:MC0203J22010600005","2024-10-27T07:15:00",15,31.631433,0.25],
    [36514,"urn:WaterMeter:MC0203J22010600005","2024-10-27T07:30:00",15,31.649317,0.254],
    [36515,"urn:WaterMeter:MC0203J22010600005","2024-10-27T07:45:00",14.899,31.65785,0.248],
    [36516,"urn:WaterMeter:MC0203J22010600005","2024-10-27T08:00:00",14.899,31.639193,0.266],
    [36517,"urn:WaterMeter:MC0203J22010600005","2024-10-27T08:15:00",14.899,31.577555,0.269],
    [36518,"urn:WaterMeter:MC0203J22010600005","2024-10-27T08:30:00",14.899,31.548462,0.26],
    [36519,"urn:WaterMeter:MC0203J22010600005","2024-10-27T08:45:00",14.899,31.56394,0.244],
    [36520,"urn:WaterMeter:MC0203J22010600005","2024-10-27T09:00:00",14.899,31.58411,0.249],
    [36521,"urn:WaterMeter:MC0203J22010600005","2024-10-27T09:15:00",14.899,31.524761,0.266],
    [36522,"urn:WaterMeter:MC0203J22010600005","2024-10-27T09:30:00",14.899,31.547298,0.244],
    [36523,"urn:WaterMeter:MC0203J22010600005","2024-10-27T09:45:00",14.899,31.529842,0.248],
    [36524,"urn:WaterMeter:MC0203J22010600005","2024-10-27T10:00:00",14.899,31.504204,0.258],
    [36525,"urn:WaterMeter:MC0203J22010600005","2024-10-27T10:15:00",15,31.51006,0.248],
    [36526,"urn:WaterMeter:MC0203J22010600005","2024-10-27T10:30:00",15,31.520145,0.25],
    [36527,"urn:WaterMeter:MC0203J22010600005","2024-10-27T10:45:00",15,31.447182,0.248],
    [36528,"urn:WaterMeter:MC0203J22010600005","2024-10-27T11:00:00",15,31.448732,0.246],
    [36529,"urn:WaterMeter:MC0203J22010600005","2024-10-27T11:15:00",15.1,31.467741,0.246],
    [36530,"urn:WaterMeter:MC0203J22010600005","2024-10-27T11:30:00",15.1,31.434032,0.258],
    [36531,"urn:WaterMeter:MC0203J22010600005","2024-10-27T11:45:00",15.1,31.39175,0.244],
    [36532,"urn:WaterMeter:MC0203J22010600005","2024-10-27T12:00:00",15.199,31.39369,0.239],
    [36533,"urn:WaterMeter:MC0203J22010600005","2024-10-27T12:15:00",15.199,31.357227,0.254],
    [36534,"urn:WaterMeter:MC0203J22010600005","2024-10-27T12:30:00",15.3,31.338997,0.244],
    [36535,"urn:WaterMeter:MC0203J22010600005","2024-10-27T12:45:00",15.3,31.343264,0.258],
    [36536,"urn:WaterMeter:MC0203J22010600005","2024-10-27T13:00:00",15.399,31.350206,0.249],
    [36537,"urn:WaterMeter:MC0203J22010600005","2024-10-27T13:15:00",15.399,31.32348,0.239],
    [36538,"urn:WaterMeter:MC0203J22010600005","2024-10-27T13:30:00",15.399,31.302107,0.263],
    [36539,"urn:WaterMeter:MC0203J22010600005","2024-10-27T13:45:00",15.399,31.325031,0.245],
    [36540,"urn:WaterMeter:MC0203J22010600005","2024-10-27T14:00:00",15.399,31.284302,0.239],
    [36541,"urn:WaterMeter:MC0203J22010600005","2024-10-27T14:15:00",15.5,31.307577,0.244],
    [36542,"urn:WaterMeter:MC0203J22010600005","2024-10-27T14:30:00",15.399,31.294388,0.238],
    [36543,"urn:WaterMeter:MC0203J22010600005","2024-10-27T14:45:00",15.399,31.311804,0.26],
    [36544,"urn:WaterMeter:MC0203J22010600005","2024-10-27T15:00:00",15.399,31.250942,0.242],
    [36545,"urn:WaterMeter:MC0203J22010600005","2024-10-27T15:15:00",15.399,31.270687,0.265],
    [36546,"urn:WaterMeter:MC0203J22010600005","2024-10-27T15:30:00",15.5,31.27224,0.252],
    [36547,"urn:WaterMeter:MC0203J22010600005","2024-10-27T15:45:00",15.5,31.25521,0.243],
    [36548,"urn:WaterMeter:MC0203J22010600005","2024-10-27T16:00:00",15.5,31.253231,0.249],
    [36549,"urn:WaterMeter:MC0203J22010600005","2024-10-27T16:15:00",15.5,31.226118,0.238],
    [36550,"urn:WaterMeter:MC0203J22010600005","2024-10-27T16:30:00",15.399,31.229609,0.241],
    [36551,"urn:WaterMeter:MC0203J22010600005","2024-10-27T16:45:00",15.399,31.261415,0.259],
    [36552,"urn:WaterMeter:MC0203J22010600005","2024-10-27T17:00:00",15.399,31.213665,0.246],
    [36553,"urn:WaterMeter:MC0203J22010600005","2024-10-27T17:15:00",15.399,31.204395,0.237],
    [36554,"urn:WaterMeter:MC0203J22010600005","2024-10-27T17:30:00",15.399,31.255985,0.257],
    [36555,"urn:WaterMeter:MC0203J22010600005","2024-10-27T17:45:00",15.399,31.241634,0.246],
    [36556,"urn:WaterMeter:MC0203J22010600005","2024-10-27T18:00:00",15.3,31.200129,0.236],
    [36557,"urn:WaterMeter:MC0203J22010600005","2024-10-27T18:15:00",15.3,31.194658,0.245],
    [36558,"urn:WaterMeter:MC0203J22010600005","2024-10-27T18:30:00",15.3,31.222626,0.248],
    [36559,"urn:WaterMeter:MC0203J22010600005","2024-10-27T18:45:00",15.3,31.20168,0.242],
    [36560,"urn:WaterMeter:MC0203J22010600005","2024-10-27T19:00:00",15.3,31.220299,0.239],
    [36561,"urn:WaterMeter:MC0203J22010600005","2024-10-27T19:15:00",15.3,31.15901,0.241],
    [36562,"urn:WaterMeter:MC0203J22010600005","2024-10-27T19:30:00",15.3,31.172586,0.265],
    [36563,"urn:WaterMeter:MC0203J22010600005","2024-10-27T19:45:00",15.3,31.17957,0.251],
    [36564,"urn:WaterMeter:MC0203J22010600005","2024-10-27T20:00:00",15.3,31.198576,0.244],
    [36565,"urn:WaterMeter:MC0203J22010600005","2024-10-27T20:15:00",15.3,31.193884,0.247],
    [36566,"urn:WaterMeter:MC0203J22010600005","2024-10-27T20:30:00",15.3,31.20905,0.235],
    [36567,"urn:WaterMeter:MC0203J22010600005","2024-10-27T20:45:00",15.3,31.158236,0.247],
    [36568,"urn:WaterMeter:MC0203J22010600005","2024-10-27T21:00:00",15.3,31.131857,0.239],
    [36569,"urn:WaterMeter:MC0203J22010600005","2024-10-27T21:15:00",15.199,31.172586,0.252],
    [36570,"urn:WaterMeter:MC0203J22010600005","2024-10-27T21:30:00",15.199,31.195047,0.25],
    [36571,"urn:WaterMeter:MC0203J22010600005","2024-10-27T21:45:00",15.199,31.145046,0.243],
    [36572,"urn:WaterMeter:MC0203J22010600005","2024-10-27T22:00:00",15.199,31.153193,0.238],
    [36573,"urn:WaterMeter:MC0203J22010600005","2024-10-27T22:15:00",15.199,31.162113,0.252],
    [36574,"urn:WaterMeter:MC0203J22010600005","2024-10-27T22:30:00",15.1,31.169096,0.235],
    [36575,"urn:WaterMeter:MC0203J22010600005","2024-10-27T22:45:00",15.1,31.174488,0.252],
    [36576,"urn:WaterMeter:MC0203J22010600005","2024-10-27T23:00:00",15,31.134186,0.247],
    [36577,"urn:WaterMeter:MC0203J22010600005","2024-10-27T23:15:00",15,31.157032,0.241],
    [36578,"urn:WaterMeter:MC0203J22010600005","2024-10-27T23:30:00",14.899,31.162502,0.248],
    [36579,"urn:WaterMeter:MC0203J22010600005","2024-10-27T23:45:00",14.8,31.149702,0.247],
    [36580,"urn:WaterMeter:MC0203J22010600005","2024-10-28T00:00:00",14.8,31.175652,0.263],
    [36581,"urn:WaterMeter:MC0203J22010600005","2024-10-28T00:15:00",14.8,31.165955,0.247],
    [36582,"urn:WaterMeter:MC0203J22010600005","2024-10-28T00:30:00",14.699,31.197025,0.238],
    [36583,"urn:WaterMeter:MC0203J22010600005","2024-10-28T00:45:00",14.699,31.197412,0.221],
    [36584,"urn:WaterMeter:MC0203J22010600005","2024-10-28T01:00:00",14.6,31.16832,0.245],
    [36585,"urn:WaterMeter:MC0203J22010600005","2024-10-28T01:15:00",14.6,31.17026,0.244],
    [36586,"urn:WaterMeter:MC0203J22010600005","2024-10-28T01:30:00",14.6,31.185,0.249],
    [36587,"urn:WaterMeter:MC0203J22010600005","2024-10-28T01:45:00",14.5,31.165955,0.257],
    [36588,"urn:WaterMeter:MC0203J22010600005","2024-10-28T02:00:00",14.5,31.161339,0.249],
    [36589,"urn:WaterMeter:MC0203J22010600005","2024-10-28T02:15:00",14.399,31.20168,0.242],
    [36590,"urn:WaterMeter:MC0203J22010600005","2024-10-28T02:30:00",14.3,31.179958,0.265],
    [36591,"urn:WaterMeter:MC0203J22010600005","2024-10-28T02:45:00",14.3,31.14272,0.238],
    [36592,"urn:WaterMeter:MC0203J22010600005","2024-10-28T03:00:00",14.199,31.201292,0.242],
    [36593,"urn:WaterMeter:MC0203J22010600005","2024-10-28T03:15:00",14.1,31.158236,0.25],
    [36594,"urn:WaterMeter:MC0203J22010600005","2024-10-28T03:30:00",14.1,31.183449,0.26],
    [36595,"urn:WaterMeter:MC0203J22010600005","2024-10-28T03:45:00",14.1,31.191595,0.24],
    [36596,"urn:WaterMeter:MC0203J22010600005","2024-10-28T04:00:00",14.1,31.154318,0.238],
    [36597,"urn:WaterMeter:MC0203J22010600005","2024-10-28T04:15:00",14,31.140392,0.241],
    [36598,"urn:WaterMeter:MC0203J22010600005","2024-10-28T04:30:00",14,31.193884,0.239],
    [36599,"urn:WaterMeter:MC0203J22010600005","2024-10-28T04:45:00",14,31.149313,0.248],
    [36600,"urn:WaterMeter:MC0203J22010600005","2024-10-28T05:00:00",14,31.185,0.242],
    [36601,"urn:WaterMeter:MC0203J22010600005","2024-10-28T05:15:00",14.199,31.209826,0.24],
    [36602,"urn:WaterMeter:MC0203J22010600005","2024-10-28T05:30:00",14.399,31.171812,0.235],
    [36603,"urn:WaterMeter:MC0203J22010600005","2024-10-28T05:45:00",14.5,31.303698,0.245],
    [36604,"urn:WaterMeter:MC0203J22010600005","2024-10-28T06:00:00",14.6,31.803312,0.256],
    [36605,"urn:WaterMeter:MC0203J22010600005","2024-10-28T06:15:00",14.6,32.71794,0.27],
    [36606,"urn:WaterMeter:MC0203J22010600005","2024-10-28T06:30:00",14.6,33.59149,0.302],
    [36607,"urn:WaterMeter:MC0203J22010600005","2024-10-28T06:45:00",14.6,34.148167,0.287],
    [36608,"urn:WaterMeter:MC0203J22010600005","2024-10-28T07:00:00",14.699,34.536842,0.278],
    [36609,"urn:WaterMeter:MC0203J22010600005","2024-10-28T07:15:00",14.8,34.866173,0.287],
    [36610,"urn:WaterMeter:MC0203J22010600005","2024-10-28T07:30:00",14.8,34.97552,0.291],
    [36611,"urn:WaterMeter:MC0203J22010600005","2024-10-28T07:45:00",14.8,35.116753,0.293],
    [36612,"urn:WaterMeter:MC0203J22010600005","2024-10-28T08:00:00",14.899,35.26222,0.29],
    [36613,"urn:WaterMeter:MC0203J22010600005","2024-10-28T08:15:00",14.899,34.904186,0.286],
    [36614,"urn:WaterMeter:MC0203J22010600005","2024-10-28T08:30:00",14.8,34.64158,0.281],
    [36615,"urn:WaterMeter:MC0203J22010600005","2024-10-28T08:45:00",14.8,34.527145,0.3],
    [36616,"urn:WaterMeter:MC0203J22010600005","2024-10-28T09:00:00",14.8,34.418148,0.282],
    [36617,"urn:WaterMeter:MC0203J22010600005","2024-10-28T09:15:00",14.899,34.333973,0.279],
    [36618,"urn:WaterMeter:MC0203J22010600005","2024-10-28T09:30:00",15,34.33242,0.277],
    [36619,"urn:WaterMeter:MC0203J22010600005","2024-10-28T09:45:00",15.1,34.21605,0.278],
    [36620,"urn:WaterMeter:MC0203J22010600005","2024-10-28T10:00:00",15.3,34.2145,0.269],
    [36621,"urn:WaterMeter:MC0203J22010600005","2024-10-28T10:15:00",15.399,34.047276,0.297],
    [36622,"urn:WaterMeter:MC0203J22010600005","2024-10-28T10:30:00",15.6,33.90379,0.278],
    [36623,"urn:WaterMeter:MC0203J22010600005","2024-10-28T10:45:00",15.699,33.857243,0.289],
    [36624,"urn:WaterMeter:MC0203J22010600005","2024-10-28T11:00:00",15.899,33.7932,0.278],
    [36625,"urn:WaterMeter:MC0203J22010600005","2024-10-28T11:15:00",16.1,33.705574,0.274],
    [36626,"urn:WaterMeter:MC0203J22010600005","2024-10-28T11:30:00",16.2,33.67454,0.289],
    [36627,"urn:WaterMeter:MC0203J22010600005","2024-10-28T11:45:00",16.299,33.584938,0.276],
    [36628,"urn:WaterMeter:MC0203J22010600005","2024-10-28T12:00:00",16.399,33.541843,0.276],
    [36629,"urn:WaterMeter:MC0203J22010600005","2024-10-28T12:15:00",16.6,33.52714,0.279],
    [36630,"urn:WaterMeter:MC0203J22010600005","2024-10-28T12:30:00",16.6,33.439476,0.28],
    [36631,"urn:WaterMeter:MC0203J22010600005","2024-10-28T12:45:00",16.6,33.42392,0.274],
    [36632,"urn:WaterMeter:MC0203J22010600005","2024-10-28T13:00:00",16.6,33.370815,0.285],
    [36633,"urn:WaterMeter:MC0203J22010600005","2024-10-28T13:15:00",16.6,33.378147,0.271],
    [36634,"urn:WaterMeter:MC0203J22010600005","2024-10-28T13:30:00",16.6,33.348667,0.279],
    [36635,"urn:WaterMeter:MC0203J22010600005","2024-10-28T13:45:00",16.6,33.371593,0.279],
    [36636,"urn:WaterMeter:MC0203J22010600005","2024-10-28T14:00:00",16.6,33.25949,0.28],
    [36637,"urn:WaterMeter:MC0203J22010600005","2024-10-28T14:15:00",16.6,33.277332,0.276],
    [36638,"urn:WaterMeter:MC0203J22010600005","2024-10-28T14:30:00",16.6,33.25406,0.284],
    [36639,"urn:WaterMeter:MC0203J22010600005","2024-10-28T14:45:00",16.6,33.24436,0.276],
    [36640,"urn:WaterMeter:MC0203J22010600005","2024-10-28T15:00:00",16.6,33.178806,0.264],
    [36641,"urn:WaterMeter:MC0203J22010600005","2024-10-28T15:15:00",16.6,33.20208,0.272],
    [36642,"urn:WaterMeter:MC0203J22010600005","2024-10-28T15:30:00",16.7,33.15747,0.267],
    [36643,"urn:WaterMeter:MC0203J22010600005","2024-10-28T15:45:00",16.7,33.10782,0.297],
    [36644,"urn:WaterMeter:MC0203J22010600005","2024-10-28T16:00:00",16.7,33.16519,0.272],
    [36645,"urn:WaterMeter:MC0203J22010600005","2024-10-28T16:15:00",16.799,33.08377,0.283],
    [36646,"urn:WaterMeter:MC0203J22010600005","2024-10-28T16:30:00",16.799,33.112476,0.267],
    [36647,"urn:WaterMeter:MC0203J22010600005","2024-10-28T16:45:00",16.799,33.0539,0.273],
    [36648,"urn:WaterMeter:MC0203J22010600005","2024-10-28T17:00:00",16.799,33.095367,0.266],
    [36649,"urn:WaterMeter:MC0203J22010600005","2024-10-28T17:15:00",16.799,33.08571,0.264],
    [36650,"urn:WaterMeter:MC0203J22010600005","2024-10-28T17:30:00",16.799,33.031403,0.271],
    [36651,"urn:WaterMeter:MC0203J22010600005","2024-10-28T17:45:00",16.799,33.003475,0.259],
    [36652,"urn:WaterMeter:MC0203J22010600005","2024-10-28T18:00:00",16.799,32.968563,0.266],
    [36653,"urn:WaterMeter:MC0203J22010600005","2024-10-28T18:15:00",16.799,33.018177,0.275],
    [36654,"urn:WaterMeter:MC0203J22010600005","2024-10-28T18:30:00",16.799,32.97124,0.263],
    [36655,"urn:WaterMeter:MC0203J22010600005","2024-10-28T18:45:00",16.7,32.988735,0.279],
    [36656,"urn:WaterMeter:MC0203J22010600005","2024-10-28T19:00:00",16.7,32.98055,0.265],
    [36657,"urn:WaterMeter:MC0203J22010600005","2024-10-28T19:15:00",16.7,32.98253,0.276],
    [36658,"urn:WaterMeter:MC0203J22010600005","2024-10-28T19:30:00",16.7,32.98253,0.287],
    [36659,"urn:WaterMeter:MC0203J22010600005","2024-10-28T19:45:00",16.6,32.980164,0.289],
    [36660,"urn:WaterMeter:MC0203J22010600005","2024-10-28T20:00:00",16.6,32.918137,0.273],
    [36661,"urn:WaterMeter:MC0203J22010600005","2024-10-28T20:15:00",16.6,32.968952,0.263],
    [36662,"urn:WaterMeter:MC0203J22010600005","2024-10-28T20:30:00",16.6,32.983692,0.268],
    [36663,"urn:WaterMeter:MC0203J22010600005","2024-10-28T20:45:00",16.6,32.946453,0.267],
    [36664,"urn:WaterMeter:MC0203J22010600005","2024-10-28T21:00:00",16.5,32.977097,0.301],
    [36665,"urn:WaterMeter:MC0203J22010600005","2024-10-28T21:15:00",16.5,32.9674,0.263],
    [36666,"urn:WaterMeter:MC0203J22010600005","2024-10-28T21:30:00",16.5,32.9546,0.259],
    [36667,"urn:WaterMeter:MC0203J22010600005","2024-10-28T21:45:00",16.5,32.921204,0.261],
    [36668,"urn:WaterMeter:MC0203J22010600005","2024-10-28T22:00:00",16.5,32.92745,0.271],
    [36669,"urn:WaterMeter:MC0203J22010600005","2024-10-28T22:15:00",16.5,32.948395,0.257],
    [36670,"urn:WaterMeter:MC0203J22010600005","2024-10-28T22:30:00",16.399,32.911892,0.271],
    [36671,"urn:WaterMeter:MC0203J22010600005","2024-10-28T22:45:00",16.399,32.946453,0.279],
    [36672,"urn:WaterMeter:MC0203J22010600005","2024-10-28T23:00:00",16.5,32.93016,0.264],
    [36673,"urn:WaterMeter:MC0203J22010600005","2024-10-28T23:15:00",16.5,32.909992,0.27],
    [36674,"urn:WaterMeter:MC0203J22010600005","2024-10-28T23:30:00",16.5,32.91581,0.264],
    [36675,"urn:WaterMeter:MC0203J22010600005","2024-10-28T23:45:00",16.5,32.863403,0.26],
    [36676,"urn:WaterMeter:MC0203J22010600005","2024-10-29T00:00:00",16.5,32.918137,0.262],
    [36677,"urn:WaterMeter:MC0203J22010600005","2024-10-29T00:15:00",16.5,32.854485,0.276],
    [36678,"urn:WaterMeter:MC0203J22010600005","2024-10-29T00:30:00",16.6,32.851418,0.256],
    [36679,"urn:WaterMeter:MC0203J22010600005","2024-10-29T00:45:00",16.6,32.833187,0.276],
    [36680,"urn:WaterMeter:MC0203J22010600005","2024-10-29T01:00:00",16.6,32.816895,0.264],
    [36681,"urn:WaterMeter:MC0203J22010600005","2024-10-29T01:15:00",16.6,32.870037,0.278],
    [36682,"urn:WaterMeter:MC0203J22010600005","2024-10-29T01:30:00",16.6,38.725388,0.33],
    [36683,"urn:WaterMeter:MC0203J22010600005","2024-10-29T01:45:00",16.5,40.403057,0.356],
    [36684,"urn:WaterMeter:MC0203J22010600005","2024-10-29T02:00:00",16.6,40.466633,0.334],
    [36685,"urn:WaterMeter:MC0203J22010600005","2024-10-29T02:15:00",16.6,40.454258,0.341],
    [36686,"urn:WaterMeter:MC0203J22010600005","2024-10-29T02:30:00",16.6,40.47986,0.323],
    [36687,"urn:WaterMeter:MC0203J22010600005","2024-10-29T02:45:00",16.6,40.59623,0.325],
    [36688,"urn:WaterMeter:MC0203J22010600005","2024-10-29T03:00:00",16.6,40.526794,0.325],
    [36689,"urn:WaterMeter:MC0203J22010600005","2024-10-29T03:15:00",16.7,39.941418,0.323],
    [36690,"urn:WaterMeter:MC0203J22010600005","2024-10-29T03:30:00",16.7,38.966663,0.308],
    [36691,"urn:WaterMeter:MC0203J22010600005","2024-10-29T03:45:00",16.799,38.49226,0.298],
    [36692,"urn:WaterMeter:MC0203J22010600005","2024-10-29T04:00:00",16.899,38.363865,0.3],
    [36693,"urn:WaterMeter:MC0203J22010600005","2024-10-29T04:15:00",16.899,38.129925,0.293],
    [36694,"urn:WaterMeter:MC0203J22010600005","2024-10-29T04:30:00",17,38.39955,0.278],
    [36695,"urn:WaterMeter:MC0203J22010600005","2024-10-29T04:45:00",17,38.76379,0.291],
    [36696,"urn:WaterMeter:MC0203J22010600005","2024-10-29T05:00:00",17,38.68621,0.29],
    [36697,"urn:WaterMeter:MC0203J22010600005","2024-10-29T05:15:00",17.1,38.735474,0.283],
    [36698,"urn:WaterMeter:MC0203J22010600005","2024-10-29T05:30:00",17.299,38.67845,0.282],
    [36699,"urn:WaterMeter:MC0203J22010600005","2024-10-29T05:45:00",17.399,38.58109,0.284],
    [36700,"urn:WaterMeter:MC0203J22010600005","2024-10-29T06:00:00",17.5,38.501957,0.271],
    [36701,"urn:WaterMeter:MC0203J22010600005","2024-10-29T06:15:00",17.6,38.43947,0.278],
    [36702,"urn:WaterMeter:MC0203J22010600005","2024-10-29T06:30:00",17.6,38.303314,0.28],
    [36703,"urn:WaterMeter:MC0203J22010600005","2024-10-29T06:45:00",17.7,38.15479,0.281],
    [36704,"urn:WaterMeter:MC0203J22010600005","2024-10-29T07:00:00",17.7,38.12298,0.266],
    [36705,"urn:WaterMeter:MC0203J22010600005","2024-10-29T07:15:00",17.799,38.044235,0.281],
    [36706,"urn:WaterMeter:MC0203J22010600005","2024-10-29T07:30:00",17.799,38.03609,0.267],
    [36707,"urn:WaterMeter:MC0203J22010600005","2024-10-29T07:45:00",17.899,38.02833,0.288],
    [36708,"urn:WaterMeter:MC0203J22010600005","2024-10-29T08:00:00",17.899,37.93136,0.287],
    [36709,"urn:WaterMeter:MC0203J22010600005","2024-10-29T08:15:00",18,37.580307,0.275],
    [36710,"urn:WaterMeter:MC0203J22010600005","2024-10-29T08:30:00",17.899,37.078754,0.288],
    [36711,"urn:WaterMeter:MC0203J22010600005","2024-10-29T08:45:00",17.899,36.551598,0.277],
    [36712,"urn:WaterMeter:MC0203J22010600005","2024-10-29T09:00:00",17.899,36.415443,0.275],
    [36713,"urn:WaterMeter:MC0203J22010600005","2024-10-29T09:15:00",17.899,35.942207,0.281],
    [36714,"urn:WaterMeter:MC0203J22010600005","2024-10-29T09:30:00",18,35.766098,0.258],
    [36715,"urn:WaterMeter:MC0203J22010600005","2024-10-29T09:45:00",18.1,35.694687,0.276],
    [36716,"urn:WaterMeter:MC0203J22010600005","2024-10-29T10:00:00",18.2,35.58689,0.253],
    [36717,"urn:WaterMeter:MC0203J22010600005","2024-10-29T10:15:00",18.299,35.490303,0.25],
    [36718,"urn:WaterMeter:MC0203J22010600005","2024-10-29T10:30:00",18.299,35.4263,0.271],
    [36719,"urn:WaterMeter:MC0203J22010600005","2024-10-29T10:45:00",18.399,35.34329,0.252],
    [36720,"urn:WaterMeter:MC0203J22010600005","2024-10-29T11:00:00",18.5,35.161324,0.252],
    [36721,"urn:WaterMeter:MC0203J22010600005","2024-10-29T11:15:00",18.6,35.0512,0.276],
    [36722,"urn:WaterMeter:MC0203J22010600005","2024-10-29T11:30:00",18.6,34.977848,0.277],
    [36723,"urn:WaterMeter:MC0203J22010600005","2024-10-29T11:45:00",18.7,34.950733,0.273],
    [36724,"urn:WaterMeter:MC0203J22010600005","2024-10-29T12:00:00",18.799,34.910355,0.254],
    [36725,"urn:WaterMeter:MC0203J22010600005","2024-10-29T12:15:00",19,34.752903,0.241],
    [36726,"urn:WaterMeter:MC0203J22010600005","2024-10-29T12:30:00",19.1,34.66675,0.255],
    [36727,"urn:WaterMeter:MC0203J22010600005","2024-10-29T12:45:00",19.2,34.678,0.248],
    [36728,"urn:WaterMeter:MC0203J22010600005","2024-10-29T13:00:00",19.299,34.55624,0.245],
    [36729,"urn:WaterMeter:MC0203J22010600005","2024-10-29T13:15:00",19.299,34.472412,0.246],
    [36730,"urn:WaterMeter:MC0203J22010600005","2024-10-29T13:30:00",19.299,34.444485,0.248],
    [36731,"urn:WaterMeter:MC0203J22010600005","2024-10-29T13:45:00",19.299,34.37315,0.251],
    [36732,"urn:WaterMeter:MC0203J22010600005","2024-10-29T14:00:00",19.299,34.396774,0.263],
    [36733,"urn:WaterMeter:MC0203J22010600005","2024-10-29T14:15:00",19.299,34.335873,0.243],
    [36734,"urn:WaterMeter:MC0203J22010600005","2024-10-29T14:30:00",19.299,34.30333,0.254],
    [36735,"urn:WaterMeter:MC0203J22010600005","2024-10-29T14:45:00",19.399,34.089207,0.27],
    [36736,"urn:WaterMeter:MC0203J22010600005","2024-10-29T15:00:00",19.399,34.091534,0.241],
    [36737,"urn:WaterMeter:MC0203J22010600005","2024-10-29T15:15:00",19.399,33.99417,0.245],
    [36738,"urn:WaterMeter:MC0203J22010600005","2024-10-29T15:30:00",19.399,33.96508,0.24],
    [36739,"urn:WaterMeter:MC0203J22010600005","2024-10-29T15:45:00",19.399,33.9406,0.25],
    [36740,"urn:WaterMeter:MC0203J22010600005","2024-10-29T16:00:00",19.299,33.86888,0.266],
    [36741,"urn:WaterMeter:MC0203J22010600005","2024-10-29T16:15:00",19.299,33.850224,0.267],
    [36742,"urn:WaterMeter:MC0203J22010600005","2024-10-29T16:30:00",19.299,33.768803,0.243],
    [36743,"urn:WaterMeter:MC0203J22010600005","2024-10-29T16:45:00",19.299,33.776134,0.244],
    [36744,"urn:WaterMeter:MC0203J22010600005","2024-10-29T17:00:00",19.2,33.797894,0.25],
    [36745,"urn:WaterMeter:MC0203J22010600005","2024-10-29T17:15:00",19.2,33.780437,0.25],
    [36746,"urn:WaterMeter:MC0203J22010600005","2024-10-29T17:30:00",19.2,33.705574,0.252],
    [36747,"urn:WaterMeter:MC0203J22010600005","2024-10-29T17:45:00",19.1,33.679157,0.25],
    [36748,"urn:WaterMeter:MC0203J22010600005","2024-10-29T18:00:00",19.1,33.718376,0.25],
    [36749,"urn:WaterMeter:MC0203J22010600005","2024-10-29T18:15:00",19.1,33.66407,0.248],
    [36750,"urn:WaterMeter:MC0203J22010600005","2024-10-29T18:30:00",19.1,33.630283,0.243],
    [36751,"urn:WaterMeter:MC0203J22010600005","2024-10-29T18:45:00",19.1,33.59149,0.25],
    [36752,"urn:WaterMeter:MC0203J22010600005","2024-10-29T19:00:00",19.1,33.595024,0.251],
    [36753,"urn:WaterMeter:MC0203J22010600005","2024-10-29T19:15:00",19.1,33.59033,0.252],
    [36754,"urn:WaterMeter:MC0203J22010600005","2024-10-29T19:30:00",19.1,33.574852,0.251],
    [36755,"urn:WaterMeter:MC0203J22010600005","2024-10-29T19:45:00",19.1,33.571323,0.249],
    [36756,"urn:WaterMeter:MC0203J22010600005","2024-10-29T20:00:00",19.1,33.524426,0.245],
    [36757,"urn:WaterMeter:MC0203J22010600005","2024-10-29T20:15:00",19.1,33.517445,0.249],
    [36758,"urn:WaterMeter:MC0203J22010600005","2024-10-29T20:30:00",19.1,33.484432,0.253],
    [36759,"urn:WaterMeter:MC0203J22010600005","2024-10-29T20:45:00",19.1,33.452663,0.251],
    [36760,"urn:WaterMeter:MC0203J22010600005","2024-10-29T21:00:00",19.1,33.44603,0.245],
    [36761,"urn:WaterMeter:MC0203J22010600005","2024-10-29T21:15:00",19,33.491455,0.246],
    [36762,"urn:WaterMeter:MC0203J22010600005","2024-10-29T21:30:00",19,33.419693,0.247],
    [36763,"urn:WaterMeter:MC0203J22010600005","2024-10-29T21:45:00",19,33.404526,0.249],
    [36764,"urn:WaterMeter:MC0203J22010600005","2024-10-29T22:00:00",18.899,33.44603,0.248],
    [36765,"urn:WaterMeter:MC0203J22010600005","2024-10-29T22:15:00",18.899,33.43327,0.251],
    [36766,"urn:WaterMeter:MC0203J22010600005","2024-10-29T22:30:00",18.899,33.426247,0.251],
    [36767,"urn:WaterMeter:MC0203J22010600005","2024-10-29T22:45:00",18.799,33.4034,0.25],
    [36768,"urn:WaterMeter:MC0203J22010600005","2024-10-29T23:00:00",18.799,33.34595,0.253],
    [36769,"urn:WaterMeter:MC0203J22010600005","2024-10-29T23:15:00",18.7,33.33358,0.249],
    [36770,"urn:WaterMeter:MC0203J22010600005","2024-10-29T23:30:00",18.7,33.32543,0.243],
    [36771,"urn:WaterMeter:MC0203J22010600005","2024-10-29T23:45:00",18.6,33.379738,0.25],
    [36772,"urn:WaterMeter:MC0203J22010600005","2024-10-30T00:00:00",18.6,33.36112,0.251],
    [36773,"urn:WaterMeter:MC0203J22010600005","2024-10-30T00:15:00",18.5,33.363834,0.238],
    [36774,"urn:WaterMeter:MC0203J22010600005","2024-10-30T00:30:00",18.5,33.315735,0.252],
    [36775,"urn:WaterMeter:MC0203J22010600005","2024-10-30T00:45:00",18.5,33.34944,0.251],
    [36776,"urn:WaterMeter:MC0203J22010600005","2024-10-30T01:00:00",18.399,33.300568,0.253],
    [36777,"urn:WaterMeter:MC0203J22010600005","2024-10-30T01:15:00",18.299,33.276943,0.248],
    [36778,"urn:WaterMeter:MC0203J22010600005","2024-10-30T01:30:00",18.299,33.266083,0.247],
    [36779,"urn:WaterMeter:MC0203J22010600005","2024-10-30T01:45:00",18.2,33.291683,0.25],
    [36780,"urn:WaterMeter:MC0203J22010600005","2024-10-30T02:00:00",18.1,33.289318,0.251],
    [36781,"urn:WaterMeter:MC0203J22010600005","2024-10-30T02:15:00",18,33.297504,0.251],
    [36782,"urn:WaterMeter:MC0203J22010600005","2024-10-30T02:30:00",17.899,33.263367,0.25],
    [36783,"urn:WaterMeter:MC0203J22010600005","2024-10-30T02:45:00",17.799,33.32543,0.248],
    [36784,"urn:WaterMeter:MC0203J22010600005","2024-10-30T03:00:00",17.6,33.232685,0.253],
    [36785,"urn:WaterMeter:MC0203J22010600005","2024-10-30T03:15:00",17.5,33.2238,0.252],
    [36786,"urn:WaterMeter:MC0203J22010600005","2024-10-30T03:30:00",17.399,33.234665,0.25],
    [36787,"urn:WaterMeter:MC0203J22010600005","2024-10-30T03:45:00",17.299,33.23505,0.241],
    [36788,"urn:WaterMeter:MC0203J22010600005","2024-10-30T04:00:00",17.2,33.239708,0.248],
    [36789,"urn:WaterMeter:MC0203J22010600005","2024-10-30T04:15:00",17.1,33.218372,0.248],
    [36790,"urn:WaterMeter:MC0203J22010600005","2024-10-30T04:30:00",17,33.29246,0.245],
    [36791,"urn:WaterMeter:MC0203J22010600005","2024-10-30T04:45:00",16.799,33.262165,0.249],
    [36792,"urn:WaterMeter:MC0203J22010600005","2024-10-30T05:00:00",16.7,33.219536,0.25],
    [36793,"urn:WaterMeter:MC0203J22010600005","2024-10-30T05:15:00",16.799,33.307938,0.241],
    [36794,"urn:WaterMeter:MC0203J22010600005","2024-10-30T05:30:00",16.899,33.581406,0.248],
    [36795,"urn:WaterMeter:MC0203J22010600005","2024-10-30T05:45:00",16.899,34.36578,0.257],
    [36796,"urn:WaterMeter:MC0203J22010600005","2024-10-30T06:00:00",16.899,35.06788,0.255],
    [36797,"urn:WaterMeter:MC0203J22010600005","2024-10-30T06:15:00",16.799,35.622963,0.28],
    [36798,"urn:WaterMeter:MC0203J22010600005","2024-10-30T06:30:00",16.799,35.840538,0.286],
    [36799,"urn:WaterMeter:MC0203J22010600005","2024-10-30T06:45:00",16.799,36.00462,0.283],
    [36800,"urn:WaterMeter:MC0203J22010600005","2024-10-30T07:00:00",16.7,36.136154,0.275],
    [36801,"urn:WaterMeter:MC0203J22010600005","2024-10-30T07:15:00",16.7,36.13499,0.273],
    [36802,"urn:WaterMeter:MC0203J22010600005","2024-10-30T07:30:00",16.7,36.25175,0.277],
    [36803,"urn:WaterMeter:MC0203J22010600005","2024-10-30T07:45:00",16.7,36.2296,0.288],
    [36804,"urn:WaterMeter:MC0203J22010600005","2024-10-30T08:00:00",16.799,36.3355,0.287],
    [36805,"urn:WaterMeter:MC0203J22010600005","2024-10-30T08:15:00",16.799,36.18736,0.278],
    [36806,"urn:WaterMeter:MC0203J22010600005","2024-10-30T08:30:00",16.7,36.032585,0.275],
    [36807,"urn:WaterMeter:MC0203J22010600005","2024-10-30T08:45:00",16.7,35.795578,0.275],
    [36808,"urn:WaterMeter:MC0203J22010600005","2024-10-30T09:00:00",16.799,35.57948,0.291],
    [36809,"urn:WaterMeter:MC0203J22010600005","2024-10-30T09:15:00",16.899,35.468967,0.279],
    [36810,"urn:WaterMeter:MC0203J22010600005","2024-10-30T09:30:00",16.899,35.375057,0.28],
    [36811,"urn:WaterMeter:MC0203J22010600005","2024-10-30T09:45:00",17,35.256012,0.268],
    [36812,"urn:WaterMeter:MC0203J22010600005","2024-10-30T10:00:00",17.1,35.15318,0.26],
    [36813,"urn:WaterMeter:MC0203J22010600005","2024-10-30T10:15:00",17.2,35.0865,0.29],
    [36814,"urn:WaterMeter:MC0203J22010600005","2024-10-30T10:30:00",17.299,34.977848,0.271],
    [36815,"urn:WaterMeter:MC0203J22010600005","2024-10-30T10:45:00",17.5,34.919273,0.289],
    [36816,"urn:WaterMeter:MC0203J22010600005","2024-10-30T11:00:00",17.6,34.85876,0.264],
    [36817,"urn:WaterMeter:MC0203J22010600005","2024-10-30T11:15:00",17.7,34.735798,0.257],
    [36818,"urn:WaterMeter:MC0203J22010600005","2024-10-30T11:30:00",17.7,34.650112,0.283],
    [36819,"urn:WaterMeter:MC0203J22010600005","2024-10-30T11:45:00",17.799,34.608566,0.296],
    [36820,"urn:WaterMeter:MC0203J22010600005","2024-10-30T12:00:00",18,34.586884,0.26],
    [36821,"urn:WaterMeter:MC0203J22010600005","2024-10-30T12:15:00",18.2,34.435562,0.277],
    [36822,"urn:WaterMeter:MC0203J22010600005","2024-10-30T12:30:00",18.299,34.293243,0.264],
    [36823,"urn:WaterMeter:MC0203J22010600005","2024-10-30T12:45:00",18.5,34.23234,0.257],
    [36824,"urn:WaterMeter:MC0203J22010600005","2024-10-30T13:00:00",18.5,34.13886,0.253],
    [36825,"urn:WaterMeter:MC0203J22010600005","2024-10-30T13:15:00",18.6,34.117912,0.242],
    [36826,"urn:WaterMeter:MC0203J22010600005","2024-10-30T13:30:00",18.7,34.065506,0.276],
    [36827,"urn:WaterMeter:MC0203J22010600005","2024-10-30T13:45:00",18.799,33.92082,0.268],
    [36828,"urn:WaterMeter:MC0203J22010600005","2024-10-30T14:00:00",18.799,33.958836,0.255],
    [36829,"urn:WaterMeter:MC0203J22010600005","2024-10-30T14:15:00",18.799,33.867718,0.251],
    [36830,"urn:WaterMeter:MC0203J22010600005","2024-10-30T14:30:00",18.799,33.780052,0.26],
    [36831,"urn:WaterMeter:MC0203J22010600005","2024-10-30T14:45:00",18.899,33.691998,0.255],
    [36832,"urn:WaterMeter:MC0203J22010600005","2024-10-30T15:00:00",18.899,33.680748,0.249],
    [36833,"urn:WaterMeter:MC0203J22010600005","2024-10-30T15:15:00",18.899,33.64157,0.264],
    [36834,"urn:WaterMeter:MC0203J22010600005","2024-10-30T15:30:00",18.799,33.614418,0.262],
    [36835,"urn:WaterMeter:MC0203J22010600005","2024-10-30T15:45:00",18.799,33.585712,0.26],
    [36836,"urn:WaterMeter:MC0203J22010600005","2024-10-30T16:00:00",18.7,33.559685,0.25],
    [36837,"urn:WaterMeter:MC0203J22010600005","2024-10-30T16:15:00",18.6,33.49921,0.254],
    [36838,"urn:WaterMeter:MC0203J22010600005","2024-10-30T16:30:00",18.6,33.540676,0.269],
    [36839,"urn:WaterMeter:MC0203J22010600005","2024-10-30T16:45:00",18.5,33.519382,0.26],
    [36840,"urn:WaterMeter:MC0203J22010600005","2024-10-30T17:00:00",18.399,33.482494,0.245],
    [36841,"urn:WaterMeter:MC0203J22010600005","2024-10-30T17:15:00",18.299,33.398746,0.247],
    [36842,"urn:WaterMeter:MC0203J22010600005","2024-10-30T17:30:00",18.2,33.407627,0.281],
    [36843,"urn:WaterMeter:MC0203J22010600005","2024-10-30T17:45:00",18.1,33.45534,0.253],
    [36844,"urn:WaterMeter:MC0203J22010600005","2024-10-30T18:00:00",18,33.396767,0.25],
    [36845,"urn:WaterMeter:MC0203J22010600005","2024-10-30T18:15:00",17.899,33.39793,0.266],
    [36846,"urn:WaterMeter:MC0203J22010600005","2024-10-30T18:30:00",17.799,33.420856,0.265],
    [36847,"urn:WaterMeter:MC0203J22010600005","2024-10-30T18:45:00",17.7,33.363445,0.243],
    [36848,"urn:WaterMeter:MC0203J22010600005","2024-10-30T19:00:00",17.6,33.423183,0.251],
    [36849,"urn:WaterMeter:MC0203J22010600005","2024-10-30T19:15:00",17.5,33.339745,0.265],
    [36850,"urn:WaterMeter:MC0203J22010600005","2024-10-30T19:30:00",17.399,33.350258,0.251],
    [36851,"urn:WaterMeter:MC0203J22010600005","2024-10-30T19:45:00",17.399,33.34634,0.261],
    [36852,"urn:WaterMeter:MC0203J22010600005","2024-10-30T20:00:00",17.299,33.33707,0.265],
    [36853,"urn:WaterMeter:MC0203J22010600005","2024-10-30T20:15:00",17.2,33.30371,0.258],
    [36854,"urn:WaterMeter:MC0203J22010600005","2024-10-30T20:30:00",17.1,33.28742,0.264],
    [36855,"urn:WaterMeter:MC0203J22010600005","2024-10-30T20:45:00",17,33.283928,0.244],
    [36856,"urn:WaterMeter:MC0203J22010600005","2024-10-30T21:00:00",16.899,33.293236,0.266],
    [36857,"urn:WaterMeter:MC0203J22010600005","2024-10-30T21:15:00",16.899,33.284313,0.262],
    [36858,"urn:WaterMeter:MC0203J22010600005","2024-10-30T21:30:00",16.799,33.30018,0.254],
    [36859,"urn:WaterMeter:MC0203J22010600005","2024-10-30T21:45:00",16.7,33.26876,0.253],
    [36860,"urn:WaterMeter:MC0203J22010600005","2024-10-30T22:00:00",16.6,33.30216,0.262],
    [36861,"urn:WaterMeter:MC0203J22010600005","2024-10-30T22:15:00",16.5,33.308712,0.264],
    [36862,"urn:WaterMeter:MC0203J22010600005","2024-10-30T22:30:00",16.399,33.24277,0.245],
    [36863,"urn:WaterMeter:MC0203J22010600005","2024-10-30T22:45:00",16.399,33.256386,0.266],
    [36864,"urn:WaterMeter:MC0203J22010600005","2024-10-30T23:00:00",16.299,33.284702,0.254],
    [36865,"urn:WaterMeter:MC0203J22010600005","2024-10-30T23:15:00",16.2,33.27268,0.249],
    [36866,"urn:WaterMeter:MC0203J22010600005","2024-10-30T23:30:00",16.2,33.249752,0.259],
    [36867,"urn:WaterMeter:MC0203J22010600005","2024-10-30T23:45:00",16.1,33.25561,0.26],
    [36868,"urn:WaterMeter:MC0203J22010600005","2024-10-31T00:00:00",16,33.278107,0.249],
    [36869,"urn:WaterMeter:MC0203J22010600005","2024-10-31T00:15:00",16,33.23932,0.234],
    [36870,"urn:WaterMeter:MC0203J22010600005","2024-10-31T00:30:00",15.899,33.213676,0.252],
    [36871,"urn:WaterMeter:MC0203J22010600005","2024-10-31T00:45:00",15.8,33.195873,0.248],
    [36872,"urn:WaterMeter:MC0203J22010600005","2024-10-31T01:00:00",15.8,33.213676,0.264],
    [36873,"urn:WaterMeter:MC0203J22010600005","2024-10-31T01:15:00",15.699,33.237766,0.253],
    [36874,"urn:WaterMeter:MC0203J22010600005","2024-10-31T01:30:00",15.6,33.26647,0.252],
    [36875,"urn:WaterMeter:MC0203J22010600005","2024-10-31T01:45:00",15.6,33.24122,0.249],
    [36876,"urn:WaterMeter:MC0203J22010600005","2024-10-31T02:00:00",15.5,33.24824,0.25],
    [36877,"urn:WaterMeter:MC0203J22010600005","2024-10-31T02:15:00",15.5,33.23932,0.271],
    [36878,"urn:WaterMeter:MC0203J22010600005","2024-10-31T02:30:00",15.399,33.20014,0.246],
    [36879,"urn:WaterMeter:MC0203J22010600005","2024-10-31T02:45:00",15.3,33.164413,0.259],
    [36880,"urn:WaterMeter:MC0203J22010600005","2024-10-31T03:00:00",15.3,33.178806,0.254],
    [36881,"urn:WaterMeter:MC0203J22010600005","2024-10-31T03:15:00",15.199,33.24475,0.258],
    [36882,"urn:WaterMeter:MC0203J22010600005","2024-10-31T03:30:00",15.199,33.18773,0.258],
    [36883,"urn:WaterMeter:MC0203J22010600005","2024-10-31T03:45:00",15.1,33.16364,0.259],
    [36884,"urn:WaterMeter:MC0203J22010600005","2024-10-31T04:00:00",15,33.15786,0.256],
    [36885,"urn:WaterMeter:MC0203J22010600005","2024-10-31T04:15:00",15,33.17648,0.257],
    [36886,"urn:WaterMeter:MC0203J22010600005","2024-10-31T04:30:00",15,33.185013,0.263],
    [36887,"urn:WaterMeter:MC0203J22010600005","2024-10-31T04:45:00",14.899,33.12411,0.239],
    [36888,"urn:WaterMeter:MC0203J22010600005","2024-10-31T05:00:00",14.899,33.177643,0.247],
    [36889,"urn:WaterMeter:MC0203J22010600005","2024-10-31T05:15:00",15,33.162125,0.244],
    [36890,"urn:WaterMeter:MC0203J22010600005","2024-10-31T05:30:00",15.199,33.38439,0.252],
    [36891,"urn:WaterMeter:MC0203J22010600005","2024-10-31T05:45:00",15.3,34.062443,0.261],
    [36892,"urn:WaterMeter:MC0203J22010600005","2024-10-31T06:00:00",15.399,34.804882,0.292],
    [36893,"urn:WaterMeter:MC0203J22010600005","2024-10-31T06:15:00",15.399,35.30217,0.272],
    [36894,"urn:WaterMeter:MC0203J22010600005","2024-10-31T06:30:00",15.399,35.675293,0.28],
    [36895,"urn:WaterMeter:MC0203J22010600005","2024-10-31T06:45:00",15.399,35.8976,0.273],
    [36896,"urn:WaterMeter:MC0203J22010600005","2024-10-31T07:00:00",15.399,36.066723,0.29],
    [36897,"urn:WaterMeter:MC0203J22010600005","2024-10-31T07:15:00",15.5,36.160553,0.288],
    [36898,"urn:WaterMeter:MC0203J22010600005","2024-10-31T07:30:00",15.5,36.228825,0.297],
    [36899,"urn:WaterMeter:MC0203J22010600005","2024-10-31T07:45:00",15.6,36.236195,0.285],
    [36900,"urn:WaterMeter:MC0203J22010600005","2024-10-31T08:00:00",15.6,36.20753,0.281],
    [36901,"urn:WaterMeter:MC0203J22010600005","2024-10-31T08:15:00",15.699,36.1059,0.304],
    [36902,"urn:WaterMeter:MC0203J22010600005","2024-10-31T08:30:00",15.699,35.906094,0.279],
    [36903,"urn:WaterMeter:MC0203J22010600005","2024-10-31T08:45:00",15.699,35.697052,0.281],
    [36904,"urn:WaterMeter:MC0203J22010600005","2024-10-31T09:00:00",15.699,35.462723,0.271],
    [36905,"urn:WaterMeter:MC0203J22010600005","2024-10-31T09:15:00",15.899,35.268772,0.285],
    [36906,"urn:WaterMeter:MC0203J22010600005","2024-10-31T09:30:00",16,35.147785,0.271],
    [36907,"urn:WaterMeter:MC0203J22010600005","2024-10-31T09:45:00",16.2,35.081066,0.269],
    [36908,"urn:WaterMeter:MC0203J22010600005","2024-10-31T10:00:00",16.299,35.059734,0.264],
    [36909,"urn:WaterMeter:MC0203J22010600005","2024-10-31T10:15:00",16.5,34.974396,0.267],
    [36910,"urn:WaterMeter:MC0203J22010600005","2024-10-31T10:30:00",16.7,34.899105,0.267],
    [36911,"urn:WaterMeter:MC0203J22010600005","2024-10-31T10:45:00",16.899,34.798676,0.271],
    [36912,"urn:WaterMeter:MC0203J22010600005","2024-10-31T11:00:00",17.1,34.63382,0.272],
    [36913,"urn:WaterMeter:MC0203J22010600005","2024-10-31T11:15:00",17.299,34.518612,0.274],
    [36914,"urn:WaterMeter:MC0203J22010600005","2024-10-31T11:30:00",17.399,34.449177,0.262],
    [36915,"urn:WaterMeter:MC0203J22010600005","2024-10-31T11:45:00",17.5,34.43948,0.253],
    [36916,"urn:WaterMeter:MC0203J22010600005","2024-10-31T12:00:00",17.7,34.28277,0.26],
    [36917,"urn:WaterMeter:MC0203J22010600005","2024-10-31T12:15:00",17.799,34.19433,0.258],
    [36918,"urn:WaterMeter:MC0203J22010600005","2024-10-31T12:30:00",17.799,34.131878,0.255],
    [36919,"urn:WaterMeter:MC0203J22010600005","2024-10-31T12:45:00",17.799,34.045338,0.256],
    [36920,"urn:WaterMeter:MC0203J22010600005","2024-10-31T13:00:00",18,33.99107,0.26],
    [36921,"urn:WaterMeter:MC0203J22010600005","2024-10-31T13:15:00",18,33.94258,0.257],
    [36922,"urn:WaterMeter:MC0203J22010600005","2024-10-31T13:30:00",18.1,33.875473,0.263],
    [36923,"urn:WaterMeter:MC0203J22010600005","2024-10-31T13:45:00",18.1,33.834743,0.249],
    [36924,"urn:WaterMeter:MC0203J22010600005","2024-10-31T14:00:00",18.2,33.805653,0.256],
    [36925,"urn:WaterMeter:MC0203J22010600005","2024-10-31T14:15:00",18.2,33.69006,0.26],
    [36926,"urn:WaterMeter:MC0203J22010600005","2024-10-31T14:30:00",18.2,33.699368,0.251],
    [36927,"urn:WaterMeter:MC0203J22010600005","2024-10-31T14:45:00",18.299,33.607437,0.251],
    [36928,"urn:WaterMeter:MC0203J22010600005","2024-10-31T15:00:00",18.299,33.57908,0.26],
    [36929,"urn:WaterMeter:MC0203J22010600005","2024-10-31T15:15:00",18.299,33.554295,0.251],
    [36930,"urn:WaterMeter:MC0203J22010600005","2024-10-31T15:30:00",18.2,33.53253,0.246],
    [36931,"urn:WaterMeter:MC0203J22010600005","2024-10-31T15:45:00",18.2,33.55309,0.26],
    [36932,"urn:WaterMeter:MC0203J22010600005","2024-10-31T16:00:00",18.2,33.49223,0.248],
    [36933,"urn:WaterMeter:MC0203J22010600005","2024-10-31T16:15:00",18.2,33.41077,0.253],
    [36934,"urn:WaterMeter:MC0203J22010600005","2024-10-31T16:30:00",18.1,33.438698,0.271],
    [36935,"urn:WaterMeter:MC0203J22010600005","2024-10-31T16:45:00",18.1,33.41814,0.283],
    [36936,"urn:WaterMeter:MC0203J22010600005","2024-10-31T17:00:00",18,33.32427,0.257],
    [36937,"urn:WaterMeter:MC0203J22010600005","2024-10-31T17:15:00",18,33.36806,0.256],
    [36938,"urn:WaterMeter:MC0203J22010600005","2024-10-31T17:30:00",17.899,33.371204,0.255],
    [36939,"urn:WaterMeter:MC0203J22010600005","2024-10-31T17:45:00",17.899,33.308712,0.251],
    [36940,"urn:WaterMeter:MC0203J22010600005","2024-10-31T18:00:00",17.799,33.307938,0.251],
    [36941,"urn:WaterMeter:MC0203J22010600005","2024-10-31T18:15:00",17.799,33.31263,0.246],
    [36942,"urn:WaterMeter:MC0203J22010600005","2024-10-31T18:30:00",17.799,33.27384,0.248],
    [36943,"urn:WaterMeter:MC0203J22010600005","2024-10-31T18:45:00",17.7,33.2432,0.242],
    [36944,"urn:WaterMeter:MC0203J22010600005","2024-10-31T19:00:00",17.7,33.22768,0.268],
    [36945,"urn:WaterMeter:MC0203J22010600005","2024-10-31T19:15:00",17.7,33.286255,0.251],
    [36946,"urn:WaterMeter:MC0203J22010600005","2024-10-31T19:30:00",17.6,33.256775,0.257],
    [36947,"urn:WaterMeter:MC0203J22010600005","2024-10-31T19:45:00",17.6,33.21876,0.272],
    [36948,"urn:WaterMeter:MC0203J22010600005","2024-10-31T20:00:00",17.6,33.238155,0.264],
    [36949,"urn:WaterMeter:MC0203J22010600005","2024-10-31T20:15:00",17.5,33.17958,0.262],
    [36950,"urn:WaterMeter:MC0203J22010600005","2024-10-31T20:30:00",17.5,33.183033,0.254],
    [36951,"urn:WaterMeter:MC0203J22010600005","2024-10-31T20:45:00",17.5,33.245136,0.244],
    [36952,"urn:WaterMeter:MC0203J22010600005","2024-10-31T21:00:00",17.5,33.205185,0.257],
    [36953,"urn:WaterMeter:MC0203J22010600005","2024-10-31T21:15:00",17.5,33.218372,0.262],
    [36954,"urn:WaterMeter:MC0203J22010600005","2024-10-31T21:30:00",17.399,33.137302,0.25],
    [36955,"urn:WaterMeter:MC0203J22010600005","2024-10-31T21:45:00",17.399,33.197426,0.246],
    [36956,"urn:WaterMeter:MC0203J22010600005","2024-10-31T22:00:00",17.399,33.104717,0.261],
    [36957,"urn:WaterMeter:MC0203J22010600005","2024-10-31T22:15:00",17.399,33.156307,0.241],
    [36958,"urn:WaterMeter:MC0203J22010600005","2024-10-31T22:30:00",17.299,33.076748,0.242],
    [36959,"urn:WaterMeter:MC0203J22010600005","2024-10-31T22:45:00",17.299,33.13963,0.266],
    [36960,"urn:WaterMeter:MC0203J22010600005","2024-10-31T23:00:00",17.299,33.112087,0.249],
    [36961,"urn:WaterMeter:MC0203J22010600005","2024-10-31T23:15:00",17.299,33.118683,0.252],
    [36962,"urn:WaterMeter:MC0203J22010600005","2024-10-31T23:30:00",17.2,33.104717,0.246],
    [36963,"urn:WaterMeter:MC0203J22010600005","2024-10-31T23:45:00",17.2,33.07291,0.262],
    [36964,"urn:WaterMeter:MC0203J22010600005","2024-11-01T00:00:00",17.2,33.0636,0.246],
    [36965,"urn:WaterMeter:MC0203J22010600005","2024-11-01T00:15:00",17.2,33.09308,0.256],
    [36966,"urn:WaterMeter:MC0203J22010600005","2024-11-01T00:30:00",17.2,33.04498,0.251],
    [36967,"urn:WaterMeter:MC0203J22010600005","2024-11-01T00:45:00",17.1,33.05658,0.243],
    [36968,"urn:WaterMeter:MC0203J22010600005","2024-11-01T01:00:00",17.1,33.073296,0.25],
    [36969,"urn:WaterMeter:MC0203J22010600005","2024-11-01T01:15:00",17.1,33.073685,0.258],
    [36970,"urn:WaterMeter:MC0203J22010600005","2024-11-01T01:30:00",17.1,33.0155,0.246],
    [36971,"urn:WaterMeter:MC0203J22010600005","2024-11-01T01:45:00",17,32.98641,0.246],
    [36972,"urn:WaterMeter:MC0203J22010600005","2024-11-01T02:00:00",17,33.02287,0.252],
    [36973,"urn:WaterMeter:MC0203J22010600005","2024-11-01T02:15:00",16.899,32.993004,0.255],
    [36974,"urn:WaterMeter:MC0203J22010600005","2024-11-01T02:30:00",16.899,32.992615,0.259],
    [36975,"urn:WaterMeter:MC0203J22010600005","2024-11-01T02:45:00",16.799,33.003864,0.244],
    [36976,"urn:WaterMeter:MC0203J22010600005","2024-11-01T03:00:00",16.799,33.005413,0.259],
    [36977,"urn:WaterMeter:MC0203J22010600005","2024-11-01T03:15:00",16.7,33.015114,0.268],
    [36978,"urn:WaterMeter:MC0203J22010600005","2024-11-01T03:30:00",16.7,33.00076,0.249],
    [36979,"urn:WaterMeter:MC0203J22010600005","2024-11-01T03:45:00",16.6,32.96969,0.254],
    [36980,"urn:WaterMeter:MC0203J22010600005","2024-11-01T04:00:00",16.5,32.975548,0.264],
    [36981,"urn:WaterMeter:MC0203J22010600005","2024-11-01T04:15:00",16.5,33.018566,0.255],
    [36982,"urn:WaterMeter:MC0203J22010600005","2024-11-01T04:30:00",16.399,32.96934,0.244],
    [36983,"urn:WaterMeter:MC0203J22010600005","2024-11-01T04:45:00",16.299,32.952274,0.267],
    [36984,"urn:WaterMeter:MC0203J22010600005","2024-11-01T05:00:00",16.299,32.99917,0.228],
    [36985,"urn:WaterMeter:MC0203J22010600005","2024-11-01T05:15:00",16.399,32.998783,0.253],
    [36986,"urn:WaterMeter:MC0203J22010600005","2024-11-01T05:30:00",16.5,33.205185,0.259],
    [36987,"urn:WaterMeter:MC0203J22010600005","2024-11-01T05:45:00",16.6,33.81376,0.266],
    [36988,"urn:WaterMeter:MC0203J22010600005","2024-11-01T06:00:00",16.6,34.57641,0.292],
    [36989,"urn:WaterMeter:MC0203J22010600005","2024-11-01T06:15:00",16.6,35.1955,0.281],
    [36990,"urn:WaterMeter:MC0203J22010600005","2024-11-01T06:30:00",16.7,35.62917,0.272],
    [36991,"urn:WaterMeter:MC0203J22010600005","2024-11-01T06:45:00",16.7,35.889023,0.291],
    [36992,"urn:WaterMeter:MC0203J22010600005","2024-11-01T07:00:00",16.799,36.012802,0.288],
    [36993,"urn:WaterMeter:MC0203J22010600005","2024-11-01T07:15:00",16.799,36.15361,0.288],
    [36994,"urn:WaterMeter:MC0203J22010600005","2024-11-01T07:30:00",16.899,36.136543,0.303],
    [36995,"urn:WaterMeter:MC0203J22010600005","2024-11-01T07:45:00",16.899,36.24438,0.302],
    [36996,"urn:WaterMeter:MC0203J22010600005","2024-11-01T08:00:00",17,36.25714,0.283],
    [36997,"urn:WaterMeter:MC0203J22010600005","2024-11-01T08:15:00",17,36.117924,0.3],
    [36998,"urn:WaterMeter:MC0203J22010600005","2024-11-01T08:30:00",17,35.98953,0.297],
    [36999,"urn:WaterMeter:MC0203J22010600005","2024-11-01T08:45:00",17.1,35.630722,0.278],
    [37000,"urn:WaterMeter:MC0203J22010600005","2024-11-01T09:00:00",17.2,35.499184,0.272],
    [37001,"urn:WaterMeter:MC0203J22010600005","2024-11-01T09:15:00",17.299,35.237003,0.279],
    [37002,"urn:WaterMeter:MC0203J22010600005","2024-11-01T09:30:00",17.399,35.091503,0.273],
    [37003,"urn:WaterMeter:MC0203J22010600005","2024-11-01T09:45:00",17.6,35.010082,0.294],
    [37004,"urn:WaterMeter:MC0203J22010600005","2024-11-01T10:00:00",17.7,34.914658,0.272],
    [37005,"urn:WaterMeter:MC0203J22010600005","2024-11-01T10:15:00",17.899,34.818848,0.264],
    [37006,"urn:WaterMeter:MC0203J22010600005","2024-11-01T10:30:00",18.1,34.75368,0.264],
    [37007,"urn:WaterMeter:MC0203J22010600005","2024-11-01T10:45:00",18.2,34.66136,0.273],
    [37008,"urn:WaterMeter:MC0203J22010600005","2024-11-01T11:00:00",18.399,34.4806,0.277],
    [37009,"urn:WaterMeter:MC0203J22010600005","2024-11-01T11:15:00",18.5,34.464657,0.27],
    [37010,"urn:WaterMeter:MC0203J22010600005","2024-11-01T11:30:00",18.7,34.228077,0.256],
    [37011,"urn:WaterMeter:MC0203J22010600005","2024-11-01T11:45:00",18.899,34.18463,0.265],
    [37012,"urn:WaterMeter:MC0203J22010600005","2024-11-01T12:00:00",19.1,34.141148,0.263],
    [37013,"urn:WaterMeter:MC0203J22010600005","2024-11-01T12:15:00",19.2,34.040333,0.262],
    [37014,"urn:WaterMeter:MC0203J22010600005","2024-11-01T12:30:00",19.2,34.02594,0.256],
    [37015,"urn:WaterMeter:MC0203J22010600005","2024-11-01T12:45:00",19.1,33.920044,0.286],
    [37016,"urn:WaterMeter:MC0203J22010600005","2024-11-01T13:00:00",19.1,33.845993,0.282],
    [37017,"urn:WaterMeter:MC0203J22010600005","2024-11-01T13:15:00",19.2,33.783154,0.257],
    [37018,"urn:WaterMeter:MC0203J22010600005","2024-11-01T13:30:00",19.299,33.744366,0.282],
    [37019,"urn:WaterMeter:MC0203J22010600005","2024-11-01T13:45:00",19.299,33.7304,0.269],
    [37020,"urn:WaterMeter:MC0203J22010600005","2024-11-01T14:00:00",19.399,33.62097,0.268],
    [37021,"urn:WaterMeter:MC0203J22010600005","2024-11-01T14:15:00",19.299,33.61209,0.281],
    [37022,"urn:WaterMeter:MC0203J22010600005","2024-11-01T14:30:00",19.299,33.568645,0.276],
    [37023,"urn:WaterMeter:MC0203J22010600005","2024-11-01T14:45:00",19.2,33.557785,0.263],
    [37024,"urn:WaterMeter:MC0203J22010600005","2024-11-01T15:00:00",19.2,33.5124,0.262],
    [37025,"urn:WaterMeter:MC0203J22010600005","2024-11-01T15:15:00",19.2,33.453438,0.266],
    [37026,"urn:WaterMeter:MC0203J22010600005","2024-11-01T15:30:00",19.2,33.37043,0.256],
    [37027,"urn:WaterMeter:MC0203J22010600005","2024-11-01T15:45:00",19.2,33.40301,0.261],
    [37028,"urn:WaterMeter:MC0203J22010600005","2024-11-01T16:00:00",19.2,33.326557,0.274],
    [37029,"urn:WaterMeter:MC0203J22010600005","2024-11-01T16:15:00",19.1,33.30018,0.273],
    [37030,"urn:WaterMeter:MC0203J22010600005","2024-11-01T16:30:00",19,33.323494,0.273],
    [37031,"urn:WaterMeter:MC0203J22010600005","2024-11-01T16:45:00",18.899,33.289707,0.265],
    [37032,"urn:WaterMeter:MC0203J22010600005","2024-11-01T17:00:00",18.799,33.281986,0.258],
    [37033,"urn:WaterMeter:MC0203J22010600005","2024-11-01T17:15:00",18.7,33.259876,0.252],
    [37034,"urn:WaterMeter:MC0203J22010600005","2024-11-01T17:30:00",18.7,33.20751,0.26],
    [37035,"urn:WaterMeter:MC0203J22010600005","2024-11-01T17:45:00",18.6,33.243973,0.271],
    [37036,"urn:WaterMeter:MC0203J22010600005","2024-11-01T18:00:00",18.6,33.22807,0.26],
    [37037,"urn:WaterMeter:MC0203J22010600005","2024-11-01T18:15:00",18.6,33.205185,0.259],
    [37038,"urn:WaterMeter:MC0203J22010600005","2024-11-01T18:30:00",18.5,33.219536,0.252],
    [37039,"urn:WaterMeter:MC0203J22010600005","2024-11-01T18:45:00",18.5,33.181522,0.263],
    [37040,"urn:WaterMeter:MC0203J22010600005","2024-11-01T19:00:00",18.5,33.162125,0.252],
    [37041,"urn:WaterMeter:MC0203J22010600005","2024-11-01T19:15:00",18.399,33.17648,0.255],
    [37042,"urn:WaterMeter:MC0203J22010600005","2024-11-01T19:30:00",18.399,33.16403,0.267],
    [37043,"urn:WaterMeter:MC0203J22010600005","2024-11-01T19:45:00",18.399,33.15088,0.269],
    [37044,"urn:WaterMeter:MC0203J22010600005","2024-11-01T20:00:00",18.299,33.175316,0.253],
    [37045,"urn:WaterMeter:MC0203J22010600005","2024-11-01T20:15:00",18.299,33.104717,0.248],
    [37046,"urn:WaterMeter:MC0203J22010600005","2024-11-01T20:30:00",18.2,33.129932,0.263],
    [37047,"urn:WaterMeter:MC0203J22010600005","2024-11-01T20:45:00",18.2,33.092304,0.255],
    [37048,"urn:WaterMeter:MC0203J22010600005","2024-11-01T21:00:00",18.1,33.160187,0.285],
    [37049,"urn:WaterMeter:MC0203J22010600005","2024-11-01T21:15:00",18.1,33.119846,0.25],
    [37050,"urn:WaterMeter:MC0203J22010600005","2024-11-01T21:30:00",18,33.08571,0.256],
    [37051,"urn:WaterMeter:MC0203J22010600005","2024-11-01T21:45:00",18,33.119457,0.251],
    [37052,"urn:WaterMeter:MC0203J22010600005","2024-11-01T22:00:00",17.899,33.123726,0.252],
    [37053,"urn:WaterMeter:MC0203J22010600005","2024-11-01T22:15:00",17.899,33.081833,0.251],
    [37054,"urn:WaterMeter:MC0203J22010600005","2024-11-01T22:30:00",17.899,33.05658,0.268],
    [37055,"urn:WaterMeter:MC0203J22010600005","2024-11-01T22:45:00",17.799,33.10433,0.26],
    [37056,"urn:WaterMeter:MC0203J22010600005","2024-11-01T23:00:00",17.7,33.04653,0.268],
    [37057,"urn:WaterMeter:MC0203J22010600005","2024-11-01T23:15:00",17.7,33.03024,0.255],
    [37058,"urn:WaterMeter:MC0203J22010600005","2024-11-01T23:30:00",17.6,33.03602,0.248],
    [37059,"urn:WaterMeter:MC0203J22010600005","2024-11-01T23:45:00",17.6,33.06515,0.253],
    [37060,"urn:WaterMeter:MC0203J22010600005","2024-11-02T00:00:00",17.5,33.073296,0.266],
    [37061,"urn:WaterMeter:MC0203J22010600005","2024-11-02T08:15:00",16.1,32.937145,0.25],
    [37062,"urn:WaterMeter:MC0203J22010600005","2024-11-02T08:30:00",16.2,32.946453,0.247],
    [37063,"urn:WaterMeter:MC0203J22010600005","2024-11-02T08:45:00",16.399,32.887493,0.254],
    [37064,"urn:WaterMeter:MC0203J22010600005","2024-11-02T09:00:00",16.5,32.840168,0.246],
    [37065,"urn:WaterMeter:MC0203J22010600005","2024-11-02T09:15:00",16.7,32.831635,0.245],
    [37066,"urn:WaterMeter:MC0203J22010600005","2024-11-02T09:30:00",16.799,32.800602,0.257],
    [37067,"urn:WaterMeter:MC0203J22010600005","2024-11-02T09:45:00",17,32.775,0.241],
    [37068,"urn:WaterMeter:MC0203J22010600005","2024-11-02T10:00:00",17.2,32.726864,0.246],
    [37069,"urn:WaterMeter:MC0203J22010600005","2024-11-02T10:15:00",17.299,32.754055,0.252],
    [37070,"urn:WaterMeter:MC0203J22010600005","2024-11-02T10:30:00",17.5,32.660145,0.253],
    [37071,"urn:WaterMeter:MC0203J22010600005","2024-11-02T10:45:00",17.6,32.65708,0.239],
    [37072,"urn:WaterMeter:MC0203J22010600005","2024-11-02T11:00:00",17.7,32.582954,0.256],
    [37073,"urn:WaterMeter:MC0203J22010600005","2024-11-02T11:15:00",17.799,32.58532,0.242],
    [37074,"urn:WaterMeter:MC0203J22010600005","2024-11-02T11:30:00",17.899,32.47826,0.247],
    [37075,"urn:WaterMeter:MC0203J22010600005","2024-11-02T11:45:00",18,32.512745,0.243],
    [37076,"urn:WaterMeter:MC0203J22010600005","2024-11-02T12:00:00",18.2,32.423176,0.235],
    [37077,"urn:WaterMeter:MC0203J22010600005","2024-11-02T12:15:00",18.399,32.431324,0.258],
    [37078,"urn:WaterMeter:MC0203J22010600005","2024-11-02T12:30:00",18.5,32.3378,0.267],
    [37079,"urn:WaterMeter:MC0203J22010600005","2024-11-02T12:45:00",18.6,32.33241,0.242],
    [37080,"urn:WaterMeter:MC0203J22010600005","2024-11-02T13:00:00",18.6,32.259094,0.26],
    [37081,"urn:WaterMeter:MC0203J22010600005","2024-11-02T13:15:00",18.7,32.24901,0.246],
    [37082,"urn:WaterMeter:MC0203J22010600005","2024-11-02T13:30:00",18.7,32.19354,0.234],
    [37083,"urn:WaterMeter:MC0203J22010600005","2024-11-02T13:45:00",18.799,32.183414,0.254],
    [37084,"urn:WaterMeter:MC0203J22010600005","2024-11-02T14:00:00",18.799,32.168713,0.246],
    [37085,"urn:WaterMeter:MC0203J22010600005","2024-11-02T14:15:00",18.799,32.078682,0.249],
    [37086,"urn:WaterMeter:MC0203J22010600005","2024-11-02T14:30:00",18.799,32.09928,0.239],
    [37087,"urn:WaterMeter:MC0203J22010600005","2024-11-02T14:45:00",18.799,32.031784,0.254],
    [37088,"urn:WaterMeter:MC0203J22010600005","2024-11-02T15:00:00",18.899,32.014717,0.246],
    [37089,"urn:WaterMeter:MC0203J22010600005","2024-11-02T15:15:00",18.899,32.00886,0.238],
    [37090,"urn:WaterMeter:MC0203J22010600005","2024-11-02T15:30:00",18.899,31.977093,0.246],
    [37091,"urn:WaterMeter:MC0203J22010600005","2024-11-02T15:45:00",18.799,31.927053,0.241],
    [37092,"urn:WaterMeter:MC0203J22010600005","2024-11-02T16:00:00",18.799,31.942919,0.238],
    [37093,"urn:WaterMeter:MC0203J22010600005","2024-11-02T16:15:00",18.7,31.92236,0.252],
    [37094,"urn:WaterMeter:MC0203J22010600005","2024-11-02T16:30:00",18.6,31.904942,0.233],
    [37095,"urn:WaterMeter:MC0203J22010600005","2024-11-02T16:45:00",18.5,31.882057,0.242],
    [37096,"urn:WaterMeter:MC0203J22010600005","2024-11-02T17:00:00",18.5,31.937138,0.223],
    [37097,"urn:WaterMeter:MC0203J22010600005","2024-11-02T17:15:00",18.399,31.897184,0.235],
    [37098,"urn:WaterMeter:MC0203J22010600005","2024-11-02T17:30:00",18.299,31.93322,0.233],
    [37099,"urn:WaterMeter:MC0203J22010600005","2024-11-02T17:45:00",18.2,31.906494,0.232],
    [37100,"urn:WaterMeter:MC0203J22010600005","2024-11-02T18:00:00",18.2,31.911497,0.24],
    [37101,"urn:WaterMeter:MC0203J22010600005","2024-11-02T18:15:00",18.1,31.88357,0.247],
    [37102,"urn:WaterMeter:MC0203J22010600005","2024-11-02T18:30:00",18,31.86848,0.234],
    [37103,"urn:WaterMeter:MC0203J22010600005","2024-11-02T18:45:00",18,31.89249,0.247],
    [37104,"urn:WaterMeter:MC0203J22010600005","2024-11-02T19:00:00",17.899,31.839775,0.247],
    [37105,"urn:WaterMeter:MC0203J22010600005","2024-11-02T19:15:00",17.799,31.852924,0.255],
    [37106,"urn:WaterMeter:MC0203J22010600005","2024-11-02T19:30:00",17.799,31.867704,0.253],
    [37107,"urn:WaterMeter:MC0203J22010600005","2024-11-02T19:45:00",17.7,31.877014,0.241],
    [37108,"urn:WaterMeter:MC0203J22010600005","2024-11-02T20:00:00",17.6,31.85409,0.241],
    [37109,"urn:WaterMeter:MC0203J22010600005","2024-11-02T20:15:00",17.5,31.891716,0.245],
    [37110,"urn:WaterMeter:MC0203J22010600005","2024-11-02T20:30:00",17.5,31.854864,0.272],
    [37111,"urn:WaterMeter:MC0203J22010600005","2024-11-02T20:45:00",17.399,31.859945,0.253],
    [37112,"urn:WaterMeter:MC0203J22010600005","2024-11-02T21:00:00",17.399,31.891327,0.245],
    [37113,"urn:WaterMeter:MC0203J22010600005","2024-11-02T21:15:00",17.299,31.85917,0.236],
    [37114,"urn:WaterMeter:MC0203J22010600005","2024-11-02T21:30:00",17.299,31.888264,0.259],
    [37115,"urn:WaterMeter:MC0203J22010600005","2024-11-02T21:45:00",17.399,31.899124,0.244],
    [37116,"urn:WaterMeter:MC0203J22010600005","2024-11-02T22:00:00",17.399,31.840939,0.234],
    [37117,"urn:WaterMeter:MC0203J22010600005","2024-11-02T22:15:00",17.399,31.863825,0.254],
    [37118,"urn:WaterMeter:MC0203J22010600005","2024-11-02T22:30:00",17.299,31.823095,0.236],
    [37119,"urn:WaterMeter:MC0203J22010600005","2024-11-02T22:45:00",17.299,31.848309,0.237],
    [37120,"urn:WaterMeter:MC0203J22010600005","2024-11-02T23:00:00",17.299,31.830465,0.237],
    [37121,"urn:WaterMeter:MC0203J22010600005","2024-11-02T23:15:00",17.299,31.833141,0.229],
    [37122,"urn:WaterMeter:MC0203J22010600005","2024-11-02T23:30:00",17.299,31.812622,0.232],
    [37123,"urn:WaterMeter:MC0203J22010600005","2024-11-02T23:45:00",17.299,31.829302,0.235],
    [37124,"urn:WaterMeter:MC0203J22010600005","2024-11-03T00:00:00",17.299,31.818441,0.239],
    [37125,"urn:WaterMeter:MC0203J22010600005","2024-11-03T00:15:00",17.2,31.823872,0.254],
    [37126,"urn:WaterMeter:MC0203J22010600005","2024-11-03T00:30:00",17.2,31.820381,0.251],
    [37127,"urn:WaterMeter:MC0203J22010600005","2024-11-03T00:45:00",17.2,31.868868,0.231],
    [37128,"urn:WaterMeter:MC0203J22010600005","2024-11-03T01:00:00",17.2,31.769566,0.248],
    [37129,"urn:WaterMeter:MC0203J22010600005","2024-11-03T01:15:00",17.2,31.828526,0.234],
    [37130,"urn:WaterMeter:MC0203J22010600005","2024-11-03T01:30:00",17.2,31.84478,0.239],
    [37131,"urn:WaterMeter:MC0203J22010600005","2024-11-03T01:45:00",17.2,31.805988,0.232],
    [37132,"urn:WaterMeter:MC0203J22010600005","2024-11-03T02:00:00",17.2,31.825771,0.239],
    [37133,"urn:WaterMeter:MC0203J22010600005","2024-11-03T02:15:00",17.1,31.829302,0.233],
    [37134,"urn:WaterMeter:MC0203J22010600005","2024-11-03T02:30:00",17.1,31.822319,0.239],
    [37135,"urn:WaterMeter:MC0203J22010600005","2024-11-03T02:45:00",17.1,31.782366,0.234],
    [37136,"urn:WaterMeter:MC0203J22010600005","2024-11-03T03:00:00",17.1,31.777672,0.234],
    [37137,"urn:WaterMeter:MC0203J22010600005","2024-11-03T03:15:00",17.1,31.811459,0.239],
    [37138,"urn:WaterMeter:MC0203J22010600005","2024-11-03T03:30:00",17,31.825035,0.241],
    [37139,"urn:WaterMeter:MC0203J22010600005","2024-11-03T03:45:00",17,31.810682,0.249],
    [37140,"urn:WaterMeter:MC0203J22010600005","2024-11-03T04:00:00",17,31.806765,0.239],
    [37141,"urn:WaterMeter:MC0203J22010600005","2024-11-03T04:15:00",17,31.762196,0.236],
    [37142,"urn:WaterMeter:MC0203J22010600005","2024-11-03T04:30:00",17,31.838999,0.241],
    [37143,"urn:WaterMeter:MC0203J22010600005","2024-11-03T04:45:00",17,31.802149,0.243],
    [37144,"urn:WaterMeter:MC0203J22010600005","2024-11-03T05:00:00",17,31.810682,0.24],
    [37145,"urn:WaterMeter:MC0203J22010600005","2024-11-03T05:15:00",17,31.731163,0.249],
    [37146,"urn:WaterMeter:MC0203J22010600005","2024-11-03T05:30:00",17,31.754436,0.246],
    [37147,"urn:WaterMeter:MC0203J22010600005","2024-11-03T05:45:00",17,31.759869,0.233],
    [37148,"urn:WaterMeter:MC0203J22010600005","2024-11-03T06:00:00",17,31.73194,0.235],
    [37149,"urn:WaterMeter:MC0203J22010600005","2024-11-03T06:15:00",17,31.732716,0.236],
    [37150,"urn:WaterMeter:MC0203J22010600005","2024-11-03T06:30:00",17,31.723406,0.236],
    [37151,"urn:WaterMeter:MC0203J22010600005","2024-11-03T06:45:00",17,31.757502,0.233],
    [37152,"urn:WaterMeter:MC0203J22010600005","2024-11-03T07:00:00",17,31.714096,0.23],
    [37153,"urn:WaterMeter:MC0203J22010600005","2024-11-03T07:15:00",17,31.75948,0.23],
    [37154,"urn:WaterMeter:MC0203J22010600005","2024-11-03T07:30:00",17,31.749355,0.242],
    [37155,"urn:WaterMeter:MC0203J22010600005","2024-11-03T07:45:00",17,31.723406,0.228],
    [37156,"urn:WaterMeter:MC0203J22010600005","2024-11-03T08:00:00",17,31.693924,0.242],
    [37157,"urn:WaterMeter:MC0203J22010600005","2024-11-03T08:15:00",17.1,31.72069,0.248],
    [37158,"urn:WaterMeter:MC0203J22010600005","2024-11-03T08:30:00",17.1,31.718712,0.257],
    [37159,"urn:WaterMeter:MC0203J22010600005","2024-11-03T08:45:00",17.1,31.686167,0.227],
    [37160,"urn:WaterMeter:MC0203J22010600005","2024-11-03T09:00:00",17.1,31.666773,0.259],
    [37161,"urn:WaterMeter:MC0203J22010600005","2024-11-03T09:15:00",17.2,31.658976,0.226],
    [37162,"urn:WaterMeter:MC0203J22010600005","2024-11-03T09:30:00",17.2,31.67837,0.228],
    [37163,"urn:WaterMeter:MC0203J22010600005","2024-11-03T09:45:00",17.299,31.639193,0.241],
    [37164,"urn:WaterMeter:MC0203J22010600005","2024-11-03T10:00:00",17.299,31.670225,0.226],
    [37165,"urn:WaterMeter:MC0203J22010600005","2024-11-03T10:15:00",17.299,31.64699,0.237],
    [37166,"urn:WaterMeter:MC0203J22010600005","2024-11-03T10:30:00",17.299,31.60079,0.236],
    [37167,"urn:WaterMeter:MC0203J22010600005","2024-11-03T10:45:00",17.299,31.624878,0.24],
    [37168,"urn:WaterMeter:MC0203J22010600005","2024-11-03T11:00:00",17.299,31.626043,0.23],
    [37169,"urn:WaterMeter:MC0203J22010600005","2024-11-03T11:15:00",17.299,31.638844,0.239],
    [37170,"urn:WaterMeter:MC0203J22010600005","2024-11-03T11:30:00",17.299,31.649317,0.239],
    [37171,"urn:WaterMeter:MC0203J22010600005","2024-11-03T11:45:00",17.399,31.603506,0.228],
    [37172,"urn:WaterMeter:MC0203J22010600005","2024-11-03T12:00:00",17.399,31.592295,0.239],
    [37173,"urn:WaterMeter:MC0203J22010600005","2024-11-03T12:15:00",17.399,31.63031,0.224],
    [37174,"urn:WaterMeter:MC0203J22010600005","2024-11-03T12:30:00",17.399,31.562,0.228],
    [37175,"urn:WaterMeter:MC0203J22010600005","2024-11-03T12:45:00",17.399,31.602343,0.23],
    [37176,"urn:WaterMeter:MC0203J22010600005","2024-11-03T13:00:00",17.399,31.603893,0.231],
    [37177,"urn:WaterMeter:MC0203J22010600005","2024-11-03T13:15:00",17.5,31.550402,0.232],
    [37178,"urn:WaterMeter:MC0203J22010600005","2024-11-03T13:30:00",17.6,31.576778,0.247],
    [37179,"urn:WaterMeter:MC0203J22010600005","2024-11-03T13:45:00",17.6,31.592295,0.228],
    [37180,"urn:WaterMeter:MC0203J22010600005","2024-11-03T14:00:00",17.7,31.577168,0.236],
    [37181,"urn:WaterMeter:MC0203J22010600005","2024-11-03T14:15:00",17.799,31.575615,0.225],
    [37182,"urn:WaterMeter:MC0203J22010600005","2024-11-03T14:30:00",17.899,31.542994,0.246],
    [37183,"urn:WaterMeter:MC0203J22010600005","2024-11-03T14:45:00",18,31.557384,0.229],
    [37184,"urn:WaterMeter:MC0203J22010600005","2024-11-03T15:00:00",18,31.554241,0.213],
    [37185,"urn:WaterMeter:MC0203J22010600005","2024-11-03T15:15:00",18,31.55463,0.236],
    [37186,"urn:WaterMeter:MC0203J22010600005","2024-11-03T15:30:00",18,31.506142,0.234],
    [37187,"urn:WaterMeter:MC0203J22010600005","2024-11-03T15:45:00",18,31.529455,0.247],
    [37188,"urn:WaterMeter:MC0203J22010600005","2024-11-03T16:00:00",18,31.512775,0.24],
    [37189,"urn:WaterMeter:MC0203J22010600005","2024-11-03T16:15:00",17.899,31.452263,0.223],
    [37190,"urn:WaterMeter:MC0203J22010600005","2024-11-03T16:30:00",17.899,31.499199,0.227],
    [37191,"urn:WaterMeter:MC0203J22010600005","2024-11-03T16:45:00",17.899,31.497648,0.241],
    [37192,"urn:WaterMeter:MC0203J22010600005","2024-11-03T17:00:00",17.799,31.488338,0.225],
    [37193,"urn:WaterMeter:MC0203J22010600005","2024-11-03T17:15:00",17.799,31.53601,0.248],
    [37194,"urn:WaterMeter:MC0203J22010600005","2024-11-03T17:30:00",17.7,31.517818,0.223],
    [37195,"urn:WaterMeter:MC0203J22010600005","2024-11-03T17:45:00",17.7,31.496445,0.224],
    [37196,"urn:WaterMeter:MC0203J22010600005","2024-11-03T18:00:00",17.6,31.461573,0.235],
    [37197,"urn:WaterMeter:MC0203J22010600005","2024-11-03T18:15:00",17.6,31.473598,0.228],
    [37198,"urn:WaterMeter:MC0203J22010600005","2024-11-03T18:30:00",17.6,31.517818,0.231],
    [37199,"urn:WaterMeter:MC0203J22010600005","2024-11-03T18:45:00",17.6,31.466578,0.238],
    [37200,"urn:WaterMeter:MC0203J22010600005","2024-11-03T19:00:00",17.5,31.45304,0.229],
    [37201,"urn:WaterMeter:MC0203J22010600005","2024-11-03T19:15:00",17.5,31.484808,0.236],
    [37202,"urn:WaterMeter:MC0203J22010600005","2024-11-03T19:30:00",17.399,31.51584,0.24],
    [37203,"urn:WaterMeter:MC0203J22010600005","2024-11-03T19:45:00",17.399,31.503428,0.249],
    [37204,"urn:WaterMeter:MC0203J22010600005","2024-11-03T20:00:00",17.299,31.499199,0.229],
    [37205,"urn:WaterMeter:MC0203J22010600005","2024-11-03T20:15:00",17.299,31.541092,0.241],
    [37206,"urn:WaterMeter:MC0203J22010600005","2024-11-03T20:30:00",17.2,31.501526,0.237],
    [37207,"urn:WaterMeter:MC0203J22010600005","2024-11-03T20:45:00",17.1,31.501526,0.224],
    [37208,"urn:WaterMeter:MC0203J22010600005","2024-11-03T21:00:00",17.1,31.519758,0.232],
    [37209,"urn:WaterMeter:MC0203J22010600005","2024-11-03T21:15:00",17.1,31.493382,0.229],
    [37210,"urn:WaterMeter:MC0203J22010600005","2024-11-03T21:30:00",17.1,31.553118,0.242],
    [37211,"urn:WaterMeter:MC0203J22010600005","2024-11-03T21:45:00",17.1,31.546135,0.244],
    [37212,"urn:WaterMeter:MC0203J22010600005","2024-11-03T22:00:00",17.1,31.491829,0.248],
    [37213,"urn:WaterMeter:MC0203J22010600005","2024-11-03T22:15:00",17,31.518206,0.255],
    [37214,"urn:WaterMeter:MC0203J22010600005","2024-11-03T22:30:00",17,31.515064,0.229],
    [37215,"urn:WaterMeter:MC0203J22010600005","2024-11-03T22:45:00",17,31.521309,0.239],
    [37216,"urn:WaterMeter:MC0203J22010600005","2024-11-03T23:00:00",17,31.524374,0.233],
    [37217,"urn:WaterMeter:MC0203J22010600005","2024-11-03T23:15:00",16.899,31.533335,0.235],
    [37218,"urn:WaterMeter:MC0203J22010600005","2024-11-03T23:30:00",16.899,31.472046,0.241],
    [37219,"urn:WaterMeter:MC0203J22010600005","2024-11-03T23:45:00",16.899,31.517818,0.225],
    [37220,"urn:WaterMeter:MC0203J22010600005","2024-11-04T00:00:00",16.899,31.485971,0.256],
    [37221,"urn:WaterMeter:MC0203J22010600005","2024-11-04T00:15:00",16.799,31.521309,0.236],
    [37222,"urn:WaterMeter:MC0203J22010600005","2024-11-04T00:30:00",16.799,31.553854,0.238],
    [37223,"urn:WaterMeter:MC0203J22010600005","2024-11-04T00:45:00",16.799,31.502302,0.235],
    [37224,"urn:WaterMeter:MC0203J22010600005","2024-11-04T01:00:00",16.7,31.515064,0.249],
    [37225,"urn:WaterMeter:MC0203J22010600005","2024-11-04T01:15:00",16.7,31.518595,0.23],
    [37226,"urn:WaterMeter:MC0203J22010600005","2024-11-04T01:30:00",16.7,31.516615,0.241],
    [37227,"urn:WaterMeter:MC0203J22010600005","2024-11-04T01:45:00",16.7,31.508896,0.23],
    [37228,"urn:WaterMeter:MC0203J22010600005","2024-11-04T02:00:00",16.7,31.527128,0.233],
    [37229,"urn:WaterMeter:MC0203J22010600005","2024-11-04T02:15:00",16.6,31.527905,0.242],
    [37230,"urn:WaterMeter:MC0203J22010600005","2024-11-04T02:30:00",16.6,31.549238,0.23],
    [37231,"urn:WaterMeter:MC0203J22010600005","2024-11-04T02:45:00",16.6,31.533722,0.239],
    [37232,"urn:WaterMeter:MC0203J22010600005","2024-11-04T03:00:00",16.6,31.536825,0.227],
    [37233,"urn:WaterMeter:MC0203J22010600005","2024-11-04T03:15:00",16.6,31.527905,0.225],
    [37234,"urn:WaterMeter:MC0203J22010600005","2024-11-04T03:30:00",16.6,31.498423,0.241],
    [37235,"urn:WaterMeter:MC0203J22010600005","2024-11-04T03:45:00",16.6,31.506142,0.233],
    [37236,"urn:WaterMeter:MC0203J22010600005","2024-11-04T04:00:00",16.6,31.522085,0.247],
    [37237,"urn:WaterMeter:MC0203J22010600005","2024-11-04T04:15:00",16.6,31.492605,0.241],
    [37238,"urn:WaterMeter:MC0203J22010600005","2024-11-04T04:30:00",16.7,31.522085,0.229],
    [37239,"urn:WaterMeter:MC0203J22010600005","2024-11-04T04:45:00",16.7,31.507732,0.229],
    [37240,"urn:WaterMeter:MC0203J22010600005","2024-11-04T05:00:00",16.7,31.52321,0.241],
    [37241,"urn:WaterMeter:MC0203J22010600005","2024-11-04T05:15:00",16.799,31.53446,0.23],
    [37242,"urn:WaterMeter:MC0203J22010600005","2024-11-04T05:30:00",17,31.541868,0.246],
    [37243,"urn:WaterMeter:MC0203J22010600005","2024-11-04T05:45:00",17.1,31.701296,0.232],
    [37244,"urn:WaterMeter:MC0203J22010600005","2024-11-04T06:00:00",17.1,32.35103,0.246],
    [37245,"urn:WaterMeter:MC0203J22010600005","2024-11-04T06:15:00",17.1,33.267635,0.257],
    [37246,"urn:WaterMeter:MC0203J22010600005","2024-11-04T06:30:00",17.2,33.92819,0.264],
    [37247,"urn:WaterMeter:MC0203J22010600005","2024-11-04T06:45:00",17.2,34.442196,0.265],
    [37248,"urn:WaterMeter:MC0203J22010600005","2024-11-04T07:00:00",17.2,34.742393,0.266],
    [37249,"urn:WaterMeter:MC0203J22010600005","2024-11-04T07:15:00",17.299,34.99763,0.278],
    [37250,"urn:WaterMeter:MC0203J22010600005","2024-11-04T07:30:00",17.299,35.12878,0.287],
    [37251,"urn:WaterMeter:MC0203J22010600005","2024-11-04T07:45:00",17.299,35.242435,0.271],
    [37252,"urn:WaterMeter:MC0203J22010600005","2024-11-04T08:00:00",17.399,35.34674,0.295],
    [37253,"urn:WaterMeter:MC0203J22010600005","2024-11-04T08:15:00",17.399,34.9934,0.289],
    [37254,"urn:WaterMeter:MC0203J22010600005","2024-11-04T08:30:00",17.399,34.710625,0.294],
    [37255,"urn:WaterMeter:MC0203J22010600005","2024-11-04T08:45:00",17.399,34.60395,0.271],
    [37256,"urn:WaterMeter:MC0203J22010600005","2024-11-04T09:00:00",17.399,34.539173,0.273],
    [37257,"urn:WaterMeter:MC0203J22010600005","2024-11-04T09:15:00",17.5,34.431725,0.262],
    [37258,"urn:WaterMeter:MC0203J22010600005","2024-11-04T09:30:00",17.6,34.32156,0.267],
    [37259,"urn:WaterMeter:MC0203J22010600005","2024-11-04T09:45:00",17.6,34.298634,0.276],
    [37260,"urn:WaterMeter:MC0203J22010600005","2024-11-04T10:00:00",17.7,34.132263,0.259],
    [37261,"urn:WaterMeter:MC0203J22010600005","2024-11-04T10:15:00",17.899,34.082962,0.254],
    [37262,"urn:WaterMeter:MC0203J22010600005","2024-11-04T10:30:00",18,34.03917,0.272],
    [37263,"urn:WaterMeter:MC0203J22010600005","2024-11-04T10:45:00",18.2,33.98909,0.257],
    [37264,"urn:WaterMeter:MC0203J22010600005","2024-11-04T11:00:00",18.299,33.91112,0.259],
    [37265,"urn:WaterMeter:MC0203J22010600005","2024-11-04T11:15:00",18.399,33.816124,0.266],
    [37266,"urn:WaterMeter:MC0203J22010600005","2024-11-04T11:30:00",18.5,33.8297,0.273],
    [37267,"urn:WaterMeter:MC0203J22010600005","2024-11-04T11:45:00",18.5,33.756737,0.253],
    [37268,"urn:WaterMeter:MC0203J22010600005","2024-11-04T12:00:00",18.6,33.7067,0.272],
    [37269,"urn:WaterMeter:MC0203J22010600005","2024-11-04T12:15:00",18.799,33.657436,0.261],
    [37270,"urn:WaterMeter:MC0203J22010600005","2024-11-04T12:30:00",19.1,33.552704,0.252],
    [37271,"urn:WaterMeter:MC0203J22010600005","2024-11-04T12:45:00",19.2,33.513912,0.258],
    [37272,"urn:WaterMeter:MC0203J22010600005","2024-11-04T13:00:00",19.299,33.419304,0.251],
    [37273,"urn:WaterMeter:MC0203J22010600005","2024-11-04T13:15:00",19.299,33.425083,0.248],
    [37274,"urn:WaterMeter:MC0203J22010600005","2024-11-04T13:30:00",19.299,33.366512,0.262],
    [37275,"urn:WaterMeter:MC0203J22010600005","2024-11-04T13:45:00",19.399,33.33936,0.268],
    [37276,"urn:WaterMeter:MC0203J22010600005","2024-11-04T14:00:00",19.5,33.323105,0.265],
    [37277,"urn:WaterMeter:MC0203J22010600005","2024-11-04T14:15:00",19.5,33.299404,0.272],
    [37278,"urn:WaterMeter:MC0203J22010600005","2024-11-04T14:30:00",19.5,33.26647,0.264],
    [37279,"urn:WaterMeter:MC0203J22010600005","2024-11-04T14:45:00",19.5,33.186565,0.248],
    [37280,"urn:WaterMeter:MC0203J22010600005","2024-11-04T15:00:00",19.5,33.151264,0.266],
    [37281,"urn:WaterMeter:MC0203J22010600005","2024-11-04T15:15:00",19.5,33.171047,0.244],
    [37282,"urn:WaterMeter:MC0203J22010600005","2024-11-04T15:30:00",19.399,33.14463,0.249],
    [37283,"urn:WaterMeter:MC0203J22010600005","2024-11-04T15:45:00",19.399,33.09075,0.283],
    [37284,"urn:WaterMeter:MC0203J22010600005","2024-11-04T16:00:00",19.299,33.104717,0.26],
    [37285,"urn:WaterMeter:MC0203J22010600005","2024-11-04T16:15:00",19.299,33.03063,0.282],
    [37286,"urn:WaterMeter:MC0203J22010600005","2024-11-04T16:30:00",19.2,33.02675,0.252],
    [37287,"urn:WaterMeter:MC0203J22010600005","2024-11-04T16:45:00",19.2,33.023647,0.255],
    [37288,"urn:WaterMeter:MC0203J22010600005","2024-11-04T17:00:00",19.1,33.055416,0.258],
    [37289,"urn:WaterMeter:MC0203J22010600005","2024-11-04T17:15:00",19,33.005413,0.267],
    [37290,"urn:WaterMeter:MC0203J22010600005","2024-11-04T17:30:00",18.899,33.034508,0.252],
    [37291,"urn:WaterMeter:MC0203J22010600005","2024-11-04T17:45:00",18.899,33.021706,0.264],
    [37292,"urn:WaterMeter:MC0203J22010600005","2024-11-04T18:00:00",18.899,33.027138,0.246],
    [37293,"urn:WaterMeter:MC0203J22010600005","2024-11-04T18:15:00",18.799,32.97477,0.273],
    [37294,"urn:WaterMeter:MC0203J22010600005","2024-11-04T18:30:00",18.799,32.99684,0.257],
    [37295,"urn:WaterMeter:MC0203J22010600005","2024-11-04T18:45:00",18.799,33.010456,0.264],
    [37296,"urn:WaterMeter:MC0203J22010600005","2024-11-04T19:00:00",18.799,33.010033,0.247],
    [37297,"urn:WaterMeter:MC0203J22010600005","2024-11-04T19:15:00",18.7,32.991837,0.252],
    [37298,"urn:WaterMeter:MC0203J22010600005","2024-11-04T19:30:00",18.7,32.961155,0.272],
    [37299,"urn:WaterMeter:MC0203J22010600005","2024-11-04T19:45:00",18.7,32.982918,0.265],
    [37300,"urn:WaterMeter:MC0203J22010600005","2024-11-04T20:00:00",18.7,32.973995,0.271],
    [37301,"urn:WaterMeter:MC0203J22010600005","2024-11-04T20:15:00",18.6,32.97477,0.244],
    [37302,"urn:WaterMeter:MC0203J22010600005","2024-11-04T20:30:00",18.6,32.950294,0.251],
    [37303,"urn:WaterMeter:MC0203J22010600005","2024-11-04T20:45:00",18.5,32.9162,0.249],
    [37304,"urn:WaterMeter:MC0203J22010600005","2024-11-04T21:00:00",18.5,32.918526,0.244],
    [37305,"urn:WaterMeter:MC0203J22010600005","2024-11-04T21:15:00",18.399,32.923954,0.245],
    [37306,"urn:WaterMeter:MC0203J22010600005","2024-11-04T21:30:00",18.399,32.925896,0.246],
    [37307,"urn:WaterMeter:MC0203J22010600005","2024-11-04T21:45:00",18.299,32.882412,0.25],
    [37308,"urn:WaterMeter:MC0203J22010600005","2024-11-04T22:00:00",18.2,32.888268,0.247],
    [37309,"urn:WaterMeter:MC0203J22010600005","2024-11-04T22:15:00",18.2,32.893272,0.252],
    [37310,"urn:WaterMeter:MC0203J22010600005","2024-11-04T22:30:00",18.1,32.911892,0.257],
    [37311,"urn:WaterMeter:MC0203J22010600005","2024-11-04T22:45:00",18,32.902584,0.257],
    [37312,"urn:WaterMeter:MC0203J22010600005","2024-11-04T23:00:00",18,32.90336,0.249],
    [37313,"urn:WaterMeter:MC0203J22010600005","2024-11-04T23:15:00",17.899,32.9309,0.266],
    [37314,"urn:WaterMeter:MC0203J22010600005","2024-11-04T23:30:00",17.899,32.921204,0.247],
    [37315,"urn:WaterMeter:MC0203J22010600005","2024-11-04T23:45:00",17.799,32.90844,0.254],
    [37316,"urn:WaterMeter:MC0203J22010600005","2024-11-05T00:00:00",17.799,32.918137,0.287],
    [37317,"urn:WaterMeter:MC0203J22010600005","2024-11-05T00:15:00",17.7,32.866547,0.255],
    [37318,"urn:WaterMeter:MC0203J22010600005","2024-11-05T00:30:00",17.7,32.903786,0.263],
    [37319,"urn:WaterMeter:MC0203J22010600005","2024-11-05T00:45:00",17.6,32.925896,0.255],
    [37320,"urn:WaterMeter:MC0203J22010600005","2024-11-05T01:00:00",17.6,32.86732,0.244],
    [37321,"urn:WaterMeter:MC0203J22010600005","2024-11-05T01:15:00",17.5,32.94917,0.271],
    [37322,"urn:WaterMeter:MC0203J22010600005","2024-11-05T01:30:00",17.399,32.944515,0.255],
    [37323,"urn:WaterMeter:MC0203J22010600005","2024-11-05T01:45:00",17.399,32.89719,0.258],
    [37324,"urn:WaterMeter:MC0203J22010600005","2024-11-05T02:00:00",17.399,32.903786,0.259],
    [37325,"urn:WaterMeter:MC0203J22010600005","2024-11-05T02:15:00",17.299,32.93982,0.257],
    [37326,"urn:WaterMeter:MC0203J22010600005","2024-11-05T02:30:00",17.299,32.900253,0.272],
    [37327,"urn:WaterMeter:MC0203J22010600005","2024-11-05T02:45:00",17.2,32.885555,0.258],
    [37328,"urn:WaterMeter:MC0203J22010600005","2024-11-05T03:00:00",17.1,32.90495,0.246],
    [37329,"urn:WaterMeter:MC0203J22010600005","2024-11-05T03:15:00",17.1,32.939434,0.247],
    [37330,"urn:WaterMeter:MC0203J22010600005","2024-11-05T03:30:00",17,32.90495,0.247],
    [37331,"urn:WaterMeter:MC0203J22010600005","2024-11-05T03:45:00",17,32.924732,0.266],
    [37332,"urn:WaterMeter:MC0203J22010600005","2024-11-05T04:00:00",17,32.949944,0.245],
    [37333,"urn:WaterMeter:MC0203J22010600005","2024-11-05T04:15:00",16.899,32.925507,0.269],
    [37334,"urn:WaterMeter:MC0203J22010600005","2024-11-05T04:30:00",16.899,32.885555,0.257],
    [37335,"urn:WaterMeter:MC0203J22010600005","2024-11-05T04:45:00",16.899,32.940983,0.247],
    [37336,"urn:WaterMeter:MC0203J22010600005","2024-11-05T05:00:00",16.799,32.875854,0.253],
    [37337,"urn:WaterMeter:MC0203J22010600005","2024-11-05T05:15:00",16.899,32.90456,0.261],
    [37338,"urn:WaterMeter:MC0203J22010600005","2024-11-05T05:30:00",17.1,33.18734,0.253],
    [37339,"urn:WaterMeter:MC0203J22010600005","2024-11-05T05:45:00",17.1,33.926678,0.272],
    [37340,"urn:WaterMeter:MC0203J22010600005","2024-11-05T06:00:00",17.2,34.684982,0.288],
    [37341,"urn:WaterMeter:MC0203J22010600005","2024-11-05T06:15:00",17.1,35.25097,0.27],
    [37342,"urn:WaterMeter:MC0203J22010600005","2024-11-05T06:30:00",17.1,35.543446,0.288],
    [37343,"urn:WaterMeter:MC0203J22010600005","2024-11-05T06:45:00",17.1,35.864624,0.283],
    [37344,"urn:WaterMeter:MC0203J22010600005","2024-11-05T07:00:00",17.1,36.02793,0.281],
    [37345,"urn:WaterMeter:MC0203J22010600005","2024-11-05T07:15:00",17.1,36.2168,0.273],
    [37346,"urn:WaterMeter:MC0203J22010600005","2024-11-05T07:30:00",17.1,36.28899,0.287],
    [37347,"urn:WaterMeter:MC0203J22010600005","2024-11-05T07:45:00",17.1,36.393295,0.3],
    [37348,"urn:WaterMeter:MC0203J22010600005","2024-11-05T08:00:00",17.2,36.442947,0.29],
    [37349,"urn:WaterMeter:MC0203J22010600005","2024-11-05T08:15:00",17.2,36.21874,0.295],
    [37350,"urn:WaterMeter:MC0203J22010600005","2024-11-05T08:30:00",17.2,35.971687,0.287],
    [37351,"urn:WaterMeter:MC0203J22010600005","2024-11-05T08:45:00",17.299,35.80062,0.29],
    [37352,"urn:WaterMeter:MC0203J22010600005","2024-11-05T09:00:00",17.399,35.687744,0.29],
    [37353,"urn:WaterMeter:MC0203J22010600005","2024-11-05T09:15:00",17.5,35.22149,0.285],
    [37354,"urn:WaterMeter:MC0203J22010600005","2024-11-05T09:30:00",17.6,35.099686,0.269],
    [37355,"urn:WaterMeter:MC0203J22010600005","2024-11-05T09:45:00",17.799,35.06982,0.282],
    [37356,"urn:WaterMeter:MC0203J22010600005","2024-11-05T10:00:00",17.899,34.95923,0.273],
    [37357,"urn:WaterMeter:MC0203J22010600005","2024-11-05T10:15:00",18,34.896816,0.273],
    [37358,"urn:WaterMeter:MC0203J22010600005","2024-11-05T10:30:00",18.2,34.82191,0.266],
    [37359,"urn:WaterMeter:MC0203J22010600005","2024-11-05T10:45:00",18.399,34.70946,0.266],
    [37360,"urn:WaterMeter:MC0203J22010600005","2024-11-05T11:00:00",18.5,34.640026,0.273],
    [37361,"urn:WaterMeter:MC0203J22010600005","2024-11-05T11:15:00",18.6,34.52598,0.269],
    [37362,"urn:WaterMeter:MC0203J22010600005","2024-11-05T11:30:00",18.7,34.48603,0.289],
    [37363,"urn:WaterMeter:MC0203J22010600005","2024-11-05T11:45:00",18.799,34.368885,0.273],
    [37364,"urn:WaterMeter:MC0203J22010600005","2024-11-05T12:00:00",19,34.317253,0.288],
    [37365,"urn:WaterMeter:MC0203J22010600005","2024-11-05T12:15:00",19.1,34.30294,0.273],
    [37366,"urn:WaterMeter:MC0203J22010600005","2024-11-05T12:30:00",19.2,34.235447,0.289],
    [37367,"urn:WaterMeter:MC0203J22010600005","2024-11-05T12:45:00",19.299,34.121403,0.299],
    [37368,"urn:WaterMeter:MC0203J22010600005","2024-11-05T13:00:00",19.299,34.002705,0.288],
    [37369,"urn:WaterMeter:MC0203J22010600005","2024-11-05T13:15:00",19.399,33.922024,0.281],
    [37370,"urn:WaterMeter:MC0203J22010600005","2024-11-05T13:30:00",19.5,33.9003,0.284],
    [37371,"urn:WaterMeter:MC0203J22010600005","2024-11-05T13:45:00",19.6,33.89836,0.26],
    [37372,"urn:WaterMeter:MC0203J22010600005","2024-11-05T14:00:00",19.6,33.814537,0.283],
    [37373,"urn:WaterMeter:MC0203J22010600005","2024-11-05T14:15:00",19.6,33.7304,0.259],
    [37374,"urn:WaterMeter:MC0203J22010600005","2024-11-05T14:30:00",19.7,33.69316,0.263],
    [37375,"urn:WaterMeter:MC0203J22010600005","2024-11-05T14:45:00",19.7,33.648903,0.263],
    [37376,"urn:WaterMeter:MC0203J22010600005","2024-11-05T15:00:00",19.7,33.583775,0.268],
    [37377,"urn:WaterMeter:MC0203J22010600005","2024-11-05T15:15:00",19.7,33.591106,0.257],
    [37378,"urn:WaterMeter:MC0203J22010600005","2024-11-05T15:30:00",19.7,33.557785,0.257],
    [37379,"urn:WaterMeter:MC0203J22010600005","2024-11-05T15:45:00",19.7,33.513138,0.274],
    [37380,"urn:WaterMeter:MC0203J22010600005","2024-11-05T16:00:00",19.6,33.50344,0.267],
    [37381,"urn:WaterMeter:MC0203J22010600005","2024-11-05T16:15:00",19.6,33.453438,0.285],
    [37382,"urn:WaterMeter:MC0203J22010600005","2024-11-05T16:30:00",19.6,33.476715,0.26],
    [37383,"urn:WaterMeter:MC0203J22010600005","2024-11-05T16:45:00",19.5,33.439476,0.26],
    [37384,"urn:WaterMeter:MC0203J22010600005","2024-11-05T17:00:00",19.5,33.375084,0.261],
    [37385,"urn:WaterMeter:MC0203J22010600005","2024-11-05T17:15:00",19.399,33.406853,0.265],
    [37386,"urn:WaterMeter:MC0203J22010600005","2024-11-05T17:30:00",19.299,33.35569,0.262],
    [37387,"urn:WaterMeter:MC0203J22010600005","2024-11-05T17:45:00",19.299,33.35759,0.282],
    [37388,"urn:WaterMeter:MC0203J22010600005","2024-11-05T18:00:00",19.2,33.345604,0.262],
    [37389,"urn:WaterMeter:MC0203J22010600005","2024-11-05T18:15:00",19.2,33.330475,0.259],
    [37390,"urn:WaterMeter:MC0203J22010600005","2024-11-05T18:30:00",19,33.295177,0.263],
    [37391,"urn:WaterMeter:MC0203J22010600005","2024-11-05T18:45:00",18.899,33.27423,0.253],
    [37392,"urn:WaterMeter:MC0203J22010600005","2024-11-05T19:00:00",18.899,33.285866,0.258],
    [37393,"urn:WaterMeter:MC0203J22010600005","2024-11-05T19:15:00",18.799,33.304485,0.254],
    [37394,"urn:WaterMeter:MC0203J22010600005","2024-11-05T19:30:00",18.7,33.26139,0.271],
    [37395,"urn:WaterMeter:MC0203J22010600005","2024-11-05T19:45:00",18.6,33.237377,0.26],
    [37396,"urn:WaterMeter:MC0203J22010600005","2024-11-05T20:00:00",18.5,33.27384,0.257],
    [37397,"urn:WaterMeter:MC0203J22010600005","2024-11-05T20:15:00",18.399,33.204796,0.255],
    [37398,"urn:WaterMeter:MC0203J22010600005","2024-11-05T20:30:00",18.299,33.20635,0.258],
    [37399,"urn:WaterMeter:MC0203J22010600005","2024-11-05T20:45:00",18.2,33.229584,0.259],
    [37400,"urn:WaterMeter:MC0203J22010600005","2024-11-05T21:00:00",18.2,33.267246,0.288],
    [37401,"urn:WaterMeter:MC0203J22010600005","2024-11-05T21:15:00",18.1,33.270313,0.264],
    [37402,"urn:WaterMeter:MC0203J22010600005","2024-11-05T21:30:00",18,33.245525,0.281],
    [37403,"urn:WaterMeter:MC0203J22010600005","2024-11-05T21:45:00",17.899,33.21643,0.27],
    [37404,"urn:WaterMeter:MC0203J22010600005","2024-11-05T22:00:00",17.799,33.190056,0.253],
    [37405,"urn:WaterMeter:MC0203J22010600005","2024-11-05T22:15:00",17.799,33.224968,0.259],
    [37406,"urn:WaterMeter:MC0203J22010600005","2024-11-05T22:30:00",17.7,33.22031,0.269],
    [37407,"urn:WaterMeter:MC0203J22010600005","2024-11-05T22:45:00",17.6,33.2238,0.251],
    [37408,"urn:WaterMeter:MC0203J22010600005","2024-11-05T23:00:00",17.5,33.15049,0.259],
    [37409,"urn:WaterMeter:MC0203J22010600005","2024-11-05T23:15:00",17.5,33.196648,0.256],
    [37410,"urn:WaterMeter:MC0203J22010600005","2024-11-05T23:30:00",17.399,33.183033,0.265],
    [37411,"urn:WaterMeter:MC0203J22010600005","2024-11-05T23:45:00",17.299,33.13455,0.258],
    [37412,"urn:WaterMeter:MC0203J22010600005","2024-11-06T00:00:00",17.299,33.15786,0.25],
    [37413,"urn:WaterMeter:MC0203J22010600005","2024-11-06T00:15:00",17.2,33.16872,0.253],
    [37414,"urn:WaterMeter:MC0203J22010600005","2024-11-06T00:30:00",17.1,33.15786,0.263],
    [37415,"urn:WaterMeter:MC0203J22010600005","2024-11-06T00:45:00",17.1,33.183033,0.266],
    [37416,"urn:WaterMeter:MC0203J22010600005","2024-11-06T01:00:00",17,33.144245,0.262],
    [37417,"urn:WaterMeter:MC0203J22010600005","2024-11-06T01:15:00",17,33.14234,0.258],
    [37418,"urn:WaterMeter:MC0203J22010600005","2024-11-06T01:30:00",16.899,33.162125,0.262],
    [37419,"urn:WaterMeter:MC0203J22010600005","2024-11-06T01:45:00",16.899,33.106617,0.272],
    [37420,"urn:WaterMeter:MC0203J22010600005","2024-11-06T02:00:00",16.799,33.163292,0.263],
    [37421,"urn:WaterMeter:MC0203J22010600005","2024-11-06T02:15:00",16.799,33.140793,0.255],
    [37422,"urn:WaterMeter:MC0203J22010600005","2024-11-06T02:30:00",16.7,33.103943,0.265],
    [37423,"urn:WaterMeter:MC0203J22010600005","2024-11-06T02:45:00",16.6,33.13377,0.259],
    [37424,"urn:WaterMeter:MC0203J22010600005","2024-11-06T03:00:00",16.6,33.149715,0.26],
    [37425,"urn:WaterMeter:MC0203J22010600005","2024-11-06T03:15:00",16.5,33.08571,0.27],
    [37426,"urn:WaterMeter:MC0203J22010600005","2024-11-06T03:30:00",16.5,33.135323,0.253],
    [37427,"urn:WaterMeter:MC0203J22010600005","2024-11-06T03:45:00",16.5,33.09731,0.255],
    [37428,"urn:WaterMeter:MC0203J22010600005","2024-11-06T04:00:00",16.399,33.107433,0.253],
    [37429,"urn:WaterMeter:MC0203J22010600005","2024-11-06T04:15:00",16.399,33.113213,0.254],
    [37430,"urn:WaterMeter:MC0203J22010600005","2024-11-06T04:30:00",16.299,33.04653,0.255],
    [37431,"urn:WaterMeter:MC0203J22010600005","2024-11-06T04:45:00",16.2,33.075584,0.255],
    [37432,"urn:WaterMeter:MC0203J22010600005","2024-11-06T05:00:00",16.2,33.058132,0.253],
    [37433,"urn:WaterMeter:MC0203J22010600005","2024-11-06T05:15:00",16.299,33.090366,0.256],
    [37434,"urn:WaterMeter:MC0203J22010600005","2024-11-06T05:30:00",16.5,33.271477,0.251],
    [37435,"urn:WaterMeter:MC0203J22010600005","2024-11-06T05:45:00",16.5,33.901424,0.277],
    [37436,"urn:WaterMeter:MC0203J22010600005","2024-11-06T06:00:00",16.5,34.686535,0.294],
    [37437,"urn:WaterMeter:MC0203J22010600005","2024-11-06T06:15:00",16.5,35.12839,0.29],
    [37438,"urn:WaterMeter:MC0203J22010600005","2024-11-06T06:30:00",16.5,35.494568,0.273],
    [37439,"urn:WaterMeter:MC0203J22010600005","2024-11-06T06:45:00",16.6,35.676456,0.281],
    [37440,"urn:WaterMeter:MC0203J22010600005","2024-11-06T07:00:00",16.6,35.844067,0.295],
    [37441,"urn:WaterMeter:MC0203J22010600005","2024-11-06T07:15:00",16.7,35.873936,0.292],
    [37442,"urn:WaterMeter:MC0203J22010600005","2024-11-06T07:30:00",16.7,35.988754,0.291],
    [37443,"urn:WaterMeter:MC0203J22010600005","2024-11-06T07:45:00",16.799,35.986774,0.288],
    [37444,"urn:WaterMeter:MC0203J22010600005","2024-11-06T08:00:00",16.799,36.07603,0.293],
    [37445,"urn:WaterMeter:MC0203J22010600005","2024-11-06T08:15:00",16.799,35.90803,0.298],
    [37446,"urn:WaterMeter:MC0203J22010600005","2024-11-06T08:30:00",16.799,35.60512,0.31],
    [37447,"urn:WaterMeter:MC0203J22010600005","2024-11-06T08:45:00",16.799,35.440613,0.299],
    [37448,"urn:WaterMeter:MC0203J22010600005","2024-11-06T09:00:00",16.799,35.397984,0.292],
    [37449,"urn:WaterMeter:MC0203J22010600005","2024-11-06T09:15:00",16.899,35.065903,0.282],
    [37450,"urn:WaterMeter:MC0203J22010600005","2024-11-06T09:30:00",16.899,35.02521,0.282],
    [37451,"urn:WaterMeter:MC0203J22010600005","2024-11-06T09:45:00",17.1,34.88634,0.274],
    [37452,"urn:WaterMeter:MC0203J22010600005","2024-11-06T10:00:00",17.2,34.858414,0.275],
    [37453,"urn:WaterMeter:MC0203J22010600005","2024-11-06T10:15:00",17.299,34.804497,0.28],
    [37454,"urn:WaterMeter:MC0203J22010600005","2024-11-06T10:30:00",17.399,34.81497,0.284],
    [37455,"urn:WaterMeter:MC0203J22010600005","2024-11-06T10:45:00",17.5,34.74631,0.268],
    [37456,"urn:WaterMeter:MC0203J22010600005","2024-11-06T11:00:00",17.6,34.67377,0.298],
    [37457,"urn:WaterMeter:MC0203J22010600005","2024-11-06T11:15:00",17.7,34.52094,0.277],
    [37458,"urn:WaterMeter:MC0203J22010600005","2024-11-06T11:30:00",17.799,34.458878,0.27],
    [37459,"urn:WaterMeter:MC0203J22010600005","2024-11-06T11:45:00",18,34.401466,0.27],
    [37460,"urn:WaterMeter:MC0203J22010600005","2024-11-06T12:00:00",18.2,34.368107,0.277],
    [37461,"urn:WaterMeter:MC0203J22010600005","2024-11-06T12:15:00",18.299,34.280403,0.265],
    [37462,"urn:WaterMeter:MC0203J22010600005","2024-11-06T12:30:00",18.399,34.227688,0.3],
    [37463,"urn:WaterMeter:MC0203J22010600005","2024-11-06T12:45:00",18.399,34.20325,0.281],
    [37464,"urn:WaterMeter:MC0203J22010600005","2024-11-06T13:00:00",18.5,34.154762,0.269],
    [37465,"urn:WaterMeter:MC0203J22010600005","2024-11-06T13:15:00",18.5,34.097355,0.257],
    [37466,"urn:WaterMeter:MC0203J22010600005","2024-11-06T13:30:00",18.5,33.989906,0.272],
    [37467,"urn:WaterMeter:MC0203J22010600005","2024-11-06T13:45:00",18.5,33.982536,0.272],
    [37468,"urn:WaterMeter:MC0203J22010600005","2024-11-06T14:00:00",18.5,33.95771,0.271],
    [37469,"urn:WaterMeter:MC0203J22010600005","2024-11-06T14:15:00",18.5,33.882805,0.285],
    [37470,"urn:WaterMeter:MC0203J22010600005","2024-11-06T14:30:00",18.5,33.89293,0.28],
    [37471,"urn:WaterMeter:MC0203J22010600005","2024-11-06T14:45:00",18.6,33.82462,0.265],
    [37472,"urn:WaterMeter:MC0203J22010600005","2024-11-06T15:00:00",18.6,33.80406,0.291],
    [37473,"urn:WaterMeter:MC0203J22010600005","2024-11-06T15:15:00",18.6,33.776947,0.275],
    [37474,"urn:WaterMeter:MC0203J22010600005","2024-11-06T15:30:00",18.6,33.71178,0.258],
    [37475,"urn:WaterMeter:MC0203J22010600005","2024-11-06T15:45:00",18.6,33.676056,0.264],
    [37476,"urn:WaterMeter:MC0203J22010600005","2024-11-06T16:00:00",18.6,33.67144,0.26],
    [37477,"urn:WaterMeter:MC0203J22010600005","2024-11-06T16:15:00",18.6,33.656273,0.282],
    [37478,"urn:WaterMeter:MC0203J22010600005","2024-11-06T16:30:00",18.5,33.66213,0.26],
    [37479,"urn:WaterMeter:MC0203J22010600005","2024-11-06T16:45:00",18.5,33.619423,0.257],
    [37480,"urn:WaterMeter:MC0203J22010600005","2024-11-06T17:00:00",18.399,33.584938,0.279],
    [37481,"urn:WaterMeter:MC0203J22010600005","2024-11-06T17:15:00",18.399,33.589203,0.265],
    [37482,"urn:WaterMeter:MC0203J22010600005","2024-11-06T17:30:00",18.299,33.625668,0.267],
    [37483,"urn:WaterMeter:MC0203J22010600005","2024-11-06T17:45:00",18.299,33.607822,0.258],
    [37484,"urn:WaterMeter:MC0203J22010600005","2024-11-06T18:00:00",18.2,33.526363,0.255],
    [37485,"urn:WaterMeter:MC0203J22010600005","2024-11-06T18:15:00",18.1,33.5477,0.279],
    [37486,"urn:WaterMeter:MC0203J22010600005","2024-11-06T18:30:00",18.1,33.485207,0.275],
    [37487,"urn:WaterMeter:MC0203J22010600005","2024-11-06T18:45:00",18,33.48796,0.275],
    [37488,"urn:WaterMeter:MC0203J22010600005","2024-11-06T19:00:00",18,33.523224,0.261],
    [37489,"urn:WaterMeter:MC0203J22010600005","2024-11-06T19:15:00",17.899,33.524426,0.26],
    [37490,"urn:WaterMeter:MC0203J22010600005","2024-11-06T19:30:00",17.899,33.515114,0.266],
    [37491,"urn:WaterMeter:MC0203J22010600005","2024-11-06T19:45:00",17.799,33.486797,0.262],
    [37492,"urn:WaterMeter:MC0203J22010600005","2024-11-06T20:00:00",17.7,33.500763,0.257],
    [37493,"urn:WaterMeter:MC0203J22010600005","2024-11-06T20:15:00",17.6,33.434044,0.267],
    [37494,"urn:WaterMeter:MC0203J22010600005","2024-11-06T20:30:00",17.6,33.461197,0.259],
    [37495,"urn:WaterMeter:MC0203J22010600005","2024-11-06T20:45:00",17.5,33.44064,0.275],
    [37496,"urn:WaterMeter:MC0203J22010600005","2024-11-06T21:00:00",17.5,33.408054,0.256],
    [37497,"urn:WaterMeter:MC0203J22010600005","2024-11-06T21:15:00",17.399,33.44762,0.26],
    [37498,"urn:WaterMeter:MC0203J22010600005","2024-11-06T21:30:00",17.399,33.38905,0.287],
    [37499,"urn:WaterMeter:MC0203J22010600005","2024-11-06T21:45:00",17.399,33.465424,0.277],
    [37500,"urn:WaterMeter:MC0203J22010600005","2024-11-06T22:00:00",17.399,33.444866,0.253],
    [37501,"urn:WaterMeter:MC0203J22010600005","2024-11-06T22:15:00",17.399,33.36535,0.263],
    [37502,"urn:WaterMeter:MC0203J22010600005","2024-11-06T22:30:00",17.399,33.419304,0.281],
    [37503,"urn:WaterMeter:MC0203J22010600005","2024-11-06T22:45:00",17.399,33.428226,0.274],
    [37504,"urn:WaterMeter:MC0203J22010600005","2024-11-06T23:00:00",17.399,33.36535,0.257],
    [37505,"urn:WaterMeter:MC0203J22010600005","2024-11-06T23:15:00",17.399,33.445255,0.272],
    [37506,"urn:WaterMeter:MC0203J22010600005","2024-11-06T23:30:00",17.399,33.413097,0.252],
    [37507,"urn:WaterMeter:MC0203J22010600005","2024-11-06T23:45:00",17.5,33.41465,0.26],
    [37508,"urn:WaterMeter:MC0203J22010600005","2024-11-07T00:00:00",17.5,33.4053,0.266],
    [37509,"urn:WaterMeter:MC0203J22010600005","2024-11-07T00:15:00",17.5,33.33319,0.265],
    [37510,"urn:WaterMeter:MC0203J22010600005","2024-11-07T00:30:00",17.399,33.35375,0.273],
    [37511,"urn:WaterMeter:MC0203J22010600005","2024-11-07T00:45:00",17.399,33.3425,0.267],
    [37512,"urn:WaterMeter:MC0203J22010600005","2024-11-07T01:00:00",17.399,33.372757,0.262],
    [37513,"urn:WaterMeter:MC0203J22010600005","2024-11-07T01:15:00",17.399,33.37935,0.25],
    [37514,"urn:WaterMeter:MC0203J22010600005","2024-11-07T01:30:00",17.299,33.342113,0.271],
    [37515,"urn:WaterMeter:MC0203J22010600005","2024-11-07T01:45:00",17.299,33.325043,0.254],
    [37516,"urn:WaterMeter:MC0203J22010600005","2024-11-07T02:00:00",17.299,33.31457,0.265],
    [37517,"urn:WaterMeter:MC0203J22010600005","2024-11-07T02:15:00",17.2,33.294014,0.25],
    [37518,"urn:WaterMeter:MC0203J22010600005","2024-11-07T02:30:00",17.2,33.33936,0.27],
    [37519,"urn:WaterMeter:MC0203J22010600005","2024-11-07T02:45:00",17.1,33.271477,0.25],
    [37520,"urn:WaterMeter:MC0203J22010600005","2024-11-07T03:00:00",17.1,33.316124,0.267],
    [37521,"urn:WaterMeter:MC0203J22010600005","2024-11-07T03:15:00",17.1,33.236214,0.268],
    [37522,"urn:WaterMeter:MC0203J22010600005","2024-11-07T03:30:00",17,33.22458,0.255],
    [37523,"urn:WaterMeter:MC0203J22010600005","2024-11-07T03:45:00",16.899,33.278885,0.261],
    [37524,"urn:WaterMeter:MC0203J22010600005","2024-11-07T04:00:00",16.899,33.221825,0.254],
    [37525,"urn:WaterMeter:MC0203J22010600005","2024-11-07T04:15:00",16.799,33.24824,0.269],
    [37526,"urn:WaterMeter:MC0203J22010600005","2024-11-07T04:30:00",16.7,33.265697,0.247],
    [37527,"urn:WaterMeter:MC0203J22010600005","2024-11-07T04:45:00",16.7,33.219536,0.264],
    [37528,"urn:WaterMeter:MC0203J22010600005","2024-11-07T05:00:00",16.6,33.24087,0.264],
    [37529,"urn:WaterMeter:MC0203J22010600005","2024-11-07T05:15:00",16.7,33.32811,0.256],
    [37530,"urn:WaterMeter:MC0203J22010600005","2024-11-07T05:30:00",16.799,33.511623,0.263],
    [37531,"urn:WaterMeter:MC0203J22010600005","2024-11-07T05:45:00",16.899,34.138084,0.305],
    [37532,"urn:WaterMeter:MC0203J22010600005","2024-11-07T06:00:00",16.799,34.863457,0.308],
    [37533,"urn:WaterMeter:MC0203J22010600005","2024-11-07T06:15:00",16.799,35.35764,0.277],
    [37534,"urn:WaterMeter:MC0203J22010600005","2024-11-07T06:30:00",16.799,35.659813,0.322],
    [37535,"urn:WaterMeter:MC0203J22010600005","2024-11-07T06:45:00",16.799,35.835922,0.297],
    [37536,"urn:WaterMeter:MC0203J22010600005","2024-11-07T07:00:00",16.7,35.974014,0.292],
    [37537,"urn:WaterMeter:MC0203J22010600005","2024-11-07T07:15:00",16.799,36.06711,0.29],
    [37538,"urn:WaterMeter:MC0203J22010600005","2024-11-07T07:30:00",16.799,36.139606,0.308],
    [37539,"urn:WaterMeter:MC0203J22010600005","2024-11-07T07:45:00",16.799,36.158615,0.303],
    [37540,"urn:WaterMeter:MC0203J22010600005","2024-11-07T08:00:00",16.899,36.224983,0.28],
    [37541,"urn:WaterMeter:MC0203J22010600005","2024-11-07T08:15:00",16.899,36.08767,0.301],
    [37542,"urn:WaterMeter:MC0203J22010600005","2024-11-07T08:30:00",16.899,35.825447,0.307],
    [37543,"urn:WaterMeter:MC0203J22010600005","2024-11-07T08:45:00",17,35.713696,0.293],
    [37544,"urn:WaterMeter:MC0203J22010600005","2024-11-07T09:00:00",17.1,35.505817,0.287],
    [37545,"urn:WaterMeter:MC0203J22010600005","2024-11-07T09:15:00",17.2,35.28623,0.281],
    [37546,"urn:WaterMeter:MC0203J22010600005","2024-11-07T09:30:00",17.299,35.186188,0.294],
    [37547,"urn:WaterMeter:MC0203J22010600005","2024-11-07T09:45:00",17.5,35.048096,0.277],
    [37548,"urn:WaterMeter:MC0203J22010600005","2024-11-07T10:00:00",17.6,35.01625,0.296],
    [37549,"urn:WaterMeter:MC0203J22010600005","2024-11-07T10:15:00",17.799,34.899105,0.29],
    [37550,"urn:WaterMeter:MC0203J22010600005","2024-11-07T10:30:00",17.899,34.83514,0.268],
    [37551,"urn:WaterMeter:MC0203J22010600005","2024-11-07T10:45:00",18.1,34.728466,0.271],
    [37552,"urn:WaterMeter:MC0203J22010600005","2024-11-07T11:00:00",18.1,34.617527,0.274],
    [37553,"urn:WaterMeter:MC0203J22010600005","2024-11-07T11:15:00",18.2,34.515896,0.287],
    [37554,"urn:WaterMeter:MC0203J22010600005","2024-11-07T11:30:00",18.299,34.51939,0.273],
    [37555,"urn:WaterMeter:MC0203J22010600005","2024-11-07T11:45:00",18.5,34.40647,0.275],
    [37556,"urn:WaterMeter:MC0203J22010600005","2024-11-07T12:00:00",18.7,34.317642,0.288],
    [37557,"urn:WaterMeter:MC0203J22010600005","2024-11-07T12:15:00",18.899,34.21252,0.261],
    [37558,"urn:WaterMeter:MC0203J22010600005","2024-11-07T12:30:00",19,34.165237,0.267],
    [37559,"urn:WaterMeter:MC0203J22010600005","2024-11-07T12:45:00",19,34.106274,0.261],
    [37560,"urn:WaterMeter:MC0203J22010600005","2024-11-07T13:00:00",19.1,34.121403,0.267],
    [37561,"urn:WaterMeter:MC0203J22010600005","2024-11-07T13:15:00",19.1,34.043823,0.263],
    [37562,"urn:WaterMeter:MC0203J22010600005","2024-11-07T13:30:00",19.2,34.03529,0.265],
    [37563,"urn:WaterMeter:MC0203J22010600005","2024-11-07T13:45:00",19.2,33.93521,0.277],
    [37564,"urn:WaterMeter:MC0203J22010600005","2024-11-07T14:00:00",19.2,33.89487,0.288],
    [37565,"urn:WaterMeter:MC0203J22010600005","2024-11-07T14:15:00",19.2,33.84324,0.261],
    [37566,"urn:WaterMeter:MC0203J22010600005","2024-11-07T14:30:00",19.2,33.755188,0.259],
    [37567,"urn:WaterMeter:MC0203J22010600005","2024-11-07T14:45:00",19.2,33.74087,0.277],
    [37568,"urn:WaterMeter:MC0203J22010600005","2024-11-07T15:00:00",19.2,33.651268,0.268],
    [37569,"urn:WaterMeter:MC0203J22010600005","2024-11-07T15:15:00",19.2,33.657047,0.263],
    [37570,"urn:WaterMeter:MC0203J22010600005","2024-11-07T15:30:00",19.1,33.62097,0.296],
    [37571,"urn:WaterMeter:MC0203J22010600005","2024-11-07T15:45:00",19.1,33.62295,0.285],
    [37572,"urn:WaterMeter:MC0203J22010600005","2024-11-07T16:00:00",19,33.571323,0.28],
    [37573,"urn:WaterMeter:MC0203J22010600005","2024-11-07T16:15:00",18.899,33.542618,0.259],
    [37574,"urn:WaterMeter:MC0203J22010600005","2024-11-07T16:30:00",18.899,33.46663,0.258],
    [37575,"urn:WaterMeter:MC0203J22010600005","2024-11-07T16:45:00",18.799,33.48327,0.267],
    [37576,"urn:WaterMeter:MC0203J22010600005","2024-11-07T17:00:00",18.7,33.461586,0.257],
    [37577,"urn:WaterMeter:MC0203J22010600005","2024-11-07T17:15:00",18.6,33.491066,0.264],
    [37578,"urn:WaterMeter:MC0203J22010600005","2024-11-07T17:30:00",18.5,33.43715,0.257],
    [37579,"urn:WaterMeter:MC0203J22010600005","2024-11-07T17:45:00",18.5,33.429,0.283],
    [37580,"urn:WaterMeter:MC0203J22010600005","2024-11-07T18:00:00",18.399,33.43249,0.254],
    [37581,"urn:WaterMeter:MC0203J22010600005","2024-11-07T18:15:00",18.299,33.448784,0.273],
    [37582,"urn:WaterMeter:MC0203J22010600005","2024-11-07T18:30:00",18.299,33.394867,0.257],
    [37583,"urn:WaterMeter:MC0203J22010600005","2024-11-07T18:45:00",18.2,33.457317,0.265],
    [37584,"urn:WaterMeter:MC0203J22010600005","2024-11-07T19:00:00",18.1,33.434044,0.289],
    [37585,"urn:WaterMeter:MC0203J22010600005","2024-11-07T19:15:00",18.1,33.41775,0.301],
    [37586,"urn:WaterMeter:MC0203J22010600005","2024-11-07T19:30:00",18,33.345604,0.274],
    [37587,"urn:WaterMeter:MC0203J22010600005","2024-11-07T19:45:00",17.899,33.415424,0.257],
    [37588,"urn:WaterMeter:MC0203J22010600005","2024-11-07T20:00:00",17.899,33.351032,0.261],
    [37589,"urn:WaterMeter:MC0203J22010600005","2024-11-07T20:15:00",17.799,33.41504,0.26],
    [37590,"urn:WaterMeter:MC0203J22010600005","2024-11-07T20:30:00",17.799,33.41504,0.269],
    [37591,"urn:WaterMeter:MC0203J22010600005","2024-11-07T20:45:00",17.7,33.401463,0.255],
    [37592,"urn:WaterMeter:MC0203J22010600005","2024-11-07T21:00:00",17.6,33.35569,0.266],
    [37593,"urn:WaterMeter:MC0203J22010600005","2024-11-07T21:15:00",17.6,33.378536,0.258],
    [37594,"urn:WaterMeter:MC0203J22010600005","2024-11-07T21:30:00",17.5,33.35491,0.267],
    [37595,"urn:WaterMeter:MC0203J22010600005","2024-11-07T21:45:00",17.399,33.35724,0.263],
    [37596,"urn:WaterMeter:MC0203J22010600005","2024-11-07T22:00:00",17.299,33.37198,0.267],
    [37597,"urn:WaterMeter:MC0203J22010600005","2024-11-07T22:15:00",17.299,33.34056,0.264],
    [37598,"urn:WaterMeter:MC0203J22010600005","2024-11-07T22:30:00",17.2,33.34017,0.266],
    [37599,"urn:WaterMeter:MC0203J22010600005","2024-11-07T22:45:00",17.1,33.29126,0.262],
    [37600,"urn:WaterMeter:MC0203J22010600005","2024-11-07T23:00:00",17,33.329273,0.26],
    [37601,"urn:WaterMeter:MC0203J22010600005","2024-11-07T23:15:00",17,33.335907,0.259],
    [37602,"urn:WaterMeter:MC0203J22010600005","2024-11-07T23:30:00",16.899,33.28742,0.251],
    [37603,"urn:WaterMeter:MC0203J22010600005","2024-11-07T23:45:00",16.799,33.27966,0.276],
    [37604,"urn:WaterMeter:MC0203J22010600005","2024-11-08T00:00:00",16.799,33.35375,0.254],
    [37605,"urn:WaterMeter:MC0203J22010600005","2024-11-08T00:15:00",16.7,33.29828,0.254],
    [37606,"urn:WaterMeter:MC0203J22010600005","2024-11-08T00:30:00",16.6,33.29789,0.253],
    [37607,"urn:WaterMeter:MC0203J22010600005","2024-11-08T00:45:00",16.6,33.25014,0.271],
    [37608,"urn:WaterMeter:MC0203J22010600005","2024-11-08T01:00:00",16.5,33.255997,0.266],
    [37609,"urn:WaterMeter:MC0203J22010600005","2024-11-08T01:15:00",16.399,33.26178,0.261],
    [37610,"urn:WaterMeter:MC0203J22010600005","2024-11-08T01:30:00",16.299,33.26837,0.263],
    [37611,"urn:WaterMeter:MC0203J22010600005","2024-11-08T01:45:00",16.299,33.281174,0.261],
    [37612,"urn:WaterMeter:MC0203J22010600005","2024-11-08T02:00:00",16.2,33.26686,0.265],
    [37613,"urn:WaterMeter:MC0203J22010600005","2024-11-08T02:15:00",16.1,33.317287,0.259],
    [37614,"urn:WaterMeter:MC0203J22010600005","2024-11-08T02:30:00",16,33.311855,0.258],
    [37615,"urn:WaterMeter:MC0203J22010600005","2024-11-08T02:45:00",15.899,33.25247,0.272],
    [37616,"urn:WaterMeter:MC0203J22010600005","2024-11-08T03:00:00",15.899,33.28354,0.253],
    [37617,"urn:WaterMeter:MC0203J22010600005","2024-11-08T03:15:00",15.8,33.267635,0.255],
    [37618,"urn:WaterMeter:MC0203J22010600005","2024-11-08T03:30:00",15.699,33.276943,0.261],
    [37619,"urn:WaterMeter:MC0203J22010600005","2024-11-08T03:45:00",15.699,33.254833,0.264],
    [37620,"urn:WaterMeter:MC0203J22010600005","2024-11-08T04:00:00",15.6,33.29246,0.264],
    [37621,"urn:WaterMeter:MC0203J22010600005","2024-11-08T04:15:00",15.5,33.267635,0.247],
    [37622,"urn:WaterMeter:MC0203J22010600005","2024-11-08T04:30:00",15.5,33.286255,0.268],
    [37623,"urn:WaterMeter:MC0203J22010600005","2024-11-08T04:45:00",15.399,33.25406,0.263],
    [37624,"urn:WaterMeter:MC0203J22010600005","2024-11-08T05:00:00",15.399,33.236214,0.236],
    [37625,"urn:WaterMeter:MC0203J22010600005","2024-11-08T05:15:00",15.5,33.271088,0.271],
    [37626,"urn:WaterMeter:MC0203J22010600005","2024-11-08T05:30:00",15.6,33.460423,0.257],
    [37627,"urn:WaterMeter:MC0203J22010600005","2024-11-08T05:45:00",15.699,34.13494,0.266],
    [37628,"urn:WaterMeter:MC0203J22010600005","2024-11-08T06:00:00",15.6,34.847553,0.277],
    [37629,"urn:WaterMeter:MC0203J22010600005","2024-11-08T06:15:00",15.6,35.332813,0.282],
    [37630,"urn:WaterMeter:MC0203J22010600005","2024-11-08T06:30:00",15.6,35.64585,0.289],
    [37631,"urn:WaterMeter:MC0203J22010600005","2024-11-08T06:45:00",15.6,35.918118,0.3],
    [37632,"urn:WaterMeter:MC0203J22010600005","2024-11-08T07:00:00",15.6,36.02793,0.298],
    [37633,"urn:WaterMeter:MC0203J22010600005","2024-11-08T07:15:00",15.699,36.18154,0.294],
    [37634,"urn:WaterMeter:MC0203J22010600005","2024-11-08T07:30:00",15.699,36.224598,0.289],
    [37635,"urn:WaterMeter:MC0203J22010600005","2024-11-08T07:45:00",15.699,36.313038,0.317],
    [37636,"urn:WaterMeter:MC0203J22010600005","2024-11-08T08:00:00",15.8,36.360363,0.29],
    [37637,"urn:WaterMeter:MC0203J22010600005","2024-11-08T08:15:00",15.8,36.162144,0.32],
    [37638,"urn:WaterMeter:MC0203J22010600005","2024-11-08T08:30:00",15.8,35.963154,0.295],
    [37639,"urn:WaterMeter:MC0203J22010600005","2024-11-08T08:45:00",15.8,35.82661,0.286],
    [37640,"urn:WaterMeter:MC0203J22010600005","2024-11-08T09:00:00",15.8,35.689682,0.293],
    [37641,"urn:WaterMeter:MC0203J22010600005","2024-11-08T09:15:00",15.899,35.279247,0.307],
    [37642,"urn:WaterMeter:MC0203J22010600005","2024-11-08T09:30:00",16,35.212566,0.284],
    [37643,"urn:WaterMeter:MC0203J22010600005","2024-11-08T09:45:00",16.1,35.170246,0.281],
    [37644,"urn:WaterMeter:MC0203J22010600005","2024-11-08T10:00:00",16.2,35.065514,0.278],
    [37645,"urn:WaterMeter:MC0203J22010600005","2024-11-08T10:15:00",16.299,34.998444,0.277],
    [37646,"urn:WaterMeter:MC0203J22010600005","2024-11-08T10:30:00",16.399,34.874317,0.277],
    [37647,"urn:WaterMeter:MC0203J22010600005","2024-11-08T10:45:00",16.5,34.80058,0.272],
    [37648,"urn:WaterMeter:MC0203J22010600005","2024-11-08T11:00:00",16.7,34.74631,0.299],
    [37649,"urn:WaterMeter:MC0203J22010600005","2024-11-08T11:15:00",16.799,34.67843,0.28],
    [37650,"urn:WaterMeter:MC0203J22010600005","2024-11-08T11:30:00",16.899,34.686924,0.28],
    [37651,"urn:WaterMeter:MC0203J22010600005","2024-11-08T11:45:00",17,34.568226,0.284],
    [37652,"urn:WaterMeter:MC0203J22010600005","2024-11-08T12:00:00",17.1,34.530598,0.266],
    [37653,"urn:WaterMeter:MC0203J22010600005","2024-11-08T12:15:00",17.299,34.437542,0.26],
    [37654,"urn:WaterMeter:MC0203J22010600005","2024-11-08T12:30:00",17.299,34.463104,0.289],
    [37655,"urn:WaterMeter:MC0203J22010600005","2024-11-08T12:45:00",17.399,34.35721,0.282],
    [37656,"urn:WaterMeter:MC0203J22010600005","2024-11-08T13:00:00",17.5,34.357983,0.264],
    [37657,"urn:WaterMeter:MC0203J22010600005","2024-11-08T13:15:00",17.5,34.252125,0.278],
    [37658,"urn:WaterMeter:MC0203J22010600005","2024-11-08T13:30:00",17.7,34.245533,0.267],
    [37659,"urn:WaterMeter:MC0203J22010600005","2024-11-08T13:45:00",17.799,34.13494,0.261],
    [37660,"urn:WaterMeter:MC0203J22010600005","2024-11-08T14:00:00",17.899,34.123302,0.28],
    [37661,"urn:WaterMeter:MC0203J22010600005","2024-11-08T14:15:00",17.899,34.075592,0.263],
    [37662,"urn:WaterMeter:MC0203J22010600005","2024-11-08T14:30:00",17.899,34.064342,0.262],
    [37663,"urn:WaterMeter:MC0203J22010600005","2024-11-08T14:45:00",17.899,34.018185,0.274],
    [37664,"urn:WaterMeter:MC0203J22010600005","2024-11-08T15:00:00",17.899,33.96469,0.273],
    [37665,"urn:WaterMeter:MC0203J22010600005","2024-11-08T15:15:00",17.899,33.96314,0.27],
    [37666,"urn:WaterMeter:MC0203J22010600005","2024-11-08T15:30:00",17.899,33.894093,0.272],
    [37667,"urn:WaterMeter:MC0203J22010600005","2024-11-08T15:45:00",17.799,33.84095,0.274],
    [37668,"urn:WaterMeter:MC0203J22010600005","2024-11-08T16:00:00",17.799,33.87272,0.266],
    [37669,"urn:WaterMeter:MC0203J22010600005","2024-11-08T16:15:00",17.799,33.78428,0.262],
    [37670,"urn:WaterMeter:MC0203J22010600005","2024-11-08T16:30:00",17.799,33.793976,0.259],
    [37671,"urn:WaterMeter:MC0203J22010600005","2024-11-08T16:45:00",17.799,33.823845,0.258],
    [37672,"urn:WaterMeter:MC0203J22010600005","2024-11-08T17:00:00",17.799,33.774582,0.285],
    [37673,"urn:WaterMeter:MC0203J22010600005","2024-11-08T17:15:00",17.7,33.766438,0.28],
    [37674,"urn:WaterMeter:MC0203J22010600005","2024-11-08T17:30:00",17.7,33.75949,0.284],
    [37675,"urn:WaterMeter:MC0203J22010600005","2024-11-08T17:45:00",17.7,33.70402,0.271],
    [37676,"urn:WaterMeter:MC0203J22010600005","2024-11-08T18:00:00",17.7,33.70053,0.264],
    [37677,"urn:WaterMeter:MC0203J22010600005","2024-11-08T18:15:00",17.6,33.674156,0.267],
    [37678,"urn:WaterMeter:MC0203J22010600005","2024-11-08T18:30:00",17.6,33.71139,0.265],
    [37679,"urn:WaterMeter:MC0203J22010600005","2024-11-08T18:45:00",17.6,33.697777,0.258],
    [37680,"urn:WaterMeter:MC0203J22010600005","2024-11-08T19:00:00",17.6,33.66907,0.263],
    [37681,"urn:WaterMeter:MC0203J22010600005","2024-11-08T19:15:00",17.5,33.619423,0.256],
    [37682,"urn:WaterMeter:MC0203J22010600005","2024-11-08T19:30:00",17.5,33.66213,0.268],
    [37683,"urn:WaterMeter:MC0203J22010600005","2024-11-08T19:45:00",17.399,33.598476,0.265],
    [37684,"urn:WaterMeter:MC0203J22010600005","2024-11-08T20:00:00",17.399,33.603943,0.27],
    [37685,"urn:WaterMeter:MC0203J22010600005","2024-11-08T20:15:00",17.299,33.57369,0.259],
    [37686,"urn:WaterMeter:MC0203J22010600005","2024-11-08T20:30:00",17.2,33.55856,0.261],
    [37687,"urn:WaterMeter:MC0203J22010600005","2024-11-08T20:45:00",17.2,33.60472,0.271],
    [37688,"urn:WaterMeter:MC0203J22010600005","2024-11-08T21:00:00",17.1,33.59541,0.265],
    [37689,"urn:WaterMeter:MC0203J22010600005","2024-11-08T21:15:00",17,33.555458,0.283],
    [37690,"urn:WaterMeter:MC0203J22010600005","2024-11-08T21:30:00",16.899,33.533695,0.279],
    [37691,"urn:WaterMeter:MC0203J22010600005","2024-11-08T21:45:00",16.899,33.524426,0.269],
    [37692,"urn:WaterMeter:MC0203J22010600005","2024-11-08T22:00:00",16.799,33.546535,0.272],
    [37693,"urn:WaterMeter:MC0203J22010600005","2024-11-08T22:15:00",16.7,33.56632,0.282],
    [37694,"urn:WaterMeter:MC0203J22010600005","2024-11-08T22:30:00",16.6,33.505417,0.262],
    [37695,"urn:WaterMeter:MC0203J22010600005","2024-11-08T22:45:00",16.5,33.53292,0.255],
    [37696,"urn:WaterMeter:MC0203J22010600005","2024-11-08T23:00:00",16.5,33.462322,0.266],
    [37697,"urn:WaterMeter:MC0203J22010600005","2024-11-08T23:15:00",16.399,33.519382,0.273],
    [37698,"urn:WaterMeter:MC0203J22010600005","2024-11-08T23:30:00",16.299,33.5143,0.257],
    [37699,"urn:WaterMeter:MC0203J22010600005","2024-11-08T23:45:00",16.299,33.493004,0.268],
    [37700,"urn:WaterMeter:MC0203J22010600005","2024-11-09T00:00:00",16.2,33.43517,0.259],
    [37701,"urn:WaterMeter:MC0203J22010600005","2024-11-09T07:15:00",14.699,33.3091,0.262],
    [37702,"urn:WaterMeter:MC0203J22010600005","2024-11-09T07:30:00",14.699,33.319576,0.255],
    [37703,"urn:WaterMeter:MC0203J22010600005","2024-11-09T07:45:00",14.699,33.30565,0.252],
    [37704,"urn:WaterMeter:MC0203J22010600005","2024-11-09T08:00:00",14.699,33.326557,0.252],
    [37705,"urn:WaterMeter:MC0203J22010600005","2024-11-09T08:15:00",14.8,33.326557,0.257],
    [37706,"urn:WaterMeter:MC0203J22010600005","2024-11-09T08:30:00",14.899,33.278107,0.272],
    [37707,"urn:WaterMeter:MC0203J22010600005","2024-11-09T08:45:00",15.1,33.22807,0.274],
    [37708,"urn:WaterMeter:MC0203J22010600005","2024-11-09T09:00:00",15.199,33.27384,0.256],
    [37709,"urn:WaterMeter:MC0203J22010600005","2024-11-09T09:15:00",15.399,33.222214,0.261],
    [37710,"urn:WaterMeter:MC0203J22010600005","2024-11-09T09:30:00",15.5,33.1757,0.248],
    [37711,"urn:WaterMeter:MC0203J22010600005","2024-11-09T09:45:00",15.699,33.175316,0.251],
    [37712,"urn:WaterMeter:MC0203J22010600005","2024-11-09T10:00:00",16,33.1117,0.251],
    [37713,"urn:WaterMeter:MC0203J22010600005","2024-11-09T10:15:00",16.2,33.071747,0.275],
    [37714,"urn:WaterMeter:MC0203J22010600005","2024-11-09T10:30:00",16.399,33.068214,0.246],
    [37715,"urn:WaterMeter:MC0203J22010600005","2024-11-09T10:45:00",16.5,33.00033,0.271],
    [37716,"urn:WaterMeter:MC0203J22010600005","2024-11-09T11:00:00",16.7,32.952274,0.256],
    [37717,"urn:WaterMeter:MC0203J22010600005","2024-11-09T11:15:00",16.899,32.942574,0.257],
    [37718,"urn:WaterMeter:MC0203J22010600005","2024-11-09T11:30:00",17,32.880123,0.246],
    [37719,"urn:WaterMeter:MC0203J22010600005","2024-11-09T11:45:00",17.1,32.83086,0.243],
    [37720,"urn:WaterMeter:MC0203J22010600005","2024-11-09T12:00:00",17.299,32.79207,0.263],
    [37721,"urn:WaterMeter:MC0203J22010600005","2024-11-09T12:15:00",17.399,32.757896,0.249],
    [37722,"urn:WaterMeter:MC0203J22010600005","2024-11-09T12:30:00",17.5,32.712162,0.25],
    [37723,"urn:WaterMeter:MC0203J22010600005","2024-11-09T12:45:00",17.6,32.721474,0.247],
    [37724,"urn:WaterMeter:MC0203J22010600005","2024-11-09T13:00:00",17.6,32.693542,0.257],
    [37725,"urn:WaterMeter:MC0203J22010600005","2024-11-09T13:15:00",17.6,32.605877,0.277],
    [37726,"urn:WaterMeter:MC0203J22010600005","2024-11-09T13:30:00",17.7,32.57756,0.251],
    [37727,"urn:WaterMeter:MC0203J22010600005","2024-11-09T13:45:00",17.799,32.59812,0.254],
    [37728,"urn:WaterMeter:MC0203J22010600005","2024-11-09T14:00:00",17.899,32.46158,0.25],
    [37729,"urn:WaterMeter:MC0203J22010600005","2024-11-09T14:15:00",18,32.50537,0.259],
    [37730,"urn:WaterMeter:MC0203J22010600005","2024-11-09T14:30:00",18,32.43908,0.251],
    [37731,"urn:WaterMeter:MC0203J22010600005","2024-11-09T14:45:00",18,32.42977,0.243],
    [37732,"urn:WaterMeter:MC0203J22010600005","2024-11-09T15:00:00",18.1,32.390594,0.244],
    [37733,"urn:WaterMeter:MC0203J22010600005","2024-11-09T15:15:00",18.1,32.383224,0.24],
    [37734,"urn:WaterMeter:MC0203J22010600005","2024-11-09T15:30:00",18.1,32.304478,0.239],
    [37735,"urn:WaterMeter:MC0203J22010600005","2024-11-09T15:45:00",18,32.255604,0.25],
    [37736,"urn:WaterMeter:MC0203J22010600005","2024-11-09T16:00:00",18,32.290863,0.244],
    [37737,"urn:WaterMeter:MC0203J22010600005","2024-11-09T16:15:00",18,32.262547,0.257],
    [37738,"urn:WaterMeter:MC0203J22010600005","2024-11-09T16:30:00",17.899,32.26957,0.263],
    [37739,"urn:WaterMeter:MC0203J22010600005","2024-11-09T16:45:00",17.899,32.22337,0.246],
    [37740,"urn:WaterMeter:MC0203J22010600005","2024-11-09T17:00:00",17.799,32.230778,0.25],
    [37741,"urn:WaterMeter:MC0203J22010600005","2024-11-09T17:15:00",17.7,32.255993,0.239],
    [37742,"urn:WaterMeter:MC0203J22010600005","2024-11-09T17:30:00",17.6,32.214836,0.249],
    [37743,"urn:WaterMeter:MC0203J22010600005","2024-11-09T17:45:00",17.6,32.238537,0.242],
    [37744,"urn:WaterMeter:MC0203J22010600005","2024-11-09T18:00:00",17.5,32.192764,0.237],
    [37745,"urn:WaterMeter:MC0203J22010600005","2024-11-09T18:15:00",17.5,32.212936,0.233],
    [37746,"urn:WaterMeter:MC0203J22010600005","2024-11-09T18:30:00",17.399,32.218365,0.241],
    [37747,"urn:WaterMeter:MC0203J22010600005","2024-11-09T18:45:00",17.299,32.18772,0.24],
    [37748,"urn:WaterMeter:MC0203J22010600005","2024-11-09T19:00:00",17.299,32.19005,0.259],
    [37749,"urn:WaterMeter:MC0203J22010600005","2024-11-09T19:15:00",17.2,32.170654,0.24],
    [37750,"urn:WaterMeter:MC0203J22010600005","2024-11-09T19:30:00",17.2,32.153973,0.244],
    [37751,"urn:WaterMeter:MC0203J22010600005","2024-11-09T19:45:00",17.1,32.16057,0.255],
    [37752,"urn:WaterMeter:MC0203J22010600005","2024-11-09T20:00:00",17.1,32.18617,0.252],
    [37753,"urn:WaterMeter:MC0203J22010600005","2024-11-09T20:15:00",17,32.14195,0.251],
    [37754,"urn:WaterMeter:MC0203J22010600005","2024-11-09T20:30:00",16.899,32.18035,0.252],
    [37755,"urn:WaterMeter:MC0203J22010600005","2024-11-09T20:45:00",16.899,32.152035,0.255],
    [37756,"urn:WaterMeter:MC0203J22010600005","2024-11-09T21:00:00",16.799,32.16794,0.238],
    [37757,"urn:WaterMeter:MC0203J22010600005","2024-11-09T21:15:00",16.7,32.211384,0.248],
    [37758,"urn:WaterMeter:MC0203J22010600005","2024-11-09T21:30:00",16.6,32.19742,0.248],
    [37759,"urn:WaterMeter:MC0203J22010600005","2024-11-09T21:45:00",16.6,32.20475,0.239],
    [37760,"urn:WaterMeter:MC0203J22010600005","2024-11-09T22:00:00",16.5,32.188496,0.239],
    [37761,"urn:WaterMeter:MC0203J22010600005","2024-11-09T22:15:00",16.5,32.184193,0.241],
    [37762,"urn:WaterMeter:MC0203J22010600005","2024-11-09T22:30:00",16.399,32.195866,0.24],
    [37763,"urn:WaterMeter:MC0203J22010600005","2024-11-09T22:45:00",16.399,32.15126,0.251],
    [37764,"urn:WaterMeter:MC0203J22010600005","2024-11-09T23:00:00",16.399,32.14932,0.264],
    [37765,"urn:WaterMeter:MC0203J22010600005","2024-11-09T23:15:00",16.399,32.14156,0.256],
    [37766,"urn:WaterMeter:MC0203J22010600005","2024-11-09T23:30:00",16.399,32.17527,0.26],
    [37767,"urn:WaterMeter:MC0203J22010600005","2024-11-09T23:45:00",16.399,32.116695,0.252],
    [37768,"urn:WaterMeter:MC0203J22010600005","2024-11-10T00:00:00",16.399,32.098892,0.253],
    [37769,"urn:WaterMeter:MC0203J22010600005","2024-11-10T00:15:00",16.299,32.142727,0.251],
    [37770,"urn:WaterMeter:MC0203J22010600005","2024-11-10T00:30:00",16.299,32.157852,0.238],
    [37771,"urn:WaterMeter:MC0203J22010600005","2024-11-10T00:45:00",16.2,32.16363,0.241],
    [37772,"urn:WaterMeter:MC0203J22010600005","2024-11-10T01:00:00",16.2,32.09928,0.244],
    [37773,"urn:WaterMeter:MC0203J22010600005","2024-11-10T01:15:00",16.1,32.087215,0.241],
    [37774,"urn:WaterMeter:MC0203J22010600005","2024-11-10T01:30:00",16,32.096176,0.237],
    [37775,"urn:WaterMeter:MC0203J22010600005","2024-11-10T01:45:00",16,32.117085,0.248],
    [37776,"urn:WaterMeter:MC0203J22010600005","2024-11-10T02:00:00",16,32.112858,0.239],
    [37777,"urn:WaterMeter:MC0203J22010600005","2024-11-10T02:15:00",15.899,32.12756,0.249],
    [37778,"urn:WaterMeter:MC0203J22010600005","2024-11-10T02:30:00",15.899,32.091133,0.238],
    [37779,"urn:WaterMeter:MC0203J22010600005","2024-11-10T02:45:00",15.899,32.10467,0.25],
    [37780,"urn:WaterMeter:MC0203J22010600005","2024-11-10T03:00:00",15.899,32.078682,0.242],
    [37781,"urn:WaterMeter:MC0203J22010600005","2024-11-10T03:15:00",15.899,32.100056,0.256],
    [37782,"urn:WaterMeter:MC0203J22010600005","2024-11-10T03:30:00",15.899,32.068596,0.25],
    [37783,"urn:WaterMeter:MC0203J22010600005","2024-11-10T03:45:00",15.899,32.076782,0.247],
    [37784,"urn:WaterMeter:MC0203J22010600005","2024-11-10T04:00:00",15.899,32.086052,0.242],
    [37785,"urn:WaterMeter:MC0203J22010600005","2024-11-10T04:15:00",15.899,32.09808,0.24],
    [37786,"urn:WaterMeter:MC0203J22010600005","2024-11-10T04:30:00",15.8,32.08066,0.241],
    [37787,"urn:WaterMeter:MC0203J22010600005","2024-11-10T04:45:00",15.699,32.074455,0.248],
    [37788,"urn:WaterMeter:MC0203J22010600005","2024-11-10T05:00:00",15.699,32.10316,0.266],
    [37789,"urn:WaterMeter:MC0203J22010600005","2024-11-10T05:15:00",15.6,32.0954,0.238],
    [37790,"urn:WaterMeter:MC0203J22010600005","2024-11-10T05:30:00",15.6,32.098892,0.247],
    [37791,"urn:WaterMeter:MC0203J22010600005","2024-11-10T05:45:00",15.5,32.05661,0.244],
    [37792,"urn:WaterMeter:MC0203J22010600005","2024-11-10T06:00:00",15.399,32.092297,0.242],
    [37793,"urn:WaterMeter:MC0203J22010600005","2024-11-10T06:15:00",15.399,32.074455,0.232],
    [37794,"urn:WaterMeter:MC0203J22010600005","2024-11-10T06:30:00",15.3,32.047264,0.235],
    [37795,"urn:WaterMeter:MC0203J22010600005","2024-11-10T06:45:00",15.199,32.028645,0.243],
    [37796,"urn:WaterMeter:MC0203J22010600005","2024-11-10T07:00:00",15.199,32.036053,0.238],
    [37797,"urn:WaterMeter:MC0203J22010600005","2024-11-10T07:15:00",15.1,32.065884,0.238],
    [37798,"urn:WaterMeter:MC0203J22010600005","2024-11-10T07:30:00",15,32.090748,0.217],
    [37799,"urn:WaterMeter:MC0203J22010600005","2024-11-10T07:45:00",15,32.049202,0.256],
    [37800,"urn:WaterMeter:MC0203J22010600005","2024-11-10T08:00:00",15,32.020496,0.246],
    [37801,"urn:WaterMeter:MC0203J22010600005","2024-11-10T08:15:00",15.1,32.00886,0.237],
    [37802,"urn:WaterMeter:MC0203J22010600005","2024-11-10T08:30:00",15.1,32.04765,0.236],
    [37803,"urn:WaterMeter:MC0203J22010600005","2024-11-10T08:45:00",15.199,32.022087,0.252],
    [37804,"urn:WaterMeter:MC0203J22010600005","2024-11-10T09:00:00",15.3,31.987953,0.235],
    [37805,"urn:WaterMeter:MC0203J22010600005","2024-11-10T09:15:00",15.399,32.022865,0.234],
    [37806,"urn:WaterMeter:MC0203J22010600005","2024-11-10T09:30:00",15.6,31.924337,0.227],
    [37807,"urn:WaterMeter:MC0203J22010600005","2024-11-10T09:45:00",15.699,31.910723,0.234],
    [37808,"urn:WaterMeter:MC0203J22010600005","2024-11-10T10:00:00",15.899,31.829302,0.232],
    [37809,"urn:WaterMeter:MC0203J22010600005","2024-11-10T10:15:00",16,31.847534,0.241],
    [37810,"urn:WaterMeter:MC0203J22010600005","2024-11-10T10:30:00",16.1,31.792063,0.231],
    [37811,"urn:WaterMeter:MC0203J22010600005","2024-11-10T10:45:00",16.299,31.767588,0.246],
    [37812,"urn:WaterMeter:MC0203J22010600005","2024-11-10T11:00:00",16.399,31.753662,0.231],
    [37813,"urn:WaterMeter:MC0203J22010600005","2024-11-10T11:15:00",16.5,31.698153,0.24],
    [37814,"urn:WaterMeter:MC0203J22010600005","2024-11-10T11:30:00",16.7,31.66367,0.235],
    [37815,"urn:WaterMeter:MC0203J22010600005","2024-11-10T11:45:00",16.799,31.618284,0.227],
    [37816,"urn:WaterMeter:MC0203J22010600005","2024-11-10T12:00:00",17,31.546911,0.242],
    [37817,"urn:WaterMeter:MC0203J22010600005","2024-11-10T12:15:00",17.1,31.524761,0.232],
    [37818,"urn:WaterMeter:MC0203J22010600005","2024-11-10T12:30:00",17.2,31.520535,0.231],
    [37819,"urn:WaterMeter:MC0203J22010600005","2024-11-10T12:45:00",17.299,31.43442,0.229],
    [37820,"urn:WaterMeter:MC0203J22010600005","2024-11-10T13:00:00",17.299,31.402224,0.223],
    [37821,"urn:WaterMeter:MC0203J22010600005","2024-11-10T13:15:00",17.299,31.346367,0.239],
    [37822,"urn:WaterMeter:MC0203J22010600005","2024-11-10T13:30:00",17.2,31.333954,0.221],
    [37823,"urn:WaterMeter:MC0203J22010600005","2024-11-10T13:45:00",17.2,31.33279,0.231],
    [37824,"urn:WaterMeter:MC0203J22010600005","2024-11-10T14:00:00",17.2,31.268011,0.249],
    [37825,"urn:WaterMeter:MC0203J22010600005","2024-11-10T14:15:00",17.299,31.250942,0.24],
    [37826,"urn:WaterMeter:MC0203J22010600005","2024-11-10T14:30:00",17.299,31.228445,0.236],
    [37827,"urn:WaterMeter:MC0203J22010600005","2024-11-10T14:45:00",17.299,31.215605,0.231],
    [37828,"urn:WaterMeter:MC0203J22010600005","2024-11-10T15:00:00",17.299,31.1241,0.228],
    [37829,"urn:WaterMeter:MC0203J22010600005","2024-11-10T15:15:00",17.299,31.134573,0.233],
    [37830,"urn:WaterMeter:MC0203J22010600005","2024-11-10T15:30:00",17.399,31.077513,0.232],
    [37831,"urn:WaterMeter:MC0203J22010600005","2024-11-10T15:45:00",17.399,31.070143,0.225],
    [37832,"urn:WaterMeter:MC0203J22010600005","2024-11-10T16:00:00",17.399,31.030966,0.224],
    [37833,"urn:WaterMeter:MC0203J22010600005","2024-11-10T16:15:00",17.299,31.03527,0.234],
    [37834,"urn:WaterMeter:MC0203J22010600005","2024-11-10T16:30:00",17.2,31.03911,0.221],
    [37835,"urn:WaterMeter:MC0203J22010600005","2024-11-10T16:45:00",17.1,31.00385,0.223],
    [37836,"urn:WaterMeter:MC0203J22010600005","2024-11-10T17:00:00",17,31.02984,0.247],
    [37837,"urn:WaterMeter:MC0203J22010600005","2024-11-10T17:15:00",16.899,30.976698,0.236],
    [37838,"urn:WaterMeter:MC0203J22010600005","2024-11-10T17:30:00",16.799,30.997257,0.227],
    [37839,"urn:WaterMeter:MC0203J22010600005","2024-11-10T17:45:00",16.7,31.005014,0.243],
    [37840,"urn:WaterMeter:MC0203J22010600005","2024-11-10T18:00:00",16.6,30.967775,0.228],
    [37841,"urn:WaterMeter:MC0203J22010600005","2024-11-10T18:15:00",16.5,30.982477,0.227],
    [37842,"urn:WaterMeter:MC0203J22010600005","2024-11-10T18:30:00",16.399,30.955364,0.235],
    [37843,"urn:WaterMeter:MC0203J22010600005","2024-11-10T18:45:00",16.299,30.993378,0.227],
    [37844,"urn:WaterMeter:MC0203J22010600005","2024-11-10T19:00:00",16.2,30.973167,0.245],
    [37845,"urn:WaterMeter:MC0203J22010600005","2024-11-10T19:15:00",16.1,30.983253,0.224],
    [37846,"urn:WaterMeter:MC0203J22010600005","2024-11-10T19:30:00",16.1,31.014324,0.223],
    [37847,"urn:WaterMeter:MC0203J22010600005","2024-11-10T19:45:00",16,30.964285,0.234],
    [37848,"urn:WaterMeter:MC0203J22010600005","2024-11-10T20:00:00",16,31.012346,0.231],
    [37849,"urn:WaterMeter:MC0203J22010600005","2024-11-10T20:15:00",15.899,30.97278,0.24],
    [37850,"urn:WaterMeter:MC0203J22010600005","2024-11-10T20:30:00",15.8,31.010057,0.221],
    [37851,"urn:WaterMeter:MC0203J22010600005","2024-11-10T20:45:00",15.699,30.980927,0.228],
    [37852,"urn:WaterMeter:MC0203J22010600005","2024-11-10T21:00:00",15.6,30.995705,0.23],
    [37853,"urn:WaterMeter:MC0203J22010600005","2024-11-10T21:15:00",15.6,30.970879,0.23],
    [37854,"urn:WaterMeter:MC0203J22010600005","2024-11-10T21:30:00",15.5,30.988722,0.24],
    [37855,"urn:WaterMeter:MC0203J22010600005","2024-11-10T21:45:00",15.399,30.945278,0.24],
    [37856,"urn:WaterMeter:MC0203J22010600005","2024-11-10T22:00:00",15.3,30.98368,0.225],
    [37857,"urn:WaterMeter:MC0203J22010600005","2024-11-10T22:15:00",15.3,30.944075,0.244],
    [37858,"urn:WaterMeter:MC0203J22010600005","2024-11-10T22:30:00",15.3,30.944075,0.223],
    [37859,"urn:WaterMeter:MC0203J22010600005","2024-11-10T22:45:00",15.3,30.94136,0.236],
    [37860,"urn:WaterMeter:MC0203J22010600005","2024-11-10T23:00:00",15.199,30.903345,0.23],
    [37861,"urn:WaterMeter:MC0203J22010600005","2024-11-10T23:15:00",15.199,30.929375,0.237],
    [37862,"urn:WaterMeter:MC0203J22010600005","2024-11-10T23:30:00",15.199,30.910755,0.229],
    [37863,"urn:WaterMeter:MC0203J22010600005","2024-11-10T23:45:00",15.1,30.938684,0.232],
    [37864,"urn:WaterMeter:MC0203J22010600005","2024-11-11T00:00:00",15.1,30.934765,0.236],
    [37865,"urn:WaterMeter:MC0203J22010600005","2024-11-11T00:15:00",15,30.884727,0.226],
    [37866,"urn:WaterMeter:MC0203J22010600005","2024-11-11T00:30:00",14.899,30.92084,0.225],
    [37867,"urn:WaterMeter:MC0203J22010600005","2024-11-11T00:45:00",14.8,30.883951,0.234],
    [37868,"urn:WaterMeter:MC0203J22010600005","2024-11-11T01:00:00",14.8,30.888645,0.229],
    [37869,"urn:WaterMeter:MC0203J22010600005","2024-11-11T01:15:00",14.699,30.887093,0.226],
    [37870,"urn:WaterMeter:MC0203J22010600005","2024-11-11T01:30:00",14.699,30.901833,0.227],
    [37871,"urn:WaterMeter:MC0203J22010600005","2024-11-11T01:45:00",14.6,30.833563,0.232],
    [37872,"urn:WaterMeter:MC0203J22010600005","2024-11-11T02:00:00",14.6,30.901833,0.227],
    [37873,"urn:WaterMeter:MC0203J22010600005","2024-11-11T02:15:00",14.6,30.916185,0.235],
    [37874,"urn:WaterMeter:MC0203J22010600005","2024-11-11T02:30:00",14.5,30.866495,0.229],
    [37875,"urn:WaterMeter:MC0203J22010600005","2024-11-11T02:45:00",14.5,30.904121,0.249],
    [37876,"urn:WaterMeter:MC0203J22010600005","2024-11-11T03:00:00",14.5,30.868473,0.226],
    [37877,"urn:WaterMeter:MC0203J22010600005","2024-11-11T03:15:00",14.399,30.861103,0.223],
    [37878,"urn:WaterMeter:MC0203J22010600005","2024-11-11T03:30:00",14.399,30.926659,0.222],
    [37879,"urn:WaterMeter:MC0203J22010600005","2024-11-11T03:45:00",14.3,30.929375,0.228],
    [37880,"urn:WaterMeter:MC0203J22010600005","2024-11-11T04:00:00",14.199,30.912695,0.229],
    [37881,"urn:WaterMeter:MC0203J22010600005","2024-11-11T04:15:00",14.199,30.880499,0.236],
    [37882,"urn:WaterMeter:MC0203J22010600005","2024-11-11T04:30:00",14.1,30.936356,0.227],
    [37883,"urn:WaterMeter:MC0203J22010600005","2024-11-11T04:45:00",14,30.884338,0.225],
    [37884,"urn:WaterMeter:MC0203J22010600005","2024-11-11T05:00:00",13.899,30.925068,0.226],
    [37885,"urn:WaterMeter:MC0203J22010600005","2024-11-11T05:15:00",14,30.98368,0.231],
    [37886,"urn:WaterMeter:MC0203J22010600005","2024-11-11T05:30:00",14.199,30.932478,0.226],
    [37887,"urn:WaterMeter:MC0203J22010600005","2024-11-11T05:45:00",14.199,30.951485,0.225],
    [37888,"urn:WaterMeter:MC0203J22010600005","2024-11-11T06:00:00",14.199,31.270338,0.231],
    [37889,"urn:WaterMeter:MC0203J22010600005","2024-11-11T06:15:00",14.199,32.033337,0.242],
    [37890,"urn:WaterMeter:MC0203J22010600005","2024-11-11T06:30:00",14.199,33.047268,0.273],
    [37891,"urn:WaterMeter:MC0203J22010600005","2024-11-11T06:45:00",14.3,33.95922,0.265],
    [37892,"urn:WaterMeter:MC0203J22010600005","2024-11-11T07:00:00",14.3,34.64429,0.272],
    [37893,"urn:WaterMeter:MC0203J22010600005","2024-11-11T07:15:00",14.3,34.9903,0.267],
    [37894,"urn:WaterMeter:MC0203J22010600005","2024-11-11T07:30:00",14.399,35.223816,0.287],
    [37895,"urn:WaterMeter:MC0203J22010600005","2024-11-11T07:45:00",14.5,35.394066,0.284],
    [37896,"urn:WaterMeter:MC0203J22010600005","2024-11-11T08:00:00",14.6,35.532585,0.285],
    [37897,"urn:WaterMeter:MC0203J22010600005","2024-11-11T08:15:00",14.699,35.25407,0.292],
    [37898,"urn:WaterMeter:MC0203J22010600005","2024-11-11T08:30:00",14.699,34.970516,0.278],
    [37899,"urn:WaterMeter:MC0203J22010600005","2024-11-11T08:45:00",14.699,34.75368,0.278],
    [37900,"urn:WaterMeter:MC0203J22010600005","2024-11-11T09:00:00",14.699,34.745106,0.291],
    [37901,"urn:WaterMeter:MC0203J22010600005","2024-11-11T09:15:00",14.699,34.6877,0.27],
    [37902,"urn:WaterMeter:MC0203J22010600005","2024-11-11T09:30:00",14.8,34.627575,0.278],
    [37903,"urn:WaterMeter:MC0203J22010600005","2024-11-11T09:45:00",14.899,34.57641,0.262],
    [37904,"urn:WaterMeter:MC0203J22010600005","2024-11-11T10:00:00",15,34.480988,0.271],
    [37905,"urn:WaterMeter:MC0203J22010600005","2024-11-11T10:15:00",15.199,34.441032,0.275],
    [37906,"urn:WaterMeter:MC0203J22010600005","2024-11-11T10:30:00",15.399,34.25445,0.26],
    [37907,"urn:WaterMeter:MC0203J22010600005","2024-11-11T10:45:00",15.5,34.19433,0.262],
    [37908,"urn:WaterMeter:MC0203J22010600005","2024-11-11T11:00:00",15.6,34.171444,0.256],
    [37909,"urn:WaterMeter:MC0203J22010600005","2024-11-11T11:15:00",15.699,34.134552,0.267],
    [37910,"urn:WaterMeter:MC0203J22010600005","2024-11-11T11:30:00",15.899,34.093475,0.286],
    [37911,"urn:WaterMeter:MC0203J22010600005","2024-11-11T11:45:00",16,33.99068,0.257],
    [37912,"urn:WaterMeter:MC0203J22010600005","2024-11-11T12:00:00",16.2,33.9612,0.285],
    [37913,"urn:WaterMeter:MC0203J22010600005","2024-11-11T12:15:00",16.299,33.87078,0.265],
    [37914,"urn:WaterMeter:MC0203J22010600005","2024-11-11T12:30:00",16.5,33.873535,0.266],
    [37915,"urn:WaterMeter:MC0203J22010600005","2024-11-11T12:45:00",16.6,33.814537,0.261],
    [37916,"urn:WaterMeter:MC0203J22010600005","2024-11-11T13:00:00",16.7,33.75441,0.255],
    [37917,"urn:WaterMeter:MC0203J22010600005","2024-11-11T13:15:00",16.7,33.7048,0.263],
    [37918,"urn:WaterMeter:MC0203J22010600005","2024-11-11T13:30:00",16.799,33.60821,0.263],
    [37919,"urn:WaterMeter:MC0203J22010600005","2024-11-11T13:45:00",16.899,33.62489,0.281],
    [37920,"urn:WaterMeter:MC0203J22010600005","2024-11-11T14:00:00",16.899,33.587654,0.272],
    [37921,"urn:WaterMeter:MC0203J22010600005","2024-11-11T14:15:00",17,33.5508,0.258],
    [37922,"urn:WaterMeter:MC0203J22010600005","2024-11-11T14:30:00",17,33.559685,0.25],
    [37923,"urn:WaterMeter:MC0203J22010600005","2024-11-11T14:45:00",17,33.500763,0.271],
    [37924,"urn:WaterMeter:MC0203J22010600005","2024-11-11T15:00:00",17,33.460423,0.268],
    [37925,"urn:WaterMeter:MC0203J22010600005","2024-11-11T15:15:00",16.899,33.462322,0.275],
    [37926,"urn:WaterMeter:MC0203J22010600005","2024-11-11T15:30:00",16.799,33.434433,0.251],
    [37927,"urn:WaterMeter:MC0203J22010600005","2024-11-11T15:45:00",16.799,33.409218,0.252],
    [37928,"urn:WaterMeter:MC0203J22010600005","2024-11-11T16:00:00",16.799,33.401073,0.285],
    [37929,"urn:WaterMeter:MC0203J22010600005","2024-11-11T16:15:00",16.799,33.37586,0.257],
    [37930,"urn:WaterMeter:MC0203J22010600005","2024-11-11T16:30:00",16.7,33.36806,0.253],
    [37931,"urn:WaterMeter:MC0203J22010600005","2024-11-11T16:45:00",16.7,33.400684,0.248],
    [37932,"urn:WaterMeter:MC0203J22010600005","2024-11-11T17:00:00",16.6,33.29634,0.263],
    [37933,"urn:WaterMeter:MC0203J22010600005","2024-11-11T17:15:00",16.5,33.286644,0.261],
    [37934,"urn:WaterMeter:MC0203J22010600005","2024-11-11T17:30:00",16.399,33.32733,0.249],
    [37935,"urn:WaterMeter:MC0203J22010600005","2024-11-11T17:45:00",16.399,33.335907,0.26],
    [37936,"urn:WaterMeter:MC0203J22010600005","2024-11-11T18:00:00",16.299,33.329273,0.249],
    [37937,"urn:WaterMeter:MC0203J22010600005","2024-11-11T18:15:00",16.2,33.301384,0.25],
    [37938,"urn:WaterMeter:MC0203J22010600005","2024-11-11T18:30:00",16.2,33.2944,0.262],
    [37939,"urn:WaterMeter:MC0203J22010600005","2024-11-11T18:45:00",16.1,33.30755,0.259],
    [37940,"urn:WaterMeter:MC0203J22010600005","2024-11-11T19:00:00",16.1,33.263756,0.252],
    [37941,"urn:WaterMeter:MC0203J22010600005","2024-11-11T19:15:00",16,33.287766,0.253],
    [37942,"urn:WaterMeter:MC0203J22010600005","2024-11-11T19:30:00",15.899,33.291683,0.266],
    [37943,"urn:WaterMeter:MC0203J22010600005","2024-11-11T19:45:00",15.8,33.271088,0.272],
    [37944,"urn:WaterMeter:MC0203J22010600005","2024-11-11T20:00:00",15.699,33.266083,0.254],
    [37945,"urn:WaterMeter:MC0203J22010600005","2024-11-11T20:15:00",15.699,33.295563,0.262],
    [37946,"urn:WaterMeter:MC0203J22010600005","2024-11-11T20:30:00",15.6,33.32811,0.25],
    [37947,"urn:WaterMeter:MC0203J22010600005","2024-11-11T20:45:00",15.5,33.27772,0.259],
    [37948,"urn:WaterMeter:MC0203J22010600005","2024-11-11T21:00:00",15.399,33.230747,0.264],
    [37949,"urn:WaterMeter:MC0203J22010600005","2024-11-11T21:15:00",15.399,33.280785,0.255],
    [37950,"urn:WaterMeter:MC0203J22010600005","2024-11-11T21:30:00",15.3,33.217983,0.26],
    [37951,"urn:WaterMeter:MC0203J22010600005","2024-11-11T21:45:00",15.199,33.27772,0.253],
    [37952,"urn:WaterMeter:MC0203J22010600005","2024-11-11T22:00:00",15.199,33.260265,0.261],
    [37953,"urn:WaterMeter:MC0203J22010600005","2024-11-11T22:15:00",15.199,33.256775,0.25],
    [37954,"urn:WaterMeter:MC0203J22010600005","2024-11-11T22:30:00",15.199,33.21329,0.268],
    [37955,"urn:WaterMeter:MC0203J22010600005","2024-11-11T22:45:00",15.1,33.201305,0.252],
    [37956,"urn:WaterMeter:MC0203J22010600005","2024-11-11T23:00:00",15.1,33.236603,0.249],
    [37957,"urn:WaterMeter:MC0203J22010600005","2024-11-11T23:15:00",15.1,33.275394,0.251],
    [37958,"urn:WaterMeter:MC0203J22010600005","2024-11-11T23:30:00",15,33.191566,0.265],
    [37959,"urn:WaterMeter:MC0203J22010600005","2024-11-11T23:45:00",15,33.21721,0.275],
    [37960,"urn:WaterMeter:MC0203J22010600005","2024-11-12T00:00:00",15,33.20208,0.258],
    [37961,"urn:WaterMeter:MC0203J22010600005","2024-11-12T00:15:00",14.899,33.205185,0.257],
    [37962,"urn:WaterMeter:MC0203J22010600005","2024-11-12T00:30:00",14.899,33.233074,0.265],
    [37963,"urn:WaterMeter:MC0203J22010600005","2024-11-12T00:45:00",14.8,33.199753,0.263],
    [37964,"urn:WaterMeter:MC0203J22010600005","2024-11-12T01:00:00",14.8,33.136913,0.26],
    [37965,"urn:WaterMeter:MC0203J22010600005","2024-11-12T01:15:00",14.699,33.181133,0.252],
    [37966,"urn:WaterMeter:MC0203J22010600005","2024-11-12T01:30:00",14.6,33.22109,0.255],
    [37967,"urn:WaterMeter:MC0203J22010600005","2024-11-12T01:45:00",14.6,33.210575,0.266],
    [37968,"urn:WaterMeter:MC0203J22010600005","2024-11-12T02:00:00",14.5,33.197037,0.258],
    [37969,"urn:WaterMeter:MC0203J22010600005","2024-11-12T02:15:00",14.399,33.20984,0.251],
    [37970,"urn:WaterMeter:MC0203J22010600005","2024-11-12T02:30:00",14.399,33.21876,0.247],
    [37971,"urn:WaterMeter:MC0203J22010600005","2024-11-12T02:45:00",14.3,33.215267,0.252],
    [37972,"urn:WaterMeter:MC0203J22010600005","2024-11-12T03:00:00",14.3,33.20984,0.251],
    [37973,"urn:WaterMeter:MC0203J22010600005","2024-11-12T03:15:00",14.199,33.169495,0.251],
    [37974,"urn:WaterMeter:MC0203J22010600005","2024-11-12T03:30:00",14.199,33.182297,0.252],
    [37975,"urn:WaterMeter:MC0203J22010600005","2024-11-12T03:45:00",14.1,33.159412,0.257],
    [37976,"urn:WaterMeter:MC0203J22010600005","2024-11-12T04:00:00",14.1,33.24087,0.252],
    [37977,"urn:WaterMeter:MC0203J22010600005","2024-11-12T04:15:00",14.1,33.15088,0.252],
    [37978,"urn:WaterMeter:MC0203J22010600005","2024-11-12T04:30:00",14.1,33.20208,0.26],
    [37979,"urn:WaterMeter:MC0203J22010600005","2024-11-12T04:45:00",14.1,33.15747,0.25],
    [37980,"urn:WaterMeter:MC0203J22010600005","2024-11-12T05:00:00",14.1,33.221474,0.259],
    [37981,"urn:WaterMeter:MC0203J22010600005","2024-11-12T05:15:00",14.199,33.175316,0.251],
    [37982,"urn:WaterMeter:MC0203J22010600005","2024-11-12T05:30:00",14.399,33.446846,0.256],
    [37983,"urn:WaterMeter:MC0203J22010600005","2024-11-12T05:45:00",14.5,34.18463,0.277],
    [37984,"urn:WaterMeter:MC0203J22010600005","2024-11-12T06:00:00",14.399,35.025948,0.294],
    [37985,"urn:WaterMeter:MC0203J22010600005","2024-11-12T06:15:00",14.399,35.476727,0.285],
    [37986,"urn:WaterMeter:MC0203J22010600005","2024-11-12T06:30:00",14.399,35.79791,0.285],
    [37987,"urn:WaterMeter:MC0203J22010600005","2024-11-12T06:45:00",14.399,36.148182,0.29],
    [37988,"urn:WaterMeter:MC0203J22010600005","2024-11-12T07:00:00",14.399,36.423977,0.289],
    [37989,"urn:WaterMeter:MC0203J22010600005","2024-11-12T07:15:00",14.5,36.672234,0.311],
    [37990,"urn:WaterMeter:MC0203J22010600005","2024-11-12T07:30:00",14.5,36.732708,0.3],
    [37991,"urn:WaterMeter:MC0203J22010600005","2024-11-12T07:45:00",14.5,36.769985,0.306],
    [37992,"urn:WaterMeter:MC0203J22010600005","2024-11-12T08:00:00",14.6,36.83705,0.301],
    [37993,"urn:WaterMeter:MC0203J22010600005","2024-11-12T08:15:00",14.699,36.62565,0.291],
    [37994,"urn:WaterMeter:MC0203J22010600005","2024-11-12T08:30:00",14.699,36.256752,0.31],
    [37995,"urn:WaterMeter:MC0203J22010600005","2024-11-12T08:45:00",14.699,36.139606,0.308],
    [37996,"urn:WaterMeter:MC0203J22010600005","2024-11-12T09:00:00",14.8,36.09659,0.285],
    [37997,"urn:WaterMeter:MC0203J22010600005","2024-11-12T09:15:00",14.899,35.48448,0.283],
    [37998,"urn:WaterMeter:MC0203J22010600005","2024-11-12T09:30:00",15,35.36497,0.264],
    [37999,"urn:WaterMeter:MC0203J22010600005","2024-11-12T09:45:00",15.199,35.269547,0.278],
    [38000,"urn:WaterMeter:MC0203J22010600005","2024-11-12T10:00:00",15.3,35.233513,0.262],
    [38001,"urn:WaterMeter:MC0203J22010600005","2024-11-12T10:15:00",15.5,35.096973,0.281],
    [38002,"urn:WaterMeter:MC0203J22010600005","2024-11-12T10:30:00",15.6,35.036808,0.267],
    [38003,"urn:WaterMeter:MC0203J22010600005","2024-11-12T10:45:00",15.699,34.961594,0.272],
    [38004,"urn:WaterMeter:MC0203J22010600005","2024-11-12T11:00:00",15.899,34.88634,0.268],
    [38005,"urn:WaterMeter:MC0203J22010600005","2024-11-12T11:15:00",16,34.7851,0.279],
    [38006,"urn:WaterMeter:MC0203J22010600005","2024-11-12T11:30:00",16.1,34.692005,0.267],
    [38007,"urn:WaterMeter:MC0203J22010600005","2024-11-12T11:45:00",16.299,34.667915,0.263],
    [38008,"urn:WaterMeter:MC0203J22010600005","2024-11-12T12:00:00",16.5,34.584167,0.262],
    [38009,"urn:WaterMeter:MC0203J22010600005","2024-11-12T12:15:00",16.6,34.442585,0.266],
    [38010,"urn:WaterMeter:MC0203J22010600005","2024-11-12T12:30:00",16.799,34.38246,0.257],
    [38011,"urn:WaterMeter:MC0203J22010600005","2024-11-12T12:45:00",17,34.346733,0.262],
    [38012,"urn:WaterMeter:MC0203J22010600005","2024-11-12T13:00:00",17,34.274235,0.263],
    [38013,"urn:WaterMeter:MC0203J22010600005","2024-11-12T13:15:00",17,34.24161,0.266],
    [38014,"urn:WaterMeter:MC0203J22010600005","2024-11-12T13:30:00",17,34.20907,0.281],
    [38015,"urn:WaterMeter:MC0203J22010600005","2024-11-12T13:45:00",17,34.13537,0.28],
    [38016,"urn:WaterMeter:MC0203J22010600005","2024-11-12T14:00:00",17.1,34.110542,0.265],
    [38017,"urn:WaterMeter:MC0203J22010600005","2024-11-12T14:15:00",17.1,34.029858,0.262],
    [38018,"urn:WaterMeter:MC0203J22010600005","2024-11-12T14:30:00",17.1,34.017017,0.272],
    [38019,"urn:WaterMeter:MC0203J22010600005","2024-11-12T14:45:00",17.1,33.97439,0.271],
    [38020,"urn:WaterMeter:MC0203J22010600005","2024-11-12T15:00:00",17.1,33.913876,0.264],
    [38021,"urn:WaterMeter:MC0203J22010600005","2024-11-12T15:15:00",17.1,33.847546,0.267],
    [38022,"urn:WaterMeter:MC0203J22010600005","2024-11-12T15:30:00",17.1,33.835133,0.268],
    [38023,"urn:WaterMeter:MC0203J22010600005","2024-11-12T15:45:00",17,33.7913,0.267],
    [38024,"urn:WaterMeter:MC0203J22010600005","2024-11-12T16:00:00",16.899,33.831215,0.258],
    [38025,"urn:WaterMeter:MC0203J22010600005","2024-11-12T16:15:00",16.899,33.769966,0.277],
    [38026,"urn:WaterMeter:MC0203J22010600005","2024-11-12T16:30:00",16.899,33.78199,0.259],
    [38027,"urn:WaterMeter:MC0203J22010600005","2024-11-12T16:45:00",16.799,33.728848,0.265],
    [38028,"urn:WaterMeter:MC0203J22010600005","2024-11-12T17:00:00",16.7,33.7304,0.274],
    [38029,"urn:WaterMeter:MC0203J22010600005","2024-11-12T17:15:00",16.7,33.718376,0.263],
    [38030,"urn:WaterMeter:MC0203J22010600005","2024-11-12T17:30:00",16.6,33.737343,0.26],
    [38031,"urn:WaterMeter:MC0203J22010600005","2024-11-12T17:45:00",16.6,33.71954,0.258],
    [38032,"urn:WaterMeter:MC0203J22010600005","2024-11-12T18:00:00",16.5,33.712944,0.274],
    [38033,"urn:WaterMeter:MC0203J22010600005","2024-11-12T18:15:00",16.5,33.644287,0.26],
    [38034,"urn:WaterMeter:MC0203J22010600005","2024-11-12T18:30:00",16.5,33.679157,0.289],
    [38035,"urn:WaterMeter:MC0203J22010600005","2024-11-12T18:45:00",16.5,33.672604,0.254],
    [38036,"urn:WaterMeter:MC0203J22010600005","2024-11-12T19:00:00",16.399,33.660965,0.261],
    [38037,"urn:WaterMeter:MC0203J22010600005","2024-11-12T19:15:00",16.399,33.616745,0.274],
    [38038,"urn:WaterMeter:MC0203J22010600005","2024-11-12T19:30:00",16.299,33.63998,0.258],
    [38039,"urn:WaterMeter:MC0203J22010600005","2024-11-12T19:45:00",16.299,33.58804,0.258],
    [38040,"urn:WaterMeter:MC0203J22010600005","2024-11-12T20:00:00",16.2,33.602394,0.255],
    [38041,"urn:WaterMeter:MC0203J22010600005","2024-11-12T20:15:00",16.1,33.572914,0.26],
    [38042,"urn:WaterMeter:MC0203J22010600005","2024-11-12T20:30:00",16.1,33.627995,0.249],
    [38043,"urn:WaterMeter:MC0203J22010600005","2024-11-12T20:45:00",16,33.584938,0.265],
    [38044,"urn:WaterMeter:MC0203J22010600005","2024-11-12T21:00:00",16,33.557785,0.267],
    [38045,"urn:WaterMeter:MC0203J22010600005","2024-11-12T21:15:00",15.899,33.55309,0.259],
    [38046,"urn:WaterMeter:MC0203J22010600005","2024-11-12T21:30:00",15.899,33.58843,0.259],
    [38047,"urn:WaterMeter:MC0203J22010600005","2024-11-12T21:45:00",15.8,33.572098,0.277],
    [38048,"urn:WaterMeter:MC0203J22010600005","2024-11-12T22:00:00",15.8,33.534897,0.262],
    [38049,"urn:WaterMeter:MC0203J22010600005","2024-11-12T22:15:00",15.8,33.56399,0.256],
    [38050,"urn:WaterMeter:MC0203J22010600005","2024-11-12T22:30:00",15.699,33.587654,0.261],
    [38051,"urn:WaterMeter:MC0203J22010600005","2024-11-12T22:45:00",15.699,33.522446,0.273],
    [38052,"urn:WaterMeter:MC0203J22010600005","2024-11-12T23:00:00",15.6,33.491455,0.276],
    [38053,"urn:WaterMeter:MC0203J22010600005","2024-11-12T23:15:00",15.6,33.557785,0.254],
    [38054,"urn:WaterMeter:MC0203J22010600005","2024-11-12T23:30:00",15.6,33.55154,0.269],
    [38055,"urn:WaterMeter:MC0203J22010600005","2024-11-12T23:45:00",15.5,33.4771,0.258],
    [38056,"urn:WaterMeter:MC0203J22010600005","2024-11-13T00:00:00",15.5,33.49413,0.272],
    [38057,"urn:WaterMeter:MC0203J22010600005","2024-11-13T00:15:00",15.5,33.497272,0.266],
    [38058,"urn:WaterMeter:MC0203J22010600005","2024-11-13T00:30:00",15.399,33.531796,0.254],
    [38059,"urn:WaterMeter:MC0203J22010600005","2024-11-13T00:45:00",15.399,33.504604,0.257],
    [38060,"urn:WaterMeter:MC0203J22010600005","2024-11-13T01:00:00",15.399,33.520897,0.255],
    [38061,"urn:WaterMeter:MC0203J22010600005","2024-11-13T01:15:00",15.399,33.518993,0.262],
    [38062,"urn:WaterMeter:MC0203J22010600005","2024-11-13T01:30:00",15.3,33.500763,0.255],
    [38063,"urn:WaterMeter:MC0203J22010600005","2024-11-13T01:45:00",15.3,33.448784,0.255],
    [38064,"urn:WaterMeter:MC0203J22010600005","2024-11-13T02:00:00",15.199,33.431717,0.272],
    [38065,"urn:WaterMeter:MC0203J22010600005","2024-11-13T02:15:00",15.199,33.489513,0.261],
    [38066,"urn:WaterMeter:MC0203J22010600005","2024-11-13T02:30:00",15.1,33.48137,0.261],
    [38067,"urn:WaterMeter:MC0203J22010600005","2024-11-13T02:45:00",15.1,33.442192,0.271],
    [38068,"urn:WaterMeter:MC0203J22010600005","2024-11-13T03:00:00",15.1,33.448395,0.257],
    [38069,"urn:WaterMeter:MC0203J22010600005","2024-11-13T03:15:00",15,33.472057,0.262],
    [38070,"urn:WaterMeter:MC0203J22010600005","2024-11-13T03:30:00",15,33.4771,0.265],
    [38071,"urn:WaterMeter:MC0203J22010600005","2024-11-13T03:45:00",14.899,33.449562,0.261],
    [38072,"urn:WaterMeter:MC0203J22010600005","2024-11-13T04:00:00",14.899,33.449173,0.264],
    [38073,"urn:WaterMeter:MC0203J22010600005","2024-11-13T04:15:00",14.8,33.476715,0.254],
    [38074,"urn:WaterMeter:MC0203J22010600005","2024-11-13T04:30:00",14.699,33.45926,0.257],
    [38075,"urn:WaterMeter:MC0203J22010600005","2024-11-13T04:45:00",14.6,33.428226,0.261],
    [38076,"urn:WaterMeter:MC0203J22010600005","2024-11-13T05:00:00",14.6,33.474346,0.253],
    [38077,"urn:WaterMeter:MC0203J22010600005","2024-11-13T05:15:00",14.699,33.68579,0.261],
    [38078,"urn:WaterMeter:MC0203J22010600005","2024-11-13T05:30:00",15,34.16446,0.264],
    [38079,"urn:WaterMeter:MC0203J22010600005","2024-11-13T05:45:00",15,35.18964,0.278],
    [38080,"urn:WaterMeter:MC0203J22010600005","2024-11-13T06:00:00",15.1,35.79752,0.313],
    [38081,"urn:WaterMeter:MC0203J22010600005","2024-11-13T06:15:00",15.1,36.274597,0.302],
    [38082,"urn:WaterMeter:MC0203J22010600005","2024-11-13T06:30:00",15,36.797913,0.312],
    [38083,"urn:WaterMeter:MC0203J22010600005","2024-11-13T06:45:00",15.1,37.074486,0.317],
    [38084,"urn:WaterMeter:MC0203J22010600005","2024-11-13T07:00:00",15.1,37.070568,0.299],
    [38085,"urn:WaterMeter:MC0203J22010600005","2024-11-13T07:15:00",15.1,37.240505,0.316],
    [38086,"urn:WaterMeter:MC0203J22010600005","2024-11-13T07:30:00",15.1,37.61363,0.321],
    [38087,"urn:WaterMeter:MC0203J22010600005","2024-11-13T07:45:00",14.3,40.373962,0.331],
    [38088,"urn:WaterMeter:MC0203J22010600005","2024-11-13T08:00:00",14.6,40.421288,0.33],
    [38089,"urn:WaterMeter:MC0203J22010600005","2024-11-13T08:15:00",13.399,40.441845,0.319],
    [38090,"urn:WaterMeter:MC0203J22010600005","2024-11-13T08:30:00",13,40.509727,0.328],
    [38091,"urn:WaterMeter:MC0203J22010600005","2024-11-13T08:45:00",12.699,40.556664,0.33],
    [38092,"urn:WaterMeter:MC0203J22010600005","2024-11-13T09:00:00",12.6,40.569077,0.318],
    [38093,"urn:WaterMeter:MC0203J22010600005","2024-11-13T09:15:00",12.699,40.624157,0.329],
    [38094,"urn:WaterMeter:MC0203J22010600005","2024-11-13T09:30:00",12.699,40.660583,0.327],
    [38095,"urn:WaterMeter:MC0203J22010600005","2024-11-13T09:45:00",12.899,40.702904,0.315],
    [38096,"urn:WaterMeter:MC0203J22010600005","2024-11-13T10:00:00",13.199,40.610195,0.329],
    [38097,"urn:WaterMeter:MC0203J22010600005","2024-11-13T10:15:00",13.5,40.64588,0.332],
    [38098,"urn:WaterMeter:MC0203J22010600005","2024-11-13T10:30:00",13.699,40.75876,0.307],
    [38099,"urn:WaterMeter:MC0203J22010600005","2024-11-13T10:45:00",13.8,39.322716,0.316],
    [38100,"urn:WaterMeter:MC0203J22010600005","2024-11-13T11:00:00",13.899,38.511654,0.296],
    [38101,"urn:WaterMeter:MC0203J22010600005","2024-11-13T11:15:00",14,38.103195,0.295],
    [38102,"urn:WaterMeter:MC0203J22010600005","2024-11-13T11:30:00",14,37.994972,0.295],
    [38103,"urn:WaterMeter:MC0203J22010600005","2024-11-13T11:45:00",14.1,37.65983,0.295],
    [38104,"urn:WaterMeter:MC0203J22010600005","2024-11-13T12:00:00",14.199,37.61832,0.292],
    [38105,"urn:WaterMeter:MC0203J22010600005","2024-11-13T12:15:00",14.199,37.456955,0.284],
    [38106,"urn:WaterMeter:MC0203J22010600005","2024-11-13T12:30:00",14.199,37.192795,0.286],
    [38107,"urn:WaterMeter:MC0203J22010600005","2024-11-13T12:45:00",14.3,36.98333,0.288],
    [38108,"urn:WaterMeter:MC0203J22010600005","2024-11-13T13:00:00",14.3,36.679993,0.275],
    [38109,"urn:WaterMeter:MC0203J22010600005","2024-11-13T13:15:00",14.3,36.563232,0.283],
    [38110,"urn:WaterMeter:MC0203J22010600005","2024-11-13T13:30:00",14.3,36.429756,0.283],
    [38111,"urn:WaterMeter:MC0203J22010600005","2024-11-13T13:45:00",14.3,36.245155,0.281],
    [38112,"urn:WaterMeter:MC0203J22010600005","2024-11-13T14:00:00",14.3,36.24244,0.28],
    [38113,"urn:WaterMeter:MC0203J22010600005","2024-11-13T14:15:00",14.399,35.99457,0.266],
    [38114,"urn:WaterMeter:MC0203J22010600005","2024-11-13T14:30:00",14.399,35.79713,0.262],
    [38115,"urn:WaterMeter:MC0203J22010600005","2024-11-13T14:45:00",14.399,35.696667,0.26],
    [38116,"urn:WaterMeter:MC0203J22010600005","2024-11-13T15:00:00",14.399,35.62219,0.29],
    [38117,"urn:WaterMeter:MC0203J22010600005","2024-11-13T15:15:00",14.3,35.54069,0.269],
    [38118,"urn:WaterMeter:MC0203J22010600005","2024-11-13T15:30:00",14.3,35.494957,0.259],
    [38119,"urn:WaterMeter:MC0203J22010600005","2024-11-13T15:45:00",14.3,35.50698,0.267],
    [38120,"urn:WaterMeter:MC0203J22010600005","2024-11-13T16:00:00",14.3,35.45733,0.268],
    [38121,"urn:WaterMeter:MC0203J22010600005","2024-11-13T16:15:00",14.3,35.334755,0.272],
    [38122,"urn:WaterMeter:MC0203J22010600005","2024-11-13T16:30:00",14.3,35.28739,0.262],
    [38123,"urn:WaterMeter:MC0203J22010600005","2024-11-13T16:45:00",14.199,35.18735,0.263],
    [38124,"urn:WaterMeter:MC0203J22010600005","2024-11-13T17:00:00",14.199,35.083397,0.274],
    [38125,"urn:WaterMeter:MC0203J22010600005","2024-11-13T17:15:00",14.1,35.031803,0.254],
    [38126,"urn:WaterMeter:MC0203J22010600005","2024-11-13T17:30:00",14.1,35.05504,0.26],
    [38127,"urn:WaterMeter:MC0203J22010600005","2024-11-13T17:45:00",14,34.99185,0.262],
    [38128,"urn:WaterMeter:MC0203J22010600005","2024-11-13T18:00:00",14,34.91621,0.268],
    [38129,"urn:WaterMeter:MC0203J22010600005","2024-11-13T18:15:00",13.899,34.89949,0.271],
    [38130,"urn:WaterMeter:MC0203J22010600005","2024-11-13T18:30:00",13.899,34.867336,0.27],
    [38131,"urn:WaterMeter:MC0203J22010600005","2024-11-13T18:45:00",13.899,34.885567,0.262],
    [38132,"urn:WaterMeter:MC0203J22010600005","2024-11-13T19:00:00",13.8,34.87079,0.26],
    [38133,"urn:WaterMeter:MC0203J22010600005","2024-11-13T19:15:00",13.699,34.82583,0.252],
    [38134,"urn:WaterMeter:MC0203J22010600005","2024-11-13T19:30:00",13.699,34.80915,0.283],
    [38135,"urn:WaterMeter:MC0203J22010600005","2024-11-13T19:45:00",13.699,34.808372,0.259],
    [38136,"urn:WaterMeter:MC0203J22010600005","2024-11-13T20:00:00",13.699,34.709072,0.264],
    [38137,"urn:WaterMeter:MC0203J22010600005","2024-11-13T20:15:00",13.699,34.70054,0.27],
    [38138,"urn:WaterMeter:MC0203J22010600005","2024-11-13T20:30:00",13.699,34.63766,0.267],
    [38139,"urn:WaterMeter:MC0203J22010600005","2024-11-13T20:45:00",13.699,34.691227,0.254],
    [38140,"urn:WaterMeter:MC0203J22010600005","2024-11-13T21:00:00",13.699,34.664074,0.255],
    [38141,"urn:WaterMeter:MC0203J22010600005","2024-11-13T21:15:00",13.699,34.643127,0.251],
    [38142,"urn:WaterMeter:MC0203J22010600005","2024-11-13T21:30:00",13.699,34.56861,0.252],
    [38143,"urn:WaterMeter:MC0203J22010600005","2024-11-13T21:45:00",13.8,34.586494,0.258],
    [38144,"urn:WaterMeter:MC0203J22010600005","2024-11-13T22:00:00",13.8,34.512756,0.254],
    [38145,"urn:WaterMeter:MC0203J22010600005","2024-11-13T22:15:00",13.8,34.49534,0.27],
    [38146,"urn:WaterMeter:MC0203J22010600005","2024-11-13T22:30:00",13.8,34.449955,0.267],
    [38147,"urn:WaterMeter:MC0203J22010600005","2024-11-13T22:45:00",13.8,34.477497,0.266],
    [38148,"urn:WaterMeter:MC0203J22010600005","2024-11-13T23:00:00",13.8,34.48603,0.26],
    [38149,"urn:WaterMeter:MC0203J22010600005","2024-11-13T23:15:00",13.8,34.390606,0.259],
    [38150,"urn:WaterMeter:MC0203J22010600005","2024-11-13T23:30:00",13.8,34.42086,0.265],
    [38151,"urn:WaterMeter:MC0203J22010600005","2024-11-13T23:45:00",13.8,34.355656,0.25],
    [38152,"urn:WaterMeter:MC0203J22010600005","2024-11-14T00:00:00",13.8,34.368496,0.256],
    [38153,"urn:WaterMeter:MC0203J22010600005","2024-11-14T00:15:00",13.8,34.374664,0.252],
    [38154,"urn:WaterMeter:MC0203J22010600005","2024-11-14T00:30:00",13.8,34.355267,0.258],
    [38155,"urn:WaterMeter:MC0203J22010600005","2024-11-14T00:45:00",13.699,34.341732,0.252],
    [38156,"urn:WaterMeter:MC0203J22010600005","2024-11-14T01:00:00",13.699,34.326214,0.253],
    [38157,"urn:WaterMeter:MC0203J22010600005","2024-11-14T01:15:00",13.699,34.28393,0.249],
    [38158,"urn:WaterMeter:MC0203J22010600005","2024-11-14T01:30:00",13.6,34.24398,0.256],
    [38159,"urn:WaterMeter:MC0203J22010600005","2024-11-14T01:45:00",13.6,34.283157,0.268],
    [38160,"urn:WaterMeter:MC0203J22010600005","2024-11-14T02:00:00",13.6,34.22028,0.249],
    [38161,"urn:WaterMeter:MC0203J22010600005","2024-11-14T02:15:00",13.6,34.21062,0.264],
    [38162,"urn:WaterMeter:MC0203J22010600005","2024-11-14T02:30:00",13.699,34.241226,0.251],
    [38163,"urn:WaterMeter:MC0203J22010600005","2024-11-14T02:45:00",13.699,34.22885,0.267],
    [38164,"urn:WaterMeter:MC0203J22010600005","2024-11-14T03:00:00",13.699,34.19006,0.258],
    [38165,"urn:WaterMeter:MC0203J22010600005","2024-11-14T03:15:00",13.699,34.1567,0.251],
    [38166,"urn:WaterMeter:MC0203J22010600005","2024-11-14T03:30:00",13.699,34.154762,0.247],
    [38167,"urn:WaterMeter:MC0203J22010600005","2024-11-14T03:45:00",13.699,34.1664,0.252],
    [38168,"urn:WaterMeter:MC0203J22010600005","2024-11-14T04:00:00",13.699,34.1311,0.25],
    [38169,"urn:WaterMeter:MC0203J22010600005","2024-11-14T04:15:00",13.699,34.1664,0.261],
    [38170,"urn:WaterMeter:MC0203J22010600005","2024-11-14T04:30:00",13.699,34.06167,0.259],
    [38171,"urn:WaterMeter:MC0203J22010600005","2024-11-14T04:45:00",13.699,34.112095,0.25],
    [38172,"urn:WaterMeter:MC0203J22010600005","2024-11-14T05:00:00",13.699,34.11287,0.253],
    [38173,"urn:WaterMeter:MC0203J22010600005","2024-11-14T05:15:00",13.899,34.126057,0.253],
    [38174,"urn:WaterMeter:MC0203J22010600005","2024-11-14T05:30:00",14.1,34.501156,0.262],
    [38175,"urn:WaterMeter:MC0203J22010600005","2024-11-14T05:45:00",14.199,35.256786,0.272],
    [38176,"urn:WaterMeter:MC0203J22010600005","2024-11-14T06:00:00",14.3,35.820755,0.262],
    [38177,"urn:WaterMeter:MC0203J22010600005","2024-11-14T06:15:00",14.3,36.084953,0.282],
    [38178,"urn:WaterMeter:MC0203J22010600005","2024-11-14T06:30:00",14.399,36.2502,0.277],
    [38179,"urn:WaterMeter:MC0203J22010600005","2024-11-14T06:45:00",14.5,36.3592,0.276],
    [38180,"urn:WaterMeter:MC0203J22010600005","2024-11-14T07:00:00",14.5,36.34756,0.276],
    [38181,"urn:WaterMeter:MC0203J22010600005","2024-11-14T07:15:00",14.6,36.398376,0.278],
    [38182,"urn:WaterMeter:MC0203J22010600005","2024-11-14T07:30:00",14.6,36.405746,0.293],
    [38183,"urn:WaterMeter:MC0203J22010600005","2024-11-14T07:45:00",14.699,36.405746,0.28],
    [38184,"urn:WaterMeter:MC0203J22010600005","2024-11-14T08:00:00",14.8,36.436,0.289],
    [38185,"urn:WaterMeter:MC0203J22010600005","2024-11-14T08:15:00",14.8,36.44954,0.289],
    [38186,"urn:WaterMeter:MC0203J22010600005","2024-11-14T08:30:00",14.8,36.230026,0.283],
    [38187,"urn:WaterMeter:MC0203J22010600005","2024-11-14T08:45:00",14.8,36.08375,0.283],
    [38188,"urn:WaterMeter:MC0203J22010600005","2024-11-14T09:00:00",14.899,35.89294,0.26],
    [38189,"urn:WaterMeter:MC0203J22010600005","2024-11-14T09:15:00",14.899,35.737396,0.275],
    [38190,"urn:WaterMeter:MC0203J22010600005","2024-11-14T09:30:00",14.899,35.680374,0.264],
    [38191,"urn:WaterMeter:MC0203J22010600005","2024-11-14T09:45:00",15,35.48448,0.261],
    [38192,"urn:WaterMeter:MC0203J22010600005","2024-11-14T10:00:00",15,35.43363,0.26],
    [38193,"urn:WaterMeter:MC0203J22010600005","2024-11-14T10:15:00",15.1,35.364582,0.285],
    [38194,"urn:WaterMeter:MC0203J22010600005","2024-11-14T10:30:00",15.199,35.304497,0.262],
    [38195,"urn:WaterMeter:MC0203J22010600005","2024-11-14T10:45:00",15.3,35.252132,0.265],
    [38196,"urn:WaterMeter:MC0203J22010600005","2024-11-14T11:00:00",15.399,35.220673,0.265],
    [38197,"urn:WaterMeter:MC0203J22010600005","2024-11-14T11:15:00",15.5,35.183086,0.278],
    [38198,"urn:WaterMeter:MC0203J22010600005","2024-11-14T11:30:00",15.699,35.02133,0.262],
    [38199,"urn:WaterMeter:MC0203J22010600005","2024-11-14T11:45:00",15.8,35.035255,0.274],
    [38200,"urn:WaterMeter:MC0203J22010600005","2024-11-14T12:00:00",16,34.907677,0.27],
    [38201,"urn:WaterMeter:MC0203J22010600005","2024-11-14T12:15:00",16.1,34.806435,0.259],
    [38202,"urn:WaterMeter:MC0203J22010600005","2024-11-14T12:30:00",16.2,34.728077,0.279],
    [38203,"urn:WaterMeter:MC0203J22010600005","2024-11-14T12:45:00",16.299,34.71679,0.277],
    [38204,"urn:WaterMeter:MC0203J22010600005","2024-11-14T13:00:00",16.399,34.648907,0.256],
    [38205,"urn:WaterMeter:MC0203J22010600005","2024-11-14T13:15:00",16.399,34.630714,0.261],
    [38206,"urn:WaterMeter:MC0203J22010600005","2024-11-14T13:30:00",16.5,34.59697,0.28],
    [38207,"urn:WaterMeter:MC0203J22010600005","2024-11-14T13:45:00",16.6,34.51512,0.255],
    [38208,"urn:WaterMeter:MC0203J22010600005","2024-11-14T14:00:00",16.7,34.437153,0.263],
    [38209,"urn:WaterMeter:MC0203J22010600005","2024-11-14T14:15:00",16.799,34.44685,0.256],
    [38210,"urn:WaterMeter:MC0203J22010600005","2024-11-14T14:30:00",19.1,40.12683,0.296],
    [38211,"urn:WaterMeter:MC0203J22010600005","2024-11-14T14:45:00",19,39.838272,0.293],
    [38212,"urn:WaterMeter:MC0203J22010600005","2024-11-14T15:00:00",18.7,39.82237,0.288],
    [38213,"urn:WaterMeter:MC0203J22010600005","2024-11-14T15:15:00",18.6,39.8278,0.286],
    [38214,"urn:WaterMeter:MC0203J22010600005","2024-11-14T15:30:00",18.5,39.87629,0.287],
    [38215,"urn:WaterMeter:MC0203J22010600005","2024-11-14T15:45:00",18.399,39.883617,0.298],
    [38216,"urn:WaterMeter:MC0203J22010600005","2024-11-14T16:00:00",18.2,39.9034,0.301],
    [38217,"urn:WaterMeter:MC0203J22010600005","2024-11-14T16:15:00",18,39.941803,0.297],
    [38218,"urn:WaterMeter:MC0203J22010600005","2024-11-14T16:30:00",17.899,40.04386,0.296],
    [38219,"urn:WaterMeter:MC0203J22010600005","2024-11-14T16:45:00",17.7,39.273064,0.326],
    [38220,"urn:WaterMeter:MC0203J22010600005","2024-11-14T17:00:00",17.6,38.23935,0.315],
    [38221,"urn:WaterMeter:MC0203J22010600005","2024-11-14T17:15:00",17.399,37.841366,0.3],
    [38222,"urn:WaterMeter:MC0203J22010600005","2024-11-14T17:30:00",17.299,37.560913,0.288],
    [38223,"urn:WaterMeter:MC0203J22010600005","2024-11-14T17:45:00",17.2,37.519794,0.296],
    [38224,"urn:WaterMeter:MC0203J22010600005","2024-11-14T18:00:00",17.2,37.489887,0.291],
    [38225,"urn:WaterMeter:MC0203J22010600005","2024-11-14T18:15:00",17.1,37.39877,0.289],
    [38226,"urn:WaterMeter:MC0203J22010600005","2024-11-14T18:30:00",17,37.26452,0.319],
    [38227,"urn:WaterMeter:MC0203J22010600005","2024-11-14T18:45:00",17,37.136936,0.289],
    [38228,"urn:WaterMeter:MC0203J22010600005","2024-11-14T19:00:00",16.899,37.10199,0.286],
    [38229,"urn:WaterMeter:MC0203J22010600005","2024-11-14T19:15:00",16.899,36.972816,0.288],
    [38230,"urn:WaterMeter:MC0203J22010600005","2024-11-14T19:30:00",16.799,36.823128,0.288],
    [38231,"urn:WaterMeter:MC0203J22010600005","2024-11-14T19:45:00",16.799,36.52134,0.281],
    [38232,"urn:WaterMeter:MC0203J22010600005","2024-11-14T20:00:00",16.7,36.446476,0.285],
    [38233,"urn:WaterMeter:MC0203J22010600005","2024-11-14T20:15:00",16.7,36.318855,0.267],
    [38234,"urn:WaterMeter:MC0203J22010600005","2024-11-14T20:30:00",16.7,36.31649,0.307],
    [38235,"urn:WaterMeter:MC0203J22010600005","2024-11-14T20:45:00",16.7,36.247093,0.274],
    [38236,"urn:WaterMeter:MC0203J22010600005","2024-11-14T21:00:00",16.7,35.89527,0.277],
    [38237,"urn:WaterMeter:MC0203J22010600005","2024-11-14T21:15:00",16.6,35.76222,0.264],
    [38238,"urn:WaterMeter:MC0203J22010600005","2024-11-14T21:30:00",16.6,35.694298,0.281],
    [38239,"urn:WaterMeter:MC0203J22010600005","2024-11-14T21:45:00",16.5,35.722652,0.261],
    [38240,"urn:WaterMeter:MC0203J22010600005","2024-11-14T22:00:00",16.5,35.622578,0.264],
    [38241,"urn:WaterMeter:MC0203J22010600005","2024-11-14T22:15:00",16.5,35.623352,0.262],
    [38242,"urn:WaterMeter:MC0203J22010600005","2024-11-14T22:30:00",16.5,35.5884,0.261],
    [38243,"urn:WaterMeter:MC0203J22010600005","2024-11-14T22:45:00",16.399,35.495346,0.265],
    [38244,"urn:WaterMeter:MC0203J22010600005","2024-11-14T23:00:00",16.399,35.385143,0.28],
    [38245,"urn:WaterMeter:MC0203J22010600005","2024-11-14T23:15:00",16.399,35.312256,0.282],
    [38246,"urn:WaterMeter:MC0203J22010600005","2024-11-14T23:30:00",16.399,35.295578,0.282],
    [38247,"urn:WaterMeter:MC0203J22010600005","2024-11-14T23:45:00",16.299,35.228043,0.266],
    [38248,"urn:WaterMeter:MC0203J22010600005","2024-11-15T00:00:00",16.299,35.215668,0.255],
    [38249,"urn:WaterMeter:MC0203J22010600005","2024-11-15T00:15:00",16.299,35.148174,0.273],
    [38250,"urn:WaterMeter:MC0203J22010600005","2024-11-15T00:30:00",16.299,35.17339,0.266],
    [38251,"urn:WaterMeter:MC0203J22010600005","2024-11-15T00:45:00",16.299,35.065514,0.261],
    [38252,"urn:WaterMeter:MC0203J22010600005","2024-11-15T01:00:00",16.299,35.020554,0.258],
    [38253,"urn:WaterMeter:MC0203J22010600005","2024-11-15T01:15:00",16.299,35.185413,0.284],
    [38254,"urn:WaterMeter:MC0203J22010600005","2024-11-15T01:30:00",16.299,36.173393,0.271],
    [38255,"urn:WaterMeter:MC0203J22010600005","2024-11-15T01:45:00",16.299,36.486816,0.277],
    [38256,"urn:WaterMeter:MC0203J22010600005","2024-11-15T02:00:00",16.299,36.572155,0.275],
    [38257,"urn:WaterMeter:MC0203J22010600005","2024-11-15T02:15:00",16.299,36.692017,0.285],
    [38258,"urn:WaterMeter:MC0203J22010600005","2024-11-15T02:30:00",16.299,36.706367,0.279],
    [38259,"urn:WaterMeter:MC0203J22010600005","2024-11-15T02:45:00",16.2,36.74555,0.291],
    [38260,"urn:WaterMeter:MC0203J22010600005","2024-11-15T03:00:00",16.2,36.76339,0.265],
    [38261,"urn:WaterMeter:MC0203J22010600005","2024-11-15T03:15:00",16.2,36.78356,0.279],
    [38262,"urn:WaterMeter:MC0203J22010600005","2024-11-15T03:30:00",16.1,36.77852,0.273],
    [38263,"urn:WaterMeter:MC0203J22010600005","2024-11-15T03:45:00",16.1,36.852993,0.274],
    [38264,"urn:WaterMeter:MC0203J22010600005","2024-11-15T04:00:00",16.1,36.712574,0.272],
    [38265,"urn:WaterMeter:MC0203J22010600005","2024-11-15T04:15:00",16,36.699776,0.274],
    [38266,"urn:WaterMeter:MC0203J22010600005","2024-11-15T04:30:00",16,36.63228,0.27],
    [38267,"urn:WaterMeter:MC0203J22010600005","2024-11-15T04:45:00",15.899,36.68891,0.265],
    [38268,"urn:WaterMeter:MC0203J22010600005","2024-11-15T05:00:00",15.899,36.626034,0.261],
    [38269,"urn:WaterMeter:MC0203J22010600005","2024-11-15T05:15:00",15.899,36.71529,0.284],
    [38270,"urn:WaterMeter:MC0203J22010600005","2024-11-15T05:30:00",16.2,36.833214,0.257],
    [38271,"urn:WaterMeter:MC0203J22010600005","2024-11-15T05:45:00",16.2,36.84834,0.272],
    [38272,"urn:WaterMeter:MC0203J22010600005","2024-11-15T06:00:00",16.299,36.8817,0.274],
    [38273,"urn:WaterMeter:MC0203J22010600005","2024-11-15T06:15:00",16.299,36.922817,0.26],
    [38274,"urn:WaterMeter:MC0203J22010600005","2024-11-15T06:30:00",16.299,37.05664,0.265],
    [38275,"urn:WaterMeter:MC0203J22010600005","2024-11-15T06:45:00",16.299,37.31417,0.289],
    [38276,"urn:WaterMeter:MC0203J22010600005","2024-11-15T07:00:00",16.299,37.449196,0.267],
    [38277,"urn:WaterMeter:MC0203J22010600005","2024-11-15T07:15:00",16.299,37.489113,0.265],
    [38278,"urn:WaterMeter:MC0203J22010600005","2024-11-15T07:30:00",16.299,37.543846,0.274],
    [38279,"urn:WaterMeter:MC0203J22010600005","2024-11-15T07:45:00",16.399,37.56363,0.26],
    [38280,"urn:WaterMeter:MC0203J22010600005","2024-11-15T08:00:00",16.399,37.58725,0.272],
    [38281,"urn:WaterMeter:MC0203J22010600005","2024-11-15T08:15:00",16.399,37.33632,0.267],
    [38282,"urn:WaterMeter:MC0203J22010600005","2024-11-15T08:30:00",16.399,37.10668,0.259],
    [38283,"urn:WaterMeter:MC0203J22010600005","2024-11-15T08:45:00",16.299,36.92243,0.267],
    [38284,"urn:WaterMeter:MC0203J22010600005","2024-11-15T09:00:00",16.299,36.719944,0.273],
    [38285,"urn:WaterMeter:MC0203J22010600005","2024-11-15T09:15:00",16.299,36.56052,0.257],
    [38286,"urn:WaterMeter:MC0203J22010600005","2024-11-15T09:30:00",16.299,36.30373,0.266],
    [38287,"urn:WaterMeter:MC0203J22010600005","2024-11-15T09:45:00",16.299,36.16874,0.261],
    [38288,"urn:WaterMeter:MC0203J22010600005","2024-11-15T10:00:00",16.299,36.11637,0.273],
    [38289,"urn:WaterMeter:MC0203J22010600005","2024-11-15T10:15:00",16.299,36.05819,0.259],
    [38290,"urn:WaterMeter:MC0203J22010600005","2024-11-15T10:30:00",16.299,35.960438,0.25],
    [38291,"urn:WaterMeter:MC0203J22010600005","2024-11-15T10:45:00",16.299,35.884796,0.254],
    [38292,"urn:WaterMeter:MC0203J22010600005","2024-11-15T11:00:00",16.299,35.876263,0.249],
    [38293,"urn:WaterMeter:MC0203J22010600005","2024-11-15T11:15:00",16.299,35.71486,0.264],
    [38294,"urn:WaterMeter:MC0203J22010600005","2024-11-15T11:30:00",16.299,35.60741,0.25],
    [38295,"urn:WaterMeter:MC0203J22010600005","2024-11-15T11:45:00",16.399,35.548874,0.24],
    [38296,"urn:WaterMeter:MC0203J22010600005","2024-11-15T12:00:00",16.399,35.37393,0.247],
    [38297,"urn:WaterMeter:MC0203J22010600005","2024-11-15T12:15:00",16.399,35.269974,0.25],
    [38298,"urn:WaterMeter:MC0203J22010600005","2024-11-15T12:30:00",16.399,35.188866,0.265],
    [38299,"urn:WaterMeter:MC0203J22010600005","2024-11-15T12:45:00",16.399,35.20248,0.243],
    [38300,"urn:WaterMeter:MC0203J22010600005","2024-11-15T13:00:00",16.399,35.143906,0.253],
    [38301,"urn:WaterMeter:MC0203J22010600005","2024-11-15T13:15:00",16.399,35.10279,0.26],
    [38302,"urn:WaterMeter:MC0203J22010600005","2024-11-15T13:30:00",16.399,35.065514,0.244],
    [38303,"urn:WaterMeter:MC0203J22010600005","2024-11-15T13:45:00",16.399,35.00694,0.253],
    [38304,"urn:WaterMeter:MC0203J22010600005","2024-11-15T14:00:00",16.399,34.962757,0.249],
    [38305,"urn:WaterMeter:MC0203J22010600005","2024-11-15T14:15:00",16.399,34.91811,0.264],
    [38306,"urn:WaterMeter:MC0203J22010600005","2024-11-15T14:30:00",16.399,34.852554,0.247],
    [38307,"urn:WaterMeter:MC0203J22010600005","2024-11-15T14:45:00",16.399,34.815357,0.258],
    [38308,"urn:WaterMeter:MC0203J22010600005","2024-11-15T15:00:00",16.399,34.79282,0.25],
    [38309,"urn:WaterMeter:MC0203J22010600005","2024-11-15T15:15:00",16.399,34.736187,0.24],
    [38310,"urn:WaterMeter:MC0203J22010600005","2024-11-15T15:30:00",16.399,34.714115,0.273],
    [38311,"urn:WaterMeter:MC0203J22010600005","2024-11-15T15:45:00",16.399,34.70593,0.24],
    [38312,"urn:WaterMeter:MC0203J22010600005","2024-11-15T16:00:00",16.399,34.617138,0.245],
    [38313,"urn:WaterMeter:MC0203J22010600005","2024-11-15T16:15:00",16.399,34.614037,0.249],
    [38314,"urn:WaterMeter:MC0203J22010600005","2024-11-15T16:30:00",16.399,34.558956,0.242],
    [38315,"urn:WaterMeter:MC0203J22010600005","2024-11-15T16:45:00",16.299,34.590725,0.246],
    [38316,"urn:WaterMeter:MC0203J22010600005","2024-11-15T17:00:00",16.299,34.573307,0.244],
    [38317,"urn:WaterMeter:MC0203J22010600005","2024-11-15T17:15:00",16.299,34.53176,0.259],
    [38318,"urn:WaterMeter:MC0203J22010600005","2024-11-15T17:30:00",16.299,34.539173,0.25],
    [38319,"urn:WaterMeter:MC0203J22010600005","2024-11-15T17:45:00",16.299,34.50775,0.238],
    [38320,"urn:WaterMeter:MC0203J22010600005","2024-11-15T18:00:00",16.2,34.422802,0.252],
    [38321,"urn:WaterMeter:MC0203J22010600005","2024-11-15T18:15:00",16.2,34.43948,0.244],
    [38322,"urn:WaterMeter:MC0203J22010600005","2024-11-15T18:30:00",16.2,34.41423,0.253],
    [38323,"urn:WaterMeter:MC0203J22010600005","2024-11-15T18:45:00",16.2,34.409225,0.241],
    [38324,"urn:WaterMeter:MC0203J22010600005","2024-11-15T19:00:00",16.2,34.40263,0.242],
    [38325,"urn:WaterMeter:MC0203J22010600005","2024-11-15T19:15:00",16.2,34.319195,0.244],
    [38326,"urn:WaterMeter:MC0203J22010600005","2024-11-15T19:30:00",16.1,34.32699,0.247],
    [38327,"urn:WaterMeter:MC0203J22010600005","2024-11-15T19:45:00",16.1,34.37699,0.245],
    [38328,"urn:WaterMeter:MC0203J22010600005","2024-11-15T20:00:00",16.1,34.325825,0.242],
    [38329,"urn:WaterMeter:MC0203J22010600005","2024-11-15T20:15:00",16.1,34.3138,0.247],
    [38330,"urn:WaterMeter:MC0203J22010600005","2024-11-15T20:30:00",16.1,34.301003,0.241],
    [38331,"urn:WaterMeter:MC0203J22010600005","2024-11-15T20:45:00",16,34.28471,0.27],
    [38332,"urn:WaterMeter:MC0203J22010600005","2024-11-15T21:00:00",16,34.224197,0.253],
    [38333,"urn:WaterMeter:MC0203J22010600005","2024-11-15T21:15:00",16,34.274235,0.242],
    [38334,"urn:WaterMeter:MC0203J22010600005","2024-11-15T21:30:00",16,34.20907,0.242],
    [38335,"urn:WaterMeter:MC0203J22010600005","2024-11-15T21:45:00",16,34.178425,0.242],
    [38336,"urn:WaterMeter:MC0203J22010600005","2024-11-15T22:00:00",16,34.234283,0.249],
    [38337,"urn:WaterMeter:MC0203J22010600005","2024-11-15T22:15:00",16,34.240448,0.251],
    [38338,"urn:WaterMeter:MC0203J22010600005","2024-11-15T22:30:00",16,34.20868,0.238],
    [38339,"urn:WaterMeter:MC0203J22010600005","2024-11-15T22:45:00",16,34.203636,0.242],
    [38340,"urn:WaterMeter:MC0203J22010600005","2024-11-15T23:00:00",16,34.1664,0.249],
    [38341,"urn:WaterMeter:MC0203J22010600005","2024-11-15T23:15:00",15.899,34.171444,0.251],
    [38342,"urn:WaterMeter:MC0203J22010600005","2024-11-15T23:30:00",15.899,34.1311,0.238],
    [38343,"urn:WaterMeter:MC0203J22010600005","2024-11-15T23:45:00",15.899,34.089207,0.242],
    [38344,"urn:WaterMeter:MC0203J22010600005","2024-11-16T00:00:00",15.899,34.12722,0.243],
    [38345,"urn:WaterMeter:MC0203J22010600005","2024-11-16T00:15:00",15.899,34.096966,0.244],
    [38346,"urn:WaterMeter:MC0203J22010600005","2024-11-16T00:30:00",15.899,34.063217,0.248],
    [38347,"urn:WaterMeter:MC0203J22010600005","2024-11-16T00:45:00",15.899,34.06167,0.237],
    [38348,"urn:WaterMeter:MC0203J22010600005","2024-11-16T01:00:00",15.899,34.033348,0.241],
    [38349,"urn:WaterMeter:MC0203J22010600005","2024-11-16T01:15:00",15.8,34.09037,0.24],
    [38350,"urn:WaterMeter:MC0203J22010600005","2024-11-16T01:30:00",15.8,34.043434,0.249],
    [38351,"urn:WaterMeter:MC0203J22010600005","2024-11-16T01:45:00",15.8,34.07175,0.246],
    [38352,"urn:WaterMeter:MC0203J22010600005","2024-11-16T02:00:00",15.8,34.048866,0.241],
    [38353,"urn:WaterMeter:MC0203J22010600005","2024-11-16T02:15:00",15.8,34.01977,0.254],
    [38354,"urn:WaterMeter:MC0203J22010600005","2024-11-16T02:30:00",15.8,34.01628,0.235],
    [38355,"urn:WaterMeter:MC0203J22010600005","2024-11-16T02:45:00",15.8,34.01279,0.222],
    [38356,"urn:WaterMeter:MC0203J22010600005","2024-11-16T03:00:00",15.8,33.96659,0.233],
    [38357,"urn:WaterMeter:MC0203J22010600005","2024-11-16T03:15:00",15.699,34.006935,0.243],
    [38358,"urn:WaterMeter:MC0203J22010600005","2024-11-16T03:30:00",15.699,33.968918,0.242],
    [38359,"urn:WaterMeter:MC0203J22010600005","2024-11-16T03:45:00",15.699,33.99417,0.249],
    [38360,"urn:WaterMeter:MC0203J22010600005","2024-11-16T04:00:00",15.699,33.965466,0.246],
    [38361,"urn:WaterMeter:MC0203J22010600005","2024-11-16T04:15:00",15.699,33.94099,0.234],
    [38362,"urn:WaterMeter:MC0203J22010600005","2024-11-16T04:30:00",15.699,33.927452,0.237],
    [38363,"urn:WaterMeter:MC0203J22010600005","2024-11-16T04:45:00",15.699,33.95383,0.243],
    [38364,"urn:WaterMeter:MC0203J22010600005","2024-11-16T05:00:00",15.6,33.923573,0.236],
    [38365,"urn:WaterMeter:MC0203J22010600005","2024-11-16T05:15:00",15.6,33.95961,0.234],
    [38366,"urn:WaterMeter:MC0203J22010600005","2024-11-16T05:30:00",15.6,33.939438,0.237],
    [38367,"urn:WaterMeter:MC0203J22010600005","2024-11-16T05:45:00",15.5,33.906506,0.237],
    [38368,"urn:WaterMeter:MC0203J22010600005","2024-11-16T06:00:00",15.5,33.87272,0.234],
    [38369,"urn:WaterMeter:MC0203J22010600005","2024-11-16T06:15:00",15.5,33.87078,0.249],
    [38370,"urn:WaterMeter:MC0203J22010600005","2024-11-16T06:30:00",15.5,33.90065,0.232],
    [38371,"urn:WaterMeter:MC0203J22010600005","2024-11-16T06:45:00",15.399,33.909184,0.239],
    [38372,"urn:WaterMeter:MC0203J22010600005","2024-11-16T07:00:00",15.399,33.85802,0.237],
    [38373,"urn:WaterMeter:MC0203J22010600005","2024-11-16T07:15:00",15.399,33.86151,0.231],
    [38374,"urn:WaterMeter:MC0203J22010600005","2024-11-16T07:30:00",15.399,33.88979,0.241],
    [38375,"urn:WaterMeter:MC0203J22010600005","2024-11-16T07:45:00",15.5,33.817677,0.238],
    [38376,"urn:WaterMeter:MC0203J22010600005","2024-11-16T08:00:00",15.5,33.814537,0.233],
    [38377,"urn:WaterMeter:MC0203J22010600005","2024-11-16T08:15:00",15.5,33.806427,0.239],
    [38378,"urn:WaterMeter:MC0203J22010600005","2024-11-16T08:30:00",15.5,33.83009,0.233],
    [38379,"urn:WaterMeter:MC0203J22010600005","2024-11-16T08:45:00",15.5,33.825825,0.239],
    [38380,"urn:WaterMeter:MC0203J22010600005","2024-11-16T09:00:00",15.5,33.802937,0.241],
    [38381,"urn:WaterMeter:MC0203J22010600005","2024-11-16T09:15:00",15.6,33.74902,0.229],
    [38382,"urn:WaterMeter:MC0203J22010600005","2024-11-16T09:30:00",15.6,33.762207,0.232],
    [38383,"urn:WaterMeter:MC0203J22010600005","2024-11-16T09:45:00",15.6,33.78393,0.234],
    [38384,"urn:WaterMeter:MC0203J22010600005","2024-11-16T10:00:00",15.699,33.726093,0.23],
    [38385,"urn:WaterMeter:MC0203J22010600005","2024-11-16T10:15:00",15.8,33.68769,0.237],
    [38386,"urn:WaterMeter:MC0203J22010600005","2024-11-16T10:30:00",15.899,33.697777,0.236],
    [38387,"urn:WaterMeter:MC0203J22010600005","2024-11-16T10:45:00",16.1,33.692772,0.229],
    [38388,"urn:WaterMeter:MC0203J22010600005","2024-11-16T11:00:00",16.1,33.59964,0.231],
    [38389,"urn:WaterMeter:MC0203J22010600005","2024-11-16T11:15:00",16.2,33.64196,0.226],
    [38390,"urn:WaterMeter:MC0203J22010600005","2024-11-16T11:30:00",16.2,33.59964,0.227],
    [38391,"urn:WaterMeter:MC0203J22010600005","2024-11-16T11:45:00",16.2,33.577953,0.252],
    [38392,"urn:WaterMeter:MC0203J22010600005","2024-11-16T12:00:00",16.299,33.543007,0.227],
    [38393,"urn:WaterMeter:MC0203J22010600005","2024-11-16T12:15:00",16.299,33.51046,0.254],
    [38394,"urn:WaterMeter:MC0203J22010600005","2024-11-16T12:30:00",16.399,33.52167,0.223],
    [38395,"urn:WaterMeter:MC0203J22010600005","2024-11-16T12:45:00",16.5,33.49029,0.227],
    [38396,"urn:WaterMeter:MC0203J22010600005","2024-11-16T13:00:00",16.5,33.47396,0.23],
    [38397,"urn:WaterMeter:MC0203J22010600005","2024-11-16T13:15:00",16.6,33.43556,0.24],
    [38398,"urn:WaterMeter:MC0203J22010600005","2024-11-16T13:30:00",16.7,33.471672,0.238],
    [38399,"urn:WaterMeter:MC0203J22010600005","2024-11-16T13:45:00",16.7,33.432106,0.234],
    [38400,"urn:WaterMeter:MC0203J22010600005","2024-11-16T14:00:00",16.7,33.415775,0.243],
    [38401,"urn:WaterMeter:MC0203J22010600005","2024-11-16T14:15:00",16.7,33.334743,0.232],
    [38402,"urn:WaterMeter:MC0203J22010600005","2024-11-16T14:30:00",16.799,33.36965,0.228],
    [38403,"urn:WaterMeter:MC0203J22010600005","2024-11-16T14:45:00",16.799,33.2707,0.238],
    [38404,"urn:WaterMeter:MC0203J22010600005","2024-11-16T15:00:00",16.899,33.229584,0.225],
    [38405,"urn:WaterMeter:MC0203J22010600005","2024-11-16T15:15:00",16.899,33.30216,0.223],
    [38406,"urn:WaterMeter:MC0203J22010600005","2024-11-16T15:30:00",16.899,33.245914,0.236],
    [38407,"urn:WaterMeter:MC0203J22010600005","2024-11-16T15:45:00",16.899,33.219925,0.241],
    [38408,"urn:WaterMeter:MC0203J22010600005","2024-11-16T16:00:00",16.799,33.20014,0.237],
    [38409,"urn:WaterMeter:MC0203J22010600005","2024-11-16T16:15:00",16.799,33.189667,0.233],
    [38410,"urn:WaterMeter:MC0203J22010600005","2024-11-16T16:45:00",16.7,33.221474,0.229],
    [38411,"urn:WaterMeter:MC0203J22010600005","2024-11-16T17:00:00",16.7,33.20557,0.241],
    [38412,"urn:WaterMeter:MC0203J22010600005","2024-11-16T17:15:00",16.6,33.22807,0.239],
    [38413,"urn:WaterMeter:MC0203J22010600005","2024-11-16T17:30:00",16.6,33.183422,0.246],
    [38414,"urn:WaterMeter:MC0203J22010600005","2024-11-16T17:45:00",16.5,33.19351,0.227],
    [38415,"urn:WaterMeter:MC0203J22010600005","2024-11-16T18:00:00",16.5,33.18695,0.23],
    [38416,"urn:WaterMeter:MC0203J22010600005","2024-11-16T18:15:00",16.5,33.22109,0.24],
    [38417,"urn:WaterMeter:MC0203J22010600005","2024-11-16T18:30:00",16.5,33.1714,0.236],
    [38418,"urn:WaterMeter:MC0203J22010600005","2024-11-16T18:45:00",16.5,33.160576,0.227],
    [38419,"urn:WaterMeter:MC0203J22010600005","2024-11-16T19:00:00",16.5,33.215267,0.249],
    [38420,"urn:WaterMeter:MC0203J22010600005","2024-11-16T19:15:00",16.5,33.16519,0.243],
    [38421,"urn:WaterMeter:MC0203J22010600005","2024-11-16T19:30:00",16.5,33.16911,0.242],
    [38422,"urn:WaterMeter:MC0203J22010600005","2024-11-16T19:45:00",16.5,33.156696,0.236],
    [38423,"urn:WaterMeter:MC0203J22010600005","2024-11-16T20:00:00",16.5,33.181908,0.228],
    [38424,"urn:WaterMeter:MC0203J22010600005","2024-11-16T20:15:00",16.5,33.190792,0.233],
    [38425,"urn:WaterMeter:MC0203J22010600005","2024-11-16T20:30:00",16.5,33.181133,0.23],
    [38426,"urn:WaterMeter:MC0203J22010600005","2024-11-16T20:45:00",16.5,33.129932,0.233],
    [38427,"urn:WaterMeter:MC0203J22010600005","2024-11-16T21:00:00",16.5,33.12023,0.224],
    [38428,"urn:WaterMeter:MC0203J22010600005","2024-11-16T21:15:00",16.5,33.128765,0.25],
    [38429,"urn:WaterMeter:MC0203J22010600005","2024-11-16T21:30:00",16.399,33.181908,0.237],
    [38430,"urn:WaterMeter:MC0203J22010600005","2024-11-16T21:45:00",16.399,33.141567,0.23],
    [38431,"urn:WaterMeter:MC0203J22010600005","2024-11-16T22:00:00",16.399,33.15278,0.223],
    [38432,"urn:WaterMeter:MC0203J22010600005","2024-11-16T22:15:00",16.399,33.107006,0.239],
    [38433,"urn:WaterMeter:MC0203J22010600005","2024-11-16T22:30:00",16.399,33.181133,0.227],
    [38434,"urn:WaterMeter:MC0203J22010600005","2024-11-16T22:45:00",16.299,33.13226,0.228],
    [38435,"urn:WaterMeter:MC0203J22010600005","2024-11-16T23:00:00",16.299,33.131096,0.225],
    [38436,"urn:WaterMeter:MC0203J22010600005","2024-11-16T23:15:00",16.2,33.125237,0.232],
    [38437,"urn:WaterMeter:MC0203J22010600005","2024-11-16T23:30:00",16.1,33.10278,0.23],
    [38438,"urn:WaterMeter:MC0203J22010600005","2024-11-16T23:45:00",16.1,33.113987,0.224],
    [38439,"urn:WaterMeter:MC0203J22010600005","2024-11-17T00:00:00",16,33.13963,0.238],
    [38440,"urn:WaterMeter:MC0203J22010600005","2024-11-17T00:15:00",16,33.138077,0.232],
    [38441,"urn:WaterMeter:MC0203J22010600005","2024-11-17T00:30:00",15.899,33.08571,0.23],
    [38442,"urn:WaterMeter:MC0203J22010600005","2024-11-17T00:45:00",15.899,33.09653,0.227],
    [38443,"urn:WaterMeter:MC0203J22010600005","2024-11-17T01:00:00",15.899,33.15433,0.242],
    [38444,"urn:WaterMeter:MC0203J22010600005","2024-11-17T01:15:00",15.899,33.110924,0.231],
    [38445,"urn:WaterMeter:MC0203J22010600005","2024-11-17T01:30:00",15.899,33.079502,0.231],
    [38446,"urn:WaterMeter:MC0203J22010600005","2024-11-17T01:45:00",15.899,33.125626,0.247],
    [38447,"urn:WaterMeter:MC0203J22010600005","2024-11-17T02:00:00",15.899,33.103554,0.244],
    [38448,"urn:WaterMeter:MC0203J22010600005","2024-11-17T02:15:00",15.899,33.05972,0.229],
    [38449,"urn:WaterMeter:MC0203J22010600005","2024-11-17T02:30:00",15.8,33.155106,0.238],
    [38450,"urn:WaterMeter:MC0203J22010600005","2024-11-17T02:45:00",15.699,33.097736,0.235],
    [38451,"urn:WaterMeter:MC0203J22010600005","2024-11-17T03:00:00",15.699,33.076363,0.226],
    [38452,"urn:WaterMeter:MC0203J22010600005","2024-11-17T03:15:00",15.6,33.125626,0.227],
    [38453,"urn:WaterMeter:MC0203J22010600005","2024-11-17T03:30:00",15.5,33.099285,0.233],
    [38454,"urn:WaterMeter:MC0203J22010600005","2024-11-17T03:45:00",15.5,33.09731,0.228],
    [38455,"urn:WaterMeter:MC0203J22010600005","2024-11-17T04:00:00",15.3,33.108597,0.234],
    [38456,"urn:WaterMeter:MC0203J22010600005","2024-11-17T04:15:00",15.3,33.123726,0.209],
    [38457,"urn:WaterMeter:MC0203J22010600005","2024-11-17T04:30:00",15.199,33.081055,0.23],
    [38458,"urn:WaterMeter:MC0203J22010600005","2024-11-17T04:45:00",15.1,33.096146,0.228],
    [38459,"urn:WaterMeter:MC0203J22010600005","2024-11-17T05:00:00",15,33.14351,0.232],
    [38460,"urn:WaterMeter:MC0203J22010600005","2024-11-17T05:15:00",15,33.08959,0.226],
    [38461,"urn:WaterMeter:MC0203J22010600005","2024-11-17T05:30:00",14.899,33.137688,0.228],
    [38462,"urn:WaterMeter:MC0203J22010600005","2024-11-17T05:45:00",14.8,33.081833,0.235],
    [38463,"urn:WaterMeter:MC0203J22010600005","2024-11-17T06:00:00",14.8,33.089977,0.223],
    [38464,"urn:WaterMeter:MC0203J22010600005","2024-11-17T06:15:00",14.699,33.14622,0.23],
    [38465,"urn:WaterMeter:MC0203J22010600005","2024-11-17T06:30:00",14.699,33.15825,0.237],
    [38466,"urn:WaterMeter:MC0203J22010600005","2024-11-17T06:45:00",14.6,33.10976,0.228],
    [38467,"urn:WaterMeter:MC0203J22010600005","2024-11-17T07:00:00",14.6,33.13571,0.232],
    [38468,"urn:WaterMeter:MC0203J22010600005","2024-11-17T07:15:00",14.6,33.13416,0.235],
    [38469,"urn:WaterMeter:MC0203J22010600005","2024-11-17T07:30:00",14.6,33.08606,0.217],
    [38470,"urn:WaterMeter:MC0203J22010600005","2024-11-17T07:45:00",14.6,33.123726,0.246],
    [38471,"urn:WaterMeter:MC0203J22010600005","2024-11-17T08:00:00",14.6,33.14502,0.224],
    [38472,"urn:WaterMeter:MC0203J22010600005","2024-11-17T08:15:00",14.6,33.147385,0.23],
    [38473,"urn:WaterMeter:MC0203J22010600005","2024-11-17T08:30:00",14.699,33.086834,0.226],
    [38474,"urn:WaterMeter:MC0203J22010600005","2024-11-17T08:45:00",14.699,33.13963,0.225],
    [38475,"urn:WaterMeter:MC0203J22010600005","2024-11-17T09:00:00",14.8,33.11515,0.224],
    [38476,"urn:WaterMeter:MC0203J22010600005","2024-11-17T09:15:00",14.899,33.084934,0.233],
    [38477,"urn:WaterMeter:MC0203J22010600005","2024-11-17T09:30:00",15.1,33.073296,0.226],
    [38478,"urn:WaterMeter:MC0203J22010600005","2024-11-17T09:45:00",15.3,33.09812,0.228],
    [38479,"urn:WaterMeter:MC0203J22010600005","2024-11-17T10:00:00",15.399,33.034897,0.223],
    [38480,"urn:WaterMeter:MC0203J22010600005","2024-11-17T10:15:00",15.5,33.062824,0.23],
    [38481,"urn:WaterMeter:MC0203J22010600005","2024-11-17T10:30:00",15.6,33.033344,0.234],
    [38482,"urn:WaterMeter:MC0203J22010600005","2024-11-17T10:45:00",15.6,33.022484,0.234],
    [38483,"urn:WaterMeter:MC0203J22010600005","2024-11-17T11:00:00",15.699,33.032566,0.228],
    [38484,"urn:WaterMeter:MC0203J22010600005","2024-11-17T11:15:00",15.899,32.954987,0.223],
    [38485,"urn:WaterMeter:MC0203J22010600005","2024-11-17T11:30:00",16,32.931675,0.238],
    [38486,"urn:WaterMeter:MC0203J22010600005","2024-11-17T11:45:00",16.299,32.914257,0.227],
    [38487,"urn:WaterMeter:MC0203J22010600005","2024-11-17T12:00:00",16.5,32.911503,0.222],
    [38488,"urn:WaterMeter:MC0203J22010600005","2024-11-17T12:15:00",16.799,32.87198,0.221],
    [38489,"urn:WaterMeter:MC0203J22010600005","2024-11-17T12:30:00",16.899,32.84987,0.219],
    [38490,"urn:WaterMeter:MC0203J22010600005","2024-11-17T12:45:00",17,32.764103,0.234],
    [38491,"urn:WaterMeter:MC0203J22010600005","2024-11-17T13:00:00",17,32.800602,0.237],
    [38492,"urn:WaterMeter:MC0203J22010600005","2024-11-17T13:15:00",17.1,32.71255,0.214],
    [38493,"urn:WaterMeter:MC0203J22010600005","2024-11-17T13:30:00",17.2,32.69199,0.222],
    [38494,"urn:WaterMeter:MC0203J22010600005","2024-11-17T13:45:00",17.2,32.652813,0.217],
    [38495,"urn:WaterMeter:MC0203J22010600005","2024-11-17T14:00:00",17.299,32.62605,0.213],
    [38496,"urn:WaterMeter:MC0203J22010600005","2024-11-17T14:15:00",17.299,32.60933,0.218],
    [38497,"urn:WaterMeter:MC0203J22010600005","2024-11-17T14:30:00",17.2,32.541485,0.216],
    [38498,"urn:WaterMeter:MC0203J22010600005","2024-11-17T14:45:00",17.2,32.546528,0.216],
    [38499,"urn:WaterMeter:MC0203J22010600005","2024-11-17T15:00:00",17.1,32.5217,0.239],
    [38500,"urn:WaterMeter:MC0203J22010600005","2024-11-17T15:15:00",17.1,32.51391,0.22],
    [38501,"urn:WaterMeter:MC0203J22010600005","2024-11-17T15:30:00",17,32.515884,0.221],
    [38502,"urn:WaterMeter:MC0203J22010600005","2024-11-17T15:45:00",17,32.494125,0.225],
    [38503,"urn:WaterMeter:MC0203J22010600005","2024-11-17T16:00:00",16.899,32.468563,0.219],
    [38504,"urn:WaterMeter:MC0203J22010600005","2024-11-17T16:15:00",16.799,32.52399,0.216],
    [38505,"urn:WaterMeter:MC0203J22010600005","2024-11-17T16:30:00",16.7,32.4705,0.213],
    [38506,"urn:WaterMeter:MC0203J22010600005","2024-11-17T16:45:00",16.7,32.474342,0.22],
    [38507,"urn:WaterMeter:MC0203J22010600005","2024-11-17T17:00:00",16.6,32.450718,0.219],
    [38508,"urn:WaterMeter:MC0203J22010600005","2024-11-17T17:15:00",16.6,32.45456,0.23],
    [38509,"urn:WaterMeter:MC0203J22010600005","2024-11-17T17:30:00",16.5,32.45227,0.224],
    [38510,"urn:WaterMeter:MC0203J22010600005","2024-11-17T17:45:00",16.5,32.45417,0.221],
    [38511,"urn:WaterMeter:MC0203J22010600005","2024-11-17T18:00:00",16.399,32.490284,0.239],
    [38512,"urn:WaterMeter:MC0203J22010600005","2024-11-17T18:15:00",16.399,32.431324,0.216],
    [38513,"urn:WaterMeter:MC0203J22010600005","2024-11-17T18:30:00",16.299,32.47589,0.223],
    [38514,"urn:WaterMeter:MC0203J22010600005","2024-11-17T18:45:00",16.2,32.42779,0.218],
    [38515,"urn:WaterMeter:MC0203J22010600005","2024-11-17T19:00:00",16.2,32.44063,0.22],
    [38516,"urn:WaterMeter:MC0203J22010600005","2024-11-17T19:15:00",16.1,32.453045,0.224],
    [38517,"urn:WaterMeter:MC0203J22010600005","2024-11-17T19:30:00",16,32.45417,0.243],
    [38518,"urn:WaterMeter:MC0203J22010600005","2024-11-17T19:45:00",16,32.428608,0.226],
    [38519,"urn:WaterMeter:MC0203J22010600005","2024-11-17T20:00:00",15.899,32.47628,0.22],
    [38520,"urn:WaterMeter:MC0203J22010600005","2024-11-17T20:15:00",15.899,32.47826,0.221],
    [38521,"urn:WaterMeter:MC0203J22010600005","2024-11-17T20:30:00",15.899,32.46158,0.215],
    [38522,"urn:WaterMeter:MC0203J22010600005","2024-11-17T20:45:00",15.8,32.43516,0.243],
    [38523,"urn:WaterMeter:MC0203J22010600005","2024-11-17T21:00:00",15.8,32.423176,0.219],
    [38524,"urn:WaterMeter:MC0203J22010600005","2024-11-17T21:15:00",15.699,32.471664,0.226],
    [38525,"urn:WaterMeter:MC0203J22010600005","2024-11-17T21:30:00",15.699,32.48175,0.235],
    [38526,"urn:WaterMeter:MC0203J22010600005","2024-11-17T21:45:00",15.699,32.416157,0.218],
    [38527,"urn:WaterMeter:MC0203J22010600005","2024-11-17T22:00:00",15.699,32.446026,0.221],
    [38528,"urn:WaterMeter:MC0203J22010600005","2024-11-17T22:15:00",15.6,32.47628,0.224],
    [38529,"urn:WaterMeter:MC0203J22010600005","2024-11-17T22:30:00",15.6,32.43016,0.222],
    [38530,"urn:WaterMeter:MC0203J22010600005","2024-11-17T22:45:00",15.6,32.49843,0.23],
    [38531,"urn:WaterMeter:MC0203J22010600005","2024-11-17T23:00:00",15.6,32.47667,0.225],
    [38532,"urn:WaterMeter:MC0203J22010600005","2024-11-17T23:15:00",15.6,32.4468,0.224],
    [38533,"urn:WaterMeter:MC0203J22010600005","2024-11-17T23:30:00",15.6,32.46352,0.22],
    [38534,"urn:WaterMeter:MC0203J22010600005","2024-11-17T23:45:00",15.5,32.445675,0.22],
    [38535,"urn:WaterMeter:MC0203J22010600005","2024-11-18T00:00:00",15.5,32.48214,0.224],
    [38536,"urn:WaterMeter:MC0203J22010600005","2024-11-18T00:15:00",15.5,32.46507,0.239],
    [38537,"urn:WaterMeter:MC0203J22010600005","2024-11-18T00:30:00",15.5,32.43749,0.22],
    [38538,"urn:WaterMeter:MC0203J22010600005","2024-11-18T00:45:00",15.5,32.4468,0.227],
    [38539,"urn:WaterMeter:MC0203J22010600005","2024-11-18T01:00:00",15.399,32.443348,0.222],
    [38540,"urn:WaterMeter:MC0203J22010600005","2024-11-18T01:15:00",15.399,32.468563,0.22],
    [38541,"urn:WaterMeter:MC0203J22010600005","2024-11-18T01:30:00",15.399,32.453434,0.229],
    [38542,"urn:WaterMeter:MC0203J22010600005","2024-11-18T01:45:00",15.399,32.453045,0.223],
    [38543,"urn:WaterMeter:MC0203J22010600005","2024-11-18T02:00:00",15.3,32.45417,0.221],
    [38544,"urn:WaterMeter:MC0203J22010600005","2024-11-18T02:15:00",15.3,32.44839,0.224],
    [38545,"urn:WaterMeter:MC0203J22010600005","2024-11-18T02:30:00",15.3,32.46581,0.247],
    [38546,"urn:WaterMeter:MC0203J22010600005","2024-11-18T02:45:00",15.3,32.472828,0.219],
    [38547,"urn:WaterMeter:MC0203J22010600005","2024-11-18T03:00:00",15.199,32.41538,0.224],
    [38548,"urn:WaterMeter:MC0203J22010600005","2024-11-18T03:15:00",15.199,32.4468,0.226],
    [38549,"urn:WaterMeter:MC0203J22010600005","2024-11-18T03:30:00",15.1,32.440243,0.227],
    [38550,"urn:WaterMeter:MC0203J22010600005","2024-11-18T03:45:00",15,32.445675,0.224],
    [38551,"urn:WaterMeter:MC0203J22010600005","2024-11-18T04:00:00",15,32.449165,0.217],
    [38552,"urn:WaterMeter:MC0203J22010600005","2024-11-18T04:15:00",14.899,32.44296,0.222],
    [38553,"urn:WaterMeter:MC0203J22010600005","2024-11-18T04:30:00",14.8,32.466194,0.234],
    [38554,"urn:WaterMeter:MC0203J22010600005","2024-11-18T04:45:00",14.8,32.39676,0.221],
    [38555,"urn:WaterMeter:MC0203J22010600005","2024-11-18T05:00:00",14.699,32.41891,0.218],
    [38556,"urn:WaterMeter:MC0203J22010600005","2024-11-18T05:15:00",14.8,32.44296,0.217],
    [38557,"urn:WaterMeter:MC0203J22010600005","2024-11-18T05:30:00",14.899,32.45727,0.224],
    [38558,"urn:WaterMeter:MC0203J22010600005","2024-11-18T05:45:00",14.899,32.683846,0.228],
    [38559,"urn:WaterMeter:MC0203J22010600005","2024-11-18T06:00:00",14.899,33.454563,0.234],
    [38560,"urn:WaterMeter:MC0203J22010600005","2024-11-18T06:15:00",14.899,34.2657,0.244],
    [38561,"urn:WaterMeter:MC0203J22010600005","2024-11-18T06:30:00",14.899,34.925518,0.252],
    [38562,"urn:WaterMeter:MC0203J22010600005","2024-11-18T06:45:00",14.8,35.399147,0.262],
    [38563,"urn:WaterMeter:MC0203J22010600005","2024-11-18T07:00:00",14.8,35.74748,0.26],
    [38564,"urn:WaterMeter:MC0203J22010600005","2024-11-18T07:15:00",14.8,35.9488,0.265],
    [38565,"urn:WaterMeter:MC0203J22010600005","2024-11-18T07:30:00",14.8,36.09504,0.261],
    [38566,"urn:WaterMeter:MC0203J22010600005","2024-11-18T07:45:00",14.8,36.271534,0.257],
    [38567,"urn:WaterMeter:MC0203J22010600005","2024-11-18T08:00:00",14.8,36.35144,0.266],
    [38568,"urn:WaterMeter:MC0203J22010600005","2024-11-18T08:15:00",14.8,36.096977,0.268],
    [38569,"urn:WaterMeter:MC0203J22010600005","2024-11-18T08:30:00",14.8,35.78666,0.264],
    [38570,"urn:WaterMeter:MC0203J22010600005","2024-11-18T08:45:00",14.699,35.626453,0.279],
    [38571,"urn:WaterMeter:MC0203J22010600005","2024-11-18T09:00:00",14.8,35.441387,0.27],
    [38572,"urn:WaterMeter:MC0203J22010600005","2024-11-18T09:15:00",14.899,35.347942,0.255],
    [38573,"urn:WaterMeter:MC0203J22010600005","2024-11-18T09:30:00",15,35.29864,0.253],
    [38574,"urn:WaterMeter:MC0203J22010600005","2024-11-18T09:45:00",15.199,35.223816,0.251],
    [38575,"urn:WaterMeter:MC0203J22010600005","2024-11-18T10:00:00",15.3,35.094994,0.251],
    [38576,"urn:WaterMeter:MC0203J22010600005","2024-11-18T10:15:00",15.399,35.070206,0.258],
    [38577,"urn:WaterMeter:MC0203J22010600005","2024-11-18T10:30:00",15.6,35.01784,0.274],
    [38578,"urn:WaterMeter:MC0203J22010600005","2024-11-18T10:45:00",15.8,34.913883,0.253],
    [38579,"urn:WaterMeter:MC0203J22010600005","2024-11-18T11:00:00",15.899,34.831997,0.263],
    [38580,"urn:WaterMeter:MC0203J22010600005","2024-11-18T11:15:00",16.1,34.79984,0.244],
    [38581,"urn:WaterMeter:MC0203J22010600005","2024-11-18T11:30:00",16.2,34.706707,0.248],
    [38582,"urn:WaterMeter:MC0203J22010600005","2024-11-18T11:45:00",16.399,34.65783,0.25],
    [38583,"urn:WaterMeter:MC0203J22010600005","2024-11-18T12:00:00",16.5,34.529434,0.244],
    [38584,"urn:WaterMeter:MC0203J22010600005","2024-11-18T12:15:00",16.7,34.520554,0.243],
    [38585,"urn:WaterMeter:MC0203J22010600005","2024-11-18T12:30:00",16.799,34.431335,0.247],
    [38586,"urn:WaterMeter:MC0203J22010600005","2024-11-18T12:45:00",16.899,34.399914,0.244],
    [38587,"urn:WaterMeter:MC0203J22010600005","2024-11-18T13:00:00",17,34.378967,0.248],
    [38588,"urn:WaterMeter:MC0203J22010600005","2024-11-18T13:15:00",17.1,34.33203,0.241],
    [38589,"urn:WaterMeter:MC0203J22010600005","2024-11-18T13:30:00",17.2,34.27385,0.244],
    [38590,"urn:WaterMeter:MC0203J22010600005","2024-11-18T13:45:00",17.2,34.22536,0.238],
    [38591,"urn:WaterMeter:MC0203J22010600005","2024-11-18T14:00:00",17.299,34.210968,0.237],
    [38592,"urn:WaterMeter:MC0203J22010600005","2024-11-18T14:15:00",17.299,34.121403,0.252],
    [38593,"urn:WaterMeter:MC0203J22010600005","2024-11-18T14:30:00",17.399,34.07598,0.24],
    [38594,"urn:WaterMeter:MC0203J22010600005","2024-11-18T14:45:00",17.299,34.119465,0.238],
    [38595,"urn:WaterMeter:MC0203J22010600005","2024-11-18T15:00:00",17.299,34.058563,0.243],
    [38596,"urn:WaterMeter:MC0203J22010600005","2024-11-18T15:15:00",17.299,34.07175,0.254],
    [38597,"urn:WaterMeter:MC0203J22010600005","2024-11-18T15:30:00",17.299,34.02633,0.237],
    [38598,"urn:WaterMeter:MC0203J22010600005","2024-11-18T15:45:00",17.399,33.94607,0.24],
    [38599,"urn:WaterMeter:MC0203J22010600005","2024-11-18T16:00:00",17.399,33.966244,0.232],
    [38600,"urn:WaterMeter:MC0203J22010600005","2024-11-18T16:15:00",17.399,33.96737,0.237],
    [38601,"urn:WaterMeter:MC0203J22010600005","2024-11-18T16:30:00",17.299,33.918144,0.236],
    [38602,"urn:WaterMeter:MC0203J22010600005","2024-11-18T16:45:00",17.299,33.869267,0.237],
    [38603,"urn:WaterMeter:MC0203J22010600005","2024-11-18T17:00:00",17.2,33.899914,0.233],
    [38604,"urn:WaterMeter:MC0203J22010600005","2024-11-18T17:15:00",17.1,33.906895,0.263],
    [38605,"urn:WaterMeter:MC0203J22010600005","2024-11-18T17:30:00",17,33.862247,0.251],
    [38606,"urn:WaterMeter:MC0203J22010600005","2024-11-18T17:45:00",16.899,33.882805,0.247],
    [38607,"urn:WaterMeter:MC0203J22010600005","2024-11-18T18:00:00",16.899,33.867718,0.246],
    [38608,"urn:WaterMeter:MC0203J22010600005","2024-11-18T18:15:00",16.799,33.850224,0.241],
    [38609,"urn:WaterMeter:MC0203J22010600005","2024-11-18T18:30:00",16.7,33.81884,0.257],
    [38610,"urn:WaterMeter:MC0203J22010600005","2024-11-18T18:45:00",16.6,33.81923,0.235],
    [38611,"urn:WaterMeter:MC0203J22010600005","2024-11-18T19:00:00",16.5,33.87078,0.24],
    [38612,"urn:WaterMeter:MC0203J22010600005","2024-11-18T19:15:00",16.5,33.838623,0.239],
    [38613,"urn:WaterMeter:MC0203J22010600005","2024-11-18T19:30:00",16.399,33.8297,0.255],
    [38614,"urn:WaterMeter:MC0203J22010600005","2024-11-18T19:45:00",16.399,33.85216,0.245],
    [38615,"urn:WaterMeter:MC0203J22010600005","2024-11-18T20:00:00",16.299,33.834743,0.259],
    [38616,"urn:WaterMeter:MC0203J22010600005","2024-11-18T20:15:00",16.299,33.87625,0.257],
    [38617,"urn:WaterMeter:MC0203J22010600005","2024-11-18T20:30:00",16.2,33.799835,0.247],
    [38618,"urn:WaterMeter:MC0203J22010600005","2024-11-18T20:45:00",16.1,33.779274,0.237],
    [38619,"urn:WaterMeter:MC0203J22010600005","2024-11-18T21:00:00",16,33.776947,0.235],
    [38620,"urn:WaterMeter:MC0203J22010600005","2024-11-18T21:15:00",16,33.810307,0.258],
    [38621,"urn:WaterMeter:MC0203J22010600005","2024-11-18T21:30:00",15.899,33.762596,0.253],
    [38622,"urn:WaterMeter:MC0203J22010600005","2024-11-18T21:45:00",15.8,33.82233,0.237],
    [38623,"urn:WaterMeter:MC0203J22010600005","2024-11-18T22:00:00",15.699,33.82815,0.238],
    [38624,"urn:WaterMeter:MC0203J22010600005","2024-11-18T22:15:00",15.699,33.872334,0.239],
    [38625,"urn:WaterMeter:MC0203J22010600005","2024-11-18T22:30:00",15.6,33.76337,0.254],
    [38626,"urn:WaterMeter:MC0203J22010600005","2024-11-18T22:45:00",15.5,33.788197,0.254],
    [38627,"urn:WaterMeter:MC0203J22010600005","2024-11-18T23:00:00",15.399,33.790913,0.246],
    [38628,"urn:WaterMeter:MC0203J22010600005","2024-11-18T23:15:00",15.3,33.823845,0.246],
    [38629,"urn:WaterMeter:MC0203J22010600005","2024-11-18T23:30:00",15.3,33.875088,0.254],
    [38630,"urn:WaterMeter:MC0203J22010600005","2024-11-18T23:45:00",15.199,33.816124,0.248],
    [38631,"urn:WaterMeter:MC0203J22010600005","2024-11-19T00:00:00",15.1,33.80759,0.241],
    [38632,"urn:WaterMeter:MC0203J22010600005","2024-11-19T00:15:00",15,33.746265,0.249],
    [38633,"urn:WaterMeter:MC0203J22010600005","2024-11-19T00:30:00",14.899,33.744366,0.25],
    [38634,"urn:WaterMeter:MC0203J22010600005","2024-11-19T00:45:00",14.899,33.806816,0.249],
    [38635,"urn:WaterMeter:MC0203J22010600005","2024-11-19T01:00:00",14.8,33.74165,0.252],
    [38636,"urn:WaterMeter:MC0203J22010600005","2024-11-19T01:15:00",14.699,33.702858,0.242],
    [38637,"urn:WaterMeter:MC0203J22010600005","2024-11-19T01:30:00",14.699,33.70014,0.242],
    [38638,"urn:WaterMeter:MC0203J22010600005","2024-11-19T01:45:00",14.6,33.676056,0.249],
    [38639,"urn:WaterMeter:MC0203J22010600005","2024-11-19T02:00:00",14.6,33.668686,0.229],
    [38640,"urn:WaterMeter:MC0203J22010600005","2024-11-19T02:15:00",14.5,33.720314,0.251],
    [38641,"urn:WaterMeter:MC0203J22010600005","2024-11-19T02:30:00",14.399,33.697002,0.24],
    [38642,"urn:WaterMeter:MC0203J22010600005","2024-11-19T02:45:00",14.399,33.69316,0.238],
    [38643,"urn:WaterMeter:MC0203J22010600005","2024-11-19T03:00:00",14.3,33.729237,0.246],
    [38644,"urn:WaterMeter:MC0203J22010600005","2024-11-19T03:15:00",14.399,33.67299,0.243],
    [38645,"urn:WaterMeter:MC0203J22010600005","2024-11-19T03:30:00",14.399,33.702473,0.238],
    [38646,"urn:WaterMeter:MC0203J22010600005","2024-11-19T03:45:00",14.399,33.697002,0.251],
    [38647,"urn:WaterMeter:MC0203J22010600005","2024-11-19T04:00:00",14.399,33.666786,0.245],
    [38648,"urn:WaterMeter:MC0203J22010600005","2024-11-19T04:15:00",14.399,33.668297,0.247],
    [38649,"urn:WaterMeter:MC0203J22010600005","2024-11-19T04:30:00",14.399,33.7048,0.247],
    [38650,"urn:WaterMeter:MC0203J22010600005","2024-11-19T04:45:00",14.399,33.64157,0.242],
    [38651,"urn:WaterMeter:MC0203J22010600005","2024-11-19T05:00:00",14.399,33.65899,0.246],
    [38652,"urn:WaterMeter:MC0203J22010600005","2024-11-19T05:15:00",14.5,33.697777,0.238],
    [38653,"urn:WaterMeter:MC0203J22010600005","2024-11-19T05:30:00",14.699,33.90573,0.242],
    [38654,"urn:WaterMeter:MC0203J22010600005","2024-11-19T05:45:00",14.8,34.65822,0.263],
    [38655,"urn:WaterMeter:MC0203J22010600005","2024-11-19T06:00:00",14.899,35.36497,0.261],
    [38656,"urn:WaterMeter:MC0203J22010600005","2024-11-19T06:15:00",14.899,35.92626,0.275],
    [38657,"urn:WaterMeter:MC0203J22010600005","2024-11-19T06:30:00",14.899,36.14624,0.275],
    [38658,"urn:WaterMeter:MC0203J22010600005","2024-11-19T06:45:00",15,36.34597,0.273],
    [38659,"urn:WaterMeter:MC0203J22010600005","2024-11-19T07:00:00",15,36.461178,0.281],
    [38660,"urn:WaterMeter:MC0203J22010600005","2024-11-19T07:15:00",15,36.645428,0.273],
    [38661,"urn:WaterMeter:MC0203J22010600005","2024-11-19T07:30:00",15,36.67068,0.287],
    [38662,"urn:WaterMeter:MC0203J22010600005","2024-11-19T07:45:00",15,36.80567,0.278],
    [38663,"urn:WaterMeter:MC0203J22010600005","2024-11-19T08:00:00",15.1,36.799038,0.268],
    [38664,"urn:WaterMeter:MC0203J22010600005","2024-11-19T08:15:00",15.1,36.77037,0.275],
    [38665,"urn:WaterMeter:MC0203J22010600005","2024-11-19T08:30:00",15,36.524445,0.272],
    [38666,"urn:WaterMeter:MC0203J22010600005","2024-11-19T08:45:00",15,36.413464,0.285],
    [38667,"urn:WaterMeter:MC0203J22010600005","2024-11-19T09:00:00",15.1,36.285885,0.256],
    [38668,"urn:WaterMeter:MC0203J22010600005","2024-11-19T09:15:00",15.3,35.883633,0.262],
    [38669,"urn:WaterMeter:MC0203J22010600005","2024-11-19T09:30:00",15.399,35.721878,0.263],
    [38670,"urn:WaterMeter:MC0203J22010600005","2024-11-19T09:45:00",15.699,35.646976,0.25],
    [38671,"urn:WaterMeter:MC0203J22010600005","2024-11-19T10:00:00",15.8,35.5512,0.243],
    [38672,"urn:WaterMeter:MC0203J22010600005","2024-11-19T10:15:00",16,35.39682,0.277],
    [38673,"urn:WaterMeter:MC0203J22010600005","2024-11-19T10:30:00",16.1,35.385143,0.254],
    [38674,"urn:WaterMeter:MC0203J22010600005","2024-11-19T10:45:00",16.2,35.25485,0.236],
    [38675,"urn:WaterMeter:MC0203J22010600005","2024-11-19T11:00:00",16.299,35.166794,0.256],
    [38676,"urn:WaterMeter:MC0203J22010600005","2024-11-19T11:15:00",16.399,35.011635,0.253],
    [38677,"urn:WaterMeter:MC0203J22010600005","2024-11-19T11:30:00",16.6,34.958065,0.263],
    [38678,"urn:WaterMeter:MC0203J22010600005","2024-11-19T11:45:00",16.7,34.877033,0.254],
    [38679,"urn:WaterMeter:MC0203J22010600005","2024-11-19T12:00:00",16.799,34.811867,0.272],
    [38680,"urn:WaterMeter:MC0203J22010600005","2024-11-19T12:15:00",17,34.764114,0.256],
    [38681,"urn:WaterMeter:MC0203J22010600005","2024-11-19T12:30:00",17.2,34.683083,0.248],
    [38682,"urn:WaterMeter:MC0203J22010600005","2024-11-19T12:45:00",17.2,34.672222,0.254],
    [38683,"urn:WaterMeter:MC0203J22010600005","2024-11-19T13:00:00",17.2,34.629124,0.258],
    [38684,"urn:WaterMeter:MC0203J22010600005","2024-11-19T13:15:00",17.299,34.581024,0.274],
    [38685,"urn:WaterMeter:MC0203J22010600005","2024-11-19T13:30:00",17.399,34.514732,0.257],
    [38686,"urn:WaterMeter:MC0203J22010600005","2024-11-19T13:45:00",17.5,34.4344,0.264],
    [38687,"urn:WaterMeter:MC0203J22010600005","2024-11-19T14:00:00",17.5,34.43056,0.262],
    [38688,"urn:WaterMeter:MC0203J22010600005","2024-11-19T14:15:00",17.6,34.352203,0.245],
    [38689,"urn:WaterMeter:MC0203J22010600005","2024-11-19T14:30:00",17.6,34.329704,0.245],
    [38690,"urn:WaterMeter:MC0203J22010600005","2024-11-19T14:45:00",17.6,34.314964,0.251],
    [38691,"urn:WaterMeter:MC0203J22010600005","2024-11-19T15:00:00",17.5,34.246696,0.255],
    [38692,"urn:WaterMeter:MC0203J22010600005","2024-11-19T15:15:00",17.399,34.25329,0.25],
    [38693,"urn:WaterMeter:MC0203J22010600005","2024-11-19T15:30:00",17.399,34.16054,0.245],
    [38694,"urn:WaterMeter:MC0203J22010600005","2024-11-19T15:45:00",17.5,34.185795,0.246],
    [38695,"urn:WaterMeter:MC0203J22010600005","2024-11-19T16:00:00",17.5,34.17959,0.264],
    [38696,"urn:WaterMeter:MC0203J22010600005","2024-11-19T16:15:00",17.399,34.186184,0.259],
    [38697,"urn:WaterMeter:MC0203J22010600005","2024-11-19T16:30:00",17.399,34.165237,0.251],
    [38698,"urn:WaterMeter:MC0203J22010600005","2024-11-19T16:45:00",17.299,34.084515,0.258],
    [38699,"urn:WaterMeter:MC0203J22010600005","2024-11-19T17:00:00",17.2,34.063953,0.244],
    [38700,"urn:WaterMeter:MC0203J22010600005","2024-11-19T17:15:00",17.1,34.062054,0.25],
    [38701,"urn:WaterMeter:MC0203J22010600005","2024-11-19T17:30:00",17,34.041496,0.253],
    [38702,"urn:WaterMeter:MC0203J22010600005","2024-11-19T17:45:00",16.899,34.03719,0.255],
    [38703,"urn:WaterMeter:MC0203J22010600005","2024-11-19T18:00:00",16.799,34.082226,0.252],
    [38704,"urn:WaterMeter:MC0203J22010600005","2024-11-19T18:15:00",16.7,34.0124,0.268],
    [38705,"urn:WaterMeter:MC0203J22010600005","2024-11-19T18:30:00",16.7,34.069813,0.267],
    [38706,"urn:WaterMeter:MC0203J22010600005","2024-11-19T18:45:00",16.6,34.084515,0.256],
    [38707,"urn:WaterMeter:MC0203J22010600005","2024-11-19T19:00:00",16.5,34.04964,0.262],
    [38708,"urn:WaterMeter:MC0203J22010600005","2024-11-19T19:15:00",16.399,34.095764,0.252],
    [38709,"urn:WaterMeter:MC0203J22010600005","2024-11-19T19:30:00",16.399,34.029472,0.247],
    [38710,"urn:WaterMeter:MC0203J22010600005","2024-11-19T19:45:00",16.299,34.022102,0.256],
    [38711,"urn:WaterMeter:MC0203J22010600005","2024-11-19T20:00:00",16.2,33.94258,0.258],
    [38712,"urn:WaterMeter:MC0203J22010600005","2024-11-19T20:15:00",16.2,34.081448,0.247],
    [38713,"urn:WaterMeter:MC0203J22010600005","2024-11-19T20:30:00",16.1,34.021324,0.243],
    [38714,"urn:WaterMeter:MC0203J22010600005","2024-11-19T20:45:00",16,33.91151,0.25],
    [38715,"urn:WaterMeter:MC0203J22010600005","2024-11-19T21:00:00",16,33.954994,0.256],
    [38716,"urn:WaterMeter:MC0203J22010600005","2024-11-19T21:15:00",15.899,33.88164,0.245],
    [38717,"urn:WaterMeter:MC0203J22010600005","2024-11-19T21:30:00",15.8,33.950302,0.246],
    [38718,"urn:WaterMeter:MC0203J22010600005","2024-11-19T21:45:00",15.699,33.92082,0.242],
    [38719,"urn:WaterMeter:MC0203J22010600005","2024-11-19T22:00:00",15.6,33.918144,0.246],
    [38720,"urn:WaterMeter:MC0203J22010600005","2024-11-19T22:15:00",15.5,33.93521,0.254],
    [38721,"urn:WaterMeter:MC0203J22010600005","2024-11-19T22:30:00",15.399,33.919308,0.25],
    [38722,"urn:WaterMeter:MC0203J22010600005","2024-11-19T22:45:00",15.399,33.919697,0.249],
    [38723,"urn:WaterMeter:MC0203J22010600005","2024-11-19T23:00:00",15.3,33.87117,0.246],
    [38724,"urn:WaterMeter:MC0203J22010600005","2024-11-19T23:15:00",15.199,33.839787,0.269],
    [38725,"urn:WaterMeter:MC0203J22010600005","2024-11-19T23:30:00",15.1,33.91543,0.246],
    [38726,"urn:WaterMeter:MC0203J22010600005","2024-11-19T23:45:00",15,33.83009,0.274],
    [38727,"urn:WaterMeter:MC0203J22010600005","2024-11-20T00:00:00",15,33.873924,0.255],
    [38728,"urn:WaterMeter:MC0203J22010600005","2024-11-20T00:15:00",14.899,33.787033,0.262],
    [38729,"urn:WaterMeter:MC0203J22010600005","2024-11-20T00:30:00",14.8,33.86302,0.252],
    [38730,"urn:WaterMeter:MC0203J22010600005","2024-11-20T00:45:00",14.8,33.772293,0.245],
    [38731,"urn:WaterMeter:MC0203J22010600005","2024-11-20T01:00:00",14.699,33.775356,0.257],
    [38732,"urn:WaterMeter:MC0203J22010600005","2024-11-20T01:15:00",14.699,33.81535,0.25],
    [38733,"urn:WaterMeter:MC0203J22010600005","2024-11-20T01:30:00",14.6,33.77811,0.256],
    [38734,"urn:WaterMeter:MC0203J22010600005","2024-11-20T01:45:00",14.6,33.72264,0.249],
    [38735,"urn:WaterMeter:MC0203J22010600005","2024-11-20T02:00:00",14.5,33.74204,0.253],
    [38736,"urn:WaterMeter:MC0203J22010600005","2024-11-20T02:15:00",14.399,33.725746,0.241],
    [38737,"urn:WaterMeter:MC0203J22010600005","2024-11-20T02:30:00",14.399,33.740486,0.256],
    [38738,"urn:WaterMeter:MC0203J22010600005","2024-11-20T02:45:00",14.3,33.6823,0.25],
    [38739,"urn:WaterMeter:MC0203J22010600005","2024-11-20T03:00:00",14.3,33.693935,0.247],
    [38740,"urn:WaterMeter:MC0203J22010600005","2024-11-20T03:15:00",14.199,33.686565,0.247],
    [38741,"urn:WaterMeter:MC0203J22010600005","2024-11-20T03:30:00",14.1,33.649677,0.242],
    [38742,"urn:WaterMeter:MC0203J22010600005","2024-11-20T03:45:00",14.1,33.708252,0.247],
    [38743,"urn:WaterMeter:MC0203J22010600005","2024-11-20T04:00:00",14,33.661743,0.248],
    [38744,"urn:WaterMeter:MC0203J22010600005","2024-11-20T04:15:00",14,33.654373,0.249],
    [38745,"urn:WaterMeter:MC0203J22010600005","2024-11-20T04:30:00",14,33.635754,0.26],
    [38746,"urn:WaterMeter:MC0203J22010600005","2024-11-20T04:45:00",14,33.666786,0.242],
    [38747,"urn:WaterMeter:MC0203J22010600005","2024-11-20T05:00:00",14,33.67144,0.243],
    [38748,"urn:WaterMeter:MC0203J22010600005","2024-11-20T05:15:00",14.199,33.657825,0.243],
    [38749,"urn:WaterMeter:MC0203J22010600005","2024-11-20T05:30:00",14.399,33.865776,0.249],
    [38750,"urn:WaterMeter:MC0203J22010600005","2024-11-20T05:45:00",14.399,34.58723,0.258],
    [38751,"urn:WaterMeter:MC0203J22010600005","2024-11-20T06:00:00",14.399,35.29131,0.261],
    [38752,"urn:WaterMeter:MC0203J22010600005","2024-11-20T06:15:00",14.5,35.79166,0.266],
    [38753,"urn:WaterMeter:MC0203J22010600005","2024-11-20T06:30:00",14.5,36.114433,0.285],
    [38754,"urn:WaterMeter:MC0203J22010600005","2024-11-20T06:45:00",14.5,36.247833,0.295],
    [38755,"urn:WaterMeter:MC0203J22010600005","2024-11-20T07:00:00",14.5,36.40338,0.27],
    [38756,"urn:WaterMeter:MC0203J22010600005","2024-11-20T07:15:00",14.5,36.500355,0.291],
    [38757,"urn:WaterMeter:MC0203J22010600005","2024-11-20T07:30:00",14.5,36.54384,0.278],
    [38758,"urn:WaterMeter:MC0203J22010600005","2024-11-20T07:45:00",14.5,36.647797,0.276],
    [38759,"urn:WaterMeter:MC0203J22010600005","2024-11-20T08:00:00",14.5,36.688526,0.282],
    [38760,"urn:WaterMeter:MC0203J22010600005","2024-11-20T08:15:00",14.5,36.557766,0.266],
    [38761,"urn:WaterMeter:MC0203J22010600005","2024-11-20T08:30:00",14.5,36.376266,0.284],
    [38762,"urn:WaterMeter:MC0203J22010600005","2024-11-20T08:45:00",14.5,36.138096,0.271],
    [38763,"urn:WaterMeter:MC0203J22010600005","2024-11-20T09:00:00",14.6,36.12801,0.281],
    [38764,"urn:WaterMeter:MC0203J22010600005","2024-11-20T09:15:00",14.8,35.796356,0.261],
    [38765,"urn:WaterMeter:MC0203J22010600005","2024-11-20T09:30:00",14.899,35.683865,0.272],
    [38766,"urn:WaterMeter:MC0203J22010600005","2024-11-20T09:45:00",15.1,35.621025,0.262],
    [38767,"urn:WaterMeter:MC0203J22010600005","2024-11-20T10:00:00",15.199,35.541893,0.262],
    [38768,"urn:WaterMeter:MC0203J22010600005","2024-11-20T10:15:00",15.399,35.515903,0.27],
    [38769,"urn:WaterMeter:MC0203J22010600005","2024-11-20T10:30:00",15.5,35.412334,0.28],
    [38770,"urn:WaterMeter:MC0203J22010600005","2024-11-20T10:45:00",15.699,35.275406,0.255],
    [38771,"urn:WaterMeter:MC0203J22010600005","2024-11-20T11:00:00",15.8,35.18386,0.261],
    [38772,"urn:WaterMeter:MC0203J22010600005","2024-11-20T11:15:00",15.899,35.12529,0.273],
    [38773,"urn:WaterMeter:MC0203J22010600005","2024-11-20T11:30:00",16,35.072495,0.266],
    [38774,"urn:WaterMeter:MC0203J22010600005","2024-11-20T11:45:00",16.1,35.033707,0.254],
    [38775,"urn:WaterMeter:MC0203J22010600005","2024-11-20T12:00:00",16.299,34.96237,0.251],
    [38776,"urn:WaterMeter:MC0203J22010600005","2024-11-20T12:15:00",16.399,34.85531,0.266],
    [38777,"urn:WaterMeter:MC0203J22010600005","2024-11-20T12:30:00",16.5,34.772686,0.251],
    [38778,"urn:WaterMeter:MC0203J22010600005","2024-11-20T12:45:00",16.6,34.672222,0.253],
    [38779,"urn:WaterMeter:MC0203J22010600005","2024-11-20T13:00:00",16.7,34.698986,0.269],
    [38780,"urn:WaterMeter:MC0203J22010600005","2024-11-20T13:15:00",16.799,34.624897,0.254],
    [38781,"urn:WaterMeter:MC0203J22010600005","2024-11-20T13:30:00",16.899,34.57486,0.26],
    [38782,"urn:WaterMeter:MC0203J22010600005","2024-11-20T13:45:00",17,34.57486,0.256],
    [38783,"urn:WaterMeter:MC0203J22010600005","2024-11-20T14:00:00",17.1,34.486416,0.265],
    [38784,"urn:WaterMeter:MC0203J22010600005","2024-11-20T14:15:00",17.1,34.46198,0.253],
    [38785,"urn:WaterMeter:MC0203J22010600005","2024-11-20T14:30:00",17.1,34.435177,0.251],
    [38786,"urn:WaterMeter:MC0203J22010600005","2024-11-20T14:45:00",17.1,34.38828,0.257],
    [38787,"urn:WaterMeter:MC0203J22010600005","2024-11-20T15:00:00",17.1,34.42319,0.252],
    [38788,"urn:WaterMeter:MC0203J22010600005","2024-11-20T15:15:00",17.1,34.34406,0.252],
    [38789,"urn:WaterMeter:MC0203J22010600005","2024-11-20T15:30:00",17.1,34.347122,0.264],
    [38790,"urn:WaterMeter:MC0203J22010600005","2024-11-20T15:45:00",17.1,34.302166,0.247],
    [38791,"urn:WaterMeter:MC0203J22010600005","2024-11-20T16:00:00",17,34.240448,0.253],
    [38792,"urn:WaterMeter:MC0203J22010600005","2024-11-20T16:15:00",16.899,34.20713,0.268],
    [38793,"urn:WaterMeter:MC0203J22010600005","2024-11-20T16:30:00",16.899,34.239674,0.25],
    [38794,"urn:WaterMeter:MC0203J22010600005","2024-11-20T16:45:00",16.799,34.22028,0.244],
    [38795,"urn:WaterMeter:MC0203J22010600005","2024-11-20T17:00:00",16.7,34.152782,0.245],
    [38796,"urn:WaterMeter:MC0203J22010600005","2024-11-20T17:15:00",16.5,34.093086,0.258],
    [38797,"urn:WaterMeter:MC0203J22010600005","2024-11-20T17:30:00",16.399,34.124466,0.259],
    [38798,"urn:WaterMeter:MC0203J22010600005","2024-11-20T17:45:00",16.299,34.15709,0.288],
    [38799,"urn:WaterMeter:MC0203J22010600005","2024-11-20T18:00:00",16.2,34.159805,0.25],
    [38800,"urn:WaterMeter:MC0203J22010600005","2024-11-20T18:15:00",16.1,34.095764,0.255],
    [38801,"urn:WaterMeter:MC0203J22010600005","2024-11-20T18:30:00",16,34.12408,0.257],
    [38802,"urn:WaterMeter:MC0203J22010600005","2024-11-20T18:45:00",15.899,34.13304,0.253],
    [38803,"urn:WaterMeter:MC0203J22010600005","2024-11-20T19:00:00",15.8,34.183853,0.25],
    [38804,"urn:WaterMeter:MC0203J22010600005","2024-11-20T19:15:00",15.699,34.211746,0.251],
    [38805,"urn:WaterMeter:MC0203J22010600005","2024-11-20T19:30:00",15.6,34.128384,0.25],
    [38806,"urn:WaterMeter:MC0203J22010600005","2024-11-20T19:45:00",15.5,34.174156,0.251],
    [38807,"urn:WaterMeter:MC0203J22010600005","2024-11-20T20:00:00",15.399,34.192738,0.25],
    [38808,"urn:WaterMeter:MC0203J22010600005","2024-11-20T20:15:00",15.3,34.137695,0.271],
    [38809,"urn:WaterMeter:MC0203J22010600005","2024-11-20T20:30:00",15.3,34.159805,0.254],
    [38810,"urn:WaterMeter:MC0203J22010600005","2024-11-20T20:45:00",15.199,34.167564,0.273],
    [38811,"urn:WaterMeter:MC0203J22010600005","2024-11-20T21:00:00",15.199,34.16132,0.243],
    [38812,"urn:WaterMeter:MC0203J22010600005","2024-11-20T21:15:00",15.1,34.190838,0.272],
    [38813,"urn:WaterMeter:MC0203J22010600005","2024-11-20T21:30:00",15,34.16795,0.25],
    [38814,"urn:WaterMeter:MC0203J22010600005","2024-11-20T21:45:00",14.899,34.226913,0.258],
    [38815,"urn:WaterMeter:MC0203J22010600005","2024-11-20T22:00:00",14.8,34.134552,0.253],
    [38816,"urn:WaterMeter:MC0203J22010600005","2024-11-20T22:15:00",14.699,34.125244,0.249],
    [38817,"urn:WaterMeter:MC0203J22010600005","2024-11-20T22:30:00",14.6,34.14425,0.251],
    [38818,"urn:WaterMeter:MC0203J22010600005","2024-11-20T22:45:00",14.5,34.125244,0.267],
    [38819,"urn:WaterMeter:MC0203J22010600005","2024-11-20T23:00:00",14.399,34.130325,0.244],
    [38820,"urn:WaterMeter:MC0203J22010600005","2024-11-20T23:15:00",14.3,34.14231,0.251],
    [38821,"urn:WaterMeter:MC0203J22010600005","2024-11-20T23:30:00",14.199,34.102356,0.267],
    [38822,"urn:WaterMeter:MC0203J22010600005","2024-11-20T23:45:00",14.199,34.05736,0.262],
    [38823,"urn:WaterMeter:MC0203J22010600005","2024-11-21T00:00:00",14.1,34.06865,0.251],
    [38824,"urn:WaterMeter:MC0203J22010600005","2024-11-21T00:15:00",14,34.062054,0.249],
    [38825,"urn:WaterMeter:MC0203J22010600005","2024-11-21T00:30:00",13.899,34.05391,0.253],
    [38826,"urn:WaterMeter:MC0203J22010600005","2024-11-21T00:45:00",13.899,34.059727,0.253],
    [38827,"urn:WaterMeter:MC0203J22010600005","2024-11-21T01:00:00",13.8,34.096577,0.251],
    [38828,"urn:WaterMeter:MC0203J22010600005","2024-11-21T01:15:00",13.699,34.0605,0.257],
    [38829,"urn:WaterMeter:MC0203J22010600005","2024-11-21T01:30:00",13.699,34.062443,0.267],
    [38830,"urn:WaterMeter:MC0203J22010600005","2024-11-21T01:45:00",13.6,34.041496,0.257],
    [38831,"urn:WaterMeter:MC0203J22010600005","2024-11-21T02:00:00",13.6,34.0349,0.253],
    [38832,"urn:WaterMeter:MC0203J22010600005","2024-11-21T02:15:00",13.5,34.065895,0.261],
    [38833,"urn:WaterMeter:MC0203J22010600005","2024-11-21T02:30:00",13.399,34.09615,0.253],
    [38834,"urn:WaterMeter:MC0203J22010600005","2024-11-21T02:45:00",13.3,34.088432,0.26],
    [38835,"urn:WaterMeter:MC0203J22010600005","2024-11-21T03:00:00",13.199,34.032963,0.249],
    [38836,"urn:WaterMeter:MC0203J22010600005","2024-11-21T03:15:00",13.199,34.022877,0.252],
    [38837,"urn:WaterMeter:MC0203J22010600005","2024-11-21T03:30:00",13.1,34.03839,0.243],
    [38838,"urn:WaterMeter:MC0203J22010600005","2024-11-21T03:45:00",13.1,34.032574,0.25],
    [38839,"urn:WaterMeter:MC0203J22010600005","2024-11-21T04:00:00",13.1,34.074467,0.249],
    [38840,"urn:WaterMeter:MC0203J22010600005","2024-11-21T04:15:00",13.1,34.01318,0.248],
    [38841,"urn:WaterMeter:MC0203J22010600005","2024-11-21T04:30:00",13,34.015118,0.246],
    [38842,"urn:WaterMeter:MC0203J22010600005","2024-11-21T04:45:00",13,34.077957,0.266],
    [38843,"urn:WaterMeter:MC0203J22010600005","2024-11-21T05:00:00",12.899,34.070976,0.256],
    [38844,"urn:WaterMeter:MC0203J22010600005","2024-11-21T05:15:00",13,34.04417,0.255],
    [38845,"urn:WaterMeter:MC0203J22010600005","2024-11-21T05:30:00",13.199,34.217213,0.255],
    [38846,"urn:WaterMeter:MC0203J22010600005","2024-11-21T05:45:00",13.3,34.804497,0.268],
    [38847,"urn:WaterMeter:MC0203J22010600005","2024-11-21T06:00:00",13.3,35.578705,0.285],
    [38848,"urn:WaterMeter:MC0203J22010600005","2024-11-21T06:15:00",13.399,36.118702,0.27],
    [38849,"urn:WaterMeter:MC0203J22010600005","2024-11-21T06:30:00",13.399,36.51436,0.285],
    [38850,"urn:WaterMeter:MC0203J22010600005","2024-11-21T06:45:00",13.5,36.708694,0.307],
    [38851,"urn:WaterMeter:MC0203J22010600005","2024-11-21T07:00:00",13.5,36.751713,0.296],
    [38852,"urn:WaterMeter:MC0203J22010600005","2024-11-21T07:15:00",13.6,36.919712,0.292],
    [38853,"urn:WaterMeter:MC0203J22010600005","2024-11-21T07:30:00",13.6,36.930187,0.284],
    [38854,"urn:WaterMeter:MC0203J22010600005","2024-11-21T07:45:00",13.699,37.01087,0.306],
    [38855,"urn:WaterMeter:MC0203J22010600005","2024-11-21T08:00:00",13.8,37.03139,0.297],
    [38856,"urn:WaterMeter:MC0203J22010600005","2024-11-21T08:15:00",13.899,36.971306,0.283],
    [38857,"urn:WaterMeter:MC0203J22010600005","2024-11-21T08:30:00",14,36.80955,0.279],
    [38858,"urn:WaterMeter:MC0203J22010600005","2024-11-21T08:45:00",14,36.548065,0.289],
    [38859,"urn:WaterMeter:MC0203J22010600005","2024-11-21T09:00:00",14.199,36.389843,0.293],
    [38860,"urn:WaterMeter:MC0203J22010600005","2024-11-21T09:15:00",14.3,36.195892,0.269],
    [38861,"urn:WaterMeter:MC0203J22010600005","2024-11-21T09:30:00",14.5,36.04186,0.269],
    [38862,"urn:WaterMeter:MC0203J22010600005","2024-11-21T09:45:00",14.699,35.934837,0.276],
    [38863,"urn:WaterMeter:MC0203J22010600005","2024-11-21T10:00:00",14.8,35.849846,0.265],
    [38864,"urn:WaterMeter:MC0203J22010600005","2024-11-21T10:15:00",15,35.794804,0.265],
    [38865,"urn:WaterMeter:MC0203J22010600005","2024-11-21T10:30:00",15.1,35.619083,0.278],
    [38866,"urn:WaterMeter:MC0203J22010600005","2024-11-21T10:45:00",15.199,35.543056,0.263],
    [38867,"urn:WaterMeter:MC0203J22010600005","2024-11-21T11:00:00",15.3,35.415825,0.272],
    [38868,"urn:WaterMeter:MC0203J22010600005","2024-11-21T11:15:00",15.5,35.39445,0.278],
    [38869,"urn:WaterMeter:MC0203J22010600005","2024-11-21T11:30:00",15.6,35.28584,0.287],
    [38870,"urn:WaterMeter:MC0203J22010600005","2024-11-21T11:45:00",15.699,35.20675,0.272],
    [38871,"urn:WaterMeter:MC0203J22010600005","2024-11-21T12:00:00",15.899,35.18037,0.264],
    [38872,"urn:WaterMeter:MC0203J22010600005","2024-11-21T12:15:00",16.1,35.098522,0.274],
    [38873,"urn:WaterMeter:MC0203J22010600005","2024-11-21T12:30:00",16.2,35.00543,0.271],
    [38874,"urn:WaterMeter:MC0203J22010600005","2024-11-21T12:45:00",16.299,34.978237,0.268],
    [38875,"urn:WaterMeter:MC0203J22010600005","2024-11-21T13:00:00",16.399,34.914658,0.256],
    [38876,"urn:WaterMeter:MC0203J22010600005","2024-11-21T13:15:00",16.5,34.839367,0.258],
    [38877,"urn:WaterMeter:MC0203J22010600005","2024-11-21T13:30:00",16.6,34.7851,0.262],
    [38878,"urn:WaterMeter:MC0203J22010600005","2024-11-21T13:45:00",16.7,34.73351,0.292],
    [38879,"urn:WaterMeter:MC0203J22010600005","2024-11-21T14:00:00",16.799,34.706318,0.268],
    [38880,"urn:WaterMeter:MC0203J22010600005","2024-11-21T14:15:00",16.799,34.654377,0.265],
    [38881,"urn:WaterMeter:MC0203J22010600005","2024-11-21T14:30:00",16.899,34.58494,0.254],
    [38882,"urn:WaterMeter:MC0203J22010600005","2024-11-21T14:45:00",16.799,34.55236,0.252],
    [38883,"urn:WaterMeter:MC0203J22010600005","2024-11-21T15:00:00",16.899,34.506977,0.258],
    [38884,"urn:WaterMeter:MC0203J22010600005","2024-11-21T15:15:00",16.899,34.470512,0.258],
    [38885,"urn:WaterMeter:MC0203J22010600005","2024-11-21T15:30:00",16.899,34.389053,0.273],
    [38886,"urn:WaterMeter:MC0203J22010600005","2024-11-21T15:45:00",16.899,34.36229,0.25],
    [38887,"urn:WaterMeter:MC0203J22010600005","2024-11-21T16:00:00",16.799,34.344444,0.254],
    [38888,"urn:WaterMeter:MC0203J22010600005","2024-11-21T16:15:00",16.799,34.28432,0.257],
    [38889,"urn:WaterMeter:MC0203J22010600005","2024-11-21T16:30:00",16.7,34.277687,0.29],
    [38890,"urn:WaterMeter:MC0203J22010600005","2024-11-21T16:45:00",16.5,34.303715,0.278],
    [38891,"urn:WaterMeter:MC0203J22010600005","2024-11-21T17:00:00",16.399,34.2626,0.257],
    [38892,"urn:WaterMeter:MC0203J22010600005","2024-11-21T17:15:00",16.299,34.265312,0.267],
    [38893,"urn:WaterMeter:MC0203J22010600005","2024-11-21T17:30:00",16.2,34.264538,0.254],
    [38894,"urn:WaterMeter:MC0203J22010600005","2024-11-21T17:45:00",16,34.261436,0.253],
    [38895,"urn:WaterMeter:MC0203J22010600005","2024-11-21T18:00:00",15.899,34.19006,0.261],
    [38896,"urn:WaterMeter:MC0203J22010600005","2024-11-21T18:15:00",15.8,34.195103,0.264],
    [38897,"urn:WaterMeter:MC0203J22010600005","2024-11-21T18:30:00",15.699,34.195103,0.252],
    [38898,"urn:WaterMeter:MC0203J22010600005","2024-11-21T18:45:00",15.5,34.198982,0.256],
    [38899,"urn:WaterMeter:MC0203J22010600005","2024-11-21T19:00:00",15.399,34.17373,0.254],
    [38900,"urn:WaterMeter:MC0203J22010600005","2024-11-21T19:15:00",15.399,34.19588,0.282],
    [38901,"urn:WaterMeter:MC0203J22010600005","2024-11-21T19:30:00",15.3,34.196655,0.253],
    [38902,"urn:WaterMeter:MC0203J22010600005","2024-11-21T19:45:00",15.199,34.196655,0.268],
    [38903,"urn:WaterMeter:MC0203J22010600005","2024-11-21T20:00:00",15.1,34.185406,0.253],
    [38904,"urn:WaterMeter:MC0203J22010600005","2024-11-21T20:15:00",15,34.179935,0.256],
    [38905,"urn:WaterMeter:MC0203J22010600005","2024-11-21T20:30:00",14.899,34.203636,0.279],
    [38906,"urn:WaterMeter:MC0203J22010600005","2024-11-21T20:45:00",14.8,34.1311,0.255],
    [38907,"urn:WaterMeter:MC0203J22010600005","2024-11-21T21:00:00",14.699,34.110153,0.275],
    [38908,"urn:WaterMeter:MC0203J22010600005","2024-11-21T21:15:00",14.6,34.157867,0.273],
    [38909,"urn:WaterMeter:MC0203J22010600005","2024-11-21T21:30:00",14.399,34.14933,0.262],
    [38910,"urn:WaterMeter:MC0203J22010600005","2024-11-21T21:45:00",14.3,34.13537,0.277],
    [38911,"urn:WaterMeter:MC0203J22010600005","2024-11-21T22:00:00",14.199,34.139248,0.259],
    [38912,"urn:WaterMeter:MC0203J22010600005","2024-11-21T22:15:00",14.1,34.148945,0.258],
    [38913,"urn:WaterMeter:MC0203J22010600005","2024-11-21T22:30:00",14,34.15709,0.254],
    [38914,"urn:WaterMeter:MC0203J22010600005","2024-11-21T22:45:00",13.899,34.083736,0.269],
    [38915,"urn:WaterMeter:MC0203J22010600005","2024-11-21T23:00:00",13.899,34.102356,0.26],
    [38916,"urn:WaterMeter:MC0203J22010600005","2024-11-21T23:15:00",13.8,34.129547,0.249],
    [38917,"urn:WaterMeter:MC0203J22010600005","2024-11-21T23:30:00",13.699,34.098904,0.26],
    [38918,"urn:WaterMeter:MC0203J22010600005","2024-11-21T23:45:00",13.6,34.13692,0.255],
    [38919,"urn:WaterMeter:MC0203J22010600005","2024-11-22T00:00:00",13.5,34.081448,0.258],
    [38920,"urn:WaterMeter:MC0203J22010600005","2024-11-22T00:15:00",13.399,34.11985,0.25],
    [38921,"urn:WaterMeter:MC0203J22010600005","2024-11-22T00:30:00",13.399,34.119465,0.255],
    [38922,"urn:WaterMeter:MC0203J22010600005","2024-11-22T00:45:00",13.3,34.134552,0.271],
    [38923,"urn:WaterMeter:MC0203J22010600005","2024-11-22T01:00:00",13.3,34.126446,0.248],
    [38924,"urn:WaterMeter:MC0203J22010600005","2024-11-22T01:15:00",13.3,34.05779,0.263],
    [38925,"urn:WaterMeter:MC0203J22010600005","2024-11-22T01:30:00",13.3,34.11675,0.258],
    [38926,"urn:WaterMeter:MC0203J22010600005","2024-11-22T01:45:00",13.3,34.089596,0.254],
    [38927,"urn:WaterMeter:MC0203J22010600005","2024-11-22T02:00:00",13.199,34.047276,0.249],
    [38928,"urn:WaterMeter:MC0203J22010600005","2024-11-22T02:15:00",13.1,34.088432,0.26],
    [38929,"urn:WaterMeter:MC0203J22010600005","2024-11-22T02:30:00",13.1,34.0849,0.257],
    [38930,"urn:WaterMeter:MC0203J22010600005","2024-11-22T02:45:00",13.1,34.047665,0.255],
    [38931,"urn:WaterMeter:MC0203J22010600005","2024-11-22T03:00:00",13.1,34.056583,0.249],
    [38932,"urn:WaterMeter:MC0203J22010600005","2024-11-22T03:15:00",13.1,34.081448,0.274],
    [38933,"urn:WaterMeter:MC0203J22010600005","2024-11-22T03:30:00",13,34.06787,0.252],
    [38934,"urn:WaterMeter:MC0203J22010600005","2024-11-22T03:45:00",13,34.025166,0.248],
    [38935,"urn:WaterMeter:MC0203J22010600005","2024-11-22T04:00:00",13,34.052746,0.252],
    [38936,"urn:WaterMeter:MC0203J22010600005","2024-11-22T04:15:00",12.899,34.029858,0.264],
    [38937,"urn:WaterMeter:MC0203J22010600005","2024-11-22T04:30:00",12.899,34.00969,0.263],
    [38938,"urn:WaterMeter:MC0203J22010600005","2024-11-22T04:45:00",12.8,33.971287,0.264],
    [38939,"urn:WaterMeter:MC0203J22010600005","2024-11-22T05:00:00",12.8,34.028267,0.247],
    [38940,"urn:WaterMeter:MC0203J22010600005","2024-11-22T05:15:00",12.899,34.041107,0.251],
    [38941,"urn:WaterMeter:MC0203J22010600005","2024-11-22T05:30:00",13.1,34.19743,0.265],
    [38942,"urn:WaterMeter:MC0203J22010600005","2024-11-22T05:45:00",13.1,34.88479,0.264],
    [38943,"urn:WaterMeter:MC0203J22010600005","2024-11-22T06:00:00",13.199,35.691235,0.275],
    [38944,"urn:WaterMeter:MC0203J22010600005","2024-11-22T06:15:00",13.199,36.243217,0.283],
    [38945,"urn:WaterMeter:MC0203J22010600005","2024-11-22T06:30:00",13.199,36.53992,0.286],
    [38946,"urn:WaterMeter:MC0203J22010600005","2024-11-22T06:45:00",13.199,36.77774,0.292],
    [38947,"urn:WaterMeter:MC0203J22010600005","2024-11-22T07:00:00",13.3,36.877007,0.29],
    [38948,"urn:WaterMeter:MC0203J22010600005","2024-11-22T07:15:00",13.3,36.948418,0.287],
    [38949,"urn:WaterMeter:MC0203J22010600005","2024-11-22T07:30:00",13.399,36.9926,0.299],
    [38950,"urn:WaterMeter:MC0203J22010600005","2024-11-22T07:45:00",13.399,36.97437,0.276],
    [38951,"urn:WaterMeter:MC0203J22010600005","2024-11-22T08:00:00",13.5,36.995705,0.306],
    [38952,"urn:WaterMeter:MC0203J22010600005","2024-11-22T08:15:00",13.5,36.981388,0.284],
    [38953,"urn:WaterMeter:MC0203J22010600005","2024-11-22T08:30:00",13.5,36.784725,0.305],
    [38954,"urn:WaterMeter:MC0203J22010600005","2024-11-22T08:45:00",13.5,36.572544,0.285],
    [38955,"urn:WaterMeter:MC0203J22010600005","2024-11-22T09:00:00",13.5,36.43988,0.301],
    [38956,"urn:WaterMeter:MC0203J22010600005","2024-11-22T09:15:00",13.5,36.16133,0.298],
    [38957,"urn:WaterMeter:MC0203J22010600005","2024-11-22T09:30:00",13.6,36.097366,0.282],
    [38958,"urn:WaterMeter:MC0203J22010600005","2024-11-22T09:45:00",13.699,35.946823,0.279],
    [38959,"urn:WaterMeter:MC0203J22010600005","2024-11-22T10:00:00",13.8,35.8751,0.278],
    [38960,"urn:WaterMeter:MC0203J22010600005","2024-11-22T10:15:00",13.899,35.83825,0.274],
    [38961,"urn:WaterMeter:MC0203J22010600005","2024-11-22T10:30:00",14,35.82153,0.271],
    [38962,"urn:WaterMeter:MC0203J22010600005","2024-11-22T10:45:00",14.1,35.728085,0.272],
    [38963,"urn:WaterMeter:MC0203J22010600005","2024-11-22T11:00:00",14.3,35.66598,0.271],
    [38964,"urn:WaterMeter:MC0203J22010600005","2024-11-22T11:15:00",14.5,35.526764,0.265],
    [38965,"urn:WaterMeter:MC0203J22010600005","2024-11-22T11:30:00",14.699,35.415012,0.277],
    [38966,"urn:WaterMeter:MC0203J22010600005","2024-11-22T11:45:00",14.899,35.304497,0.266],
    [38967,"urn:WaterMeter:MC0203J22010600005","2024-11-22T12:00:00",15.1,35.245148,0.261],
    [38968,"urn:WaterMeter:MC0203J22010600005","2024-11-22T12:15:00",15.3,35.169857,0.28],
    [38969,"urn:WaterMeter:MC0203J22010600005","2024-11-22T12:30:00",15.399,35.120632,0.273],
    [38970,"urn:WaterMeter:MC0203J22010600005","2024-11-22T12:45:00",15.6,35.059345,0.268],
    [38971,"urn:WaterMeter:MC0203J22010600005","2024-11-22T13:00:00",15.8,35.013184,0.276],
    [38972,"urn:WaterMeter:MC0203J22010600005","2024-11-22T13:15:00",16,34.933666,0.281],
    [38973,"urn:WaterMeter:MC0203J22010600005","2024-11-22T13:30:00",16.2,34.877033,0.259],
    [38974,"urn:WaterMeter:MC0203J22010600005","2024-11-22T13:45:00",16.299,34.80527,0.26],
    [38975,"urn:WaterMeter:MC0203J22010600005","2024-11-22T14:00:00",16.399,34.756783,0.256],
    [38976,"urn:WaterMeter:MC0203J22010600005","2024-11-22T14:15:00",16.399,34.715626,0.261],
    [38977,"urn:WaterMeter:MC0203J22010600005","2024-11-22T14:30:00",16.399,34.654766,0.264],
    [38978,"urn:WaterMeter:MC0203J22010600005","2024-11-22T14:45:00",16.399,34.594643,0.26],
    [38979,"urn:WaterMeter:MC0203J22010600005","2024-11-22T15:00:00",16.299,34.6408,0.26],
    [38980,"urn:WaterMeter:MC0203J22010600005","2024-11-22T15:15:00",16.2,34.614037,0.259],
    [38981,"urn:WaterMeter:MC0203J22010600005","2024-11-22T15:30:00",16.2,34.519,0.262],
    [38982,"urn:WaterMeter:MC0203J22010600005","2024-11-22T15:45:00",16.2,34.470127,0.272],
    [38983,"urn:WaterMeter:MC0203J22010600005","2024-11-22T16:00:00",16.2,34.493748,0.255],
    [38984,"urn:WaterMeter:MC0203J22010600005","2024-11-22T16:15:00",16.1,34.46388,0.278],
    [38985,"urn:WaterMeter:MC0203J22010600005","2024-11-22T16:30:00",16.1,34.47319,0.262],
    [38986,"urn:WaterMeter:MC0203J22010600005","2024-11-22T16:45:00",16,34.423576,0.257],
    [38987,"urn:WaterMeter:MC0203J22010600005","2024-11-22T17:00:00",15.899,34.395996,0.266],
    [38988,"urn:WaterMeter:MC0203J22010600005","2024-11-22T17:15:00",15.8,34.406082,0.282],
    [38989,"urn:WaterMeter:MC0203J22010600005","2024-11-22T17:30:00",15.699,34.40647,0.264],
    [38990,"urn:WaterMeter:MC0203J22010600005","2024-11-22T17:45:00",15.6,34.409225,0.257],
    [38991,"urn:WaterMeter:MC0203J22010600005","2024-11-22T18:00:00",15.6,34.334747,0.264],
    [38992,"urn:WaterMeter:MC0203J22010600005","2024-11-22T18:15:00",15.5,34.392544,0.259],
    [38993,"urn:WaterMeter:MC0203J22010600005","2024-11-22T18:30:00",15.399,34.378582,0.264],
    [38994,"urn:WaterMeter:MC0203J22010600005","2024-11-22T18:45:00",15.399,34.317253,0.258],
    [38995,"urn:WaterMeter:MC0203J22010600005","2024-11-22T19:00:00",15.399,34.35065,0.266],
    [38996,"urn:WaterMeter:MC0203J22010600005","2024-11-22T19:15:00",15.3,34.31609,0.264],
    [38997,"urn:WaterMeter:MC0203J22010600005","2024-11-22T19:30:00",15.3,34.304104,0.261],
    [38998,"urn:WaterMeter:MC0203J22010600005","2024-11-22T19:45:00",15.3,34.301388,0.255],
    [38999,"urn:WaterMeter:MC0203J22010600005","2024-11-22T20:00:00",15.3,34.294796,0.271],
    [39000,"urn:WaterMeter:MC0203J22010600005","2024-11-22T20:15:00",15.199,34.234283,0.269],
    [39001,"urn:WaterMeter:MC0203J22010600005","2024-11-22T20:30:00",15.199,34.230366,0.268],
    [39002,"urn:WaterMeter:MC0203J22010600005","2024-11-22T20:45:00",15.1,34.289326,0.251],
    [39003,"urn:WaterMeter:MC0203J22010600005","2024-11-22T21:00:00",15.1,34.256004,0.263],
    [39004,"urn:WaterMeter:MC0203J22010600005","2024-11-22T21:15:00",15.1,34.2145,0.258],
    [39005,"urn:WaterMeter:MC0203J22010600005","2024-11-22T21:30:00",15.1,34.24747,0.268],
    [39006,"urn:WaterMeter:MC0203J22010600005","2024-11-22T21:45:00",15.1,34.20325,0.248],
    [39007,"urn:WaterMeter:MC0203J22010600005","2024-11-22T22:00:00",15,34.162483,0.269],
    [39008,"urn:WaterMeter:MC0203J22010600005","2024-11-22T22:15:00",15,34.148556,0.252],
    [39009,"urn:WaterMeter:MC0203J22010600005","2024-11-22T22:30:00",14.899,34.163258,0.255],
    [39010,"urn:WaterMeter:MC0203J22010600005","2024-11-22T22:45:00",14.899,34.21213,0.255],
    [39011,"urn:WaterMeter:MC0203J22010600005","2024-11-22T23:00:00",14.899,34.12214,0.255],
    [39012,"urn:WaterMeter:MC0203J22010600005","2024-11-22T23:15:00",14.899,34.137306,0.257],
    [39013,"urn:WaterMeter:MC0203J22010600005","2024-11-22T23:30:00",14.899,34.13692,0.257],
    [39014,"urn:WaterMeter:MC0203J22010600005","2024-11-22T23:45:00",14.899,34.136143,0.259],
    [39015,"urn:WaterMeter:MC0203J22010600005","2024-11-23T00:00:00",14.8,34.13304,0.253],
    [39016,"urn:WaterMeter:MC0203J22010600005","2024-11-23T00:15:00",14.8,34.08688,0.258],
    [39017,"urn:WaterMeter:MC0203J22010600005","2024-11-23T00:30:00",14.8,34.133778,0.257],
    [39018,"urn:WaterMeter:MC0203J22010600005","2024-11-23T00:45:00",14.8,34.08727,0.253],
    [39019,"urn:WaterMeter:MC0203J22010600005","2024-11-23T01:00:00",14.8,34.134552,0.264],
    [39020,"urn:WaterMeter:MC0203J22010600005","2024-11-23T01:15:00",14.8,34.12567,0.256],
    [39021,"urn:WaterMeter:MC0203J22010600005","2024-11-23T01:30:00",14.699,34.04417,0.253],
    [39022,"urn:WaterMeter:MC0203J22010600005","2024-11-23T01:45:00",14.699,34.040333,0.256],
    [39023,"urn:WaterMeter:MC0203J22010600005","2024-11-23T02:00:00",14.699,34.051582,0.253],
    [39024,"urn:WaterMeter:MC0203J22010600005","2024-11-23T02:15:00",14.699,34.086067,0.258],
    [39025,"urn:WaterMeter:MC0203J22010600005","2024-11-23T02:30:00",14.6,34.088043,0.255],
    [39026,"urn:WaterMeter:MC0203J22010600005","2024-11-23T02:45:00",14.6,34.01318,0.257],
    [39027,"urn:WaterMeter:MC0203J22010600005","2024-11-23T03:00:00",14.6,34.000378,0.254],
    [39028,"urn:WaterMeter:MC0203J22010600005","2024-11-23T03:15:00",14.6,33.995335,0.251],
    [39029,"urn:WaterMeter:MC0203J22010600005","2024-11-23T03:30:00",14.6,34.036415,0.245],
    [39030,"urn:WaterMeter:MC0203J22010600005","2024-11-23T03:45:00",14.5,34.018997,0.26],
    [39031,"urn:WaterMeter:MC0203J22010600005","2024-11-23T04:00:00",14.5,34.02633,0.252],
    [39032,"urn:WaterMeter:MC0203J22010600005","2024-11-23T04:15:00",14.5,34.02404,0.25],
    [39033,"urn:WaterMeter:MC0203J22010600005","2024-11-23T04:30:00",14.5,34.019386,0.254],
    [39034,"urn:WaterMeter:MC0203J22010600005","2024-11-23T04:45:00",14.5,33.99107,0.259],
    [39035,"urn:WaterMeter:MC0203J22010600005","2024-11-23T05:00:00",14.5,33.9984,0.256],
    [39036,"urn:WaterMeter:MC0203J22010600005","2024-11-23T05:15:00",14.5,33.927067,0.264],
    [39037,"urn:WaterMeter:MC0203J22010600005","2024-11-23T05:30:00",14.5,34.006546,0.257],
    [39038,"urn:WaterMeter:MC0203J22010600005","2024-11-23T05:45:00",14.5,33.932106,0.25],
    [39039,"urn:WaterMeter:MC0203J22010600005","2024-11-23T06:00:00",14.5,33.974003,0.249],
    [39040,"urn:WaterMeter:MC0203J22010600005","2024-11-23T06:15:00",14.5,33.96698,0.251],
    [39041,"urn:WaterMeter:MC0203J22010600005","2024-11-23T06:30:00",14.5,33.968143,0.245],
    [39042,"urn:WaterMeter:MC0203J22010600005","2024-11-23T06:45:00",14.5,33.917755,0.245],
    [39043,"urn:WaterMeter:MC0203J22010600005","2024-11-23T07:00:00",14.5,33.96,0.248],
    [39044,"urn:WaterMeter:MC0203J22010600005","2024-11-23T07:15:00",14.5,33.901424,0.256],
    [39045,"urn:WaterMeter:MC0203J22010600005","2024-11-23T07:30:00",14.5,33.9119,0.25],
    [39046,"urn:WaterMeter:MC0203J22010600005","2024-11-23T07:45:00",14.5,33.94099,0.259],
    [39047,"urn:WaterMeter:MC0203J22010600005","2024-11-23T08:00:00",14.6,33.89134,0.248],
    [39048,"urn:WaterMeter:MC0203J22010600005","2024-11-23T08:15:00",14.6,33.856853,0.254],
    [39049,"urn:WaterMeter:MC0203J22010600005","2024-11-23T08:30:00",14.699,33.904953,0.243],
    [39050,"urn:WaterMeter:MC0203J22010600005","2024-11-23T08:45:00",14.8,33.846382,0.268],
    [39051,"urn:WaterMeter:MC0203J22010600005","2024-11-23T09:00:00",14.899,33.838238,0.25],
    [39052,"urn:WaterMeter:MC0203J22010600005","2024-11-23T09:15:00",15.1,33.850224,0.257],
    [39053,"urn:WaterMeter:MC0203J22010600005","2024-11-23T09:30:00",15.199,33.845993,0.243],
    [39054,"urn:WaterMeter:MC0203J22010600005","2024-11-23T09:45:00",15.399,33.849483,0.262],
    [39055,"urn:WaterMeter:MC0203J22010600005","2024-11-23T10:00:00",15.6,33.769966,0.245],
    [39056,"urn:WaterMeter:MC0203J22010600005","2024-11-23T10:15:00",15.8,33.72687,0.242],
    [39057,"urn:WaterMeter:MC0203J22010600005","2024-11-23T10:30:00",16,33.690834,0.238],
    [39058,"urn:WaterMeter:MC0203J22010600005","2024-11-23T10:45:00",16.2,33.672215,0.261],
    [39059,"urn:WaterMeter:MC0203J22010600005","2024-11-23T11:00:00",16.299,33.641182,0.242],
    [39060,"urn:WaterMeter:MC0203J22010600005","2024-11-23T11:15:00",16.399,33.595024,0.256],
    [39061,"urn:WaterMeter:MC0203J22010600005","2024-11-23T11:30:00",16.5,33.54421,0.247],
    [39062,"urn:WaterMeter:MC0203J22010600005","2024-11-23T11:45:00",16.6,33.531406,0.253],
    [39063,"urn:WaterMeter:MC0203J22010600005","2024-11-23T12:00:00",16.7,33.47396,0.247],
    [39064,"urn:WaterMeter:MC0203J22010600005","2024-11-23T12:15:00",16.7,33.51861,0.251],
    [39065,"urn:WaterMeter:MC0203J22010600005","2024-11-23T12:30:00",16.799,33.461586,0.247],
    [39066,"urn:WaterMeter:MC0203J22010600005","2024-11-23T12:45:00",16.899,33.444866,0.242],
    [39067,"urn:WaterMeter:MC0203J22010600005","2024-11-23T13:00:00",17,33.390213,0.243],
    [39068,"urn:WaterMeter:MC0203J22010600005","2024-11-23T13:15:00",17,33.408443,0.257],
    [39069,"urn:WaterMeter:MC0203J22010600005","2024-11-23T13:30:00",17,33.300568,0.244],
    [39070,"urn:WaterMeter:MC0203J22010600005","2024-11-23T13:45:00",17.1,33.293625,0.242],
    [39071,"urn:WaterMeter:MC0203J22010600005","2024-11-23T14:00:00",17.1,33.330864,0.24],
    [39072,"urn:WaterMeter:MC0203J22010600005","2024-11-23T14:15:00",17,33.31651,0.252],
    [39073,"urn:WaterMeter:MC0203J22010600005","2024-11-23T14:30:00",17,33.27423,0.242],
    [39074,"urn:WaterMeter:MC0203J22010600005","2024-11-23T14:45:00",17,33.276558,0.244],
    [39075,"urn:WaterMeter:MC0203J22010600005","2024-11-23T15:00:00",17,33.21682,0.263],
    [39076,"urn:WaterMeter:MC0203J22010600005","2024-11-23T15:15:00",16.899,33.19351,0.248],
    [39077,"urn:WaterMeter:MC0203J22010600005","2024-11-23T15:30:00",16.899,33.263367,0.25],
    [39078,"urn:WaterMeter:MC0203J22010600005","2024-11-23T15:45:00",16.799,33.247463,0.235],
    [39079,"urn:WaterMeter:MC0203J22010600005","2024-11-23T16:00:00",16.799,33.1501,0.239],
    [39080,"urn:WaterMeter:MC0203J22010600005","2024-11-23T16:15:00",16.799,33.21135,0.24],
    [39081,"urn:WaterMeter:MC0203J22010600005","2024-11-23T16:30:00",16.7,33.199364,0.244],
    [39082,"urn:WaterMeter:MC0203J22010600005","2024-11-23T16:45:00",16.6,33.147385,0.26],
    [39083,"urn:WaterMeter:MC0203J22010600005","2024-11-23T17:00:00",16.5,33.18381,0.252],
    [39084,"urn:WaterMeter:MC0203J22010600005","2024-11-23T17:15:00",16.5,33.158634,0.24],
    [39085,"urn:WaterMeter:MC0203J22010600005","2024-11-23T17:30:00",16.299,33.155106,0.257],
    [39086,"urn:WaterMeter:MC0203J22010600005","2024-11-23T17:45:00",16.2,33.130318,0.245],
    [39087,"urn:WaterMeter:MC0203J22010600005","2024-11-23T18:00:00",16.1,33.112476,0.247],
    [39088,"urn:WaterMeter:MC0203J22010600005","2024-11-23T18:15:00",16,33.173725,0.263],
    [39089,"urn:WaterMeter:MC0203J22010600005","2024-11-23T18:30:00",16,33.133385,0.24],
    [39090,"urn:WaterMeter:MC0203J22010600005","2024-11-23T18:45:00",15.899,33.167557,0.258],
    [39091,"urn:WaterMeter:MC0203J22010600005","2024-11-23T19:00:00",15.8,33.184196,0.248],
    [39092,"urn:WaterMeter:MC0203J22010600005","2024-11-23T19:15:00",15.699,33.191956,0.259],
    [39093,"urn:WaterMeter:MC0203J22010600005","2024-11-23T19:30:00",15.6,33.201305,0.252],
    [39094,"urn:WaterMeter:MC0203J22010600005","2024-11-23T19:45:00",15.5,33.149715,0.242],
    [39095,"urn:WaterMeter:MC0203J22010600005","2024-11-23T20:00:00",15.399,33.191956,0.248],
    [39096,"urn:WaterMeter:MC0203J22010600005","2024-11-23T20:15:00",15.3,33.186176,0.241],
    [39097,"urn:WaterMeter:MC0203J22010600005","2024-11-23T20:30:00",15.199,33.140404,0.243],
    [39098,"urn:WaterMeter:MC0203J22010600005","2024-11-23T20:45:00",15.199,33.140404,0.24],
    [39099,"urn:WaterMeter:MC0203J22010600005","2024-11-23T21:00:00",15.1,33.15747,0.238],
    [39100,"urn:WaterMeter:MC0203J22010600005","2024-11-23T21:15:00",15.1,33.136524,0.244],
    [39101,"urn:WaterMeter:MC0203J22010600005","2024-11-23T21:30:00",15.1,33.19898,0.239],
    [39102,"urn:WaterMeter:MC0203J22010600005","2024-11-23T21:45:00",15,33.17997,0.247],
    [39103,"urn:WaterMeter:MC0203J22010600005","2024-11-23T22:00:00",14.899,33.11286,0.254],
    [39104,"urn:WaterMeter:MC0203J22010600005","2024-11-23T22:15:00",14.899,33.20596,0.251],
    [39105,"urn:WaterMeter:MC0203J22010600005","2024-11-23T22:30:00",14.8,33.159798,0.239],
    [39106,"urn:WaterMeter:MC0203J22010600005","2024-11-23T22:45:00",14.8,33.190056,0.259],
    [39107,"urn:WaterMeter:MC0203J22010600005","2024-11-23T23:00:00",14.699,33.17997,0.259],
    [39108,"urn:WaterMeter:MC0203J22010600005","2024-11-23T23:15:00",14.699,33.135323,0.255],
    [39109,"urn:WaterMeter:MC0203J22010600005","2024-11-23T23:30:00",14.699,33.1276,0.244],
    [39110,"urn:WaterMeter:MC0203J22010600005","2024-11-23T23:45:00",14.699,33.163292,0.26],
    [39111,"urn:WaterMeter:MC0203J22010600005","2024-11-24T00:00:00",14.699,33.1501,0.242],
    [39112,"urn:WaterMeter:MC0203J22010600005","2024-11-24T00:15:00",14.699,33.15239,0.246],
    [39113,"urn:WaterMeter:MC0203J22010600005","2024-11-24T00:30:00",14.699,33.16872,0.241],
    [39114,"urn:WaterMeter:MC0203J22010600005","2024-11-24T00:45:00",14.699,33.145794,0.251],
    [39115,"urn:WaterMeter:MC0203J22010600005","2024-11-24T01:00:00",14.6,33.13377,0.244],
    [39116,"urn:WaterMeter:MC0203J22010600005","2024-11-24T01:15:00",14.6,33.11515,0.242],
    [39117,"urn:WaterMeter:MC0203J22010600005","2024-11-24T01:30:00",14.6,33.130707,0.253],
    [39118,"urn:WaterMeter:MC0203J22010600005","2024-11-24T01:45:00",14.5,33.135323,0.246],
    [39119,"urn:WaterMeter:MC0203J22010600005","2024-11-24T02:00:00",14.5,33.11713,0.258],
    [39120,"urn:WaterMeter:MC0203J22010600005","2024-11-24T02:15:00",14.5,33.172173,0.246],
    [39121,"urn:WaterMeter:MC0203J22010600005","2024-11-24T02:30:00",14.5,33.132607,0.249],
    [39122,"urn:WaterMeter:MC0203J22010600005","2024-11-24T02:45:00",14.5,33.159798,0.247],
    [39123,"urn:WaterMeter:MC0203J22010600005","2024-11-24T03:00:00",14.5,33.08377,0.237],
    [39124,"urn:WaterMeter:MC0203J22010600005","2024-11-24T03:15:00",14.5,33.13963,0.24],
    [39125,"urn:WaterMeter:MC0203J22010600005","2024-11-24T03:30:00",14.5,33.147,0.253],
    [39126,"urn:WaterMeter:MC0203J22010600005","2024-11-24T03:45:00",14.5,33.127216,0.251],
    [39127,"urn:WaterMeter:MC0203J22010600005","2024-11-24T04:00:00",14.5,33.15825,0.244],
    [39128,"urn:WaterMeter:MC0203J22010600005","2024-11-24T04:15:00",14.5,33.10239,0.241],
    [39129,"urn:WaterMeter:MC0203J22010600005","2024-11-24T04:30:00",14.5,33.0752,0.242],
    [39130,"urn:WaterMeter:MC0203J22010600005","2024-11-24T04:45:00",14.5,33.12062,0.244],
    [39131,"urn:WaterMeter:MC0203J22010600005","2024-11-24T05:00:00",14.399,33.081444,0.25],
    [39132,"urn:WaterMeter:MC0203J22010600005","2024-11-24T05:15:00",14.399,33.084934,0.244],
    [39133,"urn:WaterMeter:MC0203J22010600005","2024-11-24T05:30:00",14.399,33.12101,0.241],
    [39134,"urn:WaterMeter:MC0203J22010600005","2024-11-24T05:45:00",14.399,33.11713,0.24],
    [39135,"urn:WaterMeter:MC0203J22010600005","2024-11-24T06:00:00",14.3,33.124847,0.25],
    [39136,"urn:WaterMeter:MC0203J22010600005","2024-11-24T06:15:00",14.3,33.092693,0.251],
    [39137,"urn:WaterMeter:MC0203J22010600005","2024-11-24T06:30:00",14.3,33.07097,0.24],
    [39138,"urn:WaterMeter:MC0203J22010600005","2024-11-24T06:45:00",14.3,33.051186,0.241],
    [39139,"urn:WaterMeter:MC0203J22010600005","2024-11-24T07:00:00",14.3,33.092304,0.242],
    [39140,"urn:WaterMeter:MC0203J22010600005","2024-11-24T07:15:00",14.3,33.096146,0.237],
    [39141,"urn:WaterMeter:MC0203J22010600005","2024-11-24T07:30:00",14.3,33.072132,0.235],
    [39142,"urn:WaterMeter:MC0203J22010600005","2024-11-24T07:45:00",14.3,33.09114,0.23],
    [39143,"urn:WaterMeter:MC0203J22010600005","2024-11-24T08:00:00",14.3,33.070194,0.236],
    [39144,"urn:WaterMeter:MC0203J22010600005","2024-11-24T08:15:00",14.399,33.011234,0.23],
    [39145,"urn:WaterMeter:MC0203J22010600005","2024-11-24T08:30:00",14.399,33.040714,0.24],
    [39146,"urn:WaterMeter:MC0203J22010600005","2024-11-24T08:45:00",14.5,33.018177,0.241],
    [39147,"urn:WaterMeter:MC0203J22010600005","2024-11-24T09:00:00",14.6,33.02481,0.233],
    [39148,"urn:WaterMeter:MC0203J22010600005","2024-11-24T09:15:00",14.8,32.993004,0.248],
    [39149,"urn:WaterMeter:MC0203J22010600005","2024-11-24T09:30:00",15.1,33.010845,0.233],
    [39150,"urn:WaterMeter:MC0203J22010600005","2024-11-24T09:45:00",15.399,33.009644,0.25],
    [39151,"urn:WaterMeter:MC0203J22010600005","2024-11-24T10:00:00",15.6,32.928223,0.234],
    [39152,"urn:WaterMeter:MC0203J22010600005","2024-11-24T10:15:00",15.699,32.923954,0.247],
    [39153,"urn:WaterMeter:MC0203J22010600005","2024-11-24T10:30:00",15.899,32.88086,0.24],
    [39154,"urn:WaterMeter:MC0203J22010600005","2024-11-24T10:45:00",16,32.85995,0.228],
    [39155,"urn:WaterMeter:MC0203J22010600005","2024-11-24T11:00:00",16,32.847538,0.242],
    [39156,"urn:WaterMeter:MC0203J22010600005","2024-11-24T11:15:00",16.2,32.74203,0.236],
    [39157,"urn:WaterMeter:MC0203J22010600005","2024-11-24T11:30:00",16.299,32.773064,0.23],
    [39158,"urn:WaterMeter:MC0203J22010600005","2024-11-24T11:45:00",16.299,32.746258,0.237],
    [39159,"urn:WaterMeter:MC0203J22010600005","2024-11-24T12:00:00",16.399,32.705917,0.226],
    [39160,"urn:WaterMeter:MC0203J22010600005","2024-11-24T12:15:00",16.5,32.67415,0.243],
    [39161,"urn:WaterMeter:MC0203J22010600005","2024-11-24T12:30:00",16.5,32.721085,0.227],
    [39162,"urn:WaterMeter:MC0203J22010600005","2024-11-24T12:45:00",16.6,32.66678,0.226],
    [39163,"urn:WaterMeter:MC0203J22010600005","2024-11-24T13:00:00",16.7,32.61286,0.228],
    [39164,"urn:WaterMeter:MC0203J22010600005","2024-11-24T13:15:00",16.799,32.59657,0.25],
    [39165,"urn:WaterMeter:MC0203J22010600005","2024-11-24T13:30:00",16.799,32.55192,0.23],
    [39166,"urn:WaterMeter:MC0203J22010600005","2024-11-24T13:45:00",16.899,32.525154,0.233],
    [39167,"urn:WaterMeter:MC0203J22010600005","2024-11-24T14:00:00",16.899,32.48214,0.248],
    [39168,"urn:WaterMeter:MC0203J22010600005","2024-11-24T14:15:00",16.899,32.485203,0.229],
    [39169,"urn:WaterMeter:MC0203J22010600005","2024-11-24T14:30:00",16.899,32.49649,0.227],
    [39170,"urn:WaterMeter:MC0203J22010600005","2024-11-24T14:45:00",16.899,32.46352,0.24],
    [39171,"urn:WaterMeter:MC0203J22010600005","2024-11-24T15:00:00",16.899,32.38206,0.225],
    [39172,"urn:WaterMeter:MC0203J22010600005","2024-11-24T15:15:00",16.899,32.39676,0.24],
    [39173,"urn:WaterMeter:MC0203J22010600005","2024-11-24T15:30:00",16.899,32.38939,0.222],
    [39174,"urn:WaterMeter:MC0203J22010600005","2024-11-24T15:45:00",16.899,32.384773,0.248],
    [39175,"urn:WaterMeter:MC0203J22010600005","2024-11-24T16:00:00",16.799,32.41538,0.23],
    [39176,"urn:WaterMeter:MC0203J22010600005","2024-11-24T16:15:00",16.799,32.39525,0.246],
    [39177,"urn:WaterMeter:MC0203J22010600005","2024-11-24T16:30:00",16.7,32.36538,0.244],
    [39178,"urn:WaterMeter:MC0203J22010600005","2024-11-24T16:45:00",16.6,32.3603,0.228],
    [39179,"urn:WaterMeter:MC0203J22010600005","2024-11-24T17:00:00",16.5,32.381283,0.253],
    [39180,"urn:WaterMeter:MC0203J22010600005","2024-11-24T17:15:00",16.399,32.383224,0.246],
    [39181,"urn:WaterMeter:MC0203J22010600005","2024-11-24T17:30:00",16.299,32.323486,0.233],
    [39182,"urn:WaterMeter:MC0203J22010600005","2024-11-24T17:45:00",16.2,32.33202,0.235],
    [39183,"urn:WaterMeter:MC0203J22010600005","2024-11-24T18:00:00",16.1,32.327755,0.244],
    [39184,"urn:WaterMeter:MC0203J22010600005","2024-11-24T18:15:00",16,32.318016,0.238],
    [39185,"urn:WaterMeter:MC0203J22010600005","2024-11-24T18:30:00",15.899,32.35797,0.242],
    [39186,"urn:WaterMeter:MC0203J22010600005","2024-11-24T18:45:00",15.8,32.3487,0.232],
    [39187,"urn:WaterMeter:MC0203J22010600005","2024-11-24T19:00:00",15.699,32.342495,0.25],
    [39188,"urn:WaterMeter:MC0203J22010600005","2024-11-24T19:15:00",15.6,32.311424,0.241],
    [39189,"urn:WaterMeter:MC0203J22010600005","2024-11-24T19:30:00",15.5,32.383224,0.227],
    [39190,"urn:WaterMeter:MC0203J22010600005","2024-11-24T19:45:00",15.5,32.377754,0.239],
    [39191,"urn:WaterMeter:MC0203J22010600005","2024-11-24T20:00:00",15.399,32.30254,0.242],
    [39192,"urn:WaterMeter:MC0203J22010600005","2024-11-24T20:15:00",15.3,32.37853,0.245],
    [39193,"urn:WaterMeter:MC0203J22010600005","2024-11-24T20:30:00",15.199,32.346375,0.232],
    [39194,"urn:WaterMeter:MC0203J22010600005","2024-11-24T20:45:00",15.1,32.388615,0.24],
    [39195,"urn:WaterMeter:MC0203J22010600005","2024-11-24T21:00:00",15,32.37236,0.239],
    [39196,"urn:WaterMeter:MC0203J22010600005","2024-11-24T21:15:00",14.899,32.358746,0.242],
    [39197,"urn:WaterMeter:MC0203J22010600005","2024-11-24T21:30:00",14.899,32.362663,0.244],
    [39198,"urn:WaterMeter:MC0203J22010600005","2024-11-24T21:45:00",14.8,32.344822,0.236],
    [39199,"urn:WaterMeter:MC0203J22010600005","2024-11-24T22:00:00",14.8,32.33629,0.231],
    [39200,"urn:WaterMeter:MC0203J22010600005","2024-11-24T22:15:00",14.699,32.357582,0.223],
    [39201,"urn:WaterMeter:MC0203J22010600005","2024-11-24T22:30:00",14.699,32.320343,0.235],
    [39202,"urn:WaterMeter:MC0203J22010600005","2024-11-24T22:45:00",14.6,32.322712,0.236],
    [39203,"urn:WaterMeter:MC0203J22010600005","2024-11-24T23:00:00",14.6,32.385937,0.231],
    [39204,"urn:WaterMeter:MC0203J22010600005","2024-11-24T23:15:00",14.6,32.3506,0.238],
    [39205,"urn:WaterMeter:MC0203J22010600005","2024-11-24T23:30:00",14.5,32.342106,0.229],
    [39206,"urn:WaterMeter:MC0203J22010600005","2024-11-25T07:15:00",14.6,36.058964,0.28],
    [39207,"urn:WaterMeter:MC0203J22010600005","2024-11-25T07:30:00",14.6,36.256367,0.266],
    [39208,"urn:WaterMeter:MC0203J22010600005","2024-11-25T07:45:00",14.699,36.365364,0.28],
    [39209,"urn:WaterMeter:MC0203J22010600005","2024-11-25T08:00:00",14.699,36.437164,0.278],
    [39210,"urn:WaterMeter:MC0203J22010600005","2024-11-25T08:15:00",14.699,36.16525,0.278],
    [39211,"urn:WaterMeter:MC0203J22010600005","2024-11-25T08:30:00",14.699,35.806053,0.298],
    [39212,"urn:WaterMeter:MC0203J22010600005","2024-11-25T08:45:00",14.699,35.710243,0.265],
    [39213,"urn:WaterMeter:MC0203J22010600005","2024-11-25T09:00:00",14.699,35.521683,0.272],
    [39214,"urn:WaterMeter:MC0203J22010600005","2024-11-25T09:15:00",14.699,35.516678,0.302],
    [39215,"urn:WaterMeter:MC0203J22010600005","2024-11-25T09:30:00",14.699,35.464703,0.278],
    [39216,"urn:WaterMeter:MC0203J22010600005","2024-11-25T09:45:00",14.8,35.41156,0.283],
    [39217,"urn:WaterMeter:MC0203J22010600005","2024-11-25T10:00:00",14.899,35.41346,0.271],
    [39218,"urn:WaterMeter:MC0203J22010600005","2024-11-25T10:15:00",15,35.259464,0.256],
    [39219,"urn:WaterMeter:MC0203J22010600005","2024-11-25T10:30:00",15.1,35.22459,0.259],
    [39220,"urn:WaterMeter:MC0203J22010600005","2024-11-25T10:45:00",15.3,35.137703,0.259],
    [39221,"urn:WaterMeter:MC0203J22010600005","2024-11-25T11:00:00",15.399,35.114815,0.278],
    [39222,"urn:WaterMeter:MC0203J22010600005","2024-11-25T11:15:00",15.5,35.011635,0.266],
    [39223,"urn:WaterMeter:MC0203J22010600005","2024-11-25T11:30:00",15.6,34.996468,0.26],
    [39224,"urn:WaterMeter:MC0203J22010600005","2024-11-25T11:45:00",15.6,34.96237,0.26],
    [39225,"urn:WaterMeter:MC0203J22010600005","2024-11-25T12:00:00",15.699,34.93712,0.26],
    [39226,"urn:WaterMeter:MC0203J22010600005","2024-11-25T12:15:00",15.8,34.852554,0.254],
    [39227,"urn:WaterMeter:MC0203J22010600005","2024-11-25T12:30:00",15.899,34.815742,0.262],
    [39228,"urn:WaterMeter:MC0203J22010600005","2024-11-25T12:45:00",16,34.784286,0.262],
    [39229,"urn:WaterMeter:MC0203J22010600005","2024-11-25T13:00:00",16,34.70015,0.251],
    [39230,"urn:WaterMeter:MC0203J22010600005","2024-11-25T13:15:00",16.1,34.627186,0.251],
    [39231,"urn:WaterMeter:MC0203J22010600005","2024-11-25T13:30:00",16.2,34.634594,0.27],
    [39232,"urn:WaterMeter:MC0203J22010600005","2024-11-25T13:45:00",16.299,34.593864,0.261],
    [39233,"urn:WaterMeter:MC0203J22010600005","2024-11-25T14:00:00",16.299,34.543827,0.265],
    [39234,"urn:WaterMeter:MC0203J22010600005","2024-11-25T14:15:00",16.399,34.45073,0.252],
    [39235,"urn:WaterMeter:MC0203J22010600005","2024-11-25T14:30:00",16.399,34.470863,0.258],
    [39236,"urn:WaterMeter:MC0203J22010600005","2024-11-25T14:45:00",16.5,34.431725,0.259],
    [39237,"urn:WaterMeter:MC0203J22010600005","2024-11-25T15:00:00",16.5,34.366516,0.261],
    [39238,"urn:WaterMeter:MC0203J22010600005","2024-11-25T15:15:00",16.5,34.370823,0.266],
    [39239,"urn:WaterMeter:MC0203J22010600005","2024-11-25T15:30:00",16.5,34.35682,0.26],
    [39240,"urn:WaterMeter:MC0203J22010600005","2024-11-25T15:45:00",16.5,34.335484,0.25],
    [39241,"urn:WaterMeter:MC0203J22010600005","2024-11-25T16:00:00",16.5,34.281994,0.252],
    [39242,"urn:WaterMeter:MC0203J22010600005","2024-11-25T16:15:00",16.399,34.317253,0.257],
    [39243,"urn:WaterMeter:MC0203J22010600005","2024-11-25T16:30:00",16.399,34.298634,0.263],
    [39244,"urn:WaterMeter:MC0203J22010600005","2024-11-25T16:45:00",16.299,34.285095,0.245],
    [39245,"urn:WaterMeter:MC0203J22010600005","2024-11-25T17:00:00",16.2,34.20205,0.251],
    [39246,"urn:WaterMeter:MC0203J22010600005","2024-11-25T17:15:00",16.2,34.24747,0.252],
    [39247,"urn:WaterMeter:MC0203J22010600005","2024-11-25T17:30:00",16.1,34.23622,0.254],
    [39248,"urn:WaterMeter:MC0203J22010600005","2024-11-25T17:45:00",16,34.20519,0.255],
    [39249,"urn:WaterMeter:MC0203J22010600005","2024-11-25T18:00:00",15.899,34.200108,0.278],
    [39250,"urn:WaterMeter:MC0203J22010600005","2024-11-25T18:15:00",15.899,34.228462,0.254],
    [39251,"urn:WaterMeter:MC0203J22010600005","2024-11-25T18:30:00",15.8,34.18463,0.252],
    [39252,"urn:WaterMeter:MC0203J22010600005","2024-11-25T18:45:00",15.8,34.174934,0.264],
    [39253,"urn:WaterMeter:MC0203J22010600005","2024-11-25T19:00:00",15.8,34.145065,0.262],
    [39254,"urn:WaterMeter:MC0203J22010600005","2024-11-25T19:15:00",15.8,34.19782,0.262],
    [39255,"urn:WaterMeter:MC0203J22010600005","2024-11-25T19:30:00",15.699,34.165237,0.253],
    [39256,"urn:WaterMeter:MC0203J22010600005","2024-11-25T19:45:00",15.699,34.17726,0.257],
    [39257,"urn:WaterMeter:MC0203J22010600005","2024-11-25T20:00:00",15.699,34.14933,0.251],
    [39258,"urn:WaterMeter:MC0203J22010600005","2024-11-25T20:15:00",15.8,34.144638,0.254],
    [39259,"urn:WaterMeter:MC0203J22010600005","2024-11-25T20:30:00",15.8,34.122917,0.255],
    [39260,"urn:WaterMeter:MC0203J22010600005","2024-11-25T20:45:00",15.8,34.164032,0.258],
    [39261,"urn:WaterMeter:MC0203J22010600005","2024-11-25T21:00:00",15.8,34.10705,0.266],
    [39262,"urn:WaterMeter:MC0203J22010600005","2024-11-25T21:15:00",15.699,34.088043,0.264],
    [39263,"urn:WaterMeter:MC0203J22010600005","2024-11-25T21:30:00",15.6,34.11985,0.253],
    [39264,"urn:WaterMeter:MC0203J22010600005","2024-11-25T21:45:00",15.6,34.0946,0.256],
    [39265,"urn:WaterMeter:MC0203J22010600005","2024-11-25T22:00:00",15.5,34.06865,0.253],
    [39266,"urn:WaterMeter:MC0203J22010600005","2024-11-25T22:15:00",15.5,34.06512,0.262],
    [39267,"urn:WaterMeter:MC0203J22010600005","2024-11-25T22:30:00",15.399,34.06865,0.247],
    [39268,"urn:WaterMeter:MC0203J22010600005","2024-11-25T22:45:00",15.3,34.052357,0.256],
    [39269,"urn:WaterMeter:MC0203J22010600005","2024-11-25T23:00:00",15.3,34.05313,0.249],
    [39270,"urn:WaterMeter:MC0203J22010600005","2024-11-25T23:15:00",15.199,34.084515,0.258],
    [39271,"urn:WaterMeter:MC0203J22010600005","2024-11-25T23:30:00",15.1,34.054684,0.269],
    [39272,"urn:WaterMeter:MC0203J22010600005","2024-11-25T23:45:00",15,34.074467,0.268],
    [39273,"urn:WaterMeter:MC0203J22010600005","2024-11-26T00:00:00",15,34.05581,0.259],
    [39274,"urn:WaterMeter:MC0203J22010600005","2024-11-26T00:15:00",14.899,34.070587,0.268],
    [39275,"urn:WaterMeter:MC0203J22010600005","2024-11-26T00:30:00",14.8,34.049255,0.259],
    [39276,"urn:WaterMeter:MC0203J22010600005","2024-11-26T00:45:00",14.699,34.03141,0.248],
    [39277,"urn:WaterMeter:MC0203J22010600005","2024-11-26T01:00:00",14.699,34.036415,0.268],
    [39278,"urn:WaterMeter:MC0203J22010600005","2024-11-26T01:15:00",14.6,34.017017,0.262],
    [39279,"urn:WaterMeter:MC0203J22010600005","2024-11-26T01:30:00",14.5,34.067486,0.247],
    [39280,"urn:WaterMeter:MC0203J22010600005","2024-11-26T01:45:00",14.5,34.01124,0.255],
    [39281,"urn:WaterMeter:MC0203J22010600005","2024-11-26T02:00:00",14.399,34.06512,0.26],
    [39282,"urn:WaterMeter:MC0203J22010600005","2024-11-26T02:15:00",14.3,34.074856,0.253],
    [39283,"urn:WaterMeter:MC0203J22010600005","2024-11-26T02:30:00",14.199,34.065895,0.251],
    [39284,"urn:WaterMeter:MC0203J22010600005","2024-11-26T02:45:00",14.199,34.008484,0.255],
    [39285,"urn:WaterMeter:MC0203J22010600005","2024-11-26T03:00:00",14.1,34.059727,0.259],
    [39286,"urn:WaterMeter:MC0203J22010600005","2024-11-26T03:15:00",14,34.05391,0.248],
    [39287,"urn:WaterMeter:MC0203J22010600005","2024-11-26T03:30:00",14,33.956158,0.266],
    [39288,"urn:WaterMeter:MC0203J22010600005","2024-11-26T03:45:00",13.899,33.99068,0.25],
    [39289,"urn:WaterMeter:MC0203J22010600005","2024-11-26T04:00:00",13.8,33.980595,0.259],
    [39290,"urn:WaterMeter:MC0203J22010600005","2024-11-26T04:15:00",13.8,33.984863,0.257],
    [39291,"urn:WaterMeter:MC0203J22010600005","2024-11-26T04:30:00",13.699,34.05042,0.253],
    [39292,"urn:WaterMeter:MC0203J22010600005","2024-11-26T04:45:00",13.6,34.017796,0.252],
    [39293,"urn:WaterMeter:MC0203J22010600005","2024-11-26T05:00:00",13.6,33.956158,0.26],
    [39294,"urn:WaterMeter:MC0203J22010600005","2024-11-26T05:15:00",13.6,33.96469,0.253],
    [39295,"urn:WaterMeter:MC0203J22010600005","2024-11-26T05:30:00",13.8,34.150883,0.265],
    [39296,"urn:WaterMeter:MC0203J22010600005","2024-11-26T05:45:00",13.8,35.002712,0.27],
    [39297,"urn:WaterMeter:MC0203J22010600005","2024-11-26T06:00:00",13.8,35.713696,0.303],
    [39298,"urn:WaterMeter:MC0203J22010600005","2024-11-26T06:15:00",13.8,36.18387,0.285],
    [39299,"urn:WaterMeter:MC0203J22010600005","2024-11-26T06:30:00",13.8,36.427467,0.29],
    [39300,"urn:WaterMeter:MC0203J22010600005","2024-11-26T06:45:00",13.8,36.602024,0.291],
    [39301,"urn:WaterMeter:MC0203J22010600005","2024-11-26T07:00:00",13.699,36.828945,0.293],
    [39302,"urn:WaterMeter:MC0203J22010600005","2024-11-26T07:15:00",13.8,36.929024,0.303],
    [39303,"urn:WaterMeter:MC0203J22010600005","2024-11-26T07:30:00",13.8,36.986008,0.318],
    [39304,"urn:WaterMeter:MC0203J22010600005","2024-11-26T07:45:00",13.8,37.09035,0.288],
    [39305,"urn:WaterMeter:MC0203J22010600005","2024-11-26T08:00:00",13.8,37.189266,0.291],
    [39306,"urn:WaterMeter:MC0203J22010600005","2024-11-26T08:15:00",13.899,37.071342,0.283],
    [39307,"urn:WaterMeter:MC0203J22010600005","2024-11-26T08:30:00",13.899,36.87623,0.284],
    [39308,"urn:WaterMeter:MC0203J22010600005","2024-11-26T08:45:00",14,36.586468,0.291],
    [39309,"urn:WaterMeter:MC0203J22010600005","2024-11-26T09:00:00",14.3,36.349113,0.281],
    [39310,"urn:WaterMeter:MC0203J22010600005","2024-11-26T09:15:00",14.5,36.138832,0.271],
    [39311,"urn:WaterMeter:MC0203J22010600005","2024-11-26T09:30:00",14.8,35.987976,0.285],
    [39312,"urn:WaterMeter:MC0203J22010600005","2024-11-26T09:45:00",15.199,35.885185,0.272],
    [39313,"urn:WaterMeter:MC0203J22010600005","2024-11-26T10:00:00",15.399,35.741272,0.273],
    [39314,"urn:WaterMeter:MC0203J22010600005","2024-11-26T10:15:00",15.6,35.66253,0.265],
    [39315,"urn:WaterMeter:MC0203J22010600005","2024-11-26T10:30:00",15.6,35.553917,0.276],
    [39316,"urn:WaterMeter:MC0203J22010600005","2024-11-26T10:45:00",15.6,35.44453,0.269],
    [39317,"urn:WaterMeter:MC0203J22010600005","2024-11-26T11:00:00",15.699,35.415825,0.26],
    [39318,"urn:WaterMeter:MC0203J22010600005","2024-11-26T11:15:00",15.8,35.288166,0.268],
    [39319,"urn:WaterMeter:MC0203J22010600005","2024-11-26T11:30:00",16,35.246662,0.262],
    [39320,"urn:WaterMeter:MC0203J22010600005","2024-11-26T11:45:00",16.2,35.233902,0.269],
    [39321,"urn:WaterMeter:MC0203J22010600005","2024-11-26T12:00:00",16.299,35.2102,0.266],
    [39322,"urn:WaterMeter:MC0203J22010600005","2024-11-26T12:15:00",16.399,35.1043,0.266],
    [39323,"urn:WaterMeter:MC0203J22010600005","2024-11-26T12:30:00",16.399,35.03995,0.264],
    [39324,"urn:WaterMeter:MC0203J22010600005","2024-11-26T12:45:00",16.399,34.98448,0.282],
    [39325,"urn:WaterMeter:MC0203J22010600005","2024-11-26T13:00:00",16.399,34.987156,0.231],
    [39326,"urn:WaterMeter:MC0203J22010600005","2024-11-26T13:15:00",16.399,34.813377,0.269],
    [39327,"urn:WaterMeter:MC0203J22010600005","2024-11-26T13:30:00",16.399,34.75403,0.261],
    [39328,"urn:WaterMeter:MC0203J22010600005","2024-11-26T13:45:00",16.399,34.75174,0.269],
    [39329,"urn:WaterMeter:MC0203J22010600005","2024-11-26T14:00:00",16.399,34.695496,0.261],
    [39330,"urn:WaterMeter:MC0203J22010600005","2024-11-26T14:15:00",16.399,34.647358,0.261],
    [39331,"urn:WaterMeter:MC0203J22010600005","2024-11-26T14:30:00",16.5,34.632656,0.261],
    [39332,"urn:WaterMeter:MC0203J22010600005","2024-11-26T14:45:00",16.399,34.603176,0.26],
    [39333,"urn:WaterMeter:MC0203J22010600005","2024-11-26T15:00:00",16.399,34.58801,0.262],
    [39334,"urn:WaterMeter:MC0203J22010600005","2024-11-26T15:15:00",16.399,34.52094,0.261],
    [39335,"urn:WaterMeter:MC0203J22010600005","2024-11-26T15:30:00",16.399,34.49495,0.259],
    [39336,"urn:WaterMeter:MC0203J22010600005","2024-11-26T15:45:00",16.399,34.425476,0.259],
    [39337,"urn:WaterMeter:MC0203J22010600005","2024-11-26T16:00:00",16.299,34.455772,0.256],
    [39338,"urn:WaterMeter:MC0203J22010600005","2024-11-26T16:15:00",16.299,34.404182,0.255],
    [39339,"urn:WaterMeter:MC0203J22010600005","2024-11-26T16:30:00",16.2,34.342896,0.26],
    [39340,"urn:WaterMeter:MC0203J22010600005","2024-11-26T16:45:00",16.2,34.37354,0.254],
    [39341,"urn:WaterMeter:MC0203J22010600005","2024-11-26T17:00:00",16.1,34.30911,0.251],
    [39342,"urn:WaterMeter:MC0203J22010600005","2024-11-26T17:15:00",16,34.317253,0.265],
    [39343,"urn:WaterMeter:MC0203J22010600005","2024-11-26T17:30:00",16,34.297085,0.246],
    [39344,"urn:WaterMeter:MC0203J22010600005","2024-11-26T17:45:00",15.899,34.26101,0.257],
    [39345,"urn:WaterMeter:MC0203J22010600005","2024-11-26T18:00:00",15.899,34.25678,0.254],
    [39346,"urn:WaterMeter:MC0203J22010600005","2024-11-26T18:15:00",15.899,34.27963,0.253],
    [39347,"urn:WaterMeter:MC0203J22010600005","2024-11-26T18:30:00",15.8,34.206352,0.242],
    [39348,"urn:WaterMeter:MC0203J22010600005","2024-11-26T18:45:00",15.8,34.226524,0.247],
    [39349,"urn:WaterMeter:MC0203J22010600005","2024-11-26T19:00:00",15.699,34.223034,0.252],
    [39350,"urn:WaterMeter:MC0203J22010600005","2024-11-26T19:15:00",15.699,34.196266,0.258],
    [39351,"urn:WaterMeter:MC0203J22010600005","2024-11-26T19:30:00",15.6,34.172565,0.244],
    [39352,"urn:WaterMeter:MC0203J22010600005","2024-11-26T19:45:00",15.6,34.119076,0.248],
    [39353,"urn:WaterMeter:MC0203J22010600005","2024-11-26T20:00:00",15.6,34.157867,0.259],
    [39354,"urn:WaterMeter:MC0203J22010600005","2024-11-26T20:15:00",15.6,34.15515,0.242],
    [39355,"urn:WaterMeter:MC0203J22010600005","2024-11-26T20:30:00",15.5,34.107437,0.261],
    [39356,"urn:WaterMeter:MC0203J22010600005","2024-11-26T20:45:00",15.5,34.0799,0.257],
    [39357,"urn:WaterMeter:MC0203J22010600005","2024-11-26T21:00:00",15.5,34.132652,0.242],
    [39358,"urn:WaterMeter:MC0203J22010600005","2024-11-26T21:15:00",15.399,34.09813,0.246],
    [39359,"urn:WaterMeter:MC0203J22010600005","2024-11-26T21:30:00",15.399,34.049255,0.243],
    [39360,"urn:WaterMeter:MC0203J22010600005","2024-11-26T21:45:00",15.399,34.095764,0.252],
    [39361,"urn:WaterMeter:MC0203J22010600005","2024-11-26T22:00:00",15.399,34.07598,0.259],
    [39362,"urn:WaterMeter:MC0203J22010600005","2024-11-26T22:15:00",15.399,34.032185,0.248],
    [39363,"urn:WaterMeter:MC0203J22010600005","2024-11-26T22:30:00",15.399,34.046886,0.247],
    [39364,"urn:WaterMeter:MC0203J22010600005","2024-11-26T22:45:00",15.399,34.012016,0.245],
    [39365,"urn:WaterMeter:MC0203J22010600005","2024-11-26T23:00:00",15.399,34.05546,0.253],
    [39366,"urn:WaterMeter:MC0203J22010600005","2024-11-26T23:15:00",15.3,34.02404,0.265],
    [39367,"urn:WaterMeter:MC0203J22010600005","2024-11-26T23:30:00",15.3,34.041885,0.254],
    [39368,"urn:WaterMeter:MC0203J22010600005","2024-11-26T23:45:00",15.3,34.04266,0.252],
    [39369,"urn:WaterMeter:MC0203J22010600005","2024-11-27T00:00:00",15.3,33.993008,0.256],
    [39370,"urn:WaterMeter:MC0203J22010600005","2024-11-27T00:15:00",15.3,33.999176,0.251],
    [39371,"urn:WaterMeter:MC0203J22010600005","2024-11-27T00:30:00",15.3,34.013565,0.239],
    [39372,"urn:WaterMeter:MC0203J22010600005","2024-11-27T00:45:00",15.3,33.95771,0.252],
    [39373,"urn:WaterMeter:MC0203J22010600005","2024-11-27T01:00:00",15.3,33.933273,0.247],
    [39374,"urn:WaterMeter:MC0203J22010600005","2024-11-27T01:15:00",15.199,33.980595,0.246],
    [39375,"urn:WaterMeter:MC0203J22010600005","2024-11-27T01:30:00",15.199,33.96659,0.252],
    [39376,"urn:WaterMeter:MC0203J22010600005","2024-11-27T01:45:00",15.199,33.93521,0.258],
    [39377,"urn:WaterMeter:MC0203J22010600005","2024-11-27T02:00:00",15.199,33.979782,0.247],
    [39378,"urn:WaterMeter:MC0203J22010600005","2024-11-27T02:15:00",15.1,33.932495,0.253],
    [39379,"urn:WaterMeter:MC0203J22010600005","2024-11-27T02:30:00",15.1,33.938313,0.25],
    [39380,"urn:WaterMeter:MC0203J22010600005","2024-11-27T02:45:00",15.1,33.92435,0.245],
    [39381,"urn:WaterMeter:MC0203J22010600005","2024-11-27T03:00:00",15.1,33.9003,0.256],
    [39382,"urn:WaterMeter:MC0203J22010600005","2024-11-27T03:15:00",15.1,33.917755,0.252],
    [39383,"urn:WaterMeter:MC0203J22010600005","2024-11-27T03:30:00",15.1,33.94297,0.241],
    [39384,"urn:WaterMeter:MC0203J22010600005","2024-11-27T03:45:00",15.1,33.884396,0.245],
    [39385,"urn:WaterMeter:MC0203J22010600005","2024-11-27T04:00:00",15.1,33.90573,0.25],
    [39386,"urn:WaterMeter:MC0203J22010600005","2024-11-27T04:15:00",15.1,33.862637,0.253],
    [39387,"urn:WaterMeter:MC0203J22010600005","2024-11-27T04:30:00",15,33.871944,0.258],
    [39388,"urn:WaterMeter:MC0203J22010600005","2024-11-27T04:45:00",15,33.880516,0.247],
    [39389,"urn:WaterMeter:MC0203J22010600005","2024-11-27T05:00:00",15,33.820004,0.26],
    [39390,"urn:WaterMeter:MC0203J22010600005","2024-11-27T05:15:00",15.1,33.91504,0.236],
    [39391,"urn:WaterMeter:MC0203J22010600005","2024-11-27T05:30:00",15.3,34.14041,0.262],
    [39392,"urn:WaterMeter:MC0203J22010600005","2024-11-27T05:45:00",15.3,34.96121,0.265],
    [39393,"urn:WaterMeter:MC0203J22010600005","2024-11-27T06:00:00",15.3,35.61827,0.273],
    [39394,"urn:WaterMeter:MC0203J22010600005","2024-11-27T06:15:00",15.3,36.120987,0.282],
    [39395,"urn:WaterMeter:MC0203J22010600005","2024-11-27T06:30:00",15.3,36.35334,0.302],
    [39396,"urn:WaterMeter:MC0203J22010600005","2024-11-27T06:45:00",15.3,36.618702,0.284],
    [39397,"urn:WaterMeter:MC0203J22010600005","2024-11-27T07:00:00",15.399,36.716843,0.286],
    [39398,"urn:WaterMeter:MC0203J22010600005","2024-11-27T07:15:00",15.399,36.77503,0.306],
    [39399,"urn:WaterMeter:MC0203J22010600005","2024-11-27T07:30:00",15.399,36.829296,0.309],
    [39400,"urn:WaterMeter:MC0203J22010600005","2024-11-27T07:45:00",15.399,36.855324,0.288],
    [39401,"urn:WaterMeter:MC0203J22010600005","2024-11-27T08:00:00",15.5,36.9907,0.282],
    [39402,"urn:WaterMeter:MC0203J22010600005","2024-11-27T08:15:00",15.5,36.94997,0.287],
    [39403,"urn:WaterMeter:MC0203J22010600005","2024-11-27T08:30:00",15.5,36.71529,0.288],
    [39404,"urn:WaterMeter:MC0203J22010600005","2024-11-27T08:45:00",15.6,36.479836,0.283],
    [39405,"urn:WaterMeter:MC0203J22010600005","2024-11-27T09:00:00",15.6,36.14155,0.279],
    [39406,"urn:WaterMeter:MC0203J22010600005","2024-11-27T09:15:00",15.699,35.809116,0.291],
    [39407,"urn:WaterMeter:MC0203J22010600005","2024-11-27T09:30:00",15.699,35.734642,0.272],
    [39408,"urn:WaterMeter:MC0203J22010600005","2024-11-27T09:45:00",15.8,35.659813,0.282],
    [39409,"urn:WaterMeter:MC0203J22010600005","2024-11-27T10:00:00",16.1,35.542282,0.27],
    [39410,"urn:WaterMeter:MC0203J22010600005","2024-11-27T10:15:00",16.399,35.46195,0.258],
    [39411,"urn:WaterMeter:MC0203J22010600005","2024-11-27T10:30:00",16.6,35.325794,0.26],
    [39412,"urn:WaterMeter:MC0203J22010600005","2024-11-27T10:45:00",16.6,35.3448,0.252],
    [39413,"urn:WaterMeter:MC0203J22010600005","2024-11-27T11:00:00",16.6,35.262604,0.255],
    [39414,"urn:WaterMeter:MC0203J22010600005","2024-11-27T11:15:00",16.7,35.217995,0.258],
    [39415,"urn:WaterMeter:MC0203J22010600005","2024-11-27T11:30:00",16.7,35.179207,0.254],
    [39416,"urn:WaterMeter:MC0203J22010600005","2024-11-27T11:45:00",16.7,35.04573,0.26],
    [39417,"urn:WaterMeter:MC0203J22010600005","2024-11-27T12:00:00",16.7,34.973618,0.281],
    [39418,"urn:WaterMeter:MC0203J22010600005","2024-11-27T12:15:00",16.7,34.95923,0.278],
    [39419,"urn:WaterMeter:MC0203J22010600005","2024-11-27T12:30:00",16.799,34.84639,0.261],
    [39420,"urn:WaterMeter:MC0203J22010600005","2024-11-27T12:45:00",16.799,34.846775,0.269],
    [39421,"urn:WaterMeter:MC0203J22010600005","2024-11-27T13:00:00",16.799,34.79984,0.263],
    [39422,"urn:WaterMeter:MC0203J22010600005","2024-11-27T13:15:00",16.899,34.704376,0.257],
    [39423,"urn:WaterMeter:MC0203J22010600005","2024-11-27T13:30:00",16.799,34.650112,0.256],
    [39424,"urn:WaterMeter:MC0203J22010600005","2024-11-27T13:45:00",16.799,34.617916,0.251],
    [39425,"urn:WaterMeter:MC0203J22010600005","2024-11-27T14:00:00",16.799,34.653603,0.248],
    [39426,"urn:WaterMeter:MC0203J22010600005","2024-11-27T14:15:00",16.799,34.58533,0.258],
    [39427,"urn:WaterMeter:MC0203J22010600005","2024-11-27T14:30:00",16.799,34.571327,0.262],
    [39428,"urn:WaterMeter:MC0203J22010600005","2024-11-27T14:45:00",16.799,34.51512,0.27],
    [39429,"urn:WaterMeter:MC0203J22010600005","2024-11-27T15:00:00",16.799,34.518612,0.249],
    [39430,"urn:WaterMeter:MC0203J22010600005","2024-11-27T15:15:00",16.799,34.486416,0.259],
    [39431,"urn:WaterMeter:MC0203J22010600005","2024-11-27T15:30:00",16.799,34.39953,0.269],
    [39432,"urn:WaterMeter:MC0203J22010600005","2024-11-27T15:45:00",16.799,34.38246,0.272],
    [39433,"urn:WaterMeter:MC0203J22010600005","2024-11-27T16:00:00",16.7,34.340954,0.248],
    [39434,"urn:WaterMeter:MC0203J22010600005","2024-11-27T16:15:00",16.6,34.326214,0.253],
    [39435,"urn:WaterMeter:MC0203J22010600005","2024-11-27T16:30:00",16.5,34.33281,0.255],
    [39436,"urn:WaterMeter:MC0203J22010600005","2024-11-27T16:45:00",16.399,34.3394,0.279],
    [39437,"urn:WaterMeter:MC0203J22010600005","2024-11-27T17:00:00",16.399,34.335484,0.278],
    [39438,"urn:WaterMeter:MC0203J22010600005","2024-11-27T17:15:00",16.299,34.3382,0.254],
    [39439,"urn:WaterMeter:MC0203J22010600005","2024-11-27T17:30:00",16.2,34.309494,0.254],
    [39440,"urn:WaterMeter:MC0203J22010600005","2024-11-27T17:45:00",16.1,34.317253,0.255],
    [39441,"urn:WaterMeter:MC0203J22010600005","2024-11-27T18:00:00",16,34.259068,0.275],
    [39442,"urn:WaterMeter:MC0203J22010600005","2024-11-27T18:15:00",15.899,34.24747,0.262],
    [39443,"urn:WaterMeter:MC0203J22010600005","2024-11-27T18:30:00",15.8,34.264538,0.253],
    [39444,"urn:WaterMeter:MC0203J22010600005","2024-11-27T18:45:00",15.699,34.27152,0.25],
    [39445,"urn:WaterMeter:MC0203J22010600005","2024-11-27T19:00:00",15.6,34.275787,0.279],
    [39446,"urn:WaterMeter:MC0203J22010600005","2024-11-27T19:15:00",15.5,34.204803,0.256],
    [39447,"urn:WaterMeter:MC0203J22010600005","2024-11-27T19:30:00",15.399,34.26609,0.256],
    [39448,"urn:WaterMeter:MC0203J22010600005","2024-11-27T19:45:00",15.3,34.240837,0.265],
    [39449,"urn:WaterMeter:MC0203J22010600005","2024-11-27T20:00:00",15.199,34.301388,0.256],
    [39450,"urn:WaterMeter:MC0203J22010600005","2024-11-27T20:15:00",15.1,34.209843,0.261],
    [39451,"urn:WaterMeter:MC0203J22010600005","2024-11-27T20:30:00",15,34.235447,0.269],
    [39452,"urn:WaterMeter:MC0203J22010600005","2024-11-27T20:45:00",14.899,34.299797,0.256],
    [39453,"urn:WaterMeter:MC0203J22010600005","2024-11-27T21:00:00",14.8,34.28083,0.259],
    [39454,"urn:WaterMeter:MC0203J22010600005","2024-11-27T21:15:00",14.699,34.22575,0.268],
    [39455,"urn:WaterMeter:MC0203J22010600005","2024-11-27T21:30:00",14.699,34.270317,0.265],
    [39456,"urn:WaterMeter:MC0203J22010600005","2024-11-27T21:45:00",14.6,34.248245,0.256],
    [39457,"urn:WaterMeter:MC0203J22010600005","2024-11-27T22:00:00",14.5,34.276913,0.277],
    [39458,"urn:WaterMeter:MC0203J22010600005","2024-11-27T22:15:00",14.399,34.276913,0.255],
    [39459,"urn:WaterMeter:MC0203J22010600005","2024-11-27T22:30:00",14.399,34.303715,0.259],
    [39460,"urn:WaterMeter:MC0203J22010600005","2024-11-27T22:45:00",14.399,34.22497,0.252],
    [39461,"urn:WaterMeter:MC0203J22010600005","2024-11-27T23:00:00",14.3,34.23812,0.27],
    [39462,"urn:WaterMeter:MC0203J22010600005","2024-11-27T23:15:00",14.3,34.245144,0.281],
    [39463,"urn:WaterMeter:MC0203J22010600005","2024-11-27T23:30:00",14.199,34.208294,0.253],
    [39464,"urn:WaterMeter:MC0203J22010600005","2024-11-27T23:45:00",14.1,34.29747,0.267],
    [39465,"urn:WaterMeter:MC0203J22010600005","2024-11-28T00:00:00",14.1,34.27346,0.269],
    [39466,"urn:WaterMeter:MC0203J22010600005","2024-11-28T00:15:00",14,34.287426,0.263],
    [39467,"urn:WaterMeter:MC0203J22010600005","2024-11-28T00:30:00",14,34.311085,0.255],
    [39468,"urn:WaterMeter:MC0203J22010600005","2024-11-28T00:45:00",14,34.270706,0.264],
    [39469,"urn:WaterMeter:MC0203J22010600005","2024-11-28T01:00:00",13.899,34.30833,0.271],
    [39470,"urn:WaterMeter:MC0203J22010600005","2024-11-28T01:15:00",13.899,34.30721,0.262],
    [39471,"urn:WaterMeter:MC0203J22010600005","2024-11-28T01:30:00",13.8,34.21213,0.266],
    [39472,"urn:WaterMeter:MC0203J22010600005","2024-11-28T01:45:00",13.8,34.26062,0.278],
    [39473,"urn:WaterMeter:MC0203J22010600005","2024-11-28T02:00:00",13.8,34.220665,0.254],
    [39474,"urn:WaterMeter:MC0203J22010600005","2024-11-28T02:15:00",13.8,34.179935,0.255],
    [39475,"urn:WaterMeter:MC0203J22010600005","2024-11-28T02:30:00",13.8,34.19782,0.263],
    [39476,"urn:WaterMeter:MC0203J22010600005","2024-11-28T02:45:00",13.699,34.17532,0.262],
    [39477,"urn:WaterMeter:MC0203J22010600005","2024-11-28T03:00:00",13.699,34.256004,0.269],
    [39478,"urn:WaterMeter:MC0203J22010600005","2024-11-28T03:15:00",13.699,34.203636,0.259],
    [39479,"urn:WaterMeter:MC0203J22010600005","2024-11-28T03:30:00",13.699,34.16054,0.262],
    [39480,"urn:WaterMeter:MC0203J22010600005","2024-11-28T03:45:00",13.699,34.208294,0.269],
    [39481,"urn:WaterMeter:MC0203J22010600005","2024-11-28T04:00:00",13.699,34.209843,0.251],
    [39482,"urn:WaterMeter:MC0203J22010600005","2024-11-28T04:15:00",13.699,34.23153,0.249],
    [39483,"urn:WaterMeter:MC0203J22010600005","2024-11-28T04:30:00",13.699,34.13692,0.259],
    [39484,"urn:WaterMeter:MC0203J22010600005","2024-11-28T04:45:00",13.699,34.087654,0.247],
    [39485,"urn:WaterMeter:MC0203J22010600005","2024-11-28T05:00:00",13.699,34.10938,0.249],
    [39486,"urn:WaterMeter:MC0203J22010600005","2024-11-28T05:15:00",13.899,34.155537,0.256],
    [39487,"urn:WaterMeter:MC0203J22010600005","2024-11-28T05:30:00",14,34.333584,0.267],
    [39488,"urn:WaterMeter:MC0203J22010600005","2024-11-28T05:45:00",14.1,35.195885,0.275],
    [39489,"urn:WaterMeter:MC0203J22010600005","2024-11-28T06:00:00",14.199,35.840923,0.29],
    [39490,"urn:WaterMeter:MC0203J22010600005","2024-11-28T06:15:00",14.199,36.348335,0.293],
    [39491,"urn:WaterMeter:MC0203J22010600005","2024-11-28T06:30:00",14.199,36.645428,0.293],
    [39492,"urn:WaterMeter:MC0203J22010600005","2024-11-28T06:45:00",14.199,36.941048,0.292],
    [39493,"urn:WaterMeter:MC0203J22010600005","2024-11-28T07:00:00",14.1,37.01316,0.295],
    [39494,"urn:WaterMeter:MC0203J22010600005","2024-11-28T07:15:00",14.1,37.18655,0.292],
    [39495,"urn:WaterMeter:MC0203J22010600005","2024-11-28T07:30:00",14.1,37.297527,0.3],
    [39496,"urn:WaterMeter:MC0203J22010600005","2024-11-28T07:45:00",14.1,37.394115,0.29],
    [39497,"urn:WaterMeter:MC0203J22010600005","2024-11-28T08:00:00",14.199,37.41545,0.306],
    [39498,"urn:WaterMeter:MC0203J22010600005","2024-11-28T08:15:00",14.199,37.492252,0.304],
    [39499,"urn:WaterMeter:MC0203J22010600005","2024-11-28T08:30:00",14.1,37.225727,0.293],
    [39500,"urn:WaterMeter:MC0203J22010600005","2024-11-28T08:45:00",14.199,36.710636,0.285],
    [39501,"urn:WaterMeter:MC0203J22010600005","2024-11-28T09:00:00",14.3,36.38286,0.287],
    [39502,"urn:WaterMeter:MC0203J22010600005","2024-11-28T09:15:00",14.5,36.145077,0.271],
    [39503,"urn:WaterMeter:MC0203J22010600005","2024-11-28T09:30:00",14.8,36.09504,0.271],
    [39504,"urn:WaterMeter:MC0203J22010600005","2024-11-28T09:45:00",15,35.903416,0.279],
    [39505,"urn:WaterMeter:MC0203J22010600005","2024-11-28T10:00:00",15.199,35.823895,0.262],
    [39506,"urn:WaterMeter:MC0203J22010600005","2024-11-28T10:15:00",15.399,35.736618,0.274],
    [39507,"urn:WaterMeter:MC0203J22010600005","2024-11-28T10:30:00",15.5,35.638866,0.26],
    [39508,"urn:WaterMeter:MC0203J22010600005","2024-11-28T10:45:00",15.6,35.609776,0.267],
    [39509,"urn:WaterMeter:MC0203J22010600005","2024-11-28T11:00:00",15.699,35.600853,0.269],
    [39510,"urn:WaterMeter:MC0203J22010600005","2024-11-28T11:15:00",15.8,35.49573,0.283],
    [39511,"urn:WaterMeter:MC0203J22010600005","2024-11-28T11:30:00",15.899,35.473194,0.262],
    [39512,"urn:WaterMeter:MC0203J22010600005","2024-11-28T11:45:00",15.8,35.268772,0.268],
    [39513,"urn:WaterMeter:MC0203J22010600005","2024-11-28T12:00:00",15.8,35.271915,0.26],
    [39514,"urn:WaterMeter:MC0203J22010600005","2024-11-28T12:15:00",15.899,35.128002,0.268],
    [39515,"urn:WaterMeter:MC0203J22010600005","2024-11-28T12:30:00",16,35.07176,0.26],
    [39516,"urn:WaterMeter:MC0203J22010600005","2024-11-28T12:45:00",16.1,35.07913,0.26],
    [39517,"urn:WaterMeter:MC0203J22010600005","2024-11-28T13:00:00",16.2,34.99763,0.268],
    [39518,"urn:WaterMeter:MC0203J22010600005","2024-11-28T13:15:00",16.2,34.93712,0.264],
    [39519,"urn:WaterMeter:MC0203J22010600005","2024-11-28T13:30:00",16.299,34.884014,0.281],
    [39520,"urn:WaterMeter:MC0203J22010600005","2024-11-28T13:45:00",16.399,34.798676,0.257],
    [39521,"urn:WaterMeter:MC0203J22010600005","2024-11-28T14:00:00",16.399,34.776955,0.262],
    [39522,"urn:WaterMeter:MC0203J22010600005","2024-11-28T14:15:00",16.399,34.706707,0.261],
    [39523,"urn:WaterMeter:MC0203J22010600005","2024-11-28T14:30:00",16.399,34.57486,0.269],
    [39524,"urn:WaterMeter:MC0203J22010600005","2024-11-28T14:45:00",16.399,34.576023,0.257],
    [39525,"urn:WaterMeter:MC0203J22010600005","2024-11-28T15:00:00",16.399,34.58145,0.27],
    [39526,"urn:WaterMeter:MC0203J22010600005","2024-11-28T15:15:00",16.399,34.52598,0.251],
    [39527,"urn:WaterMeter:MC0203J22010600005","2024-11-28T15:30:00",16.399,34.50965,0.271],
    [39528,"urn:WaterMeter:MC0203J22010600005","2024-11-28T15:45:00",16.399,34.44142,0.268],
    [39529,"urn:WaterMeter:MC0203J22010600005","2024-11-28T16:00:00",16.399,34.408062,0.253],
    [39530,"urn:WaterMeter:MC0203J22010600005","2024-11-28T16:15:00",16.399,34.450344,0.246],
    [39531,"urn:WaterMeter:MC0203J22010600005","2024-11-28T16:30:00",16.299,34.423576,0.274],
    [39532,"urn:WaterMeter:MC0203J22010600005","2024-11-28T16:45:00",16.2,34.373886,0.27],
    [39533,"urn:WaterMeter:MC0203J22010600005","2024-11-28T17:00:00",16,34.435177,0.265],
    [39534,"urn:WaterMeter:MC0203J22010600005","2024-11-28T17:15:00",15.899,34.423965,0.256],
    [39535,"urn:WaterMeter:MC0203J22010600005","2024-11-28T17:30:00",15.699,34.40457,0.25],
    [39536,"urn:WaterMeter:MC0203J22010600005","2024-11-28T17:45:00",15.6,34.375828,0.255],
    [39537,"urn:WaterMeter:MC0203J22010600005","2024-11-28T18:00:00",15.5,34.36539,0.253],
    [39538,"urn:WaterMeter:MC0203J22010600005","2024-11-28T18:15:00",15.3,34.37005,0.264],
    [39539,"urn:WaterMeter:MC0203J22010600005","2024-11-28T18:30:00",15.199,34.378193,0.258],
    [39540,"urn:WaterMeter:MC0203J22010600005","2024-11-28T18:45:00",15.1,34.334747,0.258],
    [39541,"urn:WaterMeter:MC0203J22010600005","2024-11-28T19:00:00",15,34.33281,0.258],
    [39542,"urn:WaterMeter:MC0203J22010600005","2024-11-28T19:15:00",14.899,34.300613,0.258],
    [39543,"urn:WaterMeter:MC0203J22010600005","2024-11-28T19:30:00",14.8,34.333973,0.251],
    [39544,"urn:WaterMeter:MC0203J22010600005","2024-11-28T19:45:00",14.699,34.26803,0.267],
    [39545,"urn:WaterMeter:MC0203J22010600005","2024-11-28T20:00:00",14.6,34.282383,0.251],
    [39546,"urn:WaterMeter:MC0203J22010600005","2024-11-28T20:15:00",14.5,34.271133,0.253],
    [39547,"urn:WaterMeter:MC0203J22010600005","2024-11-28T20:30:00",14.399,34.21411,0.256],
    [39548,"urn:WaterMeter:MC0203J22010600005","2024-11-28T20:45:00",14.3,34.244755,0.251],
    [39549,"urn:WaterMeter:MC0203J22010600005","2024-11-28T21:00:00",14.199,34.223034,0.268],
    [39550,"urn:WaterMeter:MC0203J22010600005","2024-11-28T21:15:00",14.1,34.272686,0.268],
    [39551,"urn:WaterMeter:MC0203J22010600005","2024-11-28T21:30:00",14.1,34.251736,0.257],
    [39552,"urn:WaterMeter:MC0203J22010600005","2024-11-28T21:45:00",14,34.21411,0.258],
    [39553,"urn:WaterMeter:MC0203J22010600005","2024-11-28T22:00:00",13.899,34.1567,0.252],
    [39554,"urn:WaterMeter:MC0203J22010600005","2024-11-28T22:15:00",13.8,34.23812,0.245],
    [39555,"urn:WaterMeter:MC0203J22010600005","2024-11-28T22:30:00",13.699,34.230366,0.248],
    [39556,"urn:WaterMeter:MC0203J22010600005","2024-11-28T22:45:00",13.6,34.283157,0.251],
    [39557,"urn:WaterMeter:MC0203J22010600005","2024-11-28T23:00:00",13.6,34.22028,0.258],
    [39558,"urn:WaterMeter:MC0203J22010600005","2024-11-28T23:15:00",13.5,34.192738,0.251],
    [39559,"urn:WaterMeter:MC0203J22010600005","2024-11-28T23:30:00",13.399,34.269154,0.253],
    [39560,"urn:WaterMeter:MC0203J22010600005","2024-11-28T23:45:00",13.3,34.261436,0.253],
    [39561,"urn:WaterMeter:MC0203J22010600005","2024-11-29T00:00:00",13.199,34.24398,0.245],
    [39562,"urn:WaterMeter:MC0203J22010600005","2024-11-29T00:15:00",13.1,34.126835,0.252],
    [39563,"urn:WaterMeter:MC0203J22010600005","2024-11-29T00:30:00",13,34.130325,0.25],
    [39564,"urn:WaterMeter:MC0203J22010600005","2024-11-29T00:45:00",13,34.139248,0.266],
    [39565,"urn:WaterMeter:MC0203J22010600005","2024-11-29T01:00:00",12.899,34.06904,0.26],
    [39566,"urn:WaterMeter:MC0203J22010600005","2024-11-29T01:15:00",12.8,34.184242,0.248],
    [39567,"urn:WaterMeter:MC0203J22010600005","2024-11-29T01:30:00",12.8,34.11675,0.254],
    [39568,"urn:WaterMeter:MC0203J22010600005","2024-11-29T01:45:00",12.699,34.171055,0.25],
    [39569,"urn:WaterMeter:MC0203J22010600005","2024-11-29T02:00:00",12.6,34.155537,0.256],
    [39570,"urn:WaterMeter:MC0203J22010600005","2024-11-29T02:15:00",12.6,34.0946,0.27],
    [39571,"urn:WaterMeter:MC0203J22010600005","2024-11-29T02:30:00",12.5,34.15515,0.243],
    [39572,"urn:WaterMeter:MC0203J22010600005","2024-11-29T02:45:00",12.399,34.067486,0.247],
    [39573,"urn:WaterMeter:MC0203J22010600005","2024-11-29T03:00:00",12.3,34.12369,0.25],
    [39574,"urn:WaterMeter:MC0203J22010600005","2024-11-29T03:15:00",12.3,34.130714,0.245],
    [39575,"urn:WaterMeter:MC0203J22010600005","2024-11-29T03:30:00",12.199,34.083736,0.247],
    [39576,"urn:WaterMeter:MC0203J22010600005","2024-11-29T03:45:00",12.199,34.07951,0.244],
    [39577,"urn:WaterMeter:MC0203J22010600005","2024-11-29T04:00:00",12.1,34.08529,0.258],
    [39578,"urn:WaterMeter:MC0203J22010600005","2024-11-29T04:15:00",12.1,34.087654,0.26],
    [39579,"urn:WaterMeter:MC0203J22010600005","2024-11-29T04:30:00",12,34.12408,0.251],
    [39580,"urn:WaterMeter:MC0203J22010600005","2024-11-29T04:45:00",12,34.07598,0.248],
    [39581,"urn:WaterMeter:MC0203J22010600005","2024-11-29T05:00:00",11.899,34.077183,0.251],
    [39582,"urn:WaterMeter:MC0203J22010600005","2024-11-29T05:15:00",12,34.126446,0.244],
    [39583,"urn:WaterMeter:MC0203J22010600005","2024-11-29T05:30:00",12.199,34.368496,0.25],
    [39584,"urn:WaterMeter:MC0203J22010600005","2024-11-29T05:45:00",12.3,35.178818,0.26],
    [39585,"urn:WaterMeter:MC0203J22010600005","2024-11-29T06:00:00",12.3,35.794415,0.265],
    [39586,"urn:WaterMeter:MC0203J22010600005","2024-11-29T06:15:00",12.3,36.2777,0.274],
    [39587,"urn:WaterMeter:MC0203J22010600005","2024-11-29T06:30:00",12.3,36.58224,0.276],
    [39588,"urn:WaterMeter:MC0203J22010600005","2024-11-29T06:45:00",12.3,36.780807,0.283],
    [39589,"urn:WaterMeter:MC0203J22010600005","2024-11-29T07:00:00",12.3,37.03294,0.274],
    [39590,"urn:WaterMeter:MC0203J22010600005","2024-11-29T07:15:00",12.3,37.196285,0.287],
    [39591,"urn:WaterMeter:MC0203J22010600005","2024-11-29T07:30:00",12.399,37.303696,0.305],
    [39592,"urn:WaterMeter:MC0203J22010600005","2024-11-29T07:45:00",12.399,37.423206,0.284],
    [39593,"urn:WaterMeter:MC0203J22010600005","2024-11-29T08:00:00",12.399,37.46704,0.293],
    [39594,"urn:WaterMeter:MC0203J22010600005","2024-11-29T08:15:00",12.399,37.392914,0.281],
    [39595,"urn:WaterMeter:MC0203J22010600005","2024-11-29T08:30:00",12.5,36.78042,0.276],
    [39596,"urn:WaterMeter:MC0203J22010600005","2024-11-29T08:45:00",12.5,36.574097,0.279],
    [39597,"urn:WaterMeter:MC0203J22010600005","2024-11-29T09:00:00",12.699,36.15202,0.278],
    [39598,"urn:WaterMeter:MC0203J22010600005","2024-11-29T09:15:00",12.899,36.062805,0.287],
    [39599,"urn:WaterMeter:MC0203J22010600005","2024-11-29T09:30:00",13.199,35.884407,0.255],
    [39600,"urn:WaterMeter:MC0203J22010600005","2024-11-29T09:45:00",13.5,35.818077,0.274],
    [39601,"urn:WaterMeter:MC0203J22010600005","2024-11-29T10:00:00",13.8,35.686966,0.256],
    [39602,"urn:WaterMeter:MC0203J22010600005","2024-11-29T10:15:00",14.1,35.62568,0.261],
    [39603,"urn:WaterMeter:MC0203J22010600005","2024-11-29T10:30:00",14.3,35.497284,0.248],
    [39604,"urn:WaterMeter:MC0203J22010600005","2024-11-29T10:45:00",14.6,35.467415,0.26],
    [39605,"urn:WaterMeter:MC0203J22010600005","2024-11-29T11:00:00",14.8,35.41815,0.257],
    [39606,"urn:WaterMeter:MC0203J22010600005","2024-11-29T11:15:00",15,35.37467,0.275],
    [39607,"urn:WaterMeter:MC0203J22010600005","2024-11-29T11:30:00",15.199,35.22149,0.248],
    [39608,"urn:WaterMeter:MC0203J22010600005","2024-11-29T11:45:00",15.399,35.143906,0.261],
    [39609,"urn:WaterMeter:MC0203J22010600005","2024-11-29T12:00:00",15.5,35.078354,0.256],
    [39610,"urn:WaterMeter:MC0203J22010600005","2024-11-29T12:15:00",15.6,35.048096,0.272],
    [39611,"urn:WaterMeter:MC0203J22010600005","2024-11-29T12:30:00",15.699,34.992237,0.283],
    [39612,"urn:WaterMeter:MC0203J22010600005","2024-11-29T12:45:00",15.8,34.908066,0.248],
    [39613,"urn:WaterMeter:MC0203J22010600005","2024-11-29T13:00:00",15.8,34.879707,0.251],
    [39614,"urn:WaterMeter:MC0203J22010600005","2024-11-29T13:15:00",15.899,34.78351,0.255],
    [39615,"urn:WaterMeter:MC0203J22010600005","2024-11-29T13:30:00",16,34.830097,0.248],
    [39616,"urn:WaterMeter:MC0203J22010600005","2024-11-29T13:45:00",16,34.70054,0.248],
    [39617,"urn:WaterMeter:MC0203J22010600005","2024-11-29T14:00:00",16.1,34.647358,0.264],
    [39618,"urn:WaterMeter:MC0203J22010600005","2024-11-29T14:15:00",16.2,34.635757,0.256],
    [39619,"urn:WaterMeter:MC0203J22010600005","2024-11-29T14:30:00",16.2,34.598133,0.245],
    [39620,"urn:WaterMeter:MC0203J22010600005","2024-11-29T14:45:00",16.2,34.497276,0.264],
    [39621,"urn:WaterMeter:MC0203J22010600005","2024-11-29T15:00:00",16.2,34.459263,0.24],
    [39622,"urn:WaterMeter:MC0203J22010600005","2024-11-29T15:15:00",16.2,34.41,0.246],
    [39623,"urn:WaterMeter:MC0203J22010600005","2024-11-29T15:30:00",16.2,34.35841,0.244],
    [39624,"urn:WaterMeter:MC0203J22010600005","2024-11-29T15:45:00",16.2,34.3875,0.257],
    [39625,"urn:WaterMeter:MC0203J22010600005","2024-11-29T16:00:00",16.2,34.32932,0.265],
    [39626,"urn:WaterMeter:MC0203J22010600005","2024-11-29T16:15:00",16.1,34.32889,0.267],
    [39627,"urn:WaterMeter:MC0203J22010600005","2024-11-29T16:30:00",16.1,34.294018,0.259],
    [39628,"urn:WaterMeter:MC0203J22010600005","2024-11-29T16:45:00",16,34.267643,0.253],
    [39629,"urn:WaterMeter:MC0203J22010600005","2024-11-29T17:00:00",15.899,34.299797,0.267],
    [39630,"urn:WaterMeter:MC0203J22010600005","2024-11-29T17:15:00",15.699,34.31031,0.243],
    [39631,"urn:WaterMeter:MC0203J22010600005","2024-11-29T17:30:00",15.6,34.2657,0.263],
    [39632,"urn:WaterMeter:MC0203J22010600005","2024-11-29T17:45:00",15.5,34.31803,0.25],
    [39633,"urn:WaterMeter:MC0203J22010600005","2024-11-29T18:00:00",15.5,34.274235,0.257],
    [39634,"urn:WaterMeter:MC0203J22010600005","2024-11-29T18:15:00",15.399,34.3382,0.254],
    [39635,"urn:WaterMeter:MC0203J22010600005","2024-11-29T18:30:00",15.399,34.270317,0.264],
    [39636,"urn:WaterMeter:MC0203J22010600005","2024-11-29T18:45:00",15.3,34.28083,0.26],
    [39637,"urn:WaterMeter:MC0203J22010600005","2024-11-29T19:00:00",15.3,34.248634,0.26],
    [39638,"urn:WaterMeter:MC0203J22010600005","2024-11-29T19:15:00",15.3,34.30604,0.251],
    [39639,"urn:WaterMeter:MC0203J22010600005","2024-11-29T19:30:00",15.3,34.30833,0.251],
    [39640,"urn:WaterMeter:MC0203J22010600005","2024-11-29T19:45:00",15.3,34.289326,0.264],
    [39641,"urn:WaterMeter:MC0203J22010600005","2024-11-29T20:00:00",15.199,34.29941,0.249],
    [39642,"urn:WaterMeter:MC0203J22010600005","2024-11-29T20:15:00",15.199,34.212948,0.261],
    [39643,"urn:WaterMeter:MC0203J22010600005","2024-11-29T20:30:00",15.1,34.209843,0.251],
    [39644,"urn:WaterMeter:MC0203J22010600005","2024-11-29T20:45:00",15,34.21411,0.254],
    [39645,"urn:WaterMeter:MC0203J22010600005","2024-11-29T21:00:00",14.899,34.191963,0.256],
    [39646,"urn:WaterMeter:MC0203J22010600005","2024-11-29T21:15:00",14.899,34.176098,0.265],
    [39647,"urn:WaterMeter:MC0203J22010600005","2024-11-29T21:30:00",14.8,34.235058,0.265],
    [39648,"urn:WaterMeter:MC0203J22010600005","2024-11-29T21:45:00",14.8,34.209843,0.253],
    [39649,"urn:WaterMeter:MC0203J22010600005","2024-11-29T22:00:00",14.699,34.16446,0.25],
    [39650,"urn:WaterMeter:MC0203J22010600005","2024-11-29T22:15:00",14.6,34.26182,0.274],
    [39651,"urn:WaterMeter:MC0203J22010600005","2024-11-29T22:30:00",14.6,34.22924,0.252],
    [39652,"urn:WaterMeter:MC0203J22010600005","2024-11-29T22:45:00",14.5,34.154335,0.263],
    [39653,"urn:WaterMeter:MC0203J22010600005","2024-11-29T23:00:00",14.399,34.187347,0.264],
    [39654,"urn:WaterMeter:MC0203J22010600005","2024-11-29T23:15:00",14.399,34.143864,0.255],
    [39655,"urn:WaterMeter:MC0203J22010600005","2024-11-29T23:30:00",14.3,34.165237,0.25],
    [39656,"urn:WaterMeter:MC0203J22010600005","2024-11-29T23:45:00",14.199,34.1664,0.259],
    [39657,"urn:WaterMeter:MC0203J22010600005","2024-11-30T00:00:00",14.1,34.084515,0.25],
    [39658,"urn:WaterMeter:MC0203J22010600005","2024-11-30T00:15:00",14,34.162483,0.275],
    [39659,"urn:WaterMeter:MC0203J22010600005","2024-11-30T00:30:00",13.899,34.099293,0.252],
    [39660,"urn:WaterMeter:MC0203J22010600005","2024-11-30T00:45:00",13.899,34.150883,0.252],
    [39661,"urn:WaterMeter:MC0203J22010600005","2024-11-30T01:00:00",13.8,34.117912,0.246],
    [39662,"urn:WaterMeter:MC0203J22010600005","2024-11-30T01:15:00",13.8,34.074078,0.267],
    [39663,"urn:WaterMeter:MC0203J22010600005","2024-11-30T01:30:00",13.699,34.023266,0.264],
    [39664,"urn:WaterMeter:MC0203J22010600005","2024-11-30T01:45:00",13.699,33.99029,0.252],
    [39665,"urn:WaterMeter:MC0203J22010600005","2024-11-30T02:00:00",13.6,34.011627,0.256],
    [39666,"urn:WaterMeter:MC0203J22010600005","2024-11-30T02:15:00",13.6,33.9984,0.254],
    [39667,"urn:WaterMeter:MC0203J22010600005","2024-11-30T02:30:00",13.6,33.99495,0.254],
    [39668,"urn:WaterMeter:MC0203J22010600005","2024-11-30T02:45:00",13.5,33.951504,0.254],
    [39669,"urn:WaterMeter:MC0203J22010600005","2024-11-30T03:00:00",13.5,33.975166,0.269],
    [39670,"urn:WaterMeter:MC0203J22010600005","2024-11-30T03:15:00",13.5,34.010464,0.248],
    [39671,"urn:WaterMeter:MC0203J22010600005","2024-11-30T03:30:00",13.399,33.980984,0.259],
    [39672,"urn:WaterMeter:MC0203J22010600005","2024-11-30T03:45:00",13.399,33.949913,0.249],
    [39673,"urn:WaterMeter:MC0203J22010600005","2024-11-30T04:00:00",13.3,33.92629,0.261],
    [39674,"urn:WaterMeter:MC0203J22010600005","2024-11-30T04:15:00",13.3,33.953056,0.255],
    [39675,"urn:WaterMeter:MC0203J22010600005","2024-11-30T04:30:00",13.199,33.930904,0.255],
    [39676,"urn:WaterMeter:MC0203J22010600005","2024-11-30T04:45:00",13.199,33.917366,0.251],
    [39677,"urn:WaterMeter:MC0203J22010600005","2024-11-30T05:00:00",13.1,33.873924,0.258],
    [39678,"urn:WaterMeter:MC0203J22010600005","2024-11-30T05:15:00",13.1,33.932106,0.248],
    [39679,"urn:WaterMeter:MC0203J22010600005","2024-11-30T05:30:00",13,33.93909,0.25],
    [39680,"urn:WaterMeter:MC0203J22010600005","2024-11-30T05:45:00",13,33.973225,0.245],
    [39681,"urn:WaterMeter:MC0203J22010600005","2024-11-30T06:00:00",12.899,33.979004,0.255],
    [39682,"urn:WaterMeter:MC0203J22010600005","2024-11-30T06:15:00",12.899,33.85647,0.257],
    [39683,"urn:WaterMeter:MC0203J22010600005","2024-11-30T06:30:00",12.8,33.871944,0.261],
    [39684,"urn:WaterMeter:MC0203J22010600005","2024-11-30T06:45:00",12.8,33.8875,0.253],
    [39685,"urn:WaterMeter:MC0203J22010600005","2024-11-30T07:00:00",12.699,33.873108,0.251],
    [39686,"urn:WaterMeter:MC0203J22010600005","2024-11-30T07:15:00",12.6,33.90767,0.254],
    [39687,"urn:WaterMeter:MC0203J22010600005","2024-11-30T07:30:00",12.6,33.85802,0.251],
    [39688,"urn:WaterMeter:MC0203J22010600005","2024-11-30T07:45:00",12.5,33.85255,0.257],
    [39689,"urn:WaterMeter:MC0203J22010600005","2024-11-30T08:00:00",12.5,33.932106,0.259],
    [39690,"urn:WaterMeter:MC0203J22010600005","2024-11-30T08:15:00",12.5,33.860733,0.247],
    [39691,"urn:WaterMeter:MC0203J22010600005","2024-11-30T08:30:00",12.6,33.871944,0.24],
    [39692,"urn:WaterMeter:MC0203J22010600005","2024-11-30T08:45:00",12.699,33.865776,0.252],
    [39693,"urn:WaterMeter:MC0203J22010600005","2024-11-30T09:00:00",13,33.86694,0.254],
    [39694,"urn:WaterMeter:MC0203J22010600005","2024-11-30T09:15:00",13.3,33.84832,0.244],
    [39695,"urn:WaterMeter:MC0203J22010600005","2024-11-30T09:30:00",13.6,33.8394,0.243],
    [39696,"urn:WaterMeter:MC0203J22010600005","2024-11-30T09:45:00",13.899,33.860348,0.254],
    [39697,"urn:WaterMeter:MC0203J22010600005","2024-11-30T10:00:00",14.199,33.886723,0.23],
    [39698,"urn:WaterMeter:MC0203J22010600005","2024-11-30T10:15:00",14.399,33.859184,0.245],
    [39699,"urn:WaterMeter:MC0203J22010600005","2024-11-30T10:30:00",14.699,33.85763,0.248],
    [39700,"urn:WaterMeter:MC0203J22010600005","2024-11-30T10:45:00",14.899,33.85608,0.237],
    [39701,"urn:WaterMeter:MC0203J22010600005","2024-11-30T11:00:00",15.1,33.834743,0.249],
    [39702,"urn:WaterMeter:MC0203J22010600005","2024-11-30T11:15:00",15.1,33.74514,0.23],
    [39703,"urn:WaterMeter:MC0203J22010600005","2024-11-30T11:30:00",15.3,33.732727,0.241],
    [39704,"urn:WaterMeter:MC0203J22010600005","2024-11-30T11:45:00",15.399,33.720314,0.238],
    [39705,"urn:WaterMeter:MC0203J22010600005","2024-11-30T12:00:00",15.6,33.70868,0.238],
    [39706,"urn:WaterMeter:MC0203J22010600005","2024-11-30T12:15:00",15.699,33.63688,0.242],
    [39707,"urn:WaterMeter:MC0203J22010600005","2024-11-30T12:30:00",15.699,33.590717,0.231],
    [39708,"urn:WaterMeter:MC0203J22010600005","2024-11-30T12:45:00",15.8,33.62877,0.241],
    [39709,"urn:WaterMeter:MC0203J22010600005","2024-11-30T13:00:00",15.899,33.62295,0.235],
    [39710,"urn:WaterMeter:MC0203J22010600005","2024-11-30T13:15:00",16,33.522835,0.265],
    [39711,"urn:WaterMeter:MC0203J22010600005","2024-11-30T13:30:00",16.1,33.520897,0.239],
    [39712,"urn:WaterMeter:MC0203J22010600005","2024-11-30T13:45:00",16.2,33.463875,0.233],
    [39713,"urn:WaterMeter:MC0203J22010600005","2024-11-30T14:00:00",16.2,33.496883,0.26],
    [39714,"urn:WaterMeter:MC0203J22010600005","2024-11-30T14:15:00",16.299,33.49572,0.244],
    [39715,"urn:WaterMeter:MC0203J22010600005","2024-11-30T14:30:00",16.299,33.474735,0.242],
    [39716,"urn:WaterMeter:MC0203J22010600005","2024-11-30T14:45:00",16.299,33.400295,0.235],
    [39717,"urn:WaterMeter:MC0203J22010600005","2024-11-30T15:00:00",16.299,33.419304,0.252],
    [39718,"urn:WaterMeter:MC0203J22010600005","2024-11-30T15:15:00",16.2,33.41775,0.235],
    [39719,"urn:WaterMeter:MC0203J22010600005","2024-11-30T15:30:00",16.2,33.36845,0.224],
    [39720,"urn:WaterMeter:MC0203J22010600005","2024-11-30T15:45:00",16.2,33.36228,0.23],
    [39721,"urn:WaterMeter:MC0203J22010600005","2024-11-30T16:00:00",16.1,33.32733,0.237],
    [39722,"urn:WaterMeter:MC0203J22010600005","2024-11-30T16:15:00",16.1,33.280396,0.265],
    [39723,"urn:WaterMeter:MC0203J22010600005","2024-11-30T16:30:00",16,33.332413,0.248],
    [39724,"urn:WaterMeter:MC0203J22010600005","2024-11-30T16:45:00",15.899,33.35181,0.238],
    [39725,"urn:WaterMeter:MC0203J22010600005","2024-11-30T17:00:00",15.8,33.304096,0.234],
    [39726,"urn:WaterMeter:MC0203J22010600005","2024-11-30T17:15:00",15.6,33.282764,0.256],
    [39727,"urn:WaterMeter:MC0203J22010600005","2024-11-30T17:30:00",15.5,33.326206,0.24],
    [39728,"urn:WaterMeter:MC0203J22010600005","2024-11-30T17:45:00",15.399,33.330475,0.232],
    [39729,"urn:WaterMeter:MC0203J22010600005","2024-11-30T18:00:00",15.3,33.367676,0.237],
    [39730,"urn:WaterMeter:MC0203J22010600005","2024-11-30T18:15:00",15.199,33.289318,0.238],
    [39731,"urn:WaterMeter:MC0203J22010600005","2024-11-30T18:30:00",15.1,33.30332,0.237],
    [39732,"urn:WaterMeter:MC0203J22010600005","2024-11-30T18:45:00",15.1,33.311855,0.232],
    [39733,"urn:WaterMeter:MC0203J22010600005","2024-11-30T19:00:00",15.1,33.32966,0.238],
    [39734,"urn:WaterMeter:MC0203J22010600005","2024-11-30T19:15:00",15,33.337845,0.243],
    [39735,"urn:WaterMeter:MC0203J22010600005","2024-11-30T19:30:00",14.899,33.36965,0.25],
    [39736,"urn:WaterMeter:MC0203J22010600005","2024-11-30T19:45:00",14.899,33.35142,0.237],
    [39737,"urn:WaterMeter:MC0203J22010600005","2024-11-30T20:00:00",14.8,33.352974,0.238],
    [39738,"urn:WaterMeter:MC0203J22010600005","2024-11-30T20:15:00",14.8,33.317673,0.237],
    [39739,"urn:WaterMeter:MC0203J22010600005","2024-11-30T20:30:00",14.699,33.31496,0.255],
    [39740,"urn:WaterMeter:MC0203J22010600005","2024-11-30T20:45:00",14.8,33.2944,0.241],
    [39741,"urn:WaterMeter:MC0203J22010600005","2024-11-30T21:00:00",14.8,33.32966,0.252],
    [39742,"urn:WaterMeter:MC0203J22010600005","2024-11-30T21:15:00",14.8,33.322716,0.243],
    [39743,"urn:WaterMeter:MC0203J22010600005","2024-11-30T21:30:00",14.8,33.295177,0.236],
    [39744,"urn:WaterMeter:MC0203J22010600005","2024-11-30T21:45:00",14.8,33.299404,0.251],
    [39745,"urn:WaterMeter:MC0203J22010600005","2024-11-30T22:00:00",14.8,33.310265,0.242],
    [39746,"urn:WaterMeter:MC0203J22010600005","2024-11-30T22:15:00",14.8,33.26139,0.255],
    [39747,"urn:WaterMeter:MC0203J22010600005","2024-11-30T22:30:00",14.8,33.30526,0.237],
    [39748,"urn:WaterMeter:MC0203J22010600005","2024-11-30T22:45:00",14.8,33.312244,0.248],
    [39749,"urn:WaterMeter:MC0203J22010600005","2024-11-30T23:00:00",14.8,33.297115,0.242],
    [39750,"urn:WaterMeter:MC0203J22010600005","2024-11-30T23:15:00",14.8,33.29246,0.243],
    [39751,"urn:WaterMeter:MC0203J22010600005","2024-11-30T23:30:00",14.8,33.31496,0.23],
    [39752,"urn:WaterMeter:MC0203J22010600005","2024-11-30T23:45:00",14.699,33.31651,0.238],
    [39753,"urn:WaterMeter:MC0203J22010600005","2024-12-01T00:00:00",14.6,33.2463,0.225],
    [39754,"urn:WaterMeter:MC0203J22010600005","2024-12-01T00:15:00",14.6,33.226906,0.242],
    [39755,"urn:WaterMeter:MC0203J22010600005","2024-12-01T00:30:00",14.5,33.304485,0.23],
    [39756,"urn:WaterMeter:MC0203J22010600005","2024-12-01T00:45:00",14.399,33.277332,0.237],
    [39757,"urn:WaterMeter:MC0203J22010600005","2024-12-01T01:00:00",14.3,33.29087,0.238],
    [39758,"urn:WaterMeter:MC0203J22010600005","2024-12-01T01:15:00",14.199,33.336292,0.244],
    [39759,"urn:WaterMeter:MC0203J22010600005","2024-12-01T01:30:00",14.1,33.30371,0.236],
    [39760,"urn:WaterMeter:MC0203J22010600005","2024-12-01T01:45:00",14,33.288933,0.238],
    [39761,"urn:WaterMeter:MC0203J22010600005","2024-12-01T02:00:00",14,33.335907,0.236],
    [39762,"urn:WaterMeter:MC0203J22010600005","2024-12-01T02:15:00",13.899,33.27384,0.233],
    [39763,"urn:WaterMeter:MC0203J22010600005","2024-12-01T02:30:00",13.899,33.33513,0.243],
    [39764,"urn:WaterMeter:MC0203J22010600005","2024-12-01T02:45:00",13.899,33.311466,0.247],
    [39765,"urn:WaterMeter:MC0203J22010600005","2024-12-01T03:00:00",13.899,33.321167,0.242],
    [39766,"urn:WaterMeter:MC0203J22010600005","2024-12-01T03:15:00",13.899,33.26298,0.239],
    [39767,"urn:WaterMeter:MC0203J22010600005","2024-12-01T03:30:00",13.8,33.32233,0.239],
    [39768,"urn:WaterMeter:MC0203J22010600005","2024-12-01T03:45:00",13.699,33.260612,0.236],
    [39769,"urn:WaterMeter:MC0203J22010600005","2024-12-01T04:00:00",13.699,33.29087,0.239],
    [39770,"urn:WaterMeter:MC0203J22010600005","2024-12-01T04:15:00",13.6,33.32966,0.24],
    [39771,"urn:WaterMeter:MC0203J22010600005","2024-12-01T04:30:00",13.6,33.285866,0.24],
    [39772,"urn:WaterMeter:MC0203J22010600005","2024-12-01T04:45:00",13.5,33.30988,0.238],
    [39773,"urn:WaterMeter:MC0203J22010600005","2024-12-01T05:00:00",13.5,33.33358,0.245],
    [39774,"urn:WaterMeter:MC0203J22010600005","2024-12-01T05:15:00",13.399,33.360733,0.239],
    [39775,"urn:WaterMeter:MC0203J22010600005","2024-12-01T05:30:00",13.3,33.28156,0.239],
    [39776,"urn:WaterMeter:MC0203J22010600005","2024-12-01T05:45:00",13.3,33.347504,0.239],
    [39777,"urn:WaterMeter:MC0203J22010600005","2024-12-01T06:00:00",13.3,33.359142,0.245],
    [39778,"urn:WaterMeter:MC0203J22010600005","2024-12-01T06:15:00",13.199,33.32388,0.239],
    [39779,"urn:WaterMeter:MC0203J22010600005","2024-12-01T06:30:00",13.199,33.33858,0.252],
    [39780,"urn:WaterMeter:MC0203J22010600005","2024-12-01T06:45:00",13.199,33.311855,0.236],
    [39781,"urn:WaterMeter:MC0203J22010600005","2024-12-01T07:00:00",13.199,33.385906,0.235],
    [39782,"urn:WaterMeter:MC0203J22010600005","2024-12-01T07:15:00",13.199,33.37586,0.246],
    [39783,"urn:WaterMeter:MC0203J22010600005","2024-12-01T07:30:00",13.199,33.369267,0.232],
    [39784,"urn:WaterMeter:MC0203J22010600005","2024-12-01T07:45:00",13.199,33.326557,0.252],
    [39785,"urn:WaterMeter:MC0203J22010600005","2024-12-01T08:00:00",13.199,33.304874,0.256],
    [39786,"urn:WaterMeter:MC0203J22010600005","2024-12-01T08:15:00",13.199,33.326557,0.24],
    [39787,"urn:WaterMeter:MC0203J22010600005","2024-12-01T08:30:00",13.199,33.356853,0.247],
    [39788,"urn:WaterMeter:MC0203J22010600005","2024-12-01T08:45:00",13.199,33.304874,0.235],
    [39789,"urn:WaterMeter:MC0203J22010600005","2024-12-01T09:00:00",13.199,33.326557,0.234],
    [39790,"urn:WaterMeter:MC0203J22010600005","2024-12-01T09:15:00",13.3,33.376637,0.227],
    [39791,"urn:WaterMeter:MC0203J22010600005","2024-12-01T09:30:00",13.399,33.366898,0.252],
    [39792,"urn:WaterMeter:MC0203J22010600005","2024-12-01T09:45:00",13.5,33.32811,0.246],
    [39793,"urn:WaterMeter:MC0203J22010600005","2024-12-01T10:00:00",13.6,33.341724,0.239],
    [39794,"urn:WaterMeter:MC0203J22010600005","2024-12-01T10:15:00",13.699,33.330048,0.248],
    [39795,"urn:WaterMeter:MC0203J22010600005","2024-12-01T10:30:00",13.899,33.28703,0.236],
    [39796,"urn:WaterMeter:MC0203J22010600005","2024-12-01T10:45:00",14.1,33.232685,0.239],
    [39797,"urn:WaterMeter:MC0203J22010600005","2024-12-01T11:00:00",14.3,33.259876,0.231],
    [39798,"urn:WaterMeter:MC0203J22010600005","2024-12-01T11:15:00",14.5,33.224968,0.234],
    [39799,"urn:WaterMeter:MC0203J22010600005","2024-12-01T11:30:00",14.6,33.172947,0.246],
    [39800,"urn:WaterMeter:MC0203J22010600005","2024-12-01T11:45:00",14.8,33.159412,0.24],
    [39801,"urn:WaterMeter:MC0203J22010600005","2024-12-01T12:00:00",14.899,33.1264,0.232],
    [39802,"urn:WaterMeter:MC0203J22010600005","2024-12-01T12:15:00",15,33.13187,0.235],
    [39803,"urn:WaterMeter:MC0203J22010600005","2024-12-01T12:30:00",15,33.108986,0.236],
    [39804,"urn:WaterMeter:MC0203J22010600005","2024-12-01T12:45:00",15.1,33.100063,0.223],
    [39805,"urn:WaterMeter:MC0203J22010600005","2024-12-01T13:00:00",15.199,33.038734,0.239],
    [39806,"urn:WaterMeter:MC0203J22010600005","2024-12-01T13:15:00",15.199,33.025974,0.226],
    [39807,"urn:WaterMeter:MC0203J22010600005","2024-12-01T13:30:00",15.3,32.979385,0.244],
    [39808,"urn:WaterMeter:MC0203J22010600005","2024-12-01T13:45:00",15.399,32.963135,0.229],
    [39809,"urn:WaterMeter:MC0203J22010600005","2024-12-01T14:00:00",15.5,32.929386,0.234],
    [39810,"urn:WaterMeter:MC0203J22010600005","2024-12-01T14:15:00",15.5,32.909214,0.231],
    [39811,"urn:WaterMeter:MC0203J22010600005","2024-12-01T14:30:00",15.5,32.86073,0.229],
    [39812,"urn:WaterMeter:MC0203J22010600005","2024-12-01T14:45:00",15.6,32.90805,0.237],
    [39813,"urn:WaterMeter:MC0203J22010600005","2024-12-01T15:00:00",15.5,32.89176,0.234],
    [39814,"urn:WaterMeter:MC0203J22010600005","2024-12-01T15:15:00",15.5,32.86034,0.233],
    [39815,"urn:WaterMeter:MC0203J22010600005","2024-12-01T15:30:00",15.6,32.832798,0.233],
    [39816,"urn:WaterMeter:MC0203J22010600005","2024-12-01T15:45:00",15.6,32.817673,0.234],
    [39817,"urn:WaterMeter:MC0203J22010600005","2024-12-01T16:00:00",15.6,32.831635,0.226],
    [39818,"urn:WaterMeter:MC0203J22010600005","2024-12-01T16:15:00",15.5,32.86224,0.23],
    [39819,"urn:WaterMeter:MC0203J22010600005","2024-12-01T16:30:00",15.399,32.773838,0.237],
    [39820,"urn:WaterMeter:MC0203J22010600005","2024-12-01T16:45:00",15.3,32.79789,0.237],
    [39821,"urn:WaterMeter:MC0203J22010600005","2024-12-01T17:00:00",15.199,32.79362,0.235],
    [39822,"urn:WaterMeter:MC0203J22010600005","2024-12-01T17:15:00",15.1,32.7482,0.25],
    [39823,"urn:WaterMeter:MC0203J22010600005","2024-12-01T17:30:00",15,32.81651,0.237],
    [39824,"urn:WaterMeter:MC0203J22010600005","2024-12-01T17:45:00",14.899,32.80289,0.24],
    [39825,"urn:WaterMeter:MC0203J22010600005","2024-12-01T18:00:00",14.8,32.728027,0.242],
    [39826,"urn:WaterMeter:MC0203J22010600005","2024-12-01T18:15:00",14.8,32.76604,0.235],
    [39827,"urn:WaterMeter:MC0203J22010600005","2024-12-01T18:30:00",14.699,32.731556,0.235],
    [39828,"urn:WaterMeter:MC0203J22010600005","2024-12-01T18:45:00",14.6,32.770737,0.238],
    [39829,"urn:WaterMeter:MC0203J22010600005","2024-12-01T19:00:00",14.6,32.79052,0.229],
    [39830,"urn:WaterMeter:MC0203J22010600005","2024-12-01T19:15:00",14.5,32.744358,0.231],
    [39831,"urn:WaterMeter:MC0203J22010600005","2024-12-01T19:30:00",14.399,32.728027,0.231],
    [39832,"urn:WaterMeter:MC0203J22010600005","2024-12-01T19:45:00",14.3,32.75871,0.235],
    [39833,"urn:WaterMeter:MC0203J22010600005","2024-12-01T20:00:00",14.3,32.765656,0.244],
    [39834,"urn:WaterMeter:MC0203J22010600005","2024-12-01T20:15:00",14.199,32.801765,0.23],
    [39835,"urn:WaterMeter:MC0203J22010600005","2024-12-01T20:30:00",14.1,32.74979,0.226],
    [39836,"urn:WaterMeter:MC0203J22010600005","2024-12-01T20:45:00",14.1,32.774612,0.242],
    [39837,"urn:WaterMeter:MC0203J22010600005","2024-12-01T21:00:00",14,32.76643,0.237],
    [39838,"urn:WaterMeter:MC0203J22010600005","2024-12-01T21:15:00",13.899,32.81185,0.235],
    [39839,"urn:WaterMeter:MC0203J22010600005","2024-12-01T21:30:00",13.8,32.738503,0.233],
    [39840,"urn:WaterMeter:MC0203J22010600005","2024-12-01T21:45:00",13.699,32.787804,0.243],
    [39841,"urn:WaterMeter:MC0203J22010600005","2024-12-01T22:00:00",13.6,32.763752,0.239],
    [39842,"urn:WaterMeter:MC0203J22010600005","2024-12-01T22:15:00",13.6,32.76026,0.237],
    [39843,"urn:WaterMeter:MC0203J22010600005","2024-12-01T22:30:00",13.5,32.719532,0.231],
    [39844,"urn:WaterMeter:MC0203J22010600005","2024-12-01T22:45:00",13.399,32.80367,0.232],
    [39845,"urn:WaterMeter:MC0203J22010600005","2024-12-01T23:00:00",13.399,32.788578,0.238],
    [39846,"urn:WaterMeter:MC0203J22010600005","2024-12-01T23:15:00",13.3,32.77927,0.24],
    [39847,"urn:WaterMeter:MC0203J22010600005","2024-12-01T23:30:00",13.3,32.824226,0.235],
    [39848,"urn:WaterMeter:MC0203J22010600005","2024-12-01T23:45:00",13.199,32.737335,0.23],
    [39849,"urn:WaterMeter:MC0203J22010600005","2024-12-02T00:00:00",13.199,32.790905,0.238],
    [39850,"urn:WaterMeter:MC0203J22010600005","2024-12-02T00:15:00",13.1,32.796684,0.238],
    [39851,"urn:WaterMeter:MC0203J22010600005","2024-12-02T00:30:00",13.1,32.764877,0.236],
    [39852,"urn:WaterMeter:MC0203J22010600005","2024-12-02T00:45:00",13,32.764877,0.231],
    [39853,"urn:WaterMeter:MC0203J22010600005","2024-12-02T01:00:00",13,32.81922,0.24],
    [39854,"urn:WaterMeter:MC0203J22010600005","2024-12-02T01:15:00",13,32.781208,0.228],
    [39855,"urn:WaterMeter:MC0203J22010600005","2024-12-02T01:30:00",12.899,32.792458,0.237],
    [39856,"urn:WaterMeter:MC0203J22010600005","2024-12-02T01:45:00",12.899,32.76065,0.238],
    [39857,"urn:WaterMeter:MC0203J22010600005","2024-12-02T02:00:00",12.899,32.799828,0.236],
    [39858,"urn:WaterMeter:MC0203J22010600005","2024-12-02T02:15:00",12.8,32.776127,0.236],
    [39859,"urn:WaterMeter:MC0203J22010600005","2024-12-02T02:30:00",12.8,32.773064,0.236],
    [39860,"urn:WaterMeter:MC0203J22010600005","2024-12-02T02:45:00",12.8,32.78974,0.237],
    [39861,"urn:WaterMeter:MC0203J22010600005","2024-12-02T03:00:00",12.699,32.757896,0.238],
    [39862,"urn:WaterMeter:MC0203J22010600005","2024-12-02T03:15:00",12.699,32.80099,0.25],
    [39863,"urn:WaterMeter:MC0203J22010600005","2024-12-02T03:30:00",12.699,32.76841,0.231],
    [39864,"urn:WaterMeter:MC0203J22010600005","2024-12-02T03:45:00",12.6,32.73272,0.239],
    [39865,"urn:WaterMeter:MC0203J22010600005","2024-12-02T04:00:00",12.6,32.74242,0.234],
    [39866,"urn:WaterMeter:MC0203J22010600005","2024-12-02T04:15:00",12.5,32.793232,0.231],
    [39867,"urn:WaterMeter:MC0203J22010600005","2024-12-02T04:30:00",12.5,32.80367,0.226],
    [39868,"urn:WaterMeter:MC0203J22010600005","2024-12-02T04:45:00",12.399,32.76996,0.238],
    [39869,"urn:WaterMeter:MC0203J22010600005","2024-12-02T05:00:00",12.399,32.667904,0.248],
    [39870,"urn:WaterMeter:MC0203J22010600005","2024-12-02T05:15:00",12.5,32.672985,0.237],
    [39871,"urn:WaterMeter:MC0203J22010600005","2024-12-02T05:30:00",12.699,32.610493,0.223],
    [39872,"urn:WaterMeter:MC0203J22010600005","2024-12-02T05:45:00",12.699,32.842457,0.218],
    [39873,"urn:WaterMeter:MC0203J22010600005","2024-12-02T06:00:00",12.699,33.489124,0.243],
    [39874,"urn:WaterMeter:MC0203J22010600005","2024-12-02T06:15:00",12.699,34.45263,0.264],
    [39875,"urn:WaterMeter:MC0203J22010600005","2024-12-02T06:30:00",12.8,35.204033,0.301],
    [39876,"urn:WaterMeter:MC0203J22010600005","2024-12-02T06:45:00",12.8,35.730026,0.268],
    [39877,"urn:WaterMeter:MC0203J22010600005","2024-12-02T07:00:00",12.8,36.005394,0.272],
    [39878,"urn:WaterMeter:MC0203J22010600005","2024-12-02T07:15:00",12.8,36.317307,0.271],
    [39879,"urn:WaterMeter:MC0203J22010600005","2024-12-02T07:30:00",12.8,36.463154,0.275],
    [39880,"urn:WaterMeter:MC0203J22010600005","2024-12-02T07:45:00",12.899,36.526382,0.28],
    [39881,"urn:WaterMeter:MC0203J22010600005","2024-12-02T08:00:00",12.899,36.646206,0.284],
    [39882,"urn:WaterMeter:MC0203J22010600005","2024-12-02T08:15:00",12.899,36.408073,0.283],
    [39883,"urn:WaterMeter:MC0203J22010600005","2024-12-02T08:30:00",12.899,36.045776,0.273],
    [39884,"urn:WaterMeter:MC0203J22010600005","2024-12-02T08:45:00",13,35.9135,0.278],
    [39885,"urn:WaterMeter:MC0203J22010600005","2024-12-02T09:00:00",13.199,35.818855,0.285],
    [39886,"urn:WaterMeter:MC0203J22010600005","2024-12-02T09:15:00",13.399,35.784332,0.271],
    [39887,"urn:WaterMeter:MC0203J22010600005","2024-12-02T09:30:00",13.6,35.683475,0.263],
    [39888,"urn:WaterMeter:MC0203J22010600005","2024-12-02T09:45:00",13.899,35.58495,0.254],
    [39889,"urn:WaterMeter:MC0203J22010600005","2024-12-02T10:00:00",14.199,35.476727,0.256],
    [39890,"urn:WaterMeter:MC0203J22010600005","2024-12-02T10:15:00",14.399,35.420868,0.256],
    [39891,"urn:WaterMeter:MC0203J22010600005","2024-12-02T10:30:00",14.699,35.41117,0.262],
    [39892,"urn:WaterMeter:MC0203J22010600005","2024-12-02T10:45:00",14.899,35.312256,0.252],
    [39893,"urn:WaterMeter:MC0203J22010600005","2024-12-02T11:00:00",15,35.300617,0.256],
    [39894,"urn:WaterMeter:MC0203J22010600005","2024-12-02T11:15:00",15.199,35.258686,0.261],
    [39895,"urn:WaterMeter:MC0203J22010600005","2024-12-02T11:30:00",15.3,35.20675,0.259],
    [39896,"urn:WaterMeter:MC0203J22010600005","2024-12-02T11:45:00",15.399,35.103138,0.254],
    [39897,"urn:WaterMeter:MC0203J22010600005","2024-12-02T12:00:00",15.6,35.02327,0.275],
    [39898,"urn:WaterMeter:MC0203J22010600005","2024-12-02T12:15:00",15.699,34.995304,0.255],
    [39899,"urn:WaterMeter:MC0203J22010600005","2024-12-02T12:30:00",15.8,34.948368,0.256],
    [39900,"urn:WaterMeter:MC0203J22010600005","2024-12-02T12:45:00",15.899,34.94026,0.261],
    [39901,"urn:WaterMeter:MC0203J22010600005","2024-12-02T13:00:00",16,34.714115,0.263],
    [39902,"urn:WaterMeter:MC0203J22010600005","2024-12-02T13:15:00",16.2,34.634594,0.254],
    [39903,"urn:WaterMeter:MC0203J22010600005","2024-12-02T13:30:00",16.2,34.65205,0.245],
    [39904,"urn:WaterMeter:MC0203J22010600005","2024-12-02T13:45:00",16.299,34.560078,0.254],
    [39905,"urn:WaterMeter:MC0203J22010600005","2024-12-02T14:00:00",16.299,34.54809,0.259],
    [39906,"urn:WaterMeter:MC0203J22010600005","2024-12-02T14:15:00",16.399,34.518227,0.258],
    [39907,"urn:WaterMeter:MC0203J22010600005","2024-12-02T14:30:00",16.399,34.46547,0.264],
    [39908,"urn:WaterMeter:MC0203J22010600005","2024-12-02T14:45:00",16.5,34.447628,0.264],
    [39909,"urn:WaterMeter:MC0203J22010600005","2024-12-02T15:00:00",16.5,34.43638,0.27],
    [39910,"urn:WaterMeter:MC0203J22010600005","2024-12-02T15:15:00",16.399,34.415005,0.25],
    [39911,"urn:WaterMeter:MC0203J22010600005","2024-12-02T15:30:00",16.299,34.36539,0.257],
    [39912,"urn:WaterMeter:MC0203J22010600005","2024-12-02T15:45:00",16.2,34.381294,0.252],
    [39913,"urn:WaterMeter:MC0203J22010600005","2024-12-02T16:00:00",16.1,34.346386,0.249],
    [39914,"urn:WaterMeter:MC0203J22010600005","2024-12-02T16:15:00",16,34.379356,0.254],
    [39915,"urn:WaterMeter:MC0203J22010600005","2024-12-02T16:30:00",15.899,34.36268,0.249],
    [39916,"urn:WaterMeter:MC0203J22010600005","2024-12-02T16:45:00",15.899,34.371986,0.261],
    [39917,"urn:WaterMeter:MC0203J22010600005","2024-12-02T17:00:00",15.8,34.35104,0.272],
    [39918,"urn:WaterMeter:MC0203J22010600005","2024-12-02T17:15:00",15.699,34.331646,0.269],
    [39919,"urn:WaterMeter:MC0203J22010600005","2024-12-02T17:30:00",15.699,34.352203,0.253],
    [39920,"urn:WaterMeter:MC0203J22010600005","2024-12-02T17:45:00",15.6,34.309494,0.26],
    [39921,"urn:WaterMeter:MC0203J22010600005","2024-12-02T18:00:00",15.6,34.287426,0.259],
    [39922,"urn:WaterMeter:MC0203J22010600005","2024-12-02T18:15:00",15.5,34.304104,0.263],
    [39923,"urn:WaterMeter:MC0203J22010600005","2024-12-02T18:30:00",15.399,34.300224,0.252],
    [39924,"urn:WaterMeter:MC0203J22010600005","2024-12-02T18:45:00",15.399,34.3351,0.251],
    [39925,"urn:WaterMeter:MC0203J22010600005","2024-12-02T19:00:00",15.3,34.33859,0.277],
    [39926,"urn:WaterMeter:MC0203J22010600005","2024-12-02T19:15:00",15.3,34.29169,0.252],
    [39927,"urn:WaterMeter:MC0203J22010600005","2024-12-02T19:30:00",15.3,34.27963,0.259],
    [39928,"urn:WaterMeter:MC0203J22010600005","2024-12-02T19:45:00",15.199,34.24161,0.247],
    [39929,"urn:WaterMeter:MC0203J22010600005","2024-12-02T20:00:00",15.1,34.2626,0.25],
    [39930,"urn:WaterMeter:MC0203J22010600005","2024-12-02T20:15:00",15.1,34.20127,0.265],
    [39931,"urn:WaterMeter:MC0203J22010600005","2024-12-02T20:30:00",15,34.196655,0.262],
    [39932,"urn:WaterMeter:MC0203J22010600005","2024-12-02T20:45:00",14.8,34.243202,0.257],
    [39933,"urn:WaterMeter:MC0203J22010600005","2024-12-02T21:00:00",14.8,34.235447,0.258],
    [39934,"urn:WaterMeter:MC0203J22010600005","2024-12-02T21:15:00",14.699,34.237385,0.248],
    [39935,"urn:WaterMeter:MC0203J22010600005","2024-12-02T21:30:00",14.6,34.243202,0.245],
    [39936,"urn:WaterMeter:MC0203J22010600005","2024-12-02T21:45:00",14.5,34.20713,0.241],
    [39937,"urn:WaterMeter:MC0203J22010600005","2024-12-02T22:00:00",14.5,34.227688,0.252],
    [39938,"urn:WaterMeter:MC0203J22010600005","2024-12-02T22:15:00",14.399,34.239285,0.252],
    [39939,"urn:WaterMeter:MC0203J22010600005","2024-12-02T22:30:00",14.399,34.18657,0.249],
    [39940,"urn:WaterMeter:MC0203J22010600005","2024-12-02T22:45:00",14.399,34.21411,0.249],
    [39941,"urn:WaterMeter:MC0203J22010600005","2024-12-02T23:00:00",14.3,34.195103,0.258],
    [39942,"urn:WaterMeter:MC0203J22010600005","2024-12-02T23:15:00",14.3,34.193554,0.246],
    [39943,"urn:WaterMeter:MC0203J22010600005","2024-12-02T23:30:00",14.199,34.180714,0.254],
    [39944,"urn:WaterMeter:MC0203J22010600005","2024-12-02T23:45:00",14.199,34.202824,0.252],
    [39945,"urn:WaterMeter:MC0203J22010600005","2024-12-03T00:00:00",14.1,34.23075,0.255],
    [39946,"urn:WaterMeter:MC0203J22010600005","2024-12-03T00:15:00",14.1,34.235447,0.258],
    [39947,"urn:WaterMeter:MC0203J22010600005","2024-12-03T00:30:00",14,34.227688,0.252],
    [39948,"urn:WaterMeter:MC0203J22010600005","2024-12-03T00:45:00",14,34.169113,0.251],
    [39949,"urn:WaterMeter:MC0203J22010600005","2024-12-03T01:00:00",14,34.190838,0.268],
    [39950,"urn:WaterMeter:MC0203J22010600005","2024-12-03T01:15:00",14,34.137306,0.257],
    [39951,"urn:WaterMeter:MC0203J22010600005","2024-12-03T01:30:00",13.899,34.143085,0.255],
    [39952,"urn:WaterMeter:MC0203J22010600005","2024-12-03T01:45:00",13.899,34.19782,0.248],
    [39953,"urn:WaterMeter:MC0203J22010600005","2024-12-03T02:00:00",13.899,34.16446,0.243],
    [39954,"urn:WaterMeter:MC0203J22010600005","2024-12-03T02:15:00",13.899,34.215275,0.249],
    [39955,"urn:WaterMeter:MC0203J22010600005","2024-12-03T02:30:00",13.899,34.132652,0.258],
    [39956,"urn:WaterMeter:MC0203J22010600005","2024-12-03T02:45:00",13.8,34.17959,0.255],
    [39957,"urn:WaterMeter:MC0203J22010600005","2024-12-03T03:00:00",13.8,34.121014,0.244],
    [39958,"urn:WaterMeter:MC0203J22010600005","2024-12-03T03:15:00",13.699,34.13494,0.253],
    [39959,"urn:WaterMeter:MC0203J22010600005","2024-12-03T03:30:00",13.6,34.12761,0.256],
    [39960,"urn:WaterMeter:MC0203J22010600005","2024-12-03T03:45:00",13.5,34.170277,0.244],
    [39961,"urn:WaterMeter:MC0203J22010600005","2024-12-03T04:00:00",13.399,34.122528,0.256],
    [39962,"urn:WaterMeter:MC0203J22010600005","2024-12-03T04:15:00",13.399,34.181103,0.251],
    [39963,"urn:WaterMeter:MC0203J22010600005","2024-12-03T04:30:00",13.3,34.1311,0.255],
    [39964,"urn:WaterMeter:MC0203J22010600005","2024-12-03T04:45:00",13.199,34.134167,0.268],
    [39965,"urn:WaterMeter:MC0203J22010600005","2024-12-03T05:00:00",13.1,34.089207,0.248],
    [39966,"urn:WaterMeter:MC0203J22010600005","2024-12-03T05:15:00",13.199,34.100845,0.248],
    [39967,"urn:WaterMeter:MC0203J22010600005","2024-12-03T05:30:00",13.3,34.41578,0.263],
    [39968,"urn:WaterMeter:MC0203J22010600005","2024-12-03T05:45:00",13.3,35.249767,0.274],
    [39969,"urn:WaterMeter:MC0203J22010600005","2024-12-03T06:00:00",13.3,35.85101,0.268],
    [39970,"urn:WaterMeter:MC0203J22010600005","2024-12-03T06:15:00",13.3,36.287785,0.279],
    [39971,"urn:WaterMeter:MC0203J22010600005","2024-12-03T06:30:00",13.3,36.516296,0.293],
    [39972,"urn:WaterMeter:MC0203J22010600005","2024-12-03T06:45:00",13.3,36.769596,0.312],
    [39973,"urn:WaterMeter:MC0203J22010600005","2024-12-03T07:00:00",13.3,36.961605,0.297],
    [39974,"urn:WaterMeter:MC0203J22010600005","2024-12-03T07:15:00",13.3,37.18038,0.294],
    [39975,"urn:WaterMeter:MC0203J22010600005","2024-12-03T07:30:00",13.3,37.340584,0.286],
    [39976,"urn:WaterMeter:MC0203J22010600005","2024-12-03T07:45:00",13.3,37.495747,0.284],
    [39977,"urn:WaterMeter:MC0203J22010600005","2024-12-03T08:00:00",13.399,37.59272,0.291],
    [39978,"urn:WaterMeter:MC0203J22010600005","2024-12-03T08:15:00",13.399,37.350285,0.282],
    [39979,"urn:WaterMeter:MC0203J22010600005","2024-12-03T08:30:00",13.399,36.80412,0.298],
    [39980,"urn:WaterMeter:MC0203J22010600005","2024-12-03T08:45:00",13.399,36.525993,0.283],
    [39981,"urn:WaterMeter:MC0203J22010600005","2024-12-03T09:00:00",13.6,36.391743,0.29],
    [39982,"urn:WaterMeter:MC0203J22010600005","2024-12-03T09:15:00",13.8,36.234295,0.279],
    [39983,"urn:WaterMeter:MC0203J22010600005","2024-12-03T09:30:00",14.1,36.074055,0.266],
    [39984,"urn:WaterMeter:MC0203J22010600005","2024-12-03T09:45:00",14.399,35.914665,0.269],
    [39985,"urn:WaterMeter:MC0203J22010600005","2024-12-03T10:00:00",14.6,35.879715,0.258],
    [39986,"urn:WaterMeter:MC0203J22010600005","2024-12-03T10:15:00",14.899,35.798683,0.284],
    [39987,"urn:WaterMeter:MC0203J22010600005","2024-12-03T10:30:00",15.1,35.700542,0.263],
    [39988,"urn:WaterMeter:MC0203J22010600005","2024-12-03T10:45:00",15.199,35.652443,0.285],
    [39989,"urn:WaterMeter:MC0203J22010600005","2024-12-03T11:00:00",15.3,35.63848,0.263],
    [39990,"urn:WaterMeter:MC0203J22010600005","2024-12-03T11:15:00",15.5,35.539528,0.258],
    [39991,"urn:WaterMeter:MC0203J22010600005","2024-12-03T11:30:00",15.6,35.483707,0.264],
    [39992,"urn:WaterMeter:MC0203J22010600005","2024-12-03T11:45:00",15.699,35.353374,0.26],
    [39993,"urn:WaterMeter:MC0203J22010600005","2024-12-03T12:00:00",15.8,35.316483,0.255],
    [39994,"urn:WaterMeter:MC0203J22010600005","2024-12-03T12:15:00",15.899,35.26144,0.257],
    [39995,"urn:WaterMeter:MC0203J22010600005","2024-12-03T12:30:00",16,35.169857,0.28],
    [39996,"urn:WaterMeter:MC0203J22010600005","2024-12-03T12:45:00",16.1,35.140415,0.267],
    [39997,"urn:WaterMeter:MC0203J22010600005","2024-12-03T13:00:00",16.1,35.003876,0.283],
    [39998,"urn:WaterMeter:MC0203J22010600005","2024-12-03T13:15:00",16.2,35.019005,0.273],
    [39999,"urn:WaterMeter:MC0203J22010600005","2024-12-03T13:30:00",16.2,34.947243,0.258],
    [40000,"urn:WaterMeter:MC0203J22010600005","2024-12-03T13:45:00",16.299,34.904186,0.259],
    [40001,"urn:WaterMeter:MC0203J22010600005","2024-12-03T14:00:00",16.299,34.91311,0.253],
    [40002,"urn:WaterMeter:MC0203J22010600005","2024-12-03T14:15:00",16.299,34.828934,0.269],
    [40003,"urn:WaterMeter:MC0203J22010600005","2024-12-03T14:30:00",16.299,34.72571,0.268],
    [40004,"urn:WaterMeter:MC0203J22010600005","2024-12-03T14:45:00",16.299,34.74127,0.26],
    [40005,"urn:WaterMeter:MC0203J22010600005","2024-12-03T15:00:00",16.299,34.679977,0.248],
    [40006,"urn:WaterMeter:MC0203J22010600005","2024-12-03T15:15:00",16.299,34.68192,0.263],
    [40007,"urn:WaterMeter:MC0203J22010600005","2024-12-03T15:30:00",16.2,34.62641,0.253],
    [40008,"urn:WaterMeter:MC0203J22010600005","2024-12-03T15:45:00",16.2,34.570553,0.255],
    [40009,"urn:WaterMeter:MC0203J22010600005","2024-12-03T16:00:00",16.2,34.594643,0.265],
    [40010,"urn:WaterMeter:MC0203J22010600005","2024-12-03T16:15:00",16.1,34.527145,0.255],
    [40011,"urn:WaterMeter:MC0203J22010600005","2024-12-03T16:30:00",16,34.547707,0.261],
    [40012,"urn:WaterMeter:MC0203J22010600005","2024-12-03T16:45:00",15.899,34.560856,0.282],
    [40013,"urn:WaterMeter:MC0203J22010600005","2024-12-03T17:00:00",15.699,34.560856,0.255],
    [40014,"urn:WaterMeter:MC0203J22010600005","2024-12-03T17:15:00",15.6,34.50228,0.265],
    [40015,"urn:WaterMeter:MC0203J22010600005","2024-12-03T17:30:00",15.5,34.51198,0.267],
    [40016,"urn:WaterMeter:MC0203J22010600005","2024-12-03T17:45:00",15.399,34.564774,0.265],
    [40017,"urn:WaterMeter:MC0203J22010600005","2024-12-03T18:00:00",15.3,34.551544,0.274],
    [40018,"urn:WaterMeter:MC0203J22010600005","2024-12-03T18:15:00",15.199,34.47633,0.261],
    [40019,"urn:WaterMeter:MC0203J22010600005","2024-12-03T18:30:00",15.199,34.46198,0.257],
    [40020,"urn:WaterMeter:MC0203J22010600005","2024-12-03T18:45:00",15.199,34.45457,0.253],
    [40021,"urn:WaterMeter:MC0203J22010600005","2024-12-03T19:00:00",15.199,34.47827,0.261],
    [40022,"urn:WaterMeter:MC0203J22010600005","2024-12-03T19:15:00",15.199,34.48603,0.266],
    [40023,"urn:WaterMeter:MC0203J22010600005","2024-12-03T19:30:00",15.1,34.46004,0.256],
    [40024,"urn:WaterMeter:MC0203J22010600005","2024-12-03T19:45:00",15.1,34.42823,0.269],
    [40025,"urn:WaterMeter:MC0203J22010600005","2024-12-03T20:00:00",15.1,34.403408,0.274],
    [40026,"urn:WaterMeter:MC0203J22010600005","2024-12-03T20:15:00",15,34.411163,0.258],
    [40027,"urn:WaterMeter:MC0203J22010600005","2024-12-03T20:30:00",15,34.43599,0.258],
    [40028,"urn:WaterMeter:MC0203J22010600005","2024-12-03T20:45:00",14.899,34.35841,0.258],
    [40029,"urn:WaterMeter:MC0203J22010600005","2024-12-03T21:00:00",14.899,34.38401,0.269],
    [40030,"urn:WaterMeter:MC0203J22010600005","2024-12-03T21:15:00",14.899,34.346386,0.249],
    [40031,"urn:WaterMeter:MC0203J22010600005","2024-12-03T21:30:00",14.899,34.39406,0.258],
    [40032,"urn:WaterMeter:MC0203J22010600005","2024-12-03T21:45:00",14.8,34.401077,0.25],
    [40033,"urn:WaterMeter:MC0203J22010600005","2024-12-03T22:00:00",14.8,34.368885,0.265],
    [40034,"urn:WaterMeter:MC0203J22010600005","2024-12-03T22:15:00",14.8,34.345608,0.267],
    [40035,"urn:WaterMeter:MC0203J22010600005","2024-12-03T22:30:00",14.8,34.35841,0.253],
    [40036,"urn:WaterMeter:MC0203J22010600005","2024-12-03T22:45:00",14.699,34.30255,0.26],
    [40037,"urn:WaterMeter:MC0203J22010600005","2024-12-03T23:00:00",14.699,34.34751,0.272],
    [40038,"urn:WaterMeter:MC0203J22010600005","2024-12-03T23:15:00",14.699,34.31962,0.253],
    [40039,"urn:WaterMeter:MC0203J22010600005","2024-12-03T23:30:00",14.699,34.318417,0.251],
    [40040,"urn:WaterMeter:MC0203J22010600005","2024-12-03T23:45:00",14.6,34.326214,0.251],
    [40041,"urn:WaterMeter:MC0203J22010600005","2024-12-04T00:00:00",14.6,34.35643,0.254],
    [40042,"urn:WaterMeter:MC0203J22010600005","2024-12-04T00:15:00",14.6,34.320396,0.26],
    [40043,"urn:WaterMeter:MC0203J22010600005","2024-12-04T00:30:00",14.6,34.275013,0.252],
    [40044,"urn:WaterMeter:MC0203J22010600005","2024-12-04T00:45:00",14.5,34.29786,0.263],
    [40045,"urn:WaterMeter:MC0203J22010600005","2024-12-04T01:00:00",14.5,34.255615,0.255],
    [40046,"urn:WaterMeter:MC0203J22010600005","2024-12-04T01:15:00",14.5,34.23812,0.261],
    [40047,"urn:WaterMeter:MC0203J22010600005","2024-12-04T01:30:00",14.5,34.258682,0.251],
    [40048,"urn:WaterMeter:MC0203J22010600005","2024-12-04T01:45:00",14.399,34.215664,0.256],
    [40049,"urn:WaterMeter:MC0203J22010600005","2024-12-04T02:00:00",14.399,34.23153,0.251],
    [40050,"urn:WaterMeter:MC0203J22010600005","2024-12-04T02:15:00",14.399,34.235447,0.253],
    [40051,"urn:WaterMeter:MC0203J22010600005","2024-12-04T02:30:00",14.399,34.213722,0.252],
    [40052,"urn:WaterMeter:MC0203J22010600005","2024-12-04T02:45:00",14.399,34.2176,0.245],
    [40053,"urn:WaterMeter:MC0203J22010600005","2024-12-04T03:00:00",14.3,34.18657,0.253],
    [40054,"urn:WaterMeter:MC0203J22010600005","2024-12-04T03:15:00",14.3,34.251736,0.251],
    [40055,"urn:WaterMeter:MC0203J22010600005","2024-12-04T03:30:00",14.3,34.188896,0.269],
    [40056,"urn:WaterMeter:MC0203J22010600005","2024-12-04T03:45:00",14.3,34.235832,0.261],
    [40057,"urn:WaterMeter:MC0203J22010600005","2024-12-04T04:00:00",14.199,34.22536,0.274],
    [40058,"urn:WaterMeter:MC0203J22010600005","2024-12-04T04:15:00",14.1,34.2195,0.258],
    [40059,"urn:WaterMeter:MC0203J22010600005","2024-12-04T04:30:00",14,34.22497,0.258],
    [40060,"urn:WaterMeter:MC0203J22010600005","2024-12-04T04:45:00",13.899,34.181877,0.256],
    [40061,"urn:WaterMeter:MC0203J22010600005","2024-12-04T05:00:00",13.899,34.19006,0.257],
    [40062,"urn:WaterMeter:MC0203J22010600005","2024-12-04T05:15:00",13.899,34.202824,0.257],
    [40063,"urn:WaterMeter:MC0203J22010600005","2024-12-04T05:30:00",14,34.572144,0.265],
    [40064,"urn:WaterMeter:MC0203J22010600005","2024-12-04T05:45:00",14,35.45733,0.28],
    [40065,"urn:WaterMeter:MC0203J22010600005","2024-12-04T06:00:00",14,36.121765,0.302],
    [40066,"urn:WaterMeter:MC0203J22010600005","2024-12-04T06:15:00",14.1,36.486816,0.299],
    [40067,"urn:WaterMeter:MC0203J22010600005","2024-12-04T06:30:00",14.1,36.758736,0.3],
    [40068,"urn:WaterMeter:MC0203J22010600005","2024-12-04T06:45:00",14.1,36.93096,0.283],
    [40069,"urn:WaterMeter:MC0203J22010600005","2024-12-04T07:00:00",14.1,37.119095,0.305],
    [40070,"urn:WaterMeter:MC0203J22010600005","2024-12-04T07:15:00",14.1,37.27693,0.308],
    [40071,"urn:WaterMeter:MC0203J22010600005","2024-12-04T07:30:00",14.1,37.521347,0.308],
    [40072,"urn:WaterMeter:MC0203J22010600005","2024-12-04T07:45:00",14.1,37.704437,0.315],
    [40073,"urn:WaterMeter:MC0203J22010600005","2024-12-04T08:00:00",14.1,37.907696,0.303],
    [40074,"urn:WaterMeter:MC0203J22010600005","2024-12-04T08:15:00",14.199,37.84753,0.296],
    [40075,"urn:WaterMeter:MC0203J22010600005","2024-12-04T08:30:00",14.199,37.241673,0.292],
    [40076,"urn:WaterMeter:MC0203J22010600005","2024-12-04T08:45:00",14.199,36.95614,0.315],
    [40077,"urn:WaterMeter:MC0203J22010600005","2024-12-04T09:00:00",14.199,36.559315,0.286],
    [40078,"urn:WaterMeter:MC0203J22010600005","2024-12-04T09:15:00",14.3,36.312263,0.28],
    [40079,"urn:WaterMeter:MC0203J22010600005","2024-12-04T09:30:00",14.399,36.16133,0.294],
    [40080,"urn:WaterMeter:MC0203J22010600005","2024-12-04T09:45:00",14.699,36.107063,0.282],
    [40081,"urn:WaterMeter:MC0203J22010600005","2024-12-04T10:00:00",14.899,35.953068,0.27],
    [40082,"urn:WaterMeter:MC0203J22010600005","2024-12-04T10:15:00",15,35.807606,0.277],
    [40083,"urn:WaterMeter:MC0203J22010600005","2024-12-04T10:30:00",15.1,35.7564,0.274],
    [40084,"urn:WaterMeter:MC0203J22010600005","2024-12-04T10:45:00",15.1,35.722652,0.274],
    [40085,"urn:WaterMeter:MC0203J22010600005","2024-12-04T11:00:00",15.199,35.590767,0.282],
    [40086,"urn:WaterMeter:MC0203J22010600005","2024-12-04T11:15:00",15.3,35.59038,0.27],
    [40087,"urn:WaterMeter:MC0203J22010600005","2024-12-04T11:30:00",15.3,35.4744,0.269],
    [40088,"urn:WaterMeter:MC0203J22010600005","2024-12-04T11:45:00",15.399,35.45966,0.281],
    [40089,"urn:WaterMeter:MC0203J22010600005","2024-12-04T12:00:00",15.6,35.436382,0.276],
    [40090,"urn:WaterMeter:MC0203J22010600005","2024-12-04T12:15:00",15.699,35.39445,0.265],
    [40091,"urn:WaterMeter:MC0203J22010600005","2024-12-04T12:30:00",15.8,35.329712,0.271],
    [40092,"urn:WaterMeter:MC0203J22010600005","2024-12-04T12:45:00",15.699,35.25058,0.267],
    [40093,"urn:WaterMeter:MC0203J22010600005","2024-12-04T13:00:00",15.6,35.319237,0.278],
    [40094,"urn:WaterMeter:MC0203J22010600005","2024-12-04T13:15:00",15.5,35.220673,0.261],
    [40095,"urn:WaterMeter:MC0203J22010600005","2024-12-04T13:30:00",15.5,35.149338,0.269],
    [40096,"urn:WaterMeter:MC0203J22010600005","2024-12-04T13:45:00",15.399,35.08262,0.311],
    [40097,"urn:WaterMeter:MC0203J22010600005","2024-12-04T14:00:00",15.399,35.06435,0.27],
    [40098,"urn:WaterMeter:MC0203J22010600005","2024-12-04T14:15:00",15.399,35.076412,0.285],
    [40099,"urn:WaterMeter:MC0203J22010600005","2024-12-04T14:30:00",15.3,35.0531,0.276],
    [40100,"urn:WaterMeter:MC0203J22010600005","2024-12-04T14:45:00",15.399,35.004265,0.267],
    [40101,"urn:WaterMeter:MC0203J22010600005","2024-12-04T15:00:00",15.5,34.981377,0.268],
    [40102,"urn:WaterMeter:MC0203J22010600005","2024-12-04T15:15:00",15.5,34.91074,0.264],
    [40103,"urn:WaterMeter:MC0203J22010600005","2024-12-04T15:30:00",15.5,34.8685,0.275],
    [40104,"urn:WaterMeter:MC0203J22010600005","2024-12-04T15:45:00",15.5,34.865784,0.282],
    [40105,"urn:WaterMeter:MC0203J22010600005","2024-12-04T16:00:00",15.399,34.772686,0.271],
    [40106,"urn:WaterMeter:MC0203J22010600005","2024-12-04T16:15:00",15.3,34.783897,0.269],
    [40107,"urn:WaterMeter:MC0203J22010600005","2024-12-04T16:30:00",15.199,34.71916,0.273],
    [40108,"urn:WaterMeter:MC0203J22010600005","2024-12-04T16:45:00",15.199,34.750965,0.278],
    [40109,"urn:WaterMeter:MC0203J22010600005","2024-12-04T17:00:00",15.199,34.683083,0.262],
    [40110,"urn:WaterMeter:MC0203J22010600005","2024-12-04T17:15:00",15.1,34.69976,0.292],
    [40111,"urn:WaterMeter:MC0203J22010600005","2024-12-04T17:30:00",15,34.70209,0.279],
    [40112,"urn:WaterMeter:MC0203J22010600005","2024-12-04T17:45:00",15,34.708683,0.27],
    [40113,"urn:WaterMeter:MC0203J22010600005","2024-12-04T18:00:00",14.899,34.68153,0.266],
    [40114,"urn:WaterMeter:MC0203J22010600005","2024-12-04T18:15:00",14.699,34.68231,0.271],
    [40115,"urn:WaterMeter:MC0203J22010600005","2024-12-04T18:30:00",14.6,34.734283,0.274],
    [40116,"urn:WaterMeter:MC0203J22010600005","2024-12-04T18:45:00",14.5,34.68968,0.276],
    [40117,"urn:WaterMeter:MC0203J22010600005","2024-12-04T19:00:00",14.399,34.79092,0.268],
    [40118,"urn:WaterMeter:MC0203J22010600005","2024-12-04T19:15:00",14.3,34.806435,0.278],
    [40119,"urn:WaterMeter:MC0203J22010600005","2024-12-04T19:30:00",14.199,34.724937,0.277],
    [40120,"urn:WaterMeter:MC0203J22010600005","2024-12-04T19:45:00",14.1,34.736614,0.265],
    [40121,"urn:WaterMeter:MC0203J22010600005","2024-12-04T20:00:00",14,34.74049,0.255],
    [40122,"urn:WaterMeter:MC0203J22010600005","2024-12-04T20:15:00",13.8,34.594643,0.279],
    [40123,"urn:WaterMeter:MC0203J22010600005","2024-12-04T20:30:00",13.699,34.564774,0.258],
    [40124,"urn:WaterMeter:MC0203J22010600005","2024-12-04T20:45:00",13.6,34.55624,0.268],
    [40125,"urn:WaterMeter:MC0203J22010600005","2024-12-04T21:00:00",13.5,34.56283,0.254],
    [40126,"urn:WaterMeter:MC0203J22010600005","2024-12-04T21:15:00",13.399,34.625286,0.277],
    [40127,"urn:WaterMeter:MC0203J22010600005","2024-12-04T21:30:00",13.3,34.614426,0.268],
    [40128,"urn:WaterMeter:MC0203J22010600005","2024-12-04T21:45:00",13.199,34.538006,0.285],
    [40129,"urn:WaterMeter:MC0203J22010600005","2024-12-04T22:00:00",13.1,34.595417,0.274],
    [40130,"urn:WaterMeter:MC0203J22010600005","2024-12-04T22:15:00",13,34.52598,0.267],
    [40131,"urn:WaterMeter:MC0203J22010600005","2024-12-04T22:30:00",12.8,34.58378,0.267],
    [40132,"urn:WaterMeter:MC0203J22010600005","2024-12-04T22:45:00",12.699,34.54146,0.267],
    [40133,"urn:WaterMeter:MC0203J22010600005","2024-12-04T23:00:00",12.6,34.56861,0.268],
    [40134,"urn:WaterMeter:MC0203J22010600005","2024-12-04T23:15:00",12.5,34.601624,0.259],
    [40135,"urn:WaterMeter:MC0203J22010600005","2024-12-04T23:30:00",12.399,34.53176,0.269],
    [40136,"urn:WaterMeter:MC0203J22010600005","2024-12-04T23:45:00",12.3,34.50775,0.266],
    [40137,"urn:WaterMeter:MC0203J22010600005","2024-12-05T00:00:00",12.3,34.563995,0.271],
    [40138,"urn:WaterMeter:MC0203J22010600005","2024-12-05T00:15:00",12.199,34.560078,0.284],
    [40139,"urn:WaterMeter:MC0203J22010600005","2024-12-05T00:30:00",12.1,34.53723,0.278],
    [40140,"urn:WaterMeter:MC0203J22010600005","2024-12-05T00:45:00",12,34.541073,0.273],
    [40141,"urn:WaterMeter:MC0203J22010600005","2024-12-05T01:00:00",11.899,34.466633,0.27],
    [40142,"urn:WaterMeter:MC0203J22010600005","2024-12-05T01:15:00",11.899,34.53254,0.269],
    [40143,"urn:WaterMeter:MC0203J22010600005","2024-12-05T01:30:00",11.8,34.497665,0.276],
    [40144,"urn:WaterMeter:MC0203J22010600005","2024-12-05T01:45:00",11.699,34.492195,0.264],
    [40145,"urn:WaterMeter:MC0203J22010600005","2024-12-05T02:00:00",11.6,34.538006,0.263],
    [40146,"urn:WaterMeter:MC0203J22010600005","2024-12-05T02:15:00",11.5,34.485252,0.272],
    [40147,"urn:WaterMeter:MC0203J22010600005","2024-12-05T02:30:00",11.5,34.458878,0.271],
    [40148,"urn:WaterMeter:MC0203J22010600005","2024-12-05T02:45:00",11.5,34.536457,0.28],
    [40149,"urn:WaterMeter:MC0203J22010600005","2024-12-05T03:00:00",11.399,34.442974,0.267],
    [40150,"urn:WaterMeter:MC0203J22010600005","2024-12-05T03:15:00",11.399,34.48758,0.278],
    [40151,"urn:WaterMeter:MC0203J22010600005","2024-12-05T03:30:00",11.399,34.494564,0.26],
    [40152,"urn:WaterMeter:MC0203J22010600005","2024-12-05T03:45:00",11.399,34.45616,0.258],
    [40153,"urn:WaterMeter:MC0203J22010600005","2024-12-05T04:00:00",11.399,34.466633,0.263],
    [40154,"urn:WaterMeter:MC0203J22010600005","2024-12-05T04:15:00",11.5,34.46388,0.257],
    [40155,"urn:WaterMeter:MC0203J22010600005","2024-12-05T04:30:00",11.5,34.47827,0.258],
    [40156,"urn:WaterMeter:MC0203J22010600005","2024-12-05T04:45:00",11.5,34.492195,0.26],
    [40157,"urn:WaterMeter:MC0203J22010600005","2024-12-05T05:00:00",11.399,34.41776,0.258],
    [40158,"urn:WaterMeter:MC0203J22010600005","2024-12-05T05:15:00",11.5,34.494175,0.257],
    [40159,"urn:WaterMeter:MC0203J22010600005","2024-12-05T05:30:00",11.6,34.72963,0.279],
    [40160,"urn:WaterMeter:MC0203J22010600005","2024-12-05T05:45:00",11.699,35.517067,0.283],
    [40161,"urn:WaterMeter:MC0203J22010600005","2024-12-05T06:00:00",11.8,36.159004,0.281],
    [40162,"urn:WaterMeter:MC0203J22010600005","2024-12-05T06:15:00",11.8,36.63073,0.29],
    [40163,"urn:WaterMeter:MC0203J22010600005","2024-12-05T06:30:00",11.8,36.875843,0.299],
    [40164,"urn:WaterMeter:MC0203J22010600005","2024-12-05T06:45:00",11.899,37.144695,0.29],
    [40165,"urn:WaterMeter:MC0203J22010600005","2024-12-05T07:00:00",11.899,37.24629,0.303],
    [40166,"urn:WaterMeter:MC0203J22010600005","2024-12-05T07:15:00",11.899,37.41002,0.321],
    [40167,"urn:WaterMeter:MC0203J22010600005","2024-12-05T07:30:00",11.899,37.6191,0.293],
    [40168,"urn:WaterMeter:MC0203J22010600005","2024-12-05T07:45:00",11.899,37.63341,0.304],
    [40169,"urn:WaterMeter:MC0203J22010600005","2024-12-05T08:00:00",12,37.731937,0.3],
    [40170,"urn:WaterMeter:MC0203J22010600005","2024-12-05T08:15:00",12,37.590393,0.291],
    [40171,"urn:WaterMeter:MC0203J22010600005","2024-12-05T08:30:00",11.899,37.30486,0.298],
    [40172,"urn:WaterMeter:MC0203J22010600005","2024-12-05T08:45:00",11.899,36.916573,0.267],
    [40173,"urn:WaterMeter:MC0203J22010600005","2024-12-05T09:00:00",12,36.614437,0.281],
    [40174,"urn:WaterMeter:MC0203J22010600005","2024-12-05T09:15:00",12.3,36.553535,0.282],
    [40175,"urn:WaterMeter:MC0203J22010600005","2024-12-05T09:30:00",12.399,36.478672,0.293],
    [40176,"urn:WaterMeter:MC0203J22010600005","2024-12-05T09:45:00",12.5,36.41428,0.316],
    [40177,"urn:WaterMeter:MC0203J22010600005","2024-12-05T10:00:00",12.6,36.350277,0.286],
    [40178,"urn:WaterMeter:MC0203J22010600005","2024-12-05T10:15:00",12.699,36.258694,0.29],
    [40179,"urn:WaterMeter:MC0203J22010600005","2024-12-05T10:30:00",12.899,36.255203,0.28],
    [40180,"urn:WaterMeter:MC0203J22010600005","2024-12-05T10:45:00",13.1,36.18309,0.285],
    [40181,"urn:WaterMeter:MC0203J22010600005","2024-12-05T11:00:00",13.199,36.033363,0.285],
    [40182,"urn:WaterMeter:MC0203J22010600005","2024-12-05T11:15:00",13.3,35.946045,0.269],
    [40183,"urn:WaterMeter:MC0203J22010600005","2024-12-05T11:30:00",13.3,35.940266,0.281],
    [40184,"urn:WaterMeter:MC0203J22010600005","2024-12-05T11:45:00",13.3,35.806053,0.268],
    [40185,"urn:WaterMeter:MC0203J22010600005","2024-12-05T12:00:00",13.3,35.817303,0.293],
    [40186,"urn:WaterMeter:MC0203J22010600005","2024-12-05T12:15:00",13.399,35.75989,0.274],
    [40187,"urn:WaterMeter:MC0203J22010600005","2024-12-05T12:30:00",13.6,35.67374,0.273],
    [40188,"urn:WaterMeter:MC0203J22010600005","2024-12-05T12:45:00",13.8,35.66447,0.296],
    [40189,"urn:WaterMeter:MC0203J22010600005","2024-12-05T13:00:00",14,35.491814,0.277],
    [40190,"urn:WaterMeter:MC0203J22010600005","2024-12-05T13:15:00",14.199,35.40768,0.277],
    [40191,"urn:WaterMeter:MC0203J22010600005","2024-12-05T13:30:00",14.399,35.38867,0.271],
    [40192,"urn:WaterMeter:MC0203J22010600005","2024-12-05T13:45:00",14.5,35.37432,0.28],
    [40193,"urn:WaterMeter:MC0203J22010600005","2024-12-05T14:00:00",14.6,35.29519,0.275],
    [40194,"urn:WaterMeter:MC0203J22010600005","2024-12-05T14:15:00",14.699,35.259075,0.273],
    [40195,"urn:WaterMeter:MC0203J22010600005","2024-12-05T14:30:00",14.8,35.12878,0.268],
    [40196,"urn:WaterMeter:MC0203J22010600005","2024-12-05T14:45:00",14.899,35.088825,0.275],
    [40197,"urn:WaterMeter:MC0203J22010600005","2024-12-05T15:00:00",14.899,35.074436,0.273],
    [40198,"urn:WaterMeter:MC0203J22010600005","2024-12-05T15:15:00",15,34.996853,0.291],
    [40199,"urn:WaterMeter:MC0203J22010600005","2024-12-05T15:30:00",15,35.03448,0.272],
    [40200,"urn:WaterMeter:MC0203J22010600005","2024-12-05T15:45:00",15,34.94996,0.279],
    [40201,"urn:WaterMeter:MC0203J22010600005","2024-12-05T16:00:00",15,34.979824,0.273],
    [40202,"urn:WaterMeter:MC0203J22010600005","2024-12-05T16:15:00",14.899,34.880486,0.274],
    [40203,"urn:WaterMeter:MC0203J22010600005","2024-12-05T16:30:00",14.8,34.839756,0.277],
    [40204,"urn:WaterMeter:MC0203J22010600005","2024-12-05T16:45:00",14.699,34.847553,0.276],
    [40205,"urn:WaterMeter:MC0203J22010600005","2024-12-05T17:00:00",14.6,34.83316,0.269],
    [40206,"urn:WaterMeter:MC0203J22010600005","2024-12-05T17:15:00",14.399,34.907288,0.27],
    [40207,"urn:WaterMeter:MC0203J22010600005","2024-12-05T17:30:00",14.3,34.82269,0.284],
    [40208,"urn:WaterMeter:MC0203J22010600005","2024-12-05T17:45:00",14.199,34.84949,0.275],
    [40209,"urn:WaterMeter:MC0203J22010600005","2024-12-05T18:00:00",14,34.80915,0.265],
    [40210,"urn:WaterMeter:MC0203J22010600005","2024-12-05T18:15:00",13.899,34.80058,0.273],
    [40211,"urn:WaterMeter:MC0203J22010600005","2024-12-05T18:30:00",13.8,34.83863,0.277],
    [40212,"urn:WaterMeter:MC0203J22010600005","2024-12-05T18:45:00",13.699,34.780834,0.276],
    [40213,"urn:WaterMeter:MC0203J22010600005","2024-12-05T19:00:00",13.5,34.83669,0.272],
    [40214,"urn:WaterMeter:MC0203J22010600005","2024-12-05T19:15:00",13.399,34.76687,0.267],
    [40215,"urn:WaterMeter:MC0203J22010600005","2024-12-05T19:30:00",13.3,34.777344,0.286],
    [40216,"urn:WaterMeter:MC0203J22010600005","2024-12-05T19:45:00",13.199,34.78157,0.276],
    [40217,"urn:WaterMeter:MC0203J22010600005","2024-12-05T20:00:00",13.199,34.76648,0.29],
    [40218,"urn:WaterMeter:MC0203J22010600005","2024-12-05T20:15:00",13.1,34.768032,0.276],
    [40219,"urn:WaterMeter:MC0203J22010600005","2024-12-05T20:30:00",13.1,34.73351,0.286],
    [40220,"urn:WaterMeter:MC0203J22010600005","2024-12-05T20:45:00",13.1,34.723385,0.272],
    [40221,"urn:WaterMeter:MC0203J22010600005","2024-12-05T21:00:00",13.1,34.75911,0.27],
    [40222,"urn:WaterMeter:MC0203J22010600005","2024-12-05T21:15:00",13.1,34.761436,0.277],
    [40223,"urn:WaterMeter:MC0203J22010600005","2024-12-05T21:30:00",13.199,34.753292,0.273],
    [40224,"urn:WaterMeter:MC0203J22010600005","2024-12-05T21:45:00",13.199,34.75558,0.251],
    [40225,"urn:WaterMeter:MC0203J22010600005","2024-12-05T22:00:00",13.199,34.71838,0.274],
    [40226,"urn:WaterMeter:MC0203J22010600005","2024-12-05T22:15:00",13.199,34.647743,0.269],
    [40227,"urn:WaterMeter:MC0203J22010600005","2024-12-05T22:30:00",13.199,34.691616,0.27],
    [40228,"urn:WaterMeter:MC0203J22010600005","2024-12-05T22:45:00",13.199,34.692005,0.274],
    [40229,"urn:WaterMeter:MC0203J22010600005","2024-12-05T23:00:00",13.199,34.63421,0.27],
    [40230,"urn:WaterMeter:MC0203J22010600005","2024-12-05T23:15:00",13.199,34.671444,0.276],
    [40231,"urn:WaterMeter:MC0203J22010600005","2024-12-05T23:30:00",13.199,34.65822,0.27],
    [40232,"urn:WaterMeter:MC0203J22010600005","2024-12-05T23:45:00",13.199,34.631878,0.272],
    [40233,"urn:WaterMeter:MC0203J22010600005","2024-12-06T00:00:00",13.199,34.635757,0.281],
    [40234,"urn:WaterMeter:MC0203J22010600005","2024-12-06T00:15:00",13.199,34.638824,0.279],
    [40235,"urn:WaterMeter:MC0203J22010600005","2024-12-06T00:30:00",13.199,34.562057,0.271],
    [40236,"urn:WaterMeter:MC0203J22010600005","2024-12-06T00:45:00",13.1,34.610546,0.274],
    [40237,"urn:WaterMeter:MC0203J22010600005","2024-12-06T01:00:00",13,34.565548,0.276],
    [40238,"urn:WaterMeter:MC0203J22010600005","2024-12-06T01:15:00",13,34.608955,0.271],
    [40239,"urn:WaterMeter:MC0203J22010600005","2024-12-06T01:30:00",12.899,34.56361,0.273],
    [40240,"urn:WaterMeter:MC0203J22010600005","2024-12-06T01:45:00",12.899,34.57796,0.264],
    [40241,"urn:WaterMeter:MC0203J22010600005","2024-12-06T02:00:00",12.899,34.530987,0.271],
    [40242,"urn:WaterMeter:MC0203J22010600005","2024-12-06T02:15:00",12.899,34.576797,0.266],
    [40243,"urn:WaterMeter:MC0203J22010600005","2024-12-06T02:30:00",12.8,34.539948,0.27],
    [40244,"urn:WaterMeter:MC0203J22010600005","2024-12-06T02:45:00",12.8,34.58762,0.271],
    [40245,"urn:WaterMeter:MC0203J22010600005","2024-12-06T03:00:00",12.899,34.624897,0.262],
    [40246,"urn:WaterMeter:MC0203J22010600005","2024-12-06T03:15:00",12.899,34.59231,0.261],
    [40247,"urn:WaterMeter:MC0203J22010600005","2024-12-06T03:30:00",12.899,34.612484,0.274],
    [40248,"urn:WaterMeter:MC0203J22010600005","2024-12-06T03:45:00",12.899,34.543827,0.28],
    [40249,"urn:WaterMeter:MC0203J22010600005","2024-12-06T04:00:00",12.899,34.58611,0.27],
    [40250,"urn:WaterMeter:MC0203J22010600005","2024-12-06T04:15:00",12.899,34.583004,0.249],
    [40251,"urn:WaterMeter:MC0203J22010600005","2024-12-06T04:30:00",12.899,34.54305,0.261],
    [40252,"urn:WaterMeter:MC0203J22010600005","2024-12-06T04:45:00",12.899,34.55779,0.26],
    [40253,"urn:WaterMeter:MC0203J22010600005","2024-12-06T05:00:00",12.899,34.448013,0.263],
    [40254,"urn:WaterMeter:MC0203J22010600005","2024-12-06T05:15:00",13,34.45263,0.27],
    [40255,"urn:WaterMeter:MC0203J22010600005","2024-12-06T05:30:00",13.1,34.750576,0.271],
    [40256,"urn:WaterMeter:MC0203J22010600005","2024-12-06T05:45:00",13.199,35.510433,0.281],
    [40257,"urn:WaterMeter:MC0203J22010600005","2024-12-06T06:00:00",13.199,36.14702,0.316],
    [40258,"urn:WaterMeter:MC0203J22010600005","2024-12-06T06:15:00",13.199,36.68154,0.287],
    [40259,"urn:WaterMeter:MC0203J22010600005","2024-12-06T06:30:00",13.3,36.951523,0.29],
    [40260,"urn:WaterMeter:MC0203J22010600005","2024-12-06T06:45:00",13.3,37.0419,0.3],
    [40261,"urn:WaterMeter:MC0203J22010600005","2024-12-06T07:00:00",13.3,37.20482,0.297],
    [40262,"urn:WaterMeter:MC0203J22010600005","2024-12-06T07:15:00",13.3,37.300632,0.29],
    [40263,"urn:WaterMeter:MC0203J22010600005","2024-12-06T07:30:00",13.3,37.355324,0.293],
    [40264,"urn:WaterMeter:MC0203J22010600005","2024-12-06T07:45:00",13.399,37.357655,0.311],
    [40265,"urn:WaterMeter:MC0203J22010600005","2024-12-06T08:00:00",13.399,37.438297,0.316],
    [40266,"urn:WaterMeter:MC0203J22010600005","2024-12-06T08:15:00",13.3,37.390625,0.303],
    [40267,"urn:WaterMeter:MC0203J22010600005","2024-12-06T08:30:00",13.3,37.188877,0.296],
    [40268,"urn:WaterMeter:MC0203J22010600005","2024-12-06T08:45:00",13.3,36.943764,0.309],
    [40269,"urn:WaterMeter:MC0203J22010600005","2024-12-06T09:00:00",13.3,36.64896,0.283],
    [40270,"urn:WaterMeter:MC0203J22010600005","2024-12-06T09:15:00",13.3,36.535305,0.302],
    [40271,"urn:WaterMeter:MC0203J22010600005","2024-12-06T09:30:00",13.6,36.423977,0.299],
    [40272,"urn:WaterMeter:MC0203J22010600005","2024-12-06T09:45:00",13.8,36.356094,0.276],
    [40273,"urn:WaterMeter:MC0203J22010600005","2024-12-06T10:00:00",14.1,36.188133,0.282],
    [40274,"urn:WaterMeter:MC0203J22010600005","2024-12-06T10:15:00",14.3,36.14116,0.285],
    [40275,"urn:WaterMeter:MC0203J22010600005","2024-12-06T10:30:00",14.5,35.931732,0.28],
    [40276,"urn:WaterMeter:MC0203J22010600005","2024-12-06T10:45:00",14.699,35.87471,0.272],
    [40277,"urn:WaterMeter:MC0203J22010600005","2024-12-06T11:00:00",14.8,35.84907,0.274],
    [40278,"urn:WaterMeter:MC0203J22010600005","2024-12-06T11:15:00",15,35.759506,0.266],
    [40279,"urn:WaterMeter:MC0203J22010600005","2024-12-06T11:30:00",15.1,35.756012,0.286],
    [40280,"urn:WaterMeter:MC0203J22010600005","2024-12-06T11:45:00",15.199,35.644688,0.286],
    [40281,"urn:WaterMeter:MC0203J22010600005","2024-12-06T12:00:00",15.3,35.628784,0.274],
    [40282,"urn:WaterMeter:MC0203J22010600005","2024-12-06T12:15:00",15.5,35.528316,0.291],
    [40283,"urn:WaterMeter:MC0203J22010600005","2024-12-06T12:30:00",15.6,35.408844,0.275],
    [40284,"urn:WaterMeter:MC0203J22010600005","2024-12-06T12:45:00",15.699,35.263382,0.272],
    [40285,"urn:WaterMeter:MC0203J22010600005","2024-12-06T13:00:00",15.8,35.207134,0.287],
    [40286,"urn:WaterMeter:MC0203J22010600005","2024-12-06T13:15:00",15.899,35.203644,0.277],
    [40287,"urn:WaterMeter:MC0203J22010600005","2024-12-06T13:30:00",16.1,35.11167,0.295],
    [40288,"urn:WaterMeter:MC0203J22010600005","2024-12-06T13:45:00",16.1,35.051975,0.287],
    [40289,"urn:WaterMeter:MC0203J22010600005","2024-12-06T14:00:00",16.2,35.046505,0.274],
    [40290,"urn:WaterMeter:MC0203J22010600005","2024-12-06T14:15:00",16.299,34.97552,0.281],
    [40291,"urn:WaterMeter:MC0203J22010600005","2024-12-06T14:30:00",16.299,34.951897,0.28],
    [40292,"urn:WaterMeter:MC0203J22010600005","2024-12-06T14:45:00",16.399,34.871952,0.273],
    [40293,"urn:WaterMeter:MC0203J22010600005","2024-12-06T15:00:00",16.399,34.851006,0.266],
    [40294,"urn:WaterMeter:MC0203J22010600005","2024-12-06T15:15:00",16.399,34.78196,0.274],
    [40295,"urn:WaterMeter:MC0203J22010600005","2024-12-06T15:30:00",16.5,34.726913,0.279],
    [40296,"urn:WaterMeter:MC0203J22010600005","2024-12-06T15:45:00",16.5,34.717606,0.27],
    [40297,"urn:WaterMeter:MC0203J22010600005","2024-12-06T16:00:00",16.5,34.69317,0.261],
    [40298,"urn:WaterMeter:MC0203J22010600005","2024-12-06T16:15:00",16.5,34.694332,0.271],
    [40299,"urn:WaterMeter:MC0203J22010600005","2024-12-06T16:30:00",16.5,34.662136,0.265],
    [40300,"urn:WaterMeter:MC0203J22010600005","2024-12-06T16:45:00",16.399,34.736614,0.266],
    [40301,"urn:WaterMeter:MC0203J22010600005","2024-12-06T17:00:00",16.299,34.686146,0.276],
    [40302,"urn:WaterMeter:MC0203J22010600005","2024-12-06T17:15:00",16.2,34.69821,0.281],
    [40303,"urn:WaterMeter:MC0203J22010600005","2024-12-06T17:30:00",16.2,34.656704,0.31],
    [40304,"urn:WaterMeter:MC0203J22010600005","2024-12-06T17:45:00",16.1,34.65903,0.266],
    [40305,"urn:WaterMeter:MC0203J22010600005","2024-12-06T18:00:00",16.1,34.62874,0.275],
    [40306,"urn:WaterMeter:MC0203J22010600005","2024-12-06T18:15:00",16,34.617527,0.273],
    [40307,"urn:WaterMeter:MC0203J22010600005","2024-12-06T18:30:00",16,34.66136,0.272],
    [40308,"urn:WaterMeter:MC0203J22010600005","2024-12-06T18:45:00",15.899,34.597355,0.27],
    [40309,"urn:WaterMeter:MC0203J22010600005","2024-12-06T19:00:00",15.899,34.602787,0.268],
    [40310,"urn:WaterMeter:MC0203J22010600005","2024-12-06T19:15:00",15.8,34.63692,0.27],
    [40311,"urn:WaterMeter:MC0203J22010600005","2024-12-06T19:30:00",15.8,34.61171,0.265],
    [40312,"urn:WaterMeter:MC0203J22010600005","2024-12-06T19:45:00",15.8,34.569,0.281],
    [40313,"urn:WaterMeter:MC0203J22010600005","2024-12-06T20:00:00",15.699,34.577187,0.267],
    [40314,"urn:WaterMeter:MC0203J22010600005","2024-12-06T20:15:00",15.699,34.518612,0.271],
    [40315,"urn:WaterMeter:MC0203J22010600005","2024-12-06T20:30:00",15.6,34.511593,0.27],
    [40316,"urn:WaterMeter:MC0203J22010600005","2024-12-06T20:45:00",15.5,34.5062,0.273],
    [40317,"urn:WaterMeter:MC0203J22010600005","2024-12-06T21:00:00",15.5,34.554688,0.261],
    [40318,"urn:WaterMeter:MC0203J22010600005","2024-12-06T21:15:00",15.5,34.534904,0.271],
    [40319,"urn:WaterMeter:MC0203J22010600005","2024-12-06T21:30:00",15.399,34.54146,0.282],
    [40320,"urn:WaterMeter:MC0203J22010600005","2024-12-06T21:45:00",15.399,34.522842,0.289],
    [40321,"urn:WaterMeter:MC0203J22010600005","2024-12-06T22:00:00",15.399,34.486416,0.26],
    [40322,"urn:WaterMeter:MC0203J22010600005","2024-12-06T22:15:00",15.399,34.494564,0.264],
    [40323,"urn:WaterMeter:MC0203J22010600005","2024-12-06T22:30:00",15.399,34.51939,0.292],
    [40324,"urn:WaterMeter:MC0203J22010600005","2024-12-06T22:45:00",15.3,34.47672,0.263],
    [40325,"urn:WaterMeter:MC0203J22010600005","2024-12-06T23:00:00",15.3,34.459652,0.264],
    [40326,"urn:WaterMeter:MC0203J22010600005","2024-12-06T23:15:00",15.199,34.494175,0.274],
    [40327,"urn:WaterMeter:MC0203J22010600005","2024-12-06T23:30:00",15.199,34.46198,0.266],
    [40328,"urn:WaterMeter:MC0203J22010600005","2024-12-06T23:45:00",15.1,34.442196,0.268],
    [40329,"urn:WaterMeter:MC0203J22010600005","2024-12-07T00:00:00",15.1,34.455772,0.267],
    [40330,"urn:WaterMeter:MC0203J22010600005","2024-12-07T00:15:00",15,34.39367,0.282],
    [40331,"urn:WaterMeter:MC0203J22010600005","2024-12-07T00:30:00",15,34.403408,0.272],
    [40332,"urn:WaterMeter:MC0203J22010600005","2024-12-07T00:45:00",14.899,34.411163,0.273],
    [40333,"urn:WaterMeter:MC0203J22010600005","2024-12-07T01:00:00",14.8,34.41776,0.271],
    [40334,"urn:WaterMeter:MC0203J22010600005","2024-12-07T01:15:00",14.8,34.37005,0.282],
    [40335,"urn:WaterMeter:MC0203J22010600005","2024-12-07T01:30:00",14.699,34.35414,0.268],
    [40336,"urn:WaterMeter:MC0203J22010600005","2024-12-07T01:45:00",14.6,34.38828,0.279],
    [40337,"urn:WaterMeter:MC0203J22010600005","2024-12-07T02:00:00",14.5,34.39177,0.266],
    [40338,"urn:WaterMeter:MC0203J22010600005","2024-12-07T02:15:00",14.399,34.359184,0.278],
    [40339,"urn:WaterMeter:MC0203J22010600005","2024-12-07T02:30:00",14.3,34.366516,0.258],
    [40340,"urn:WaterMeter:MC0203J22010600005","2024-12-07T02:45:00",14.3,34.371212,0.279],
    [40341,"urn:WaterMeter:MC0203J22010600005","2024-12-07T03:00:00",14.199,34.315353,0.262],
    [40342,"urn:WaterMeter:MC0203J22010600005","2024-12-07T03:15:00",14.199,34.341343,0.271],
    [40343,"urn:WaterMeter:MC0203J22010600005","2024-12-07T03:30:00",14.1,34.412327,0.271],
    [40344,"urn:WaterMeter:MC0203J22010600005","2024-12-07T03:45:00",14,34.37699,0.276],
    [40345,"urn:WaterMeter:MC0203J22010600005","2024-12-07T04:00:00",13.899,34.331646,0.275],
    [40346,"urn:WaterMeter:MC0203J22010600005","2024-12-07T04:15:00",13.899,34.348286,0.276],
    [40347,"urn:WaterMeter:MC0203J22010600005","2024-12-07T04:30:00",13.8,34.318806,0.273],
    [40348,"urn:WaterMeter:MC0203J22010600005","2024-12-07T04:45:00",13.8,34.335484,0.275],
    [40349,"urn:WaterMeter:MC0203J22010600005","2024-12-07T05:00:00",13.699,34.326603,0.272],
    [40350,"urn:WaterMeter:MC0203J22010600005","2024-12-07T05:15:00",13.6,34.3351,0.281],
    [40351,"urn:WaterMeter:MC0203J22010600005","2024-12-07T05:30:00",13.5,34.32505,0.276],
    [40352,"urn:WaterMeter:MC0203J22010600005","2024-12-07T05:45:00",13.5,34.31419,0.265],
    [40353,"urn:WaterMeter:MC0203J22010600005","2024-12-07T06:00:00",13.399,34.29786,0.267],
    [40354,"urn:WaterMeter:MC0203J22010600005","2024-12-07T06:15:00",13.3,34.35143,0.268],
    [40355,"urn:WaterMeter:MC0203J22010600005","2024-12-07T06:30:00",13.3,34.335873,0.263],
    [40356,"urn:WaterMeter:MC0203J22010600005","2024-12-07T06:45:00",13.199,34.37005,0.281],
    [40357,"urn:WaterMeter:MC0203J22010600005","2024-12-07T07:00:00",13.199,34.311474,0.269],
    [40358,"urn:WaterMeter:MC0203J22010600005","2024-12-07T07:15:00",13.199,34.297085,0.267],
    [40359,"urn:WaterMeter:MC0203J22010600005","2024-12-07T07:30:00",13.199,34.268806,0.258],
    [40360,"urn:WaterMeter:MC0203J22010600005","2024-12-07T07:45:00",13.199,34.272686,0.265],
    [40361,"urn:WaterMeter:MC0203J22010600005","2024-12-07T08:00:00",13.199,34.311085,0.266],
    [40362,"urn:WaterMeter:MC0203J22010600005","2024-12-07T08:15:00",13.1,34.252903,0.256],
    [40363,"urn:WaterMeter:MC0203J22010600005","2024-12-07T08:30:00",13.199,34.289715,0.266],
    [40364,"urn:WaterMeter:MC0203J22010600005","2024-12-07T08:45:00",13.3,34.2657,0.258],
    [40365,"urn:WaterMeter:MC0203J22010600005","2024-12-07T09:00:00",13.5,34.24398,0.271],
    [40366,"urn:WaterMeter:MC0203J22010600005","2024-12-07T09:15:00",13.899,34.286648,0.269],
    [40367,"urn:WaterMeter:MC0203J22010600005","2024-12-07T09:30:00",14.3,34.215275,0.266],
    [40368,"urn:WaterMeter:MC0203J22010600005","2024-12-07T09:45:00",14.6,34.17532,0.26],
    [40369,"urn:WaterMeter:MC0203J22010600005","2024-12-07T10:00:00",14.899,34.098904,0.269],
    [40370,"urn:WaterMeter:MC0203J22010600005","2024-12-07T10:15:00",15.1,34.064342,0.26],
    [40371,"urn:WaterMeter:MC0203J22010600005","2024-12-07T10:30:00",15.3,34.06128,0.275],
    [40372,"urn:WaterMeter:MC0203J22010600005","2024-12-07T10:45:00",15.5,33.954605,0.258],
    [40373,"urn:WaterMeter:MC0203J22010600005","2024-12-07T11:00:00",15.6,33.98948,0.256],
    [40374,"urn:WaterMeter:MC0203J22010600005","2024-12-07T11:15:00",15.699,33.8894,0.254],
    [40375,"urn:WaterMeter:MC0203J22010600005","2024-12-07T11:30:00",15.8,33.869267,0.275],
    [40376,"urn:WaterMeter:MC0203J22010600005","2024-12-07T11:45:00",15.8,33.82462,0.267],
    [40377,"urn:WaterMeter:MC0203J22010600005","2024-12-07T12:00:00",15.899,33.783154,0.267],
    [40378,"urn:WaterMeter:MC0203J22010600005","2024-12-07T12:15:00",16,33.795956,0.269],
    [40379,"urn:WaterMeter:MC0203J22010600005","2024-12-07T12:30:00",16.2,33.768024,0.269],
    [40380,"urn:WaterMeter:MC0203J22010600005","2024-12-07T12:45:00",16.2,33.673767,0.249],
    [40381,"urn:WaterMeter:MC0203J22010600005","2024-12-07T13:00:00",16.2,33.67299,0.262],
    [40382,"urn:WaterMeter:MC0203J22010600005","2024-12-07T13:15:00",16.299,33.58649,0.256],
    [40383,"urn:WaterMeter:MC0203J22010600005","2024-12-07T13:30:00",16.299,33.627605,0.264],
    [40384,"urn:WaterMeter:MC0203J22010600005","2024-12-07T13:45:00",16.299,33.602005,0.254],
    [40385,"urn:WaterMeter:MC0203J22010600005","2024-12-07T14:00:00",16.299,33.505806,0.248],
    [40386,"urn:WaterMeter:MC0203J22010600005","2024-12-07T14:15:00",16.399,33.527916,0.246],
    [40387,"urn:WaterMeter:MC0203J22010600005","2024-12-07T14:30:00",16.399,33.460808,0.257],
    [40388,"urn:WaterMeter:MC0203J22010600005","2024-12-07T14:45:00",16.5,33.409218,0.245],
    [40389,"urn:WaterMeter:MC0203J22010600005","2024-12-07T15:00:00",16.5,33.38905,0.254],
    [40390,"urn:WaterMeter:MC0203J22010600005","2024-12-07T15:15:00",16.5,33.373142,0.26],
    [40391,"urn:WaterMeter:MC0203J22010600005","2024-12-07T15:30:00",16.6,33.30755,0.264],
    [40392,"urn:WaterMeter:MC0203J22010600005","2024-12-07T15:45:00",16.5,33.319187,0.266],
    [40393,"urn:WaterMeter:MC0203J22010600005","2024-12-07T16:00:00",16.5,33.29246,0.248],
    [40394,"urn:WaterMeter:MC0203J22010600005","2024-12-07T16:15:00",16.5,33.224968,0.254],
    [40395,"urn:WaterMeter:MC0203J22010600005","2024-12-07T16:30:00",16.399,33.208286,0.278],
    [40396,"urn:WaterMeter:MC0203J22010600005","2024-12-07T16:45:00",16.299,33.27229,0.244],
    [40397,"urn:WaterMeter:MC0203J22010600005","2024-12-07T17:00:00",16.2,33.20208,0.264],
    [40398,"urn:WaterMeter:MC0203J22010600005","2024-12-07T17:15:00",16,33.240093,0.258],
    [40399,"urn:WaterMeter:MC0203J22010600005","2024-12-07T17:30:00",15.899,33.190445,0.259],
    [40400,"urn:WaterMeter:MC0203J22010600005","2024-12-07T17:45:00",15.8,33.19471,0.253],
    [40401,"urn:WaterMeter:MC0203J22010600005","2024-12-07T18:00:00",15.699,33.186176,0.231],
    [40402,"urn:WaterMeter:MC0203J22010600005","2024-12-07T18:15:00",15.6,33.208675,0.249],
    [40403,"urn:WaterMeter:MC0203J22010600005","2024-12-07T18:30:00",15.5,33.212902,0.249],
    [40404,"urn:WaterMeter:MC0203J22010600005","2024-12-07T18:45:00",15.399,33.159023,0.25],
    [40405,"urn:WaterMeter:MC0203J22010600005","2024-12-07T19:00:00",15.3,33.19859,0.254],
    [40406,"urn:WaterMeter:MC0203J22010600005","2024-12-07T19:15:00",15.199,33.16096,0.249],
    [40407,"urn:WaterMeter:MC0203J22010600005","2024-12-07T19:30:00",15.1,33.203594,0.258],
    [40408,"urn:WaterMeter:MC0203J22010600005","2024-12-07T19:45:00",15,33.231133,0.269],
    [40409,"urn:WaterMeter:MC0203J22010600005","2024-12-07T20:00:00",14.899,33.194283,0.261],
    [40410,"urn:WaterMeter:MC0203J22010600005","2024-12-07T20:15:00",14.8,33.178032,0.258],
    [40411,"urn:WaterMeter:MC0203J22010600005","2024-12-07T20:30:00",14.699,33.190445,0.276],
    [40412,"urn:WaterMeter:MC0203J22010600005","2024-12-07T20:45:00",14.5,33.17687,0.259],
    [40413,"urn:WaterMeter:MC0203J22010600005","2024-12-07T21:00:00",14.399,33.1276,0.248],
    [40414,"urn:WaterMeter:MC0203J22010600005","2024-12-07T21:15:00",14.3,33.20596,0.251],
    [40415,"urn:WaterMeter:MC0203J22010600005","2024-12-07T21:30:00",14.199,33.173725,0.258],
    [40416,"urn:WaterMeter:MC0203J22010600005","2024-12-07T21:45:00",14.1,33.210186,0.248],
    [40417,"urn:WaterMeter:MC0203J22010600005","2024-12-07T22:00:00",14.1,33.16872,0.25],
    [40418,"urn:WaterMeter:MC0203J22010600005","2024-12-07T22:15:00",14.1,33.19273,0.264],
    [40419,"urn:WaterMeter:MC0203J22010600005","2024-12-07T22:30:00",14.1,33.21876,0.26],
    [40420,"urn:WaterMeter:MC0203J22010600005","2024-12-07T22:45:00",14.1,33.19898,0.264],
    [40421,"urn:WaterMeter:MC0203J22010600005","2024-12-07T23:00:00",14,33.1501,0.246],
    [40422,"urn:WaterMeter:MC0203J22010600005","2024-12-07T23:15:00",14,33.185787,0.255],
    [40423,"urn:WaterMeter:MC0203J22010600005","2024-12-07T23:30:00",13.899,33.185787,0.258],
    [40424,"urn:WaterMeter:MC0203J22010600005","2024-12-07T23:45:00",13.8,33.166393,0.252],
    [40425,"urn:WaterMeter:MC0203J22010600005","2024-12-08T00:00:00",13.8,33.17489,0.256],
    [40426,"urn:WaterMeter:MC0203J22010600005","2024-12-08T00:15:00",13.699,33.173725,0.252],
    [40427,"urn:WaterMeter:MC0203J22010600005","2024-12-08T00:30:00",13.6,33.147774,0.25],
    [40428,"urn:WaterMeter:MC0203J22010600005","2024-12-08T00:45:00",13.6,33.137688,0.255],
    [40429,"urn:WaterMeter:MC0203J22010600005","2024-12-08T01:00:00",13.5,33.163292,0.257],
    [40430,"urn:WaterMeter:MC0203J22010600005","2024-12-08T01:15:00",13.399,33.12838,0.253],
    [40431,"urn:WaterMeter:MC0203J22010600005","2024-12-08T01:30:00",13.3,33.11554,0.245],
    [40432,"urn:WaterMeter:MC0203J22010600005","2024-12-08T01:45:00",13.3,33.192345,0.253],
    [40433,"urn:WaterMeter:MC0203J22010600005","2024-12-08T02:00:00",13.199,33.163292,0.253],
    [40434,"urn:WaterMeter:MC0203J22010600005","2024-12-08T02:15:00",13.1,33.188892,0.253],
    [40435,"urn:WaterMeter:MC0203J22010600005","2024-12-08T02:30:00",13,33.160187,0.26],
    [40436,"urn:WaterMeter:MC0203J22010600005","2024-12-08T02:45:00",12.899,33.185787,0.244],
    [40437,"urn:WaterMeter:MC0203J22010600005","2024-12-08T03:00:00",12.899,33.183422,0.243],
    [40438,"urn:WaterMeter:MC0203J22010600005","2024-12-08T03:15:00",12.8,33.085323,0.259],
    [40439,"urn:WaterMeter:MC0203J22010600005","2024-12-08T03:30:00",12.8,33.117905,0.251],
    [40440,"urn:WaterMeter:MC0203J22010600005","2024-12-08T03:45:00",12.699,33.118683,0.258],
    [40441,"urn:WaterMeter:MC0203J22010600005","2024-12-08T04:00:00",12.6,33.076363,0.249],
    [40442,"urn:WaterMeter:MC0203J22010600005","2024-12-08T04:15:00",12.6,33.103943,0.253],
    [40443,"urn:WaterMeter:MC0203J22010600005","2024-12-08T04:30:00",12.5,33.082996,0.255],
    [40444,"urn:WaterMeter:MC0203J22010600005","2024-12-08T04:45:00",12.399,33.12838,0.245],
    [40445,"urn:WaterMeter:MC0203J22010600005","2024-12-08T05:00:00",12.3,33.12023,0.244],
    [40446,"urn:WaterMeter:MC0203J22010600005","2024-12-08T05:15:00",12.199,33.08377,0.249],
    [40447,"urn:WaterMeter:MC0203J22010600005","2024-12-08T05:30:00",12.1,33.066315,0.251],
    [40448,"urn:WaterMeter:MC0203J22010600005","2024-12-08T05:45:00",12.1,33.122562,0.248],
    [40449,"urn:WaterMeter:MC0203J22010600005","2024-12-08T06:00:00",12,33.088814,0.254],
    [40450,"urn:WaterMeter:MC0203J22010600005","2024-12-08T06:15:00",11.899,33.1117,0.247],
    [40451,"urn:WaterMeter:MC0203J22010600005","2024-12-08T06:30:00",11.899,33.0989,0.251],
    [40452,"urn:WaterMeter:MC0203J22010600005","2024-12-08T06:45:00",11.8,33.04843,0.248],
    [40453,"urn:WaterMeter:MC0203J22010600005","2024-12-08T07:00:00",11.699,33.02442,0.252],
    [40454,"urn:WaterMeter:MC0203J22010600005","2024-12-08T07:15:00",11.699,33.084545,0.244],
    [40455,"urn:WaterMeter:MC0203J22010600005","2024-12-08T07:30:00",11.6,33.064377,0.241],
    [40456,"urn:WaterMeter:MC0203J22010600005","2024-12-08T07:45:00",11.5,33.0752,0.246],
    [40457,"urn:WaterMeter:MC0203J22010600005","2024-12-08T08:00:00",11.399,33.075974,0.24],
    [40458,"urn:WaterMeter:MC0203J22010600005","2024-12-08T08:15:00",11.399,33.08606,0.26],
    [40459,"urn:WaterMeter:MC0203J22010600005","2024-12-08T08:30:00",11.399,33.10278,0.263],
    [40460,"urn:WaterMeter:MC0203J22010600005","2024-12-08T08:45:00",11.399,33.07442,0.246],
    [40461,"urn:WaterMeter:MC0203J22010600005","2024-12-08T09:00:00",11.6,33.04304,0.243],
    [40462,"urn:WaterMeter:MC0203J22010600005","2024-12-08T09:15:00",11.899,33.041103,0.245],
    [40463,"urn:WaterMeter:MC0203J22010600005","2024-12-08T09:30:00",12.199,33.041103,0.24],
    [40464,"urn:WaterMeter:MC0203J22010600005","2024-12-08T09:45:00",12.5,32.912666,0.253],
    [40465,"urn:WaterMeter:MC0203J22010600005","2024-12-08T10:00:00",12.699,32.932877,0.239],
    [40466,"urn:WaterMeter:MC0203J22010600005","2024-12-08T10:15:00",12.8,32.937145,0.242],
    [40467,"urn:WaterMeter:MC0203J22010600005","2024-12-08T10:30:00",12.899,32.885555,0.236],
    [40468,"urn:WaterMeter:MC0203J22010600005","2024-12-08T10:45:00",12.899,32.805607,0.245],
    [40469,"urn:WaterMeter:MC0203J22010600005","2024-12-08T11:00:00",13,32.787804,0.25],
    [40470,"urn:WaterMeter:MC0203J22010600005","2024-12-08T11:15:00",13.1,32.737724,0.249],
    [40471,"urn:WaterMeter:MC0203J22010600005","2024-12-08T11:30:00",13.199,32.711773,0.24],
    [40472,"urn:WaterMeter:MC0203J22010600005","2024-12-08T11:45:00",13.199,32.738926,0.246],
    [40473,"urn:WaterMeter:MC0203J22010600005","2024-12-08T12:00:00",13.199,32.65165,0.242],
    [40474,"urn:WaterMeter:MC0203J22010600005","2024-12-08T12:15:00",13.3,32.61907,0.243],
    [40475,"urn:WaterMeter:MC0203J22010600005","2024-12-08T12:30:00",13.3,32.55425,0.252],
    [40476,"urn:WaterMeter:MC0203J22010600005","2024-12-08T12:45:00",13.3,32.534077,0.239],
    [40477,"urn:WaterMeter:MC0203J22010600005","2024-12-08T13:00:00",13.3,32.521317,0.239],
    [40478,"urn:WaterMeter:MC0203J22010600005","2024-12-08T13:15:00",13.3,32.490284,0.244],
    [40479,"urn:WaterMeter:MC0203J22010600005","2024-12-08T13:30:00",13.3,32.46507,0.243],
    [40480,"urn:WaterMeter:MC0203J22010600005","2024-12-08T13:45:00",13.3,32.44719,0.241],
    [40481,"urn:WaterMeter:MC0203J22010600005","2024-12-08T14:00:00",13.399,32.4224,0.241],
    [40482,"urn:WaterMeter:MC0203J22010600005","2024-12-08T14:15:00",13.3,32.414642,0.254],
    [40483,"urn:WaterMeter:MC0203J22010600005","2024-12-08T14:30:00",13.3,32.40262,0.237],
    [40484,"urn:WaterMeter:MC0203J22010600005","2024-12-08T14:45:00",13.199,32.35452,0.253],
    [40485,"urn:WaterMeter:MC0203J22010600005","2024-12-08T15:00:00",13.199,32.340126,0.252],
    [40486,"urn:WaterMeter:MC0203J22010600005","2024-12-08T15:15:00",13.1,32.327755,0.216],
    [40487,"urn:WaterMeter:MC0203J22010600005","2024-12-08T15:30:00",13.1,32.31918,0.238],
    [40488,"urn:WaterMeter:MC0203J22010600005","2024-12-08T15:45:00",13,32.304092,0.235],
    [40489,"urn:WaterMeter:MC0203J22010600005","2024-12-08T16:00:00",12.899,32.281166,0.247],
    [40490,"urn:WaterMeter:MC0203J22010600005","2024-12-08T16:15:00",12.899,32.218365,0.242],
    [40491,"urn:WaterMeter:MC0203J22010600005","2024-12-08T16:30:00",12.8,32.224533,0.234],
    [40492,"urn:WaterMeter:MC0203J22010600005","2024-12-08T16:45:00",12.699,32.25483,0.243],
    [40493,"urn:WaterMeter:MC0203J22010600005","2024-12-08T17:00:00",12.5,32.216038,0.234],
    [40494,"urn:WaterMeter:MC0203J22010600005","2024-12-08T17:15:00",12.399,32.199745,0.245],
    [40495,"urn:WaterMeter:MC0203J22010600005","2024-12-08T17:30:00",12.399,32.227287,0.239],
    [40496,"urn:WaterMeter:MC0203J22010600005","2024-12-08T17:45:00",12.3,32.17488,0.239],
    [40497,"urn:WaterMeter:MC0203J22010600005","2024-12-08T18:00:00",12.199,32.189663,0.245],
    [40498,"urn:WaterMeter:MC0203J22010600005","2024-12-08T18:15:00",12.1,32.20983,0.235],
    [40499,"urn:WaterMeter:MC0203J22010600005","2024-12-08T18:30:00",12,32.176044,0.236],
    [40500,"urn:WaterMeter:MC0203J22010600005","2024-12-08T18:45:00",11.899,32.187332,0.23],
    [40501,"urn:WaterMeter:MC0203J22010600005","2024-12-08T19:00:00",11.899,32.178024,0.234],
    [40502,"urn:WaterMeter:MC0203J22010600005","2024-12-08T19:15:00",11.8,32.170265,0.229],
    [40503,"urn:WaterMeter:MC0203J22010600005","2024-12-08T19:30:00",11.699,32.140785,0.239],
    [40504,"urn:WaterMeter:MC0203J22010600005","2024-12-08T19:45:00",11.699,32.122166,0.243],
    [40505,"urn:WaterMeter:MC0203J22010600005","2024-12-08T20:00:00",11.6,32.133804,0.242],
    [40506,"urn:WaterMeter:MC0203J22010600005","2024-12-08T20:15:00",11.6,32.165184,0.245],
    [40507,"urn:WaterMeter:MC0203J22010600005","2024-12-08T20:30:00",11.5,32.159016,0.231],
    [40508,"urn:WaterMeter:MC0203J22010600005","2024-12-08T20:45:00",11.399,32.11014,0.244],
    [40509,"urn:WaterMeter:MC0203J22010600005","2024-12-08T21:00:00",11.399,32.14738,0.243],
    [40510,"urn:WaterMeter:MC0203J22010600005","2024-12-08T21:15:00",11.3,32.12756,0.242],
    [40511,"urn:WaterMeter:MC0203J22010600005","2024-12-08T21:30:00",11.3,32.12372,0.233],
    [40512,"urn:WaterMeter:MC0203J22010600005","2024-12-08T21:45:00",11.199,32.14738,0.247],
    [40513,"urn:WaterMeter:MC0203J22010600005","2024-12-08T22:00:00",11.199,32.136093,0.233],
    [40514,"urn:WaterMeter:MC0203J22010600005","2024-12-08T22:15:00",11.1,32.11945,0.243],
    [40515,"urn:WaterMeter:MC0203J22010600005","2024-12-08T22:30:00",11,32.07174,0.23],
    [40516,"urn:WaterMeter:MC0203J22010600005","2024-12-08T22:45:00",11,32.07907,0.237],
    [40517,"urn:WaterMeter:MC0203J22010600005","2024-12-08T23:00:00",10.899,32.122166,0.235],
    [40518,"urn:WaterMeter:MC0203J22010600005","2024-12-08T23:15:00",10.8,32.091522,0.236],
    [40519,"urn:WaterMeter:MC0203J22010600005","2024-12-08T23:30:00",10.8,32.08997,0.246],
    [40520,"urn:WaterMeter:MC0203J22010600005","2024-12-08T23:45:00",10.699,32.106613,0.247],
    [40521,"urn:WaterMeter:MC0203J22010600005","2024-12-09T00:00:00",10.699,32.0973,0.236],
    [40522,"urn:WaterMeter:MC0203J22010600005","2024-12-09T00:15:00",10.6,32.041096,0.251],
    [40523,"urn:WaterMeter:MC0203J22010600005","2024-12-09T00:30:00",10.6,32.065144,0.239],
    [40524,"urn:WaterMeter:MC0203J22010600005","2024-12-09T00:45:00",10.5,32.078682,0.237],
    [40525,"urn:WaterMeter:MC0203J22010600005","2024-12-09T01:00:00",10.5,32.087605,0.236],
    [40526,"urn:WaterMeter:MC0203J22010600005","2024-12-09T01:15:00",10.399,32.08105,0.246],
    [40527,"urn:WaterMeter:MC0203J22010600005","2024-12-09T01:30:00",10.399,32.087215,0.238],
    [40528,"urn:WaterMeter:MC0203J22010600005","2024-12-09T01:45:00",10.3,32.061268,0.239],
    [40529,"urn:WaterMeter:MC0203J22010600005","2024-12-09T02:00:00",10.3,32.087994,0.238],
    [40530,"urn:WaterMeter:MC0203J22010600005","2024-12-09T02:15:00",10.199,32.046875,0.244],
    [40531,"urn:WaterMeter:MC0203J22010600005","2024-12-09T02:30:00",10.199,32.07174,0.238],
    [40532,"urn:WaterMeter:MC0203J22010600005","2024-12-09T02:45:00",10.1,32.083378,0.236],
    [40533,"urn:WaterMeter:MC0203J22010600005","2024-12-09T03:00:00",10.1,32.085278,0.235],
    [40534,"urn:WaterMeter:MC0203J22010600005","2024-12-09T03:15:00",10,32.08683,0.235],
    [40535,"urn:WaterMeter:MC0203J22010600005","2024-12-09T03:30:00",10,32.076008,0.232],
    [40536,"urn:WaterMeter:MC0203J22010600005","2024-12-09T03:45:00",10,32.07368,0.235],
    [40537,"urn:WaterMeter:MC0203J22010600005","2024-12-09T04:00:00",9.899,32.04959,0.243],
    [40538,"urn:WaterMeter:MC0203J22010600005","2024-12-09T04:15:00",9.899,32.04187,0.234],
    [40539,"urn:WaterMeter:MC0203J22010600005","2024-12-09T04:30:00",9.8,32.025192,0.238],
    [40540,"urn:WaterMeter:MC0203J22010600005","2024-12-09T04:45:00",9.8,32.020496,0.231],
    [40541,"urn:WaterMeter:MC0203J22010600005","2024-12-09T05:00:00",9.8,31.923136,0.232],
    [40542,"urn:WaterMeter:MC0203J22010600005","2024-12-09T05:15:00",9.8,31.930506,0.233],
    [40543,"urn:WaterMeter:MC0203J22010600005","2024-12-09T05:30:00",9.899,31.919683,0.247],
    [40544,"urn:WaterMeter:MC0203J22010600005","2024-12-09T05:45:00",10,31.928217,0.225],
    [40545,"urn:WaterMeter:MC0203J22010600005","2024-12-09T06:00:00",10.1,32.003857,0.229],
    [40546,"urn:WaterMeter:MC0203J22010600005","2024-12-09T06:15:00",10.1,32.55972,0.247],
    [40547,"urn:WaterMeter:MC0203J22010600005","2024-12-09T06:30:00",10.1,33.62912,0.248],
    [40548,"urn:WaterMeter:MC0203J22010600005","2024-12-09T06:45:00",10.1,34.71295,0.265],
    [40549,"urn:WaterMeter:MC0203J22010600005","2024-12-09T07:00:00",10.199,35.447247,0.284],
    [40550,"urn:WaterMeter:MC0203J22010600005","2024-12-09T07:15:00",10.199,36.02246,0.271],
    [40551,"urn:WaterMeter:MC0203J22010600005","2024-12-09T07:30:00",10.199,36.3739,0.297],
    [40552,"urn:WaterMeter:MC0203J22010600005","2024-12-09T07:45:00",10.199,36.557766,0.288],
    [40553,"urn:WaterMeter:MC0203J22010600005","2024-12-09T08:00:00",10.199,36.670296,0.296],
    [40554,"urn:WaterMeter:MC0203J22010600005","2024-12-09T08:15:00",10.199,36.47363,0.293],
    [40555,"urn:WaterMeter:MC0203J22010600005","2024-12-09T08:30:00",10.1,36.263386,0.28],
    [40556,"urn:WaterMeter:MC0203J22010600005","2024-12-09T08:45:00",10.1,36.082973,0.279],
    [40557,"urn:WaterMeter:MC0203J22010600005","2024-12-09T09:00:00",10.199,36.024014,0.285],
    [40558,"urn:WaterMeter:MC0203J22010600005","2024-12-09T09:15:00",10.399,35.94143,0.272],
    [40559,"urn:WaterMeter:MC0203J22010600005","2024-12-09T09:30:00",10.6,35.855316,0.271],
    [40560,"urn:WaterMeter:MC0203J22010600005","2024-12-09T09:45:00",10.8,35.76804,0.282],
    [40561,"urn:WaterMeter:MC0203J22010600005","2024-12-09T10:00:00",11,35.624126,0.275],
    [40562,"urn:WaterMeter:MC0203J22010600005","2024-12-09T10:15:00",11.199,35.646587,0.272],
    [40563,"urn:WaterMeter:MC0203J22010600005","2024-12-09T10:30:00",11.3,35.580296,0.263],
    [40564,"urn:WaterMeter:MC0203J22010600005","2024-12-09T10:45:00",11.399,35.52013,0.273],
    [40565,"urn:WaterMeter:MC0203J22010600005","2024-12-09T11:00:00",11.5,35.393326,0.265],
    [40566,"urn:WaterMeter:MC0203J22010600005","2024-12-09T11:15:00",11.5,35.341736,0.268],
    [40567,"urn:WaterMeter:MC0203J22010600005","2024-12-09T11:30:00",11.6,35.3448,0.266],
    [40568,"urn:WaterMeter:MC0203J22010600005","2024-12-09T11:45:00",11.699,35.300617,0.273],
    [40569,"urn:WaterMeter:MC0203J22010600005","2024-12-09T12:00:00",11.699,35.3204,0.262],
    [40570,"urn:WaterMeter:MC0203J22010600005","2024-12-09T12:15:00",11.8,35.29519,0.266],
    [40571,"urn:WaterMeter:MC0203J22010600005","2024-12-09T12:30:00",11.899,35.210587,0.264],
    [40572,"urn:WaterMeter:MC0203J22010600005","2024-12-09T12:45:00",11.899,35.13029,0.27],
    [40573,"urn:WaterMeter:MC0203J22010600005","2024-12-09T13:00:00",11.8,34.961594,0.259],
    [40574,"urn:WaterMeter:MC0203J22010600005","2024-12-09T13:15:00",11.899,34.924744,0.258],
    [40575,"urn:WaterMeter:MC0203J22010600005","2024-12-09T13:30:00",11.899,34.93867,0.269],
    [40576,"urn:WaterMeter:MC0203J22010600005","2024-12-09T13:45:00",11.8,34.873154,0.258],
    [40577,"urn:WaterMeter:MC0203J22010600005","2024-12-09T14:00:00",11.8,34.857635,0.272],
    [40578,"urn:WaterMeter:MC0203J22010600005","2024-12-09T14:15:00",11.8,34.812214,0.272],
    [40579,"urn:WaterMeter:MC0203J22010600005","2024-12-09T14:30:00",11.8,34.786263,0.251],
    [40580,"urn:WaterMeter:MC0203J22010600005","2024-12-09T14:45:00",11.8,34.768806,0.261],
    [40581,"urn:WaterMeter:MC0203J22010600005","2024-12-09T15:00:00",11.8,34.721096,0.274],
    [40582,"urn:WaterMeter:MC0203J22010600005","2024-12-09T15:15:00",11.699,34.706318,0.268],
    [40583,"urn:WaterMeter:MC0203J22010600005","2024-12-09T15:30:00",11.699,34.77381,0.258],
    [40584,"urn:WaterMeter:MC0203J22010600005","2024-12-09T15:45:00",11.699,34.716404,0.264],
    [40585,"urn:WaterMeter:MC0203J22010600005","2024-12-09T16:00:00",11.6,34.666363,0.251],
    [40586,"urn:WaterMeter:MC0203J22010600005","2024-12-09T16:15:00",11.6,34.671833,0.266],
    [40587,"urn:WaterMeter:MC0203J22010600005","2024-12-09T16:30:00",11.5,34.669895,0.266],
    [40588,"urn:WaterMeter:MC0203J22010600005","2024-12-09T16:45:00",11.399,34.68576,0.261],
    [40589,"urn:WaterMeter:MC0203J22010600005","2024-12-09T17:00:00",11.3,34.634983,0.256],
    [40590,"urn:WaterMeter:MC0203J22010600005","2024-12-09T17:15:00",11.199,34.62874,0.264],
    [40591,"urn:WaterMeter:MC0203J22010600005","2024-12-09T17:30:00",11.199,34.669117,0.272],
    [40592,"urn:WaterMeter:MC0203J22010600005","2024-12-09T17:45:00",11.1,34.570164,0.254],
    [40593,"urn:WaterMeter:MC0203J22010600005","2024-12-09T18:00:00",11,34.57641,0.257],
    [40594,"urn:WaterMeter:MC0203J22010600005","2024-12-09T18:15:00",11,34.59619,0.273],
    [40595,"urn:WaterMeter:MC0203J22010600005","2024-12-09T18:30:00",10.899,34.60934,0.267],
    [40596,"urn:WaterMeter:MC0203J22010600005","2024-12-09T18:45:00",10.8,34.646194,0.253],
    [40597,"urn:WaterMeter:MC0203J22010600005","2024-12-09T19:00:00",10.8,34.608566,0.26],
    [40598,"urn:WaterMeter:MC0203J22010600005","2024-12-09T19:15:00",10.8,34.56283,0.263],
    [40599,"urn:WaterMeter:MC0203J22010600005","2024-12-09T19:30:00",10.699,34.56861,0.257],
    [40600,"urn:WaterMeter:MC0203J22010600005","2024-12-09T19:45:00",10.6,34.60779,0.258],
    [40601,"urn:WaterMeter:MC0203J22010600005","2024-12-09T20:00:00",10.5,34.590725,0.26],
    [40602,"urn:WaterMeter:MC0203J22010600005","2024-12-09T20:15:00",10.399,34.583393,0.263],
    [40603,"urn:WaterMeter:MC0203J22010600005","2024-12-09T20:30:00",10.3,34.571327,0.26],
    [40604,"urn:WaterMeter:MC0203J22010600005","2024-12-09T20:45:00",10.3,34.541073,0.263],
    [40605,"urn:WaterMeter:MC0203J22010600005","2024-12-09T21:00:00",10.199,34.52905,0.257],
    [40606,"urn:WaterMeter:MC0203J22010600005","2024-12-09T21:15:00",10.199,34.55624,0.246],
    [40607,"urn:WaterMeter:MC0203J22010600005","2024-12-09T21:30:00",10.199,34.519,0.271],
    [40608,"urn:WaterMeter:MC0203J22010600005","2024-12-09T21:45:00",10.199,34.545765,0.264],
    [40609,"urn:WaterMeter:MC0203J22010600005","2024-12-09T22:00:00",10.199,34.534515,0.273],
    [40610,"urn:WaterMeter:MC0203J22010600005","2024-12-09T22:15:00",10.199,34.495728,0.258],
    [40611,"urn:WaterMeter:MC0203J22010600005","2024-12-09T22:30:00",10.199,34.53215,0.256],
    [40612,"urn:WaterMeter:MC0203J22010600005","2024-12-09T22:45:00",10.199,34.527924,0.264],
    [40613,"urn:WaterMeter:MC0203J22010600005","2024-12-09T23:00:00",10.199,34.52905,0.25],
    [40614,"urn:WaterMeter:MC0203J22010600005","2024-12-09T23:15:00",10.199,34.51745,0.271],
    [40615,"urn:WaterMeter:MC0203J22010600005","2024-12-09T23:30:00",10.199,34.495728,0.257],
    [40616,"urn:WaterMeter:MC0203J22010600005","2024-12-09T23:45:00",10.199,34.499607,0.256],
    [40617,"urn:WaterMeter:MC0203J22010600005","2024-12-10T00:00:00",10.199,34.497276,0.257],
    [40618,"urn:WaterMeter:MC0203J22010600005","2024-12-10T00:15:00",10.199,34.47866,0.262],
    [40619,"urn:WaterMeter:MC0203J22010600005","2024-12-10T00:30:00",10.199,34.489132,0.263],
    [40620,"urn:WaterMeter:MC0203J22010600005","2024-12-10T00:45:00",10.199,34.47478,0.262],
    [40621,"urn:WaterMeter:MC0203J22010600005","2024-12-10T01:00:00",10.1,34.446075,0.26],
    [40622,"urn:WaterMeter:MC0203J22010600005","2024-12-10T01:15:00",10.1,34.464268,0.258],
    [40623,"urn:WaterMeter:MC0203J22010600005","2024-12-10T01:30:00",10,34.398365,0.27],
    [40624,"urn:WaterMeter:MC0203J22010600005","2024-12-10T01:45:00",10,34.39914,0.26],
    [40625,"urn:WaterMeter:MC0203J22010600005","2024-12-10T02:00:00",10,34.468185,0.259],
    [40626,"urn:WaterMeter:MC0203J22010600005","2024-12-10T02:15:00",9.899,34.420086,0.26],
    [40627,"urn:WaterMeter:MC0203J22010600005","2024-12-10T02:30:00",9.899,34.41931,0.263],
    [40628,"urn:WaterMeter:MC0203J22010600005","2024-12-10T02:45:00",9.8,34.418148,0.26],
    [40629,"urn:WaterMeter:MC0203J22010600005","2024-12-10T03:00:00",9.8,34.439095,0.251],
    [40630,"urn:WaterMeter:MC0203J22010600005","2024-12-10T03:15:00",9.8,34.41737,0.259],
    [40631,"urn:WaterMeter:MC0203J22010600005","2024-12-10T03:30:00",9.699,34.40457,0.264],
    [40632,"urn:WaterMeter:MC0203J22010600005","2024-12-10T03:45:00",9.699,34.405308,0.254],
    [40633,"urn:WaterMeter:MC0203J22010600005","2024-12-10T04:00:00",9.6,34.376213,0.26],
    [40634,"urn:WaterMeter:MC0203J22010600005","2024-12-10T04:15:00",9.6,34.41737,0.259],
    [40635,"urn:WaterMeter:MC0203J22010600005","2024-12-10T04:30:00",9.5,34.4069,0.269],
    [40636,"urn:WaterMeter:MC0203J22010600005","2024-12-10T04:45:00",9.399,34.39561,0.26],
    [40637,"urn:WaterMeter:MC0203J22010600005","2024-12-10T05:00:00",9.399,34.3972,0.252],
    [40638,"urn:WaterMeter:MC0203J22010600005","2024-12-10T05:15:00",9.5,34.39406,0.26],
    [40639,"urn:WaterMeter:MC0203J22010600005","2024-12-10T05:30:00",9.699,34.52676,0.25],
    [40640,"urn:WaterMeter:MC0203J22010600005","2024-12-10T05:45:00",9.699,35.342514,0.27],
    [40641,"urn:WaterMeter:MC0203J22010600005","2024-12-10T06:00:00",9.8,36.07254,0.281],
    [40642,"urn:WaterMeter:MC0203J22010600005","2024-12-10T06:15:00",9.8,36.676113,0.287],
    [40643,"urn:WaterMeter:MC0203J22010600005","2024-12-10T06:30:00",9.8,36.982555,0.276],
    [40644,"urn:WaterMeter:MC0203J22010600005","2024-12-10T06:45:00",9.8,37.216846,0.29],
    [40645,"urn:WaterMeter:MC0203J22010600005","2024-12-10T07:00:00",9.8,37.47441,0.291],
    [40646,"urn:WaterMeter:MC0203J22010600005","2024-12-10T07:15:00",9.8,37.617157,0.3],
    [40647,"urn:WaterMeter:MC0203J22010600005","2024-12-10T07:30:00",9.8,37.74633,0.293],
    [40648,"urn:WaterMeter:MC0203J22010600005","2024-12-10T07:45:00",9.899,37.92356,0.293],
    [40649,"urn:WaterMeter:MC0203J22010600005","2024-12-10T08:00:00",9.899,38.009712,0.285],
    [40650,"urn:WaterMeter:MC0203J22010600005","2024-12-10T08:15:00",9.8,37.87162,0.308],
    [40651,"urn:WaterMeter:MC0203J22010600005","2024-12-10T08:30:00",9.8,37.584576,0.282],
    [40652,"urn:WaterMeter:MC0203J22010600005","2024-12-10T08:45:00",9.8,37.28822,0.281],
    [40653,"urn:WaterMeter:MC0203J22010600005","2024-12-10T09:00:00",9.8,37.143143,0.282],
    [40654,"urn:WaterMeter:MC0203J22010600005","2024-12-10T09:15:00",10,36.875843,0.289],
    [40655,"urn:WaterMeter:MC0203J22010600005","2024-12-10T09:30:00",10.3,36.70016,0.29],
    [40656,"urn:WaterMeter:MC0203J22010600005","2024-12-10T09:45:00",10.6,36.54384,0.267],
    [40657,"urn:WaterMeter:MC0203J22010600005","2024-12-10T10:00:00",10.8,36.457726,0.29],
    [40658,"urn:WaterMeter:MC0203J22010600005","2024-12-10T10:15:00",11,36.39915,0.286],
    [40659,"urn:WaterMeter:MC0203J22010600005","2024-12-10T10:30:00",11.1,36.225372,0.274],
    [40660,"urn:WaterMeter:MC0203J22010600005","2024-12-10T10:45:00",11.3,36.206367,0.276],
    [40661,"urn:WaterMeter:MC0203J22010600005","2024-12-10T11:00:00",11.399,36.088444,0.268],
    [40662,"urn:WaterMeter:MC0203J22010600005","2024-12-10T11:15:00",11.399,35.98406,0.262],
    [40663,"urn:WaterMeter:MC0203J22010600005","2024-12-10T11:30:00",11.5,35.991856,0.268],
    [40664,"urn:WaterMeter:MC0203J22010600005","2024-12-10T11:45:00",11.5,35.927425,0.262],
    [40665,"urn:WaterMeter:MC0203J22010600005","2024-12-10T12:00:00",11.5,35.899887,0.276],
    [40666,"urn:WaterMeter:MC0203J22010600005","2024-12-10T12:15:00",11.5,35.84562,0.261],
    [40667,"urn:WaterMeter:MC0203J22010600005","2024-12-10T12:30:00",11.6,35.809116,0.265],
    [40668,"urn:WaterMeter:MC0203J22010600005","2024-12-10T12:45:00",11.6,35.787434,0.282],
    [40669,"urn:WaterMeter:MC0203J22010600005","2024-12-10T13:00:00",11.6,35.58146,0.259],
    [40670,"urn:WaterMeter:MC0203J22010600005","2024-12-10T13:15:00",11.699,35.60008,0.266],
    [40671,"urn:WaterMeter:MC0203J22010600005","2024-12-10T13:30:00",11.699,35.432117,0.262],
    [40672,"urn:WaterMeter:MC0203J22010600005","2024-12-10T13:45:00",11.699,35.464314,0.261],
    [40673,"urn:WaterMeter:MC0203J22010600005","2024-12-10T14:00:00",11.699,35.445305,0.264],
    [40674,"urn:WaterMeter:MC0203J22010600005","2024-12-10T14:15:00",11.699,35.37238,0.271],
    [40675,"urn:WaterMeter:MC0203J22010600005","2024-12-10T14:30:00",11.6,35.387897,0.269],
    [40676,"urn:WaterMeter:MC0203J22010600005","2024-12-10T14:45:00",11.6,35.35605,0.28],
    [40677,"urn:WaterMeter:MC0203J22010600005","2024-12-10T15:00:00",11.6,35.268772,0.272],
    [40678,"urn:WaterMeter:MC0203J22010600005","2024-12-10T15:15:00",11.6,35.271137,0.264],
    [40679,"urn:WaterMeter:MC0203J22010600005","2024-12-10T15:30:00",11.5,35.23968,0.27],
    [40680,"urn:WaterMeter:MC0203J22010600005","2024-12-10T15:45:00",11.5,35.252132,0.262],
    [40681,"urn:WaterMeter:MC0203J22010600005","2024-12-10T16:00:00",11.399,35.20248,0.288],
    [40682,"urn:WaterMeter:MC0203J22010600005","2024-12-10T16:15:00",11.3,35.204033,0.269],
    [40683,"urn:WaterMeter:MC0203J22010600005","2024-12-10T16:30:00",11.3,35.211365,0.272],
    [40684,"urn:WaterMeter:MC0203J22010600005","2024-12-10T16:45:00",11.199,35.13107,0.261],
    [40685,"urn:WaterMeter:MC0203J22010600005","2024-12-10T17:00:00",11.1,35.12839,0.253],
    [40686,"urn:WaterMeter:MC0203J22010600005","2024-12-10T17:15:00",11,35.1718,0.279],
    [40687,"urn:WaterMeter:MC0203J22010600005","2024-12-10T17:30:00",10.899,35.127617,0.266],
    [40688,"urn:WaterMeter:MC0203J22010600005","2024-12-10T17:45:00",10.8,35.134598,0.264],
    [40689,"urn:WaterMeter:MC0203J22010600005","2024-12-10T18:00:00",10.6,35.110897,0.275],
    [40690,"urn:WaterMeter:MC0203J22010600005","2024-12-10T18:15:00",10.5,35.070595,0.267],
    [40691,"urn:WaterMeter:MC0203J22010600005","2024-12-10T18:30:00",10.399,35.05081,0.266],
    [40692,"urn:WaterMeter:MC0203J22010600005","2024-12-10T18:45:00",10.3,35.040726,0.271],
    [40693,"urn:WaterMeter:MC0203J22010600005","2024-12-10T19:00:00",10.199,35.073273,0.264],
    [40694,"urn:WaterMeter:MC0203J22010600005","2024-12-10T19:15:00",10,35.020554,0.265],
    [40695,"urn:WaterMeter:MC0203J22010600005","2024-12-10T19:30:00",9.899,35.08068,0.274],
    [40696,"urn:WaterMeter:MC0203J22010600005","2024-12-10T19:45:00",9.8,35.083008,0.261],
    [40697,"urn:WaterMeter:MC0203J22010600005","2024-12-10T20:00:00",9.699,35.08068,0.272],
    [40698,"urn:WaterMeter:MC0203J22010600005","2024-12-10T20:15:00",9.6,35.06012,0.27],
    [40699,"urn:WaterMeter:MC0203J22010600005","2024-12-10T20:30:00",9.5,35.03064,0.261],
    [40700,"urn:WaterMeter:MC0203J22010600005","2024-12-10T20:45:00",9.399,35.044952,0.258],
    [40701,"urn:WaterMeter:MC0203J22010600005","2024-12-10T21:00:00",9.3,35.043053,0.264],
    [40702,"urn:WaterMeter:MC0203J22010600005","2024-12-10T21:15:00",9.3,35.031803,0.264],
    [40703,"urn:WaterMeter:MC0203J22010600005","2024-12-10T21:30:00",9.3,35.04228,0.264],
    [40704,"urn:WaterMeter:MC0203J22010600005","2024-12-10T21:45:00",9.199,35.05349,0.269],
    [40705,"urn:WaterMeter:MC0203J22010600005","2024-12-10T22:00:00",9.199,35.020943,0.265],
    [40706,"urn:WaterMeter:MC0203J22010600005","2024-12-10T22:15:00",9.199,35.030254,0.266],
    [40707,"urn:WaterMeter:MC0203J22010600005","2024-12-10T22:30:00",9.199,35.015472,0.24],
    [40708,"urn:WaterMeter:MC0203J22010600005","2024-12-10T22:45:00",9.199,35.002323,0.262],
    [40709,"urn:WaterMeter:MC0203J22010600005","2024-12-10T23:00:00",9.199,35.01241,0.261],
    [40710,"urn:WaterMeter:MC0203J22010600005","2024-12-10T23:15:00",9.1,34.98332,0.262],
    [40711,"urn:WaterMeter:MC0203J22010600005","2024-12-10T23:30:00",9.1,34.98448,0.283],
    [40712,"urn:WaterMeter:MC0203J22010600005","2024-12-10T23:45:00",9.1,34.955,0.266],
    [40713,"urn:WaterMeter:MC0203J22010600005","2024-12-11T00:00:00",9.1,34.942974,0.272],
    [40714,"urn:WaterMeter:MC0203J22010600005","2024-12-11T00:15:00",9.1,34.958065,0.26],
    [40715,"urn:WaterMeter:MC0203J22010600005","2024-12-11T00:30:00",9.1,34.950344,0.263],
    [40716,"urn:WaterMeter:MC0203J22010600005","2024-12-11T00:45:00",9.1,34.935993,0.264],
    [40717,"urn:WaterMeter:MC0203J22010600005","2024-12-11T01:00:00",9.1,34.939056,0.259],
    [40718,"urn:WaterMeter:MC0203J22010600005","2024-12-11T01:15:00",9.1,34.94026,0.259],
    [40719,"urn:WaterMeter:MC0203J22010600005","2024-12-11T01:30:00",9.1,34.92897,0.258],
    [40720,"urn:WaterMeter:MC0203J22010600005","2024-12-11T01:45:00",9.1,34.91194,0.267],
    [40721,"urn:WaterMeter:MC0203J22010600005","2024-12-11T02:00:00",9.1,34.902634,0.257],
    [40722,"urn:WaterMeter:MC0203J22010600005","2024-12-11T02:15:00",9.1,34.90496,0.27],
    [40723,"urn:WaterMeter:MC0203J22010600005","2024-12-11T02:30:00",9,34.878933,0.261],
    [40724,"urn:WaterMeter:MC0203J22010600005","2024-12-11T02:45:00",9,34.874317,0.26],
    [40725,"urn:WaterMeter:MC0203J22010600005","2024-12-11T03:00:00",9,34.89449,0.266],
    [40726,"urn:WaterMeter:MC0203J22010600005","2024-12-11T03:15:00",8.899,34.85686,0.269],
    [40727,"urn:WaterMeter:MC0203J22010600005","2024-12-11T03:30:00",8.899,34.87005,0.267],
    [40728,"urn:WaterMeter:MC0203J22010600005","2024-12-11T03:45:00",8.8,34.860313,0.265],
    [40729,"urn:WaterMeter:MC0203J22010600005","2024-12-11T04:00:00",8.699,34.889446,0.264],
    [40730,"urn:WaterMeter:MC0203J22010600005","2024-12-11T04:15:00",8.6,34.871952,0.269],
    [40731,"urn:WaterMeter:MC0203J22010600005","2024-12-11T04:30:00",8.5,34.80721,0.265],
    [40732,"urn:WaterMeter:MC0203J22010600005","2024-12-11T04:45:00",8.5,34.847164,0.261],
    [40733,"urn:WaterMeter:MC0203J22010600005","2024-12-11T05:00:00",8.5,34.814194,0.261],
    [40734,"urn:WaterMeter:MC0203J22010600005","2024-12-11T05:15:00",8.6,34.866173,0.258],
    [40735,"urn:WaterMeter:MC0203J22010600005","2024-12-11T05:30:00",8.899,35.044605,0.263],
    [40736,"urn:WaterMeter:MC0203J22010600005","2024-12-11T05:45:00",9,35.776184,0.269],
    [40737,"urn:WaterMeter:MC0203J22010600005","2024-12-11T06:00:00",9,36.490658,0.275],
    [40738,"urn:WaterMeter:MC0203J22010600005","2024-12-11T06:15:00",9,36.89993,0.27],
    [40739,"urn:WaterMeter:MC0203J22010600005","2024-12-11T06:30:00",9,37.13461,0.282],
    [40740,"urn:WaterMeter:MC0203J22010600005","2024-12-11T06:45:00",9,37.25637,0.293],
    [40741,"urn:WaterMeter:MC0203J22010600005","2024-12-11T07:00:00",9,37.377823,0.28],
    [40742,"urn:WaterMeter:MC0203J22010600005","2024-12-11T07:15:00",9,37.427086,0.29],
    [40743,"urn:WaterMeter:MC0203J22010600005","2024-12-11T07:30:00",9,37.505054,0.288],
    [40744,"urn:WaterMeter:MC0203J22010600005","2024-12-11T07:45:00",9,37.562466,0.292],
    [40745,"urn:WaterMeter:MC0203J22010600005","2024-12-11T08:00:00",9.1,37.61677,0.305],
    [40746,"urn:WaterMeter:MC0203J22010600005","2024-12-11T08:15:00",9.1,37.567467,0.288],
    [40747,"urn:WaterMeter:MC0203J22010600005","2024-12-11T08:30:00",9,37.359592,0.284],
    [40748,"urn:WaterMeter:MC0203J22010600005","2024-12-11T08:45:00",9,37.12763,0.293],
    [40749,"urn:WaterMeter:MC0203J22010600005","2024-12-11T09:00:00",9,36.99221,0.286],
    [40750,"urn:WaterMeter:MC0203J22010600005","2024-12-11T09:15:00",9.1,36.869637,0.286],
    [40751,"urn:WaterMeter:MC0203J22010600005","2024-12-11T09:30:00",9.399,36.626812,0.279],
    [40752,"urn:WaterMeter:MC0203J22010600005","2024-12-11T09:45:00",9.8,36.514748,0.282],
    [40753,"urn:WaterMeter:MC0203J22010600005","2024-12-11T10:00:00",10,36.44066,0.265],
    [40754,"urn:WaterMeter:MC0203J22010600005","2024-12-11T10:15:00",10.3,36.36308,0.282],
    [40755,"urn:WaterMeter:MC0203J22010600005","2024-12-11T10:30:00",10.5,36.295544,0.278],
    [40756,"urn:WaterMeter:MC0203J22010600005","2024-12-11T10:45:00",10.6,36.230804,0.275],
    [40757,"urn:WaterMeter:MC0203J22010600005","2024-12-11T11:00:00",10.699,36.18387,0.273],
    [40758,"urn:WaterMeter:MC0203J22010600005","2024-12-11T11:15:00",10.699,36.10043,0.272],
    [40759,"urn:WaterMeter:MC0203J22010600005","2024-12-11T11:30:00",10.699,36.027542,0.271],
    [40760,"urn:WaterMeter:MC0203J22010600005","2024-12-11T11:45:00",10.699,36.038406,0.27],
    [40761,"urn:WaterMeter:MC0203J22010600005","2024-12-11T12:00:00",10.8,36.022114,0.273],
    [40762,"urn:WaterMeter:MC0203J22010600005","2024-12-11T12:15:00",10.8,35.94337,0.274],
    [40763,"urn:WaterMeter:MC0203J22010600005","2024-12-11T12:30:00",10.8,35.860706,0.255],
    [40764,"urn:WaterMeter:MC0203J22010600005","2024-12-11T12:45:00",10.899,35.83786,0.274],
    [40765,"urn:WaterMeter:MC0203J22010600005","2024-12-11T13:00:00",10.899,35.854927,0.272],
    [40766,"urn:WaterMeter:MC0203J22010600005","2024-12-11T13:15:00",10.899,35.761055,0.268],
    [40767,"urn:WaterMeter:MC0203J22010600005","2024-12-11T13:30:00",11,35.759506,0.264],
    [40768,"urn:WaterMeter:MC0203J22010600005","2024-12-11T13:45:00",11,35.64081,0.268],
    [40769,"urn:WaterMeter:MC0203J22010600005","2024-12-11T14:00:00",11.1,35.610165,0.268],
    [40770,"urn:WaterMeter:MC0203J22010600005","2024-12-11T14:15:00",11.199,35.598877,0.259],
    [40771,"urn:WaterMeter:MC0203J22010600005","2024-12-11T14:30:00",11.199,35.556633,0.271],
    [40772,"urn:WaterMeter:MC0203J22010600005","2024-12-11T14:45:00",11.3,35.50349,0.269],
    [40773,"urn:WaterMeter:MC0203J22010600005","2024-12-11T15:00:00",11.199,35.513577,0.265],
    [40774,"urn:WaterMeter:MC0203J22010600005","2024-12-11T15:15:00",11.199,35.451126,0.264],
    [40775,"urn:WaterMeter:MC0203J22010600005","2024-12-11T15:30:00",11.1,35.39682,0.268],
    [40776,"urn:WaterMeter:MC0203J22010600005","2024-12-11T15:45:00",11,35.445305,0.262],
    [40777,"urn:WaterMeter:MC0203J22010600005","2024-12-11T16:00:00",10.899,35.441,0.268],
    [40778,"urn:WaterMeter:MC0203J22010600005","2024-12-11T16:15:00",10.899,35.41078,0.261],
    [40779,"urn:WaterMeter:MC0203J22010600005","2024-12-11T16:30:00",10.8,35.4026,0.259],
    [40780,"urn:WaterMeter:MC0203J22010600005","2024-12-11T16:45:00",10.699,35.40729,0.262],
    [40781,"urn:WaterMeter:MC0203J22010600005","2024-12-11T17:00:00",10.699,35.35919,0.29],
    [40782,"urn:WaterMeter:MC0203J22010600005","2024-12-11T17:15:00",10.6,35.334366,0.268],
    [40783,"urn:WaterMeter:MC0203J22010600005","2024-12-11T17:30:00",10.5,35.352596,0.272],
    [40784,"urn:WaterMeter:MC0203J22010600005","2024-12-11T17:45:00",10.399,35.31885,0.268],
    [40785,"urn:WaterMeter:MC0203J22010600005","2024-12-11T18:00:00",10.3,35.35027,0.26],
    [40786,"urn:WaterMeter:MC0203J22010600005","2024-12-11T18:15:00",10.199,35.33165,0.267],
    [40787,"urn:WaterMeter:MC0203J22010600005","2024-12-11T18:30:00",10.1,35.341736,0.276],
    [40788,"urn:WaterMeter:MC0203J22010600005","2024-12-11T18:45:00",10.1,35.251743,0.279],
    [40789,"urn:WaterMeter:MC0203J22010600005","2024-12-11T19:00:00",10.1,35.268383,0.275],
    [40790,"urn:WaterMeter:MC0203J22010600005","2024-12-11T19:15:00",10,35.292084,0.259],
    [40791,"urn:WaterMeter:MC0203J22010600005","2024-12-11T19:30:00",10,35.26916,0.26],
    [40792,"urn:WaterMeter:MC0203J22010600005","2024-12-11T19:45:00",10,35.237003,0.264],
    [40793,"urn:WaterMeter:MC0203J22010600005","2024-12-11T20:00:00",10,35.214893,0.28],
    [40794,"urn:WaterMeter:MC0203J22010600005","2024-12-11T20:15:00",10,35.23623,0.288],
    [40795,"urn:WaterMeter:MC0203J22010600005","2024-12-11T20:30:00",10,35.21722,0.268],
    [40796,"urn:WaterMeter:MC0203J22010600005","2024-12-11T20:45:00",10,35.199764,0.264],
    [40797,"urn:WaterMeter:MC0203J22010600005","2024-12-11T21:00:00",10,35.210587,0.279],
    [40798,"urn:WaterMeter:MC0203J22010600005","2024-12-11T21:15:00",10,35.186188,0.272],
    [40799,"urn:WaterMeter:MC0203J22010600005","2024-12-11T21:30:00",10,35.15632,0.28],
    [40800,"urn:WaterMeter:MC0203J22010600005","2024-12-11T21:45:00",10,35.181885,0.259],
    [40801,"urn:WaterMeter:MC0203J22010600005","2024-12-11T22:00:00",10,35.09422,0.275],
    [40802,"urn:WaterMeter:MC0203J22010600005","2024-12-11T22:15:00",9.899,35.11753,0.263],
    [40803,"urn:WaterMeter:MC0203J22010600005","2024-12-11T22:30:00",9.899,35.178432,0.262],
    [40804,"urn:WaterMeter:MC0203J22010600005","2024-12-11T22:45:00",9.899,35.14232,0.269],
    [40805,"urn:WaterMeter:MC0203J22010600005","2024-12-11T23:00:00",9.8,35.099686,0.261],
    [40806,"urn:WaterMeter:MC0203J22010600005","2024-12-11T23:15:00",9.8,35.094994,0.266],
    [40807,"urn:WaterMeter:MC0203J22010600005","2024-12-11T23:30:00",9.8,35.140415,0.264],
    [40808,"urn:WaterMeter:MC0203J22010600005","2024-12-11T23:45:00",9.8,35.01939,0.266],
    [40809,"urn:WaterMeter:MC0203J22010600005","2024-12-12T00:00:00",9.699,35.083397,0.258],
    [40810,"urn:WaterMeter:MC0203J22010600005","2024-12-12T00:15:00",9.699,35.072105,0.26],
    [40811,"urn:WaterMeter:MC0203J22010600005","2024-12-12T00:30:00",9.6,35.073658,0.283],
    [40812,"urn:WaterMeter:MC0203J22010600005","2024-12-12T00:45:00",9.6,35.026722,0.267],
    [40813,"urn:WaterMeter:MC0203J22010600005","2024-12-12T01:00:00",9.5,35.033318,0.266],
    [40814,"urn:WaterMeter:MC0203J22010600005","2024-12-12T01:15:00",9.5,35.065125,0.283],
    [40815,"urn:WaterMeter:MC0203J22010600005","2024-12-12T01:30:00",9.399,35.024433,0.267],
    [40816,"urn:WaterMeter:MC0203J22010600005","2024-12-12T01:45:00",9.399,35.00892,0.267],
    [40817,"urn:WaterMeter:MC0203J22010600005","2024-12-12T02:00:00",9.3,35.01241,0.274],
    [40818,"urn:WaterMeter:MC0203J22010600005","2024-12-12T02:15:00",9.3,35.015472,0.264],
    [40819,"urn:WaterMeter:MC0203J22010600005","2024-12-12T02:30:00",9.199,34.997242,0.261],
    [40820,"urn:WaterMeter:MC0203J22010600005","2024-12-12T02:45:00",9.199,34.989136,0.267],
    [40821,"urn:WaterMeter:MC0203J22010600005","2024-12-12T03:00:00",9.199,34.991463,0.264],
    [40822,"urn:WaterMeter:MC0203J22010600005","2024-12-12T03:15:00",9.1,34.978237,0.26],
    [40823,"urn:WaterMeter:MC0203J22010600005","2024-12-12T03:30:00",9.1,34.978622,0.26],
    [40824,"urn:WaterMeter:MC0203J22010600005","2024-12-12T03:45:00",9,34.99069,0.258],
    [40825,"urn:WaterMeter:MC0203J22010600005","2024-12-12T04:00:00",9,34.97168,0.27],
    [40826,"urn:WaterMeter:MC0203J22010600005","2024-12-12T04:15:00",8.899,34.928234,0.263],
    [40827,"urn:WaterMeter:MC0203J22010600005","2024-12-12T04:30:00",8.899,34.928234,0.258],
    [40828,"urn:WaterMeter:MC0203J22010600005","2024-12-12T04:45:00",8.8,34.93867,0.267],
    [40829,"urn:WaterMeter:MC0203J22010600005","2024-12-12T05:00:00",8.8,34.91194,0.255],
    [40830,"urn:WaterMeter:MC0203J22010600005","2024-12-12T05:15:00",8.899,34.97944,0.263],
    [40831,"urn:WaterMeter:MC0203J22010600005","2024-12-12T05:30:00",9.1,35.245926,0.265],
    [40832,"urn:WaterMeter:MC0203J22010600005","2024-12-12T05:45:00",9.199,35.983673,0.266],
    [40833,"urn:WaterMeter:MC0203J22010600005","2024-12-12T06:00:00",9.199,36.609394,0.287],
    [40834,"urn:WaterMeter:MC0203J22010600005","2024-12-12T06:15:00",9.199,36.941437,0.289],
    [40835,"urn:WaterMeter:MC0203J22010600005","2024-12-12T06:30:00",9.3,37.205944,0.284],
    [40836,"urn:WaterMeter:MC0203J22010600005","2024-12-12T06:45:00",9.3,37.36735,0.281],
    [40837,"urn:WaterMeter:MC0203J22010600005","2024-12-12T07:00:00",9.199,37.475185,0.303],
    [40838,"urn:WaterMeter:MC0203J22010600005","2024-12-12T07:15:00",9.3,37.530655,0.296],
    [40839,"urn:WaterMeter:MC0203J22010600005","2024-12-12T07:30:00",9.3,37.552765,0.291],
    [40840,"urn:WaterMeter:MC0203J22010600005","2024-12-12T07:45:00",9.3,37.586864,0.285],
    [40841,"urn:WaterMeter:MC0203J22010600005","2024-12-12T08:00:00",9.399,37.691208,0.307],
    [40842,"urn:WaterMeter:MC0203J22010600005","2024-12-12T08:15:00",9.3,37.709476,0.297],
    [40843,"urn:WaterMeter:MC0203J22010600005","2024-12-12T08:30:00",9.3,37.50583,0.286],
    [40844,"urn:WaterMeter:MC0203J22010600005","2024-12-12T08:45:00",9.3,37.309555,0.304],
    [40845,"urn:WaterMeter:MC0203J22010600005","2024-12-12T09:00:00",9.399,37.065563,0.307],
    [40846,"urn:WaterMeter:MC0203J22010600005","2024-12-12T09:15:00",9.6,37.006603,0.276],
    [40847,"urn:WaterMeter:MC0203J22010600005","2024-12-12T09:30:00",9.8,36.72693,0.281],
    [40848,"urn:WaterMeter:MC0203J22010600005","2024-12-12T09:45:00",10.1,36.642365,0.27],
    [40849,"urn:WaterMeter:MC0203J22010600005","2024-12-12T10:00:00",10.3,36.53608,0.285],
    [40850,"urn:WaterMeter:MC0203J22010600005","2024-12-12T10:15:00",10.5,36.441784,0.287],
    [40851,"urn:WaterMeter:MC0203J22010600005","2024-12-12T10:30:00",10.699,36.332047,0.276],
    [40852,"urn:WaterMeter:MC0203J22010600005","2024-12-12T10:45:00",10.899,36.30373,0.289],
    [40853,"urn:WaterMeter:MC0203J22010600005","2024-12-12T11:00:00",11,36.10551,0.268],
    [40854,"urn:WaterMeter:MC0203J22010600005","2024-12-12T11:15:00",11.1,36.097755,0.266],
    [40855,"urn:WaterMeter:MC0203J22010600005","2024-12-12T11:30:00",11.3,36.060127,0.267],
    [40856,"urn:WaterMeter:MC0203J22010600005","2024-12-12T11:45:00",11.399,35.972073,0.266],
    [40857,"urn:WaterMeter:MC0203J22010600005","2024-12-12T12:00:00",11.5,35.9744,0.281],
    [40858,"urn:WaterMeter:MC0203J22010600005","2024-12-12T12:15:00",11.5,35.91773,0.278],
    [40859,"urn:WaterMeter:MC0203J22010600005","2024-12-12T12:30:00",11.6,35.89333,0.275],
    [40860,"urn:WaterMeter:MC0203J22010600005","2024-12-12T12:45:00",11.699,35.79674,0.265],
    [40861,"urn:WaterMeter:MC0203J22010600005","2024-12-12T13:00:00",11.8,35.783943,0.266],
    [40862,"urn:WaterMeter:MC0203J22010600005","2024-12-12T13:15:00",11.8,35.763733,0.265],
    [40863,"urn:WaterMeter:MC0203J22010600005","2024-12-12T13:30:00",11.8,35.74434,0.264],
    [40864,"urn:WaterMeter:MC0203J22010600005","2024-12-12T13:45:00",11.8,35.702095,0.278],
    [40865,"urn:WaterMeter:MC0203J22010600005","2024-12-12T14:00:00",11.899,35.66637,0.265],
    [40866,"urn:WaterMeter:MC0203J22010600005","2024-12-12T14:15:00",11.899,35.66253,0.268],
    [40867,"urn:WaterMeter:MC0203J22010600005","2024-12-12T14:30:00",11.899,35.63305,0.267],
    [40868,"urn:WaterMeter:MC0203J22010600005","2024-12-12T14:45:00",11.899,35.460007,0.274],
    [40869,"urn:WaterMeter:MC0203J22010600005","2024-12-12T15:00:00",11.899,35.444103,0.265],
    [40870,"urn:WaterMeter:MC0203J22010600005","2024-12-12T15:15:00",11.8,35.42591,0.266],
    [40871,"urn:WaterMeter:MC0203J22010600005","2024-12-12T15:30:00",11.8,35.363033,0.288],
    [40872,"urn:WaterMeter:MC0203J22010600005","2024-12-12T15:45:00",11.699,35.329712,0.259],
    [40873,"urn:WaterMeter:MC0203J22010600005","2024-12-12T16:00:00",11.699,35.344025,0.268],
    [40874,"urn:WaterMeter:MC0203J22010600005","2024-12-12T16:15:00",11.6,35.27886,0.262],
    [40875,"urn:WaterMeter:MC0203J22010600005","2024-12-12T16:30:00",11.5,35.36497,0.273],
    [40876,"urn:WaterMeter:MC0203J22010600005","2024-12-12T16:45:00",11.399,35.30993,0.269],
    [40877,"urn:WaterMeter:MC0203J22010600005","2024-12-12T17:00:00",11.3,35.31687,0.271],
    [40878,"urn:WaterMeter:MC0203J22010600005","2024-12-12T17:15:00",11.1,35.263767,0.263],
    [40879,"urn:WaterMeter:MC0203J22010600005","2024-12-12T17:30:00",11,35.225365,0.267],
    [40880,"urn:WaterMeter:MC0203J22010600005","2024-12-12T17:45:00",10.899,35.263767,0.26],
    [40881,"urn:WaterMeter:MC0203J22010600005","2024-12-12T18:00:00",10.8,35.26532,0.263],
    [40882,"urn:WaterMeter:MC0203J22010600005","2024-12-12T18:15:00",10.6,35.256397,0.286],
    [40883,"urn:WaterMeter:MC0203J22010600005","2024-12-12T18:30:00",10.5,35.245926,0.267],
    [40884,"urn:WaterMeter:MC0203J22010600005","2024-12-12T18:45:00",10.399,35.210587,0.27],
    [40885,"urn:WaterMeter:MC0203J22010600005","2024-12-12T19:00:00",10.3,35.211365,0.26],
    [40886,"urn:WaterMeter:MC0203J22010600005","2024-12-12T19:15:00",10.199,35.237003,0.264],
    [40887,"urn:WaterMeter:MC0203J22010600005","2024-12-12T19:30:00",10.1,35.2199,0.27],
    [40888,"urn:WaterMeter:MC0203J22010600005","2024-12-12T19:45:00",10.1,35.162487,0.269],
    [40889,"urn:WaterMeter:MC0203J22010600005","2024-12-12T20:00:00",10,35.20128,0.278],
    [40890,"urn:WaterMeter:MC0203J22010600005","2024-12-12T20:15:00",9.899,35.17998,0.278],
    [40891,"urn:WaterMeter:MC0203J22010600005","2024-12-12T20:30:00",9.899,35.225365,0.273],
    [40892,"urn:WaterMeter:MC0203J22010600005","2024-12-12T20:45:00",9.8,35.197437,0.278],
    [40893,"urn:WaterMeter:MC0203J22010600005","2024-12-12T21:00:00",9.699,35.151237,0.276],
    [40894,"urn:WaterMeter:MC0203J22010600005","2024-12-12T21:15:00",9.6,35.142704,0.263],
    [40895,"urn:WaterMeter:MC0203J22010600005","2024-12-12T21:30:00",9.6,35.14701,0.275],
    [40896,"urn:WaterMeter:MC0203J22010600005","2024-12-12T21:45:00",9.5,35.15787,0.265],
    [40897,"urn:WaterMeter:MC0203J22010600005","2024-12-12T22:00:00",9.5,35.131844,0.27],
    [40898,"urn:WaterMeter:MC0203J22010600005","2024-12-12T22:15:00",9.5,35.160587,0.27],
    [40899,"urn:WaterMeter:MC0203J22010600005","2024-12-12T22:30:00",9.5,35.124084,0.274],
    [40900,"urn:WaterMeter:MC0203J22010600005","2024-12-12T22:45:00",9.5,35.10628,0.272],
    [40901,"urn:WaterMeter:MC0203J22010600005","2024-12-12T23:00:00",9.5,35.09189,0.277],
    [40902,"urn:WaterMeter:MC0203J22010600005","2024-12-12T23:15:00",9.399,35.101627,0.27],
    [40903,"urn:WaterMeter:MC0203J22010600005","2024-12-12T23:30:00",9.399,35.0993,0.27],
    [40904,"urn:WaterMeter:MC0203J22010600005","2024-12-12T23:45:00",9.399,35.0896,0.274],
    [40905,"urn:WaterMeter:MC0203J22010600005","2024-12-13T00:00:00",9.399,35.040337,0.271],
    [40906,"urn:WaterMeter:MC0203J22010600005","2024-12-13T00:15:00",9.399,35.062447,0.261],
    [40907,"urn:WaterMeter:MC0203J22010600005","2024-12-13T00:30:00",9.399,35.057793,0.266],
    [40908,"urn:WaterMeter:MC0203J22010600005","2024-12-13T00:45:00",9.399,35.047707,0.283],
    [40909,"urn:WaterMeter:MC0203J22010600005","2024-12-13T01:00:00",9.399,35.046505,0.258],
    [40910,"urn:WaterMeter:MC0203J22010600005","2024-12-13T01:15:00",9.399,35.02711,0.264],
    [40911,"urn:WaterMeter:MC0203J22010600005","2024-12-13T01:30:00",9.399,35.003876,0.268],
    [40912,"urn:WaterMeter:MC0203J22010600005","2024-12-13T01:45:00",9.399,35.031418,0.262],
    [40913,"urn:WaterMeter:MC0203J22010600005","2024-12-13T02:00:00",9.399,34.967762,0.266],
    [40914,"urn:WaterMeter:MC0203J22010600005","2024-12-13T02:15:00",9.399,34.979824,0.275],
    [40915,"urn:WaterMeter:MC0203J22010600005","2024-12-13T02:30:00",9.399,34.999996,0.257],
    [40916,"urn:WaterMeter:MC0203J22010600005","2024-12-13T02:45:00",9.399,34.98293,0.268],
    [40917,"urn:WaterMeter:MC0203J22010600005","2024-12-13T03:00:00",9.399,34.948753,0.269],
    [40918,"urn:WaterMeter:MC0203J22010600005","2024-12-13T03:15:00",9.399,34.926296,0.259],
    [40919,"urn:WaterMeter:MC0203J22010600005","2024-12-13T03:30:00",9.399,34.958454,0.262],
    [40920,"urn:WaterMeter:MC0203J22010600005","2024-12-13T03:45:00",9.399,34.955387,0.275],
    [40921,"urn:WaterMeter:MC0203J22010600005","2024-12-13T04:00:00",9.399,34.94026,0.265],
    [40922,"urn:WaterMeter:MC0203J22010600005","2024-12-13T04:15:00",9.399,34.92746,0.268],
    [40923,"urn:WaterMeter:MC0203J22010600005","2024-12-13T04:30:00",9.399,34.906902,0.274],
    [40924,"urn:WaterMeter:MC0203J22010600005","2024-12-13T04:45:00",9.399,34.885956,0.266],
    [40925,"urn:WaterMeter:MC0203J22010600005","2024-12-13T05:00:00",9.399,34.906902,0.265],
    [40926,"urn:WaterMeter:MC0203J22010600005","2024-12-13T05:15:00",9.5,34.91582,0.257],
    [40927,"urn:WaterMeter:MC0203J22010600005","2024-12-13T05:30:00",9.699,35.084133,0.263],
    [40928,"urn:WaterMeter:MC0203J22010600005","2024-12-13T05:45:00",9.8,35.87549,0.268],
    [40929,"urn:WaterMeter:MC0203J22010600005","2024-12-13T06:00:00",9.899,36.531815,0.262],
    [40930,"urn:WaterMeter:MC0203J22010600005","2024-12-13T06:15:00",9.899,36.868473,0.282],
    [40931,"urn:WaterMeter:MC0203J22010600005","2024-12-13T06:30:00",10,37.10319,0.292],
    [40932,"urn:WaterMeter:MC0203J22010600005","2024-12-13T06:45:00",10,37.2696,0.28],
    [40933,"urn:WaterMeter:MC0203J22010600005","2024-12-13T07:00:00",10.1,37.307613,0.296],
    [40934,"urn:WaterMeter:MC0203J22010600005","2024-12-13T07:15:00",10.1,37.3805,0.288],
    [40935,"urn:WaterMeter:MC0203J22010600005","2024-12-13T07:30:00",10.1,37.4523,0.288],
    [40936,"urn:WaterMeter:MC0203J22010600005","2024-12-13T07:45:00",10.199,37.51475,0.287],
    [40937,"urn:WaterMeter:MC0203J22010600005","2024-12-13T08:00:00",10.199,38.27659,0.3],
    [40938,"urn:WaterMeter:MC0203J22010600005","2024-12-13T08:15:00",10.199,38.337875,0.303],
    [40939,"urn:WaterMeter:MC0203J22010600005","2024-12-13T08:30:00",10.199,37.89757,0.283],
    [40940,"urn:WaterMeter:MC0203J22010600005","2024-12-13T08:45:00",10.199,37.6575,0.281],
    [40941,"urn:WaterMeter:MC0203J22010600005","2024-12-13T09:00:00",10.3,37.3421,0.279],
    [40942,"urn:WaterMeter:MC0203J22010600005","2024-12-13T09:15:00",10.5,37.071342,0.267],
    [40943,"urn:WaterMeter:MC0203J22010600005","2024-12-13T09:30:00",10.699,36.74904,0.265],
    [40944,"urn:WaterMeter:MC0203J22010600005","2024-12-13T09:45:00",11,36.609005,0.292],
    [40945,"urn:WaterMeter:MC0203J22010600005","2024-12-13T10:00:00",11.3,36.51005,0.273],
    [40946,"urn:WaterMeter:MC0203J22010600005","2024-12-13T10:15:00",11.5,36.491432,0.27],
    [40947,"urn:WaterMeter:MC0203J22010600005","2024-12-13T10:30:00",11.6,36.359585,0.272],
    [40948,"urn:WaterMeter:MC0203J22010600005","2024-12-13T10:45:00",11.8,36.252525,0.289],
    [40949,"urn:WaterMeter:MC0203J22010600005","2024-12-13T11:00:00",11.899,36.19081,0.277],
    [40950,"urn:WaterMeter:MC0203J22010600005","2024-12-13T11:15:00",12.1,36.024403,0.291],
    [40951,"urn:WaterMeter:MC0203J22010600005","2024-12-13T11:30:00",12.1,36.104347,0.287],
    [40952,"urn:WaterMeter:MC0203J22010600005","2024-12-13T11:45:00",12.199,35.98216,0.265],
    [40953,"urn:WaterMeter:MC0203J22010600005","2024-12-13T12:00:00",12.3,35.933285,0.292],
    [40954,"urn:WaterMeter:MC0203J22010600005","2024-12-13T12:15:00",12.3,35.93561,0.267],
    [40955,"urn:WaterMeter:MC0203J22010600005","2024-12-13T12:30:00",12.399,35.799847,0.267],
    [40956,"urn:WaterMeter:MC0203J22010600005","2024-12-13T12:45:00",12.5,35.75679,0.265],
    [40957,"urn:WaterMeter:MC0203J22010600005","2024-12-13T13:00:00",12.5,35.670677,0.271],
    [40958,"urn:WaterMeter:MC0203J22010600005","2024-12-13T13:15:00",12.5,35.634563,0.266],
    [40959,"urn:WaterMeter:MC0203J22010600005","2024-12-13T13:30:00",12.5,35.655895,0.266],
    [40960,"urn:WaterMeter:MC0203J22010600005","2024-12-13T13:45:00",12.5,35.652832,0.279],
    [40961,"urn:WaterMeter:MC0203J22010600005","2024-12-13T14:00:00",12.5,35.549614,0.267],
    [40962,"urn:WaterMeter:MC0203J22010600005","2024-12-13T14:15:00",12.5,35.482117,0.269],
    [40963,"urn:WaterMeter:MC0203J22010600005","2024-12-13T14:30:00",12.6,35.47242,0.267],
    [40964,"urn:WaterMeter:MC0203J22010600005","2024-12-13T14:45:00",12.699,35.463924,0.268],
    [40965,"urn:WaterMeter:MC0203J22010600005","2024-12-13T15:00:00",12.6,35.455,0.273],
    [40966,"urn:WaterMeter:MC0203J22010600005","2024-12-13T15:15:00",12.6,35.414623,0.266],
    [40967,"urn:WaterMeter:MC0203J22010600005","2024-12-13T15:30:00",12.6,35.378586,0.268],
    [40968,"urn:WaterMeter:MC0203J22010600005","2024-12-13T15:45:00",12.6,35.292473,0.262],
    [40969,"urn:WaterMeter:MC0203J22010600005","2024-12-13T16:00:00",12.5,35.332428,0.283],
    [40970,"urn:WaterMeter:MC0203J22010600005","2024-12-13T16:15:00",12.5,35.275406,0.269],
    [40971,"urn:WaterMeter:MC0203J22010600005","2024-12-13T16:30:00",12.5,35.27696,0.275],
    [40972,"urn:WaterMeter:MC0203J22010600005","2024-12-13T16:45:00",12.5,35.25407,0.271],
    [40973,"urn:WaterMeter:MC0203J22010600005","2024-12-13T17:00:00",12.399,35.23076,0.262],
    [40974,"urn:WaterMeter:MC0203J22010600005","2024-12-13T17:15:00",12.3,35.248215,0.265],
    [40975,"urn:WaterMeter:MC0203J22010600005","2024-12-13T17:30:00",12.3,35.216446,0.267],
    [40976,"urn:WaterMeter:MC0203J22010600005","2024-12-13T17:45:00",12.199,35.238556,0.267],
    [40977,"urn:WaterMeter:MC0203J22010600005","2024-12-13T18:00:00",12.199,35.205585,0.262],
    [40978,"urn:WaterMeter:MC0203J22010600005","2024-12-13T18:15:00",12.1,35.1986,0.265],
    [40979,"urn:WaterMeter:MC0203J22010600005","2024-12-13T18:30:00",12.1,35.140415,0.266],
    [40980,"urn:WaterMeter:MC0203J22010600005","2024-12-13T18:45:00",12.1,35.18964,0.271],
    [40981,"urn:WaterMeter:MC0203J22010600005","2024-12-13T19:00:00",12,35.170635,0.262],
    [40982,"urn:WaterMeter:MC0203J22010600005","2024-12-13T19:15:00",12,35.121796,0.267],
    [40983,"urn:WaterMeter:MC0203J22010600005","2024-12-13T19:30:00",11.899,35.12331,0.268],
    [40984,"urn:WaterMeter:MC0203J22010600005","2024-12-13T19:45:00",11.8,35.105507,0.262],
    [40985,"urn:WaterMeter:MC0203J22010600005","2024-12-13T20:00:00",11.699,35.142704,0.269],
    [40986,"urn:WaterMeter:MC0203J22010600005","2024-12-13T20:15:00",11.6,35.11753,0.264],
    [40987,"urn:WaterMeter:MC0203J22010600005","2024-12-13T20:30:00",11.5,35.055428,0.271],
    [40988,"urn:WaterMeter:MC0203J22010600005","2024-12-13T20:45:00",11.399,35.055817,0.278],
    [40989,"urn:WaterMeter:MC0203J22010600005","2024-12-13T21:00:00",11.3,35.094994,0.272],
    [40990,"urn:WaterMeter:MC0203J22010600005","2024-12-13T21:15:00",11.199,35.046932,0.266],
    [40991,"urn:WaterMeter:MC0203J22010600005","2024-12-13T21:30:00",11.1,35.06012,0.269],
    [40992,"urn:WaterMeter:MC0203J22010600005","2024-12-13T21:45:00",11,35.07137,0.264],
    [40993,"urn:WaterMeter:MC0203J22010600005","2024-12-13T22:00:00",10.899,35.00077,0.27],
    [40994,"urn:WaterMeter:MC0203J22010600005","2024-12-13T22:15:00",10.8,35.02754,0.287],
    [40995,"urn:WaterMeter:MC0203J22010600005","2024-12-13T22:30:00",10.699,35.042667,0.274],
    [40996,"urn:WaterMeter:MC0203J22010600005","2024-12-13T22:45:00",10.6,35.038788,0.268],
    [40997,"urn:WaterMeter:MC0203J22010600005","2024-12-13T23:00:00",10.5,35.03487,0.26],
    [40998,"urn:WaterMeter:MC0203J22010600005","2024-12-13T23:15:00",10.399,35.029476,0.27],
    [40999,"urn:WaterMeter:MC0203J22010600005","2024-12-13T23:30:00",10.3,35.037624,0.261],
    [41000,"urn:WaterMeter:MC0203J22010600005","2024-12-13T23:45:00",10.3,34.979824,0.27],
    [41001,"urn:WaterMeter:MC0203J22010600005","2024-12-14T00:00:00",10.199,34.97905,0.27],
    [41002,"urn:WaterMeter:MC0203J22010600005","2024-12-14T00:15:00",10.1,35.019005,0.272],
    [41003,"urn:WaterMeter:MC0203J22010600005","2024-12-14T00:30:00",10,35.00116,0.273],
    [41004,"urn:WaterMeter:MC0203J22010600005","2024-12-14T00:45:00",9.899,34.99418,0.267],
    [41005,"urn:WaterMeter:MC0203J22010600005","2024-12-14T01:00:00",9.8,35.026337,0.261],
    [41006,"urn:WaterMeter:MC0203J22010600005","2024-12-14T01:15:00",9.699,34.99802,0.268],
    [41007,"urn:WaterMeter:MC0203J22010600005","2024-12-14T01:30:00",9.6,35.00465,0.266],
    [41008,"urn:WaterMeter:MC0203J22010600005","2024-12-14T01:45:00",9.5,34.983704,0.268],
    [41009,"urn:WaterMeter:MC0203J22010600005","2024-12-14T02:00:00",9.399,34.997242,0.267],
    [41010,"urn:WaterMeter:MC0203J22010600005","2024-12-14T02:15:00",9.3,34.981377,0.263],
    [41011,"urn:WaterMeter:MC0203J22010600005","2024-12-14T02:30:00",9.3,34.96082,0.262],
    [41012,"urn:WaterMeter:MC0203J22010600005","2024-12-14T02:45:00",9.199,34.96121,0.27],
    [41013,"urn:WaterMeter:MC0203J22010600005","2024-12-14T03:00:00",9.199,34.951897,0.269],
    [41014,"urn:WaterMeter:MC0203J22010600005","2024-12-14T03:15:00",9.1,34.978622,0.275],
    [41015,"urn:WaterMeter:MC0203J22010600005","2024-12-14T03:30:00",9.1,34.956512,0.267],
    [41016,"urn:WaterMeter:MC0203J22010600005","2024-12-14T03:45:00",9.1,34.924355,0.274],
    [41017,"urn:WaterMeter:MC0203J22010600005","2024-12-14T04:00:00",9,34.9453,0.278],
    [41018,"urn:WaterMeter:MC0203J22010600005","2024-12-14T04:15:00",9,34.92746,0.27],
    [41019,"urn:WaterMeter:MC0203J22010600005","2024-12-14T04:30:00",8.899,34.961983,0.26],
    [41020,"urn:WaterMeter:MC0203J22010600005","2024-12-14T04:45:00",8.899,34.928234,0.265],
    [41021,"urn:WaterMeter:MC0203J22010600005","2024-12-14T05:00:00",8.899,34.933277,0.266],
    [41022,"urn:WaterMeter:MC0203J22010600005","2024-12-14T05:15:00",8.8,34.92936,0.267],
    [41023,"urn:WaterMeter:MC0203J22010600005","2024-12-14T05:30:00",8.8,34.924355,0.273],
    [41024,"urn:WaterMeter:MC0203J22010600005","2024-12-14T05:45:00",8.699,34.96043,0.265],
    [41025,"urn:WaterMeter:MC0203J22010600005","2024-12-14T06:00:00",8.699,34.911167,0.268],
    [41026,"urn:WaterMeter:MC0203J22010600005","2024-12-14T06:15:00",8.699,34.913883,0.258],
    [41027,"urn:WaterMeter:MC0203J22010600005","2024-12-14T06:30:00",8.6,34.909576,0.264],
    [41028,"urn:WaterMeter:MC0203J22010600005","2024-12-14T06:45:00",8.6,34.889057,0.268],
    [41029,"urn:WaterMeter:MC0203J22010600005","2024-12-14T07:00:00",8.6,34.909187,0.256],
    [41030,"urn:WaterMeter:MC0203J22010600005","2024-12-14T07:15:00",8.6,34.903408,0.263],
    [41031,"urn:WaterMeter:MC0203J22010600005","2024-12-14T07:30:00",8.5,34.885956,0.26],
    [41032,"urn:WaterMeter:MC0203J22010600005","2024-12-14T07:45:00",8.5,34.89949,0.264],
    [41033,"urn:WaterMeter:MC0203J22010600005","2024-12-14T08:00:00",8.5,34.86772,0.256],
    [41034,"urn:WaterMeter:MC0203J22010600005","2024-12-14T08:15:00",8.5,34.848328,0.267],
    [41035,"urn:WaterMeter:MC0203J22010600005","2024-12-14T08:30:00",8.5,34.863068,0.271],
    [41036,"urn:WaterMeter:MC0203J22010600005","2024-12-14T08:45:00",8.6,34.86811,0.268],
    [41037,"urn:WaterMeter:MC0203J22010600005","2024-12-14T09:00:00",8.8,34.85686,0.256],
    [41038,"urn:WaterMeter:MC0203J22010600005","2024-12-14T09:15:00",9.1,34.858414,0.254],
    [41039,"urn:WaterMeter:MC0203J22010600005","2024-12-14T09:30:00",9.5,34.828545,0.261],
    [41040,"urn:WaterMeter:MC0203J22010600005","2024-12-14T09:45:00",9.8,34.788204,0.256],
    [41041,"urn:WaterMeter:MC0203J22010600005","2024-12-14T10:00:00",10.1,34.7145,0.262],
    [41042,"urn:WaterMeter:MC0203J22010600005","2024-12-14T10:15:00",10.3,34.68347,0.249],
    [41043,"urn:WaterMeter:MC0203J22010600005","2024-12-14T10:30:00",10.6,34.65593,0.26],
    [41044,"urn:WaterMeter:MC0203J22010600005","2024-12-14T10:45:00",10.699,34.658607,0.257],
    [41045,"urn:WaterMeter:MC0203J22010600005","2024-12-14T11:00:00",10.8,34.59852,0.256],
    [41046,"urn:WaterMeter:MC0203J22010600005","2024-12-14T11:15:00",10.899,34.621407,0.258],
    [41047,"urn:WaterMeter:MC0203J22010600005","2024-12-14T11:30:00",10.899,34.516674,0.252],
    [41048,"urn:WaterMeter:MC0203J22010600005","2024-12-14T11:45:00",11.1,34.576023,0.261],
    [41049,"urn:WaterMeter:MC0203J22010600005","2024-12-14T12:00:00",11.199,34.483276,0.253],
    [41050,"urn:WaterMeter:MC0203J22010600005","2024-12-14T12:15:00",11.3,34.4806,0.249],
    [41051,"urn:WaterMeter:MC0203J22010600005","2024-12-14T12:30:00",11.399,34.442585,0.253],
    [41052,"urn:WaterMeter:MC0203J22010600005","2024-12-14T12:45:00",11.6,34.407284,0.246],
    [41053,"urn:WaterMeter:MC0203J22010600005","2024-12-14T13:00:00",11.699,34.426292,0.253],
    [41054,"urn:WaterMeter:MC0203J22010600005","2024-12-14T13:15:00",11.8,34.425865,0.26],
    [41055,"urn:WaterMeter:MC0203J22010600005","2024-12-14T13:30:00",11.899,34.301777,0.253],
    [41056,"urn:WaterMeter:MC0203J22010600005","2024-12-14T13:45:00",11.899,34.323887,0.253],
    [41057,"urn:WaterMeter:MC0203J22010600005","2024-12-14T14:00:00",12,34.32195,0.255],
    [41058,"urn:WaterMeter:MC0203J22010600005","2024-12-14T14:15:00",12,34.30911,0.252],
    [41059,"urn:WaterMeter:MC0203J22010600005","2024-12-14T14:30:00",12,34.298634,0.269],
    [41060,"urn:WaterMeter:MC0203J22010600005","2024-12-14T14:45:00",12,34.246307,0.269],
    [41061,"urn:WaterMeter:MC0203J22010600005","2024-12-14T15:00:00",12,34.22028,0.269],
    [41062,"urn:WaterMeter:MC0203J22010600005","2024-12-14T15:15:00",12,34.229626,0.264],
    [41063,"urn:WaterMeter:MC0203J22010600005","2024-12-14T15:30:00",11.899,34.259068,0.269],
    [41064,"urn:WaterMeter:MC0203J22010600005","2024-12-14T15:45:00",11.899,34.2195,0.252],
    [41065,"urn:WaterMeter:MC0203J22010600005","2024-12-14T16:00:00",11.8,34.167175,0.252],
    [41066,"urn:WaterMeter:MC0203J22010600005","2024-12-14T16:15:00",11.699,34.189285,0.271],
    [41067,"urn:WaterMeter:MC0203J22010600005","2024-12-14T16:30:00",11.6,34.170277,0.259],
    [41068,"urn:WaterMeter:MC0203J22010600005","2024-12-14T16:45:00",11.5,34.147392,0.267],
    [41069,"urn:WaterMeter:MC0203J22010600005","2024-12-14T17:00:00",11.3,34.13149,0.256],
    [41070,"urn:WaterMeter:MC0203J22010600005","2024-12-14T17:15:00",11.199,34.198597,0.266],
    [41071,"urn:WaterMeter:MC0203J22010600005","2024-12-14T17:30:00",11.1,34.167564,0.256],
    [41072,"urn:WaterMeter:MC0203J22010600005","2024-12-14T17:45:00",11,34.180325,0.253],
    [41073,"urn:WaterMeter:MC0203J22010600005","2024-12-14T18:00:00",10.8,34.204414,0.262],
    [41074,"urn:WaterMeter:MC0203J22010600005","2024-12-14T18:15:00",10.699,34.178814,0.263],
    [41075,"urn:WaterMeter:MC0203J22010600005","2024-12-14T18:30:00",10.6,34.152782,0.263],
    [41076,"urn:WaterMeter:MC0203J22010600005","2024-12-14T18:45:00",10.5,34.14623,0.268],
    [41077,"urn:WaterMeter:MC0203J22010600005","2024-12-14T19:00:00",10.5,34.15903,0.252],
    [41078,"urn:WaterMeter:MC0203J22010600005","2024-12-14T19:15:00",10.399,34.187347,0.255],
    [41079,"urn:WaterMeter:MC0203J22010600005","2024-12-14T19:30:00",10.3,34.21062,0.272],
    [41080,"urn:WaterMeter:MC0203J22010600005","2024-12-14T19:45:00",10.199,34.19235,0.262],
    [41081,"urn:WaterMeter:MC0203J22010600005","2024-12-14T20:00:00",10.199,34.219116,0.253],
    [41082,"urn:WaterMeter:MC0203J22010600005","2024-12-14T20:15:00",10.1,34.202824,0.253],
    [41083,"urn:WaterMeter:MC0203J22010600005","2024-12-14T20:30:00",10,34.200497,0.254],
    [41084,"urn:WaterMeter:MC0203J22010600005","2024-12-14T20:45:00",10,34.20166,0.248],
    [41085,"urn:WaterMeter:MC0203J22010600005","2024-12-14T21:00:00",10,34.22924,0.265],
    [41086,"urn:WaterMeter:MC0203J22010600005","2024-12-14T21:15:00",9.899,34.19588,0.25],
    [41087,"urn:WaterMeter:MC0203J22010600005","2024-12-14T21:30:00",9.899,34.193554,0.265],
    [41088,"urn:WaterMeter:MC0203J22010600005","2024-12-14T21:45:00",9.899,34.176098,0.248],
    [41089,"urn:WaterMeter:MC0203J22010600005","2024-12-14T22:00:00",9.8,34.23075,0.256],
    [41090,"urn:WaterMeter:MC0203J22010600005","2024-12-14T22:15:00",9.8,34.211357,0.254],
    [41091,"urn:WaterMeter:MC0203J22010600005","2024-12-14T22:30:00",9.8,34.15317,0.25],
    [41092,"urn:WaterMeter:MC0203J22010600005","2024-12-14T22:45:00",9.8,34.16601,0.257],
    [41093,"urn:WaterMeter:MC0203J22010600005","2024-12-14T23:00:00",9.8,34.19782,0.267],
    [41094,"urn:WaterMeter:MC0203J22010600005","2024-12-14T23:15:00",9.8,34.16834,0.257],
    [41095,"urn:WaterMeter:MC0203J22010600005","2024-12-14T23:30:00",9.8,34.180714,0.254],
    [41096,"urn:WaterMeter:MC0203J22010600005","2024-12-14T23:45:00",9.8,34.147392,0.263],
    [41097,"urn:WaterMeter:MC0203J22010600005","2024-12-15T00:00:00",9.8,34.16132,0.262],
    [41098,"urn:WaterMeter:MC0203J22010600005","2024-12-15T00:15:00",9.8,34.16287,0.258],
    [41099,"urn:WaterMeter:MC0203J22010600005","2024-12-15T00:30:00",9.8,34.171444,0.25],
    [41100,"urn:WaterMeter:MC0203J22010600005","2024-12-15T00:45:00",9.699,34.12722,0.268],
    [41101,"urn:WaterMeter:MC0203J22010600005","2024-12-15T01:00:00",9.699,34.16601,0.268],
    [41102,"urn:WaterMeter:MC0203J22010600005","2024-12-15T01:15:00",9.699,34.139633,0.262],
    [41103,"urn:WaterMeter:MC0203J22010600005","2024-12-15T01:30:00",9.6,34.132263,0.263],
    [41104,"urn:WaterMeter:MC0203J22010600005","2024-12-15T01:45:00",9.6,34.145454,0.25],
    [41105,"urn:WaterMeter:MC0203J22010600005","2024-12-15T02:00:00",9.6,34.14933,0.265],
    [41106,"urn:WaterMeter:MC0203J22010600005","2024-12-15T02:15:00",9.5,34.130325,0.255],
    [41107,"urn:WaterMeter:MC0203J22010600005","2024-12-15T02:30:00",9.5,34.097355,0.264],
    [41108,"urn:WaterMeter:MC0203J22010600005","2024-12-15T02:45:00",9.399,34.12369,0.259],
    [41109,"urn:WaterMeter:MC0203J22010600005","2024-12-15T03:00:00",9.399,34.13339,0.254],
    [41110,"urn:WaterMeter:MC0203J22010600005","2024-12-15T03:15:00",9.3,34.105846,0.257],
    [41111,"urn:WaterMeter:MC0203J22010600005","2024-12-15T03:30:00",9.3,34.145454,0.257],
    [41112,"urn:WaterMeter:MC0203J22010600005","2024-12-15T03:45:00",9.3,34.123302,0.257],
    [41113,"urn:WaterMeter:MC0203J22010600005","2024-12-15T04:00:00",9.199,34.096966,0.25],
    [41114,"urn:WaterMeter:MC0203J22010600005","2024-12-15T04:15:00",9.199,34.069813,0.268],
    [41115,"urn:WaterMeter:MC0203J22010600005","2024-12-15T04:30:00",9.199,34.147392,0.262],
    [41116,"urn:WaterMeter:MC0203J22010600005","2024-12-15T04:45:00",9.1,34.121754,0.251],
    [41117,"urn:WaterMeter:MC0203J22010600005","2024-12-15T05:00:00",9.1,34.125244,0.257],
    [41118,"urn:WaterMeter:MC0203J22010600005","2024-12-15T05:15:00",9,34.135754,0.253],
    [41119,"urn:WaterMeter:MC0203J22010600005","2024-12-15T05:30:00",9,34.07951,0.269],
    [41120,"urn:WaterMeter:MC0203J22010600005","2024-12-15T05:45:00",8.899,34.077957,0.248],
    [41121,"urn:WaterMeter:MC0203J22010600005","2024-12-15T06:00:00",8.899,34.104298,0.25],
    [41122,"urn:WaterMeter:MC0203J22010600005","2024-12-15T06:15:00",8.8,34.111706,0.249],
    [41123,"urn:WaterMeter:MC0203J22010600005","2024-12-15T06:30:00",8.8,34.09968,0.248],
    [41124,"urn:WaterMeter:MC0203J22010600005","2024-12-15T06:45:00",8.699,34.123302,0.239],
    [41125,"urn:WaterMeter:MC0203J22010600005","2024-12-15T07:00:00",8.6,34.12024,0.262],
    [41126,"urn:WaterMeter:MC0203J22010600005","2024-12-15T07:15:00",8.6,34.09231,0.256],
    [41127,"urn:WaterMeter:MC0203J22010600005","2024-12-15T07:30:00",8.5,34.072914,0.256],
    [41128,"urn:WaterMeter:MC0203J22010600005","2024-12-15T07:45:00",8.5,34.117523,0.265],
    [41129,"urn:WaterMeter:MC0203J22010600005","2024-12-15T08:00:00",8.5,34.089596,0.252],
    [41130,"urn:WaterMeter:MC0203J22010600005","2024-12-15T08:15:00",8.5,34.077183,0.255],
    [41131,"urn:WaterMeter:MC0203J22010600005","2024-12-15T08:30:00",8.5,34.072914,0.252],
    [41132,"urn:WaterMeter:MC0203J22010600005","2024-12-15T08:45:00",8.6,34.055073,0.253],
    [41133,"urn:WaterMeter:MC0203J22010600005","2024-12-15T09:00:00",8.699,34.015896,0.253],
    [41134,"urn:WaterMeter:MC0203J22010600005","2024-12-15T09:15:00",9,34.029472,0.247],
    [41135,"urn:WaterMeter:MC0203J22010600005","2024-12-15T09:30:00",9.3,34.00193,0.248],
    [41136,"urn:WaterMeter:MC0203J22010600005","2024-12-15T09:45:00",9.6,33.9612,0.247],
    [41137,"urn:WaterMeter:MC0203J22010600005","2024-12-15T10:00:00",9.8,33.97862,0.259],
    [41138,"urn:WaterMeter:MC0203J22010600005","2024-12-15T10:15:00",10,33.935986,0.248],
    [41139,"urn:WaterMeter:MC0203J22010600005","2024-12-15T10:30:00",10.199,33.90573,0.243],
    [41140,"urn:WaterMeter:MC0203J22010600005","2024-12-15T10:45:00",10.3,33.842113,0.244],
    [41141,"urn:WaterMeter:MC0203J22010600005","2024-12-15T11:00:00",10.5,33.86341,0.255],
    [41142,"urn:WaterMeter:MC0203J22010600005","2024-12-15T11:15:00",10.6,33.794365,0.244],
    [41143,"urn:WaterMeter:MC0203J22010600005","2024-12-15T11:30:00",10.699,33.787422,0.245],
    [41144,"urn:WaterMeter:MC0203J22010600005","2024-12-15T11:45:00",10.699,33.784668,0.233],
    [41145,"urn:WaterMeter:MC0203J22010600005","2024-12-15T12:00:00",10.8,33.676056,0.267],
    [41146,"urn:WaterMeter:MC0203J22010600005","2024-12-15T12:15:00",10.899,33.68191,0.239],
    [41147,"urn:WaterMeter:MC0203J22010600005","2024-12-15T12:30:00",11,33.685017,0.253],
    [41148,"urn:WaterMeter:MC0203J22010600005","2024-12-15T12:45:00",11.1,33.680363,0.254],
    [41149,"urn:WaterMeter:MC0203J22010600005","2024-12-15T13:00:00",11.199,33.59347,0.248],
    [41150,"urn:WaterMeter:MC0203J22010600005","2024-12-15T13:15:00",11.199,33.56399,0.255],
    [41151,"urn:WaterMeter:MC0203J22010600005","2024-12-15T13:30:00",11.399,33.59386,0.253],
    [41152,"urn:WaterMeter:MC0203J22010600005","2024-12-15T13:45:00",11.399,33.564377,0.248],
    [41153,"urn:WaterMeter:MC0203J22010600005","2024-12-15T14:00:00",11.5,33.54576,0.272],
    [41154,"urn:WaterMeter:MC0203J22010600005","2024-12-15T14:15:00",11.6,33.478264,0.242],
    [41155,"urn:WaterMeter:MC0203J22010600005","2024-12-15T14:30:00",11.6,33.474735,0.248],
    [41156,"urn:WaterMeter:MC0203J22010600005","2024-12-15T14:45:00",11.6,33.483658,0.253],
    [41157,"urn:WaterMeter:MC0203J22010600005","2024-12-15T15:00:00",11.6,33.47012,0.236],
    [41158,"urn:WaterMeter:MC0203J22010600005","2024-12-15T15:15:00",11.6,33.404526,0.252],
    [41159,"urn:WaterMeter:MC0203J22010600005","2024-12-15T15:30:00",11.5,33.430164,0.24],
    [41160,"urn:WaterMeter:MC0203J22010600005","2024-12-15T15:45:00",11.5,33.401463,0.245],
    [41161,"urn:WaterMeter:MC0203J22010600005","2024-12-15T16:00:00",11.5,33.404137,0.246],
    [41162,"urn:WaterMeter:MC0203J22010600005","2024-12-15T16:15:00",11.399,33.348278,0.26],
    [41163,"urn:WaterMeter:MC0203J22010600005","2024-12-15T16:30:00",11.399,33.326946,0.256],
    [41164,"urn:WaterMeter:MC0203J22010600005","2024-12-15T16:45:00",11.199,33.352196,0.245],
    [41165,"urn:WaterMeter:MC0203J22010600005","2024-12-15T17:00:00",11,33.306812,0.247],
    [41166,"urn:WaterMeter:MC0203J22010600005","2024-12-15T17:15:00",10.899,33.356075,0.25],
    [41167,"urn:WaterMeter:MC0203J22010600005","2024-12-15T17:30:00",10.699,33.369267,0.244],
    [41168,"urn:WaterMeter:MC0203J22010600005","2024-12-15T17:45:00",10.6,33.329273,0.254],
    [41169,"urn:WaterMeter:MC0203J22010600005","2024-12-15T18:00:00",10.5,33.345604,0.254],
    [41170,"urn:WaterMeter:MC0203J22010600005","2024-12-15T18:15:00",10.399,33.39913,0.257],
    [41171,"urn:WaterMeter:MC0203J22010600005","2024-12-15T18:30:00",10.3,33.39564,0.268],
    [41172,"urn:WaterMeter:MC0203J22010600005","2024-12-15T18:45:00",10.1,33.4053,0.255],
    [41173,"urn:WaterMeter:MC0203J22010600005","2024-12-15T19:00:00",10,33.34444,0.247],
    [41174,"urn:WaterMeter:MC0203J22010600005","2024-12-15T19:15:00",9.899,33.32194,0.26],
    [41175,"urn:WaterMeter:MC0203J22010600005","2024-12-15T19:30:00",9.8,33.33125,0.246],
    [41176,"urn:WaterMeter:MC0203J22010600005","2024-12-15T19:45:00",9.699,33.358364,0.254],
    [41177,"urn:WaterMeter:MC0203J22010600005","2024-12-15T20:00:00",9.5,33.426636,0.243],
    [41178,"urn:WaterMeter:MC0203J22010600005","2024-12-15T20:15:00",9.399,33.401848,0.247],
    [41179,"urn:WaterMeter:MC0203J22010600005","2024-12-15T20:30:00",9.3,33.391376,0.25],
    [41180,"urn:WaterMeter:MC0203J22010600005","2024-12-15T20:45:00",9.199,33.42241,0.252],
    [41181,"urn:WaterMeter:MC0203J22010600005","2024-12-15T21:00:00",9.1,33.404526,0.256],
    [41182,"urn:WaterMeter:MC0203J22010600005","2024-12-15T21:15:00",9,33.376637,0.252],
    [41183,"urn:WaterMeter:MC0203J22010600005","2024-12-15T21:30:00",8.899,33.413097,0.252],
    [41184,"urn:WaterMeter:MC0203J22010600005","2024-12-15T21:45:00",8.8,33.436333,0.255],
    [41185,"urn:WaterMeter:MC0203J22010600005","2024-12-15T22:00:00",8.699,33.419693,0.255],
    [41186,"urn:WaterMeter:MC0203J22010600005","2024-12-15T22:15:00",8.6,33.45111,0.244],
    [41187,"urn:WaterMeter:MC0203J22010600005","2024-12-15T22:30:00",8.5,33.426247,0.254],
    [41188,"urn:WaterMeter:MC0203J22010600005","2024-12-15T22:45:00",8.5,33.44293,0.238],
    [41189,"urn:WaterMeter:MC0203J22010600005","2024-12-15T23:00:00",8.399,33.425083,0.254],
    [41190,"urn:WaterMeter:MC0203J22010600005","2024-12-15T23:15:00",8.3,33.442192,0.244],
    [41191,"urn:WaterMeter:MC0203J22010600005","2024-12-15T23:30:00",8.199,33.428616,0.251],
    [41192,"urn:WaterMeter:MC0203J22010600005","2024-12-15T23:45:00",8.1,33.439476,0.25],
    [41193,"urn:WaterMeter:MC0203J22010600005","2024-12-16T00:00:00",8.1,33.454952,0.251],
    [41194,"urn:WaterMeter:MC0203J22010600005","2024-12-16T00:15:00",8,33.396378,0.247],
    [41195,"urn:WaterMeter:MC0203J22010600005","2024-12-16T00:30:00",7.9,33.41504,0.25],
    [41196,"urn:WaterMeter:MC0203J22010600005","2024-12-16T00:45:00",7.8,33.456932,0.258],
    [41197,"urn:WaterMeter:MC0203J22010600005","2024-12-16T01:00:00",7.8,33.430943,0.261],
    [41198,"urn:WaterMeter:MC0203J22010600005","2024-12-16T01:15:00",7.699,33.472446,0.246],
    [41199,"urn:WaterMeter:MC0203J22010600005","2024-12-16T01:30:00",7.599,33.457317,0.251],
    [41200,"urn:WaterMeter:MC0203J22010600005","2024-12-16T01:45:00",7.5,33.449562,0.252],
    [41201,"urn:WaterMeter:MC0203J22010600005","2024-12-16T02:00:00",7.5,33.467793,0.255],
    [41202,"urn:WaterMeter:MC0203J22010600005","2024-12-16T02:15:00",7.4,33.462322,0.245],
    [41203,"urn:WaterMeter:MC0203J22010600005","2024-12-16T02:30:00",7.3,33.468956,0.248],
    [41204,"urn:WaterMeter:MC0203J22010600005","2024-12-16T02:45:00",7.3,33.49184,0.252],
    [41205,"urn:WaterMeter:MC0203J22010600005","2024-12-16T03:00:00",7.199,33.467793,0.254],
    [41206,"urn:WaterMeter:MC0203J22010600005","2024-12-16T03:15:00",7.099,33.487186,0.241],
    [41207,"urn:WaterMeter:MC0203J22010600005","2024-12-16T03:30:00",7,33.460033,0.251],
    [41208,"urn:WaterMeter:MC0203J22010600005","2024-12-16T03:45:00",7,33.452274,0.248],
    [41209,"urn:WaterMeter:MC0203J22010600005","2024-12-16T04:00:00",7,33.45848,0.24],
    [41210,"urn:WaterMeter:MC0203J22010600005","2024-12-16T04:15:00",6.9,33.50189,0.24],
    [41211,"urn:WaterMeter:MC0203J22010600005","2024-12-16T04:30:00",6.9,33.48327,0.251],
    [41212,"urn:WaterMeter:MC0203J22010600005","2024-12-16T04:45:00",6.8,33.48098,0.248],
    [41213,"urn:WaterMeter:MC0203J22010600005","2024-12-16T05:00:00",6.699,33.39564,0.247],
    [41214,"urn:WaterMeter:MC0203J22010600005","2024-12-16T05:15:00",6.8,33.463486,0.251],
    [41215,"urn:WaterMeter:MC0203J22010600005","2024-12-16T05:30:00",7.099,33.437923,0.249],
    [41216,"urn:WaterMeter:MC0203J22010600005","2024-12-16T05:45:00",7.199,33.516277,0.249],
    [41217,"urn:WaterMeter:MC0203J22010600005","2024-12-16T06:00:00",7.199,34.05003,0.263],
    [41218,"urn:WaterMeter:MC0203J22010600005","2024-12-16T06:15:00",7.3,34.955387,0.263],
    [41219,"urn:WaterMeter:MC0203J22010600005","2024-12-16T06:30:00",7.3,35.792824,0.274],
    [41220,"urn:WaterMeter:MC0203J22010600005","2024-12-16T06:45:00",7.3,36.368896,0.275],
    [41221,"urn:WaterMeter:MC0203J22010600005","2024-12-16T07:00:00",7.4,36.764942,0.287],
    [41222,"urn:WaterMeter:MC0203J22010600005","2024-12-16T07:15:00",7.4,37.06634,0.28],
    [41223,"urn:WaterMeter:MC0203J22010600005","2024-12-16T07:30:00",7.4,37.26413,0.291],
    [41224,"urn:WaterMeter:MC0203J22010600005","2024-12-16T07:45:00",7.4,37.360718,0.292],
    [41225,"urn:WaterMeter:MC0203J22010600005","2024-12-16T08:00:00",7.4,37.43985,0.302],
    [41226,"urn:WaterMeter:MC0203J22010600005","2024-12-16T08:15:00",7.4,37.19202,0.293],
    [41227,"urn:WaterMeter:MC0203J22010600005","2024-12-16T08:30:00",7.3,36.887478,0.279],
    [41228,"urn:WaterMeter:MC0203J22010600005","2024-12-16T08:45:00",7.3,36.747486,0.275],
    [41229,"urn:WaterMeter:MC0203J22010600005","2024-12-16T09:00:00",7.4,36.63073,0.282],
    [41230,"urn:WaterMeter:MC0203J22010600005","2024-12-16T09:15:00",7.699,36.52712,0.268],
    [41231,"urn:WaterMeter:MC0203J22010600005","2024-12-16T09:30:00",8,36.46971,0.284],
    [41232,"urn:WaterMeter:MC0203J22010600005","2024-12-16T09:45:00",8.3,36.386738,0.275],
    [41233,"urn:WaterMeter:MC0203J22010600005","2024-12-16T10:00:00",8.6,36.31649,0.278],
    [41234,"urn:WaterMeter:MC0203J22010600005","2024-12-16T10:15:00",8.899,36.2393,0.27],
    [41235,"urn:WaterMeter:MC0203J22010600005","2024-12-16T10:30:00",9.199,36.16292,0.27],
    [41236,"urn:WaterMeter:MC0203J22010600005","2024-12-16T10:45:00",9.399,36.11168,0.282],
    [41237,"urn:WaterMeter:MC0203J22010600005","2024-12-16T11:00:00",9.699,35.992634,0.274],
    [41238,"urn:WaterMeter:MC0203J22010600005","2024-12-16T11:15:00",9.8,35.89139,0.27],
    [41239,"urn:WaterMeter:MC0203J22010600005","2024-12-16T11:30:00",10,35.859932,0.279],
    [41240,"urn:WaterMeter:MC0203J22010600005","2024-12-16T11:45:00",10.1,35.830452,0.264],
    [41241,"urn:WaterMeter:MC0203J22010600005","2024-12-16T12:00:00",10.199,35.768814,0.257],
    [41242,"urn:WaterMeter:MC0203J22010600005","2024-12-16T12:15:00",10.3,35.56245,0.269],
    [41243,"urn:WaterMeter:MC0203J22010600005","2024-12-16T12:30:00",10.3,35.500347,0.265],
    [41244,"urn:WaterMeter:MC0203J22010600005","2024-12-16T12:45:00",10.399,35.49143,0.271],
    [41245,"urn:WaterMeter:MC0203J22010600005","2024-12-16T13:00:00",10.399,35.453026,0.262],
    [41246,"urn:WaterMeter:MC0203J22010600005","2024-12-16T13:15:00",10.5,35.434017,0.273],
    [41247,"urn:WaterMeter:MC0203J22010600005","2024-12-16T13:30:00",10.6,35.392162,0.256],
    [41248,"urn:WaterMeter:MC0203J22010600005","2024-12-16T13:45:00",10.6,35.36152,0.253],
    [41249,"urn:WaterMeter:MC0203J22010600005","2024-12-16T14:00:00",10.699,35.364197,0.267],
    [41250,"urn:WaterMeter:MC0203J22010600005","2024-12-16T14:15:00",10.8,35.264156,0.263],
    [41251,"urn:WaterMeter:MC0203J22010600005","2024-12-16T14:30:00",10.8,35.297867,0.258],
    [41252,"urn:WaterMeter:MC0203J22010600005","2024-12-16T14:45:00",10.8,35.24282,0.268],
    [41253,"urn:WaterMeter:MC0203J22010600005","2024-12-16T15:00:00",10.899,35.22149,0.263],
    [41254,"urn:WaterMeter:MC0203J22010600005","2024-12-16T15:15:00",10.899,35.237778,0.272],
    [41255,"urn:WaterMeter:MC0203J22010600005","2024-12-16T15:30:00",10.899,35.23157,0.27],
    [41256,"urn:WaterMeter:MC0203J22010600005","2024-12-16T15:45:00",10.899,35.20787,0.265],
    [41257,"urn:WaterMeter:MC0203J22010600005","2024-12-16T16:00:00",10.8,35.252132,0.255],
    [41258,"urn:WaterMeter:MC0203J22010600005","2024-12-16T16:15:00",10.8,35.24705,0.265],
    [41259,"urn:WaterMeter:MC0203J22010600005","2024-12-16T16:30:00",10.699,35.189255,0.263],
    [41260,"urn:WaterMeter:MC0203J22010600005","2024-12-16T16:45:00",10.6,35.150074,0.268],
    [41261,"urn:WaterMeter:MC0203J22010600005","2024-12-16T17:00:00",10.5,35.15826,0.265],
    [41262,"urn:WaterMeter:MC0203J22010600005","2024-12-16T17:15:00",10.399,35.10124,0.276],
    [41263,"urn:WaterMeter:MC0203J22010600005","2024-12-16T17:30:00",10.3,35.21722,0.27],
    [41264,"urn:WaterMeter:MC0203J22010600005","2024-12-16T17:45:00",10.1,35.166405,0.267],
    [41265,"urn:WaterMeter:MC0203J22010600005","2024-12-16T18:00:00",10,35.172184,0.278],
    [41266,"urn:WaterMeter:MC0203J22010600005","2024-12-16T18:15:00",9.899,35.195885,0.262],
    [41267,"urn:WaterMeter:MC0203J22010600005","2024-12-16T18:30:00",9.8,35.196274,0.262],
    [41268,"urn:WaterMeter:MC0203J22010600005","2024-12-16T18:45:00",9.699,35.172184,0.275],
    [41269,"urn:WaterMeter:MC0203J22010600005","2024-12-16T19:00:00",9.6,35.262604,0.271],
    [41270,"urn:WaterMeter:MC0203J22010600005","2024-12-16T19:15:00",9.399,35.23196,0.278],
    [41271,"urn:WaterMeter:MC0203J22010600005","2024-12-16T19:30:00",9.3,35.20287,0.265],
    [41272,"urn:WaterMeter:MC0203J22010600005","2024-12-16T19:45:00",9.199,35.13421,0.269],
    [41273,"urn:WaterMeter:MC0203J22010600005","2024-12-16T20:00:00",9.1,35.194336,0.268],
    [41274,"urn:WaterMeter:MC0203J22010600005","2024-12-16T20:15:00",9,35.22459,0.277],
    [41275,"urn:WaterMeter:MC0203J22010600005","2024-12-16T20:30:00",8.899,35.21761,0.274],
    [41276,"urn:WaterMeter:MC0203J22010600005","2024-12-16T20:45:00",8.8,35.235065,0.27],
    [41277,"urn:WaterMeter:MC0203J22010600005","2024-12-16T21:00:00",8.699,35.126453,0.276],
    [41278,"urn:WaterMeter:MC0203J22010600005","2024-12-16T21:15:00",8.6,35.1718,0.257],
    [41279,"urn:WaterMeter:MC0203J22010600005","2024-12-16T21:30:00",8.5,35.14546,0.269],
    [41280,"urn:WaterMeter:MC0203J22010600005","2024-12-16T21:45:00",8.399,35.185024,0.273],
    [41281,"urn:WaterMeter:MC0203J22010600005","2024-12-16T22:00:00",8.399,35.160976,0.275],
    [41282,"urn:WaterMeter:MC0203J22010600005","2024-12-16T22:15:00",8.3,35.152016,0.274],
    [41283,"urn:WaterMeter:MC0203J22010600005","2024-12-16T22:30:00",8.199,35.164856,0.275],
    [41284,"urn:WaterMeter:MC0203J22010600005","2024-12-16T22:45:00",8.1,35.182697,0.261],
    [41285,"urn:WaterMeter:MC0203J22010600005","2024-12-16T23:00:00",8.1,35.167957,0.273],
    [41286,"urn:WaterMeter:MC0203J22010600005","2024-12-16T23:15:00",8,35.17688,0.272],
    [41287,"urn:WaterMeter:MC0203J22010600005","2024-12-16T23:30:00",7.9,35.16602,0.274],
    [41288,"urn:WaterMeter:MC0203J22010600005","2024-12-16T23:45:00",7.8,35.107445,0.273],
    [41289,"urn:WaterMeter:MC0203J22010600005","2024-12-17T00:00:00",7.8,35.11245,0.267],
    [41290,"urn:WaterMeter:MC0203J22010600005","2024-12-17T00:15:00",7.699,35.09344,0.264],
    [41291,"urn:WaterMeter:MC0203J22010600005","2024-12-17T00:30:00",7.599,35.08452,0.254],
    [41292,"urn:WaterMeter:MC0203J22010600005","2024-12-17T00:45:00",7.5,35.156708,0.267],
    [41293,"urn:WaterMeter:MC0203J22010600005","2024-12-17T01:00:00",7.5,35.181107,0.273],
    [41294,"urn:WaterMeter:MC0203J22010600005","2024-12-17T01:15:00",7.4,35.203644,0.27],
    [41295,"urn:WaterMeter:MC0203J22010600005","2024-12-17T01:30:00",7.4,35.184635,0.273],
    [41296,"urn:WaterMeter:MC0203J22010600005","2024-12-17T01:45:00",7.3,35.19899,0.271],
    [41297,"urn:WaterMeter:MC0203J22010600005","2024-12-17T02:00:00",7.3,35.169857,0.271],
    [41298,"urn:WaterMeter:MC0203J22010600005","2024-12-17T02:15:00",7.199,35.162487,0.263],
    [41299,"urn:WaterMeter:MC0203J22010600005","2024-12-17T02:30:00",7.199,35.18037,0.273],
    [41300,"urn:WaterMeter:MC0203J22010600005","2024-12-17T02:45:00",7.099,35.20128,0.255],
    [41301,"urn:WaterMeter:MC0203J22010600005","2024-12-17T03:00:00",7.099,35.191967,0.271],
    [41302,"urn:WaterMeter:MC0203J22010600005","2024-12-17T03:15:00",7,35.20865,0.271],
    [41303,"urn:WaterMeter:MC0203J22010600005","2024-12-17T03:30:00",6.9,35.18347,0.271],
    [41304,"urn:WaterMeter:MC0203J22010600005","2024-12-17T03:45:00",6.9,35.200115,0.27],
    [41305,"urn:WaterMeter:MC0203J22010600005","2024-12-17T04:00:00",6.8,35.21373,0.268],
    [41306,"urn:WaterMeter:MC0203J22010600005","2024-12-17T04:15:00",6.8,35.193947,0.259],
    [41307,"urn:WaterMeter:MC0203J22010600005","2024-12-17T04:30:00",6.699,35.233124,0.275],
    [41308,"urn:WaterMeter:MC0203J22010600005","2024-12-17T04:45:00",6.699,35.18347,0.271],
    [41309,"urn:WaterMeter:MC0203J22010600005","2024-12-17T05:00:00",6.699,35.238903,0.272],
    [41310,"urn:WaterMeter:MC0203J22010600005","2024-12-17T05:15:00",6.8,35.212566,0.273],
    [41311,"urn:WaterMeter:MC0203J22010600005","2024-12-17T05:30:00",7,35.479053,0.261],
    [41312,"urn:WaterMeter:MC0203J22010600005","2024-12-17T05:45:00",7.099,36.320408,0.277],
    [41313,"urn:WaterMeter:MC0203J22010600005","2024-12-17T06:00:00",7.199,37.01591,0.295],
    [41314,"urn:WaterMeter:MC0203J22010600005","2024-12-17T06:15:00",7.3,37.42123,0.298],
    [41315,"urn:WaterMeter:MC0203J22010600005","2024-12-17T06:30:00",7.3,37.77034,0.285],
    [41316,"urn:WaterMeter:MC0203J22010600005","2024-12-17T06:45:00",7.4,37.946484,0.292],
    [41317,"urn:WaterMeter:MC0203J22010600005","2024-12-17T07:00:00",7.4,38.089233,0.306],
    [41318,"urn:WaterMeter:MC0203J22010600005","2024-12-17T07:15:00",7.5,38.166424,0.296],
    [41319,"urn:WaterMeter:MC0203J22010600005","2024-12-17T07:30:00",7.5,38.196255,0.307],
    [41320,"urn:WaterMeter:MC0203J22010600005","2024-12-17T07:45:00",7.5,38.262623,0.308],
    [41321,"urn:WaterMeter:MC0203J22010600005","2024-12-17T08:00:00",7.599,38.29284,0.31],
    [41322,"urn:WaterMeter:MC0203J22010600005","2024-12-17T08:15:00",7.5,38.160217,0.308],
    [41323,"urn:WaterMeter:MC0203J22010600005","2024-12-17T08:30:00",7.5,38.013554,0.309],
    [41324,"urn:WaterMeter:MC0203J22010600005","2024-12-17T08:45:00",7.5,37.74788,0.304],
    [41325,"urn:WaterMeter:MC0203J22010600005","2024-12-17T09:00:00",7.599,37.566303,0.3],
    [41326,"urn:WaterMeter:MC0203J22010600005","2024-12-17T09:15:00",7.699,37.37472,0.292],
    [41327,"urn:WaterMeter:MC0203J22010600005","2024-12-17T09:30:00",7.9,37.067505,0.293],
    [41328,"urn:WaterMeter:MC0203J22010600005","2024-12-17T09:45:00",8.1,36.977898,0.29],
    [41329,"urn:WaterMeter:MC0203J22010600005","2024-12-17T10:00:00",8.399,36.88674,0.289],
    [41330,"urn:WaterMeter:MC0203J22010600005","2024-12-17T10:15:00",8.699,36.836315,0.286],
    [41331,"urn:WaterMeter:MC0203J22010600005","2024-12-17T10:30:00",9,36.67491,0.285],
    [41332,"urn:WaterMeter:MC0203J22010600005","2024-12-17T10:45:00",9.199,36.583405,0.28],
    [41333,"urn:WaterMeter:MC0203J22010600005","2024-12-17T11:00:00",9.399,36.497677,0.281],
    [41334,"urn:WaterMeter:MC0203J22010600005","2024-12-17T11:15:00",9.6,36.43286,0.282],
    [41335,"urn:WaterMeter:MC0203J22010600005","2024-12-17T11:30:00",9.699,36.393684,0.282],
    [41336,"urn:WaterMeter:MC0203J22010600005","2024-12-17T11:45:00",9.899,36.261448,0.279],
    [41337,"urn:WaterMeter:MC0203J22010600005","2024-12-17T12:00:00",10,36.231968,0.281],
    [41338,"urn:WaterMeter:MC0203J22010600005","2024-12-17T12:15:00",10,36.230804,0.282],
    [41339,"urn:WaterMeter:MC0203J22010600005","2024-12-17T12:30:00",10.1,36.184254,0.265],
    [41340,"urn:WaterMeter:MC0203J22010600005","2024-12-17T12:45:00",10.199,36.14077,0.28],
    [41341,"urn:WaterMeter:MC0203J22010600005","2024-12-17T13:00:00",10.3,36.095425,0.27],
    [41342,"urn:WaterMeter:MC0203J22010600005","2024-12-17T13:15:00",10.399,35.987976,0.278],
    [41343,"urn:WaterMeter:MC0203J22010600005","2024-12-17T13:30:00",10.5,35.89372,0.279],
    [41344,"urn:WaterMeter:MC0203J22010600005","2024-12-17T13:45:00",10.699,35.807606,0.276],
    [41345,"urn:WaterMeter:MC0203J22010600005","2024-12-17T14:00:00",10.699,35.787434,0.273],
    [41346,"urn:WaterMeter:MC0203J22010600005","2024-12-17T14:15:00",10.699,35.73119,0.266],
    [41347,"urn:WaterMeter:MC0203J22010600005","2024-12-17T14:30:00",10.8,35.76222,0.275],
    [41348,"urn:WaterMeter:MC0203J22010600005","2024-12-17T14:45:00",10.8,35.71645,0.277],
    [41349,"urn:WaterMeter:MC0203J22010600005","2024-12-17T15:00:00",10.8,35.717224,0.277],
    [41350,"urn:WaterMeter:MC0203J22010600005","2024-12-17T15:15:00",10.8,35.674904,0.27],
    [41351,"urn:WaterMeter:MC0203J22010600005","2024-12-17T15:30:00",10.699,35.62758,0.273],
    [41352,"urn:WaterMeter:MC0203J22010600005","2024-12-17T15:45:00",10.699,35.558533,0.274],
    [41353,"urn:WaterMeter:MC0203J22010600005","2024-12-17T16:00:00",10.6,35.573315,0.276],
    [41354,"urn:WaterMeter:MC0203J22010600005","2024-12-17T16:15:00",10.6,35.53914,0.273],
    [41355,"urn:WaterMeter:MC0203J22010600005","2024-12-17T16:30:00",10.5,35.610165,0.275],
    [41356,"urn:WaterMeter:MC0203J22010600005","2024-12-17T16:45:00",10.5,35.565556,0.277],
    [41357,"urn:WaterMeter:MC0203J22010600005","2024-12-17T17:00:00",10.399,35.561287,0.278],
    [41358,"urn:WaterMeter:MC0203J22010600005","2024-12-17T17:15:00",10.3,35.61788,0.267],
    [41359,"urn:WaterMeter:MC0203J22010600005","2024-12-17T17:30:00",10.3,35.583786,0.277],
    [41360,"urn:WaterMeter:MC0203J22010600005","2024-12-17T17:45:00",10.199,35.642746,0.282],
    [41361,"urn:WaterMeter:MC0203J22010600005","2024-12-17T18:00:00",10.1,35.53875,0.276],
    [41362,"urn:WaterMeter:MC0203J22010600005","2024-12-17T18:15:00",10,35.55353,0.282],
    [41363,"urn:WaterMeter:MC0203J22010600005","2024-12-17T18:30:00",9.899,35.589993,0.283],
    [41364,"urn:WaterMeter:MC0203J22010600005","2024-12-17T18:45:00",9.8,35.556984,0.28],
    [41365,"urn:WaterMeter:MC0203J22010600005","2024-12-17T19:00:00",9.699,35.45341,0.281],
    [41366,"urn:WaterMeter:MC0203J22010600005","2024-12-17T19:15:00",9.6,35.50349,0.279],
    [41367,"urn:WaterMeter:MC0203J22010600005","2024-12-17T19:30:00",9.5,35.456165,0.276],
    [41368,"urn:WaterMeter:MC0203J22010600005","2024-12-17T19:45:00",9.399,35.500736,0.274],
    [41369,"urn:WaterMeter:MC0203J22010600005","2024-12-17T20:00:00",9.3,35.428238,0.271],
    [41370,"urn:WaterMeter:MC0203J22010600005","2024-12-17T20:15:00",9.199,35.463924,0.273],
    [41371,"urn:WaterMeter:MC0203J22010600005","2024-12-17T20:30:00",9.1,35.558533,0.274],
    [41372,"urn:WaterMeter:MC0203J22010600005","2024-12-17T20:45:00",9,35.512413,0.278],
    [41373,"urn:WaterMeter:MC0203J22010600005","2024-12-17T21:00:00",8.899,35.46311,0.273],
    [41374,"urn:WaterMeter:MC0203J22010600005","2024-12-17T21:15:00",8.8,35.46625,0.271],
    [41375,"urn:WaterMeter:MC0203J22010600005","2024-12-17T21:30:00",8.8,35.449184,0.276],
    [41376,"urn:WaterMeter:MC0203J22010600005","2024-12-17T21:45:00",8.699,35.434406,0.261],
    [41377,"urn:WaterMeter:MC0203J22010600005","2024-12-17T22:00:00",8.699,35.425137,0.274],
    [41378,"urn:WaterMeter:MC0203J22010600005","2024-12-17T22:15:00",8.6,35.415012,0.277],
    [41379,"urn:WaterMeter:MC0203J22010600005","2024-12-17T22:30:00",8.5,35.403763,0.276],
    [41380,"urn:WaterMeter:MC0203J22010600005","2024-12-17T22:45:00",8.5,35.4294,0.276],
    [41381,"urn:WaterMeter:MC0203J22010600005","2024-12-17T23:00:00",8.399,35.417767,0.273],
    [41382,"urn:WaterMeter:MC0203J22010600005","2024-12-17T23:15:00",8.399,35.404926,0.27],
    [41383,"urn:WaterMeter:MC0203J22010600005","2024-12-17T23:30:00",8.3,35.40531,0.274],
    [41384,"urn:WaterMeter:MC0203J22010600005","2024-12-17T23:45:00",8.199,35.37622,0.268],
    [41385,"urn:WaterMeter:MC0203J22010600005","2024-12-18T00:00:00",8.199,35.366135,0.267],
    [41386,"urn:WaterMeter:MC0203J22010600005","2024-12-18T00:15:00",8.1,35.4026,0.276],
    [41387,"urn:WaterMeter:MC0203J22010600005","2024-12-18T00:30:00",8.1,35.37467,0.275],
    [41388,"urn:WaterMeter:MC0203J22010600005","2024-12-18T00:45:00",8,35.38751,0.273],
    [41389,"urn:WaterMeter:MC0203J22010600005","2024-12-18T01:00:00",8,35.35221,0.269],
    [41390,"urn:WaterMeter:MC0203J22010600005","2024-12-18T01:15:00",8,35.37238,0.27],
    [41391,"urn:WaterMeter:MC0203J22010600005","2024-12-18T01:30:00",7.9,35.35958,0.26],
    [41392,"urn:WaterMeter:MC0203J22010600005","2024-12-18T01:45:00",7.9,35.303722,0.272],
    [41393,"urn:WaterMeter:MC0203J22010600005","2024-12-18T02:00:00",7.9,35.342514,0.265],
    [41394,"urn:WaterMeter:MC0203J22010600005","2024-12-18T02:15:00",7.8,35.341347,0.279],
    [41395,"urn:WaterMeter:MC0203J22010600005","2024-12-18T02:30:00",7.8,35.35764,0.256],
    [41396,"urn:WaterMeter:MC0203J22010600005","2024-12-18T02:45:00",7.699,35.314972,0.278],
    [41397,"urn:WaterMeter:MC0203J22010600005","2024-12-18T03:00:00",7.699,35.33165,0.269],
    [41398,"urn:WaterMeter:MC0203J22010600005","2024-12-18T03:15:00",7.699,35.31381,0.268],
    [41399,"urn:WaterMeter:MC0203J22010600005","2024-12-18T03:30:00",7.699,35.31148,0.269],
    [41400,"urn:WaterMeter:MC0203J22010600005","2024-12-18T03:45:00",7.699,35.301785,0.269],
    [41401,"urn:WaterMeter:MC0203J22010600005","2024-12-18T04:00:00",7.699,35.27696,0.27],
    [41402,"urn:WaterMeter:MC0203J22010600005","2024-12-18T04:15:00",7.699,35.288944,0.27],
    [41403,"urn:WaterMeter:MC0203J22010600005","2024-12-18T04:30:00",7.699,35.293636,0.282],
    [41404,"urn:WaterMeter:MC0203J22010600005","2024-12-18T04:45:00",7.699,35.323505,0.271],
    [41405,"urn:WaterMeter:MC0203J22010600005","2024-12-18T05:00:00",7.699,35.25795,0.268],
    [41406,"urn:WaterMeter:MC0203J22010600005","2024-12-18T05:15:00",7.9,35.28937,0.27],
    [41407,"urn:WaterMeter:MC0203J22010600005","2024-12-18T05:30:00",8.1,35.602016,0.27],
    [41408,"urn:WaterMeter:MC0203J22010600005","2024-12-18T05:45:00",8.199,36.381695,0.276],
    [41409,"urn:WaterMeter:MC0203J22010600005","2024-12-18T06:00:00",8.3,36.99846,0.292],
    [41410,"urn:WaterMeter:MC0203J22010600005","2024-12-18T06:15:00",8.3,37.361492,0.281],
    [41411,"urn:WaterMeter:MC0203J22010600005","2024-12-18T06:30:00",8.3,37.597374,0.287],
    [41412,"urn:WaterMeter:MC0203J22010600005","2024-12-18T06:45:00",8.399,37.713745,0.299],
    [41413,"urn:WaterMeter:MC0203J22010600005","2024-12-18T07:00:00",8.399,37.82042,0.285],
    [41414,"urn:WaterMeter:MC0203J22010600005","2024-12-18T07:15:00",8.399,37.858006,0.296],
    [41415,"urn:WaterMeter:MC0203J22010600005","2024-12-18T07:30:00",8.399,37.97131,0.278],
    [41416,"urn:WaterMeter:MC0203J22010600005","2024-12-18T07:45:00",8.5,38.097378,0.289],
    [41417,"urn:WaterMeter:MC0203J22010600005","2024-12-18T08:00:00",8.5,38.171856,0.292],
    [41418,"urn:WaterMeter:MC0203J22010600005","2024-12-18T08:15:00",8.5,38.15983,0.302],
    [41419,"urn:WaterMeter:MC0203J22010600005","2024-12-18T08:30:00",8.399,37.972088,0.302],
    [41420,"urn:WaterMeter:MC0203J22010600005","2024-12-18T08:45:00",8.5,37.77581,0.298],
    [41421,"urn:WaterMeter:MC0203J22010600005","2024-12-18T09:00:00",8.6,37.490704,0.29],
    [41422,"urn:WaterMeter:MC0203J22010600005","2024-12-18T09:15:00",8.899,37.26921,0.274],
    [41423,"urn:WaterMeter:MC0203J22010600005","2024-12-18T09:30:00",9.199,36.917736,0.275],
    [41424,"urn:WaterMeter:MC0203J22010600005","2024-12-18T09:45:00",9.5,36.814205,0.281],
    [41425,"urn:WaterMeter:MC0203J22010600005","2024-12-18T10:00:00",9.899,36.73818,0.279],
    [41426,"urn:WaterMeter:MC0203J22010600005","2024-12-18T10:15:00",10.199,36.594265,0.277],
    [41427,"urn:WaterMeter:MC0203J22010600005","2024-12-18T10:30:00",10.399,36.413853,0.271],
    [41428,"urn:WaterMeter:MC0203J22010600005","2024-12-18T10:45:00",10.699,36.371223,0.273],
    [41429,"urn:WaterMeter:MC0203J22010600005","2024-12-18T11:00:00",10.899,36.332783,0.281],
    [41430,"urn:WaterMeter:MC0203J22010600005","2024-12-18T11:15:00",11.199,36.25369,0.272],
    [41431,"urn:WaterMeter:MC0203J22010600005","2024-12-18T11:30:00",11.3,36.153225,0.26],
    [41432,"urn:WaterMeter:MC0203J22010600005","2024-12-18T11:45:00",11.5,36.159004,0.284],
    [41433,"urn:WaterMeter:MC0203J22010600005","2024-12-18T12:00:00",11.6,36.062416,0.274],
    [41434,"urn:WaterMeter:MC0203J22010600005","2024-12-18T12:15:00",11.699,35.990307,0.264],
    [41435,"urn:WaterMeter:MC0203J22010600005","2024-12-18T12:30:00",11.8,36.012417,0.266],
    [41436,"urn:WaterMeter:MC0203J22010600005","2024-12-18T12:45:00",11.899,35.916992,0.255],
    [41437,"urn:WaterMeter:MC0203J22010600005","2024-12-18T13:00:00",12,35.79752,0.29],
    [41438,"urn:WaterMeter:MC0203J22010600005","2024-12-18T13:15:00",12.199,35.74748,0.287],
    [41439,"urn:WaterMeter:MC0203J22010600005","2024-12-18T13:30:00",12.399,35.686966,0.27],
    [41440,"urn:WaterMeter:MC0203J22010600005","2024-12-18T13:45:00",12.5,35.704037,0.27],
    [41441,"urn:WaterMeter:MC0203J22010600005","2024-12-18T14:00:00",12.6,35.62758,0.272],
    [41442,"urn:WaterMeter:MC0203J22010600005","2024-12-18T14:15:00",12.699,35.595425,0.263],
    [41443,"urn:WaterMeter:MC0203J22010600005","2024-12-18T14:30:00",12.699,35.53336,0.263],
    [41444,"urn:WaterMeter:MC0203J22010600005","2024-12-18T14:45:00",12.8,35.521294,0.271],
    [41445,"urn:WaterMeter:MC0203J22010600005","2024-12-18T15:00:00",12.8,35.528316,0.269],
    [41446,"urn:WaterMeter:MC0203J22010600005","2024-12-18T15:15:00",12.8,35.430954,0.278],
    [41447,"urn:WaterMeter:MC0203J22010600005","2024-12-18T15:30:00",12.899,35.454227,0.27],
    [41448,"urn:WaterMeter:MC0203J22010600005","2024-12-18T15:45:00",12.8,35.439877,0.274],
    [41449,"urn:WaterMeter:MC0203J22010600005","2024-12-18T16:00:00",12.8,35.408066,0.273],
    [41450,"urn:WaterMeter:MC0203J22010600005","2024-12-18T16:15:00",12.699,35.371216,0.28],
    [41451,"urn:WaterMeter:MC0203J22010600005","2024-12-18T16:30:00",12.6,35.36695,0.267],
    [41452,"urn:WaterMeter:MC0203J22010600005","2024-12-18T16:45:00",12.5,35.40031,0.271],
    [41453,"urn:WaterMeter:MC0203J22010600005","2024-12-18T17:00:00",12.399,35.367725,0.256],
    [41454,"urn:WaterMeter:MC0203J22010600005","2024-12-18T17:15:00",12.199,35.352596,0.272],
    [41455,"urn:WaterMeter:MC0203J22010600005","2024-12-18T17:30:00",12.1,35.345577,0.27],
    [41456,"urn:WaterMeter:MC0203J22010600005","2024-12-18T17:45:00",12,35.30217,0.291],
    [41457,"urn:WaterMeter:MC0203J22010600005","2024-12-18T18:00:00",11.899,35.35764,0.264],
    [41458,"urn:WaterMeter:MC0203J22010600005","2024-12-18T18:15:00",11.8,35.4263,0.27],
    [41459,"urn:WaterMeter:MC0203J22010600005","2024-12-18T18:30:00",11.699,35.403763,0.277],
    [41460,"urn:WaterMeter:MC0203J22010600005","2024-12-18T18:45:00",11.6,35.36113,0.29],
    [41461,"urn:WaterMeter:MC0203J22010600005","2024-12-18T19:00:00",11.5,35.408066,0.279],
    [41462,"urn:WaterMeter:MC0203J22010600005","2024-12-18T19:15:00",11.399,35.384365,0.277],
    [41463,"urn:WaterMeter:MC0203J22010600005","2024-12-18T19:30:00",11.3,35.321953,0.277],
    [41464,"urn:WaterMeter:MC0203J22010600005","2024-12-18T19:45:00",11.199,35.36575,0.265],
    [41465,"urn:WaterMeter:MC0203J22010600005","2024-12-18T20:00:00",11.1,35.318035,0.277],
    [41466,"urn:WaterMeter:MC0203J22010600005","2024-12-18T20:15:00",11,35.397594,0.289],
    [41467,"urn:WaterMeter:MC0203J22010600005","2024-12-18T20:30:00",11,35.337044,0.269],
    [41468,"urn:WaterMeter:MC0203J22010600005","2024-12-18T20:45:00",10.899,35.319626,0.275],
    [41469,"urn:WaterMeter:MC0203J22010600005","2024-12-18T21:00:00",10.899,35.364197,0.264],
    [41470,"urn:WaterMeter:MC0203J22010600005","2024-12-18T21:15:00",10.8,35.36152,0.27],
    [41471,"urn:WaterMeter:MC0203J22010600005","2024-12-18T21:30:00",10.8,35.342514,0.27],
    [41472,"urn:WaterMeter:MC0203J22010600005","2024-12-18T21:45:00",10.699,35.288944,0.279],
    [41473,"urn:WaterMeter:MC0203J22010600005","2024-12-18T22:00:00",10.6,35.325794,0.268],
    [41474,"urn:WaterMeter:MC0203J22010600005","2024-12-18T22:15:00",10.6,35.335144,0.27],
    [41475,"urn:WaterMeter:MC0203J22010600005","2024-12-18T22:30:00",10.5,35.269974,0.274],
    [41476,"urn:WaterMeter:MC0203J22010600005","2024-12-18T22:45:00",10.399,35.29131,0.263],
    [41477,"urn:WaterMeter:MC0203J22010600005","2024-12-18T23:00:00",10.399,35.288555,0.267],
    [41478,"urn:WaterMeter:MC0203J22010600005","2024-12-18T23:15:00",10.3,35.311092,0.27],
    [41479,"urn:WaterMeter:MC0203J22010600005","2024-12-18T23:30:00",10.3,35.248215,0.273],
    [41480,"urn:WaterMeter:MC0203J22010600005","2024-12-18T23:45:00",10.199,35.235065,0.28],
    [41481,"urn:WaterMeter:MC0203J22010600005","2024-12-19T00:00:00",10.199,35.240067,0.256],
    [41482,"urn:WaterMeter:MC0203J22010600005","2024-12-19T00:15:00",10.1,35.271137,0.265],
    [41483,"urn:WaterMeter:MC0203J22010600005","2024-12-19T00:30:00",10.1,35.233513,0.278],
    [41484,"urn:WaterMeter:MC0203J22010600005","2024-12-19T00:45:00",10,35.228043,0.265],
    [41485,"urn:WaterMeter:MC0203J22010600005","2024-12-19T01:00:00",10,35.20248,0.275],
    [41486,"urn:WaterMeter:MC0203J22010600005","2024-12-19T01:15:00",10,35.2583,0.28],
    [41487,"urn:WaterMeter:MC0203J22010600005","2024-12-19T01:30:00",10,35.22843,0.278],
    [41488,"urn:WaterMeter:MC0203J22010600005","2024-12-19T01:45:00",9.899,35.242046,0.272],
    [41489,"urn:WaterMeter:MC0203J22010600005","2024-12-19T02:00:00",9.899,35.211365,0.27],
    [41490,"urn:WaterMeter:MC0203J22010600005","2024-12-19T02:15:00",9.899,35.215282,0.271],
    [41491,"urn:WaterMeter:MC0203J22010600005","2024-12-19T02:30:00",9.899,35.19472,0.277],
    [41492,"urn:WaterMeter:MC0203J22010600005","2024-12-19T02:45:00",9.8,35.197826,0.276],
    [41493,"urn:WaterMeter:MC0203J22010600005","2024-12-19T03:00:00",9.8,35.223427,0.262],
    [41494,"urn:WaterMeter:MC0203J22010600005","2024-12-19T03:15:00",9.8,35.18813,0.265],
    [41495,"urn:WaterMeter:MC0203J22010600005","2024-12-19T03:30:00",9.899,35.14193,0.264],
    [41496,"urn:WaterMeter:MC0203J22010600005","2024-12-19T03:45:00",9.899,35.1718,0.266],
    [41497,"urn:WaterMeter:MC0203J22010600005","2024-12-19T04:00:00",9.899,35.18813,0.274],
    [41498,"urn:WaterMeter:MC0203J22010600005","2024-12-19T04:15:00",9.8,35.17998,0.265],
    [41499,"urn:WaterMeter:MC0203J22010600005","2024-12-19T04:30:00",9.899,35.16524,0.273],
    [41500,"urn:WaterMeter:MC0203J22010600005","2024-12-19T04:45:00",9.899,35.150074,0.265],
    [41501,"urn:WaterMeter:MC0203J22010600005","2024-12-19T05:00:00",10,35.055428,0.267],
    [41502,"urn:WaterMeter:MC0203J22010600005","2024-12-19T05:15:00",10.1,35.053875,0.28],
    [41503,"urn:WaterMeter:MC0203J22010600005","2024-12-19T05:30:00",10.3,35.31303,0.258],
    [41504,"urn:WaterMeter:MC0203J22010600005","2024-12-19T05:45:00",10.399,36.074055,0.276],
    [41505,"urn:WaterMeter:MC0203J22010600005","2024-12-19T06:00:00",10.5,36.653614,0.285],
    [41506,"urn:WaterMeter:MC0203J22010600005","2024-12-19T06:15:00",10.5,37.088837,0.285],
    [41507,"urn:WaterMeter:MC0203J22010600005","2024-12-19T06:30:00",10.5,37.28314,0.312],
    [41508,"urn:WaterMeter:MC0203J22010600005","2024-12-19T06:45:00",10.5,37.52561,0.285],
    [41509,"urn:WaterMeter:MC0203J22010600005","2024-12-19T07:00:00",10.5,37.658665,0.297],
    [41510,"urn:WaterMeter:MC0203J22010600005","2024-12-19T07:15:00",10.6,37.64466,0.286],
    [41511,"urn:WaterMeter:MC0203J22010600005","2024-12-19T07:30:00",10.6,37.78857,0.307],
    [41512,"urn:WaterMeter:MC0203J22010600005","2024-12-19T07:45:00",10.6,37.826973,0.304],
    [41513,"urn:WaterMeter:MC0203J22010600005","2024-12-19T08:00:00",10.6,37.99187,0.294],
    [41514,"urn:WaterMeter:MC0203J22010600005","2024-12-19T08:15:00",10.699,37.946484,0.317],
    [41515,"urn:WaterMeter:MC0203J22010600005","2024-12-19T08:30:00",10.699,37.802963,0.313],
    [41516,"urn:WaterMeter:MC0203J22010600005","2024-12-19T08:45:00",10.699,37.486435,0.29],
    [41517,"urn:WaterMeter:MC0203J22010600005","2024-12-19T09:00:00",10.699,37.233135,0.298],
    [41518,"urn:WaterMeter:MC0203J22010600005","2024-12-19T09:15:00",10.8,36.99221,0.298],
    [41519,"urn:WaterMeter:MC0203J22010600005","2024-12-19T09:30:00",10.8,36.84446,0.283],
    [41520,"urn:WaterMeter:MC0203J22010600005","2024-12-19T09:45:00",10.899,36.755245,0.286],
    [41521,"urn:WaterMeter:MC0203J22010600005","2024-12-19T10:00:00",11,36.659046,0.302],
    [41522,"urn:WaterMeter:MC0203J22010600005","2024-12-19T10:15:00",11.1,36.579525,0.276],
    [41523,"urn:WaterMeter:MC0203J22010600005","2024-12-19T10:30:00",11.199,36.4938,0.273],
    [41524,"urn:WaterMeter:MC0203J22010600005","2024-12-19T10:45:00",11.3,36.437164,0.282],
    [41525,"urn:WaterMeter:MC0203J22010600005","2024-12-19T11:00:00",11.399,36.3258,0.287],
    [41526,"urn:WaterMeter:MC0203J22010600005","2024-12-19T11:15:00",11.5,36.299072,0.282],
    [41527,"urn:WaterMeter:MC0203J22010600005","2024-12-19T11:30:00",11.6,36.292866,0.303],
    [41528,"urn:WaterMeter:MC0203J22010600005","2024-12-19T11:45:00",11.699,36.250587,0.278],
    [41529,"urn:WaterMeter:MC0203J22010600005","2024-12-19T12:00:00",11.8,36.234684,0.278],
    [41530,"urn:WaterMeter:MC0203J22010600005","2024-12-19T12:15:00",11.8,36.136154,0.27],
    [41531,"urn:WaterMeter:MC0203J22010600005","2024-12-19T12:30:00",11.899,36.145077,0.281],
    [41532,"urn:WaterMeter:MC0203J22010600005","2024-12-19T12:45:00",12,35.98639,0.279],
    [41533,"urn:WaterMeter:MC0203J22010600005","2024-12-19T13:00:00",12.1,35.94566,0.281],
    [41534,"urn:WaterMeter:MC0203J22010600005","2024-12-19T13:15:00",12.1,35.865013,0.289],
    [41535,"urn:WaterMeter:MC0203J22010600005","2024-12-19T13:30:00",12.199,35.812607,0.277],
    [41536,"urn:WaterMeter:MC0203J22010600005","2024-12-19T13:45:00",12.199,35.80489,0.279],
    [41537,"urn:WaterMeter:MC0203J22010600005","2024-12-19T14:00:00",12.3,35.735027,0.281],
    [41538,"urn:WaterMeter:MC0203J22010600005","2024-12-19T14:15:00",12.3,35.712917,0.271],
    [41539,"urn:WaterMeter:MC0203J22010600005","2024-12-19T14:30:00",12.3,35.734253,0.267],
    [41540,"urn:WaterMeter:MC0203J22010600005","2024-12-19T14:45:00",12.3,35.69546,0.277],
    [41541,"urn:WaterMeter:MC0203J22010600005","2024-12-19T15:00:00",12.3,35.670677,0.272],
    [41542,"urn:WaterMeter:MC0203J22010600005","2024-12-19T15:15:00",12.399,35.55931,0.296],
    [41543,"urn:WaterMeter:MC0203J22010600005","2024-12-19T15:30:00",12.399,35.604733,0.294],
    [41544,"urn:WaterMeter:MC0203J22010600005","2024-12-19T15:45:00",12.399,35.53646,0.272],
    [41545,"urn:WaterMeter:MC0203J22010600005","2024-12-19T16:00:00",12.3,35.52948,0.284],
    [41546,"urn:WaterMeter:MC0203J22010600005","2024-12-19T16:15:00",12.3,35.5512,0.277],
    [41547,"urn:WaterMeter:MC0203J22010600005","2024-12-19T16:30:00",12.3,35.51435,0.312],
    [41548,"urn:WaterMeter:MC0203J22010600005","2024-12-19T16:45:00",12.3,35.476727,0.276],
    [41549,"urn:WaterMeter:MC0203J22010600005","2024-12-19T17:00:00",12.3,35.4744,0.278],
    [41550,"urn:WaterMeter:MC0203J22010600005","2024-12-19T17:15:00",12.3,35.476727,0.276],
    [41551,"urn:WaterMeter:MC0203J22010600005","2024-12-19T17:30:00",12.3,35.392162,0.269],
    [41552,"urn:WaterMeter:MC0203J22010600005","2024-12-19T17:45:00",12.3,35.397984,0.274],
    [41553,"urn:WaterMeter:MC0203J22010600005","2024-12-19T18:00:00",12.3,35.4538,0.277],
    [41554,"urn:WaterMeter:MC0203J22010600005","2024-12-19T18:15:00",12.3,35.411945,0.284],
    [41555,"urn:WaterMeter:MC0203J22010600005","2024-12-19T18:30:00",12.199,35.404537,0.291],
    [41556,"urn:WaterMeter:MC0203J22010600005","2024-12-19T18:45:00",12.199,35.351433,0.269],
    [41557,"urn:WaterMeter:MC0203J22010600005","2024-12-19T19:00:00",12.1,35.387897,0.274],
    [41558,"urn:WaterMeter:MC0203J22010600005","2024-12-19T19:15:00",12,35.306786,0.278],
    [41559,"urn:WaterMeter:MC0203J22010600005","2024-12-19T19:30:00",11.899,35.33743,0.282],
    [41560,"urn:WaterMeter:MC0203J22010600005","2024-12-19T19:45:00",11.8,35.297478,0.266],
    [41561,"urn:WaterMeter:MC0203J22010600005","2024-12-19T20:00:00",11.699,35.3448,0.276],
    [41562,"urn:WaterMeter:MC0203J22010600005","2024-12-19T20:15:00",11.6,35.34329,0.268],
    [41563,"urn:WaterMeter:MC0203J22010600005","2024-12-19T20:30:00",11.399,35.305237,0.285],
    [41564,"urn:WaterMeter:MC0203J22010600005","2024-12-19T20:45:00",11.3,35.326183,0.297],
    [41565,"urn:WaterMeter:MC0203J22010600005","2024-12-19T21:00:00",11.199,35.273853,0.273],
    [41566,"urn:WaterMeter:MC0203J22010600005","2024-12-19T21:15:00",11.1,35.31148,0.287],
    [41567,"urn:WaterMeter:MC0203J22010600005","2024-12-19T21:30:00",11,35.24899,0.28],
    [41568,"urn:WaterMeter:MC0203J22010600005","2024-12-19T21:45:00",10.899,35.29907,0.281],
    [41569,"urn:WaterMeter:MC0203J22010600005","2024-12-19T22:00:00",10.8,35.237392,0.281],
    [41570,"urn:WaterMeter:MC0203J22010600005","2024-12-19T22:15:00",10.8,35.237392,0.28],
    [41571,"urn:WaterMeter:MC0203J22010600005","2024-12-19T22:30:00",10.699,35.218773,0.268],
    [41572,"urn:WaterMeter:MC0203J22010600005","2024-12-19T22:45:00",10.6,35.281612,0.268],
    [41573,"urn:WaterMeter:MC0203J22010600005","2024-12-19T23:00:00",10.5,35.229595,0.269],
    [41574,"urn:WaterMeter:MC0203J22010600005","2024-12-19T23:15:00",10.399,35.19821,0.277],
    [41575,"urn:WaterMeter:MC0203J22010600005","2024-12-19T23:30:00",10.3,35.28623,0.271],
    [41576,"urn:WaterMeter:MC0203J22010600005","2024-12-19T23:45:00",10.199,35.242435,0.284],
    [41577,"urn:WaterMeter:MC0203J22010600005","2024-12-20T00:00:00",10.199,35.246315,0.27],
    [41578,"urn:WaterMeter:MC0203J22010600005","2024-12-20T00:15:00",10.1,35.188866,0.267],
    [41579,"urn:WaterMeter:MC0203J22010600005","2024-12-20T00:30:00",10,35.186966,0.275],
    [41580,"urn:WaterMeter:MC0203J22010600005","2024-12-20T00:45:00",9.899,35.244762,0.278],
    [41581,"urn:WaterMeter:MC0203J22010600005","2024-12-20T01:00:00",9.899,35.210976,0.282],
    [41582,"urn:WaterMeter:MC0203J22010600005","2024-12-20T01:15:00",9.899,35.24282,0.266],
    [41583,"urn:WaterMeter:MC0203J22010600005","2024-12-20T01:30:00",9.899,35.20675,0.268],
    [41584,"urn:WaterMeter:MC0203J22010600005","2024-12-20T01:45:00",9.899,35.211365,0.279],
    [41585,"urn:WaterMeter:MC0203J22010600005","2024-12-20T02:00:00",10,35.193947,0.266],
    [41586,"urn:WaterMeter:MC0203J22010600005","2024-12-20T02:15:00",10.1,35.193172,0.278],
    [41587,"urn:WaterMeter:MC0203J22010600005","2024-12-20T02:30:00",10,35.210976,0.257],
    [41588,"urn:WaterMeter:MC0203J22010600005","2024-12-20T02:45:00",10.1,35.167183,0.262],
    [41589,"urn:WaterMeter:MC0203J22010600005","2024-12-20T03:00:00",10.1,35.13964,0.301],
    [41590,"urn:WaterMeter:MC0203J22010600005","2024-12-20T03:15:00",10.1,35.16369,0.268],
    [41591,"urn:WaterMeter:MC0203J22010600005","2024-12-20T03:30:00",10.1,35.11016,0.272],
    [41592,"urn:WaterMeter:MC0203J22010600005","2024-12-20T03:45:00",10.1,35.11016,0.275],
    [41593,"urn:WaterMeter:MC0203J22010600005","2024-12-20T04:00:00",10,35.11947,0.269],
    [41594,"urn:WaterMeter:MC0203J22010600005","2024-12-20T04:15:00",10,35.13421,0.262],
    [41595,"urn:WaterMeter:MC0203J22010600005","2024-12-20T04:30:00",9.899,35.11792,0.267],
    [41596,"urn:WaterMeter:MC0203J22010600005","2024-12-20T04:45:00",9.899,35.08805,0.269],
    [41597,"urn:WaterMeter:MC0203J22010600005","2024-12-20T05:00:00",9.899,35.11167,0.269],
    [41598,"urn:WaterMeter:MC0203J22010600005","2024-12-20T05:15:00",9.899,35.119083,0.27],
    [41599,"urn:WaterMeter:MC0203J22010600005","2024-12-20T05:30:00",10,35.426685,0.272],
    [41600,"urn:WaterMeter:MC0203J22010600005","2024-12-20T05:45:00",10.1,36.265327,0.279],
    [41601,"urn:WaterMeter:MC0203J22010600005","2024-12-20T06:00:00",10.1,36.82584,0.286],
    [41602,"urn:WaterMeter:MC0203J22010600005","2024-12-20T06:15:00",10,37.241673,0.299],
    [41603,"urn:WaterMeter:MC0203J22010600005","2024-12-20T06:30:00",10.1,37.41929,0.299],
    [41604,"urn:WaterMeter:MC0203J22010600005","2024-12-20T06:45:00",10.1,37.590782,0.299],
    [41605,"urn:WaterMeter:MC0203J22010600005","2024-12-20T07:00:00",10,37.72616,0.322],
    [41606,"urn:WaterMeter:MC0203J22010600005","2024-12-20T07:15:00",10,37.8402,0.31],
    [41607,"urn:WaterMeter:MC0203J22010600005","2024-12-20T07:30:00",10,37.885933,0.328],
    [41608,"urn:WaterMeter:MC0203J22010600005","2024-12-20T07:45:00",10,38.026005,0.292],
    [41609,"urn:WaterMeter:MC0203J22010600005","2024-12-20T08:00:00",10,38.08419,0.313],
    [41610,"urn:WaterMeter:MC0203J22010600005","2024-12-20T08:15:00",9.899,37.98446,0.301],
    [41611,"urn:WaterMeter:MC0203J22010600005","2024-12-20T08:30:00",9.8,37.822746,0.313],
    [41612,"urn:WaterMeter:MC0203J22010600005","2024-12-20T08:45:00",9.699,37.554317,0.298],
    [41613,"urn:WaterMeter:MC0203J22010600005","2024-12-20T09:00:00",9.8,37.28663,0.301],
    [41614,"urn:WaterMeter:MC0203J22010600005","2024-12-20T09:15:00",9.899,37.113663,0.291],
    [41615,"urn:WaterMeter:MC0203J22010600005","2024-12-20T09:30:00",10.199,36.94803,0.291],
    [41616,"urn:WaterMeter:MC0203J22010600005","2024-12-20T09:45:00",10.399,36.79287,0.312],
    [41617,"urn:WaterMeter:MC0203J22010600005","2024-12-20T10:00:00",10.699,36.676888,0.286],
    [41618,"urn:WaterMeter:MC0203J22010600005","2024-12-20T10:15:00",10.8,36.607414,0.271],
    [41619,"urn:WaterMeter:MC0203J22010600005","2024-12-20T10:30:00",10.899,36.494576,0.266],
    [41620,"urn:WaterMeter:MC0203J22010600005","2024-12-20T10:45:00",11,36.41075,0.277],
    [41621,"urn:WaterMeter:MC0203J22010600005","2024-12-20T11:00:00",11.1,36.34019,0.298],
    [41622,"urn:WaterMeter:MC0203J22010600005","2024-12-20T11:15:00",11.199,36.333946,0.285],
    [41623,"urn:WaterMeter:MC0203J22010600005","2024-12-20T11:30:00",11.199,36.254467,0.28],
    [41624,"urn:WaterMeter:MC0203J22010600005","2024-12-20T11:45:00",11.3,36.240112,0.284],
    [41625,"urn:WaterMeter:MC0203J22010600005","2024-12-20T12:00:00",11.399,36.04457,0.286],
    [41626,"urn:WaterMeter:MC0203J22010600005","2024-12-20T12:15:00",11.399,35.93445,0.271],
    [41627,"urn:WaterMeter:MC0203J22010600005","2024-12-20T12:30:00",11.5,35.958496,0.271],
    [41628,"urn:WaterMeter:MC0203J22010600005","2024-12-20T12:45:00",11.5,35.859196,0.272],
    [41629,"urn:WaterMeter:MC0203J22010600005","2024-12-20T13:00:00",11.6,35.865402,0.298],
    [41630,"urn:WaterMeter:MC0203J22010600005","2024-12-20T13:15:00",11.6,35.769978,0.278],
    [41631,"urn:WaterMeter:MC0203J22010600005","2024-12-20T13:30:00",11.6,35.71994,0.27],
    [41632,"urn:WaterMeter:MC0203J22010600005","2024-12-20T13:45:00",11.6,35.65706,0.268],
    [41633,"urn:WaterMeter:MC0203J22010600005","2024-12-20T14:00:00",11.6,35.632275,0.272],
    [41634,"urn:WaterMeter:MC0203J22010600005","2024-12-20T14:15:00",11.699,35.67145,0.284],
    [41635,"urn:WaterMeter:MC0203J22010600005","2024-12-20T14:30:00",11.699,35.62758,0.266],
    [41636,"urn:WaterMeter:MC0203J22010600005","2024-12-20T14:45:00",11.699,35.541893,0.274],
    [41637,"urn:WaterMeter:MC0203J22010600005","2024-12-20T15:00:00",11.699,35.489525,0.267],
    [41638,"urn:WaterMeter:MC0203J22010600005","2024-12-20T15:15:00",11.6,35.521294,0.271],
    [41639,"urn:WaterMeter:MC0203J22010600005","2024-12-20T15:30:00",11.6,35.454227,0.278],
    [41640,"urn:WaterMeter:MC0203J22010600005","2024-12-20T15:45:00",11.5,35.52909,0.287],
    [41641,"urn:WaterMeter:MC0203J22010600005","2024-12-20T16:00:00",11.5,35.534134,0.279],
    [41642,"urn:WaterMeter:MC0203J22010600005","2024-12-20T16:15:00",11.399,35.48836,0.282],
    [41643,"urn:WaterMeter:MC0203J22010600005","2024-12-20T16:30:00",11.3,35.47242,0.289],
    [41644,"urn:WaterMeter:MC0203J22010600005","2024-12-20T16:45:00",11.199,35.408455,0.263],
    [41645,"urn:WaterMeter:MC0203J22010600005","2024-12-20T17:00:00",11.1,35.4744,0.276],
    [41646,"urn:WaterMeter:MC0203J22010600005","2024-12-20T17:15:00",11,35.40415,0.291],
    [41647,"urn:WaterMeter:MC0203J22010600005","2024-12-20T17:30:00",10.899,35.380527,0.271],
    [41648,"urn:WaterMeter:MC0203J22010600005","2024-12-20T17:45:00",10.699,35.448795,0.265],
    [41649,"urn:WaterMeter:MC0203J22010600005","2024-12-20T18:00:00",10.6,35.434834,0.271],
    [41650,"urn:WaterMeter:MC0203J22010600005","2024-12-20T18:15:00",10.5,35.37393,0.268],
    [41651,"urn:WaterMeter:MC0203J22010600005","2024-12-20T18:30:00",10.3,35.40221,0.281],
    [41652,"urn:WaterMeter:MC0203J22010600005","2024-12-20T18:45:00",10.199,35.385143,0.273],
    [41653,"urn:WaterMeter:MC0203J22010600005","2024-12-20T19:00:00",10.1,35.33902,0.278],
    [41654,"urn:WaterMeter:MC0203J22010600005","2024-12-20T19:15:00",9.899,35.380913,0.276],
    [41655,"urn:WaterMeter:MC0203J22010600005","2024-12-20T19:30:00",9.8,35.388283,0.271],
    [41656,"urn:WaterMeter:MC0203J22010600005","2024-12-20T19:45:00",9.699,35.321568,0.277],
    [41657,"urn:WaterMeter:MC0203J22010600005","2024-12-20T20:00:00",9.6,35.32463,0.272],
    [41658,"urn:WaterMeter:MC0203J22010600005","2024-12-20T20:15:00",9.5,35.32816,0.268],
    [41659,"urn:WaterMeter:MC0203J22010600005","2024-12-20T20:30:00",9.3,35.349106,0.274],
    [41660,"urn:WaterMeter:MC0203J22010600005","2024-12-20T20:45:00",9.199,35.357254,0.276],
    [41661,"urn:WaterMeter:MC0203J22010600005","2024-12-20T21:00:00",9.199,35.35605,0.27],
    [41662,"urn:WaterMeter:MC0203J22010600005","2024-12-20T21:15:00",9.1,35.359966,0.282],
    [41663,"urn:WaterMeter:MC0203J22010600005","2024-12-20T21:30:00",9,35.306786,0.273],
    [41664,"urn:WaterMeter:MC0203J22010600005","2024-12-20T21:45:00",8.899,35.330875,0.262],
    [41665,"urn:WaterMeter:MC0203J22010600005","2024-12-20T22:00:00",8.8,35.316483,0.279],
    [41666,"urn:WaterMeter:MC0203J22010600005","2024-12-20T22:15:00",8.699,35.336655,0.271],
    [41667,"urn:WaterMeter:MC0203J22010600005","2024-12-20T22:30:00",8.6,35.323895,0.279],
    [41668,"urn:WaterMeter:MC0203J22010600005","2024-12-20T22:45:00",8.5,35.320015,0.263],
    [41669,"urn:WaterMeter:MC0203J22010600005","2024-12-20T23:00:00",8.399,35.30601,0.271],
    [41670,"urn:WaterMeter:MC0203J22010600005","2024-12-20T23:15:00",8.3,35.311092,0.274],
    [41671,"urn:WaterMeter:MC0203J22010600005","2024-12-20T23:30:00",8.199,35.32502,0.27],
    [41672,"urn:WaterMeter:MC0203J22010600005","2024-12-20T23:45:00",8.1,35.29907,0.267],
    [41673,"urn:WaterMeter:MC0203J22010600005","2024-12-21T00:00:00",8.1,35.32463,0.277],
    [41674,"urn:WaterMeter:MC0203J22010600005","2024-12-21T00:15:00",8,35.305622,0.276],
    [41675,"urn:WaterMeter:MC0203J22010600005","2024-12-21T00:30:00",7.9,35.300617,0.275],
    [41676,"urn:WaterMeter:MC0203J22010600005","2024-12-21T00:45:00",7.9,35.310318,0.27],
    [41677,"urn:WaterMeter:MC0203J22010600005","2024-12-21T01:00:00",7.9,35.282387,0.268],
    [41678,"urn:WaterMeter:MC0203J22010600005","2024-12-21T01:15:00",7.8,35.2948,0.269],
    [41679,"urn:WaterMeter:MC0203J22010600005","2024-12-21T01:30:00",7.699,35.26493,0.275],
    [41680,"urn:WaterMeter:MC0203J22010600005","2024-12-21T01:45:00",7.699,35.288166,0.271],
    [41681,"urn:WaterMeter:MC0203J22010600005","2024-12-21T02:00:00",7.599,35.26761,0.272],
    [41682,"urn:WaterMeter:MC0203J22010600005","2024-12-21T02:15:00",7.599,35.262604,0.271],
    [41683,"urn:WaterMeter:MC0203J22010600005","2024-12-21T02:30:00",7.5,35.269974,0.277],
    [41684,"urn:WaterMeter:MC0203J22010600005","2024-12-21T02:45:00",7.5,35.251743,0.271],
    [41685,"urn:WaterMeter:MC0203J22010600005","2024-12-21T03:00:00",7.5,35.28045,0.272],
    [41686,"urn:WaterMeter:MC0203J22010600005","2024-12-21T03:15:00",7.4,35.25485,0.27],
    [41687,"urn:WaterMeter:MC0203J22010600005","2024-12-21T03:30:00",7.4,35.240067,0.274],
    [41688,"urn:WaterMeter:MC0203J22010600005","2024-12-21T03:45:00",7.4,35.2723,0.261],
    [41689,"urn:WaterMeter:MC0203J22010600005","2024-12-21T04:00:00",7.4,35.235065,0.279],
    [41690,"urn:WaterMeter:MC0203J22010600005","2024-12-21T04:15:00",7.3,35.256397,0.272],
    [41691,"urn:WaterMeter:MC0203J22010600005","2024-12-21T04:30:00",7.199,35.263382,0.273],
    [41692,"urn:WaterMeter:MC0203J22010600005","2024-12-21T04:45:00",7.199,35.24705,0.269],
    [41693,"urn:WaterMeter:MC0203J22010600005","2024-12-21T05:00:00",7.099,35.238903,0.265],
    [41694,"urn:WaterMeter:MC0203J22010600005","2024-12-21T05:15:00",7.099,35.229595,0.263],
    [41695,"urn:WaterMeter:MC0203J22010600005","2024-12-21T05:30:00",7.099,35.24282,0.279],
    [41696,"urn:WaterMeter:MC0203J22010600005","2024-12-21T05:45:00",7,35.251743,0.267],
    [41697,"urn:WaterMeter:MC0203J22010600005","2024-12-21T06:00:00",7,35.233513,0.268],
    [41698,"urn:WaterMeter:MC0203J22010600005","2024-12-21T06:15:00",7,35.210976,0.268],
    [41699,"urn:WaterMeter:MC0203J22010600005","2024-12-21T06:30:00",6.9,35.215282,0.259],
    [41700,"urn:WaterMeter:MC0203J22010600005","2024-12-21T06:45:00",6.9,35.228817,0.264],
    [41701,"urn:WaterMeter:MC0203J22010600005","2024-12-21T07:00:00",6.9,35.226143,0.262],
    [41702,"urn:WaterMeter:MC0203J22010600005","2024-12-21T07:15:00",6.9,35.20597,0.264],
    [41703,"urn:WaterMeter:MC0203J22010600005","2024-12-21T07:30:00",6.9,35.19899,0.267],
    [41704,"urn:WaterMeter:MC0203J22010600005","2024-12-21T07:45:00",6.8,35.194336,0.264],
    [41705,"urn:WaterMeter:MC0203J22010600005","2024-12-21T08:00:00",6.8,35.193172,0.261],
    [41706,"urn:WaterMeter:MC0203J22010600005","2024-12-21T08:15:00",6.8,35.205196,0.28],
    [41707,"urn:WaterMeter:MC0203J22010600005","2024-12-21T08:30:00",6.8,35.197437,0.262],
    [41708,"urn:WaterMeter:MC0203J22010600005","2024-12-21T08:45:00",6.9,35.215282,0.273],
    [41709,"urn:WaterMeter:MC0203J22010600005","2024-12-21T09:00:00",7.099,35.159813,0.267],
    [41710,"urn:WaterMeter:MC0203J22010600005","2024-12-21T09:15:00",7.4,35.170635,0.268],
    [41711,"urn:WaterMeter:MC0203J22010600005","2024-12-21T09:30:00",7.699,35.1602,0.251],
    [41712,"urn:WaterMeter:MC0203J22010600005","2024-12-21T09:45:00",8,35.126064,0.253],
    [41713,"urn:WaterMeter:MC0203J22010600005","2024-12-21T10:00:00",8.3,35.10822,0.276],
    [41714,"urn:WaterMeter:MC0203J22010600005","2024-12-21T10:15:00",8.5,35.055817,0.26],
    [41715,"urn:WaterMeter:MC0203J22010600005","2024-12-21T10:30:00",8.699,34.9934,0.257],
    [41716,"urn:WaterMeter:MC0203J22010600005","2024-12-21T10:45:00",8.899,35.003876,0.279],
    [41717,"urn:WaterMeter:MC0203J22010600005","2024-12-21T11:00:00",9.1,34.94953,0.268],
    [41718,"urn:WaterMeter:MC0203J22010600005","2024-12-21T11:15:00",9.3,34.930138,0.256],
    [41719,"urn:WaterMeter:MC0203J22010600005","2024-12-21T11:30:00",9.399,34.839367,0.258],
    [41720,"urn:WaterMeter:MC0203J22010600005","2024-12-21T11:45:00",9.5,34.860703,0.25],
    [41721,"urn:WaterMeter:MC0203J22010600005","2024-12-21T12:00:00",9.699,34.848328,0.255],
    [41722,"urn:WaterMeter:MC0203J22010600005","2024-12-21T12:15:00",9.8,34.79829,0.255],
    [41723,"urn:WaterMeter:MC0203J22010600005","2024-12-21T12:30:00",9.899,34.77381,0.267],
    [41724,"urn:WaterMeter:MC0203J22010600005","2024-12-21T12:45:00",10,34.77967,0.259],
    [41725,"urn:WaterMeter:MC0203J22010600005","2024-12-21T13:00:00",10.1,34.699375,0.262],
    [41726,"urn:WaterMeter:MC0203J22010600005","2024-12-21T13:15:00",10.199,34.66559,0.261],
    [41727,"urn:WaterMeter:MC0203J22010600005","2024-12-21T13:30:00",10.3,34.71679,0.257],
    [41728,"urn:WaterMeter:MC0203J22010600005","2024-12-21T13:45:00",10.399,34.65593,0.258],
    [41729,"urn:WaterMeter:MC0203J22010600005","2024-12-21T14:00:00",10.399,34.569,0.26],
    [41730,"urn:WaterMeter:MC0203J22010600005","2024-12-21T14:15:00",10.5,34.598133,0.263],
    [41731,"urn:WaterMeter:MC0203J22010600005","2024-12-21T14:30:00",10.5,34.56749,0.256],
    [41732,"urn:WaterMeter:MC0203J22010600005","2024-12-21T14:45:00",10.5,34.567837,0.262],
    [41733,"urn:WaterMeter:MC0203J22010600005","2024-12-21T15:00:00",10.6,34.560078,0.254],
    [41734,"urn:WaterMeter:MC0203J22010600005","2024-12-21T15:15:00",10.6,34.548443,0.257],
    [41735,"urn:WaterMeter:MC0203J22010600005","2024-12-21T15:30:00",10.6,34.536842,0.263],
    [41736,"urn:WaterMeter:MC0203J22010600005","2024-12-21T15:45:00",10.6,34.45616,0.262],
    [41737,"urn:WaterMeter:MC0203J22010600005","2024-12-21T16:00:00",10.5,34.434013,0.252],
    [41738,"urn:WaterMeter:MC0203J22010600005","2024-12-21T16:15:00",10.399,34.44685,0.261],
    [41739,"urn:WaterMeter:MC0203J22010600005","2024-12-21T16:30:00",10.3,34.4825,0.256],
    [41740,"urn:WaterMeter:MC0203J22010600005","2024-12-21T16:45:00",10.1,34.49142,0.259],
    [41741,"urn:WaterMeter:MC0203J22010600005","2024-12-21T17:00:00",10,34.484867,0.268],
    [41742,"urn:WaterMeter:MC0203J22010600005","2024-12-21T17:15:00",9.8,34.49883,0.256],
    [41743,"urn:WaterMeter:MC0203J22010600005","2024-12-21T17:30:00",9.699,34.50038,0.256],
    [41744,"urn:WaterMeter:MC0203J22010600005","2024-12-21T17:45:00",9.5,34.51198,0.267],
    [41745,"urn:WaterMeter:MC0203J22010600005","2024-12-21T18:00:00",9.399,34.496113,0.256],
    [41746,"urn:WaterMeter:MC0203J22010600005","2024-12-21T18:15:00",9.3,34.494175,0.273],
    [41747,"urn:WaterMeter:MC0203J22010600005","2024-12-21T18:30:00",9.1,34.52168,0.266],
    [41748,"urn:WaterMeter:MC0203J22010600005","2024-12-21T18:45:00",9,34.506588,0.254],
    [41749,"urn:WaterMeter:MC0203J22010600005","2024-12-21T19:00:00",8.899,34.496502,0.263],
    [41750,"urn:WaterMeter:MC0203J22010600005","2024-12-21T19:15:00",8.8,34.50306,0.258],
    [41751,"urn:WaterMeter:MC0203J22010600005","2024-12-21T19:30:00",8.6,34.5062,0.254],
    [41752,"urn:WaterMeter:MC0203J22010600005","2024-12-21T19:45:00",8.5,34.522842,0.263],
    [41753,"urn:WaterMeter:MC0203J22010600005","2024-12-21T20:00:00",8.399,34.516674,0.268],
    [41754,"urn:WaterMeter:MC0203J22010600005","2024-12-21T20:15:00",8.3,34.520554,0.262],
    [41755,"urn:WaterMeter:MC0203J22010600005","2024-12-21T20:30:00",8.199,34.489132,0.265],
    [41756,"urn:WaterMeter:MC0203J22010600005","2024-12-21T20:45:00",8.1,34.52831,0.259],
    [41757,"urn:WaterMeter:MC0203J22010600005","2024-12-21T21:00:00",8,34.534904,0.26],
    [41758,"urn:WaterMeter:MC0203J22010600005","2024-12-21T21:15:00",8,34.523655,0.264],
    [41759,"urn:WaterMeter:MC0203J22010600005","2024-12-21T21:30:00",7.9,34.51551,0.26],
    [41760,"urn:WaterMeter:MC0203J22010600005","2024-12-21T21:45:00",7.9,34.54499,0.259],
    [41761,"urn:WaterMeter:MC0203J22010600005","2024-12-21T22:00:00",7.8,34.514732,0.275],
    [41762,"urn:WaterMeter:MC0203J22010600005","2024-12-21T22:15:00",7.699,34.516674,0.273],
    [41763,"urn:WaterMeter:MC0203J22010600005","2024-12-21T22:30:00",7.599,34.505035,0.253],
    [41764,"urn:WaterMeter:MC0203J22010600005","2024-12-21T22:45:00",7.599,34.540337,0.265],
    [41765,"urn:WaterMeter:MC0203J22010600005","2024-12-21T23:00:00",7.5,34.54693,0.274],
    [41766,"urn:WaterMeter:MC0203J22010600005","2024-12-21T23:15:00",7.5,34.544212,0.256],
    [41767,"urn:WaterMeter:MC0203J22010600005","2024-12-21T23:30:00",7.4,34.543438,0.262],
    [41768,"urn:WaterMeter:MC0203J22010600005","2024-12-21T23:45:00",7.4,34.549606,0.255],
    [41769,"urn:WaterMeter:MC0203J22010600005","2024-12-22T00:00:00",7.4,34.53374,0.257],
    [41770,"urn:WaterMeter:MC0203J22010600005","2024-12-22T00:15:00",7.3,34.538395,0.256],
    [41771,"urn:WaterMeter:MC0203J22010600005","2024-12-22T00:30:00",7.3,34.569,0.257],
    [41772,"urn:WaterMeter:MC0203J22010600005","2024-12-22T00:45:00",7.3,34.53254,0.253],
    [41773,"urn:WaterMeter:MC0203J22010600005","2024-12-22T01:00:00",7.3,34.542664,0.258],
    [41774,"urn:WaterMeter:MC0203J22010600005","2024-12-22T01:15:00",7.199,34.53176,0.262],
    [41775,"urn:WaterMeter:MC0203J22010600005","2024-12-22T01:30:00",7.199,34.544212,0.262],
    [41776,"urn:WaterMeter:MC0203J22010600005","2024-12-22T01:45:00",7.099,34.520164,0.273],
    [41777,"urn:WaterMeter:MC0203J22010600005","2024-12-22T02:00:00",7.099,34.507362,0.26],
    [41778,"urn:WaterMeter:MC0203J22010600005","2024-12-22T02:15:00",7,34.53762,0.254],
    [41779,"urn:WaterMeter:MC0203J22010600005","2024-12-22T02:30:00",7,34.53568,0.262],
    [41780,"urn:WaterMeter:MC0203J22010600005","2024-12-22T02:45:00",7,34.503872,0.257],
    [41781,"urn:WaterMeter:MC0203J22010600005","2024-12-22T03:00:00",7,34.473965,0.262],
    [41782,"urn:WaterMeter:MC0203J22010600005","2024-12-22T03:15:00",7,34.54305,0.271],
    [41783,"urn:WaterMeter:MC0203J22010600005","2024-12-22T03:30:00",7,34.54538,0.254],
    [41784,"urn:WaterMeter:MC0203J22010600005","2024-12-22T03:45:00",6.9,34.51512,0.255],
    [41785,"urn:WaterMeter:MC0203J22010600005","2024-12-22T04:00:00",6.9,34.503872,0.264],
    [41786,"urn:WaterMeter:MC0203J22010600005","2024-12-22T04:15:00",6.8,34.512756,0.262],
    [41787,"urn:WaterMeter:MC0203J22010600005","2024-12-22T04:30:00",6.8,34.505814,0.26],
    [41788,"urn:WaterMeter:MC0203J22010600005","2024-12-22T04:45:00",6.699,34.50426,0.266],
    [41789,"urn:WaterMeter:MC0203J22010600005","2024-12-22T05:00:00",6.699,34.51512,0.259],
    [41790,"urn:WaterMeter:MC0203J22010600005","2024-12-22T05:15:00",6.699,34.525597,0.262],
    [41791,"urn:WaterMeter:MC0203J22010600005","2024-12-22T05:30:00",6.699,34.511204,0.261],
    [41792,"urn:WaterMeter:MC0203J22010600005","2024-12-22T05:45:00",6.599,34.512367,0.254],
    [41793,"urn:WaterMeter:MC0203J22010600005","2024-12-22T06:00:00",6.599,34.52168,0.254],
    [41794,"urn:WaterMeter:MC0203J22010600005","2024-12-22T06:15:00",6.599,34.505424,0.261],
    [41795,"urn:WaterMeter:MC0203J22010600005","2024-12-22T06:30:00",6.599,34.50814,0.261],
    [41796,"urn:WaterMeter:MC0203J22010600005","2024-12-22T06:45:00",6.599,34.508915,0.255],
    [41797,"urn:WaterMeter:MC0203J22010600005","2024-12-22T07:00:00",6.599,34.50465,0.265],
    [41798,"urn:WaterMeter:MC0203J22010600005","2024-12-22T07:15:00",6.599,34.51357,0.282],
    [41799,"urn:WaterMeter:MC0203J22010600005","2024-12-22T07:30:00",6.599,34.475555,0.255],
    [41800,"urn:WaterMeter:MC0203J22010600005","2024-12-22T07:45:00",6.599,34.501156,0.26],
    [41801,"urn:WaterMeter:MC0203J22010600005","2024-12-22T08:00:00",6.599,34.48564,0.259],
    [41802,"urn:WaterMeter:MC0203J22010600005","2024-12-22T08:15:00",6.599,34.487194,0.26],
    [41803,"urn:WaterMeter:MC0203J22010600005","2024-12-22T08:30:00",6.599,34.475945,0.261],
    [41804,"urn:WaterMeter:MC0203J22010600005","2024-12-22T08:45:00",6.699,34.51357,0.26],
    [41805,"urn:WaterMeter:MC0203J22010600005","2024-12-22T09:00:00",6.9,34.506977,0.258],
    [41806,"urn:WaterMeter:MC0203J22010600005","2024-12-22T09:15:00",7.199,34.47125,0.252],
    [41807,"urn:WaterMeter:MC0203J22010600005","2024-12-22T09:30:00",7.599,34.441032,0.248],
    [41808,"urn:WaterMeter:MC0203J22010600005","2024-12-22T09:45:00",7.9,34.45616,0.254],
    [41809,"urn:WaterMeter:MC0203J22010600005","2024-12-22T10:00:00",8.199,34.38479,0.254],
    [41810,"urn:WaterMeter:MC0203J22010600005","2024-12-22T10:15:00",8.5,34.354492,0.247],
    [41811,"urn:WaterMeter:MC0203J22010600005","2024-12-22T10:30:00",8.8,34.33626,0.248],
    [41812,"urn:WaterMeter:MC0203J22010600005","2024-12-22T10:45:00",9,34.280014,0.247],
    [41813,"urn:WaterMeter:MC0203J22010600005","2024-12-22T11:00:00",9.3,34.28277,0.271],
    [41814,"urn:WaterMeter:MC0203J22010600005","2024-12-22T11:15:00",9.5,34.251736,0.255],
    [41815,"urn:WaterMeter:MC0203J22010600005","2024-12-22T11:30:00",9.699,34.191227,0.246],
    [41816,"urn:WaterMeter:MC0203J22010600005","2024-12-22T11:45:00",9.899,34.143864,0.259],
    [41817,"urn:WaterMeter:MC0203J22010600005","2024-12-22T12:00:00",10,34.136143,0.263],
    [41818,"urn:WaterMeter:MC0203J22010600005","2024-12-22T12:15:00",10.199,34.043823,0.254],
    [41819,"urn:WaterMeter:MC0203J22010600005","2024-12-22T12:30:00",10.399,34.04227,0.25],
    [41820,"urn:WaterMeter:MC0203J22010600005","2024-12-22T12:45:00",10.6,34.070976,0.243],
    [41821,"urn:WaterMeter:MC0203J22010600005","2024-12-22T13:00:00",10.699,34.017796,0.243],
    [41822,"urn:WaterMeter:MC0203J22010600005","2024-12-22T13:15:00",10.899,33.979004,0.266],
    [41823,"urn:WaterMeter:MC0203J22010600005","2024-12-22T13:30:00",11,33.956158,0.238],
    [41824,"urn:WaterMeter:MC0203J22010600005","2024-12-22T13:45:00",11.199,33.870007,0.24],
    [41825,"urn:WaterMeter:MC0203J22010600005","2024-12-22T14:00:00",11.3,33.906506,0.253],
    [41826,"urn:WaterMeter:MC0203J22010600005","2024-12-22T14:15:00",11.399,33.868492,0.245],
    [41827,"urn:WaterMeter:MC0203J22010600005","2024-12-22T14:30:00",11.5,33.860348,0.235],
    [41828,"urn:WaterMeter:MC0203J22010600005","2024-12-22T14:45:00",11.6,33.812206,0.241],
    [41829,"urn:WaterMeter:MC0203J22010600005","2024-12-22T15:00:00",11.699,33.774193,0.249],
    [41830,"urn:WaterMeter:MC0203J22010600005","2024-12-22T15:15:00",11.8,33.71372,0.246],
    [41831,"urn:WaterMeter:MC0203J22010600005","2024-12-22T15:30:00",11.8,33.744366,0.25],
    [41832,"urn:WaterMeter:MC0203J22010600005","2024-12-22T15:45:00",11.8,33.725746,0.247],
    [41833,"urn:WaterMeter:MC0203J22010600005","2024-12-22T16:00:00",11.899,33.74941,0.265],
    [41834,"urn:WaterMeter:MC0203J22010600005","2024-12-22T16:15:00",11.899,33.68579,0.25],
    [41835,"urn:WaterMeter:MC0203J22010600005","2024-12-22T16:30:00",11.8,33.63614,0.251],
    [41836,"urn:WaterMeter:MC0203J22010600005","2024-12-22T16:45:00",11.6,33.62334,0.253],
    [41837,"urn:WaterMeter:MC0203J22010600005","2024-12-22T17:00:00",11.5,33.609726,0.261],
    [41838,"urn:WaterMeter:MC0203J22010600005","2024-12-22T17:15:00",11.3,33.62528,0.252],
    [41839,"urn:WaterMeter:MC0203J22010600005","2024-12-22T17:30:00",11.1,33.61011,0.253],
    [41840,"urn:WaterMeter:MC0203J22010600005","2024-12-22T17:45:00",11,33.63614,0.237],
    [41841,"urn:WaterMeter:MC0203J22010600005","2024-12-22T18:00:00",10.8,33.657047,0.248],
    [41842,"urn:WaterMeter:MC0203J22010600005","2024-12-22T18:15:00",10.699,33.638817,0.244],
    [41843,"urn:WaterMeter:MC0203J22010600005","2024-12-22T18:30:00",10.5,33.638042,0.252],
    [41844,"urn:WaterMeter:MC0203J22010600005","2024-12-22T18:45:00",10.399,33.645836,0.254],
    [41845,"urn:WaterMeter:MC0203J22010600005","2024-12-22T19:00:00",10.199,33.66946,0.242],
    [41846,"urn:WaterMeter:MC0203J22010600005","2024-12-22T19:15:00",10.1,33.64545,0.253],
    [41847,"urn:WaterMeter:MC0203J22010600005","2024-12-22T19:30:00",10,33.674156,0.243],
    [41848,"urn:WaterMeter:MC0203J22010600005","2024-12-22T19:45:00",9.899,33.71876,0.246],
    [41849,"urn:WaterMeter:MC0203J22010600005","2024-12-22T20:00:00",9.699,33.703247,0.242],
    [41850,"urn:WaterMeter:MC0203J22010600005","2024-12-22T20:15:00",9.6,33.659374,0.245],
    [41851,"urn:WaterMeter:MC0203J22010600005","2024-12-22T20:30:00",9.5,33.671825,0.26],
    [41852,"urn:WaterMeter:MC0203J22010600005","2024-12-22T20:45:00",9.5,33.690834,0.243],
    [41853,"urn:WaterMeter:MC0203J22010600005","2024-12-22T21:00:00",9.5,33.714108,0.237],
    [41854,"urn:WaterMeter:MC0203J22010600005","2024-12-22T21:15:00",9.5,33.690834,0.247],
    [41855,"urn:WaterMeter:MC0203J22010600005","2024-12-22T21:30:00",9.399,33.70092,0.243],
    [41856,"urn:WaterMeter:MC0203J22010600005","2024-12-22T21:45:00",9.399,33.666397,0.253],
    [41857,"urn:WaterMeter:MC0203J22010600005","2024-12-22T22:00:00",9.399,33.66213,0.259],
    [41858,"urn:WaterMeter:MC0203J22010600005","2024-12-22T22:15:00",9.3,33.668297,0.241],
    [41859,"urn:WaterMeter:MC0203J22010600005","2024-12-22T22:30:00",9.199,33.664455,0.26],
    [41860,"urn:WaterMeter:MC0203J22010600005","2024-12-22T22:45:00",9.1,33.655148,0.236],
    [41861,"urn:WaterMeter:MC0203J22010600005","2024-12-22T23:00:00",9,33.665234,0.246],
    [41862,"urn:WaterMeter:MC0203J22010600005","2024-12-22T23:15:00",8.899,33.611702,0.253],
    [41863,"urn:WaterMeter:MC0203J22010600005","2024-12-22T23:30:00",8.8,33.63998,0.253],
    [41864,"urn:WaterMeter:MC0203J22010600005","2024-12-22T23:45:00",8.8,33.64545,0.248],
    [41865,"urn:WaterMeter:MC0203J22010600005","2024-12-23T00:00:00",8.8,33.642345,0.251],
    [41866,"urn:WaterMeter:MC0203J22010600005","2024-12-23T00:15:00",8.8,33.648514,0.254],
    [41867,"urn:WaterMeter:MC0203J22010600005","2024-12-23T00:30:00",8.899,33.668686,0.245],
    [41868,"urn:WaterMeter:MC0203J22010600005","2024-12-23T00:45:00",9,33.639206,0.257],
    [41869,"urn:WaterMeter:MC0203J22010600005","2024-12-23T01:00:00",9.1,33.648903,0.244],
    [41870,"urn:WaterMeter:MC0203J22010600005","2024-12-23T01:15:00",9.3,33.625668,0.242],
    [41871,"urn:WaterMeter:MC0203J22010600005","2024-12-23T01:30:00",9.399,33.613644,0.245],
    [41872,"urn:WaterMeter:MC0203J22010600005","2024-12-23T01:45:00",9.5,33.602394,0.248],
    [41873,"urn:WaterMeter:MC0203J22010600005","2024-12-23T02:00:00",9.5,33.56201,0.236],
    [41874,"urn:WaterMeter:MC0203J22010600005","2024-12-23T02:15:00",9.6,33.585327,0.246],
    [41875,"urn:WaterMeter:MC0203J22010600005","2024-12-23T02:30:00",9.699,33.570934,0.237],
    [41876,"urn:WaterMeter:MC0203J22010600005","2024-12-23T02:45:00",9.699,33.551926,0.243],
    [41877,"urn:WaterMeter:MC0203J22010600005","2024-12-23T03:00:00",9.8,33.571323,0.25],
    [41878,"urn:WaterMeter:MC0203J22010600005","2024-12-23T03:15:00",9.8,33.57369,0.24],
    [41879,"urn:WaterMeter:MC0203J22010600005","2024-12-23T03:30:00",9.8,33.505417,0.241],
    [41880,"urn:WaterMeter:MC0203J22010600005","2024-12-23T03:45:00",9.8,33.528305,0.248],
    [41881,"urn:WaterMeter:MC0203J22010600005","2024-12-23T04:00:00",9.8,33.456116,0.246],
    [41882,"urn:WaterMeter:MC0203J22010600005","2024-12-23T04:15:00",9.8,33.461586,0.244],
    [41883,"urn:WaterMeter:MC0203J22010600005","2024-12-23T04:30:00",9.8,33.506195,0.242],
    [41884,"urn:WaterMeter:MC0203J22010600005","2024-12-23T04:45:00",9.8,33.476715,0.248],
    [41885,"urn:WaterMeter:MC0203J22010600005","2024-12-23T05:00:00",9.8,33.402626,0.248],
    [41886,"urn:WaterMeter:MC0203J22010600005","2024-12-23T05:15:00",9.899,33.42586,0.25],
    [41887,"urn:WaterMeter:MC0203J22010600005","2024-12-23T05:30:00",10,33.409218,0.243],
    [41888,"urn:WaterMeter:MC0203J22010600005","2024-12-23T05:45:00",10,33.49572,0.239],
    [41889,"urn:WaterMeter:MC0203J22010600005","2024-12-23T06:00:00",10,34.205967,0.259],
    [41890,"urn:WaterMeter:MC0203J22010600005","2024-12-23T06:15:00",10,35.223038,0.273],
    [41891,"urn:WaterMeter:MC0203J22010600005","2024-12-23T06:30:00",10,35.982548,0.275],
    [41892,"urn:WaterMeter:MC0203J22010600005","2024-12-23T06:45:00",10,36.489105,0.284],
    [41893,"urn:WaterMeter:MC0203J22010600005","2024-12-23T07:00:00",10,36.829296,0.28],
    [41894,"urn:WaterMeter:MC0203J22010600005","2024-12-23T07:15:00",10,37.07371,0.287],
    [41895,"urn:WaterMeter:MC0203J22010600005","2024-12-23T07:30:00",10,37.228054,0.297],
    [41896,"urn:WaterMeter:MC0203J22010600005","2024-12-23T07:45:00",10,37.335117,0.29],
    [41897,"urn:WaterMeter:MC0203J22010600005","2024-12-23T08:00:00",10,37.395668,0.291],
    [41898,"urn:WaterMeter:MC0203J22010600005","2024-12-23T08:15:00",10,37.178406,0.286],
    [41899,"urn:WaterMeter:MC0203J22010600005","2024-12-23T08:30:00",9.899,36.812267,0.296],
    [41900,"urn:WaterMeter:MC0203J22010600005","2024-12-23T08:45:00",9.899,36.669907,0.295],
    [41901,"urn:WaterMeter:MC0203J22010600005","2024-12-23T09:00:00",10,36.54729,0.292],
    [41902,"urn:WaterMeter:MC0203J22010600005","2024-12-23T09:15:00",10.199,36.44256,0.284],
    [41903,"urn:WaterMeter:MC0203J22010600005","2024-12-23T09:30:00",10.399,36.34407,0.29],
    [41904,"urn:WaterMeter:MC0203J22010600005","2024-12-23T09:45:00",10.699,36.304115,0.289],
    [41905,"urn:WaterMeter:MC0203J22010600005","2024-12-23T10:00:00",11,36.117924,0.265],
    [41906,"urn:WaterMeter:MC0203J22010600005","2024-12-23T10:15:00",11.199,36.078747,0.263],
    [41907,"urn:WaterMeter:MC0203J22010600005","2024-12-23T10:30:00",11.3,36.026768,0.26],
    [41908,"urn:WaterMeter:MC0203J22010600005","2024-12-23T10:45:00",11.399,35.928204,0.265],
    [41909,"urn:WaterMeter:MC0203J22010600005","2024-12-23T11:00:00",11.5,35.938675,0.278],
    [41910,"urn:WaterMeter:MC0203J22010600005","2024-12-23T11:15:00",11.6,35.853764,0.268],
    [41911,"urn:WaterMeter:MC0203J22010600005","2024-12-23T11:30:00",11.6,35.82739,0.268],
    [41912,"urn:WaterMeter:MC0203J22010600005","2024-12-23T11:45:00",11.699,35.595036,0.275],
    [41913,"urn:WaterMeter:MC0203J22010600005","2024-12-23T12:00:00",11.699,35.54461,0.278],
    [41914,"urn:WaterMeter:MC0203J22010600005","2024-12-23T12:15:00",11.8,35.530994,0.291],
    [41915,"urn:WaterMeter:MC0203J22010600005","2024-12-23T12:30:00",11.8,35.5019,0.261],
    [41916,"urn:WaterMeter:MC0203J22010600005","2024-12-23T12:45:00",11.899,35.4744,0.273],
    [41917,"urn:WaterMeter:MC0203J22010600005","2024-12-23T13:00:00",11.899,35.406902,0.287],
    [41918,"urn:WaterMeter:MC0203J22010600005","2024-12-23T13:15:00",12,35.39523,0.274],
    [41919,"urn:WaterMeter:MC0203J22010600005","2024-12-23T13:30:00",12,35.3204,0.271],
    [41920,"urn:WaterMeter:MC0203J22010600005","2024-12-23T13:45:00",12,35.28355,0.264],
    [41921,"urn:WaterMeter:MC0203J22010600005","2024-12-23T14:00:00",12.1,35.263767,0.257],
    [41922,"urn:WaterMeter:MC0203J22010600005","2024-12-23T14:15:00",12.1,35.284714,0.266],
    [41923,"urn:WaterMeter:MC0203J22010600005","2024-12-23T14:30:00",12.1,35.209038,0.261],
    [41924,"urn:WaterMeter:MC0203J22010600005","2024-12-23T14:45:00",12,35.178818,0.266],
    [41925,"urn:WaterMeter:MC0203J22010600005","2024-12-23T15:00:00",12,35.19821,0.261],
    [41926,"urn:WaterMeter:MC0203J22010600005","2024-12-23T15:15:00",12,35.119858,0.283],
    [41927,"urn:WaterMeter:MC0203J22010600005","2024-12-23T15:30:00",11.899,35.126064,0.26],
    [41928,"urn:WaterMeter:MC0203J22010600005","2024-12-23T15:45:00",11.899,35.114815,0.271],
    [41929,"urn:WaterMeter:MC0203J22010600005","2024-12-23T16:00:00",11.8,35.065125,0.27],
    [41930,"urn:WaterMeter:MC0203J22010600005","2024-12-23T16:15:00",11.8,35.04732,0.267],
    [41931,"urn:WaterMeter:MC0203J22010600005","2024-12-23T16:30:00",11.699,35.094994,0.259],
    [41932,"urn:WaterMeter:MC0203J22010600005","2024-12-23T16:45:00",11.6,35.031418,0.271],
    [41933,"urn:WaterMeter:MC0203J22010600005","2024-12-23T17:00:00",11.5,35.064,0.259],
    [41934,"urn:WaterMeter:MC0203J22010600005","2024-12-23T17:15:00",11.399,35.033318,0.264],
    [41935,"urn:WaterMeter:MC0203J22010600005","2024-12-23T17:30:00",11.3,35.051586,0.264],
    [41936,"urn:WaterMeter:MC0203J22010600005","2024-12-23T17:45:00",11.199,35.002712,0.268],
    [41937,"urn:WaterMeter:MC0203J22010600005","2024-12-23T18:00:00",11.1,35.08766,0.251],
    [41938,"urn:WaterMeter:MC0203J22010600005","2024-12-23T18:15:00",11,35.01047,0.258],
    [41939,"urn:WaterMeter:MC0203J22010600005","2024-12-23T18:30:00",10.899,35.034092,0.258],
    [41940,"urn:WaterMeter:MC0203J22010600005","2024-12-23T18:45:00",10.899,34.97207,0.276],
    [41941,"urn:WaterMeter:MC0203J22010600005","2024-12-23T19:00:00",10.8,35.0415,0.265],
    [41942,"urn:WaterMeter:MC0203J22010600005","2024-12-23T19:15:00",10.699,35.013924,0.275],
    [41943,"urn:WaterMeter:MC0203J22010600005","2024-12-23T19:30:00",10.699,34.979824,0.262],
    [41944,"urn:WaterMeter:MC0203J22010600005","2024-12-23T19:45:00",10.6,35.03487,0.267],
    [41945,"urn:WaterMeter:MC0203J22010600005","2024-12-23T20:00:00",10.5,34.98677,0.26],
    [41946,"urn:WaterMeter:MC0203J22010600005","2024-12-23T20:15:00",10.399,34.9422,0.284],
    [41947,"urn:WaterMeter:MC0203J22010600005","2024-12-23T20:30:00",10.399,34.99569,0.272],
    [41948,"urn:WaterMeter:MC0203J22010600005","2024-12-23T20:45:00",10.3,34.989525,0.271],
    [41949,"urn:WaterMeter:MC0203J22010600005","2024-12-23T21:00:00",10.3,34.97207,0.267],
    [41950,"urn:WaterMeter:MC0203J22010600005","2024-12-23T21:15:00",10.199,34.908066,0.288],
    [41951,"urn:WaterMeter:MC0203J22010600005","2024-12-23T21:30:00",10.1,34.965473,0.266],
    [41952,"urn:WaterMeter:MC0203J22010600005","2024-12-23T21:45:00",10.1,34.976295,0.276],
    [41953,"urn:WaterMeter:MC0203J22010600005","2024-12-23T22:00:00",10,34.911556,0.278],
    [41954,"urn:WaterMeter:MC0203J22010600005","2024-12-23T22:15:00",9.899,34.968925,0.27],
    [41955,"urn:WaterMeter:MC0203J22010600005","2024-12-23T22:30:00",9.8,34.926685,0.268],
    [41956,"urn:WaterMeter:MC0203J22010600005","2024-12-23T22:45:00",9.6,34.994526,0.265],
    [41957,"urn:WaterMeter:MC0203J22010600005","2024-12-23T23:00:00",9.5,34.976295,0.285],
    [41958,"urn:WaterMeter:MC0203J22010600005","2024-12-23T23:15:00",9.5,34.980213,0.26],
    [41959,"urn:WaterMeter:MC0203J22010600005","2024-12-23T23:30:00",9.399,34.942974,0.26],
    [41960,"urn:WaterMeter:MC0203J22010600005","2024-12-23T23:45:00",9.399,34.955387,0.261],
    [41961,"urn:WaterMeter:MC0203J22010600005","2024-12-24T00:00:00",9.3,34.94996,0.278],
    [41962,"urn:WaterMeter:MC0203J22010600005","2024-12-24T00:15:00",9.3,34.92319,0.268],
    [41963,"urn:WaterMeter:MC0203J22010600005","2024-12-24T00:30:00",9.199,34.97168,0.258],
    [41964,"urn:WaterMeter:MC0203J22010600005","2024-12-24T00:45:00",9.1,34.920864,0.262],
    [41965,"urn:WaterMeter:MC0203J22010600005","2024-12-24T01:00:00",9,34.94608,0.269],
    [41966,"urn:WaterMeter:MC0203J22010600005","2024-12-24T01:15:00",8.899,34.9569,0.264],
    [41967,"urn:WaterMeter:MC0203J22010600005","2024-12-24T01:30:00",8.8,34.934055,0.268],
    [41968,"urn:WaterMeter:MC0203J22010600005","2024-12-24T01:45:00",8.699,34.93634,0.262],
    [41969,"urn:WaterMeter:MC0203J22010600005","2024-12-24T02:00:00",8.6,34.924744,0.264],
    [41970,"urn:WaterMeter:MC0203J22010600005","2024-12-24T02:15:00",8.5,34.91194,0.266],
    [41971,"urn:WaterMeter:MC0203J22010600005","2024-12-24T02:30:00",8.5,34.93673,0.27],
    [41972,"urn:WaterMeter:MC0203J22010600005","2024-12-24T02:45:00",8.5,34.946465,0.263],
    [41973,"urn:WaterMeter:MC0203J22010600005","2024-12-24T03:00:00",8.399,34.928585,0.27],
    [41974,"urn:WaterMeter:MC0203J22010600005","2024-12-24T03:15:00",8.3,34.939056,0.259],
    [41975,"urn:WaterMeter:MC0203J22010600005","2024-12-24T03:30:00",8.3,34.896816,0.266],
    [41976,"urn:WaterMeter:MC0203J22010600005","2024-12-24T03:45:00",8.199,34.9453,0.262],
    [41977,"urn:WaterMeter:MC0203J22010600005","2024-12-24T04:00:00",8.199,34.925907,0.278],
    [41978,"urn:WaterMeter:MC0203J22010600005","2024-12-24T04:15:00",8.199,34.91233,0.264],
    [41979,"urn:WaterMeter:MC0203J22010600005","2024-12-24T04:30:00",8.199,34.91233,0.261],
    [41980,"urn:WaterMeter:MC0203J22010600005","2024-12-24T04:45:00",8.1,34.891773,0.264],
    [41981,"urn:WaterMeter:MC0203J22010600005","2024-12-24T05:00:00",8,34.924744,0.267],
    [41982,"urn:WaterMeter:MC0203J22010600005","2024-12-24T05:15:00",8.1,34.930138,0.264],
    [41983,"urn:WaterMeter:MC0203J22010600005","2024-12-24T05:30:00",8.199,35.05504,0.267],
    [41984,"urn:WaterMeter:MC0203J22010600005","2024-12-24T05:45:00",8.3,35.839413,0.283],
    [41985,"urn:WaterMeter:MC0203J22010600005","2024-12-24T06:00:00",8.3,36.60086,0.278],
    [41986,"urn:WaterMeter:MC0203J22010600005","2024-12-24T06:15:00",8.3,37.070568,0.279],
    [41987,"urn:WaterMeter:MC0203J22010600005","2024-12-24T06:30:00",8.399,37.35494,0.297],
    [41988,"urn:WaterMeter:MC0203J22010600005","2024-12-24T06:45:00",8.399,37.60626,0.294],
    [41989,"urn:WaterMeter:MC0203J22010600005","2024-12-24T07:00:00",8.3,37.725384,0.298],
    [41990,"urn:WaterMeter:MC0203J22010600005","2024-12-24T07:15:00",8.399,37.876274,0.301],
    [41991,"urn:WaterMeter:MC0203J22010600005","2024-12-24T07:30:00",8.399,37.99536,0.294],
    [41992,"urn:WaterMeter:MC0203J22010600005","2024-12-24T07:45:00",8.399,38.085743,0.293],
    [41993,"urn:WaterMeter:MC0203J22010600005","2024-12-24T08:00:00",8.399,38.193966,0.297],
    [41994,"urn:WaterMeter:MC0203J22010600005","2024-12-24T08:15:00",8.399,38.137295,0.299],
    [41995,"urn:WaterMeter:MC0203J22010600005","2024-12-24T08:30:00",8.3,37.913902,0.306],
    [41996,"urn:WaterMeter:MC0203J22010600005","2024-12-24T08:45:00",8.199,37.728485,0.289],
    [41997,"urn:WaterMeter:MC0203J22010600005","2024-12-24T09:00:00",8.3,37.37666,0.287],
    [41998,"urn:WaterMeter:MC0203J22010600005","2024-12-24T09:15:00",8.5,37.159397,0.283],
    [41999,"urn:WaterMeter:MC0203J22010600005","2024-12-24T09:30:00",8.8,36.948807,0.277],
    [42000,"urn:WaterMeter:MC0203J22010600005","2024-12-24T09:45:00",9.1,36.83166,0.284],
    [42001,"urn:WaterMeter:MC0203J22010600005","2024-12-24T10:00:00",9.399,36.800976,0.293],
    [42002,"urn:WaterMeter:MC0203J22010600005","2024-12-24T10:15:00",9.699,36.67491,0.286],
    [42003,"urn:WaterMeter:MC0203J22010600005","2024-12-24T10:30:00",9.899,36.51044,0.283],
    [42004,"urn:WaterMeter:MC0203J22010600005","2024-12-24T10:45:00",10,36.385574,0.28],
    [42005,"urn:WaterMeter:MC0203J22010600005","2024-12-24T11:00:00",10.199,36.344807,0.263],
    [42006,"urn:WaterMeter:MC0203J22010600005","2024-12-24T11:15:00",10.3,36.261448,0.268],
    [42007,"urn:WaterMeter:MC0203J22010600005","2024-12-24T11:30:00",10.5,36.268,0.276],
    [42008,"urn:WaterMeter:MC0203J22010600005","2024-12-24T11:45:00",10.6,36.16447,0.262],
    [42009,"urn:WaterMeter:MC0203J22010600005","2024-12-24T12:00:00",10.699,36.15012,0.283],
    [42010,"urn:WaterMeter:MC0203J22010600005","2024-12-24T12:15:00",10.8,36.08689,0.276],
    [42011,"urn:WaterMeter:MC0203J22010600005","2024-12-24T12:30:00",10.899,35.979057,0.281],
    [42012,"urn:WaterMeter:MC0203J22010600005","2024-12-24T12:45:00",11.1,35.863075,0.278],
    [42013,"urn:WaterMeter:MC0203J22010600005","2024-12-24T13:00:00",11.1,35.847908,0.268],
    [42014,"urn:WaterMeter:MC0203J22010600005","2024-12-24T13:15:00",11.3,35.802525,0.267],
    [42015,"urn:WaterMeter:MC0203J22010600005","2024-12-24T13:30:00",11.399,35.707138,0.274],
    [42016,"urn:WaterMeter:MC0203J22010600005","2024-12-24T13:45:00",11.5,35.67921,0.269],
    [42017,"urn:WaterMeter:MC0203J22010600005","2024-12-24T14:00:00",11.6,35.675293,0.268],
    [42018,"urn:WaterMeter:MC0203J22010600005","2024-12-24T14:15:00",11.699,35.667145,0.264],
    [42019,"urn:WaterMeter:MC0203J22010600005","2024-12-24T14:30:00",11.699,35.556984,0.268],
    [42020,"urn:WaterMeter:MC0203J22010600005","2024-12-24T14:45:00",11.6,35.56862,0.275],
    [42021,"urn:WaterMeter:MC0203J22010600005","2024-12-24T15:00:00",11.6,35.494183,0.264],
    [42022,"urn:WaterMeter:MC0203J22010600005","2024-12-24T15:15:00",11.6,35.509308,0.29],
    [42023,"urn:WaterMeter:MC0203J22010600005","2024-12-24T15:30:00",11.6,35.44802,0.27],
    [42024,"urn:WaterMeter:MC0203J22010600005","2024-12-24T15:45:00",11.5,35.493404,0.277],
    [42025,"urn:WaterMeter:MC0203J22010600005","2024-12-24T16:00:00",11.5,35.411945,0.28],
    [42026,"urn:WaterMeter:MC0203J22010600005","2024-12-24T16:15:00",11.399,35.439487,0.268],
    [42027,"urn:WaterMeter:MC0203J22010600005","2024-12-24T16:30:00",11.3,35.45539,0.277],
    [42028,"urn:WaterMeter:MC0203J22010600005","2024-12-24T16:45:00",11.199,35.38169,0.27],
    [42029,"urn:WaterMeter:MC0203J22010600005","2024-12-24T17:00:00",11,35.366135,0.288],
    [42030,"urn:WaterMeter:MC0203J22010600005","2024-12-24T17:15:00",10.899,35.41815,0.27],
    [42031,"urn:WaterMeter:MC0203J22010600005","2024-12-24T17:30:00",10.699,35.40768,0.281],
    [42032,"urn:WaterMeter:MC0203J22010600005","2024-12-24T17:45:00",10.6,35.406902,0.29],
    [42033,"urn:WaterMeter:MC0203J22010600005","2024-12-24T18:00:00",10.399,35.41156,0.274],
    [42034,"urn:WaterMeter:MC0203J22010600005","2024-12-24T18:15:00",10.3,35.34096,0.276],
    [42035,"urn:WaterMeter:MC0203J22010600005","2024-12-24T18:30:00",10.1,35.384365,0.279],
    [42036,"urn:WaterMeter:MC0203J22010600005","2024-12-24T18:45:00",10,35.3685,0.275],
    [42037,"urn:WaterMeter:MC0203J22010600005","2024-12-24T19:00:00",9.899,35.368114,0.282],
    [42038,"urn:WaterMeter:MC0203J22010600005","2024-12-24T19:15:00",9.8,35.349106,0.296],
    [42039,"urn:WaterMeter:MC0203J22010600005","2024-12-24T19:30:00",9.699,35.351048,0.266],
    [42040,"urn:WaterMeter:MC0203J22010600005","2024-12-24T19:45:00",9.6,35.368114,0.278],
    [42041,"urn:WaterMeter:MC0203J22010600005","2024-12-24T20:00:00",9.5,35.393715,0.262],
    [42042,"urn:WaterMeter:MC0203J22010600005","2024-12-24T20:15:00",9.399,35.35066,0.276],
    [42043,"urn:WaterMeter:MC0203J22010600005","2024-12-24T20:30:00",9.3,35.34674,0.279],
    [42044,"urn:WaterMeter:MC0203J22010600005","2024-12-24T20:45:00",9.199,35.342125,0.279],
    [42045,"urn:WaterMeter:MC0203J22010600005","2024-12-24T21:00:00",9.1,35.326183,0.267],
    [42046,"urn:WaterMeter:MC0203J22010600005","2024-12-24T21:15:00",9.1,35.34519,0.272],
    [42047,"urn:WaterMeter:MC0203J22010600005","2024-12-24T21:30:00",9,35.314583,0.277],
    [42048,"urn:WaterMeter:MC0203J22010600005","2024-12-24T21:45:00",9,35.337044,0.265],
    [42049,"urn:WaterMeter:MC0203J22010600005","2024-12-24T22:00:00",8.899,35.34096,0.269],
    [42050,"urn:WaterMeter:MC0203J22010600005","2024-12-24T22:15:00",8.899,35.299843,0.28],
    [42051,"urn:WaterMeter:MC0203J22010600005","2024-12-24T22:30:00",8.8,35.280838,0.269],
    [42052,"urn:WaterMeter:MC0203J22010600005","2024-12-24T22:45:00",8.8,35.323116,0.277],
    [42053,"urn:WaterMeter:MC0203J22010600005","2024-12-24T23:00:00",8.699,35.29519,0.268],
    [42054,"urn:WaterMeter:MC0203J22010600005","2024-12-24T23:15:00",8.699,35.310318,0.27],
    [42055,"urn:WaterMeter:MC0203J22010600005","2024-12-24T23:30:00",8.6,35.286617,0.27],
    [42056,"urn:WaterMeter:MC0203J22010600005","2024-12-24T23:45:00",8.6,35.28355,0.273],
    [42057,"urn:WaterMeter:MC0203J22010600005","2024-12-25T00:00:00",8.5,35.292862,0.27],
    [42058,"urn:WaterMeter:MC0203J22010600005","2024-12-25T00:15:00",8.5,35.262604,0.267],
    [42059,"urn:WaterMeter:MC0203J22010600005","2024-12-25T00:30:00",8.399,35.28045,0.279],
    [42060,"urn:WaterMeter:MC0203J22010600005","2024-12-25T00:45:00",8.399,35.301785,0.278],
    [42061,"urn:WaterMeter:MC0203J22010600005","2024-12-25T01:00:00",8.3,35.267998,0.269],
    [42062,"urn:WaterMeter:MC0203J22010600005","2024-12-25T01:15:00",8.3,35.23584,0.272],
    [42063,"urn:WaterMeter:MC0203J22010600005","2024-12-25T01:30:00",8.199,35.253685,0.259],
    [42064,"urn:WaterMeter:MC0203J22010600005","2024-12-25T01:45:00",8.1,35.226532,0.279],
    [42065,"urn:WaterMeter:MC0203J22010600005","2024-12-25T02:00:00",8.1,35.246662,0.277],
    [42066,"urn:WaterMeter:MC0203J22010600005","2024-12-25T02:15:00",8,35.269547,0.273],
    [42067,"urn:WaterMeter:MC0203J22010600005","2024-12-25T02:30:00",8,35.228043,0.265],
    [42068,"urn:WaterMeter:MC0203J22010600005","2024-12-25T02:45:00",8,35.222652,0.275],
    [42069,"urn:WaterMeter:MC0203J22010600005","2024-12-25T03:00:00",8,35.221874,0.271],
    [42070,"urn:WaterMeter:MC0203J22010600005","2024-12-25T03:15:00",8,35.225754,0.268],
    [42071,"urn:WaterMeter:MC0203J22010600005","2024-12-25T03:30:00",8,35.212177,0.266],
    [42072,"urn:WaterMeter:MC0203J22010600005","2024-12-25T03:45:00",8,35.210976,0.269],
    [42073,"urn:WaterMeter:MC0203J22010600005","2024-12-25T04:00:00",8,35.23274,0.266],
    [42074,"urn:WaterMeter:MC0203J22010600005","2024-12-25T04:15:00",8,35.227654,0.277],
    [42075,"urn:WaterMeter:MC0203J22010600005","2024-12-25T04:30:00",8,35.185024,0.264],
    [42076,"urn:WaterMeter:MC0203J22010600005","2024-12-25T04:45:00",8,35.177654,0.268],
    [42077,"urn:WaterMeter:MC0203J22010600005","2024-12-25T05:00:00",8,35.172573,0.277],
    [42078,"urn:WaterMeter:MC0203J22010600005","2024-12-25T05:15:00",8.1,35.20287,0.264],
    [42079,"urn:WaterMeter:MC0203J22010600005","2024-12-25T05:30:00",8.3,35.479053,0.284],
    [42080,"urn:WaterMeter:MC0203J22010600005","2024-12-25T05:45:00",8.3,36.28317,0.27],
    [42081,"urn:WaterMeter:MC0203J22010600005","2024-12-25T06:00:00",8.399,36.881313,0.296],
    [42082,"urn:WaterMeter:MC0203J22010600005","2024-12-25T06:15:00",8.399,37.29555,0.291],
    [42083,"urn:WaterMeter:MC0203J22010600005","2024-12-25T06:30:00",8.3,37.590782,0.294],
    [42084,"urn:WaterMeter:MC0203J22010600005","2024-12-25T06:45:00",8.3,37.750557,0.304],
    [42085,"urn:WaterMeter:MC0203J22010600005","2024-12-25T07:00:00",8.3,37.892178,0.289],
    [42086,"urn:WaterMeter:MC0203J22010600005","2024-12-25T07:15:00",8.3,37.970535,0.295],
    [42087,"urn:WaterMeter:MC0203J22010600005","2024-12-25T07:30:00",8.3,38.031437,0.296],
    [42088,"urn:WaterMeter:MC0203J22010600005","2024-12-25T07:45:00",8.3,38.148155,0.312],
    [42089,"urn:WaterMeter:MC0203J22010600005","2024-12-25T08:00:00",8.3,38.289387,0.3],
    [42090,"urn:WaterMeter:MC0203J22010600005","2024-12-25T08:15:00",8.199,38.26689,0.298],
    [42091,"urn:WaterMeter:MC0203J22010600005","2024-12-25T08:30:00",8.1,38.062855,0.306],
    [42092,"urn:WaterMeter:MC0203J22010600005","2024-12-25T08:45:00",8.199,37.85878,0.288],
    [42093,"urn:WaterMeter:MC0203J22010600005","2024-12-25T09:00:00",8.3,37.580696,0.304],
    [42094,"urn:WaterMeter:MC0203J22010600005","2024-12-25T09:15:00",8.6,37.39916,0.297],
    [42095,"urn:WaterMeter:MC0203J22010600005","2024-12-25T09:30:00",8.899,37.10319,0.292],
    [42096,"urn:WaterMeter:MC0203J22010600005","2024-12-25T09:45:00",9.3,36.951134,0.275],
    [42097,"urn:WaterMeter:MC0203J22010600005","2024-12-25T10:00:00",9.5,36.857998,0.278],
    [42098,"urn:WaterMeter:MC0203J22010600005","2024-12-25T10:15:00",9.8,36.616337,0.292],
    [42099,"urn:WaterMeter:MC0203J22010600005","2024-12-25T10:30:00",10,36.56591,0.272],
    [42100,"urn:WaterMeter:MC0203J22010600005","2024-12-25T10:45:00",10.3,36.478283,0.271],
    [42101,"urn:WaterMeter:MC0203J22010600005","2024-12-25T11:00:00",10.5,36.34756,0.286],
    [42102,"urn:WaterMeter:MC0203J22010600005","2024-12-25T11:15:00",10.699,36.255978,0.262],
    [42103,"urn:WaterMeter:MC0203J22010600005","2024-12-25T11:30:00",10.899,36.199345,0.265],
    [42104,"urn:WaterMeter:MC0203J22010600005","2024-12-25T11:45:00",11,36.177273,0.269],
    [42105,"urn:WaterMeter:MC0203J22010600005","2024-12-25T12:00:00",11,36.140385,0.262],
    [42106,"urn:WaterMeter:MC0203J22010600005","2024-12-25T12:15:00",11.199,36.078358,0.278],
    [42107,"urn:WaterMeter:MC0203J22010600005","2024-12-25T12:30:00",11.3,36.00233,0.271],
    [42108,"urn:WaterMeter:MC0203J22010600005","2024-12-25T12:45:00",11.399,35.96936,0.282],
    [42109,"urn:WaterMeter:MC0203J22010600005","2024-12-25T13:00:00",11.399,35.939102,0.285],
    [42110,"urn:WaterMeter:MC0203J22010600005","2024-12-25T13:15:00",11.5,35.88049,0.266],
    [42111,"urn:WaterMeter:MC0203J22010600005","2024-12-25T13:30:00",11.6,35.86963,0.296],
    [42112,"urn:WaterMeter:MC0203J22010600005","2024-12-25T13:45:00",11.699,35.803726,0.274],
    [42113,"urn:WaterMeter:MC0203J22010600005","2024-12-25T14:00:00",11.699,35.76067,0.269],
    [42114,"urn:WaterMeter:MC0203J22010600005","2024-12-25T14:15:00",11.8,35.710243,0.266],
    [42115,"urn:WaterMeter:MC0203J22010600005","2024-12-25T14:30:00",11.8,35.66447,0.274],
    [42116,"urn:WaterMeter:MC0203J22010600005","2024-12-25T14:45:00",11.899,35.653957,0.263],
    [42117,"urn:WaterMeter:MC0203J22010600005","2024-12-25T15:00:00",11.899,35.646976,0.258],
    [42118,"urn:WaterMeter:MC0203J22010600005","2024-12-25T15:15:00",11.899,35.62607,0.266],
    [42119,"urn:WaterMeter:MC0203J22010600005","2024-12-25T15:30:00",11.899,35.51784,0.28],
    [42120,"urn:WaterMeter:MC0203J22010600005","2024-12-25T15:45:00",11.899,35.51858,0.264],
    [42121,"urn:WaterMeter:MC0203J22010600005","2024-12-25T16:00:00",11.899,35.519745,0.27],
    [42122,"urn:WaterMeter:MC0203J22010600005","2024-12-25T16:15:00",11.899,35.513187,0.274],
    [42123,"urn:WaterMeter:MC0203J22010600005","2024-12-25T16:30:00",11.8,35.462723,0.273],
    [42124,"urn:WaterMeter:MC0203J22010600005","2024-12-25T16:45:00",11.8,35.49806,0.278],
    [42125,"urn:WaterMeter:MC0203J22010600005","2024-12-25T17:00:00",11.699,35.475563,0.302],
    [42126,"urn:WaterMeter:MC0203J22010600005","2024-12-25T17:15:00",11.6,35.46117,0.275],
    [42127,"urn:WaterMeter:MC0203J22010600005","2024-12-25T17:30:00",11.5,35.4263,0.283],
    [42128,"urn:WaterMeter:MC0203J22010600005","2024-12-25T17:45:00",11.399,35.4294,0.286],
    [42129,"urn:WaterMeter:MC0203J22010600005","2024-12-25T18:00:00",11.3,35.399532,0.266],
    [42130,"urn:WaterMeter:MC0203J22010600005","2024-12-25T18:15:00",11.199,35.434406,0.271],
    [42131,"urn:WaterMeter:MC0203J22010600005","2024-12-25T18:30:00",11.1,35.410007,0.268],
    [42132,"urn:WaterMeter:MC0203J22010600005","2024-12-25T18:45:00",11,35.403763,0.284],
    [42133,"urn:WaterMeter:MC0203J22010600005","2024-12-25T19:00:00",10.899,35.41346,0.278],
    [42134,"urn:WaterMeter:MC0203J22010600005","2024-12-25T19:15:00",10.8,35.378975,0.279],
    [42135,"urn:WaterMeter:MC0203J22010600005","2024-12-25T19:30:00",10.699,35.366524,0.268],
    [42136,"urn:WaterMeter:MC0203J22010600005","2024-12-25T19:45:00",10.6,35.406517,0.276],
    [42137,"urn:WaterMeter:MC0203J22010600005","2024-12-25T20:00:00",10.5,35.35376,0.272],
    [42138,"urn:WaterMeter:MC0203J22010600005","2024-12-25T20:15:00",10.399,35.349495,0.275],
    [42139,"urn:WaterMeter:MC0203J22010600005","2024-12-25T20:30:00",10.3,35.38945,0.27],
    [42140,"urn:WaterMeter:MC0203J22010600005","2024-12-25T20:45:00",10.3,35.37277,0.273],
    [42141,"urn:WaterMeter:MC0203J22010600005","2024-12-25T21:00:00",10.3,35.38359,0.276],
    [42142,"urn:WaterMeter:MC0203J22010600005","2024-12-25T21:15:00",10.3,35.32502,0.278],
    [42143,"urn:WaterMeter:MC0203J22010600005","2024-12-25T21:30:00",10.199,35.347942,0.275],
    [42144,"urn:WaterMeter:MC0203J22010600005","2024-12-25T21:45:00",10.199,35.30411,0.281],
    [42145,"urn:WaterMeter:MC0203J22010600005","2024-12-25T22:00:00",10.199,35.327347,0.264],
    [42146,"urn:WaterMeter:MC0203J22010600005","2024-12-25T22:15:00",10.199,35.270363,0.265],
    [42147,"urn:WaterMeter:MC0203J22010600005","2024-12-25T22:30:00",10.199,35.287003,0.276],
    [42148,"urn:WaterMeter:MC0203J22010600005","2024-12-25T22:45:00",10.1,35.29864,0.281],
    [42149,"urn:WaterMeter:MC0203J22010600005","2024-12-25T23:00:00",10,35.290146,0.284],
    [42150,"urn:WaterMeter:MC0203J22010600005","2024-12-25T23:15:00",10,35.248215,0.267],
    [42151,"urn:WaterMeter:MC0203J22010600005","2024-12-25T23:30:00",9.899,35.252907,0.27],
    [42152,"urn:WaterMeter:MC0203J22010600005","2024-12-25T23:45:00",9.899,35.258686,0.27],
    [42153,"urn:WaterMeter:MC0203J22010600005","2024-12-26T00:00:00",9.8,35.26916,0.263],
    [42154,"urn:WaterMeter:MC0203J22010600005","2024-12-26T00:15:00",9.8,35.260277,0.291],
    [42155,"urn:WaterMeter:MC0203J22010600005","2024-12-26T00:30:00",9.8,35.244762,0.267],
    [42156,"urn:WaterMeter:MC0203J22010600005","2024-12-26T00:45:00",9.8,35.247437,0.273],
    [42157,"urn:WaterMeter:MC0203J22010600005","2024-12-26T01:00:00",9.699,35.241272,0.27],
    [42158,"urn:WaterMeter:MC0203J22010600005","2024-12-26T01:15:00",9.699,35.25058,0.271],
    [42159,"urn:WaterMeter:MC0203J22010600005","2024-12-26T01:30:00",9.6,35.212177,0.266],
    [42160,"urn:WaterMeter:MC0203J22010600005","2024-12-26T01:45:00",9.6,35.238167,0.271],
    [42161,"urn:WaterMeter:MC0203J22010600005","2024-12-26T02:00:00",9.5,35.233124,0.272],
    [42162,"urn:WaterMeter:MC0203J22010600005","2024-12-26T02:15:00",9.5,35.220673,0.282],
    [42163,"urn:WaterMeter:MC0203J22010600005","2024-12-26T02:30:00",9.5,35.15787,0.277],
    [42164,"urn:WaterMeter:MC0203J22010600005","2024-12-26T02:45:00",9.5,35.16947,0.267],
    [42165,"urn:WaterMeter:MC0203J22010600005","2024-12-26T03:00:00",9.5,35.191193,0.271],
    [42166,"urn:WaterMeter:MC0203J22010600005","2024-12-26T03:15:00",9.5,35.204033,0.275],
    [42167,"urn:WaterMeter:MC0203J22010600005","2024-12-26T03:30:00",9.5,35.18774,0.278],
    [42168,"urn:WaterMeter:MC0203J22010600005","2024-12-26T03:45:00",9.5,35.166794,0.272],
    [42169,"urn:WaterMeter:MC0203J22010600005","2024-12-26T04:00:00",9.6,35.15438,0.273],
    [42170,"urn:WaterMeter:MC0203J22010600005","2024-12-26T04:15:00",9.6,35.133007,0.281],
    [42171,"urn:WaterMeter:MC0203J22010600005","2024-12-26T04:30:00",9.6,35.12451,0.267],
    [42172,"urn:WaterMeter:MC0203J22010600005","2024-12-26T04:45:00",9.6,35.10085,0.272],
    [42173,"urn:WaterMeter:MC0203J22010600005","2024-12-26T05:00:00",9.6,35.12529,0.258],
    [42174,"urn:WaterMeter:MC0203J22010600005","2024-12-26T05:15:00",9.699,35.167957,0.267],
    [42175,"urn:WaterMeter:MC0203J22010600005","2024-12-26T05:30:00",9.8,35.356438,0.269],
    [42176,"urn:WaterMeter:MC0203J22010600005","2024-12-26T05:45:00",9.899,36.18503,0.289],
    [42177,"urn:WaterMeter:MC0203J22010600005","2024-12-26T06:00:00",9.899,36.85377,0.323],
    [42178,"urn:WaterMeter:MC0203J22010600005","2024-12-26T06:15:00",9.899,37.26921,0.285],
    [42179,"urn:WaterMeter:MC0203J22010600005","2024-12-26T06:30:00",10,37.520184,0.303],
    [42180,"urn:WaterMeter:MC0203J22010600005","2024-12-26T06:45:00",10,37.676895,0.29],
    [42181,"urn:WaterMeter:MC0203J22010600005","2024-12-26T07:00:00",10,37.688145,0.278],
    [42182,"urn:WaterMeter:MC0203J22010600005","2024-12-26T07:15:00",10,37.78818,0.299],
    [42183,"urn:WaterMeter:MC0203J22010600005","2024-12-26T07:30:00",10,37.899937,0.3],
    [42184,"urn:WaterMeter:MC0203J22010600005","2024-12-26T07:45:00",10,38.017082,0.293],
    [42185,"urn:WaterMeter:MC0203J22010600005","2024-12-26T08:00:00",10.1,38.285896,0.294],
    [42186,"urn:WaterMeter:MC0203J22010600005","2024-12-26T08:15:00",10.1,38.20211,0.31],
    [42187,"urn:WaterMeter:MC0203J22010600005","2024-12-26T08:30:00",10,37.977905,0.295],
    [42188,"urn:WaterMeter:MC0203J22010600005","2024-12-26T08:45:00",10,37.791714,0.298],
    [42189,"urn:WaterMeter:MC0203J22010600005","2024-12-26T09:00:00",10.1,37.51743,0.299],
    [42190,"urn:WaterMeter:MC0203J22010600005","2024-12-26T09:15:00",10.1,37.211803,0.292],
    [42191,"urn:WaterMeter:MC0203J22010600005","2024-12-26T09:30:00",10.199,36.945663,0.283],
    [42192,"urn:WaterMeter:MC0203J22010600005","2024-12-26T09:45:00",10.3,36.884026,0.274],
    [42193,"urn:WaterMeter:MC0203J22010600005","2024-12-26T10:00:00",10.5,36.762577,0.266],
    [42194,"urn:WaterMeter:MC0203J22010600005","2024-12-26T10:15:00",10.699,36.638874,0.277],
    [42195,"urn:WaterMeter:MC0203J22010600005","2024-12-26T10:30:00",10.899,36.653225,0.297],
    [42196,"urn:WaterMeter:MC0203J22010600005","2024-12-26T10:45:00",11.1,36.553925,0.295],
    [42197,"urn:WaterMeter:MC0203J22010600005","2024-12-26T11:00:00",11.199,36.475956,0.268],
    [42198,"urn:WaterMeter:MC0203J22010600005","2024-12-26T11:15:00",11.399,36.489105,0.282],
    [42199,"urn:WaterMeter:MC0203J22010600005","2024-12-26T11:30:00",11.5,36.271534,0.279],
    [42200,"urn:WaterMeter:MC0203J22010600005","2024-12-26T11:45:00",11.699,36.24593,0.285],
    [42201,"urn:WaterMeter:MC0203J22010600005","2024-12-26T12:00:00",11.8,36.19857,0.277],
    [42202,"urn:WaterMeter:MC0203J22010600005","2024-12-26T12:15:00",11.899,36.108616,0.278],
    [42203,"urn:WaterMeter:MC0203J22010600005","2024-12-26T12:30:00",12.1,36.041508,0.27],
    [42204,"urn:WaterMeter:MC0203J22010600005","2024-12-26T12:45:00",12.199,36.01509,0.267],
    [42205,"urn:WaterMeter:MC0203J22010600005","2024-12-26T13:00:00",12.199,35.925137,0.271],
    [42206,"urn:WaterMeter:MC0203J22010600005","2024-12-26T13:15:00",12.3,35.829678,0.268],
    [42207,"urn:WaterMeter:MC0203J22010600005","2024-12-26T13:30:00",12.3,35.84601,0.276],
    [42208,"urn:WaterMeter:MC0203J22010600005","2024-12-26T13:45:00",12.3,35.776184,0.273],
    [42209,"urn:WaterMeter:MC0203J22010600005","2024-12-26T14:00:00",12.3,35.715244,0.302],
    [42210,"urn:WaterMeter:MC0203J22010600005","2024-12-26T14:15:00",12.3,35.759506,0.274],
    [42211,"urn:WaterMeter:MC0203J22010600005","2024-12-26T14:30:00",12.3,35.661755,0.279],
    [42212,"urn:WaterMeter:MC0203J22010600005","2024-12-26T14:45:00",12.3,35.66676,0.268],
    [42213,"urn:WaterMeter:MC0203J22010600005","2024-12-26T15:00:00",12.3,35.671062,0.271],
    [42214,"urn:WaterMeter:MC0203J22010600005","2024-12-26T15:15:00",12.3,35.66059,0.271],
    [42215,"urn:WaterMeter:MC0203J22010600005","2024-12-26T15:30:00",12.3,35.622963,0.271],
    [42216,"urn:WaterMeter:MC0203J22010600005","2024-12-26T15:45:00",12.199,35.541077,0.272],
    [42217,"urn:WaterMeter:MC0203J22010600005","2024-12-26T16:00:00",12.199,35.601242,0.278],
    [42218,"urn:WaterMeter:MC0203J22010600005","2024-12-26T16:15:00",12.199,35.487198,0.274],
    [42219,"urn:WaterMeter:MC0203J22010600005","2024-12-26T16:30:00",12.1,35.509697,0.282],
    [42220,"urn:WaterMeter:MC0203J22010600005","2024-12-26T16:45:00",12.1,35.453026,0.273],
    [42221,"urn:WaterMeter:MC0203J22010600005","2024-12-26T17:00:00",12,35.493793,0.27],
    [42222,"urn:WaterMeter:MC0203J22010600005","2024-12-26T17:15:00",12,35.438713,0.274],
    [42223,"urn:WaterMeter:MC0203J22010600005","2024-12-26T17:30:00",12,35.49069,0.277],
    [42224,"urn:WaterMeter:MC0203J22010600005","2024-12-26T17:45:00",11.899,35.38867,0.276],
    [42225,"urn:WaterMeter:MC0203J22010600005","2024-12-26T18:00:00",11.899,35.458107,0.275],
    [42226,"urn:WaterMeter:MC0203J22010600005","2024-12-26T18:15:00",11.899,35.414623,0.267],
    [42227,"urn:WaterMeter:MC0203J22010600005","2024-12-26T18:30:00",11.8,35.38398,0.281],
    [42228,"urn:WaterMeter:MC0203J22010600005","2024-12-26T18:45:00",11.699,35.373158,0.268],
    [42229,"urn:WaterMeter:MC0203J22010600005","2024-12-26T19:00:00",11.6,35.375057,0.281],
    [42230,"urn:WaterMeter:MC0203J22010600005","2024-12-26T19:15:00",11.5,35.38712,0.297],
    [42231,"urn:WaterMeter:MC0203J22010600005","2024-12-26T19:30:00",11.399,35.34635,0.277],
    [42232,"urn:WaterMeter:MC0203J22010600005","2024-12-26T19:45:00",11.3,35.335144,0.271],
    [42233,"urn:WaterMeter:MC0203J22010600005","2024-12-26T20:00:00",11.199,35.332813,0.279],
    [42234,"urn:WaterMeter:MC0203J22010600005","2024-12-26T20:15:00",11.1,35.321953,0.3],
    [42235,"urn:WaterMeter:MC0203J22010600005","2024-12-26T20:30:00",11,35.363808,0.276],
    [42236,"urn:WaterMeter:MC0203J22010600005","2024-12-26T20:45:00",10.899,35.333977,0.268],
    [42237,"urn:WaterMeter:MC0203J22010600005","2024-12-26T21:00:00",10.8,35.300232,0.265],
    [42238,"urn:WaterMeter:MC0203J22010600005","2024-12-26T21:15:00",10.699,35.355274,0.275],
    [42239,"urn:WaterMeter:MC0203J22010600005","2024-12-26T21:30:00",10.6,35.30601,0.282],
    [42240,"urn:WaterMeter:MC0203J22010600005","2024-12-26T21:45:00",10.5,35.32118,0.27],
    [42241,"urn:WaterMeter:MC0203J22010600005","2024-12-26T22:00:00",10.399,35.268772,0.275],
    [42242,"urn:WaterMeter:MC0203J22010600005","2024-12-26T22:15:00",10.399,35.328938,0.277],
    [42243,"urn:WaterMeter:MC0203J22010600005","2024-12-26T22:30:00",10.3,35.321953,0.282],
    [42244,"urn:WaterMeter:MC0203J22010600005","2024-12-26T22:45:00",10.3,35.305622,0.267],
    [42245,"urn:WaterMeter:MC0203J22010600005","2024-12-26T23:00:00",10.199,35.268772,0.27],
    [42246,"urn:WaterMeter:MC0203J22010600005","2024-12-26T23:15:00",10.1,35.28623,0.278],
    [42247,"urn:WaterMeter:MC0203J22010600005","2024-12-26T23:30:00",10,35.323505,0.272],
    [42248,"urn:WaterMeter:MC0203J22010600005","2024-12-26T23:45:00",10,35.275017,0.282],
    [42249,"urn:WaterMeter:MC0203J22010600005","2024-12-27T00:00:00",9.899,35.289757,0.272],
    [42250,"urn:WaterMeter:MC0203J22010600005","2024-12-27T00:15:00",9.8,35.233124,0.282],
    [42251,"urn:WaterMeter:MC0203J22010600005","2024-12-27T00:30:00",9.699,35.229206,0.273],
    [42252,"urn:WaterMeter:MC0203J22010600005","2024-12-27T00:45:00",9.6,35.266056,0.27],
    [42253,"urn:WaterMeter:MC0203J22010600005","2024-12-27T01:00:00",9.5,35.240067,0.276],
    [42254,"urn:WaterMeter:MC0203J22010600005","2024-12-27T01:15:00",9.399,35.22459,0.269],
    [42255,"urn:WaterMeter:MC0203J22010600005","2024-12-27T01:30:00",9.399,35.217995,0.277],
    [42256,"urn:WaterMeter:MC0203J22010600005","2024-12-27T01:45:00",9.3,35.26144,0.275],
    [42257,"urn:WaterMeter:MC0203J22010600005","2024-12-27T02:00:00",9.199,35.251743,0.271],
    [42258,"urn:WaterMeter:MC0203J22010600005","2024-12-27T02:15:00",9.199,35.24899,0.282],
    [42259,"urn:WaterMeter:MC0203J22010600005","2024-12-27T02:30:00",9.1,35.2436,0.285],
    [42260,"urn:WaterMeter:MC0203J22010600005","2024-12-27T02:45:00",9.1,35.253296,0.268],
    [42261,"urn:WaterMeter:MC0203J22010600005","2024-12-27T03:00:00",9,35.240883,0.274],
    [42262,"urn:WaterMeter:MC0203J22010600005","2024-12-27T03:15:00",9,35.19938,0.269],
    [42263,"urn:WaterMeter:MC0203J22010600005","2024-12-27T03:30:00",8.899,35.19003,0.274],
    [42264,"urn:WaterMeter:MC0203J22010600005","2024-12-27T03:45:00",8.899,35.186577,0.278],
    [42265,"urn:WaterMeter:MC0203J22010600005","2024-12-27T04:00:00",8.8,35.207523,0.268],
    [42266,"urn:WaterMeter:MC0203J22010600005","2024-12-27T04:15:00",8.699,35.15438,0.276],
    [42267,"urn:WaterMeter:MC0203J22010600005","2024-12-27T04:30:00",8.6,35.1718,0.264],
    [42268,"urn:WaterMeter:MC0203J22010600005","2024-12-27T04:45:00",8.5,35.20636,0.267],
    [42269,"urn:WaterMeter:MC0203J22010600005","2024-12-27T05:00:00",8.399,35.18813,0.264],
    [42270,"urn:WaterMeter:MC0203J22010600005","2024-12-27T05:15:00",8.5,35.24899,0.273],
    [42271,"urn:WaterMeter:MC0203J22010600005","2024-12-27T05:30:00",8.699,35.56594,0.284],
    [42272,"urn:WaterMeter:MC0203J22010600005","2024-12-27T05:45:00",8.8,36.404156,0.283],
    [42273,"urn:WaterMeter:MC0203J22010600005","2024-12-27T06:00:00",8.8,36.965446,0.293],
    [42274,"urn:WaterMeter:MC0203J22010600005","2024-12-27T06:15:00",8.8,37.363045,0.299],
    [42275,"urn:WaterMeter:MC0203J22010600005","2024-12-27T06:30:00",8.8,37.602417,0.294],
    [42276,"urn:WaterMeter:MC0203J22010600005","2024-12-27T06:45:00",8.8,37.7665,0.296],
    [42277,"urn:WaterMeter:MC0203J22010600005","2024-12-27T07:00:00",8.8,37.942955,0.308],
    [42278,"urn:WaterMeter:MC0203J22010600005","2024-12-27T07:15:00",8.8,38.072124,0.304],
    [42279,"urn:WaterMeter:MC0203J22010600005","2024-12-27T07:30:00",8.8,38.09466,0.311],
    [42280,"urn:WaterMeter:MC0203J22010600005","2024-12-27T07:45:00",8.899,38.160217,0.305],
    [42281,"urn:WaterMeter:MC0203J22010600005","2024-12-27T08:00:00",8.899,38.22422,0.312],
    [42282,"urn:WaterMeter:MC0203J22010600005","2024-12-27T08:15:00",8.899,38.187332,0.303],
    [42283,"urn:WaterMeter:MC0203J22010600005","2024-12-27T08:30:00",8.8,37.83861,0.31],
    [42284,"urn:WaterMeter:MC0203J22010600005","2024-12-27T08:45:00",8.699,37.6703,0.311],
    [42285,"urn:WaterMeter:MC0203J22010600005","2024-12-27T09:00:00",8.8,37.46355,0.282],
    [42286,"urn:WaterMeter:MC0203J22010600005","2024-12-27T09:15:00",9,37.170685,0.292],
    [42287,"urn:WaterMeter:MC0203J22010600005","2024-12-27T09:30:00",9.3,37.05664,0.285],
    [42288,"urn:WaterMeter:MC0203J22010600005","2024-12-27T09:45:00",9.6,36.935577,0.28],
    [42289,"urn:WaterMeter:MC0203J22010600005","2024-12-27T10:00:00",9.899,36.78158,0.286],
    [42290,"urn:WaterMeter:MC0203J22010600005","2024-12-27T10:15:00",10.199,36.740463,0.271],
    [42291,"urn:WaterMeter:MC0203J22010600005","2024-12-27T10:30:00",10.399,36.614826,0.286],
    [42292,"urn:WaterMeter:MC0203J22010600005","2024-12-27T10:45:00",10.6,36.572544,0.287],
    [42293,"urn:WaterMeter:MC0203J22010600005","2024-12-27T11:00:00",10.699,36.44256,0.284],
    [42294,"urn:WaterMeter:MC0203J22010600005","2024-12-27T11:15:00",10.899,36.42514,0.271],
    [42295,"urn:WaterMeter:MC0203J22010600005","2024-12-27T11:30:00",11,36.31808,0.28],
    [42296,"urn:WaterMeter:MC0203J22010600005","2024-12-27T11:45:00",11.1,36.282005,0.264],
    [42297,"urn:WaterMeter:MC0203J22010600005","2024-12-27T12:00:00",11.1,36.298298,0.283],
    [42298,"urn:WaterMeter:MC0203J22010600005","2024-12-27T12:15:00",11.1,36.20559,0.282],
    [42299,"urn:WaterMeter:MC0203J22010600005","2024-12-27T12:30:00",11.1,36.184254,0.284],
    [42300,"urn:WaterMeter:MC0203J22010600005","2024-12-27T12:45:00",11.1,36.18154,0.282],
    [42301,"urn:WaterMeter:MC0203J22010600005","2024-12-27T13:00:00",11.1,36.15202,0.272],
    [42302,"urn:WaterMeter:MC0203J22010600005","2024-12-27T13:15:00",11,36.09465,0.275],
    [42303,"urn:WaterMeter:MC0203J22010600005","2024-12-27T13:30:00",11,36.134605,0.27],
    [42304,"urn:WaterMeter:MC0203J22010600005","2024-12-27T13:45:00",11,36.10939,0.275],
    [42305,"urn:WaterMeter:MC0203J22010600005","2024-12-27T14:00:00",11,36.034874,0.275],
    [42306,"urn:WaterMeter:MC0203J22010600005","2024-12-27T14:15:00",11,35.889412,0.284],
    [42307,"urn:WaterMeter:MC0203J22010600005","2024-12-27T14:30:00",11,35.84523,0.274],
    [42308,"urn:WaterMeter:MC0203J22010600005","2024-12-27T14:45:00",11.1,35.81614,0.267],
    [42309,"urn:WaterMeter:MC0203J22010600005","2024-12-27T15:00:00",11.1,35.784718,0.276],
    [42310,"urn:WaterMeter:MC0203J22010600005","2024-12-27T15:15:00",11.1,35.737007,0.276],
    [42311,"urn:WaterMeter:MC0203J22010600005","2024-12-27T15:30:00",11.1,35.755627,0.256],
    [42312,"urn:WaterMeter:MC0203J22010600005","2024-12-27T15:45:00",11.1,35.68813,0.29],
    [42313,"urn:WaterMeter:MC0203J22010600005","2024-12-27T16:00:00",11.1,35.650505,0.267],
    [42314,"urn:WaterMeter:MC0203J22010600005","2024-12-27T16:15:00",11.1,35.677658,0.284],
    [42315,"urn:WaterMeter:MC0203J22010600005","2024-12-27T16:30:00",11,35.6218,0.276],
    [42316,"urn:WaterMeter:MC0203J22010600005","2024-12-27T16:45:00",10.899,35.65551,0.289],
    [42317,"urn:WaterMeter:MC0203J22010600005","2024-12-27T17:00:00",10.899,35.593872,0.291],
    [42318,"urn:WaterMeter:MC0203J22010600005","2024-12-27T17:15:00",10.8,35.61094,0.269],
    [42319,"urn:WaterMeter:MC0203J22010600005","2024-12-27T17:30:00",10.8,35.564777,0.274],
    [42320,"urn:WaterMeter:MC0203J22010600005","2024-12-27T17:45:00",10.699,35.55547,0.284],
    [42321,"urn:WaterMeter:MC0203J22010600005","2024-12-27T18:00:00",10.6,35.579094,0.274],
    [42322,"urn:WaterMeter:MC0203J22010600005","2024-12-27T18:15:00",10.6,35.52948,0.281],
    [42323,"urn:WaterMeter:MC0203J22010600005","2024-12-27T18:30:00",10.6,35.517456,0.278],
    [42324,"urn:WaterMeter:MC0203J22010600005","2024-12-27T18:45:00",10.5,35.54422,0.263],
    [42325,"urn:WaterMeter:MC0203J22010600005","2024-12-27T19:00:00",10.5,35.502716,0.262],
    [42326,"urn:WaterMeter:MC0203J22010600005","2024-12-27T19:15:00",10.5,35.517067,0.271],
    [42327,"urn:WaterMeter:MC0203J22010600005","2024-12-27T19:30:00",10.5,35.493793,0.27],
    [42328,"urn:WaterMeter:MC0203J22010600005","2024-12-27T19:45:00",10.399,35.467415,0.279],
    [42329,"urn:WaterMeter:MC0203J22010600005","2024-12-27T20:00:00",10.399,35.468967,0.276],
    [42330,"urn:WaterMeter:MC0203J22010600005","2024-12-27T20:15:00",10.399,35.440613,0.286],
    [42331,"urn:WaterMeter:MC0203J22010600005","2024-12-27T20:30:00",10.3,35.44841,0.272],
    [42332,"urn:WaterMeter:MC0203J22010600005","2024-12-27T20:45:00",10.199,35.453026,0.288],
    [42333,"urn:WaterMeter:MC0203J22010600005","2024-12-27T21:00:00",10.1,35.4026,0.277],
    [42334,"urn:WaterMeter:MC0203J22010600005","2024-12-27T21:15:00",10,35.351433,0.282],
    [42335,"urn:WaterMeter:MC0203J22010600005","2024-12-27T21:30:00",9.899,35.38359,0.283],
    [42336,"urn:WaterMeter:MC0203J22010600005","2024-12-27T21:45:00",9.8,35.387897,0.27],
    [42337,"urn:WaterMeter:MC0203J22010600005","2024-12-27T22:00:00",9.699,35.391,0.272],
    [42338,"urn:WaterMeter:MC0203J22010600005","2024-12-27T22:15:00",9.699,35.37277,0.274],
    [42339,"urn:WaterMeter:MC0203J22010600005","2024-12-27T22:30:00",9.6,35.37781,0.277],
    [42340,"urn:WaterMeter:MC0203J22010600005","2024-12-27T22:45:00",9.6,35.382427,0.288],
    [42341,"urn:WaterMeter:MC0203J22010600005","2024-12-27T23:00:00",9.6,35.360744,0.271],
    [42342,"urn:WaterMeter:MC0203J22010600005","2024-12-27T23:15:00",9.5,35.340572,0.276],
    [42343,"urn:WaterMeter:MC0203J22010600005","2024-12-27T23:30:00",9.5,35.304497,0.276],
    [42344,"urn:WaterMeter:MC0203J22010600005","2024-12-27T23:45:00",9.399,35.342125,0.28],
    [42345,"urn:WaterMeter:MC0203J22010600005","2024-12-28T00:00:00",9.399,35.343636,0.276],
    [42346,"urn:WaterMeter:MC0203J22010600005","2024-12-28T00:15:00",9.3,35.309155,0.269],
    [42347,"urn:WaterMeter:MC0203J22010600005","2024-12-28T00:30:00",9.3,35.295578,0.266],
    [42348,"urn:WaterMeter:MC0203J22010600005","2024-12-28T00:45:00",9.3,35.27308,0.279],
    [42349,"urn:WaterMeter:MC0203J22010600005","2024-12-28T01:00:00",9.3,35.271526,0.274],
    [42350,"urn:WaterMeter:MC0203J22010600005","2024-12-28T01:15:00",9.3,35.282,0.269],
    [42351,"urn:WaterMeter:MC0203J22010600005","2024-12-28T01:30:00",9.3,35.256786,0.272],
    [42352,"urn:WaterMeter:MC0203J22010600005","2024-12-28T01:45:00",9.3,35.234676,0.283],
    [42353,"urn:WaterMeter:MC0203J22010600005","2024-12-28T02:00:00",9.399,35.250153,0.274],
    [42354,"urn:WaterMeter:MC0203J22010600005","2024-12-28T02:15:00",9.399,35.23545,0.268],
    [42355,"urn:WaterMeter:MC0203J22010600005","2024-12-28T02:30:00",9.399,35.25795,0.274],
    [42356,"urn:WaterMeter:MC0203J22010600005","2024-12-28T02:45:00",9.399,35.20675,0.27],
    [42357,"urn:WaterMeter:MC0203J22010600005","2024-12-28T03:00:00",9.399,35.23623,0.263],
    [42358,"urn:WaterMeter:MC0203J22010600005","2024-12-28T03:15:00",9.399,35.170246,0.276],
    [42359,"urn:WaterMeter:MC0203J22010600005","2024-12-28T03:30:00",9.399,35.19821,0.267],
    [42360,"urn:WaterMeter:MC0203J22010600005","2024-12-28T03:45:00",9.399,35.19158,0.27],
    [42361,"urn:WaterMeter:MC0203J22010600005","2024-12-28T04:00:00",9.5,35.141193,0.281],
    [42362,"urn:WaterMeter:MC0203J22010600005","2024-12-28T04:15:00",9.5,35.16602,0.27],
    [42363,"urn:WaterMeter:MC0203J22010600005","2024-12-28T04:30:00",9.399,35.16947,0.268],
    [42364,"urn:WaterMeter:MC0203J22010600005","2024-12-28T04:45:00",9.3,35.164467,0.269],
    [42365,"urn:WaterMeter:MC0203J22010600005","2024-12-28T05:00:00",9.3,35.146236,0.276],
    [42366,"urn:WaterMeter:MC0203J22010600005","2024-12-28T05:15:00",9.199,35.12878,0.276],
    [42367,"urn:WaterMeter:MC0203J22010600005","2024-12-28T05:30:00",9.199,35.134987,0.267],
    [42368,"urn:WaterMeter:MC0203J22010600005","2024-12-28T05:45:00",9.199,35.113613,0.267],
    [42369,"urn:WaterMeter:MC0203J22010600005","2024-12-28T06:00:00",9.199,35.1237,0.259],
    [42370,"urn:WaterMeter:MC0203J22010600005","2024-12-28T06:15:00",9.199,35.1249,0.266],
    [42371,"urn:WaterMeter:MC0203J22010600005","2024-12-28T06:30:00",9.199,35.138477,0.273],
    [42372,"urn:WaterMeter:MC0203J22010600005","2024-12-28T06:45:00",9.199,35.11016,0.264],
    [42373,"urn:WaterMeter:MC0203J22010600005","2024-12-28T07:00:00",9.3,35.107445,0.262],
    [42374,"urn:WaterMeter:MC0203J22010600005","2024-12-28T07:15:00",9.3,35.101627,0.267],
    [42375,"urn:WaterMeter:MC0203J22010600005","2024-12-28T07:30:00",9.3,35.084908,0.262],
    [42376,"urn:WaterMeter:MC0203J22010600005","2024-12-28T07:45:00",9.3,35.109383,0.272],
    [42377,"urn:WaterMeter:MC0203J22010600005","2024-12-28T08:00:00",9.3,35.057793,0.271],
    [42378,"urn:WaterMeter:MC0203J22010600005","2024-12-28T08:15:00",9.3,35.074436,0.27],
    [42379,"urn:WaterMeter:MC0203J22010600005","2024-12-28T08:30:00",9.3,35.081844,0.268],
    [42380,"urn:WaterMeter:MC0203J22010600005","2024-12-28T08:45:00",9.399,35.038788,0.259],
    [42381,"urn:WaterMeter:MC0203J22010600005","2024-12-28T09:00:00",9.399,35.05818,0.258],
    [42382,"urn:WaterMeter:MC0203J22010600005","2024-12-28T09:15:00",9.6,35.015087,0.255],
    [42383,"urn:WaterMeter:MC0203J22010600005","2024-12-28T09:30:00",9.8,35.003876,0.273],
    [42384,"urn:WaterMeter:MC0203J22010600005","2024-12-28T09:45:00",10,35.00465,0.255],
    [42385,"urn:WaterMeter:MC0203J22010600005","2024-12-28T10:00:00",10.1,34.92358,0.261],
    [42386,"urn:WaterMeter:MC0203J22010600005","2024-12-28T10:15:00",10.199,34.94763,0.25],
    [42387,"urn:WaterMeter:MC0203J22010600005","2024-12-28T10:30:00",10.3,34.872765,0.265],
    [42388,"urn:WaterMeter:MC0203J22010600005","2024-12-28T10:45:00",10.3,34.917336,0.268],
    [42389,"urn:WaterMeter:MC0203J22010600005","2024-12-28T11:00:00",10.399,34.856472,0.26],
    [42390,"urn:WaterMeter:MC0203J22010600005","2024-12-28T11:15:00",10.399,34.868885,0.261],
    [42391,"urn:WaterMeter:MC0203J22010600005","2024-12-28T11:30:00",10.5,34.859924,0.274],
    [42392,"urn:WaterMeter:MC0203J22010600005","2024-12-28T11:45:00",10.6,34.8685,0.27],
    [42393,"urn:WaterMeter:MC0203J22010600005","2024-12-28T12:00:00",10.6,34.846,0.253],
    [42394,"urn:WaterMeter:MC0203J22010600005","2024-12-28T12:15:00",10.6,34.793205,0.267],
    [42395,"urn:WaterMeter:MC0203J22010600005","2024-12-28T12:30:00",10.699,34.804497,0.265],
    [42396,"urn:WaterMeter:MC0203J22010600005","2024-12-28T12:45:00",10.699,34.745106,0.256],
    [42397,"urn:WaterMeter:MC0203J22010600005","2024-12-28T13:00:00",10.699,34.742043,0.271],
    [42398,"urn:WaterMeter:MC0203J22010600005","2024-12-28T13:15:00",10.8,34.754417,0.27],
    [42399,"urn:WaterMeter:MC0203J22010600005","2024-12-28T13:30:00",10.8,34.71916,0.262],
    [42400,"urn:WaterMeter:MC0203J22010600005","2024-12-28T13:45:00",10.899,34.74127,0.263],
    [42401,"urn:WaterMeter:MC0203J22010600005","2024-12-28T14:00:00",10.899,34.694332,0.25],
    [42402,"urn:WaterMeter:MC0203J22010600005","2024-12-28T14:15:00",10.899,34.72416,0.264],
    [42403,"urn:WaterMeter:MC0203J22010600005","2024-12-28T14:30:00",10.899,34.720707,0.258],
    [42404,"urn:WaterMeter:MC0203J22010600005","2024-12-28T14:45:00",10.899,34.708294,0.257],
    [42405,"urn:WaterMeter:MC0203J22010600005","2024-12-28T15:00:00",10.899,34.691227,0.265],
    [42406,"urn:WaterMeter:MC0203J22010600005","2024-12-28T15:15:00",11,34.710236,0.287],
    [42407,"urn:WaterMeter:MC0203J22010600005","2024-12-28T15:30:00",11,34.617138,0.262],
    [42408,"urn:WaterMeter:MC0203J22010600005","2024-12-28T15:45:00",11,34.613262,0.251],
    [42409,"urn:WaterMeter:MC0203J22010600005","2024-12-28T16:00:00",11,34.638435,0.257],
    [42410,"urn:WaterMeter:MC0203J22010600005","2024-12-28T16:15:00",11,34.612873,0.255],
    [42411,"urn:WaterMeter:MC0203J22010600005","2024-12-28T16:30:00",11,34.632656,0.274],
    [42412,"urn:WaterMeter:MC0203J22010600005","2024-12-28T16:45:00",10.899,34.608955,0.265],
    [42413,"urn:WaterMeter:MC0203J22010600005","2024-12-28T17:00:00",10.8,34.624123,0.275],
    [42414,"urn:WaterMeter:MC0203J22010600005","2024-12-28T17:15:00",10.699,34.56939,0.27],
    [42415,"urn:WaterMeter:MC0203J22010600005","2024-12-28T17:30:00",10.5,34.60663,0.262],
    [42416,"urn:WaterMeter:MC0203J22010600005","2024-12-28T17:45:00",10.399,34.62994,0.261],
    [42417,"urn:WaterMeter:MC0203J22010600005","2024-12-28T18:00:00",10.3,34.632656,0.275],
    [42418,"urn:WaterMeter:MC0203J22010600005","2024-12-28T18:15:00",10.199,34.616364,0.266],
    [42419,"urn:WaterMeter:MC0203J22010600005","2024-12-28T18:30:00",10.199,34.600033,0.258],
    [42420,"urn:WaterMeter:MC0203J22010600005","2024-12-28T18:45:00",10.1,34.64468,0.265],
    [42421,"urn:WaterMeter:MC0203J22010600005","2024-12-28T19:00:00",10.1,34.60085,0.26],
    [42422,"urn:WaterMeter:MC0203J22010600005","2024-12-28T19:15:00",10,34.638046,0.278],
    [42423,"urn:WaterMeter:MC0203J22010600005","2024-12-28T19:30:00",9.899,34.631878,0.275],
    [42424,"urn:WaterMeter:MC0203J22010600005","2024-12-28T19:45:00",9.8,34.64507,0.281],
    [42425,"urn:WaterMeter:MC0203J22010600005","2024-12-28T20:00:00",9.8,34.648132,0.256],
    [42426,"urn:WaterMeter:MC0203J22010600005","2024-12-28T20:15:00",9.699,34.635372,0.258],
    [42427,"urn:WaterMeter:MC0203J22010600005","2024-12-28T20:30:00",9.699,34.606277,0.26],
    [42428,"urn:WaterMeter:MC0203J22010600005","2024-12-28T20:45:00",9.6,34.64852,0.267],
    [42429,"urn:WaterMeter:MC0203J22010600005","2024-12-28T21:00:00",9.6,34.613647,0.256],
    [42430,"urn:WaterMeter:MC0203J22010600005","2024-12-28T21:15:00",9.5,34.638046,0.258],
    [42431,"urn:WaterMeter:MC0203J22010600005","2024-12-28T21:30:00",9.399,34.58762,0.256],
    [42432,"urn:WaterMeter:MC0203J22010600005","2024-12-28T21:45:00",9.399,34.60973,0.263],
    [42433,"urn:WaterMeter:MC0203J22010600005","2024-12-28T22:00:00",9.3,34.631104,0.269],
    [42434,"urn:WaterMeter:MC0203J22010600005","2024-12-28T22:15:00",9.3,34.620243,0.273],
    [42435,"urn:WaterMeter:MC0203J22010600005","2024-12-28T22:30:00",9.199,34.626022,0.255],
    [42436,"urn:WaterMeter:MC0203J22010600005","2024-12-28T22:45:00",9.199,34.631104,0.265],
    [42437,"urn:WaterMeter:MC0203J22010600005","2024-12-28T23:00:00",9.1,34.65822,0.264],
    [42438,"urn:WaterMeter:MC0203J22010600005","2024-12-28T23:15:00",9.1,34.62874,0.26],
    [42439,"urn:WaterMeter:MC0203J22010600005","2024-12-28T23:30:00",9.1,34.60395,0.257],
    [42440,"urn:WaterMeter:MC0203J22010600005","2024-12-28T23:45:00",9,34.643517,0.284],
    [42441,"urn:WaterMeter:MC0203J22010600005","2024-12-29T00:00:00",9,34.632656,0.254],
    [42442,"urn:WaterMeter:MC0203J22010600005","2024-12-29T00:15:00",8.899,34.619427,0.268],
    [42443,"urn:WaterMeter:MC0203J22010600005","2024-12-29T00:30:00",8.8,34.612484,0.265],
    [42444,"urn:WaterMeter:MC0203J22010600005","2024-12-29T00:45:00",8.8,34.620632,0.266],
    [42445,"urn:WaterMeter:MC0203J22010600005","2024-12-29T01:00:00",8.8,34.60356,0.264],
    [42446,"urn:WaterMeter:MC0203J22010600005","2024-12-29T01:15:00",8.8,34.642353,0.268],
    [42447,"urn:WaterMeter:MC0203J22010600005","2024-12-29T01:30:00",8.8,34.613262,0.266],
    [42448,"urn:WaterMeter:MC0203J22010600005","2024-12-29T01:45:00",8.899,34.599644,0.269],
    [42449,"urn:WaterMeter:MC0203J22010600005","2024-12-29T02:00:00",8.899,34.62257,0.258],
    [42450,"urn:WaterMeter:MC0203J22010600005","2024-12-29T02:15:00",8.899,34.605114,0.267],
    [42451,"urn:WaterMeter:MC0203J22010600005","2024-12-29T02:30:00",8.899,34.61559,0.262],
    [42452,"urn:WaterMeter:MC0203J22010600005","2024-12-29T02:45:00",8.899,34.61093,0.257],
    [42453,"urn:WaterMeter:MC0203J22010600005","2024-12-29T03:00:00",8.899,34.602398,0.265],
    [42454,"urn:WaterMeter:MC0203J22010600005","2024-12-29T03:15:00",8.899,34.58801,0.268],
    [42455,"urn:WaterMeter:MC0203J22010600005","2024-12-29T03:30:00",8.899,34.63421,0.26],
    [42456,"urn:WaterMeter:MC0203J22010600005","2024-12-29T03:45:00",8.899,34.57408,0.26],
    [42457,"urn:WaterMeter:MC0203J22010600005","2024-12-29T04:00:00",8.899,34.583393,0.262],
    [42458,"urn:WaterMeter:MC0203J22010600005","2024-12-29T04:15:00",8.899,34.58184,0.262],
    [42459,"urn:WaterMeter:MC0203J22010600005","2024-12-29T04:30:00",8.899,34.55973,0.259],
    [42460,"urn:WaterMeter:MC0203J22010600005","2024-12-29T04:45:00",8.899,34.53956,0.254],
    [42461,"urn:WaterMeter:MC0203J22010600005","2024-12-29T05:00:00",8.899,34.573696,0.267],
    [42462,"urn:WaterMeter:MC0203J22010600005","2024-12-29T05:15:00",8.899,34.53956,0.249],
    [42463,"urn:WaterMeter:MC0203J22010600005","2024-12-29T05:30:00",8.899,34.515896,0.263],
    [42464,"urn:WaterMeter:MC0203J22010600005","2024-12-29T05:45:00",8.899,34.551544,0.254],
    [42465,"urn:WaterMeter:MC0203J22010600005","2024-12-29T06:00:00",8.899,34.564384,0.25],
    [42466,"urn:WaterMeter:MC0203J22010600005","2024-12-29T06:15:00",9,34.570553,0.257],
    [42467,"urn:WaterMeter:MC0203J22010600005","2024-12-29T06:30:00",9,34.534515,0.262],
    [42468,"urn:WaterMeter:MC0203J22010600005","2024-12-29T06:45:00",9,34.530212,0.261],
    [42469,"urn:WaterMeter:MC0203J22010600005","2024-12-29T07:00:00",9,34.479435,0.258],
    [42470,"urn:WaterMeter:MC0203J22010600005","2024-12-29T07:15:00",9,34.522842,0.266],
    [42471,"urn:WaterMeter:MC0203J22010600005","2024-12-29T07:30:00",9,34.54305,0.257],
    [42472,"urn:WaterMeter:MC0203J22010600005","2024-12-29T07:45:00",9.1,34.55275,0.262],
    [42473,"urn:WaterMeter:MC0203J22010600005","2024-12-29T08:00:00",9.1,34.541847,0.262],
    [42474,"urn:WaterMeter:MC0203J22010600005","2024-12-29T08:15:00",9.1,34.522842,0.258],
    [42475,"urn:WaterMeter:MC0203J22010600005","2024-12-29T08:30:00",9.1,34.50814,0.266],
    [42476,"urn:WaterMeter:MC0203J22010600005","2024-12-29T08:45:00",9.1,34.48021,0.263],
    [42477,"urn:WaterMeter:MC0203J22010600005","2024-12-29T09:00:00",9.199,34.536842,0.245],
    [42478,"urn:WaterMeter:MC0203J22010600005","2024-12-29T09:15:00",9.199,34.49336,0.253],
    [42479,"urn:WaterMeter:MC0203J22010600005","2024-12-29T09:30:00",9.3,34.48215,0.257],
    [42480,"urn:WaterMeter:MC0203J22010600005","2024-12-29T09:45:00",9.399,34.479824,0.251],
    [42481,"urn:WaterMeter:MC0203J22010600005","2024-12-29T10:00:00",9.5,34.44526,0.254],
    [42482,"urn:WaterMeter:MC0203J22010600005","2024-12-29T10:15:00",9.6,34.475945,0.265],
    [42483,"urn:WaterMeter:MC0203J22010600005","2024-12-29T10:30:00",9.699,34.46159,0.244],
    [42484,"urn:WaterMeter:MC0203J22010600005","2024-12-29T10:45:00",9.8,34.43056,0.267],
    [42485,"urn:WaterMeter:MC0203J22010600005","2024-12-29T11:00:00",9.899,34.442196,0.258],
    [42486,"urn:WaterMeter:MC0203J22010600005","2024-12-29T11:15:00",10,34.37505,0.25],
    [42487,"urn:WaterMeter:MC0203J22010600005","2024-12-29T11:30:00",10.199,34.409615,0.25],
    [42488,"urn:WaterMeter:MC0203J22010600005","2024-12-29T11:45:00",10.399,34.45655,0.258],
    [42489,"urn:WaterMeter:MC0203J22010600005","2024-12-29T12:00:00",10.5,34.45263,0.247],
    [42490,"urn:WaterMeter:MC0203J22010600005","2024-12-29T12:15:00",10.6,34.397976,0.255],
    [42491,"urn:WaterMeter:MC0203J22010600005","2024-12-29T12:30:00",10.699,34.405308,0.267],
    [42492,"urn:WaterMeter:MC0203J22010600005","2024-12-29T12:45:00",10.8,34.357983,0.248],
    [42493,"urn:WaterMeter:MC0203J22010600005","2024-12-29T13:00:00",10.899,34.300613,0.254],
    [42494,"urn:WaterMeter:MC0203J22010600005","2024-12-29T13:15:00",11,34.344833,0.28],
    [42495,"urn:WaterMeter:MC0203J22010600005","2024-12-29T13:30:00",11.1,34.337814,0.254],
    [42496,"urn:WaterMeter:MC0203J22010600005","2024-12-29T13:45:00",11.199,34.30488,0.253],
    [42497,"urn:WaterMeter:MC0203J22010600005","2024-12-29T14:00:00",11.199,34.304493,0.276],
    [42498,"urn:WaterMeter:MC0203J22010600005","2024-12-29T14:15:00",11.3,34.29941,0.282],
    [42499,"urn:WaterMeter:MC0203J22010600005","2024-12-29T14:30:00",11.3,34.299797,0.266],
    [42500,"urn:WaterMeter:MC0203J22010600005","2024-12-29T14:45:00",11.3,34.256393,0.266],
    [42501,"urn:WaterMeter:MC0203J22010600005","2024-12-29T15:00:00",11.3,34.22028,0.255],
    [42502,"urn:WaterMeter:MC0203J22010600005","2024-12-29T15:15:00",11.3,34.190838,0.265],
    [42503,"urn:WaterMeter:MC0203J22010600005","2024-12-29T15:30:00",11.3,34.240063,0.255],
    [42504,"urn:WaterMeter:MC0203J22010600005","2024-12-29T15:45:00",11.3,34.25015,0.253],
    [42505,"urn:WaterMeter:MC0203J22010600005","2024-12-29T16:00:00",11.3,34.17532,0.263],
    [42506,"urn:WaterMeter:MC0203J22010600005","2024-12-29T16:15:00",11.199,34.18851,0.253],
    [42507,"urn:WaterMeter:MC0203J22010600005","2024-12-29T16:30:00",11.1,34.172955,0.251],
    [42508,"urn:WaterMeter:MC0203J22010600005","2024-12-29T16:45:00",11,34.17183,0.252],
    [42509,"urn:WaterMeter:MC0203J22010600005","2024-12-29T17:00:00",10.899,34.20907,0.279],
    [42510,"urn:WaterMeter:MC0203J22010600005","2024-12-29T17:15:00",10.8,34.21644,0.241],
    [42511,"urn:WaterMeter:MC0203J22010600005","2024-12-29T17:30:00",10.699,34.143085,0.281],
    [42512,"urn:WaterMeter:MC0203J22010600005","2024-12-29T17:45:00",10.6,34.148945,0.249],
    [42513,"urn:WaterMeter:MC0203J22010600005","2024-12-29T18:00:00",10.5,34.20519,0.253],
    [42514,"urn:WaterMeter:MC0203J22010600005","2024-12-29T18:15:00",10.399,34.139633,0.256],
    [42515,"urn:WaterMeter:MC0203J22010600005","2024-12-29T18:30:00",10.3,34.22342,0.262],
    [42516,"urn:WaterMeter:MC0203J22010600005","2024-12-29T18:45:00",10.199,34.16795,0.277],
    [42517,"urn:WaterMeter:MC0203J22010600005","2024-12-29T19:00:00",10.1,34.21989,0.271],
    [42518,"urn:WaterMeter:MC0203J22010600005","2024-12-29T19:15:00",10.1,34.20713,0.252],
    [42519,"urn:WaterMeter:MC0203J22010600005","2024-12-29T19:30:00",10,34.191574,0.25],
    [42520,"urn:WaterMeter:MC0203J22010600005","2024-12-29T19:45:00",9.899,34.191227,0.252],
    [42521,"urn:WaterMeter:MC0203J22010600005","2024-12-29T20:00:00",9.8,34.183853,0.26],
    [42522,"urn:WaterMeter:MC0203J22010600005","2024-12-29T20:15:00",9.699,34.249023,0.262],
    [42523,"urn:WaterMeter:MC0203J22010600005","2024-12-29T20:30:00",9.6,34.221832,0.266],
    [42524,"urn:WaterMeter:MC0203J22010600005","2024-12-29T20:45:00",9.6,34.252125,0.256],
    [42525,"urn:WaterMeter:MC0203J22010600005","2024-12-29T21:00:00",9.6,34.171055,0.256],
    [42526,"urn:WaterMeter:MC0203J22010600005","2024-12-29T21:15:00",9.6,34.208294,0.263],
    [42527,"urn:WaterMeter:MC0203J22010600005","2024-12-29T21:30:00",9.5,34.198208,0.251],
    [42528,"urn:WaterMeter:MC0203J22010600005","2024-12-29T21:45:00",9.5,34.188896,0.265],
    [42529,"urn:WaterMeter:MC0203J22010600005","2024-12-29T22:00:00",9.5,34.20325,0.258],
    [42530,"urn:WaterMeter:MC0203J22010600005","2024-12-29T22:15:00",9.5,34.203636,0.266],
    [42531,"urn:WaterMeter:MC0203J22010600005","2024-12-29T22:30:00",9.5,34.21838,0.259],
    [42532,"urn:WaterMeter:MC0203J22010600005","2024-12-29T22:45:00",9.399,34.212948,0.261],
    [42533,"urn:WaterMeter:MC0203J22010600005","2024-12-29T23:00:00",9.399,34.198597,0.265],
    [42534,"urn:WaterMeter:MC0203J22010600005","2024-12-29T23:15:00",9.3,34.20519,0.26],
    [42535,"urn:WaterMeter:MC0203J22010600005","2024-12-29T23:30:00",9.3,34.181488,0.256],
    [42536,"urn:WaterMeter:MC0203J22010600005","2024-12-29T23:45:00",9.199,34.210968,0.256],
    [42537,"urn:WaterMeter:MC0203J22010600005","2024-12-30T00:00:00",9.1,34.198982,0.259],
    [42538,"urn:WaterMeter:MC0203J22010600005","2024-12-30T00:15:00",9.1,34.18502,0.256],
    [42539,"urn:WaterMeter:MC0203J22010600005","2024-12-30T00:30:00",9,34.23312,0.269],
    [42540,"urn:WaterMeter:MC0203J22010600005","2024-12-30T00:45:00",9,34.207905,0.258],
    [42541,"urn:WaterMeter:MC0203J22010600005","2024-12-30T01:00:00",8.899,34.22497,0.251],
    [42542,"urn:WaterMeter:MC0203J22010600005","2024-12-30T01:15:00",8.899,34.211357,0.262],
    [42543,"urn:WaterMeter:MC0203J22010600005","2024-12-30T01:30:00",8.899,34.209457,0.26],
    [42544,"urn:WaterMeter:MC0203J22010600005","2024-12-30T01:45:00",8.899,34.21644,0.257],
    [42545,"urn:WaterMeter:MC0203J22010600005","2024-12-30T02:00:00",8.899,34.205967,0.264],
    [42546,"urn:WaterMeter:MC0203J22010600005","2024-12-30T02:15:00",8.899,34.24708,0.261],
    [42547,"urn:WaterMeter:MC0203J22010600005","2024-12-30T02:30:00",8.899,34.226524,0.26],
    [42548,"urn:WaterMeter:MC0203J22010600005","2024-12-30T02:45:00",8.899,34.210968,0.259],
    [42549,"urn:WaterMeter:MC0203J22010600005","2024-12-30T03:00:00",8.899,34.221832,0.261],
    [42550,"urn:WaterMeter:MC0203J22010600005","2024-12-30T03:15:00",8.899,34.217213,0.267],
    [42551,"urn:WaterMeter:MC0203J22010600005","2024-12-30T03:30:00",8.899,34.193554,0.257],
    [42552,"urn:WaterMeter:MC0203J22010600005","2024-12-30T03:45:00",8.899,34.19588,0.257],
    [42553,"urn:WaterMeter:MC0203J22010600005","2024-12-30T04:00:00",8.899,34.2176,0.261],
    [42554,"urn:WaterMeter:MC0203J22010600005","2024-12-30T04:15:00",8.8,34.19549,0.252],
    [42555,"urn:WaterMeter:MC0203J22010600005","2024-12-30T04:30:00",8.8,34.21023,0.278],
    [42556,"urn:WaterMeter:MC0203J22010600005","2024-12-30T04:45:00",8.699,34.16287,0.259],
    [42557,"urn:WaterMeter:MC0203J22010600005","2024-12-30T05:00:00",8.699,34.10705,0.259],
    [42558,"urn:WaterMeter:MC0203J22010600005","2024-12-30T05:15:00",8.8,34.112095,0.261],
    [42559,"urn:WaterMeter:MC0203J22010600005","2024-12-30T05:30:00",8.899,34.143864,0.253],
    [42560,"urn:WaterMeter:MC0203J22010600005","2024-12-30T05:45:00",9,34.5543,0.257],
    [42561,"urn:WaterMeter:MC0203J22010600005","2024-12-30T06:00:00",9,35.38945,0.272],
    [42562,"urn:WaterMeter:MC0203J22010600005","2024-12-30T06:15:00",9,36.110943,0.279],
    [42563,"urn:WaterMeter:MC0203J22010600005","2024-12-30T06:30:00",9,36.67146,0.287],
    [42564,"urn:WaterMeter:MC0203J22010600005","2024-12-30T06:45:00",9,36.948807,0.304],
    [42565,"urn:WaterMeter:MC0203J22010600005","2024-12-30T07:00:00",9,37.179955,0.31],
    [42566,"urn:WaterMeter:MC0203J22010600005","2024-12-30T07:15:00",9,37.31809,0.294],
    [42567,"urn:WaterMeter:MC0203J22010600005","2024-12-30T07:30:00",8.899,37.442215,0.288],
    [42568,"urn:WaterMeter:MC0203J22010600005","2024-12-30T07:45:00",8.899,37.523674,0.292],
    [42569,"urn:WaterMeter:MC0203J22010600005","2024-12-30T08:00:00",9,37.6094,0.311],
    [42570,"urn:WaterMeter:MC0203J22010600005","2024-12-30T08:15:00",9,37.360718,0.3],
    [42571,"urn:WaterMeter:MC0203J22010600005","2024-12-30T08:30:00",8.899,37.078365,0.281],
    [42572,"urn:WaterMeter:MC0203J22010600005","2024-12-30T08:45:00",8.899,36.852993,0.292],
    [42573,"urn:WaterMeter:MC0203J22010600005","2024-12-30T09:00:00",8.899,36.74477,0.276],
    [42574,"urn:WaterMeter:MC0203J22010600005","2024-12-30T09:15:00",9,36.662148,0.285],
    [42575,"urn:WaterMeter:MC0203J22010600005","2024-12-30T09:30:00",9.3,36.557766,0.308],
    [42576,"urn:WaterMeter:MC0203J22010600005","2024-12-30T09:45:00",9.6,36.497677,0.277],
    [42577,"urn:WaterMeter:MC0203J22010600005","2024-12-30T10:00:00",9.899,36.45501,0.275],
    [42578,"urn:WaterMeter:MC0203J22010600005","2024-12-30T10:15:00",10.1,36.315716,0.28],
    [42579,"urn:WaterMeter:MC0203J22010600005","2024-12-30T10:30:00",10.399,36.311874,0.266],
    [42580,"urn:WaterMeter:MC0203J22010600005","2024-12-30T10:45:00",10.6,36.240112,0.264],
    [42581,"urn:WaterMeter:MC0203J22010600005","2024-12-30T11:00:00",10.8,36.176884,0.269],
    [42582,"urn:WaterMeter:MC0203J22010600005","2024-12-30T11:15:00",10.899,36.15749,0.269],
    [42583,"urn:WaterMeter:MC0203J22010600005","2024-12-30T11:30:00",11,36.099693,0.273],
    [42584,"urn:WaterMeter:MC0203J22010600005","2024-12-30T11:45:00",11.1,36.037243,0.268],
    [42585,"urn:WaterMeter:MC0203J22010600005","2024-12-30T12:00:00",11.3,36.047325,0.263],
    [42586,"urn:WaterMeter:MC0203J22010600005","2024-12-30T12:15:00",11.399,35.921646,0.273],
    [42587,"urn:WaterMeter:MC0203J22010600005","2024-12-30T12:30:00",11.5,35.825836,0.274],
    [42588,"urn:WaterMeter:MC0203J22010600005","2024-12-30T12:45:00",11.6,35.857254,0.264],
    [42589,"urn:WaterMeter:MC0203J22010600005","2024-12-30T13:00:00",11.6,35.69585,0.272],
    [42590,"urn:WaterMeter:MC0203J22010600005","2024-12-30T13:15:00",11.699,35.628784,0.269],
    [42591,"urn:WaterMeter:MC0203J22010600005","2024-12-30T13:30:00",11.699,35.534523,0.267],
    [42592,"urn:WaterMeter:MC0203J22010600005","2024-12-30T13:45:00",11.6,35.59577,0.27],
    [42593,"urn:WaterMeter:MC0203J22010600005","2024-12-30T14:00:00",11.6,35.518967,0.266],
    [42594,"urn:WaterMeter:MC0203J22010600005","2024-12-30T14:15:00",11.6,35.46974,0.261],
    [42595,"urn:WaterMeter:MC0203J22010600005","2024-12-30T14:30:00",11.699,35.47203,0.278],
    [42596,"urn:WaterMeter:MC0203J22010600005","2024-12-30T14:45:00",11.6,35.43677,0.27],
    [42597,"urn:WaterMeter:MC0203J22010600005","2024-12-30T15:00:00",11.6,35.44647,0.267],
    [42598,"urn:WaterMeter:MC0203J22010600005","2024-12-30T15:15:00",11.6,35.48018,0.276],
    [42599,"urn:WaterMeter:MC0203J22010600005","2024-12-30T15:30:00",11.5,35.391388,0.28],
    [42600,"urn:WaterMeter:MC0203J22010600005","2024-12-30T15:45:00",11.5,35.343636,0.263],
    [42601,"urn:WaterMeter:MC0203J22010600005","2024-12-30T16:00:00",11.5,35.42048,0.281],
    [42602,"urn:WaterMeter:MC0203J22010600005","2024-12-30T16:15:00",11.399,35.403374,0.265],
    [42603,"urn:WaterMeter:MC0203J22010600005","2024-12-30T16:30:00",11.399,35.373543,0.265],
    [42604,"urn:WaterMeter:MC0203J22010600005","2024-12-30T16:45:00",11.3,35.386345,0.269],
    [42605,"urn:WaterMeter:MC0203J22010600005","2024-12-30T17:00:00",11.199,35.369667,0.267],
    [42606,"urn:WaterMeter:MC0203J22010600005","2024-12-30T17:15:00",11,35.360355,0.282],
    [42607,"urn:WaterMeter:MC0203J22010600005","2024-12-30T17:30:00",10.899,35.355274,0.268],
    [42608,"urn:WaterMeter:MC0203J22010600005","2024-12-30T17:45:00",10.8,35.314583,0.286],
    [42609,"urn:WaterMeter:MC0203J22010600005","2024-12-30T18:00:00",10.699,35.29131,0.285],
    [42610,"urn:WaterMeter:MC0203J22010600005","2024-12-30T18:15:00",10.6,35.329323,0.268],
    [42611,"urn:WaterMeter:MC0203J22010600005","2024-12-30T18:30:00",10.5,35.359966,0.297],
    [42612,"urn:WaterMeter:MC0203J22010600005","2024-12-30T18:45:00",10.399,35.32463,0.285],
    [42613,"urn:WaterMeter:MC0203J22010600005","2024-12-30T19:00:00",10.3,35.31303,0.265],
    [42614,"urn:WaterMeter:MC0203J22010600005","2024-12-30T19:15:00",10.199,35.327347,0.27],
    [42615,"urn:WaterMeter:MC0203J22010600005","2024-12-30T19:30:00",10.199,35.32502,0.278],
    [42616,"urn:WaterMeter:MC0203J22010600005","2024-12-30T19:45:00",10.1,35.281612,0.277],
    [42617,"urn:WaterMeter:MC0203J22010600005","2024-12-30T20:00:00",10,35.281223,0.272],
    [42618,"urn:WaterMeter:MC0203J22010600005","2024-12-30T20:15:00",10,35.286617,0.28],
    [42619,"urn:WaterMeter:MC0203J22010600005","2024-12-30T20:30:00",10,35.282387,0.268],
    [42620,"urn:WaterMeter:MC0203J22010600005","2024-12-30T20:45:00",9.899,35.28006,0.273],
    [42621,"urn:WaterMeter:MC0203J22010600005","2024-12-30T21:00:00",9.899,35.28584,0.279],
    [42622,"urn:WaterMeter:MC0203J22010600005","2024-12-30T21:15:00",9.899,35.290535,0.266],
    [42623,"urn:WaterMeter:MC0203J22010600005","2024-12-30T21:30:00",9.899,35.253296,0.281],
    [42624,"urn:WaterMeter:MC0203J22010600005","2024-12-30T21:45:00",9.899,35.2199,0.261],
    [42625,"urn:WaterMeter:MC0203J22010600005","2024-12-30T22:00:00",9.899,35.26571,0.263],
    [42626,"urn:WaterMeter:MC0203J22010600005","2024-12-30T22:15:00",9.899,35.183086,0.268],
    [42627,"urn:WaterMeter:MC0203J22010600005","2024-12-30T22:30:00",9.8,35.226917,0.264],
    [42628,"urn:WaterMeter:MC0203J22010600005","2024-12-30T22:45:00",9.699,35.241272,0.265],
    [42629,"urn:WaterMeter:MC0203J22010600005","2024-12-30T23:00:00",9.699,35.200115,0.264],
    [42630,"urn:WaterMeter:MC0203J22010600005","2024-12-30T23:15:00",9.6,35.222263,0.27],
    [42631,"urn:WaterMeter:MC0203J22010600005","2024-12-30T23:30:00",9.6,35.193947,0.271],
    [42632,"urn:WaterMeter:MC0203J22010600005","2024-12-30T23:45:00",9.5,35.214504,0.271],
    [42633,"urn:WaterMeter:MC0203J22010600005","2024-12-31T00:00:00",9.5,35.240067,0.268],
    [42634,"urn:WaterMeter:MC0203J22010600005","2024-12-31T00:15:00",9.399,35.167957,0.299],
    [42635,"urn:WaterMeter:MC0203J22010600005","2024-12-31T00:30:00",9.399,35.2102,0.275],
    [42636,"urn:WaterMeter:MC0203J22010600005","2024-12-31T00:45:00",9.3,35.15477,0.277],
    [42637,"urn:WaterMeter:MC0203J22010600005","2024-12-31T01:00:00",9.3,35.19705,0.259],
    [42638,"urn:WaterMeter:MC0203J22010600005","2024-12-31T01:15:00",9.3,35.17494,0.273],
    [42639,"urn:WaterMeter:MC0203J22010600005","2024-12-31T01:30:00",9.199,35.199764,0.268],
    [42640,"urn:WaterMeter:MC0203J22010600005","2024-12-31T01:45:00",9.199,35.172573,0.267],
    [42641,"urn:WaterMeter:MC0203J22010600005","2024-12-31T02:00:00",9.199,35.19042,0.277],
    [42642,"urn:WaterMeter:MC0203J22010600005","2024-12-31T02:15:00",9.3,35.170635,0.261],
    [42643,"urn:WaterMeter:MC0203J22010600005","2024-12-31T02:30:00",9.3,35.14546,0.271],
    [42644,"urn:WaterMeter:MC0203J22010600005","2024-12-31T02:45:00",9.3,35.152016,0.264],
    [42645,"urn:WaterMeter:MC0203J22010600005","2024-12-31T03:00:00",9.399,35.15826,0.274],
    [42646,"urn:WaterMeter:MC0203J22010600005","2024-12-31T03:15:00",9.399,35.12331,0.282],
    [42647,"urn:WaterMeter:MC0203J22010600005","2024-12-31T03:30:00",9.399,35.12684,0.267],
    [42648,"urn:WaterMeter:MC0203J22010600005","2024-12-31T03:45:00",9.399,35.111286,0.273],
    [42649,"urn:WaterMeter:MC0203J22010600005","2024-12-31T04:00:00",9.399,35.121796,0.261],
    [42650,"urn:WaterMeter:MC0203J22010600005","2024-12-31T04:15:00",9.399,35.114815,0.267],
    [42651,"urn:WaterMeter:MC0203J22010600005","2024-12-31T04:30:00",9.399,35.115204,0.266],
    [42652,"urn:WaterMeter:MC0203J22010600005","2024-12-31T04:45:00",9.399,35.105118,0.27],
    [42653,"urn:WaterMeter:MC0203J22010600005","2024-12-31T05:00:00",9.399,35.09542,0.255],
    [42654,"urn:WaterMeter:MC0203J22010600005","2024-12-31T05:15:00",9.5,35.129555,0.258],
    [42655,"urn:WaterMeter:MC0203J22010600005","2024-12-31T05:30:00",9.699,35.470905,0.269],
    [42656,"urn:WaterMeter:MC0203J22010600005","2024-12-31T05:45:00",9.8,36.193176,0.288],
    [42657,"urn:WaterMeter:MC0203J22010600005","2024-12-31T06:00:00",9.8,36.794033,0.293],
    [42658,"urn:WaterMeter:MC0203J22010600005","2024-12-31T06:15:00",9.899,37.142757,0.288],
    [42659,"urn:WaterMeter:MC0203J22010600005","2024-12-31T06:30:00",9.899,37.385193,0.29],
    [42660,"urn:WaterMeter:MC0203J22010600005","2024-12-31T06:45:00",9.899,37.58108,0.285],
    [42661,"urn:WaterMeter:MC0203J22010600005","2024-12-31T07:00:00",9.899,37.714134,0.294],
    [42662,"urn:WaterMeter:MC0203J22010600005","2024-12-31T07:15:00",9.899,37.879765,0.308],
    [42663,"urn:WaterMeter:MC0203J22010600005","2024-12-31T07:30:00",9.899,38.004242,0.298],
    [42664,"urn:WaterMeter:MC0203J22010600005","2024-12-31T07:45:00",9.899,38.135006,0.296],
    [42665,"urn:WaterMeter:MC0203J22010600005","2024-12-31T08:00:00",9.899,38.240124,0.316],
    [42666,"urn:WaterMeter:MC0203J22010600005","2024-12-31T08:15:00",9.8,38.157463,0.317],
    [42667,"urn:WaterMeter:MC0203J22010600005","2024-12-31T08:30:00",9.699,37.821583,0.29],
    [42668,"urn:WaterMeter:MC0203J22010600005","2024-12-31T08:45:00",9.699,37.676506,0.287],
    [42669,"urn:WaterMeter:MC0203J22010600005","2024-12-31T09:00:00",9.6,37.505444,0.298],
    [42670,"urn:WaterMeter:MC0203J22010600005","2024-12-31T09:15:00",9.6,37.25525,0.289],
    [42671,"urn:WaterMeter:MC0203J22010600005","2024-12-31T09:30:00",9.699,37.09229,0.277],
    [42672,"urn:WaterMeter:MC0203J22010600005","2024-12-31T09:45:00",9.699,36.84097,0.288],
    [42673,"urn:WaterMeter:MC0203J22010600005","2024-12-31T10:00:00",9.8,36.74555,0.304],
    [42674,"urn:WaterMeter:MC0203J22010600005","2024-12-31T10:15:00",9.899,36.724174,0.282],
    [42675,"urn:WaterMeter:MC0203J22010600005","2024-12-31T10:30:00",10,36.645042,0.279],
    [42676,"urn:WaterMeter:MC0203J22010600005","2024-12-31T10:45:00",10,36.53647,0.28],
    [42677,"urn:WaterMeter:MC0203J22010600005","2024-12-31T11:00:00",10.1,36.52483,0.279],
    [42678,"urn:WaterMeter:MC0203J22010600005","2024-12-31T11:15:00",10.199,36.48255,0.29],
    [42679,"urn:WaterMeter:MC0203J22010600005","2024-12-31T11:30:00",10.399,36.460052,0.281],
    [42680,"urn:WaterMeter:MC0203J22010600005","2024-12-31T11:45:00",10.6,36.533752,0.269],
    [42681,"urn:WaterMeter:MC0203J22010600005","2024-12-31T12:00:00",10.699,36.434063,0.283],
    [42682,"urn:WaterMeter:MC0203J22010600005","2024-12-31T12:15:00",10.899,36.309547,0.293],
    [42683,"urn:WaterMeter:MC0203J22010600005","2024-12-31T12:30:00",11,36.230026,0.275],
    [42684,"urn:WaterMeter:MC0203J22010600005","2024-12-31T12:45:00",11,36.22227,0.284],
    [42685,"urn:WaterMeter:MC0203J22010600005","2024-12-31T13:00:00",11.1,36.225372,0.281],
    [42686,"urn:WaterMeter:MC0203J22010600005","2024-12-31T13:15:00",11.199,36.107838,0.287],
    [42687,"urn:WaterMeter:MC0203J22010600005","2024-12-31T13:30:00",11.399,36.103535,0.28],
    [42688,"urn:WaterMeter:MC0203J22010600005","2024-12-31T13:45:00",11.399,36.040344,0.28],
    [42689,"urn:WaterMeter:MC0203J22010600005","2024-12-31T14:00:00",11.3,35.97867,0.274],
    [42690,"urn:WaterMeter:MC0203J22010600005","2024-12-31T14:15:00",11.199,35.916218,0.266],
    [42691,"urn:WaterMeter:MC0203J22010600005","2024-12-31T14:30:00",11.1,35.96777,0.278],
    [42692,"urn:WaterMeter:MC0203J22010600005","2024-12-31T14:45:00",11,35.910786,0.266],
    [42693,"urn:WaterMeter:MC0203J22010600005","2024-12-31T15:00:00",11,35.93367,0.284],
    [42694,"urn:WaterMeter:MC0203J22010600005","2024-12-31T15:15:00",10.899,35.89911,0.282],
    [42695,"urn:WaterMeter:MC0203J22010600005","2024-12-31T15:30:00",10.8,35.905743,0.302],
    [42696,"urn:WaterMeter:MC0203J22010600005","2024-12-31T15:45:00",10.8,36.00272,0.281],
    [42697,"urn:WaterMeter:MC0203J22010600005","2024-12-31T16:00:00",10.699,36.043797,0.297],
    [42698,"urn:WaterMeter:MC0203J22010600005","2024-12-31T16:15:00",10.699,36.136543,0.283],
    [42699,"urn:WaterMeter:MC0203J22010600005","2024-12-31T16:30:00",10.699,36.11715,0.292],
    [42700,"urn:WaterMeter:MC0203J22010600005","2024-12-31T16:45:00",10.699,36.18926,0.299],
    [42701,"urn:WaterMeter:MC0203J22010600005","2024-12-31T17:00:00",10.6,36.174946,0.281],
    [42702,"urn:WaterMeter:MC0203J22010600005","2024-12-31T17:15:00",10.6,36.1924,0.272],
    [42703,"urn:WaterMeter:MC0203J22010600005","2024-12-31T17:30:00",10.6,36.11168,0.312],
    [42704,"urn:WaterMeter:MC0203J22010600005","2024-12-31T17:45:00",10.5,36.09077,0.28],
    [42705,"urn:WaterMeter:MC0203J22010600005","2024-12-31T18:00:00",10.399,36.077194,0.267],
    [42706,"urn:WaterMeter:MC0203J22010600005","2024-12-31T18:15:00",10.399,36.077583,0.275],
    [42707,"urn:WaterMeter:MC0203J22010600005","2024-12-31T18:30:00",10.3,36.086117,0.282],
    [42708,"urn:WaterMeter:MC0203J22010600005","2024-12-31T18:45:00",10.3,36.04535,0.28],
    [42709,"urn:WaterMeter:MC0203J22010600005","2024-12-31T19:00:00",10.199,36.03142,0.294],
    [42710,"urn:WaterMeter:MC0203J22010600005","2024-12-31T19:15:00",10.199,36.00194,0.274],
    [42711,"urn:WaterMeter:MC0203J22010600005","2024-12-31T19:30:00",10.199,36.02095,0.3],
    [42712,"urn:WaterMeter:MC0203J22010600005","2024-12-31T19:45:00",10.1,36.121376,0.281],
    [42713,"urn:WaterMeter:MC0203J22010600005","2024-12-31T20:00:00",10.1,36.079136,0.268],
    [42714,"urn:WaterMeter:MC0203J22010600005","2024-12-31T20:15:00",10.1,36.10004,0.282],
    [42715,"urn:WaterMeter:MC0203J22010600005","2024-12-31T20:30:00",10.1,36.09038,0.293],
    [42716,"urn:WaterMeter:MC0203J22010600005","2024-12-31T20:45:00",10.1,36.057026,0.285],
    [42717,"urn:WaterMeter:MC0203J22010600005","2024-12-31T21:00:00",10.1,36.04496,0.297],
    [42718,"urn:WaterMeter:MC0203J22010600005","2024-12-31T21:15:00",10.1,36.081036,0.283],
    [42719,"urn:WaterMeter:MC0203J22010600005","2024-12-31T21:30:00",10.1,36.081036,0.281],
    [42720,"urn:WaterMeter:MC0203J22010600005","2024-12-31T21:45:00",10.1,36.05043,0.277],
    [42721,"urn:WaterMeter:MC0203J22010600005","2024-12-31T22:00:00",10,36.03181,0.284],
    [42722,"urn:WaterMeter:MC0203J22010600005","2024-12-31T22:15:00",10,36.040733,0.29],
    [42723,"urn:WaterMeter:MC0203J22010600005","2024-12-31T22:30:00",10,36.00078,0.287],
    [42724,"urn:WaterMeter:MC0203J22010600005","2024-12-31T22:45:00",10,36.03026,0.277],
    [42725,"urn:WaterMeter:MC0203J22010600005","2024-12-31T23:00:00",10,35.94337,0.292],
    [42726,"urn:WaterMeter:MC0203J22010600005","2024-12-31T23:15:00",9.899,35.944534,0.285],
    [42727,"urn:WaterMeter:MC0203J22010600005","2024-12-31T23:30:00",9.899,35.96393,0.275],
    [42728,"urn:WaterMeter:MC0203J22010600005","2024-12-31T23:45:00",9.899,35.95423,0.289],
    [42729,"urn:WaterMeter:MC0203J22010600005","2025-01-01T00:00:00",9.899,35.944534,0.28],
    [42730,"urn:WaterMeter:MC0203J22010600005","2025-01-01T00:15:00",9.899,35.92626,0.282],
    [42731,"urn:WaterMeter:MC0203J22010600005","2025-01-01T00:30:00",9.899,35.928978,0.282],
    [42732,"urn:WaterMeter:MC0203J22010600005","2025-01-01T00:45:00",9.899,35.88786,0.288],
    [42733,"urn:WaterMeter:MC0203J22010600005","2025-01-01T01:00:00",9.8,35.89294,0.283],
    [42734,"urn:WaterMeter:MC0203J22010600005","2025-01-01T01:15:00",9.8,35.898724,0.286],
    [42735,"urn:WaterMeter:MC0203J22010600005","2025-01-01T01:30:00",9.8,35.803337,0.287],
    [42736,"urn:WaterMeter:MC0203J22010600005","2025-01-01T01:45:00",9.8,35.813812,0.284],
    [42737,"urn:WaterMeter:MC0203J22010600005","2025-01-01T02:00:00",9.8,35.841312,0.275],
    [42738,"urn:WaterMeter:MC0203J22010600005","2025-01-01T02:15:00",9.8,35.844456,0.284],
    [42739,"urn:WaterMeter:MC0203J22010600005","2025-01-01T02:30:00",9.8,35.814198,0.284],
    [42740,"urn:WaterMeter:MC0203J22010600005","2025-01-01T02:45:00",9.8,35.813812,0.295],
    [42741,"urn:WaterMeter:MC0203J22010600005","2025-01-01T03:00:00",9.8,35.82192,0.287],
    [42742,"urn:WaterMeter:MC0203J22010600005","2025-01-01T03:15:00",9.8,35.802525,0.286],
    [42743,"urn:WaterMeter:MC0203J22010600005","2025-01-01T03:30:00",9.8,35.854927,0.287],
    [42744,"urn:WaterMeter:MC0203J22010600005","2025-01-01T03:45:00",9.8,36.708694,0.319],
    [42745,"urn:WaterMeter:MC0203J22010600005","2025-01-01T04:00:00",9.699,38.50157,0.323],
    [42746,"urn:WaterMeter:MC0203J22010600005","2025-01-01T04:15:00",9.699,39.534508,0.336],
    [42747,"urn:WaterMeter:MC0203J22010600005","2025-01-01T04:30:00",9.699,40.19126,0.342],
    [42748,"urn:WaterMeter:MC0203J22010600005","2025-01-01T04:45:00",9.6,40.216087,0.334],
    [42749,"urn:WaterMeter:MC0203J22010600005","2025-01-01T05:00:00",9.6,40.218414,0.336],
    [42750,"urn:WaterMeter:MC0203J22010600005","2025-01-01T05:15:00",9.6,40.19165,0.335],
    [42751,"urn:WaterMeter:MC0203J22010600005","2025-01-01T05:30:00",9.8,40.15631,0.349],
    [42752,"urn:WaterMeter:MC0203J22010600005","2025-01-01T05:45:00",9.899,40.11368,0.329],
    [42753,"urn:WaterMeter:MC0203J22010600005","2025-01-01T06:00:00",9.899,40.070625,0.337],
    [42754,"urn:WaterMeter:MC0203J22010600005","2025-01-01T06:15:00",10,40.05511,0.346],
    [42755,"urn:WaterMeter:MC0203J22010600005","2025-01-01T06:30:00",10,39.955032,0.335],
    [42756,"urn:WaterMeter:MC0203J22010600005","2025-01-01T06:45:00",10,39.753323,0.341],
    [42757,"urn:WaterMeter:MC0203J22010600005","2025-01-01T07:00:00",10,39.658287,0.327],
    [42758,"urn:WaterMeter:MC0203J22010600005","2025-01-01T07:15:00",10.1,39.552353,0.34],
    [42759,"urn:WaterMeter:MC0203J22010600005","2025-01-01T07:30:00",10.1,39.464336,0.333],
    [42760,"urn:WaterMeter:MC0203J22010600005","2025-01-01T07:45:00",10.1,39.39529,0.334],
    [42761,"urn:WaterMeter:MC0203J22010600005","2025-01-01T08:00:00",10.1,39.26143,0.331],
    [42762,"urn:WaterMeter:MC0203J22010600005","2025-01-01T08:15:00",10,39.088036,0.326],
    [42763,"urn:WaterMeter:MC0203J22010600005","2025-01-01T08:30:00",9.899,38.78629,0.313],
    [42764,"urn:WaterMeter:MC0203J22010600005","2025-01-01T08:45:00",9.899,38.295593,0.307],
    [42765,"urn:WaterMeter:MC0203J22010600005","2025-01-01T09:00:00",9.899,38.145477,0.307],
    [42766,"urn:WaterMeter:MC0203J22010600005","2025-01-01T09:15:00",9.899,37.992992,0.308],
    [42767,"urn:WaterMeter:MC0203J22010600005","2025-01-01T09:30:00",9.899,37.653584,0.309],
    [42768,"urn:WaterMeter:MC0203J22010600005","2025-01-01T09:45:00",10.1,37.55467,0.31],
    [42769,"urn:WaterMeter:MC0203J22010600005","2025-01-01T10:00:00",10.199,37.178055,0.302],
    [42770,"urn:WaterMeter:MC0203J22010600005","2025-01-01T10:15:00",10.399,37.07914,0.311],
    [42771,"urn:WaterMeter:MC0203J22010600005","2025-01-01T10:30:00",10.399,37.030655,0.299],
    [42772,"urn:WaterMeter:MC0203J22010600005","2025-01-01T10:45:00",10.6,36.911957,0.299],
    [42773,"urn:WaterMeter:MC0203J22010600005","2025-01-01T11:00:00",10.8,36.840157,0.308],
    [42774,"urn:WaterMeter:MC0203J22010600005","2025-01-01T11:15:00",10.8,36.834377,0.297],
    [42775,"urn:WaterMeter:MC0203J22010600005","2025-01-01T11:30:00",10.899,36.735073,0.285],
    [42776,"urn:WaterMeter:MC0203J22010600005","2025-01-01T11:45:00",11,36.703228,0.292],
    [42777,"urn:WaterMeter:MC0203J22010600005","2025-01-01T12:00:00",11.1,36.613274,0.281],
    [42778,"urn:WaterMeter:MC0203J22010600005","2025-01-01T12:15:00",11.199,36.610558,0.296],
    [42779,"urn:WaterMeter:MC0203J22010600005","2025-01-01T12:30:00",11.199,36.524055,0.294],
    [42780,"urn:WaterMeter:MC0203J22010600005","2025-01-01T12:45:00",11.199,36.519363,0.296],
    [42781,"urn:WaterMeter:MC0203J22010600005","2025-01-01T13:00:00",11.3,36.446865,0.281],
    [42782,"urn:WaterMeter:MC0203J22010600005","2025-01-01T13:15:00",11.3,36.27929,0.287],
    [42783,"urn:WaterMeter:MC0203J22010600005","2025-01-01T13:30:00",11.3,36.226925,0.29],
    [42784,"urn:WaterMeter:MC0203J22010600005","2025-01-01T13:45:00",11.399,36.10939,0.289],
    [42785,"urn:WaterMeter:MC0203J22010600005","2025-01-01T14:00:00",11.5,36.088444,0.302],
    [42786,"urn:WaterMeter:MC0203J22010600005","2025-01-01T14:15:00",11.5,36.00931,0.293],
    [42787,"urn:WaterMeter:MC0203J22010600005","2025-01-01T14:30:00",11.5,35.99341,0.288],
    [42788,"urn:WaterMeter:MC0203J22010600005","2025-01-01T14:45:00",11.5,35.93561,0.281],
    [42789,"urn:WaterMeter:MC0203J22010600005","2025-01-01T15:00:00",11.5,35.958073,0.287],
    [42790,"urn:WaterMeter:MC0203J22010600005","2025-01-01T15:15:00",11.5,35.87316,0.283],
    [42791,"urn:WaterMeter:MC0203J22010600005","2025-01-01T15:30:00",11.399,35.892555,0.285],
    [42792,"urn:WaterMeter:MC0203J22010600005","2025-01-01T15:45:00",11.399,35.895657,0.285],
    [42793,"urn:WaterMeter:MC0203J22010600005","2025-01-01T16:00:00",11.399,35.85687,0.293],
    [42794,"urn:WaterMeter:MC0203J22010600005","2025-01-01T16:15:00",11.3,35.76726,0.294],
    [42795,"urn:WaterMeter:MC0203J22010600005","2025-01-01T16:30:00",11.3,35.782352,0.29],
    [42796,"urn:WaterMeter:MC0203J22010600005","2025-01-01T16:45:00",11.199,35.71063,0.294],
    [42797,"urn:WaterMeter:MC0203J22010600005","2025-01-01T17:00:00",11.1,35.748257,0.28],
    [42798,"urn:WaterMeter:MC0203J22010600005","2025-01-01T17:15:00",11.1,35.668736,0.288],
    [42799,"urn:WaterMeter:MC0203J22010600005","2025-01-01T17:30:00",11,35.707912,0.274],
    [42800,"urn:WaterMeter:MC0203J22010600005","2025-01-01T17:45:00",10.899,35.69046,0.248],
    [42801,"urn:WaterMeter:MC0203J22010600005","2025-01-01T18:00:00",10.899,35.652443,0.289],
    [42802,"urn:WaterMeter:MC0203J22010600005","2025-01-01T18:15:00",10.8,35.669514,0.275],
    [42803,"urn:WaterMeter:MC0203J22010600005","2025-01-01T18:30:00",10.8,35.64818,0.286],
    [42804,"urn:WaterMeter:MC0203J22010600005","2025-01-01T18:45:00",10.699,35.652058,0.278],
    [42805,"urn:WaterMeter:MC0203J22010600005","2025-01-01T19:00:00",10.699,35.55039,0.281],
    [42806,"urn:WaterMeter:MC0203J22010600005","2025-01-01T19:15:00",10.6,35.610165,0.28],
    [42807,"urn:WaterMeter:MC0203J22010600005","2025-01-01T19:30:00",10.5,35.605507,0.291],
    [42808,"urn:WaterMeter:MC0203J22010600005","2025-01-01T19:45:00",10.5,35.502716,0.274],
    [42809,"urn:WaterMeter:MC0203J22010600005","2025-01-01T20:00:00",10.5,35.518192,0.287],
    [42810,"urn:WaterMeter:MC0203J22010600005","2025-01-01T20:15:00",10.399,35.554306,0.269],
    [42811,"urn:WaterMeter:MC0203J22010600005","2025-01-01T20:30:00",10.399,35.51474,0.28],
    [42812,"urn:WaterMeter:MC0203J22010600005","2025-01-01T20:45:00",10.3,35.526764,0.286],
    [42813,"urn:WaterMeter:MC0203J22010600005","2025-01-01T21:00:00",10.3,35.528706,0.293],
    [42814,"urn:WaterMeter:MC0203J22010600005","2025-01-01T21:15:00",10.199,35.47401,0.261],
    [42815,"urn:WaterMeter:MC0203J22010600005","2025-01-01T21:30:00",10.199,35.509308,0.284],
    [42816,"urn:WaterMeter:MC0203J22010600005","2025-01-01T21:45:00",10.1,35.4744,0.273],
    [42817,"urn:WaterMeter:MC0203J22010600005","2025-01-01T22:00:00",10.1,35.44453,0.287],
    [42818,"urn:WaterMeter:MC0203J22010600005","2025-01-01T22:15:00",10,35.43363,0.278],
    [42819,"urn:WaterMeter:MC0203J22010600005","2025-01-01T22:30:00",9.899,35.40962,0.3],
    [42820,"urn:WaterMeter:MC0203J22010600005","2025-01-01T22:45:00",9.899,35.40768,0.289],
    [42821,"urn:WaterMeter:MC0203J22010600005","2025-01-01T23:00:00",9.8,35.39255,0.272],
    [42822,"urn:WaterMeter:MC0203J22010600005","2025-01-01T23:15:00",9.8,35.422382,0.306],
    [42823,"urn:WaterMeter:MC0203J22010600005","2025-01-01T23:30:00",9.699,35.415436,0.288],
    [42824,"urn:WaterMeter:MC0203J22010600005","2025-01-01T23:45:00",9.6,35.368114,0.275],
    [42825,"urn:WaterMeter:MC0203J22010600005","2025-01-02T00:00:00",9.6,35.38169,0.284],
    [42826,"urn:WaterMeter:MC0203J22010600005","2025-01-02T00:15:00",9.5,35.389835,0.274],
    [42827,"urn:WaterMeter:MC0203J22010600005","2025-01-02T00:30:00",9.5,35.390224,0.276],
    [42828,"urn:WaterMeter:MC0203J22010600005","2025-01-02T00:45:00",9.399,35.371605,0.282],
    [42829,"urn:WaterMeter:MC0203J22010600005","2025-01-02T01:00:00",9.399,35.37432,0.296],
    [42830,"urn:WaterMeter:MC0203J22010600005","2025-01-02T01:15:00",9.3,35.336655,0.279],
    [42831,"urn:WaterMeter:MC0203J22010600005","2025-01-02T01:30:00",9.3,35.352596,0.276],
    [42832,"urn:WaterMeter:MC0203J22010600005","2025-01-02T01:45:00",9.3,35.342514,0.271],
    [42833,"urn:WaterMeter:MC0203J22010600005","2025-01-02T02:00:00",9.199,35.34674,0.27],
    [42834,"urn:WaterMeter:MC0203J22010600005","2025-01-02T02:15:00",9.1,35.318035,0.28],
    [42835,"urn:WaterMeter:MC0203J22010600005","2025-01-02T02:30:00",9.1,35.32657,0.276],
    [42836,"urn:WaterMeter:MC0203J22010600005","2025-01-02T02:45:00",9,35.33743,0.283],
    [42837,"urn:WaterMeter:MC0203J22010600005","2025-01-02T03:00:00",9,35.321568,0.271],
    [42838,"urn:WaterMeter:MC0203J22010600005","2025-01-02T03:15:00",8.899,35.304848,0.28],
    [42839,"urn:WaterMeter:MC0203J22010600005","2025-01-02T03:30:00",8.899,35.268772,0.278],
    [42840,"urn:WaterMeter:MC0203J22010600005","2025-01-02T03:45:00",8.8,35.27696,0.279],
    [42841,"urn:WaterMeter:MC0203J22010600005","2025-01-02T04:00:00",8.8,35.252518,0.288],
    [42842,"urn:WaterMeter:MC0203J22010600005","2025-01-02T04:15:00",8.699,35.28433,0.28],
    [42843,"urn:WaterMeter:MC0203J22010600005","2025-01-02T04:30:00",8.699,35.27886,0.276],
    [42844,"urn:WaterMeter:MC0203J22010600005","2025-01-02T04:45:00",8.699,35.27696,0.281],
    [42845,"urn:WaterMeter:MC0203J22010600005","2025-01-02T05:00:00",8.6,35.269547,0.276],
    [42846,"urn:WaterMeter:MC0203J22010600005","2025-01-02T05:15:00",8.699,35.316483,0.249],
    [42847,"urn:WaterMeter:MC0203J22010600005","2025-01-02T05:30:00",8.899,35.731537,0.273],
    [42848,"urn:WaterMeter:MC0203J22010600005","2025-01-02T05:45:00",9,36.493412,0.3],
    [42849,"urn:WaterMeter:MC0203J22010600005","2025-01-02T06:00:00",9,37.0151,0.296],
    [42850,"urn:WaterMeter:MC0203J22010600005","2025-01-02T06:15:00",9,37.401836,0.291],
    [42851,"urn:WaterMeter:MC0203J22010600005","2025-01-02T06:30:00",9,37.633022,0.298],
    [42852,"urn:WaterMeter:MC0203J22010600005","2025-01-02T06:45:00",9,37.780037,0.298],
    [42853,"urn:WaterMeter:MC0203J22010600005","2025-01-02T07:00:00",9,37.93873,0.304],
    [42854,"urn:WaterMeter:MC0203J22010600005","2025-01-02T07:15:00",9,38.024063,0.312],
    [42855,"urn:WaterMeter:MC0203J22010600005","2025-01-02T07:30:00",9,38.05971,0.299],
    [42856,"urn:WaterMeter:MC0203J22010600005","2025-01-02T07:45:00",8.899,38.166424,0.303],
    [42857,"urn:WaterMeter:MC0203J22010600005","2025-01-02T08:00:00",8.899,38.267666,0.314],
    [42858,"urn:WaterMeter:MC0203J22010600005","2025-01-02T08:15:00",8.899,38.214485,0.314],
    [42859,"urn:WaterMeter:MC0203J22010600005","2025-01-02T08:30:00",8.8,37.792877,0.298],
    [42860,"urn:WaterMeter:MC0203J22010600005","2025-01-02T08:45:00",8.699,37.58496,0.308],
    [42861,"urn:WaterMeter:MC0203J22010600005","2025-01-02T09:00:00",8.8,37.43368,0.288],
    [42862,"urn:WaterMeter:MC0203J22010600005","2025-01-02T09:15:00",9,37.156334,0.289],
    [42863,"urn:WaterMeter:MC0203J22010600005","2025-01-02T09:30:00",9.3,37.018627,0.281],
    [42864,"urn:WaterMeter:MC0203J22010600005","2025-01-02T09:45:00",9.5,36.88558,0.3],
    [42865,"urn:WaterMeter:MC0203J22010600005","2025-01-02T10:00:00",9.8,36.787052,0.274],
    [42866,"urn:WaterMeter:MC0203J22010600005","2025-01-02T10:15:00",10,36.742405,0.294],
    [42867,"urn:WaterMeter:MC0203J22010600005","2025-01-02T10:30:00",10.199,36.654003,0.283],
    [42868,"urn:WaterMeter:MC0203J22010600005","2025-01-02T10:45:00",10.399,36.57293,0.282],
    [42869,"urn:WaterMeter:MC0203J22010600005","2025-01-02T11:00:00",10.6,36.513195,0.29],
    [42870,"urn:WaterMeter:MC0203J22010600005","2025-01-02T11:15:00",10.8,36.431698,0.291],
    [42871,"urn:WaterMeter:MC0203J22010600005","2025-01-02T11:30:00",10.899,36.419323,0.285],
    [42872,"urn:WaterMeter:MC0203J22010600005","2025-01-02T11:45:00",11,36.228825,0.278],
    [42873,"urn:WaterMeter:MC0203J22010600005","2025-01-02T12:00:00",11.1,36.242054,0.271],
    [42874,"urn:WaterMeter:MC0203J22010600005","2025-01-02T12:15:00",11.199,36.15012,0.281],
    [42875,"urn:WaterMeter:MC0203J22010600005","2025-01-02T12:30:00",11.399,36.077194,0.286],
    [42876,"urn:WaterMeter:MC0203J22010600005","2025-01-02T12:45:00",11.5,36.066334,0.27],
    [42877,"urn:WaterMeter:MC0203J22010600005","2025-01-02T13:00:00",11.5,35.9744,0.265],
    [42878,"urn:WaterMeter:MC0203J22010600005","2025-01-02T13:15:00",11.5,35.92859,0.285],
    [42879,"urn:WaterMeter:MC0203J22010600005","2025-01-02T13:30:00",11.6,35.881306,0.277],
    [42880,"urn:WaterMeter:MC0203J22010600005","2025-01-02T13:45:00",11.6,35.79403,0.285],
    [42881,"urn:WaterMeter:MC0203J22010600005","2025-01-02T14:00:00",11.6,35.79364,0.274],
    [42882,"urn:WaterMeter:MC0203J22010600005","2025-01-02T14:15:00",11.6,35.77463,0.267],
    [42883,"urn:WaterMeter:MC0203J22010600005","2025-01-02T14:30:00",11.6,35.670677,0.272],
    [42884,"urn:WaterMeter:MC0203J22010600005","2025-01-02T14:45:00",11.6,35.677658,0.284],
    [42885,"urn:WaterMeter:MC0203J22010600005","2025-01-02T15:00:00",11.6,35.660202,0.283],
    [42886,"urn:WaterMeter:MC0203J22010600005","2025-01-02T15:15:00",11.5,35.607796,0.29],
    [42887,"urn:WaterMeter:MC0203J22010600005","2025-01-02T15:30:00",11.5,35.615166,0.273],
    [42888,"urn:WaterMeter:MC0203J22010600005","2025-01-02T15:45:00",11.5,35.597713,0.288],
    [42889,"urn:WaterMeter:MC0203J22010600005","2025-01-02T16:00:00",11.5,35.53138,0.275],
    [42890,"urn:WaterMeter:MC0203J22010600005","2025-01-02T16:15:00",11.5,35.534523,0.274],
    [42891,"urn:WaterMeter:MC0203J22010600005","2025-01-02T16:30:00",11.399,35.46625,0.277],
    [42892,"urn:WaterMeter:MC0203J22010600005","2025-01-02T16:45:00",11.3,35.500347,0.271],
    [42893,"urn:WaterMeter:MC0203J22010600005","2025-01-02T17:00:00",11.199,35.470905,0.267],
    [42894,"urn:WaterMeter:MC0203J22010600005","2025-01-02T17:15:00",11.1,35.4391,0.27],
    [42895,"urn:WaterMeter:MC0203J22010600005","2025-01-02T17:30:00",10.899,35.484097,0.283],
    [42896,"urn:WaterMeter:MC0203J22010600005","2025-01-02T17:45:00",10.8,35.417377,0.278],
    [42897,"urn:WaterMeter:MC0203J22010600005","2025-01-02T18:00:00",10.699,35.36695,0.278],
    [42898,"urn:WaterMeter:MC0203J22010600005","2025-01-02T18:15:00",10.6,35.423546,0.29],
    [42899,"urn:WaterMeter:MC0203J22010600005","2025-01-02T18:30:00",10.5,35.39682,0.276],
    [42900,"urn:WaterMeter:MC0203J22010600005","2025-01-02T18:45:00",10.399,35.394066,0.288],
    [42901,"urn:WaterMeter:MC0203J22010600005","2025-01-02T19:00:00",10.3,35.40031,0.273],
    [42902,"urn:WaterMeter:MC0203J22010600005","2025-01-02T19:15:00",10.199,35.411945,0.285],
    [42903,"urn:WaterMeter:MC0203J22010600005","2025-01-02T19:30:00",10.1,35.389835,0.276],
    [42904,"urn:WaterMeter:MC0203J22010600005","2025-01-02T19:45:00",10,35.39604,0.285],
    [42905,"urn:WaterMeter:MC0203J22010600005","2025-01-02T20:00:00",9.899,35.377422,0.285],
    [42906,"urn:WaterMeter:MC0203J22010600005","2025-01-02T20:15:00",9.8,35.36536,0.284],
    [42907,"urn:WaterMeter:MC0203J22010600005","2025-01-02T20:30:00",9.8,35.342125,0.28],
    [42908,"urn:WaterMeter:MC0203J22010600005","2025-01-02T20:45:00",9.699,35.333202,0.268],
    [42909,"urn:WaterMeter:MC0203J22010600005","2025-01-02T21:00:00",9.6,35.297867,0.272],
    [42910,"urn:WaterMeter:MC0203J22010600005","2025-01-02T21:15:00",9.6,35.323116,0.274],
    [42911,"urn:WaterMeter:MC0203J22010600005","2025-01-02T21:30:00",9.5,35.316483,0.269],
    [42912,"urn:WaterMeter:MC0203J22010600005","2025-01-02T21:45:00",9.399,35.30601,0.279],
    [42913,"urn:WaterMeter:MC0203J22010600005","2025-01-02T22:00:00",9.3,35.292862,0.284],
    [42914,"urn:WaterMeter:MC0203J22010600005","2025-01-02T22:15:00",9.199,35.28394,0.274],
    [42915,"urn:WaterMeter:MC0203J22010600005","2025-01-02T22:30:00",9.1,35.280838,0.285],
    [42916,"urn:WaterMeter:MC0203J22010600005","2025-01-02T22:45:00",9,35.286617,0.291],
    [42917,"urn:WaterMeter:MC0203J22010600005","2025-01-02T23:00:00",8.899,35.277695,0.273],
    [42918,"urn:WaterMeter:MC0203J22010600005","2025-01-02T23:15:00",8.899,35.277344,0.278],
    [42919,"urn:WaterMeter:MC0203J22010600005","2025-01-02T23:30:00",8.8,35.256786,0.273],
    [42920,"urn:WaterMeter:MC0203J22010600005","2025-01-02T23:45:00",8.699,35.242435,0.275],
    [42921,"urn:WaterMeter:MC0203J22010600005","2025-01-03T00:00:00",8.6,35.255234,0.271],
    [42922,"urn:WaterMeter:MC0203J22010600005","2025-01-03T00:15:00",8.5,35.256397,0.271],
    [42923,"urn:WaterMeter:MC0203J22010600005","2025-01-03T00:30:00",8.399,35.235065,0.284],
    [42924,"urn:WaterMeter:MC0203J22010600005","2025-01-03T00:45:00",8.3,35.246315,0.276],
    [42925,"urn:WaterMeter:MC0203J22010600005","2025-01-03T01:00:00",8.199,35.255623,0.264],
    [42926,"urn:WaterMeter:MC0203J22010600005","2025-01-03T01:15:00",8.1,35.23157,0.279],
    [42927,"urn:WaterMeter:MC0203J22010600005","2025-01-03T01:30:00",8,35.222652,0.283],
    [42928,"urn:WaterMeter:MC0203J22010600005","2025-01-03T01:45:00",8,35.256786,0.276],
    [42929,"urn:WaterMeter:MC0203J22010600005","2025-01-03T02:00:00",7.9,35.244762,0.288],
    [42930,"urn:WaterMeter:MC0203J22010600005","2025-01-03T02:15:00",7.8,35.216446,0.269],
    [42931,"urn:WaterMeter:MC0203J22010600005","2025-01-03T02:30:00",7.8,35.23584,0.274],
    [42932,"urn:WaterMeter:MC0203J22010600005","2025-01-03T02:45:00",7.699,35.20636,0.281],
    [42933,"urn:WaterMeter:MC0203J22010600005","2025-01-03T03:00:00",7.699,35.23196,0.287],
    [42934,"urn:WaterMeter:MC0203J22010600005","2025-01-03T03:15:00",7.599,35.229595,0.28],
    [42935,"urn:WaterMeter:MC0203J22010600005","2025-01-03T03:30:00",7.5,35.226917,0.269],
    [42936,"urn:WaterMeter:MC0203J22010600005","2025-01-03T03:45:00",7.4,35.21412,0.276],
    [42937,"urn:WaterMeter:MC0203J22010600005","2025-01-03T04:00:00",7.3,35.211365,0.272],
    [42938,"urn:WaterMeter:MC0203J22010600005","2025-01-03T04:15:00",7.199,35.222263,0.273],
    [42939,"urn:WaterMeter:MC0203J22010600005","2025-01-03T04:30:00",7.199,35.18735,0.276],
    [42940,"urn:WaterMeter:MC0203J22010600005","2025-01-03T04:45:00",7.099,35.19821,0.278],
    [42941,"urn:WaterMeter:MC0203J22010600005","2025-01-03T05:00:00",7,35.185024,0.271],
    [42942,"urn:WaterMeter:MC0203J22010600005","2025-01-03T05:15:00",7.099,35.215668,0.286],
    [42943,"urn:WaterMeter:MC0203J22010600005","2025-01-03T05:30:00",7.4,35.59271,0.289],
    [42944,"urn:WaterMeter:MC0203J22010600005","2025-01-03T05:45:00",7.5,36.367344,0.289],
    [42945,"urn:WaterMeter:MC0203J22010600005","2025-01-03T06:00:00",7.5,36.995316,0.302],
    [42946,"urn:WaterMeter:MC0203J22010600005","2025-01-03T06:15:00",7.599,37.365025,0.304],
    [42947,"urn:WaterMeter:MC0203J22010600005","2025-01-03T06:30:00",7.599,37.631897,0.32],
    [42948,"urn:WaterMeter:MC0203J22010600005","2025-01-03T06:45:00",7.599,37.762234,0.314],
    [42949,"urn:WaterMeter:MC0203J22010600005","2025-01-03T07:00:00",7.599,37.939114,0.302],
    [42950,"urn:WaterMeter:MC0203J22010600005","2025-01-03T07:15:00",7.599,38.06751,0.309],
    [42951,"urn:WaterMeter:MC0203J22010600005","2025-01-03T07:30:00",7.599,38.15591,0.31],
    [42952,"urn:WaterMeter:MC0203J22010600005","2025-01-03T07:45:00",7.599,38.223446,0.3],
    [42953,"urn:WaterMeter:MC0203J22010600005","2025-01-03T08:00:00",7.599,38.290165,0.307],
    [42954,"urn:WaterMeter:MC0203J22010600005","2025-01-03T08:15:00",7.599,38.263786,0.301],
    [42955,"urn:WaterMeter:MC0203J22010600005","2025-01-03T08:30:00",7.5,37.884033,0.306],
    [42956,"urn:WaterMeter:MC0203J22010600005","2025-01-03T08:45:00",7.4,37.72383,0.308],
    [42957,"urn:WaterMeter:MC0203J22010600005","2025-01-03T09:00:00",7.5,37.496872,0.298],
    [42958,"urn:WaterMeter:MC0203J22010600005","2025-01-03T09:15:00",7.699,37.213352,0.288],
    [42959,"urn:WaterMeter:MC0203J22010600005","2025-01-03T09:30:00",8,37.061684,0.284],
    [42960,"urn:WaterMeter:MC0203J22010600005","2025-01-03T09:45:00",8.3,36.963547,0.279],
    [42961,"urn:WaterMeter:MC0203J22010600005","2025-01-03T10:00:00",8.699,36.8817,0.294],
    [42962,"urn:WaterMeter:MC0203J22010600005","2025-01-03T10:15:00",9,36.776577,0.271],
    [42963,"urn:WaterMeter:MC0203J22010600005","2025-01-03T10:30:00",9.199,36.707146,0.273],
    [42964,"urn:WaterMeter:MC0203J22010600005","2025-01-03T10:45:00",9.5,36.603962,0.288],
    [42965,"urn:WaterMeter:MC0203J22010600005","2025-01-03T11:00:00",9.699,36.561295,0.288],
    [42966,"urn:WaterMeter:MC0203J22010600005","2025-01-03T11:15:00",9.8,36.436,0.29],
    [42967,"urn:WaterMeter:MC0203J22010600005","2025-01-03T11:30:00",10,36.465096,0.274],
    [42968,"urn:WaterMeter:MC0203J22010600005","2025-01-03T11:45:00",10.1,36.31808,0.273],
    [42969,"urn:WaterMeter:MC0203J22010600005","2025-01-03T12:00:00",10.3,36.291317,0.271],
    [42970,"urn:WaterMeter:MC0203J22010600005","2025-01-03T12:15:00",10.399,36.16835,0.271],
    [42971,"urn:WaterMeter:MC0203J22010600005","2025-01-03T12:30:00",10.5,36.145466,0.275],
    [42972,"urn:WaterMeter:MC0203J22010600005","2025-01-03T12:45:00",10.699,36.102757,0.27],
    [42973,"urn:WaterMeter:MC0203J22010600005","2025-01-03T13:00:00",10.8,35.95229,0.27],
    [42974,"urn:WaterMeter:MC0203J22010600005","2025-01-03T13:15:00",10.899,35.938675,0.284],
    [42975,"urn:WaterMeter:MC0203J22010600005","2025-01-03T13:30:00",11,35.85687,0.277],
    [42976,"urn:WaterMeter:MC0203J22010600005","2025-01-03T13:45:00",11.1,35.81614,0.269],
    [42977,"urn:WaterMeter:MC0203J22010600005","2025-01-03T14:00:00",11.199,35.720325,0.27],
    [42978,"urn:WaterMeter:MC0203J22010600005","2025-01-03T14:15:00",11.3,35.76455,0.267],
    [42979,"urn:WaterMeter:MC0203J22010600005","2025-01-03T14:30:00",11.3,35.657875,0.273],
    [42980,"urn:WaterMeter:MC0203J22010600005","2025-01-03T14:45:00",11.399,35.653606,0.278],
    [42981,"urn:WaterMeter:MC0203J22010600005","2025-01-03T15:00:00",11.5,35.60896,0.277],
    [42982,"urn:WaterMeter:MC0203J22010600005","2025-01-03T15:15:00",11.5,35.608185,0.281],
    [42983,"urn:WaterMeter:MC0203J22010600005","2025-01-03T15:30:00",11.5,35.56245,0.267],
    [42984,"urn:WaterMeter:MC0203J22010600005","2025-01-03T15:45:00",11.6,35.47711,0.279],
    [42985,"urn:WaterMeter:MC0203J22010600005","2025-01-03T16:00:00",11.6,35.473194,0.266],
    [42986,"urn:WaterMeter:MC0203J22010600005","2025-01-03T16:15:00",11.5,35.465088,0.276],
    [42987,"urn:WaterMeter:MC0203J22010600005","2025-01-03T16:30:00",11.399,35.406517,0.268],
    [42988,"urn:WaterMeter:MC0203J22010600005","2025-01-03T16:45:00",11.3,35.40031,0.281],
    [42989,"urn:WaterMeter:MC0203J22010600005","2025-01-03T17:00:00",11.199,35.446083,0.282],
    [42990,"urn:WaterMeter:MC0203J22010600005","2025-01-03T17:15:00",11,35.363033,0.283],
    [42991,"urn:WaterMeter:MC0203J22010600005","2025-01-03T17:30:00",10.899,35.349884,0.272],
    [42992,"urn:WaterMeter:MC0203J22010600005","2025-01-03T17:45:00",10.8,35.41699,0.279],
    [42993,"urn:WaterMeter:MC0203J22010600005","2025-01-03T18:00:00",10.699,35.363808,0.284],
    [42994,"urn:WaterMeter:MC0203J22010600005","2025-01-03T18:15:00",10.6,35.38906,0.275],
    [42995,"urn:WaterMeter:MC0203J22010600005","2025-01-03T18:30:00",10.5,35.30993,0.279],
    [42996,"urn:WaterMeter:MC0203J22010600005","2025-01-03T18:45:00",10.399,35.293247,0.27],
    [42997,"urn:WaterMeter:MC0203J22010600005","2025-01-03T19:00:00",10.3,35.338245,0.268],
    [42998,"urn:WaterMeter:MC0203J22010600005","2025-01-03T19:15:00",10.199,35.323895,0.289],
    [42999,"urn:WaterMeter:MC0203J22010600005","2025-01-03T19:30:00",10.199,35.329323,0.279],
    [43000,"urn:WaterMeter:MC0203J22010600005","2025-01-03T19:45:00",10.1,35.33553,0.265],
    [43001,"urn:WaterMeter:MC0203J22010600005","2025-01-03T20:00:00",10,35.309155,0.308],
    [43002,"urn:WaterMeter:MC0203J22010600005","2025-01-03T20:15:00",9.899,35.282,0.275],
    [43003,"urn:WaterMeter:MC0203J22010600005","2025-01-03T20:30:00",9.899,35.29907,0.301],
    [43004,"urn:WaterMeter:MC0203J22010600005","2025-01-03T20:45:00",9.8,35.28355,0.279],
    [43005,"urn:WaterMeter:MC0203J22010600005","2025-01-03T21:00:00",9.699,35.30795,0.277],
    [43006,"urn:WaterMeter:MC0203J22010600005","2025-01-03T21:15:00",9.699,35.270363,0.277],
    [43007,"urn:WaterMeter:MC0203J22010600005","2025-01-03T21:30:00",9.6,35.266056,0.279],
    [43008,"urn:WaterMeter:MC0203J22010600005","2025-01-03T21:45:00",9.5,35.228043,0.267],
    [43009,"urn:WaterMeter:MC0203J22010600005","2025-01-03T22:00:00",9.5,35.237392,0.273],
    [43010,"urn:WaterMeter:MC0203J22010600005","2025-01-03T22:15:00",9.399,35.20442,0.269],
    [43011,"urn:WaterMeter:MC0203J22010600005","2025-01-03T22:30:00",9.399,35.225754,0.286],
    [43012,"urn:WaterMeter:MC0203J22010600005","2025-01-03T22:45:00",9.3,35.215282,0.268],
    [43013,"urn:WaterMeter:MC0203J22010600005","2025-01-03T23:00:00",9.3,35.19821,0.273],
    [43014,"urn:WaterMeter:MC0203J22010600005","2025-01-03T23:15:00",9.3,35.212566,0.28],
    [43015,"urn:WaterMeter:MC0203J22010600005","2025-01-03T23:30:00",9.3,35.203255,0.286],
    [43016,"urn:WaterMeter:MC0203J22010600005","2025-01-03T23:45:00",9.199,35.179596,0.281],
    [43017,"urn:WaterMeter:MC0203J22010600005","2025-01-04T00:00:00",9.199,35.1524,0.27],
    [43018,"urn:WaterMeter:MC0203J22010600005","2025-01-04T00:15:00",9.1,35.162487,0.28],
    [43019,"urn:WaterMeter:MC0203J22010600005","2025-01-04T00:30:00",9.1,35.148174,0.281],
    [43020,"urn:WaterMeter:MC0203J22010600005","2025-01-04T00:45:00",9.1,35.177654,0.282],
    [43021,"urn:WaterMeter:MC0203J22010600005","2025-01-04T01:00:00",9,35.140415,0.278],
    [43022,"urn:WaterMeter:MC0203J22010600005","2025-01-04T01:15:00",8.899,35.150852,0.277],
    [43023,"urn:WaterMeter:MC0203J22010600005","2025-01-04T01:30:00",8.899,35.122536,0.279],
    [43024,"urn:WaterMeter:MC0203J22010600005","2025-01-04T01:45:00",8.8,35.12451,0.268],
    [43025,"urn:WaterMeter:MC0203J22010600005","2025-01-04T02:00:00",8.699,35.109383,0.267],
    [43026,"urn:WaterMeter:MC0203J22010600005","2025-01-04T02:15:00",8.699,35.103138,0.279],
    [43027,"urn:WaterMeter:MC0203J22010600005","2025-01-04T02:30:00",8.699,35.1237,0.271],
    [43028,"urn:WaterMeter:MC0203J22010600005","2025-01-04T02:45:00",8.6,35.096195,0.271],
    [43029,"urn:WaterMeter:MC0203J22010600005","2025-01-04T03:00:00",8.6,35.085297,0.279],
    [43030,"urn:WaterMeter:MC0203J22010600005","2025-01-04T03:15:00",8.5,35.10861,0.276],
    [43031,"urn:WaterMeter:MC0203J22010600005","2025-01-04T03:30:00",8.399,35.081066,0.286],
    [43032,"urn:WaterMeter:MC0203J22010600005","2025-01-04T03:45:00",8.399,35.088436,0.286],
    [43033,"urn:WaterMeter:MC0203J22010600005","2025-01-04T04:00:00",8.3,35.0993,0.279],
    [43034,"urn:WaterMeter:MC0203J22010600005","2025-01-04T04:15:00",8.3,35.078354,0.273],
    [43035,"urn:WaterMeter:MC0203J22010600005","2025-01-04T04:30:00",8.3,35.0756,0.267],
    [43036,"urn:WaterMeter:MC0203J22010600005","2025-01-04T04:45:00",8.3,35.06788,0.279],
    [43037,"urn:WaterMeter:MC0203J22010600005","2025-01-04T05:00:00",8.3,35.058956,0.274],
    [43038,"urn:WaterMeter:MC0203J22010600005","2025-01-04T05:15:00",8.199,35.04344,0.266],
    [43039,"urn:WaterMeter:MC0203J22010600005","2025-01-04T05:30:00",8.199,35.04383,0.278],
    [43040,"urn:WaterMeter:MC0203J22010600005","2025-01-04T05:45:00",8.199,35.00694,0.286],
    [43041,"urn:WaterMeter:MC0203J22010600005","2025-01-04T06:00:00",8.1,35.02366,0.276],
    [43042,"urn:WaterMeter:MC0203J22010600005","2025-01-04T06:15:00",8.1,34.98991,0.278],
    [43043,"urn:WaterMeter:MC0203J22010600005","2025-01-04T06:30:00",8.1,35.019005,0.275],
    [43044,"urn:WaterMeter:MC0203J22010600005","2025-01-04T06:45:00",8,35.04228,0.277],
    [43045,"urn:WaterMeter:MC0203J22010600005","2025-01-04T07:00:00",8,34.99569,0.28],
    [43046,"urn:WaterMeter:MC0203J22010600005","2025-01-04T07:15:00",8,35.0287,0.277],
    [43047,"urn:WaterMeter:MC0203J22010600005","2025-01-04T07:30:00",8,35.010857,0.263],
    [43048,"urn:WaterMeter:MC0203J22010600005","2025-01-04T07:45:00",8,34.975132,0.27],
    [43049,"urn:WaterMeter:MC0203J22010600005","2025-01-04T08:00:00",8,35.019005,0.266],
    [43050,"urn:WaterMeter:MC0203J22010600005","2025-01-04T08:15:00",8.1,34.981766,0.272],
    [43051,"urn:WaterMeter:MC0203J22010600005","2025-01-04T08:30:00",8.1,34.965862,0.275],
    [43052,"urn:WaterMeter:MC0203J22010600005","2025-01-04T08:45:00",8.199,34.92975,0.26],
    [43053,"urn:WaterMeter:MC0203J22010600005","2025-01-04T09:00:00",8.3,34.950733,0.266],
    [43054,"urn:WaterMeter:MC0203J22010600005","2025-01-04T09:15:00",8.399,34.919662,0.276],
    [43055,"urn:WaterMeter:MC0203J22010600005","2025-01-04T09:30:00",8.399,34.91582,0.272],
    [43056,"urn:WaterMeter:MC0203J22010600005","2025-01-04T09:45:00",8.6,34.89216,0.268],
    [43057,"urn:WaterMeter:MC0203J22010600005","2025-01-04T10:00:00",8.899,34.89794,0.273],
    [43058,"urn:WaterMeter:MC0203J22010600005","2025-01-04T10:15:00",9.1,34.854145,0.272],
    [43059,"urn:WaterMeter:MC0203J22010600005","2025-01-04T10:30:00",9.3,34.84639,0.267],
    [43060,"urn:WaterMeter:MC0203J22010600005","2025-01-04T10:45:00",9.399,34.796738,0.276],
    [43061,"urn:WaterMeter:MC0203J22010600005","2025-01-04T11:00:00",9.5,34.743942,0.268],
    [43062,"urn:WaterMeter:MC0203J22010600005","2025-01-04T11:15:00",9.699,34.72963,0.259],
    [43063,"urn:WaterMeter:MC0203J22010600005","2025-01-04T11:30:00",9.8,34.74786,0.27],
    [43064,"urn:WaterMeter:MC0203J22010600005","2025-01-04T11:45:00",10,34.694332,0.258],
    [43065,"urn:WaterMeter:MC0203J22010600005","2025-01-04T12:00:00",10.1,34.703255,0.259],
    [43066,"urn:WaterMeter:MC0203J22010600005","2025-01-04T12:15:00",10.3,34.64507,0.271],
    [43067,"urn:WaterMeter:MC0203J22010600005","2025-01-04T12:30:00",10.5,34.620243,0.256],
    [43068,"urn:WaterMeter:MC0203J22010600005","2025-01-04T12:45:00",10.6,34.577187,0.272],
    [43069,"urn:WaterMeter:MC0203J22010600005","2025-01-04T13:00:00",10.699,34.55236,0.261],
    [43070,"urn:WaterMeter:MC0203J22010600005","2025-01-04T13:15:00",10.8,34.5446,0.27],
    [43071,"urn:WaterMeter:MC0203J22010600005","2025-01-04T13:30:00",11,34.50965,0.266],
    [43072,"urn:WaterMeter:MC0203J22010600005","2025-01-04T13:45:00",11,34.490257,0.263],
    [43073,"urn:WaterMeter:MC0203J22010600005","2025-01-04T14:00:00",11.1,34.394447,0.268],
    [43074,"urn:WaterMeter:MC0203J22010600005","2025-01-04T14:15:00",11.1,34.38052,0.265],
    [43075,"urn:WaterMeter:MC0203J22010600005","2025-01-04T14:30:00",11.199,34.36927,0.265],
    [43076,"urn:WaterMeter:MC0203J22010600005","2025-01-04T14:45:00",11.199,34.378967,0.274],
    [43077,"urn:WaterMeter:MC0203J22010600005","2025-01-04T15:00:00",11.3,34.301388,0.275],
    [43078,"urn:WaterMeter:MC0203J22010600005","2025-01-04T15:15:00",11.3,34.341343,0.259],
    [43079,"urn:WaterMeter:MC0203J22010600005","2025-01-04T15:30:00",11.399,34.280403,0.267],
    [43080,"urn:WaterMeter:MC0203J22010600005","2025-01-04T15:45:00",11.399,34.23851,0.262],
    [43081,"urn:WaterMeter:MC0203J22010600005","2025-01-04T16:00:00",11.399,34.217213,0.264],
    [43082,"urn:WaterMeter:MC0203J22010600005","2025-01-04T16:15:00",11.3,34.221832,0.28],
    [43083,"urn:WaterMeter:MC0203J22010600005","2025-01-04T16:30:00",11.199,34.268417,0.266],
    [43084,"urn:WaterMeter:MC0203J22010600005","2025-01-04T16:45:00",11,34.241226,0.263],
    [43085,"urn:WaterMeter:MC0203J22010600005","2025-01-04T17:00:00",10.899,34.271908,0.257],
    [43086,"urn:WaterMeter:MC0203J22010600005","2025-01-04T17:15:00",10.699,34.234283,0.259],
    [43087,"urn:WaterMeter:MC0203J22010600005","2025-01-04T17:30:00",10.6,34.211746,0.249],
    [43088,"urn:WaterMeter:MC0203J22010600005","2025-01-04T17:45:00",10.399,34.228077,0.251],
    [43089,"urn:WaterMeter:MC0203J22010600005","2025-01-04T18:00:00",10.3,34.230015,0.28],
    [43090,"urn:WaterMeter:MC0203J22010600005","2025-01-04T18:15:00",10.199,34.27656,0.269],
    [43091,"urn:WaterMeter:MC0203J22010600005","2025-01-04T18:30:00",10,34.26415,0.28],
    [43092,"urn:WaterMeter:MC0203J22010600005","2025-01-04T18:45:00",9.899,34.244366,0.26],
    [43093,"urn:WaterMeter:MC0203J22010600005","2025-01-04T19:00:00",9.8,34.276176,0.28],
    [43094,"urn:WaterMeter:MC0203J22010600005","2025-01-04T19:15:00",9.8,34.276913,0.263],
    [43095,"urn:WaterMeter:MC0203J22010600005","2025-01-04T19:30:00",9.699,34.27152,0.242],
    [43096,"urn:WaterMeter:MC0203J22010600005","2025-01-04T19:45:00",9.6,34.29786,0.26],
    [43097,"urn:WaterMeter:MC0203J22010600005","2025-01-04T20:00:00",9.6,34.27346,0.268],
    [43098,"urn:WaterMeter:MC0203J22010600005","2025-01-04T20:15:00",9.5,34.28277,0.256],
    [43099,"urn:WaterMeter:MC0203J22010600005","2025-01-04T20:30:00",9.5,34.26609,0.259],
    [43100,"urn:WaterMeter:MC0203J22010600005","2025-01-04T20:45:00",9.399,34.281994,0.27],
    [43101,"urn:WaterMeter:MC0203J22010600005","2025-01-04T21:00:00",9.399,34.315353,0.266],
    [43102,"urn:WaterMeter:MC0203J22010600005","2025-01-04T21:15:00",9.3,34.283546,0.265],
    [43103,"urn:WaterMeter:MC0203J22010600005","2025-01-04T21:30:00",9.199,34.320007,0.272],
    [43104,"urn:WaterMeter:MC0203J22010600005","2025-01-04T21:45:00",9.1,34.31031,0.261],
    [43105,"urn:WaterMeter:MC0203J22010600005","2025-01-04T22:00:00",9.1,34.29557,0.265],
    [43106,"urn:WaterMeter:MC0203J22010600005","2025-01-04T22:15:00",9,34.292465,0.273],
    [43107,"urn:WaterMeter:MC0203J22010600005","2025-01-04T22:30:00",8.899,34.278076,0.262],
    [43108,"urn:WaterMeter:MC0203J22010600005","2025-01-04T22:45:00",8.8,34.267643,0.263],
    [43109,"urn:WaterMeter:MC0203J22010600005","2025-01-04T23:00:00",8.8,34.26609,0.27],
    [43110,"urn:WaterMeter:MC0203J22010600005","2025-01-04T23:15:00",8.699,34.29747,0.258],
    [43111,"urn:WaterMeter:MC0203J22010600005","2025-01-04T23:30:00",8.6,34.294796,0.276],
    [43112,"urn:WaterMeter:MC0203J22010600005","2025-01-04T23:45:00",8.6,34.30721,0.265],
    [43113,"urn:WaterMeter:MC0203J22010600005","2025-01-05T00:00:00",8.5,34.289326,0.273],
    [43114,"urn:WaterMeter:MC0203J22010600005","2025-01-05T00:15:00",8.399,34.299023,0.261],
    [43115,"urn:WaterMeter:MC0203J22010600005","2025-01-05T00:30:00",8.399,34.265312,0.258],
    [43116,"urn:WaterMeter:MC0203J22010600005","2025-01-05T00:45:00",8.3,34.28432,0.278],
    [43117,"urn:WaterMeter:MC0203J22010600005","2025-01-05T01:00:00",8.3,34.30643,0.264],
    [43118,"urn:WaterMeter:MC0203J22010600005","2025-01-05T01:15:00",8.199,34.288937,0.267],
    [43119,"urn:WaterMeter:MC0203J22010600005","2025-01-05T01:30:00",8.1,34.283546,0.266],
    [43120,"urn:WaterMeter:MC0203J22010600005","2025-01-05T01:45:00",8,34.304493,0.264],
    [43121,"urn:WaterMeter:MC0203J22010600005","2025-01-05T02:00:00",8,34.2882,0.282],
    [43122,"urn:WaterMeter:MC0203J22010600005","2025-01-05T02:15:00",7.9,34.29208,0.262],
    [43123,"urn:WaterMeter:MC0203J22010600005","2025-01-05T02:30:00",7.8,34.285873,0.274],
    [43124,"urn:WaterMeter:MC0203J22010600005","2025-01-05T02:45:00",7.8,34.31609,0.264],
    [43125,"urn:WaterMeter:MC0203J22010600005","2025-01-05T03:00:00",7.699,34.33859,0.264],
    [43126,"urn:WaterMeter:MC0203J22010600005","2025-01-05T03:15:00",7.599,34.32932,0.264],
    [43127,"urn:WaterMeter:MC0203J22010600005","2025-01-05T03:30:00",7.599,34.30911,0.267],
    [43128,"urn:WaterMeter:MC0203J22010600005","2025-01-05T03:45:00",7.599,34.288548,0.265],
    [43129,"urn:WaterMeter:MC0203J22010600005","2025-01-05T04:00:00",7.5,34.30255,0.288],
    [43130,"urn:WaterMeter:MC0203J22010600005","2025-01-05T04:15:00",7.5,34.30833,0.258],
    [43131,"urn:WaterMeter:MC0203J22010600005","2025-01-05T04:30:00",7.5,34.303715,0.258],
    [43132,"urn:WaterMeter:MC0203J22010600005","2025-01-05T04:45:00",7.5,34.323498,0.268],
    [43133,"urn:WaterMeter:MC0203J22010600005","2025-01-05T05:00:00",7.4,34.30604,0.263],
    [43134,"urn:WaterMeter:MC0203J22010600005","2025-01-05T05:15:00",7.4,34.30604,0.266],
    [43135,"urn:WaterMeter:MC0203J22010600005","2025-01-05T05:30:00",7.3,34.2913,0.269],
    [43136,"urn:WaterMeter:MC0203J22010600005","2025-01-05T05:45:00",7.199,34.30721,0.261],
    [43137,"urn:WaterMeter:MC0203J22010600005","2025-01-05T06:00:00",7.199,34.3138,0.259],
    [43138,"urn:WaterMeter:MC0203J22010600005","2025-01-05T06:15:00",7.099,34.272297,0.263],
    [43139,"urn:WaterMeter:MC0203J22010600005","2025-01-05T06:30:00",7,34.311085,0.264],
    [43140,"urn:WaterMeter:MC0203J22010600005","2025-01-05T06:45:00",7,34.324276,0.266],
    [43141,"urn:WaterMeter:MC0203J22010600005","2025-01-05T07:00:00",6.9,34.32734,0.268],
    [43142,"urn:WaterMeter:MC0203J22010600005","2025-01-05T07:15:00",6.8,34.311863,0.259],
    [43143,"urn:WaterMeter:MC0203J22010600005","2025-01-05T07:30:00",6.8,34.30682,0.274],
    [43144,"urn:WaterMeter:MC0203J22010600005","2025-01-05T07:45:00",6.8,34.32932,0.266],
    [43145,"urn:WaterMeter:MC0203J22010600005","2025-01-05T08:00:00",6.699,34.29786,0.259],
    [43146,"urn:WaterMeter:MC0203J22010600005","2025-01-05T08:15:00",6.699,34.34751,0.264],
    [43147,"urn:WaterMeter:MC0203J22010600005","2025-01-05T08:30:00",6.699,34.32773,0.253],
    [43148,"urn:WaterMeter:MC0203J22010600005","2025-01-05T08:45:00",6.8,34.32195,0.266],
    [43149,"urn:WaterMeter:MC0203J22010600005","2025-01-05T09:00:00",6.8,34.30721,0.252],
    [43150,"urn:WaterMeter:MC0203J22010600005","2025-01-05T09:15:00",7,34.29941,0.265],
    [43151,"urn:WaterMeter:MC0203J22010600005","2025-01-05T09:30:00",7.199,34.28781,0.264],
    [43152,"urn:WaterMeter:MC0203J22010600005","2025-01-05T09:45:00",7.5,34.29557,0.278],
    [43153,"urn:WaterMeter:MC0203J22010600005","2025-01-05T10:00:00",7.599,34.274624,0.26],
    [43154,"urn:WaterMeter:MC0203J22010600005","2025-01-05T10:15:00",7.8,34.280403,0.257],
    [43155,"urn:WaterMeter:MC0203J22010600005","2025-01-05T10:30:00",8,34.243202,0.266],
    [43156,"urn:WaterMeter:MC0203J22010600005","2025-01-05T10:45:00",8.199,34.23661,0.254],
    [43157,"urn:WaterMeter:MC0203J22010600005","2025-01-05T11:00:00",8.399,34.18304,0.252],
    [43158,"urn:WaterMeter:MC0203J22010600005","2025-01-05T11:15:00",8.5,34.1664,0.26],
    [43159,"urn:WaterMeter:MC0203J22010600005","2025-01-05T11:30:00",8.6,34.174545,0.255],
    [43160,"urn:WaterMeter:MC0203J22010600005","2025-01-05T11:45:00",8.8,34.152435,0.26],
    [43161,"urn:WaterMeter:MC0203J22010600005","2025-01-05T12:00:00",8.899,34.15748,0.264],
    [43162,"urn:WaterMeter:MC0203J22010600005","2025-01-05T12:15:00",9.1,34.073303,0.267],
    [43163,"urn:WaterMeter:MC0203J22010600005","2025-01-05T12:30:00",9.199,34.075203,0.256],
    [43164,"urn:WaterMeter:MC0203J22010600005","2025-01-05T12:45:00",9.399,34.051582,0.256],
    [43165,"urn:WaterMeter:MC0203J22010600005","2025-01-05T13:00:00",9.5,34.012016,0.259],
    [43166,"urn:WaterMeter:MC0203J22010600005","2025-01-05T13:15:00",9.6,34.058563,0.271],
    [43167,"urn:WaterMeter:MC0203J22010600005","2025-01-05T13:30:00",9.699,34.010075,0.264],
    [43168,"urn:WaterMeter:MC0203J22010600005","2025-01-05T13:45:00",9.8,33.956932,0.246],
    [43169,"urn:WaterMeter:MC0203J22010600005","2025-01-05T14:00:00",9.8,33.970898,0.253],
    [43170,"urn:WaterMeter:MC0203J22010600005","2025-01-05T14:15:00",9.899,33.89448,0.254],
    [43171,"urn:WaterMeter:MC0203J22010600005","2025-01-05T14:30:00",10,33.912327,0.257],
    [43172,"urn:WaterMeter:MC0203J22010600005","2025-01-05T14:45:00",10,33.862247,0.263],
    [43173,"urn:WaterMeter:MC0203J22010600005","2025-01-05T15:00:00",10,33.91543,0.25],
    [43174,"urn:WaterMeter:MC0203J22010600005","2025-01-05T15:15:00",10,33.88595,0.252],
    [43175,"urn:WaterMeter:MC0203J22010600005","2025-01-05T15:30:00",10.1,33.87974,0.273],
    [43176,"urn:WaterMeter:MC0203J22010600005","2025-01-05T15:45:00",10,33.877415,0.254],
    [43177,"urn:WaterMeter:MC0203J22010600005","2025-01-05T16:00:00",10,33.888275,0.254],
    [43178,"urn:WaterMeter:MC0203J22010600005","2025-01-05T16:15:00",10,33.8297,0.252],
    [43179,"urn:WaterMeter:MC0203J22010600005","2025-01-05T16:30:00",9.899,33.8266,0.25],
    [43180,"urn:WaterMeter:MC0203J22010600005","2025-01-05T16:45:00",9.899,33.83354,0.257],
    [43181,"urn:WaterMeter:MC0203J22010600005","2025-01-05T17:00:00",9.8,33.820004,0.254],
    [43182,"urn:WaterMeter:MC0203J22010600005","2025-01-05T17:15:00",9.699,33.838238,0.253],
    [43183,"urn:WaterMeter:MC0203J22010600005","2025-01-05T17:30:00",9.5,33.857243,0.248],
    [43184,"urn:WaterMeter:MC0203J22010600005","2025-01-05T17:45:00",9.399,33.79751,0.256],
    [43185,"urn:WaterMeter:MC0203J22010600005","2025-01-05T18:00:00",9.399,33.842113,0.268],
    [43186,"urn:WaterMeter:MC0203J22010600005","2025-01-05T18:15:00",9.3,33.845608,0.259],
    [43187,"urn:WaterMeter:MC0203J22010600005","2025-01-05T18:30:00",9.3,33.845608,0.266],
    [43188,"urn:WaterMeter:MC0203J22010600005","2025-01-05T18:45:00",9.199,33.821945,0.247],
    [43189,"urn:WaterMeter:MC0203J22010600005","2025-01-05T19:00:00",9.199,33.842113,0.258],
    [43190,"urn:WaterMeter:MC0203J22010600005","2025-01-05T19:15:00",9.1,33.812595,0.263],
    [43191,"urn:WaterMeter:MC0203J22010600005","2025-01-05T19:30:00",9.1,33.855305,0.253],
    [43192,"urn:WaterMeter:MC0203J22010600005","2025-01-05T19:45:00",9,33.85763,0.258],
    [43193,"urn:WaterMeter:MC0203J22010600005","2025-01-05T20:00:00",9,33.81376,0.254],
    [43194,"urn:WaterMeter:MC0203J22010600005","2025-01-05T20:15:00",8.899,33.82078,0.254],
    [43195,"urn:WaterMeter:MC0203J22010600005","2025-01-05T20:30:00",8.899,33.828926,0.249],
    [43196,"urn:WaterMeter:MC0203J22010600005","2025-01-05T20:45:00",8.899,33.80445,0.253],
    [43197,"urn:WaterMeter:MC0203J22010600005","2025-01-05T21:00:00",8.8,33.825825,0.265],
    [43198,"urn:WaterMeter:MC0203J22010600005","2025-01-05T21:15:00",8.8,33.814922,0.247],
    [43199,"urn:WaterMeter:MC0203J22010600005","2025-01-05T21:30:00",8.8,33.812206,0.274],
    [43200,"urn:WaterMeter:MC0203J22010600005","2025-01-05T21:45:00",8.8,33.81884,0.257],
    [43201,"urn:WaterMeter:MC0203J22010600005","2025-01-05T22:00:00",8.8,33.8394,0.251],
    [43202,"urn:WaterMeter:MC0203J22010600005","2025-01-05T22:15:00",8.699,33.821945,0.248],
    [43203,"urn:WaterMeter:MC0203J22010600005","2025-01-05T22:30:00",8.699,33.825436,0.252],
    [43204,"urn:WaterMeter:MC0203J22010600005","2025-01-05T22:45:00",8.699,33.79014,0.253],
    [43205,"urn:WaterMeter:MC0203J22010600005","2025-01-05T23:00:00",8.699,33.79867,0.26],
    [43206,"urn:WaterMeter:MC0203J22010600005","2025-01-05T23:15:00",8.699,33.795956,0.258],
    [43207,"urn:WaterMeter:MC0203J22010600005","2025-01-05T23:30:00",8.699,33.824234,0.253],
    [43208,"urn:WaterMeter:MC0203J22010600005","2025-01-05T23:45:00",8.699,33.83432,0.258],
    [43209,"urn:WaterMeter:MC0203J22010600005","2025-01-06T00:00:00",8.699,33.823456,0.254],
    [43210,"urn:WaterMeter:MC0203J22010600005","2025-01-06T00:15:00",8.699,33.81182,0.26],
    [43211,"urn:WaterMeter:MC0203J22010600005","2025-01-06T00:30:00",8.699,33.816513,0.257],
    [43212,"urn:WaterMeter:MC0203J22010600005","2025-01-06T00:45:00",8.699,33.794754,0.26],
    [43213,"urn:WaterMeter:MC0203J22010600005","2025-01-06T01:00:00",8.699,33.78393,0.255],
    [43214,"urn:WaterMeter:MC0203J22010600005","2025-01-06T01:15:00",8.6,33.821945,0.251],
    [43215,"urn:WaterMeter:MC0203J22010600005","2025-01-06T01:30:00",8.6,33.810307,0.252],
    [43216,"urn:WaterMeter:MC0203J22010600005","2025-01-06T01:45:00",8.6,33.79553,0.257],
    [43217,"urn:WaterMeter:MC0203J22010600005","2025-01-06T02:00:00",8.6,33.80445,0.258],
    [43218,"urn:WaterMeter:MC0203J22010600005","2025-01-06T02:15:00",8.6,33.79751,0.255],
    [43219,"urn:WaterMeter:MC0203J22010600005","2025-01-06T02:30:00",8.6,33.802937,0.258],
    [43220,"urn:WaterMeter:MC0203J22010600005","2025-01-06T02:45:00",8.6,33.776134,0.255],
    [43221,"urn:WaterMeter:MC0203J22010600005","2025-01-06T03:00:00",8.6,33.757942,0.251],
    [43222,"urn:WaterMeter:MC0203J22010600005","2025-01-06T03:15:00",8.6,33.81143,0.254],
    [43223,"urn:WaterMeter:MC0203J22010600005","2025-01-06T03:30:00",8.6,33.753635,0.25],
    [43224,"urn:WaterMeter:MC0203J22010600005","2025-01-06T03:45:00",8.6,33.785053,0.248],
    [43225,"urn:WaterMeter:MC0203J22010600005","2025-01-06T04:00:00",8.5,33.7913,0.255],
    [43226,"urn:WaterMeter:MC0203J22010600005","2025-01-06T04:15:00",8.5,33.769966,0.256],
    [43227,"urn:WaterMeter:MC0203J22010600005","2025-01-06T04:30:00",8.5,33.768414,0.227],
    [43228,"urn:WaterMeter:MC0203J22010600005","2025-01-06T04:45:00",8.5,33.74475,0.259],
    [43229,"urn:WaterMeter:MC0203J22010600005","2025-01-06T05:00:00",8.5,33.790913,0.249],
    [43230,"urn:WaterMeter:MC0203J22010600005","2025-01-06T05:15:00",8.6,33.779274,0.25],
    [43231,"urn:WaterMeter:MC0203J22010600005","2025-01-06T05:30:00",8.8,33.79751,0.248],
    [43232,"urn:WaterMeter:MC0203J22010600005","2025-01-06T05:45:00",8.899,34.140797,0.264],
    [43233,"urn:WaterMeter:MC0203J22010600005","2025-01-06T06:00:00",9,34.994915,0.264],
    [43234,"urn:WaterMeter:MC0203J22010600005","2025-01-06T06:15:00",9,35.843678,0.291],
    [43235,"urn:WaterMeter:MC0203J22010600005","2025-01-06T06:30:00",9,36.500355,0.277],
    [43236,"urn:WaterMeter:MC0203J22010600005","2025-01-06T06:45:00",9.1,36.930187,0.291],
    [43237,"urn:WaterMeter:MC0203J22010600005","2025-01-06T07:00:00",9.1,37.174953,0.29],
    [43238,"urn:WaterMeter:MC0203J22010600005","2025-01-06T07:15:00",9.199,37.370064,0.305],
    [43239,"urn:WaterMeter:MC0203J22010600005","2025-01-06T07:30:00",9.3,37.534924,0.317],
    [43240,"urn:WaterMeter:MC0203J22010600005","2025-01-06T07:45:00",9.3,37.63535,0.305],
    [43241,"urn:WaterMeter:MC0203J22010600005","2025-01-06T08:00:00",9.3,37.725384,0.294],
    [43242,"urn:WaterMeter:MC0203J22010600005","2025-01-06T08:15:00",9.399,37.518982,0.295],
    [43243,"urn:WaterMeter:MC0203J22010600005","2025-01-06T08:30:00",9.399,37.259514,0.285],
    [43244,"urn:WaterMeter:MC0203J22010600005","2025-01-06T08:45:00",9.399,37.025223,0.286],
    [43245,"urn:WaterMeter:MC0203J22010600005","2025-01-06T09:00:00",9.399,36.708694,0.293],
    [43246,"urn:WaterMeter:MC0203J22010600005","2025-01-06T09:15:00",9.399,36.605087,0.278],
    [43247,"urn:WaterMeter:MC0203J22010600005","2025-01-06T09:30:00",9.5,36.47518,0.293],
    [43248,"urn:WaterMeter:MC0203J22010600005","2025-01-06T09:45:00",9.5,36.422,0.283],
    [43249,"urn:WaterMeter:MC0203J22010600005","2025-01-06T10:00:00",9.6,36.356094,0.275],
    [43250,"urn:WaterMeter:MC0203J22010600005","2025-01-06T10:15:00",9.699,36.346397,0.27],
    [43251,"urn:WaterMeter:MC0203J22010600005","2025-01-06T10:30:00",9.699,36.30602,0.278],
    [43252,"urn:WaterMeter:MC0203J22010600005","2025-01-06T10:45:00",9.8,36.254078,0.287],
    [43253,"urn:WaterMeter:MC0203J22010600005","2025-01-06T11:00:00",9.899,36.23158,0.264],
    [43254,"urn:WaterMeter:MC0203J22010600005","2025-01-06T11:15:00",10,36.107838,0.281],
    [43255,"urn:WaterMeter:MC0203J22010600005","2025-01-06T11:45:00",10.1,36.051594,0.27],
    [43256,"urn:WaterMeter:MC0203J22010600005","2025-01-06T12:00:00",10.1,36.035652,0.272],
    [43257,"urn:WaterMeter:MC0203J22010600005","2025-01-06T12:15:00",10.199,35.939102,0.267],
    [43258,"urn:WaterMeter:MC0203J22010600005","2025-01-06T12:30:00",10.3,35.92704,0.276],
    [43259,"urn:WaterMeter:MC0203J22010600005","2025-01-06T12:45:00",10.399,35.932507,0.268],
    [43260,"urn:WaterMeter:MC0203J22010600005","2025-01-06T13:00:00",10.5,35.91971,0.263],
    [43261,"urn:WaterMeter:MC0203J22010600005","2025-01-06T13:15:00",10.6,35.9007,0.269],
    [43262,"urn:WaterMeter:MC0203J22010600005","2025-01-06T13:30:00",10.6,35.85101,0.268],
    [43263,"urn:WaterMeter:MC0203J22010600005","2025-01-06T13:45:00",10.699,35.83437,0.272],
    [43264,"urn:WaterMeter:MC0203J22010600005","2025-01-06T14:00:00",10.8,35.729637,0.262],
    [43265,"urn:WaterMeter:MC0203J22010600005","2025-01-06T14:15:00",10.899,35.79364,0.279],
    [43266,"urn:WaterMeter:MC0203J22010600005","2025-01-06T14:30:00",10.899,35.75485,0.294],
    [43267,"urn:WaterMeter:MC0203J22010600005","2025-01-06T14:45:00",10.899,35.68464,0.272],
    [43268,"urn:WaterMeter:MC0203J22010600005","2025-01-06T15:00:00",11,35.724167,0.274],
    [43269,"urn:WaterMeter:MC0203J22010600005","2025-01-06T15:15:00",11,35.71606,0.267],
    [43270,"urn:WaterMeter:MC0203J22010600005","2025-01-06T15:30:00",11,35.68499,0.278],
    [43271,"urn:WaterMeter:MC0203J22010600005","2025-01-06T15:45:00",11,35.55737,0.273],
    [43272,"urn:WaterMeter:MC0203J22010600005","2025-01-06T16:00:00",11,35.526764,0.268],
    [43273,"urn:WaterMeter:MC0203J22010600005","2025-01-06T16:15:00",11,35.46974,0.277],
    [43274,"urn:WaterMeter:MC0203J22010600005","2025-01-06T16:30:00",11.1,35.46117,0.276],
    [43275,"urn:WaterMeter:MC0203J22010600005","2025-01-06T16:45:00",11.1,35.460396,0.269],
    [43276,"urn:WaterMeter:MC0203J22010600005","2025-01-06T17:00:00",11,35.448795,0.28],
    [43277,"urn:WaterMeter:MC0203J22010600005","2025-01-06T17:15:00",11,35.422382,0.276],
    [43278,"urn:WaterMeter:MC0203J22010600005","2025-01-06T17:30:00",10.899,35.462723,0.268],
    [43279,"urn:WaterMeter:MC0203J22010600005","2025-01-06T17:45:00",10.8,35.453026,0.277],
    [43280,"urn:WaterMeter:MC0203J22010600005","2025-01-06T18:00:00",10.699,35.43018,0.285],
    [43281,"urn:WaterMeter:MC0203J22010600005","2025-01-06T18:15:00",10.699,35.40221,0.262],
    [43282,"urn:WaterMeter:MC0203J22010600005","2025-01-06T18:30:00",10.6,35.382427,0.276],
    [43283,"urn:WaterMeter:MC0203J22010600005","2025-01-06T18:45:00",10.5,35.355663,0.266],
    [43284,"urn:WaterMeter:MC0203J22010600005","2025-01-06T19:00:00",10.5,35.39992,0.282],
    [43285,"urn:WaterMeter:MC0203J22010600005","2025-01-06T19:15:00",10.399,35.361908,0.282],
    [43286,"urn:WaterMeter:MC0203J22010600005","2025-01-06T19:30:00",10.399,35.36695,0.28],
    [43287,"urn:WaterMeter:MC0203J22010600005","2025-01-06T19:45:00",10.3,35.33743,0.271],
    [43288,"urn:WaterMeter:MC0203J22010600005","2025-01-06T20:00:00",10.199,35.37277,0.28],
    [43289,"urn:WaterMeter:MC0203J22010600005","2025-01-06T20:15:00",10.199,35.363033,0.294],
    [43290,"urn:WaterMeter:MC0203J22010600005","2025-01-06T20:30:00",10.1,35.359966,0.284],
    [43291,"urn:WaterMeter:MC0203J22010600005","2025-01-06T20:45:00",10,35.367725,0.267],
    [43292,"urn:WaterMeter:MC0203J22010600005","2025-01-06T21:00:00",9.899,35.315746,0.257],
    [43293,"urn:WaterMeter:MC0203J22010600005","2025-01-06T21:15:00",9.8,35.31536,0.276],
    [43294,"urn:WaterMeter:MC0203J22010600005","2025-01-06T21:30:00",9.699,35.322342,0.275],
    [43295,"urn:WaterMeter:MC0203J22010600005","2025-01-06T21:45:00",9.699,35.31381,0.279],
    [43296,"urn:WaterMeter:MC0203J22010600005","2025-01-06T22:00:00",9.699,35.31342,0.27],
    [43297,"urn:WaterMeter:MC0203J22010600005","2025-01-06T22:15:00",9.699,35.28623,0.266],
    [43298,"urn:WaterMeter:MC0203J22010600005","2025-01-06T22:30:00",9.6,35.307564,0.265],
    [43299,"urn:WaterMeter:MC0203J22010600005","2025-01-06T22:45:00",9.6,35.3064,0.269],
    [43300,"urn:WaterMeter:MC0203J22010600005","2025-01-06T23:00:00",9.5,35.29907,0.265],
    [43301,"urn:WaterMeter:MC0203J22010600005","2025-01-06T23:15:00",9.5,35.26493,0.264],
    [43302,"urn:WaterMeter:MC0203J22010600005","2025-01-06T23:30:00",9.399,35.26144,0.286],
    [43303,"urn:WaterMeter:MC0203J22010600005","2025-01-06T23:45:00",9.3,35.251743,0.267],
    [43304,"urn:WaterMeter:MC0203J22010600005","2025-01-07T00:00:00",9.199,35.28045,0.27],
    [43305,"urn:WaterMeter:MC0203J22010600005","2025-01-07T00:15:00",9.1,35.27269,0.266],
    [43306,"urn:WaterMeter:MC0203J22010600005","2025-01-07T00:30:00",9,35.267998,0.266],
    [43307,"urn:WaterMeter:MC0203J22010600005","2025-01-07T00:45:00",9,35.275017,0.278],
    [43308,"urn:WaterMeter:MC0203J22010600005","2025-01-07T01:00:00",8.899,35.26916,0.273],
    [43309,"urn:WaterMeter:MC0203J22010600005","2025-01-07T01:15:00",8.8,35.262604,0.273],
    [43310,"urn:WaterMeter:MC0203J22010600005","2025-01-07T01:30:00",8.8,35.270752,0.278],
    [43311,"urn:WaterMeter:MC0203J22010600005","2025-01-07T01:45:00",8.699,35.271137,0.271],
    [43312,"urn:WaterMeter:MC0203J22010600005","2025-01-07T02:00:00",8.6,35.241657,0.274],
    [43313,"urn:WaterMeter:MC0203J22010600005","2025-01-07T02:15:00",8.6,35.26761,0.276],
    [43314,"urn:WaterMeter:MC0203J22010600005","2025-01-07T02:30:00",8.5,35.259075,0.267],
    [43315,"urn:WaterMeter:MC0203J22010600005","2025-01-07T02:45:00",8.5,35.240456,0.267],
    [43316,"urn:WaterMeter:MC0203J22010600005","2025-01-07T03:00:00",8.399,35.24899,0.27],
    [43317,"urn:WaterMeter:MC0203J22010600005","2025-01-07T03:15:00",8.3,35.22727,0.265],
    [43318,"urn:WaterMeter:MC0203J22010600005","2025-01-07T03:30:00",8.3,35.193947,0.271],
    [43319,"urn:WaterMeter:MC0203J22010600005","2025-01-07T03:45:00",8.199,35.229595,0.274],
    [43320,"urn:WaterMeter:MC0203J22010600005","2025-01-07T04:00:00",8.1,35.242046,0.27],
    [43321,"urn:WaterMeter:MC0203J22010600005","2025-01-07T04:15:00",8,35.245926,0.273],
    [43322,"urn:WaterMeter:MC0203J22010600005","2025-01-07T04:30:00",8,35.271915,0.273],
    [43323,"urn:WaterMeter:MC0203J22010600005","2025-01-07T04:45:00",7.9,35.21373,0.275],
    [43324,"urn:WaterMeter:MC0203J22010600005","2025-01-07T05:00:00",7.8,35.223427,0.274],
    [43325,"urn:WaterMeter:MC0203J22010600005","2025-01-07T05:15:00",7.9,35.26722,0.277],
    [43326,"urn:WaterMeter:MC0203J22010600005","2025-01-07T05:30:00",8,35.632275,0.274],
    [43327,"urn:WaterMeter:MC0203J22010600005","2025-01-07T05:45:00",8,36.405357,0.278],
    [43328,"urn:WaterMeter:MC0203J22010600005","2025-01-07T06:00:00",8,37.03139,0.3],
    [43329,"urn:WaterMeter:MC0203J22010600005","2025-01-07T06:15:00",8,37.43368,0.294],
    [43330,"urn:WaterMeter:MC0203J22010600005","2025-01-07T06:30:00",8,37.709476,0.293],
    [43331,"urn:WaterMeter:MC0203J22010600005","2025-01-07T06:45:00",8,37.909634,0.288],
    [43332,"urn:WaterMeter:MC0203J22010600005","2025-01-07T07:00:00",7.9,38.11173,0.292],
    [43333,"urn:WaterMeter:MC0203J22010600005","2025-01-07T07:15:00",7.9,38.377052,0.3],
    [43334,"urn:WaterMeter:MC0203J22010600005","2025-01-07T07:30:00",7.9,38.682682,0.31],
    [43335,"urn:WaterMeter:MC0203J22010600005","2025-01-07T07:45:00",7.9,38.972443,0.316],
    [43336,"urn:WaterMeter:MC0203J22010600005","2025-01-07T08:00:00",7.9,39.10592,0.318],
    [43337,"urn:WaterMeter:MC0203J22010600005","2025-01-07T08:15:00",7.8,38.973217,0.315],
    [43338,"urn:WaterMeter:MC0203J22010600005","2025-01-07T08:30:00",7.599,38.684658,0.299],
    [43339,"urn:WaterMeter:MC0203J22010600005","2025-01-07T08:45:00",7.599,38.11173,0.301],
    [43340,"urn:WaterMeter:MC0203J22010600005","2025-01-07T09:00:00",7.599,37.97515,0.288],
    [43341,"urn:WaterMeter:MC0203J22010600005","2025-01-07T09:15:00",7.8,37.739735,0.304],
    [43342,"urn:WaterMeter:MC0203J22010600005","2025-01-07T09:30:00",8.1,37.45618,0.28],
    [43343,"urn:WaterMeter:MC0203J22010600005","2025-01-07T09:45:00",8.399,37.348343,0.292],
    [43344,"urn:WaterMeter:MC0203J22010600005","2025-01-07T10:00:00",8.8,37.160988,0.286],
    [43345,"urn:WaterMeter:MC0203J22010600005","2025-01-07T10:15:00",9.1,36.972816,0.272],
    [43346,"urn:WaterMeter:MC0203J22010600005","2025-01-07T10:30:00",9.399,36.807224,0.284],
    [43347,"urn:WaterMeter:MC0203J22010600005","2025-01-07T10:45:00",9.699,36.76688,0.29],
    [43348,"urn:WaterMeter:MC0203J22010600005","2025-01-07T11:00:00",9.899,36.71141,0.272],
    [43349,"urn:WaterMeter:MC0203J22010600005","2025-01-07T11:15:00",10,36.629177,0.264],
    [43350,"urn:WaterMeter:MC0203J22010600005","2025-01-07T11:30:00",10.199,36.538757,0.265],
    [43351,"urn:WaterMeter:MC0203J22010600005","2025-01-07T11:45:00",10.3,36.541122,0.277],
    [43352,"urn:WaterMeter:MC0203J22010600005","2025-01-07T12:00:00",10.399,36.437164,0.28],
    [43353,"urn:WaterMeter:MC0203J22010600005","2025-01-07T12:15:00",10.399,36.41816,0.286],
    [43354,"urn:WaterMeter:MC0203J22010600005","2025-01-07T12:30:00",10.5,36.434452,0.265],
    [43355,"urn:WaterMeter:MC0203J22010600005","2025-01-07T12:45:00",10.6,36.352177,0.274],
    [43356,"urn:WaterMeter:MC0203J22010600005","2025-01-07T13:00:00",10.8,36.062027,0.269],
    [43357,"urn:WaterMeter:MC0203J22010600005","2025-01-07T13:15:00",10.899,35.988365,0.268],
    [43358,"urn:WaterMeter:MC0203J22010600005","2025-01-07T13:30:00",11,35.99341,0.271],
    [43359,"urn:WaterMeter:MC0203J22010600005","2025-01-07T13:45:00",11.1,35.87316,0.27],
    [43360,"urn:WaterMeter:MC0203J22010600005","2025-01-07T14:00:00",11.199,35.892555,0.28],
    [43361,"urn:WaterMeter:MC0203J22010600005","2025-01-07T14:15:00",11.3,35.783127,0.277],
    [43362,"urn:WaterMeter:MC0203J22010600005","2025-01-07T14:30:00",11.3,35.814198,0.287],
    [43363,"urn:WaterMeter:MC0203J22010600005","2025-01-07T14:45:00",11.3,35.79166,0.276],
    [43364,"urn:WaterMeter:MC0203J22010600005","2025-01-07T15:00:00",11.3,35.68813,0.278],
    [43365,"urn:WaterMeter:MC0203J22010600005","2025-01-07T15:15:00",11.3,35.702484,0.276],
    [43366,"urn:WaterMeter:MC0203J22010600005","2025-01-07T15:30:00",11.399,35.65128,0.262],
    [43367,"urn:WaterMeter:MC0203J22010600005","2025-01-07T15:45:00",11.399,35.6365,0.279],
    [43368,"urn:WaterMeter:MC0203J22010600005","2025-01-07T16:00:00",11.399,35.655895,0.269],
    [43369,"urn:WaterMeter:MC0203J22010600005","2025-01-07T16:15:00",11.399,35.641582,0.272],
    [43370,"urn:WaterMeter:MC0203J22010600005","2025-01-07T16:30:00",11.3,35.545383,0.27],
    [43371,"urn:WaterMeter:MC0203J22010600005","2025-01-07T16:45:00",11.199,35.564392,0.268],
    [43372,"urn:WaterMeter:MC0203J22010600005","2025-01-07T17:00:00",11,35.587276,0.291],
    [43373,"urn:WaterMeter:MC0203J22010600005","2025-01-07T17:15:00",10.899,35.512413,0.268],
    [43374,"urn:WaterMeter:MC0203J22010600005","2025-01-07T17:30:00",10.8,35.528706,0.267],
    [43375,"urn:WaterMeter:MC0203J22010600005","2025-01-07T17:45:00",10.8,35.51784,0.278],
    [43376,"urn:WaterMeter:MC0203J22010600005","2025-01-07T18:00:00",10.6,35.542667,0.286],
    [43377,"urn:WaterMeter:MC0203J22010600005","2025-01-07T18:15:00",10.5,35.560085,0.279],
    [43378,"urn:WaterMeter:MC0203J22010600005","2025-01-07T18:30:00",10.399,35.530216,0.267],
    [43379,"urn:WaterMeter:MC0203J22010600005","2025-01-07T18:45:00",10.399,35.497673,0.275],
    [43380,"urn:WaterMeter:MC0203J22010600005","2025-01-07T19:00:00",10.3,35.47281,0.271],
    [43381,"urn:WaterMeter:MC0203J22010600005","2025-01-07T19:15:00",10.1,35.546547,0.283],
    [43382,"urn:WaterMeter:MC0203J22010600005","2025-01-07T19:30:00",10,35.4988,0.282],
    [43383,"urn:WaterMeter:MC0203J22010600005","2025-01-07T19:45:00",9.899,35.53297,0.275],
    [43384,"urn:WaterMeter:MC0203J22010600005","2025-01-07T20:00:00",9.8,35.499184,0.269],
    [43385,"urn:WaterMeter:MC0203J22010600005","2025-01-07T20:15:00",9.699,35.494568,0.281],
    [43386,"urn:WaterMeter:MC0203J22010600005","2025-01-07T20:30:00",9.6,35.481342,0.265],
    [43387,"urn:WaterMeter:MC0203J22010600005","2025-01-07T20:45:00",9.5,35.487587,0.278],
    [43388,"urn:WaterMeter:MC0203J22010600005","2025-01-07T21:00:00",9.399,35.48332,0.293],
    [43389,"urn:WaterMeter:MC0203J22010600005","2025-01-07T21:15:00",9.3,35.4988,0.269],
    [43390,"urn:WaterMeter:MC0203J22010600005","2025-01-07T21:30:00",9.199,35.465866,0.284],
    [43391,"urn:WaterMeter:MC0203J22010600005","2025-01-07T21:45:00",9.1,35.47979,0.268],
    [43392,"urn:WaterMeter:MC0203J22010600005","2025-01-07T22:00:00",9.1,35.44453,0.273],
    [43393,"urn:WaterMeter:MC0203J22010600005","2025-01-07T22:15:00",9,35.44333,0.278],
    [43394,"urn:WaterMeter:MC0203J22010600005","2025-01-07T22:30:00",9,35.435608,0.274],
    [43395,"urn:WaterMeter:MC0203J22010600005","2025-01-07T22:45:00",8.899,35.45341,0.271],
    [43396,"urn:WaterMeter:MC0203J22010600005","2025-01-07T23:00:00",8.8,35.432507,0.274],
    [43397,"urn:WaterMeter:MC0203J22010600005","2025-01-07T23:15:00",8.699,35.425137,0.279],
    [43398,"urn:WaterMeter:MC0203J22010600005","2025-01-07T23:30:00",8.6,35.432117,0.271],
    [43399,"urn:WaterMeter:MC0203J22010600005","2025-01-07T23:45:00",8.5,35.452637,0.272],
    [43400,"urn:WaterMeter:MC0203J22010600005","2025-01-08T00:00:00",8.5,35.432854,0.287],
    [43401,"urn:WaterMeter:MC0203J22010600005","2025-01-08T00:15:00",8.399,35.41699,0.278],
    [43402,"urn:WaterMeter:MC0203J22010600005","2025-01-08T00:30:00",8.3,35.41893,0.275],
    [43403,"urn:WaterMeter:MC0203J22010600005","2025-01-08T00:45:00",8.3,35.432117,0.281],
    [43404,"urn:WaterMeter:MC0203J22010600005","2025-01-08T01:00:00",8.199,35.404537,0.271],
    [43405,"urn:WaterMeter:MC0203J22010600005","2025-01-08T01:15:00",8.199,35.40182,0.267],
    [43406,"urn:WaterMeter:MC0203J22010600005","2025-01-08T01:30:00",8.1,35.40415,0.267],
    [43407,"urn:WaterMeter:MC0203J22010600005","2025-01-08T01:45:00",8,35.422768,0.276],
    [43408,"urn:WaterMeter:MC0203J22010600005","2025-01-08T02:00:00",7.9,35.408066,0.273],
    [43409,"urn:WaterMeter:MC0203J22010600005","2025-01-08T02:15:00",7.8,35.402985,0.273],
    [43410,"urn:WaterMeter:MC0203J22010600005","2025-01-08T02:30:00",7.699,35.408066,0.262],
    [43411,"urn:WaterMeter:MC0203J22010600005","2025-01-08T02:45:00",7.699,35.382076,0.268],
    [43412,"urn:WaterMeter:MC0203J22010600005","2025-01-08T03:00:00",7.599,35.416214,0.27],
    [43413,"urn:WaterMeter:MC0203J22010600005","2025-01-08T03:15:00",7.5,35.38169,0.273],
    [43414,"urn:WaterMeter:MC0203J22010600005","2025-01-08T03:30:00",7.4,35.387897,0.282],
    [43415,"urn:WaterMeter:MC0203J22010600005","2025-01-08T03:45:00",7.3,35.39604,0.266],
    [43416,"urn:WaterMeter:MC0203J22010600005","2025-01-08T04:00:00",7.3,35.36536,0.273],
    [43417,"urn:WaterMeter:MC0203J22010600005","2025-01-08T04:15:00",7.199,35.352985,0.281],
    [43418,"urn:WaterMeter:MC0203J22010600005","2025-01-08T04:30:00",7.099,35.382076,0.268],
    [43419,"urn:WaterMeter:MC0203J22010600005","2025-01-08T04:45:00",7,35.371994,0.272],
    [43420,"urn:WaterMeter:MC0203J22010600005","2025-01-08T05:00:00",7,35.3832,0.271],
    [43421,"urn:WaterMeter:MC0203J22010600005","2025-01-08T05:15:00",7,35.408455,0.273],
    [43422,"urn:WaterMeter:MC0203J22010600005","2025-01-08T05:30:00",7.199,35.712143,0.275],
    [43423,"urn:WaterMeter:MC0203J22010600005","2025-01-08T05:45:00",7.3,36.467033,0.286],
    [43424,"urn:WaterMeter:MC0203J22010600005","2025-01-08T06:00:00",7.3,37.088837,0.291],
    [43425,"urn:WaterMeter:MC0203J22010600005","2025-01-08T06:15:00",7.3,37.43907,0.301],
    [43426,"urn:WaterMeter:MC0203J22010600005","2025-01-08T06:30:00",7.4,37.690083,0.296],
    [43427,"urn:WaterMeter:MC0203J22010600005","2025-01-08T06:45:00",7.4,37.86464,0.299],
    [43428,"urn:WaterMeter:MC0203J22010600005","2025-01-08T07:00:00",7.4,38.032948,0.311],
    [43429,"urn:WaterMeter:MC0203J22010600005","2025-01-08T07:15:00",7.4,38.2172,0.298],
    [43430,"urn:WaterMeter:MC0203J22010600005","2025-01-08T07:30:00",7.4,38.517433,0.31],
    [43431,"urn:WaterMeter:MC0203J22010600005","2025-01-08T07:45:00",7.4,38.78047,0.309],
    [43432,"urn:WaterMeter:MC0203J22010600005","2025-01-08T08:00:00",7.5,39.04696,0.31],
    [43433,"urn:WaterMeter:MC0203J22010600005","2025-01-08T08:15:00",7.5,38.94106,0.316],
    [43434,"urn:WaterMeter:MC0203J22010600005","2025-01-08T08:30:00",7.5,38.4845,0.296],
    [43435,"urn:WaterMeter:MC0203J22010600005","2025-01-08T08:45:00",7.4,37.923946,0.299],
    [43436,"urn:WaterMeter:MC0203J22010600005","2025-01-08T09:00:00",7.5,37.71491,0.298],
    [43437,"urn:WaterMeter:MC0203J22010600005","2025-01-08T09:15:00",7.699,37.46972,0.305],
    [43438,"urn:WaterMeter:MC0203J22010600005","2025-01-08T09:30:00",7.9,37.282787,0.281],
    [43439,"urn:WaterMeter:MC0203J22010600005","2025-01-08T09:45:00",8.199,37.10513,0.298],
    [43440,"urn:WaterMeter:MC0203J22010600005","2025-01-08T10:00:00",8.6,36.99031,0.275],
    [43441,"urn:WaterMeter:MC0203J22010600005","2025-01-08T10:15:00",9,36.880146,0.269],
    [43442,"urn:WaterMeter:MC0203J22010600005","2025-01-08T10:30:00",9.3,36.79326,0.273],
    [43443,"urn:WaterMeter:MC0203J22010600005","2025-01-08T10:45:00",9.5,36.735073,0.282],
    [43444,"urn:WaterMeter:MC0203J22010600005","2025-01-08T11:00:00",9.699,36.65982,0.268],
    [43445,"urn:WaterMeter:MC0203J22010600005","2025-01-08T11:15:00",9.899,36.533367,0.273],
    [43446,"urn:WaterMeter:MC0203J22010600005","2025-01-08T11:30:00",10.1,36.431698,0.28],
    [43447,"urn:WaterMeter:MC0203J22010600005","2025-01-08T11:45:00",10.3,36.287785,0.271],
    [43448,"urn:WaterMeter:MC0203J22010600005","2025-01-08T12:00:00",10.6,36.286236,0.274],
    [43449,"urn:WaterMeter:MC0203J22010600005","2025-01-08T12:15:00",10.699,36.2021,0.274],
    [43450,"urn:WaterMeter:MC0203J22010600005","2025-01-08T12:30:00",10.899,36.14624,0.279],
    [43451,"urn:WaterMeter:MC0203J22010600005","2025-01-08T12:45:00",11,36.097366,0.271],
    [43452,"urn:WaterMeter:MC0203J22010600005","2025-01-08T13:00:00",11.1,35.99147,0.273],
    [43453,"urn:WaterMeter:MC0203J22010600005","2025-01-08T13:15:00",11.199,35.998062,0.272],
    [43454,"urn:WaterMeter:MC0203J22010600005","2025-01-08T13:30:00",11.3,35.98759,0.294],
    [43455,"urn:WaterMeter:MC0203J22010600005","2025-01-08T13:45:00",11.399,35.910786,0.273],
    [43456,"urn:WaterMeter:MC0203J22010600005","2025-01-08T14:00:00",11.5,35.907257,0.28],
    [43457,"urn:WaterMeter:MC0203J22010600005","2025-01-08T14:15:00",11.6,35.865402,0.283],
    [43458,"urn:WaterMeter:MC0203J22010600005","2025-01-08T14:30:00",11.699,35.814198,0.273],
    [43459,"urn:WaterMeter:MC0203J22010600005","2025-01-08T14:45:00",11.699,35.736618,0.278],
    [43460,"urn:WaterMeter:MC0203J22010600005","2025-01-08T15:00:00",11.699,35.780453,0.275],
    [43461,"urn:WaterMeter:MC0203J22010600005","2025-01-08T15:15:00",11.8,35.698994,0.264],
    [43462,"urn:WaterMeter:MC0203J22010600005","2025-01-08T15:30:00",11.8,35.724556,0.268],
    [43463,"urn:WaterMeter:MC0203J22010600005","2025-01-08T15:45:00",11.8,35.657875,0.268],
    [43464,"urn:WaterMeter:MC0203J22010600005","2025-01-08T16:00:00",11.699,35.646587,0.29],
    [43465,"urn:WaterMeter:MC0203J22010600005","2025-01-08T16:15:00",11.6,35.60667,0.268],
    [43466,"urn:WaterMeter:MC0203J22010600005","2025-01-08T16:30:00",11.5,35.634563,0.265],
    [43467,"urn:WaterMeter:MC0203J22010600005","2025-01-08T16:45:00",11.399,35.569393,0.282],
    [43468,"urn:WaterMeter:MC0203J22010600005","2025-01-08T17:00:00",11.3,35.604733,0.274],
    [43469,"urn:WaterMeter:MC0203J22010600005","2025-01-08T17:15:00",11.199,35.57754,0.275],
    [43470,"urn:WaterMeter:MC0203J22010600005","2025-01-08T17:30:00",11.1,35.537586,0.271],
    [43471,"urn:WaterMeter:MC0203J22010600005","2025-01-08T17:45:00",10.899,35.532585,0.271],
    [43472,"urn:WaterMeter:MC0203J22010600005","2025-01-08T18:00:00",10.8,35.576027,0.269],
    [43473,"urn:WaterMeter:MC0203J22010600005","2025-01-08T18:15:00",10.699,35.564777,0.265],
    [43474,"urn:WaterMeter:MC0203J22010600005","2025-01-08T18:30:00",10.6,35.589993,0.276],
    [43475,"urn:WaterMeter:MC0203J22010600005","2025-01-08T18:45:00",10.5,35.565166,0.287],
    [43476,"urn:WaterMeter:MC0203J22010600005","2025-01-08T19:00:00",10.399,35.54616,0.299],
    [43477,"urn:WaterMeter:MC0203J22010600005","2025-01-08T19:15:00",10.3,35.53914,0.273],
    [43478,"urn:WaterMeter:MC0203J22010600005","2025-01-08T19:30:00",10.199,35.51435,0.268],
    [43479,"urn:WaterMeter:MC0203J22010600005","2025-01-08T19:45:00",10.1,35.532196,0.281],
    [43480,"urn:WaterMeter:MC0203J22010600005","2025-01-08T20:00:00",10.1,35.527542,0.273],
    [43481,"urn:WaterMeter:MC0203J22010600005","2025-01-08T20:15:00",10,35.508533,0.279],
    [43482,"urn:WaterMeter:MC0203J22010600005","2025-01-08T20:30:00",9.899,35.49612,0.245],
    [43483,"urn:WaterMeter:MC0203J22010600005","2025-01-08T20:45:00",9.899,35.468193,0.269],
    [43484,"urn:WaterMeter:MC0203J22010600005","2025-01-08T21:00:00",9.8,35.47013,0.268],
    [43485,"urn:WaterMeter:MC0203J22010600005","2025-01-08T21:15:00",9.8,35.482117,0.267],
    [43486,"urn:WaterMeter:MC0203J22010600005","2025-01-08T21:30:00",9.8,35.47595,0.271],
    [43487,"urn:WaterMeter:MC0203J22010600005","2025-01-08T21:45:00",9.8,35.487587,0.281],
    [43488,"urn:WaterMeter:MC0203J22010600005","2025-01-08T22:00:00",9.8,35.469357,0.287],
    [43489,"urn:WaterMeter:MC0203J22010600005","2025-01-08T22:15:00",9.899,35.420868,0.272],
    [43490,"urn:WaterMeter:MC0203J22010600005","2025-01-08T22:30:00",9.899,35.42979,0.278],
    [43491,"urn:WaterMeter:MC0203J22010600005","2025-01-08T22:45:00",9.899,35.435997,0.267],
    [43492,"urn:WaterMeter:MC0203J22010600005","2025-01-08T23:00:00",9.8,35.434406,0.264],
    [43493,"urn:WaterMeter:MC0203J22010600005","2025-01-08T23:15:00",9.8,35.377037,0.28],
    [43494,"urn:WaterMeter:MC0203J22010600005","2025-01-08T23:30:00",9.699,35.40531,0.273],
    [43495,"urn:WaterMeter:MC0203J22010600005","2025-01-08T23:45:00",9.699,35.385918,0.276],
    [43496,"urn:WaterMeter:MC0203J22010600005","2025-01-09T00:00:00",9.6,35.34635,0.271],
    [43497,"urn:WaterMeter:MC0203J22010600005","2025-01-09T00:15:00",9.6,35.355274,0.289],
    [43498,"urn:WaterMeter:MC0203J22010600005","2025-01-09T00:30:00",9.6,35.35182,0.27],
    [43499,"urn:WaterMeter:MC0203J22010600005","2025-01-09T00:45:00",9.5,35.321953,0.267],
    [43500,"urn:WaterMeter:MC0203J22010600005","2025-01-09T01:00:00",9.5,35.32816,0.275],
    [43501,"urn:WaterMeter:MC0203J22010600005","2025-01-09T01:15:00",9.5,35.30601,0.271],
    [43502,"urn:WaterMeter:MC0203J22010600005","2025-01-09T01:30:00",9.5,35.33359,0.275],
    [43503,"urn:WaterMeter:MC0203J22010600005","2025-01-09T01:45:00",9.5,35.3204,0.284],
    [43504,"urn:WaterMeter:MC0203J22010600005","2025-01-09T02:00:00",9.6,35.320015,0.267],
    [43505,"urn:WaterMeter:MC0203J22010600005","2025-01-09T02:15:00",9.6,35.292473,0.275],
    [43506,"urn:WaterMeter:MC0203J22010600005","2025-01-09T02:30:00",9.5,35.22843,0.258],
    [43507,"urn:WaterMeter:MC0203J22010600005","2025-01-09T02:45:00",9.5,35.289757,0.274],
    [43508,"urn:WaterMeter:MC0203J22010600005","2025-01-09T03:00:00",9.5,35.248215,0.293],
    [43509,"urn:WaterMeter:MC0203J22010600005","2025-01-09T03:15:00",9.5,35.238556,0.272],
    [43510,"urn:WaterMeter:MC0203J22010600005","2025-01-09T03:30:00",9.399,35.277695,0.265],
    [43511,"urn:WaterMeter:MC0203J22010600005","2025-01-09T03:45:00",9.399,35.249767,0.273],
    [43512,"urn:WaterMeter:MC0203J22010600005","2025-01-09T04:00:00",9.399,35.256012,0.27],
    [43513,"urn:WaterMeter:MC0203J22010600005","2025-01-09T04:15:00",9.3,35.212955,0.268],
    [43514,"urn:WaterMeter:MC0203J22010600005","2025-01-09T04:30:00",9.3,35.181496,0.277],
    [43515,"urn:WaterMeter:MC0203J22010600005","2025-01-09T04:45:00",9.199,35.207523,0.272],
    [43516,"urn:WaterMeter:MC0203J22010600005","2025-01-09T05:00:00",9.199,35.20787,0.275],
    [43517,"urn:WaterMeter:MC0203J22010600005","2025-01-09T05:15:00",9.199,35.28006,0.263],
    [43518,"urn:WaterMeter:MC0203J22010600005","2025-01-09T05:30:00",9.399,35.629948,0.283],
    [43519,"urn:WaterMeter:MC0203J22010600005","2025-01-09T05:45:00",9.399,36.453846,0.289],
    [43520,"urn:WaterMeter:MC0203J22010600005","2025-01-09T06:00:00",9.399,37.3177,0.298],
    [43521,"urn:WaterMeter:MC0203J22010600005","2025-01-09T06:15:00",9.399,37.677284,0.297],
    [43522,"urn:WaterMeter:MC0203J22010600005","2025-01-09T06:30:00",9.399,37.924335,0.288],
    [43523,"urn:WaterMeter:MC0203J22010600005","2025-01-09T06:45:00",9.399,38.166813,0.306],
    [43524,"urn:WaterMeter:MC0203J22010600005","2025-01-09T07:00:00",9.399,38.32426,0.293],
    [43525,"urn:WaterMeter:MC0203J22010600005","2025-01-09T07:15:00",9.5,38.615185,0.299],
    [43526,"urn:WaterMeter:MC0203J22010600005","2025-01-09T07:30:00",9.5,38.790554,0.304],
    [43527,"urn:WaterMeter:MC0203J22010600005","2025-01-09T07:45:00",9.5,39.01709,0.335],
    [43528,"urn:WaterMeter:MC0203J22010600005","2025-01-09T08:00:00",9.5,39.21298,0.316],
    [43529,"urn:WaterMeter:MC0203J22010600005","2025-01-09T08:15:00",9.5,39.0039,0.298],
    [43530,"urn:WaterMeter:MC0203J22010600005","2025-01-09T08:30:00",9.399,38.520187,0.301],
    [43531,"urn:WaterMeter:MC0203J22010600005","2025-01-09T08:45:00",9.399,37.940277,0.3],
    [43532,"urn:WaterMeter:MC0203J22010600005","2025-01-09T09:00:00",9.5,37.72263,0.292],
    [43533,"urn:WaterMeter:MC0203J22010600005","2025-01-09T09:15:00",9.8,37.38946,0.278],
    [43534,"urn:WaterMeter:MC0203J22010600005","2025-01-09T09:30:00",10.1,37.2696,0.283],
    [43535,"urn:WaterMeter:MC0203J22010600005","2025-01-09T09:45:00",10.399,37.15129,0.292],
    [43536,"urn:WaterMeter:MC0203J22010600005","2025-01-09T10:00:00",10.8,36.872,0.284],
    [43537,"urn:WaterMeter:MC0203J22010600005","2025-01-09T10:15:00",11.199,36.764553,0.285],
    [43538,"urn:WaterMeter:MC0203J22010600005","2025-01-09T10:30:00",11.399,36.722233,0.277],
    [43539,"urn:WaterMeter:MC0203J22010600005","2025-01-09T10:45:00",11.5,36.56362,0.264],
    [43540,"urn:WaterMeter:MC0203J22010600005","2025-01-09T11:00:00",11.6,36.532978,0.261],
    [43541,"urn:WaterMeter:MC0203J22010600005","2025-01-09T11:15:00",11.8,36.477894,0.271],
    [43542,"urn:WaterMeter:MC0203J22010600005","2025-01-09T11:30:00",11.899,36.432083,0.278],
    [43543,"urn:WaterMeter:MC0203J22010600005","2025-01-09T11:45:00",12,36.43286,0.267],
    [43544,"urn:WaterMeter:MC0203J22010600005","2025-01-09T12:00:00",12.1,36.31265,0.296],
    [43545,"urn:WaterMeter:MC0203J22010600005","2025-01-09T12:15:00",12.199,36.23736,0.267],
    [43546,"urn:WaterMeter:MC0203J22010600005","2025-01-09T12:30:00",12.399,36.051205,0.269],
    [43547,"urn:WaterMeter:MC0203J22010600005","2025-01-09T12:45:00",12.399,35.973236,0.267],
    [43548,"urn:WaterMeter:MC0203J22010600005","2025-01-09T13:00:00",12.399,35.946434,0.277],
    [43549,"urn:WaterMeter:MC0203J22010600005","2025-01-09T13:15:00",12.399,35.925137,0.261],
    [43550,"urn:WaterMeter:MC0203J22010600005","2025-01-09T13:30:00",12.3,35.903805,0.268],
    [43551,"urn:WaterMeter:MC0203J22010600005","2025-01-09T13:45:00",12.3,35.82192,0.263],
    [43552,"urn:WaterMeter:MC0203J22010600005","2025-01-09T14:00:00",12.199,35.795193,0.268],
    [43553,"urn:WaterMeter:MC0203J22010600005","2025-01-09T14:15:00",12.199,35.74593,0.272],
    [43554,"urn:WaterMeter:MC0203J22010600005","2025-01-09T14:30:00",12.199,35.785107,0.263],
    [43555,"urn:WaterMeter:MC0203J22010600005","2025-01-09T14:45:00",12.199,35.725758,0.28],
    [43556,"urn:WaterMeter:MC0203J22010600005","2025-01-09T15:00:00",12.199,35.74515,0.274],
    [43557,"urn:WaterMeter:MC0203J22010600005","2025-01-09T15:15:00",12.199,35.709076,0.272],
    [43558,"urn:WaterMeter:MC0203J22010600005","2025-01-09T15:30:00",12.199,35.6699,0.283],
    [43559,"urn:WaterMeter:MC0203J22010600005","2025-01-09T15:45:00",12.199,35.62758,0.267],
    [43560,"urn:WaterMeter:MC0203J22010600005","2025-01-09T16:00:00",12.199,35.638866,0.283],
    [43561,"urn:WaterMeter:MC0203J22010600005","2025-01-09T16:15:00",12.199,35.615555,0.268],
    [43562,"urn:WaterMeter:MC0203J22010600005","2025-01-09T16:30:00",12.199,35.589176,0.259],
    [43563,"urn:WaterMeter:MC0203J22010600005","2025-01-09T16:45:00",12.199,35.508923,0.271],
    [43564,"urn:WaterMeter:MC0203J22010600005","2025-01-09T17:00:00",12.1,35.548874,0.281],
    [43565,"urn:WaterMeter:MC0203J22010600005","2025-01-09T17:15:00",12.1,35.50151,0.264],
    [43566,"urn:WaterMeter:MC0203J22010600005","2025-01-09T17:30:00",12.1,35.465088,0.263],
    [43567,"urn:WaterMeter:MC0203J22010600005","2025-01-09T17:45:00",12,35.45341,0.273],
    [43568,"urn:WaterMeter:MC0203J22010600005","2025-01-09T18:00:00",11.899,35.438324,0.264],
    [43569,"urn:WaterMeter:MC0203J22010600005","2025-01-09T18:15:00",11.8,35.473194,0.273],
    [43570,"urn:WaterMeter:MC0203J22010600005","2025-01-09T18:30:00",11.8,35.421604,0.278],
    [43571,"urn:WaterMeter:MC0203J22010600005","2025-01-09T18:45:00",11.699,35.42432,0.282],
    [43572,"urn:WaterMeter:MC0203J22010600005","2025-01-09T19:00:00",11.699,35.399147,0.26],
    [43573,"urn:WaterMeter:MC0203J22010600005","2025-01-09T19:15:00",11.699,35.386734,0.261],
    [43574,"urn:WaterMeter:MC0203J22010600005","2025-01-09T19:30:00",11.6,35.382427,0.274],
    [43575,"urn:WaterMeter:MC0203J22010600005","2025-01-09T19:45:00",11.6,35.422382,0.26],
    [43576,"urn:WaterMeter:MC0203J22010600005","2025-01-09T20:00:00",11.5,35.341347,0.284],
    [43577,"urn:WaterMeter:MC0203J22010600005","2025-01-09T20:15:00",11.5,35.341736,0.266],
    [43578,"urn:WaterMeter:MC0203J22010600005","2025-01-09T20:30:00",11.399,35.310703,0.266],
    [43579,"urn:WaterMeter:MC0203J22010600005","2025-01-09T20:45:00",11.3,35.27696,0.273],
    [43580,"urn:WaterMeter:MC0203J22010600005","2025-01-09T21:00:00",11.199,35.292084,0.281],
    [43581,"urn:WaterMeter:MC0203J22010600005","2025-01-09T21:15:00",11.1,35.344414,0.284],
    [43582,"urn:WaterMeter:MC0203J22010600005","2025-01-09T21:30:00",11.1,35.270363,0.275],
    [43583,"urn:WaterMeter:MC0203J22010600005","2025-01-09T21:45:00",11,35.304848,0.264],
    [43584,"urn:WaterMeter:MC0203J22010600005","2025-01-09T22:00:00",10.899,35.31342,0.261],
    [43585,"urn:WaterMeter:MC0203J22010600005","2025-01-09T22:15:00",10.8,35.27657,0.265],
    [43586,"urn:WaterMeter:MC0203J22010600005","2025-01-09T22:30:00",10.699,35.25756,0.264],
    [43587,"urn:WaterMeter:MC0203J22010600005","2025-01-09T22:45:00",10.6,35.251354,0.28],
    [43588,"urn:WaterMeter:MC0203J22010600005","2025-01-09T23:00:00",10.5,35.297478,0.263],
    [43589,"urn:WaterMeter:MC0203J22010600005","2025-01-09T23:15:00",10.399,35.27657,0.263],
    [43590,"urn:WaterMeter:MC0203J22010600005","2025-01-09T23:30:00",10.3,35.229206,0.259],
    [43591,"urn:WaterMeter:MC0203J22010600005","2025-01-09T23:45:00",10.199,35.242435,0.266],
    [43592,"urn:WaterMeter:MC0203J22010600005","2025-01-10T00:00:00",10.1,35.210976,0.262],
    [43593,"urn:WaterMeter:MC0203J22010600005","2025-01-10T00:15:00",10.1,35.24321,0.275],
    [43594,"urn:WaterMeter:MC0203J22010600005","2025-01-10T00:30:00",10,35.245926,0.261],
    [43595,"urn:WaterMeter:MC0203J22010600005","2025-01-10T00:45:00",9.899,35.242046,0.27],
    [43596,"urn:WaterMeter:MC0203J22010600005","2025-01-10T01:00:00",9.899,35.249767,0.262],
    [43597,"urn:WaterMeter:MC0203J22010600005","2025-01-10T01:15:00",9.8,35.267998,0.268],
    [43598,"urn:WaterMeter:MC0203J22010600005","2025-01-10T01:30:00",9.8,35.23076,0.268],
    [43599,"urn:WaterMeter:MC0203J22010600005","2025-01-10T01:45:00",9.699,35.263382,0.274],
    [43600,"urn:WaterMeter:MC0203J22010600005","2025-01-10T02:00:00",9.6,35.228043,0.282],
    [43601,"urn:WaterMeter:MC0203J22010600005","2025-01-10T02:15:00",9.6,35.218384,0.263],
    [43602,"urn:WaterMeter:MC0203J22010600005","2025-01-10T02:30:00",9.5,35.18813,0.272],
    [43603,"urn:WaterMeter:MC0203J22010600005","2025-01-10T02:45:00",9.5,35.20442,0.267],
    [43604,"urn:WaterMeter:MC0203J22010600005","2025-01-10T03:00:00",9.5,35.195885,0.26],
    [43605,"urn:WaterMeter:MC0203J22010600005","2025-01-10T03:15:00",9.399,35.203255,0.262],
    [43606,"urn:WaterMeter:MC0203J22010600005","2025-01-10T03:30:00",9.399,35.21412,0.279],
    [43607,"urn:WaterMeter:MC0203J22010600005","2025-01-10T03:45:00",9.3,35.186966,0.264],
    [43608,"urn:WaterMeter:MC0203J22010600005","2025-01-10T04:00:00",9.199,35.186188,0.285],
    [43609,"urn:WaterMeter:MC0203J22010600005","2025-01-10T04:15:00",9.199,35.172573,0.271],
    [43610,"urn:WaterMeter:MC0203J22010600005","2025-01-10T04:30:00",9.1,35.197826,0.273],
    [43611,"urn:WaterMeter:MC0203J22010600005","2025-01-10T04:45:00",9,35.170246,0.264],
    [43612,"urn:WaterMeter:MC0203J22010600005","2025-01-10T05:00:00",9,35.1718,0.276],
    [43613,"urn:WaterMeter:MC0203J22010600005","2025-01-10T05:15:00",9.1,35.19472,0.263],
    [43614,"urn:WaterMeter:MC0203J22010600005","2025-01-10T05:30:00",9.3,35.55776,0.273],
    [43615,"urn:WaterMeter:MC0203J22010600005","2025-01-10T05:45:00",9.399,36.4123,0.281],
    [43616,"urn:WaterMeter:MC0203J22010600005","2025-01-10T06:00:00",9.399,36.958115,0.299],
    [43617,"urn:WaterMeter:MC0203J22010600005","2025-01-10T06:15:00",9.5,37.325417,0.282],
    [43618,"urn:WaterMeter:MC0203J22010600005","2025-01-10T06:30:00",9.5,37.57445,0.29],
    [43619,"urn:WaterMeter:MC0203J22010600005","2025-01-10T06:45:00",9.5,37.774258,0.291],
    [43620,"urn:WaterMeter:MC0203J22010600005","2025-01-10T07:00:00",9.6,37.99924,0.286],
    [43621,"urn:WaterMeter:MC0203J22010600005","2025-01-10T07:15:00",9.6,38.25599,0.299],
    [43622,"urn:WaterMeter:MC0203J22010600005","2025-01-10T07:30:00",9.6,38.601646,0.321],
    [43623,"urn:WaterMeter:MC0203J22010600005","2025-01-10T07:45:00",9.699,38.791718,0.298],
    [43624,"urn:WaterMeter:MC0203J22010600005","2025-01-10T08:00:00",9.8,39.002697,0.311],
    [43625,"urn:WaterMeter:MC0203J22010600005","2025-01-10T08:15:00",9.8,38.802193,0.302],
    [43626,"urn:WaterMeter:MC0203J22010600005","2025-01-10T08:30:00",9.699,38.41115,0.295],
    [43627,"urn:WaterMeter:MC0203J22010600005","2025-01-10T08:45:00",9.699,37.78279,0.28],
    [43628,"urn:WaterMeter:MC0203J22010600005","2025-01-10T09:00:00",9.899,37.575226,0.292],
    [43629,"urn:WaterMeter:MC0203J22010600005","2025-01-10T09:15:00",10.1,37.27736,0.299],
    [43630,"urn:WaterMeter:MC0203J22010600005","2025-01-10T09:30:00",10.399,37.019405,0.28],
    [43631,"urn:WaterMeter:MC0203J22010600005","2025-01-10T09:45:00",10.699,36.8945,0.271],
    [43632,"urn:WaterMeter:MC0203J22010600005","2025-01-10T10:00:00",11,36.849075,0.272],
    [43633,"urn:WaterMeter:MC0203J22010600005","2025-01-10T10:15:00",11.3,36.706757,0.272],
    [43634,"urn:WaterMeter:MC0203J22010600005","2025-01-10T10:30:00",11.5,36.614826,0.266],
    [43635,"urn:WaterMeter:MC0203J22010600005","2025-01-10T10:45:00",11.8,36.465096,0.268],
    [43636,"urn:WaterMeter:MC0203J22010600005","2025-01-10T11:00:00",12,36.354504,0.287],
    [43637,"urn:WaterMeter:MC0203J22010600005","2025-01-10T11:15:00",12.1,36.26494,0.278],
    [43638,"urn:WaterMeter:MC0203J22010600005","2025-01-10T11:30:00",12.199,36.18387,0.258],
    [43639,"urn:WaterMeter:MC0203J22010600005","2025-01-10T11:45:00",12.399,36.21257,0.277],
    [43640,"urn:WaterMeter:MC0203J22010600005","2025-01-10T12:00:00",12.5,36.09814,0.273],
    [43641,"urn:WaterMeter:MC0203J22010600005","2025-01-10T12:15:00",12.6,35.962765,0.29],
    [43642,"urn:WaterMeter:MC0203J22010600005","2025-01-10T12:30:00",12.699,35.89682,0.265],
    [43643,"urn:WaterMeter:MC0203J22010600005","2025-01-10T12:45:00",12.8,35.901863,0.263],
    [43644,"urn:WaterMeter:MC0203J22010600005","2025-01-10T13:00:00",12.899,35.829678,0.266],
    [43645,"urn:WaterMeter:MC0203J22010600005","2025-01-10T13:15:00",13,35.731926,0.259],
    [43646,"urn:WaterMeter:MC0203J22010600005","2025-01-10T13:30:00",13.1,35.718777,0.269],
    [43647,"urn:WaterMeter:MC0203J22010600005","2025-01-10T13:45:00",13.3,35.65473,0.276],
    [43648,"urn:WaterMeter:MC0203J22010600005","2025-01-10T14:00:00",13.3,35.619083,0.266],
    [43649,"urn:WaterMeter:MC0203J22010600005","2025-01-10T14:15:00",13.3,35.605896,0.279],
    [43650,"urn:WaterMeter:MC0203J22010600005","2025-01-10T14:30:00",13.3,35.624516,0.272],
    [43651,"urn:WaterMeter:MC0203J22010600005","2025-01-10T14:45:00",13.3,35.54422,0.269],
    [43652,"urn:WaterMeter:MC0203J22010600005","2025-01-10T15:00:00",13.3,35.518192,0.27],
    [43653,"urn:WaterMeter:MC0203J22010600005","2025-01-10T15:15:00",13.199,35.449184,0.285],
    [43654,"urn:WaterMeter:MC0203J22010600005","2025-01-10T15:30:00",13.199,35.41117,0.28],
    [43655,"urn:WaterMeter:MC0203J22010600005","2025-01-10T15:45:00",13.199,35.401085,0.286],
    [43656,"urn:WaterMeter:MC0203J22010600005","2025-01-10T16:00:00",13.199,35.39294,0.254],
    [43657,"urn:WaterMeter:MC0203J22010600005","2025-01-10T16:15:00",13.1,35.38014,0.256],
    [43658,"urn:WaterMeter:MC0203J22010600005","2025-01-10T16:30:00",13.1,35.316135,0.269],
    [43659,"urn:WaterMeter:MC0203J22010600005","2025-01-10T16:45:00",13,35.354923,0.268],
    [43660,"urn:WaterMeter:MC0203J22010600005","2025-01-10T17:00:00",12.899,35.27463,0.278],
    [43661,"urn:WaterMeter:MC0203J22010600005","2025-01-10T17:15:00",12.8,35.31536,0.287],
    [43662,"urn:WaterMeter:MC0203J22010600005","2025-01-10T17:30:00",12.6,35.293247,0.283],
    [43663,"urn:WaterMeter:MC0203J22010600005","2025-01-10T17:45:00",12.5,35.281223,0.282],
    [43664,"urn:WaterMeter:MC0203J22010600005","2025-01-10T18:00:00",12.3,35.253296,0.274],
    [43665,"urn:WaterMeter:MC0203J22010600005","2025-01-10T18:15:00",12.199,35.255234,0.274],
    [43666,"urn:WaterMeter:MC0203J22010600005","2025-01-10T18:30:00",12.1,35.278084,0.272],
    [43667,"urn:WaterMeter:MC0203J22010600005","2025-01-10T18:45:00",11.899,35.2583,0.272],
    [43668,"urn:WaterMeter:MC0203J22010600005","2025-01-10T19:00:00",11.8,35.25795,0.268],
    [43669,"urn:WaterMeter:MC0203J22010600005","2025-01-10T19:15:00",11.699,35.25407,0.27],
    [43670,"urn:WaterMeter:MC0203J22010600005","2025-01-10T19:30:00",11.6,35.27463,0.273],
    [43671,"urn:WaterMeter:MC0203J22010600005","2025-01-10T19:45:00",11.5,35.240456,0.267],
    [43672,"urn:WaterMeter:MC0203J22010600005","2025-01-10T20:00:00",11.399,35.196274,0.285],
    [43673,"urn:WaterMeter:MC0203J22010600005","2025-01-10T20:15:00",11.399,35.20128,0.263],
    [43674,"urn:WaterMeter:MC0203J22010600005","2025-01-10T20:30:00",11.399,35.215668,0.27],
    [43675,"urn:WaterMeter:MC0203J22010600005","2025-01-10T20:45:00",11.399,35.18347,0.267],
    [43676,"urn:WaterMeter:MC0203J22010600005","2025-01-10T21:00:00",11.3,35.219162,0.269],
    [43677,"urn:WaterMeter:MC0203J22010600005","2025-01-10T21:15:00",11.3,35.21334,0.293],
    [43678,"urn:WaterMeter:MC0203J22010600005","2025-01-10T21:30:00",11.199,35.209423,0.268],
    [43679,"urn:WaterMeter:MC0203J22010600005","2025-01-10T21:45:00",11.199,35.19511,0.277],
    [43680,"urn:WaterMeter:MC0203J22010600005","2025-01-10T22:00:00",11.1,35.159035,0.271],
    [43681,"urn:WaterMeter:MC0203J22010600005","2025-01-10T22:15:00",11,35.193558,0.275],
    [43682,"urn:WaterMeter:MC0203J22010600005","2025-01-10T22:30:00",11,35.19705,0.27],
    [43683,"urn:WaterMeter:MC0203J22010600005","2025-01-10T22:45:00",10.899,35.13068,0.271],
    [43684,"urn:WaterMeter:MC0203J22010600005","2025-01-10T23:00:00",10.899,35.129166,0.278],
    [43685,"urn:WaterMeter:MC0203J22010600005","2025-01-10T23:15:00",10.899,35.13378,0.266],
    [43686,"urn:WaterMeter:MC0203J22010600005","2025-01-10T23:30:00",10.899,35.178818,0.273],
    [43687,"urn:WaterMeter:MC0203J22010600005","2025-01-10T23:45:00",10.899,35.151627,0.259],
    [43688,"urn:WaterMeter:MC0203J22010600005","2025-01-11T00:00:00",10.899,35.08999,0.276],
    [43689,"urn:WaterMeter:MC0203J22010600005","2025-01-11T00:15:00",10.899,35.068268,0.284],
    [43690,"urn:WaterMeter:MC0203J22010600005","2025-01-11T00:30:00",10.8,35.078354,0.268],
    [43691,"urn:WaterMeter:MC0203J22010600005","2025-01-11T00:45:00",10.8,35.0531,0.263],
    [43692,"urn:WaterMeter:MC0203J22010600005","2025-01-11T01:00:00",10.8,35.09891,0.262],
    [43693,"urn:WaterMeter:MC0203J22010600005","2025-01-11T01:15:00",10.8,35.039173,0.269],
    [43694,"urn:WaterMeter:MC0203J22010600005","2025-01-11T01:30:00",10.699,35.05081,0.262],
    [43695,"urn:WaterMeter:MC0203J22010600005","2025-01-11T01:45:00",10.699,35.07137,0.267],
    [43696,"urn:WaterMeter:MC0203J22010600005","2025-01-11T02:00:00",10.699,35.041115,0.276],
    [43697,"urn:WaterMeter:MC0203J22010600005","2025-01-11T02:15:00",10.6,35.074436,0.272],
    [43698,"urn:WaterMeter:MC0203J22010600005","2025-01-11T02:30:00",10.6,35.01978,0.264],
    [43699,"urn:WaterMeter:MC0203J22010600005","2025-01-11T02:45:00",10.6,35.05663,0.268],
    [43700,"urn:WaterMeter:MC0203J22010600005","2025-01-11T03:00:00",10.6,35.002712,0.268],
    [43701,"urn:WaterMeter:MC0203J22010600005","2025-01-11T03:15:00",10.6,35.032967,0.267],
    [43702,"urn:WaterMeter:MC0203J22010600005","2025-01-11T03:30:00",10.6,35.02754,0.278],
    [43703,"urn:WaterMeter:MC0203J22010600005","2025-01-11T03:45:00",10.6,35.035255,0.264],
    [43704,"urn:WaterMeter:MC0203J22010600005","2025-01-11T04:00:00",10.5,34.97944,0.274],
    [43705,"urn:WaterMeter:MC0203J22010600005","2025-01-11T04:15:00",10.5,34.970127,0.265],
    [43706,"urn:WaterMeter:MC0203J22010600005","2025-01-11T04:30:00",10.399,34.973232,0.265],
    [43707,"urn:WaterMeter:MC0203J22010600005","2025-01-11T04:45:00",10.399,34.98448,0.272],
    [43708,"urn:WaterMeter:MC0203J22010600005","2025-01-11T05:00:00",10.399,34.968536,0.267],
    [43709,"urn:WaterMeter:MC0203J22010600005","2025-01-11T05:15:00",10.399,34.937893,0.268],
    [43710,"urn:WaterMeter:MC0203J22010600005","2025-01-11T05:30:00",10.399,34.940647,0.261],
    [43711,"urn:WaterMeter:MC0203J22010600005","2025-01-11T05:45:00",10.3,34.95884,0.268],
    [43712,"urn:WaterMeter:MC0203J22010600005","2025-01-11T06:00:00",10.3,34.943752,0.27],
    [43713,"urn:WaterMeter:MC0203J22010600005","2025-01-11T06:15:00",10.399,34.94996,0.258],
    [43714,"urn:WaterMeter:MC0203J22010600005","2025-01-11T06:30:00",10.399,34.93095,0.269],
    [43715,"urn:WaterMeter:MC0203J22010600005","2025-01-11T06:45:00",10.399,34.910355,0.26],
    [43716,"urn:WaterMeter:MC0203J22010600005","2025-01-11T07:00:00",10.399,34.882076,0.257],
    [43717,"urn:WaterMeter:MC0203J22010600005","2025-01-11T07:15:00",10.399,34.898327,0.258],
    [43718,"urn:WaterMeter:MC0203J22010600005","2025-01-11T07:30:00",10.399,34.86423,0.261],
    [43719,"urn:WaterMeter:MC0203J22010600005","2025-01-11T07:45:00",10.5,34.909576,0.277],
    [43720,"urn:WaterMeter:MC0203J22010600005","2025-01-11T08:00:00",10.5,34.866947,0.27],
    [43721,"urn:WaterMeter:MC0203J22010600005","2025-01-11T08:15:00",10.6,34.869274,0.271],
    [43722,"urn:WaterMeter:MC0203J22010600005","2025-01-11T08:30:00",10.6,34.842857,0.266],
    [43723,"urn:WaterMeter:MC0203J22010600005","2025-01-11T08:45:00",10.6,34.871174,0.266],
    [43724,"urn:WaterMeter:MC0203J22010600005","2025-01-11T09:00:00",10.6,34.81497,0.265],
    [43725,"urn:WaterMeter:MC0203J22010600005","2025-01-11T09:15:00",10.699,34.77967,0.257],
    [43726,"urn:WaterMeter:MC0203J22010600005","2025-01-11T09:30:00",10.699,34.79247,0.268],
    [43727,"urn:WaterMeter:MC0203J22010600005","2025-01-11T09:45:00",10.699,34.82971,0.272],
    [43728,"urn:WaterMeter:MC0203J22010600005","2025-01-11T10:00:00",10.699,34.813766,0.262],
    [43729,"urn:WaterMeter:MC0203J22010600005","2025-01-11T10:15:00",10.8,34.776955,0.26],
    [43730,"urn:WaterMeter:MC0203J22010600005","2025-01-11T10:30:00",10.899,34.706318,0.277],
    [43731,"urn:WaterMeter:MC0203J22010600005","2025-01-11T10:45:00",11,34.76105,0.263],
    [43732,"urn:WaterMeter:MC0203J22010600005","2025-01-11T11:00:00",11.1,34.695107,0.253],
    [43733,"urn:WaterMeter:MC0203J22010600005","2025-01-11T11:15:00",11.399,34.688126,0.267],
    [43734,"urn:WaterMeter:MC0203J22010600005","2025-01-11T11:30:00",11.8,34.643906,0.276],
    [43735,"urn:WaterMeter:MC0203J22010600005","2025-01-11T11:45:00",12.1,34.589172,0.255],
    [43736,"urn:WaterMeter:MC0203J22010600005","2025-01-11T12:00:00",12.399,34.549606,0.273],
    [43737,"urn:WaterMeter:MC0203J22010600005","2025-01-11T12:15:00",12.699,34.467022,0.26],
    [43738,"urn:WaterMeter:MC0203J22010600005","2025-01-11T12:30:00",13,34.46547,0.259],
    [43739,"urn:WaterMeter:MC0203J22010600005","2025-01-11T12:45:00",13.199,34.36268,0.264],
    [43740,"urn:WaterMeter:MC0203J22010600005","2025-01-11T13:00:00",13.399,34.356045,0.251],
    [43741,"urn:WaterMeter:MC0203J22010600005","2025-01-11T13:15:00",13.5,34.37276,0.272],
    [43742,"urn:WaterMeter:MC0203J22010600005","2025-01-11T13:30:00",13.699,34.28122,0.273],
    [43743,"urn:WaterMeter:MC0203J22010600005","2025-01-11T13:45:00",13.899,34.261436,0.261],
    [43744,"urn:WaterMeter:MC0203J22010600005","2025-01-11T14:00:00",14,34.179935,0.252],
    [43745,"urn:WaterMeter:MC0203J22010600005","2025-01-11T14:15:00",14.199,34.190838,0.246],
    [43746,"urn:WaterMeter:MC0203J22010600005","2025-01-11T14:30:00",14.3,34.134552,0.248],
    [43747,"urn:WaterMeter:MC0203J22010600005","2025-01-11T14:45:00",14.3,34.139633,0.245],
    [43748,"urn:WaterMeter:MC0203J22010600005","2025-01-11T15:00:00",14.3,34.09425,0.251],
    [43749,"urn:WaterMeter:MC0203J22010600005","2025-01-11T15:15:00",14.3,34.05736,0.268],
    [43750,"urn:WaterMeter:MC0203J22010600005","2025-01-11T15:30:00",14.3,34.066284,0.256],
    [43751,"urn:WaterMeter:MC0203J22010600005","2025-01-11T15:45:00",14.3,34.045723,0.267],
    [43752,"urn:WaterMeter:MC0203J22010600005","2025-01-11T16:00:00",14.399,34.054684,0.264],
    [43753,"urn:WaterMeter:MC0203J22010600005","2025-01-11T16:15:00",14.3,33.94875,0.252],
    [43754,"urn:WaterMeter:MC0203J22010600005","2025-01-11T16:30:00",14.3,33.9984,0.272],
    [43755,"urn:WaterMeter:MC0203J22010600005","2025-01-11T16:45:00",14.199,33.984863,0.271],
    [43756,"urn:WaterMeter:MC0203J22010600005","2025-01-11T17:00:00",14.1,33.969307,0.256],
    [43757,"urn:WaterMeter:MC0203J22010600005","2025-01-11T17:15:00",14,33.932495,0.268],
    [43758,"urn:WaterMeter:MC0203J22010600005","2025-01-11T17:30:00",14,33.955383,0.273],
    [43759,"urn:WaterMeter:MC0203J22010600005","2025-01-11T17:45:00",13.899,33.904568,0.255],
    [43760,"urn:WaterMeter:MC0203J22010600005","2025-01-11T18:00:00",13.899,33.875473,0.259],
    [43761,"urn:WaterMeter:MC0203J22010600005","2025-01-11T18:15:00",13.8,33.921207,0.264],
    [43762,"urn:WaterMeter:MC0203J22010600005","2025-01-11T18:30:00",13.699,33.99029,0.283],
    [43763,"urn:WaterMeter:MC0203J22010600005","2025-01-11T18:45:00",13.699,33.90767,0.262],
    [43764,"urn:WaterMeter:MC0203J22010600005","2025-01-11T19:00:00",13.6,33.88242,0.261],
    [43765,"urn:WaterMeter:MC0203J22010600005","2025-01-11T19:15:00",13.5,33.87039,0.258],
    [43766,"urn:WaterMeter:MC0203J22010600005","2025-01-11T19:30:00",13.5,33.87272,0.276],
    [43767,"urn:WaterMeter:MC0203J22010600005","2025-01-11T19:45:00",13.399,33.853714,0.258],
    [43768,"urn:WaterMeter:MC0203J22010600005","2025-01-11T20:00:00",13.3,33.920044,0.264],
    [43769,"urn:WaterMeter:MC0203J22010600005","2025-01-11T20:15:00",13.3,33.853714,0.255],
    [43770,"urn:WaterMeter:MC0203J22010600005","2025-01-11T20:30:00",13.199,33.844017,0.262],
    [43771,"urn:WaterMeter:MC0203J22010600005","2025-01-11T20:45:00",13.1,33.865776,0.263],
    [43772,"urn:WaterMeter:MC0203J22010600005","2025-01-11T21:00:00",13,33.86733,0.262],
    [43773,"urn:WaterMeter:MC0203J22010600005","2025-01-11T21:15:00",12.899,33.85061,0.273],
    [43774,"urn:WaterMeter:MC0203J22010600005","2025-01-11T21:30:00",12.8,33.853714,0.259],
    [43775,"urn:WaterMeter:MC0203J22010600005","2025-01-11T21:45:00",12.699,33.91349,0.261],
    [43776,"urn:WaterMeter:MC0203J22010600005","2025-01-11T22:00:00",12.6,33.839787,0.261],
    [43777,"urn:WaterMeter:MC0203J22010600005","2025-01-11T22:15:00",12.5,33.86151,0.271],
    [43778,"urn:WaterMeter:MC0203J22010600005","2025-01-11T22:30:00",12.399,33.9003,0.257],
    [43779,"urn:WaterMeter:MC0203J22010600005","2025-01-11T22:45:00",12.3,33.91112,0.263],
    [43780,"urn:WaterMeter:MC0203J22010600005","2025-01-11T23:00:00",12.199,33.85957,0.264],
    [43781,"urn:WaterMeter:MC0203J22010600005","2025-01-11T23:15:00",12.1,33.939438,0.259],
    [43782,"urn:WaterMeter:MC0203J22010600005","2025-01-11T23:30:00",12,33.87078,0.262],
    [43783,"urn:WaterMeter:MC0203J22010600005","2025-01-11T23:45:00",12,33.89448,0.259],
    [43784,"urn:WaterMeter:MC0203J22010600005","2025-01-12T00:00:00",12,33.923187,0.26],
    [43785,"urn:WaterMeter:MC0203J22010600005","2025-01-12T00:15:00",11.899,33.94875,0.269],
    [43786,"urn:WaterMeter:MC0203J22010600005","2025-01-12T00:30:00",12,33.8894,0.271],
    [43787,"urn:WaterMeter:MC0203J22010600005","2025-01-12T00:45:00",12,33.890175,0.263],
    [43788,"urn:WaterMeter:MC0203J22010600005","2025-01-12T01:00:00",12,33.9387,0.27],
    [43789,"urn:WaterMeter:MC0203J22010600005","2025-01-12T01:15:00",12,33.979004,0.27],
    [43790,"urn:WaterMeter:MC0203J22010600005","2025-01-12T01:30:00",12,33.949524,0.265],
    [43791,"urn:WaterMeter:MC0203J22010600005","2025-01-12T01:45:00",12,33.97594,0.26],
    [43792,"urn:WaterMeter:MC0203J22010600005","2025-01-12T02:00:00",12,33.934048,0.265],
    [43793,"urn:WaterMeter:MC0203J22010600005","2025-01-12T02:15:00",12,33.942192,0.267],
    [43794,"urn:WaterMeter:MC0203J22010600005","2025-01-12T02:30:00",11.899,33.977104,0.265],
    [43795,"urn:WaterMeter:MC0203J22010600005","2025-01-12T02:45:00",11.899,33.962753,0.267],
    [43796,"urn:WaterMeter:MC0203J22010600005","2025-01-12T03:00:00",11.899,34.01628,0.263],
    [43797,"urn:WaterMeter:MC0203J22010600005","2025-01-12T03:15:00",11.8,34.022488,0.265],
    [43798,"urn:WaterMeter:MC0203J22010600005","2025-01-12T03:30:00",11.8,34.069813,0.239],
    [43799,"urn:WaterMeter:MC0203J22010600005","2025-01-12T03:45:00",11.699,34.051968,0.27],
    [43800,"urn:WaterMeter:MC0203J22010600005","2025-01-12T04:00:00",11.6,33.99068,0.298],
    [43801,"urn:WaterMeter:MC0203J22010600005","2025-01-12T04:15:00",11.6,34.0605,0.268],
    [43802,"urn:WaterMeter:MC0203J22010600005","2025-01-12T04:30:00",11.5,34.078735,0.279],
    [43803,"urn:WaterMeter:MC0203J22010600005","2025-01-12T04:45:00",11.5,34.080284,0.263],
    [43804,"urn:WaterMeter:MC0203J22010600005","2025-01-12T05:00:00",11.399,34.064342,0.265],
    [43805,"urn:WaterMeter:MC0203J22010600005","2025-01-12T05:15:00",11.399,34.129547,0.267],
    [43806,"urn:WaterMeter:MC0203J22010600005","2025-01-12T05:30:00",11.3,34.150497,0.262],
    [43807,"urn:WaterMeter:MC0203J22010600005","2025-01-12T05:45:00",11.199,34.13847,0.265],
    [43808,"urn:WaterMeter:MC0203J22010600005","2025-01-12T06:00:00",11.199,34.13692,0.271],
    [43809,"urn:WaterMeter:MC0203J22010600005","2025-01-12T06:15:00",11.1,34.15864,0.269],
    [43810,"urn:WaterMeter:MC0203J22010600005","2025-01-12T06:30:00",11,34.12722,0.28],
    [43811,"urn:WaterMeter:MC0203J22010600005","2025-01-12T06:45:00",10.899,34.14231,0.259],
    [43812,"urn:WaterMeter:MC0203J22010600005","2025-01-12T07:00:00",10.8,34.141537,0.27],
    [43813,"urn:WaterMeter:MC0203J22010600005","2025-01-12T07:15:00",10.8,34.152046,0.274],
    [43814,"urn:WaterMeter:MC0203J22010600005","2025-01-12T07:30:00",10.699,34.193554,0.257],
    [43815,"urn:WaterMeter:MC0203J22010600005","2025-01-12T07:45:00",10.699,34.22381,0.273],
    [43816,"urn:WaterMeter:MC0203J22010600005","2025-01-12T08:00:00",10.699,34.20127,0.265],
    [43817,"urn:WaterMeter:MC0203J22010600005","2025-01-12T08:15:00",10.699,34.147392,0.26],
    [43818,"urn:WaterMeter:MC0203J22010600005","2025-01-12T08:30:00",10.699,34.19433,0.269],
    [43819,"urn:WaterMeter:MC0203J22010600005","2025-01-12T08:45:00",10.699,34.204803,0.27],
    [43820,"urn:WaterMeter:MC0203J22010600005","2025-01-12T09:00:00",10.699,34.13847,0.253],
    [43821,"urn:WaterMeter:MC0203J22010600005","2025-01-12T09:15:00",10.8,34.171444,0.254],
    [43822,"urn:WaterMeter:MC0203J22010600005","2025-01-12T09:30:00",10.8,34.19045,0.268],
    [43823,"urn:WaterMeter:MC0203J22010600005","2025-01-12T09:45:00",10.8,34.16795,0.278],
    [43824,"urn:WaterMeter:MC0203J22010600005","2025-01-12T10:00:00",10.899,34.122528,0.281],
    [43825,"urn:WaterMeter:MC0203J22010600005","2025-01-12T10:15:00",10.899,34.150883,0.248],
    [43826,"urn:WaterMeter:MC0203J22010600005","2025-01-12T10:30:00",11,34.160194,0.27],
    [43827,"urn:WaterMeter:MC0203J22010600005","2025-01-12T10:45:00",11.199,34.1086,0.288],
    [43828,"urn:WaterMeter:MC0203J22010600005","2025-01-12T11:00:00",11.3,34.07214,0.268],
    [43829,"urn:WaterMeter:MC0203J22010600005","2025-01-12T11:15:00",11.5,34.073303,0.286],
    [43830,"urn:WaterMeter:MC0203J22010600005","2025-01-12T11:30:00",11.699,34.05581,0.263],
    [43831,"urn:WaterMeter:MC0203J22010600005","2025-01-12T11:45:00",11.699,34.022877,0.253],
    [43832,"urn:WaterMeter:MC0203J22010600005","2025-01-12T12:00:00",11.8,33.99262,0.263],
    [43833,"urn:WaterMeter:MC0203J22010600005","2025-01-12T12:15:00",11.8,33.97051,0.255],
    [43834,"urn:WaterMeter:MC0203J22010600005","2025-01-12T12:30:00",11.8,33.93366,0.258],
    [43835,"urn:WaterMeter:MC0203J22010600005","2025-01-12T12:45:00",11.8,33.896034,0.266],
    [43836,"urn:WaterMeter:MC0203J22010600005","2025-01-12T13:00:00",11.8,33.91698,0.256],
    [43837,"urn:WaterMeter:MC0203J22010600005","2025-01-12T13:15:00",11.899,33.944134,0.25],
    [43838,"urn:WaterMeter:MC0203J22010600005","2025-01-12T13:30:00",12,33.853325,0.279],
    [43839,"urn:WaterMeter:MC0203J22010600005","2025-01-12T13:45:00",12.1,33.88242,0.255],
    [43840,"urn:WaterMeter:MC0203J22010600005","2025-01-12T14:00:00",12.199,33.812984,0.253],
    [43841,"urn:WaterMeter:MC0203J22010600005","2025-01-12T14:15:00",12.3,33.846382,0.263],
    [43842,"urn:WaterMeter:MC0203J22010600005","2025-01-12T14:30:00",12.3,33.803673,0.272],
    [43843,"urn:WaterMeter:MC0203J22010600005","2025-01-12T14:45:00",12.3,33.731174,0.25],
    [43844,"urn:WaterMeter:MC0203J22010600005","2025-01-12T15:00:00",12.3,33.777725,0.257],
    [43845,"urn:WaterMeter:MC0203J22010600005","2025-01-12T15:15:00",12.3,33.728462,0.26],
    [43846,"urn:WaterMeter:MC0203J22010600005","2025-01-12T15:30:00",12.3,33.703636,0.249],
    [43847,"urn:WaterMeter:MC0203J22010600005","2025-01-12T15:45:00",12.3,33.742424,0.256],
    [43848,"urn:WaterMeter:MC0203J22010600005","2025-01-12T16:00:00",12.3,33.705185,0.265],
    [43849,"urn:WaterMeter:MC0203J22010600005","2025-01-12T16:15:00",12.3,33.681526,0.259],
    [43850,"urn:WaterMeter:MC0203J22010600005","2025-01-12T16:30:00",12.3,33.66946,0.273],
    [43851,"urn:WaterMeter:MC0203J22010600005","2025-01-12T16:45:00",12.199,33.633812,0.266],
    [43852,"urn:WaterMeter:MC0203J22010600005","2025-01-12T17:00:00",12.1,33.63959,0.272],
    [43853,"urn:WaterMeter:MC0203J22010600005","2025-01-12T17:15:00",12.1,33.616356,0.261],
    [43854,"urn:WaterMeter:MC0203J22010600005","2025-01-12T17:30:00",12,33.56942,0.259],
    [43855,"urn:WaterMeter:MC0203J22010600005","2025-01-12T17:45:00",11.899,33.557396,0.253],
    [43856,"urn:WaterMeter:MC0203J22010600005","2025-01-12T18:00:00",11.699,33.61209,0.255],
    [43857,"urn:WaterMeter:MC0203J22010600005","2025-01-12T18:15:00",11.5,33.603943,0.254],
    [43858,"urn:WaterMeter:MC0203J22010600005","2025-01-12T18:30:00",11.399,33.563213,0.266],
    [43859,"urn:WaterMeter:MC0203J22010600005","2025-01-12T18:45:00",11.3,33.57718,0.257],
    [43860,"urn:WaterMeter:MC0203J22010600005","2025-01-12T19:00:00",11.1,33.6105,0.263],
    [43861,"urn:WaterMeter:MC0203J22010600005","2025-01-12T19:15:00",11,33.606274,0.262],
    [43862,"urn:WaterMeter:MC0203J22010600005","2025-01-12T19:30:00",10.899,33.59925,0.254],
    [43863,"urn:WaterMeter:MC0203J22010600005","2025-01-12T19:45:00",10.8,33.626057,0.255],
    [43864,"urn:WaterMeter:MC0203J22010600005","2025-01-12T20:00:00",10.699,33.58416,0.253],
    [43865,"urn:WaterMeter:MC0203J22010600005","2025-01-12T20:15:00",10.5,33.627995,0.242],
    [43866,"urn:WaterMeter:MC0203J22010600005","2025-01-12T20:30:00",10.399,33.619423,0.262],
    [43867,"urn:WaterMeter:MC0203J22010600005","2025-01-12T20:45:00",10.3,33.590717,0.262],
    [43868,"urn:WaterMeter:MC0203J22010600005","2025-01-12T21:00:00",10.199,33.60666,0.244],
    [43869,"urn:WaterMeter:MC0203J22010600005","2025-01-12T21:15:00",10.1,33.607048,0.25],
    [43870,"urn:WaterMeter:MC0203J22010600005","2025-01-12T21:30:00",10,33.616356,0.24],
    [43871,"urn:WaterMeter:MC0203J22010600005","2025-01-12T21:45:00",9.899,33.615192,0.271],
    [43872,"urn:WaterMeter:MC0203J22010600005","2025-01-12T22:00:00",9.8,33.62912,0.248],
    [43873,"urn:WaterMeter:MC0203J22010600005","2025-01-12T22:15:00",9.699,33.62489,0.263],
    [43874,"urn:WaterMeter:MC0203J22010600005","2025-01-12T22:30:00",9.6,33.63998,0.267],
    [43875,"urn:WaterMeter:MC0203J22010600005","2025-01-12T22:45:00",9.5,33.670662,0.26],
    [43876,"urn:WaterMeter:MC0203J22010600005","2025-01-12T23:00:00",9.399,33.634975,0.275],
    [43877,"urn:WaterMeter:MC0203J22010600005","2025-01-12T23:15:00",9.399,33.63265,0.256],
    [43878,"urn:WaterMeter:MC0203J22010600005","2025-01-12T23:30:00",9.3,33.62912,0.253],
    [43879,"urn:WaterMeter:MC0203J22010600005","2025-01-12T23:45:00",9.199,33.630672,0.267],
    [43880,"urn:WaterMeter:MC0203J22010600005","2025-01-13T00:00:00",9.1,33.642345,0.271],
    [43881,"urn:WaterMeter:MC0203J22010600005","2025-01-13T00:15:00",9.1,33.631874,0.264],
    [43882,"urn:WaterMeter:MC0203J22010600005","2025-01-13T00:30:00",9,33.639206,0.256],
    [43883,"urn:WaterMeter:MC0203J22010600005","2025-01-13T00:45:00",9,33.656273,0.266],
    [43884,"urn:WaterMeter:MC0203J22010600005","2025-01-13T01:00:00",8.899,33.65282,0.261],
    [43885,"urn:WaterMeter:MC0203J22010600005","2025-01-13T01:15:00",8.899,33.69006,0.259],
    [43886,"urn:WaterMeter:MC0203J22010600005","2025-01-13T01:30:00",8.8,33.665234,0.266],
    [43887,"urn:WaterMeter:MC0203J22010600005","2025-01-13T01:45:00",8.8,33.622177,0.257],
    [43888,"urn:WaterMeter:MC0203J22010600005","2025-01-13T02:00:00",8.699,33.63265,0.251],
    [43889,"urn:WaterMeter:MC0203J22010600005","2025-01-13T02:15:00",8.699,33.64545,0.254],
    [43890,"urn:WaterMeter:MC0203J22010600005","2025-01-13T02:30:00",8.699,33.662518,0.261],
    [43891,"urn:WaterMeter:MC0203J22010600005","2025-01-13T02:45:00",8.699,33.64929,0.256],
    [43892,"urn:WaterMeter:MC0203J22010600005","2025-01-13T03:00:00",8.8,33.643124,0.258],
    [43893,"urn:WaterMeter:MC0203J22010600005","2025-01-13T03:15:00",8.8,33.63688,0.255],
    [43894,"urn:WaterMeter:MC0203J22010600005","2025-01-13T03:30:00",8.8,33.633038,0.257],
    [43895,"urn:WaterMeter:MC0203J22010600005","2025-01-13T03:45:00",8.8,33.650494,0.256],
    [43896,"urn:WaterMeter:MC0203J22010600005","2025-01-13T04:00:00",8.8,33.645836,0.272],
    [43897,"urn:WaterMeter:MC0203J22010600005","2025-01-13T04:15:00",8.8,33.635365,0.265],
    [43898,"urn:WaterMeter:MC0203J22010600005","2025-01-13T04:30:00",8.8,33.63614,0.259],
    [43899,"urn:WaterMeter:MC0203J22010600005","2025-01-13T04:45:00",8.8,33.590717,0.258],
    [43900,"urn:WaterMeter:MC0203J22010600005","2025-01-13T05:00:00",8.699,33.615192,0.253],
    [43901,"urn:WaterMeter:MC0203J22010600005","2025-01-13T05:15:00",8.8,33.647778,0.262],
    [43902,"urn:WaterMeter:MC0203J22010600005","2025-01-13T05:30:00",9,33.636528,0.264],
    [43903,"urn:WaterMeter:MC0203J22010600005","2025-01-13T05:45:00",9.1,33.707474,0.26],
    [43904,"urn:WaterMeter:MC0203J22010600005","2025-01-13T06:00:00",9.1,34.326603,0.265],
    [43905,"urn:WaterMeter:MC0203J22010600005","2025-01-13T06:15:00",9.1,35.351048,0.301],
    [43906,"urn:WaterMeter:MC0203J22010600005","2025-01-13T06:30:00",9.1,36.26106,0.287],
    [43907,"urn:WaterMeter:MC0203J22010600005","2025-01-13T06:45:00",9.1,36.951523,0.295],
    [43908,"urn:WaterMeter:MC0203J22010600005","2025-01-13T07:00:00",9,37.31382,0.304],
    [43909,"urn:WaterMeter:MC0203J22010600005","2025-01-13T07:15:00",9,37.58108,0.321],
    [43910,"urn:WaterMeter:MC0203J22010600005","2025-01-13T07:30:00",9,37.81844,0.304],
    [43911,"urn:WaterMeter:MC0203J22010600005","2025-01-13T07:45:00",9,37.972473,0.309],
    [43912,"urn:WaterMeter:MC0203J22010600005","2025-01-13T08:00:00",9,38.126083,0.313],
    [43913,"urn:WaterMeter:MC0203J22010600005","2025-01-13T08:15:00",8.899,37.94881,0.298],
    [43914,"urn:WaterMeter:MC0203J22010600005","2025-01-13T08:30:00",8.699,37.697063,0.304],
    [43915,"urn:WaterMeter:MC0203J22010600005","2025-01-13T08:45:00",8.6,37.4139,0.305],
    [43916,"urn:WaterMeter:MC0203J22010600005","2025-01-13T09:00:00",8.6,37.314945,0.303],
    [43917,"urn:WaterMeter:MC0203J22010600005","2025-01-13T09:15:00",8.8,37.24361,0.302],
    [43918,"urn:WaterMeter:MC0203J22010600005","2025-01-13T09:30:00",9,37.036083,0.297],
    [43919,"urn:WaterMeter:MC0203J22010600005","2025-01-13T09:45:00",9.199,36.917736,0.292],
    [43920,"urn:WaterMeter:MC0203J22010600005","2025-01-13T10:00:00",9.5,36.836315,0.287],
    [43921,"urn:WaterMeter:MC0203J22010600005","2025-01-13T10:15:00",9.699,36.68422,0.293],
    [43922,"urn:WaterMeter:MC0203J22010600005","2025-01-13T10:30:00",9.899,36.66176,0.305],
    [43923,"urn:WaterMeter:MC0203J22010600005","2025-01-13T10:45:00",10.1,36.613274,0.295],
    [43924,"urn:WaterMeter:MC0203J22010600005","2025-01-13T11:00:00",10.3,36.561684,0.284],
    [43925,"urn:WaterMeter:MC0203J22010600005","2025-01-13T11:15:00",10.5,36.51975,0.285],
    [43926,"urn:WaterMeter:MC0203J22010600005","2025-01-13T11:30:00",10.6,36.354893,0.29],
    [43927,"urn:WaterMeter:MC0203J22010600005","2025-01-13T11:45:00",10.699,36.333557,0.277],
    [43928,"urn:WaterMeter:MC0203J22010600005","2025-01-13T12:00:00",10.8,36.247444,0.281],
    [43929,"urn:WaterMeter:MC0203J22010600005","2025-01-13T12:15:00",10.899,36.270756,0.279],
    [43930,"urn:WaterMeter:MC0203J22010600005","2025-01-13T12:30:00",10.899,36.225372,0.296],
    [43931,"urn:WaterMeter:MC0203J22010600005","2025-01-13T12:45:00",11,36.115597,0.293],
    [43932,"urn:WaterMeter:MC0203J22010600005","2025-01-13T13:00:00",11.1,36.160553,0.293],
    [43933,"urn:WaterMeter:MC0203J22010600005","2025-01-13T13:15:00",11.1,36.144302,0.277],
    [43934,"urn:WaterMeter:MC0203J22010600005","2025-01-13T13:30:00",11.1,36.122154,0.274],
    [43935,"urn:WaterMeter:MC0203J22010600005","2025-01-13T13:45:00",11.199,35.939102,0.282],
    [43936,"urn:WaterMeter:MC0203J22010600005","2025-01-13T14:00:00",11.199,35.895657,0.283],
    [43937,"urn:WaterMeter:MC0203J22010600005","2025-01-13T14:15:00",11.199,35.903027,0.288],
    [43938,"urn:WaterMeter:MC0203J22010600005","2025-01-13T14:30:00",11.199,35.892166,0.292],
    [43939,"urn:WaterMeter:MC0203J22010600005","2025-01-13T14:45:00",11.199,35.85454,0.294],
    [43940,"urn:WaterMeter:MC0203J22010600005","2025-01-13T15:00:00",11.199,35.792824,0.284],
    [43941,"urn:WaterMeter:MC0203J22010600005","2025-01-13T15:15:00",11.1,35.77929,0.273],
    [43942,"urn:WaterMeter:MC0203J22010600005","2025-01-13T15:30:00",11.1,35.791275,0.285],
    [43943,"urn:WaterMeter:MC0203J22010600005","2025-01-13T15:45:00",11,35.740887,0.271],
    [43944,"urn:WaterMeter:MC0203J22010600005","2025-01-13T16:00:00",10.899,35.747868,0.279],
    [43945,"urn:WaterMeter:MC0203J22010600005","2025-01-13T16:15:00",10.899,35.706364,0.271],
    [43946,"urn:WaterMeter:MC0203J22010600005","2025-01-13T16:30:00",10.8,35.70093,0.275],
    [43947,"urn:WaterMeter:MC0203J22010600005","2025-01-13T16:45:00",10.699,35.667145,0.28],
    [43948,"urn:WaterMeter:MC0203J22010600005","2025-01-13T17:00:00",10.5,35.66796,0.28],
    [43949,"urn:WaterMeter:MC0203J22010600005","2025-01-13T17:15:00",10.399,35.661366,0.283],
    [43950,"urn:WaterMeter:MC0203J22010600005","2025-01-13T17:30:00",10.199,35.701706,0.287],
    [43951,"urn:WaterMeter:MC0203J22010600005","2025-01-13T17:45:00",10.1,35.676456,0.277],
    [43952,"urn:WaterMeter:MC0203J22010600005","2025-01-13T18:00:00",9.899,35.65322,0.292],
    [43953,"urn:WaterMeter:MC0203J22010600005","2025-01-13T18:15:00",9.8,35.64003,0.281],
    [43954,"urn:WaterMeter:MC0203J22010600005","2025-01-13T18:30:00",9.6,35.64973,0.27],
    [43955,"urn:WaterMeter:MC0203J22010600005","2025-01-13T18:45:00",9.5,35.629948,0.291],
    [43956,"urn:WaterMeter:MC0203J22010600005","2025-01-13T19:00:00",9.399,35.68076,0.287],
    [43957,"urn:WaterMeter:MC0203J22010600005","2025-01-13T19:15:00",9.199,35.679985,0.28],
    [43958,"urn:WaterMeter:MC0203J22010600005","2025-01-13T19:30:00",9.1,35.656284,0.293],
    [43959,"urn:WaterMeter:MC0203J22010600005","2025-01-13T19:45:00",9,35.652443,0.286],
    [43960,"urn:WaterMeter:MC0203J22010600005","2025-01-13T20:00:00",8.899,35.665596,0.28],
    [43961,"urn:WaterMeter:MC0203J22010600005","2025-01-13T20:15:00",8.8,35.687355,0.286],
    [43962,"urn:WaterMeter:MC0203J22010600005","2025-01-13T20:30:00",8.6,35.674515,0.287],
    [43963,"urn:WaterMeter:MC0203J22010600005","2025-01-13T20:45:00",8.5,35.67882,0.284],
    [43964,"urn:WaterMeter:MC0203J22010600005","2025-01-13T21:00:00",8.399,35.688908,0.282],
    [43965,"urn:WaterMeter:MC0203J22010600005","2025-01-13T21:15:00",8.3,35.678047,0.299],
    [43966,"urn:WaterMeter:MC0203J22010600005","2025-01-13T21:30:00",8.199,35.671062,0.27],
    [43967,"urn:WaterMeter:MC0203J22010600005","2025-01-13T21:45:00",8.1,35.693913,0.282],
    [43968,"urn:WaterMeter:MC0203J22010600005","2025-01-13T22:00:00",8,35.664856,0.277],
    [43969,"urn:WaterMeter:MC0203J22010600005","2025-01-13T22:15:00",7.9,35.687744,0.277],
    [43970,"urn:WaterMeter:MC0203J22010600005","2025-01-13T22:30:00",7.8,35.678047,0.281],
    [43971,"urn:WaterMeter:MC0203J22010600005","2025-01-13T22:45:00",7.699,35.67882,0.276],
    [43972,"urn:WaterMeter:MC0203J22010600005","2025-01-13T23:00:00",7.599,35.68115,0.284],
    [43973,"urn:WaterMeter:MC0203J22010600005","2025-01-13T23:15:00",7.599,35.69007,0.287],
    [43974,"urn:WaterMeter:MC0203J22010600005","2025-01-13T23:30:00",7.5,35.657875,0.276],
    [43975,"urn:WaterMeter:MC0203J22010600005","2025-01-13T23:45:00",7.4,35.683865,0.274],
    [43976,"urn:WaterMeter:MC0203J22010600005","2025-01-14T00:00:00",7.4,35.66253,0.257],
    [43977,"urn:WaterMeter:MC0203J22010600005","2025-01-14T00:15:00",7.3,35.676456,0.284],
    [43978,"urn:WaterMeter:MC0203J22010600005","2025-01-14T00:30:00",7.3,35.686153,0.277],
    [43979,"urn:WaterMeter:MC0203J22010600005","2025-01-14T00:45:00",7.199,35.650894,0.289],
    [43980,"urn:WaterMeter:MC0203J22010600005","2025-01-14T01:00:00",7.199,35.68499,0.275],
    [43981,"urn:WaterMeter:MC0203J22010600005","2025-01-14T01:15:00",7.199,35.6827,0.284],
    [43982,"urn:WaterMeter:MC0203J22010600005","2025-01-14T01:30:00",7.099,35.684254,0.279],
    [43983,"urn:WaterMeter:MC0203J22010600005","2025-01-14T01:45:00",7.099,35.707138,0.281],
    [43984,"urn:WaterMeter:MC0203J22010600005","2025-01-14T02:00:00",7,35.671062,0.279],
    [43985,"urn:WaterMeter:MC0203J22010600005","2025-01-14T02:15:00",7,35.64973,0.304],
    [43986,"urn:WaterMeter:MC0203J22010600005","2025-01-14T02:30:00",7,35.650116,0.299],
    [43987,"urn:WaterMeter:MC0203J22010600005","2025-01-14T02:45:00",6.9,35.628784,0.288],
    [43988,"urn:WaterMeter:MC0203J22010600005","2025-01-14T03:00:00",6.9,35.633823,0.273],
    [43989,"urn:WaterMeter:MC0203J22010600005","2025-01-14T03:15:00",6.9,35.617496,0.281],
    [43990,"urn:WaterMeter:MC0203J22010600005","2025-01-14T03:30:00",6.9,35.642746,0.275],
    [43991,"urn:WaterMeter:MC0203J22010600005","2025-01-14T03:45:00",6.9,35.65551,0.292],
    [43992,"urn:WaterMeter:MC0203J22010600005","2025-01-14T04:00:00",6.8,35.628357,0.28],
    [43993,"urn:WaterMeter:MC0203J22010600005","2025-01-14T04:15:00",6.8,35.64042,0.283],
    [43994,"urn:WaterMeter:MC0203J22010600005","2025-01-14T04:30:00",6.699,35.63111,0.272],
    [43995,"urn:WaterMeter:MC0203J22010600005","2025-01-14T04:45:00",6.699,35.64197,0.28],
    [43996,"urn:WaterMeter:MC0203J22010600005","2025-01-14T05:00:00",6.599,35.629948,0.27],
    [43997,"urn:WaterMeter:MC0203J22010600005","2025-01-14T05:15:00",6.699,35.660976,0.278],
    [43998,"urn:WaterMeter:MC0203J22010600005","2025-01-14T05:30:00",6.9,35.83825,0.284],
    [43999,"urn:WaterMeter:MC0203J22010600005","2025-01-14T05:45:00",7,36.568237,0.295],
    [44000,"urn:WaterMeter:MC0203J22010600005","2025-01-14T06:00:00",7,37.223827,0.293],
    [44001,"urn:WaterMeter:MC0203J22010600005","2025-01-14T06:15:00",7,37.628017,0.309],
    [44002,"urn:WaterMeter:MC0203J22010600005","2025-01-14T06:30:00",7,37.92011,0.313],
    [44003,"urn:WaterMeter:MC0203J22010600005","2025-01-14T06:45:00",7,38.107075,0.312],
    [44004,"urn:WaterMeter:MC0203J22010600005","2025-01-14T07:00:00",7,38.354168,0.31],
    [44005,"urn:WaterMeter:MC0203J22010600005","2025-01-14T07:15:00",7,38.74009,0.321],
    [44006,"urn:WaterMeter:MC0203J22010600005","2025-01-14T07:30:00",7,39.113678,0.324],
    [44007,"urn:WaterMeter:MC0203J22010600005","2025-01-14T07:45:00",7,39.470543,0.323],
    [44008,"urn:WaterMeter:MC0203J22010600005","2025-01-14T08:00:00",7,39.529892,0.315],
    [44009,"urn:WaterMeter:MC0203J22010600005","2025-01-14T08:15:00",7,39.474422,0.329],
    [44010,"urn:WaterMeter:MC0203J22010600005","2025-01-14T08:30:00",6.9,39.34758,0.327],
    [44011,"urn:WaterMeter:MC0203J22010600005","2025-01-14T08:45:00",6.9,38.796722,0.32],
    [44012,"urn:WaterMeter:MC0203J22010600005","2025-01-14T09:00:00",6.9,38.553936,0.306],
    [44013,"urn:WaterMeter:MC0203J22010600005","2025-01-14T09:15:00",7,38.135006,0.299],
    [44014,"urn:WaterMeter:MC0203J22010600005","2025-01-14T09:30:00",7.199,38.021698,0.294],
    [44015,"urn:WaterMeter:MC0203J22010600005","2025-01-14T09:45:00",7.4,37.737793,0.301],
    [44016,"urn:WaterMeter:MC0203J22010600005","2025-01-14T10:00:00",7.699,37.645863,0.294],
    [44017,"urn:WaterMeter:MC0203J22010600005","2025-01-14T10:15:00",7.9,37.52868,0.303],
    [44018,"urn:WaterMeter:MC0203J22010600005","2025-01-14T10:30:00",8.1,37.36929,0.291],
    [44019,"urn:WaterMeter:MC0203J22010600005","2025-01-14T10:45:00",8.3,37.259125,0.283],
    [44020,"urn:WaterMeter:MC0203J22010600005","2025-01-14T11:00:00",8.5,37.22689,0.282],
    [44021,"urn:WaterMeter:MC0203J22010600005","2025-01-14T11:15:00",8.6,37.0869,0.283],
    [44022,"urn:WaterMeter:MC0203J22010600005","2025-01-14T11:30:00",8.8,36.958504,0.276],
    [44023,"urn:WaterMeter:MC0203J22010600005","2025-01-14T11:45:00",8.899,36.916183,0.294],
    [44024,"urn:WaterMeter:MC0203J22010600005","2025-01-14T12:00:00",9,36.86153,0.289],
    [44025,"urn:WaterMeter:MC0203J22010600005","2025-01-14T12:15:00",9.1,36.819984,0.293],
    [44026,"urn:WaterMeter:MC0203J22010600005","2025-01-14T12:30:00",9.3,36.79865,0.28],
    [44027,"urn:WaterMeter:MC0203J22010600005","2025-01-14T12:45:00",9.399,36.679214,0.276],
    [44028,"urn:WaterMeter:MC0203J22010600005","2025-01-14T13:00:00",9.399,36.63383,0.287],
    [44029,"urn:WaterMeter:MC0203J22010600005","2025-01-14T13:15:00",9.5,36.57681,0.283],
    [44030,"urn:WaterMeter:MC0203J22010600005","2025-01-14T13:30:00",9.6,36.512417,0.286],
    [44031,"urn:WaterMeter:MC0203J22010600005","2025-01-14T13:45:00",9.699,36.517075,0.285],
    [44032,"urn:WaterMeter:MC0203J22010600005","2025-01-14T14:00:00",9.699,36.460052,0.29],
    [44033,"urn:WaterMeter:MC0203J22010600005","2025-01-14T14:15:00",9.699,36.441044,0.312],
    [44034,"urn:WaterMeter:MC0203J22010600005","2025-01-14T14:30:00",9.699,36.39566,0.291],
    [44035,"urn:WaterMeter:MC0203J22010600005","2025-01-14T14:45:00",9.8,36.3739,0.285],
    [44036,"urn:WaterMeter:MC0203J22010600005","2025-01-14T15:00:00",9.699,36.33127,0.276],
    [44037,"urn:WaterMeter:MC0203J22010600005","2025-01-14T15:15:00",9.6,36.284332,0.287],
    [44038,"urn:WaterMeter:MC0203J22010600005","2025-01-14T15:30:00",9.699,36.259506,0.286],
    [44039,"urn:WaterMeter:MC0203J22010600005","2025-01-14T15:45:00",9.699,36.20943,0.283],
    [44040,"urn:WaterMeter:MC0203J22010600005","2025-01-14T16:00:00",9.699,36.20171,0.274],
    [44041,"urn:WaterMeter:MC0203J22010600005","2025-01-14T16:15:00",9.699,36.20714,0.287],
    [44042,"urn:WaterMeter:MC0203J22010600005","2025-01-14T16:30:00",9.6,36.192013,0.287],
    [44043,"urn:WaterMeter:MC0203J22010600005","2025-01-14T16:45:00",9.5,36.17262,0.281],
    [44044,"urn:WaterMeter:MC0203J22010600005","2025-01-14T17:00:00",9.5,36.136543,0.293],
    [44045,"urn:WaterMeter:MC0203J22010600005","2025-01-14T17:15:00",9.399,36.14155,0.282],
    [44046,"urn:WaterMeter:MC0203J22010600005","2025-01-14T17:30:00",9.199,36.126846,0.273],
    [44047,"urn:WaterMeter:MC0203J22010600005","2025-01-14T17:45:00",9.1,36.122154,0.298],
    [44048,"urn:WaterMeter:MC0203J22010600005","2025-01-14T18:00:00",8.899,36.110554,0.283],
    [44049,"urn:WaterMeter:MC0203J22010600005","2025-01-14T18:15:00",8.699,36.09659,0.272],
    [44050,"urn:WaterMeter:MC0203J22010600005","2025-01-14T18:30:00",8.6,36.11637,0.283],
    [44051,"urn:WaterMeter:MC0203J22010600005","2025-01-14T18:45:00",8.399,36.073666,0.295],
    [44052,"urn:WaterMeter:MC0203J22010600005","2025-01-14T19:00:00",8.3,36.119087,0.287],
    [44053,"urn:WaterMeter:MC0203J22010600005","2025-01-14T19:15:00",8.1,36.139996,0.284],
    [44054,"urn:WaterMeter:MC0203J22010600005","2025-01-14T19:30:00",8,36.12452,0.282],
    [44055,"urn:WaterMeter:MC0203J22010600005","2025-01-14T19:45:00",7.8,36.095425,0.281],
    [44056,"urn:WaterMeter:MC0203J22010600005","2025-01-14T20:00:00",7.699,36.103146,0.286],
    [44057,"urn:WaterMeter:MC0203J22010600005","2025-01-14T20:15:00",7.599,36.074055,0.281],
    [44058,"urn:WaterMeter:MC0203J22010600005","2025-01-14T20:30:00",7.4,36.077972,0.279],
    [44059,"urn:WaterMeter:MC0203J22010600005","2025-01-14T20:45:00",7.3,36.09345,0.285],
    [44060,"urn:WaterMeter:MC0203J22010600005","2025-01-14T21:00:00",7.199,36.09504,0.285],
    [44061,"urn:WaterMeter:MC0203J22010600005","2025-01-14T21:15:00",7.099,36.10043,0.288],
    [44062,"urn:WaterMeter:MC0203J22010600005","2025-01-14T21:30:00",7,36.086506,0.274],
    [44063,"urn:WaterMeter:MC0203J22010600005","2025-01-14T21:45:00",6.9,36.122154,0.289],
    [44064,"urn:WaterMeter:MC0203J22010600005","2025-01-14T22:00:00",6.8,36.09345,0.269],
    [44065,"urn:WaterMeter:MC0203J22010600005","2025-01-14T22:15:00",6.699,36.077583,0.28],
    [44066,"urn:WaterMeter:MC0203J22010600005","2025-01-14T22:30:00",6.599,36.089607,0.296],
    [44067,"urn:WaterMeter:MC0203J22010600005","2025-01-14T22:45:00",6.5,36.10396,0.279],
    [44068,"urn:WaterMeter:MC0203J22010600005","2025-01-14T23:00:00",6.4,36.059353,0.283],
    [44069,"urn:WaterMeter:MC0203J22010600005","2025-01-14T23:15:00",6.3,36.03957,0.285],
    [44070,"urn:WaterMeter:MC0203J22010600005","2025-01-14T23:30:00",6.199,36.088055,0.279],
    [44071,"urn:WaterMeter:MC0203J22010600005","2025-01-14T23:45:00",6.099,36.062027,0.284],
    [44072,"urn:WaterMeter:MC0203J22010600005","2025-01-15T00:00:00",6.099,36.08728,0.306],
    [44073,"urn:WaterMeter:MC0203J22010600005","2025-01-15T00:15:00",6,36.055473,0.276],
    [44074,"urn:WaterMeter:MC0203J22010600005","2025-01-15T00:30:00",5.9,36.0578,0.293],
    [44075,"urn:WaterMeter:MC0203J22010600005","2025-01-15T00:45:00",5.8,36.089996,0.278],
    [44076,"urn:WaterMeter:MC0203J22010600005","2025-01-15T01:00:00",5.8,36.048878,0.275],
    [44077,"urn:WaterMeter:MC0203J22010600005","2025-01-15T01:15:00",5.699,36.07603,0.28],
    [44078,"urn:WaterMeter:MC0203J22010600005","2025-01-15T01:30:00",5.699,36.048103,0.269],
    [44079,"urn:WaterMeter:MC0203J22010600005","2025-01-15T01:45:00",5.599,36.059353,0.281],
    [44080,"urn:WaterMeter:MC0203J22010600005","2025-01-15T02:00:00",5.599,36.047714,0.283],
    [44081,"urn:WaterMeter:MC0203J22010600005","2025-01-15T02:15:00",5.5,36.04496,0.278],
    [44082,"urn:WaterMeter:MC0203J22010600005","2025-01-15T02:30:00",5.5,36.01358,0.282],
    [44083,"urn:WaterMeter:MC0203J22010600005","2025-01-15T02:45:00",5.5,36.021336,0.291],
    [44084,"urn:WaterMeter:MC0203J22010600005","2025-01-15T03:00:00",5.4,36.036465,0.285],
    [44085,"urn:WaterMeter:MC0203J22010600005","2025-01-15T03:15:00",5.4,36.024403,0.292],
    [44086,"urn:WaterMeter:MC0203J22010600005","2025-01-15T03:30:00",5.3,36.00423,0.288],
    [44087,"urn:WaterMeter:MC0203J22010600005","2025-01-15T03:45:00",5.3,35.99884,0.287],
    [44088,"urn:WaterMeter:MC0203J22010600005","2025-01-15T04:00:00",5.199,35.983322,0.287],
    [44089,"urn:WaterMeter:MC0203J22010600005","2025-01-15T04:15:00",5.099,35.99147,0.272],
    [44090,"urn:WaterMeter:MC0203J22010600005","2025-01-15T04:30:00",5.099,35.979057,0.294],
    [44091,"urn:WaterMeter:MC0203J22010600005","2025-01-15T04:45:00",5,35.98639,0.268],
    [44092,"urn:WaterMeter:MC0203J22010600005","2025-01-15T05:00:00",4.9,35.986774,0.271],
    [44093,"urn:WaterMeter:MC0203J22010600005","2025-01-15T05:15:00",5,36.049652,0.283],
    [44094,"urn:WaterMeter:MC0203J22010600005","2025-01-15T05:30:00",5.199,36.247093,0.274],
    [44095,"urn:WaterMeter:MC0203J22010600005","2025-01-15T05:45:00",5.3,36.94066,0.285],
    [44096,"urn:WaterMeter:MC0203J22010600005","2025-01-15T06:00:00",5.3,37.542294,0.283],
    [44097,"urn:WaterMeter:MC0203J22010600005","2025-01-15T06:15:00",5.3,37.936787,0.308],
    [44098,"urn:WaterMeter:MC0203J22010600005","2025-01-15T06:30:00",5.3,38.25952,0.302],
    [44099,"urn:WaterMeter:MC0203J22010600005","2025-01-15T06:45:00",5.3,38.45033,0.326],
    [44100,"urn:WaterMeter:MC0203J22010600005","2025-01-15T07:00:00",5.3,38.67108,0.317],
    [44101,"urn:WaterMeter:MC0203J22010600005","2025-01-15T07:15:00",5.199,38.80836,0.318],
    [44102,"urn:WaterMeter:MC0203J22010600005","2025-01-15T07:30:00",5.199,38.9449,0.327],
    [44103,"urn:WaterMeter:MC0203J22010600005","2025-01-15T07:45:00",5.199,39.028687,0.331],
    [44104,"urn:WaterMeter:MC0203J22010600005","2025-01-15T08:00:00",5.199,39.193584,0.329],
    [44105,"urn:WaterMeter:MC0203J22010600005","2025-01-15T08:15:00",5.099,39.132294,0.315],
    [44106,"urn:WaterMeter:MC0203J22010600005","2025-01-15T08:30:00",4.9,38.993816,0.325],
    [44107,"urn:WaterMeter:MC0203J22010600005","2025-01-15T08:45:00",4.8,38.62686,0.322],
    [44108,"urn:WaterMeter:MC0203J22010600005","2025-01-15T09:00:00",4.8,38.430546,0.301],
    [44109,"urn:WaterMeter:MC0203J22010600005","2025-01-15T09:15:00",5,38.16794,0.306],
    [44110,"urn:WaterMeter:MC0203J22010600005","2025-01-15T09:30:00",5.3,38.033337,0.313],
    [44111,"urn:WaterMeter:MC0203J22010600005","2025-01-15T09:45:00",5.5,37.874336,0.306],
    [44112,"urn:WaterMeter:MC0203J22010600005","2025-01-15T10:00:00",5.8,37.76301,0.3],
    [44113,"urn:WaterMeter:MC0203J22010600005","2025-01-15T10:15:00",6.099,37.656723,0.299],
    [44114,"urn:WaterMeter:MC0203J22010600005","2025-01-15T10:30:00",6.3,37.571774,0.286],
    [44115,"urn:WaterMeter:MC0203J22010600005","2025-01-15T10:45:00",6.5,37.506996,0.297],
    [44116,"urn:WaterMeter:MC0203J22010600005","2025-01-15T11:00:00",6.699,37.417778,0.286],
    [44117,"urn:WaterMeter:MC0203J22010600005","2025-01-15T11:15:00",6.9,37.338646,0.279],
    [44118,"urn:WaterMeter:MC0203J22010600005","2025-01-15T11:30:00",7.099,37.33473,0.293],
    [44119,"urn:WaterMeter:MC0203J22010600005","2025-01-15T11:45:00",7.3,37.277744,0.288],
    [44120,"urn:WaterMeter:MC0203J22010600005","2025-01-15T12:00:00",7.4,37.293648,0.266],
    [44121,"urn:WaterMeter:MC0203J22010600005","2025-01-15T12:15:00",7.599,37.13849,0.288],
    [44122,"urn:WaterMeter:MC0203J22010600005","2025-01-15T12:30:00",7.699,37.148537,0.278],
    [44123,"urn:WaterMeter:MC0203J22010600005","2025-01-15T12:45:00",7.9,37.083794,0.278],
    [44124,"urn:WaterMeter:MC0203J22010600005","2025-01-15T13:00:00",8,37.067505,0.285],
    [44125,"urn:WaterMeter:MC0203J22010600005","2025-01-15T13:15:00",8.1,37.00971,0.272],
    [44126,"urn:WaterMeter:MC0203J22010600005","2025-01-15T13:30:00",8.199,36.910793,0.279],
    [44127,"urn:WaterMeter:MC0203J22010600005","2025-01-15T13:45:00",8.3,36.843685,0.271],
    [44128,"urn:WaterMeter:MC0203J22010600005","2025-01-15T14:00:00",8.399,36.81106,0.282],
    [44129,"urn:WaterMeter:MC0203J22010600005","2025-01-15T14:15:00",8.399,36.78236,0.279],
    [44130,"urn:WaterMeter:MC0203J22010600005","2025-01-15T14:30:00",8.5,36.766495,0.282],
    [44131,"urn:WaterMeter:MC0203J22010600005","2025-01-15T14:45:00",8.5,36.750202,0.286],
    [44132,"urn:WaterMeter:MC0203J22010600005","2025-01-15T15:00:00",8.5,36.673397,0.294],
    [44133,"urn:WaterMeter:MC0203J22010600005","2025-01-15T15:15:00",8.6,36.664825,0.28],
    [44134,"urn:WaterMeter:MC0203J22010600005","2025-01-15T15:30:00",8.6,36.63228,0.286],
    [44135,"urn:WaterMeter:MC0203J22010600005","2025-01-15T15:45:00",8.6,36.628788,0.274],
    [44136,"urn:WaterMeter:MC0203J22010600005","2025-01-15T16:00:00",8.6,36.581467,0.274],
    [44137,"urn:WaterMeter:MC0203J22010600005","2025-01-15T16:15:00",8.699,36.563232,0.271],
    [44138,"urn:WaterMeter:MC0203J22010600005","2025-01-15T16:30:00",8.699,36.53608,0.271],
    [44139,"urn:WaterMeter:MC0203J22010600005","2025-01-15T16:45:00",8.699,36.477894,0.29],
    [44140,"urn:WaterMeter:MC0203J22010600005","2025-01-15T17:00:00",8.699,36.461563,0.282],
    [44141,"urn:WaterMeter:MC0203J22010600005","2025-01-15T17:15:00",8.6,36.435226,0.297],
    [44142,"urn:WaterMeter:MC0203J22010600005","2025-01-15T17:30:00",8.5,36.402603,0.283],
    [44143,"urn:WaterMeter:MC0203J22010600005","2025-01-15T17:45:00",8.399,36.384373,0.295],
    [44144,"urn:WaterMeter:MC0203J22010600005","2025-01-15T18:00:00",8.3,36.38092,0.293],
    [44145,"urn:WaterMeter:MC0203J22010600005","2025-01-15T18:15:00",8.199,36.3739,0.279],
    [44146,"urn:WaterMeter:MC0203J22010600005","2025-01-15T18:30:00",8.1,36.36075,0.304],
    [44147,"urn:WaterMeter:MC0203J22010600005","2025-01-15T18:45:00",8,36.372734,0.284],
    [44148,"urn:WaterMeter:MC0203J22010600005","2025-01-15T19:00:00",7.9,36.31688,0.283],
    [44149,"urn:WaterMeter:MC0203J22010600005","2025-01-15T19:15:00",7.8,36.356873,0.287],
    [44150,"urn:WaterMeter:MC0203J22010600005","2025-01-15T19:30:00",7.599,36.314163,0.283],
    [44151,"urn:WaterMeter:MC0203J22010600005","2025-01-15T19:45:00",7.5,36.270756,0.287],
    [44152,"urn:WaterMeter:MC0203J22010600005","2025-01-15T20:00:00",7.4,36.27615,0.278],
    [44153,"urn:WaterMeter:MC0203J22010600005","2025-01-15T20:15:00",7.199,36.27576,0.288],
    [44154,"urn:WaterMeter:MC0203J22010600005","2025-01-15T20:30:00",7.099,36.25559,0.272],
    [44155,"urn:WaterMeter:MC0203J22010600005","2025-01-15T20:45:00",6.9,36.272697,0.282],
    [44156,"urn:WaterMeter:MC0203J22010600005","2025-01-15T21:00:00",6.8,36.26455,0.287],
    [44157,"urn:WaterMeter:MC0203J22010600005","2025-01-15T21:15:00",6.699,36.276535,0.288],
    [44158,"urn:WaterMeter:MC0203J22010600005","2025-01-15T21:30:00",6.599,36.2502,0.281],
    [44159,"urn:WaterMeter:MC0203J22010600005","2025-01-15T21:45:00",6.4,36.268,0.278],
    [44160,"urn:WaterMeter:MC0203J22010600005","2025-01-15T22:00:00",6.3,36.259506,0.288],
    [44161,"urn:WaterMeter:MC0203J22010600005","2025-01-15T22:15:00",6.199,36.24089,0.283],
    [44162,"urn:WaterMeter:MC0203J22010600005","2025-01-15T22:30:00",6.099,36.291702,0.273],
    [44163,"urn:WaterMeter:MC0203J22010600005","2025-01-15T22:45:00",6,36.25559,0.281],
    [44164,"urn:WaterMeter:MC0203J22010600005","2025-01-15T23:00:00",5.9,36.23119,0.277],
    [44165,"urn:WaterMeter:MC0203J22010600005","2025-01-15T23:15:00",5.8,36.21102,0.285],
    [44166,"urn:WaterMeter:MC0203J22010600005","2025-01-15T23:30:00",5.699,36.2296,0.298],
    [44167,"urn:WaterMeter:MC0203J22010600005","2025-01-15T23:45:00",5.599,36.2149,0.274],
    [44168,"urn:WaterMeter:MC0203J22010600005","2025-01-16T00:00:00",5.5,36.2149,0.284],
    [44169,"urn:WaterMeter:MC0203J22010600005","2025-01-16T00:15:00",5.5,36.22805,0.288],
    [44170,"urn:WaterMeter:MC0203J22010600005","2025-01-16T00:30:00",5.4,36.2277,0.283],
    [44171,"urn:WaterMeter:MC0203J22010600005","2025-01-16T00:45:00",5.4,36.226147,0.281],
    [44172,"urn:WaterMeter:MC0203J22010600005","2025-01-16T01:00:00",5.3,36.230804,0.281],
    [44173,"urn:WaterMeter:MC0203J22010600005","2025-01-16T01:15:00",5.3,36.24244,0.288],
    [44174,"urn:WaterMeter:MC0203J22010600005","2025-01-16T01:30:00",5.199,36.180725,0.274],
    [44175,"urn:WaterMeter:MC0203J22010600005","2025-01-16T01:45:00",5.099,36.19473,0.287],
    [44176,"urn:WaterMeter:MC0203J22010600005","2025-01-16T02:00:00",5,36.213737,0.283],
    [44177,"urn:WaterMeter:MC0203J22010600005","2025-01-16T02:15:00",4.9,36.195892,0.289],
    [44178,"urn:WaterMeter:MC0203J22010600005","2025-01-16T02:30:00",4.8,36.189648,0.282],
    [44179,"urn:WaterMeter:MC0203J22010600005","2025-01-16T02:45:00",4.8,36.2021,0.275],
    [44180,"urn:WaterMeter:MC0203J22010600005","2025-01-16T03:00:00",4.699,36.15439,0.297],
    [44181,"urn:WaterMeter:MC0203J22010600005","2025-01-16T03:15:00",4.599,36.217575,0.294],
    [44182,"urn:WaterMeter:MC0203J22010600005","2025-01-16T03:30:00",4.5,36.19434,0.269],
    [44183,"urn:WaterMeter:MC0203J22010600005","2025-01-16T03:45:00",4.4,36.16292,0.279],
    [44184,"urn:WaterMeter:MC0203J22010600005","2025-01-16T04:00:00",4.4,36.19081,0.289],
    [44185,"urn:WaterMeter:MC0203J22010600005","2025-01-16T04:15:00",4.3,36.166412,0.283],
    [44186,"urn:WaterMeter:MC0203J22010600005","2025-01-16T04:30:00",4.199,36.190422,0.279],
    [44187,"urn:WaterMeter:MC0203J22010600005","2025-01-16T04:45:00",4.099,36.188522,0.268],
    [44188,"urn:WaterMeter:MC0203J22010600005","2025-01-16T05:00:00",4.099,36.17417,0.278],
    [44189,"urn:WaterMeter:MC0203J22010600005","2025-01-16T05:15:00",4.099,36.202488,0.28],
    [44190,"urn:WaterMeter:MC0203J22010600005","2025-01-16T05:30:00",4.3,36.283947,0.269],
    [44191,"urn:WaterMeter:MC0203J22010600005","2025-01-16T05:45:00",4.5,36.676113,0.284],
    [44192,"urn:WaterMeter:MC0203J22010600005","2025-01-16T06:00:00",4.5,37.255634,0.302],
    [44193,"urn:WaterMeter:MC0203J22010600005","2025-01-16T06:15:00",4.599,37.667973,0.304],
    [44194,"urn:WaterMeter:MC0203J22010600005","2025-01-16T06:30:00",4.599,37.983295,0.297],
    [44195,"urn:WaterMeter:MC0203J22010600005","2025-01-16T06:45:00",4.699,38.158627,0.308],
    [44196,"urn:WaterMeter:MC0203J22010600005","2025-01-16T07:00:00",4.8,38.29439,0.296],
    [44197,"urn:WaterMeter:MC0203J22010600005","2025-01-16T07:15:00",4.8,38.43679,0.331],
    [44198,"urn:WaterMeter:MC0203J22010600005","2025-01-16T07:30:00",4.9,38.524418,0.311],
    [44199,"urn:WaterMeter:MC0203J22010600005","2025-01-16T07:45:00",5,38.611732,0.295],
    [44200,"urn:WaterMeter:MC0203J22010600005","2025-01-16T08:00:00",5,38.766506,0.293],
    [44201,"urn:WaterMeter:MC0203J22010600005","2025-01-16T08:15:00",5,38.60126,0.31],
    [44202,"urn:WaterMeter:MC0203J22010600005","2025-01-16T08:30:00",4.9,38.479847,0.306],
    [44203,"urn:WaterMeter:MC0203J22010600005","2025-01-16T08:45:00",4.9,38.341366,0.301],
    [44204,"urn:WaterMeter:MC0203J22010600005","2025-01-16T09:00:00",5.099,38.14276,0.304],
    [44205,"urn:WaterMeter:MC0203J22010600005","2025-01-16T09:15:00",5.3,37.926277,0.285],
    [44206,"urn:WaterMeter:MC0203J22010600005","2025-01-16T09:30:00",5.599,37.85878,0.305],
    [44207,"urn:WaterMeter:MC0203J22010600005","2025-01-16T09:45:00",5.9,37.707928,0.292],
    [44208,"urn:WaterMeter:MC0203J22010600005","2025-01-16T10:00:00",6.199,37.593456,0.283],
    [44209,"urn:WaterMeter:MC0203J22010600005","2025-01-16T10:15:00",6.5,37.50738,0.279],
    [44210,"urn:WaterMeter:MC0203J22010600005","2025-01-16T10:30:00",6.699,37.423206,0.281],
    [44211,"urn:WaterMeter:MC0203J22010600005","2025-01-16T10:45:00",7,37.3689,0.285],
    [44212,"urn:WaterMeter:MC0203J22010600005","2025-01-16T11:00:00",7.199,37.32817,0.285],
    [44213,"urn:WaterMeter:MC0203J22010600005","2025-01-16T11:15:00",7.5,37.27348,0.281],
    [44214,"urn:WaterMeter:MC0203J22010600005","2025-01-16T11:30:00",7.699,37.209476,0.288],
    [44215,"urn:WaterMeter:MC0203J22010600005","2025-01-16T11:45:00",7.9,37.05156,0.281],
    [44216,"urn:WaterMeter:MC0203J22010600005","2025-01-16T12:00:00",8.1,37.038025,0.282],
    [44217,"urn:WaterMeter:MC0203J22010600005","2025-01-16T12:15:00",8.3,36.99221,0.283],
    [44218,"urn:WaterMeter:MC0203J22010600005","2025-01-16T12:30:00",8.399,36.906876,0.275],
    [44219,"urn:WaterMeter:MC0203J22010600005","2025-01-16T12:45:00",8.399,36.861916,0.283],
    [44220,"urn:WaterMeter:MC0203J22010600005","2025-01-16T13:00:00",8.5,36.83399,0.271],
    [44221,"urn:WaterMeter:MC0203J22010600005","2025-01-16T13:15:00",8.6,36.675297,0.281],
    [44222,"urn:WaterMeter:MC0203J22010600005","2025-01-16T13:30:00",8.699,36.648182,0.291],
    [44223,"urn:WaterMeter:MC0203J22010600005","2025-01-16T13:45:00",8.699,36.65439,0.285],
    [44224,"urn:WaterMeter:MC0203J22010600005","2025-01-16T14:00:00",8.699,36.605865,0.277],
    [44225,"urn:WaterMeter:MC0203J22010600005","2025-01-16T14:15:00",8.699,36.595818,0.287],
    [44226,"urn:WaterMeter:MC0203J22010600005","2025-01-16T14:30:00",8.699,36.542675,0.276],
    [44227,"urn:WaterMeter:MC0203J22010600005","2025-01-16T14:45:00",8.699,36.51044,0.267],
    [44228,"urn:WaterMeter:MC0203J22010600005","2025-01-16T15:00:00",8.699,36.48488,0.284],
    [44229,"urn:WaterMeter:MC0203J22010600005","2025-01-16T15:15:00",8.699,36.489494,0.272],
    [44230,"urn:WaterMeter:MC0203J22010600005","2025-01-16T15:30:00",8.699,36.452255,0.313],
    [44231,"urn:WaterMeter:MC0203J22010600005","2025-01-16T15:45:00",8.699,36.41001,0.27],
    [44232,"urn:WaterMeter:MC0203J22010600005","2025-01-16T16:00:00",8.699,36.415443,0.272],
    [44233,"urn:WaterMeter:MC0203J22010600005","2025-01-16T16:15:00",8.699,36.393295,0.281],
    [44234,"urn:WaterMeter:MC0203J22010600005","2025-01-16T16:30:00",8.6,36.36191,0.282],
    [44235,"urn:WaterMeter:MC0203J22010600005","2025-01-16T16:45:00",8.6,36.328552,0.282],
    [44236,"urn:WaterMeter:MC0203J22010600005","2025-01-16T17:00:00",8.5,36.348724,0.283],
    [44237,"urn:WaterMeter:MC0203J22010600005","2025-01-16T17:15:00",8.5,36.330105,0.273],
    [44238,"urn:WaterMeter:MC0203J22010600005","2025-01-16T17:30:00",8.399,36.352177,0.273],
    [44239,"urn:WaterMeter:MC0203J22010600005","2025-01-16T17:45:00",8.3,36.283947,0.276],
    [44240,"urn:WaterMeter:MC0203J22010600005","2025-01-16T18:00:00",8.199,36.298298,0.271],
    [44241,"urn:WaterMeter:MC0203J22010600005","2025-01-16T18:15:00",8.1,36.285496,0.28],
    [44242,"urn:WaterMeter:MC0203J22010600005","2025-01-16T18:30:00",8.1,36.28317,0.276],
    [44243,"urn:WaterMeter:MC0203J22010600005","2025-01-16T18:45:00",8,36.2777,0.284],
    [44244,"urn:WaterMeter:MC0203J22010600005","2025-01-16T19:00:00",8,36.283558,0.272],
    [44245,"urn:WaterMeter:MC0203J22010600005","2025-01-16T19:15:00",8,36.218353,0.285],
    [44246,"urn:WaterMeter:MC0203J22010600005","2025-01-16T19:30:00",8,36.20943,0.298],
    [44247,"urn:WaterMeter:MC0203J22010600005","2025-01-16T19:45:00",8,36.21719,0.281],
    [44248,"urn:WaterMeter:MC0203J22010600005","2025-01-16T20:00:00",8,36.223045,0.28],
    [44249,"urn:WaterMeter:MC0203J22010600005","2025-01-16T20:15:00",8,36.170254,0.268],
    [44250,"urn:WaterMeter:MC0203J22010600005","2025-01-16T20:30:00",8,36.190037,0.281],
    [44251,"urn:WaterMeter:MC0203J22010600005","2025-01-16T20:45:00",8,36.173008,0.272],
    [44252,"urn:WaterMeter:MC0203J22010600005","2025-01-16T21:00:00",8,36.1668,0.266],
    [44253,"urn:WaterMeter:MC0203J22010600005","2025-01-16T21:15:00",8,36.179173,0.291],
    [44254,"urn:WaterMeter:MC0203J22010600005","2025-01-16T21:30:00",7.9,36.139996,0.277],
    [44255,"urn:WaterMeter:MC0203J22010600005","2025-01-16T21:45:00",7.9,36.144302,0.277],
    [44256,"urn:WaterMeter:MC0203J22010600005","2025-01-16T22:00:00",7.9,36.097366,0.28],
    [44257,"urn:WaterMeter:MC0203J22010600005","2025-01-16T22:15:00",7.9,36.133053,0.269],
    [44258,"urn:WaterMeter:MC0203J22010600005","2025-01-16T22:30:00",7.9,36.115208,0.28],
    [44259,"urn:WaterMeter:MC0203J22010600005","2025-01-16T22:45:00",7.9,36.085728,0.283],
    [44260,"urn:WaterMeter:MC0203J22010600005","2025-01-16T23:00:00",7.8,36.12413,0.279],
    [44261,"urn:WaterMeter:MC0203J22010600005","2025-01-16T23:15:00",7.8,36.060516,0.276],
    [44262,"urn:WaterMeter:MC0203J22010600005","2025-01-16T23:30:00",7.8,36.078747,0.286],
    [44263,"urn:WaterMeter:MC0203J22010600005","2025-01-16T23:45:00",7.699,36.051594,0.273],
    [44264,"urn:WaterMeter:MC0203J22010600005","2025-01-17T00:00:00",7.699,36.058964,0.277],
    [44265,"urn:WaterMeter:MC0203J22010600005","2025-01-17T00:15:00",7.699,36.04496,0.277],
    [44266,"urn:WaterMeter:MC0203J22010600005","2025-01-17T00:30:00",7.599,36.03375,0.277],
    [44267,"urn:WaterMeter:MC0203J22010600005","2025-01-17T00:45:00",7.599,36.02285,0.264],
    [44268,"urn:WaterMeter:MC0203J22010600005","2025-01-17T01:00:00",7.5,36.01509,0.277],
    [44269,"urn:WaterMeter:MC0203J22010600005","2025-01-17T01:15:00",7.5,35.989143,0.276],
    [44270,"urn:WaterMeter:MC0203J22010600005","2025-01-17T01:30:00",7.4,36.02638,0.271],
    [44271,"urn:WaterMeter:MC0203J22010600005","2025-01-17T01:45:00",7.3,36.005394,0.246],
    [44272,"urn:WaterMeter:MC0203J22010600005","2025-01-17T02:00:00",7.3,36.012802,0.286],
    [44273,"urn:WaterMeter:MC0203J22010600005","2025-01-17T02:15:00",7.3,35.986,0.276],
    [44274,"urn:WaterMeter:MC0203J22010600005","2025-01-17T02:30:00",7.3,35.976303,0.284],
    [44275,"urn:WaterMeter:MC0203J22010600005","2025-01-17T02:45:00",7.3,35.96199,0.273],
    [44276,"urn:WaterMeter:MC0203J22010600005","2025-01-17T03:00:00",7.199,35.9616,0.275],
    [44277,"urn:WaterMeter:MC0203J22010600005","2025-01-17T03:15:00",7.199,35.99108,0.272],
    [44278,"urn:WaterMeter:MC0203J22010600005","2025-01-17T03:30:00",7.099,35.992634,0.269],
    [44279,"urn:WaterMeter:MC0203J22010600005","2025-01-17T03:45:00",7.099,35.965828,0.278],
    [44280,"urn:WaterMeter:MC0203J22010600005","2025-01-17T04:00:00",7.099,35.9616,0.275],
    [44281,"urn:WaterMeter:MC0203J22010600005","2025-01-17T04:15:00",7.099,35.94298,0.276],
    [44282,"urn:WaterMeter:MC0203J22010600005","2025-01-17T04:30:00",7,35.940655,0.271],
    [44283,"urn:WaterMeter:MC0203J22010600005","2025-01-17T04:45:00",7,35.95229,0.272],
    [44284,"urn:WaterMeter:MC0203J22010600005","2025-01-17T05:00:00",7,35.920094,0.27],
    [44285,"urn:WaterMeter:MC0203J22010600005","2025-01-17T05:15:00",7.099,35.980995,0.284],
    [44286,"urn:WaterMeter:MC0203J22010600005","2025-01-17T05:30:00",7.199,36.302567,0.282],
    [44287,"urn:WaterMeter:MC0203J22010600005","2025-01-17T05:45:00",7.3,37.100475,0.288],
    [44288,"urn:WaterMeter:MC0203J22010600005","2025-01-17T06:00:00",7.4,37.688145,0.296],
    [44289,"urn:WaterMeter:MC0203J22010600005","2025-01-17T06:15:00",7.4,38.091946,0.292],
    [44290,"urn:WaterMeter:MC0203J22010600005","2025-01-17T06:30:00",7.4,38.328953,0.297],
    [44291,"urn:WaterMeter:MC0203J22010600005","2025-01-17T06:45:00",7.4,38.663284,0.302],
    [44292,"urn:WaterMeter:MC0203J22010600005","2025-01-17T07:00:00",7.5,38.92473,0.3],
    [44293,"urn:WaterMeter:MC0203J22010600005","2025-01-17T07:15:00",7.5,39.23466,0.306],
    [44294,"urn:WaterMeter:MC0203J22010600005","2025-01-17T07:30:00",7.5,39.342926,0.313],
    [44295,"urn:WaterMeter:MC0203J22010600005","2025-01-17T07:45:00",7.5,39.380512,0.311],
    [44296,"urn:WaterMeter:MC0203J22010600005","2025-01-17T08:00:00",7.599,39.40305,0.315],
    [44297,"urn:WaterMeter:MC0203J22010600005","2025-01-17T08:15:00",7.599,39.300606,0.315],
    [44298,"urn:WaterMeter:MC0203J22010600005","2025-01-17T08:30:00",7.5,39.112125,0.31],
    [44299,"urn:WaterMeter:MC0203J22010600005","2025-01-17T08:45:00",7.5,38.646645,0.294],
    [44300,"urn:WaterMeter:MC0203J22010600005","2025-01-17T09:00:00",7.5,38.417397,0.314],
    [44301,"urn:WaterMeter:MC0203J22010600005","2025-01-17T09:15:00",7.699,38.195477,0.301],
    [44302,"urn:WaterMeter:MC0203J22010600005","2025-01-17T09:30:00",7.8,37.872784,0.293],
    [44303,"urn:WaterMeter:MC0203J22010600005","2025-01-17T09:45:00",8.1,37.731937,0.288],
    [44304,"urn:WaterMeter:MC0203J22010600005","2025-01-17T10:00:00",8.3,37.566303,0.286],
    [44305,"urn:WaterMeter:MC0203J22010600005","2025-01-17T10:15:00",8.6,37.473637,0.281],
    [44306,"urn:WaterMeter:MC0203J22010600005","2025-01-17T10:30:00",8.8,37.393726,0.27],
    [44307,"urn:WaterMeter:MC0203J22010600005","2025-01-17T10:45:00",8.899,37.31417,0.291],
    [44308,"urn:WaterMeter:MC0203J22010600005","2025-01-17T11:00:00",9.1,37.285076,0.273],
    [44309,"urn:WaterMeter:MC0203J22010600005","2025-01-17T11:15:00",9.1,37.218746,0.269],
    [44310,"urn:WaterMeter:MC0203J22010600005","2025-01-17T11:30:00",9.199,37.1497,0.266],
    [44311,"urn:WaterMeter:MC0203J22010600005","2025-01-17T11:45:00",9.3,37.132282,0.292],
    [44312,"urn:WaterMeter:MC0203J22010600005","2025-01-17T12:00:00",9.3,37.045006,0.278],
    [44313,"urn:WaterMeter:MC0203J22010600005","2025-01-17T12:15:00",9.399,36.869637,0.28],
    [44314,"urn:WaterMeter:MC0203J22010600005","2025-01-17T12:30:00",9.399,36.775414,0.273],
    [44315,"urn:WaterMeter:MC0203J22010600005","2025-01-17T12:45:00",9.399,36.79287,0.268],
    [44316,"urn:WaterMeter:MC0203J22010600005","2025-01-17T13:00:00",9.399,36.740852,0.274],
    [44317,"urn:WaterMeter:MC0203J22010600005","2025-01-17T13:15:00",9.399,36.709858,0.279],
    [44318,"urn:WaterMeter:MC0203J22010600005","2025-01-17T13:30:00",9.3,36.671844,0.299],
    [44319,"urn:WaterMeter:MC0203J22010600005","2025-01-17T13:45:00",9.3,36.657494,0.289],
    [44320,"urn:WaterMeter:MC0203J22010600005","2025-01-17T14:00:00",9.3,36.636894,0.276],
    [44321,"urn:WaterMeter:MC0203J22010600005","2025-01-17T14:15:00",9.3,36.604702,0.281],
    [44322,"urn:WaterMeter:MC0203J22010600005","2025-01-17T14:30:00",9.3,36.57681,0.277],
    [44323,"urn:WaterMeter:MC0203J22010600005","2025-01-17T14:45:00",9.3,36.520954,0.276],
    [44324,"urn:WaterMeter:MC0203J22010600005","2025-01-17T15:00:00",9.199,36.540348,0.293],
    [44325,"urn:WaterMeter:MC0203J22010600005","2025-01-17T15:15:00",9.199,36.49729,0.273],
    [44326,"urn:WaterMeter:MC0203J22010600005","2025-01-17T15:30:00",9.199,36.48794,0.292],
    [44327,"urn:WaterMeter:MC0203J22010600005","2025-01-17T15:45:00",9.199,36.44764,0.272],
    [44328,"urn:WaterMeter:MC0203J22010600005","2025-01-17T16:00:00",9.1,36.446865,0.287],
    [44329,"urn:WaterMeter:MC0203J22010600005","2025-01-17T16:15:00",9.1,36.396435,0.274],
    [44330,"urn:WaterMeter:MC0203J22010600005","2025-01-17T16:30:00",9,36.394886,0.273],
    [44331,"urn:WaterMeter:MC0203J22010600005","2025-01-17T16:45:00",9,36.33709,0.282],
    [44332,"urn:WaterMeter:MC0203J22010600005","2025-01-17T17:00:00",9,36.34717,0.283],
    [44333,"urn:WaterMeter:MC0203J22010600005","2025-01-17T17:15:00",9,36.327003,0.269],
    [44334,"urn:WaterMeter:MC0203J22010600005","2025-01-17T17:30:00",8.899,36.3258,0.28],
    [44335,"urn:WaterMeter:MC0203J22010600005","2025-01-17T17:45:00",8.899,36.320408,0.283],
    [44336,"urn:WaterMeter:MC0203J22010600005","2025-01-17T18:00:00",8.899,36.302567,0.293],
    [44337,"urn:WaterMeter:MC0203J22010600005","2025-01-17T18:15:00",8.899,36.27192,0.283],
    [44338,"urn:WaterMeter:MC0203J22010600005","2025-01-17T18:30:00",8.8,36.252136,0.262],
    [44339,"urn:WaterMeter:MC0203J22010600005","2025-01-17T18:45:00",8.8,36.268818,0.265],
    [44340,"urn:WaterMeter:MC0203J22010600005","2025-01-17T19:00:00",8.8,36.25912,0.269],
    [44341,"urn:WaterMeter:MC0203J22010600005","2025-01-17T19:15:00",8.8,36.248608,0.268],
    [44342,"urn:WaterMeter:MC0203J22010600005","2025-01-17T19:30:00",8.8,36.261448,0.281],
    [44343,"urn:WaterMeter:MC0203J22010600005","2025-01-17T19:45:00",8.699,36.258305,0.269],
    [44344,"urn:WaterMeter:MC0203J22010600005","2025-01-17T20:00:00",8.699,36.19434,0.281],
    [44345,"urn:WaterMeter:MC0203J22010600005","2025-01-17T20:15:00",8.8,36.21451,0.272],
    [44346,"urn:WaterMeter:MC0203J22010600005","2025-01-17T20:30:00",8.699,36.190037,0.277],
    [44347,"urn:WaterMeter:MC0203J22010600005","2025-01-17T20:45:00",8.699,36.159004,0.27],
    [44348,"urn:WaterMeter:MC0203J22010600005","2025-01-17T21:00:00",8.699,36.16525,0.277],
    [44349,"urn:WaterMeter:MC0203J22010600005","2025-01-17T21:15:00",8.699,36.15978,0.268],
    [44350,"urn:WaterMeter:MC0203J22010600005","2025-01-17T21:30:00",8.699,36.14275,0.285],
    [44351,"urn:WaterMeter:MC0203J22010600005","2025-01-17T21:45:00",8.699,36.109,0.269],
    [44352,"urn:WaterMeter:MC0203J22010600005","2025-01-17T22:00:00",8.699,36.115208,0.269],
    [44353,"urn:WaterMeter:MC0203J22010600005","2025-01-17T22:15:00",8.699,36.120987,0.266],
    [44354,"urn:WaterMeter:MC0203J22010600005","2025-01-17T22:30:00",8.699,36.051594,0.27],
    [44355,"urn:WaterMeter:MC0203J22010600005","2025-01-17T22:45:00",8.699,36.09853,0.275],
    [44356,"urn:WaterMeter:MC0203J22010600005","2025-01-17T23:00:00",8.699,36.11168,0.274],
    [44357,"urn:WaterMeter:MC0203J22010600005","2025-01-17T23:15:00",8.699,36.019787,0.282],
    [44358,"urn:WaterMeter:MC0203J22010600005","2025-01-17T23:30:00",8.699,36.012802,0.277],
    [44359,"urn:WaterMeter:MC0203J22010600005","2025-01-17T23:45:00",8.699,36.01009,0.274],
    [44360,"urn:WaterMeter:MC0203J22010600005","2025-01-18T00:00:00",8.6,35.984837,0.269],
    [44361,"urn:WaterMeter:MC0203J22010600005","2025-01-18T00:15:00",8.6,36.019787,0.273],
    [44362,"urn:WaterMeter:MC0203J22010600005","2025-01-18T00:30:00",8.6,36.001553,0.278],
    [44363,"urn:WaterMeter:MC0203J22010600005","2025-01-18T00:45:00",8.6,35.99341,0.272],
    [44364,"urn:WaterMeter:MC0203J22010600005","2025-01-18T01:00:00",8.6,35.970524,0.275],
    [44365,"urn:WaterMeter:MC0203J22010600005","2025-01-18T01:15:00",8.6,35.963154,0.273],
    [44366,"urn:WaterMeter:MC0203J22010600005","2025-01-18T01:30:00",8.6,35.9713,0.271],
    [44367,"urn:WaterMeter:MC0203J22010600005","2025-01-18T01:45:00",8.6,35.92126,0.276],
    [44368,"urn:WaterMeter:MC0203J22010600005","2025-01-18T02:00:00",8.6,35.94298,0.272],
    [44369,"urn:WaterMeter:MC0203J22010600005","2025-01-18T02:15:00",8.6,35.927814,0.273],
    [44370,"urn:WaterMeter:MC0203J22010600005","2025-01-18T02:30:00",8.5,35.914665,0.263],
    [44371,"urn:WaterMeter:MC0203J22010600005","2025-01-18T02:45:00",8.5,35.894108,0.278],
    [44372,"urn:WaterMeter:MC0203J22010600005","2025-01-18T03:00:00",8.5,35.905743,0.275],
    [44373,"urn:WaterMeter:MC0203J22010600005","2025-01-18T03:15:00",8.5,35.88557,0.278],
    [44374,"urn:WaterMeter:MC0203J22010600005","2025-01-18T03:30:00",8.399,35.843678,0.266],
    [44375,"urn:WaterMeter:MC0203J22010600005","2025-01-18T03:45:00",8.3,35.86032,0.266],
    [44376,"urn:WaterMeter:MC0203J22010600005","2025-01-18T04:00:00",8.3,35.855316,0.27],
    [44377,"urn:WaterMeter:MC0203J22010600005","2025-01-18T04:15:00",8.199,35.881306,0.277],
    [44378,"urn:WaterMeter:MC0203J22010600005","2025-01-18T04:30:00",8.199,35.85101,0.275],
    [44379,"urn:WaterMeter:MC0203J22010600005","2025-01-18T04:45:00",8.1,35.83786,0.294],
    [44380,"urn:WaterMeter:MC0203J22010600005","2025-01-18T05:00:00",8.1,35.811443,0.276],
    [44381,"urn:WaterMeter:MC0203J22010600005","2025-01-18T05:15:00",8.1,35.81963,0.279],
    [44382,"urn:WaterMeter:MC0203J22010600005","2025-01-18T05:30:00",8,35.826225,0.276],
    [44383,"urn:WaterMeter:MC0203J22010600005","2025-01-18T05:45:00",8,35.828163,0.277],
    [44384,"urn:WaterMeter:MC0203J22010600005","2025-01-18T06:00:00",8,35.798294,0.288],
    [44385,"urn:WaterMeter:MC0203J22010600005","2025-01-18T06:15:00",7.9,35.807217,0.281],
    [44386,"urn:WaterMeter:MC0203J22010600005","2025-01-18T06:30:00",7.9,35.79791,0.278],
    [44387,"urn:WaterMeter:MC0203J22010600005","2025-01-18T06:45:00",7.9,35.798294,0.273],
    [44388,"urn:WaterMeter:MC0203J22010600005","2025-01-18T07:00:00",7.8,35.778126,0.268],
    [44389,"urn:WaterMeter:MC0203J22010600005","2025-01-18T07:15:00",7.8,35.79205,0.276],
    [44390,"urn:WaterMeter:MC0203J22010600005","2025-01-18T07:30:00",7.8,35.824673,0.267],
    [44391,"urn:WaterMeter:MC0203J22010600005","2025-01-18T07:45:00",7.699,35.78588,0.298],
    [44392,"urn:WaterMeter:MC0203J22010600005","2025-01-18T08:00:00",7.699,35.783943,0.282],
    [44393,"urn:WaterMeter:MC0203J22010600005","2025-01-18T08:15:00",7.699,35.776184,0.273],
    [44394,"urn:WaterMeter:MC0203J22010600005","2025-01-18T08:30:00",7.8,35.759117,0.282],
    [44395,"urn:WaterMeter:MC0203J22010600005","2025-01-18T08:45:00",7.8,35.755627,0.264],
    [44396,"urn:WaterMeter:MC0203J22010600005","2025-01-18T09:00:00",7.9,35.73231,0.278],
    [44397,"urn:WaterMeter:MC0203J22010600005","2025-01-18T09:15:00",8,35.716835,0.268],
    [44398,"urn:WaterMeter:MC0203J22010600005","2025-01-18T09:30:00",8.199,35.70516,0.266],
    [44399,"urn:WaterMeter:MC0203J22010600005","2025-01-18T09:45:00",8.399,35.694687,0.262],
    [44400,"urn:WaterMeter:MC0203J22010600005","2025-01-18T10:00:00",8.5,35.638054,0.269],
    [44401,"urn:WaterMeter:MC0203J22010600005","2025-01-18T10:15:00",8.699,35.661366,0.277],
    [44402,"urn:WaterMeter:MC0203J22010600005","2025-01-18T10:30:00",8.899,35.628784,0.246],
    [44403,"urn:WaterMeter:MC0203J22010600005","2025-01-18T10:45:00",9.1,35.614044,0.256],
    [44404,"urn:WaterMeter:MC0203J22010600005","2025-01-18T11:00:00",9.199,35.549225,0.254],
    [44405,"urn:WaterMeter:MC0203J22010600005","2025-01-18T11:15:00",9.399,35.56323,0.263],
    [44406,"urn:WaterMeter:MC0203J22010600005","2025-01-18T11:30:00",9.6,35.50349,0.256],
    [44407,"urn:WaterMeter:MC0203J22010600005","2025-01-18T11:45:00",9.699,35.41117,0.25],
    [44408,"urn:WaterMeter:MC0203J22010600005","2025-01-18T12:00:00",9.699,35.44026,0.269],
    [44409,"urn:WaterMeter:MC0203J22010600005","2025-01-18T12:15:00",9.8,35.44453,0.268],
    [44410,"urn:WaterMeter:MC0203J22010600005","2025-01-18T12:30:00",10,35.453026,0.261],
    [44411,"urn:WaterMeter:MC0203J22010600005","2025-01-18T12:45:00",10.1,35.35764,0.254],
    [44412,"urn:WaterMeter:MC0203J22010600005","2025-01-18T13:00:00",10.3,35.36497,0.263],
    [44413,"urn:WaterMeter:MC0203J22010600005","2025-01-18T13:15:00",10.399,35.326183,0.254],
    [44414,"urn:WaterMeter:MC0203J22010600005","2025-01-18T13:30:00",10.5,35.32502,0.264],
    [44415,"urn:WaterMeter:MC0203J22010600005","2025-01-18T13:45:00",10.5,35.249767,0.264],
    [44416,"urn:WaterMeter:MC0203J22010600005","2025-01-18T14:00:00",10.6,35.260666,0.258],
    [44417,"urn:WaterMeter:MC0203J22010600005","2025-01-18T14:15:00",10.5,35.271915,0.261],
    [44418,"urn:WaterMeter:MC0203J22010600005","2025-01-18T14:30:00",10.5,35.26222,0.261],
    [44419,"urn:WaterMeter:MC0203J22010600005","2025-01-18T14:45:00",10.6,35.18347,0.271],
    [44420,"urn:WaterMeter:MC0203J22010600005","2025-01-18T15:00:00",10.6,35.14158,0.271],
    [44421,"urn:WaterMeter:MC0203J22010600005","2025-01-18T15:15:00",10.6,35.15787,0.264],
    [44422,"urn:WaterMeter:MC0203J22010600005","2025-01-18T15:30:00",10.6,35.148563,0.268],
    [44423,"urn:WaterMeter:MC0203J22010600005","2025-01-18T15:45:00",10.699,35.103138,0.267],
    [44424,"urn:WaterMeter:MC0203J22010600005","2025-01-18T16:00:00",10.6,35.142704,0.27],
    [44425,"urn:WaterMeter:MC0203J22010600005","2025-01-18T16:15:00",10.6,35.125675,0.267],
    [44426,"urn:WaterMeter:MC0203J22010600005","2025-01-18T16:30:00",10.6,35.140415,0.267],
    [44427,"urn:WaterMeter:MC0203J22010600005","2025-01-18T16:45:00",10.5,35.10279,0.268],
    [44428,"urn:WaterMeter:MC0203J22010600005","2025-01-18T17:00:00",10.399,35.10469,0.264],
    [44429,"urn:WaterMeter:MC0203J22010600005","2025-01-18T17:15:00",10.3,35.11792,0.271],
    [44430,"urn:WaterMeter:MC0203J22010600005","2025-01-18T17:30:00",10.1,35.093052,0.273],
    [44431,"urn:WaterMeter:MC0203J22010600005","2025-01-18T17:45:00",10,35.089214,0.265],
    [44432,"urn:WaterMeter:MC0203J22010600005","2025-01-18T18:00:00",9.8,35.103916,0.273],
    [44433,"urn:WaterMeter:MC0203J22010600005","2025-01-18T18:15:00",9.6,35.107445,0.281],
    [44434,"urn:WaterMeter:MC0203J22010600005","2025-01-18T18:30:00",9.5,35.0865,0.271],
    [44435,"urn:WaterMeter:MC0203J22010600005","2025-01-18T18:45:00",9.3,35.118305,0.277],
    [44436,"urn:WaterMeter:MC0203J22010600005","2025-01-18T19:00:00",9.199,35.126453,0.268],
    [44437,"urn:WaterMeter:MC0203J22010600005","2025-01-18T19:15:00",9,35.11714,0.275],
    [44438,"urn:WaterMeter:MC0203J22010600005","2025-01-18T19:30:00",8.899,35.103527,0.269],
    [44439,"urn:WaterMeter:MC0203J22010600005","2025-01-18T19:45:00",8.8,35.145847,0.276],
    [44440,"urn:WaterMeter:MC0203J22010600005","2025-01-18T20:00:00",8.6,35.113224,0.268],
    [44441,"urn:WaterMeter:MC0203J22010600005","2025-01-18T20:15:00",8.5,35.12331,0.266],
    [44442,"urn:WaterMeter:MC0203J22010600005","2025-01-18T20:30:00",8.399,35.16563,0.259],
    [44443,"urn:WaterMeter:MC0203J22010600005","2025-01-18T20:45:00",8.199,35.131844,0.267],
    [44444,"urn:WaterMeter:MC0203J22010600005","2025-01-18T21:00:00",8.1,35.146236,0.266],
    [44445,"urn:WaterMeter:MC0203J22010600005","2025-01-18T21:15:00",8,35.12451,0.272],
    [44446,"urn:WaterMeter:MC0203J22010600005","2025-01-18T21:30:00",7.9,35.135372,0.269],
    [44447,"urn:WaterMeter:MC0203J22010600005","2025-01-18T21:45:00",7.8,35.175327,0.276],
    [44448,"urn:WaterMeter:MC0203J22010600005","2025-01-18T22:00:00",7.699,35.14232,0.27],
    [44449,"urn:WaterMeter:MC0203J22010600005","2025-01-18T22:15:00",7.599,35.193558,0.266],
    [44450,"urn:WaterMeter:MC0203J22010600005","2025-01-18T22:30:00",7.5,35.13964,0.268],
    [44451,"urn:WaterMeter:MC0203J22010600005","2025-01-18T22:45:00",7.4,35.177265,0.262],
    [44452,"urn:WaterMeter:MC0203J22010600005","2025-01-18T23:00:00",7.3,35.174164,0.272],
    [44453,"urn:WaterMeter:MC0203J22010600005","2025-01-18T23:15:00",7.199,35.175327,0.269],
    [44454,"urn:WaterMeter:MC0203J22010600005","2025-01-18T23:30:00",7.099,35.15865,0.273],
    [44455,"urn:WaterMeter:MC0203J22010600005","2025-01-18T23:45:00",7.099,35.197437,0.281],
    [44456,"urn:WaterMeter:MC0203J22010600005","2025-01-19T00:00:00",7,35.155544,0.28],
    [44457,"urn:WaterMeter:MC0203J22010600005","2025-01-19T00:15:00",6.9,35.181496,0.266],
    [44458,"urn:WaterMeter:MC0203J22010600005","2025-01-19T00:30:00",6.8,35.2005,0.264],
    [44459,"urn:WaterMeter:MC0203J22010600005","2025-01-19T00:45:00",6.8,35.168346,0.274],
    [44460,"urn:WaterMeter:MC0203J22010600005","2025-01-19T01:00:00",6.699,35.195885,0.271],
    [44461,"urn:WaterMeter:MC0203J22010600005","2025-01-19T01:15:00",6.599,35.20597,0.242],
    [44462,"urn:WaterMeter:MC0203J22010600005","2025-01-19T01:30:00",6.599,35.179207,0.269],
    [44463,"urn:WaterMeter:MC0203J22010600005","2025-01-19T01:45:00",6.599,35.19158,0.268],
    [44464,"urn:WaterMeter:MC0203J22010600005","2025-01-19T02:00:00",6.599,35.191193,0.268],
    [44465,"urn:WaterMeter:MC0203J22010600005","2025-01-19T02:15:00",6.5,35.20675,0.266],
    [44466,"urn:WaterMeter:MC0203J22010600005","2025-01-19T02:30:00",6.5,35.19821,0.275],
    [44467,"urn:WaterMeter:MC0203J22010600005","2025-01-19T02:45:00",6.4,35.220673,0.266],
    [44468,"urn:WaterMeter:MC0203J22010600005","2025-01-19T03:00:00",6.4,35.179207,0.273],
    [44469,"urn:WaterMeter:MC0203J22010600005","2025-01-19T03:15:00",6.3,35.173775,0.263],
    [44470,"urn:WaterMeter:MC0203J22010600005","2025-01-19T03:30:00",6.199,35.192783,0.265],
    [44471,"urn:WaterMeter:MC0203J22010600005","2025-01-19T03:45:00",6.099,35.190804,0.252],
    [44472,"urn:WaterMeter:MC0203J22010600005","2025-01-19T04:00:00",6.099,35.164467,0.268],
    [44473,"urn:WaterMeter:MC0203J22010600005","2025-01-19T04:15:00",6.099,35.1955,0.256],
    [44474,"urn:WaterMeter:MC0203J22010600005","2025-01-19T04:30:00",6,35.212955,0.258],
    [44475,"urn:WaterMeter:MC0203J22010600005","2025-01-19T04:45:00",6,35.203255,0.268],
    [44476,"urn:WaterMeter:MC0203J22010600005","2025-01-19T05:00:00",6,35.209038,0.268],
    [44477,"urn:WaterMeter:MC0203J22010600005","2025-01-19T05:15:00",5.9,35.19158,0.268],
    [44478,"urn:WaterMeter:MC0203J22010600005","2025-01-19T05:30:00",5.9,35.205196,0.273],
    [44479,"urn:WaterMeter:MC0203J22010600005","2025-01-19T05:45:00",5.9,35.22498,0.265],
    [44480,"urn:WaterMeter:MC0203J22010600005","2025-01-19T06:00:00",5.9,35.20128,0.281],
    [44481,"urn:WaterMeter:MC0203J22010600005","2025-01-19T06:15:00",5.9,35.228043,0.269],
    [44482,"urn:WaterMeter:MC0203J22010600005","2025-01-19T06:30:00",5.9,35.185413,0.258],
    [44483,"urn:WaterMeter:MC0203J22010600005","2025-01-19T06:45:00",5.8,35.181107,0.258],
    [44484,"urn:WaterMeter:MC0203J22010600005","2025-01-19T07:00:00",5.8,35.210976,0.266],
    [44485,"urn:WaterMeter:MC0203J22010600005","2025-01-19T07:15:00",5.8,35.178818,0.255],
    [44486,"urn:WaterMeter:MC0203J22010600005","2025-01-19T07:30:00",5.699,35.18735,0.283],
    [44487,"urn:WaterMeter:MC0203J22010600005","2025-01-19T07:45:00",5.699,35.167957,0.27],
    [44488,"urn:WaterMeter:MC0203J22010600005","2025-01-19T08:00:00",5.599,35.212177,0.275],
    [44489,"urn:WaterMeter:MC0203J22010600005","2025-01-19T08:15:00",5.599,35.17494,0.271],
    [44490,"urn:WaterMeter:MC0203J22010600005","2025-01-19T08:30:00",5.599,35.19042,0.281],
    [44491,"urn:WaterMeter:MC0203J22010600005","2025-01-19T08:45:00",5.699,35.181107,0.269],
    [44492,"urn:WaterMeter:MC0203J22010600005","2025-01-19T09:00:00",5.8,35.15865,0.267],
    [44493,"urn:WaterMeter:MC0203J22010600005","2025-01-19T09:15:00",6.099,35.157482,0.267],
    [44494,"urn:WaterMeter:MC0203J22010600005","2025-01-19T09:30:00",6.5,35.178043,0.252],
    [44495,"urn:WaterMeter:MC0203J22010600005","2025-01-19T09:45:00",6.8,35.11245,0.249],
    [44496,"urn:WaterMeter:MC0203J22010600005","2025-01-19T10:00:00",7.199,35.09383,0.267],
    [44497,"urn:WaterMeter:MC0203J22010600005","2025-01-19T10:15:00",7.5,35.088436,0.251],
    [44498,"urn:WaterMeter:MC0203J22010600005","2025-01-19T10:30:00",7.8,35.01939,0.252],
    [44499,"urn:WaterMeter:MC0203J22010600005","2025-01-19T10:45:00",8.1,35.008144,0.269],
    [44500,"urn:WaterMeter:MC0203J22010600005","2025-01-19T11:00:00",8.399,34.988747,0.251],
    [44501,"urn:WaterMeter:MC0203J22010600005","2025-01-19T11:15:00",8.5,34.93867,0.264],
    [44502,"urn:WaterMeter:MC0203J22010600005","2025-01-19T11:30:00",8.8,34.909966,0.268],
    [44503,"urn:WaterMeter:MC0203J22010600005","2025-01-19T11:45:00",8.899,34.90027,0.259],
    [44504,"urn:WaterMeter:MC0203J22010600005","2025-01-19T12:00:00",9,34.88634,0.271],
    [44505,"urn:WaterMeter:MC0203J22010600005","2025-01-19T12:15:00",9.1,34.851006,0.263],
    [44506,"urn:WaterMeter:MC0203J22010600005","2025-01-19T12:30:00",9.199,34.806046,0.248],
    [44507,"urn:WaterMeter:MC0203J22010600005","2025-01-19T12:45:00",9.3,34.801743,0.27],
    [44508,"urn:WaterMeter:MC0203J22010600005","2025-01-19T13:00:00",9.399,34.761436,0.246],
    [44509,"urn:WaterMeter:MC0203J22010600005","2025-01-19T13:15:00",9.5,34.7261,0.247],
    [44510,"urn:WaterMeter:MC0203J22010600005","2025-01-19T13:30:00",9.6,34.739326,0.252],
    [44511,"urn:WaterMeter:MC0203J22010600005","2025-01-19T13:45:00",9.699,34.697823,0.257],
    [44512,"urn:WaterMeter:MC0203J22010600005","2025-01-19T14:00:00",9.8,34.67028,0.254],
    [44513,"urn:WaterMeter:MC0203J22010600005","2025-01-19T14:15:00",9.899,34.709846,0.26],
    [44514,"urn:WaterMeter:MC0203J22010600005","2025-01-19T14:30:00",9.899,34.610546,0.27],
    [44515,"urn:WaterMeter:MC0203J22010600005","2025-01-19T14:45:00",9.899,34.655155,0.236],
    [44516,"urn:WaterMeter:MC0203J22010600005","2025-01-19T15:00:00",9.8,34.59887,0.257],
    [44517,"urn:WaterMeter:MC0203J22010600005","2025-01-19T15:15:00",9.8,34.58801,0.251],
    [44518,"urn:WaterMeter:MC0203J22010600005","2025-01-19T15:30:00",9.8,34.600033,0.226],
    [44519,"urn:WaterMeter:MC0203J22010600005","2025-01-19T15:45:00",9.8,34.548443,0.257],
    [44520,"urn:WaterMeter:MC0203J22010600005","2025-01-19T16:00:00",9.699,34.523266,0.277],
    [44521,"urn:WaterMeter:MC0203J22010600005","2025-01-19T16:15:00",9.699,34.539173,0.252],
    [44522,"urn:WaterMeter:MC0203J22010600005","2025-01-19T16:30:00",9.6,34.54538,0.261],
    [44523,"urn:WaterMeter:MC0203J22010600005","2025-01-19T16:45:00",9.5,34.5543,0.26],
    [44524,"urn:WaterMeter:MC0203J22010600005","2025-01-19T17:00:00",9.399,34.539173,0.264],
    [44525,"urn:WaterMeter:MC0203J22010600005","2025-01-19T17:15:00",9.199,34.529823,0.267],
    [44526,"urn:WaterMeter:MC0203J22010600005","2025-01-19T17:30:00",9.1,34.53762,0.252],
    [44527,"urn:WaterMeter:MC0203J22010600005","2025-01-19T17:45:00",8.899,34.540684,0.258],
    [44528,"urn:WaterMeter:MC0203J22010600005","2025-01-19T18:00:00",8.8,34.572918,0.258],
    [44529,"urn:WaterMeter:MC0203J22010600005","2025-01-19T18:15:00",8.699,34.55973,0.256],
    [44530,"urn:WaterMeter:MC0203J22010600005","2025-01-19T18:30:00",8.5,34.56516,0.258],
    [44531,"urn:WaterMeter:MC0203J22010600005","2025-01-19T18:45:00",8.399,34.557014,0.264],
    [44532,"urn:WaterMeter:MC0203J22010600005","2025-01-19T19:00:00",8.3,34.53413,0.256],
    [44533,"urn:WaterMeter:MC0203J22010600005","2025-01-19T19:15:00",8.199,34.54538,0.262],
    [44534,"urn:WaterMeter:MC0203J22010600005","2025-01-19T19:30:00",8.1,34.558178,0.252],
    [44535,"urn:WaterMeter:MC0203J22010600005","2025-01-19T19:45:00",8,34.573696,0.268],
    [44536,"urn:WaterMeter:MC0203J22010600005","2025-01-19T20:00:00",7.9,34.555077,0.262],
    [44537,"urn:WaterMeter:MC0203J22010600005","2025-01-19T20:15:00",7.8,34.588783,0.265],
    [44538,"urn:WaterMeter:MC0203J22010600005","2025-01-19T20:30:00",7.8,34.597355,0.269],
    [44539,"urn:WaterMeter:MC0203J22010600005","2025-01-19T20:45:00",7.699,34.58956,0.265],
    [44540,"urn:WaterMeter:MC0203J22010600005","2025-01-19T21:00:00",7.599,34.557404,0.255],
    [44541,"urn:WaterMeter:MC0203J22010600005","2025-01-19T21:15:00",7.5,34.577187,0.261],
    [44542,"urn:WaterMeter:MC0203J22010600005","2025-01-19T21:30:00",7.4,34.590336,0.265],
    [44543,"urn:WaterMeter:MC0203J22010600005","2025-01-19T21:45:00",7.3,34.584557,0.266],
    [44544,"urn:WaterMeter:MC0203J22010600005","2025-01-19T22:00:00",7.199,34.627575,0.261],
    [44545,"urn:WaterMeter:MC0203J22010600005","2025-01-19T22:15:00",7.199,34.601624,0.254],
    [44546,"urn:WaterMeter:MC0203J22010600005","2025-01-19T22:30:00",7.099,34.61559,0.257],
    [44547,"urn:WaterMeter:MC0203J22010600005","2025-01-19T22:45:00",7,34.599644,0.262],
    [44548,"urn:WaterMeter:MC0203J22010600005","2025-01-19T23:00:00",6.9,34.61012,0.261],
    [44549,"urn:WaterMeter:MC0203J22010600005","2025-01-19T23:15:00",6.8,34.608566,0.264],
    [44550,"urn:WaterMeter:MC0203J22010600005","2025-01-19T23:30:00",6.699,34.617527,0.263],
    [44551,"urn:WaterMeter:MC0203J22010600005","2025-01-19T23:45:00",6.699,34.60973,0.255],
    [44552,"urn:WaterMeter:MC0203J22010600005","2025-01-20T00:00:00",6.599,34.62218,0.259],
    [44553,"urn:WaterMeter:MC0203J22010600005","2025-01-20T00:15:00",6.599,34.606277,0.255],
    [44554,"urn:WaterMeter:MC0203J22010600005","2025-01-20T00:30:00",6.5,34.640415,0.272],
    [44555,"urn:WaterMeter:MC0203J22010600005","2025-01-20T00:45:00",6.4,34.62641,0.264],
    [44556,"urn:WaterMeter:MC0203J22010600005","2025-01-20T01:00:00",6.3,34.612484,0.26],
    [44557,"urn:WaterMeter:MC0203J22010600005","2025-01-20T01:15:00",6.3,34.5927,0.264],
    [44558,"urn:WaterMeter:MC0203J22010600005","2025-01-20T01:30:00",6.199,34.635372,0.263],
    [44559,"urn:WaterMeter:MC0203J22010600005","2025-01-20T01:45:00",6.199,34.656704,0.257],
    [44560,"urn:WaterMeter:MC0203J22010600005","2025-01-20T02:00:00",6.099,34.62835,0.26],
    [44561,"urn:WaterMeter:MC0203J22010600005","2025-01-20T02:15:00",6.099,34.640415,0.257],
    [44562,"urn:WaterMeter:MC0203J22010600005","2025-01-20T02:30:00",6,34.654377,0.262],
    [44563,"urn:WaterMeter:MC0203J22010600005","2025-01-20T02:45:00",5.9,34.62796,0.262],
    [44564,"urn:WaterMeter:MC0203J22010600005","2025-01-20T03:00:00",5.9,34.642742,0.261],
    [44565,"urn:WaterMeter:MC0203J22010600005","2025-01-20T03:15:00",5.9,34.63731,0.263],
    [44566,"urn:WaterMeter:MC0203J22010600005","2025-01-20T03:30:00",5.8,34.67067,0.261],
    [44567,"urn:WaterMeter:MC0203J22010600005","2025-01-20T03:45:00",5.699,34.669506,0.266],
    [44568,"urn:WaterMeter:MC0203J22010600005","2025-01-20T04:00:00",5.699,34.660583,0.263],
    [44569,"urn:WaterMeter:MC0203J22010600005","2025-01-20T04:15:00",5.599,34.65632,0.265],
    [44570,"urn:WaterMeter:MC0203J22010600005","2025-01-20T04:30:00",5.5,34.643906,0.267],
    [44571,"urn:WaterMeter:MC0203J22010600005","2025-01-20T04:45:00",5.4,34.668304,0.269],
    [44572,"urn:WaterMeter:MC0203J22010600005","2025-01-20T05:00:00",5.4,34.67067,0.27],
    [44573,"urn:WaterMeter:MC0203J22010600005","2025-01-20T05:15:00",5.4,34.63921,0.261],
    [44574,"urn:WaterMeter:MC0203J22010600005","2025-01-20T05:30:00",5.599,34.643906,0.259],
    [44575,"urn:WaterMeter:MC0203J22010600005","2025-01-20T05:45:00",5.699,34.885178,0.262],
    [44576,"urn:WaterMeter:MC0203J22010600005","2025-01-20T06:00:00",5.699,35.63305,0.274],
    [44577,"urn:WaterMeter:MC0203J22010600005","2025-01-20T06:15:00",5.8,36.49884,0.29],
    [44578,"urn:WaterMeter:MC0203J22010600005","2025-01-20T06:30:00",5.8,37.17185,0.284],
    [44579,"urn:WaterMeter:MC0203J22010600005","2025-01-20T06:45:00",5.8,37.63535,0.281],
    [44580,"urn:WaterMeter:MC0203J22010600005","2025-01-20T07:00:00",5.8,37.914288,0.293],
    [44581,"urn:WaterMeter:MC0203J22010600005","2025-01-20T07:15:00",5.8,38.1063,0.29],
    [44582,"urn:WaterMeter:MC0203J22010600005","2025-01-20T07:30:00",5.8,38.26146,0.302],
    [44583,"urn:WaterMeter:MC0203J22010600005","2025-01-20T07:45:00",5.8,38.41778,0.295],
    [44584,"urn:WaterMeter:MC0203J22010600005","2025-01-20T08:00:00",5.8,38.59622,0.299],
    [44585,"urn:WaterMeter:MC0203J22010600005","2025-01-20T08:15:00",5.8,38.334385,0.297],
    [44586,"urn:WaterMeter:MC0203J22010600005","2025-01-20T08:30:00",5.699,37.989155,0.299],
    [44587,"urn:WaterMeter:MC0203J22010600005","2025-01-20T08:45:00",5.699,37.79943,0.292],
    [44588,"urn:WaterMeter:MC0203J22010600005","2025-01-20T09:00:00",5.8,37.656723,0.279],
    [44589,"urn:WaterMeter:MC0203J22010600005","2025-01-20T09:15:00",6,37.545784,0.297],
    [44590,"urn:WaterMeter:MC0203J22010600005","2025-01-20T09:30:00",6.3,37.411144,0.289],
    [44591,"urn:WaterMeter:MC0203J22010600005","2025-01-20T09:45:00",6.599,37.322704,0.296],
    [44592,"urn:WaterMeter:MC0203J22010600005","2025-01-20T10:00:00",7,37.224216,0.277],
    [44593,"urn:WaterMeter:MC0203J22010600005","2025-01-20T10:15:00",7.199,37.14353,0.291],
    [44594,"urn:WaterMeter:MC0203J22010600005","2025-01-20T10:30:00",7.5,37.12022,0.275],
    [44595,"urn:WaterMeter:MC0203J22010600005","2025-01-20T10:45:00",7.599,37.034492,0.278],
    [44596,"urn:WaterMeter:MC0203J22010600005","2025-01-20T11:00:00",7.8,36.94997,0.281],
    [44597,"urn:WaterMeter:MC0203J22010600005","2025-01-20T11:15:00",7.9,36.947643,0.279],
    [44598,"urn:WaterMeter:MC0203J22010600005","2025-01-20T11:30:00",8.1,36.906136,0.28],
    [44599,"urn:WaterMeter:MC0203J22010600005","2025-01-20T11:45:00",8.199,36.845238,0.289],
    [44600,"urn:WaterMeter:MC0203J22010600005","2025-01-20T12:00:00",8.399,36.791668,0.28],
    [44601,"urn:WaterMeter:MC0203J22010600005","2025-01-20T12:15:00",8.5,36.77852,0.273],
    [44602,"urn:WaterMeter:MC0203J22010600005","2025-01-20T12:30:00",8.699,36.736626,0.266],
    [44603,"urn:WaterMeter:MC0203J22010600005","2025-01-20T12:45:00",8.8,36.71219,0.27],
    [44604,"urn:WaterMeter:MC0203J22010600005","2025-01-20T13:00:00",9,36.69745,0.265],
    [44605,"urn:WaterMeter:MC0203J22010600005","2025-01-20T13:15:00",9.1,36.61909,0.271],
    [44606,"urn:WaterMeter:MC0203J22010600005","2025-01-20T13:30:00",9.1,36.55625,0.271],
    [44607,"urn:WaterMeter:MC0203J22010600005","2025-01-20T13:45:00",9.1,36.54923,0.271],
    [44608,"urn:WaterMeter:MC0203J22010600005","2025-01-20T14:00:00",9.1,36.448414,0.27],
    [44609,"urn:WaterMeter:MC0203J22010600005","2025-01-20T14:15:00",9.199,36.441395,0.285],
    [44610,"urn:WaterMeter:MC0203J22010600005","2025-01-20T14:30:00",9.3,36.415054,0.273],
    [44611,"urn:WaterMeter:MC0203J22010600005","2025-01-20T14:45:00",9.399,36.37549,0.266],
    [44612,"urn:WaterMeter:MC0203J22010600005","2025-01-20T15:00:00",9.399,36.320797,0.273],
    [44613,"urn:WaterMeter:MC0203J22010600005","2025-01-20T15:15:00",9.399,36.184254,0.274],
    [44614,"urn:WaterMeter:MC0203J22010600005","2025-01-20T15:30:00",9.399,36.155552,0.272],
    [44615,"urn:WaterMeter:MC0203J22010600005","2025-01-20T15:45:00",9.399,36.193954,0.288],
    [44616,"urn:WaterMeter:MC0203J22010600005","2025-01-20T16:00:00",9.399,36.108227,0.275],
    [44617,"urn:WaterMeter:MC0203J22010600005","2025-01-20T16:15:00",9.399,36.158615,0.279],
    [44618,"urn:WaterMeter:MC0203J22010600005","2025-01-20T16:30:00",9.3,36.112453,0.276],
    [44619,"urn:WaterMeter:MC0203J22010600005","2025-01-20T16:45:00",9.3,36.076805,0.284],
    [44620,"urn:WaterMeter:MC0203J22010600005","2025-01-20T17:00:00",9.3,36.088833,0.274],
    [44621,"urn:WaterMeter:MC0203J22010600005","2025-01-20T17:15:00",9.3,36.05974,0.295],
    [44622,"urn:WaterMeter:MC0203J22010600005","2025-01-20T17:30:00",9.3,36.049652,0.266],
    [44623,"urn:WaterMeter:MC0203J22010600005","2025-01-20T17:45:00",9.3,36.088055,0.274],
    [44624,"urn:WaterMeter:MC0203J22010600005","2025-01-20T18:00:00",9.399,36.03918,0.268],
    [44625,"urn:WaterMeter:MC0203J22010600005","2025-01-20T18:15:00",9.399,36.018234,0.272],
    [44626,"urn:WaterMeter:MC0203J22010600005","2025-01-20T18:30:00",9.3,36.005394,0.269],
    [44627,"urn:WaterMeter:MC0203J22010600005","2025-01-20T18:45:00",9.3,36.0097,0.271],
    [44628,"urn:WaterMeter:MC0203J22010600005","2025-01-20T19:00:00",9.3,35.94566,0.272],
    [44629,"urn:WaterMeter:MC0203J22010600005","2025-01-20T19:15:00",9.3,35.979057,0.276],
    [44630,"urn:WaterMeter:MC0203J22010600005","2025-01-20T19:30:00",9.199,35.992245,0.269],
    [44631,"urn:WaterMeter:MC0203J22010600005","2025-01-20T19:45:00",9.199,35.968582,0.28],
    [44632,"urn:WaterMeter:MC0203J22010600005","2025-01-20T20:00:00",9.199,35.97091,0.264],
    [44633,"urn:WaterMeter:MC0203J22010600005","2025-01-20T20:15:00",9.1,35.96199,0.263],
    [44634,"urn:WaterMeter:MC0203J22010600005","2025-01-20T20:30:00",9.1,35.955395,0.269],
    [44635,"urn:WaterMeter:MC0203J22010600005","2025-01-20T20:45:00",9.1,35.92626,0.269],
    [44636,"urn:WaterMeter:MC0203J22010600005","2025-01-20T21:00:00",9.1,35.953453,0.271],
    [44637,"urn:WaterMeter:MC0203J22010600005","2025-01-20T21:15:00",9.1,35.91583,0.273],
    [44638,"urn:WaterMeter:MC0203J22010600005","2025-01-20T21:30:00",9.1,35.92475,0.28],
    [44639,"urn:WaterMeter:MC0203J22010600005","2025-01-20T21:45:00",9,35.901863,0.268],
    [44640,"urn:WaterMeter:MC0203J22010600005","2025-01-20T22:00:00",9,35.91583,0.266],
    [44641,"urn:WaterMeter:MC0203J22010600005","2025-01-20T22:15:00",9,35.906868,0.278],
    [44642,"urn:WaterMeter:MC0203J22010600005","2025-01-20T22:30:00",9,35.88825,0.271],
    [44643,"urn:WaterMeter:MC0203J22010600005","2025-01-20T22:45:00",9,35.906094,0.263],
    [44644,"urn:WaterMeter:MC0203J22010600005","2025-01-20T23:00:00",9,35.896435,0.276],
    [44645,"urn:WaterMeter:MC0203J22010600005","2025-01-20T23:15:00",9,35.902252,0.278],
    [44646,"urn:WaterMeter:MC0203J22010600005","2025-01-20T23:30:00",9,35.903027,0.283],
    [44647,"urn:WaterMeter:MC0203J22010600005","2025-01-20T23:45:00",9,35.84907,0.266],
    [44648,"urn:WaterMeter:MC0203J22010600005","2025-01-21T00:00:00",9,35.850235,0.269],
    [44649,"urn:WaterMeter:MC0203J22010600005","2025-01-21T00:15:00",9,35.854927,0.282],
    [44650,"urn:WaterMeter:MC0203J22010600005","2025-01-21T00:30:00",9,35.865013,0.278],
    [44651,"urn:WaterMeter:MC0203J22010600005","2025-01-21T00:45:00",9,35.839413,0.279],
    [44652,"urn:WaterMeter:MC0203J22010600005","2025-01-21T01:00:00",9,35.826225,0.276],
    [44653,"urn:WaterMeter:MC0203J22010600005","2025-01-21T01:15:00",9,35.844067,0.269],
    [44654,"urn:WaterMeter:MC0203J22010600005","2025-01-21T01:30:00",9,35.83243,0.278],
    [44655,"urn:WaterMeter:MC0203J22010600005","2025-01-21T01:45:00",9,35.824673,0.267],
    [44656,"urn:WaterMeter:MC0203J22010600005","2025-01-21T02:00:00",9,35.822308,0.276],
    [44657,"urn:WaterMeter:MC0203J22010600005","2025-01-21T02:15:00",9,35.83864,0.268],
    [44658,"urn:WaterMeter:MC0203J22010600005","2025-01-21T02:30:00",9,35.84907,0.269],
    [44659,"urn:WaterMeter:MC0203J22010600005","2025-01-21T02:45:00",9,35.820755,0.275],
    [44660,"urn:WaterMeter:MC0203J22010600005","2025-01-21T03:00:00",9,35.800236,0.27],
    [44661,"urn:WaterMeter:MC0203J22010600005","2025-01-21T03:15:00",9,35.82506,0.276],
    [44662,"urn:WaterMeter:MC0203J22010600005","2025-01-21T03:30:00",8.899,35.811443,0.287],
    [44663,"urn:WaterMeter:MC0203J22010600005","2025-01-21T03:45:00",8.899,35.813423,0.263],
    [44664,"urn:WaterMeter:MC0203J22010600005","2025-01-21T04:00:00",8.899,35.795193,0.284],
    [44665,"urn:WaterMeter:MC0203J22010600005","2025-01-21T04:15:00",8.899,35.788986,0.266],
    [44666,"urn:WaterMeter:MC0203J22010600005","2025-01-21T04:30:00",8.899,35.78274,0.283],
    [44667,"urn:WaterMeter:MC0203J22010600005","2025-01-21T04:45:00",8.899,35.799847,0.267],
    [44668,"urn:WaterMeter:MC0203J22010600005","2025-01-21T05:00:00",8.8,35.812607,0.272],
    [44669,"urn:WaterMeter:MC0203J22010600005","2025-01-21T05:15:00",8.899,35.806053,0.266],
    [44670,"urn:WaterMeter:MC0203J22010600005","2025-01-21T05:30:00",9.1,36.19434,0.274],
    [44671,"urn:WaterMeter:MC0203J22010600005","2025-01-21T05:45:00",9.1,36.917736,0.293],
    [44672,"urn:WaterMeter:MC0203J22010600005","2025-01-21T06:00:00",9.1,37.48019,0.291],
    [44673,"urn:WaterMeter:MC0203J22010600005","2025-01-21T06:15:00",9.1,37.827362,0.288],
    [44674,"urn:WaterMeter:MC0203J22010600005","2025-01-21T06:30:00",9.1,38.10083,0.316],
    [44675,"urn:WaterMeter:MC0203J22010600005","2025-01-21T06:45:00",9.1,38.44955,0.299],
    [44676,"urn:WaterMeter:MC0203J22010600005","2025-01-21T07:00:00",9.1,38.894085,0.31],
    [44677,"urn:WaterMeter:MC0203J22010600005","2025-01-21T07:15:00",9.199,39.32935,0.323],
    [44678,"urn:WaterMeter:MC0203J22010600005","2025-01-21T07:30:00",9.199,39.3906,0.332],
    [44679,"urn:WaterMeter:MC0203J22010600005","2025-01-21T07:45:00",9.199,39.378185,0.319],
    [44680,"urn:WaterMeter:MC0203J22010600005","2025-01-21T08:00:00",9.199,39.40111,0.307],
    [44681,"urn:WaterMeter:MC0203J22010600005","2025-01-21T08:15:00",9.199,39.368916,0.309],
    [44682,"urn:WaterMeter:MC0203J22010600005","2025-01-21T08:30:00",9.199,39.255646,0.3],
    [44683,"urn:WaterMeter:MC0203J22010600005","2025-01-21T08:45:00",9.199,38.937183,0.327],
    [44684,"urn:WaterMeter:MC0203J22010600005","2025-01-21T09:00:00",9.199,38.458862,0.31],
    [44685,"urn:WaterMeter:MC0203J22010600005","2025-01-21T09:15:00",9.199,38.275772,0.295],
    [44686,"urn:WaterMeter:MC0203J22010600005","2025-01-21T09:30:00",9.3,37.955368,0.309],
    [44687,"urn:WaterMeter:MC0203J22010600005","2025-01-21T09:45:00",9.399,37.81809,0.293],
    [44688,"urn:WaterMeter:MC0203J22010600005","2025-01-21T10:00:00",9.399,37.634964,0.294],
    [44689,"urn:WaterMeter:MC0203J22010600005","2025-01-21T10:15:00",9.5,37.45769,0.303],
    [44690,"urn:WaterMeter:MC0203J22010600005","2025-01-21T10:30:00",9.6,37.33554,0.274],
    [44691,"urn:WaterMeter:MC0203J22010600005","2025-01-21T10:45:00",9.699,37.308388,0.29],
    [44692,"urn:WaterMeter:MC0203J22010600005","2025-01-21T11:00:00",9.8,37.282013,0.288],
    [44693,"urn:WaterMeter:MC0203J22010600005","2025-01-21T11:15:00",9.899,37.216457,0.276],
    [44694,"urn:WaterMeter:MC0203J22010600005","2025-01-21T11:30:00",10,37.150475,0.276],
    [44695,"urn:WaterMeter:MC0203J22010600005","2025-01-21T11:45:00",10,37.06281,0.277],
    [44696,"urn:WaterMeter:MC0203J22010600005","2025-01-21T12:00:00",10.1,37.07604,0.282],
    [44697,"urn:WaterMeter:MC0203J22010600005","2025-01-21T12:15:00",10.199,37.017464,0.281],
    [44698,"urn:WaterMeter:MC0203J22010600005","2025-01-21T12:30:00",10.199,37.030266,0.275],
    [44699,"urn:WaterMeter:MC0203J22010600005","2025-01-21T12:45:00",10.3,36.953423,0.287],
    [44700,"urn:WaterMeter:MC0203J22010600005","2025-01-21T13:00:00",10.3,36.90148,0.278],
    [44701,"urn:WaterMeter:MC0203J22010600005","2025-01-21T13:15:00",10.399,36.916183,0.291],
    [44702,"urn:WaterMeter:MC0203J22010600005","2025-01-21T13:30:00",10.5,36.810677,0.277],
    [44703,"urn:WaterMeter:MC0203J22010600005","2025-01-21T13:45:00",10.5,36.851444,0.284],
    [44704,"urn:WaterMeter:MC0203J22010600005","2025-01-21T14:00:00",10.6,36.845238,0.288],
    [44705,"urn:WaterMeter:MC0203J22010600005","2025-01-21T14:15:00",10.6,36.747875,0.293],
    [44706,"urn:WaterMeter:MC0203J22010600005","2025-01-21T14:30:00",10.6,36.72301,0.285],
    [44707,"urn:WaterMeter:MC0203J22010600005","2025-01-21T14:45:00",10.699,36.684994,0.282],
    [44708,"urn:WaterMeter:MC0203J22010600005","2025-01-21T15:00:00",10.699,36.68581,0.278],
    [44709,"urn:WaterMeter:MC0203J22010600005","2025-01-21T15:15:00",10.699,36.62297,0.28],
    [44710,"urn:WaterMeter:MC0203J22010600005","2025-01-21T15:30:00",10.699,36.663662,0.276],
    [44711,"urn:WaterMeter:MC0203J22010600005","2025-01-21T15:45:00",10.699,36.50113,0.283],
    [44712,"urn:WaterMeter:MC0203J22010600005","2025-01-21T16:00:00",10.699,36.47204,0.283],
    [44713,"urn:WaterMeter:MC0203J22010600005","2025-01-21T16:15:00",10.699,36.42592,0.269],
    [44714,"urn:WaterMeter:MC0203J22010600005","2025-01-21T16:30:00",10.699,36.409626,0.302],
    [44715,"urn:WaterMeter:MC0203J22010600005","2025-01-21T16:45:00",10.699,36.430145,0.298],
    [44716,"urn:WaterMeter:MC0203J22010600005","2025-01-21T17:00:00",10.6,36.428246,0.277],
    [44717,"urn:WaterMeter:MC0203J22010600005","2025-01-21T17:15:00",10.6,36.415443,0.276],
    [44718,"urn:WaterMeter:MC0203J22010600005","2025-01-21T17:30:00",10.5,36.3642,0.275],
    [44719,"urn:WaterMeter:MC0203J22010600005","2025-01-21T17:45:00",10.5,36.325413,0.277],
    [44720,"urn:WaterMeter:MC0203J22010600005","2025-01-21T18:00:00",10.399,36.314163,0.283],
    [44721,"urn:WaterMeter:MC0203J22010600005","2025-01-21T18:15:00",10.399,36.34795,0.29],
    [44722,"urn:WaterMeter:MC0203J22010600005","2025-01-21T18:30:00",10.3,36.252136,0.282],
    [44723,"urn:WaterMeter:MC0203J22010600005","2025-01-21T18:45:00",10.3,36.295544,0.283],
    [44724,"urn:WaterMeter:MC0203J22010600005","2025-01-21T19:00:00",10.3,36.29054,0.271],
    [44725,"urn:WaterMeter:MC0203J22010600005","2025-01-21T19:15:00",10.199,36.30916,0.282],
    [44726,"urn:WaterMeter:MC0203J22010600005","2025-01-21T19:30:00",10.199,36.293644,0.281],
    [44727,"urn:WaterMeter:MC0203J22010600005","2025-01-21T19:45:00",10.1,36.266838,0.279],
    [44728,"urn:WaterMeter:MC0203J22010600005","2025-01-21T20:00:00",10.1,36.219128,0.276],
    [44729,"urn:WaterMeter:MC0203J22010600005","2025-01-21T20:15:00",10,36.258694,0.271],
    [44730,"urn:WaterMeter:MC0203J22010600005","2025-01-21T20:30:00",10,36.252914,0.28],
    [44731,"urn:WaterMeter:MC0203J22010600005","2025-01-21T20:45:00",10,36.2296,0.272],
    [44732,"urn:WaterMeter:MC0203J22010600005","2025-01-21T21:00:00",9.899,36.163307,0.268],
    [44733,"urn:WaterMeter:MC0203J22010600005","2025-01-21T21:15:00",9.899,36.211796,0.265],
    [44734,"urn:WaterMeter:MC0203J22010600005","2025-01-21T21:30:00",9.8,36.184643,0.282],
    [44735,"urn:WaterMeter:MC0203J22010600005","2025-01-21T21:45:00",9.8,36.176884,0.267],
    [44736,"urn:WaterMeter:MC0203J22010600005","2025-01-21T22:00:00",9.8,36.167187,0.275],
    [44737,"urn:WaterMeter:MC0203J22010600005","2025-01-21T22:15:00",9.699,36.159004,0.284],
    [44738,"urn:WaterMeter:MC0203J22010600005","2025-01-21T22:30:00",9.699,36.10082,0.282],
    [44739,"urn:WaterMeter:MC0203J22010600005","2025-01-21T22:45:00",9.6,36.131462,0.266],
    [44740,"urn:WaterMeter:MC0203J22010600005","2025-01-21T23:00:00",9.6,36.129562,0.275],
    [44741,"urn:WaterMeter:MC0203J22010600005","2025-01-21T23:15:00",9.5,36.144688,0.276],
    [44742,"urn:WaterMeter:MC0203J22010600005","2025-01-21T23:30:00",9.5,36.10551,0.281],
    [44743,"urn:WaterMeter:MC0203J22010600005","2025-01-21T23:45:00",9.5,36.10629,0.28],
    [44744,"urn:WaterMeter:MC0203J22010600005","2025-01-22T00:00:00",9.399,36.110943,0.273],
    [44745,"urn:WaterMeter:MC0203J22010600005","2025-01-22T00:15:00",9.399,36.10629,0.276],
    [44746,"urn:WaterMeter:MC0203J22010600005","2025-01-22T00:30:00",9.3,36.077194,0.285],
    [44747,"urn:WaterMeter:MC0203J22010600005","2025-01-22T00:45:00",9.3,36.077972,0.273],
    [44748,"urn:WaterMeter:MC0203J22010600005","2025-01-22T01:00:00",9.199,36.05237,0.278],
    [44749,"urn:WaterMeter:MC0203J22010600005","2025-01-22T01:15:00",9.199,36.0822,0.277],
    [44750,"urn:WaterMeter:MC0203J22010600005","2025-01-22T01:30:00",9.1,36.09814,0.274],
    [44751,"urn:WaterMeter:MC0203J22010600005","2025-01-22T01:45:00",9,36.06827,0.278],
    [44752,"urn:WaterMeter:MC0203J22010600005","2025-01-22T02:00:00",9,36.043407,0.267],
    [44753,"urn:WaterMeter:MC0203J22010600005","2025-01-22T02:15:00",8.899,36.06827,0.261],
    [44754,"urn:WaterMeter:MC0203J22010600005","2025-01-22T02:30:00",8.899,36.03608,0.275],
    [44755,"urn:WaterMeter:MC0203J22010600005","2025-01-22T02:45:00",8.8,36.02095,0.274],
    [44756,"urn:WaterMeter:MC0203J22010600005","2025-01-22T03:00:00",8.8,36.038017,0.289],
    [44757,"urn:WaterMeter:MC0203J22010600005","2025-01-22T03:15:00",8.699,36.048878,0.273],
    [44758,"urn:WaterMeter:MC0203J22010600005","2025-01-22T03:30:00",8.699,36.060127,0.28],
    [44759,"urn:WaterMeter:MC0203J22010600005","2025-01-22T03:45:00",8.699,36.007374,0.277],
    [44760,"urn:WaterMeter:MC0203J22010600005","2025-01-22T04:00:00",8.699,36.00776,0.272],
    [44761,"urn:WaterMeter:MC0203J22010600005","2025-01-22T04:15:00",8.6,36.016254,0.28],
    [44762,"urn:WaterMeter:MC0203J22010600005","2025-01-22T04:30:00",8.6,35.990692,0.271],
    [44763,"urn:WaterMeter:MC0203J22010600005","2025-01-22T04:45:00",8.6,35.982937,0.27],
    [44764,"urn:WaterMeter:MC0203J22010600005","2025-01-22T05:00:00",8.5,35.997288,0.268],
    [44765,"urn:WaterMeter:MC0203J22010600005","2025-01-22T05:15:00",8.6,36.006557,0.284],
    [44766,"urn:WaterMeter:MC0203J22010600005","2025-01-22T05:30:00",8.8,36.505825,0.273],
    [44767,"urn:WaterMeter:MC0203J22010600005","2025-01-22T05:45:00",8.8,37.17185,0.286],
    [44768,"urn:WaterMeter:MC0203J22010600005","2025-01-22T06:00:00",8.8,37.689693,0.296],
    [44769,"urn:WaterMeter:MC0203J22010600005","2025-01-22T06:15:00",8.8,38.026394,0.298],
    [44770,"urn:WaterMeter:MC0203J22010600005","2025-01-22T06:30:00",8.8,38.30762,0.292],
    [44771,"urn:WaterMeter:MC0203J22010600005","2025-01-22T06:45:00",8.8,38.493813,0.299],
    [44772,"urn:WaterMeter:MC0203J22010600005","2025-01-22T07:00:00",8.8,38.612896,0.31],
    [44773,"urn:WaterMeter:MC0203J22010600005","2025-01-22T07:15:00",8.8,38.77504,0.314],
    [44774,"urn:WaterMeter:MC0203J22010600005","2025-01-22T07:30:00",8.8,38.90964,0.301],
    [44775,"urn:WaterMeter:MC0203J22010600005","2025-01-22T07:45:00",8.8,38.941837,0.31],
    [44776,"urn:WaterMeter:MC0203J22010600005","2025-01-22T08:00:00",8.8,38.98253,0.314],
    [44777,"urn:WaterMeter:MC0203J22010600005","2025-01-22T08:15:00",8.8,38.983303,0.311],
    [44778,"urn:WaterMeter:MC0203J22010600005","2025-01-22T08:30:00",8.699,38.770348,0.315],
    [44779,"urn:WaterMeter:MC0203J22010600005","2025-01-22T08:45:00",8.6,38.59424,0.299],
    [44780,"urn:WaterMeter:MC0203J22010600005","2025-01-22T09:00:00",8.6,38.173794,0.291],
    [44781,"urn:WaterMeter:MC0203J22010600005","2025-01-22T09:15:00",8.699,38.06945,0.295],
    [44782,"urn:WaterMeter:MC0203J22010600005","2025-01-22T09:30:00",8.699,37.836323,0.294],
    [44783,"urn:WaterMeter:MC0203J22010600005","2025-01-22T09:45:00",8.8,37.6222,0.297],
    [44784,"urn:WaterMeter:MC0203J22010600005","2025-01-22T10:00:00",8.899,37.54074,0.306],
    [44785,"urn:WaterMeter:MC0203J22010600005","2025-01-22T10:15:00",9.1,37.48019,0.297],
    [44786,"urn:WaterMeter:MC0203J22010600005","2025-01-22T10:30:00",9.199,37.411144,0.281],
    [44787,"urn:WaterMeter:MC0203J22010600005","2025-01-22T10:45:00",9.399,37.327785,0.284],
    [44788,"urn:WaterMeter:MC0203J22010600005","2025-01-22T11:00:00",9.6,37.220337,0.272],
    [44789,"urn:WaterMeter:MC0203J22010600005","2025-01-22T11:15:00",9.699,37.206333,0.279],
    [44790,"urn:WaterMeter:MC0203J22010600005","2025-01-22T11:30:00",9.899,37.124138,0.305],
    [44791,"urn:WaterMeter:MC0203J22010600005","2025-01-22T11:45:00",10.1,37.129143,0.254],
    [44792,"urn:WaterMeter:MC0203J22010600005","2025-01-22T12:00:00",10.3,36.97476,0.29],
    [44793,"urn:WaterMeter:MC0203J22010600005","2025-01-22T12:15:00",10.399,36.943764,0.273],
    [44794,"urn:WaterMeter:MC0203J22010600005","2025-01-22T12:30:00",10.5,36.9201,0.292],
    [44795,"urn:WaterMeter:MC0203J22010600005","2025-01-22T12:45:00",10.699,36.832047,0.286],
    [44796,"urn:WaterMeter:MC0203J22010600005","2025-01-22T13:00:00",10.8,36.832825,0.287],
    [44797,"urn:WaterMeter:MC0203J22010600005","2025-01-22T13:15:00",10.899,36.77503,0.287],
    [44798,"urn:WaterMeter:MC0203J22010600005","2025-01-22T13:30:00",11,36.70284,0.282],
    [44799,"urn:WaterMeter:MC0203J22010600005","2025-01-22T13:45:00",11.199,36.681156,0.283],
    [44800,"urn:WaterMeter:MC0203J22010600005","2025-01-22T14:00:00",11.399,36.663273,0.278],
    [44801,"urn:WaterMeter:MC0203J22010600005","2025-01-22T14:15:00",11.5,36.455784,0.27],
    [44802,"urn:WaterMeter:MC0203J22010600005","2025-01-22T14:30:00",11.6,36.467422,0.282],
    [44803,"urn:WaterMeter:MC0203J22010600005","2025-01-22T14:45:00",11.699,36.398376,0.305],
    [44804,"urn:WaterMeter:MC0203J22010600005","2025-01-22T15:00:00",11.699,36.397602,0.27],
    [44805,"urn:WaterMeter:MC0203J22010600005","2025-01-22T15:15:00",11.8,36.318855,0.262],
    [44806,"urn:WaterMeter:MC0203J22010600005","2025-01-22T15:30:00",11.899,36.31688,0.272],
    [44807,"urn:WaterMeter:MC0203J22010600005","2025-01-22T15:45:00",11.899,36.233517,0.283],
    [44808,"urn:WaterMeter:MC0203J22010600005","2025-01-22T16:00:00",12,36.234295,0.305],
    [44809,"urn:WaterMeter:MC0203J22010600005","2025-01-22T16:15:00",12,36.159004,0.273],
    [44810,"urn:WaterMeter:MC0203J22010600005","2025-01-22T16:30:00",12,36.18348,0.301],
    [44811,"urn:WaterMeter:MC0203J22010600005","2025-01-22T16:45:00",11.899,36.234295,0.278],
    [44812,"urn:WaterMeter:MC0203J22010600005","2025-01-22T17:00:00",11.899,36.11168,0.277],
    [44813,"urn:WaterMeter:MC0203J22010600005","2025-01-22T17:15:00",11.899,36.148956,0.281],
    [44814,"urn:WaterMeter:MC0203J22010600005","2025-01-22T17:30:00",11.8,36.130726,0.268],
    [44815,"urn:WaterMeter:MC0203J22010600005","2025-01-22T17:45:00",11.699,36.072887,0.282],
    [44816,"urn:WaterMeter:MC0203J22010600005","2025-01-22T18:00:00",11.6,36.051983,0.274],
    [44817,"urn:WaterMeter:MC0203J22010600005","2025-01-22T18:15:00",11.399,36.118313,0.27],
    [44818,"urn:WaterMeter:MC0203J22010600005","2025-01-22T18:30:00",11.3,36.06319,0.278],
    [44819,"urn:WaterMeter:MC0203J22010600005","2025-01-22T18:45:00",11.199,36.088833,0.279],
    [44820,"urn:WaterMeter:MC0203J22010600005","2025-01-22T19:00:00",11.1,36.058575,0.267],
    [44821,"urn:WaterMeter:MC0203J22010600005","2025-01-22T19:15:00",11,36.029873,0.281],
    [44822,"urn:WaterMeter:MC0203J22010600005","2025-01-22T19:30:00",10.899,36.042633,0.282],
    [44823,"urn:WaterMeter:MC0203J22010600005","2025-01-22T19:45:00",10.8,36.010475,0.272],
    [44824,"urn:WaterMeter:MC0203J22010600005","2025-01-22T20:00:00",10.699,36.0803,0.264],
    [44825,"urn:WaterMeter:MC0203J22010600005","2025-01-22T20:15:00",10.6,35.997288,0.279],
    [44826,"urn:WaterMeter:MC0203J22010600005","2025-01-22T20:30:00",10.6,36.017845,0.266],
    [44827,"urn:WaterMeter:MC0203J22010600005","2025-01-22T20:45:00",10.5,36.039955,0.294],
    [44828,"urn:WaterMeter:MC0203J22010600005","2025-01-22T21:00:00",10.5,36.03449,0.278],
    [44829,"urn:WaterMeter:MC0203J22010600005","2025-01-22T21:15:00",10.5,35.986774,0.285],
    [44830,"urn:WaterMeter:MC0203J22010600005","2025-01-22T21:30:00",10.5,35.999615,0.273],
    [44831,"urn:WaterMeter:MC0203J22010600005","2025-01-22T21:45:00",10.6,36.005005,0.286],
    [44832,"urn:WaterMeter:MC0203J22010600005","2025-01-22T22:00:00",10.6,35.927814,0.276],
    [44833,"urn:WaterMeter:MC0203J22010600005","2025-01-22T22:15:00",10.5,35.97867,0.273],
    [44834,"urn:WaterMeter:MC0203J22010600005","2025-01-22T22:30:00",10.5,35.953068,0.276],
    [44835,"urn:WaterMeter:MC0203J22010600005","2025-01-22T22:45:00",10.399,35.949577,0.278],
    [44836,"urn:WaterMeter:MC0203J22010600005","2025-01-22T23:00:00",10.399,35.975178,0.279],
    [44837,"urn:WaterMeter:MC0203J22010600005","2025-01-22T23:15:00",10.3,35.953453,0.273],
    [44838,"urn:WaterMeter:MC0203J22010600005","2025-01-22T23:30:00",10.3,35.876263,0.276],
    [44839,"urn:WaterMeter:MC0203J22010600005","2025-01-22T23:45:00",10.3,35.892555,0.281],
    [44840,"urn:WaterMeter:MC0203J22010600005","2025-01-23T00:00:00",10.399,35.907642,0.277],
    [44841,"urn:WaterMeter:MC0203J22010600005","2025-01-23T00:15:00",10.3,35.929794,0.276],
    [44842,"urn:WaterMeter:MC0203J22010600005","2025-01-23T00:30:00",10.3,35.832005,0.271],
    [44843,"urn:WaterMeter:MC0203J22010600005","2025-01-23T00:45:00",10.199,35.87665,0.277],
    [44844,"urn:WaterMeter:MC0203J22010600005","2025-01-23T01:00:00",10.1,35.862686,0.276],
    [44845,"urn:WaterMeter:MC0203J22010600005","2025-01-23T01:15:00",10,35.8526,0.276],
    [44846,"urn:WaterMeter:MC0203J22010600005","2025-01-23T01:30:00",9.899,35.867302,0.269],
    [44847,"urn:WaterMeter:MC0203J22010600005","2025-01-23T01:45:00",9.8,35.866566,0.27],
    [44848,"urn:WaterMeter:MC0203J22010600005","2025-01-23T02:00:00",9.699,35.83084,0.279],
    [44849,"urn:WaterMeter:MC0203J22010600005","2025-01-23T02:15:00",9.6,35.83786,0.287],
    [44850,"urn:WaterMeter:MC0203J22010600005","2025-01-23T02:30:00",9.5,35.84907,0.279],
    [44851,"urn:WaterMeter:MC0203J22010600005","2025-01-23T02:45:00",9.399,35.82661,0.274],
    [44852,"urn:WaterMeter:MC0203J22010600005","2025-01-23T03:00:00",9.3,35.840538,0.28],
    [44853,"urn:WaterMeter:MC0203J22010600005","2025-01-23T03:15:00",9.199,35.83747,0.281],
    [44854,"urn:WaterMeter:MC0203J22010600005","2025-01-23T03:30:00",9.199,35.828163,0.277],
    [44855,"urn:WaterMeter:MC0203J22010600005","2025-01-23T03:45:00",9.1,35.861095,0.28],
    [44856,"urn:WaterMeter:MC0203J22010600005","2025-01-23T04:00:00",9.1,35.8398,0.275],
    [44857,"urn:WaterMeter:MC0203J22010600005","2025-01-23T04:15:00",9.1,35.82114,0.281],
    [44858,"urn:WaterMeter:MC0203J22010600005","2025-01-23T04:30:00",9.1,35.818077,0.276],
    [44859,"urn:WaterMeter:MC0203J22010600005","2025-01-23T04:45:00",9.1,35.800236,0.265],
    [44860,"urn:WaterMeter:MC0203J22010600005","2025-01-23T05:00:00",9.1,35.799072,0.271],
    [44861,"urn:WaterMeter:MC0203J22010600005","2025-01-23T05:15:00",9.199,35.81536,0.265],
    [44862,"urn:WaterMeter:MC0203J22010600005","2025-01-23T05:30:00",9.3,36.225372,0.278],
    [44863,"urn:WaterMeter:MC0203J22010600005","2025-01-23T05:45:00",9.399,36.93096,0.293],
    [44864,"urn:WaterMeter:MC0203J22010600005","2025-01-23T06:00:00",9.399,37.49497,0.295],
    [44865,"urn:WaterMeter:MC0203J22010600005","2025-01-23T06:15:00",9.399,37.891014,0.297],
    [44866,"urn:WaterMeter:MC0203J22010600005","2025-01-23T06:30:00",9.399,38.141598,0.311],
    [44867,"urn:WaterMeter:MC0203J22010600005","2025-01-23T06:45:00",9.399,38.351803,0.301],
    [44868,"urn:WaterMeter:MC0203J22010600005","2025-01-23T07:00:00",9.3,38.56437,0.298],
    [44869,"urn:WaterMeter:MC0203J22010600005","2025-01-23T07:15:00",9.3,38.706383,0.313],
    [44870,"urn:WaterMeter:MC0203J22010600005","2025-01-23T07:30:00",9.3,38.783184,0.313],
    [44871,"urn:WaterMeter:MC0203J22010600005","2025-01-23T07:45:00",9.3,38.975197,0.297],
    [44872,"urn:WaterMeter:MC0203J22010600005","2025-01-23T08:00:00",9.3,39.129967,0.312],
    [44873,"urn:WaterMeter:MC0203J22010600005","2025-01-23T08:15:00",9.3,39.023296,0.304],
    [44874,"urn:WaterMeter:MC0203J22010600005","2025-01-23T08:30:00",9.3,38.885162,0.298],
    [44875,"urn:WaterMeter:MC0203J22010600005","2025-01-23T08:45:00",9.399,38.438343,0.301],
    [44876,"urn:WaterMeter:MC0203J22010600005","2025-01-23T09:00:00",9.399,38.262623,0.287],
    [44877,"urn:WaterMeter:MC0203J22010600005","2025-01-23T09:15:00",9.5,37.916965,0.312],
    [44878,"urn:WaterMeter:MC0203J22010600005","2025-01-23T09:30:00",9.6,37.821583,0.291],
    [44879,"urn:WaterMeter:MC0203J22010600005","2025-01-23T09:45:00",9.699,37.646637,0.292],
    [44880,"urn:WaterMeter:MC0203J22010600005","2025-01-23T10:00:00",9.899,37.482555,0.273],
    [44881,"urn:WaterMeter:MC0203J22010600005","2025-01-23T10:15:00",10,37.40653,0.269],
    [44882,"urn:WaterMeter:MC0203J22010600005","2025-01-23T10:30:00",10.199,37.313046,0.292],
    [44883,"urn:WaterMeter:MC0203J22010600005","2025-01-23T10:45:00",10.6,37.22926,0.284],
    [44884,"urn:WaterMeter:MC0203J22010600005","2025-01-23T11:00:00",10.8,37.16254,0.281],
    [44885,"urn:WaterMeter:MC0203J22010600005","2025-01-23T11:15:00",11.1,37.091515,0.274],
    [44886,"urn:WaterMeter:MC0203J22010600005","2025-01-23T11:30:00",11.399,36.882088,0.274],
    [44887,"urn:WaterMeter:MC0203J22010600005","2025-01-23T11:45:00",11.5,36.84252,0.274],
    [44888,"urn:WaterMeter:MC0203J22010600005","2025-01-23T12:00:00",11.6,36.776577,0.272],
    [44889,"urn:WaterMeter:MC0203J22010600005","2025-01-23T12:15:00",11.8,36.694695,0.28],
    [44890,"urn:WaterMeter:MC0203J22010600005","2025-01-23T12:30:00",12.1,36.65284,0.269],
    [44891,"urn:WaterMeter:MC0203J22010600005","2025-01-23T12:45:00",12.3,36.559315,0.275],
    [44892,"urn:WaterMeter:MC0203J22010600005","2025-01-23T13:00:00",12.5,36.541122,0.289],
    [44893,"urn:WaterMeter:MC0203J22010600005","2025-01-23T13:15:00",12.699,36.436,0.291],
    [44894,"urn:WaterMeter:MC0203J22010600005","2025-01-23T13:30:00",12.699,36.44376,0.299],
    [44895,"urn:WaterMeter:MC0203J22010600005","2025-01-23T13:45:00",12.899,36.391743,0.286],
    [44896,"urn:WaterMeter:MC0203J22010600005","2025-01-23T14:00:00",12.899,36.332047,0.269],
    [44897,"urn:WaterMeter:MC0203J22010600005","2025-01-23T14:15:00",13,36.296318,0.28],
    [44898,"urn:WaterMeter:MC0203J22010600005","2025-01-23T14:30:00",13.1,36.330494,0.265],
    [44899,"urn:WaterMeter:MC0203J22010600005","2025-01-23T14:45:00",13.1,36.206753,0.267],
    [44900,"urn:WaterMeter:MC0203J22010600005","2025-01-23T15:00:00",13.1,36.23313,0.275],
    [44901,"urn:WaterMeter:MC0203J22010600005","2025-01-23T15:15:00",13.1,36.198956,0.287],
    [44902,"urn:WaterMeter:MC0203J22010600005","2025-01-23T15:30:00",13.1,36.16835,0.283],
    [44903,"urn:WaterMeter:MC0203J22010600005","2025-01-23T15:45:00",13.1,36.072887,0.277],
    [44904,"urn:WaterMeter:MC0203J22010600005","2025-01-23T16:00:00",13.1,36.072887,0.267],
    [44905,"urn:WaterMeter:MC0203J22010600005","2025-01-23T16:15:00",13.1,36.043797,0.266],
    [44906,"urn:WaterMeter:MC0203J22010600005","2025-01-23T16:30:00",13.1,36.019398,0.284],
    [44907,"urn:WaterMeter:MC0203J22010600005","2025-01-23T16:45:00",13,35.940266,0.274],
    [44908,"urn:WaterMeter:MC0203J22010600005","2025-01-23T17:00:00",12.899,35.949577,0.269],
    [44909,"urn:WaterMeter:MC0203J22010600005","2025-01-23T17:15:00",12.8,35.987164,0.265],
    [44910,"urn:WaterMeter:MC0203J22010600005","2025-01-23T17:30:00",12.699,36.00776,0.269],
    [44911,"urn:WaterMeter:MC0203J22010600005","2025-01-23T17:45:00",12.5,35.944534,0.277],
    [44912,"urn:WaterMeter:MC0203J22010600005","2025-01-23T18:00:00",12.399,35.966606,0.274],
    [44913,"urn:WaterMeter:MC0203J22010600005","2025-01-23T18:15:00",12.199,35.905743,0.269],
    [44914,"urn:WaterMeter:MC0203J22010600005","2025-01-23T18:30:00",12.1,35.879326,0.29],
    [44915,"urn:WaterMeter:MC0203J22010600005","2025-01-23T18:45:00",12,35.901863,0.283],
    [44916,"urn:WaterMeter:MC0203J22010600005","2025-01-23T19:00:00",11.899,35.8751,0.281],
    [44917,"urn:WaterMeter:MC0203J22010600005","2025-01-23T19:15:00",11.8,35.859932,0.286],
    [44918,"urn:WaterMeter:MC0203J22010600005","2025-01-23T19:30:00",11.699,35.93018,0.293],
    [44919,"urn:WaterMeter:MC0203J22010600005","2025-01-23T19:45:00",11.6,35.883244,0.28],
    [44920,"urn:WaterMeter:MC0203J22010600005","2025-01-23T20:00:00",11.5,35.916218,0.279],
    [44921,"urn:WaterMeter:MC0203J22010600005","2025-01-23T20:15:00",11.399,35.91195,0.291],
    [44922,"urn:WaterMeter:MC0203J22010600005","2025-01-23T20:30:00",11.3,35.847908,0.305],
    [44923,"urn:WaterMeter:MC0203J22010600005","2025-01-23T20:45:00",11.199,35.886696,0.281],
    [44924,"urn:WaterMeter:MC0203J22010600005","2025-01-23T21:00:00",11.199,35.866177,0.277],
    [44925,"urn:WaterMeter:MC0203J22010600005","2025-01-23T21:15:00",11.1,35.865788,0.286],
    [44926,"urn:WaterMeter:MC0203J22010600005","2025-01-23T21:30:00",11.1,35.906868,0.283],
    [44927,"urn:WaterMeter:MC0203J22010600005","2025-01-23T21:45:00",11,35.802135,0.277],
    [44928,"urn:WaterMeter:MC0203J22010600005","2025-01-23T22:00:00",11,35.798294,0.289],
    [44929,"urn:WaterMeter:MC0203J22010600005","2025-01-23T22:15:00",10.899,35.77463,0.274],
    [44930,"urn:WaterMeter:MC0203J22010600005","2025-01-23T22:30:00",10.8,35.777737,0.274],
    [44931,"urn:WaterMeter:MC0203J22010600005","2025-01-23T22:45:00",10.699,35.811832,0.28],
    [44932,"urn:WaterMeter:MC0203J22010600005","2025-01-23T23:00:00",10.6,35.80101,0.284],
    [44933,"urn:WaterMeter:MC0203J22010600005","2025-01-23T23:15:00",10.5,35.825447,0.273],
    [44934,"urn:WaterMeter:MC0203J22010600005","2025-01-23T23:30:00",10.5,35.766487,0.274],
    [44935,"urn:WaterMeter:MC0203J22010600005","2025-01-23T23:45:00",10.399,35.750195,0.273],
    [44936,"urn:WaterMeter:MC0203J22010600005","2025-01-24T00:00:00",10.3,35.802135,0.281],
    [44937,"urn:WaterMeter:MC0203J22010600005","2025-01-24T00:15:00",10.3,35.74395,0.279],
    [44938,"urn:WaterMeter:MC0203J22010600005","2025-01-24T00:30:00",10.199,35.791275,0.277],
    [44939,"urn:WaterMeter:MC0203J22010600005","2025-01-24T00:45:00",10.1,35.758343,0.287],
    [44940,"urn:WaterMeter:MC0203J22010600005","2025-01-24T01:00:00",10.1,35.746315,0.292],
    [44941,"urn:WaterMeter:MC0203J22010600005","2025-01-24T01:15:00",10,35.764935,0.285],
    [44942,"urn:WaterMeter:MC0203J22010600005","2025-01-24T01:30:00",10,35.75989,0.264],
    [44943,"urn:WaterMeter:MC0203J22010600005","2025-01-24T01:45:00",9.899,35.76765,0.272],
    [44944,"urn:WaterMeter:MC0203J22010600005","2025-01-24T02:00:00",9.899,35.770714,0.278],
    [44945,"urn:WaterMeter:MC0203J22010600005","2025-01-24T02:15:00",9.8,35.764122,0.279],
    [44946,"urn:WaterMeter:MC0203J22010600005","2025-01-24T02:30:00",9.8,35.735844,0.281],
    [44947,"urn:WaterMeter:MC0203J22010600005","2025-01-24T02:45:00",9.699,35.728085,0.277],
    [44948,"urn:WaterMeter:MC0203J22010600005","2025-01-24T03:00:00",9.699,35.735455,0.271],
    [44949,"urn:WaterMeter:MC0203J22010600005","2025-01-24T03:15:00",9.6,35.72304,0.268],
    [44950,"urn:WaterMeter:MC0203J22010600005","2025-01-24T03:30:00",9.5,35.73348,0.292],
    [44951,"urn:WaterMeter:MC0203J22010600005","2025-01-24T03:45:00",9.5,35.737007,0.276],
    [44952,"urn:WaterMeter:MC0203J22010600005","2025-01-24T04:00:00",9.399,35.722267,0.281],
    [44953,"urn:WaterMeter:MC0203J22010600005","2025-01-24T04:15:00",9.399,35.720715,0.267],
    [44954,"urn:WaterMeter:MC0203J22010600005","2025-01-24T04:30:00",9.3,35.70675,0.276],
    [44955,"urn:WaterMeter:MC0203J22010600005","2025-01-24T04:45:00",9.199,35.689682,0.273],
    [44956,"urn:WaterMeter:MC0203J22010600005","2025-01-24T05:00:00",9.199,35.686966,0.271],
    [44957,"urn:WaterMeter:MC0203J22010600005","2025-01-24T05:15:00",9.199,35.722652,0.269],
    [44958,"urn:WaterMeter:MC0203J22010600005","2025-01-24T05:30:00",9.3,36.069435,0.282],
    [44959,"urn:WaterMeter:MC0203J22010600005","2025-01-24T05:45:00",9.3,36.86657,0.291],
    [44960,"urn:WaterMeter:MC0203J22010600005","2025-01-24T06:00:00",9.3,37.488724,0.291],
    [44961,"urn:WaterMeter:MC0203J22010600005","2025-01-24T06:15:00",9.3,37.87123,0.311],
    [44962,"urn:WaterMeter:MC0203J22010600005","2025-01-24T06:30:00",9.3,38.12453,0.303],
    [44963,"urn:WaterMeter:MC0203J22010600005","2025-01-24T06:45:00",9.3,38.370808,0.306],
    [44964,"urn:WaterMeter:MC0203J22010600005","2025-01-24T07:00:00",9.3,38.628414,0.312],
    [44965,"urn:WaterMeter:MC0203J22010600005","2025-01-24T07:15:00",9.3,38.700523,0.295],
    [44966,"urn:WaterMeter:MC0203J22010600005","2025-01-24T07:30:00",9.199,38.788963,0.31],
    [44967,"urn:WaterMeter:MC0203J22010600005","2025-01-24T07:45:00",9.199,38.967827,0.305],
    [44968,"urn:WaterMeter:MC0203J22010600005","2025-01-24T08:00:00",9.199,39.069416,0.321],
    [44969,"urn:WaterMeter:MC0203J22010600005","2025-01-24T08:15:00",9.199,39.026787,0.321],
    [44970,"urn:WaterMeter:MC0203J22010600005","2025-01-24T08:30:00",9.1,38.87085,0.308],
    [44971,"urn:WaterMeter:MC0203J22010600005","2025-01-24T08:45:00",9.1,38.430546,0.312],
    [44972,"urn:WaterMeter:MC0203J22010600005","2025-01-24T09:00:00",9.199,38.21526,0.304],
    [44973,"urn:WaterMeter:MC0203J22010600005","2025-01-24T09:15:00",9.5,37.928642,0.299],
    [44974,"urn:WaterMeter:MC0203J22010600005","2025-01-24T09:30:00",9.8,37.792877,0.28],
    [44975,"urn:WaterMeter:MC0203J22010600005","2025-01-24T09:45:00",10.199,37.61677,0.289],
    [44976,"urn:WaterMeter:MC0203J22010600005","2025-01-24T10:00:00",10.5,37.477474,0.284],
    [44977,"urn:WaterMeter:MC0203J22010600005","2025-01-24T10:15:00",10.699,37.302532,0.284],
    [44978,"urn:WaterMeter:MC0203J22010600005","2025-01-24T10:30:00",11,37.277744,0.278],
    [44979,"urn:WaterMeter:MC0203J22010600005","2025-01-24T10:45:00",11.199,37.20827,0.273],
    [44980,"urn:WaterMeter:MC0203J22010600005","2025-01-24T11:00:00",11.399,37.111298,0.278],
    [44981,"urn:WaterMeter:MC0203J22010600005","2025-01-24T11:15:00",11.6,37.052338,0.282],
    [44982,"urn:WaterMeter:MC0203J22010600005","2025-01-24T11:30:00",11.8,36.954586,0.267],
    [44983,"urn:WaterMeter:MC0203J22010600005","2025-01-24T11:45:00",12,36.77425,0.291],
    [44984,"urn:WaterMeter:MC0203J22010600005","2025-01-24T12:00:00",12.199,36.677277,0.274],
    [44985,"urn:WaterMeter:MC0203J22010600005","2025-01-24T12:15:00",12.399,36.553925,0.279],
    [44986,"urn:WaterMeter:MC0203J22010600005","2025-01-24T12:30:00",12.6,36.56785,0.29],
    [44987,"urn:WaterMeter:MC0203J22010600005","2025-01-24T12:45:00",12.699,36.51083,0.283],
    [44988,"urn:WaterMeter:MC0203J22010600005","2025-01-24T13:00:00",13,36.453457,0.283],
    [44989,"urn:WaterMeter:MC0203J22010600005","2025-01-24T13:15:00",13.1,36.43092,0.291],
    [44990,"urn:WaterMeter:MC0203J22010600005","2025-01-24T13:30:00",13.3,36.38131,0.282],
    [44991,"urn:WaterMeter:MC0203J22010600005","2025-01-24T13:45:00",13.399,36.307182,0.283],
    [44992,"urn:WaterMeter:MC0203J22010600005","2025-01-24T14:00:00",13.399,36.243603,0.29],
    [44993,"urn:WaterMeter:MC0203J22010600005","2025-01-24T14:15:00",13.5,36.22382,0.295],
    [44994,"urn:WaterMeter:MC0203J22010600005","2025-01-24T14:30:00",13.5,36.18348,0.284],
    [44995,"urn:WaterMeter:MC0203J22010600005","2025-01-24T14:45:00",13.5,36.167576,0.274],
    [44996,"urn:WaterMeter:MC0203J22010600005","2025-01-24T15:00:00",13.5,36.11366,0.291],
    [44997,"urn:WaterMeter:MC0203J22010600005","2025-01-24T15:15:00",13.5,36.057026,0.286],
    [44998,"urn:WaterMeter:MC0203J22010600005","2025-01-24T15:30:00",13.5,36.079136,0.268],
    [44999,"urn:WaterMeter:MC0203J22010600005","2025-01-24T15:45:00",13.6,35.999615,0.267],
    [45000,"urn:WaterMeter:MC0203J22010600005","2025-01-24T16:00:00",13.6,36.024403,0.272],
    [45001,"urn:WaterMeter:MC0203J22010600005","2025-01-24T16:15:00",13.6,35.918507,0.276],
    [45002,"urn:WaterMeter:MC0203J22010600005","2025-01-24T16:30:00",13.6,35.93829,0.267],
    [45003,"urn:WaterMeter:MC0203J22010600005","2025-01-24T16:45:00",13.6,35.936386,0.272],
    [45004,"urn:WaterMeter:MC0203J22010600005","2025-01-24T17:00:00",13.5,35.894108,0.303],
    [45005,"urn:WaterMeter:MC0203J22010600005","2025-01-24T17:15:00",13.3,35.889023,0.271],
    [45006,"urn:WaterMeter:MC0203J22010600005","2025-01-24T17:30:00",13.199,35.847557,0.274],
    [45007,"urn:WaterMeter:MC0203J22010600005","2025-01-24T17:45:00",13,35.84907,0.264],
    [45008,"urn:WaterMeter:MC0203J22010600005","2025-01-24T18:00:00",12.899,35.84907,0.289],
    [45009,"urn:WaterMeter:MC0203J22010600005","2025-01-24T18:15:00",12.699,35.868076,0.283],
    [45010,"urn:WaterMeter:MC0203J22010600005","2025-01-24T18:30:00",12.6,35.81575,0.284],
    [45011,"urn:WaterMeter:MC0203J22010600005","2025-01-24T18:45:00",12.399,35.82929,0.279],
    [45012,"urn:WaterMeter:MC0203J22010600005","2025-01-24T19:00:00",12.3,35.814587,0.269],
    [45013,"urn:WaterMeter:MC0203J22010600005","2025-01-24T19:15:00",12.199,35.827774,0.282],
    [45014,"urn:WaterMeter:MC0203J22010600005","2025-01-24T19:30:00",12,35.79364,0.285],
    [45015,"urn:WaterMeter:MC0203J22010600005","2025-01-24T19:45:00",11.899,35.766876,0.294],
    [45016,"urn:WaterMeter:MC0203J22010600005","2025-01-24T20:00:00",11.8,35.831615,0.273],
    [45017,"urn:WaterMeter:MC0203J22010600005","2025-01-24T20:15:00",11.699,35.779675,0.273],
    [45018,"urn:WaterMeter:MC0203J22010600005","2025-01-24T20:30:00",11.6,35.788986,0.267],
    [45019,"urn:WaterMeter:MC0203J22010600005","2025-01-24T20:45:00",11.5,35.74356,0.284],
    [45020,"urn:WaterMeter:MC0203J22010600005","2025-01-24T21:00:00",11.399,35.772266,0.267],
    [45021,"urn:WaterMeter:MC0203J22010600005","2025-01-24T21:15:00",11.3,35.73817,0.272],
    [45022,"urn:WaterMeter:MC0203J22010600005","2025-01-24T21:30:00",11.199,35.74903,0.277],
    [45023,"urn:WaterMeter:MC0203J22010600005","2025-01-24T21:45:00",11,35.77033,0.271],
    [45024,"urn:WaterMeter:MC0203J22010600005","2025-01-24T22:00:00",10.899,35.79791,0.279],
    [45025,"urn:WaterMeter:MC0203J22010600005","2025-01-24T22:15:00",10.899,35.76959,0.305],
    [45026,"urn:WaterMeter:MC0203J22010600005","2025-01-24T22:30:00",10.8,35.737007,0.274],
    [45027,"urn:WaterMeter:MC0203J22010600005","2025-01-24T22:45:00",10.699,35.77929,0.272],
    [45028,"urn:WaterMeter:MC0203J22010600005","2025-01-24T23:00:00",10.6,35.741272,0.281],
    [45029,"urn:WaterMeter:MC0203J22010600005","2025-01-24T23:15:00",10.5,35.734642,0.273],
    [45030,"urn:WaterMeter:MC0203J22010600005","2025-01-24T23:30:00",10.399,35.785496,0.314],
    [45031,"urn:WaterMeter:MC0203J22010600005","2025-01-24T23:45:00",10.3,35.741272,0.295],
    [45032,"urn:WaterMeter:MC0203J22010600005","2025-01-25T00:00:00",10.199,35.74434,0.297],
    [45033,"urn:WaterMeter:MC0203J22010600005","2025-01-25T00:15:00",10.1,35.784332,0.285],
    [45034,"urn:WaterMeter:MC0203J22010600005","2025-01-25T00:30:00",10,35.68076,0.283],
    [45035,"urn:WaterMeter:MC0203J22010600005","2025-01-25T00:45:00",9.899,35.77541,0.272],
    [45036,"urn:WaterMeter:MC0203J22010600005","2025-01-25T01:00:00",9.8,35.726147,0.275],
    [45037,"urn:WaterMeter:MC0203J22010600005","2025-01-25T01:15:00",9.8,35.74434,0.283],
    [45038,"urn:WaterMeter:MC0203J22010600005","2025-01-25T01:30:00",9.699,35.749805,0.274],
    [45039,"urn:WaterMeter:MC0203J22010600005","2025-01-25T01:45:00",9.6,35.737007,0.286],
    [45040,"urn:WaterMeter:MC0203J22010600005","2025-01-25T02:00:00",9.5,35.756012,0.265],
    [45041,"urn:WaterMeter:MC0203J22010600005","2025-01-25T02:15:00",9.5,35.739723,0.283],
    [45042,"urn:WaterMeter:MC0203J22010600005","2025-01-25T02:30:00",9.399,35.71063,0.282],
    [45043,"urn:WaterMeter:MC0203J22010600005","2025-01-25T02:45:00",9.3,35.71447,0.266],
    [45044,"urn:WaterMeter:MC0203J22010600005","2025-01-25T03:00:00",9.199,35.72494,0.272],
    [45045,"urn:WaterMeter:MC0203J22010600005","2025-01-25T03:15:00",9.199,35.677658,0.267],
    [45046,"urn:WaterMeter:MC0203J22010600005","2025-01-25T03:30:00",9.1,35.712917,0.277],
    [45047,"urn:WaterMeter:MC0203J22010600005","2025-01-25T03:45:00",9,35.731926,0.278],
    [45048,"urn:WaterMeter:MC0203J22010600005","2025-01-25T04:00:00",8.899,35.709854,0.279],
    [45049,"urn:WaterMeter:MC0203J22010600005","2025-01-25T04:15:00",8.899,35.693523,0.271],
    [45050,"urn:WaterMeter:MC0203J22010600005","2025-01-25T04:30:00",8.8,35.66796,0.277],
    [45051,"urn:WaterMeter:MC0203J22010600005","2025-01-25T04:45:00",8.699,35.673004,0.283],
    [45052,"urn:WaterMeter:MC0203J22010600005","2025-01-25T05:00:00",8.699,35.701706,0.272],
    [45053,"urn:WaterMeter:MC0203J22010600005","2025-01-25T05:15:00",8.6,35.693913,0.27],
    [45054,"urn:WaterMeter:MC0203J22010600005","2025-01-25T05:30:00",8.5,35.693134,0.288],
    [45055,"urn:WaterMeter:MC0203J22010600005","2025-01-25T05:45:00",8.5,35.653606,0.27],
    [45056,"urn:WaterMeter:MC0203J22010600005","2025-01-25T06:00:00",8.399,35.698215,0.278],
    [45057,"urn:WaterMeter:MC0203J22010600005","2025-01-25T06:15:00",8.3,35.669514,0.271],
    [45058,"urn:WaterMeter:MC0203J22010600005","2025-01-25T06:30:00",8.3,35.696667,0.268],
    [45059,"urn:WaterMeter:MC0203J22010600005","2025-01-25T06:45:00",8.199,35.680374,0.283],
    [45060,"urn:WaterMeter:MC0203J22010600005","2025-01-25T07:00:00",8.199,35.68852,0.262],
    [45061,"urn:WaterMeter:MC0203J22010600005","2025-01-25T07:15:00",8.1,35.654346,0.282],
    [45062,"urn:WaterMeter:MC0203J22010600005","2025-01-25T07:30:00",8.1,35.68464,0.28],
    [45063,"urn:WaterMeter:MC0203J22010600005","2025-01-25T07:45:00",8.1,35.648952,0.282],
    [45064,"urn:WaterMeter:MC0203J22010600005","2025-01-25T08:00:00",8.1,35.663692,0.265],
    [45065,"urn:WaterMeter:MC0203J22010600005","2025-01-25T08:15:00",8.1,35.650116,0.271],
    [45066,"urn:WaterMeter:MC0203J22010600005","2025-01-25T08:30:00",8.199,35.657448,0.276],
    [45067,"urn:WaterMeter:MC0203J22010600005","2025-01-25T08:45:00",8.3,35.64973,0.277],
    [45068,"urn:WaterMeter:MC0203J22010600005","2025-01-25T09:00:00",8.5,35.624516,0.261],
    [45069,"urn:WaterMeter:MC0203J22010600005","2025-01-25T09:15:00",8.899,35.64042,0.277],
    [45070,"urn:WaterMeter:MC0203J22010600005","2025-01-25T09:30:00",9.199,35.580296,0.264],
    [45071,"urn:WaterMeter:MC0203J22010600005","2025-01-25T09:45:00",9.399,35.602406,0.273],
    [45072,"urn:WaterMeter:MC0203J22010600005","2025-01-25T10:00:00",9.6,35.548874,0.266],
    [45073,"urn:WaterMeter:MC0203J22010600005","2025-01-25T10:15:00",9.699,35.571762,0.283],
    [45074,"urn:WaterMeter:MC0203J22010600005","2025-01-25T10:30:00",9.8,35.55,0.284],
    [45075,"urn:WaterMeter:MC0203J22010600005","2025-01-25T10:45:00",10,35.50737,0.282],
    [45076,"urn:WaterMeter:MC0203J22010600005","2025-01-25T11:00:00",10.3,35.56633,0.264],
    [45077,"urn:WaterMeter:MC0203J22010600005","2025-01-25T11:15:00",10.5,35.482506,0.26],
    [45078,"urn:WaterMeter:MC0203J22010600005","2025-01-25T11:30:00",10.6,35.48526,0.258],
    [45079,"urn:WaterMeter:MC0203J22010600005","2025-01-25T11:45:00",10.6,35.404926,0.27],
    [45080,"urn:WaterMeter:MC0203J22010600005","2025-01-25T12:00:00",10.699,35.4294,0.265],
    [45081,"urn:WaterMeter:MC0203J22010600005","2025-01-25T12:15:00",10.899,35.42552,0.257],
    [45082,"urn:WaterMeter:MC0203J22010600005","2025-01-25T12:30:00",11.1,35.37277,0.266],
    [45083,"urn:WaterMeter:MC0203J22010600005","2025-01-25T12:45:00",11.399,35.325794,0.265],
    [45084,"urn:WaterMeter:MC0203J22010600005","2025-01-25T13:00:00",11.6,35.300617,0.284],
    [45085,"urn:WaterMeter:MC0203J22010600005","2025-01-25T13:15:00",11.899,35.285103,0.276],
    [45086,"urn:WaterMeter:MC0203J22010600005","2025-01-25T13:30:00",12,35.262993,0.257],
    [45087,"urn:WaterMeter:MC0203J22010600005","2025-01-25T13:45:00",12.1,35.22106,0.266],
    [45088,"urn:WaterMeter:MC0203J22010600005","2025-01-25T14:00:00",12.199,35.159035,0.262],
    [45089,"urn:WaterMeter:MC0203J22010600005","2025-01-25T14:15:00",12.199,35.111286,0.264],
    [45090,"urn:WaterMeter:MC0203J22010600005","2025-01-25T14:30:00",12.3,35.105118,0.255],
    [45091,"urn:WaterMeter:MC0203J22010600005","2025-01-25T14:45:00",12.3,35.126064,0.258],
    [45092,"urn:WaterMeter:MC0203J22010600005","2025-01-25T15:00:00",12.399,35.096195,0.262],
    [45093,"urn:WaterMeter:MC0203J22010600005","2025-01-25T15:15:00",12.399,35.01625,0.268],
    [45094,"urn:WaterMeter:MC0203J22010600005","2025-01-25T15:30:00",12.399,35.05663,0.275],
    [45095,"urn:WaterMeter:MC0203J22010600005","2025-01-25T15:45:00",12.399,35.037235,0.255],
    [45096,"urn:WaterMeter:MC0203J22010600005","2025-01-25T16:00:00",12.399,35.051586,0.266],
    [45097,"urn:WaterMeter:MC0203J22010600005","2025-01-25T16:15:00",12.3,35.03801,0.267],
    [45098,"urn:WaterMeter:MC0203J22010600005","2025-01-25T16:30:00",12.3,35.005814,0.281],
    [45099,"urn:WaterMeter:MC0203J22010600005","2025-01-25T16:45:00",12.199,34.965862,0.265],
    [45100,"urn:WaterMeter:MC0203J22010600005","2025-01-25T17:00:00",12.1,35.020943,0.276],
    [45101,"urn:WaterMeter:MC0203J22010600005","2025-01-25T17:15:00",12,35.020554,0.279],
    [45102,"urn:WaterMeter:MC0203J22010600005","2025-01-25T17:30:00",12,35.033318,0.258],
    [45103,"urn:WaterMeter:MC0203J22010600005","2025-01-25T17:45:00",11.899,34.935993,0.28],
    [45104,"urn:WaterMeter:MC0203J22010600005","2025-01-25T18:00:00",11.8,34.957676,0.262],
    [45105,"urn:WaterMeter:MC0203J22010600005","2025-01-25T18:15:00",11.699,35.007717,0.259],
    [45106,"urn:WaterMeter:MC0203J22010600005","2025-01-25T18:30:00",11.6,35.003487,0.275],
    [45107,"urn:WaterMeter:MC0203J22010600005","2025-01-25T18:45:00",11.5,34.992626,0.269],
    [45108,"urn:WaterMeter:MC0203J22010600005","2025-01-25T19:00:00",11.5,35.00155,0.259],
    [45109,"urn:WaterMeter:MC0203J22010600005","2025-01-25T19:15:00",11.399,34.96121,0.29],
    [45110,"urn:WaterMeter:MC0203J22010600005","2025-01-25T19:30:00",11.3,34.975132,0.266],
    [45111,"urn:WaterMeter:MC0203J22010600005","2025-01-25T19:45:00",11.199,34.950344,0.267],
    [45112,"urn:WaterMeter:MC0203J22010600005","2025-01-25T20:00:00",11.199,34.96082,0.269],
    [45113,"urn:WaterMeter:MC0203J22010600005","2025-01-25T20:15:00",11.1,34.99069,0.278],
    [45114,"urn:WaterMeter:MC0203J22010600005","2025-01-25T20:30:00",11.1,35.01241,0.274],
    [45115,"urn:WaterMeter:MC0203J22010600005","2025-01-25T20:45:00",11,34.984867,0.273],
    [45116,"urn:WaterMeter:MC0203J22010600005","2025-01-25T21:00:00",10.899,35.001938,0.279],
    [45117,"urn:WaterMeter:MC0203J22010600005","2025-01-25T21:15:00",10.899,34.94763,0.265],
    [45118,"urn:WaterMeter:MC0203J22010600005","2025-01-25T21:30:00",10.8,34.98677,0.274],
    [45119,"urn:WaterMeter:MC0203J22010600005","2025-01-25T21:45:00",10.8,34.98448,0.278],
    [45120,"urn:WaterMeter:MC0203J22010600005","2025-01-25T22:00:00",10.699,35.03103,0.262],
    [45121,"urn:WaterMeter:MC0203J22010600005","2025-01-25T22:15:00",10.6,35.00694,0.264],
    [45122,"urn:WaterMeter:MC0203J22010600005","2025-01-25T22:30:00",10.5,34.981766,0.28],
    [45123,"urn:WaterMeter:MC0203J22010600005","2025-01-25T22:45:00",10.5,35.025948,0.257],
    [45124,"urn:WaterMeter:MC0203J22010600005","2025-01-25T23:00:00",10.399,34.976295,0.274],
    [45125,"urn:WaterMeter:MC0203J22010600005","2025-01-25T23:15:00",10.3,34.9569,0.266],
    [45126,"urn:WaterMeter:MC0203J22010600005","2025-01-25T23:30:00",10.3,34.9903,0.277],
    [45127,"urn:WaterMeter:MC0203J22010600005","2025-01-25T23:45:00",10.199,34.999996,0.278],
    [45128,"urn:WaterMeter:MC0203J22010600005","2025-01-26T00:00:00",10.199,34.958454,0.259],
    [45129,"urn:WaterMeter:MC0203J22010600005","2025-01-26T00:15:00",10.199,35.027924,0.272],
    [45130,"urn:WaterMeter:MC0203J22010600005","2025-01-26T00:30:00",10.1,35.014698,0.274],
    [45131,"urn:WaterMeter:MC0203J22010600005","2025-01-26T00:45:00",10.1,34.98099,0.237],
    [45132,"urn:WaterMeter:MC0203J22010600005","2025-01-26T01:00:00",10,35.0128,0.272],
    [45133,"urn:WaterMeter:MC0203J22010600005","2025-01-26T01:15:00",9.899,35.013184,0.265],
    [45134,"urn:WaterMeter:MC0203J22010600005","2025-01-26T01:30:00",9.8,35.03801,0.259],
    [45135,"urn:WaterMeter:MC0203J22010600005","2025-01-26T01:45:00",9.699,35.024048,0.285],
    [45136,"urn:WaterMeter:MC0203J22010600005","2025-01-26T02:00:00",9.6,35.007328,0.261],
    [45137,"urn:WaterMeter:MC0203J22010600005","2025-01-26T02:15:00",9.5,34.98677,0.257],
    [45138,"urn:WaterMeter:MC0203J22010600005","2025-01-26T02:30:00",9.399,35.009308,0.278],
    [45139,"urn:WaterMeter:MC0203J22010600005","2025-01-26T02:45:00",9.3,35.032192,0.261],
    [45140,"urn:WaterMeter:MC0203J22010600005","2025-01-26T03:00:00",9.3,34.992626,0.262],
    [45141,"urn:WaterMeter:MC0203J22010600005","2025-01-26T03:15:00",9.199,35.046505,0.271],
    [45142,"urn:WaterMeter:MC0203J22010600005","2025-01-26T03:30:00",9.1,34.979824,0.26],
    [45143,"urn:WaterMeter:MC0203J22010600005","2025-01-26T03:45:00",9.1,35.034092,0.26],
    [45144,"urn:WaterMeter:MC0203J22010600005","2025-01-26T04:00:00",9,35.007717,0.268],
    [45145,"urn:WaterMeter:MC0203J22010600005","2025-01-26T04:15:00",9,34.98448,0.274],
    [45146,"urn:WaterMeter:MC0203J22010600005","2025-01-26T04:30:00",8.899,35.003487,0.276],
    [45147,"urn:WaterMeter:MC0203J22010600005","2025-01-26T04:45:00",8.8,35.03064,0.265],
    [45148,"urn:WaterMeter:MC0203J22010600005","2025-01-26T05:00:00",8.8,35.02754,0.26],
    [45149,"urn:WaterMeter:MC0203J22010600005","2025-01-26T05:15:00",8.699,35.017025,0.255],
    [45150,"urn:WaterMeter:MC0203J22010600005","2025-01-26T05:30:00",8.699,35.017414,0.269],
    [45151,"urn:WaterMeter:MC0203J22010600005","2025-01-26T05:45:00",8.6,35.02017,0.264],
    [45152,"urn:WaterMeter:MC0203J22010600005","2025-01-26T06:00:00",8.5,35.024048,0.272],
    [45153,"urn:WaterMeter:MC0203J22010600005","2025-01-26T06:15:00",8.399,35.016636,0.27],
    [45154,"urn:WaterMeter:MC0203J22010600005","2025-01-26T06:30:00",8.399,35.031803,0.264],
    [45155,"urn:WaterMeter:MC0203J22010600005","2025-01-26T06:45:00",8.3,35.024822,0.261],
    [45156,"urn:WaterMeter:MC0203J22010600005","2025-01-26T07:00:00",8.3,35.024822,0.273],
    [45157,"urn:WaterMeter:MC0203J22010600005","2025-01-26T07:15:00",8.199,35.039173,0.263],
    [45158,"urn:WaterMeter:MC0203J22010600005","2025-01-26T07:30:00",8.199,35.033707,0.262],
    [45159,"urn:WaterMeter:MC0203J22010600005","2025-01-26T07:45:00",8.199,35.013573,0.275],
    [45160,"urn:WaterMeter:MC0203J22010600005","2025-01-26T08:00:00",8.199,35.041115,0.262],
    [45161,"urn:WaterMeter:MC0203J22010600005","2025-01-26T08:15:00",8.199,35.060898,0.26],
    [45162,"urn:WaterMeter:MC0203J22010600005","2025-01-26T08:30:00",8.199,35.04965,0.268],
    [45163,"urn:WaterMeter:MC0203J22010600005","2025-01-26T08:45:00",8.3,35.03995,0.266],
    [45164,"urn:WaterMeter:MC0203J22010600005","2025-01-26T09:00:00",8.5,34.974396,0.266],
    [45165,"urn:WaterMeter:MC0203J22010600005","2025-01-26T09:15:00",8.8,34.99185,0.257],
    [45166,"urn:WaterMeter:MC0203J22010600005","2025-01-26T09:30:00",9.1,34.972454,0.264],
    [45167,"urn:WaterMeter:MC0203J22010600005","2025-01-26T09:45:00",9.399,34.98603,0.257],
    [45168,"urn:WaterMeter:MC0203J22010600005","2025-01-26T10:00:00",9.8,34.947243,0.26],
    [45169,"urn:WaterMeter:MC0203J22010600005","2025-01-26T10:15:00",10.1,34.920437,0.26],
    [45170,"urn:WaterMeter:MC0203J22010600005","2025-01-26T10:30:00",10.3,34.852554,0.255],
    [45171,"urn:WaterMeter:MC0203J22010600005","2025-01-26T10:45:00",10.5,34.830482,0.258],
    [45172,"urn:WaterMeter:MC0203J22010600005","2025-01-26T11:00:00",10.5,34.82971,0.261],
    [45173,"urn:WaterMeter:MC0203J22010600005","2025-01-26T11:15:00",10.699,34.830482,0.25],
    [45174,"urn:WaterMeter:MC0203J22010600005","2025-01-26T11:30:00",10.8,34.707092,0.264],
    [45175,"urn:WaterMeter:MC0203J22010600005","2025-01-26T11:45:00",10.899,34.71877,0.259],
    [45176,"urn:WaterMeter:MC0203J22010600005","2025-01-26T12:00:00",11,34.69976,0.261],
    [45177,"urn:WaterMeter:MC0203J22010600005","2025-01-26T12:15:00",11.199,34.68114,0.255],
    [45178,"urn:WaterMeter:MC0203J22010600005","2025-01-26T12:30:00",11.3,34.612873,0.271],
    [45179,"urn:WaterMeter:MC0203J22010600005","2025-01-26T12:45:00",11.3,34.635757,0.265],
    [45180,"urn:WaterMeter:MC0203J22010600005","2025-01-26T13:00:00",11.399,34.672222,0.256],
    [45181,"urn:WaterMeter:MC0203J22010600005","2025-01-26T13:15:00",11.5,34.60779,0.256],
    [45182,"urn:WaterMeter:MC0203J22010600005","2025-01-26T13:30:00",11.699,34.5446,0.25],
    [45183,"urn:WaterMeter:MC0203J22010600005","2025-01-26T13:45:00",11.8,34.512367,0.262],
    [45184,"urn:WaterMeter:MC0203J22010600005","2025-01-26T14:00:00",11.8,34.55077,0.254],
    [45185,"urn:WaterMeter:MC0203J22010600005","2025-01-26T14:15:00",11.899,34.511593,0.268],
    [45186,"urn:WaterMeter:MC0203J22010600005","2025-01-26T14:30:00",12,34.52676,0.247],
    [45187,"urn:WaterMeter:MC0203J22010600005","2025-01-26T14:45:00",12,34.42668,0.25],
    [45188,"urn:WaterMeter:MC0203J22010600005","2025-01-26T15:00:00",12,34.45616,0.256],
    [45189,"urn:WaterMeter:MC0203J22010600005","2025-01-26T15:15:00",12.1,34.44336,0.265],
    [45190,"urn:WaterMeter:MC0203J22010600005","2025-01-26T15:30:00",12.1,34.38052,0.263],
    [45191,"urn:WaterMeter:MC0203J22010600005","2025-01-26T15:45:00",12.199,34.371597,0.261],
    [45192,"urn:WaterMeter:MC0203J22010600005","2025-01-26T16:00:00",12.199,34.353367,0.267],
    [45193,"urn:WaterMeter:MC0203J22010600005","2025-01-26T16:15:00",12.199,34.36229,0.261],
    [45194,"urn:WaterMeter:MC0203J22010600005","2025-01-26T16:30:00",12.199,34.38013,0.253],
    [45195,"urn:WaterMeter:MC0203J22010600005","2025-01-26T16:45:00",12.1,34.35682,0.281],
    [45196,"urn:WaterMeter:MC0203J22010600005","2025-01-26T17:00:00",12.1,34.349102,0.257],
    [45197,"urn:WaterMeter:MC0203J22010600005","2025-01-26T17:15:00",12,34.32195,0.265],
    [45198,"urn:WaterMeter:MC0203J22010600005","2025-01-26T17:30:00",12,34.312637,0.263],
    [45199,"urn:WaterMeter:MC0203J22010600005","2025-01-26T17:45:00",11.899,34.32117,0.274],
    [45200,"urn:WaterMeter:MC0203J22010600005","2025-01-26T18:00:00",11.8,34.31962,0.272],
    [45201,"urn:WaterMeter:MC0203J22010600005","2025-01-26T18:15:00",11.699,34.336647,0.25],
    [45202,"urn:WaterMeter:MC0203J22010600005","2025-01-26T18:30:00",11.6,34.32156,0.252],
    [45203,"urn:WaterMeter:MC0203J22010600005","2025-01-26T18:45:00",11.6,34.290916,0.269],
    [45204,"urn:WaterMeter:MC0203J22010600005","2025-01-26T19:00:00",11.5,34.288548,0.257],
    [45205,"urn:WaterMeter:MC0203J22010600005","2025-01-26T19:15:00",11.399,34.32773,0.26],
    [45206,"urn:WaterMeter:MC0203J22010600005","2025-01-26T19:30:00",11.399,34.335873,0.251],
    [45207,"urn:WaterMeter:MC0203J22010600005","2025-01-26T19:45:00",11.3,34.309494,0.257],
    [45208,"urn:WaterMeter:MC0203J22010600005","2025-01-26T20:00:00",11.3,34.27152,0.268],
    [45209,"urn:WaterMeter:MC0203J22010600005","2025-01-26T20:15:00",11.199,34.324276,0.255],
    [45210,"urn:WaterMeter:MC0203J22010600005","2025-01-26T20:30:00",11.199,34.32156,0.259],
    [45211,"urn:WaterMeter:MC0203J22010600005","2025-01-26T20:45:00",11.1,34.258682,0.27],
    [45212,"urn:WaterMeter:MC0203J22010600005","2025-01-26T21:00:00",11,34.3157,0.269],
    [45213,"urn:WaterMeter:MC0203J22010600005","2025-01-26T21:15:00",11,34.26182,0.269],
    [45214,"urn:WaterMeter:MC0203J22010600005","2025-01-26T21:30:00",10.899,34.315353,0.261],
    [45215,"urn:WaterMeter:MC0203J22010600005","2025-01-26T21:45:00",10.899,34.269543,0.257],
    [45216,"urn:WaterMeter:MC0203J22010600005","2025-01-26T22:00:00",10.8,34.27346,0.262],
    [45217,"urn:WaterMeter:MC0203J22010600005","2025-01-26T22:15:00",10.8,34.294407,0.252],
    [45218,"urn:WaterMeter:MC0203J22010600005","2025-01-26T22:30:00",10.699,34.2754,0.261],
    [45219,"urn:WaterMeter:MC0203J22010600005","2025-01-26T22:45:00",10.699,34.299023,0.258],
    [45220,"urn:WaterMeter:MC0203J22010600005","2025-01-26T23:00:00",10.6,34.288937,0.253],
    [45221,"urn:WaterMeter:MC0203J22010600005","2025-01-26T23:15:00",10.6,34.285484,0.255],
    [45222,"urn:WaterMeter:MC0203J22010600005","2025-01-26T23:30:00",10.5,34.31225,0.259],
    [45223,"urn:WaterMeter:MC0203J22010600005","2025-01-26T23:45:00",10.5,34.253677,0.258],
    [45224,"urn:WaterMeter:MC0203J22010600005","2025-01-27T00:00:00",10.399,34.26609,0.262],
    [45225,"urn:WaterMeter:MC0203J22010600005","2025-01-27T00:15:00",10.399,34.285873,0.263],
    [45226,"urn:WaterMeter:MC0203J22010600005","2025-01-27T00:30:00",10.399,34.261436,0.265],
    [45227,"urn:WaterMeter:MC0203J22010600005","2025-01-27T00:45:00",10.399,34.334747,0.268],
    [45228,"urn:WaterMeter:MC0203J22010600005","2025-01-27T01:00:00",10.399,34.278465,0.258],
    [45229,"urn:WaterMeter:MC0203J22010600005","2025-01-27T01:15:00",10.3,34.272297,0.248],
    [45230,"urn:WaterMeter:MC0203J22010600005","2025-01-27T01:30:00",10.3,34.25484,0.264],
    [45231,"urn:WaterMeter:MC0203J22010600005","2025-01-27T01:45:00",10.3,34.292854,0.254],
    [45232,"urn:WaterMeter:MC0203J22010600005","2025-01-27T02:00:00",10.399,34.27885,0.264],
    [45233,"urn:WaterMeter:MC0203J22010600005","2025-01-27T02:15:00",10.6,34.28626,0.255],
    [45234,"urn:WaterMeter:MC0203J22010600005","2025-01-27T02:30:00",10.8,34.27385,0.255],
    [45235,"urn:WaterMeter:MC0203J22010600005","2025-01-27T02:45:00",10.899,34.239674,0.256],
    [45236,"urn:WaterMeter:MC0203J22010600005","2025-01-27T03:00:00",11,34.23467,0.266],
    [45237,"urn:WaterMeter:MC0203J22010600005","2025-01-27T03:30:00",11.199,34.20325,0.249],
    [45238,"urn:WaterMeter:MC0203J22010600005","2025-01-27T03:45:00",11.3,34.244755,0.27],
    [45239,"urn:WaterMeter:MC0203J22010600005","2025-01-27T04:00:00",11.3,34.17532,0.259],
    [45240,"urn:WaterMeter:MC0203J22010600005","2025-01-27T04:15:00",11.3,34.228462,0.254],
    [45241,"urn:WaterMeter:MC0203J22010600005","2025-01-27T04:30:00",11.3,34.20713,0.254],
    [45242,"urn:WaterMeter:MC0203J22010600005","2025-01-27T04:45:00",11.3,34.17218,0.252],
    [45243,"urn:WaterMeter:MC0203J22010600005","2025-01-27T05:00:00",11.3,34.186184,0.256],
    [45244,"urn:WaterMeter:MC0203J22010600005","2025-01-27T05:15:00",11.3,34.1086,0.258],
    [45245,"urn:WaterMeter:MC0203J22010600005","2025-01-27T05:30:00",11.3,34.1311,0.256],
    [45246,"urn:WaterMeter:MC0203J22010600005","2025-01-27T05:45:00",11.399,34.383625,0.266],
    [45247,"urn:WaterMeter:MC0203J22010600005","2025-01-27T06:00:00",11.5,35.203644,0.277],
    [45248,"urn:WaterMeter:MC0203J22010600005","2025-01-27T06:15:00",11.6,36.0803,0.291],
    [45249,"urn:WaterMeter:MC0203J22010600005","2025-01-27T06:30:00",11.699,36.740078,0.29],
    [45250,"urn:WaterMeter:MC0203J22010600005","2025-01-27T06:45:00",11.699,37.18655,0.298],
    [45251,"urn:WaterMeter:MC0203J22010600005","2025-01-27T07:00:00",11.699,37.51704,0.313],
    [45252,"urn:WaterMeter:MC0203J22010600005","2025-01-27T07:15:00",11.699,37.685818,0.289],
    [45253,"urn:WaterMeter:MC0203J22010600005","2025-01-27T07:30:00",11.699,37.887486,0.294],
    [45254,"urn:WaterMeter:MC0203J22010600005","2025-01-27T07:45:00",11.699,38.06596,0.318],
    [45255,"urn:WaterMeter:MC0203J22010600005","2025-01-27T08:00:00",11.699,38.16953,0.306],
    [45256,"urn:WaterMeter:MC0203J22010600005","2025-01-27T08:15:00",11.699,37.920494,0.302],
    [45257,"urn:WaterMeter:MC0203J22010600005","2025-01-27T08:30:00",11.6,37.590782,0.31],
    [45258,"urn:WaterMeter:MC0203J22010600005","2025-01-27T08:45:00",11.699,37.48178,0.311],
    [45259,"urn:WaterMeter:MC0203J22010600005","2025-01-27T09:00:00",11.699,37.29908,0.297],
    [45260,"urn:WaterMeter:MC0203J22010600005","2025-01-27T09:15:00",11.8,37.08457,0.297],
    [45261,"urn:WaterMeter:MC0203J22010600005","2025-01-27T09:30:00",12,37.02716,0.283],
    [45262,"urn:WaterMeter:MC0203J22010600005","2025-01-27T09:45:00",12.3,36.88519,0.293],
    [45263,"urn:WaterMeter:MC0203J22010600005","2025-01-27T10:00:00",12.699,36.74163,0.293],
    [45264,"urn:WaterMeter:MC0203J22010600005","2025-01-27T10:15:00",13.1,36.71529,0.282],
    [45265,"urn:WaterMeter:MC0203J22010600005","2025-01-27T10:30:00",13.399,36.57526,0.274],
    [45266,"urn:WaterMeter:MC0203J22010600005","2025-01-27T10:45:00",13.699,36.475567,0.276],
    [45267,"urn:WaterMeter:MC0203J22010600005","2025-01-27T11:00:00",14,36.448803,0.275],
    [45268,"urn:WaterMeter:MC0203J22010600005","2025-01-27T11:15:00",14.3,36.380146,0.266],
    [45269,"urn:WaterMeter:MC0203J22010600005","2025-01-27T11:30:00",14.5,36.244766,0.272],
    [45270,"urn:WaterMeter:MC0203J22010600005","2025-01-27T11:45:00",14.699,36.21335,0.266],
    [45271,"urn:WaterMeter:MC0203J22010600005","2025-01-27T12:00:00",14.899,36.07215,0.278],
    [45272,"urn:WaterMeter:MC0203J22010600005","2025-01-27T12:15:00",15,36.027542,0.273],
    [45273,"urn:WaterMeter:MC0203J22010600005","2025-01-27T12:30:00",15.1,35.96005,0.268],
    [45274,"urn:WaterMeter:MC0203J22010600005","2025-01-27T12:45:00",15.199,35.866177,0.285],
    [45275,"urn:WaterMeter:MC0203J22010600005","2025-01-27T13:00:00",15.5,35.806828,0.286],
    [45276,"urn:WaterMeter:MC0203J22010600005","2025-01-27T13:15:00",15.699,35.734642,0.263],
    [45277,"urn:WaterMeter:MC0203J22010600005","2025-01-27T13:30:00",15.899,35.695076,0.272],
    [45278,"urn:WaterMeter:MC0203J22010600005","2025-01-27T13:45:00",16.1,35.628357,0.265],
    [45279,"urn:WaterMeter:MC0203J22010600005","2025-01-27T14:00:00",16.2,35.623352,0.266],
    [45280,"urn:WaterMeter:MC0203J22010600005","2025-01-27T14:15:00",16.399,35.58107,0.272],
    [45281,"urn:WaterMeter:MC0203J22010600005","2025-01-27T14:30:00",16.399,35.516678,0.284],
    [45282,"urn:WaterMeter:MC0203J22010600005","2025-01-27T14:45:00",16.5,35.458496,0.262],
    [45283,"urn:WaterMeter:MC0203J22010600005","2025-01-27T15:00:00",16.6,35.441,0.278],
    [45284,"urn:WaterMeter:MC0203J22010600005","2025-01-27T15:15:00",16.6,35.414234,0.264],
    [45285,"urn:WaterMeter:MC0203J22010600005","2025-01-27T15:30:00",16.5,35.415825,0.281],
    [45286,"urn:WaterMeter:MC0203J22010600005","2025-01-27T15:45:00",16.5,35.38751,0.277],
    [45287,"urn:WaterMeter:MC0203J22010600005","2025-01-27T16:00:00",16.399,35.363033,0.272],
    [45288,"urn:WaterMeter:MC0203J22010600005","2025-01-27T16:15:00",16.399,35.34096,0.265],
    [45289,"urn:WaterMeter:MC0203J22010600005","2025-01-27T16:30:00",16.299,35.32079,0.287],
    [45290,"urn:WaterMeter:MC0203J22010600005","2025-01-27T16:45:00",16.299,35.28394,0.268],
    [45291,"urn:WaterMeter:MC0203J22010600005","2025-01-27T17:00:00",16.2,35.292473,0.318],
    [45292,"urn:WaterMeter:MC0203J22010600005","2025-01-27T17:15:00",16.1,35.236614,0.285],
    [45293,"urn:WaterMeter:MC0203J22010600005","2025-01-27T17:30:00",16,35.212566,0.271],
    [45294,"urn:WaterMeter:MC0203J22010600005","2025-01-27T17:45:00",15.899,35.169083,0.283],
    [45295,"urn:WaterMeter:MC0203J22010600005","2025-01-27T18:00:00",15.8,35.26571,0.281],
    [45296,"urn:WaterMeter:MC0203J22010600005","2025-01-27T18:15:00",15.8,35.18774,0.276],
    [45297,"urn:WaterMeter:MC0203J22010600005","2025-01-27T18:30:00",15.699,35.178432,0.269],
    [45298,"urn:WaterMeter:MC0203J22010600005","2025-01-27T18:45:00",15.6,35.159035,0.288],
    [45299,"urn:WaterMeter:MC0203J22010600005","2025-01-27T19:00:00",15.5,35.18227,0.273],
    [45300,"urn:WaterMeter:MC0203J22010600005","2025-01-27T19:15:00",15.399,35.155933,0.278],
    [45301,"urn:WaterMeter:MC0203J22010600005","2025-01-27T19:30:00",15.399,35.197437,0.286],
    [45302,"urn:WaterMeter:MC0203J22010600005","2025-01-27T19:45:00",15.3,35.186577,0.269],
    [45303,"urn:WaterMeter:MC0203J22010600005","2025-01-27T20:00:00",15.3,35.13421,0.286],
    [45304,"urn:WaterMeter:MC0203J22010600005","2025-01-27T20:15:00",15.199,35.159035,0.288],
    [45305,"urn:WaterMeter:MC0203J22010600005","2025-01-27T20:30:00",15.1,35.18227,0.269],
    [45306,"urn:WaterMeter:MC0203J22010600005","2025-01-27T20:45:00",15,35.1602,0.272],
    [45307,"urn:WaterMeter:MC0203J22010600005","2025-01-27T21:00:00",14.899,35.09891,0.278],
    [45308,"urn:WaterMeter:MC0203J22010600005","2025-01-27T21:15:00",14.8,35.1474,0.275],
    [45309,"urn:WaterMeter:MC0203J22010600005","2025-01-27T21:30:00",14.699,35.134987,0.277],
    [45310,"urn:WaterMeter:MC0203J22010600005","2025-01-27T21:45:00",14.6,35.133007,0.273],
    [45311,"urn:WaterMeter:MC0203J22010600005","2025-01-27T22:00:00",14.399,35.10861,0.268],
    [45312,"urn:WaterMeter:MC0203J22010600005","2025-01-27T22:15:00",14.3,35.120247,0.27],
    [45313,"urn:WaterMeter:MC0203J22010600005","2025-01-27T22:30:00",14.3,35.107834,0.275],
    [45314,"urn:WaterMeter:MC0203J22010600005","2025-01-27T22:45:00",14.199,35.142704,0.283],
    [45315,"urn:WaterMeter:MC0203J22010600005","2025-01-27T23:00:00",14.199,35.08029,0.28],
    [45316,"urn:WaterMeter:MC0203J22010600005","2025-01-27T23:15:00",14.1,35.065903,0.276],
    [45317,"urn:WaterMeter:MC0203J22010600005","2025-01-27T23:30:00",14,35.105892,0.273],
    [45318,"urn:WaterMeter:MC0203J22010600005","2025-01-27T23:45:00",14,35.031803,0.279],
    [45319,"urn:WaterMeter:MC0203J22010600005","2025-01-28T00:00:00",13.899,35.127617,0.27],
    [45320,"urn:WaterMeter:MC0203J22010600005","2025-01-28T00:15:00",13.8,35.0756,0.26],
    [45321,"urn:WaterMeter:MC0203J22010600005","2025-01-28T00:30:00",13.699,35.084908,0.271],
    [45322,"urn:WaterMeter:MC0203J22010600005","2025-01-28T00:45:00",13.6,35.048874,0.277],
    [45323,"urn:WaterMeter:MC0203J22010600005","2025-01-28T01:00:00",13.6,35.0128,0.27],
    [45324,"urn:WaterMeter:MC0203J22010600005","2025-01-28T01:15:00",13.5,35.070984,0.265],
    [45325,"urn:WaterMeter:MC0203J22010600005","2025-01-28T01:30:00",13.5,35.00694,0.267],
    [45326,"urn:WaterMeter:MC0203J22010600005","2025-01-28T01:45:00",13.399,34.995304,0.276],
    [45327,"urn:WaterMeter:MC0203J22010600005","2025-01-28T02:00:00",13.3,35.063225,0.282],
    [45328,"urn:WaterMeter:MC0203J22010600005","2025-01-28T02:15:00",13.199,35.03487,0.272],
    [45329,"urn:WaterMeter:MC0203J22010600005","2025-01-28T02:30:00",13.1,35.037235,0.28],
    [45330,"urn:WaterMeter:MC0203J22010600005","2025-01-28T02:45:00",13,34.982155,0.278],
    [45331,"urn:WaterMeter:MC0203J22010600005","2025-01-28T03:00:00",12.899,34.97905,0.28],
    [45332,"urn:WaterMeter:MC0203J22010600005","2025-01-28T03:15:00",12.8,34.949142,0.278],
    [45333,"urn:WaterMeter:MC0203J22010600005","2025-01-28T03:30:00",12.699,34.978622,0.271],
    [45334,"urn:WaterMeter:MC0203J22010600005","2025-01-28T03:45:00",12.6,34.956123,0.269],
    [45335,"urn:WaterMeter:MC0203J22010600005","2025-01-28T04:00:00",12.5,34.962757,0.264],
    [45336,"urn:WaterMeter:MC0203J22010600005","2025-01-28T04:15:00",12.399,35.01625,0.275],
    [45337,"urn:WaterMeter:MC0203J22010600005","2025-01-28T04:30:00",12.3,34.966637,0.274],
    [45338,"urn:WaterMeter:MC0203J22010600005","2025-01-28T04:45:00",12.3,34.92397,0.266],
    [45339,"urn:WaterMeter:MC0203J22010600005","2025-01-28T05:00:00",12.199,34.959656,0.265],
    [45340,"urn:WaterMeter:MC0203J22010600005","2025-01-28T05:15:00",12.199,35.020943,0.267],
    [45341,"urn:WaterMeter:MC0203J22010600005","2025-01-28T05:30:00",12.199,35.144684,0.279],
    [45342,"urn:WaterMeter:MC0203J22010600005","2025-01-28T05:45:00",12.1,35.9488,0.29],
    [45343,"urn:WaterMeter:MC0203J22010600005","2025-01-28T06:00:00",12.1,36.673397,0.29],
    [45344,"urn:WaterMeter:MC0203J22010600005","2025-01-28T06:15:00",12,37.226505,0.32],
    [45345,"urn:WaterMeter:MC0203J22010600005","2025-01-28T06:30:00",11.899,37.5229,0.316],
    [45346,"urn:WaterMeter:MC0203J22010600005","2025-01-28T06:45:00",11.8,37.776974,0.328],
    [45347,"urn:WaterMeter:MC0203J22010600005","2025-01-28T07:00:00",11.699,38.06363,0.312],
    [45348,"urn:WaterMeter:MC0203J22010600005","2025-01-28T07:15:00",11.699,38.464718,0.315],
    [45349,"urn:WaterMeter:MC0203J22010600005","2025-01-28T07:30:00",11.6,39.018642,0.314],
    [45350,"urn:WaterMeter:MC0203J22010600005","2025-01-28T07:45:00",11.5,39.24944,0.319],
    [45351,"urn:WaterMeter:MC0203J22010600005","2025-01-28T08:00:00",11.399,39.337105,0.318],
    [45352,"urn:WaterMeter:MC0203J22010600005","2025-01-28T08:15:00",11.399,39.22888,0.321],
    [45353,"urn:WaterMeter:MC0203J22010600005","2025-01-28T08:30:00",11.3,39.081093,0.303],
    [45354,"urn:WaterMeter:MC0203J22010600005","2025-01-28T08:45:00",11.3,38.459637,0.32],
    [45355,"urn:WaterMeter:MC0203J22010600005","2025-01-28T09:00:00",11.399,38.264175,0.3],
    [45356,"urn:WaterMeter:MC0203J22010600005","2025-01-28T09:15:00",11.5,38.024452,0.319],
    [45357,"urn:WaterMeter:MC0203J22010600005","2025-01-28T09:30:00",11.6,37.72224,0.314],
    [45358,"urn:WaterMeter:MC0203J22010600005","2025-01-28T09:45:00",11.699,37.40614,0.3],
    [45359,"urn:WaterMeter:MC0203J22010600005","2025-01-28T10:00:00",12,37.296753,0.3],
    [45360,"urn:WaterMeter:MC0203J22010600005","2025-01-28T10:15:00",12.1,37.18077,0.296],
    [45361,"urn:WaterMeter:MC0203J22010600005","2025-01-28T10:30:00",12,37.126854,0.303],
    [45362,"urn:WaterMeter:MC0203J22010600005","2025-01-28T10:45:00",12,37.08143,0.293],
    [45363,"urn:WaterMeter:MC0203J22010600005","2025-01-28T11:00:00",12,36.988373,0.29],
    [45364,"urn:WaterMeter:MC0203J22010600005","2025-01-28T11:15:00",12,36.92825,0.296],
    [45365,"urn:WaterMeter:MC0203J22010600005","2025-01-28T11:30:00",12,36.924755,0.287],
    [45366,"urn:WaterMeter:MC0203J22010600005","2025-01-28T11:45:00",12,36.71956,0.261],
    [45367,"urn:WaterMeter:MC0203J22010600005","2025-01-28T12:00:00",12.1,36.698612,0.276],
    [45368,"urn:WaterMeter:MC0203J22010600005","2025-01-28T12:15:00",12.199,36.603577,0.287],
    [45369,"urn:WaterMeter:MC0203J22010600005","2025-01-28T12:30:00",12.199,36.452255,0.289],
    [45370,"urn:WaterMeter:MC0203J22010600005","2025-01-28T12:45:00",12.199,36.449154,0.282],
    [45371,"urn:WaterMeter:MC0203J22010600005","2025-01-28T13:00:00",12.199,36.36191,0.306],
    [45372,"urn:WaterMeter:MC0203J22010600005","2025-01-28T13:15:00",12.3,36.330105,0.273],
    [45373,"urn:WaterMeter:MC0203J22010600005","2025-01-28T13:30:00",12.399,36.330494,0.284],
    [45374,"urn:WaterMeter:MC0203J22010600005","2025-01-28T13:45:00",12.5,36.258305,0.28],
    [45375,"urn:WaterMeter:MC0203J22010600005","2025-01-28T14:00:00",12.5,36.23507,0.276],
    [45376,"urn:WaterMeter:MC0203J22010600005","2025-01-28T14:15:00",12.5,36.17064,0.279],
    [45377,"urn:WaterMeter:MC0203J22010600005","2025-01-28T14:30:00",12.5,36.191624,0.274],
    [45378,"urn:WaterMeter:MC0203J22010600005","2025-01-28T14:45:00",12.5,36.137707,0.275],
    [45379,"urn:WaterMeter:MC0203J22010600005","2025-01-28T15:00:00",12.5,36.0609,0.274],
    [45380,"urn:WaterMeter:MC0203J22010600005","2025-01-28T15:15:00",12.5,36.073277,0.293],
    [45381,"urn:WaterMeter:MC0203J22010600005","2025-01-28T15:30:00",12.5,36.00039,0.279],
    [45382,"urn:WaterMeter:MC0203J22010600005","2025-01-28T15:45:00",12.5,36.00233,0.277],
    [45383,"urn:WaterMeter:MC0203J22010600005","2025-01-28T16:00:00",12.5,35.949963,0.271],
    [45384,"urn:WaterMeter:MC0203J22010600005","2025-01-28T16:15:00",12.399,35.984447,0.288],
    [45385,"urn:WaterMeter:MC0203J22010600005","2025-01-28T16:30:00",12.399,35.930958,0.278],
    [45386,"urn:WaterMeter:MC0203J22010600005","2025-01-28T16:45:00",12.3,35.910786,0.284],
    [45387,"urn:WaterMeter:MC0203J22010600005","2025-01-28T17:00:00",12.3,35.8751,0.278],
    [45388,"urn:WaterMeter:MC0203J22010600005","2025-01-28T17:15:00",12.199,35.828514,0.284],
    [45389,"urn:WaterMeter:MC0203J22010600005","2025-01-28T17:30:00",12.1,35.795193,0.29],
    [45390,"urn:WaterMeter:MC0203J22010600005","2025-01-28T17:45:00",12,35.79403,0.285],
    [45391,"urn:WaterMeter:MC0203J22010600005","2025-01-28T18:00:00",11.899,35.81963,0.278],
    [45392,"urn:WaterMeter:MC0203J22010600005","2025-01-28T18:15:00",11.8,35.814198,0.29],
    [45393,"urn:WaterMeter:MC0203J22010600005","2025-01-28T18:30:00",11.699,35.82114,0.274],
    [45394,"urn:WaterMeter:MC0203J22010600005","2025-01-28T18:45:00",11.6,35.78666,0.284],
    [45395,"urn:WaterMeter:MC0203J22010600005","2025-01-28T19:00:00",11.6,35.80489,0.28],
    [45396,"urn:WaterMeter:MC0203J22010600005","2025-01-28T19:15:00",11.5,35.768814,0.284],
    [45397,"urn:WaterMeter:MC0203J22010600005","2025-01-28T19:30:00",11.399,35.740887,0.288],
    [45398,"urn:WaterMeter:MC0203J22010600005","2025-01-28T19:45:00",11.399,35.766098,0.283],
    [45399,"urn:WaterMeter:MC0203J22010600005","2025-01-28T20:00:00",11.3,35.74011,0.28],
    [45400,"urn:WaterMeter:MC0203J22010600005","2025-01-28T20:15:00",11.3,35.713696,0.272],
    [45401,"urn:WaterMeter:MC0203J22010600005","2025-01-28T20:30:00",11.199,35.686153,0.297],
    [45402,"urn:WaterMeter:MC0203J22010600005","2025-01-28T20:45:00",11.1,35.633823,0.287],
    [45403,"urn:WaterMeter:MC0203J22010600005","2025-01-28T21:00:00",11.1,35.67184,0.274],
    [45404,"urn:WaterMeter:MC0203J22010600005","2025-01-28T21:15:00",11,35.700542,0.285],
    [45405,"urn:WaterMeter:MC0203J22010600005","2025-01-28T21:30:00",11,35.659813,0.287],
    [45406,"urn:WaterMeter:MC0203J22010600005","2025-01-28T21:45:00",10.899,35.622578,0.273],
    [45407,"urn:WaterMeter:MC0203J22010600005","2025-01-28T22:00:00",10.8,35.690845,0.278],
    [45408,"urn:WaterMeter:MC0203J22010600005","2025-01-28T22:15:00",10.8,35.68115,0.295],
    [45409,"urn:WaterMeter:MC0203J22010600005","2025-01-28T22:30:00",10.699,35.670677,0.276],
    [45410,"urn:WaterMeter:MC0203J22010600005","2025-01-28T22:45:00",10.6,35.657448,0.295],
    [45411,"urn:WaterMeter:MC0203J22010600005","2025-01-28T23:00:00",10.6,35.602406,0.285],
    [45412,"urn:WaterMeter:MC0203J22010600005","2025-01-28T23:15:00",10.5,35.664856,0.284],
    [45413,"urn:WaterMeter:MC0203J22010600005","2025-01-28T23:30:00",10.399,35.631886,0.273],
    [45414,"urn:WaterMeter:MC0203J22010600005","2025-01-28T23:45:00",10.3,35.59271,0.276],
    [45415,"urn:WaterMeter:MC0203J22010600005","2025-01-29T00:00:00",10.199,35.624126,0.273],
    [45416,"urn:WaterMeter:MC0203J22010600005","2025-01-29T00:15:00",10.1,35.615555,0.273],
    [45417,"urn:WaterMeter:MC0203J22010600005","2025-01-29T00:30:00",10,35.61866,0.284],
    [45418,"urn:WaterMeter:MC0203J22010600005","2025-01-29T00:45:00",9.899,35.61672,0.277],
    [45419,"urn:WaterMeter:MC0203J22010600005","2025-01-29T01:00:00",9.8,35.596935,0.287],
    [45420,"urn:WaterMeter:MC0203J22010600005","2025-01-29T01:15:00",9.699,35.595036,0.272],
    [45421,"urn:WaterMeter:MC0203J22010600005","2025-01-29T01:30:00",9.6,35.589993,0.283],
    [45422,"urn:WaterMeter:MC0203J22010600005","2025-01-29T01:45:00",9.399,35.586502,0.29],
    [45423,"urn:WaterMeter:MC0203J22010600005","2025-01-29T02:00:00",9.3,35.604733,0.274],
    [45424,"urn:WaterMeter:MC0203J22010600005","2025-01-29T02:15:00",9.199,35.580296,0.279],
    [45425,"urn:WaterMeter:MC0203J22010600005","2025-01-29T02:30:00",9.199,35.586502,0.273],
    [45426,"urn:WaterMeter:MC0203J22010600005","2025-01-29T02:45:00",9.1,35.619473,0.275],
    [45427,"urn:WaterMeter:MC0203J22010600005","2025-01-29T03:00:00",9,35.572536,0.279],
    [45428,"urn:WaterMeter:MC0203J22010600005","2025-01-29T03:15:00",8.899,35.58689,0.273],
    [45429,"urn:WaterMeter:MC0203J22010600005","2025-01-29T03:30:00",8.8,35.567883,0.274],
    [45430,"urn:WaterMeter:MC0203J22010600005","2025-01-29T03:45:00",8.699,35.55353,0.278],
    [45431,"urn:WaterMeter:MC0203J22010600005","2025-01-29T04:00:00",8.6,35.54422,0.279],
    [45432,"urn:WaterMeter:MC0203J22010600005","2025-01-29T04:15:00",8.6,35.57448,0.29],
    [45433,"urn:WaterMeter:MC0203J22010600005","2025-01-29T04:30:00",8.5,35.598877,0.28],
    [45434,"urn:WaterMeter:MC0203J22010600005","2025-01-29T04:45:00",8.399,35.591545,0.28],
    [45435,"urn:WaterMeter:MC0203J22010600005","2025-01-29T05:00:00",8.3,35.59038,0.277],
    [45436,"urn:WaterMeter:MC0203J22010600005","2025-01-29T05:15:00",8.399,35.61986,0.28],
    [45437,"urn:WaterMeter:MC0203J22010600005","2025-01-29T05:30:00",8.5,35.903805,0.281],
    [45438,"urn:WaterMeter:MC0203J22010600005","2025-01-29T05:45:00",8.5,36.708694,0.287],
    [45439,"urn:WaterMeter:MC0203J22010600005","2025-01-29T06:00:00",8.6,37.340973,0.3],
    [45440,"urn:WaterMeter:MC0203J22010600005","2025-01-29T06:15:00",8.6,37.78081,0.298],
    [45441,"urn:WaterMeter:MC0203J22010600005","2025-01-29T06:30:00",8.6,38.09505,0.317],
    [45442,"urn:WaterMeter:MC0203J22010600005","2025-01-29T06:45:00",8.6,38.29676,0.3],
    [45443,"urn:WaterMeter:MC0203J22010600005","2025-01-29T07:00:00",8.5,38.630352,0.304],
    [45444,"urn:WaterMeter:MC0203J22010600005","2025-01-29T07:15:00",8.5,38.919727,0.308],
    [45445,"urn:WaterMeter:MC0203J22010600005","2025-01-29T07:30:00",8.5,39.026787,0.321],
    [45446,"urn:WaterMeter:MC0203J22010600005","2025-01-29T07:45:00",8.5,39.05355,0.326],
    [45447,"urn:WaterMeter:MC0203J22010600005","2025-01-29T08:00:00",8.5,39.115227,0.326],
    [45448,"urn:WaterMeter:MC0203J22010600005","2025-01-29T08:15:00",8.5,39.020927,0.314],
    [45449,"urn:WaterMeter:MC0203J22010600005","2025-01-29T08:30:00",8.399,38.79017,0.314],
    [45450,"urn:WaterMeter:MC0203J22010600005","2025-01-29T08:45:00",8.399,38.367744,0.31],
    [45451,"urn:WaterMeter:MC0203J22010600005","2025-01-29T09:00:00",8.399,38.092335,0.304],
    [45452,"urn:WaterMeter:MC0203J22010600005","2025-01-29T09:15:00",8.6,37.96937,0.286],
    [45453,"urn:WaterMeter:MC0203J22010600005","2025-01-29T09:30:00",8.699,37.774647,0.297],
    [45454,"urn:WaterMeter:MC0203J22010600005","2025-01-29T09:45:00",8.899,37.62996,0.292],
    [45455,"urn:WaterMeter:MC0203J22010600005","2025-01-29T10:00:00",9.1,37.472084,0.29],
    [45456,"urn:WaterMeter:MC0203J22010600005","2025-01-29T10:15:00",9.3,37.375885,0.289],
    [45457,"urn:WaterMeter:MC0203J22010600005","2025-01-29T10:30:00",9.399,37.316536,0.289],
    [45458,"urn:WaterMeter:MC0203J22010600005","2025-01-29T10:45:00",9.5,37.21452,0.288],
    [45459,"urn:WaterMeter:MC0203J22010600005","2025-01-29T11:00:00",9.6,37.201717,0.293],
    [45460,"urn:WaterMeter:MC0203J22010600005","2025-01-29T11:15:00",9.6,37.15517,0.301],
    [45461,"urn:WaterMeter:MC0203J22010600005","2025-01-29T11:30:00",9.699,37.08496,0.281],
    [45462,"urn:WaterMeter:MC0203J22010600005","2025-01-29T11:45:00",9.8,37.029877,0.275],
    [45463,"urn:WaterMeter:MC0203J22010600005","2025-01-29T12:00:00",9.899,37.00385,0.298],
    [45464,"urn:WaterMeter:MC0203J22010600005","2025-01-29T12:15:00",10.1,36.854546,0.278],
    [45465,"urn:WaterMeter:MC0203J22010600005","2025-01-29T12:30:00",10.199,36.85994,0.275],
    [45466,"urn:WaterMeter:MC0203J22010600005","2025-01-29T12:45:00",10.199,36.81537,0.271],
    [45467,"urn:WaterMeter:MC0203J22010600005","2025-01-29T13:00:00",10.3,36.710636,0.284],
    [45468,"urn:WaterMeter:MC0203J22010600005","2025-01-29T13:15:00",10.3,36.73042,0.283],
    [45469,"urn:WaterMeter:MC0203J22010600005","2025-01-29T13:30:00",10.3,36.58802,0.281],
    [45470,"urn:WaterMeter:MC0203J22010600005","2025-01-29T13:45:00",10.3,36.614437,0.282],
    [45471,"urn:WaterMeter:MC0203J22010600005","2025-01-29T14:00:00",10.399,36.590385,0.275],
    [45472,"urn:WaterMeter:MC0203J22010600005","2025-01-29T14:15:00",10.399,36.526733,0.285],
    [45473,"urn:WaterMeter:MC0203J22010600005","2025-01-29T14:30:00",10.399,36.48488,0.288],
    [45474,"urn:WaterMeter:MC0203J22010600005","2025-01-29T14:45:00",10.399,36.415054,0.265],
    [45475,"urn:WaterMeter:MC0203J22010600005","2025-01-29T15:00:00",10.5,36.43131,0.275],
    [45476,"urn:WaterMeter:MC0203J22010600005","2025-01-29T15:15:00",10.5,36.343296,0.276],
    [45477,"urn:WaterMeter:MC0203J22010600005","2025-01-29T15:30:00",10.5,36.33243,0.282],
    [45478,"urn:WaterMeter:MC0203J22010600005","2025-01-29T15:45:00",10.6,36.356094,0.282],
    [45479,"urn:WaterMeter:MC0203J22010600005","2025-01-29T16:00:00",10.6,36.356483,0.27],
    [45480,"urn:WaterMeter:MC0203J22010600005","2025-01-29T16:15:00",10.5,36.25714,0.285],
    [45481,"urn:WaterMeter:MC0203J22010600005","2025-01-29T16:30:00",10.5,36.24399,0.278],
    [45482,"urn:WaterMeter:MC0203J22010600005","2025-01-29T16:45:00",10.5,36.258694,0.288],
    [45483,"urn:WaterMeter:MC0203J22010600005","2025-01-29T17:00:00",10.5,36.247444,0.284],
    [45484,"urn:WaterMeter:MC0203J22010600005","2025-01-29T17:15:00",10.399,36.2021,0.298],
    [45485,"urn:WaterMeter:MC0203J22010600005","2025-01-29T17:30:00",10.399,36.20982,0.279],
    [45486,"urn:WaterMeter:MC0203J22010600005","2025-01-29T17:45:00",10.3,36.1571,0.286],
    [45487,"urn:WaterMeter:MC0203J22010600005","2025-01-29T18:00:00",10.199,36.16835,0.28],
    [45488,"urn:WaterMeter:MC0203J22010600005","2025-01-29T18:15:00",10.199,36.15749,0.269],
    [45489,"urn:WaterMeter:MC0203J22010600005","2025-01-29T18:30:00",10.1,36.131462,0.288],
    [45490,"urn:WaterMeter:MC0203J22010600005","2025-01-29T18:45:00",10.1,36.071766,0.281],
    [45491,"urn:WaterMeter:MC0203J22010600005","2025-01-29T19:00:00",10,36.085728,0.288],
    [45492,"urn:WaterMeter:MC0203J22010600005","2025-01-29T19:15:00",10,36.148182,0.277],
    [45493,"urn:WaterMeter:MC0203J22010600005","2025-01-29T19:30:00",9.899,36.10551,0.272],
    [45494,"urn:WaterMeter:MC0203J22010600005","2025-01-29T19:45:00",9.899,36.043022,0.284],
    [45495,"urn:WaterMeter:MC0203J22010600005","2025-01-29T20:00:00",9.8,36.048878,0.274],
    [45496,"urn:WaterMeter:MC0203J22010600005","2025-01-29T20:15:00",9.8,36.05237,0.321],
    [45497,"urn:WaterMeter:MC0203J22010600005","2025-01-29T20:30:00",9.699,36.055046,0.274],
    [45498,"urn:WaterMeter:MC0203J22010600005","2025-01-29T20:45:00",9.699,36.027542,0.275],
    [45499,"urn:WaterMeter:MC0203J22010600005","2025-01-29T21:00:00",9.699,36.03957,0.278],
    [45500,"urn:WaterMeter:MC0203J22010600005","2025-01-29T21:15:00",9.6,36.01164,0.274],
    [45501,"urn:WaterMeter:MC0203J22010600005","2025-01-29T21:30:00",9.6,36.020172,0.272],
    [45502,"urn:WaterMeter:MC0203J22010600005","2025-01-29T21:45:00",9.6,36.038406,0.286],
    [45503,"urn:WaterMeter:MC0203J22010600005","2025-01-29T22:00:00",9.5,35.986774,0.296],
    [45504,"urn:WaterMeter:MC0203J22010600005","2025-01-29T22:15:00",9.5,35.99457,0.283],
    [45505,"urn:WaterMeter:MC0203J22010600005","2025-01-29T22:30:00",9.5,35.957294,0.285],
    [45506,"urn:WaterMeter:MC0203J22010600005","2025-01-29T22:45:00",9.5,35.962765,0.296],
    [45507,"urn:WaterMeter:MC0203J22010600005","2025-01-29T23:00:00",9.399,35.92859,0.278],
    [45508,"urn:WaterMeter:MC0203J22010600005","2025-01-29T23:15:00",9.3,35.965443,0.278],
    [45509,"urn:WaterMeter:MC0203J22010600005","2025-01-29T23:30:00",9.3,35.931732,0.279],
    [45510,"urn:WaterMeter:MC0203J22010600005","2025-01-29T23:45:00",9.199,35.949577,0.278],
    [45511,"urn:WaterMeter:MC0203J22010600005","2025-01-30T00:00:00",9.199,35.962376,0.267],
    [45512,"urn:WaterMeter:MC0203J22010600005","2025-01-30T00:15:00",9.199,35.9488,0.275],
    [45513,"urn:WaterMeter:MC0203J22010600005","2025-01-30T00:30:00",9.199,35.90648,0.285],
    [45514,"urn:WaterMeter:MC0203J22010600005","2025-01-30T00:45:00",9.3,35.929405,0.268],
    [45515,"urn:WaterMeter:MC0203J22010600005","2025-01-30T01:00:00",9.3,35.913113,0.282],
    [45516,"urn:WaterMeter:MC0203J22010600005","2025-01-30T01:15:00",9.3,35.929794,0.28],
    [45517,"urn:WaterMeter:MC0203J22010600005","2025-01-30T01:30:00",9.3,35.883633,0.272],
    [45518,"urn:WaterMeter:MC0203J22010600005","2025-01-30T01:45:00",9.3,35.884796,0.286],
    [45519,"urn:WaterMeter:MC0203J22010600005","2025-01-30T02:00:00",9.3,35.858032,0.279],
    [45520,"urn:WaterMeter:MC0203J22010600005","2025-01-30T02:15:00",9.3,35.888638,0.271],
    [45521,"urn:WaterMeter:MC0203J22010600005","2025-01-30T02:30:00",9.3,35.879326,0.275],
    [45522,"urn:WaterMeter:MC0203J22010600005","2025-01-30T02:45:00",9.3,35.820404,0.284],
    [45523,"urn:WaterMeter:MC0203J22010600005","2025-01-30T03:00:00",9.199,35.83084,0.267],
    [45524,"urn:WaterMeter:MC0203J22010600005","2025-01-30T03:15:00",9.199,35.820404,0.275],
    [45525,"urn:WaterMeter:MC0203J22010600005","2025-01-30T03:30:00",9.199,35.81067,0.281],
    [45526,"urn:WaterMeter:MC0203J22010600005","2025-01-30T03:45:00",9.1,35.795193,0.276],
    [45527,"urn:WaterMeter:MC0203J22010600005","2025-01-30T04:00:00",9,35.799847,0.272],
    [45528,"urn:WaterMeter:MC0203J22010600005","2025-01-30T04:15:00",9,35.80291,0.273],
    [45529,"urn:WaterMeter:MC0203J22010600005","2025-01-30T04:30:00",8.899,35.793213,0.274],
    [45530,"urn:WaterMeter:MC0203J22010600005","2025-01-30T04:45:00",8.899,35.790497,0.265],
    [45531,"urn:WaterMeter:MC0203J22010600005","2025-01-30T05:00:00",8.8,35.792824,0.276],
    [45532,"urn:WaterMeter:MC0203J22010600005","2025-01-30T05:15:00",8.8,35.81222,0.269],
    [45533,"urn:WaterMeter:MC0203J22010600005","2025-01-30T05:30:00",8.899,36.162144,0.278],
    [45534,"urn:WaterMeter:MC0203J22010600005","2025-01-30T05:45:00",9,36.90226,0.3],
    [45535,"urn:WaterMeter:MC0203J22010600005","2025-01-30T06:00:00",9,37.50777,0.317],
    [45536,"urn:WaterMeter:MC0203J22010600005","2025-01-30T06:15:00",9,37.858006,0.307],
    [45537,"urn:WaterMeter:MC0203J22010600005","2025-01-30T06:30:00",9,38.12492,0.304],
    [45538,"urn:WaterMeter:MC0203J22010600005","2025-01-30T06:45:00",9,38.53299,0.311],
    [45539,"urn:WaterMeter:MC0203J22010600005","2025-01-30T07:00:00",9.1,38.87663,0.322],
    [45540,"urn:WaterMeter:MC0203J22010600005","2025-01-30T07:15:00",9,39.097385,0.317],
    [45541,"urn:WaterMeter:MC0203J22010600005","2025-01-30T07:30:00",9,39.1835,0.333],
    [45542,"urn:WaterMeter:MC0203J22010600005","2025-01-30T07:45:00",9,39.243973,0.324],
    [45543,"urn:WaterMeter:MC0203J22010600005","2025-01-30T08:00:00",9,39.256035,0.319],
    [45544,"urn:WaterMeter:MC0203J22010600005","2025-01-30T08:15:00",9,39.170696,0.309],
    [45545,"urn:WaterMeter:MC0203J22010600005","2025-01-30T08:30:00",9,38.9174,0.311],
    [45546,"urn:WaterMeter:MC0203J22010600005","2025-01-30T08:45:00",9,38.453857,0.309],
    [45547,"urn:WaterMeter:MC0203J22010600005","2025-01-30T09:00:00",9.1,38.238186,0.288],
    [45548,"urn:WaterMeter:MC0203J22010600005","2025-01-30T09:15:00",9.199,37.989155,0.284],
    [45549,"urn:WaterMeter:MC0203J22010600005","2025-01-30T09:30:00",9.399,37.824684,0.299],
    [45550,"urn:WaterMeter:MC0203J22010600005","2025-01-30T09:45:00",9.699,37.674953,0.288],
    [45551,"urn:WaterMeter:MC0203J22010600005","2025-01-30T10:00:00",9.899,37.51087,0.281],
    [45552,"urn:WaterMeter:MC0203J22010600005","2025-01-30T10:15:00",10.1,37.368126,0.275],
    [45553,"urn:WaterMeter:MC0203J22010600005","2025-01-30T10:30:00",10.3,37.25676,0.282],
    [45554,"urn:WaterMeter:MC0203J22010600005","2025-01-30T10:45:00",10.5,37.188488,0.288],
    [45555,"urn:WaterMeter:MC0203J22010600005","2025-01-30T11:00:00",10.6,37.150475,0.275],
    [45556,"urn:WaterMeter:MC0203J22010600005","2025-01-30T11:15:00",10.8,37.080303,0.277],
    [45557,"urn:WaterMeter:MC0203J22010600005","2025-01-30T11:30:00",10.899,36.92243,0.287],
    [45558,"urn:WaterMeter:MC0203J22010600005","2025-01-30T11:45:00",11.1,36.71956,0.281],
    [45559,"urn:WaterMeter:MC0203J22010600005","2025-01-30T12:00:00",11.199,36.753265,0.291],
    [45560,"urn:WaterMeter:MC0203J22010600005","2025-01-30T12:15:00",11.199,36.70831,0.291],
    [45561,"urn:WaterMeter:MC0203J22010600005","2025-01-30T12:30:00",11.3,36.607414,0.267],
    [45562,"urn:WaterMeter:MC0203J22010600005","2025-01-30T12:45:00",11.5,36.56207,0.281],
    [45563,"urn:WaterMeter:MC0203J22010600005","2025-01-30T13:00:00",11.6,36.55664,0.274],
    [45564,"urn:WaterMeter:MC0203J22010600005","2025-01-30T13:15:00",11.699,36.4841,0.271],
    [45565,"urn:WaterMeter:MC0203J22010600005","2025-01-30T13:30:00",11.8,36.44337,0.284],
    [45566,"urn:WaterMeter:MC0203J22010600005","2025-01-30T13:45:00",11.8,36.413464,0.295],
    [45567,"urn:WaterMeter:MC0203J22010600005","2025-01-30T14:00:00",11.8,36.356873,0.263],
    [45568,"urn:WaterMeter:MC0203J22010600005","2025-01-30T14:15:00",11.8,36.357647,0.274],
    [45569,"urn:WaterMeter:MC0203J22010600005","2025-01-30T14:30:00",11.699,36.348335,0.288],
    [45570,"urn:WaterMeter:MC0203J22010600005","2025-01-30T14:45:00",11.6,36.29399,0.265],
    [45571,"urn:WaterMeter:MC0203J22010600005","2025-01-30T15:00:00",11.6,36.263386,0.274],
    [45572,"urn:WaterMeter:MC0203J22010600005","2025-01-30T15:15:00",11.6,36.218353,0.255],
    [45573,"urn:WaterMeter:MC0203J22010600005","2025-01-30T15:30:00",11.6,36.2405,0.277],
    [45574,"urn:WaterMeter:MC0203J22010600005","2025-01-30T15:45:00",11.6,36.145077,0.28],
    [45575,"urn:WaterMeter:MC0203J22010600005","2025-01-30T16:00:00",11.6,36.125683,0.272],
    [45576,"urn:WaterMeter:MC0203J22010600005","2025-01-30T16:15:00",11.5,36.084953,0.289],
    [45577,"urn:WaterMeter:MC0203J22010600005","2025-01-30T16:30:00",11.5,36.097755,0.286],
    [45578,"urn:WaterMeter:MC0203J22010600005","2025-01-30T16:45:00",11.399,36.09038,0.278],
    [45579,"urn:WaterMeter:MC0203J22010600005","2025-01-30T17:00:00",11.3,36.073277,0.274],
    [45580,"urn:WaterMeter:MC0203J22010600005","2025-01-30T17:15:00",11.3,36.115597,0.281],
    [45581,"urn:WaterMeter:MC0203J22010600005","2025-01-30T17:30:00",11.199,36.042244,0.291],
    [45582,"urn:WaterMeter:MC0203J22010600005","2025-01-30T17:45:00",11.1,36.072887,0.268],
    [45583,"urn:WaterMeter:MC0203J22010600005","2025-01-30T18:00:00",11.1,36.016254,0.269],
    [45584,"urn:WaterMeter:MC0203J22010600005","2025-01-30T18:15:00",11,36.045776,0.279],
    [45585,"urn:WaterMeter:MC0203J22010600005","2025-01-30T18:30:00",11,36.051594,0.262],
    [45586,"urn:WaterMeter:MC0203J22010600005","2025-01-30T18:45:00",10.899,36.025566,0.281],
    [45587,"urn:WaterMeter:MC0203J22010600005","2025-01-30T19:00:00",10.899,35.953842,0.274],
    [45588,"urn:WaterMeter:MC0203J22010600005","2025-01-30T19:15:00",10.8,35.982548,0.278],
    [45589,"urn:WaterMeter:MC0203J22010600005","2025-01-30T19:30:00",10.8,35.992245,0.27],
    [45590,"urn:WaterMeter:MC0203J22010600005","2025-01-30T19:45:00",10.699,35.921646,0.285],
    [45591,"urn:WaterMeter:MC0203J22010600005","2025-01-30T20:00:00",10.699,35.96354,0.272],
    [45592,"urn:WaterMeter:MC0203J22010600005","2025-01-30T20:15:00",10.699,35.910786,0.266],
    [45593,"urn:WaterMeter:MC0203J22010600005","2025-01-30T20:30:00",10.6,35.86963,0.277],
    [45594,"urn:WaterMeter:MC0203J22010600005","2025-01-30T20:45:00",10.6,35.883244,0.267],
    [45595,"urn:WaterMeter:MC0203J22010600005","2025-01-30T21:00:00",10.6,35.848682,0.27],
    [45596,"urn:WaterMeter:MC0203J22010600005","2025-01-30T21:15:00",10.6,35.84523,0.274],
    [45597,"urn:WaterMeter:MC0203J22010600005","2025-01-30T21:30:00",10.5,35.865402,0.267],
    [45598,"urn:WaterMeter:MC0203J22010600005","2025-01-30T21:45:00",10.5,35.84562,0.266],
    [45599,"urn:WaterMeter:MC0203J22010600005","2025-01-30T22:00:00",10.5,35.865402,0.278],
    [45600,"urn:WaterMeter:MC0203J22010600005","2025-01-30T22:15:00",10.5,35.81222,0.273],
    [45601,"urn:WaterMeter:MC0203J22010600005","2025-01-30T22:30:00",10.5,35.795578,0.28],
    [45602,"urn:WaterMeter:MC0203J22010600005","2025-01-30T22:45:00",10.5,35.785107,0.275],
    [45603,"urn:WaterMeter:MC0203J22010600005","2025-01-30T23:00:00",10.5,35.771492,0.277],
    [45604,"urn:WaterMeter:MC0203J22010600005","2025-01-30T23:15:00",10.399,35.788208,0.265],
    [45605,"urn:WaterMeter:MC0203J22010600005","2025-01-30T23:30:00",10.399,35.788597,0.274],
    [45606,"urn:WaterMeter:MC0203J22010600005","2025-01-30T23:45:00",10.399,35.735455,0.276],
    [45607,"urn:WaterMeter:MC0203J22010600005","2025-01-31T00:00:00",10.3,35.69201,0.277],
    [45608,"urn:WaterMeter:MC0203J22010600005","2025-01-31T00:15:00",10.3,35.740887,0.283],
    [45609,"urn:WaterMeter:MC0203J22010600005","2025-01-31T00:30:00",10.3,35.761833,0.283],
    [45610,"urn:WaterMeter:MC0203J22010600005","2025-01-31T00:45:00",10.3,35.739334,0.282],
    [45611,"urn:WaterMeter:MC0203J22010600005","2025-01-31T01:00:00",10.3,35.698215,0.276],
    [45612,"urn:WaterMeter:MC0203J22010600005","2025-01-31T01:15:00",10.199,35.70675,0.264],
    [45613,"urn:WaterMeter:MC0203J22010600005","2025-01-31T01:30:00",10.199,35.69201,0.272],
    [45614,"urn:WaterMeter:MC0203J22010600005","2025-01-31T01:45:00",10.199,35.707912,0.272],
    [45615,"urn:WaterMeter:MC0203J22010600005","2025-01-31T02:00:00",10.1,35.62374,0.267],
    [45616,"urn:WaterMeter:MC0203J22010600005","2025-01-31T02:15:00",10.1,35.66408,0.282],
    [45617,"urn:WaterMeter:MC0203J22010600005","2025-01-31T02:30:00",10.1,35.594646,0.273],
    [45618,"urn:WaterMeter:MC0203J22010600005","2025-01-31T02:45:00",10.1,35.600468,0.266],
    [45619,"urn:WaterMeter:MC0203J22010600005","2025-01-31T03:00:00",10,35.631496,0.27],
    [45620,"urn:WaterMeter:MC0203J22010600005","2025-01-31T03:15:00",10,35.617496,0.275],
    [45621,"urn:WaterMeter:MC0203J22010600005","2025-01-31T03:30:00",10,35.61866,0.27],
    [45622,"urn:WaterMeter:MC0203J22010600005","2025-01-31T03:45:00",9.899,35.634563,0.273],
    [45623,"urn:WaterMeter:MC0203J22010600005","2025-01-31T04:00:00",9.899,35.620247,0.268],
    [45624,"urn:WaterMeter:MC0203J22010600005","2025-01-31T04:15:00",9.899,35.608574,0.279],
    [45625,"urn:WaterMeter:MC0203J22010600005","2025-01-31T04:30:00",9.8,35.580685,0.274],
    [45626,"urn:WaterMeter:MC0203J22010600005","2025-01-31T04:45:00",9.8,35.602406,0.273],
    [45627,"urn:WaterMeter:MC0203J22010600005","2025-01-31T05:00:00",9.8,35.556244,0.275],
    [45628,"urn:WaterMeter:MC0203J22010600005","2025-01-31T05:15:00",9.8,35.594646,0.275],
    [45629,"urn:WaterMeter:MC0203J22010600005","2025-01-31T05:30:00",9.899,35.830452,0.278],
    [45630,"urn:WaterMeter:MC0203J22010600005","2025-01-31T05:45:00",10,36.59155,0.279],
    [45631,"urn:WaterMeter:MC0203J22010600005","2025-01-31T06:00:00",10,37.22767,0.292],
    [45632,"urn:WaterMeter:MC0203J22010600005","2025-01-31T06:15:00",10,37.627243,0.293],
    [45633,"urn:WaterMeter:MC0203J22010600005","2025-01-31T06:30:00",10,37.918167,0.286],
    [45634,"urn:WaterMeter:MC0203J22010600005","2025-01-31T06:45:00",10,38.13962,0.298],
    [45635,"urn:WaterMeter:MC0203J22010600005","2025-01-31T07:00:00",10,38.694355,0.302],
    [45636,"urn:WaterMeter:MC0203J22010600005","2025-01-31T07:15:00",10,39.02446,0.317],
    [45637,"urn:WaterMeter:MC0203J22010600005","2025-01-31T07:30:00",10,39.180393,0.327],
    [45638,"urn:WaterMeter:MC0203J22010600005","2025-01-31T07:45:00",10,39.234276,0.313],
    [45639,"urn:WaterMeter:MC0203J22010600005","2025-01-31T08:00:00",10,39.261814,0.321],
    [45640,"urn:WaterMeter:MC0203J22010600005","2025-01-31T08:15:00",9.899,39.224575,0.317],
    [45641,"urn:WaterMeter:MC0203J22010600005","2025-01-31T08:30:00",9.899,38.94145,0.315],
    [45642,"urn:WaterMeter:MC0203J22010600005","2025-01-31T08:45:00",9.8,38.4558,0.291],
    [45643,"urn:WaterMeter:MC0203J22010600005","2025-01-31T09:00:00",9.8,38.216038,0.291],
    [45644,"urn:WaterMeter:MC0203J22010600005","2025-01-31T09:15:00",9.8,37.933685,0.296],
    [45645,"urn:WaterMeter:MC0203J22010600005","2025-01-31T09:30:00",9.899,37.80102,0.279],
    [45646,"urn:WaterMeter:MC0203J22010600005","2025-01-31T09:45:00",10,37.54889,0.297],
    [45647,"urn:WaterMeter:MC0203J22010600005","2025-01-31T10:00:00",10.199,37.427086,0.277],
    [45648,"urn:WaterMeter:MC0203J22010600005","2025-01-31T10:15:00",10.3,37.39683,0.281],
    [45649,"urn:WaterMeter:MC0203J22010600005","2025-01-31T10:30:00",10.3,37.2459,0.281],
    [45650,"urn:WaterMeter:MC0203J22010600005","2025-01-31T10:45:00",10.3,37.202106,0.284],
    [45651,"urn:WaterMeter:MC0203J22010600005","2025-01-31T11:00:00",10.3,37.159008,0.289],
    [45652,"urn:WaterMeter:MC0203J22010600005","2025-01-31T11:15:00",10.399,37.10936,0.287],
    [45653,"urn:WaterMeter:MC0203J22010600005","2025-01-31T11:30:00",10.399,37.01471,0.275],
    [45654,"urn:WaterMeter:MC0203J22010600005","2025-01-31T11:45:00",10.5,36.873554,0.269],
    [45655,"urn:WaterMeter:MC0203J22010600005","2025-01-31T12:00:00",10.6,36.75947,0.281],
    [45656,"urn:WaterMeter:MC0203J22010600005","2025-01-31T12:15:00",10.699,36.776966,0.278],
    [45657,"urn:WaterMeter:MC0203J22010600005","2025-01-31T12:30:00",10.8,36.749424,0.273],
    [45658,"urn:WaterMeter:MC0203J22010600005","2025-01-31T12:45:00",11,36.657104,0.27],
    [45659,"urn:WaterMeter:MC0203J22010600005","2025-01-31T13:00:00",11.1,36.655903,0.277],
    [45660,"urn:WaterMeter:MC0203J22010600005","2025-01-31T13:15:00",11.199,36.576035,0.285],
    [45661,"urn:WaterMeter:MC0203J22010600005","2025-01-31T13:30:00",11.3,36.562847,0.267],
    [45662,"urn:WaterMeter:MC0203J22010600005","2025-01-31T13:45:00",11.5,36.489494,0.295],
    [45663,"urn:WaterMeter:MC0203J22010600005","2025-01-31T14:00:00",11.699,36.48449,0.28],
    [45664,"urn:WaterMeter:MC0203J22010600005","2025-01-31T14:15:00",11.8,36.3739,0.28],
    [45665,"urn:WaterMeter:MC0203J22010600005","2025-01-31T14:30:00",11.8,36.373512,0.274],
    [45666,"urn:WaterMeter:MC0203J22010600005","2025-01-31T14:45:00",11.8,36.36459,0.285],
    [45667,"urn:WaterMeter:MC0203J22010600005","2025-01-31T15:00:00",11.899,36.326576,0.26],
    [45668,"urn:WaterMeter:MC0203J22010600005","2025-01-31T15:15:00",11.899,36.27347,0.277],
    [45669,"urn:WaterMeter:MC0203J22010600005","2025-01-31T15:30:00",11.899,36.17956,0.268],
    [45670,"urn:WaterMeter:MC0203J22010600005","2025-01-31T15:45:00",11.899,36.17572,0.272],
    [45671,"urn:WaterMeter:MC0203J22010600005","2025-01-31T16:00:00",11.899,36.162144,0.266],
    [45672,"urn:WaterMeter:MC0203J22010600005","2025-01-31T16:15:00",11.899,36.155552,0.264],
    [45673,"urn:WaterMeter:MC0203J22010600005","2025-01-31T16:30:00",11.8,36.114044,0.268],
    [45674,"urn:WaterMeter:MC0203J22010600005","2025-01-31T16:45:00",11.8,36.0803,0.279],
    [45675,"urn:WaterMeter:MC0203J22010600005","2025-01-31T17:00:00",11.699,36.076805,0.267],
    [45676,"urn:WaterMeter:MC0203J22010600005","2025-01-31T17:15:00",11.6,36.018234,0.274],
    [45677,"urn:WaterMeter:MC0203J22010600005","2025-01-31T17:30:00",11.6,36.061253,0.265],
    [45678,"urn:WaterMeter:MC0203J22010600005","2025-01-31T17:45:00",11.5,35.985226,0.286],
    [45679,"urn:WaterMeter:MC0203J22010600005","2025-01-31T18:00:00",11.399,36.040733,0.282],
    [45680,"urn:WaterMeter:MC0203J22010600005","2025-01-31T18:15:00",11.3,35.96005,0.27],
    [45681,"urn:WaterMeter:MC0203J22010600005","2025-01-31T18:30:00",11.199,35.988754,0.277],
    [45682,"urn:WaterMeter:MC0203J22010600005","2025-01-31T18:45:00",11.1,35.958073,0.272],
    [45683,"urn:WaterMeter:MC0203J22010600005","2025-01-31T19:00:00",10.899,35.920094,0.277],
    [45684,"urn:WaterMeter:MC0203J22010600005","2025-01-31T19:15:00",10.8,35.961212,0.283],
    [45685,"urn:WaterMeter:MC0203J22010600005","2025-01-31T19:30:00",10.699,35.955784,0.281],
    [45686,"urn:WaterMeter:MC0203J22010600005","2025-01-31T19:45:00",10.6,35.960823,0.283],
    [45687,"urn:WaterMeter:MC0203J22010600005","2025-01-31T20:00:00",10.399,35.970524,0.279],
    [45688,"urn:WaterMeter:MC0203J22010600005","2025-01-31T20:15:00",10.3,35.906868,0.282],
    [45689,"urn:WaterMeter:MC0203J22010600005","2025-01-31T20:30:00",10.199,35.918118,0.285],
    [45690,"urn:WaterMeter:MC0203J22010600005","2025-01-31T20:45:00",10.1,35.982937,0.28],
    [45691,"urn:WaterMeter:MC0203J22010600005","2025-01-31T21:00:00",10,35.933285,0.281],
    [45692,"urn:WaterMeter:MC0203J22010600005","2025-01-31T21:15:00",9.899,35.94182,0.299],
    [45693,"urn:WaterMeter:MC0203J22010600005","2025-01-31T21:30:00",9.8,35.9135,0.27],
    [45694,"urn:WaterMeter:MC0203J22010600005","2025-01-31T21:45:00",9.699,35.903416,0.271],
    [45695,"urn:WaterMeter:MC0203J22010600005","2025-01-31T22:00:00",9.6,35.901478,0.284],
    [45696,"urn:WaterMeter:MC0203J22010600005","2025-01-31T22:15:00",9.5,35.877037,0.267],
    [45697,"urn:WaterMeter:MC0203J22010600005","2025-01-31T22:30:00",9.399,35.868855,0.266],
    [45698,"urn:WaterMeter:MC0203J22010600005","2025-01-31T22:45:00",9.3,35.87122,0.272],
    [45699,"urn:WaterMeter:MC0203J22010600005","2025-01-31T23:00:00",9.3,35.88208,0.288],
    [45700,"urn:WaterMeter:MC0203J22010600005","2025-01-31T23:15:00",9.1,35.89527,0.288],
    [45701,"urn:WaterMeter:MC0203J22010600005","2025-01-31T23:30:00",9,35.89372,0.281],
    [45702,"urn:WaterMeter:MC0203J22010600005","2025-01-31T23:45:00",9,35.873936,0.273],
    [45703,"urn:WaterMeter:MC0203J22010600005","2025-02-01T00:00:00",8.899,35.85648,0.277],
    [45704,"urn:WaterMeter:MC0203J22010600005","2025-02-01T00:15:00",8.699,35.828514,0.273],
    [45705,"urn:WaterMeter:MC0203J22010600005","2025-02-01T00:30:00",8.6,35.864624,0.276],
    [45706,"urn:WaterMeter:MC0203J22010600005","2025-02-01T00:45:00",8.6,35.84946,0.274],
    [45707,"urn:WaterMeter:MC0203J22010600005","2025-02-01T01:00:00",8.5,35.85101,0.274],
    [45708,"urn:WaterMeter:MC0203J22010600005","2025-02-01T01:15:00",8.399,35.84946,0.289],
    [45709,"urn:WaterMeter:MC0203J22010600005","2025-02-01T01:30:00",8.399,35.847557,0.277],
    [45710,"urn:WaterMeter:MC0203J22010600005","2025-02-01T01:45:00",8.3,35.86424,0.271],
    [45711,"urn:WaterMeter:MC0203J22010600005","2025-02-01T02:00:00",8.3,35.82002,0.271],
    [45712,"urn:WaterMeter:MC0203J22010600005","2025-02-01T02:15:00",8.199,35.817688,0.282],
    [45713,"urn:WaterMeter:MC0203J22010600005","2025-02-01T02:30:00",8.199,35.823895,0.273],
    [45714,"urn:WaterMeter:MC0203J22010600005","2025-02-01T02:45:00",8.199,35.83786,0.283],
    [45715,"urn:WaterMeter:MC0203J22010600005","2025-02-01T03:00:00",8.1,35.80838,0.27],
    [45716,"urn:WaterMeter:MC0203J22010600005","2025-02-01T03:15:00",8.1,35.81536,0.279],
    [45717,"urn:WaterMeter:MC0203J22010600005","2025-02-01T03:30:00",8,35.81963,0.282],
    [45718,"urn:WaterMeter:MC0203J22010600005","2025-02-01T03:45:00",7.9,35.79166,0.274],
    [45719,"urn:WaterMeter:MC0203J22010600005","2025-02-01T04:00:00",7.9,35.80411,0.269],
    [45720,"urn:WaterMeter:MC0203J22010600005","2025-02-01T04:15:00",7.8,35.788208,0.275],
    [45721,"urn:WaterMeter:MC0203J22010600005","2025-02-01T04:30:00",7.8,35.809505,0.276],
    [45722,"urn:WaterMeter:MC0203J22010600005","2025-02-01T04:45:00",7.599,35.80838,0.274],
    [45723,"urn:WaterMeter:MC0203J22010600005","2025-02-01T05:00:00",7.5,35.76067,0.266],
    [45724,"urn:WaterMeter:MC0203J22010600005","2025-02-01T05:15:00",7.5,35.777737,0.273],
    [45725,"urn:WaterMeter:MC0203J22010600005","2025-02-01T05:30:00",7.4,35.782352,0.273],
    [45726,"urn:WaterMeter:MC0203J22010600005","2025-02-01T05:45:00",7.4,35.77033,0.264],
    [45727,"urn:WaterMeter:MC0203J22010600005","2025-02-01T06:00:00",7.4,35.765324,0.265],
    [45728,"urn:WaterMeter:MC0203J22010600005","2025-02-01T06:15:00",7.4,35.761444,0.276],
    [45729,"urn:WaterMeter:MC0203J22010600005","2025-02-01T06:30:00",7.4,35.764935,0.268],
    [45730,"urn:WaterMeter:MC0203J22010600005","2025-02-01T06:45:00",7.4,35.78627,0.272],
    [45731,"urn:WaterMeter:MC0203J22010600005","2025-02-01T07:00:00",7.4,35.778126,0.269],
    [45732,"urn:WaterMeter:MC0203J22010600005","2025-02-01T07:15:00",7.3,35.761444,0.265],
    [45733,"urn:WaterMeter:MC0203J22010600005","2025-02-01T07:30:00",7.3,35.77851,0.286],
    [45734,"urn:WaterMeter:MC0203J22010600005","2025-02-01T07:45:00",7.199,35.737007,0.265],
    [45735,"urn:WaterMeter:MC0203J22010600005","2025-02-01T08:00:00",7.199,35.740498,0.275],
    [45736,"urn:WaterMeter:MC0203J22010600005","2025-02-01T08:15:00",7.199,35.733864,0.278],
    [45737,"urn:WaterMeter:MC0203J22010600005","2025-02-01T08:30:00",7.199,35.704773,0.273],
    [45738,"urn:WaterMeter:MC0203J22010600005","2025-02-01T08:45:00",7.3,35.765324,0.266],
    [45739,"urn:WaterMeter:MC0203J22010600005","2025-02-01T09:00:00",7.4,35.722267,0.272],
    [45740,"urn:WaterMeter:MC0203J22010600005","2025-02-01T09:15:00",7.599,35.725758,0.259],
    [45741,"urn:WaterMeter:MC0203J22010600005","2025-02-01T09:30:00",7.9,35.693913,0.267],
    [45742,"urn:WaterMeter:MC0203J22010600005","2025-02-01T09:45:00",8.3,35.652058,0.274],
    [45743,"urn:WaterMeter:MC0203J22010600005","2025-02-01T10:00:00",8.6,35.645073,0.258],
    [45744,"urn:WaterMeter:MC0203J22010600005","2025-02-01T10:15:00",8.899,35.60357,0.256],
    [45745,"urn:WaterMeter:MC0203J22010600005","2025-02-01T10:30:00",9.199,35.556244,0.258],
    [45746,"urn:WaterMeter:MC0203J22010600005","2025-02-01T10:45:00",9.399,35.51513,0.256],
    [45747,"urn:WaterMeter:MC0203J22010600005","2025-02-01T11:00:00",9.699,35.48332,0.259],
    [45748,"urn:WaterMeter:MC0203J22010600005","2025-02-01T11:15:00",9.899,35.4263,0.27],
    [45749,"urn:WaterMeter:MC0203J22010600005","2025-02-01T11:30:00",10.1,35.393715,0.251],
    [45750,"urn:WaterMeter:MC0203J22010600005","2025-02-01T11:45:00",10.3,35.315746,0.267],
    [45751,"urn:WaterMeter:MC0203J22010600005","2025-02-01T12:00:00",10.5,35.30256,0.251],
    [45752,"urn:WaterMeter:MC0203J22010600005","2025-02-01T12:15:00",10.6,35.245537,0.274],
    [45753,"urn:WaterMeter:MC0203J22010600005","2025-02-01T12:30:00",10.8,35.237778,0.266],
    [45754,"urn:WaterMeter:MC0203J22010600005","2025-02-01T12:45:00",11,35.244762,0.26],
    [45755,"urn:WaterMeter:MC0203J22010600005","2025-02-01T13:00:00",11.199,35.238903,0.255],
    [45756,"urn:WaterMeter:MC0203J22010600005","2025-02-01T13:15:00",11.3,35.137703,0.275],
    [45757,"urn:WaterMeter:MC0203J22010600005","2025-02-01T13:30:00",11.399,35.184635,0.259],
    [45758,"urn:WaterMeter:MC0203J22010600005","2025-02-01T13:45:00",11.5,35.131844,0.271],
    [45759,"urn:WaterMeter:MC0203J22010600005","2025-02-01T14:00:00",11.699,35.12102,0.278],
    [45760,"urn:WaterMeter:MC0203J22010600005","2025-02-01T14:15:00",11.699,35.03995,0.262],
    [45761,"urn:WaterMeter:MC0203J22010600005","2025-02-01T14:30:00",11.8,35.02556,0.262],
    [45762,"urn:WaterMeter:MC0203J22010600005","2025-02-01T14:45:00",11.8,35.04383,0.257],
    [45763,"urn:WaterMeter:MC0203J22010600005","2025-02-01T15:00:00",11.8,35.025948,0.271],
    [45764,"urn:WaterMeter:MC0203J22010600005","2025-02-01T15:15:00",11.899,34.99379,0.251],
    [45765,"urn:WaterMeter:MC0203J22010600005","2025-02-01T15:30:00",11.899,34.947243,0.253],
    [45766,"urn:WaterMeter:MC0203J22010600005","2025-02-01T15:45:00",11.899,34.935993,0.251],
    [45767,"urn:WaterMeter:MC0203J22010600005","2025-02-01T16:00:00",11.899,34.89949,0.273],
    [45768,"urn:WaterMeter:MC0203J22010600005","2025-02-01T16:15:00",11.899,34.93483,0.263],
    [45769,"urn:WaterMeter:MC0203J22010600005","2025-02-01T16:30:00",11.8,34.94181,0.262],
    [45770,"urn:WaterMeter:MC0203J22010600005","2025-02-01T16:45:00",11.699,34.84988,0.264],
    [45771,"urn:WaterMeter:MC0203J22010600005","2025-02-01T17:00:00",11.6,34.90027,0.263],
    [45772,"urn:WaterMeter:MC0203J22010600005","2025-02-01T17:15:00",11.6,34.83669,0.257],
    [45773,"urn:WaterMeter:MC0203J22010600005","2025-02-01T17:30:00",11.5,34.861477,0.272],
    [45774,"urn:WaterMeter:MC0203J22010600005","2025-02-01T17:45:00",11.399,34.895653,0.266],
    [45775,"urn:WaterMeter:MC0203J22010600005","2025-02-01T18:00:00",11.3,34.871563,0.276],
    [45776,"urn:WaterMeter:MC0203J22010600005","2025-02-01T18:15:00",11.3,34.849102,0.266],
    [45777,"urn:WaterMeter:MC0203J22010600005","2025-02-01T18:30:00",11.199,34.858025,0.262],
    [45778,"urn:WaterMeter:MC0203J22010600005","2025-02-01T18:45:00",11.1,34.845226,0.268],
    [45779,"urn:WaterMeter:MC0203J22010600005","2025-02-01T19:00:00",11.1,34.873543,0.288],
    [45780,"urn:WaterMeter:MC0203J22010600005","2025-02-01T19:15:00",11,34.85954,0.266],
    [45781,"urn:WaterMeter:MC0203J22010600005","2025-02-01T19:30:00",11,34.828934,0.273],
    [45782,"urn:WaterMeter:MC0203J22010600005","2025-02-01T19:45:00",10.899,34.82583,0.254],
    [45783,"urn:WaterMeter:MC0203J22010600005","2025-02-01T20:00:00",10.8,34.82971,0.256],
    [45784,"urn:WaterMeter:MC0203J22010600005","2025-02-01T20:15:00",10.8,34.787815,0.257],
    [45785,"urn:WaterMeter:MC0203J22010600005","2025-02-01T20:30:00",10.699,34.808372,0.267],
    [45786,"urn:WaterMeter:MC0203J22010600005","2025-02-01T20:45:00",10.6,34.866173,0.259],
    [45787,"urn:WaterMeter:MC0203J22010600005","2025-02-01T21:00:00",10.6,34.860313,0.258],
    [45788,"urn:WaterMeter:MC0203J22010600005","2025-02-01T21:15:00",10.6,34.806046,0.252],
    [45789,"urn:WaterMeter:MC0203J22010600005","2025-02-01T21:30:00",10.5,34.769585,0.253],
    [45790,"urn:WaterMeter:MC0203J22010600005","2025-02-01T21:45:00",10.5,34.861088,0.255],
    [45791,"urn:WaterMeter:MC0203J22010600005","2025-02-01T22:00:00",10.5,34.783897,0.269],
    [45792,"urn:WaterMeter:MC0203J22010600005","2025-02-01T22:15:00",10.5,34.828934,0.286],
    [45793,"urn:WaterMeter:MC0203J22010600005","2025-02-01T22:30:00",10.399,34.82036,0.256],
    [45794,"urn:WaterMeter:MC0203J22010600005","2025-02-01T22:45:00",10.399,34.766094,0.264],
    [45795,"urn:WaterMeter:MC0203J22010600005","2025-02-01T23:00:00",10.3,34.76334,0.263],
    [45796,"urn:WaterMeter:MC0203J22010600005","2025-02-01T23:15:00",10.3,34.801743,0.232],
    [45797,"urn:WaterMeter:MC0203J22010600005","2025-02-01T23:30:00",10.3,34.77381,0.269],
    [45798,"urn:WaterMeter:MC0203J22010600005","2025-02-01T23:45:00",10.199,34.765278,0.257],
    [45799,"urn:WaterMeter:MC0203J22010600005","2025-02-02T00:00:00",10.199,34.80023,0.263],
    [45800,"urn:WaterMeter:MC0203J22010600005","2025-02-02T00:15:00",10.1,34.787426,0.266],
    [45801,"urn:WaterMeter:MC0203J22010600005","2025-02-02T00:30:00",10.1,34.764503,0.262],
    [45802,"urn:WaterMeter:MC0203J22010600005","2025-02-02T00:45:00",10,34.763725,0.26],
    [45803,"urn:WaterMeter:MC0203J22010600005","2025-02-02T01:00:00",9.899,34.81652,0.256],
    [45804,"urn:WaterMeter:MC0203J22010600005","2025-02-02T01:15:00",9.8,34.8076,0.256],
    [45805,"urn:WaterMeter:MC0203J22010600005","2025-02-02T01:30:00",9.699,34.815357,0.268],
    [45806,"urn:WaterMeter:MC0203J22010600005","2025-02-02T01:45:00",9.5,34.811478,0.257],
    [45807,"urn:WaterMeter:MC0203J22010600005","2025-02-02T02:00:00",9.399,34.80058,0.276],
    [45808,"urn:WaterMeter:MC0203J22010600005","2025-02-02T02:15:00",9.3,34.799454,0.246],
    [45809,"urn:WaterMeter:MC0203J22010600005","2025-02-02T02:30:00",9.199,34.813377,0.267],
    [45810,"urn:WaterMeter:MC0203J22010600005","2025-02-02T02:45:00",9.1,34.8223,0.262],
    [45811,"urn:WaterMeter:MC0203J22010600005","2025-02-02T03:00:00",9.1,34.81109,0.262],
    [45812,"urn:WaterMeter:MC0203J22010600005","2025-02-02T03:15:00",9,34.824665,0.269],
    [45813,"urn:WaterMeter:MC0203J22010600005","2025-02-02T03:30:00",9,34.82932,0.269],
    [45814,"urn:WaterMeter:MC0203J22010600005","2025-02-02T03:45:00",8.899,34.83824,0.261],
    [45815,"urn:WaterMeter:MC0203J22010600005","2025-02-02T04:00:00",8.899,34.835915,0.255],
    [45816,"urn:WaterMeter:MC0203J22010600005","2025-02-02T04:15:00",8.8,34.789753,0.262],
    [45817,"urn:WaterMeter:MC0203J22010600005","2025-02-02T04:30:00",8.8,34.802517,0.271],
    [45818,"urn:WaterMeter:MC0203J22010600005","2025-02-02T04:45:00",8.699,34.82036,0.257],
    [45819,"urn:WaterMeter:MC0203J22010600005","2025-02-02T05:00:00",8.699,34.79596,0.258],
    [45820,"urn:WaterMeter:MC0203J22010600005","2025-02-02T05:15:00",8.6,34.82036,0.257],
    [45821,"urn:WaterMeter:MC0203J22010600005","2025-02-02T05:30:00",8.6,34.82738,0.264],
    [45822,"urn:WaterMeter:MC0203J22010600005","2025-02-02T05:45:00",8.6,34.806435,0.257],
    [45823,"urn:WaterMeter:MC0203J22010600005","2025-02-02T06:00:00",8.5,34.80368,0.257],
    [45824,"urn:WaterMeter:MC0203J22010600005","2025-02-02T06:15:00",8.5,34.80721,0.268],
    [45825,"urn:WaterMeter:MC0203J22010600005","2025-02-02T06:30:00",8.399,34.817684,0.257],
    [45826,"urn:WaterMeter:MC0203J22010600005","2025-02-02T06:45:00",8.399,34.84092,0.256],
    [45827,"urn:WaterMeter:MC0203J22010600005","2025-02-02T07:00:00",8.3,34.815357,0.272],
    [45828,"urn:WaterMeter:MC0203J22010600005","2025-02-02T07:15:00",8.3,34.808372,0.271],
    [45829,"urn:WaterMeter:MC0203J22010600005","2025-02-02T07:30:00",8.199,34.811867,0.27],
    [45830,"urn:WaterMeter:MC0203J22010600005","2025-02-02T07:45:00",8.199,34.769974,0.253],
    [45831,"urn:WaterMeter:MC0203J22010600005","2025-02-02T08:00:00",8.1,34.793983,0.262],
    [45832,"urn:WaterMeter:MC0203J22010600005","2025-02-02T08:15:00",8.1,34.769196,0.264],
    [45833,"urn:WaterMeter:MC0203J22010600005","2025-02-02T08:30:00",8.1,34.786263,0.255],
    [45834,"urn:WaterMeter:MC0203J22010600005","2025-02-02T08:45:00",8.199,34.818073,0.255],
    [45835,"urn:WaterMeter:MC0203J22010600005","2025-02-02T09:00:00",8.3,34.788204,0.249],
    [45836,"urn:WaterMeter:MC0203J22010600005","2025-02-02T09:15:00",8.5,34.783123,0.268],
    [45837,"urn:WaterMeter:MC0203J22010600005","2025-02-02T09:30:00",8.699,34.76648,0.251],
    [45838,"urn:WaterMeter:MC0203J22010600005","2025-02-02T09:45:00",9,34.745495,0.262],
    [45839,"urn:WaterMeter:MC0203J22010600005","2025-02-02T10:00:00",9.199,34.723385,0.264],
    [45840,"urn:WaterMeter:MC0203J22010600005","2025-02-02T10:15:00",9.5,34.69239,0.26],
    [45841,"urn:WaterMeter:MC0203J22010600005","2025-02-02T10:30:00",9.699,34.67028,0.254],
    [45842,"urn:WaterMeter:MC0203J22010600005","2025-02-02T10:45:00",10,34.647743,0.263],
    [45843,"urn:WaterMeter:MC0203J22010600005","2025-02-02T11:00:00",10.199,34.597744,0.253],
    [45844,"urn:WaterMeter:MC0203J22010600005","2025-02-02T11:15:00",10.399,34.54146,0.258],
    [45845,"urn:WaterMeter:MC0203J22010600005","2025-02-02T11:30:00",10.6,34.555077,0.252],
    [45846,"urn:WaterMeter:MC0203J22010600005","2025-02-02T11:45:00",10.699,34.53956,0.25],
    [45847,"urn:WaterMeter:MC0203J22010600005","2025-02-02T12:00:00",10.899,34.499992,0.247],
    [45848,"urn:WaterMeter:MC0203J22010600005","2025-02-02T12:15:00",11,34.481762,0.25],
    [45849,"urn:WaterMeter:MC0203J22010600005","2025-02-02T12:30:00",11.199,34.42862,0.265],
    [45850,"urn:WaterMeter:MC0203J22010600005","2025-02-02T12:45:00",11.399,34.427845,0.264],
    [45851,"urn:WaterMeter:MC0203J22010600005","2025-02-02T13:00:00",11.5,34.379745,0.251],
    [45852,"urn:WaterMeter:MC0203J22010600005","2025-02-02T13:15:00",11.5,34.3588,0.255],
    [45853,"urn:WaterMeter:MC0203J22010600005","2025-02-02T13:30:00",11.5,34.3107,0.251],
    [45854,"urn:WaterMeter:MC0203J22010600005","2025-02-02T13:45:00",11.5,34.269543,0.258],
    [45855,"urn:WaterMeter:MC0203J22010600005","2025-02-02T14:00:00",11.6,34.246307,0.266],
    [45856,"urn:WaterMeter:MC0203J22010600005","2025-02-02T14:15:00",11.699,34.2882,0.246],
    [45857,"urn:WaterMeter:MC0203J22010600005","2025-02-02T14:30:00",11.699,34.26415,0.243],
    [45858,"urn:WaterMeter:MC0203J22010600005","2025-02-02T14:45:00",11.6,34.204025,0.245],
    [45859,"urn:WaterMeter:MC0203J22010600005","2025-02-02T15:00:00",11.6,34.19549,0.277],
    [45860,"urn:WaterMeter:MC0203J22010600005","2025-02-02T15:15:00",11.6,34.186184,0.252],
    [45861,"urn:WaterMeter:MC0203J22010600005","2025-02-02T15:30:00",11.6,34.143475,0.258],
    [45862,"urn:WaterMeter:MC0203J22010600005","2025-02-02T15:45:00",11.5,34.1311,0.259],
    [45863,"urn:WaterMeter:MC0203J22010600005","2025-02-02T16:00:00",11.5,34.190838,0.259],
    [45864,"urn:WaterMeter:MC0203J22010600005","2025-02-02T16:15:00",11.5,34.167564,0.248],
    [45865,"urn:WaterMeter:MC0203J22010600005","2025-02-02T16:30:00",11.5,34.134552,0.258],
    [45866,"urn:WaterMeter:MC0203J22010600005","2025-02-02T16:45:00",11.5,34.1086,0.261],
    [45867,"urn:WaterMeter:MC0203J22010600005","2025-02-02T17:00:00",11.399,34.062443,0.242],
    [45868,"urn:WaterMeter:MC0203J22010600005","2025-02-02T17:15:00",11.3,34.05779,0.255],
    [45869,"urn:WaterMeter:MC0203J22010600005","2025-02-02T17:30:00",11.199,34.07912,0.253],
    [45870,"urn:WaterMeter:MC0203J22010600005","2025-02-02T17:45:00",11.1,34.058952,0.252],
    [45871,"urn:WaterMeter:MC0203J22010600005","2025-02-02T18:00:00",11,34.03529,0.253],
    [45872,"urn:WaterMeter:MC0203J22010600005","2025-02-02T18:15:00",10.899,34.083736,0.269],
    [45873,"urn:WaterMeter:MC0203J22010600005","2025-02-02T18:30:00",10.8,34.048477,0.25],
    [45874,"urn:WaterMeter:MC0203J22010600005","2025-02-02T18:45:00",10.699,34.040718,0.261],
    [45875,"urn:WaterMeter:MC0203J22010600005","2025-02-02T19:00:00",10.6,34.039555,0.265],
    [45876,"urn:WaterMeter:MC0203J22010600005","2025-02-02T19:15:00",10.5,34.09076,0.257],
    [45877,"urn:WaterMeter:MC0203J22010600005","2025-02-02T19:30:00",10.5,34.06706,0.257],
    [45878,"urn:WaterMeter:MC0203J22010600005","2025-02-02T19:45:00",10.399,34.063953,0.256],
    [45879,"urn:WaterMeter:MC0203J22010600005","2025-02-02T20:00:00",10.3,34.06512,0.256],
    [45880,"urn:WaterMeter:MC0203J22010600005","2025-02-02T20:15:00",10.3,34.01628,0.254],
    [45881,"urn:WaterMeter:MC0203J22010600005","2025-02-02T20:30:00",10.199,34.03878,0.258],
    [45882,"urn:WaterMeter:MC0203J22010600005","2025-02-02T20:45:00",10.199,34.073303,0.253],
    [45883,"urn:WaterMeter:MC0203J22010600005","2025-02-02T21:00:00",10.1,34.047276,0.248],
    [45884,"urn:WaterMeter:MC0203J22010600005","2025-02-02T21:15:00",10,34.06473,0.267],
    [45885,"urn:WaterMeter:MC0203J22010600005","2025-02-02T21:30:00",10,34.0605,0.249],
    [45886,"urn:WaterMeter:MC0203J22010600005","2025-02-02T21:45:00",9.899,34.02788,0.253],
    [45887,"urn:WaterMeter:MC0203J22010600005","2025-02-02T22:00:00",9.899,34.065895,0.249],
    [45888,"urn:WaterMeter:MC0203J22010600005","2025-02-02T22:15:00",9.8,34.06128,0.253],
    [45889,"urn:WaterMeter:MC0203J22010600005","2025-02-02T22:30:00",9.699,34.0349,0.244],
    [45890,"urn:WaterMeter:MC0203J22010600005","2025-02-02T22:45:00",9.6,34.074078,0.256],
    [45891,"urn:WaterMeter:MC0203J22010600005","2025-02-02T23:00:00",9.6,33.98021,0.261],
    [45892,"urn:WaterMeter:MC0203J22010600005","2025-02-02T23:15:00",9.5,34.006157,0.251],
    [45893,"urn:WaterMeter:MC0203J22010600005","2025-02-02T23:30:00",9.399,34.033737,0.25],
    [45894,"urn:WaterMeter:MC0203J22010600005","2025-02-02T23:45:00",9.3,34.00969,0.256],
    [45895,"urn:WaterMeter:MC0203J22010600005","2025-02-03T00:00:00",9.3,34.0368,0.253],
    [45896,"urn:WaterMeter:MC0203J22010600005","2025-02-03T00:15:00",9.199,34.04809,0.268],
    [45897,"urn:WaterMeter:MC0203J22010600005","2025-02-03T00:30:00",9.1,34.032185,0.261],
    [45898,"urn:WaterMeter:MC0203J22010600005","2025-02-03T00:45:00",9.1,34.00969,0.248],
    [45899,"urn:WaterMeter:MC0203J22010600005","2025-02-03T01:00:00",9,34.023266,0.261],
    [45900,"urn:WaterMeter:MC0203J22010600005","2025-02-03T01:15:00",8.899,34.052746,0.257],
    [45901,"urn:WaterMeter:MC0203J22010600005","2025-02-03T01:30:00",8.8,34.052746,0.253],
    [45902,"urn:WaterMeter:MC0203J22010600005","2025-02-03T01:45:00",8.699,34.04456,0.259],
    [45903,"urn:WaterMeter:MC0203J22010600005","2025-02-03T02:00:00",8.6,34.0562,0.25],
    [45904,"urn:WaterMeter:MC0203J22010600005","2025-02-03T02:15:00",8.5,34.03719,0.257],
    [45905,"urn:WaterMeter:MC0203J22010600005","2025-02-03T02:30:00",8.399,34.036415,0.256],
    [45906,"urn:WaterMeter:MC0203J22010600005","2025-02-03T02:45:00",8.399,34.05042,0.266],
    [45907,"urn:WaterMeter:MC0203J22010600005","2025-02-03T03:00:00",8.3,34.017406,0.252],
    [45908,"urn:WaterMeter:MC0203J22010600005","2025-02-03T03:15:00",8.199,34.065895,0.254],
    [45909,"urn:WaterMeter:MC0203J22010600005","2025-02-03T03:30:00",8.1,34.05042,0.262],
    [45910,"urn:WaterMeter:MC0203J22010600005","2025-02-03T03:45:00",8,34.043434,0.254],
    [45911,"urn:WaterMeter:MC0203J22010600005","2025-02-03T04:00:00",8,34.077957,0.247],
    [45912,"urn:WaterMeter:MC0203J22010600005","2025-02-03T04:15:00",7.9,34.05779,0.262],
    [45913,"urn:WaterMeter:MC0203J22010600005","2025-02-03T04:30:00",7.8,34.058952,0.256],
    [45914,"urn:WaterMeter:MC0203J22010600005","2025-02-03T04:45:00",7.699,34.034126,0.251],
    [45915,"urn:WaterMeter:MC0203J22010600005","2025-02-03T05:00:00",7.599,34.05779,0.26],
    [45916,"urn:WaterMeter:MC0203J22010600005","2025-02-03T05:15:00",7.699,34.07757,0.261],
    [45917,"urn:WaterMeter:MC0203J22010600005","2025-02-03T05:30:00",7.9,34.069813,0.253],
    [45918,"urn:WaterMeter:MC0203J22010600005","2025-02-03T05:45:00",7.9,34.17183,0.257],
    [45919,"urn:WaterMeter:MC0203J22010600005","2025-02-03T06:00:00",7.9,34.797512,0.27],
    [45920,"urn:WaterMeter:MC0203J22010600005","2025-02-03T06:15:00",7.9,35.670677,0.295],
    [45921,"urn:WaterMeter:MC0203J22010600005","2025-02-03T06:30:00",7.9,36.533752,0.284],
    [45922,"urn:WaterMeter:MC0203J22010600005","2025-02-03T06:45:00",7.9,37.13461,0.272],
    [45923,"urn:WaterMeter:MC0203J22010600005","2025-02-03T07:00:00",8,37.54889,0.288],
    [45924,"urn:WaterMeter:MC0203J22010600005","2025-02-03T07:15:00",8,37.814598,0.298],
    [45925,"urn:WaterMeter:MC0203J22010600005","2025-02-03T07:30:00",8,38.072124,0.302],
    [45926,"urn:WaterMeter:MC0203J22010600005","2025-02-03T07:45:00",8.1,38.342106,0.301],
    [45927,"urn:WaterMeter:MC0203J22010600005","2025-02-03T08:00:00",8.1,38.553936,0.311],
    [45928,"urn:WaterMeter:MC0203J22010600005","2025-02-03T08:15:00",8.1,38.356495,0.301],
    [45929,"urn:WaterMeter:MC0203J22010600005","2025-02-03T08:30:00",8.1,38.105137,0.3],
    [45930,"urn:WaterMeter:MC0203J22010600005","2025-02-03T08:45:00",8.1,37.85688,0.299],
    [45931,"urn:WaterMeter:MC0203J22010600005","2025-02-03T09:00:00",8.1,37.63535,0.296],
    [45932,"urn:WaterMeter:MC0203J22010600005","2025-02-03T09:15:00",8.199,37.40963,0.292],
    [45933,"urn:WaterMeter:MC0203J22010600005","2025-02-03T09:30:00",8.399,37.30645,0.288],
    [45934,"urn:WaterMeter:MC0203J22010600005","2025-02-03T09:45:00",8.5,37.282402,0.289],
    [45935,"urn:WaterMeter:MC0203J22010600005","2025-02-03T10:00:00",8.699,37.198574,0.294],
    [45936,"urn:WaterMeter:MC0203J22010600005","2025-02-03T10:15:00",8.899,37.13616,0.291],
    [45937,"urn:WaterMeter:MC0203J22010600005","2025-02-03T10:30:00",9.1,37.052338,0.282],
    [45938,"urn:WaterMeter:MC0203J22010600005","2025-02-03T10:45:00",9.3,36.966225,0.278],
    [45939,"urn:WaterMeter:MC0203J22010600005","2025-02-03T11:00:00",9.399,36.916573,0.271],
    [45940,"urn:WaterMeter:MC0203J22010600005","2025-02-03T11:15:00",9.6,36.81537,0.286],
    [45941,"urn:WaterMeter:MC0203J22010600005","2025-02-03T11:30:00",9.699,36.784725,0.289],
    [45942,"urn:WaterMeter:MC0203J22010600005","2025-02-03T11:45:00",9.899,36.75947,0.269],
    [45943,"urn:WaterMeter:MC0203J22010600005","2025-02-03T12:00:00",10.1,36.526382,0.273],
    [45944,"urn:WaterMeter:MC0203J22010600005","2025-02-03T12:15:00",10.199,36.43833,0.265],
    [45945,"urn:WaterMeter:MC0203J22010600005","2025-02-03T12:30:00",10.3,36.448414,0.277],
    [45946,"urn:WaterMeter:MC0203J22010600005","2025-02-03T12:45:00",10.399,36.32894,0.281],
    [45947,"urn:WaterMeter:MC0203J22010600005","2025-02-03T13:00:00",10.5,36.358036,0.274],
    [45948,"urn:WaterMeter:MC0203J22010600005","2025-02-03T13:15:00",10.6,36.27347,0.265],
    [45949,"urn:WaterMeter:MC0203J22010600005","2025-02-03T13:30:00",10.699,36.23158,0.267],
    [45950,"urn:WaterMeter:MC0203J22010600005","2025-02-03T13:45:00",10.8,36.264164,0.287],
    [45951,"urn:WaterMeter:MC0203J22010600005","2025-02-03T14:00:00",10.899,36.24593,0.262],
    [45952,"urn:WaterMeter:MC0203J22010600005","2025-02-03T14:15:00",10.899,36.17064,0.271],
    [45953,"urn:WaterMeter:MC0203J22010600005","2025-02-03T14:30:00",10.899,36.131073,0.278]
]}
